<?xml version="1.0" encoding="UTF-8" standalone="no" ?>
<gpx xmlns="http://www.topografix.com/GPX/1/1" xmlns:xsi="http://www.w3.org/2001/XMLSchema-instance" xsi:schemaLocation="http://www.topografix.com/GPX/1/1 http://www.topografix.com/GPX/1/1/gpx.xsd" version="1.1" creator="VisuGPX - https://www.visugpx.com">
  <metadata>
    <name>Dodécaudax #13 </name>
  </metadata>
  <trk>
    <name><![CDATA[Dodécaudax #13 1ere partie ]]></name>
    <extensions>
      <line xmlns="http://www.topografix.com/GPX/gpx_style/0/2">
        <color>0000FF</color>
        <width>4</width>
      </line>
    </extensions>
    <trkseg>
      <trkpt lat="46.67025" lon="5.55151">
        <ele>267</ele>
        <time>2022-03-21T07:27:29Z</time>
      </trkpt>
      <trkpt lat="46.67025" lon="5.55151">
        <ele>263.4</ele>
        <time>2022-03-21T07:27:44Z</time>
      </trkpt>
      <trkpt lat="46.67025" lon="5.55151">
        <ele>263.4</ele>
        <time>2022-03-21T07:28:03Z</time>
      </trkpt>
      <trkpt lat="46.67026" lon="5.55163">
        <ele>263.8</ele>
        <time>2022-03-21T07:28:17Z</time>
      </trkpt>
      <trkpt lat="46.67027" lon="5.55163">
        <ele>263.8</ele>
        <time>2022-03-21T07:28:18Z</time>
      </trkpt>
      <trkpt lat="46.67029" lon="5.55163">
        <ele>263.8</ele>
        <time>2022-03-21T07:28:19Z</time>
      </trkpt>
      <trkpt lat="46.6703" lon="5.55164">
        <ele>263.8</ele>
        <time>2022-03-21T07:28:20Z</time>
      </trkpt>
      <trkpt lat="46.67032" lon="5.55164">
        <ele>263.8</ele>
        <time>2022-03-21T07:28:21Z</time>
      </trkpt>
      <trkpt lat="46.67034" lon="5.55164">
        <ele>263.8</ele>
        <time>2022-03-21T07:28:22Z</time>
      </trkpt>
      <trkpt lat="46.67036" lon="5.55164">
        <ele>263.4</ele>
        <time>2022-03-21T07:28:23Z</time>
      </trkpt>
      <trkpt lat="46.67039" lon="5.55164">
        <ele>263.4</ele>
        <time>2022-03-21T07:28:24Z</time>
      </trkpt>
      <trkpt lat="46.67042" lon="5.55164">
        <ele>263.4</ele>
        <time>2022-03-21T07:28:25Z</time>
      </trkpt>
      <trkpt lat="46.67044" lon="5.55164">
        <ele>263.2</ele>
        <time>2022-03-21T07:28:26Z</time>
      </trkpt>
      <trkpt lat="46.67047" lon="5.55164">
        <ele>263.2</ele>
        <time>2022-03-21T07:28:27Z</time>
      </trkpt>
      <trkpt lat="46.6705" lon="5.55164">
        <ele>263</ele>
        <time>2022-03-21T07:28:28Z</time>
      </trkpt>
      <trkpt lat="46.67054" lon="5.55164">
        <ele>263</ele>
        <time>2022-03-21T07:28:29Z</time>
      </trkpt>
      <trkpt lat="46.67057" lon="5.55165">
        <ele>262.6</ele>
        <time>2022-03-21T07:28:30Z</time>
      </trkpt>
      <trkpt lat="46.6706" lon="5.55165">
        <ele>262.6</ele>
        <time>2022-03-21T07:28:31Z</time>
      </trkpt>
      <trkpt lat="46.67064" lon="5.55165">
        <ele>262.4</ele>
        <time>2022-03-21T07:28:32Z</time>
      </trkpt>
      <trkpt lat="46.67068" lon="5.55164">
        <ele>262.4</ele>
        <time>2022-03-21T07:28:33Z</time>
      </trkpt>
      <trkpt lat="46.67072" lon="5.55163">
        <ele>262.4</ele>
        <time>2022-03-21T07:28:34Z</time>
      </trkpt>
      <trkpt lat="46.67076" lon="5.55163">
        <ele>262</ele>
        <time>2022-03-21T07:28:35Z</time>
      </trkpt>
      <trkpt lat="46.6708" lon="5.55162">
        <ele>262</ele>
        <time>2022-03-21T07:28:36Z</time>
      </trkpt>
      <trkpt lat="46.67084" lon="5.55162">
        <ele>261.8</ele>
        <time>2022-03-21T07:28:37Z</time>
      </trkpt>
      <trkpt lat="46.67088" lon="5.55161">
        <ele>261.8</ele>
        <time>2022-03-21T07:28:38Z</time>
      </trkpt>
      <trkpt lat="46.67093" lon="5.5516">
        <ele>261.4</ele>
        <time>2022-03-21T07:28:39Z</time>
      </trkpt>
      <trkpt lat="46.67097" lon="5.5516">
        <ele>261.4</ele>
        <time>2022-03-21T07:28:40Z</time>
      </trkpt>
      <trkpt lat="46.67103" lon="5.5516">
        <ele>261.4</ele>
        <time>2022-03-21T07:28:41Z</time>
      </trkpt>
      <trkpt lat="46.67108" lon="5.5516">
        <ele>261.2</ele>
        <time>2022-03-21T07:28:42Z</time>
      </trkpt>
      <trkpt lat="46.67115" lon="5.55162">
        <ele>261.2</ele>
        <time>2022-03-21T07:28:43Z</time>
      </trkpt>
      <trkpt lat="46.67122" lon="5.55165">
        <ele>260.8</ele>
        <time>2022-03-21T07:28:44Z</time>
      </trkpt>
      <trkpt lat="46.67129" lon="5.55166">
        <ele>260.8</ele>
        <time>2022-03-21T07:28:45Z</time>
      </trkpt>
      <trkpt lat="46.67136" lon="5.55168">
        <ele>260.6</ele>
        <time>2022-03-21T07:28:46Z</time>
      </trkpt>
      <trkpt lat="46.67144" lon="5.5517">
        <ele>260.6</ele>
        <time>2022-03-21T07:28:47Z</time>
      </trkpt>
      <trkpt lat="46.67151" lon="5.55172">
        <ele>260.2</ele>
        <time>2022-03-21T07:28:48Z</time>
      </trkpt>
      <trkpt lat="46.67158" lon="5.55173">
        <ele>260.2</ele>
        <time>2022-03-21T07:28:49Z</time>
      </trkpt>
      <trkpt lat="46.67164" lon="5.55175">
        <ele>260</ele>
        <time>2022-03-21T07:28:50Z</time>
      </trkpt>
      <trkpt lat="46.6717" lon="5.55176">
        <ele>260</ele>
        <time>2022-03-21T07:28:51Z</time>
      </trkpt>
      <trkpt lat="46.67176" lon="5.55178">
        <ele>259.6</ele>
        <time>2022-03-21T07:28:52Z</time>
      </trkpt>
      <trkpt lat="46.67182" lon="5.55179">
        <ele>259.4</ele>
        <time>2022-03-21T07:28:53Z</time>
      </trkpt>
      <trkpt lat="46.67188" lon="5.55179">
        <ele>259.4</ele>
        <time>2022-03-21T07:28:54Z</time>
      </trkpt>
      <trkpt lat="46.67195" lon="5.5518">
        <ele>259</ele>
        <time>2022-03-21T07:28:55Z</time>
      </trkpt>
      <trkpt lat="46.67201" lon="5.5518">
        <ele>259</ele>
        <time>2022-03-21T07:28:56Z</time>
      </trkpt>
      <trkpt lat="46.67207" lon="5.55182">
        <ele>258.8</ele>
        <time>2022-03-21T07:28:57Z</time>
      </trkpt>
      <trkpt lat="46.67212" lon="5.55184">
        <ele>258.6</ele>
        <time>2022-03-21T07:28:58Z</time>
      </trkpt>
      <trkpt lat="46.67218" lon="5.55185">
        <ele>258.4</ele>
        <time>2022-03-21T07:28:59Z</time>
      </trkpt>
      <trkpt lat="46.67224" lon="5.55186">
        <ele>258</ele>
        <time>2022-03-21T07:29:00Z</time>
      </trkpt>
      <trkpt lat="46.67229" lon="5.55186">
        <ele>257.8</ele>
        <time>2022-03-21T07:29:01Z</time>
      </trkpt>
      <trkpt lat="46.67235" lon="5.55186">
        <ele>257.6</ele>
        <time>2022-03-21T07:29:02Z</time>
      </trkpt>
      <trkpt lat="46.6724" lon="5.55186">
        <ele>257.4</ele>
        <time>2022-03-21T07:29:03Z</time>
      </trkpt>
      <trkpt lat="46.67244" lon="5.55186">
        <ele>257.4</ele>
        <time>2022-03-21T07:29:04Z</time>
      </trkpt>
      <trkpt lat="46.67247" lon="5.55185">
        <ele>257</ele>
        <time>2022-03-21T07:29:05Z</time>
      </trkpt>
      <trkpt lat="46.6725" lon="5.55185">
        <ele>257</ele>
        <time>2022-03-21T07:29:06Z</time>
      </trkpt>
      <trkpt lat="46.67252" lon="5.55185">
        <ele>256.8</ele>
        <time>2022-03-21T07:29:07Z</time>
      </trkpt>
      <trkpt lat="46.67254" lon="5.55185">
        <ele>256.8</ele>
        <time>2022-03-21T07:29:08Z</time>
      </trkpt>
      <trkpt lat="46.67256" lon="5.55185">
        <ele>256.6</ele>
        <time>2022-03-21T07:29:09Z</time>
      </trkpt>
      <trkpt lat="46.67257" lon="5.55185">
        <ele>256.6</ele>
        <time>2022-03-21T07:29:10Z</time>
      </trkpt>
      <trkpt lat="46.67259" lon="5.55185">
        <ele>256.6</ele>
        <time>2022-03-21T07:29:11Z</time>
      </trkpt>
      <trkpt lat="46.6726" lon="5.55184">
        <ele>256.6</ele>
        <time>2022-03-21T07:29:12Z</time>
      </trkpt>
      <trkpt lat="46.67261" lon="5.55184">
        <ele>256.6</ele>
        <time>2022-03-21T07:29:13Z</time>
      </trkpt>
      <trkpt lat="46.67264" lon="5.55184">
        <ele>256.2</ele>
        <time>2022-03-21T07:29:17Z</time>
      </trkpt>
      <trkpt lat="46.67267" lon="5.55186">
        <ele>256</ele>
        <time>2022-03-21T07:29:18Z</time>
      </trkpt>
      <trkpt lat="46.67269" lon="5.55187">
        <ele>256</ele>
        <time>2022-03-21T07:29:19Z</time>
      </trkpt>
      <trkpt lat="46.6727" lon="5.55188">
        <ele>256</ele>
        <time>2022-03-21T07:29:20Z</time>
      </trkpt>
      <trkpt lat="46.67272" lon="5.55188">
        <ele>256</ele>
        <time>2022-03-21T07:29:21Z</time>
      </trkpt>
      <trkpt lat="46.67274" lon="5.55187">
        <ele>256</ele>
        <time>2022-03-21T07:29:22Z</time>
      </trkpt>
      <trkpt lat="46.67277" lon="5.55185">
        <ele>256</ele>
        <time>2022-03-21T07:29:23Z</time>
      </trkpt>
      <trkpt lat="46.67279" lon="5.55182">
        <ele>256</ele>
        <time>2022-03-21T07:29:24Z</time>
      </trkpt>
      <trkpt lat="46.67281" lon="5.55177">
        <ele>255.8</ele>
        <time>2022-03-21T07:29:25Z</time>
      </trkpt>
      <trkpt lat="46.67283" lon="5.55171">
        <ele>255.8</ele>
        <time>2022-03-21T07:29:26Z</time>
      </trkpt>
      <trkpt lat="46.67286" lon="5.55165">
        <ele>255.4</ele>
        <time>2022-03-21T07:29:27Z</time>
      </trkpt>
      <trkpt lat="46.67289" lon="5.55159">
        <ele>255.4</ele>
        <time>2022-03-21T07:29:28Z</time>
      </trkpt>
      <trkpt lat="46.67291" lon="5.55152">
        <ele>255.4</ele>
        <time>2022-03-21T07:29:29Z</time>
      </trkpt>
      <trkpt lat="46.67294" lon="5.55146">
        <ele>255.4</ele>
        <time>2022-03-21T07:29:30Z</time>
      </trkpt>
      <trkpt lat="46.67297" lon="5.5514">
        <ele>255.4</ele>
        <time>2022-03-21T07:29:31Z</time>
      </trkpt>
      <trkpt lat="46.67299" lon="5.55134">
        <ele>255.4</ele>
        <time>2022-03-21T07:29:32Z</time>
      </trkpt>
      <trkpt lat="46.67302" lon="5.55129">
        <ele>255.2</ele>
        <time>2022-03-21T07:29:33Z</time>
      </trkpt>
      <trkpt lat="46.67305" lon="5.55125">
        <ele>255.2</ele>
        <time>2022-03-21T07:29:34Z</time>
      </trkpt>
      <trkpt lat="46.67307" lon="5.55121">
        <ele>255.2</ele>
        <time>2022-03-21T07:29:35Z</time>
      </trkpt>
      <trkpt lat="46.6731" lon="5.55119">
        <ele>255.2</ele>
        <time>2022-03-21T07:29:36Z</time>
      </trkpt>
      <trkpt lat="46.67312" lon="5.55118">
        <ele>255</ele>
        <time>2022-03-21T07:29:37Z</time>
      </trkpt>
      <trkpt lat="46.67315" lon="5.55119">
        <ele>255</ele>
        <time>2022-03-21T07:29:38Z</time>
      </trkpt>
      <trkpt lat="46.67319" lon="5.55121">
        <ele>255</ele>
        <time>2022-03-21T07:29:39Z</time>
      </trkpt>
      <trkpt lat="46.67322" lon="5.55124">
        <ele>254.6</ele>
        <time>2022-03-21T07:29:40Z</time>
      </trkpt>
      <trkpt lat="46.67326" lon="5.55129">
        <ele>254.6</ele>
        <time>2022-03-21T07:29:41Z</time>
      </trkpt>
      <trkpt lat="46.6733" lon="5.55133">
        <ele>254.6</ele>
        <time>2022-03-21T07:29:42Z</time>
      </trkpt>
      <trkpt lat="46.67334" lon="5.55137">
        <ele>254.6</ele>
        <time>2022-03-21T07:29:43Z</time>
      </trkpt>
      <trkpt lat="46.67338" lon="5.55141">
        <ele>254.6</ele>
        <time>2022-03-21T07:29:44Z</time>
      </trkpt>
      <trkpt lat="46.67342" lon="5.55145">
        <ele>254.6</ele>
        <time>2022-03-21T07:29:45Z</time>
      </trkpt>
      <trkpt lat="46.67346" lon="5.55148">
        <ele>254.6</ele>
        <time>2022-03-21T07:29:46Z</time>
      </trkpt>
      <trkpt lat="46.67349" lon="5.55152">
        <ele>254.6</ele>
        <time>2022-03-21T07:29:47Z</time>
      </trkpt>
      <trkpt lat="46.67353" lon="5.55156">
        <ele>254.6</ele>
        <time>2022-03-21T07:29:48Z</time>
      </trkpt>
      <trkpt lat="46.67357" lon="5.5516">
        <ele>254.8</ele>
        <time>2022-03-21T07:29:49Z</time>
      </trkpt>
      <trkpt lat="46.67361" lon="5.55164">
        <ele>254.8</ele>
        <time>2022-03-21T07:29:50Z</time>
      </trkpt>
      <trkpt lat="46.67364" lon="5.55168">
        <ele>254.8</ele>
        <time>2022-03-21T07:29:51Z</time>
      </trkpt>
      <trkpt lat="46.67367" lon="5.5517">
        <ele>254.8</ele>
        <time>2022-03-21T07:29:52Z</time>
      </trkpt>
      <trkpt lat="46.6737" lon="5.55173">
        <ele>254.8</ele>
        <time>2022-03-21T07:29:53Z</time>
      </trkpt>
      <trkpt lat="46.67374" lon="5.55176">
        <ele>255.2</ele>
        <time>2022-03-21T07:29:54Z</time>
      </trkpt>
      <trkpt lat="46.67378" lon="5.5518">
        <ele>255.2</ele>
        <time>2022-03-21T07:29:55Z</time>
      </trkpt>
      <trkpt lat="46.67381" lon="5.55183">
        <ele>255.2</ele>
        <time>2022-03-21T07:29:56Z</time>
      </trkpt>
      <trkpt lat="46.67384" lon="5.55186">
        <ele>255.2</ele>
        <time>2022-03-21T07:29:57Z</time>
      </trkpt>
      <trkpt lat="46.67386" lon="5.55189">
        <ele>255.2</ele>
        <time>2022-03-21T07:29:58Z</time>
      </trkpt>
      <trkpt lat="46.67389" lon="5.55191">
        <ele>255.2</ele>
        <time>2022-03-21T07:29:59Z</time>
      </trkpt>
      <trkpt lat="46.67392" lon="5.55192">
        <ele>255.2</ele>
        <time>2022-03-21T07:30:00Z</time>
      </trkpt>
      <trkpt lat="46.67394" lon="5.55191">
        <ele>255.2</ele>
        <time>2022-03-21T07:30:01Z</time>
      </trkpt>
      <trkpt lat="46.67397" lon="5.55188">
        <ele>255.2</ele>
        <time>2022-03-21T07:30:02Z</time>
      </trkpt>
      <trkpt lat="46.67399" lon="5.55184">
        <ele>255.2</ele>
        <time>2022-03-21T07:30:03Z</time>
      </trkpt>
      <trkpt lat="46.67401" lon="5.55179">
        <ele>255.2</ele>
        <time>2022-03-21T07:30:04Z</time>
      </trkpt>
      <trkpt lat="46.67403" lon="5.55174">
        <ele>255.2</ele>
        <time>2022-03-21T07:30:05Z</time>
      </trkpt>
      <trkpt lat="46.67404" lon="5.55169">
        <ele>255.2</ele>
        <time>2022-03-21T07:30:06Z</time>
      </trkpt>
      <trkpt lat="46.67407" lon="5.55162">
        <ele>255.2</ele>
        <time>2022-03-21T07:30:07Z</time>
      </trkpt>
      <trkpt lat="46.67409" lon="5.55155">
        <ele>255.2</ele>
        <time>2022-03-21T07:30:08Z</time>
      </trkpt>
      <trkpt lat="46.67412" lon="5.55147">
        <ele>255.2</ele>
        <time>2022-03-21T07:30:09Z</time>
      </trkpt>
      <trkpt lat="46.67414" lon="5.55138">
        <ele>255.2</ele>
        <time>2022-03-21T07:30:10Z</time>
      </trkpt>
      <trkpt lat="46.67417" lon="5.55129">
        <ele>254.8</ele>
        <time>2022-03-21T07:30:11Z</time>
      </trkpt>
      <trkpt lat="46.67419" lon="5.5512">
        <ele>254.8</ele>
        <time>2022-03-21T07:30:12Z</time>
      </trkpt>
      <trkpt lat="46.67422" lon="5.5511">
        <ele>254.8</ele>
        <time>2022-03-21T07:30:13Z</time>
      </trkpt>
      <trkpt lat="46.67424" lon="5.55101">
        <ele>254.8</ele>
        <time>2022-03-21T07:30:14Z</time>
      </trkpt>
      <trkpt lat="46.67427" lon="5.55091">
        <ele>254.6</ele>
        <time>2022-03-21T07:30:15Z</time>
      </trkpt>
      <trkpt lat="46.6743" lon="5.55081">
        <ele>254.6</ele>
        <time>2022-03-21T07:30:16Z</time>
      </trkpt>
      <trkpt lat="46.67433" lon="5.55072">
        <ele>254.6</ele>
        <time>2022-03-21T07:30:17Z</time>
      </trkpt>
      <trkpt lat="46.67435" lon="5.55063">
        <ele>254.6</ele>
        <time>2022-03-21T07:30:18Z</time>
      </trkpt>
      <trkpt lat="46.67438" lon="5.55054">
        <ele>254.6</ele>
        <time>2022-03-21T07:30:19Z</time>
      </trkpt>
      <trkpt lat="46.67441" lon="5.55044">
        <ele>254.4</ele>
        <time>2022-03-21T07:30:20Z</time>
      </trkpt>
      <trkpt lat="46.67444" lon="5.55035">
        <ele>254.4</ele>
        <time>2022-03-21T07:30:21Z</time>
      </trkpt>
      <trkpt lat="46.67447" lon="5.55025">
        <ele>254.4</ele>
        <time>2022-03-21T07:30:22Z</time>
      </trkpt>
      <trkpt lat="46.6745" lon="5.55015">
        <ele>254.4</ele>
        <time>2022-03-21T07:30:23Z</time>
      </trkpt>
      <trkpt lat="46.67453" lon="5.55006">
        <ele>254</ele>
        <time>2022-03-21T07:30:24Z</time>
      </trkpt>
      <trkpt lat="46.67456" lon="5.54996">
        <ele>254</ele>
        <time>2022-03-21T07:30:25Z</time>
      </trkpt>
      <trkpt lat="46.6746" lon="5.54987">
        <ele>254</ele>
        <time>2022-03-21T07:30:26Z</time>
      </trkpt>
      <trkpt lat="46.67462" lon="5.54976">
        <ele>254</ele>
        <time>2022-03-21T07:30:27Z</time>
      </trkpt>
      <trkpt lat="46.67464" lon="5.54967">
        <ele>253.8</ele>
        <time>2022-03-21T07:30:28Z</time>
      </trkpt>
      <trkpt lat="46.67467" lon="5.54957">
        <ele>253.8</ele>
        <time>2022-03-21T07:30:29Z</time>
      </trkpt>
      <trkpt lat="46.67469" lon="5.54948">
        <ele>253.8</ele>
        <time>2022-03-21T07:30:30Z</time>
      </trkpt>
      <trkpt lat="46.67471" lon="5.54938">
        <ele>253.8</ele>
        <time>2022-03-21T07:30:31Z</time>
      </trkpt>
      <trkpt lat="46.67474" lon="5.54929">
        <ele>253.8</ele>
        <time>2022-03-21T07:30:32Z</time>
      </trkpt>
      <trkpt lat="46.67476" lon="5.5492">
        <ele>253.8</ele>
        <time>2022-03-21T07:30:33Z</time>
      </trkpt>
      <trkpt lat="46.67479" lon="5.54911">
        <ele>253.4</ele>
        <time>2022-03-21T07:30:34Z</time>
      </trkpt>
      <trkpt lat="46.67483" lon="5.54902">
        <ele>253.4</ele>
        <time>2022-03-21T07:30:35Z</time>
      </trkpt>
      <trkpt lat="46.67486" lon="5.54893">
        <ele>253.2</ele>
        <time>2022-03-21T07:30:36Z</time>
      </trkpt>
      <trkpt lat="46.67488" lon="5.54884">
        <ele>253.2</ele>
        <time>2022-03-21T07:30:37Z</time>
      </trkpt>
      <trkpt lat="46.6749" lon="5.54876">
        <ele>252.8</ele>
        <time>2022-03-21T07:30:38Z</time>
      </trkpt>
      <trkpt lat="46.67492" lon="5.54869">
        <ele>252.6</ele>
        <time>2022-03-21T07:30:39Z</time>
      </trkpt>
      <trkpt lat="46.67494" lon="5.54863">
        <ele>252.6</ele>
        <time>2022-03-21T07:30:40Z</time>
      </trkpt>
      <trkpt lat="46.67495" lon="5.54858">
        <ele>252.4</ele>
        <time>2022-03-21T07:30:41Z</time>
      </trkpt>
      <trkpt lat="46.67497" lon="5.54853">
        <ele>252.4</ele>
        <time>2022-03-21T07:30:42Z</time>
      </trkpt>
      <trkpt lat="46.67498" lon="5.54849">
        <ele>252</ele>
        <time>2022-03-21T07:30:43Z</time>
      </trkpt>
      <trkpt lat="46.67501" lon="5.54847">
        <ele>252</ele>
        <time>2022-03-21T07:30:44Z</time>
      </trkpt>
      <trkpt lat="46.67503" lon="5.54846">
        <ele>251.8</ele>
        <time>2022-03-21T07:30:45Z</time>
      </trkpt>
      <trkpt lat="46.67506" lon="5.54846">
        <ele>251.8</ele>
        <time>2022-03-21T07:30:46Z</time>
      </trkpt>
      <trkpt lat="46.67509" lon="5.54847">
        <ele>251.6</ele>
        <time>2022-03-21T07:30:47Z</time>
      </trkpt>
      <trkpt lat="46.67511" lon="5.54848">
        <ele>251.6</ele>
        <time>2022-03-21T07:30:48Z</time>
      </trkpt>
      <trkpt lat="46.67514" lon="5.54846">
        <ele>251.4</ele>
        <time>2022-03-21T07:30:49Z</time>
      </trkpt>
      <trkpt lat="46.67517" lon="5.54843">
        <ele>251.4</ele>
        <time>2022-03-21T07:30:50Z</time>
      </trkpt>
      <trkpt lat="46.67518" lon="5.54838">
        <ele>251.2</ele>
        <time>2022-03-21T07:30:51Z</time>
      </trkpt>
      <trkpt lat="46.67518" lon="5.54832">
        <ele>251.2</ele>
        <time>2022-03-21T07:30:52Z</time>
      </trkpt>
      <trkpt lat="46.67519" lon="5.54824">
        <ele>251.2</ele>
        <time>2022-03-21T07:30:53Z</time>
      </trkpt>
      <trkpt lat="46.6752" lon="5.54816">
        <ele>251.2</ele>
        <time>2022-03-21T07:30:54Z</time>
      </trkpt>
      <trkpt lat="46.6752" lon="5.54807">
        <ele>251.2</ele>
        <time>2022-03-21T07:30:55Z</time>
      </trkpt>
      <trkpt lat="46.67521" lon="5.54798">
        <ele>251.2</ele>
        <time>2022-03-21T07:30:56Z</time>
      </trkpt>
      <trkpt lat="46.67521" lon="5.54789">
        <ele>251.2</ele>
        <time>2022-03-21T07:30:57Z</time>
      </trkpt>
      <trkpt lat="46.67521" lon="5.5478">
        <ele>251.2</ele>
        <time>2022-03-21T07:30:58Z</time>
      </trkpt>
      <trkpt lat="46.67521" lon="5.54771">
        <ele>251.2</ele>
        <time>2022-03-21T07:30:59Z</time>
      </trkpt>
      <trkpt lat="46.67522" lon="5.54763">
        <ele>251.2</ele>
        <time>2022-03-21T07:31:00Z</time>
      </trkpt>
      <trkpt lat="46.67523" lon="5.54755">
        <ele>251.4</ele>
        <time>2022-03-21T07:31:01Z</time>
      </trkpt>
      <trkpt lat="46.67524" lon="5.54746">
        <ele>251.4</ele>
        <time>2022-03-21T07:31:02Z</time>
      </trkpt>
      <trkpt lat="46.67526" lon="5.54737">
        <ele>251.4</ele>
        <time>2022-03-21T07:31:03Z</time>
      </trkpt>
      <trkpt lat="46.6753" lon="5.54728">
        <ele>251.4</ele>
        <time>2022-03-21T07:31:04Z</time>
      </trkpt>
      <trkpt lat="46.67533" lon="5.54718">
        <ele>251.4</ele>
        <time>2022-03-21T07:31:05Z</time>
      </trkpt>
      <trkpt lat="46.67536" lon="5.54708">
        <ele>251.6</ele>
        <time>2022-03-21T07:31:06Z</time>
      </trkpt>
      <trkpt lat="46.67538" lon="5.54698">
        <ele>251.6</ele>
        <time>2022-03-21T07:31:07Z</time>
      </trkpt>
      <trkpt lat="46.6754" lon="5.54688">
        <ele>251.6</ele>
        <time>2022-03-21T07:31:08Z</time>
      </trkpt>
      <trkpt lat="46.67541" lon="5.54678">
        <ele>251.6</ele>
        <time>2022-03-21T07:31:09Z</time>
      </trkpt>
      <trkpt lat="46.67544" lon="5.54668">
        <ele>251.6</ele>
        <time>2022-03-21T07:31:10Z</time>
      </trkpt>
      <trkpt lat="46.67546" lon="5.54658">
        <ele>251.6</ele>
        <time>2022-03-21T07:31:11Z</time>
      </trkpt>
      <trkpt lat="46.67549" lon="5.54648">
        <ele>251.6</ele>
        <time>2022-03-21T07:31:12Z</time>
      </trkpt>
      <trkpt lat="46.67551" lon="5.54639">
        <ele>251.8</ele>
        <time>2022-03-21T07:31:13Z</time>
      </trkpt>
      <trkpt lat="46.67555" lon="5.5463">
        <ele>251.8</ele>
        <time>2022-03-21T07:31:14Z</time>
      </trkpt>
      <trkpt lat="46.67558" lon="5.54621">
        <ele>251.8</ele>
        <time>2022-03-21T07:31:15Z</time>
      </trkpt>
      <trkpt lat="46.67561" lon="5.54612">
        <ele>251.8</ele>
        <time>2022-03-21T07:31:16Z</time>
      </trkpt>
      <trkpt lat="46.67565" lon="5.54604">
        <ele>251.8</ele>
        <time>2022-03-21T07:31:17Z</time>
      </trkpt>
      <trkpt lat="46.67569" lon="5.54596">
        <ele>252</ele>
        <time>2022-03-21T07:31:18Z</time>
      </trkpt>
      <trkpt lat="46.67572" lon="5.54589">
        <ele>252</ele>
        <time>2022-03-21T07:31:19Z</time>
      </trkpt>
      <trkpt lat="46.67576" lon="5.54581">
        <ele>252</ele>
        <time>2022-03-21T07:31:20Z</time>
      </trkpt>
      <trkpt lat="46.67579" lon="5.54574">
        <ele>252.4</ele>
        <time>2022-03-21T07:31:21Z</time>
      </trkpt>
      <trkpt lat="46.67583" lon="5.54566">
        <ele>252.4</ele>
        <time>2022-03-21T07:31:22Z</time>
      </trkpt>
      <trkpt lat="46.67587" lon="5.54559">
        <ele>252.4</ele>
        <time>2022-03-21T07:31:23Z</time>
      </trkpt>
      <trkpt lat="46.6759" lon="5.54552">
        <ele>252.8</ele>
        <time>2022-03-21T07:31:24Z</time>
      </trkpt>
      <trkpt lat="46.67594" lon="5.54544">
        <ele>252.8</ele>
        <time>2022-03-21T07:31:25Z</time>
      </trkpt>
      <trkpt lat="46.67597" lon="5.54537">
        <ele>253</ele>
        <time>2022-03-21T07:31:26Z</time>
      </trkpt>
      <trkpt lat="46.67601" lon="5.5453">
        <ele>253</ele>
        <time>2022-03-21T07:31:27Z</time>
      </trkpt>
      <trkpt lat="46.67605" lon="5.54523">
        <ele>253</ele>
        <time>2022-03-21T07:31:28Z</time>
      </trkpt>
      <trkpt lat="46.67609" lon="5.54516">
        <ele>253.4</ele>
        <time>2022-03-21T07:31:29Z</time>
      </trkpt>
      <trkpt lat="46.67612" lon="5.54508">
        <ele>253.4</ele>
        <time>2022-03-21T07:31:30Z</time>
      </trkpt>
      <trkpt lat="46.67616" lon="5.545">
        <ele>253.6</ele>
        <time>2022-03-21T07:31:31Z</time>
      </trkpt>
      <trkpt lat="46.6762" lon="5.54493">
        <ele>253.6</ele>
        <time>2022-03-21T07:31:32Z</time>
      </trkpt>
      <trkpt lat="46.67624" lon="5.54485">
        <ele>253.8</ele>
        <time>2022-03-21T07:31:33Z</time>
      </trkpt>
      <trkpt lat="46.67628" lon="5.54477">
        <ele>253.8</ele>
        <time>2022-03-21T07:31:34Z</time>
      </trkpt>
      <trkpt lat="46.67632" lon="5.5447">
        <ele>254.2</ele>
        <time>2022-03-21T07:31:35Z</time>
      </trkpt>
      <trkpt lat="46.67636" lon="5.54462">
        <ele>254.2</ele>
        <time>2022-03-21T07:31:36Z</time>
      </trkpt>
      <trkpt lat="46.6764" lon="5.54455">
        <ele>254.2</ele>
        <time>2022-03-21T07:31:37Z</time>
      </trkpt>
      <trkpt lat="46.67645" lon="5.54448">
        <ele>254.2</ele>
        <time>2022-03-21T07:31:38Z</time>
      </trkpt>
      <trkpt lat="46.67649" lon="5.54441">
        <ele>254.4</ele>
        <time>2022-03-21T07:31:39Z</time>
      </trkpt>
      <trkpt lat="46.67654" lon="5.54434">
        <ele>254.4</ele>
        <time>2022-03-21T07:31:40Z</time>
      </trkpt>
      <trkpt lat="46.67658" lon="5.54426">
        <ele>254.4</ele>
        <time>2022-03-21T07:31:41Z</time>
      </trkpt>
      <trkpt lat="46.67663" lon="5.54418">
        <ele>254.4</ele>
        <time>2022-03-21T07:31:42Z</time>
      </trkpt>
      <trkpt lat="46.67667" lon="5.5441">
        <ele>254.4</ele>
        <time>2022-03-21T07:31:43Z</time>
      </trkpt>
      <trkpt lat="46.67672" lon="5.54403">
        <ele>254</ele>
        <time>2022-03-21T07:31:44Z</time>
      </trkpt>
      <trkpt lat="46.67678" lon="5.54396">
        <ele>254</ele>
        <time>2022-03-21T07:31:45Z</time>
      </trkpt>
      <trkpt lat="46.67684" lon="5.54388">
        <ele>254</ele>
        <time>2022-03-21T07:31:46Z</time>
      </trkpt>
      <trkpt lat="46.67689" lon="5.5438">
        <ele>254</ele>
        <time>2022-03-21T07:31:47Z</time>
      </trkpt>
      <trkpt lat="46.67694" lon="5.54373">
        <ele>253.8</ele>
        <time>2022-03-21T07:31:48Z</time>
      </trkpt>
      <trkpt lat="46.677" lon="5.54366">
        <ele>253.8</ele>
        <time>2022-03-21T07:31:49Z</time>
      </trkpt>
      <trkpt lat="46.67706" lon="5.54359">
        <ele>253.8</ele>
        <time>2022-03-21T07:31:50Z</time>
      </trkpt>
      <trkpt lat="46.67711" lon="5.54352">
        <ele>253.6</ele>
        <time>2022-03-21T07:31:51Z</time>
      </trkpt>
      <trkpt lat="46.67717" lon="5.54345">
        <ele>253.6</ele>
        <time>2022-03-21T07:31:52Z</time>
      </trkpt>
      <trkpt lat="46.67723" lon="5.54338">
        <ele>253.6</ele>
        <time>2022-03-21T07:31:53Z</time>
      </trkpt>
      <trkpt lat="46.67729" lon="5.54331">
        <ele>253.6</ele>
        <time>2022-03-21T07:31:54Z</time>
      </trkpt>
      <trkpt lat="46.67735" lon="5.54325">
        <ele>253.6</ele>
        <time>2022-03-21T07:31:55Z</time>
      </trkpt>
      <trkpt lat="46.67741" lon="5.54319">
        <ele>253.6</ele>
        <time>2022-03-21T07:31:56Z</time>
      </trkpt>
      <trkpt lat="46.67747" lon="5.54314">
        <ele>253.6</ele>
        <time>2022-03-21T07:31:57Z</time>
      </trkpt>
      <trkpt lat="46.67754" lon="5.54309">
        <ele>253.6</ele>
        <time>2022-03-21T07:31:58Z</time>
      </trkpt>
      <trkpt lat="46.6776" lon="5.54304">
        <ele>253.6</ele>
        <time>2022-03-21T07:31:59Z</time>
      </trkpt>
      <trkpt lat="46.67766" lon="5.543">
        <ele>253.6</ele>
        <time>2022-03-21T07:32:00Z</time>
      </trkpt>
      <trkpt lat="46.67772" lon="5.54295">
        <ele>253.6</ele>
        <time>2022-03-21T07:32:01Z</time>
      </trkpt>
      <trkpt lat="46.67777" lon="5.5429">
        <ele>254</ele>
        <time>2022-03-21T07:32:02Z</time>
      </trkpt>
      <trkpt lat="46.67782" lon="5.54284">
        <ele>254</ele>
        <time>2022-03-21T07:32:03Z</time>
      </trkpt>
      <trkpt lat="46.67787" lon="5.54277">
        <ele>254.2</ele>
        <time>2022-03-21T07:32:04Z</time>
      </trkpt>
      <trkpt lat="46.67791" lon="5.54271">
        <ele>254.2</ele>
        <time>2022-03-21T07:32:05Z</time>
      </trkpt>
      <trkpt lat="46.67796" lon="5.54264">
        <ele>254.2</ele>
        <time>2022-03-21T07:32:06Z</time>
      </trkpt>
      <trkpt lat="46.678" lon="5.54257">
        <ele>254.4</ele>
        <time>2022-03-21T07:32:07Z</time>
      </trkpt>
      <trkpt lat="46.67805" lon="5.5425">
        <ele>254.4</ele>
        <time>2022-03-21T07:32:08Z</time>
      </trkpt>
      <trkpt lat="46.67809" lon="5.54243">
        <ele>254.4</ele>
        <time>2022-03-21T07:32:09Z</time>
      </trkpt>
      <trkpt lat="46.67814" lon="5.54236">
        <ele>254.4</ele>
        <time>2022-03-21T07:32:10Z</time>
      </trkpt>
      <trkpt lat="46.67818" lon="5.54229">
        <ele>254.6</ele>
        <time>2022-03-21T07:32:11Z</time>
      </trkpt>
      <trkpt lat="46.67823" lon="5.54222">
        <ele>254.6</ele>
        <time>2022-03-21T07:32:12Z</time>
      </trkpt>
      <trkpt lat="46.67828" lon="5.54215">
        <ele>254.6</ele>
        <time>2022-03-21T07:32:13Z</time>
      </trkpt>
      <trkpt lat="46.67833" lon="5.54209">
        <ele>254.6</ele>
        <time>2022-03-21T07:32:14Z</time>
      </trkpt>
      <trkpt lat="46.67838" lon="5.54203">
        <ele>254.6</ele>
        <time>2022-03-21T07:32:15Z</time>
      </trkpt>
      <trkpt lat="46.67843" lon="5.54197">
        <ele>254.6</ele>
        <time>2022-03-21T07:32:16Z</time>
      </trkpt>
      <trkpt lat="46.67849" lon="5.54191">
        <ele>254.6</ele>
        <time>2022-03-21T07:32:17Z</time>
      </trkpt>
      <trkpt lat="46.67855" lon="5.54186">
        <ele>254.8</ele>
        <time>2022-03-21T07:32:18Z</time>
      </trkpt>
      <trkpt lat="46.6786" lon="5.54182">
        <ele>254.8</ele>
        <time>2022-03-21T07:32:19Z</time>
      </trkpt>
      <trkpt lat="46.67866" lon="5.54177">
        <ele>255.2</ele>
        <time>2022-03-21T07:32:20Z</time>
      </trkpt>
      <trkpt lat="46.67871" lon="5.54172">
        <ele>255.2</ele>
        <time>2022-03-21T07:32:21Z</time>
      </trkpt>
      <trkpt lat="46.67877" lon="5.54167">
        <ele>255.4</ele>
        <time>2022-03-21T07:32:22Z</time>
      </trkpt>
      <trkpt lat="46.67882" lon="5.54162">
        <ele>255.4</ele>
        <time>2022-03-21T07:32:23Z</time>
      </trkpt>
      <trkpt lat="46.67887" lon="5.54157">
        <ele>255.6</ele>
        <time>2022-03-21T07:32:24Z</time>
      </trkpt>
      <trkpt lat="46.67893" lon="5.54151">
        <ele>255.6</ele>
        <time>2022-03-21T07:32:25Z</time>
      </trkpt>
      <trkpt lat="46.67897" lon="5.54145">
        <ele>255.6</ele>
        <time>2022-03-21T07:32:26Z</time>
      </trkpt>
      <trkpt lat="46.67902" lon="5.54137">
        <ele>255.6</ele>
        <time>2022-03-21T07:32:27Z</time>
      </trkpt>
      <trkpt lat="46.67905" lon="5.54128">
        <ele>255.4</ele>
        <time>2022-03-21T07:32:28Z</time>
      </trkpt>
      <trkpt lat="46.67908" lon="5.54118">
        <ele>255.4</ele>
        <time>2022-03-21T07:32:29Z</time>
      </trkpt>
      <trkpt lat="46.67911" lon="5.54107">
        <ele>255</ele>
        <time>2022-03-21T07:32:30Z</time>
      </trkpt>
      <trkpt lat="46.67913" lon="5.54096">
        <ele>255</ele>
        <time>2022-03-21T07:32:31Z</time>
      </trkpt>
      <trkpt lat="46.67915" lon="5.54085">
        <ele>254.6</ele>
        <time>2022-03-21T07:32:32Z</time>
      </trkpt>
      <trkpt lat="46.67918" lon="5.54074">
        <ele>254.6</ele>
        <time>2022-03-21T07:32:33Z</time>
      </trkpt>
      <trkpt lat="46.67919" lon="5.54062">
        <ele>254.2</ele>
        <time>2022-03-21T07:32:34Z</time>
      </trkpt>
      <trkpt lat="46.67921" lon="5.54051">
        <ele>254.2</ele>
        <time>2022-03-21T07:32:35Z</time>
      </trkpt>
      <trkpt lat="46.67923" lon="5.5404">
        <ele>254</ele>
        <time>2022-03-21T07:32:36Z</time>
      </trkpt>
      <trkpt lat="46.67925" lon="5.54029">
        <ele>254</ele>
        <time>2022-03-21T07:32:37Z</time>
      </trkpt>
      <trkpt lat="46.67927" lon="5.54017">
        <ele>253.6</ele>
        <time>2022-03-21T07:32:38Z</time>
      </trkpt>
      <trkpt lat="46.67929" lon="5.54006">
        <ele>253.6</ele>
        <time>2022-03-21T07:32:39Z</time>
      </trkpt>
      <trkpt lat="46.67931" lon="5.53995">
        <ele>253.6</ele>
        <time>2022-03-21T07:32:40Z</time>
      </trkpt>
      <trkpt lat="46.67933" lon="5.53984">
        <ele>253.4</ele>
        <time>2022-03-21T07:32:41Z</time>
      </trkpt>
      <trkpt lat="46.67934" lon="5.53973">
        <ele>253.4</ele>
        <time>2022-03-21T07:32:42Z</time>
      </trkpt>
      <trkpt lat="46.67936" lon="5.53962">
        <ele>253.4</ele>
        <time>2022-03-21T07:32:43Z</time>
      </trkpt>
      <trkpt lat="46.67937" lon="5.53952">
        <ele>253.4</ele>
        <time>2022-03-21T07:32:44Z</time>
      </trkpt>
      <trkpt lat="46.67939" lon="5.53942">
        <ele>253.4</ele>
        <time>2022-03-21T07:32:45Z</time>
      </trkpt>
      <trkpt lat="46.6794" lon="5.53932">
        <ele>253.6</ele>
        <time>2022-03-21T07:32:46Z</time>
      </trkpt>
      <trkpt lat="46.67942" lon="5.53922">
        <ele>253.6</ele>
        <time>2022-03-21T07:32:47Z</time>
      </trkpt>
      <trkpt lat="46.67943" lon="5.53913">
        <ele>253.8</ele>
        <time>2022-03-21T07:32:48Z</time>
      </trkpt>
      <trkpt lat="46.67945" lon="5.53903">
        <ele>254</ele>
        <time>2022-03-21T07:32:49Z</time>
      </trkpt>
      <trkpt lat="46.67947" lon="5.53894">
        <ele>254.4</ele>
        <time>2022-03-21T07:32:50Z</time>
      </trkpt>
      <trkpt lat="46.67948" lon="5.53885">
        <ele>254.6</ele>
        <time>2022-03-21T07:32:51Z</time>
      </trkpt>
      <trkpt lat="46.67949" lon="5.53876">
        <ele>254.8</ele>
        <time>2022-03-21T07:32:52Z</time>
      </trkpt>
      <trkpt lat="46.67951" lon="5.53868">
        <ele>255.2</ele>
        <time>2022-03-21T07:32:53Z</time>
      </trkpt>
      <trkpt lat="46.67952" lon="5.5386">
        <ele>255.4</ele>
        <time>2022-03-21T07:32:54Z</time>
      </trkpt>
      <trkpt lat="46.67954" lon="5.53852">
        <ele>255.8</ele>
        <time>2022-03-21T07:32:55Z</time>
      </trkpt>
      <trkpt lat="46.67955" lon="5.53845">
        <ele>256.2</ele>
        <time>2022-03-21T07:32:56Z</time>
      </trkpt>
      <trkpt lat="46.67958" lon="5.53837">
        <ele>256.6</ele>
        <time>2022-03-21T07:32:57Z</time>
      </trkpt>
      <trkpt lat="46.67961" lon="5.53831">
        <ele>256.8</ele>
        <time>2022-03-21T07:32:58Z</time>
      </trkpt>
      <trkpt lat="46.67965" lon="5.53826">
        <ele>257.4</ele>
        <time>2022-03-21T07:32:59Z</time>
      </trkpt>
      <trkpt lat="46.67969" lon="5.53821">
        <ele>257.8</ele>
        <time>2022-03-21T07:33:00Z</time>
      </trkpt>
      <trkpt lat="46.67973" lon="5.53817">
        <ele>258.6</ele>
        <time>2022-03-21T07:33:01Z</time>
      </trkpt>
      <trkpt lat="46.67977" lon="5.53814">
        <ele>259</ele>
        <time>2022-03-21T07:33:02Z</time>
      </trkpt>
      <trkpt lat="46.67981" lon="5.53811">
        <ele>259.4</ele>
        <time>2022-03-21T07:33:03Z</time>
      </trkpt>
      <trkpt lat="46.67987" lon="5.53809">
        <ele>259.8</ele>
        <time>2022-03-21T07:33:04Z</time>
      </trkpt>
      <trkpt lat="46.67992" lon="5.53807">
        <ele>260.2</ele>
        <time>2022-03-21T07:33:05Z</time>
      </trkpt>
      <trkpt lat="46.67997" lon="5.53806">
        <ele>260.6</ele>
        <time>2022-03-21T07:33:06Z</time>
      </trkpt>
      <trkpt lat="46.68002" lon="5.53806">
        <ele>260.8</ele>
        <time>2022-03-21T07:33:07Z</time>
      </trkpt>
      <trkpt lat="46.68007" lon="5.53805">
        <ele>261.2</ele>
        <time>2022-03-21T07:33:08Z</time>
      </trkpt>
      <trkpt lat="46.68013" lon="5.53804">
        <ele>261.8</ele>
        <time>2022-03-21T07:33:10Z</time>
      </trkpt>
      <trkpt lat="46.68018" lon="5.53803">
        <ele>262.2</ele>
        <time>2022-03-21T07:33:11Z</time>
      </trkpt>
      <trkpt lat="46.68023" lon="5.53803">
        <ele>262.6</ele>
        <time>2022-03-21T07:33:12Z</time>
      </trkpt>
      <trkpt lat="46.68027" lon="5.53802">
        <ele>263</ele>
        <time>2022-03-21T07:33:13Z</time>
      </trkpt>
      <trkpt lat="46.68032" lon="5.53802">
        <ele>263.4</ele>
        <time>2022-03-21T07:33:14Z</time>
      </trkpt>
      <trkpt lat="46.68037" lon="5.53802">
        <ele>263.6</ele>
        <time>2022-03-21T07:33:15Z</time>
      </trkpt>
      <trkpt lat="46.68043" lon="5.53801">
        <ele>264</ele>
        <time>2022-03-21T07:33:16Z</time>
      </trkpt>
      <trkpt lat="46.68047" lon="5.538">
        <ele>264.4</ele>
        <time>2022-03-21T07:33:17Z</time>
      </trkpt>
      <trkpt lat="46.68052" lon="5.53798">
        <ele>264.8</ele>
        <time>2022-03-21T07:33:18Z</time>
      </trkpt>
      <trkpt lat="46.68058" lon="5.53798">
        <ele>265.2</ele>
        <time>2022-03-21T07:33:19Z</time>
      </trkpt>
      <trkpt lat="46.68063" lon="5.53797">
        <ele>265.6</ele>
        <time>2022-03-21T07:33:20Z</time>
      </trkpt>
      <trkpt lat="46.68068" lon="5.53797">
        <ele>266</ele>
        <time>2022-03-21T07:33:21Z</time>
      </trkpt>
      <trkpt lat="46.68073" lon="5.53796">
        <ele>266.4</ele>
        <time>2022-03-21T07:33:22Z</time>
      </trkpt>
      <trkpt lat="46.68078" lon="5.53795">
        <ele>266.8</ele>
        <time>2022-03-21T07:33:23Z</time>
      </trkpt>
      <trkpt lat="46.68083" lon="5.53793">
        <ele>267.2</ele>
        <time>2022-03-21T07:33:24Z</time>
      </trkpt>
      <trkpt lat="46.68088" lon="5.53792">
        <ele>267.6</ele>
        <time>2022-03-21T07:33:25Z</time>
      </trkpt>
      <trkpt lat="46.68093" lon="5.53791">
        <ele>268</ele>
        <time>2022-03-21T07:33:26Z</time>
      </trkpt>
      <trkpt lat="46.68099" lon="5.5379">
        <ele>268.2</ele>
        <time>2022-03-21T07:33:27Z</time>
      </trkpt>
      <trkpt lat="46.68103" lon="5.53789">
        <ele>268.6</ele>
        <time>2022-03-21T07:33:28Z</time>
      </trkpt>
      <trkpt lat="46.68108" lon="5.53787">
        <ele>268.8</ele>
        <time>2022-03-21T07:33:29Z</time>
      </trkpt>
      <trkpt lat="46.68113" lon="5.53786">
        <ele>269</ele>
        <time>2022-03-21T07:33:30Z</time>
      </trkpt>
      <trkpt lat="46.68117" lon="5.53785">
        <ele>269.4</ele>
        <time>2022-03-21T07:33:31Z</time>
      </trkpt>
      <trkpt lat="46.68122" lon="5.53783">
        <ele>269.8</ele>
        <time>2022-03-21T07:33:32Z</time>
      </trkpt>
      <trkpt lat="46.68126" lon="5.53782">
        <ele>270</ele>
        <time>2022-03-21T07:33:33Z</time>
      </trkpt>
      <trkpt lat="46.68131" lon="5.5378">
        <ele>270.2</ele>
        <time>2022-03-21T07:33:34Z</time>
      </trkpt>
      <trkpt lat="46.68136" lon="5.53778">
        <ele>270.6</ele>
        <time>2022-03-21T07:33:35Z</time>
      </trkpt>
      <trkpt lat="46.6814" lon="5.53777">
        <ele>271</ele>
        <time>2022-03-21T07:33:36Z</time>
      </trkpt>
      <trkpt lat="46.68144" lon="5.53775">
        <ele>271.4</ele>
        <time>2022-03-21T07:33:37Z</time>
      </trkpt>
      <trkpt lat="46.68148" lon="5.53773">
        <ele>271.8</ele>
        <time>2022-03-21T07:33:38Z</time>
      </trkpt>
      <trkpt lat="46.68152" lon="5.53772">
        <ele>272</ele>
        <time>2022-03-21T07:33:39Z</time>
      </trkpt>
      <trkpt lat="46.68156" lon="5.5377">
        <ele>272.4</ele>
        <time>2022-03-21T07:33:40Z</time>
      </trkpt>
      <trkpt lat="46.68161" lon="5.53769">
        <ele>272.6</ele>
        <time>2022-03-21T07:33:41Z</time>
      </trkpt>
      <trkpt lat="46.68165" lon="5.53768">
        <ele>273</ele>
        <time>2022-03-21T07:33:42Z</time>
      </trkpt>
      <trkpt lat="46.6817" lon="5.53767">
        <ele>273.2</ele>
        <time>2022-03-21T07:33:43Z</time>
      </trkpt>
      <trkpt lat="46.68174" lon="5.53767">
        <ele>273.6</ele>
        <time>2022-03-21T07:33:44Z</time>
      </trkpt>
      <trkpt lat="46.68177" lon="5.53767">
        <ele>274</ele>
        <time>2022-03-21T07:33:45Z</time>
      </trkpt>
      <trkpt lat="46.68181" lon="5.53767">
        <ele>274.4</ele>
        <time>2022-03-21T07:33:46Z</time>
      </trkpt>
      <trkpt lat="46.68185" lon="5.53767">
        <ele>274.6</ele>
        <time>2022-03-21T07:33:47Z</time>
      </trkpt>
      <trkpt lat="46.6819" lon="5.53766">
        <ele>275</ele>
        <time>2022-03-21T07:33:48Z</time>
      </trkpt>
      <trkpt lat="46.68194" lon="5.53765">
        <ele>275.2</ele>
        <time>2022-03-21T07:33:49Z</time>
      </trkpt>
      <trkpt lat="46.68198" lon="5.53765">
        <ele>275.6</ele>
        <time>2022-03-21T07:33:50Z</time>
      </trkpt>
      <trkpt lat="46.68201" lon="5.53764">
        <ele>275.8</ele>
        <time>2022-03-21T07:33:51Z</time>
      </trkpt>
      <trkpt lat="46.68204" lon="5.53764">
        <ele>276</ele>
        <time>2022-03-21T07:33:52Z</time>
      </trkpt>
      <trkpt lat="46.6821" lon="5.53765">
        <ele>276.2</ele>
        <time>2022-03-21T07:33:53Z</time>
      </trkpt>
      <trkpt lat="46.68213" lon="5.53765">
        <ele>276.4</ele>
        <time>2022-03-21T07:33:54Z</time>
      </trkpt>
      <trkpt lat="46.68216" lon="5.53766">
        <ele>276.8</ele>
        <time>2022-03-21T07:33:55Z</time>
      </trkpt>
      <trkpt lat="46.6822" lon="5.53766">
        <ele>277</ele>
        <time>2022-03-21T07:33:56Z</time>
      </trkpt>
      <trkpt lat="46.68223" lon="5.53766">
        <ele>277</ele>
        <time>2022-03-21T07:33:57Z</time>
      </trkpt>
      <trkpt lat="46.68226" lon="5.53766">
        <ele>277.4</ele>
        <time>2022-03-21T07:33:58Z</time>
      </trkpt>
      <trkpt lat="46.6823" lon="5.53766">
        <ele>277.6</ele>
        <time>2022-03-21T07:33:59Z</time>
      </trkpt>
      <trkpt lat="46.68233" lon="5.53766">
        <ele>277.6</ele>
        <time>2022-03-21T07:34:00Z</time>
      </trkpt>
      <trkpt lat="46.68236" lon="5.53766">
        <ele>277.8</ele>
        <time>2022-03-21T07:34:01Z</time>
      </trkpt>
      <trkpt lat="46.6824" lon="5.53766">
        <ele>278</ele>
        <time>2022-03-21T07:34:02Z</time>
      </trkpt>
      <trkpt lat="46.68243" lon="5.53766">
        <ele>278</ele>
        <time>2022-03-21T07:34:03Z</time>
      </trkpt>
      <trkpt lat="46.68246" lon="5.53766">
        <ele>278.6</ele>
        <time>2022-03-21T07:34:04Z</time>
      </trkpt>
      <trkpt lat="46.68249" lon="5.53766">
        <ele>278.8</ele>
        <time>2022-03-21T07:34:05Z</time>
      </trkpt>
      <trkpt lat="46.68252" lon="5.53766">
        <ele>278.8</ele>
        <time>2022-03-21T07:34:06Z</time>
      </trkpt>
      <trkpt lat="46.68255" lon="5.53766">
        <ele>279.2</ele>
        <time>2022-03-21T07:34:07Z</time>
      </trkpt>
      <trkpt lat="46.68258" lon="5.53766">
        <ele>279.4</ele>
        <time>2022-03-21T07:34:08Z</time>
      </trkpt>
      <trkpt lat="46.68261" lon="5.53766">
        <ele>279.4</ele>
        <time>2022-03-21T07:34:09Z</time>
      </trkpt>
      <trkpt lat="46.68264" lon="5.53766">
        <ele>279.8</ele>
        <time>2022-03-21T07:34:10Z</time>
      </trkpt>
      <trkpt lat="46.68267" lon="5.53766">
        <ele>280</ele>
        <time>2022-03-21T07:34:11Z</time>
      </trkpt>
      <trkpt lat="46.6827" lon="5.53766">
        <ele>280.2</ele>
        <time>2022-03-21T07:34:12Z</time>
      </trkpt>
      <trkpt lat="46.68273" lon="5.53766">
        <ele>280.4</ele>
        <time>2022-03-21T07:34:13Z</time>
      </trkpt>
      <trkpt lat="46.68276" lon="5.53766">
        <ele>280.8</ele>
        <time>2022-03-21T07:34:14Z</time>
      </trkpt>
      <trkpt lat="46.68278" lon="5.53766">
        <ele>281</ele>
        <time>2022-03-21T07:34:15Z</time>
      </trkpt>
      <trkpt lat="46.68281" lon="5.53766">
        <ele>281</ele>
        <time>2022-03-21T07:34:16Z</time>
      </trkpt>
      <trkpt lat="46.68284" lon="5.53766">
        <ele>281.4</ele>
        <time>2022-03-21T07:34:17Z</time>
      </trkpt>
      <trkpt lat="46.68287" lon="5.53766">
        <ele>281.4</ele>
        <time>2022-03-21T07:34:18Z</time>
      </trkpt>
      <trkpt lat="46.68289" lon="5.53766">
        <ele>281.8</ele>
        <time>2022-03-21T07:34:19Z</time>
      </trkpt>
      <trkpt lat="46.68292" lon="5.53765">
        <ele>282</ele>
        <time>2022-03-21T07:34:20Z</time>
      </trkpt>
      <trkpt lat="46.68295" lon="5.53765">
        <ele>282</ele>
        <time>2022-03-21T07:34:21Z</time>
      </trkpt>
      <trkpt lat="46.68298" lon="5.53763">
        <ele>282.4</ele>
        <time>2022-03-21T07:34:22Z</time>
      </trkpt>
      <trkpt lat="46.68301" lon="5.53763">
        <ele>282.6</ele>
        <time>2022-03-21T07:34:23Z</time>
      </trkpt>
      <trkpt lat="46.68304" lon="5.53762">
        <ele>282.6</ele>
        <time>2022-03-21T07:34:24Z</time>
      </trkpt>
      <trkpt lat="46.68307" lon="5.53762">
        <ele>283</ele>
        <time>2022-03-21T07:34:25Z</time>
      </trkpt>
      <trkpt lat="46.6831" lon="5.53761">
        <ele>283</ele>
        <time>2022-03-21T07:34:26Z</time>
      </trkpt>
      <trkpt lat="46.68313" lon="5.53761">
        <ele>283.2</ele>
        <time>2022-03-21T07:34:27Z</time>
      </trkpt>
      <trkpt lat="46.68315" lon="5.5376">
        <ele>283.4</ele>
        <time>2022-03-21T07:34:28Z</time>
      </trkpt>
      <trkpt lat="46.68318" lon="5.53758">
        <ele>283.6</ele>
        <time>2022-03-21T07:34:29Z</time>
      </trkpt>
      <trkpt lat="46.6832" lon="5.53757">
        <ele>283.8</ele>
        <time>2022-03-21T07:34:30Z</time>
      </trkpt>
      <trkpt lat="46.68323" lon="5.53756">
        <ele>284.2</ele>
        <time>2022-03-21T07:34:31Z</time>
      </trkpt>
      <trkpt lat="46.68325" lon="5.53755">
        <ele>284.4</ele>
        <time>2022-03-21T07:34:32Z</time>
      </trkpt>
      <trkpt lat="46.68328" lon="5.53754">
        <ele>284.4</ele>
        <time>2022-03-21T07:34:33Z</time>
      </trkpt>
      <trkpt lat="46.68331" lon="5.53753">
        <ele>284.8</ele>
        <time>2022-03-21T07:34:34Z</time>
      </trkpt>
      <trkpt lat="46.68334" lon="5.53751">
        <ele>284.8</ele>
        <time>2022-03-21T07:34:35Z</time>
      </trkpt>
      <trkpt lat="46.68336" lon="5.5375">
        <ele>285.2</ele>
        <time>2022-03-21T07:34:36Z</time>
      </trkpt>
      <trkpt lat="46.68339" lon="5.53749">
        <ele>285.4</ele>
        <time>2022-03-21T07:34:37Z</time>
      </trkpt>
      <trkpt lat="46.68341" lon="5.53747">
        <ele>285.6</ele>
        <time>2022-03-21T07:34:38Z</time>
      </trkpt>
      <trkpt lat="46.68344" lon="5.53746">
        <ele>286</ele>
        <time>2022-03-21T07:34:39Z</time>
      </trkpt>
      <trkpt lat="46.68347" lon="5.53745">
        <ele>286</ele>
        <time>2022-03-21T07:34:40Z</time>
      </trkpt>
      <trkpt lat="46.68349" lon="5.53743">
        <ele>286.4</ele>
        <time>2022-03-21T07:34:41Z</time>
      </trkpt>
      <trkpt lat="46.68351" lon="5.53741">
        <ele>286.4</ele>
        <time>2022-03-21T07:34:42Z</time>
      </trkpt>
      <trkpt lat="46.68354" lon="5.53739">
        <ele>286.8</ele>
        <time>2022-03-21T07:34:43Z</time>
      </trkpt>
      <trkpt lat="46.68356" lon="5.53737">
        <ele>286.8</ele>
        <time>2022-03-21T07:34:44Z</time>
      </trkpt>
      <trkpt lat="46.68359" lon="5.53735">
        <ele>287</ele>
        <time>2022-03-21T07:34:45Z</time>
      </trkpt>
      <trkpt lat="46.68362" lon="5.53733">
        <ele>287.4</ele>
        <time>2022-03-21T07:34:46Z</time>
      </trkpt>
      <trkpt lat="46.68364" lon="5.53732">
        <ele>287.6</ele>
        <time>2022-03-21T07:34:47Z</time>
      </trkpt>
      <trkpt lat="46.68367" lon="5.5373">
        <ele>287.6</ele>
        <time>2022-03-21T07:34:48Z</time>
      </trkpt>
      <trkpt lat="46.68369" lon="5.53729">
        <ele>287.8</ele>
        <time>2022-03-21T07:34:49Z</time>
      </trkpt>
      <trkpt lat="46.68372" lon="5.53728">
        <ele>287.8</ele>
        <time>2022-03-21T07:34:50Z</time>
      </trkpt>
      <trkpt lat="46.68375" lon="5.53727">
        <ele>288.2</ele>
        <time>2022-03-21T07:34:51Z</time>
      </trkpt>
      <trkpt lat="46.68378" lon="5.53725">
        <ele>288.2</ele>
        <time>2022-03-21T07:34:52Z</time>
      </trkpt>
      <trkpt lat="46.68382" lon="5.53724">
        <ele>288.4</ele>
        <time>2022-03-21T07:34:53Z</time>
      </trkpt>
      <trkpt lat="46.68385" lon="5.53723">
        <ele>288.4</ele>
        <time>2022-03-21T07:34:54Z</time>
      </trkpt>
      <trkpt lat="46.68389" lon="5.53722">
        <ele>288.8</ele>
        <time>2022-03-21T07:34:55Z</time>
      </trkpt>
      <trkpt lat="46.68392" lon="5.53721">
        <ele>288.8</ele>
        <time>2022-03-21T07:34:56Z</time>
      </trkpt>
      <trkpt lat="46.68396" lon="5.53719">
        <ele>288.8</ele>
        <time>2022-03-21T07:34:57Z</time>
      </trkpt>
      <trkpt lat="46.68399" lon="5.53718">
        <ele>289</ele>
        <time>2022-03-21T07:34:58Z</time>
      </trkpt>
      <trkpt lat="46.68403" lon="5.53717">
        <ele>289</ele>
        <time>2022-03-21T07:34:59Z</time>
      </trkpt>
      <trkpt lat="46.68407" lon="5.53717">
        <ele>289</ele>
        <time>2022-03-21T07:35:00Z</time>
      </trkpt>
      <trkpt lat="46.68411" lon="5.53716">
        <ele>289</ele>
        <time>2022-03-21T07:35:01Z</time>
      </trkpt>
      <trkpt lat="46.68415" lon="5.53716">
        <ele>289</ele>
        <time>2022-03-21T07:35:02Z</time>
      </trkpt>
      <trkpt lat="46.68419" lon="5.53716">
        <ele>289</ele>
        <time>2022-03-21T07:35:03Z</time>
      </trkpt>
      <trkpt lat="46.68424" lon="5.53716">
        <ele>289</ele>
        <time>2022-03-21T07:35:04Z</time>
      </trkpt>
      <trkpt lat="46.68428" lon="5.53715">
        <ele>289</ele>
        <time>2022-03-21T07:35:05Z</time>
      </trkpt>
      <trkpt lat="46.68433" lon="5.53715">
        <ele>288.6</ele>
        <time>2022-03-21T07:35:06Z</time>
      </trkpt>
      <trkpt lat="46.68438" lon="5.53715">
        <ele>288.4</ele>
        <time>2022-03-21T07:35:07Z</time>
      </trkpt>
      <trkpt lat="46.68444" lon="5.53715">
        <ele>288.2</ele>
        <time>2022-03-21T07:35:08Z</time>
      </trkpt>
      <trkpt lat="46.68449" lon="5.53715">
        <ele>288</ele>
        <time>2022-03-21T07:35:09Z</time>
      </trkpt>
      <trkpt lat="46.68454" lon="5.53715">
        <ele>287.8</ele>
        <time>2022-03-21T07:35:10Z</time>
      </trkpt>
      <trkpt lat="46.68459" lon="5.53714">
        <ele>287.4</ele>
        <time>2022-03-21T07:35:11Z</time>
      </trkpt>
      <trkpt lat="46.68465" lon="5.53713">
        <ele>287.2</ele>
        <time>2022-03-21T07:35:12Z</time>
      </trkpt>
      <trkpt lat="46.68471" lon="5.53712">
        <ele>286.8</ele>
        <time>2022-03-21T07:35:13Z</time>
      </trkpt>
      <trkpt lat="46.68476" lon="5.53712">
        <ele>286.4</ele>
        <time>2022-03-21T07:35:14Z</time>
      </trkpt>
      <trkpt lat="46.68482" lon="5.53712">
        <ele>286</ele>
        <time>2022-03-21T07:35:15Z</time>
      </trkpt>
      <trkpt lat="46.68487" lon="5.53712">
        <ele>285.8</ele>
        <time>2022-03-21T07:35:16Z</time>
      </trkpt>
      <trkpt lat="46.68492" lon="5.53712">
        <ele>285.4</ele>
        <time>2022-03-21T07:35:17Z</time>
      </trkpt>
      <trkpt lat="46.68497" lon="5.53714">
        <ele>285</ele>
        <time>2022-03-21T07:35:18Z</time>
      </trkpt>
      <trkpt lat="46.68502" lon="5.53714">
        <ele>284.8</ele>
        <time>2022-03-21T07:35:19Z</time>
      </trkpt>
      <trkpt lat="46.68508" lon="5.53715">
        <ele>284.4</ele>
        <time>2022-03-21T07:35:20Z</time>
      </trkpt>
      <trkpt lat="46.68514" lon="5.53717">
        <ele>284.2</ele>
        <time>2022-03-21T07:35:21Z</time>
      </trkpt>
      <trkpt lat="46.68519" lon="5.5372">
        <ele>283.8</ele>
        <time>2022-03-21T07:35:22Z</time>
      </trkpt>
      <trkpt lat="46.68525" lon="5.53724">
        <ele>283.8</ele>
        <time>2022-03-21T07:35:23Z</time>
      </trkpt>
      <trkpt lat="46.68531" lon="5.53728">
        <ele>283.6</ele>
        <time>2022-03-21T07:35:24Z</time>
      </trkpt>
      <trkpt lat="46.68537" lon="5.5373">
        <ele>283.6</ele>
        <time>2022-03-21T07:35:25Z</time>
      </trkpt>
      <trkpt lat="46.68543" lon="5.53734">
        <ele>283.2</ele>
        <time>2022-03-21T07:35:26Z</time>
      </trkpt>
      <trkpt lat="46.68549" lon="5.53738">
        <ele>283.2</ele>
        <time>2022-03-21T07:35:27Z</time>
      </trkpt>
      <trkpt lat="46.68555" lon="5.53742">
        <ele>283.2</ele>
        <time>2022-03-21T07:35:28Z</time>
      </trkpt>
      <trkpt lat="46.6856" lon="5.53745">
        <ele>283.6</ele>
        <time>2022-03-21T07:35:29Z</time>
      </trkpt>
      <trkpt lat="46.68565" lon="5.53749">
        <ele>283.6</ele>
        <time>2022-03-21T07:35:30Z</time>
      </trkpt>
      <trkpt lat="46.6857" lon="5.53752">
        <ele>284</ele>
        <time>2022-03-21T07:35:31Z</time>
      </trkpt>
      <trkpt lat="46.68575" lon="5.53756">
        <ele>284.2</ele>
        <time>2022-03-21T07:35:32Z</time>
      </trkpt>
      <trkpt lat="46.68579" lon="5.5376">
        <ele>284.6</ele>
        <time>2022-03-21T07:35:33Z</time>
      </trkpt>
      <trkpt lat="46.68583" lon="5.53763">
        <ele>284.8</ele>
        <time>2022-03-21T07:35:34Z</time>
      </trkpt>
      <trkpt lat="46.68588" lon="5.53766">
        <ele>285.2</ele>
        <time>2022-03-21T07:35:35Z</time>
      </trkpt>
      <trkpt lat="46.68592" lon="5.5377">
        <ele>285.6</ele>
        <time>2022-03-21T07:35:36Z</time>
      </trkpt>
      <trkpt lat="46.68596" lon="5.53774">
        <ele>285.8</ele>
        <time>2022-03-21T07:35:37Z</time>
      </trkpt>
      <trkpt lat="46.686" lon="5.53777">
        <ele>286.2</ele>
        <time>2022-03-21T07:35:38Z</time>
      </trkpt>
      <trkpt lat="46.68604" lon="5.5378">
        <ele>286.4</ele>
        <time>2022-03-21T07:35:39Z</time>
      </trkpt>
      <trkpt lat="46.68609" lon="5.53782">
        <ele>286.6</ele>
        <time>2022-03-21T07:35:40Z</time>
      </trkpt>
      <trkpt lat="46.68613" lon="5.53784">
        <ele>286.8</ele>
        <time>2022-03-21T07:35:41Z</time>
      </trkpt>
      <trkpt lat="46.68618" lon="5.53785">
        <ele>287.2</ele>
        <time>2022-03-21T07:35:42Z</time>
      </trkpt>
      <trkpt lat="46.68623" lon="5.53786">
        <ele>287.4</ele>
        <time>2022-03-21T07:35:43Z</time>
      </trkpt>
      <trkpt lat="46.68628" lon="5.53786">
        <ele>287.6</ele>
        <time>2022-03-21T07:35:44Z</time>
      </trkpt>
      <trkpt lat="46.68632" lon="5.53785">
        <ele>287.6</ele>
        <time>2022-03-21T07:35:45Z</time>
      </trkpt>
      <trkpt lat="46.68637" lon="5.53784">
        <ele>288</ele>
        <time>2022-03-21T07:35:46Z</time>
      </trkpt>
      <trkpt lat="46.68642" lon="5.53783">
        <ele>288.2</ele>
        <time>2022-03-21T07:35:47Z</time>
      </trkpt>
      <trkpt lat="46.68646" lon="5.53781">
        <ele>288.6</ele>
        <time>2022-03-21T07:35:48Z</time>
      </trkpt>
      <trkpt lat="46.68651" lon="5.53781">
        <ele>288.8</ele>
        <time>2022-03-21T07:35:49Z</time>
      </trkpt>
      <trkpt lat="46.68655" lon="5.5378">
        <ele>289</ele>
        <time>2022-03-21T07:35:50Z</time>
      </trkpt>
      <trkpt lat="46.6866" lon="5.5378">
        <ele>289.4</ele>
        <time>2022-03-21T07:35:51Z</time>
      </trkpt>
      <trkpt lat="46.68664" lon="5.53779">
        <ele>289.8</ele>
        <time>2022-03-21T07:35:52Z</time>
      </trkpt>
      <trkpt lat="46.68668" lon="5.53779">
        <ele>290</ele>
        <time>2022-03-21T07:35:53Z</time>
      </trkpt>
      <trkpt lat="46.68672" lon="5.53779">
        <ele>290.4</ele>
        <time>2022-03-21T07:35:54Z</time>
      </trkpt>
      <trkpt lat="46.68675" lon="5.53779">
        <ele>290.8</ele>
        <time>2022-03-21T07:35:55Z</time>
      </trkpt>
      <trkpt lat="46.68679" lon="5.53779">
        <ele>291.2</ele>
        <time>2022-03-21T07:35:56Z</time>
      </trkpt>
      <trkpt lat="46.68682" lon="5.53779">
        <ele>291.4</ele>
        <time>2022-03-21T07:35:57Z</time>
      </trkpt>
      <trkpt lat="46.68686" lon="5.53778">
        <ele>291.8</ele>
        <time>2022-03-21T07:35:58Z</time>
      </trkpt>
      <trkpt lat="46.6869" lon="5.53778">
        <ele>292</ele>
        <time>2022-03-21T07:35:59Z</time>
      </trkpt>
      <trkpt lat="46.68693" lon="5.53777">
        <ele>292.4</ele>
        <time>2022-03-21T07:36:00Z</time>
      </trkpt>
      <trkpt lat="46.68697" lon="5.53776">
        <ele>292.4</ele>
        <time>2022-03-21T07:36:01Z</time>
      </trkpt>
      <trkpt lat="46.68701" lon="5.53775">
        <ele>292.8</ele>
        <time>2022-03-21T07:36:02Z</time>
      </trkpt>
      <trkpt lat="46.68706" lon="5.53775">
        <ele>292.8</ele>
        <time>2022-03-21T07:36:03Z</time>
      </trkpt>
      <trkpt lat="46.6871" lon="5.53774">
        <ele>293.2</ele>
        <time>2022-03-21T07:36:04Z</time>
      </trkpt>
      <trkpt lat="46.68714" lon="5.53773">
        <ele>293.2</ele>
        <time>2022-03-21T07:36:05Z</time>
      </trkpt>
      <trkpt lat="46.68719" lon="5.53773">
        <ele>293.2</ele>
        <time>2022-03-21T07:36:06Z</time>
      </trkpt>
      <trkpt lat="46.68724" lon="5.53773">
        <ele>293.2</ele>
        <time>2022-03-21T07:36:07Z</time>
      </trkpt>
      <trkpt lat="46.68728" lon="5.53772">
        <ele>293.2</ele>
        <time>2022-03-21T07:36:08Z</time>
      </trkpt>
      <trkpt lat="46.68734" lon="5.53772">
        <ele>293.2</ele>
        <time>2022-03-21T07:36:09Z</time>
      </trkpt>
      <trkpt lat="46.68739" lon="5.53772">
        <ele>293.2</ele>
        <time>2022-03-21T07:36:10Z</time>
      </trkpt>
      <trkpt lat="46.68744" lon="5.53772">
        <ele>292.8</ele>
        <time>2022-03-21T07:36:11Z</time>
      </trkpt>
      <trkpt lat="46.6875" lon="5.53771">
        <ele>292.8</ele>
        <time>2022-03-21T07:36:12Z</time>
      </trkpt>
      <trkpt lat="46.68756" lon="5.53768">
        <ele>292.4</ele>
        <time>2022-03-21T07:36:13Z</time>
      </trkpt>
      <trkpt lat="46.68762" lon="5.53764">
        <ele>292.2</ele>
        <time>2022-03-21T07:36:14Z</time>
      </trkpt>
      <trkpt lat="46.68767" lon="5.53757">
        <ele>292</ele>
        <time>2022-03-21T07:36:15Z</time>
      </trkpt>
      <trkpt lat="46.68772" lon="5.5375">
        <ele>291.6</ele>
        <time>2022-03-21T07:36:16Z</time>
      </trkpt>
      <trkpt lat="46.68778" lon="5.53742">
        <ele>291.4</ele>
        <time>2022-03-21T07:36:17Z</time>
      </trkpt>
      <trkpt lat="46.68784" lon="5.53733">
        <ele>290.8</ele>
        <time>2022-03-21T07:36:18Z</time>
      </trkpt>
      <trkpt lat="46.68789" lon="5.53724">
        <ele>290.4</ele>
        <time>2022-03-21T07:36:19Z</time>
      </trkpt>
      <trkpt lat="46.68795" lon="5.53714">
        <ele>290</ele>
        <time>2022-03-21T07:36:20Z</time>
      </trkpt>
      <trkpt lat="46.68802" lon="5.53704">
        <ele>289.4</ele>
        <time>2022-03-21T07:36:21Z</time>
      </trkpt>
      <trkpt lat="46.68809" lon="5.53694">
        <ele>289</ele>
        <time>2022-03-21T07:36:22Z</time>
      </trkpt>
      <trkpt lat="46.68817" lon="5.53684">
        <ele>288.6</ele>
        <time>2022-03-21T07:36:23Z</time>
      </trkpt>
      <trkpt lat="46.68824" lon="5.53674">
        <ele>288.2</ele>
        <time>2022-03-21T07:36:24Z</time>
      </trkpt>
      <trkpt lat="46.68831" lon="5.53664">
        <ele>287.8</ele>
        <time>2022-03-21T07:36:25Z</time>
      </trkpt>
      <trkpt lat="46.68838" lon="5.53656">
        <ele>287.4</ele>
        <time>2022-03-21T07:36:26Z</time>
      </trkpt>
      <trkpt lat="46.68846" lon="5.53647">
        <ele>287</ele>
        <time>2022-03-21T07:36:27Z</time>
      </trkpt>
      <trkpt lat="46.68854" lon="5.53638">
        <ele>286.6</ele>
        <time>2022-03-21T07:36:28Z</time>
      </trkpt>
      <trkpt lat="46.68862" lon="5.53628">
        <ele>286.4</ele>
        <time>2022-03-21T07:36:29Z</time>
      </trkpt>
      <trkpt lat="46.6887" lon="5.53617">
        <ele>285.8</ele>
        <time>2022-03-21T07:36:30Z</time>
      </trkpt>
      <trkpt lat="46.68878" lon="5.53608">
        <ele>285.4</ele>
        <time>2022-03-21T07:36:31Z</time>
      </trkpt>
      <trkpt lat="46.68887" lon="5.53599">
        <ele>284.8</ele>
        <time>2022-03-21T07:36:32Z</time>
      </trkpt>
      <trkpt lat="46.68895" lon="5.53588">
        <ele>284.2</ele>
        <time>2022-03-21T07:36:33Z</time>
      </trkpt>
      <trkpt lat="46.68903" lon="5.53579">
        <ele>283.6</ele>
        <time>2022-03-21T07:36:34Z</time>
      </trkpt>
      <trkpt lat="46.68912" lon="5.5357">
        <ele>283.2</ele>
        <time>2022-03-21T07:36:35Z</time>
      </trkpt>
      <trkpt lat="46.6892" lon="5.53562">
        <ele>282.6</ele>
        <time>2022-03-21T07:36:36Z</time>
      </trkpt>
      <trkpt lat="46.68927" lon="5.53553">
        <ele>282.2</ele>
        <time>2022-03-21T07:36:37Z</time>
      </trkpt>
      <trkpt lat="46.68936" lon="5.53546">
        <ele>281.8</ele>
        <time>2022-03-21T07:36:38Z</time>
      </trkpt>
      <trkpt lat="46.68946" lon="5.5354">
        <ele>281.6</ele>
        <time>2022-03-21T07:36:39Z</time>
      </trkpt>
      <trkpt lat="46.68956" lon="5.53534">
        <ele>281</ele>
        <time>2022-03-21T07:36:40Z</time>
      </trkpt>
      <trkpt lat="46.68966" lon="5.5353">
        <ele>280.6</ele>
        <time>2022-03-21T07:36:41Z</time>
      </trkpt>
      <trkpt lat="46.68976" lon="5.53527">
        <ele>280.4</ele>
        <time>2022-03-21T07:36:42Z</time>
      </trkpt>
      <trkpt lat="46.68987" lon="5.53526">
        <ele>280</ele>
        <time>2022-03-21T07:36:43Z</time>
      </trkpt>
      <trkpt lat="46.68998" lon="5.53523">
        <ele>279.6</ele>
        <time>2022-03-21T07:36:44Z</time>
      </trkpt>
      <trkpt lat="46.69007" lon="5.53518">
        <ele>279.2</ele>
        <time>2022-03-21T07:36:45Z</time>
      </trkpt>
      <trkpt lat="46.69015" lon="5.53509">
        <ele>278.6</ele>
        <time>2022-03-21T07:36:46Z</time>
      </trkpt>
      <trkpt lat="46.69023" lon="5.53499">
        <ele>278.2</ele>
        <time>2022-03-21T07:36:47Z</time>
      </trkpt>
      <trkpt lat="46.6903" lon="5.53487">
        <ele>277.8</ele>
        <time>2022-03-21T07:36:48Z</time>
      </trkpt>
      <trkpt lat="46.69036" lon="5.53474">
        <ele>277.4</ele>
        <time>2022-03-21T07:36:49Z</time>
      </trkpt>
      <trkpt lat="46.69042" lon="5.53461">
        <ele>276.8</ele>
        <time>2022-03-21T07:36:50Z</time>
      </trkpt>
      <trkpt lat="46.69049" lon="5.53448">
        <ele>276.4</ele>
        <time>2022-03-21T07:36:51Z</time>
      </trkpt>
      <trkpt lat="46.69054" lon="5.53435">
        <ele>276</ele>
        <time>2022-03-21T07:36:52Z</time>
      </trkpt>
      <trkpt lat="46.6906" lon="5.53421">
        <ele>275.6</ele>
        <time>2022-03-21T07:36:53Z</time>
      </trkpt>
      <trkpt lat="46.69066" lon="5.53408">
        <ele>275.6</ele>
        <time>2022-03-21T07:36:54Z</time>
      </trkpt>
      <trkpt lat="46.69072" lon="5.53396">
        <ele>275.4</ele>
        <time>2022-03-21T07:36:55Z</time>
      </trkpt>
      <trkpt lat="46.69079" lon="5.53385">
        <ele>275.4</ele>
        <time>2022-03-21T07:36:56Z</time>
      </trkpt>
      <trkpt lat="46.69085" lon="5.53374">
        <ele>275.4</ele>
        <time>2022-03-21T07:36:57Z</time>
      </trkpt>
      <trkpt lat="46.69091" lon="5.53364">
        <ele>275.4</ele>
        <time>2022-03-21T07:36:58Z</time>
      </trkpt>
      <trkpt lat="46.69097" lon="5.53354">
        <ele>275.4</ele>
        <time>2022-03-21T07:36:59Z</time>
      </trkpt>
      <trkpt lat="46.69102" lon="5.53345">
        <ele>275.8</ele>
        <time>2022-03-21T07:37:00Z</time>
      </trkpt>
      <trkpt lat="46.69107" lon="5.53336">
        <ele>276</ele>
        <time>2022-03-21T07:37:01Z</time>
      </trkpt>
      <trkpt lat="46.69112" lon="5.53328">
        <ele>276.4</ele>
        <time>2022-03-21T07:37:02Z</time>
      </trkpt>
      <trkpt lat="46.69117" lon="5.5332">
        <ele>276.6</ele>
        <time>2022-03-21T07:37:03Z</time>
      </trkpt>
      <trkpt lat="46.69122" lon="5.53313">
        <ele>277</ele>
        <time>2022-03-21T07:37:04Z</time>
      </trkpt>
      <trkpt lat="46.69126" lon="5.53306">
        <ele>277.4</ele>
        <time>2022-03-21T07:37:05Z</time>
      </trkpt>
      <trkpt lat="46.69131" lon="5.533">
        <ele>277.6</ele>
        <time>2022-03-21T07:37:06Z</time>
      </trkpt>
      <trkpt lat="46.69135" lon="5.53294">
        <ele>278</ele>
        <time>2022-03-21T07:37:07Z</time>
      </trkpt>
      <trkpt lat="46.69139" lon="5.53288">
        <ele>278.4</ele>
        <time>2022-03-21T07:37:08Z</time>
      </trkpt>
      <trkpt lat="46.69143" lon="5.53281">
        <ele>278.8</ele>
        <time>2022-03-21T07:37:09Z</time>
      </trkpt>
      <trkpt lat="46.69147" lon="5.53275">
        <ele>279</ele>
        <time>2022-03-21T07:37:10Z</time>
      </trkpt>
      <trkpt lat="46.69152" lon="5.53269">
        <ele>279.4</ele>
        <time>2022-03-21T07:37:11Z</time>
      </trkpt>
      <trkpt lat="46.69156" lon="5.53264">
        <ele>279.6</ele>
        <time>2022-03-21T07:37:12Z</time>
      </trkpt>
      <trkpt lat="46.69159" lon="5.53258">
        <ele>279.8</ele>
        <time>2022-03-21T07:37:13Z</time>
      </trkpt>
      <trkpt lat="46.69163" lon="5.53252">
        <ele>280.2</ele>
        <time>2022-03-21T07:37:14Z</time>
      </trkpt>
      <trkpt lat="46.69167" lon="5.53246">
        <ele>280.4</ele>
        <time>2022-03-21T07:37:15Z</time>
      </trkpt>
      <trkpt lat="46.69172" lon="5.53242">
        <ele>280.6</ele>
        <time>2022-03-21T07:37:16Z</time>
      </trkpt>
      <trkpt lat="46.69178" lon="5.53239">
        <ele>280.6</ele>
        <time>2022-03-21T07:37:17Z</time>
      </trkpt>
      <trkpt lat="46.69183" lon="5.53238">
        <ele>281</ele>
        <time>2022-03-21T07:37:18Z</time>
      </trkpt>
      <trkpt lat="46.69189" lon="5.53237">
        <ele>281.2</ele>
        <time>2022-03-21T07:37:19Z</time>
      </trkpt>
      <trkpt lat="46.69195" lon="5.53238">
        <ele>281.2</ele>
        <time>2022-03-21T07:37:20Z</time>
      </trkpt>
      <trkpt lat="46.692" lon="5.53241">
        <ele>281.6</ele>
        <time>2022-03-21T07:37:21Z</time>
      </trkpt>
      <trkpt lat="46.69206" lon="5.53245">
        <ele>281.6</ele>
        <time>2022-03-21T07:37:22Z</time>
      </trkpt>
      <trkpt lat="46.69212" lon="5.53249">
        <ele>282</ele>
        <time>2022-03-21T07:37:23Z</time>
      </trkpt>
      <trkpt lat="46.69218" lon="5.53252">
        <ele>282</ele>
        <time>2022-03-21T07:37:24Z</time>
      </trkpt>
      <trkpt lat="46.69224" lon="5.53256">
        <ele>282</ele>
        <time>2022-03-21T07:37:25Z</time>
      </trkpt>
      <trkpt lat="46.6923" lon="5.5326">
        <ele>282.2</ele>
        <time>2022-03-21T07:37:26Z</time>
      </trkpt>
      <trkpt lat="46.69235" lon="5.53264">
        <ele>282.2</ele>
        <time>2022-03-21T07:37:27Z</time>
      </trkpt>
      <trkpt lat="46.69241" lon="5.53268">
        <ele>282.2</ele>
        <time>2022-03-21T07:37:28Z</time>
      </trkpt>
      <trkpt lat="46.69247" lon="5.53273">
        <ele>282.2</ele>
        <time>2022-03-21T07:37:29Z</time>
      </trkpt>
      <trkpt lat="46.69253" lon="5.53277">
        <ele>282.4</ele>
        <time>2022-03-21T07:37:30Z</time>
      </trkpt>
      <trkpt lat="46.69259" lon="5.53281">
        <ele>282.4</ele>
        <time>2022-03-21T07:37:31Z</time>
      </trkpt>
      <trkpt lat="46.69265" lon="5.53285">
        <ele>282.4</ele>
        <time>2022-03-21T07:37:32Z</time>
      </trkpt>
      <trkpt lat="46.69271" lon="5.53289">
        <ele>282.4</ele>
        <time>2022-03-21T07:37:33Z</time>
      </trkpt>
      <trkpt lat="46.69278" lon="5.53293">
        <ele>282.2</ele>
        <time>2022-03-21T07:37:35Z</time>
      </trkpt>
      <trkpt lat="46.69285" lon="5.53298">
        <ele>282.2</ele>
        <time>2022-03-21T07:37:36Z</time>
      </trkpt>
      <trkpt lat="46.69292" lon="5.53302">
        <ele>282.2</ele>
        <time>2022-03-21T07:37:37Z</time>
      </trkpt>
      <trkpt lat="46.69299" lon="5.53305">
        <ele>281.8</ele>
        <time>2022-03-21T07:37:38Z</time>
      </trkpt>
      <trkpt lat="46.69307" lon="5.53308">
        <ele>281.8</ele>
        <time>2022-03-21T07:37:39Z</time>
      </trkpt>
      <trkpt lat="46.69315" lon="5.5331">
        <ele>281.8</ele>
        <time>2022-03-21T07:37:40Z</time>
      </trkpt>
      <trkpt lat="46.69323" lon="5.53312">
        <ele>281.8</ele>
        <time>2022-03-21T07:37:41Z</time>
      </trkpt>
      <trkpt lat="46.6933" lon="5.53313">
        <ele>281.6</ele>
        <time>2022-03-21T07:37:42Z</time>
      </trkpt>
      <trkpt lat="46.69338" lon="5.53314">
        <ele>281.6</ele>
        <time>2022-03-21T07:37:43Z</time>
      </trkpt>
      <trkpt lat="46.69346" lon="5.53314">
        <ele>281.2</ele>
        <time>2022-03-21T07:37:44Z</time>
      </trkpt>
      <trkpt lat="46.69354" lon="5.53314">
        <ele>281.2</ele>
        <time>2022-03-21T07:37:45Z</time>
      </trkpt>
      <trkpt lat="46.69363" lon="5.53313">
        <ele>280.8</ele>
        <time>2022-03-21T07:37:46Z</time>
      </trkpt>
      <trkpt lat="46.69371" lon="5.53311">
        <ele>280.6</ele>
        <time>2022-03-21T07:37:47Z</time>
      </trkpt>
      <trkpt lat="46.69379" lon="5.53309">
        <ele>280.4</ele>
        <time>2022-03-21T07:37:48Z</time>
      </trkpt>
      <trkpt lat="46.69388" lon="5.53308">
        <ele>280.4</ele>
        <time>2022-03-21T07:37:49Z</time>
      </trkpt>
      <trkpt lat="46.69397" lon="5.53306">
        <ele>280</ele>
        <time>2022-03-21T07:37:50Z</time>
      </trkpt>
      <trkpt lat="46.69405" lon="5.53304">
        <ele>279.6</ele>
        <time>2022-03-21T07:37:51Z</time>
      </trkpt>
      <trkpt lat="46.69414" lon="5.53303">
        <ele>279.4</ele>
        <time>2022-03-21T07:37:52Z</time>
      </trkpt>
      <trkpt lat="46.69424" lon="5.53301">
        <ele>279</ele>
        <time>2022-03-21T07:37:53Z</time>
      </trkpt>
      <trkpt lat="46.69434" lon="5.53301">
        <ele>278.6</ele>
        <time>2022-03-21T07:37:54Z</time>
      </trkpt>
      <trkpt lat="46.69444" lon="5.53302">
        <ele>278.2</ele>
        <time>2022-03-21T07:37:55Z</time>
      </trkpt>
      <trkpt lat="46.69454" lon="5.53303">
        <ele>278</ele>
        <time>2022-03-21T07:37:56Z</time>
      </trkpt>
      <trkpt lat="46.69464" lon="5.53304">
        <ele>277.6</ele>
        <time>2022-03-21T07:37:57Z</time>
      </trkpt>
      <trkpt lat="46.69473" lon="5.53307">
        <ele>277.2</ele>
        <time>2022-03-21T07:37:58Z</time>
      </trkpt>
      <trkpt lat="46.69483" lon="5.53309">
        <ele>277</ele>
        <time>2022-03-21T07:37:59Z</time>
      </trkpt>
      <trkpt lat="46.69493" lon="5.53312">
        <ele>276.6</ele>
        <time>2022-03-21T07:38:00Z</time>
      </trkpt>
      <trkpt lat="46.69503" lon="5.53315">
        <ele>276.4</ele>
        <time>2022-03-21T07:38:01Z</time>
      </trkpt>
      <trkpt lat="46.69512" lon="5.53317">
        <ele>276</ele>
        <time>2022-03-21T07:38:02Z</time>
      </trkpt>
      <trkpt lat="46.69522" lon="5.53319">
        <ele>275.8</ele>
        <time>2022-03-21T07:38:03Z</time>
      </trkpt>
      <trkpt lat="46.69531" lon="5.53321">
        <ele>275.6</ele>
        <time>2022-03-21T07:38:04Z</time>
      </trkpt>
      <trkpt lat="46.69541" lon="5.53322">
        <ele>275.4</ele>
        <time>2022-03-21T07:38:05Z</time>
      </trkpt>
      <trkpt lat="46.6955" lon="5.53324">
        <ele>275.4</ele>
        <time>2022-03-21T07:38:06Z</time>
      </trkpt>
      <trkpt lat="46.6956" lon="5.53325">
        <ele>275</ele>
        <time>2022-03-21T07:38:07Z</time>
      </trkpt>
      <trkpt lat="46.69569" lon="5.53326">
        <ele>275</ele>
        <time>2022-03-21T07:38:08Z</time>
      </trkpt>
      <trkpt lat="46.69578" lon="5.53327">
        <ele>275</ele>
        <time>2022-03-21T07:38:09Z</time>
      </trkpt>
      <trkpt lat="46.69587" lon="5.53328">
        <ele>274.8</ele>
        <time>2022-03-21T07:38:10Z</time>
      </trkpt>
      <trkpt lat="46.69596" lon="5.53329">
        <ele>274.8</ele>
        <time>2022-03-21T07:38:11Z</time>
      </trkpt>
      <trkpt lat="46.69605" lon="5.5333">
        <ele>274.4</ele>
        <time>2022-03-21T07:38:12Z</time>
      </trkpt>
      <trkpt lat="46.69613" lon="5.5333">
        <ele>274.2</ele>
        <time>2022-03-21T07:38:13Z</time>
      </trkpt>
      <trkpt lat="46.69622" lon="5.5333">
        <ele>273.8</ele>
        <time>2022-03-21T07:38:14Z</time>
      </trkpt>
      <trkpt lat="46.69632" lon="5.53332">
        <ele>273.4</ele>
        <time>2022-03-21T07:38:15Z</time>
      </trkpt>
      <trkpt lat="46.69641" lon="5.53333">
        <ele>273</ele>
        <time>2022-03-21T07:38:16Z</time>
      </trkpt>
      <trkpt lat="46.69652" lon="5.53335">
        <ele>272.4</ele>
        <time>2022-03-21T07:38:17Z</time>
      </trkpt>
      <trkpt lat="46.69661" lon="5.53336">
        <ele>271.8</ele>
        <time>2022-03-21T07:38:18Z</time>
      </trkpt>
      <trkpt lat="46.69672" lon="5.53339">
        <ele>271.4</ele>
        <time>2022-03-21T07:38:19Z</time>
      </trkpt>
      <trkpt lat="46.69694" lon="5.53343">
        <ele>270.8</ele>
        <time>2022-03-21T07:38:20Z</time>
      </trkpt>
      <trkpt lat="46.69705" lon="5.53345">
        <ele>270.2</ele>
        <time>2022-03-21T07:38:21Z</time>
      </trkpt>
      <trkpt lat="46.69717" lon="5.53347">
        <ele>269.6</ele>
        <time>2022-03-21T07:38:22Z</time>
      </trkpt>
      <trkpt lat="46.69728" lon="5.53349">
        <ele>269</ele>
        <time>2022-03-21T07:38:23Z</time>
      </trkpt>
      <trkpt lat="46.69739" lon="5.53351">
        <ele>268.6</ele>
        <time>2022-03-21T07:38:24Z</time>
      </trkpt>
      <trkpt lat="46.6975" lon="5.53352">
        <ele>268.2</ele>
        <time>2022-03-21T07:38:25Z</time>
      </trkpt>
      <trkpt lat="46.69761" lon="5.53352">
        <ele>267.6</ele>
        <time>2022-03-21T07:38:26Z</time>
      </trkpt>
      <trkpt lat="46.69771" lon="5.5335">
        <ele>267.2</ele>
        <time>2022-03-21T07:38:27Z</time>
      </trkpt>
      <trkpt lat="46.69782" lon="5.53348">
        <ele>266.6</ele>
        <time>2022-03-21T07:38:28Z</time>
      </trkpt>
      <trkpt lat="46.69793" lon="5.53345">
        <ele>266</ele>
        <time>2022-03-21T07:38:29Z</time>
      </trkpt>
      <trkpt lat="46.69805" lon="5.53342">
        <ele>265.2</ele>
        <time>2022-03-21T07:38:30Z</time>
      </trkpt>
      <trkpt lat="46.69817" lon="5.53337">
        <ele>264.4</ele>
        <time>2022-03-21T07:38:31Z</time>
      </trkpt>
      <trkpt lat="46.69828" lon="5.53331">
        <ele>263.8</ele>
        <time>2022-03-21T07:38:32Z</time>
      </trkpt>
      <trkpt lat="46.69839" lon="5.53325">
        <ele>263.2</ele>
        <time>2022-03-21T07:38:33Z</time>
      </trkpt>
      <trkpt lat="46.69851" lon="5.53319">
        <ele>262.6</ele>
        <time>2022-03-21T07:38:34Z</time>
      </trkpt>
      <trkpt lat="46.69862" lon="5.53315">
        <ele>262</ele>
        <time>2022-03-21T07:38:35Z</time>
      </trkpt>
      <trkpt lat="46.69873" lon="5.5331">
        <ele>261.6</ele>
        <time>2022-03-21T07:38:36Z</time>
      </trkpt>
      <trkpt lat="46.69883" lon="5.53306">
        <ele>261.2</ele>
        <time>2022-03-21T07:38:37Z</time>
      </trkpt>
      <trkpt lat="46.69894" lon="5.53299">
        <ele>260.8</ele>
        <time>2022-03-21T07:38:38Z</time>
      </trkpt>
      <trkpt lat="46.69905" lon="5.53295">
        <ele>260.6</ele>
        <time>2022-03-21T07:38:39Z</time>
      </trkpt>
      <trkpt lat="46.69916" lon="5.53289">
        <ele>260.2</ele>
        <time>2022-03-21T07:38:40Z</time>
      </trkpt>
      <trkpt lat="46.69927" lon="5.53284">
        <ele>260</ele>
        <time>2022-03-21T07:38:41Z</time>
      </trkpt>
      <trkpt lat="46.69937" lon="5.53279">
        <ele>260</ele>
        <time>2022-03-21T07:38:42Z</time>
      </trkpt>
      <trkpt lat="46.69947" lon="5.53274">
        <ele>259.8</ele>
        <time>2022-03-21T07:38:43Z</time>
      </trkpt>
      <trkpt lat="46.69956" lon="5.53269">
        <ele>259.8</ele>
        <time>2022-03-21T07:38:44Z</time>
      </trkpt>
      <trkpt lat="46.69965" lon="5.53263">
        <ele>259.8</ele>
        <time>2022-03-21T07:38:45Z</time>
      </trkpt>
      <trkpt lat="46.69974" lon="5.53254">
        <ele>259.6</ele>
        <time>2022-03-21T07:38:46Z</time>
      </trkpt>
      <trkpt lat="46.69981" lon="5.53245">
        <ele>259.6</ele>
        <time>2022-03-21T07:38:47Z</time>
      </trkpt>
      <trkpt lat="46.69988" lon="5.53235">
        <ele>259.6</ele>
        <time>2022-03-21T07:38:48Z</time>
      </trkpt>
      <trkpt lat="46.69996" lon="5.53225">
        <ele>259.4</ele>
        <time>2022-03-21T07:38:49Z</time>
      </trkpt>
      <trkpt lat="46.70004" lon="5.53216">
        <ele>259.4</ele>
        <time>2022-03-21T07:38:50Z</time>
      </trkpt>
      <trkpt lat="46.70011" lon="5.53206">
        <ele>259.4</ele>
        <time>2022-03-21T07:38:51Z</time>
      </trkpt>
      <trkpt lat="46.70019" lon="5.53197">
        <ele>259.2</ele>
        <time>2022-03-21T07:38:52Z</time>
      </trkpt>
      <trkpt lat="46.70026" lon="5.53188">
        <ele>259.2</ele>
        <time>2022-03-21T07:38:53Z</time>
      </trkpt>
      <trkpt lat="46.70034" lon="5.53179">
        <ele>259.2</ele>
        <time>2022-03-21T07:38:54Z</time>
      </trkpt>
      <trkpt lat="46.70042" lon="5.5317">
        <ele>259.2</ele>
        <time>2022-03-21T07:38:55Z</time>
      </trkpt>
      <trkpt lat="46.70049" lon="5.53163">
        <ele>259.2</ele>
        <time>2022-03-21T07:38:56Z</time>
      </trkpt>
      <trkpt lat="46.70057" lon="5.53154">
        <ele>259.2</ele>
        <time>2022-03-21T07:38:57Z</time>
      </trkpt>
      <trkpt lat="46.70064" lon="5.53145">
        <ele>259.2</ele>
        <time>2022-03-21T07:38:58Z</time>
      </trkpt>
      <trkpt lat="46.70072" lon="5.53137">
        <ele>259.2</ele>
        <time>2022-03-21T07:38:59Z</time>
      </trkpt>
      <trkpt lat="46.7008" lon="5.53129">
        <ele>259.2</ele>
        <time>2022-03-21T07:39:00Z</time>
      </trkpt>
      <trkpt lat="46.70087" lon="5.53121">
        <ele>259.2</ele>
        <time>2022-03-21T07:39:01Z</time>
      </trkpt>
      <trkpt lat="46.70094" lon="5.53112">
        <ele>259.2</ele>
        <time>2022-03-21T07:39:02Z</time>
      </trkpt>
      <trkpt lat="46.70101" lon="5.53105">
        <ele>259.2</ele>
        <time>2022-03-21T07:39:03Z</time>
      </trkpt>
      <trkpt lat="46.70109" lon="5.53096">
        <ele>259.2</ele>
        <time>2022-03-21T07:39:04Z</time>
      </trkpt>
      <trkpt lat="46.70116" lon="5.53088">
        <ele>259.2</ele>
        <time>2022-03-21T07:39:05Z</time>
      </trkpt>
      <trkpt lat="46.70123" lon="5.5308">
        <ele>259.2</ele>
        <time>2022-03-21T07:39:06Z</time>
      </trkpt>
      <trkpt lat="46.7013" lon="5.53072">
        <ele>259.2</ele>
        <time>2022-03-21T07:39:07Z</time>
      </trkpt>
      <trkpt lat="46.70138" lon="5.53063">
        <ele>259.2</ele>
        <time>2022-03-21T07:39:08Z</time>
      </trkpt>
      <trkpt lat="46.70145" lon="5.53055">
        <ele>259.2</ele>
        <time>2022-03-21T07:39:09Z</time>
      </trkpt>
      <trkpt lat="46.70153" lon="5.53047">
        <ele>259</ele>
        <time>2022-03-21T07:39:10Z</time>
      </trkpt>
      <trkpt lat="46.70161" lon="5.53038">
        <ele>259</ele>
        <time>2022-03-21T07:39:11Z</time>
      </trkpt>
      <trkpt lat="46.70168" lon="5.5303">
        <ele>258.6</ele>
        <time>2022-03-21T07:39:12Z</time>
      </trkpt>
      <trkpt lat="46.70176" lon="5.53021">
        <ele>258.6</ele>
        <time>2022-03-21T07:39:13Z</time>
      </trkpt>
      <trkpt lat="46.70184" lon="5.53011">
        <ele>258.2</ele>
        <time>2022-03-21T07:39:14Z</time>
      </trkpt>
      <trkpt lat="46.70191" lon="5.53002">
        <ele>258.2</ele>
        <time>2022-03-21T07:39:15Z</time>
      </trkpt>
      <trkpt lat="46.70199" lon="5.52993">
        <ele>258</ele>
        <time>2022-03-21T07:39:16Z</time>
      </trkpt>
      <trkpt lat="46.70208" lon="5.52986">
        <ele>257.6</ele>
        <time>2022-03-21T07:39:17Z</time>
      </trkpt>
      <trkpt lat="46.70217" lon="5.5298">
        <ele>257.4</ele>
        <time>2022-03-21T07:39:18Z</time>
      </trkpt>
      <trkpt lat="46.70226" lon="5.52976">
        <ele>257.2</ele>
        <time>2022-03-21T07:39:19Z</time>
      </trkpt>
      <trkpt lat="46.70235" lon="5.52975">
        <ele>257.2</ele>
        <time>2022-03-21T07:39:20Z</time>
      </trkpt>
      <trkpt lat="46.70245" lon="5.52975">
        <ele>257.2</ele>
        <time>2022-03-21T07:39:21Z</time>
      </trkpt>
      <trkpt lat="46.70256" lon="5.52976">
        <ele>256.8</ele>
        <time>2022-03-21T07:39:22Z</time>
      </trkpt>
      <trkpt lat="46.70266" lon="5.52977">
        <ele>256.8</ele>
        <time>2022-03-21T07:39:23Z</time>
      </trkpt>
      <trkpt lat="46.70274" lon="5.52976">
        <ele>256.8</ele>
        <time>2022-03-21T07:39:24Z</time>
      </trkpt>
      <trkpt lat="46.70284" lon="5.52975">
        <ele>256.8</ele>
        <time>2022-03-21T07:39:25Z</time>
      </trkpt>
      <trkpt lat="46.70293" lon="5.52975">
        <ele>257</ele>
        <time>2022-03-21T07:39:26Z</time>
      </trkpt>
      <trkpt lat="46.70301" lon="5.52974">
        <ele>257.2</ele>
        <time>2022-03-21T07:39:27Z</time>
      </trkpt>
      <trkpt lat="46.7031" lon="5.52972">
        <ele>257.4</ele>
        <time>2022-03-21T07:39:28Z</time>
      </trkpt>
      <trkpt lat="46.70318" lon="5.52971">
        <ele>257.4</ele>
        <time>2022-03-21T07:39:29Z</time>
      </trkpt>
      <trkpt lat="46.70326" lon="5.5297">
        <ele>257.8</ele>
        <time>2022-03-21T07:39:30Z</time>
      </trkpt>
      <trkpt lat="46.70334" lon="5.52969">
        <ele>257.8</ele>
        <time>2022-03-21T07:39:31Z</time>
      </trkpt>
      <trkpt lat="46.70342" lon="5.52968">
        <ele>258.2</ele>
        <time>2022-03-21T07:39:32Z</time>
      </trkpt>
      <trkpt lat="46.70349" lon="5.52966">
        <ele>258.4</ele>
        <time>2022-03-21T07:39:33Z</time>
      </trkpt>
      <trkpt lat="46.70357" lon="5.52963">
        <ele>258.4</ele>
        <time>2022-03-21T07:39:34Z</time>
      </trkpt>
      <trkpt lat="46.70364" lon="5.52959">
        <ele>258.8</ele>
        <time>2022-03-21T07:39:35Z</time>
      </trkpt>
      <trkpt lat="46.70371" lon="5.52956">
        <ele>259.2</ele>
        <time>2022-03-21T07:39:36Z</time>
      </trkpt>
      <trkpt lat="46.70378" lon="5.52952">
        <ele>259.4</ele>
        <time>2022-03-21T07:39:37Z</time>
      </trkpt>
      <trkpt lat="46.70385" lon="5.52948">
        <ele>259.6</ele>
        <time>2022-03-21T07:39:38Z</time>
      </trkpt>
      <trkpt lat="46.70391" lon="5.52945">
        <ele>259.8</ele>
        <time>2022-03-21T07:39:39Z</time>
      </trkpt>
      <trkpt lat="46.70398" lon="5.52941">
        <ele>260.2</ele>
        <time>2022-03-21T07:39:40Z</time>
      </trkpt>
      <trkpt lat="46.70404" lon="5.52937">
        <ele>260.2</ele>
        <time>2022-03-21T07:39:41Z</time>
      </trkpt>
      <trkpt lat="46.7041" lon="5.52932">
        <ele>260.2</ele>
        <time>2022-03-21T07:39:42Z</time>
      </trkpt>
      <trkpt lat="46.70416" lon="5.52928">
        <ele>260.4</ele>
        <time>2022-03-21T07:39:43Z</time>
      </trkpt>
      <trkpt lat="46.70423" lon="5.52923">
        <ele>260.4</ele>
        <time>2022-03-21T07:39:44Z</time>
      </trkpt>
      <trkpt lat="46.70429" lon="5.52918">
        <ele>260.4</ele>
        <time>2022-03-21T07:39:45Z</time>
      </trkpt>
      <trkpt lat="46.70436" lon="5.52914">
        <ele>260.4</ele>
        <time>2022-03-21T07:39:46Z</time>
      </trkpt>
      <trkpt lat="46.70443" lon="5.5291">
        <ele>260.4</ele>
        <time>2022-03-21T07:39:47Z</time>
      </trkpt>
      <trkpt lat="46.70451" lon="5.52907">
        <ele>260.2</ele>
        <time>2022-03-21T07:39:48Z</time>
      </trkpt>
      <trkpt lat="46.70459" lon="5.52904">
        <ele>260.2</ele>
        <time>2022-03-21T07:39:49Z</time>
      </trkpt>
      <trkpt lat="46.70467" lon="5.52902">
        <ele>259.8</ele>
        <time>2022-03-21T07:39:50Z</time>
      </trkpt>
      <trkpt lat="46.70475" lon="5.52901">
        <ele>259.6</ele>
        <time>2022-03-21T07:39:51Z</time>
      </trkpt>
      <trkpt lat="46.70483" lon="5.52899">
        <ele>259.4</ele>
        <time>2022-03-21T07:39:52Z</time>
      </trkpt>
      <trkpt lat="46.70492" lon="5.52897">
        <ele>259.4</ele>
        <time>2022-03-21T07:39:53Z</time>
      </trkpt>
      <trkpt lat="46.705" lon="5.52896">
        <ele>259</ele>
        <time>2022-03-21T07:39:54Z</time>
      </trkpt>
      <trkpt lat="46.70509" lon="5.52894">
        <ele>258.8</ele>
        <time>2022-03-21T07:39:55Z</time>
      </trkpt>
      <trkpt lat="46.70518" lon="5.52893">
        <ele>258.8</ele>
        <time>2022-03-21T07:39:56Z</time>
      </trkpt>
      <trkpt lat="46.70527" lon="5.52891">
        <ele>258.4</ele>
        <time>2022-03-21T07:39:57Z</time>
      </trkpt>
      <trkpt lat="46.70536" lon="5.5289">
        <ele>258.4</ele>
        <time>2022-03-21T07:39:58Z</time>
      </trkpt>
      <trkpt lat="46.70545" lon="5.52888">
        <ele>258</ele>
        <time>2022-03-21T07:39:59Z</time>
      </trkpt>
      <trkpt lat="46.70553" lon="5.52886">
        <ele>257.6</ele>
        <time>2022-03-21T07:40:00Z</time>
      </trkpt>
      <trkpt lat="46.70562" lon="5.52882">
        <ele>257.4</ele>
        <time>2022-03-21T07:40:01Z</time>
      </trkpt>
      <trkpt lat="46.70571" lon="5.52878">
        <ele>257</ele>
        <time>2022-03-21T07:40:02Z</time>
      </trkpt>
      <trkpt lat="46.7058" lon="5.52873">
        <ele>256.6</ele>
        <time>2022-03-21T07:40:03Z</time>
      </trkpt>
      <trkpt lat="46.70589" lon="5.52867">
        <ele>256.4</ele>
        <time>2022-03-21T07:40:04Z</time>
      </trkpt>
      <trkpt lat="46.70597" lon="5.5286">
        <ele>256</ele>
        <time>2022-03-21T07:40:05Z</time>
      </trkpt>
      <trkpt lat="46.70605" lon="5.52851">
        <ele>255.6</ele>
        <time>2022-03-21T07:40:06Z</time>
      </trkpt>
      <trkpt lat="46.70613" lon="5.52842">
        <ele>255.2</ele>
        <time>2022-03-21T07:40:07Z</time>
      </trkpt>
      <trkpt lat="46.7062" lon="5.52831">
        <ele>254.8</ele>
        <time>2022-03-21T07:40:08Z</time>
      </trkpt>
      <trkpt lat="46.70627" lon="5.52821">
        <ele>254.6</ele>
        <time>2022-03-21T07:40:09Z</time>
      </trkpt>
      <trkpt lat="46.70634" lon="5.52813">
        <ele>254.2</ele>
        <time>2022-03-21T07:40:10Z</time>
      </trkpt>
      <trkpt lat="46.7064" lon="5.52804">
        <ele>254.2</ele>
        <time>2022-03-21T07:40:11Z</time>
      </trkpt>
      <trkpt lat="46.70647" lon="5.52796">
        <ele>254.2</ele>
        <time>2022-03-21T07:40:12Z</time>
      </trkpt>
      <trkpt lat="46.70653" lon="5.52787">
        <ele>254.2</ele>
        <time>2022-03-21T07:40:13Z</time>
      </trkpt>
      <trkpt lat="46.7066" lon="5.52779">
        <ele>254.2</ele>
        <time>2022-03-21T07:40:14Z</time>
      </trkpt>
      <trkpt lat="46.70666" lon="5.52771">
        <ele>254.2</ele>
        <time>2022-03-21T07:40:15Z</time>
      </trkpt>
      <trkpt lat="46.70672" lon="5.52764">
        <ele>254.6</ele>
        <time>2022-03-21T07:40:16Z</time>
      </trkpt>
      <trkpt lat="46.70678" lon="5.52756">
        <ele>254.6</ele>
        <time>2022-03-21T07:40:17Z</time>
      </trkpt>
      <trkpt lat="46.70683" lon="5.52749">
        <ele>255</ele>
        <time>2022-03-21T07:40:18Z</time>
      </trkpt>
      <trkpt lat="46.70688" lon="5.52742">
        <ele>255.2</ele>
        <time>2022-03-21T07:40:19Z</time>
      </trkpt>
      <trkpt lat="46.70693" lon="5.52736">
        <ele>255.4</ele>
        <time>2022-03-21T07:40:20Z</time>
      </trkpt>
      <trkpt lat="46.70699" lon="5.52731">
        <ele>255.6</ele>
        <time>2022-03-21T07:40:21Z</time>
      </trkpt>
      <trkpt lat="46.70705" lon="5.52727">
        <ele>255.8</ele>
        <time>2022-03-21T07:40:22Z</time>
      </trkpt>
      <trkpt lat="46.70711" lon="5.52725">
        <ele>256</ele>
        <time>2022-03-21T07:40:23Z</time>
      </trkpt>
      <trkpt lat="46.70716" lon="5.52725">
        <ele>256</ele>
        <time>2022-03-21T07:40:24Z</time>
      </trkpt>
      <trkpt lat="46.70721" lon="5.52728">
        <ele>256.4</ele>
        <time>2022-03-21T07:40:25Z</time>
      </trkpt>
      <trkpt lat="46.70726" lon="5.52733">
        <ele>256.6</ele>
        <time>2022-03-21T07:40:26Z</time>
      </trkpt>
      <trkpt lat="46.70731" lon="5.52738">
        <ele>256.6</ele>
        <time>2022-03-21T07:40:27Z</time>
      </trkpt>
      <trkpt lat="46.70735" lon="5.52744">
        <ele>257</ele>
        <time>2022-03-21T07:40:28Z</time>
      </trkpt>
      <trkpt lat="46.7074" lon="5.52749">
        <ele>257</ele>
        <time>2022-03-21T07:40:29Z</time>
      </trkpt>
      <trkpt lat="46.70745" lon="5.52754">
        <ele>257.2</ele>
        <time>2022-03-21T07:40:30Z</time>
      </trkpt>
      <trkpt lat="46.70751" lon="5.52758">
        <ele>257.2</ele>
        <time>2022-03-21T07:40:31Z</time>
      </trkpt>
      <trkpt lat="46.70756" lon="5.52762">
        <ele>257.2</ele>
        <time>2022-03-21T07:40:32Z</time>
      </trkpt>
      <trkpt lat="46.70762" lon="5.52766">
        <ele>257.6</ele>
        <time>2022-03-21T07:40:33Z</time>
      </trkpt>
      <trkpt lat="46.70767" lon="5.52771">
        <ele>257.6</ele>
        <time>2022-03-21T07:40:34Z</time>
      </trkpt>
      <trkpt lat="46.70773" lon="5.52776">
        <ele>257.6</ele>
        <time>2022-03-21T07:40:35Z</time>
      </trkpt>
      <trkpt lat="46.70778" lon="5.52781">
        <ele>257.8</ele>
        <time>2022-03-21T07:40:36Z</time>
      </trkpt>
      <trkpt lat="46.70783" lon="5.52787">
        <ele>257.8</ele>
        <time>2022-03-21T07:40:37Z</time>
      </trkpt>
      <trkpt lat="46.70787" lon="5.52794">
        <ele>258.2</ele>
        <time>2022-03-21T07:40:38Z</time>
      </trkpt>
      <trkpt lat="46.7079" lon="5.528">
        <ele>258.2</ele>
        <time>2022-03-21T07:40:39Z</time>
      </trkpt>
      <trkpt lat="46.70794" lon="5.52807">
        <ele>258.6</ele>
        <time>2022-03-21T07:40:40Z</time>
      </trkpt>
      <trkpt lat="46.70798" lon="5.52814">
        <ele>258.6</ele>
        <time>2022-03-21T07:40:41Z</time>
      </trkpt>
      <trkpt lat="46.70801" lon="5.52821">
        <ele>258.8</ele>
        <time>2022-03-21T07:40:42Z</time>
      </trkpt>
      <trkpt lat="46.70804" lon="5.52828">
        <ele>258.8</ele>
        <time>2022-03-21T07:40:43Z</time>
      </trkpt>
      <trkpt lat="46.70808" lon="5.52835">
        <ele>259.2</ele>
        <time>2022-03-21T07:40:44Z</time>
      </trkpt>
      <trkpt lat="46.70811" lon="5.52842">
        <ele>259.2</ele>
        <time>2022-03-21T07:40:45Z</time>
      </trkpt>
      <trkpt lat="46.70814" lon="5.52849">
        <ele>259.4</ele>
        <time>2022-03-21T07:40:46Z</time>
      </trkpt>
      <trkpt lat="46.70817" lon="5.52857">
        <ele>259.4</ele>
        <time>2022-03-21T07:40:47Z</time>
      </trkpt>
      <trkpt lat="46.7082" lon="5.52865">
        <ele>259.4</ele>
        <time>2022-03-21T07:40:48Z</time>
      </trkpt>
      <trkpt lat="46.70822" lon="5.52873">
        <ele>259.4</ele>
        <time>2022-03-21T07:40:49Z</time>
      </trkpt>
      <trkpt lat="46.70825" lon="5.52882">
        <ele>259.4</ele>
        <time>2022-03-21T07:40:50Z</time>
      </trkpt>
      <trkpt lat="46.70826" lon="5.52891">
        <ele>259.4</ele>
        <time>2022-03-21T07:40:51Z</time>
      </trkpt>
      <trkpt lat="46.70828" lon="5.52901">
        <ele>259.6</ele>
        <time>2022-03-21T07:40:52Z</time>
      </trkpt>
      <trkpt lat="46.70829" lon="5.5291">
        <ele>259.6</ele>
        <time>2022-03-21T07:40:53Z</time>
      </trkpt>
      <trkpt lat="46.70831" lon="5.5292">
        <ele>259.6</ele>
        <time>2022-03-21T07:40:54Z</time>
      </trkpt>
      <trkpt lat="46.70832" lon="5.52929">
        <ele>259.6</ele>
        <time>2022-03-21T07:40:55Z</time>
      </trkpt>
      <trkpt lat="46.70834" lon="5.52939">
        <ele>259.8</ele>
        <time>2022-03-21T07:40:56Z</time>
      </trkpt>
      <trkpt lat="46.70835" lon="5.52948">
        <ele>259.8</ele>
        <time>2022-03-21T07:40:57Z</time>
      </trkpt>
      <trkpt lat="46.70837" lon="5.52956">
        <ele>259.8</ele>
        <time>2022-03-21T07:40:58Z</time>
      </trkpt>
      <trkpt lat="46.7084" lon="5.52965">
        <ele>259.8</ele>
        <time>2022-03-21T07:40:59Z</time>
      </trkpt>
      <trkpt lat="46.70843" lon="5.52973">
        <ele>260.2</ele>
        <time>2022-03-21T07:41:00Z</time>
      </trkpt>
      <trkpt lat="46.70845" lon="5.52982">
        <ele>260.2</ele>
        <time>2022-03-21T07:41:01Z</time>
      </trkpt>
      <trkpt lat="46.70848" lon="5.52991">
        <ele>260.2</ele>
        <time>2022-03-21T07:41:02Z</time>
      </trkpt>
      <trkpt lat="46.70851" lon="5.52999">
        <ele>260.2</ele>
        <time>2022-03-21T07:41:03Z</time>
      </trkpt>
      <trkpt lat="46.70854" lon="5.53007">
        <ele>260.2</ele>
        <time>2022-03-21T07:41:04Z</time>
      </trkpt>
      <trkpt lat="46.70857" lon="5.53015">
        <ele>260.2</ele>
        <time>2022-03-21T07:41:05Z</time>
      </trkpt>
      <trkpt lat="46.7086" lon="5.53024">
        <ele>260.2</ele>
        <time>2022-03-21T07:41:06Z</time>
      </trkpt>
      <trkpt lat="46.70863" lon="5.53032">
        <ele>260.4</ele>
        <time>2022-03-21T07:41:07Z</time>
      </trkpt>
      <trkpt lat="46.70866" lon="5.5304">
        <ele>260.4</ele>
        <time>2022-03-21T07:41:08Z</time>
      </trkpt>
      <trkpt lat="46.70869" lon="5.53047">
        <ele>260.8</ele>
        <time>2022-03-21T07:41:09Z</time>
      </trkpt>
      <trkpt lat="46.70871" lon="5.53055">
        <ele>260.8</ele>
        <time>2022-03-21T07:41:10Z</time>
      </trkpt>
      <trkpt lat="46.70873" lon="5.53062">
        <ele>261.2</ele>
        <time>2022-03-21T07:41:11Z</time>
      </trkpt>
      <trkpt lat="46.70876" lon="5.5307">
        <ele>261.4</ele>
        <time>2022-03-21T07:41:12Z</time>
      </trkpt>
      <trkpt lat="46.70879" lon="5.53077">
        <ele>261.4</ele>
        <time>2022-03-21T07:41:13Z</time>
      </trkpt>
      <trkpt lat="46.70881" lon="5.53084">
        <ele>261.6</ele>
        <time>2022-03-21T07:41:14Z</time>
      </trkpt>
      <trkpt lat="46.70883" lon="5.53091">
        <ele>262</ele>
        <time>2022-03-21T07:41:15Z</time>
      </trkpt>
      <trkpt lat="46.70885" lon="5.53098">
        <ele>262.2</ele>
        <time>2022-03-21T07:41:16Z</time>
      </trkpt>
      <trkpt lat="46.70887" lon="5.53104">
        <ele>262.4</ele>
        <time>2022-03-21T07:41:17Z</time>
      </trkpt>
      <trkpt lat="46.70889" lon="5.53111">
        <ele>262.4</ele>
        <time>2022-03-21T07:41:18Z</time>
      </trkpt>
      <trkpt lat="46.70892" lon="5.53118">
        <ele>262.8</ele>
        <time>2022-03-21T07:41:19Z</time>
      </trkpt>
      <trkpt lat="46.70894" lon="5.53124">
        <ele>262.8</ele>
        <time>2022-03-21T07:41:20Z</time>
      </trkpt>
      <trkpt lat="46.70896" lon="5.53131">
        <ele>263.2</ele>
        <time>2022-03-21T07:41:21Z</time>
      </trkpt>
      <trkpt lat="46.70898" lon="5.53138">
        <ele>263.4</ele>
        <time>2022-03-21T07:41:22Z</time>
      </trkpt>
      <trkpt lat="46.709" lon="5.53144">
        <ele>263.4</ele>
        <time>2022-03-21T07:41:23Z</time>
      </trkpt>
      <trkpt lat="46.70902" lon="5.53151">
        <ele>263.8</ele>
        <time>2022-03-21T07:41:24Z</time>
      </trkpt>
      <trkpt lat="46.70904" lon="5.53157">
        <ele>263.8</ele>
        <time>2022-03-21T07:41:25Z</time>
      </trkpt>
      <trkpt lat="46.70906" lon="5.53163">
        <ele>264.2</ele>
        <time>2022-03-21T07:41:26Z</time>
      </trkpt>
      <trkpt lat="46.70908" lon="5.53168">
        <ele>264.4</ele>
        <time>2022-03-21T07:41:27Z</time>
      </trkpt>
      <trkpt lat="46.70911" lon="5.53174">
        <ele>264.6</ele>
        <time>2022-03-21T07:41:28Z</time>
      </trkpt>
      <trkpt lat="46.70913" lon="5.5318">
        <ele>264.6</ele>
        <time>2022-03-21T07:41:29Z</time>
      </trkpt>
      <trkpt lat="46.70915" lon="5.53186">
        <ele>265</ele>
        <time>2022-03-21T07:41:30Z</time>
      </trkpt>
      <trkpt lat="46.70917" lon="5.53191">
        <ele>265</ele>
        <time>2022-03-21T07:41:31Z</time>
      </trkpt>
      <trkpt lat="46.7092" lon="5.53197">
        <ele>265.2</ele>
        <time>2022-03-21T07:41:32Z</time>
      </trkpt>
      <trkpt lat="46.70922" lon="5.53202">
        <ele>265.2</ele>
        <time>2022-03-21T07:41:33Z</time>
      </trkpt>
      <trkpt lat="46.70924" lon="5.53208">
        <ele>265.6</ele>
        <time>2022-03-21T07:41:34Z</time>
      </trkpt>
      <trkpt lat="46.70926" lon="5.53213">
        <ele>265.6</ele>
        <time>2022-03-21T07:41:35Z</time>
      </trkpt>
      <trkpt lat="46.70928" lon="5.53219">
        <ele>265.8</ele>
        <time>2022-03-21T07:41:36Z</time>
      </trkpt>
      <trkpt lat="46.70931" lon="5.53224">
        <ele>266.2</ele>
        <time>2022-03-21T07:41:37Z</time>
      </trkpt>
      <trkpt lat="46.70933" lon="5.53229">
        <ele>266.4</ele>
        <time>2022-03-21T07:41:38Z</time>
      </trkpt>
      <trkpt lat="46.70935" lon="5.53234">
        <ele>266.6</ele>
        <time>2022-03-21T07:41:39Z</time>
      </trkpt>
      <trkpt lat="46.70936" lon="5.53239">
        <ele>266.8</ele>
        <time>2022-03-21T07:41:40Z</time>
      </trkpt>
      <trkpt lat="46.70938" lon="5.53245">
        <ele>267</ele>
        <time>2022-03-21T07:41:41Z</time>
      </trkpt>
      <trkpt lat="46.7094" lon="5.5325">
        <ele>267.2</ele>
        <time>2022-03-21T07:41:42Z</time>
      </trkpt>
      <trkpt lat="46.70942" lon="5.53255">
        <ele>267.2</ele>
        <time>2022-03-21T07:41:43Z</time>
      </trkpt>
      <trkpt lat="46.70944" lon="5.5326">
        <ele>267.6</ele>
        <time>2022-03-21T07:41:44Z</time>
      </trkpt>
      <trkpt lat="46.70946" lon="5.53265">
        <ele>267.8</ele>
        <time>2022-03-21T07:41:45Z</time>
      </trkpt>
      <trkpt lat="46.70947" lon="5.5327">
        <ele>268</ele>
        <time>2022-03-21T07:41:46Z</time>
      </trkpt>
      <trkpt lat="46.70949" lon="5.53275">
        <ele>268.4</ele>
        <time>2022-03-21T07:41:47Z</time>
      </trkpt>
      <trkpt lat="46.70951" lon="5.53279">
        <ele>268.6</ele>
        <time>2022-03-21T07:41:48Z</time>
      </trkpt>
      <trkpt lat="46.70952" lon="5.53284">
        <ele>268.8</ele>
        <time>2022-03-21T07:41:49Z</time>
      </trkpt>
      <trkpt lat="46.70954" lon="5.53289">
        <ele>269</ele>
        <time>2022-03-21T07:41:50Z</time>
      </trkpt>
      <trkpt lat="46.70955" lon="5.53294">
        <ele>269.4</ele>
        <time>2022-03-21T07:41:51Z</time>
      </trkpt>
      <trkpt lat="46.70957" lon="5.53299">
        <ele>269.6</ele>
        <time>2022-03-21T07:41:52Z</time>
      </trkpt>
      <trkpt lat="46.70958" lon="5.53304">
        <ele>269.8</ele>
        <time>2022-03-21T07:41:53Z</time>
      </trkpt>
      <trkpt lat="46.7096" lon="5.53309">
        <ele>270.2</ele>
        <time>2022-03-21T07:41:54Z</time>
      </trkpt>
      <trkpt lat="46.70961" lon="5.53313">
        <ele>270.4</ele>
        <time>2022-03-21T07:41:55Z</time>
      </trkpt>
      <trkpt lat="46.70964" lon="5.53318">
        <ele>270.6</ele>
        <time>2022-03-21T07:41:56Z</time>
      </trkpt>
      <trkpt lat="46.70966" lon="5.53322">
        <ele>270.8</ele>
        <time>2022-03-21T07:41:57Z</time>
      </trkpt>
      <trkpt lat="46.70968" lon="5.53326">
        <ele>271</ele>
        <time>2022-03-21T07:41:58Z</time>
      </trkpt>
      <trkpt lat="46.70971" lon="5.5333">
        <ele>271.4</ele>
        <time>2022-03-21T07:41:59Z</time>
      </trkpt>
      <trkpt lat="46.70973" lon="5.53334">
        <ele>271.6</ele>
        <time>2022-03-21T07:42:00Z</time>
      </trkpt>
      <trkpt lat="46.70976" lon="5.53338">
        <ele>272</ele>
        <time>2022-03-21T07:42:01Z</time>
      </trkpt>
      <trkpt lat="46.70978" lon="5.53342">
        <ele>272</ele>
        <time>2022-03-21T07:42:02Z</time>
      </trkpt>
      <trkpt lat="46.70981" lon="5.53346">
        <ele>272.4</ele>
        <time>2022-03-21T07:42:03Z</time>
      </trkpt>
      <trkpt lat="46.70983" lon="5.53349">
        <ele>272.6</ele>
        <time>2022-03-21T07:42:04Z</time>
      </trkpt>
      <trkpt lat="46.70986" lon="5.53353">
        <ele>273</ele>
        <time>2022-03-21T07:42:05Z</time>
      </trkpt>
      <trkpt lat="46.70989" lon="5.53357">
        <ele>273.2</ele>
        <time>2022-03-21T07:42:06Z</time>
      </trkpt>
      <trkpt lat="46.70991" lon="5.53361">
        <ele>273.4</ele>
        <time>2022-03-21T07:42:07Z</time>
      </trkpt>
      <trkpt lat="46.70993" lon="5.53365">
        <ele>273.6</ele>
        <time>2022-03-21T07:42:08Z</time>
      </trkpt>
      <trkpt lat="46.70996" lon="5.53368">
        <ele>274</ele>
        <time>2022-03-21T07:42:09Z</time>
      </trkpt>
      <trkpt lat="46.70998" lon="5.53372">
        <ele>274.2</ele>
        <time>2022-03-21T07:42:10Z</time>
      </trkpt>
      <trkpt lat="46.71001" lon="5.53376">
        <ele>274.4</ele>
        <time>2022-03-21T07:42:11Z</time>
      </trkpt>
      <trkpt lat="46.71003" lon="5.5338">
        <ele>274.8</ele>
        <time>2022-03-21T07:42:12Z</time>
      </trkpt>
      <trkpt lat="46.71005" lon="5.53384">
        <ele>274.8</ele>
        <time>2022-03-21T07:42:13Z</time>
      </trkpt>
      <trkpt lat="46.71008" lon="5.53388">
        <ele>275.2</ele>
        <time>2022-03-21T07:42:14Z</time>
      </trkpt>
      <trkpt lat="46.7101" lon="5.53392">
        <ele>275.6</ele>
        <time>2022-03-21T07:42:15Z</time>
      </trkpt>
      <trkpt lat="46.71013" lon="5.53396">
        <ele>275.8</ele>
        <time>2022-03-21T07:42:16Z</time>
      </trkpt>
      <trkpt lat="46.71015" lon="5.534">
        <ele>276</ele>
        <time>2022-03-21T07:42:17Z</time>
      </trkpt>
      <trkpt lat="46.71017" lon="5.53405">
        <ele>276</ele>
        <time>2022-03-21T07:42:18Z</time>
      </trkpt>
      <trkpt lat="46.7102" lon="5.53409">
        <ele>276.4</ele>
        <time>2022-03-21T07:42:19Z</time>
      </trkpt>
      <trkpt lat="46.71022" lon="5.53413">
        <ele>276.6</ele>
        <time>2022-03-21T07:42:20Z</time>
      </trkpt>
      <trkpt lat="46.71025" lon="5.53418">
        <ele>276.8</ele>
        <time>2022-03-21T07:42:21Z</time>
      </trkpt>
      <trkpt lat="46.71027" lon="5.53422">
        <ele>276.8</ele>
        <time>2022-03-21T07:42:22Z</time>
      </trkpt>
      <trkpt lat="46.7103" lon="5.53426">
        <ele>277.2</ele>
        <time>2022-03-21T07:42:23Z</time>
      </trkpt>
      <trkpt lat="46.71032" lon="5.53431">
        <ele>277.2</ele>
        <time>2022-03-21T07:42:24Z</time>
      </trkpt>
      <trkpt lat="46.71034" lon="5.53435">
        <ele>277.6</ele>
        <time>2022-03-21T07:42:25Z</time>
      </trkpt>
      <trkpt lat="46.71036" lon="5.5344">
        <ele>277.8</ele>
        <time>2022-03-21T07:42:26Z</time>
      </trkpt>
      <trkpt lat="46.71038" lon="5.53444">
        <ele>278.2</ele>
        <time>2022-03-21T07:42:27Z</time>
      </trkpt>
      <trkpt lat="46.71041" lon="5.53448">
        <ele>278.4</ele>
        <time>2022-03-21T07:42:28Z</time>
      </trkpt>
      <trkpt lat="46.71043" lon="5.53452">
        <ele>278.6</ele>
        <time>2022-03-21T07:42:29Z</time>
      </trkpt>
      <trkpt lat="46.71045" lon="5.53457">
        <ele>278.8</ele>
        <time>2022-03-21T07:42:30Z</time>
      </trkpt>
      <trkpt lat="46.71047" lon="5.53461">
        <ele>279.2</ele>
        <time>2022-03-21T07:42:31Z</time>
      </trkpt>
      <trkpt lat="46.71049" lon="5.53465">
        <ele>279.4</ele>
        <time>2022-03-21T07:42:32Z</time>
      </trkpt>
      <trkpt lat="46.71051" lon="5.5347">
        <ele>279.4</ele>
        <time>2022-03-21T07:42:33Z</time>
      </trkpt>
      <trkpt lat="46.71054" lon="5.53474">
        <ele>279.8</ele>
        <time>2022-03-21T07:42:34Z</time>
      </trkpt>
      <trkpt lat="46.71056" lon="5.53478">
        <ele>280</ele>
        <time>2022-03-21T07:42:35Z</time>
      </trkpt>
      <trkpt lat="46.71058" lon="5.53482">
        <ele>280.2</ele>
        <time>2022-03-21T07:42:36Z</time>
      </trkpt>
      <trkpt lat="46.7106" lon="5.53487">
        <ele>280.6</ele>
        <time>2022-03-21T07:42:37Z</time>
      </trkpt>
      <trkpt lat="46.71062" lon="5.53492">
        <ele>280.8</ele>
        <time>2022-03-21T07:42:38Z</time>
      </trkpt>
      <trkpt lat="46.71064" lon="5.53496">
        <ele>281.2</ele>
        <time>2022-03-21T07:42:39Z</time>
      </trkpt>
      <trkpt lat="46.71066" lon="5.535">
        <ele>281.6</ele>
        <time>2022-03-21T07:42:40Z</time>
      </trkpt>
      <trkpt lat="46.71068" lon="5.53504">
        <ele>282</ele>
        <time>2022-03-21T07:42:41Z</time>
      </trkpt>
      <trkpt lat="46.7107" lon="5.53508">
        <ele>282.2</ele>
        <time>2022-03-21T07:42:42Z</time>
      </trkpt>
      <trkpt lat="46.71072" lon="5.53511">
        <ele>282.4</ele>
        <time>2022-03-21T07:42:43Z</time>
      </trkpt>
      <trkpt lat="46.71074" lon="5.53515">
        <ele>282.6</ele>
        <time>2022-03-21T07:42:44Z</time>
      </trkpt>
      <trkpt lat="46.71076" lon="5.53518">
        <ele>282.8</ele>
        <time>2022-03-21T07:42:45Z</time>
      </trkpt>
      <trkpt lat="46.71079" lon="5.53522">
        <ele>283.2</ele>
        <time>2022-03-21T07:42:46Z</time>
      </trkpt>
      <trkpt lat="46.71081" lon="5.53526">
        <ele>283.4</ele>
        <time>2022-03-21T07:42:47Z</time>
      </trkpt>
      <trkpt lat="46.71083" lon="5.5353">
        <ele>283.6</ele>
        <time>2022-03-21T07:42:49Z</time>
      </trkpt>
      <trkpt lat="46.71086" lon="5.53534">
        <ele>284</ele>
        <time>2022-03-21T07:42:50Z</time>
      </trkpt>
      <trkpt lat="46.71088" lon="5.53538">
        <ele>284</ele>
        <time>2022-03-21T07:42:51Z</time>
      </trkpt>
      <trkpt lat="46.7109" lon="5.53542">
        <ele>284.2</ele>
        <time>2022-03-21T07:42:52Z</time>
      </trkpt>
      <trkpt lat="46.71093" lon="5.53546">
        <ele>284.2</ele>
        <time>2022-03-21T07:42:53Z</time>
      </trkpt>
      <trkpt lat="46.71098" lon="5.53555">
        <ele>284.6</ele>
        <time>2022-03-21T07:42:54Z</time>
      </trkpt>
      <trkpt lat="46.711" lon="5.53559">
        <ele>284.8</ele>
        <time>2022-03-21T07:42:55Z</time>
      </trkpt>
      <trkpt lat="46.71103" lon="5.53564">
        <ele>284.8</ele>
        <time>2022-03-21T07:42:56Z</time>
      </trkpt>
      <trkpt lat="46.71106" lon="5.53568">
        <ele>284.8</ele>
        <time>2022-03-21T07:42:57Z</time>
      </trkpt>
      <trkpt lat="46.71109" lon="5.53572">
        <ele>285</ele>
        <time>2022-03-21T07:42:58Z</time>
      </trkpt>
      <trkpt lat="46.71112" lon="5.53576">
        <ele>285</ele>
        <time>2022-03-21T07:42:59Z</time>
      </trkpt>
      <trkpt lat="46.71115" lon="5.5358">
        <ele>285.2</ele>
        <time>2022-03-21T07:43:00Z</time>
      </trkpt>
      <trkpt lat="46.71118" lon="5.53584">
        <ele>285.2</ele>
        <time>2022-03-21T07:43:01Z</time>
      </trkpt>
      <trkpt lat="46.71122" lon="5.53587">
        <ele>285.6</ele>
        <time>2022-03-21T07:43:02Z</time>
      </trkpt>
      <trkpt lat="46.71125" lon="5.53591">
        <ele>285.6</ele>
        <time>2022-03-21T07:43:03Z</time>
      </trkpt>
      <trkpt lat="46.71128" lon="5.53594">
        <ele>286</ele>
        <time>2022-03-21T07:43:04Z</time>
      </trkpt>
      <trkpt lat="46.71131" lon="5.53596">
        <ele>286</ele>
        <time>2022-03-21T07:43:05Z</time>
      </trkpt>
      <trkpt lat="46.71134" lon="5.53599">
        <ele>286.4</ele>
        <time>2022-03-21T07:43:06Z</time>
      </trkpt>
      <trkpt lat="46.71136" lon="5.53602">
        <ele>286.8</ele>
        <time>2022-03-21T07:43:07Z</time>
      </trkpt>
      <trkpt lat="46.71139" lon="5.53604">
        <ele>287</ele>
        <time>2022-03-21T07:43:08Z</time>
      </trkpt>
      <trkpt lat="46.71142" lon="5.53607">
        <ele>287.2</ele>
        <time>2022-03-21T07:43:09Z</time>
      </trkpt>
      <trkpt lat="46.71144" lon="5.5361">
        <ele>287.2</ele>
        <time>2022-03-21T07:43:10Z</time>
      </trkpt>
      <trkpt lat="46.71147" lon="5.53614">
        <ele>287.6</ele>
        <time>2022-03-21T07:43:11Z</time>
      </trkpt>
      <trkpt lat="46.71149" lon="5.53616">
        <ele>287.8</ele>
        <time>2022-03-21T07:43:12Z</time>
      </trkpt>
      <trkpt lat="46.71152" lon="5.53619">
        <ele>288</ele>
        <time>2022-03-21T07:43:13Z</time>
      </trkpt>
      <trkpt lat="46.71154" lon="5.53621">
        <ele>288</ele>
        <time>2022-03-21T07:43:14Z</time>
      </trkpt>
      <trkpt lat="46.71157" lon="5.53624">
        <ele>288.4</ele>
        <time>2022-03-21T07:43:15Z</time>
      </trkpt>
      <trkpt lat="46.71159" lon="5.53626">
        <ele>288.6</ele>
        <time>2022-03-21T07:43:16Z</time>
      </trkpt>
      <trkpt lat="46.71162" lon="5.53629">
        <ele>288.8</ele>
        <time>2022-03-21T07:43:17Z</time>
      </trkpt>
      <trkpt lat="46.71164" lon="5.53632">
        <ele>289</ele>
        <time>2022-03-21T07:43:18Z</time>
      </trkpt>
      <trkpt lat="46.71167" lon="5.53635">
        <ele>289</ele>
        <time>2022-03-21T07:43:19Z</time>
      </trkpt>
      <trkpt lat="46.7117" lon="5.53638">
        <ele>289.4</ele>
        <time>2022-03-21T07:43:20Z</time>
      </trkpt>
      <trkpt lat="46.71174" lon="5.53641">
        <ele>289.4</ele>
        <time>2022-03-21T07:43:21Z</time>
      </trkpt>
      <trkpt lat="46.71177" lon="5.53644">
        <ele>289.4</ele>
        <time>2022-03-21T07:43:22Z</time>
      </trkpt>
      <trkpt lat="46.71181" lon="5.53648">
        <ele>289.4</ele>
        <time>2022-03-21T07:43:23Z</time>
      </trkpt>
      <trkpt lat="46.71185" lon="5.53652">
        <ele>289.4</ele>
        <time>2022-03-21T07:43:24Z</time>
      </trkpt>
      <trkpt lat="46.71188" lon="5.53657">
        <ele>289.4</ele>
        <time>2022-03-21T07:43:25Z</time>
      </trkpt>
      <trkpt lat="46.71193" lon="5.53663">
        <ele>289</ele>
        <time>2022-03-21T07:43:26Z</time>
      </trkpt>
      <trkpt lat="46.71197" lon="5.53669">
        <ele>288.8</ele>
        <time>2022-03-21T07:43:27Z</time>
      </trkpt>
      <trkpt lat="46.71202" lon="5.53675">
        <ele>288.4</ele>
        <time>2022-03-21T07:43:28Z</time>
      </trkpt>
      <trkpt lat="46.71206" lon="5.53683">
        <ele>288</ele>
        <time>2022-03-21T07:43:29Z</time>
      </trkpt>
      <trkpt lat="46.7121" lon="5.5369">
        <ele>287.8</ele>
        <time>2022-03-21T07:43:30Z</time>
      </trkpt>
      <trkpt lat="46.71215" lon="5.53698">
        <ele>287.2</ele>
        <time>2022-03-21T07:43:31Z</time>
      </trkpt>
      <trkpt lat="46.71218" lon="5.53705">
        <ele>286.8</ele>
        <time>2022-03-21T07:43:32Z</time>
      </trkpt>
      <trkpt lat="46.71221" lon="5.53712">
        <ele>286.4</ele>
        <time>2022-03-21T07:43:33Z</time>
      </trkpt>
      <trkpt lat="46.71224" lon="5.53718">
        <ele>286</ele>
        <time>2022-03-21T07:43:34Z</time>
      </trkpt>
      <trkpt lat="46.71226" lon="5.53722">
        <ele>285.6</ele>
        <time>2022-03-21T07:43:35Z</time>
      </trkpt>
      <trkpt lat="46.71228" lon="5.53726">
        <ele>285.4</ele>
        <time>2022-03-21T07:43:36Z</time>
      </trkpt>
      <trkpt lat="46.7123" lon="5.53729">
        <ele>285</ele>
        <time>2022-03-21T07:43:37Z</time>
      </trkpt>
      <trkpt lat="46.71233" lon="5.53731">
        <ele>284.8</ele>
        <time>2022-03-21T07:43:38Z</time>
      </trkpt>
      <trkpt lat="46.71236" lon="5.53732">
        <ele>284.8</ele>
        <time>2022-03-21T07:43:39Z</time>
      </trkpt>
      <trkpt lat="46.71241" lon="5.53732">
        <ele>284.6</ele>
        <time>2022-03-21T07:43:40Z</time>
      </trkpt>
      <trkpt lat="46.71245" lon="5.5373">
        <ele>284.6</ele>
        <time>2022-03-21T07:43:41Z</time>
      </trkpt>
      <trkpt lat="46.71249" lon="5.53726">
        <ele>284.2</ele>
        <time>2022-03-21T07:43:42Z</time>
      </trkpt>
      <trkpt lat="46.71254" lon="5.53723">
        <ele>284.2</ele>
        <time>2022-03-21T07:43:43Z</time>
      </trkpt>
      <trkpt lat="46.71259" lon="5.53719">
        <ele>284</ele>
        <time>2022-03-21T07:43:44Z</time>
      </trkpt>
      <trkpt lat="46.71264" lon="5.53716">
        <ele>283.8</ele>
        <time>2022-03-21T07:43:45Z</time>
      </trkpt>
      <trkpt lat="46.7127" lon="5.53713">
        <ele>283.8</ele>
        <time>2022-03-21T07:43:46Z</time>
      </trkpt>
      <trkpt lat="46.71276" lon="5.5371">
        <ele>283.4</ele>
        <time>2022-03-21T07:43:47Z</time>
      </trkpt>
      <trkpt lat="46.71283" lon="5.53707">
        <ele>283.2</ele>
        <time>2022-03-21T07:43:48Z</time>
      </trkpt>
      <trkpt lat="46.71289" lon="5.53705">
        <ele>283</ele>
        <time>2022-03-21T07:43:49Z</time>
      </trkpt>
      <trkpt lat="46.71297" lon="5.53702">
        <ele>283</ele>
        <time>2022-03-21T07:43:50Z</time>
      </trkpt>
      <trkpt lat="46.71304" lon="5.537">
        <ele>282.6</ele>
        <time>2022-03-21T07:43:51Z</time>
      </trkpt>
      <trkpt lat="46.71312" lon="5.53698">
        <ele>282.6</ele>
        <time>2022-03-21T07:43:52Z</time>
      </trkpt>
      <trkpt lat="46.7132" lon="5.53697">
        <ele>282.2</ele>
        <time>2022-03-21T07:43:53Z</time>
      </trkpt>
      <trkpt lat="46.71328" lon="5.53696">
        <ele>282</ele>
        <time>2022-03-21T07:43:54Z</time>
      </trkpt>
      <trkpt lat="46.71336" lon="5.53695">
        <ele>281.6</ele>
        <time>2022-03-21T07:43:55Z</time>
      </trkpt>
      <trkpt lat="46.71344" lon="5.53693">
        <ele>281.4</ele>
        <time>2022-03-21T07:43:56Z</time>
      </trkpt>
      <trkpt lat="46.71352" lon="5.53692">
        <ele>281.2</ele>
        <time>2022-03-21T07:43:57Z</time>
      </trkpt>
      <trkpt lat="46.71361" lon="5.53691">
        <ele>280.8</ele>
        <time>2022-03-21T07:43:58Z</time>
      </trkpt>
      <trkpt lat="46.7137" lon="5.5369">
        <ele>280.6</ele>
        <time>2022-03-21T07:43:59Z</time>
      </trkpt>
      <trkpt lat="46.71378" lon="5.53689">
        <ele>280.4</ele>
        <time>2022-03-21T07:44:00Z</time>
      </trkpt>
      <trkpt lat="46.71387" lon="5.53688">
        <ele>280.2</ele>
        <time>2022-03-21T07:44:01Z</time>
      </trkpt>
      <trkpt lat="46.71396" lon="5.53687">
        <ele>280</ele>
        <time>2022-03-21T07:44:02Z</time>
      </trkpt>
      <trkpt lat="46.71405" lon="5.53685">
        <ele>279.6</ele>
        <time>2022-03-21T07:44:03Z</time>
      </trkpt>
      <trkpt lat="46.71414" lon="5.53681">
        <ele>279.4</ele>
        <time>2022-03-21T07:44:04Z</time>
      </trkpt>
      <trkpt lat="46.71422" lon="5.53676">
        <ele>279</ele>
        <time>2022-03-21T07:44:05Z</time>
      </trkpt>
      <trkpt lat="46.71431" lon="5.53669">
        <ele>278.6</ele>
        <time>2022-03-21T07:44:06Z</time>
      </trkpt>
      <trkpt lat="46.71439" lon="5.53661">
        <ele>278.2</ele>
        <time>2022-03-21T07:44:07Z</time>
      </trkpt>
      <trkpt lat="46.71447" lon="5.53653">
        <ele>277.8</ele>
        <time>2022-03-21T07:44:08Z</time>
      </trkpt>
      <trkpt lat="46.71455" lon="5.53643">
        <ele>277.4</ele>
        <time>2022-03-21T07:44:09Z</time>
      </trkpt>
      <trkpt lat="46.71462" lon="5.53634">
        <ele>277.2</ele>
        <time>2022-03-21T07:44:10Z</time>
      </trkpt>
      <trkpt lat="46.7147" lon="5.53624">
        <ele>277</ele>
        <time>2022-03-21T07:44:11Z</time>
      </trkpt>
      <trkpt lat="46.71477" lon="5.53615">
        <ele>276.6</ele>
        <time>2022-03-21T07:44:12Z</time>
      </trkpt>
      <trkpt lat="46.71485" lon="5.53607">
        <ele>276.4</ele>
        <time>2022-03-21T07:44:13Z</time>
      </trkpt>
      <trkpt lat="46.71493" lon="5.53598">
        <ele>276</ele>
        <time>2022-03-21T07:44:14Z</time>
      </trkpt>
      <trkpt lat="46.71502" lon="5.53589">
        <ele>275.6</ele>
        <time>2022-03-21T07:44:15Z</time>
      </trkpt>
      <trkpt lat="46.7151" lon="5.5358">
        <ele>275.4</ele>
        <time>2022-03-21T07:44:16Z</time>
      </trkpt>
      <trkpt lat="46.71518" lon="5.53571">
        <ele>275.2</ele>
        <time>2022-03-21T07:44:17Z</time>
      </trkpt>
      <trkpt lat="46.71526" lon="5.53561">
        <ele>274.8</ele>
        <time>2022-03-21T07:44:18Z</time>
      </trkpt>
      <trkpt lat="46.71534" lon="5.53553">
        <ele>274.6</ele>
        <time>2022-03-21T07:44:19Z</time>
      </trkpt>
      <trkpt lat="46.71542" lon="5.53546">
        <ele>274.4</ele>
        <time>2022-03-21T07:44:20Z</time>
      </trkpt>
      <trkpt lat="46.71549" lon="5.53539">
        <ele>274.4</ele>
        <time>2022-03-21T07:44:21Z</time>
      </trkpt>
      <trkpt lat="46.71558" lon="5.53533">
        <ele>274</ele>
        <time>2022-03-21T07:44:22Z</time>
      </trkpt>
      <trkpt lat="46.71567" lon="5.53528">
        <ele>274</ele>
        <time>2022-03-21T07:44:23Z</time>
      </trkpt>
      <trkpt lat="46.71576" lon="5.53521">
        <ele>273.6</ele>
        <time>2022-03-21T07:44:24Z</time>
      </trkpt>
      <trkpt lat="46.71584" lon="5.53516">
        <ele>273.6</ele>
        <time>2022-03-21T07:44:25Z</time>
      </trkpt>
      <trkpt lat="46.71593" lon="5.53511">
        <ele>273.2</ele>
        <time>2022-03-21T07:44:26Z</time>
      </trkpt>
      <trkpt lat="46.71602" lon="5.53506">
        <ele>273.2</ele>
        <time>2022-03-21T07:44:27Z</time>
      </trkpt>
      <trkpt lat="46.71611" lon="5.53501">
        <ele>272.8</ele>
        <time>2022-03-21T07:44:28Z</time>
      </trkpt>
      <trkpt lat="46.71619" lon="5.53495">
        <ele>272.4</ele>
        <time>2022-03-21T07:44:29Z</time>
      </trkpt>
      <trkpt lat="46.71628" lon="5.5349">
        <ele>272.4</ele>
        <time>2022-03-21T07:44:30Z</time>
      </trkpt>
      <trkpt lat="46.71637" lon="5.53485">
        <ele>272.4</ele>
        <time>2022-03-21T07:44:31Z</time>
      </trkpt>
      <trkpt lat="46.71646" lon="5.53479">
        <ele>272.2</ele>
        <time>2022-03-21T07:44:32Z</time>
      </trkpt>
      <trkpt lat="46.71654" lon="5.53473">
        <ele>271.8</ele>
        <time>2022-03-21T07:44:33Z</time>
      </trkpt>
      <trkpt lat="46.71661" lon="5.53466">
        <ele>271.6</ele>
        <time>2022-03-21T07:44:34Z</time>
      </trkpt>
      <trkpt lat="46.71669" lon="5.53457">
        <ele>271.4</ele>
        <time>2022-03-21T07:44:35Z</time>
      </trkpt>
      <trkpt lat="46.71675" lon="5.53448">
        <ele>271</ele>
        <time>2022-03-21T07:44:36Z</time>
      </trkpt>
      <trkpt lat="46.71681" lon="5.53438">
        <ele>270.8</ele>
        <time>2022-03-21T07:44:37Z</time>
      </trkpt>
      <trkpt lat="46.71685" lon="5.53428">
        <ele>270.8</ele>
        <time>2022-03-21T07:44:38Z</time>
      </trkpt>
      <trkpt lat="46.71688" lon="5.53416">
        <ele>270.2</ele>
        <time>2022-03-21T07:44:39Z</time>
      </trkpt>
      <trkpt lat="46.71691" lon="5.53403">
        <ele>270</ele>
        <time>2022-03-21T07:44:40Z</time>
      </trkpt>
      <trkpt lat="46.71694" lon="5.5339">
        <ele>269.8</ele>
        <time>2022-03-21T07:44:41Z</time>
      </trkpt>
      <trkpt lat="46.71697" lon="5.53376">
        <ele>269.4</ele>
        <time>2022-03-21T07:44:42Z</time>
      </trkpt>
      <trkpt lat="46.717" lon="5.53363">
        <ele>269.2</ele>
        <time>2022-03-21T07:44:43Z</time>
      </trkpt>
      <trkpt lat="46.71703" lon="5.53349">
        <ele>269</ele>
        <time>2022-03-21T07:44:44Z</time>
      </trkpt>
      <trkpt lat="46.71706" lon="5.53335">
        <ele>268.8</ele>
        <time>2022-03-21T07:44:45Z</time>
      </trkpt>
      <trkpt lat="46.7171" lon="5.53322">
        <ele>268.4</ele>
        <time>2022-03-21T07:44:46Z</time>
      </trkpt>
      <trkpt lat="46.71714" lon="5.5331">
        <ele>268.2</ele>
        <time>2022-03-21T07:44:47Z</time>
      </trkpt>
      <trkpt lat="46.71719" lon="5.53298">
        <ele>268</ele>
        <time>2022-03-21T07:44:48Z</time>
      </trkpt>
      <trkpt lat="46.71723" lon="5.53287">
        <ele>267.6</ele>
        <time>2022-03-21T07:44:49Z</time>
      </trkpt>
      <trkpt lat="46.71727" lon="5.53274">
        <ele>267.4</ele>
        <time>2022-03-21T07:44:50Z</time>
      </trkpt>
      <trkpt lat="46.71732" lon="5.53261">
        <ele>267</ele>
        <time>2022-03-21T07:44:51Z</time>
      </trkpt>
      <trkpt lat="46.71736" lon="5.53249">
        <ele>266.8</ele>
        <time>2022-03-21T07:44:52Z</time>
      </trkpt>
      <trkpt lat="46.7174" lon="5.53236">
        <ele>266.6</ele>
        <time>2022-03-21T07:44:53Z</time>
      </trkpt>
      <trkpt lat="46.71744" lon="5.53224">
        <ele>266.2</ele>
        <time>2022-03-21T07:44:54Z</time>
      </trkpt>
      <trkpt lat="46.71749" lon="5.53212">
        <ele>266.2</ele>
        <time>2022-03-21T07:44:55Z</time>
      </trkpt>
      <trkpt lat="46.71753" lon="5.53199">
        <ele>266</ele>
        <time>2022-03-21T07:44:56Z</time>
      </trkpt>
      <trkpt lat="46.71757" lon="5.53187">
        <ele>266</ele>
        <time>2022-03-21T07:44:57Z</time>
      </trkpt>
      <trkpt lat="46.71761" lon="5.53176">
        <ele>265.6</ele>
        <time>2022-03-21T07:44:58Z</time>
      </trkpt>
      <trkpt lat="46.71765" lon="5.53164">
        <ele>265.4</ele>
        <time>2022-03-21T07:44:59Z</time>
      </trkpt>
      <trkpt lat="46.71768" lon="5.53151">
        <ele>265.4</ele>
        <time>2022-03-21T07:45:00Z</time>
      </trkpt>
      <trkpt lat="46.71771" lon="5.53139">
        <ele>265</ele>
        <time>2022-03-21T07:45:01Z</time>
      </trkpt>
      <trkpt lat="46.71774" lon="5.53128">
        <ele>265</ele>
        <time>2022-03-21T07:45:02Z</time>
      </trkpt>
      <trkpt lat="46.71776" lon="5.53116">
        <ele>265</ele>
        <time>2022-03-21T07:45:03Z</time>
      </trkpt>
      <trkpt lat="46.71779" lon="5.53104">
        <ele>265</ele>
        <time>2022-03-21T07:45:04Z</time>
      </trkpt>
      <trkpt lat="46.71781" lon="5.53091">
        <ele>265</ele>
        <time>2022-03-21T07:45:05Z</time>
      </trkpt>
      <trkpt lat="46.71783" lon="5.53079">
        <ele>264.8</ele>
        <time>2022-03-21T07:45:06Z</time>
      </trkpt>
      <trkpt lat="46.71785" lon="5.53067">
        <ele>264.8</ele>
        <time>2022-03-21T07:45:07Z</time>
      </trkpt>
      <trkpt lat="46.71787" lon="5.53055">
        <ele>264.6</ele>
        <time>2022-03-21T07:45:08Z</time>
      </trkpt>
      <trkpt lat="46.7179" lon="5.53044">
        <ele>264.6</ele>
        <time>2022-03-21T07:45:09Z</time>
      </trkpt>
      <trkpt lat="46.71792" lon="5.53032">
        <ele>264.6</ele>
        <time>2022-03-21T07:45:10Z</time>
      </trkpt>
      <trkpt lat="46.71794" lon="5.5302">
        <ele>264.6</ele>
        <time>2022-03-21T07:45:11Z</time>
      </trkpt>
      <trkpt lat="46.71796" lon="5.53008">
        <ele>264.2</ele>
        <time>2022-03-21T07:45:12Z</time>
      </trkpt>
      <trkpt lat="46.71799" lon="5.52997">
        <ele>264.2</ele>
        <time>2022-03-21T07:45:13Z</time>
      </trkpt>
      <trkpt lat="46.71801" lon="5.52984">
        <ele>264</ele>
        <time>2022-03-21T07:45:14Z</time>
      </trkpt>
      <trkpt lat="46.71803" lon="5.52972">
        <ele>263.6</ele>
        <time>2022-03-21T07:45:15Z</time>
      </trkpt>
      <trkpt lat="46.71806" lon="5.5296">
        <ele>263.4</ele>
        <time>2022-03-21T07:45:16Z</time>
      </trkpt>
      <trkpt lat="46.71808" lon="5.52947">
        <ele>263.2</ele>
        <time>2022-03-21T07:45:17Z</time>
      </trkpt>
      <trkpt lat="46.71811" lon="5.52935">
        <ele>262.8</ele>
        <time>2022-03-21T07:45:18Z</time>
      </trkpt>
      <trkpt lat="46.71814" lon="5.52922">
        <ele>262.6</ele>
        <time>2022-03-21T07:45:19Z</time>
      </trkpt>
      <trkpt lat="46.71816" lon="5.5291">
        <ele>262.4</ele>
        <time>2022-03-21T07:45:20Z</time>
      </trkpt>
      <trkpt lat="46.7182" lon="5.52897">
        <ele>262.4</ele>
        <time>2022-03-21T07:45:21Z</time>
      </trkpt>
      <trkpt lat="46.71822" lon="5.52884">
        <ele>261.8</ele>
        <time>2022-03-21T07:45:22Z</time>
      </trkpt>
      <trkpt lat="46.71825" lon="5.52871">
        <ele>261.6</ele>
        <time>2022-03-21T07:45:23Z</time>
      </trkpt>
      <trkpt lat="46.71827" lon="5.52858">
        <ele>261.4</ele>
        <time>2022-03-21T07:45:24Z</time>
      </trkpt>
      <trkpt lat="46.7183" lon="5.52844">
        <ele>261.2</ele>
        <time>2022-03-21T07:45:25Z</time>
      </trkpt>
      <trkpt lat="46.71832" lon="5.52831">
        <ele>260.8</ele>
        <time>2022-03-21T07:45:26Z</time>
      </trkpt>
      <trkpt lat="46.71835" lon="5.52817">
        <ele>260.6</ele>
        <time>2022-03-21T07:45:27Z</time>
      </trkpt>
      <trkpt lat="46.71837" lon="5.52803">
        <ele>260.4</ele>
        <time>2022-03-21T07:45:28Z</time>
      </trkpt>
      <trkpt lat="46.7184" lon="5.52789">
        <ele>260</ele>
        <time>2022-03-21T07:45:29Z</time>
      </trkpt>
      <trkpt lat="46.71843" lon="5.52776">
        <ele>259.8</ele>
        <time>2022-03-21T07:45:30Z</time>
      </trkpt>
      <trkpt lat="46.71845" lon="5.52762">
        <ele>259.6</ele>
        <time>2022-03-21T07:45:31Z</time>
      </trkpt>
      <trkpt lat="46.71848" lon="5.52749">
        <ele>259.4</ele>
        <time>2022-03-21T07:45:32Z</time>
      </trkpt>
      <trkpt lat="46.71852" lon="5.52735">
        <ele>259.4</ele>
        <time>2022-03-21T07:45:33Z</time>
      </trkpt>
      <trkpt lat="46.71856" lon="5.52722">
        <ele>259</ele>
        <time>2022-03-21T07:45:34Z</time>
      </trkpt>
      <trkpt lat="46.71859" lon="5.52708">
        <ele>259</ele>
        <time>2022-03-21T07:45:35Z</time>
      </trkpt>
      <trkpt lat="46.71863" lon="5.52694">
        <ele>258.6</ele>
        <time>2022-03-21T07:45:36Z</time>
      </trkpt>
      <trkpt lat="46.71867" lon="5.5268">
        <ele>258.6</ele>
        <time>2022-03-21T07:45:37Z</time>
      </trkpt>
      <trkpt lat="46.71871" lon="5.52667">
        <ele>258.4</ele>
        <time>2022-03-21T07:45:38Z</time>
      </trkpt>
      <trkpt lat="46.71876" lon="5.52654">
        <ele>258.2</ele>
        <time>2022-03-21T07:45:39Z</time>
      </trkpt>
      <trkpt lat="46.7188" lon="5.52642">
        <ele>258.2</ele>
        <time>2022-03-21T07:45:40Z</time>
      </trkpt>
      <trkpt lat="46.71885" lon="5.5263">
        <ele>258</ele>
        <time>2022-03-21T07:45:41Z</time>
      </trkpt>
      <trkpt lat="46.7189" lon="5.52618">
        <ele>258</ele>
        <time>2022-03-21T07:45:42Z</time>
      </trkpt>
      <trkpt lat="46.71896" lon="5.52607">
        <ele>257.6</ele>
        <time>2022-03-21T07:45:43Z</time>
      </trkpt>
      <trkpt lat="46.71902" lon="5.52596">
        <ele>257.6</ele>
        <time>2022-03-21T07:45:44Z</time>
      </trkpt>
      <trkpt lat="46.71907" lon="5.52585">
        <ele>257.4</ele>
        <time>2022-03-21T07:45:45Z</time>
      </trkpt>
      <trkpt lat="46.71913" lon="5.52575">
        <ele>257.4</ele>
        <time>2022-03-21T07:45:46Z</time>
      </trkpt>
      <trkpt lat="46.71919" lon="5.52565">
        <ele>257.4</ele>
        <time>2022-03-21T07:45:47Z</time>
      </trkpt>
      <trkpt lat="46.71925" lon="5.52555">
        <ele>257.2</ele>
        <time>2022-03-21T07:45:48Z</time>
      </trkpt>
      <trkpt lat="46.71932" lon="5.52546">
        <ele>257.2</ele>
        <time>2022-03-21T07:45:49Z</time>
      </trkpt>
      <trkpt lat="46.71938" lon="5.52537">
        <ele>257.2</ele>
        <time>2022-03-21T07:45:50Z</time>
      </trkpt>
      <trkpt lat="46.71944" lon="5.52528">
        <ele>257.2</ele>
        <time>2022-03-21T07:45:51Z</time>
      </trkpt>
      <trkpt lat="46.7195" lon="5.52519">
        <ele>257.2</ele>
        <time>2022-03-21T07:45:52Z</time>
      </trkpt>
      <trkpt lat="46.71955" lon="5.52509">
        <ele>257.4</ele>
        <time>2022-03-21T07:45:53Z</time>
      </trkpt>
      <trkpt lat="46.71959" lon="5.52499">
        <ele>257.4</ele>
        <time>2022-03-21T07:45:54Z</time>
      </trkpt>
      <trkpt lat="46.71963" lon="5.52488">
        <ele>257.8</ele>
        <time>2022-03-21T07:45:55Z</time>
      </trkpt>
      <trkpt lat="46.71966" lon="5.52478">
        <ele>258</ele>
        <time>2022-03-21T07:45:56Z</time>
      </trkpt>
      <trkpt lat="46.71968" lon="5.52466">
        <ele>258</ele>
        <time>2022-03-21T07:45:57Z</time>
      </trkpt>
      <trkpt lat="46.71968" lon="5.52455">
        <ele>258.4</ele>
        <time>2022-03-21T07:45:58Z</time>
      </trkpt>
      <trkpt lat="46.71968" lon="5.52443">
        <ele>258.4</ele>
        <time>2022-03-21T07:45:59Z</time>
      </trkpt>
      <trkpt lat="46.71967" lon="5.52431">
        <ele>258.4</ele>
        <time>2022-03-21T07:46:00Z</time>
      </trkpt>
      <trkpt lat="46.71965" lon="5.52419">
        <ele>258.4</ele>
        <time>2022-03-21T07:46:01Z</time>
      </trkpt>
      <trkpt lat="46.71961" lon="5.52408">
        <ele>258.6</ele>
        <time>2022-03-21T07:46:02Z</time>
      </trkpt>
      <trkpt lat="46.71958" lon="5.52398">
        <ele>258.6</ele>
        <time>2022-03-21T07:46:03Z</time>
      </trkpt>
      <trkpt lat="46.71954" lon="5.52388">
        <ele>258.8</ele>
        <time>2022-03-21T07:46:04Z</time>
      </trkpt>
      <trkpt lat="46.7195" lon="5.52379">
        <ele>259</ele>
        <time>2022-03-21T07:46:05Z</time>
      </trkpt>
      <trkpt lat="46.71945" lon="5.5237">
        <ele>259</ele>
        <time>2022-03-21T07:46:06Z</time>
      </trkpt>
      <trkpt lat="46.71941" lon="5.52361">
        <ele>259.4</ele>
        <time>2022-03-21T07:46:07Z</time>
      </trkpt>
      <trkpt lat="46.71937" lon="5.52353">
        <ele>259.4</ele>
        <time>2022-03-21T07:46:08Z</time>
      </trkpt>
      <trkpt lat="46.71934" lon="5.52345">
        <ele>259.8</ele>
        <time>2022-03-21T07:46:09Z</time>
      </trkpt>
      <trkpt lat="46.7193" lon="5.52337">
        <ele>260.2</ele>
        <time>2022-03-21T07:46:10Z</time>
      </trkpt>
      <trkpt lat="46.71927" lon="5.52329">
        <ele>260.6</ele>
        <time>2022-03-21T07:46:11Z</time>
      </trkpt>
      <trkpt lat="46.71925" lon="5.52322">
        <ele>260.6</ele>
        <time>2022-03-21T07:46:12Z</time>
      </trkpt>
      <trkpt lat="46.71922" lon="5.52314">
        <ele>260.6</ele>
        <time>2022-03-21T07:46:13Z</time>
      </trkpt>
      <trkpt lat="46.71919" lon="5.52307">
        <ele>260.8</ele>
        <time>2022-03-21T07:46:14Z</time>
      </trkpt>
      <trkpt lat="46.71916" lon="5.52299">
        <ele>260.8</ele>
        <time>2022-03-21T07:46:15Z</time>
      </trkpt>
      <trkpt lat="46.71912" lon="5.52292">
        <ele>261.2</ele>
        <time>2022-03-21T07:46:16Z</time>
      </trkpt>
      <trkpt lat="46.71909" lon="5.52285">
        <ele>261.4</ele>
        <time>2022-03-21T07:46:17Z</time>
      </trkpt>
      <trkpt lat="46.71907" lon="5.52277">
        <ele>261.6</ele>
        <time>2022-03-21T07:46:18Z</time>
      </trkpt>
      <trkpt lat="46.71904" lon="5.5227">
        <ele>262</ele>
        <time>2022-03-21T07:46:19Z</time>
      </trkpt>
      <trkpt lat="46.71902" lon="5.52262">
        <ele>262</ele>
        <time>2022-03-21T07:46:20Z</time>
      </trkpt>
      <trkpt lat="46.71899" lon="5.52255">
        <ele>262.2</ele>
        <time>2022-03-21T07:46:21Z</time>
      </trkpt>
      <trkpt lat="46.71896" lon="5.52247">
        <ele>262.6</ele>
        <time>2022-03-21T07:46:22Z</time>
      </trkpt>
      <trkpt lat="46.71893" lon="5.5224">
        <ele>262.8</ele>
        <time>2022-03-21T07:46:23Z</time>
      </trkpt>
      <trkpt lat="46.71891" lon="5.52233">
        <ele>263</ele>
        <time>2022-03-21T07:46:24Z</time>
      </trkpt>
      <trkpt lat="46.71888" lon="5.52226">
        <ele>263.2</ele>
        <time>2022-03-21T07:46:25Z</time>
      </trkpt>
      <trkpt lat="46.71885" lon="5.52219">
        <ele>263.6</ele>
        <time>2022-03-21T07:46:26Z</time>
      </trkpt>
      <trkpt lat="46.71883" lon="5.52212">
        <ele>263.8</ele>
        <time>2022-03-21T07:46:27Z</time>
      </trkpt>
      <trkpt lat="46.7188" lon="5.52205">
        <ele>264.2</ele>
        <time>2022-03-21T07:46:28Z</time>
      </trkpt>
      <trkpt lat="46.71877" lon="5.52199">
        <ele>264.4</ele>
        <time>2022-03-21T07:46:29Z</time>
      </trkpt>
      <trkpt lat="46.71874" lon="5.52192">
        <ele>264.6</ele>
        <time>2022-03-21T07:46:30Z</time>
      </trkpt>
      <trkpt lat="46.71871" lon="5.52186">
        <ele>265</ele>
        <time>2022-03-21T07:46:31Z</time>
      </trkpt>
      <trkpt lat="46.71868" lon="5.52181">
        <ele>265.4</ele>
        <time>2022-03-21T07:46:32Z</time>
      </trkpt>
      <trkpt lat="46.71864" lon="5.52175">
        <ele>265.6</ele>
        <time>2022-03-21T07:46:33Z</time>
      </trkpt>
      <trkpt lat="46.71861" lon="5.52168">
        <ele>265.8</ele>
        <time>2022-03-21T07:46:34Z</time>
      </trkpt>
      <trkpt lat="46.71858" lon="5.52162">
        <ele>266</ele>
        <time>2022-03-21T07:46:35Z</time>
      </trkpt>
      <trkpt lat="46.71854" lon="5.52156">
        <ele>266.4</ele>
        <time>2022-03-21T07:46:36Z</time>
      </trkpt>
      <trkpt lat="46.71851" lon="5.52149">
        <ele>266.6</ele>
        <time>2022-03-21T07:46:37Z</time>
      </trkpt>
      <trkpt lat="46.71847" lon="5.52143">
        <ele>266.6</ele>
        <time>2022-03-21T07:46:38Z</time>
      </trkpt>
      <trkpt lat="46.71844" lon="5.52138">
        <ele>267</ele>
        <time>2022-03-21T07:46:39Z</time>
      </trkpt>
      <trkpt lat="46.7184" lon="5.52132">
        <ele>267.4</ele>
        <time>2022-03-21T07:46:40Z</time>
      </trkpt>
      <trkpt lat="46.71836" lon="5.52127">
        <ele>267.6</ele>
        <time>2022-03-21T07:46:41Z</time>
      </trkpt>
      <trkpt lat="46.71832" lon="5.52121">
        <ele>267.8</ele>
        <time>2022-03-21T07:46:42Z</time>
      </trkpt>
      <trkpt lat="46.71828" lon="5.52116">
        <ele>268.2</ele>
        <time>2022-03-21T07:46:43Z</time>
      </trkpt>
      <trkpt lat="46.71824" lon="5.52111">
        <ele>268.2</ele>
        <time>2022-03-21T07:46:44Z</time>
      </trkpt>
      <trkpt lat="46.7182" lon="5.52106">
        <ele>268.6</ele>
        <time>2022-03-21T07:46:45Z</time>
      </trkpt>
      <trkpt lat="46.71816" lon="5.52101">
        <ele>268.8</ele>
        <time>2022-03-21T07:46:46Z</time>
      </trkpt>
      <trkpt lat="46.71812" lon="5.52095">
        <ele>269</ele>
        <time>2022-03-21T07:46:47Z</time>
      </trkpt>
      <trkpt lat="46.71809" lon="5.5209">
        <ele>269</ele>
        <time>2022-03-21T07:46:48Z</time>
      </trkpt>
      <trkpt lat="46.71805" lon="5.52085">
        <ele>269.2</ele>
        <time>2022-03-21T07:46:49Z</time>
      </trkpt>
      <trkpt lat="46.71801" lon="5.52079">
        <ele>269.6</ele>
        <time>2022-03-21T07:46:50Z</time>
      </trkpt>
      <trkpt lat="46.71797" lon="5.52073">
        <ele>269.6</ele>
        <time>2022-03-21T07:46:51Z</time>
      </trkpt>
      <trkpt lat="46.71794" lon="5.52068">
        <ele>270</ele>
        <time>2022-03-21T07:46:52Z</time>
      </trkpt>
      <trkpt lat="46.7179" lon="5.52063">
        <ele>270.2</ele>
        <time>2022-03-21T07:46:53Z</time>
      </trkpt>
      <trkpt lat="46.71786" lon="5.52058">
        <ele>270.4</ele>
        <time>2022-03-21T07:46:54Z</time>
      </trkpt>
      <trkpt lat="46.71782" lon="5.52052">
        <ele>270.6</ele>
        <time>2022-03-21T07:46:55Z</time>
      </trkpt>
      <trkpt lat="46.71778" lon="5.52047">
        <ele>271</ele>
        <time>2022-03-21T07:46:56Z</time>
      </trkpt>
      <trkpt lat="46.71774" lon="5.52041">
        <ele>271</ele>
        <time>2022-03-21T07:46:57Z</time>
      </trkpt>
      <trkpt lat="46.71771" lon="5.52034">
        <ele>271.2</ele>
        <time>2022-03-21T07:46:58Z</time>
      </trkpt>
      <trkpt lat="46.71767" lon="5.52029">
        <ele>271.2</ele>
        <time>2022-03-21T07:46:59Z</time>
      </trkpt>
      <trkpt lat="46.71763" lon="5.52023">
        <ele>271.6</ele>
        <time>2022-03-21T07:47:00Z</time>
      </trkpt>
      <trkpt lat="46.71759" lon="5.52017">
        <ele>272</ele>
        <time>2022-03-21T07:47:01Z</time>
      </trkpt>
      <trkpt lat="46.71755" lon="5.52012">
        <ele>272</ele>
        <time>2022-03-21T07:47:02Z</time>
      </trkpt>
      <trkpt lat="46.71751" lon="5.52007">
        <ele>272.2</ele>
        <time>2022-03-21T07:47:03Z</time>
      </trkpt>
      <trkpt lat="46.71748" lon="5.52002">
        <ele>272.6</ele>
        <time>2022-03-21T07:47:04Z</time>
      </trkpt>
      <trkpt lat="46.71744" lon="5.51997">
        <ele>272.6</ele>
        <time>2022-03-21T07:47:05Z</time>
      </trkpt>
      <trkpt lat="46.7174" lon="5.51991">
        <ele>272.8</ele>
        <time>2022-03-21T07:47:06Z</time>
      </trkpt>
      <trkpt lat="46.71737" lon="5.51986">
        <ele>272.8</ele>
        <time>2022-03-21T07:47:07Z</time>
      </trkpt>
      <trkpt lat="46.71733" lon="5.5198">
        <ele>273</ele>
        <time>2022-03-21T07:47:08Z</time>
      </trkpt>
      <trkpt lat="46.71729" lon="5.51974">
        <ele>273</ele>
        <time>2022-03-21T07:47:09Z</time>
      </trkpt>
      <trkpt lat="46.71726" lon="5.51967">
        <ele>273.4</ele>
        <time>2022-03-21T07:47:10Z</time>
      </trkpt>
      <trkpt lat="46.71722" lon="5.5196">
        <ele>273.4</ele>
        <time>2022-03-21T07:47:11Z</time>
      </trkpt>
      <trkpt lat="46.71719" lon="5.51953">
        <ele>273.8</ele>
        <time>2022-03-21T07:47:12Z</time>
      </trkpt>
      <trkpt lat="46.71717" lon="5.51946">
        <ele>274</ele>
        <time>2022-03-21T07:47:13Z</time>
      </trkpt>
      <trkpt lat="46.71715" lon="5.51938">
        <ele>274.4</ele>
        <time>2022-03-21T07:47:14Z</time>
      </trkpt>
      <trkpt lat="46.71714" lon="5.5193">
        <ele>274.6</ele>
        <time>2022-03-21T07:47:15Z</time>
      </trkpt>
      <trkpt lat="46.71713" lon="5.51922">
        <ele>274.6</ele>
        <time>2022-03-21T07:47:16Z</time>
      </trkpt>
      <trkpt lat="46.71714" lon="5.51915">
        <ele>274.8</ele>
        <time>2022-03-21T07:47:17Z</time>
      </trkpt>
      <trkpt lat="46.71715" lon="5.51907">
        <ele>274.8</ele>
        <time>2022-03-21T07:47:18Z</time>
      </trkpt>
      <trkpt lat="46.71717" lon="5.51899">
        <ele>275.2</ele>
        <time>2022-03-21T07:47:19Z</time>
      </trkpt>
      <trkpt lat="46.71719" lon="5.51891">
        <ele>275.4</ele>
        <time>2022-03-21T07:47:20Z</time>
      </trkpt>
      <trkpt lat="46.71723" lon="5.51883">
        <ele>275.4</ele>
        <time>2022-03-21T07:47:21Z</time>
      </trkpt>
      <trkpt lat="46.71726" lon="5.51876">
        <ele>275.6</ele>
        <time>2022-03-21T07:47:22Z</time>
      </trkpt>
      <trkpt lat="46.7173" lon="5.51869">
        <ele>275.6</ele>
        <time>2022-03-21T07:47:23Z</time>
      </trkpt>
      <trkpt lat="46.71735" lon="5.51862">
        <ele>276</ele>
        <time>2022-03-21T07:47:24Z</time>
      </trkpt>
      <trkpt lat="46.71739" lon="5.51855">
        <ele>276</ele>
        <time>2022-03-21T07:47:25Z</time>
      </trkpt>
      <trkpt lat="46.71743" lon="5.51848">
        <ele>276.2</ele>
        <time>2022-03-21T07:47:26Z</time>
      </trkpt>
      <trkpt lat="46.71748" lon="5.51841">
        <ele>276.2</ele>
        <time>2022-03-21T07:47:27Z</time>
      </trkpt>
      <trkpt lat="46.71753" lon="5.51835">
        <ele>276.2</ele>
        <time>2022-03-21T07:47:28Z</time>
      </trkpt>
      <trkpt lat="46.71757" lon="5.51828">
        <ele>276.4</ele>
        <time>2022-03-21T07:47:29Z</time>
      </trkpt>
      <trkpt lat="46.71762" lon="5.51821">
        <ele>276.4</ele>
        <time>2022-03-21T07:47:30Z</time>
      </trkpt>
      <trkpt lat="46.71766" lon="5.51814">
        <ele>276.4</ele>
        <time>2022-03-21T07:47:31Z</time>
      </trkpt>
      <trkpt lat="46.71771" lon="5.51808">
        <ele>276.6</ele>
        <time>2022-03-21T07:47:32Z</time>
      </trkpt>
      <trkpt lat="46.71776" lon="5.51802">
        <ele>276.6</ele>
        <time>2022-03-21T07:47:33Z</time>
      </trkpt>
      <trkpt lat="46.71782" lon="5.51796">
        <ele>276.6</ele>
        <time>2022-03-21T07:47:34Z</time>
      </trkpt>
      <trkpt lat="46.71787" lon="5.5179">
        <ele>276.6</ele>
        <time>2022-03-21T07:47:35Z</time>
      </trkpt>
      <trkpt lat="46.71793" lon="5.51784">
        <ele>276.6</ele>
        <time>2022-03-21T07:47:36Z</time>
      </trkpt>
      <trkpt lat="46.71806" lon="5.51772">
        <ele>276.4</ele>
        <time>2022-03-21T07:47:37Z</time>
      </trkpt>
      <trkpt lat="46.71813" lon="5.51767">
        <ele>276.2</ele>
        <time>2022-03-21T07:47:38Z</time>
      </trkpt>
      <trkpt lat="46.71821" lon="5.51761">
        <ele>276</ele>
        <time>2022-03-21T07:47:39Z</time>
      </trkpt>
      <trkpt lat="46.71828" lon="5.51755">
        <ele>276</ele>
        <time>2022-03-21T07:47:40Z</time>
      </trkpt>
      <trkpt lat="46.71836" lon="5.51749">
        <ele>275.6</ele>
        <time>2022-03-21T07:47:41Z</time>
      </trkpt>
      <trkpt lat="46.71844" lon="5.51743">
        <ele>275.2</ele>
        <time>2022-03-21T07:47:42Z</time>
      </trkpt>
      <trkpt lat="46.71852" lon="5.51736">
        <ele>274.6</ele>
        <time>2022-03-21T07:47:43Z</time>
      </trkpt>
      <trkpt lat="46.7186" lon="5.5173">
        <ele>274.2</ele>
        <time>2022-03-21T07:47:44Z</time>
      </trkpt>
      <trkpt lat="46.71868" lon="5.51724">
        <ele>273.6</ele>
        <time>2022-03-21T07:47:45Z</time>
      </trkpt>
      <trkpt lat="46.71877" lon="5.51717">
        <ele>273</ele>
        <time>2022-03-21T07:47:46Z</time>
      </trkpt>
      <trkpt lat="46.71885" lon="5.5171">
        <ele>272.6</ele>
        <time>2022-03-21T07:47:47Z</time>
      </trkpt>
      <trkpt lat="46.71894" lon="5.51703">
        <ele>272.2</ele>
        <time>2022-03-21T07:47:48Z</time>
      </trkpt>
      <trkpt lat="46.71902" lon="5.51696">
        <ele>271.8</ele>
        <time>2022-03-21T07:47:49Z</time>
      </trkpt>
      <trkpt lat="46.71911" lon="5.51689">
        <ele>271.4</ele>
        <time>2022-03-21T07:47:50Z</time>
      </trkpt>
      <trkpt lat="46.7192" lon="5.51682">
        <ele>271</ele>
        <time>2022-03-21T07:47:51Z</time>
      </trkpt>
      <trkpt lat="46.71929" lon="5.51675">
        <ele>270.6</ele>
        <time>2022-03-21T07:47:52Z</time>
      </trkpt>
      <trkpt lat="46.71938" lon="5.51667">
        <ele>270.2</ele>
        <time>2022-03-21T07:47:53Z</time>
      </trkpt>
      <trkpt lat="46.71947" lon="5.5166">
        <ele>269.8</ele>
        <time>2022-03-21T07:47:54Z</time>
      </trkpt>
      <trkpt lat="46.71956" lon="5.51653">
        <ele>269.4</ele>
        <time>2022-03-21T07:47:55Z</time>
      </trkpt>
      <trkpt lat="46.71965" lon="5.51645">
        <ele>269</ele>
        <time>2022-03-21T07:47:56Z</time>
      </trkpt>
      <trkpt lat="46.71974" lon="5.51638">
        <ele>268.8</ele>
        <time>2022-03-21T07:47:57Z</time>
      </trkpt>
      <trkpt lat="46.71983" lon="5.5163">
        <ele>268.4</ele>
        <time>2022-03-21T07:47:58Z</time>
      </trkpt>
      <trkpt lat="46.71992" lon="5.51623">
        <ele>268</ele>
        <time>2022-03-21T07:47:59Z</time>
      </trkpt>
      <trkpt lat="46.72001" lon="5.51614">
        <ele>267.6</ele>
        <time>2022-03-21T07:48:00Z</time>
      </trkpt>
      <trkpt lat="46.7201" lon="5.51606">
        <ele>267.2</ele>
        <time>2022-03-21T07:48:01Z</time>
      </trkpt>
      <trkpt lat="46.7202" lon="5.51598">
        <ele>266.8</ele>
        <time>2022-03-21T07:48:02Z</time>
      </trkpt>
      <trkpt lat="46.72029" lon="5.51589">
        <ele>266.6</ele>
        <time>2022-03-21T07:48:03Z</time>
      </trkpt>
      <trkpt lat="46.72038" lon="5.51581">
        <ele>266.2</ele>
        <time>2022-03-21T07:48:04Z</time>
      </trkpt>
      <trkpt lat="46.72048" lon="5.51572">
        <ele>265.8</ele>
        <time>2022-03-21T07:48:05Z</time>
      </trkpt>
      <trkpt lat="46.72057" lon="5.51564">
        <ele>265.4</ele>
        <time>2022-03-21T07:48:06Z</time>
      </trkpt>
      <trkpt lat="46.72067" lon="5.51557">
        <ele>265</ele>
        <time>2022-03-21T07:48:07Z</time>
      </trkpt>
      <trkpt lat="46.72077" lon="5.5155">
        <ele>264.6</ele>
        <time>2022-03-21T07:48:08Z</time>
      </trkpt>
      <trkpt lat="46.72087" lon="5.51543">
        <ele>264.4</ele>
        <time>2022-03-21T07:48:09Z</time>
      </trkpt>
      <trkpt lat="46.72097" lon="5.51537">
        <ele>264</ele>
        <time>2022-03-21T07:48:10Z</time>
      </trkpt>
      <trkpt lat="46.72108" lon="5.51531">
        <ele>263.6</ele>
        <time>2022-03-21T07:48:11Z</time>
      </trkpt>
      <trkpt lat="46.72118" lon="5.51524">
        <ele>263.2</ele>
        <time>2022-03-21T07:48:12Z</time>
      </trkpt>
      <trkpt lat="46.72129" lon="5.51518">
        <ele>262.6</ele>
        <time>2022-03-21T07:48:13Z</time>
      </trkpt>
      <trkpt lat="46.7214" lon="5.51511">
        <ele>262.2</ele>
        <time>2022-03-21T07:48:14Z</time>
      </trkpt>
      <trkpt lat="46.7215" lon="5.51505">
        <ele>261.6</ele>
        <time>2022-03-21T07:48:15Z</time>
      </trkpt>
      <trkpt lat="46.72161" lon="5.51498">
        <ele>260.8</ele>
        <time>2022-03-21T07:48:16Z</time>
      </trkpt>
      <trkpt lat="46.72172" lon="5.51491">
        <ele>260.4</ele>
        <time>2022-03-21T07:48:17Z</time>
      </trkpt>
      <trkpt lat="46.72182" lon="5.51484">
        <ele>260</ele>
        <time>2022-03-21T07:48:18Z</time>
      </trkpt>
      <trkpt lat="46.72193" lon="5.51477">
        <ele>259.4</ele>
        <time>2022-03-21T07:48:19Z</time>
      </trkpt>
      <trkpt lat="46.72203" lon="5.5147">
        <ele>258.8</ele>
        <time>2022-03-21T07:48:20Z</time>
      </trkpt>
      <trkpt lat="46.72213" lon="5.51463">
        <ele>258.4</ele>
        <time>2022-03-21T07:48:21Z</time>
      </trkpt>
      <trkpt lat="46.72223" lon="5.51454">
        <ele>258</ele>
        <time>2022-03-21T07:48:22Z</time>
      </trkpt>
      <trkpt lat="46.72233" lon="5.51445">
        <ele>257.8</ele>
        <time>2022-03-21T07:48:23Z</time>
      </trkpt>
      <trkpt lat="46.72242" lon="5.51435">
        <ele>257.4</ele>
        <time>2022-03-21T07:48:24Z</time>
      </trkpt>
      <trkpt lat="46.72251" lon="5.51425">
        <ele>257</ele>
        <time>2022-03-21T07:48:25Z</time>
      </trkpt>
      <trkpt lat="46.72259" lon="5.51415">
        <ele>256.8</ele>
        <time>2022-03-21T07:48:26Z</time>
      </trkpt>
      <trkpt lat="46.72268" lon="5.51405">
        <ele>256.8</ele>
        <time>2022-03-21T07:48:27Z</time>
      </trkpt>
      <trkpt lat="46.72276" lon="5.51395">
        <ele>256.4</ele>
        <time>2022-03-21T07:48:28Z</time>
      </trkpt>
      <trkpt lat="46.72284" lon="5.51385">
        <ele>256.4</ele>
        <time>2022-03-21T07:48:29Z</time>
      </trkpt>
      <trkpt lat="46.72292" lon="5.51375">
        <ele>256.2</ele>
        <time>2022-03-21T07:48:30Z</time>
      </trkpt>
      <trkpt lat="46.723" lon="5.51365">
        <ele>256.2</ele>
        <time>2022-03-21T07:48:31Z</time>
      </trkpt>
      <trkpt lat="46.72308" lon="5.51355">
        <ele>255.8</ele>
        <time>2022-03-21T07:48:32Z</time>
      </trkpt>
      <trkpt lat="46.72316" lon="5.51345">
        <ele>255.4</ele>
        <time>2022-03-21T07:48:33Z</time>
      </trkpt>
      <trkpt lat="46.72324" lon="5.51336">
        <ele>255</ele>
        <time>2022-03-21T07:48:34Z</time>
      </trkpt>
      <trkpt lat="46.72332" lon="5.51326">
        <ele>254.8</ele>
        <time>2022-03-21T07:48:35Z</time>
      </trkpt>
      <trkpt lat="46.7234" lon="5.51316">
        <ele>254.4</ele>
        <time>2022-03-21T07:48:36Z</time>
      </trkpt>
      <trkpt lat="46.72348" lon="5.51305">
        <ele>254.2</ele>
        <time>2022-03-21T07:48:37Z</time>
      </trkpt>
      <trkpt lat="46.72356" lon="5.51295">
        <ele>253.8</ele>
        <time>2022-03-21T07:48:38Z</time>
      </trkpt>
      <trkpt lat="46.72364" lon="5.51286">
        <ele>253.6</ele>
        <time>2022-03-21T07:48:39Z</time>
      </trkpt>
      <trkpt lat="46.72372" lon="5.51275">
        <ele>253.2</ele>
        <time>2022-03-21T07:48:40Z</time>
      </trkpt>
      <trkpt lat="46.7238" lon="5.51266">
        <ele>252.8</ele>
        <time>2022-03-21T07:48:41Z</time>
      </trkpt>
      <trkpt lat="46.72388" lon="5.51257">
        <ele>252.6</ele>
        <time>2022-03-21T07:48:42Z</time>
      </trkpt>
      <trkpt lat="46.72396" lon="5.51248">
        <ele>252.4</ele>
        <time>2022-03-21T07:48:43Z</time>
      </trkpt>
      <trkpt lat="46.72404" lon="5.51239">
        <ele>252</ele>
        <time>2022-03-21T07:48:44Z</time>
      </trkpt>
      <trkpt lat="46.72412" lon="5.5123">
        <ele>251.8</ele>
        <time>2022-03-21T07:48:45Z</time>
      </trkpt>
      <trkpt lat="46.7242" lon="5.51221">
        <ele>251.8</ele>
        <time>2022-03-21T07:48:46Z</time>
      </trkpt>
      <trkpt lat="46.72428" lon="5.51211">
        <ele>251.4</ele>
        <time>2022-03-21T07:48:47Z</time>
      </trkpt>
      <trkpt lat="46.72435" lon="5.512">
        <ele>251.2</ele>
        <time>2022-03-21T07:48:48Z</time>
      </trkpt>
      <trkpt lat="46.72443" lon="5.5119">
        <ele>251</ele>
        <time>2022-03-21T07:48:49Z</time>
      </trkpt>
      <trkpt lat="46.7245" lon="5.51178">
        <ele>250.6</ele>
        <time>2022-03-21T07:48:50Z</time>
      </trkpt>
      <trkpt lat="46.72456" lon="5.51167">
        <ele>250.4</ele>
        <time>2022-03-21T07:48:51Z</time>
      </trkpt>
      <trkpt lat="46.72463" lon="5.51155">
        <ele>250.2</ele>
        <time>2022-03-21T07:48:52Z</time>
      </trkpt>
      <trkpt lat="46.72469" lon="5.51142">
        <ele>249.8</ele>
        <time>2022-03-21T07:48:53Z</time>
      </trkpt>
      <trkpt lat="46.72474" lon="5.5113">
        <ele>249.6</ele>
        <time>2022-03-21T07:48:54Z</time>
      </trkpt>
      <trkpt lat="46.7248" lon="5.51117">
        <ele>249.2</ele>
        <time>2022-03-21T07:48:55Z</time>
      </trkpt>
      <trkpt lat="46.72485" lon="5.51104">
        <ele>248.8</ele>
        <time>2022-03-21T07:48:56Z</time>
      </trkpt>
      <trkpt lat="46.72489" lon="5.5109">
        <ele>248.4</ele>
        <time>2022-03-21T07:48:57Z</time>
      </trkpt>
      <trkpt lat="46.72493" lon="5.51076">
        <ele>248.2</ele>
        <time>2022-03-21T07:48:58Z</time>
      </trkpt>
      <trkpt lat="46.72498" lon="5.51062">
        <ele>247.8</ele>
        <time>2022-03-21T07:48:59Z</time>
      </trkpt>
      <trkpt lat="46.72503" lon="5.51049">
        <ele>247.6</ele>
        <time>2022-03-21T07:49:00Z</time>
      </trkpt>
      <trkpt lat="46.72509" lon="5.51036">
        <ele>247.2</ele>
        <time>2022-03-21T07:49:01Z</time>
      </trkpt>
      <trkpt lat="46.72514" lon="5.51022">
        <ele>247</ele>
        <time>2022-03-21T07:49:02Z</time>
      </trkpt>
      <trkpt lat="46.72519" lon="5.51009">
        <ele>246.6</ele>
        <time>2022-03-21T07:49:03Z</time>
      </trkpt>
      <trkpt lat="46.72525" lon="5.50997">
        <ele>246.4</ele>
        <time>2022-03-21T07:49:04Z</time>
      </trkpt>
      <trkpt lat="46.72531" lon="5.50985">
        <ele>246.2</ele>
        <time>2022-03-21T07:49:05Z</time>
      </trkpt>
      <trkpt lat="46.72538" lon="5.50974">
        <ele>245.8</ele>
        <time>2022-03-21T07:49:06Z</time>
      </trkpt>
      <trkpt lat="46.72545" lon="5.50962">
        <ele>245.6</ele>
        <time>2022-03-21T07:49:07Z</time>
      </trkpt>
      <trkpt lat="46.72553" lon="5.50952">
        <ele>245.4</ele>
        <time>2022-03-21T07:49:08Z</time>
      </trkpt>
      <trkpt lat="46.7256" lon="5.50941">
        <ele>245.2</ele>
        <time>2022-03-21T07:49:09Z</time>
      </trkpt>
      <trkpt lat="46.72567" lon="5.50931">
        <ele>245</ele>
        <time>2022-03-21T07:49:10Z</time>
      </trkpt>
      <trkpt lat="46.72575" lon="5.50921">
        <ele>244.8</ele>
        <time>2022-03-21T07:49:11Z</time>
      </trkpt>
      <trkpt lat="46.72583" lon="5.50911">
        <ele>244.6</ele>
        <time>2022-03-21T07:49:12Z</time>
      </trkpt>
      <trkpt lat="46.72591" lon="5.50902">
        <ele>244.4</ele>
        <time>2022-03-21T07:49:13Z</time>
      </trkpt>
      <trkpt lat="46.72599" lon="5.50892">
        <ele>244</ele>
        <time>2022-03-21T07:49:14Z</time>
      </trkpt>
      <trkpt lat="46.72607" lon="5.50883">
        <ele>243.8</ele>
        <time>2022-03-21T07:49:15Z</time>
      </trkpt>
      <trkpt lat="46.72615" lon="5.50873">
        <ele>243.6</ele>
        <time>2022-03-21T07:49:16Z</time>
      </trkpt>
      <trkpt lat="46.72623" lon="5.50864">
        <ele>243.2</ele>
        <time>2022-03-21T07:49:17Z</time>
      </trkpt>
      <trkpt lat="46.72631" lon="5.50854">
        <ele>243</ele>
        <time>2022-03-21T07:49:18Z</time>
      </trkpt>
      <trkpt lat="46.72639" lon="5.50845">
        <ele>242.8</ele>
        <time>2022-03-21T07:49:19Z</time>
      </trkpt>
      <trkpt lat="46.72648" lon="5.50835">
        <ele>242.6</ele>
        <time>2022-03-21T07:49:21Z</time>
      </trkpt>
      <trkpt lat="46.72656" lon="5.50825">
        <ele>242.2</ele>
        <time>2022-03-21T07:49:22Z</time>
      </trkpt>
      <trkpt lat="46.72664" lon="5.50815">
        <ele>242</ele>
        <time>2022-03-21T07:49:23Z</time>
      </trkpt>
      <trkpt lat="46.72672" lon="5.50805">
        <ele>241.8</ele>
        <time>2022-03-21T07:49:24Z</time>
      </trkpt>
      <trkpt lat="46.72681" lon="5.50795">
        <ele>241.6</ele>
        <time>2022-03-21T07:49:25Z</time>
      </trkpt>
      <trkpt lat="46.72689" lon="5.50785">
        <ele>241.2</ele>
        <time>2022-03-21T07:49:26Z</time>
      </trkpt>
      <trkpt lat="46.72698" lon="5.50775">
        <ele>241</ele>
        <time>2022-03-21T07:49:27Z</time>
      </trkpt>
      <trkpt lat="46.72706" lon="5.50765">
        <ele>240.6</ele>
        <time>2022-03-21T07:49:28Z</time>
      </trkpt>
      <trkpt lat="46.72715" lon="5.50755">
        <ele>240.2</ele>
        <time>2022-03-21T07:49:29Z</time>
      </trkpt>
      <trkpt lat="46.72723" lon="5.50744">
        <ele>240</ele>
        <time>2022-03-21T07:49:30Z</time>
      </trkpt>
      <trkpt lat="46.72732" lon="5.50734">
        <ele>239.6</ele>
        <time>2022-03-21T07:49:31Z</time>
      </trkpt>
      <trkpt lat="46.7274" lon="5.50724">
        <ele>239.6</ele>
        <time>2022-03-21T07:49:32Z</time>
      </trkpt>
      <trkpt lat="46.72748" lon="5.50714">
        <ele>239.2</ele>
        <time>2022-03-21T07:49:33Z</time>
      </trkpt>
      <trkpt lat="46.72756" lon="5.50704">
        <ele>239.2</ele>
        <time>2022-03-21T07:49:34Z</time>
      </trkpt>
      <trkpt lat="46.72764" lon="5.50695">
        <ele>239</ele>
        <time>2022-03-21T07:49:35Z</time>
      </trkpt>
      <trkpt lat="46.72772" lon="5.50685">
        <ele>239</ele>
        <time>2022-03-21T07:49:36Z</time>
      </trkpt>
      <trkpt lat="46.7278" lon="5.50675">
        <ele>238.8</ele>
        <time>2022-03-21T07:49:37Z</time>
      </trkpt>
      <trkpt lat="46.72788" lon="5.50665">
        <ele>238.8</ele>
        <time>2022-03-21T07:49:38Z</time>
      </trkpt>
      <trkpt lat="46.72796" lon="5.50656">
        <ele>238.4</ele>
        <time>2022-03-21T07:49:39Z</time>
      </trkpt>
      <trkpt lat="46.72804" lon="5.50646">
        <ele>238.2</ele>
        <time>2022-03-21T07:49:40Z</time>
      </trkpt>
      <trkpt lat="46.72813" lon="5.50636">
        <ele>237.8</ele>
        <time>2022-03-21T07:49:41Z</time>
      </trkpt>
      <trkpt lat="46.72821" lon="5.50626">
        <ele>237.4</ele>
        <time>2022-03-21T07:49:42Z</time>
      </trkpt>
      <trkpt lat="46.72829" lon="5.50616">
        <ele>237</ele>
        <time>2022-03-21T07:49:43Z</time>
      </trkpt>
      <trkpt lat="46.72838" lon="5.50607">
        <ele>236.8</ele>
        <time>2022-03-21T07:49:44Z</time>
      </trkpt>
      <trkpt lat="46.72848" lon="5.50598">
        <ele>236.2</ele>
        <time>2022-03-21T07:49:45Z</time>
      </trkpt>
      <trkpt lat="46.72858" lon="5.5059">
        <ele>235.8</ele>
        <time>2022-03-21T07:49:46Z</time>
      </trkpt>
      <trkpt lat="46.72868" lon="5.50583">
        <ele>235.4</ele>
        <time>2022-03-21T07:49:47Z</time>
      </trkpt>
      <trkpt lat="46.7288" lon="5.50579">
        <ele>234.8</ele>
        <time>2022-03-21T07:49:48Z</time>
      </trkpt>
      <trkpt lat="46.72892" lon="5.50577">
        <ele>234.4</ele>
        <time>2022-03-21T07:49:49Z</time>
      </trkpt>
      <trkpt lat="46.72904" lon="5.50575">
        <ele>233.8</ele>
        <time>2022-03-21T07:49:50Z</time>
      </trkpt>
      <trkpt lat="46.72916" lon="5.50573">
        <ele>233.4</ele>
        <time>2022-03-21T07:49:51Z</time>
      </trkpt>
      <trkpt lat="46.72928" lon="5.50571">
        <ele>232.8</ele>
        <time>2022-03-21T07:49:52Z</time>
      </trkpt>
      <trkpt lat="46.72939" lon="5.50568">
        <ele>232.4</ele>
        <time>2022-03-21T07:49:53Z</time>
      </trkpt>
      <trkpt lat="46.7295" lon="5.50564">
        <ele>232.2</ele>
        <time>2022-03-21T07:49:54Z</time>
      </trkpt>
      <trkpt lat="46.72961" lon="5.50558">
        <ele>231.8</ele>
        <time>2022-03-21T07:49:55Z</time>
      </trkpt>
      <trkpt lat="46.72971" lon="5.50551">
        <ele>231.6</ele>
        <time>2022-03-21T07:49:56Z</time>
      </trkpt>
      <trkpt lat="46.7298" lon="5.50543">
        <ele>231.6</ele>
        <time>2022-03-21T07:49:57Z</time>
      </trkpt>
      <trkpt lat="46.7299" lon="5.50537">
        <ele>231.4</ele>
        <time>2022-03-21T07:49:58Z</time>
      </trkpt>
      <trkpt lat="46.72998" lon="5.5053">
        <ele>231.4</ele>
        <time>2022-03-21T07:49:59Z</time>
      </trkpt>
      <trkpt lat="46.73007" lon="5.50524">
        <ele>231.4</ele>
        <time>2022-03-21T07:50:00Z</time>
      </trkpt>
      <trkpt lat="46.73015" lon="5.50518">
        <ele>231.4</ele>
        <time>2022-03-21T07:50:01Z</time>
      </trkpt>
      <trkpt lat="46.73025" lon="5.50512">
        <ele>231.2</ele>
        <time>2022-03-21T07:50:02Z</time>
      </trkpt>
      <trkpt lat="46.73034" lon="5.50506">
        <ele>231.2</ele>
        <time>2022-03-21T07:50:03Z</time>
      </trkpt>
      <trkpt lat="46.73043" lon="5.50499">
        <ele>231.2</ele>
        <time>2022-03-21T07:50:04Z</time>
      </trkpt>
      <trkpt lat="46.73051" lon="5.50492">
        <ele>231</ele>
        <time>2022-03-21T07:50:05Z</time>
      </trkpt>
      <trkpt lat="46.7306" lon="5.50485">
        <ele>231</ele>
        <time>2022-03-21T07:50:06Z</time>
      </trkpt>
      <trkpt lat="46.73068" lon="5.50478">
        <ele>231</ele>
        <time>2022-03-21T07:50:07Z</time>
      </trkpt>
      <trkpt lat="46.73077" lon="5.50472">
        <ele>231</ele>
        <time>2022-03-21T07:50:08Z</time>
      </trkpt>
      <trkpt lat="46.73086" lon="5.50466">
        <ele>231</ele>
        <time>2022-03-21T07:50:09Z</time>
      </trkpt>
      <trkpt lat="46.73094" lon="5.50459">
        <ele>230.8</ele>
        <time>2022-03-21T07:50:10Z</time>
      </trkpt>
      <trkpt lat="46.73103" lon="5.50453">
        <ele>230.8</ele>
        <time>2022-03-21T07:50:11Z</time>
      </trkpt>
      <trkpt lat="46.73112" lon="5.50447">
        <ele>230.8</ele>
        <time>2022-03-21T07:50:12Z</time>
      </trkpt>
      <trkpt lat="46.7312" lon="5.50441">
        <ele>230.8</ele>
        <time>2022-03-21T07:50:13Z</time>
      </trkpt>
      <trkpt lat="46.73129" lon="5.50435">
        <ele>230.8</ele>
        <time>2022-03-21T07:50:14Z</time>
      </trkpt>
      <trkpt lat="46.73137" lon="5.50429">
        <ele>230.8</ele>
        <time>2022-03-21T07:50:15Z</time>
      </trkpt>
      <trkpt lat="46.73145" lon="5.50423">
        <ele>230.8</ele>
        <time>2022-03-21T07:50:16Z</time>
      </trkpt>
      <trkpt lat="46.73154" lon="5.50417">
        <ele>230.8</ele>
        <time>2022-03-21T07:50:17Z</time>
      </trkpt>
      <trkpt lat="46.73162" lon="5.50411">
        <ele>230.8</ele>
        <time>2022-03-21T07:50:18Z</time>
      </trkpt>
      <trkpt lat="46.73171" lon="5.50405">
        <ele>230.8</ele>
        <time>2022-03-21T07:50:19Z</time>
      </trkpt>
      <trkpt lat="46.73179" lon="5.50399">
        <ele>230.8</ele>
        <time>2022-03-21T07:50:20Z</time>
      </trkpt>
      <trkpt lat="46.73187" lon="5.50393">
        <ele>230.8</ele>
        <time>2022-03-21T07:50:21Z</time>
      </trkpt>
      <trkpt lat="46.73195" lon="5.50387">
        <ele>230.8</ele>
        <time>2022-03-21T07:50:22Z</time>
      </trkpt>
      <trkpt lat="46.73203" lon="5.50381">
        <ele>230.8</ele>
        <time>2022-03-21T07:50:23Z</time>
      </trkpt>
      <trkpt lat="46.73211" lon="5.50376">
        <ele>230.8</ele>
        <time>2022-03-21T07:50:24Z</time>
      </trkpt>
      <trkpt lat="46.7322" lon="5.5037">
        <ele>230.4</ele>
        <time>2022-03-21T07:50:25Z</time>
      </trkpt>
      <trkpt lat="46.73228" lon="5.50364">
        <ele>230.2</ele>
        <time>2022-03-21T07:50:26Z</time>
      </trkpt>
      <trkpt lat="46.73237" lon="5.50358">
        <ele>230</ele>
        <time>2022-03-21T07:50:27Z</time>
      </trkpt>
      <trkpt lat="46.73245" lon="5.50352">
        <ele>229.6</ele>
        <time>2022-03-21T07:50:28Z</time>
      </trkpt>
      <trkpt lat="46.73254" lon="5.50346">
        <ele>229.4</ele>
        <time>2022-03-21T07:50:29Z</time>
      </trkpt>
      <trkpt lat="46.73264" lon="5.5034">
        <ele>229</ele>
        <time>2022-03-21T07:50:30Z</time>
      </trkpt>
      <trkpt lat="46.73273" lon="5.50335">
        <ele>228.6</ele>
        <time>2022-03-21T07:50:31Z</time>
      </trkpt>
      <trkpt lat="46.73283" lon="5.50331">
        <ele>228.2</ele>
        <time>2022-03-21T07:50:32Z</time>
      </trkpt>
      <trkpt lat="46.73293" lon="5.50327">
        <ele>227.8</ele>
        <time>2022-03-21T07:50:33Z</time>
      </trkpt>
      <trkpt lat="46.73304" lon="5.50323">
        <ele>227.2</ele>
        <time>2022-03-21T07:50:34Z</time>
      </trkpt>
      <trkpt lat="46.73315" lon="5.5032">
        <ele>226.8</ele>
        <time>2022-03-21T07:50:35Z</time>
      </trkpt>
      <trkpt lat="46.73325" lon="5.50317">
        <ele>226</ele>
        <time>2022-03-21T07:50:36Z</time>
      </trkpt>
      <trkpt lat="46.73337" lon="5.50315">
        <ele>225.4</ele>
        <time>2022-03-21T07:50:37Z</time>
      </trkpt>
      <trkpt lat="46.73348" lon="5.50315">
        <ele>224.8</ele>
        <time>2022-03-21T07:50:38Z</time>
      </trkpt>
      <trkpt lat="46.7336" lon="5.50314">
        <ele>224.2</ele>
        <time>2022-03-21T07:50:39Z</time>
      </trkpt>
      <trkpt lat="46.73372" lon="5.50313">
        <ele>223.6</ele>
        <time>2022-03-21T07:50:40Z</time>
      </trkpt>
      <trkpt lat="46.73384" lon="5.50312">
        <ele>223</ele>
        <time>2022-03-21T07:50:41Z</time>
      </trkpt>
      <trkpt lat="46.73395" lon="5.50311">
        <ele>222.2</ele>
        <time>2022-03-21T07:50:42Z</time>
      </trkpt>
      <trkpt lat="46.73407" lon="5.5031">
        <ele>221.6</ele>
        <time>2022-03-21T07:50:43Z</time>
      </trkpt>
      <trkpt lat="46.73419" lon="5.50308">
        <ele>220.8</ele>
        <time>2022-03-21T07:50:44Z</time>
      </trkpt>
      <trkpt lat="46.7343" lon="5.50304">
        <ele>220</ele>
        <time>2022-03-21T07:50:45Z</time>
      </trkpt>
      <trkpt lat="46.73443" lon="5.503">
        <ele>219.4</ele>
        <time>2022-03-21T07:50:46Z</time>
      </trkpt>
      <trkpt lat="46.73455" lon="5.50295">
        <ele>218.6</ele>
        <time>2022-03-21T07:50:47Z</time>
      </trkpt>
      <trkpt lat="46.73466" lon="5.5029">
        <ele>218</ele>
        <time>2022-03-21T07:50:48Z</time>
      </trkpt>
      <trkpt lat="46.73478" lon="5.50284">
        <ele>217.2</ele>
        <time>2022-03-21T07:50:49Z</time>
      </trkpt>
      <trkpt lat="46.7349" lon="5.50279">
        <ele>216.6</ele>
        <time>2022-03-21T07:50:50Z</time>
      </trkpt>
      <trkpt lat="46.73502" lon="5.50274">
        <ele>216.2</ele>
        <time>2022-03-21T07:50:51Z</time>
      </trkpt>
      <trkpt lat="46.73514" lon="5.50268">
        <ele>215.8</ele>
        <time>2022-03-21T07:50:52Z</time>
      </trkpt>
      <trkpt lat="46.73525" lon="5.50263">
        <ele>215.2</ele>
        <time>2022-03-21T07:50:53Z</time>
      </trkpt>
      <trkpt lat="46.73537" lon="5.50258">
        <ele>214.8</ele>
        <time>2022-03-21T07:50:54Z</time>
      </trkpt>
      <trkpt lat="46.73547" lon="5.50252">
        <ele>214.4</ele>
        <time>2022-03-21T07:50:55Z</time>
      </trkpt>
      <trkpt lat="46.73558" lon="5.50247">
        <ele>214.2</ele>
        <time>2022-03-21T07:50:56Z</time>
      </trkpt>
      <trkpt lat="46.73569" lon="5.50243">
        <ele>213.8</ele>
        <time>2022-03-21T07:50:57Z</time>
      </trkpt>
      <trkpt lat="46.7358" lon="5.50238">
        <ele>213.6</ele>
        <time>2022-03-21T07:50:58Z</time>
      </trkpt>
      <trkpt lat="46.73591" lon="5.50233">
        <ele>213.4</ele>
        <time>2022-03-21T07:50:59Z</time>
      </trkpt>
      <trkpt lat="46.73602" lon="5.50228">
        <ele>213.4</ele>
        <time>2022-03-21T07:51:00Z</time>
      </trkpt>
      <trkpt lat="46.73612" lon="5.50223">
        <ele>213.4</ele>
        <time>2022-03-21T07:51:01Z</time>
      </trkpt>
      <trkpt lat="46.73623" lon="5.50218">
        <ele>213.4</ele>
        <time>2022-03-21T07:51:02Z</time>
      </trkpt>
      <trkpt lat="46.73633" lon="5.50213">
        <ele>213</ele>
        <time>2022-03-21T07:51:03Z</time>
      </trkpt>
      <trkpt lat="46.73643" lon="5.50209">
        <ele>212.8</ele>
        <time>2022-03-21T07:51:04Z</time>
      </trkpt>
      <trkpt lat="46.73653" lon="5.50204">
        <ele>212.8</ele>
        <time>2022-03-21T07:51:05Z</time>
      </trkpt>
      <trkpt lat="46.73662" lon="5.50199">
        <ele>212.8</ele>
        <time>2022-03-21T07:51:06Z</time>
      </trkpt>
      <trkpt lat="46.73672" lon="5.50195">
        <ele>212.6</ele>
        <time>2022-03-21T07:51:07Z</time>
      </trkpt>
      <trkpt lat="46.73681" lon="5.5019">
        <ele>212.6</ele>
        <time>2022-03-21T07:51:08Z</time>
      </trkpt>
      <trkpt lat="46.7369" lon="5.50186">
        <ele>212.6</ele>
        <time>2022-03-21T07:51:09Z</time>
      </trkpt>
      <trkpt lat="46.737" lon="5.50182">
        <ele>212.6</ele>
        <time>2022-03-21T07:51:10Z</time>
      </trkpt>
      <trkpt lat="46.73709" lon="5.50178">
        <ele>212.6</ele>
        <time>2022-03-21T07:51:11Z</time>
      </trkpt>
      <trkpt lat="46.73718" lon="5.50174">
        <ele>212.6</ele>
        <time>2022-03-21T07:51:12Z</time>
      </trkpt>
      <trkpt lat="46.73727" lon="5.5017">
        <ele>212.6</ele>
        <time>2022-03-21T07:51:13Z</time>
      </trkpt>
      <trkpt lat="46.73736" lon="5.50165">
        <ele>212.6</ele>
        <time>2022-03-21T07:51:14Z</time>
      </trkpt>
      <trkpt lat="46.73744" lon="5.5016">
        <ele>212.6</ele>
        <time>2022-03-21T07:51:15Z</time>
      </trkpt>
      <trkpt lat="46.73753" lon="5.50155">
        <ele>212.6</ele>
        <time>2022-03-21T07:51:16Z</time>
      </trkpt>
      <trkpt lat="46.73761" lon="5.50149">
        <ele>212.6</ele>
        <time>2022-03-21T07:51:17Z</time>
      </trkpt>
      <trkpt lat="46.73768" lon="5.50143">
        <ele>212.6</ele>
        <time>2022-03-21T07:51:18Z</time>
      </trkpt>
      <trkpt lat="46.73776" lon="5.50136">
        <ele>212.8</ele>
        <time>2022-03-21T07:51:19Z</time>
      </trkpt>
      <trkpt lat="46.73783" lon="5.5013">
        <ele>212.8</ele>
        <time>2022-03-21T07:51:20Z</time>
      </trkpt>
      <trkpt lat="46.73791" lon="5.50123">
        <ele>212.8</ele>
        <time>2022-03-21T07:51:21Z</time>
      </trkpt>
      <trkpt lat="46.73798" lon="5.50117">
        <ele>212.8</ele>
        <time>2022-03-21T07:51:22Z</time>
      </trkpt>
      <trkpt lat="46.73805" lon="5.50111">
        <ele>213</ele>
        <time>2022-03-21T07:51:23Z</time>
      </trkpt>
      <trkpt lat="46.73812" lon="5.50105">
        <ele>213</ele>
        <time>2022-03-21T07:51:24Z</time>
      </trkpt>
      <trkpt lat="46.73819" lon="5.50099">
        <ele>213</ele>
        <time>2022-03-21T07:51:25Z</time>
      </trkpt>
      <trkpt lat="46.73826" lon="5.50093">
        <ele>213</ele>
        <time>2022-03-21T07:51:26Z</time>
      </trkpt>
      <trkpt lat="46.73833" lon="5.50087">
        <ele>212.8</ele>
        <time>2022-03-21T07:51:27Z</time>
      </trkpt>
      <trkpt lat="46.73841" lon="5.50081">
        <ele>212.8</ele>
        <time>2022-03-21T07:51:28Z</time>
      </trkpt>
      <trkpt lat="46.73848" lon="5.50075">
        <ele>212.6</ele>
        <time>2022-03-21T07:51:29Z</time>
      </trkpt>
      <trkpt lat="46.73856" lon="5.50068">
        <ele>212.6</ele>
        <time>2022-03-21T07:51:30Z</time>
      </trkpt>
      <trkpt lat="46.73863" lon="5.50062">
        <ele>212.2</ele>
        <time>2022-03-21T07:51:31Z</time>
      </trkpt>
      <trkpt lat="46.73871" lon="5.50056">
        <ele>212.2</ele>
        <time>2022-03-21T07:51:32Z</time>
      </trkpt>
      <trkpt lat="46.73878" lon="5.5005">
        <ele>212.2</ele>
        <time>2022-03-21T07:51:33Z</time>
      </trkpt>
      <trkpt lat="46.73886" lon="5.50043">
        <ele>212.2</ele>
        <time>2022-03-21T07:51:34Z</time>
      </trkpt>
      <trkpt lat="46.73893" lon="5.50037">
        <ele>212.2</ele>
        <time>2022-03-21T07:51:35Z</time>
      </trkpt>
      <trkpt lat="46.73901" lon="5.50031">
        <ele>212.2</ele>
        <time>2022-03-21T07:51:36Z</time>
      </trkpt>
      <trkpt lat="46.73908" lon="5.50025">
        <ele>212.2</ele>
        <time>2022-03-21T07:51:37Z</time>
      </trkpt>
      <trkpt lat="46.73916" lon="5.50019">
        <ele>212</ele>
        <time>2022-03-21T07:51:38Z</time>
      </trkpt>
      <trkpt lat="46.73924" lon="5.50013">
        <ele>212</ele>
        <time>2022-03-21T07:51:39Z</time>
      </trkpt>
      <trkpt lat="46.73931" lon="5.50007">
        <ele>212</ele>
        <time>2022-03-21T07:51:40Z</time>
      </trkpt>
      <trkpt lat="46.73939" lon="5.5">
        <ele>212</ele>
        <time>2022-03-21T07:51:41Z</time>
      </trkpt>
      <trkpt lat="46.73946" lon="5.49994">
        <ele>211.6</ele>
        <time>2022-03-21T07:51:42Z</time>
      </trkpt>
      <trkpt lat="46.73954" lon="5.49988">
        <ele>211.6</ele>
        <time>2022-03-21T07:51:43Z</time>
      </trkpt>
      <trkpt lat="46.73961" lon="5.49982">
        <ele>211.6</ele>
        <time>2022-03-21T07:51:44Z</time>
      </trkpt>
      <trkpt lat="46.73968" lon="5.49976">
        <ele>211.6</ele>
        <time>2022-03-21T07:51:45Z</time>
      </trkpt>
      <trkpt lat="46.73976" lon="5.4997">
        <ele>211.6</ele>
        <time>2022-03-21T07:51:46Z</time>
      </trkpt>
      <trkpt lat="46.73983" lon="5.49964">
        <ele>211.6</ele>
        <time>2022-03-21T07:51:47Z</time>
      </trkpt>
      <trkpt lat="46.7399" lon="5.49959">
        <ele>211.6</ele>
        <time>2022-03-21T07:51:48Z</time>
      </trkpt>
      <trkpt lat="46.73997" lon="5.49953">
        <ele>211.6</ele>
        <time>2022-03-21T07:51:49Z</time>
      </trkpt>
      <trkpt lat="46.74004" lon="5.49947">
        <ele>211.6</ele>
        <time>2022-03-21T07:51:50Z</time>
      </trkpt>
      <trkpt lat="46.7401" lon="5.49942">
        <ele>211.4</ele>
        <time>2022-03-21T07:51:51Z</time>
      </trkpt>
      <trkpt lat="46.74017" lon="5.49937">
        <ele>211.4</ele>
        <time>2022-03-21T07:51:52Z</time>
      </trkpt>
      <trkpt lat="46.74024" lon="5.49936">
        <ele>211.4</ele>
        <time>2022-03-21T07:51:53Z</time>
      </trkpt>
      <trkpt lat="46.74031" lon="5.49937">
        <ele>211.4</ele>
        <time>2022-03-21T07:51:54Z</time>
      </trkpt>
      <trkpt lat="46.74043" lon="5.49946">
        <ele>211.4</ele>
        <time>2022-03-21T07:51:55Z</time>
      </trkpt>
      <trkpt lat="46.74049" lon="5.49948">
        <ele>211.4</ele>
        <time>2022-03-21T07:51:56Z</time>
      </trkpt>
      <trkpt lat="46.74055" lon="5.49947">
        <ele>211.2</ele>
        <time>2022-03-21T07:51:57Z</time>
      </trkpt>
      <trkpt lat="46.7406" lon="5.49943">
        <ele>211.2</ele>
        <time>2022-03-21T07:51:58Z</time>
      </trkpt>
      <trkpt lat="46.74063" lon="5.49937">
        <ele>211.2</ele>
        <time>2022-03-21T07:51:59Z</time>
      </trkpt>
      <trkpt lat="46.74065" lon="5.49929">
        <ele>211.2</ele>
        <time>2022-03-21T07:52:00Z</time>
      </trkpt>
      <trkpt lat="46.74066" lon="5.49921">
        <ele>211.2</ele>
        <time>2022-03-21T07:52:01Z</time>
      </trkpt>
      <trkpt lat="46.74067" lon="5.49912">
        <ele>211.2</ele>
        <time>2022-03-21T07:52:02Z</time>
      </trkpt>
      <trkpt lat="46.7407" lon="5.49903">
        <ele>211.2</ele>
        <time>2022-03-21T07:52:03Z</time>
      </trkpt>
      <trkpt lat="46.74073" lon="5.49895">
        <ele>211.2</ele>
        <time>2022-03-21T07:52:04Z</time>
      </trkpt>
      <trkpt lat="46.74078" lon="5.49888">
        <ele>211.2</ele>
        <time>2022-03-21T07:52:05Z</time>
      </trkpt>
      <trkpt lat="46.74083" lon="5.4988">
        <ele>211.2</ele>
        <time>2022-03-21T07:52:06Z</time>
      </trkpt>
      <trkpt lat="46.74088" lon="5.49873">
        <ele>211.2</ele>
        <time>2022-03-21T07:52:07Z</time>
      </trkpt>
      <trkpt lat="46.74092" lon="5.49865">
        <ele>211.2</ele>
        <time>2022-03-21T07:52:08Z</time>
      </trkpt>
      <trkpt lat="46.74097" lon="5.49856">
        <ele>211.2</ele>
        <time>2022-03-21T07:52:09Z</time>
      </trkpt>
      <trkpt lat="46.74101" lon="5.49848">
        <ele>211.2</ele>
        <time>2022-03-21T07:52:10Z</time>
      </trkpt>
      <trkpt lat="46.74106" lon="5.49841">
        <ele>211.2</ele>
        <time>2022-03-21T07:52:11Z</time>
      </trkpt>
      <trkpt lat="46.74111" lon="5.49832">
        <ele>211.2</ele>
        <time>2022-03-21T07:52:12Z</time>
      </trkpt>
      <trkpt lat="46.74116" lon="5.49824">
        <ele>211.2</ele>
        <time>2022-03-21T07:52:13Z</time>
      </trkpt>
      <trkpt lat="46.74121" lon="5.49816">
        <ele>211.2</ele>
        <time>2022-03-21T07:52:14Z</time>
      </trkpt>
      <trkpt lat="46.74126" lon="5.49808">
        <ele>211.2</ele>
        <time>2022-03-21T07:52:15Z</time>
      </trkpt>
      <trkpt lat="46.74131" lon="5.498">
        <ele>211.2</ele>
        <time>2022-03-21T07:52:16Z</time>
      </trkpt>
      <trkpt lat="46.74136" lon="5.49792">
        <ele>211.2</ele>
        <time>2022-03-21T07:52:17Z</time>
      </trkpt>
      <trkpt lat="46.74141" lon="5.49784">
        <ele>211.2</ele>
        <time>2022-03-21T07:52:18Z</time>
      </trkpt>
      <trkpt lat="46.74146" lon="5.49777">
        <ele>211.2</ele>
        <time>2022-03-21T07:52:19Z</time>
      </trkpt>
      <trkpt lat="46.74152" lon="5.49769">
        <ele>211.2</ele>
        <time>2022-03-21T07:52:20Z</time>
      </trkpt>
      <trkpt lat="46.74157" lon="5.49762">
        <ele>211.2</ele>
        <time>2022-03-21T07:52:21Z</time>
      </trkpt>
      <trkpt lat="46.74162" lon="5.49755">
        <ele>211.2</ele>
        <time>2022-03-21T07:52:22Z</time>
      </trkpt>
      <trkpt lat="46.74168" lon="5.49748">
        <ele>211.2</ele>
        <time>2022-03-21T07:52:23Z</time>
      </trkpt>
      <trkpt lat="46.74175" lon="5.49742">
        <ele>211.2</ele>
        <time>2022-03-21T07:52:24Z</time>
      </trkpt>
      <trkpt lat="46.74181" lon="5.49736">
        <ele>211.2</ele>
        <time>2022-03-21T07:52:25Z</time>
      </trkpt>
      <trkpt lat="46.74187" lon="5.49731">
        <ele>211.2</ele>
        <time>2022-03-21T07:52:26Z</time>
      </trkpt>
      <trkpt lat="46.74193" lon="5.49726">
        <ele>211.2</ele>
        <time>2022-03-21T07:52:27Z</time>
      </trkpt>
      <trkpt lat="46.742" lon="5.49721">
        <ele>211.4</ele>
        <time>2022-03-21T07:52:28Z</time>
      </trkpt>
      <trkpt lat="46.74206" lon="5.49717">
        <ele>211.4</ele>
        <time>2022-03-21T07:52:29Z</time>
      </trkpt>
      <trkpt lat="46.74213" lon="5.49713">
        <ele>211.4</ele>
        <time>2022-03-21T07:52:30Z</time>
      </trkpt>
      <trkpt lat="46.7422" lon="5.49711">
        <ele>211.4</ele>
        <time>2022-03-21T07:52:31Z</time>
      </trkpt>
      <trkpt lat="46.74227" lon="5.4971">
        <ele>211.4</ele>
        <time>2022-03-21T07:52:32Z</time>
      </trkpt>
      <trkpt lat="46.74234" lon="5.49709">
        <ele>211.4</ele>
        <time>2022-03-21T07:52:33Z</time>
      </trkpt>
      <trkpt lat="46.74242" lon="5.49708">
        <ele>211.4</ele>
        <time>2022-03-21T07:52:34Z</time>
      </trkpt>
      <trkpt lat="46.74249" lon="5.49707">
        <ele>211.4</ele>
        <time>2022-03-21T07:52:35Z</time>
      </trkpt>
      <trkpt lat="46.74256" lon="5.49707">
        <ele>211.4</ele>
        <time>2022-03-21T07:52:36Z</time>
      </trkpt>
      <trkpt lat="46.74263" lon="5.49706">
        <ele>211.4</ele>
        <time>2022-03-21T07:52:37Z</time>
      </trkpt>
      <trkpt lat="46.7427" lon="5.49706">
        <ele>211.4</ele>
        <time>2022-03-21T07:52:38Z</time>
      </trkpt>
      <trkpt lat="46.74278" lon="5.49707">
        <ele>211.4</ele>
        <time>2022-03-21T07:52:39Z</time>
      </trkpt>
      <trkpt lat="46.74285" lon="5.49707">
        <ele>211.4</ele>
        <time>2022-03-21T07:52:40Z</time>
      </trkpt>
      <trkpt lat="46.74292" lon="5.49707">
        <ele>211.4</ele>
        <time>2022-03-21T07:52:41Z</time>
      </trkpt>
      <trkpt lat="46.74299" lon="5.49707">
        <ele>211.4</ele>
        <time>2022-03-21T07:52:42Z</time>
      </trkpt>
      <trkpt lat="46.74306" lon="5.49707">
        <ele>211.4</ele>
        <time>2022-03-21T07:52:43Z</time>
      </trkpt>
      <trkpt lat="46.74313" lon="5.49706">
        <ele>211.4</ele>
        <time>2022-03-21T07:52:44Z</time>
      </trkpt>
      <trkpt lat="46.7432" lon="5.49705">
        <ele>211.4</ele>
        <time>2022-03-21T07:52:45Z</time>
      </trkpt>
      <trkpt lat="46.74327" lon="5.49704">
        <ele>211.4</ele>
        <time>2022-03-21T07:52:46Z</time>
      </trkpt>
      <trkpt lat="46.74334" lon="5.49703">
        <ele>211.8</ele>
        <time>2022-03-21T07:52:47Z</time>
      </trkpt>
      <trkpt lat="46.7434" lon="5.49702">
        <ele>211.8</ele>
        <time>2022-03-21T07:52:48Z</time>
      </trkpt>
      <trkpt lat="46.74347" lon="5.497">
        <ele>212</ele>
        <time>2022-03-21T07:52:49Z</time>
      </trkpt>
      <trkpt lat="46.74353" lon="5.49698">
        <ele>212</ele>
        <time>2022-03-21T07:52:50Z</time>
      </trkpt>
      <trkpt lat="46.74359" lon="5.49697">
        <ele>212</ele>
        <time>2022-03-21T07:52:51Z</time>
      </trkpt>
      <trkpt lat="46.74365" lon="5.49696">
        <ele>212.2</ele>
        <time>2022-03-21T07:52:52Z</time>
      </trkpt>
      <trkpt lat="46.74372" lon="5.49695">
        <ele>212.2</ele>
        <time>2022-03-21T07:52:53Z</time>
      </trkpt>
      <trkpt lat="46.74378" lon="5.49693">
        <ele>212.2</ele>
        <time>2022-03-21T07:52:54Z</time>
      </trkpt>
      <trkpt lat="46.74384" lon="5.49692">
        <ele>212.2</ele>
        <time>2022-03-21T07:52:55Z</time>
      </trkpt>
      <trkpt lat="46.74391" lon="5.49689">
        <ele>212.2</ele>
        <time>2022-03-21T07:52:56Z</time>
      </trkpt>
      <trkpt lat="46.74398" lon="5.49687">
        <ele>212.2</ele>
        <time>2022-03-21T07:52:57Z</time>
      </trkpt>
      <trkpt lat="46.74404" lon="5.49684">
        <ele>212.2</ele>
        <time>2022-03-21T07:52:58Z</time>
      </trkpt>
      <trkpt lat="46.74411" lon="5.4968">
        <ele>212.2</ele>
        <time>2022-03-21T07:52:59Z</time>
      </trkpt>
      <trkpt lat="46.74417" lon="5.49676">
        <ele>212.2</ele>
        <time>2022-03-21T07:53:00Z</time>
      </trkpt>
      <trkpt lat="46.74423" lon="5.49671">
        <ele>212.2</ele>
        <time>2022-03-21T07:53:01Z</time>
      </trkpt>
      <trkpt lat="46.7443" lon="5.49666">
        <ele>212.2</ele>
        <time>2022-03-21T07:53:02Z</time>
      </trkpt>
      <trkpt lat="46.74436" lon="5.4966">
        <ele>212.2</ele>
        <time>2022-03-21T07:53:03Z</time>
      </trkpt>
      <trkpt lat="46.74441" lon="5.49653">
        <ele>212</ele>
        <time>2022-03-21T07:53:04Z</time>
      </trkpt>
      <trkpt lat="46.74447" lon="5.49646">
        <ele>212</ele>
        <time>2022-03-21T07:53:05Z</time>
      </trkpt>
      <trkpt lat="46.74451" lon="5.49638">
        <ele>212</ele>
        <time>2022-03-21T07:53:06Z</time>
      </trkpt>
      <trkpt lat="46.74456" lon="5.49629">
        <ele>212</ele>
        <time>2022-03-21T07:53:07Z</time>
      </trkpt>
      <trkpt lat="46.74459" lon="5.4962">
        <ele>212</ele>
        <time>2022-03-21T07:53:08Z</time>
      </trkpt>
      <trkpt lat="46.74462" lon="5.4961">
        <ele>212</ele>
        <time>2022-03-21T07:53:09Z</time>
      </trkpt>
      <trkpt lat="46.74465" lon="5.496">
        <ele>212</ele>
        <time>2022-03-21T07:53:10Z</time>
      </trkpt>
      <trkpt lat="46.74468" lon="5.4959">
        <ele>212</ele>
        <time>2022-03-21T07:53:11Z</time>
      </trkpt>
      <trkpt lat="46.7447" lon="5.4958">
        <ele>211.8</ele>
        <time>2022-03-21T07:53:12Z</time>
      </trkpt>
      <trkpt lat="46.74473" lon="5.4957">
        <ele>211.8</ele>
        <time>2022-03-21T07:53:13Z</time>
      </trkpt>
      <trkpt lat="46.74476" lon="5.4956">
        <ele>211.8</ele>
        <time>2022-03-21T07:53:14Z</time>
      </trkpt>
      <trkpt lat="46.74478" lon="5.49549">
        <ele>211.8</ele>
        <time>2022-03-21T07:53:15Z</time>
      </trkpt>
      <trkpt lat="46.74481" lon="5.49539">
        <ele>211.8</ele>
        <time>2022-03-21T07:53:16Z</time>
      </trkpt>
      <trkpt lat="46.74483" lon="5.49529">
        <ele>211.6</ele>
        <time>2022-03-21T07:53:17Z</time>
      </trkpt>
      <trkpt lat="46.74486" lon="5.49518">
        <ele>211.6</ele>
        <time>2022-03-21T07:53:18Z</time>
      </trkpt>
      <trkpt lat="46.74487" lon="5.49508">
        <ele>211.6</ele>
        <time>2022-03-21T07:53:19Z</time>
      </trkpt>
      <trkpt lat="46.74489" lon="5.49499">
        <ele>211.6</ele>
        <time>2022-03-21T07:53:20Z</time>
      </trkpt>
      <trkpt lat="46.74491" lon="5.4949">
        <ele>211.6</ele>
        <time>2022-03-21T07:53:21Z</time>
      </trkpt>
      <trkpt lat="46.74492" lon="5.4948">
        <ele>211.6</ele>
        <time>2022-03-21T07:53:22Z</time>
      </trkpt>
      <trkpt lat="46.74491" lon="5.49471">
        <ele>211.6</ele>
        <time>2022-03-21T07:53:23Z</time>
      </trkpt>
      <trkpt lat="46.74489" lon="5.49463">
        <ele>211.6</ele>
        <time>2022-03-21T07:53:24Z</time>
      </trkpt>
      <trkpt lat="46.74485" lon="5.49455">
        <ele>211.2</ele>
        <time>2022-03-21T07:53:25Z</time>
      </trkpt>
      <trkpt lat="46.7448" lon="5.49447">
        <ele>211.2</ele>
        <time>2022-03-21T07:53:26Z</time>
      </trkpt>
      <trkpt lat="46.74475" lon="5.49439">
        <ele>211</ele>
        <time>2022-03-21T07:53:27Z</time>
      </trkpt>
      <trkpt lat="46.7447" lon="5.4943">
        <ele>211</ele>
        <time>2022-03-21T07:53:28Z</time>
      </trkpt>
      <trkpt lat="46.74466" lon="5.49421">
        <ele>210.6</ele>
        <time>2022-03-21T07:53:29Z</time>
      </trkpt>
      <trkpt lat="46.74462" lon="5.49411">
        <ele>210.6</ele>
        <time>2022-03-21T07:53:30Z</time>
      </trkpt>
      <trkpt lat="46.74459" lon="5.49401">
        <ele>210.6</ele>
        <time>2022-03-21T07:53:31Z</time>
      </trkpt>
      <trkpt lat="46.74457" lon="5.49391">
        <ele>210.4</ele>
        <time>2022-03-21T07:53:32Z</time>
      </trkpt>
      <trkpt lat="46.74456" lon="5.49381">
        <ele>210.4</ele>
        <time>2022-03-21T07:53:33Z</time>
      </trkpt>
      <trkpt lat="46.74455" lon="5.4937">
        <ele>210.2</ele>
        <time>2022-03-21T07:53:34Z</time>
      </trkpt>
      <trkpt lat="46.74455" lon="5.4936">
        <ele>210.2</ele>
        <time>2022-03-21T07:53:35Z</time>
      </trkpt>
      <trkpt lat="46.74455" lon="5.49349">
        <ele>210.2</ele>
        <time>2022-03-21T07:53:36Z</time>
      </trkpt>
      <trkpt lat="46.74456" lon="5.49338">
        <ele>210.2</ele>
        <time>2022-03-21T07:53:37Z</time>
      </trkpt>
      <trkpt lat="46.74457" lon="5.49328">
        <ele>210.2</ele>
        <time>2022-03-21T07:53:38Z</time>
      </trkpt>
      <trkpt lat="46.74459" lon="5.49318">
        <ele>210.2</ele>
        <time>2022-03-21T07:53:39Z</time>
      </trkpt>
      <trkpt lat="46.74463" lon="5.49309">
        <ele>210.2</ele>
        <time>2022-03-21T07:53:40Z</time>
      </trkpt>
      <trkpt lat="46.74467" lon="5.49301">
        <ele>210.2</ele>
        <time>2022-03-21T07:53:41Z</time>
      </trkpt>
      <trkpt lat="46.74473" lon="5.49296">
        <ele>210.2</ele>
        <time>2022-03-21T07:53:42Z</time>
      </trkpt>
      <trkpt lat="46.74479" lon="5.49294">
        <ele>210.4</ele>
        <time>2022-03-21T07:53:43Z</time>
      </trkpt>
      <trkpt lat="46.74486" lon="5.49293">
        <ele>210.4</ele>
        <time>2022-03-21T07:53:44Z</time>
      </trkpt>
      <trkpt lat="46.74493" lon="5.49292">
        <ele>210.4</ele>
        <time>2022-03-21T07:53:45Z</time>
      </trkpt>
      <trkpt lat="46.745" lon="5.49292">
        <ele>210.4</ele>
        <time>2022-03-21T07:53:46Z</time>
      </trkpt>
      <trkpt lat="46.74507" lon="5.49292">
        <ele>210.4</ele>
        <time>2022-03-21T07:53:47Z</time>
      </trkpt>
      <trkpt lat="46.74515" lon="5.49291">
        <ele>210.4</ele>
        <time>2022-03-21T07:53:48Z</time>
      </trkpt>
      <trkpt lat="46.74522" lon="5.4929">
        <ele>210.4</ele>
        <time>2022-03-21T07:53:49Z</time>
      </trkpt>
      <trkpt lat="46.74529" lon="5.49291">
        <ele>210.4</ele>
        <time>2022-03-21T07:53:50Z</time>
      </trkpt>
      <trkpt lat="46.74537" lon="5.49292">
        <ele>210.2</ele>
        <time>2022-03-21T07:53:51Z</time>
      </trkpt>
      <trkpt lat="46.74544" lon="5.49294">
        <ele>210.2</ele>
        <time>2022-03-21T07:53:52Z</time>
      </trkpt>
      <trkpt lat="46.74551" lon="5.49295">
        <ele>210.2</ele>
        <time>2022-03-21T07:53:53Z</time>
      </trkpt>
      <trkpt lat="46.74559" lon="5.49294">
        <ele>210.2</ele>
        <time>2022-03-21T07:53:54Z</time>
      </trkpt>
      <trkpt lat="46.74566" lon="5.49292">
        <ele>210.2</ele>
        <time>2022-03-21T07:53:55Z</time>
      </trkpt>
      <trkpt lat="46.74573" lon="5.49288">
        <ele>210.2</ele>
        <time>2022-03-21T07:53:56Z</time>
      </trkpt>
      <trkpt lat="46.74579" lon="5.49282">
        <ele>210.2</ele>
        <time>2022-03-21T07:53:57Z</time>
      </trkpt>
      <trkpt lat="46.74585" lon="5.49275">
        <ele>210.2</ele>
        <time>2022-03-21T07:53:58Z</time>
      </trkpt>
      <trkpt lat="46.7459" lon="5.49268">
        <ele>210.2</ele>
        <time>2022-03-21T07:53:59Z</time>
      </trkpt>
      <trkpt lat="46.74596" lon="5.49261">
        <ele>210.2</ele>
        <time>2022-03-21T07:54:00Z</time>
      </trkpt>
      <trkpt lat="46.74602" lon="5.49255">
        <ele>210.2</ele>
        <time>2022-03-21T07:54:01Z</time>
      </trkpt>
      <trkpt lat="46.74608" lon="5.49248">
        <ele>210.4</ele>
        <time>2022-03-21T07:54:03Z</time>
      </trkpt>
      <trkpt lat="46.74614" lon="5.49242">
        <ele>210.4</ele>
        <time>2022-03-21T07:54:04Z</time>
      </trkpt>
      <trkpt lat="46.7462" lon="5.49236">
        <ele>210.4</ele>
        <time>2022-03-21T07:54:05Z</time>
      </trkpt>
      <trkpt lat="46.74626" lon="5.49229">
        <ele>210.4</ele>
        <time>2022-03-21T07:54:06Z</time>
      </trkpt>
      <trkpt lat="46.74633" lon="5.49223">
        <ele>210.4</ele>
        <time>2022-03-21T07:54:07Z</time>
      </trkpt>
      <trkpt lat="46.74639" lon="5.49217">
        <ele>210.4</ele>
        <time>2022-03-21T07:54:08Z</time>
      </trkpt>
      <trkpt lat="46.74645" lon="5.49211">
        <ele>210.2</ele>
        <time>2022-03-21T07:54:09Z</time>
      </trkpt>
      <trkpt lat="46.74651" lon="5.49204">
        <ele>210.2</ele>
        <time>2022-03-21T07:54:10Z</time>
      </trkpt>
      <trkpt lat="46.74658" lon="5.49198">
        <ele>210.2</ele>
        <time>2022-03-21T07:54:11Z</time>
      </trkpt>
      <trkpt lat="46.74664" lon="5.49192">
        <ele>210.2</ele>
        <time>2022-03-21T07:54:12Z</time>
      </trkpt>
      <trkpt lat="46.7467" lon="5.49185">
        <ele>210.2</ele>
        <time>2022-03-21T07:54:13Z</time>
      </trkpt>
      <trkpt lat="46.74677" lon="5.49178">
        <ele>210.2</ele>
        <time>2022-03-21T07:54:14Z</time>
      </trkpt>
      <trkpt lat="46.74683" lon="5.49171">
        <ele>210.2</ele>
        <time>2022-03-21T07:54:15Z</time>
      </trkpt>
      <trkpt lat="46.74689" lon="5.49164">
        <ele>210.2</ele>
        <time>2022-03-21T07:54:16Z</time>
      </trkpt>
      <trkpt lat="46.74696" lon="5.49158">
        <ele>210.2</ele>
        <time>2022-03-21T07:54:17Z</time>
      </trkpt>
      <trkpt lat="46.74702" lon="5.49151">
        <ele>210</ele>
        <time>2022-03-21T07:54:18Z</time>
      </trkpt>
      <trkpt lat="46.74709" lon="5.49144">
        <ele>210</ele>
        <time>2022-03-21T07:54:19Z</time>
      </trkpt>
      <trkpt lat="46.74715" lon="5.49137">
        <ele>210</ele>
        <time>2022-03-21T07:54:20Z</time>
      </trkpt>
      <trkpt lat="46.74721" lon="5.4913">
        <ele>210</ele>
        <time>2022-03-21T07:54:21Z</time>
      </trkpt>
      <trkpt lat="46.74728" lon="5.49124">
        <ele>210</ele>
        <time>2022-03-21T07:54:22Z</time>
      </trkpt>
      <trkpt lat="46.74734" lon="5.49117">
        <ele>210</ele>
        <time>2022-03-21T07:54:23Z</time>
      </trkpt>
      <trkpt lat="46.7474" lon="5.4911">
        <ele>210</ele>
        <time>2022-03-21T07:54:24Z</time>
      </trkpt>
      <trkpt lat="46.74747" lon="5.49104">
        <ele>210</ele>
        <time>2022-03-21T07:54:25Z</time>
      </trkpt>
      <trkpt lat="46.74753" lon="5.49097">
        <ele>210</ele>
        <time>2022-03-21T07:54:26Z</time>
      </trkpt>
      <trkpt lat="46.74759" lon="5.49091">
        <ele>210</ele>
        <time>2022-03-21T07:54:27Z</time>
      </trkpt>
      <trkpt lat="46.74765" lon="5.49084">
        <ele>210</ele>
        <time>2022-03-21T07:54:28Z</time>
      </trkpt>
      <trkpt lat="46.74771" lon="5.49078">
        <ele>210</ele>
        <time>2022-03-21T07:54:29Z</time>
      </trkpt>
      <trkpt lat="46.74778" lon="5.49071">
        <ele>210</ele>
        <time>2022-03-21T07:54:30Z</time>
      </trkpt>
      <trkpt lat="46.74784" lon="5.49065">
        <ele>210</ele>
        <time>2022-03-21T07:54:31Z</time>
      </trkpt>
      <trkpt lat="46.74791" lon="5.49058">
        <ele>210</ele>
        <time>2022-03-21T07:54:32Z</time>
      </trkpt>
      <trkpt lat="46.74797" lon="5.49052">
        <ele>210</ele>
        <time>2022-03-21T07:54:33Z</time>
      </trkpt>
      <trkpt lat="46.74803" lon="5.49045">
        <ele>210</ele>
        <time>2022-03-21T07:54:34Z</time>
      </trkpt>
      <trkpt lat="46.7481" lon="5.49038">
        <ele>209.8</ele>
        <time>2022-03-21T07:54:35Z</time>
      </trkpt>
      <trkpt lat="46.74816" lon="5.49031">
        <ele>209.8</ele>
        <time>2022-03-21T07:54:36Z</time>
      </trkpt>
      <trkpt lat="46.74822" lon="5.49025">
        <ele>209.8</ele>
        <time>2022-03-21T07:54:37Z</time>
      </trkpt>
      <trkpt lat="46.74829" lon="5.49018">
        <ele>209.8</ele>
        <time>2022-03-21T07:54:38Z</time>
      </trkpt>
      <trkpt lat="46.74835" lon="5.49011">
        <ele>209.8</ele>
        <time>2022-03-21T07:54:39Z</time>
      </trkpt>
      <trkpt lat="46.74841" lon="5.49004">
        <ele>209.8</ele>
        <time>2022-03-21T07:54:40Z</time>
      </trkpt>
      <trkpt lat="46.74848" lon="5.48998">
        <ele>209.8</ele>
        <time>2022-03-21T07:54:41Z</time>
      </trkpt>
      <trkpt lat="46.74854" lon="5.48991">
        <ele>209.8</ele>
        <time>2022-03-21T07:54:42Z</time>
      </trkpt>
      <trkpt lat="46.74861" lon="5.48985">
        <ele>209.6</ele>
        <time>2022-03-21T07:54:43Z</time>
      </trkpt>
      <trkpt lat="46.74867" lon="5.48978">
        <ele>209.6</ele>
        <time>2022-03-21T07:54:44Z</time>
      </trkpt>
      <trkpt lat="46.74873" lon="5.48971">
        <ele>209.6</ele>
        <time>2022-03-21T07:54:45Z</time>
      </trkpt>
      <trkpt lat="46.7488" lon="5.48965">
        <ele>209.6</ele>
        <time>2022-03-21T07:54:46Z</time>
      </trkpt>
      <trkpt lat="46.74886" lon="5.48958">
        <ele>209.6</ele>
        <time>2022-03-21T07:54:47Z</time>
      </trkpt>
      <trkpt lat="46.74892" lon="5.48952">
        <ele>209.6</ele>
        <time>2022-03-21T07:54:48Z</time>
      </trkpt>
      <trkpt lat="46.74899" lon="5.48945">
        <ele>209.6</ele>
        <time>2022-03-21T07:54:49Z</time>
      </trkpt>
      <trkpt lat="46.74905" lon="5.48939">
        <ele>209.6</ele>
        <time>2022-03-21T07:54:50Z</time>
      </trkpt>
      <trkpt lat="46.74911" lon="5.48932">
        <ele>209.6</ele>
        <time>2022-03-21T07:54:51Z</time>
      </trkpt>
      <trkpt lat="46.74918" lon="5.48925">
        <ele>209.2</ele>
        <time>2022-03-21T07:54:52Z</time>
      </trkpt>
      <trkpt lat="46.74924" lon="5.48918">
        <ele>209.2</ele>
        <time>2022-03-21T07:54:53Z</time>
      </trkpt>
      <trkpt lat="46.7493" lon="5.48911">
        <ele>209.2</ele>
        <time>2022-03-21T07:54:54Z</time>
      </trkpt>
      <trkpt lat="46.74937" lon="5.48905">
        <ele>209.2</ele>
        <time>2022-03-21T07:54:55Z</time>
      </trkpt>
      <trkpt lat="46.74943" lon="5.48898">
        <ele>209.2</ele>
        <time>2022-03-21T07:54:56Z</time>
      </trkpt>
      <trkpt lat="46.7495" lon="5.48892">
        <ele>209.2</ele>
        <time>2022-03-21T07:54:57Z</time>
      </trkpt>
      <trkpt lat="46.74956" lon="5.48885">
        <ele>209.2</ele>
        <time>2022-03-21T07:54:58Z</time>
      </trkpt>
      <trkpt lat="46.74963" lon="5.48878">
        <ele>209.2</ele>
        <time>2022-03-21T07:54:59Z</time>
      </trkpt>
      <trkpt lat="46.74969" lon="5.48871">
        <ele>209.2</ele>
        <time>2022-03-21T07:55:00Z</time>
      </trkpt>
      <trkpt lat="46.74975" lon="5.48864">
        <ele>209.2</ele>
        <time>2022-03-21T07:55:01Z</time>
      </trkpt>
      <trkpt lat="46.74982" lon="5.48857">
        <ele>209.2</ele>
        <time>2022-03-21T07:55:02Z</time>
      </trkpt>
      <trkpt lat="46.74988" lon="5.4885">
        <ele>209.2</ele>
        <time>2022-03-21T07:55:03Z</time>
      </trkpt>
      <trkpt lat="46.74995" lon="5.48844">
        <ele>209.2</ele>
        <time>2022-03-21T07:55:04Z</time>
      </trkpt>
      <trkpt lat="46.75001" lon="5.48837">
        <ele>209</ele>
        <time>2022-03-21T07:55:05Z</time>
      </trkpt>
      <trkpt lat="46.75008" lon="5.4883">
        <ele>209</ele>
        <time>2022-03-21T07:55:06Z</time>
      </trkpt>
      <trkpt lat="46.75014" lon="5.48823">
        <ele>209</ele>
        <time>2022-03-21T07:55:07Z</time>
      </trkpt>
      <trkpt lat="46.75021" lon="5.48817">
        <ele>209</ele>
        <time>2022-03-21T07:55:08Z</time>
      </trkpt>
      <trkpt lat="46.75027" lon="5.4881">
        <ele>209</ele>
        <time>2022-03-21T07:55:09Z</time>
      </trkpt>
      <trkpt lat="46.75034" lon="5.48803">
        <ele>209</ele>
        <time>2022-03-21T07:55:10Z</time>
      </trkpt>
      <trkpt lat="46.7504" lon="5.48796">
        <ele>209</ele>
        <time>2022-03-21T07:55:11Z</time>
      </trkpt>
      <trkpt lat="46.75046" lon="5.48789">
        <ele>209</ele>
        <time>2022-03-21T07:55:12Z</time>
      </trkpt>
      <trkpt lat="46.75053" lon="5.48782">
        <ele>209</ele>
        <time>2022-03-21T07:55:13Z</time>
      </trkpt>
      <trkpt lat="46.75059" lon="5.48775">
        <ele>209</ele>
        <time>2022-03-21T07:55:14Z</time>
      </trkpt>
      <trkpt lat="46.75066" lon="5.48769">
        <ele>209</ele>
        <time>2022-03-21T07:55:15Z</time>
      </trkpt>
      <trkpt lat="46.75072" lon="5.48762">
        <ele>209</ele>
        <time>2022-03-21T07:55:16Z</time>
      </trkpt>
      <trkpt lat="46.75079" lon="5.48755">
        <ele>209</ele>
        <time>2022-03-21T07:55:17Z</time>
      </trkpt>
      <trkpt lat="46.75085" lon="5.48748">
        <ele>209</ele>
        <time>2022-03-21T07:55:18Z</time>
      </trkpt>
      <trkpt lat="46.75091" lon="5.48741">
        <ele>209</ele>
        <time>2022-03-21T07:55:19Z</time>
      </trkpt>
      <trkpt lat="46.75098" lon="5.48735">
        <ele>209</ele>
        <time>2022-03-21T07:55:20Z</time>
      </trkpt>
      <trkpt lat="46.75104" lon="5.48728">
        <ele>209</ele>
        <time>2022-03-21T07:55:21Z</time>
      </trkpt>
      <trkpt lat="46.75111" lon="5.48721">
        <ele>209</ele>
        <time>2022-03-21T07:55:22Z</time>
      </trkpt>
      <trkpt lat="46.75117" lon="5.48714">
        <ele>209</ele>
        <time>2022-03-21T07:55:23Z</time>
      </trkpt>
      <trkpt lat="46.75124" lon="5.48708">
        <ele>209</ele>
        <time>2022-03-21T07:55:24Z</time>
      </trkpt>
      <trkpt lat="46.7513" lon="5.48701">
        <ele>208.8</ele>
        <time>2022-03-21T07:55:25Z</time>
      </trkpt>
      <trkpt lat="46.75137" lon="5.48694">
        <ele>208.8</ele>
        <time>2022-03-21T07:55:26Z</time>
      </trkpt>
      <trkpt lat="46.75143" lon="5.48687">
        <ele>208.8</ele>
        <time>2022-03-21T07:55:27Z</time>
      </trkpt>
      <trkpt lat="46.75149" lon="5.4868">
        <ele>208.8</ele>
        <time>2022-03-21T07:55:28Z</time>
      </trkpt>
      <trkpt lat="46.75156" lon="5.48674">
        <ele>208.8</ele>
        <time>2022-03-21T07:55:29Z</time>
      </trkpt>
      <trkpt lat="46.75162" lon="5.48667">
        <ele>208.8</ele>
        <time>2022-03-21T07:55:30Z</time>
      </trkpt>
      <trkpt lat="46.75169" lon="5.4866">
        <ele>208.8</ele>
        <time>2022-03-21T07:55:31Z</time>
      </trkpt>
      <trkpt lat="46.75175" lon="5.48653">
        <ele>208.8</ele>
        <time>2022-03-21T07:55:32Z</time>
      </trkpt>
      <trkpt lat="46.75181" lon="5.48646">
        <ele>208.8</ele>
        <time>2022-03-21T07:55:33Z</time>
      </trkpt>
      <trkpt lat="46.75188" lon="5.48639">
        <ele>208.8</ele>
        <time>2022-03-21T07:55:34Z</time>
      </trkpt>
      <trkpt lat="46.75194" lon="5.48633">
        <ele>208.8</ele>
        <time>2022-03-21T07:55:35Z</time>
      </trkpt>
      <trkpt lat="46.752" lon="5.48626">
        <ele>208.8</ele>
        <time>2022-03-21T07:55:36Z</time>
      </trkpt>
      <trkpt lat="46.75206" lon="5.4862">
        <ele>208.8</ele>
        <time>2022-03-21T07:55:37Z</time>
      </trkpt>
      <trkpt lat="46.75212" lon="5.48614">
        <ele>208.8</ele>
        <time>2022-03-21T07:55:38Z</time>
      </trkpt>
      <trkpt lat="46.75218" lon="5.48608">
        <ele>208.8</ele>
        <time>2022-03-21T07:55:39Z</time>
      </trkpt>
      <trkpt lat="46.75224" lon="5.48602">
        <ele>208.6</ele>
        <time>2022-03-21T07:55:40Z</time>
      </trkpt>
      <trkpt lat="46.7523" lon="5.48596">
        <ele>208.6</ele>
        <time>2022-03-21T07:55:41Z</time>
      </trkpt>
      <trkpt lat="46.75235" lon="5.48589">
        <ele>208.6</ele>
        <time>2022-03-21T07:55:42Z</time>
      </trkpt>
      <trkpt lat="46.75241" lon="5.48583">
        <ele>208.6</ele>
        <time>2022-03-21T07:55:43Z</time>
      </trkpt>
      <trkpt lat="46.75247" lon="5.48577">
        <ele>208.6</ele>
        <time>2022-03-21T07:55:44Z</time>
      </trkpt>
      <trkpt lat="46.75252" lon="5.48571">
        <ele>208.6</ele>
        <time>2022-03-21T07:55:45Z</time>
      </trkpt>
      <trkpt lat="46.75258" lon="5.48565">
        <ele>208.2</ele>
        <time>2022-03-21T07:55:46Z</time>
      </trkpt>
      <trkpt lat="46.75264" lon="5.48559">
        <ele>208.2</ele>
        <time>2022-03-21T07:55:47Z</time>
      </trkpt>
      <trkpt lat="46.75269" lon="5.48553">
        <ele>208.2</ele>
        <time>2022-03-21T07:55:48Z</time>
      </trkpt>
      <trkpt lat="46.75275" lon="5.48548">
        <ele>208.2</ele>
        <time>2022-03-21T07:55:49Z</time>
      </trkpt>
      <trkpt lat="46.75281" lon="5.48543">
        <ele>208.2</ele>
        <time>2022-03-21T07:55:50Z</time>
      </trkpt>
      <trkpt lat="46.75286" lon="5.48539">
        <ele>208.2</ele>
        <time>2022-03-21T07:55:51Z</time>
      </trkpt>
      <trkpt lat="46.75292" lon="5.48535">
        <ele>208.2</ele>
        <time>2022-03-21T07:55:52Z</time>
      </trkpt>
      <trkpt lat="46.75297" lon="5.48531">
        <ele>208.2</ele>
        <time>2022-03-21T07:55:53Z</time>
      </trkpt>
      <trkpt lat="46.75303" lon="5.48529">
        <ele>208.2</ele>
        <time>2022-03-21T07:55:54Z</time>
      </trkpt>
      <trkpt lat="46.75309" lon="5.48526">
        <ele>208.2</ele>
        <time>2022-03-21T07:55:55Z</time>
      </trkpt>
      <trkpt lat="46.75313" lon="5.48524">
        <ele>208.2</ele>
        <time>2022-03-21T07:55:56Z</time>
      </trkpt>
      <trkpt lat="46.75317" lon="5.48523">
        <ele>208.2</ele>
        <time>2022-03-21T07:55:57Z</time>
      </trkpt>
      <trkpt lat="46.7532" lon="5.48521">
        <ele>208.2</ele>
        <time>2022-03-21T07:55:58Z</time>
      </trkpt>
      <trkpt lat="46.75322" lon="5.48519">
        <ele>208.2</ele>
        <time>2022-03-21T07:55:59Z</time>
      </trkpt>
      <trkpt lat="46.75324" lon="5.48518">
        <ele>208.2</ele>
        <time>2022-03-21T07:56:00Z</time>
      </trkpt>
      <trkpt lat="46.75326" lon="5.48517">
        <ele>208.2</ele>
        <time>2022-03-21T07:56:01Z</time>
      </trkpt>
      <trkpt lat="46.75327" lon="5.48516">
        <ele>208.2</ele>
        <time>2022-03-21T07:56:02Z</time>
      </trkpt>
      <trkpt lat="46.75328" lon="5.48515">
        <ele>208.2</ele>
        <time>2022-03-21T07:56:03Z</time>
      </trkpt>
      <trkpt lat="46.7533" lon="5.48514">
        <ele>208.2</ele>
        <time>2022-03-21T07:56:04Z</time>
      </trkpt>
      <trkpt lat="46.75332" lon="5.48512">
        <ele>208.2</ele>
        <time>2022-03-21T07:56:05Z</time>
      </trkpt>
      <trkpt lat="46.75334" lon="5.48509">
        <ele>208.2</ele>
        <time>2022-03-21T07:56:06Z</time>
      </trkpt>
      <trkpt lat="46.75336" lon="5.48505">
        <ele>208.2</ele>
        <time>2022-03-21T07:56:07Z</time>
      </trkpt>
      <trkpt lat="46.75338" lon="5.48499">
        <ele>208.2</ele>
        <time>2022-03-21T07:56:08Z</time>
      </trkpt>
      <trkpt lat="46.7534" lon="5.48493">
        <ele>208.2</ele>
        <time>2022-03-21T07:56:09Z</time>
      </trkpt>
      <trkpt lat="46.75343" lon="5.48486">
        <ele>208.2</ele>
        <time>2022-03-21T07:56:10Z</time>
      </trkpt>
      <trkpt lat="46.75346" lon="5.48479">
        <ele>208</ele>
        <time>2022-03-21T07:56:11Z</time>
      </trkpt>
      <trkpt lat="46.7535" lon="5.48473">
        <ele>208</ele>
        <time>2022-03-21T07:56:12Z</time>
      </trkpt>
      <trkpt lat="46.75354" lon="5.48467">
        <ele>208</ele>
        <time>2022-03-21T07:56:13Z</time>
      </trkpt>
      <trkpt lat="46.75359" lon="5.48461">
        <ele>208</ele>
        <time>2022-03-21T07:56:14Z</time>
      </trkpt>
      <trkpt lat="46.75364" lon="5.48455">
        <ele>208</ele>
        <time>2022-03-21T07:56:15Z</time>
      </trkpt>
      <trkpt lat="46.75369" lon="5.48449">
        <ele>208</ele>
        <time>2022-03-21T07:56:16Z</time>
      </trkpt>
      <trkpt lat="46.75375" lon="5.48444">
        <ele>208</ele>
        <time>2022-03-21T07:56:17Z</time>
      </trkpt>
      <trkpt lat="46.7538" lon="5.48438">
        <ele>208</ele>
        <time>2022-03-21T07:56:18Z</time>
      </trkpt>
      <trkpt lat="46.75386" lon="5.48432">
        <ele>208</ele>
        <time>2022-03-21T07:56:19Z</time>
      </trkpt>
      <trkpt lat="46.75392" lon="5.48426">
        <ele>208</ele>
        <time>2022-03-21T07:56:20Z</time>
      </trkpt>
      <trkpt lat="46.75397" lon="5.4842">
        <ele>207.8</ele>
        <time>2022-03-21T07:56:21Z</time>
      </trkpt>
      <trkpt lat="46.75403" lon="5.48414">
        <ele>207.8</ele>
        <time>2022-03-21T07:56:22Z</time>
      </trkpt>
      <trkpt lat="46.75409" lon="5.48408">
        <ele>207.8</ele>
        <time>2022-03-21T07:56:23Z</time>
      </trkpt>
      <trkpt lat="46.75415" lon="5.48401">
        <ele>207.8</ele>
        <time>2022-03-21T07:56:24Z</time>
      </trkpt>
      <trkpt lat="46.75421" lon="5.48395">
        <ele>207.8</ele>
        <time>2022-03-21T07:56:25Z</time>
      </trkpt>
      <trkpt lat="46.75427" lon="5.48389">
        <ele>207.8</ele>
        <time>2022-03-21T07:56:26Z</time>
      </trkpt>
      <trkpt lat="46.75433" lon="5.48382">
        <ele>207.8</ele>
        <time>2022-03-21T07:56:27Z</time>
      </trkpt>
      <trkpt lat="46.7544" lon="5.48376">
        <ele>207.8</ele>
        <time>2022-03-21T07:56:28Z</time>
      </trkpt>
      <trkpt lat="46.75446" lon="5.48369">
        <ele>207.8</ele>
        <time>2022-03-21T07:56:29Z</time>
      </trkpt>
      <trkpt lat="46.75452" lon="5.48362">
        <ele>207.8</ele>
        <time>2022-03-21T07:56:30Z</time>
      </trkpt>
      <trkpt lat="46.75459" lon="5.48356">
        <ele>207.8</ele>
        <time>2022-03-21T07:56:31Z</time>
      </trkpt>
      <trkpt lat="46.75465" lon="5.4835">
        <ele>207.8</ele>
        <time>2022-03-21T07:56:32Z</time>
      </trkpt>
      <trkpt lat="46.75471" lon="5.48343">
        <ele>207.8</ele>
        <time>2022-03-21T07:56:33Z</time>
      </trkpt>
      <trkpt lat="46.75477" lon="5.48336">
        <ele>207.6</ele>
        <time>2022-03-21T07:56:34Z</time>
      </trkpt>
      <trkpt lat="46.75484" lon="5.4833">
        <ele>207.6</ele>
        <time>2022-03-21T07:56:35Z</time>
      </trkpt>
      <trkpt lat="46.7549" lon="5.48323">
        <ele>207.6</ele>
        <time>2022-03-21T07:56:36Z</time>
      </trkpt>
      <trkpt lat="46.75497" lon="5.48316">
        <ele>207.6</ele>
        <time>2022-03-21T07:56:37Z</time>
      </trkpt>
      <trkpt lat="46.75503" lon="5.48309">
        <ele>207.6</ele>
        <time>2022-03-21T07:56:38Z</time>
      </trkpt>
      <trkpt lat="46.75509" lon="5.48303">
        <ele>207.6</ele>
        <time>2022-03-21T07:56:39Z</time>
      </trkpt>
      <trkpt lat="46.75516" lon="5.48296">
        <ele>207.6</ele>
        <time>2022-03-21T07:56:40Z</time>
      </trkpt>
      <trkpt lat="46.75523" lon="5.48289">
        <ele>207.6</ele>
        <time>2022-03-21T07:56:41Z</time>
      </trkpt>
      <trkpt lat="46.75529" lon="5.48282">
        <ele>207.6</ele>
        <time>2022-03-21T07:56:42Z</time>
      </trkpt>
      <trkpt lat="46.75535" lon="5.48276">
        <ele>207.6</ele>
        <time>2022-03-21T07:56:43Z</time>
      </trkpt>
      <trkpt lat="46.75542" lon="5.48269">
        <ele>207.6</ele>
        <time>2022-03-21T07:56:44Z</time>
      </trkpt>
      <trkpt lat="46.75548" lon="5.48262">
        <ele>207.6</ele>
        <time>2022-03-21T07:56:45Z</time>
      </trkpt>
      <trkpt lat="46.75555" lon="5.48255">
        <ele>207.6</ele>
        <time>2022-03-21T07:56:46Z</time>
      </trkpt>
      <trkpt lat="46.75561" lon="5.48248">
        <ele>207.4</ele>
        <time>2022-03-21T07:56:47Z</time>
      </trkpt>
      <trkpt lat="46.75568" lon="5.48242">
        <ele>207.4</ele>
        <time>2022-03-21T07:56:48Z</time>
      </trkpt>
      <trkpt lat="46.75574" lon="5.48235">
        <ele>207.4</ele>
        <time>2022-03-21T07:56:49Z</time>
      </trkpt>
      <trkpt lat="46.75581" lon="5.48228">
        <ele>207.4</ele>
        <time>2022-03-21T07:56:50Z</time>
      </trkpt>
      <trkpt lat="46.75588" lon="5.48222">
        <ele>207.4</ele>
        <time>2022-03-21T07:56:51Z</time>
      </trkpt>
      <trkpt lat="46.75594" lon="5.48215">
        <ele>207.4</ele>
        <time>2022-03-21T07:56:52Z</time>
      </trkpt>
      <trkpt lat="46.75601" lon="5.48208">
        <ele>207.4</ele>
        <time>2022-03-21T07:56:53Z</time>
      </trkpt>
      <trkpt lat="46.75607" lon="5.48201">
        <ele>207.4</ele>
        <time>2022-03-21T07:56:54Z</time>
      </trkpt>
      <trkpt lat="46.75614" lon="5.48194">
        <ele>207.4</ele>
        <time>2022-03-21T07:56:55Z</time>
      </trkpt>
      <trkpt lat="46.7562" lon="5.48187">
        <ele>207.4</ele>
        <time>2022-03-21T07:56:56Z</time>
      </trkpt>
      <trkpt lat="46.75627" lon="5.48179">
        <ele>207.4</ele>
        <time>2022-03-21T07:56:57Z</time>
      </trkpt>
      <trkpt lat="46.75633" lon="5.48172">
        <ele>207.4</ele>
        <time>2022-03-21T07:56:58Z</time>
      </trkpt>
      <trkpt lat="46.75647" lon="5.48158">
        <ele>207.4</ele>
        <time>2022-03-21T07:56:59Z</time>
      </trkpt>
      <trkpt lat="46.75654" lon="5.48152">
        <ele>207.4</ele>
        <time>2022-03-21T07:57:00Z</time>
      </trkpt>
      <trkpt lat="46.7566" lon="5.48145">
        <ele>207.4</ele>
        <time>2022-03-21T07:57:01Z</time>
      </trkpt>
      <trkpt lat="46.75667" lon="5.48138">
        <ele>207.4</ele>
        <time>2022-03-21T07:57:02Z</time>
      </trkpt>
      <trkpt lat="46.75674" lon="5.48131">
        <ele>207.4</ele>
        <time>2022-03-21T07:57:03Z</time>
      </trkpt>
      <trkpt lat="46.7568" lon="5.48124">
        <ele>207.4</ele>
        <time>2022-03-21T07:57:04Z</time>
      </trkpt>
      <trkpt lat="46.75687" lon="5.48117">
        <ele>207.4</ele>
        <time>2022-03-21T07:57:05Z</time>
      </trkpt>
      <trkpt lat="46.75693" lon="5.4811">
        <ele>207.2</ele>
        <time>2022-03-21T07:57:06Z</time>
      </trkpt>
      <trkpt lat="46.757" lon="5.48103">
        <ele>207.2</ele>
        <time>2022-03-21T07:57:07Z</time>
      </trkpt>
      <trkpt lat="46.75706" lon="5.48096">
        <ele>207.2</ele>
        <time>2022-03-21T07:57:08Z</time>
      </trkpt>
      <trkpt lat="46.75713" lon="5.4809">
        <ele>207.2</ele>
        <time>2022-03-21T07:57:09Z</time>
      </trkpt>
      <trkpt lat="46.75719" lon="5.48083">
        <ele>207.2</ele>
        <time>2022-03-21T07:57:10Z</time>
      </trkpt>
      <trkpt lat="46.75726" lon="5.48076">
        <ele>207.2</ele>
        <time>2022-03-21T07:57:11Z</time>
      </trkpt>
      <trkpt lat="46.75732" lon="5.48069">
        <ele>207.2</ele>
        <time>2022-03-21T07:57:12Z</time>
      </trkpt>
      <trkpt lat="46.75739" lon="5.48062">
        <ele>207</ele>
        <time>2022-03-21T07:57:13Z</time>
      </trkpt>
      <trkpt lat="46.75745" lon="5.48055">
        <ele>207</ele>
        <time>2022-03-21T07:57:14Z</time>
      </trkpt>
      <trkpt lat="46.75751" lon="5.48048">
        <ele>207</ele>
        <time>2022-03-21T07:57:15Z</time>
      </trkpt>
      <trkpt lat="46.75758" lon="5.48042">
        <ele>207.2</ele>
        <time>2022-03-21T07:57:16Z</time>
      </trkpt>
      <trkpt lat="46.75764" lon="5.48035">
        <ele>207.2</ele>
        <time>2022-03-21T07:57:17Z</time>
      </trkpt>
      <trkpt lat="46.75771" lon="5.48028">
        <ele>207.2</ele>
        <time>2022-03-21T07:57:18Z</time>
      </trkpt>
      <trkpt lat="46.75777" lon="5.48021">
        <ele>207.2</ele>
        <time>2022-03-21T07:57:19Z</time>
      </trkpt>
      <trkpt lat="46.75784" lon="5.48014">
        <ele>207.2</ele>
        <time>2022-03-21T07:57:20Z</time>
      </trkpt>
      <trkpt lat="46.7579" lon="5.48007">
        <ele>207.2</ele>
        <time>2022-03-21T07:57:21Z</time>
      </trkpt>
      <trkpt lat="46.75797" lon="5.48001">
        <ele>207.2</ele>
        <time>2022-03-21T07:57:22Z</time>
      </trkpt>
      <trkpt lat="46.75803" lon="5.47994">
        <ele>207.2</ele>
        <time>2022-03-21T07:57:23Z</time>
      </trkpt>
      <trkpt lat="46.7581" lon="5.47987">
        <ele>207.2</ele>
        <time>2022-03-21T07:57:24Z</time>
      </trkpt>
      <trkpt lat="46.75816" lon="5.4798">
        <ele>207.2</ele>
        <time>2022-03-21T07:57:25Z</time>
      </trkpt>
      <trkpt lat="46.75823" lon="5.47973">
        <ele>207.2</ele>
        <time>2022-03-21T07:57:26Z</time>
      </trkpt>
      <trkpt lat="46.75829" lon="5.47966">
        <ele>206.8</ele>
        <time>2022-03-21T07:57:27Z</time>
      </trkpt>
      <trkpt lat="46.75836" lon="5.4796">
        <ele>206.8</ele>
        <time>2022-03-21T07:57:28Z</time>
      </trkpt>
      <trkpt lat="46.75843" lon="5.47953">
        <ele>206.8</ele>
        <time>2022-03-21T07:57:29Z</time>
      </trkpt>
      <trkpt lat="46.75849" lon="5.47946">
        <ele>206.8</ele>
        <time>2022-03-21T07:57:30Z</time>
      </trkpt>
      <trkpt lat="46.75856" lon="5.47939">
        <ele>206.8</ele>
        <time>2022-03-21T07:57:31Z</time>
      </trkpt>
      <trkpt lat="46.75862" lon="5.47932">
        <ele>206.8</ele>
        <time>2022-03-21T07:57:32Z</time>
      </trkpt>
      <trkpt lat="46.75869" lon="5.47925">
        <ele>206.8</ele>
        <time>2022-03-21T07:57:33Z</time>
      </trkpt>
      <trkpt lat="46.75875" lon="5.47919">
        <ele>206.6</ele>
        <time>2022-03-21T07:57:34Z</time>
      </trkpt>
      <trkpt lat="46.75882" lon="5.47911">
        <ele>206.6</ele>
        <time>2022-03-21T07:57:35Z</time>
      </trkpt>
      <trkpt lat="46.75888" lon="5.47905">
        <ele>206.6</ele>
        <time>2022-03-21T07:57:36Z</time>
      </trkpt>
      <trkpt lat="46.75895" lon="5.47898">
        <ele>206.6</ele>
        <time>2022-03-21T07:57:37Z</time>
      </trkpt>
      <trkpt lat="46.75901" lon="5.47891">
        <ele>206.6</ele>
        <time>2022-03-21T07:57:38Z</time>
      </trkpt>
      <trkpt lat="46.75908" lon="5.47885">
        <ele>206.6</ele>
        <time>2022-03-21T07:57:39Z</time>
      </trkpt>
      <trkpt lat="46.75915" lon="5.47878">
        <ele>206.6</ele>
        <time>2022-03-21T07:57:40Z</time>
      </trkpt>
      <trkpt lat="46.75921" lon="5.47871">
        <ele>206.4</ele>
        <time>2022-03-21T07:57:41Z</time>
      </trkpt>
      <trkpt lat="46.75928" lon="5.47864">
        <ele>206.4</ele>
        <time>2022-03-21T07:57:42Z</time>
      </trkpt>
      <trkpt lat="46.75934" lon="5.47857">
        <ele>206.4</ele>
        <time>2022-03-21T07:57:43Z</time>
      </trkpt>
      <trkpt lat="46.75941" lon="5.4785">
        <ele>206.4</ele>
        <time>2022-03-21T07:57:44Z</time>
      </trkpt>
      <trkpt lat="46.75947" lon="5.47843">
        <ele>206.4</ele>
        <time>2022-03-21T07:57:45Z</time>
      </trkpt>
      <trkpt lat="46.75954" lon="5.47836">
        <ele>206.4</ele>
        <time>2022-03-21T07:57:46Z</time>
      </trkpt>
      <trkpt lat="46.7596" lon="5.47829">
        <ele>206.2</ele>
        <time>2022-03-21T07:57:47Z</time>
      </trkpt>
      <trkpt lat="46.75967" lon="5.47822">
        <ele>206.2</ele>
        <time>2022-03-21T07:57:48Z</time>
      </trkpt>
      <trkpt lat="46.75973" lon="5.47815">
        <ele>206.2</ele>
        <time>2022-03-21T07:57:49Z</time>
      </trkpt>
      <trkpt lat="46.7598" lon="5.47808">
        <ele>206</ele>
        <time>2022-03-21T07:57:50Z</time>
      </trkpt>
      <trkpt lat="46.75987" lon="5.47801">
        <ele>206</ele>
        <time>2022-03-21T07:57:51Z</time>
      </trkpt>
      <trkpt lat="46.75993" lon="5.47795">
        <ele>206</ele>
        <time>2022-03-21T07:57:52Z</time>
      </trkpt>
      <trkpt lat="46.76" lon="5.47788">
        <ele>206</ele>
        <time>2022-03-21T07:57:53Z</time>
      </trkpt>
      <trkpt lat="46.76007" lon="5.4778">
        <ele>205.8</ele>
        <time>2022-03-21T07:57:54Z</time>
      </trkpt>
      <trkpt lat="46.76014" lon="5.47773">
        <ele>205.8</ele>
        <time>2022-03-21T07:57:55Z</time>
      </trkpt>
      <trkpt lat="46.7602" lon="5.47766">
        <ele>205.8</ele>
        <time>2022-03-21T07:57:56Z</time>
      </trkpt>
      <trkpt lat="46.76027" lon="5.47759">
        <ele>205.8</ele>
        <time>2022-03-21T07:57:57Z</time>
      </trkpt>
      <trkpt lat="46.76034" lon="5.47752">
        <ele>205.8</ele>
        <time>2022-03-21T07:57:58Z</time>
      </trkpt>
      <trkpt lat="46.7604" lon="5.47745">
        <ele>205.8</ele>
        <time>2022-03-21T07:57:59Z</time>
      </trkpt>
      <trkpt lat="46.76047" lon="5.47738">
        <ele>205.6</ele>
        <time>2022-03-21T07:58:00Z</time>
      </trkpt>
      <trkpt lat="46.76054" lon="5.47731">
        <ele>205.6</ele>
        <time>2022-03-21T07:58:01Z</time>
      </trkpt>
      <trkpt lat="46.76061" lon="5.47724">
        <ele>205.6</ele>
        <time>2022-03-21T07:58:02Z</time>
      </trkpt>
      <trkpt lat="46.76068" lon="5.47716">
        <ele>205.2</ele>
        <time>2022-03-21T07:58:03Z</time>
      </trkpt>
      <trkpt lat="46.76075" lon="5.47709">
        <ele>205.2</ele>
        <time>2022-03-21T07:58:04Z</time>
      </trkpt>
      <trkpt lat="46.76081" lon="5.47701">
        <ele>205.2</ele>
        <time>2022-03-21T07:58:05Z</time>
      </trkpt>
      <trkpt lat="46.76088" lon="5.47693">
        <ele>205.2</ele>
        <time>2022-03-21T07:58:06Z</time>
      </trkpt>
      <trkpt lat="46.76094" lon="5.47685">
        <ele>205.2</ele>
        <time>2022-03-21T07:58:07Z</time>
      </trkpt>
      <trkpt lat="46.76101" lon="5.47677">
        <ele>205.2</ele>
        <time>2022-03-21T07:58:08Z</time>
      </trkpt>
      <trkpt lat="46.76107" lon="5.47669">
        <ele>205.2</ele>
        <time>2022-03-21T07:58:09Z</time>
      </trkpt>
      <trkpt lat="46.76113" lon="5.4766">
        <ele>205.2</ele>
        <time>2022-03-21T07:58:10Z</time>
      </trkpt>
      <trkpt lat="46.76119" lon="5.47652">
        <ele>205.2</ele>
        <time>2022-03-21T07:58:11Z</time>
      </trkpt>
      <trkpt lat="46.76125" lon="5.47643">
        <ele>205.2</ele>
        <time>2022-03-21T07:58:12Z</time>
      </trkpt>
      <trkpt lat="46.76131" lon="5.47634">
        <ele>205.2</ele>
        <time>2022-03-21T07:58:13Z</time>
      </trkpt>
      <trkpt lat="46.76137" lon="5.47625">
        <ele>205.2</ele>
        <time>2022-03-21T07:58:14Z</time>
      </trkpt>
      <trkpt lat="46.76143" lon="5.47615">
        <ele>205.2</ele>
        <time>2022-03-21T07:58:15Z</time>
      </trkpt>
      <trkpt lat="46.76149" lon="5.47606">
        <ele>205.2</ele>
        <time>2022-03-21T07:58:16Z</time>
      </trkpt>
      <trkpt lat="46.76154" lon="5.47596">
        <ele>205.2</ele>
        <time>2022-03-21T07:58:17Z</time>
      </trkpt>
      <trkpt lat="46.76159" lon="5.47585">
        <ele>205.2</ele>
        <time>2022-03-21T07:58:18Z</time>
      </trkpt>
      <trkpt lat="46.76164" lon="5.47575">
        <ele>205</ele>
        <time>2022-03-21T07:58:19Z</time>
      </trkpt>
      <trkpt lat="46.76169" lon="5.47564">
        <ele>205</ele>
        <time>2022-03-21T07:58:20Z</time>
      </trkpt>
      <trkpt lat="46.76173" lon="5.47554">
        <ele>205</ele>
        <time>2022-03-21T07:58:21Z</time>
      </trkpt>
      <trkpt lat="46.76177" lon="5.47543">
        <ele>205</ele>
        <time>2022-03-21T07:58:22Z</time>
      </trkpt>
      <trkpt lat="46.76181" lon="5.47532">
        <ele>205</ele>
        <time>2022-03-21T07:58:23Z</time>
      </trkpt>
      <trkpt lat="46.76185" lon="5.47521">
        <ele>205</ele>
        <time>2022-03-21T07:58:24Z</time>
      </trkpt>
      <trkpt lat="46.76189" lon="5.47511">
        <ele>204.8</ele>
        <time>2022-03-21T07:58:25Z</time>
      </trkpt>
      <trkpt lat="46.76194" lon="5.475">
        <ele>204.8</ele>
        <time>2022-03-21T07:58:26Z</time>
      </trkpt>
      <trkpt lat="46.76197" lon="5.47489">
        <ele>204.8</ele>
        <time>2022-03-21T07:58:27Z</time>
      </trkpt>
      <trkpt lat="46.76201" lon="5.47478">
        <ele>204.8</ele>
        <time>2022-03-21T07:58:28Z</time>
      </trkpt>
      <trkpt lat="46.76205" lon="5.47468">
        <ele>204.8</ele>
        <time>2022-03-21T07:58:29Z</time>
      </trkpt>
      <trkpt lat="46.76208" lon="5.47458">
        <ele>204.8</ele>
        <time>2022-03-21T07:58:30Z</time>
      </trkpt>
      <trkpt lat="46.76212" lon="5.47448">
        <ele>204.8</ele>
        <time>2022-03-21T07:58:31Z</time>
      </trkpt>
      <trkpt lat="46.76216" lon="5.47438">
        <ele>204.8</ele>
        <time>2022-03-21T07:58:32Z</time>
      </trkpt>
      <trkpt lat="46.7622" lon="5.47428">
        <ele>204.8</ele>
        <time>2022-03-21T07:58:33Z</time>
      </trkpt>
      <trkpt lat="46.76224" lon="5.47419">
        <ele>204.6</ele>
        <time>2022-03-21T07:58:35Z</time>
      </trkpt>
      <trkpt lat="46.76227" lon="5.47409">
        <ele>204.6</ele>
        <time>2022-03-21T07:58:36Z</time>
      </trkpt>
      <trkpt lat="46.76231" lon="5.474">
        <ele>204.6</ele>
        <time>2022-03-21T07:58:37Z</time>
      </trkpt>
      <trkpt lat="46.76235" lon="5.4739">
        <ele>204.6</ele>
        <time>2022-03-21T07:58:38Z</time>
      </trkpt>
      <trkpt lat="46.76239" lon="5.47381">
        <ele>204.6</ele>
        <time>2022-03-21T07:58:39Z</time>
      </trkpt>
      <trkpt lat="46.76242" lon="5.47372">
        <ele>204.6</ele>
        <time>2022-03-21T07:58:40Z</time>
      </trkpt>
      <trkpt lat="46.76246" lon="5.47363">
        <ele>204.6</ele>
        <time>2022-03-21T07:58:41Z</time>
      </trkpt>
      <trkpt lat="46.76249" lon="5.47354">
        <ele>204.6</ele>
        <time>2022-03-21T07:58:42Z</time>
      </trkpt>
      <trkpt lat="46.76252" lon="5.47345">
        <ele>204.6</ele>
        <time>2022-03-21T07:58:43Z</time>
      </trkpt>
      <trkpt lat="46.76255" lon="5.47337">
        <ele>204.6</ele>
        <time>2022-03-21T07:58:44Z</time>
      </trkpt>
      <trkpt lat="46.76258" lon="5.47328">
        <ele>204.6</ele>
        <time>2022-03-21T07:58:45Z</time>
      </trkpt>
      <trkpt lat="46.76261" lon="5.4732">
        <ele>204.6</ele>
        <time>2022-03-21T07:58:46Z</time>
      </trkpt>
      <trkpt lat="46.76265" lon="5.47313">
        <ele>204.2</ele>
        <time>2022-03-21T07:58:47Z</time>
      </trkpt>
      <trkpt lat="46.76268" lon="5.47306">
        <ele>204.2</ele>
        <time>2022-03-21T07:58:48Z</time>
      </trkpt>
      <trkpt lat="46.76271" lon="5.47301">
        <ele>204.2</ele>
        <time>2022-03-21T07:58:49Z</time>
      </trkpt>
      <trkpt lat="46.76274" lon="5.47297">
        <ele>204.2</ele>
        <time>2022-03-21T07:58:50Z</time>
      </trkpt>
      <trkpt lat="46.76276" lon="5.47295">
        <ele>204.2</ele>
        <time>2022-03-21T07:58:51Z</time>
      </trkpt>
      <trkpt lat="46.76279" lon="5.47294">
        <ele>204.2</ele>
        <time>2022-03-21T07:58:52Z</time>
      </trkpt>
      <trkpt lat="46.76281" lon="5.47292">
        <ele>204.2</ele>
        <time>2022-03-21T07:58:53Z</time>
      </trkpt>
      <trkpt lat="46.76284" lon="5.47292">
        <ele>204.2</ele>
        <time>2022-03-21T07:58:54Z</time>
      </trkpt>
      <trkpt lat="46.76288" lon="5.47291">
        <ele>204.2</ele>
        <time>2022-03-21T07:58:55Z</time>
      </trkpt>
      <trkpt lat="46.76292" lon="5.4729">
        <ele>204.2</ele>
        <time>2022-03-21T07:58:56Z</time>
      </trkpt>
      <trkpt lat="46.76296" lon="5.4729">
        <ele>204.2</ele>
        <time>2022-03-21T07:58:57Z</time>
      </trkpt>
      <trkpt lat="46.76301" lon="5.47288">
        <ele>204.2</ele>
        <time>2022-03-21T07:58:58Z</time>
      </trkpt>
      <trkpt lat="46.76306" lon="5.47286">
        <ele>204.2</ele>
        <time>2022-03-21T07:58:59Z</time>
      </trkpt>
      <trkpt lat="46.76311" lon="5.47283">
        <ele>204.2</ele>
        <time>2022-03-21T07:59:00Z</time>
      </trkpt>
      <trkpt lat="46.76316" lon="5.47281">
        <ele>204.2</ele>
        <time>2022-03-21T07:59:01Z</time>
      </trkpt>
      <trkpt lat="46.76322" lon="5.47278">
        <ele>204.2</ele>
        <time>2022-03-21T07:59:02Z</time>
      </trkpt>
      <trkpt lat="46.76327" lon="5.47276">
        <ele>204.2</ele>
        <time>2022-03-21T07:59:03Z</time>
      </trkpt>
      <trkpt lat="46.76333" lon="5.47274">
        <ele>204.2</ele>
        <time>2022-03-21T07:59:04Z</time>
      </trkpt>
      <trkpt lat="46.76338" lon="5.47271">
        <ele>204.4</ele>
        <time>2022-03-21T07:59:05Z</time>
      </trkpt>
      <trkpt lat="46.76344" lon="5.47269">
        <ele>204.4</ele>
        <time>2022-03-21T07:59:06Z</time>
      </trkpt>
      <trkpt lat="46.7635" lon="5.47266">
        <ele>204.4</ele>
        <time>2022-03-21T07:59:07Z</time>
      </trkpt>
      <trkpt lat="46.76356" lon="5.47264">
        <ele>204.4</ele>
        <time>2022-03-21T07:59:08Z</time>
      </trkpt>
      <trkpt lat="46.76363" lon="5.47261">
        <ele>204.4</ele>
        <time>2022-03-21T07:59:09Z</time>
      </trkpt>
      <trkpt lat="46.76369" lon="5.47258">
        <ele>204.4</ele>
        <time>2022-03-21T07:59:10Z</time>
      </trkpt>
      <trkpt lat="46.76376" lon="5.47256">
        <ele>204.4</ele>
        <time>2022-03-21T07:59:11Z</time>
      </trkpt>
      <trkpt lat="46.76382" lon="5.47253">
        <ele>204.4</ele>
        <time>2022-03-21T07:59:12Z</time>
      </trkpt>
      <trkpt lat="46.76389" lon="5.47251">
        <ele>204.4</ele>
        <time>2022-03-21T07:59:13Z</time>
      </trkpt>
      <trkpt lat="46.76395" lon="5.47248">
        <ele>204.4</ele>
        <time>2022-03-21T07:59:14Z</time>
      </trkpt>
      <trkpt lat="46.76402" lon="5.47245">
        <ele>204.4</ele>
        <time>2022-03-21T07:59:15Z</time>
      </trkpt>
      <trkpt lat="46.76408" lon="5.47243">
        <ele>204.4</ele>
        <time>2022-03-21T07:59:16Z</time>
      </trkpt>
      <trkpt lat="46.76415" lon="5.4724">
        <ele>204.4</ele>
        <time>2022-03-21T07:59:17Z</time>
      </trkpt>
      <trkpt lat="46.76421" lon="5.47237">
        <ele>204.4</ele>
        <time>2022-03-21T07:59:18Z</time>
      </trkpt>
      <trkpt lat="46.76428" lon="5.47235">
        <ele>204.4</ele>
        <time>2022-03-21T07:59:19Z</time>
      </trkpt>
      <trkpt lat="46.76434" lon="5.47232">
        <ele>204.4</ele>
        <time>2022-03-21T07:59:20Z</time>
      </trkpt>
      <trkpt lat="46.76441" lon="5.47229">
        <ele>204.4</ele>
        <time>2022-03-21T07:59:21Z</time>
      </trkpt>
      <trkpt lat="46.76448" lon="5.47226">
        <ele>204.4</ele>
        <time>2022-03-21T07:59:22Z</time>
      </trkpt>
      <trkpt lat="46.76455" lon="5.47224">
        <ele>204.4</ele>
        <time>2022-03-21T07:59:23Z</time>
      </trkpt>
      <trkpt lat="46.76462" lon="5.47221">
        <ele>204.4</ele>
        <time>2022-03-21T07:59:24Z</time>
      </trkpt>
      <trkpt lat="46.76469" lon="5.47218">
        <ele>204.4</ele>
        <time>2022-03-21T07:59:25Z</time>
      </trkpt>
      <trkpt lat="46.76476" lon="5.47215">
        <ele>204.4</ele>
        <time>2022-03-21T07:59:26Z</time>
      </trkpt>
      <trkpt lat="46.76483" lon="5.47212">
        <ele>204.4</ele>
        <time>2022-03-21T07:59:27Z</time>
      </trkpt>
      <trkpt lat="46.7649" lon="5.47209">
        <ele>204.4</ele>
        <time>2022-03-21T07:59:28Z</time>
      </trkpt>
      <trkpt lat="46.76497" lon="5.47206">
        <ele>204.4</ele>
        <time>2022-03-21T07:59:29Z</time>
      </trkpt>
      <trkpt lat="46.76504" lon="5.47203">
        <ele>204.4</ele>
        <time>2022-03-21T07:59:30Z</time>
      </trkpt>
      <trkpt lat="46.76511" lon="5.472">
        <ele>204.4</ele>
        <time>2022-03-21T07:59:31Z</time>
      </trkpt>
      <trkpt lat="46.76518" lon="5.47198">
        <ele>204.8</ele>
        <time>2022-03-21T07:59:32Z</time>
      </trkpt>
      <trkpt lat="46.76525" lon="5.47195">
        <ele>204.8</ele>
        <time>2022-03-21T07:59:33Z</time>
      </trkpt>
      <trkpt lat="46.76532" lon="5.47192">
        <ele>205</ele>
        <time>2022-03-21T07:59:34Z</time>
      </trkpt>
      <trkpt lat="46.76539" lon="5.47189">
        <ele>205</ele>
        <time>2022-03-21T07:59:35Z</time>
      </trkpt>
      <trkpt lat="46.76546" lon="5.47186">
        <ele>205.2</ele>
        <time>2022-03-21T07:59:36Z</time>
      </trkpt>
      <trkpt lat="46.76553" lon="5.47183">
        <ele>205.2</ele>
        <time>2022-03-21T07:59:37Z</time>
      </trkpt>
      <trkpt lat="46.7656" lon="5.4718">
        <ele>205.2</ele>
        <time>2022-03-21T07:59:38Z</time>
      </trkpt>
      <trkpt lat="46.76567" lon="5.47178">
        <ele>205.4</ele>
        <time>2022-03-21T07:59:39Z</time>
      </trkpt>
      <trkpt lat="46.76574" lon="5.47175">
        <ele>205.4</ele>
        <time>2022-03-21T07:59:40Z</time>
      </trkpt>
      <trkpt lat="46.7658" lon="5.47172">
        <ele>206</ele>
        <time>2022-03-21T07:59:41Z</time>
      </trkpt>
      <trkpt lat="46.76587" lon="5.47169">
        <ele>206</ele>
        <time>2022-03-21T07:59:42Z</time>
      </trkpt>
      <trkpt lat="46.76593" lon="5.47166">
        <ele>206</ele>
        <time>2022-03-21T07:59:43Z</time>
      </trkpt>
      <trkpt lat="46.766" lon="5.47163">
        <ele>206.4</ele>
        <time>2022-03-21T07:59:44Z</time>
      </trkpt>
      <trkpt lat="46.76606" lon="5.47161">
        <ele>206.4</ele>
        <time>2022-03-21T07:59:45Z</time>
      </trkpt>
      <trkpt lat="46.76613" lon="5.47158">
        <ele>206.6</ele>
        <time>2022-03-21T07:59:46Z</time>
      </trkpt>
      <trkpt lat="46.76619" lon="5.47155">
        <ele>206.6</ele>
        <time>2022-03-21T07:59:47Z</time>
      </trkpt>
      <trkpt lat="46.76625" lon="5.47153">
        <ele>206.8</ele>
        <time>2022-03-21T07:59:48Z</time>
      </trkpt>
      <trkpt lat="46.76632" lon="5.4715">
        <ele>206.8</ele>
        <time>2022-03-21T07:59:49Z</time>
      </trkpt>
      <trkpt lat="46.76637" lon="5.47147">
        <ele>207.2</ele>
        <time>2022-03-21T07:59:50Z</time>
      </trkpt>
      <trkpt lat="46.76643" lon="5.47145">
        <ele>207.2</ele>
        <time>2022-03-21T07:59:51Z</time>
      </trkpt>
      <trkpt lat="46.76649" lon="5.47143">
        <ele>207.4</ele>
        <time>2022-03-21T07:59:52Z</time>
      </trkpt>
      <trkpt lat="46.76655" lon="5.47141">
        <ele>207.6</ele>
        <time>2022-03-21T07:59:53Z</time>
      </trkpt>
      <trkpt lat="46.76661" lon="5.47138">
        <ele>208</ele>
        <time>2022-03-21T07:59:54Z</time>
      </trkpt>
      <trkpt lat="46.76667" lon="5.47136">
        <ele>208.2</ele>
        <time>2022-03-21T07:59:55Z</time>
      </trkpt>
      <trkpt lat="46.76673" lon="5.47133">
        <ele>208.4</ele>
        <time>2022-03-21T07:59:56Z</time>
      </trkpt>
      <trkpt lat="46.76678" lon="5.47131">
        <ele>208.8</ele>
        <time>2022-03-21T07:59:57Z</time>
      </trkpt>
      <trkpt lat="46.76684" lon="5.47128">
        <ele>209</ele>
        <time>2022-03-21T07:59:58Z</time>
      </trkpt>
      <trkpt lat="46.7669" lon="5.47125">
        <ele>209.2</ele>
        <time>2022-03-21T07:59:59Z</time>
      </trkpt>
      <trkpt lat="46.76695" lon="5.47122">
        <ele>209.4</ele>
        <time>2022-03-21T08:00:00Z</time>
      </trkpt>
      <trkpt lat="46.76701" lon="5.47119">
        <ele>209.8</ele>
        <time>2022-03-21T08:00:01Z</time>
      </trkpt>
      <trkpt lat="46.76706" lon="5.47117">
        <ele>209.8</ele>
        <time>2022-03-21T08:00:02Z</time>
      </trkpt>
      <trkpt lat="46.76712" lon="5.47115">
        <ele>210.2</ele>
        <time>2022-03-21T08:00:03Z</time>
      </trkpt>
      <trkpt lat="46.76718" lon="5.47113">
        <ele>210.4</ele>
        <time>2022-03-21T08:00:04Z</time>
      </trkpt>
      <trkpt lat="46.76723" lon="5.47111">
        <ele>210.6</ele>
        <time>2022-03-21T08:00:05Z</time>
      </trkpt>
      <trkpt lat="46.76729" lon="5.47109">
        <ele>210.8</ele>
        <time>2022-03-21T08:00:06Z</time>
      </trkpt>
      <trkpt lat="46.76735" lon="5.47107">
        <ele>211.2</ele>
        <time>2022-03-21T08:00:07Z</time>
      </trkpt>
      <trkpt lat="46.7674" lon="5.47105">
        <ele>211.4</ele>
        <time>2022-03-21T08:00:08Z</time>
      </trkpt>
      <trkpt lat="46.76746" lon="5.47103">
        <ele>211.6</ele>
        <time>2022-03-21T08:00:09Z</time>
      </trkpt>
      <trkpt lat="46.76751" lon="5.47101">
        <ele>212</ele>
        <time>2022-03-21T08:00:10Z</time>
      </trkpt>
      <trkpt lat="46.76756" lon="5.47099">
        <ele>212</ele>
        <time>2022-03-21T08:00:11Z</time>
      </trkpt>
      <trkpt lat="46.76762" lon="5.47097">
        <ele>212.2</ele>
        <time>2022-03-21T08:00:12Z</time>
      </trkpt>
      <trkpt lat="46.76767" lon="5.47095">
        <ele>212.4</ele>
        <time>2022-03-21T08:00:13Z</time>
      </trkpt>
      <trkpt lat="46.76773" lon="5.47093">
        <ele>212.4</ele>
        <time>2022-03-21T08:00:14Z</time>
      </trkpt>
      <trkpt lat="46.76778" lon="5.47091">
        <ele>212.8</ele>
        <time>2022-03-21T08:00:15Z</time>
      </trkpt>
      <trkpt lat="46.76784" lon="5.47089">
        <ele>212.8</ele>
        <time>2022-03-21T08:00:16Z</time>
      </trkpt>
      <trkpt lat="46.76789" lon="5.47086">
        <ele>213.2</ele>
        <time>2022-03-21T08:00:17Z</time>
      </trkpt>
      <trkpt lat="46.76794" lon="5.47084">
        <ele>213.4</ele>
        <time>2022-03-21T08:00:18Z</time>
      </trkpt>
      <trkpt lat="46.76799" lon="5.47081">
        <ele>213.6</ele>
        <time>2022-03-21T08:00:19Z</time>
      </trkpt>
      <trkpt lat="46.76805" lon="5.47079">
        <ele>213.6</ele>
        <time>2022-03-21T08:00:20Z</time>
      </trkpt>
      <trkpt lat="46.7681" lon="5.47077">
        <ele>214</ele>
        <time>2022-03-21T08:00:21Z</time>
      </trkpt>
      <trkpt lat="46.76816" lon="5.47074">
        <ele>214</ele>
        <time>2022-03-21T08:00:22Z</time>
      </trkpt>
      <trkpt lat="46.76821" lon="5.47072">
        <ele>214.2</ele>
        <time>2022-03-21T08:00:23Z</time>
      </trkpt>
      <trkpt lat="46.76827" lon="5.47069">
        <ele>214.2</ele>
        <time>2022-03-21T08:00:24Z</time>
      </trkpt>
      <trkpt lat="46.76832" lon="5.47067">
        <ele>214.2</ele>
        <time>2022-03-21T08:00:25Z</time>
      </trkpt>
      <trkpt lat="46.76838" lon="5.47064">
        <ele>214.4</ele>
        <time>2022-03-21T08:00:26Z</time>
      </trkpt>
      <trkpt lat="46.76843" lon="5.47062">
        <ele>214.4</ele>
        <time>2022-03-21T08:00:27Z</time>
      </trkpt>
      <trkpt lat="46.76849" lon="5.4706">
        <ele>214.4</ele>
        <time>2022-03-21T08:00:28Z</time>
      </trkpt>
      <trkpt lat="46.76855" lon="5.47057">
        <ele>214.4</ele>
        <time>2022-03-21T08:00:29Z</time>
      </trkpt>
      <trkpt lat="46.76861" lon="5.47055">
        <ele>214.4</ele>
        <time>2022-03-21T08:00:30Z</time>
      </trkpt>
      <trkpt lat="46.76867" lon="5.47052">
        <ele>214.4</ele>
        <time>2022-03-21T08:00:31Z</time>
      </trkpt>
      <trkpt lat="46.76873" lon="5.47049">
        <ele>214.6</ele>
        <time>2022-03-21T08:00:32Z</time>
      </trkpt>
      <trkpt lat="46.76879" lon="5.47045">
        <ele>214.6</ele>
        <time>2022-03-21T08:00:33Z</time>
      </trkpt>
      <trkpt lat="46.76886" lon="5.47043">
        <ele>214.6</ele>
        <time>2022-03-21T08:00:34Z</time>
      </trkpt>
      <trkpt lat="46.76892" lon="5.4704">
        <ele>214.6</ele>
        <time>2022-03-21T08:00:35Z</time>
      </trkpt>
      <trkpt lat="46.76899" lon="5.47037">
        <ele>214.6</ele>
        <time>2022-03-21T08:00:36Z</time>
      </trkpt>
      <trkpt lat="46.76906" lon="5.47035">
        <ele>214.6</ele>
        <time>2022-03-21T08:00:37Z</time>
      </trkpt>
      <trkpt lat="46.76917" lon="5.4703">
        <ele>214.6</ele>
        <time>2022-03-21T08:00:38Z</time>
      </trkpt>
      <trkpt lat="46.7692" lon="5.47029">
        <ele>214.6</ele>
        <time>2022-03-21T08:00:39Z</time>
      </trkpt>
      <trkpt lat="46.76928" lon="5.47026">
        <ele>214.4</ele>
        <time>2022-03-21T08:00:40Z</time>
      </trkpt>
      <trkpt lat="46.76935" lon="5.47023">
        <ele>214.4</ele>
        <time>2022-03-21T08:00:41Z</time>
      </trkpt>
      <trkpt lat="46.76942" lon="5.47019">
        <ele>214.2</ele>
        <time>2022-03-21T08:00:42Z</time>
      </trkpt>
      <trkpt lat="46.7695" lon="5.47016">
        <ele>214.2</ele>
        <time>2022-03-21T08:00:43Z</time>
      </trkpt>
      <trkpt lat="46.76958" lon="5.47013">
        <ele>214</ele>
        <time>2022-03-21T08:00:44Z</time>
      </trkpt>
      <trkpt lat="46.76966" lon="5.4701">
        <ele>214</ele>
        <time>2022-03-21T08:00:45Z</time>
      </trkpt>
      <trkpt lat="46.76973" lon="5.47006">
        <ele>213.6</ele>
        <time>2022-03-21T08:00:46Z</time>
      </trkpt>
      <trkpt lat="46.76981" lon="5.47003">
        <ele>213.6</ele>
        <time>2022-03-21T08:00:47Z</time>
      </trkpt>
      <trkpt lat="46.7699" lon="5.47">
        <ele>213.4</ele>
        <time>2022-03-21T08:00:48Z</time>
      </trkpt>
      <trkpt lat="46.76998" lon="5.46997">
        <ele>213.4</ele>
        <time>2022-03-21T08:00:49Z</time>
      </trkpt>
      <trkpt lat="46.77006" lon="5.46994">
        <ele>213.2</ele>
        <time>2022-03-21T08:00:50Z</time>
      </trkpt>
      <trkpt lat="46.77015" lon="5.46991">
        <ele>213.2</ele>
        <time>2022-03-21T08:00:51Z</time>
      </trkpt>
      <trkpt lat="46.77023" lon="5.46989">
        <ele>212.8</ele>
        <time>2022-03-21T08:00:52Z</time>
      </trkpt>
      <trkpt lat="46.77031" lon="5.46985">
        <ele>212.8</ele>
        <time>2022-03-21T08:00:53Z</time>
      </trkpt>
      <trkpt lat="46.77039" lon="5.46982">
        <ele>212.4</ele>
        <time>2022-03-21T08:00:54Z</time>
      </trkpt>
      <trkpt lat="46.77048" lon="5.46979">
        <ele>212.4</ele>
        <time>2022-03-21T08:00:55Z</time>
      </trkpt>
      <trkpt lat="46.77056" lon="5.46976">
        <ele>212.2</ele>
        <time>2022-03-21T08:00:56Z</time>
      </trkpt>
      <trkpt lat="46.77064" lon="5.46973">
        <ele>211.8</ele>
        <time>2022-03-21T08:00:57Z</time>
      </trkpt>
      <trkpt lat="46.77072" lon="5.4697">
        <ele>211.8</ele>
        <time>2022-03-21T08:00:58Z</time>
      </trkpt>
      <trkpt lat="46.7708" lon="5.46967">
        <ele>211.6</ele>
        <time>2022-03-21T08:00:59Z</time>
      </trkpt>
      <trkpt lat="46.77089" lon="5.46964">
        <ele>211.4</ele>
        <time>2022-03-21T08:01:00Z</time>
      </trkpt>
      <trkpt lat="46.77097" lon="5.46961">
        <ele>211</ele>
        <time>2022-03-21T08:01:02Z</time>
      </trkpt>
      <trkpt lat="46.77105" lon="5.46958">
        <ele>211</ele>
        <time>2022-03-21T08:01:03Z</time>
      </trkpt>
      <trkpt lat="46.77113" lon="5.46954">
        <ele>210.8</ele>
        <time>2022-03-21T08:01:04Z</time>
      </trkpt>
      <trkpt lat="46.77121" lon="5.46951">
        <ele>210.8</ele>
        <time>2022-03-21T08:01:05Z</time>
      </trkpt>
      <trkpt lat="46.77129" lon="5.46948">
        <ele>210.6</ele>
        <time>2022-03-21T08:01:06Z</time>
      </trkpt>
      <trkpt lat="46.77145" lon="5.46941">
        <ele>210.6</ele>
        <time>2022-03-21T08:01:07Z</time>
      </trkpt>
      <trkpt lat="46.77153" lon="5.46938">
        <ele>210.6</ele>
        <time>2022-03-21T08:01:08Z</time>
      </trkpt>
      <trkpt lat="46.7716" lon="5.46935">
        <ele>210.6</ele>
        <time>2022-03-21T08:01:09Z</time>
      </trkpt>
      <trkpt lat="46.77168" lon="5.46932">
        <ele>210.6</ele>
        <time>2022-03-21T08:01:10Z</time>
      </trkpt>
      <trkpt lat="46.77176" lon="5.46928">
        <ele>210.6</ele>
        <time>2022-03-21T08:01:11Z</time>
      </trkpt>
      <trkpt lat="46.77183" lon="5.46925">
        <ele>210.6</ele>
        <time>2022-03-21T08:01:12Z</time>
      </trkpt>
      <trkpt lat="46.77191" lon="5.46922">
        <ele>210.4</ele>
        <time>2022-03-21T08:01:13Z</time>
      </trkpt>
      <trkpt lat="46.77198" lon="5.46919">
        <ele>210.4</ele>
        <time>2022-03-21T08:01:14Z</time>
      </trkpt>
      <trkpt lat="46.77206" lon="5.46916">
        <ele>210.4</ele>
        <time>2022-03-21T08:01:15Z</time>
      </trkpt>
      <trkpt lat="46.77214" lon="5.46912">
        <ele>210.4</ele>
        <time>2022-03-21T08:01:16Z</time>
      </trkpt>
      <trkpt lat="46.77225" lon="5.46907">
        <ele>210.4</ele>
        <time>2022-03-21T08:01:17Z</time>
      </trkpt>
      <trkpt lat="46.77229" lon="5.46906">
        <ele>210.4</ele>
        <time>2022-03-21T08:01:18Z</time>
      </trkpt>
      <trkpt lat="46.77237" lon="5.46902">
        <ele>210.4</ele>
        <time>2022-03-21T08:01:19Z</time>
      </trkpt>
      <trkpt lat="46.77245" lon="5.46899">
        <ele>210.4</ele>
        <time>2022-03-21T08:01:20Z</time>
      </trkpt>
      <trkpt lat="46.77253" lon="5.46895">
        <ele>210.4</ele>
        <time>2022-03-21T08:01:21Z</time>
      </trkpt>
      <trkpt lat="46.77261" lon="5.46892">
        <ele>210.4</ele>
        <time>2022-03-21T08:01:22Z</time>
      </trkpt>
      <trkpt lat="46.77269" lon="5.46889">
        <ele>210.4</ele>
        <time>2022-03-21T08:01:23Z</time>
      </trkpt>
      <trkpt lat="46.77277" lon="5.46886">
        <ele>210.4</ele>
        <time>2022-03-21T08:01:24Z</time>
      </trkpt>
      <trkpt lat="46.77285" lon="5.46883">
        <ele>210.4</ele>
        <time>2022-03-21T08:01:25Z</time>
      </trkpt>
      <trkpt lat="46.77293" lon="5.4688">
        <ele>210.4</ele>
        <time>2022-03-21T08:01:26Z</time>
      </trkpt>
      <trkpt lat="46.77305" lon="5.46875">
        <ele>210.4</ele>
        <time>2022-03-21T08:01:27Z</time>
      </trkpt>
      <trkpt lat="46.77309" lon="5.46873">
        <ele>210.4</ele>
        <time>2022-03-21T08:01:28Z</time>
      </trkpt>
      <trkpt lat="46.77317" lon="5.4687">
        <ele>210.4</ele>
        <time>2022-03-21T08:01:29Z</time>
      </trkpt>
      <trkpt lat="46.77324" lon="5.46867">
        <ele>210.4</ele>
        <time>2022-03-21T08:01:30Z</time>
      </trkpt>
      <trkpt lat="46.77336" lon="5.46862">
        <ele>210.4</ele>
        <time>2022-03-21T08:01:31Z</time>
      </trkpt>
      <trkpt lat="46.7734" lon="5.46861">
        <ele>210.4</ele>
        <time>2022-03-21T08:01:32Z</time>
      </trkpt>
      <trkpt lat="46.77348" lon="5.46858">
        <ele>210.4</ele>
        <time>2022-03-21T08:01:33Z</time>
      </trkpt>
      <trkpt lat="46.77355" lon="5.46854">
        <ele>210.4</ele>
        <time>2022-03-21T08:01:34Z</time>
      </trkpt>
      <trkpt lat="46.77362" lon="5.46851">
        <ele>210.6</ele>
        <time>2022-03-21T08:01:35Z</time>
      </trkpt>
      <trkpt lat="46.7737" lon="5.46848">
        <ele>210.6</ele>
        <time>2022-03-21T08:01:36Z</time>
      </trkpt>
      <trkpt lat="46.77384" lon="5.46842">
        <ele>210.8</ele>
        <time>2022-03-21T08:01:37Z</time>
      </trkpt>
      <trkpt lat="46.77391" lon="5.4684">
        <ele>210.8</ele>
        <time>2022-03-21T08:01:38Z</time>
      </trkpt>
      <trkpt lat="46.77398" lon="5.46837">
        <ele>211.2</ele>
        <time>2022-03-21T08:01:39Z</time>
      </trkpt>
      <trkpt lat="46.77405" lon="5.46835">
        <ele>211.4</ele>
        <time>2022-03-21T08:01:40Z</time>
      </trkpt>
      <trkpt lat="46.77412" lon="5.46832">
        <ele>211.4</ele>
        <time>2022-03-21T08:01:41Z</time>
      </trkpt>
      <trkpt lat="46.77419" lon="5.46829">
        <ele>211.6</ele>
        <time>2022-03-21T08:01:42Z</time>
      </trkpt>
      <trkpt lat="46.77426" lon="5.46826">
        <ele>211.6</ele>
        <time>2022-03-21T08:01:43Z</time>
      </trkpt>
      <trkpt lat="46.77432" lon="5.46823">
        <ele>211.6</ele>
        <time>2022-03-21T08:01:44Z</time>
      </trkpt>
      <trkpt lat="46.77439" lon="5.4682">
        <ele>212</ele>
        <time>2022-03-21T08:01:45Z</time>
      </trkpt>
      <trkpt lat="46.77446" lon="5.46817">
        <ele>212</ele>
        <time>2022-03-21T08:01:46Z</time>
      </trkpt>
      <trkpt lat="46.77452" lon="5.46814">
        <ele>212</ele>
        <time>2022-03-21T08:01:47Z</time>
      </trkpt>
      <trkpt lat="46.77459" lon="5.46811">
        <ele>212.2</ele>
        <time>2022-03-21T08:01:48Z</time>
      </trkpt>
      <trkpt lat="46.77466" lon="5.46808">
        <ele>212.2</ele>
        <time>2022-03-21T08:01:49Z</time>
      </trkpt>
      <trkpt lat="46.77473" lon="5.46805">
        <ele>212.4</ele>
        <time>2022-03-21T08:01:50Z</time>
      </trkpt>
      <trkpt lat="46.7748" lon="5.46802">
        <ele>212.4</ele>
        <time>2022-03-21T08:01:51Z</time>
      </trkpt>
      <trkpt lat="46.77486" lon="5.46799">
        <ele>212.8</ele>
        <time>2022-03-21T08:01:52Z</time>
      </trkpt>
      <trkpt lat="46.77493" lon="5.46796">
        <ele>212.8</ele>
        <time>2022-03-21T08:01:53Z</time>
      </trkpt>
      <trkpt lat="46.775" lon="5.46793">
        <ele>213.2</ele>
        <time>2022-03-21T08:01:54Z</time>
      </trkpt>
      <trkpt lat="46.77507" lon="5.46791">
        <ele>213.2</ele>
        <time>2022-03-21T08:01:55Z</time>
      </trkpt>
      <trkpt lat="46.77513" lon="5.46788">
        <ele>213.6</ele>
        <time>2022-03-21T08:01:56Z</time>
      </trkpt>
      <trkpt lat="46.7752" lon="5.46785">
        <ele>213.8</ele>
        <time>2022-03-21T08:01:57Z</time>
      </trkpt>
      <trkpt lat="46.77527" lon="5.46783">
        <ele>213.8</ele>
        <time>2022-03-21T08:01:58Z</time>
      </trkpt>
      <trkpt lat="46.77534" lon="5.4678">
        <ele>214.2</ele>
        <time>2022-03-21T08:01:59Z</time>
      </trkpt>
      <trkpt lat="46.77541" lon="5.46777">
        <ele>214.2</ele>
        <time>2022-03-21T08:02:00Z</time>
      </trkpt>
      <trkpt lat="46.77548" lon="5.46774">
        <ele>214.4</ele>
        <time>2022-03-21T08:02:01Z</time>
      </trkpt>
      <trkpt lat="46.77555" lon="5.46771">
        <ele>214.4</ele>
        <time>2022-03-21T08:02:02Z</time>
      </trkpt>
      <trkpt lat="46.77562" lon="5.46768">
        <ele>214.8</ele>
        <time>2022-03-21T08:02:03Z</time>
      </trkpt>
      <trkpt lat="46.77569" lon="5.46766">
        <ele>214.8</ele>
        <time>2022-03-21T08:02:04Z</time>
      </trkpt>
      <trkpt lat="46.77576" lon="5.46763">
        <ele>215</ele>
        <time>2022-03-21T08:02:05Z</time>
      </trkpt>
      <trkpt lat="46.77583" lon="5.4676">
        <ele>215</ele>
        <time>2022-03-21T08:02:06Z</time>
      </trkpt>
      <trkpt lat="46.7759" lon="5.46757">
        <ele>215.2</ele>
        <time>2022-03-21T08:02:07Z</time>
      </trkpt>
      <trkpt lat="46.77597" lon="5.46753">
        <ele>215.2</ele>
        <time>2022-03-21T08:02:08Z</time>
      </trkpt>
      <trkpt lat="46.77603" lon="5.46751">
        <ele>215.6</ele>
        <time>2022-03-21T08:02:09Z</time>
      </trkpt>
      <trkpt lat="46.7761" lon="5.46747">
        <ele>215.6</ele>
        <time>2022-03-21T08:02:10Z</time>
      </trkpt>
      <trkpt lat="46.77617" lon="5.46744">
        <ele>215.8</ele>
        <time>2022-03-21T08:02:11Z</time>
      </trkpt>
      <trkpt lat="46.77624" lon="5.46741">
        <ele>215.8</ele>
        <time>2022-03-21T08:02:12Z</time>
      </trkpt>
      <trkpt lat="46.77631" lon="5.46738">
        <ele>216</ele>
        <time>2022-03-21T08:02:13Z</time>
      </trkpt>
      <trkpt lat="46.77638" lon="5.46735">
        <ele>216</ele>
        <time>2022-03-21T08:02:14Z</time>
      </trkpt>
      <trkpt lat="46.77645" lon="5.46732">
        <ele>216.4</ele>
        <time>2022-03-21T08:02:15Z</time>
      </trkpt>
      <trkpt lat="46.77652" lon="5.46729">
        <ele>216.4</ele>
        <time>2022-03-21T08:02:16Z</time>
      </trkpt>
      <trkpt lat="46.77658" lon="5.46726">
        <ele>216.6</ele>
        <time>2022-03-21T08:02:17Z</time>
      </trkpt>
      <trkpt lat="46.77666" lon="5.46723">
        <ele>216.6</ele>
        <time>2022-03-21T08:02:18Z</time>
      </trkpt>
      <trkpt lat="46.77673" lon="5.4672">
        <ele>217</ele>
        <time>2022-03-21T08:02:19Z</time>
      </trkpt>
      <trkpt lat="46.7768" lon="5.46718">
        <ele>217</ele>
        <time>2022-03-21T08:02:20Z</time>
      </trkpt>
      <trkpt lat="46.77687" lon="5.46715">
        <ele>217</ele>
        <time>2022-03-21T08:02:21Z</time>
      </trkpt>
      <trkpt lat="46.77695" lon="5.46712">
        <ele>217.2</ele>
        <time>2022-03-21T08:02:22Z</time>
      </trkpt>
      <trkpt lat="46.77702" lon="5.46709">
        <ele>217.2</ele>
        <time>2022-03-21T08:02:23Z</time>
      </trkpt>
      <trkpt lat="46.77709" lon="5.46706">
        <ele>217.2</ele>
        <time>2022-03-21T08:02:24Z</time>
      </trkpt>
      <trkpt lat="46.77716" lon="5.46703">
        <ele>217.4</ele>
        <time>2022-03-21T08:02:25Z</time>
      </trkpt>
      <trkpt lat="46.77724" lon="5.467">
        <ele>217.4</ele>
        <time>2022-03-21T08:02:26Z</time>
      </trkpt>
      <trkpt lat="46.77731" lon="5.46697">
        <ele>217.8</ele>
        <time>2022-03-21T08:02:27Z</time>
      </trkpt>
      <trkpt lat="46.77738" lon="5.46694">
        <ele>217.8</ele>
        <time>2022-03-21T08:02:28Z</time>
      </trkpt>
      <trkpt lat="46.77745" lon="5.46691">
        <ele>218</ele>
        <time>2022-03-21T08:02:29Z</time>
      </trkpt>
      <trkpt lat="46.77752" lon="5.46688">
        <ele>218</ele>
        <time>2022-03-21T08:02:30Z</time>
      </trkpt>
      <trkpt lat="46.77759" lon="5.46685">
        <ele>218.2</ele>
        <time>2022-03-21T08:02:31Z</time>
      </trkpt>
      <trkpt lat="46.77766" lon="5.46683">
        <ele>218.2</ele>
        <time>2022-03-21T08:02:32Z</time>
      </trkpt>
      <trkpt lat="46.77773" lon="5.4668">
        <ele>218.6</ele>
        <time>2022-03-21T08:02:33Z</time>
      </trkpt>
      <trkpt lat="46.77779" lon="5.46677">
        <ele>218.8</ele>
        <time>2022-03-21T08:02:34Z</time>
      </trkpt>
      <trkpt lat="46.77783" lon="5.46675">
        <ele>218.8</ele>
        <time>2022-03-21T08:02:35Z</time>
      </trkpt>
      <trkpt lat="46.77786" lon="5.46674">
        <ele>218.8</ele>
        <time>2022-03-21T08:02:36Z</time>
      </trkpt>
      <trkpt lat="46.77792" lon="5.46671">
        <ele>219</ele>
        <time>2022-03-21T08:02:37Z</time>
      </trkpt>
      <trkpt lat="46.77799" lon="5.46669">
        <ele>219</ele>
        <time>2022-03-21T08:02:38Z</time>
      </trkpt>
      <trkpt lat="46.77806" lon="5.46666">
        <ele>219.6</ele>
        <time>2022-03-21T08:02:39Z</time>
      </trkpt>
      <trkpt lat="46.77812" lon="5.46664">
        <ele>219.6</ele>
        <time>2022-03-21T08:02:40Z</time>
      </trkpt>
      <trkpt lat="46.77819" lon="5.46661">
        <ele>219.8</ele>
        <time>2022-03-21T08:02:41Z</time>
      </trkpt>
      <trkpt lat="46.77825" lon="5.46659">
        <ele>219.8</ele>
        <time>2022-03-21T08:02:42Z</time>
      </trkpt>
      <trkpt lat="46.77832" lon="5.46656">
        <ele>219.8</ele>
        <time>2022-03-21T08:02:43Z</time>
      </trkpt>
      <trkpt lat="46.77838" lon="5.46654">
        <ele>220.2</ele>
        <time>2022-03-21T08:02:44Z</time>
      </trkpt>
      <trkpt lat="46.77844" lon="5.46651">
        <ele>220.2</ele>
        <time>2022-03-21T08:02:45Z</time>
      </trkpt>
      <trkpt lat="46.77851" lon="5.46649">
        <ele>220.4</ele>
        <time>2022-03-21T08:02:46Z</time>
      </trkpt>
      <trkpt lat="46.77857" lon="5.46646">
        <ele>220.4</ele>
        <time>2022-03-21T08:02:47Z</time>
      </trkpt>
      <trkpt lat="46.77863" lon="5.46644">
        <ele>220.8</ele>
        <time>2022-03-21T08:02:48Z</time>
      </trkpt>
      <trkpt lat="46.77869" lon="5.46641">
        <ele>221</ele>
        <time>2022-03-21T08:02:49Z</time>
      </trkpt>
      <trkpt lat="46.77875" lon="5.46639">
        <ele>221</ele>
        <time>2022-03-21T08:02:50Z</time>
      </trkpt>
      <trkpt lat="46.77881" lon="5.46636">
        <ele>221.4</ele>
        <time>2022-03-21T08:02:51Z</time>
      </trkpt>
      <trkpt lat="46.77887" lon="5.46634">
        <ele>221.4</ele>
        <time>2022-03-21T08:02:52Z</time>
      </trkpt>
      <trkpt lat="46.77893" lon="5.46631">
        <ele>221.8</ele>
        <time>2022-03-21T08:02:53Z</time>
      </trkpt>
      <trkpt lat="46.77899" lon="5.46628">
        <ele>221.8</ele>
        <time>2022-03-21T08:02:54Z</time>
      </trkpt>
      <trkpt lat="46.77905" lon="5.46625">
        <ele>222</ele>
        <time>2022-03-21T08:02:55Z</time>
      </trkpt>
      <trkpt lat="46.77911" lon="5.46622">
        <ele>222</ele>
        <time>2022-03-21T08:02:56Z</time>
      </trkpt>
      <trkpt lat="46.77918" lon="5.4662">
        <ele>222.4</ele>
        <time>2022-03-21T08:02:57Z</time>
      </trkpt>
      <trkpt lat="46.77924" lon="5.46618">
        <ele>222.4</ele>
        <time>2022-03-21T08:02:58Z</time>
      </trkpt>
      <trkpt lat="46.7793" lon="5.46616">
        <ele>222.6</ele>
        <time>2022-03-21T08:02:59Z</time>
      </trkpt>
      <trkpt lat="46.77936" lon="5.46613">
        <ele>222.6</ele>
        <time>2022-03-21T08:03:00Z</time>
      </trkpt>
      <trkpt lat="46.77942" lon="5.46609">
        <ele>222.8</ele>
        <time>2022-03-21T08:03:01Z</time>
      </trkpt>
      <trkpt lat="46.77949" lon="5.46606">
        <ele>222.8</ele>
        <time>2022-03-21T08:03:02Z</time>
      </trkpt>
      <trkpt lat="46.77955" lon="5.46603">
        <ele>222.8</ele>
        <time>2022-03-21T08:03:03Z</time>
      </trkpt>
      <trkpt lat="46.77962" lon="5.466">
        <ele>222.8</ele>
        <time>2022-03-21T08:03:04Z</time>
      </trkpt>
      <trkpt lat="46.77968" lon="5.46597">
        <ele>223</ele>
        <time>2022-03-21T08:03:05Z</time>
      </trkpt>
      <trkpt lat="46.77975" lon="5.46594">
        <ele>223</ele>
        <time>2022-03-21T08:03:06Z</time>
      </trkpt>
      <trkpt lat="46.77982" lon="5.46592">
        <ele>223</ele>
        <time>2022-03-21T08:03:07Z</time>
      </trkpt>
      <trkpt lat="46.77989" lon="5.46589">
        <ele>223</ele>
        <time>2022-03-21T08:03:08Z</time>
      </trkpt>
      <trkpt lat="46.77996" lon="5.46586">
        <ele>223</ele>
        <time>2022-03-21T08:03:09Z</time>
      </trkpt>
      <trkpt lat="46.78003" lon="5.46583">
        <ele>223</ele>
        <time>2022-03-21T08:03:10Z</time>
      </trkpt>
      <trkpt lat="46.7801" lon="5.4658">
        <ele>223</ele>
        <time>2022-03-21T08:03:11Z</time>
      </trkpt>
      <trkpt lat="46.78018" lon="5.46577">
        <ele>223</ele>
        <time>2022-03-21T08:03:12Z</time>
      </trkpt>
      <trkpt lat="46.78025" lon="5.46574">
        <ele>223</ele>
        <time>2022-03-21T08:03:13Z</time>
      </trkpt>
      <trkpt lat="46.78032" lon="5.46571">
        <ele>223</ele>
        <time>2022-03-21T08:03:14Z</time>
      </trkpt>
      <trkpt lat="46.78039" lon="5.46568">
        <ele>223</ele>
        <time>2022-03-21T08:03:15Z</time>
      </trkpt>
      <trkpt lat="46.78046" lon="5.46564">
        <ele>223</ele>
        <time>2022-03-21T08:03:16Z</time>
      </trkpt>
      <trkpt lat="46.78053" lon="5.46561">
        <ele>223</ele>
        <time>2022-03-21T08:03:17Z</time>
      </trkpt>
      <trkpt lat="46.78061" lon="5.46558">
        <ele>223</ele>
        <time>2022-03-21T08:03:18Z</time>
      </trkpt>
      <trkpt lat="46.78068" lon="5.46555">
        <ele>223</ele>
        <time>2022-03-21T08:03:19Z</time>
      </trkpt>
      <trkpt lat="46.78076" lon="5.46552">
        <ele>222.8</ele>
        <time>2022-03-21T08:03:20Z</time>
      </trkpt>
      <trkpt lat="46.78083" lon="5.46549">
        <ele>222.8</ele>
        <time>2022-03-21T08:03:21Z</time>
      </trkpt>
      <trkpt lat="46.78091" lon="5.46545">
        <ele>222.6</ele>
        <time>2022-03-21T08:03:22Z</time>
      </trkpt>
      <trkpt lat="46.78099" lon="5.46542">
        <ele>222.6</ele>
        <time>2022-03-21T08:03:23Z</time>
      </trkpt>
      <trkpt lat="46.78107" lon="5.46538">
        <ele>222.6</ele>
        <time>2022-03-21T08:03:24Z</time>
      </trkpt>
      <trkpt lat="46.78115" lon="5.46535">
        <ele>222.6</ele>
        <time>2022-03-21T08:03:25Z</time>
      </trkpt>
      <trkpt lat="46.78123" lon="5.46532">
        <ele>222.2</ele>
        <time>2022-03-21T08:03:26Z</time>
      </trkpt>
      <trkpt lat="46.78131" lon="5.46528">
        <ele>222.2</ele>
        <time>2022-03-21T08:03:27Z</time>
      </trkpt>
      <trkpt lat="46.78139" lon="5.46525">
        <ele>221.8</ele>
        <time>2022-03-21T08:03:28Z</time>
      </trkpt>
      <trkpt lat="46.78147" lon="5.46521">
        <ele>221.8</ele>
        <time>2022-03-21T08:03:29Z</time>
      </trkpt>
      <trkpt lat="46.78155" lon="5.46517">
        <ele>221.6</ele>
        <time>2022-03-21T08:03:30Z</time>
      </trkpt>
      <trkpt lat="46.78163" lon="5.46514">
        <ele>221.4</ele>
        <time>2022-03-21T08:03:31Z</time>
      </trkpt>
      <trkpt lat="46.78171" lon="5.4651">
        <ele>221</ele>
        <time>2022-03-21T08:03:32Z</time>
      </trkpt>
      <trkpt lat="46.7818" lon="5.46507">
        <ele>220.8</ele>
        <time>2022-03-21T08:03:33Z</time>
      </trkpt>
      <trkpt lat="46.78188" lon="5.46503">
        <ele>220.6</ele>
        <time>2022-03-21T08:03:34Z</time>
      </trkpt>
      <trkpt lat="46.78197" lon="5.46499">
        <ele>220.4</ele>
        <time>2022-03-21T08:03:35Z</time>
      </trkpt>
      <trkpt lat="46.78206" lon="5.46495">
        <ele>220.2</ele>
        <time>2022-03-21T08:03:36Z</time>
      </trkpt>
      <trkpt lat="46.78214" lon="5.46491">
        <ele>219.8</ele>
        <time>2022-03-21T08:03:37Z</time>
      </trkpt>
      <trkpt lat="46.78223" lon="5.46487">
        <ele>219.6</ele>
        <time>2022-03-21T08:03:38Z</time>
      </trkpt>
      <trkpt lat="46.78233" lon="5.46483">
        <ele>219.4</ele>
        <time>2022-03-21T08:03:39Z</time>
      </trkpt>
      <trkpt lat="46.78242" lon="5.46479">
        <ele>219.2</ele>
        <time>2022-03-21T08:03:40Z</time>
      </trkpt>
      <trkpt lat="46.78251" lon="5.46475">
        <ele>219</ele>
        <time>2022-03-21T08:03:41Z</time>
      </trkpt>
      <trkpt lat="46.78261" lon="5.46471">
        <ele>218.6</ele>
        <time>2022-03-21T08:03:42Z</time>
      </trkpt>
      <trkpt lat="46.7827" lon="5.46467">
        <ele>218.4</ele>
        <time>2022-03-21T08:03:43Z</time>
      </trkpt>
      <trkpt lat="46.7828" lon="5.46463">
        <ele>218.2</ele>
        <time>2022-03-21T08:03:44Z</time>
      </trkpt>
      <trkpt lat="46.78289" lon="5.46459">
        <ele>217.8</ele>
        <time>2022-03-21T08:03:45Z</time>
      </trkpt>
      <trkpt lat="46.78299" lon="5.46454">
        <ele>217.6</ele>
        <time>2022-03-21T08:03:46Z</time>
      </trkpt>
      <trkpt lat="46.78308" lon="5.4645">
        <ele>217.2</ele>
        <time>2022-03-21T08:03:47Z</time>
      </trkpt>
      <trkpt lat="46.78318" lon="5.46445">
        <ele>217</ele>
        <time>2022-03-21T08:03:48Z</time>
      </trkpt>
      <trkpt lat="46.78327" lon="5.46441">
        <ele>216.8</ele>
        <time>2022-03-21T08:03:49Z</time>
      </trkpt>
      <trkpt lat="46.78337" lon="5.46437">
        <ele>216.4</ele>
        <time>2022-03-21T08:03:50Z</time>
      </trkpt>
      <trkpt lat="46.78347" lon="5.46433">
        <ele>216.2</ele>
        <time>2022-03-21T08:03:51Z</time>
      </trkpt>
      <trkpt lat="46.78357" lon="5.46428">
        <ele>216</ele>
        <time>2022-03-21T08:03:52Z</time>
      </trkpt>
      <trkpt lat="46.78366" lon="5.46424">
        <ele>216</ele>
        <time>2022-03-21T08:03:53Z</time>
      </trkpt>
      <trkpt lat="46.78376" lon="5.46419">
        <ele>215.6</ele>
        <time>2022-03-21T08:03:54Z</time>
      </trkpt>
      <trkpt lat="46.78386" lon="5.46415">
        <ele>215.6</ele>
        <time>2022-03-21T08:03:55Z</time>
      </trkpt>
      <trkpt lat="46.78395" lon="5.46411">
        <ele>215.4</ele>
        <time>2022-03-21T08:03:56Z</time>
      </trkpt>
      <trkpt lat="46.78405" lon="5.46407">
        <ele>215.4</ele>
        <time>2022-03-21T08:03:57Z</time>
      </trkpt>
      <trkpt lat="46.78414" lon="5.46403">
        <ele>215.4</ele>
        <time>2022-03-21T08:03:58Z</time>
      </trkpt>
      <trkpt lat="46.78423" lon="5.46398">
        <ele>215</ele>
        <time>2022-03-21T08:03:59Z</time>
      </trkpt>
      <trkpt lat="46.78432" lon="5.46394">
        <ele>215</ele>
        <time>2022-03-21T08:04:00Z</time>
      </trkpt>
      <trkpt lat="46.78441" lon="5.4639">
        <ele>215</ele>
        <time>2022-03-21T08:04:01Z</time>
      </trkpt>
      <trkpt lat="46.7845" lon="5.46387">
        <ele>215</ele>
        <time>2022-03-21T08:04:02Z</time>
      </trkpt>
      <trkpt lat="46.78459" lon="5.46383">
        <ele>215</ele>
        <time>2022-03-21T08:04:03Z</time>
      </trkpt>
      <trkpt lat="46.78467" lon="5.46379">
        <ele>215</ele>
        <time>2022-03-21T08:04:04Z</time>
      </trkpt>
      <trkpt lat="46.78476" lon="5.46375">
        <ele>214.8</ele>
        <time>2022-03-21T08:04:05Z</time>
      </trkpt>
      <trkpt lat="46.78484" lon="5.46371">
        <ele>214.8</ele>
        <time>2022-03-21T08:04:06Z</time>
      </trkpt>
      <trkpt lat="46.78492" lon="5.46368">
        <ele>214.8</ele>
        <time>2022-03-21T08:04:07Z</time>
      </trkpt>
      <trkpt lat="46.78501" lon="5.46364">
        <ele>214.8</ele>
        <time>2022-03-21T08:04:08Z</time>
      </trkpt>
      <trkpt lat="46.78509" lon="5.46361">
        <ele>214.8</ele>
        <time>2022-03-21T08:04:09Z</time>
      </trkpt>
      <trkpt lat="46.78518" lon="5.46357">
        <ele>214.8</ele>
        <time>2022-03-21T08:04:10Z</time>
      </trkpt>
      <trkpt lat="46.78526" lon="5.46354">
        <ele>214.6</ele>
        <time>2022-03-21T08:04:11Z</time>
      </trkpt>
      <trkpt lat="46.78535" lon="5.4635">
        <ele>214.6</ele>
        <time>2022-03-21T08:04:12Z</time>
      </trkpt>
      <trkpt lat="46.78543" lon="5.46347">
        <ele>214.6</ele>
        <time>2022-03-21T08:04:13Z</time>
      </trkpt>
      <trkpt lat="46.78552" lon="5.46343">
        <ele>214.6</ele>
        <time>2022-03-21T08:04:14Z</time>
      </trkpt>
      <trkpt lat="46.7856" lon="5.46339">
        <ele>214.6</ele>
        <time>2022-03-21T08:04:15Z</time>
      </trkpt>
      <trkpt lat="46.78569" lon="5.46335">
        <ele>214.4</ele>
        <time>2022-03-21T08:04:16Z</time>
      </trkpt>
      <trkpt lat="46.78577" lon="5.4633">
        <ele>214.4</ele>
        <time>2022-03-21T08:04:17Z</time>
      </trkpt>
      <trkpt lat="46.78586" lon="5.46327">
        <ele>214.4</ele>
        <time>2022-03-21T08:04:18Z</time>
      </trkpt>
      <trkpt lat="46.78594" lon="5.46323">
        <ele>214.4</ele>
        <time>2022-03-21T08:04:19Z</time>
      </trkpt>
      <trkpt lat="46.78603" lon="5.46319">
        <ele>214.4</ele>
        <time>2022-03-21T08:04:20Z</time>
      </trkpt>
      <trkpt lat="46.78612" lon="5.46315">
        <ele>214.4</ele>
        <time>2022-03-21T08:04:21Z</time>
      </trkpt>
      <trkpt lat="46.7862" lon="5.46312">
        <ele>214.4</ele>
        <time>2022-03-21T08:04:22Z</time>
      </trkpt>
      <trkpt lat="46.78629" lon="5.46308">
        <ele>214.4</ele>
        <time>2022-03-21T08:04:23Z</time>
      </trkpt>
      <trkpt lat="46.78638" lon="5.46305">
        <ele>214.4</ele>
        <time>2022-03-21T08:04:24Z</time>
      </trkpt>
      <trkpt lat="46.78646" lon="5.46301">
        <ele>214.8</ele>
        <time>2022-03-21T08:04:25Z</time>
      </trkpt>
      <trkpt lat="46.78654" lon="5.46298">
        <ele>214.8</ele>
        <time>2022-03-21T08:04:26Z</time>
      </trkpt>
      <trkpt lat="46.78662" lon="5.46294">
        <ele>214.8</ele>
        <time>2022-03-21T08:04:27Z</time>
      </trkpt>
      <trkpt lat="46.7867" lon="5.46291">
        <ele>215</ele>
        <time>2022-03-21T08:04:28Z</time>
      </trkpt>
      <trkpt lat="46.78678" lon="5.46288">
        <ele>215.2</ele>
        <time>2022-03-21T08:04:29Z</time>
      </trkpt>
      <trkpt lat="46.78686" lon="5.46285">
        <ele>215.4</ele>
        <time>2022-03-21T08:04:30Z</time>
      </trkpt>
      <trkpt lat="46.78693" lon="5.46282">
        <ele>215.8</ele>
        <time>2022-03-21T08:04:31Z</time>
      </trkpt>
      <trkpt lat="46.78701" lon="5.46279">
        <ele>216</ele>
        <time>2022-03-21T08:04:32Z</time>
      </trkpt>
      <trkpt lat="46.78708" lon="5.46276">
        <ele>216</ele>
        <time>2022-03-21T08:04:33Z</time>
      </trkpt>
      <trkpt lat="46.78715" lon="5.46273">
        <ele>216.4</ele>
        <time>2022-03-21T08:04:34Z</time>
      </trkpt>
      <trkpt lat="46.78723" lon="5.4627">
        <ele>216.6</ele>
        <time>2022-03-21T08:04:35Z</time>
      </trkpt>
      <trkpt lat="46.7873" lon="5.46267">
        <ele>216.8</ele>
        <time>2022-03-21T08:04:36Z</time>
      </trkpt>
      <trkpt lat="46.78737" lon="5.46264">
        <ele>217.2</ele>
        <time>2022-03-21T08:04:37Z</time>
      </trkpt>
      <trkpt lat="46.78745" lon="5.46261">
        <ele>217.6</ele>
        <time>2022-03-21T08:04:38Z</time>
      </trkpt>
      <trkpt lat="46.78752" lon="5.46259">
        <ele>218</ele>
        <time>2022-03-21T08:04:39Z</time>
      </trkpt>
      <trkpt lat="46.7876" lon="5.46256">
        <ele>218.2</ele>
        <time>2022-03-21T08:04:40Z</time>
      </trkpt>
      <trkpt lat="46.78767" lon="5.46253">
        <ele>218.6</ele>
        <time>2022-03-21T08:04:41Z</time>
      </trkpt>
      <trkpt lat="46.78773" lon="5.4625">
        <ele>218.8</ele>
        <time>2022-03-21T08:04:42Z</time>
      </trkpt>
      <trkpt lat="46.7878" lon="5.46248">
        <ele>219</ele>
        <time>2022-03-21T08:04:43Z</time>
      </trkpt>
      <trkpt lat="46.78787" lon="5.46245">
        <ele>219.2</ele>
        <time>2022-03-21T08:04:44Z</time>
      </trkpt>
      <trkpt lat="46.78793" lon="5.46243">
        <ele>219.4</ele>
        <time>2022-03-21T08:04:45Z</time>
      </trkpt>
      <trkpt lat="46.788" lon="5.4624">
        <ele>219.8</ele>
        <time>2022-03-21T08:04:46Z</time>
      </trkpt>
      <trkpt lat="46.78806" lon="5.46237">
        <ele>220</ele>
        <time>2022-03-21T08:04:47Z</time>
      </trkpt>
      <trkpt lat="46.78812" lon="5.46235">
        <ele>220.2</ele>
        <time>2022-03-21T08:04:48Z</time>
      </trkpt>
      <trkpt lat="46.78818" lon="5.46232">
        <ele>220.2</ele>
        <time>2022-03-21T08:04:49Z</time>
      </trkpt>
      <trkpt lat="46.78824" lon="5.46229">
        <ele>220.6</ele>
        <time>2022-03-21T08:04:50Z</time>
      </trkpt>
      <trkpt lat="46.7883" lon="5.46226">
        <ele>220.6</ele>
        <time>2022-03-21T08:04:51Z</time>
      </trkpt>
      <trkpt lat="46.78837" lon="5.46223">
        <ele>220.6</ele>
        <time>2022-03-21T08:04:52Z</time>
      </trkpt>
      <trkpt lat="46.78843" lon="5.46221">
        <ele>220.8</ele>
        <time>2022-03-21T08:04:53Z</time>
      </trkpt>
      <trkpt lat="46.7885" lon="5.46218">
        <ele>220.8</ele>
        <time>2022-03-21T08:04:54Z</time>
      </trkpt>
      <trkpt lat="46.78857" lon="5.46216">
        <ele>220.8</ele>
        <time>2022-03-21T08:04:55Z</time>
      </trkpt>
      <trkpt lat="46.78863" lon="5.46213">
        <ele>220.6</ele>
        <time>2022-03-21T08:04:56Z</time>
      </trkpt>
      <trkpt lat="46.7887" lon="5.4621">
        <ele>220.6</ele>
        <time>2022-03-21T08:04:57Z</time>
      </trkpt>
      <trkpt lat="46.78877" lon="5.46207">
        <ele>220.6</ele>
        <time>2022-03-21T08:04:58Z</time>
      </trkpt>
      <trkpt lat="46.78885" lon="5.46204">
        <ele>220.4</ele>
        <time>2022-03-21T08:04:59Z</time>
      </trkpt>
      <trkpt lat="46.78892" lon="5.462">
        <ele>220</ele>
        <time>2022-03-21T08:05:00Z</time>
      </trkpt>
      <trkpt lat="46.78899" lon="5.46197">
        <ele>220</ele>
        <time>2022-03-21T08:05:01Z</time>
      </trkpt>
      <trkpt lat="46.78907" lon="5.46194">
        <ele>219.8</ele>
        <time>2022-03-21T08:05:02Z</time>
      </trkpt>
      <trkpt lat="46.78914" lon="5.4619">
        <ele>219.8</ele>
        <time>2022-03-21T08:05:03Z</time>
      </trkpt>
      <trkpt lat="46.78922" lon="5.46187">
        <ele>219.4</ele>
        <time>2022-03-21T08:05:04Z</time>
      </trkpt>
      <trkpt lat="46.7893" lon="5.46184">
        <ele>219.4</ele>
        <time>2022-03-21T08:05:05Z</time>
      </trkpt>
      <trkpt lat="46.78938" lon="5.4618">
        <ele>219.2</ele>
        <time>2022-03-21T08:05:06Z</time>
      </trkpt>
      <trkpt lat="46.78946" lon="5.46177">
        <ele>219.2</ele>
        <time>2022-03-21T08:05:07Z</time>
      </trkpt>
      <trkpt lat="46.78954" lon="5.46173">
        <ele>219.2</ele>
        <time>2022-03-21T08:05:08Z</time>
      </trkpt>
      <trkpt lat="46.78962" lon="5.4617">
        <ele>218.8</ele>
        <time>2022-03-21T08:05:09Z</time>
      </trkpt>
      <trkpt lat="46.78971" lon="5.46167">
        <ele>218.8</ele>
        <time>2022-03-21T08:05:10Z</time>
      </trkpt>
      <trkpt lat="46.78979" lon="5.46163">
        <ele>218.4</ele>
        <time>2022-03-21T08:05:11Z</time>
      </trkpt>
      <trkpt lat="46.78987" lon="5.46159">
        <ele>218.2</ele>
        <time>2022-03-21T08:05:12Z</time>
      </trkpt>
      <trkpt lat="46.78996" lon="5.46155">
        <ele>218</ele>
        <time>2022-03-21T08:05:13Z</time>
      </trkpt>
      <trkpt lat="46.79004" lon="5.46151">
        <ele>217.8</ele>
        <time>2022-03-21T08:05:14Z</time>
      </trkpt>
      <trkpt lat="46.79013" lon="5.46147">
        <ele>217.4</ele>
        <time>2022-03-21T08:05:15Z</time>
      </trkpt>
      <trkpt lat="46.79022" lon="5.46143">
        <ele>217.2</ele>
        <time>2022-03-21T08:05:16Z</time>
      </trkpt>
      <trkpt lat="46.79031" lon="5.4614">
        <ele>217</ele>
        <time>2022-03-21T08:05:17Z</time>
      </trkpt>
      <trkpt lat="46.79041" lon="5.46136">
        <ele>216.6</ele>
        <time>2022-03-21T08:05:18Z</time>
      </trkpt>
      <trkpt lat="46.7905" lon="5.46132">
        <ele>216.4</ele>
        <time>2022-03-21T08:05:19Z</time>
      </trkpt>
      <trkpt lat="46.79059" lon="5.46127">
        <ele>216.2</ele>
        <time>2022-03-21T08:05:20Z</time>
      </trkpt>
      <trkpt lat="46.79069" lon="5.46123">
        <ele>216</ele>
        <time>2022-03-21T08:05:21Z</time>
      </trkpt>
      <trkpt lat="46.79078" lon="5.46118">
        <ele>215.6</ele>
        <time>2022-03-21T08:05:22Z</time>
      </trkpt>
      <trkpt lat="46.79087" lon="5.46114">
        <ele>215.2</ele>
        <time>2022-03-21T08:05:23Z</time>
      </trkpt>
      <trkpt lat="46.79097" lon="5.4611">
        <ele>215</ele>
        <time>2022-03-21T08:05:24Z</time>
      </trkpt>
      <trkpt lat="46.79106" lon="5.46105">
        <ele>214.6</ele>
        <time>2022-03-21T08:05:25Z</time>
      </trkpt>
      <trkpt lat="46.79116" lon="5.46101">
        <ele>214.4</ele>
        <time>2022-03-21T08:05:26Z</time>
      </trkpt>
      <trkpt lat="46.79125" lon="5.46097">
        <ele>214</ele>
        <time>2022-03-21T08:05:27Z</time>
      </trkpt>
      <trkpt lat="46.79135" lon="5.46093">
        <ele>213.8</ele>
        <time>2022-03-21T08:05:28Z</time>
      </trkpt>
      <trkpt lat="46.79144" lon="5.46089">
        <ele>213.8</ele>
        <time>2022-03-21T08:05:29Z</time>
      </trkpt>
      <trkpt lat="46.79154" lon="5.46085">
        <ele>213.6</ele>
        <time>2022-03-21T08:05:30Z</time>
      </trkpt>
      <trkpt lat="46.79163" lon="5.46081">
        <ele>213.6</ele>
        <time>2022-03-21T08:05:31Z</time>
      </trkpt>
      <trkpt lat="46.79172" lon="5.46077">
        <ele>213.6</ele>
        <time>2022-03-21T08:05:32Z</time>
      </trkpt>
      <trkpt lat="46.7918" lon="5.46073">
        <ele>213.6</ele>
        <time>2022-03-21T08:05:33Z</time>
      </trkpt>
      <trkpt lat="46.79189" lon="5.46069">
        <ele>213.6</ele>
        <time>2022-03-21T08:05:34Z</time>
      </trkpt>
      <trkpt lat="46.79197" lon="5.46066">
        <ele>214</ele>
        <time>2022-03-21T08:05:35Z</time>
      </trkpt>
      <trkpt lat="46.79204" lon="5.46062">
        <ele>214.2</ele>
        <time>2022-03-21T08:05:36Z</time>
      </trkpt>
      <trkpt lat="46.79211" lon="5.46058">
        <ele>214.4</ele>
        <time>2022-03-21T08:05:37Z</time>
      </trkpt>
      <trkpt lat="46.79219" lon="5.46055">
        <ele>214.6</ele>
        <time>2022-03-21T08:05:38Z</time>
      </trkpt>
      <trkpt lat="46.79226" lon="5.46052">
        <ele>215</ele>
        <time>2022-03-21T08:05:39Z</time>
      </trkpt>
      <trkpt lat="46.79232" lon="5.46049">
        <ele>215.2</ele>
        <time>2022-03-21T08:05:40Z</time>
      </trkpt>
      <trkpt lat="46.79239" lon="5.46047">
        <ele>215.4</ele>
        <time>2022-03-21T08:05:41Z</time>
      </trkpt>
      <trkpt lat="46.79245" lon="5.46044">
        <ele>215.8</ele>
        <time>2022-03-21T08:05:42Z</time>
      </trkpt>
      <trkpt lat="46.79251" lon="5.46041">
        <ele>216</ele>
        <time>2022-03-21T08:05:43Z</time>
      </trkpt>
      <trkpt lat="46.79264" lon="5.46036">
        <ele>216.4</ele>
        <time>2022-03-21T08:05:44Z</time>
      </trkpt>
      <trkpt lat="46.7927" lon="5.46033">
        <ele>216.6</ele>
        <time>2022-03-21T08:05:45Z</time>
      </trkpt>
      <trkpt lat="46.79277" lon="5.46031">
        <ele>217</ele>
        <time>2022-03-21T08:05:46Z</time>
      </trkpt>
      <trkpt lat="46.79283" lon="5.46029">
        <ele>217.4</ele>
        <time>2022-03-21T08:05:47Z</time>
      </trkpt>
      <trkpt lat="46.79289" lon="5.46027">
        <ele>217.8</ele>
        <time>2022-03-21T08:05:48Z</time>
      </trkpt>
      <trkpt lat="46.79296" lon="5.46025">
        <ele>218</ele>
        <time>2022-03-21T08:05:49Z</time>
      </trkpt>
      <trkpt lat="46.79303" lon="5.46022">
        <ele>218.4</ele>
        <time>2022-03-21T08:05:50Z</time>
      </trkpt>
      <trkpt lat="46.79309" lon="5.46019">
        <ele>218.8</ele>
        <time>2022-03-21T08:05:51Z</time>
      </trkpt>
      <trkpt lat="46.79315" lon="5.46016">
        <ele>219</ele>
        <time>2022-03-21T08:05:52Z</time>
      </trkpt>
      <trkpt lat="46.79322" lon="5.46013">
        <ele>219.4</ele>
        <time>2022-03-21T08:05:53Z</time>
      </trkpt>
      <trkpt lat="46.79329" lon="5.46011">
        <ele>219.8</ele>
        <time>2022-03-21T08:05:54Z</time>
      </trkpt>
      <trkpt lat="46.79335" lon="5.46008">
        <ele>220.2</ele>
        <time>2022-03-21T08:05:55Z</time>
      </trkpt>
      <trkpt lat="46.79341" lon="5.46005">
        <ele>220.4</ele>
        <time>2022-03-21T08:05:56Z</time>
      </trkpt>
      <trkpt lat="46.79348" lon="5.46002">
        <ele>220.8</ele>
        <time>2022-03-21T08:05:57Z</time>
      </trkpt>
      <trkpt lat="46.79354" lon="5.46">
        <ele>220.8</ele>
        <time>2022-03-21T08:05:58Z</time>
      </trkpt>
      <trkpt lat="46.79361" lon="5.45997">
        <ele>221.2</ele>
        <time>2022-03-21T08:05:59Z</time>
      </trkpt>
      <trkpt lat="46.79367" lon="5.45993">
        <ele>221.2</ele>
        <time>2022-03-21T08:06:00Z</time>
      </trkpt>
      <trkpt lat="46.79374" lon="5.4599">
        <ele>221.2</ele>
        <time>2022-03-21T08:06:01Z</time>
      </trkpt>
      <trkpt lat="46.7938" lon="5.45987">
        <ele>221.4</ele>
        <time>2022-03-21T08:06:02Z</time>
      </trkpt>
      <trkpt lat="46.79387" lon="5.45984">
        <ele>221.4</ele>
        <time>2022-03-21T08:06:03Z</time>
      </trkpt>
      <trkpt lat="46.79394" lon="5.45981">
        <ele>221.8</ele>
        <time>2022-03-21T08:06:04Z</time>
      </trkpt>
      <trkpt lat="46.794" lon="5.45978">
        <ele>221.8</ele>
        <time>2022-03-21T08:06:05Z</time>
      </trkpt>
      <trkpt lat="46.79408" lon="5.45975">
        <ele>221.8</ele>
        <time>2022-03-21T08:06:06Z</time>
      </trkpt>
      <trkpt lat="46.79415" lon="5.45972">
        <ele>221.8</ele>
        <time>2022-03-21T08:06:07Z</time>
      </trkpt>
      <trkpt lat="46.79422" lon="5.45969">
        <ele>221.8</ele>
        <time>2022-03-21T08:06:08Z</time>
      </trkpt>
      <trkpt lat="46.79429" lon="5.45966">
        <ele>221.8</ele>
        <time>2022-03-21T08:06:09Z</time>
      </trkpt>
      <trkpt lat="46.79437" lon="5.45962">
        <ele>222</ele>
        <time>2022-03-21T08:06:10Z</time>
      </trkpt>
      <trkpt lat="46.79444" lon="5.45959">
        <ele>222</ele>
        <time>2022-03-21T08:06:11Z</time>
      </trkpt>
      <trkpt lat="46.79451" lon="5.45955">
        <ele>222</ele>
        <time>2022-03-21T08:06:12Z</time>
      </trkpt>
      <trkpt lat="46.79458" lon="5.45952">
        <ele>222</ele>
        <time>2022-03-21T08:06:13Z</time>
      </trkpt>
      <trkpt lat="46.79466" lon="5.4595">
        <ele>222</ele>
        <time>2022-03-21T08:06:14Z</time>
      </trkpt>
      <trkpt lat="46.79474" lon="5.45946">
        <ele>222</ele>
        <time>2022-03-21T08:06:15Z</time>
      </trkpt>
      <trkpt lat="46.79481" lon="5.45943">
        <ele>222</ele>
        <time>2022-03-21T08:06:16Z</time>
      </trkpt>
      <trkpt lat="46.79489" lon="5.4594">
        <ele>222</ele>
        <time>2022-03-21T08:06:17Z</time>
      </trkpt>
      <trkpt lat="46.79496" lon="5.45936">
        <ele>222</ele>
        <time>2022-03-21T08:06:18Z</time>
      </trkpt>
      <trkpt lat="46.79504" lon="5.45933">
        <ele>222</ele>
        <time>2022-03-21T08:06:19Z</time>
      </trkpt>
      <trkpt lat="46.79511" lon="5.45928">
        <ele>222</ele>
        <time>2022-03-21T08:06:20Z</time>
      </trkpt>
      <trkpt lat="46.79518" lon="5.45925">
        <ele>222</ele>
        <time>2022-03-21T08:06:21Z</time>
      </trkpt>
      <trkpt lat="46.79526" lon="5.45922">
        <ele>222</ele>
        <time>2022-03-21T08:06:22Z</time>
      </trkpt>
      <trkpt lat="46.79534" lon="5.45919">
        <ele>222</ele>
        <time>2022-03-21T08:06:23Z</time>
      </trkpt>
      <trkpt lat="46.79542" lon="5.45916">
        <ele>222</ele>
        <time>2022-03-21T08:06:24Z</time>
      </trkpt>
      <trkpt lat="46.79549" lon="5.45912">
        <ele>221.6</ele>
        <time>2022-03-21T08:06:25Z</time>
      </trkpt>
      <trkpt lat="46.79558" lon="5.45909">
        <ele>221.4</ele>
        <time>2022-03-21T08:06:26Z</time>
      </trkpt>
      <trkpt lat="46.79566" lon="5.45905">
        <ele>221.4</ele>
        <time>2022-03-21T08:06:27Z</time>
      </trkpt>
      <trkpt lat="46.79574" lon="5.45901">
        <ele>221</ele>
        <time>2022-03-21T08:06:28Z</time>
      </trkpt>
      <trkpt lat="46.79583" lon="5.45898">
        <ele>220.8</ele>
        <time>2022-03-21T08:06:29Z</time>
      </trkpt>
      <trkpt lat="46.79592" lon="5.45894">
        <ele>220.4</ele>
        <time>2022-03-21T08:06:30Z</time>
      </trkpt>
      <trkpt lat="46.79601" lon="5.4589">
        <ele>220.2</ele>
        <time>2022-03-21T08:06:31Z</time>
      </trkpt>
      <trkpt lat="46.7961" lon="5.45887">
        <ele>219.8</ele>
        <time>2022-03-21T08:06:32Z</time>
      </trkpt>
      <trkpt lat="46.79619" lon="5.45883">
        <ele>219.6</ele>
        <time>2022-03-21T08:06:33Z</time>
      </trkpt>
      <trkpt lat="46.79629" lon="5.45879">
        <ele>219.4</ele>
        <time>2022-03-21T08:06:34Z</time>
      </trkpt>
      <trkpt lat="46.79638" lon="5.45875">
        <ele>219.2</ele>
        <time>2022-03-21T08:06:35Z</time>
      </trkpt>
      <trkpt lat="46.79648" lon="5.45871">
        <ele>218.8</ele>
        <time>2022-03-21T08:06:36Z</time>
      </trkpt>
      <trkpt lat="46.79658" lon="5.45866">
        <ele>218.4</ele>
        <time>2022-03-21T08:06:37Z</time>
      </trkpt>
      <trkpt lat="46.79668" lon="5.45862">
        <ele>218.2</ele>
        <time>2022-03-21T08:06:38Z</time>
      </trkpt>
      <trkpt lat="46.79677" lon="5.45857">
        <ele>217.8</ele>
        <time>2022-03-21T08:06:39Z</time>
      </trkpt>
      <trkpt lat="46.79688" lon="5.45852">
        <ele>217.4</ele>
        <time>2022-03-21T08:06:40Z</time>
      </trkpt>
      <trkpt lat="46.79698" lon="5.45848">
        <ele>217</ele>
        <time>2022-03-21T08:06:41Z</time>
      </trkpt>
      <trkpt lat="46.7971" lon="5.45843">
        <ele>216.4</ele>
        <time>2022-03-21T08:06:42Z</time>
      </trkpt>
      <trkpt lat="46.79721" lon="5.45839">
        <ele>216</ele>
        <time>2022-03-21T08:06:43Z</time>
      </trkpt>
      <trkpt lat="46.79733" lon="5.45835">
        <ele>215.6</ele>
        <time>2022-03-21T08:06:44Z</time>
      </trkpt>
      <trkpt lat="46.79744" lon="5.45831">
        <ele>215.2</ele>
        <time>2022-03-21T08:06:45Z</time>
      </trkpt>
      <trkpt lat="46.79755" lon="5.45827">
        <ele>214.8</ele>
        <time>2022-03-21T08:06:46Z</time>
      </trkpt>
      <trkpt lat="46.79766" lon="5.45823">
        <ele>214.4</ele>
        <time>2022-03-21T08:06:47Z</time>
      </trkpt>
      <trkpt lat="46.79777" lon="5.45819">
        <ele>214</ele>
        <time>2022-03-21T08:06:48Z</time>
      </trkpt>
      <trkpt lat="46.79787" lon="5.45814">
        <ele>213.6</ele>
        <time>2022-03-21T08:06:49Z</time>
      </trkpt>
      <trkpt lat="46.79798" lon="5.4581">
        <ele>213.4</ele>
        <time>2022-03-21T08:06:50Z</time>
      </trkpt>
      <trkpt lat="46.79808" lon="5.45806">
        <ele>213.2</ele>
        <time>2022-03-21T08:06:51Z</time>
      </trkpt>
      <trkpt lat="46.79819" lon="5.45803">
        <ele>212.8</ele>
        <time>2022-03-21T08:06:52Z</time>
      </trkpt>
      <trkpt lat="46.79829" lon="5.45799">
        <ele>212.6</ele>
        <time>2022-03-21T08:06:53Z</time>
      </trkpt>
      <trkpt lat="46.7984" lon="5.45794">
        <ele>212.2</ele>
        <time>2022-03-21T08:06:54Z</time>
      </trkpt>
      <trkpt lat="46.7985" lon="5.4579">
        <ele>212</ele>
        <time>2022-03-21T08:06:55Z</time>
      </trkpt>
      <trkpt lat="46.7986" lon="5.45786">
        <ele>211.6</ele>
        <time>2022-03-21T08:06:56Z</time>
      </trkpt>
      <trkpt lat="46.7987" lon="5.45782">
        <ele>211.4</ele>
        <time>2022-03-21T08:06:57Z</time>
      </trkpt>
      <trkpt lat="46.7988" lon="5.45777">
        <ele>211.2</ele>
        <time>2022-03-21T08:06:58Z</time>
      </trkpt>
      <trkpt lat="46.7989" lon="5.45773">
        <ele>211.2</ele>
        <time>2022-03-21T08:06:59Z</time>
      </trkpt>
      <trkpt lat="46.79899" lon="5.45768">
        <ele>210.8</ele>
        <time>2022-03-21T08:07:00Z</time>
      </trkpt>
      <trkpt lat="46.79908" lon="5.45764">
        <ele>210.8</ele>
        <time>2022-03-21T08:07:01Z</time>
      </trkpt>
      <trkpt lat="46.79917" lon="5.4576">
        <ele>210.8</ele>
        <time>2022-03-21T08:07:02Z</time>
      </trkpt>
      <trkpt lat="46.79926" lon="5.45756">
        <ele>210.6</ele>
        <time>2022-03-21T08:07:03Z</time>
      </trkpt>
      <trkpt lat="46.79935" lon="5.45752">
        <ele>210.6</ele>
        <time>2022-03-21T08:07:04Z</time>
      </trkpt>
      <trkpt lat="46.79944" lon="5.45748">
        <ele>210.4</ele>
        <time>2022-03-21T08:07:05Z</time>
      </trkpt>
      <trkpt lat="46.79952" lon="5.45744">
        <ele>210.4</ele>
        <time>2022-03-21T08:07:06Z</time>
      </trkpt>
      <trkpt lat="46.79961" lon="5.4574">
        <ele>210.4</ele>
        <time>2022-03-21T08:07:07Z</time>
      </trkpt>
      <trkpt lat="46.7997" lon="5.45737">
        <ele>210.4</ele>
        <time>2022-03-21T08:07:08Z</time>
      </trkpt>
      <trkpt lat="46.79978" lon="5.45733">
        <ele>210.4</ele>
        <time>2022-03-21T08:07:09Z</time>
      </trkpt>
      <trkpt lat="46.79987" lon="5.4573">
        <ele>210.4</ele>
        <time>2022-03-21T08:07:10Z</time>
      </trkpt>
      <trkpt lat="46.79995" lon="5.45727">
        <ele>210.4</ele>
        <time>2022-03-21T08:07:11Z</time>
      </trkpt>
      <trkpt lat="46.80003" lon="5.45723">
        <ele>210.4</ele>
        <time>2022-03-21T08:07:12Z</time>
      </trkpt>
      <trkpt lat="46.80011" lon="5.4572">
        <ele>210.4</ele>
        <time>2022-03-21T08:07:13Z</time>
      </trkpt>
      <trkpt lat="46.80018" lon="5.45717">
        <ele>210.4</ele>
        <time>2022-03-21T08:07:14Z</time>
      </trkpt>
      <trkpt lat="46.80026" lon="5.45713">
        <ele>210.6</ele>
        <time>2022-03-21T08:07:15Z</time>
      </trkpt>
      <trkpt lat="46.80033" lon="5.45709">
        <ele>210.6</ele>
        <time>2022-03-21T08:07:16Z</time>
      </trkpt>
      <trkpt lat="46.8004" lon="5.45705">
        <ele>210.8</ele>
        <time>2022-03-21T08:07:17Z</time>
      </trkpt>
      <trkpt lat="46.80046" lon="5.457">
        <ele>210.8</ele>
        <time>2022-03-21T08:07:18Z</time>
      </trkpt>
      <trkpt lat="46.80053" lon="5.45695">
        <ele>211.2</ele>
        <time>2022-03-21T08:07:19Z</time>
      </trkpt>
      <trkpt lat="46.80059" lon="5.4569">
        <ele>211.2</ele>
        <time>2022-03-21T08:07:20Z</time>
      </trkpt>
      <trkpt lat="46.80064" lon="5.45684">
        <ele>211.6</ele>
        <time>2022-03-21T08:07:21Z</time>
      </trkpt>
      <trkpt lat="46.80069" lon="5.45678">
        <ele>211.6</ele>
        <time>2022-03-21T08:07:22Z</time>
      </trkpt>
      <trkpt lat="46.80074" lon="5.45671">
        <ele>211.8</ele>
        <time>2022-03-21T08:07:23Z</time>
      </trkpt>
      <trkpt lat="46.80079" lon="5.45664">
        <ele>211.8</ele>
        <time>2022-03-21T08:07:24Z</time>
      </trkpt>
      <trkpt lat="46.80083" lon="5.45657">
        <ele>212.2</ele>
        <time>2022-03-21T08:07:25Z</time>
      </trkpt>
      <trkpt lat="46.80087" lon="5.45649">
        <ele>212.4</ele>
        <time>2022-03-21T08:07:26Z</time>
      </trkpt>
      <trkpt lat="46.80091" lon="5.45642">
        <ele>212.6</ele>
        <time>2022-03-21T08:07:27Z</time>
      </trkpt>
      <trkpt lat="46.80095" lon="5.45634">
        <ele>212.8</ele>
        <time>2022-03-21T08:07:28Z</time>
      </trkpt>
      <trkpt lat="46.80098" lon="5.45627">
        <ele>213.2</ele>
        <time>2022-03-21T08:07:29Z</time>
      </trkpt>
      <trkpt lat="46.80102" lon="5.4562">
        <ele>213.4</ele>
        <time>2022-03-21T08:07:30Z</time>
      </trkpt>
      <trkpt lat="46.80105" lon="5.45614">
        <ele>213.6</ele>
        <time>2022-03-21T08:07:31Z</time>
      </trkpt>
      <trkpt lat="46.80108" lon="5.45607">
        <ele>214</ele>
        <time>2022-03-21T08:07:32Z</time>
      </trkpt>
      <trkpt lat="46.80111" lon="5.45599">
        <ele>214.2</ele>
        <time>2022-03-21T08:07:33Z</time>
      </trkpt>
      <trkpt lat="46.80114" lon="5.45592">
        <ele>214.4</ele>
        <time>2022-03-21T08:07:34Z</time>
      </trkpt>
      <trkpt lat="46.80117" lon="5.45584">
        <ele>214.6</ele>
        <time>2022-03-21T08:07:35Z</time>
      </trkpt>
      <trkpt lat="46.8012" lon="5.45577">
        <ele>215</ele>
        <time>2022-03-21T08:07:36Z</time>
      </trkpt>
      <trkpt lat="46.80123" lon="5.4557">
        <ele>215.2</ele>
        <time>2022-03-21T08:07:37Z</time>
      </trkpt>
      <trkpt lat="46.80125" lon="5.45563">
        <ele>215.6</ele>
        <time>2022-03-21T08:07:38Z</time>
      </trkpt>
      <trkpt lat="46.80128" lon="5.45557">
        <ele>215.8</ele>
        <time>2022-03-21T08:07:39Z</time>
      </trkpt>
      <trkpt lat="46.80131" lon="5.4555">
        <ele>216</ele>
        <time>2022-03-21T08:07:40Z</time>
      </trkpt>
      <trkpt lat="46.80133" lon="5.45544">
        <ele>216.2</ele>
        <time>2022-03-21T08:07:41Z</time>
      </trkpt>
      <trkpt lat="46.80136" lon="5.45538">
        <ele>216.6</ele>
        <time>2022-03-21T08:07:42Z</time>
      </trkpt>
      <trkpt lat="46.80138" lon="5.45532">
        <ele>216.8</ele>
        <time>2022-03-21T08:07:43Z</time>
      </trkpt>
      <trkpt lat="46.80141" lon="5.45525">
        <ele>217</ele>
        <time>2022-03-21T08:07:44Z</time>
      </trkpt>
      <trkpt lat="46.80143" lon="5.45519">
        <ele>217.4</ele>
        <time>2022-03-21T08:07:45Z</time>
      </trkpt>
      <trkpt lat="46.80145" lon="5.45512">
        <ele>217.6</ele>
        <time>2022-03-21T08:07:46Z</time>
      </trkpt>
      <trkpt lat="46.80148" lon="5.45506">
        <ele>217.8</ele>
        <time>2022-03-21T08:07:47Z</time>
      </trkpt>
      <trkpt lat="46.80151" lon="5.45499">
        <ele>218.2</ele>
        <time>2022-03-21T08:07:48Z</time>
      </trkpt>
      <trkpt lat="46.80154" lon="5.45491">
        <ele>218.4</ele>
        <time>2022-03-21T08:07:49Z</time>
      </trkpt>
      <trkpt lat="46.80156" lon="5.45483">
        <ele>218.6</ele>
        <time>2022-03-21T08:07:50Z</time>
      </trkpt>
      <trkpt lat="46.80159" lon="5.45476">
        <ele>218.6</ele>
        <time>2022-03-21T08:07:51Z</time>
      </trkpt>
      <trkpt lat="46.80162" lon="5.45468">
        <ele>219</ele>
        <time>2022-03-21T08:07:52Z</time>
      </trkpt>
      <trkpt lat="46.80165" lon="5.4546">
        <ele>219.2</ele>
        <time>2022-03-21T08:07:53Z</time>
      </trkpt>
      <trkpt lat="46.80168" lon="5.45453">
        <ele>219.6</ele>
        <time>2022-03-21T08:07:54Z</time>
      </trkpt>
      <trkpt lat="46.80171" lon="5.45445">
        <ele>219.6</ele>
        <time>2022-03-21T08:07:55Z</time>
      </trkpt>
      <trkpt lat="46.80174" lon="5.45439">
        <ele>219.8</ele>
        <time>2022-03-21T08:07:56Z</time>
      </trkpt>
      <trkpt lat="46.80178" lon="5.45432">
        <ele>219.8</ele>
        <time>2022-03-21T08:07:57Z</time>
      </trkpt>
      <trkpt lat="46.80181" lon="5.45426">
        <ele>220</ele>
        <time>2022-03-21T08:07:58Z</time>
      </trkpt>
      <trkpt lat="46.80185" lon="5.45419">
        <ele>220</ele>
        <time>2022-03-21T08:07:59Z</time>
      </trkpt>
      <trkpt lat="46.80189" lon="5.45413">
        <ele>220</ele>
        <time>2022-03-21T08:08:00Z</time>
      </trkpt>
      <trkpt lat="46.80193" lon="5.45406">
        <ele>220</ele>
        <time>2022-03-21T08:08:01Z</time>
      </trkpt>
      <trkpt lat="46.80197" lon="5.454">
        <ele>220</ele>
        <time>2022-03-21T08:08:02Z</time>
      </trkpt>
      <trkpt lat="46.80201" lon="5.45393">
        <ele>220</ele>
        <time>2022-03-21T08:08:03Z</time>
      </trkpt>
      <trkpt lat="46.80205" lon="5.45387">
        <ele>220.2</ele>
        <time>2022-03-21T08:08:04Z</time>
      </trkpt>
      <trkpt lat="46.8021" lon="5.45381">
        <ele>220.2</ele>
        <time>2022-03-21T08:08:05Z</time>
      </trkpt>
      <trkpt lat="46.80214" lon="5.45374">
        <ele>220.2</ele>
        <time>2022-03-21T08:08:06Z</time>
      </trkpt>
      <trkpt lat="46.80218" lon="5.45367">
        <ele>220.2</ele>
        <time>2022-03-21T08:08:07Z</time>
      </trkpt>
      <trkpt lat="46.80223" lon="5.4536">
        <ele>220</ele>
        <time>2022-03-21T08:08:08Z</time>
      </trkpt>
      <trkpt lat="46.80227" lon="5.45353">
        <ele>220</ele>
        <time>2022-03-21T08:08:09Z</time>
      </trkpt>
      <trkpt lat="46.80231" lon="5.45344">
        <ele>220</ele>
        <time>2022-03-21T08:08:10Z</time>
      </trkpt>
      <trkpt lat="46.80235" lon="5.45336">
        <ele>219.8</ele>
        <time>2022-03-21T08:08:11Z</time>
      </trkpt>
      <trkpt lat="46.80238" lon="5.45326">
        <ele>219.8</ele>
        <time>2022-03-21T08:08:12Z</time>
      </trkpt>
      <trkpt lat="46.8024" lon="5.45316">
        <ele>219.8</ele>
        <time>2022-03-21T08:08:13Z</time>
      </trkpt>
      <trkpt lat="46.80242" lon="5.45305">
        <ele>219.6</ele>
        <time>2022-03-21T08:08:14Z</time>
      </trkpt>
      <trkpt lat="46.80243" lon="5.45295">
        <ele>219.6</ele>
        <time>2022-03-21T08:08:15Z</time>
      </trkpt>
      <trkpt lat="46.80245" lon="5.45284">
        <ele>219.4</ele>
        <time>2022-03-21T08:08:16Z</time>
      </trkpt>
      <trkpt lat="46.80247" lon="5.45273">
        <ele>219.4</ele>
        <time>2022-03-21T08:08:17Z</time>
      </trkpt>
      <trkpt lat="46.80249" lon="5.45263">
        <ele>219.4</ele>
        <time>2022-03-21T08:08:18Z</time>
      </trkpt>
      <trkpt lat="46.8025" lon="5.45253">
        <ele>219.2</ele>
        <time>2022-03-21T08:08:19Z</time>
      </trkpt>
      <trkpt lat="46.80252" lon="5.45242">
        <ele>219.2</ele>
        <time>2022-03-21T08:08:20Z</time>
      </trkpt>
      <trkpt lat="46.80254" lon="5.45233">
        <ele>219</ele>
        <time>2022-03-21T08:08:21Z</time>
      </trkpt>
      <trkpt lat="46.80257" lon="5.45223">
        <ele>219</ele>
        <time>2022-03-21T08:08:22Z</time>
      </trkpt>
      <trkpt lat="46.80259" lon="5.45215">
        <ele>218.8</ele>
        <time>2022-03-21T08:08:23Z</time>
      </trkpt>
      <trkpt lat="46.80262" lon="5.45207">
        <ele>218.8</ele>
        <time>2022-03-21T08:08:24Z</time>
      </trkpt>
      <trkpt lat="46.80264" lon="5.452">
        <ele>218.4</ele>
        <time>2022-03-21T08:08:25Z</time>
      </trkpt>
      <trkpt lat="46.80267" lon="5.45194">
        <ele>218.4</ele>
        <time>2022-03-21T08:08:26Z</time>
      </trkpt>
      <trkpt lat="46.80269" lon="5.45189">
        <ele>218.2</ele>
        <time>2022-03-21T08:08:27Z</time>
      </trkpt>
      <trkpt lat="46.8027" lon="5.45184">
        <ele>218.2</ele>
        <time>2022-03-21T08:08:28Z</time>
      </trkpt>
      <trkpt lat="46.80272" lon="5.4518">
        <ele>218.2</ele>
        <time>2022-03-21T08:08:29Z</time>
      </trkpt>
      <trkpt lat="46.80273" lon="5.45177">
        <ele>218.2</ele>
        <time>2022-03-21T08:08:30Z</time>
      </trkpt>
      <trkpt lat="46.80273" lon="5.45174">
        <ele>218.2</ele>
        <time>2022-03-21T08:08:31Z</time>
      </trkpt>
      <trkpt lat="46.80273" lon="5.45172">
        <ele>218.2</ele>
        <time>2022-03-21T08:08:32Z</time>
      </trkpt>
      <trkpt lat="46.80273" lon="5.45171">
        <ele>218.2</ele>
        <time>2022-03-21T08:08:33Z</time>
      </trkpt>
      <trkpt lat="46.80274" lon="5.45171">
        <ele>218.2</ele>
        <time>2022-03-21T08:08:35Z</time>
      </trkpt>
      <trkpt lat="46.80275" lon="5.45168">
        <ele>218.2</ele>
        <time>2022-03-21T08:08:37Z</time>
      </trkpt>
      <trkpt lat="46.80275" lon="5.45165">
        <ele>218.2</ele>
        <time>2022-03-21T08:08:38Z</time>
      </trkpt>
      <trkpt lat="46.80275" lon="5.45162">
        <ele>218.2</ele>
        <time>2022-03-21T08:08:39Z</time>
      </trkpt>
      <trkpt lat="46.80275" lon="5.45159">
        <ele>218.2</ele>
        <time>2022-03-21T08:08:40Z</time>
      </trkpt>
      <trkpt lat="46.80275" lon="5.45155">
        <ele>218.2</ele>
        <time>2022-03-21T08:08:41Z</time>
      </trkpt>
      <trkpt lat="46.80275" lon="5.45152">
        <ele>218.2</ele>
        <time>2022-03-21T08:08:42Z</time>
      </trkpt>
      <trkpt lat="46.80276" lon="5.45147">
        <ele>218.2</ele>
        <time>2022-03-21T08:08:43Z</time>
      </trkpt>
      <trkpt lat="46.80276" lon="5.45143">
        <ele>218.2</ele>
        <time>2022-03-21T08:08:44Z</time>
      </trkpt>
      <trkpt lat="46.80276" lon="5.45137">
        <ele>218.2</ele>
        <time>2022-03-21T08:08:45Z</time>
      </trkpt>
      <trkpt lat="46.80277" lon="5.45132">
        <ele>218.2</ele>
        <time>2022-03-21T08:08:46Z</time>
      </trkpt>
      <trkpt lat="46.80278" lon="5.45126">
        <ele>218</ele>
        <time>2022-03-21T08:08:47Z</time>
      </trkpt>
      <trkpt lat="46.80279" lon="5.45119">
        <ele>218</ele>
        <time>2022-03-21T08:08:48Z</time>
      </trkpt>
      <trkpt lat="46.8028" lon="5.45112">
        <ele>218</ele>
        <time>2022-03-21T08:08:49Z</time>
      </trkpt>
      <trkpt lat="46.8028" lon="5.45105">
        <ele>217.8</ele>
        <time>2022-03-21T08:08:50Z</time>
      </trkpt>
      <trkpt lat="46.8028" lon="5.45097">
        <ele>217.8</ele>
        <time>2022-03-21T08:08:51Z</time>
      </trkpt>
      <trkpt lat="46.80281" lon="5.45088">
        <ele>217.8</ele>
        <time>2022-03-21T08:08:52Z</time>
      </trkpt>
      <trkpt lat="46.80282" lon="5.4508">
        <ele>217.4</ele>
        <time>2022-03-21T08:08:53Z</time>
      </trkpt>
      <trkpt lat="46.80282" lon="5.4507">
        <ele>217.2</ele>
        <time>2022-03-21T08:08:54Z</time>
      </trkpt>
      <trkpt lat="46.80283" lon="5.4506">
        <ele>216.8</ele>
        <time>2022-03-21T08:08:55Z</time>
      </trkpt>
      <trkpt lat="46.80283" lon="5.45049">
        <ele>216.4</ele>
        <time>2022-03-21T08:08:56Z</time>
      </trkpt>
      <trkpt lat="46.80283" lon="5.45038">
        <ele>216</ele>
        <time>2022-03-21T08:08:57Z</time>
      </trkpt>
      <trkpt lat="46.80284" lon="5.45027">
        <ele>215.6</ele>
        <time>2022-03-21T08:08:58Z</time>
      </trkpt>
      <trkpt lat="46.80284" lon="5.45015">
        <ele>215.4</ele>
        <time>2022-03-21T08:08:59Z</time>
      </trkpt>
      <trkpt lat="46.80285" lon="5.45004">
        <ele>215.2</ele>
        <time>2022-03-21T08:09:00Z</time>
      </trkpt>
      <trkpt lat="46.80286" lon="5.44992">
        <ele>215.2</ele>
        <time>2022-03-21T08:09:01Z</time>
      </trkpt>
      <trkpt lat="46.80287" lon="5.4498">
        <ele>214.8</ele>
        <time>2022-03-21T08:09:02Z</time>
      </trkpt>
      <trkpt lat="46.80289" lon="5.44969">
        <ele>214.8</ele>
        <time>2022-03-21T08:09:03Z</time>
      </trkpt>
      <trkpt lat="46.80291" lon="5.44958">
        <ele>214.6</ele>
        <time>2022-03-21T08:09:04Z</time>
      </trkpt>
      <trkpt lat="46.80293" lon="5.44946">
        <ele>214.6</ele>
        <time>2022-03-21T08:09:05Z</time>
      </trkpt>
      <trkpt lat="46.80295" lon="5.44935">
        <ele>214.4</ele>
        <time>2022-03-21T08:09:06Z</time>
      </trkpt>
      <trkpt lat="46.80297" lon="5.44925">
        <ele>214.4</ele>
        <time>2022-03-21T08:09:07Z</time>
      </trkpt>
      <trkpt lat="46.80299" lon="5.44914">
        <ele>214.4</ele>
        <time>2022-03-21T08:09:08Z</time>
      </trkpt>
      <trkpt lat="46.80301" lon="5.44903">
        <ele>214.4</ele>
        <time>2022-03-21T08:09:09Z</time>
      </trkpt>
      <trkpt lat="46.80303" lon="5.44893">
        <ele>214.4</ele>
        <time>2022-03-21T08:09:10Z</time>
      </trkpt>
      <trkpt lat="46.80305" lon="5.44883">
        <ele>214.4</ele>
        <time>2022-03-21T08:09:11Z</time>
      </trkpt>
      <trkpt lat="46.80307" lon="5.44873">
        <ele>214.4</ele>
        <time>2022-03-21T08:09:12Z</time>
      </trkpt>
      <trkpt lat="46.80309" lon="5.44863">
        <ele>214.4</ele>
        <time>2022-03-21T08:09:13Z</time>
      </trkpt>
      <trkpt lat="46.80311" lon="5.44853">
        <ele>214.4</ele>
        <time>2022-03-21T08:09:14Z</time>
      </trkpt>
      <trkpt lat="46.80313" lon="5.44844">
        <ele>214.4</ele>
        <time>2022-03-21T08:09:15Z</time>
      </trkpt>
      <trkpt lat="46.80314" lon="5.44834">
        <ele>214.4</ele>
        <time>2022-03-21T08:09:16Z</time>
      </trkpt>
      <trkpt lat="46.80315" lon="5.44824">
        <ele>214.4</ele>
        <time>2022-03-21T08:09:17Z</time>
      </trkpt>
      <trkpt lat="46.80316" lon="5.44814">
        <ele>214.4</ele>
        <time>2022-03-21T08:09:18Z</time>
      </trkpt>
      <trkpt lat="46.80317" lon="5.44804">
        <ele>214.4</ele>
        <time>2022-03-21T08:09:19Z</time>
      </trkpt>
      <trkpt lat="46.80318" lon="5.44794">
        <ele>214.6</ele>
        <time>2022-03-21T08:09:20Z</time>
      </trkpt>
      <trkpt lat="46.80319" lon="5.44785">
        <ele>214.6</ele>
        <time>2022-03-21T08:09:21Z</time>
      </trkpt>
      <trkpt lat="46.8032" lon="5.44776">
        <ele>214.6</ele>
        <time>2022-03-21T08:09:22Z</time>
      </trkpt>
      <trkpt lat="46.80321" lon="5.44766">
        <ele>215</ele>
        <time>2022-03-21T08:09:23Z</time>
      </trkpt>
      <trkpt lat="46.80322" lon="5.44757">
        <ele>215</ele>
        <time>2022-03-21T08:09:24Z</time>
      </trkpt>
      <trkpt lat="46.80323" lon="5.44748">
        <ele>215.4</ele>
        <time>2022-03-21T08:09:25Z</time>
      </trkpt>
      <trkpt lat="46.80324" lon="5.44739">
        <ele>215.6</ele>
        <time>2022-03-21T08:09:26Z</time>
      </trkpt>
      <trkpt lat="46.80324" lon="5.44731">
        <ele>216</ele>
        <time>2022-03-21T08:09:27Z</time>
      </trkpt>
      <trkpt lat="46.80326" lon="5.44723">
        <ele>216.4</ele>
        <time>2022-03-21T08:09:28Z</time>
      </trkpt>
      <trkpt lat="46.80327" lon="5.44715">
        <ele>216.8</ele>
        <time>2022-03-21T08:09:29Z</time>
      </trkpt>
      <trkpt lat="46.80328" lon="5.44706">
        <ele>217.2</ele>
        <time>2022-03-21T08:09:30Z</time>
      </trkpt>
      <trkpt lat="46.8033" lon="5.44698">
        <ele>217.4</ele>
        <time>2022-03-21T08:09:31Z</time>
      </trkpt>
      <trkpt lat="46.80332" lon="5.4469">
        <ele>217.8</ele>
        <time>2022-03-21T08:09:32Z</time>
      </trkpt>
      <trkpt lat="46.80333" lon="5.44683">
        <ele>218</ele>
        <time>2022-03-21T08:09:33Z</time>
      </trkpt>
      <trkpt lat="46.80334" lon="5.44675">
        <ele>218.2</ele>
        <time>2022-03-21T08:09:34Z</time>
      </trkpt>
      <trkpt lat="46.80336" lon="5.44666">
        <ele>218.6</ele>
        <time>2022-03-21T08:09:35Z</time>
      </trkpt>
      <trkpt lat="46.80337" lon="5.44658">
        <ele>218.8</ele>
        <time>2022-03-21T08:09:36Z</time>
      </trkpt>
      <trkpt lat="46.80339" lon="5.4465">
        <ele>219.2</ele>
        <time>2022-03-21T08:09:37Z</time>
      </trkpt>
      <trkpt lat="46.8034" lon="5.44642">
        <ele>219.2</ele>
        <time>2022-03-21T08:09:38Z</time>
      </trkpt>
      <trkpt lat="46.80341" lon="5.44633">
        <ele>219.6</ele>
        <time>2022-03-21T08:09:39Z</time>
      </trkpt>
      <trkpt lat="46.80341" lon="5.44623">
        <ele>219.6</ele>
        <time>2022-03-21T08:09:40Z</time>
      </trkpt>
      <trkpt lat="46.80341" lon="5.44614">
        <ele>220</ele>
        <time>2022-03-21T08:09:41Z</time>
      </trkpt>
      <trkpt lat="46.80341" lon="5.44605">
        <ele>220</ele>
        <time>2022-03-21T08:09:42Z</time>
      </trkpt>
      <trkpt lat="46.8034" lon="5.44595">
        <ele>220.2</ele>
        <time>2022-03-21T08:09:43Z</time>
      </trkpt>
      <trkpt lat="46.80339" lon="5.44586">
        <ele>220.2</ele>
        <time>2022-03-21T08:09:44Z</time>
      </trkpt>
      <trkpt lat="46.80338" lon="5.44576">
        <ele>220.4</ele>
        <time>2022-03-21T08:09:45Z</time>
      </trkpt>
      <trkpt lat="46.80337" lon="5.44567">
        <ele>220.4</ele>
        <time>2022-03-21T08:09:46Z</time>
      </trkpt>
      <trkpt lat="46.80336" lon="5.44557">
        <ele>220.6</ele>
        <time>2022-03-21T08:09:47Z</time>
      </trkpt>
      <trkpt lat="46.80335" lon="5.44548">
        <ele>220.6</ele>
        <time>2022-03-21T08:09:48Z</time>
      </trkpt>
      <trkpt lat="46.80334" lon="5.44538">
        <ele>220.8</ele>
        <time>2022-03-21T08:09:49Z</time>
      </trkpt>
      <trkpt lat="46.80333" lon="5.44528">
        <ele>220.8</ele>
        <time>2022-03-21T08:09:50Z</time>
      </trkpt>
      <trkpt lat="46.80332" lon="5.44519">
        <ele>220.8</ele>
        <time>2022-03-21T08:09:51Z</time>
      </trkpt>
      <trkpt lat="46.80331" lon="5.4451">
        <ele>220.8</ele>
        <time>2022-03-21T08:09:52Z</time>
      </trkpt>
      <trkpt lat="46.8033" lon="5.445">
        <ele>220.8</ele>
        <time>2022-03-21T08:09:53Z</time>
      </trkpt>
      <trkpt lat="46.80329" lon="5.4449">
        <ele>220.8</ele>
        <time>2022-03-21T08:09:54Z</time>
      </trkpt>
      <trkpt lat="46.80328" lon="5.44481">
        <ele>220.8</ele>
        <time>2022-03-21T08:09:55Z</time>
      </trkpt>
      <trkpt lat="46.80328" lon="5.44471">
        <ele>220.8</ele>
        <time>2022-03-21T08:09:56Z</time>
      </trkpt>
      <trkpt lat="46.80327" lon="5.44461">
        <ele>220.8</ele>
        <time>2022-03-21T08:09:57Z</time>
      </trkpt>
      <trkpt lat="46.80326" lon="5.44452">
        <ele>220.8</ele>
        <time>2022-03-21T08:09:58Z</time>
      </trkpt>
      <trkpt lat="46.80325" lon="5.44442">
        <ele>221</ele>
        <time>2022-03-21T08:09:59Z</time>
      </trkpt>
      <trkpt lat="46.80324" lon="5.44432">
        <ele>221</ele>
        <time>2022-03-21T08:10:00Z</time>
      </trkpt>
      <trkpt lat="46.80323" lon="5.44422">
        <ele>221</ele>
        <time>2022-03-21T08:10:01Z</time>
      </trkpt>
      <trkpt lat="46.80322" lon="5.44413">
        <ele>221</ele>
        <time>2022-03-21T08:10:02Z</time>
      </trkpt>
      <trkpt lat="46.80321" lon="5.44403">
        <ele>221</ele>
        <time>2022-03-21T08:10:03Z</time>
      </trkpt>
      <trkpt lat="46.80321" lon="5.44393">
        <ele>221</ele>
        <time>2022-03-21T08:10:04Z</time>
      </trkpt>
      <trkpt lat="46.8032" lon="5.44383">
        <ele>221</ele>
        <time>2022-03-21T08:10:05Z</time>
      </trkpt>
      <trkpt lat="46.80319" lon="5.44374">
        <ele>221</ele>
        <time>2022-03-21T08:10:06Z</time>
      </trkpt>
      <trkpt lat="46.80318" lon="5.44364">
        <ele>221</ele>
        <time>2022-03-21T08:10:07Z</time>
      </trkpt>
      <trkpt lat="46.80317" lon="5.44354">
        <ele>221</ele>
        <time>2022-03-21T08:10:08Z</time>
      </trkpt>
      <trkpt lat="46.80316" lon="5.44344">
        <ele>221</ele>
        <time>2022-03-21T08:10:09Z</time>
      </trkpt>
      <trkpt lat="46.80315" lon="5.44334">
        <ele>221</ele>
        <time>2022-03-21T08:10:10Z</time>
      </trkpt>
      <trkpt lat="46.80313" lon="5.44324">
        <ele>221</ele>
        <time>2022-03-21T08:10:11Z</time>
      </trkpt>
      <trkpt lat="46.80313" lon="5.44314">
        <ele>221</ele>
        <time>2022-03-21T08:10:12Z</time>
      </trkpt>
      <trkpt lat="46.80312" lon="5.44304">
        <ele>221</ele>
        <time>2022-03-21T08:10:13Z</time>
      </trkpt>
      <trkpt lat="46.80311" lon="5.44294">
        <ele>220.8</ele>
        <time>2022-03-21T08:10:14Z</time>
      </trkpt>
      <trkpt lat="46.8031" lon="5.44284">
        <ele>220.8</ele>
        <time>2022-03-21T08:10:15Z</time>
      </trkpt>
      <trkpt lat="46.80309" lon="5.44273">
        <ele>220.8</ele>
        <time>2022-03-21T08:10:16Z</time>
      </trkpt>
      <trkpt lat="46.80309" lon="5.44263">
        <ele>220.6</ele>
        <time>2022-03-21T08:10:17Z</time>
      </trkpt>
      <trkpt lat="46.80308" lon="5.44252">
        <ele>220.6</ele>
        <time>2022-03-21T08:10:18Z</time>
      </trkpt>
      <trkpt lat="46.80308" lon="5.44242">
        <ele>220.2</ele>
        <time>2022-03-21T08:10:19Z</time>
      </trkpt>
      <trkpt lat="46.80308" lon="5.44231">
        <ele>220.2</ele>
        <time>2022-03-21T08:10:20Z</time>
      </trkpt>
      <trkpt lat="46.80308" lon="5.4422">
        <ele>220</ele>
        <time>2022-03-21T08:10:21Z</time>
      </trkpt>
      <trkpt lat="46.80308" lon="5.44209">
        <ele>219.8</ele>
        <time>2022-03-21T08:10:22Z</time>
      </trkpt>
      <trkpt lat="46.80309" lon="5.44198">
        <ele>219.8</ele>
        <time>2022-03-21T08:10:23Z</time>
      </trkpt>
      <trkpt lat="46.80309" lon="5.44187">
        <ele>219.4</ele>
        <time>2022-03-21T08:10:24Z</time>
      </trkpt>
      <trkpt lat="46.8031" lon="5.44176">
        <ele>219.4</ele>
        <time>2022-03-21T08:10:25Z</time>
      </trkpt>
      <trkpt lat="46.80311" lon="5.44164">
        <ele>219</ele>
        <time>2022-03-21T08:10:26Z</time>
      </trkpt>
      <trkpt lat="46.80313" lon="5.44153">
        <ele>219</ele>
        <time>2022-03-21T08:10:27Z</time>
      </trkpt>
      <trkpt lat="46.80315" lon="5.44142">
        <ele>218.8</ele>
        <time>2022-03-21T08:10:28Z</time>
      </trkpt>
      <trkpt lat="46.80316" lon="5.4413">
        <ele>218.6</ele>
        <time>2022-03-21T08:10:29Z</time>
      </trkpt>
      <trkpt lat="46.80318" lon="5.44119">
        <ele>218.2</ele>
        <time>2022-03-21T08:10:30Z</time>
      </trkpt>
      <trkpt lat="46.80319" lon="5.44107">
        <ele>218</ele>
        <time>2022-03-21T08:10:31Z</time>
      </trkpt>
      <trkpt lat="46.80321" lon="5.44095">
        <ele>217.8</ele>
        <time>2022-03-21T08:10:32Z</time>
      </trkpt>
      <trkpt lat="46.80323" lon="5.44083">
        <ele>217.6</ele>
        <time>2022-03-21T08:10:33Z</time>
      </trkpt>
      <trkpt lat="46.80325" lon="5.44071">
        <ele>217.6</ele>
        <time>2022-03-21T08:10:34Z</time>
      </trkpt>
      <trkpt lat="46.80326" lon="5.44058">
        <ele>217</ele>
        <time>2022-03-21T08:10:35Z</time>
      </trkpt>
      <trkpt lat="46.80328" lon="5.44045">
        <ele>216.6</ele>
        <time>2022-03-21T08:10:36Z</time>
      </trkpt>
      <trkpt lat="46.8033" lon="5.44033">
        <ele>216.2</ele>
        <time>2022-03-21T08:10:37Z</time>
      </trkpt>
      <trkpt lat="46.80332" lon="5.4402">
        <ele>216</ele>
        <time>2022-03-21T08:10:38Z</time>
      </trkpt>
      <trkpt lat="46.80335" lon="5.44007">
        <ele>215.6</ele>
        <time>2022-03-21T08:10:39Z</time>
      </trkpt>
      <trkpt lat="46.80337" lon="5.43993">
        <ele>215.4</ele>
        <time>2022-03-21T08:10:40Z</time>
      </trkpt>
      <trkpt lat="46.80339" lon="5.4398">
        <ele>215</ele>
        <time>2022-03-21T08:10:41Z</time>
      </trkpt>
      <trkpt lat="46.80341" lon="5.43967">
        <ele>214.6</ele>
        <time>2022-03-21T08:10:42Z</time>
      </trkpt>
      <trkpt lat="46.80343" lon="5.43953">
        <ele>214.2</ele>
        <time>2022-03-21T08:10:43Z</time>
      </trkpt>
      <trkpt lat="46.80345" lon="5.43939">
        <ele>214</ele>
        <time>2022-03-21T08:10:44Z</time>
      </trkpt>
      <trkpt lat="46.80346" lon="5.43925">
        <ele>213.6</ele>
        <time>2022-03-21T08:10:45Z</time>
      </trkpt>
      <trkpt lat="46.80348" lon="5.43912">
        <ele>213.2</ele>
        <time>2022-03-21T08:10:46Z</time>
      </trkpt>
      <trkpt lat="46.80351" lon="5.43898">
        <ele>213</ele>
        <time>2022-03-21T08:10:47Z</time>
      </trkpt>
      <trkpt lat="46.80353" lon="5.43885">
        <ele>212.6</ele>
        <time>2022-03-21T08:10:48Z</time>
      </trkpt>
      <trkpt lat="46.80355" lon="5.43871">
        <ele>212.4</ele>
        <time>2022-03-21T08:10:49Z</time>
      </trkpt>
      <trkpt lat="46.80357" lon="5.43858">
        <ele>212.4</ele>
        <time>2022-03-21T08:10:50Z</time>
      </trkpt>
      <trkpt lat="46.80358" lon="5.43845">
        <ele>212</ele>
        <time>2022-03-21T08:10:51Z</time>
      </trkpt>
      <trkpt lat="46.8036" lon="5.43831">
        <ele>211.6</ele>
        <time>2022-03-21T08:10:52Z</time>
      </trkpt>
      <trkpt lat="46.80362" lon="5.43819">
        <ele>211.6</ele>
        <time>2022-03-21T08:10:53Z</time>
      </trkpt>
      <trkpt lat="46.80364" lon="5.43806">
        <ele>211.4</ele>
        <time>2022-03-21T08:10:54Z</time>
      </trkpt>
      <trkpt lat="46.80365" lon="5.43792">
        <ele>211</ele>
        <time>2022-03-21T08:10:55Z</time>
      </trkpt>
      <trkpt lat="46.80367" lon="5.43779">
        <ele>210.8</ele>
        <time>2022-03-21T08:10:56Z</time>
      </trkpt>
      <trkpt lat="46.80369" lon="5.43766">
        <ele>210.6</ele>
        <time>2022-03-21T08:10:57Z</time>
      </trkpt>
      <trkpt lat="46.80371" lon="5.43753">
        <ele>210.4</ele>
        <time>2022-03-21T08:10:58Z</time>
      </trkpt>
      <trkpt lat="46.80373" lon="5.4374">
        <ele>210.2</ele>
        <time>2022-03-21T08:10:59Z</time>
      </trkpt>
      <trkpt lat="46.80375" lon="5.43727">
        <ele>210.2</ele>
        <time>2022-03-21T08:11:00Z</time>
      </trkpt>
      <trkpt lat="46.80377" lon="5.43713">
        <ele>209.8</ele>
        <time>2022-03-21T08:11:01Z</time>
      </trkpt>
      <trkpt lat="46.80378" lon="5.437">
        <ele>209.4</ele>
        <time>2022-03-21T08:11:02Z</time>
      </trkpt>
      <trkpt lat="46.8038" lon="5.43687">
        <ele>209.2</ele>
        <time>2022-03-21T08:11:03Z</time>
      </trkpt>
      <trkpt lat="46.80382" lon="5.43674">
        <ele>208.8</ele>
        <time>2022-03-21T08:11:04Z</time>
      </trkpt>
      <trkpt lat="46.80384" lon="5.43661">
        <ele>208.4</ele>
        <time>2022-03-21T08:11:05Z</time>
      </trkpt>
      <trkpt lat="46.80386" lon="5.43647">
        <ele>208.2</ele>
        <time>2022-03-21T08:11:06Z</time>
      </trkpt>
      <trkpt lat="46.80388" lon="5.43634">
        <ele>208</ele>
        <time>2022-03-21T08:11:07Z</time>
      </trkpt>
      <trkpt lat="46.8039" lon="5.43621">
        <ele>207.6</ele>
        <time>2022-03-21T08:11:08Z</time>
      </trkpt>
      <trkpt lat="46.80392" lon="5.43608">
        <ele>207.4</ele>
        <time>2022-03-21T08:11:09Z</time>
      </trkpt>
      <trkpt lat="46.80394" lon="5.43595">
        <ele>207.2</ele>
        <time>2022-03-21T08:11:10Z</time>
      </trkpt>
      <trkpt lat="46.80396" lon="5.43583">
        <ele>207.2</ele>
        <time>2022-03-21T08:11:11Z</time>
      </trkpt>
      <trkpt lat="46.80398" lon="5.4357">
        <ele>207</ele>
        <time>2022-03-21T08:11:12Z</time>
      </trkpt>
      <trkpt lat="46.804" lon="5.43558">
        <ele>207</ele>
        <time>2022-03-21T08:11:13Z</time>
      </trkpt>
      <trkpt lat="46.80402" lon="5.43546">
        <ele>207</ele>
        <time>2022-03-21T08:11:14Z</time>
      </trkpt>
      <trkpt lat="46.80404" lon="5.43534">
        <ele>206.8</ele>
        <time>2022-03-21T08:11:15Z</time>
      </trkpt>
      <trkpt lat="46.80406" lon="5.43523">
        <ele>206.8</ele>
        <time>2022-03-21T08:11:16Z</time>
      </trkpt>
      <trkpt lat="46.80408" lon="5.43511">
        <ele>206.8</ele>
        <time>2022-03-21T08:11:17Z</time>
      </trkpt>
      <trkpt lat="46.8041" lon="5.435">
        <ele>206.8</ele>
        <time>2022-03-21T08:11:18Z</time>
      </trkpt>
      <trkpt lat="46.80412" lon="5.43489">
        <ele>206.8</ele>
        <time>2022-03-21T08:11:19Z</time>
      </trkpt>
      <trkpt lat="46.80414" lon="5.43478">
        <ele>206.8</ele>
        <time>2022-03-21T08:11:20Z</time>
      </trkpt>
      <trkpt lat="46.80416" lon="5.43467">
        <ele>206.8</ele>
        <time>2022-03-21T08:11:21Z</time>
      </trkpt>
      <trkpt lat="46.80418" lon="5.43457">
        <ele>206.8</ele>
        <time>2022-03-21T08:11:22Z</time>
      </trkpt>
      <trkpt lat="46.80419" lon="5.43446">
        <ele>207</ele>
        <time>2022-03-21T08:11:23Z</time>
      </trkpt>
      <trkpt lat="46.80421" lon="5.43436">
        <ele>207</ele>
        <time>2022-03-21T08:11:24Z</time>
      </trkpt>
      <trkpt lat="46.80423" lon="5.43427">
        <ele>207.4</ele>
        <time>2022-03-21T08:11:25Z</time>
      </trkpt>
      <trkpt lat="46.80425" lon="5.43417">
        <ele>207.4</ele>
        <time>2022-03-21T08:11:26Z</time>
      </trkpt>
      <trkpt lat="46.80426" lon="5.43408">
        <ele>207.6</ele>
        <time>2022-03-21T08:11:27Z</time>
      </trkpt>
      <trkpt lat="46.80428" lon="5.43399">
        <ele>207.6</ele>
        <time>2022-03-21T08:11:28Z</time>
      </trkpt>
      <trkpt lat="46.8043" lon="5.4339">
        <ele>207.6</ele>
        <time>2022-03-21T08:11:29Z</time>
      </trkpt>
      <trkpt lat="46.80432" lon="5.43381">
        <ele>208</ele>
        <time>2022-03-21T08:11:30Z</time>
      </trkpt>
      <trkpt lat="46.80434" lon="5.43373">
        <ele>208</ele>
        <time>2022-03-21T08:11:31Z</time>
      </trkpt>
      <trkpt lat="46.80436" lon="5.43365">
        <ele>208.2</ele>
        <time>2022-03-21T08:11:32Z</time>
      </trkpt>
      <trkpt lat="46.80437" lon="5.43357">
        <ele>208.2</ele>
        <time>2022-03-21T08:11:33Z</time>
      </trkpt>
      <trkpt lat="46.80439" lon="5.43348">
        <ele>208.4</ele>
        <time>2022-03-21T08:11:34Z</time>
      </trkpt>
      <trkpt lat="46.80441" lon="5.4334">
        <ele>208.4</ele>
        <time>2022-03-21T08:11:35Z</time>
      </trkpt>
      <trkpt lat="46.80442" lon="5.43331">
        <ele>208.4</ele>
        <time>2022-03-21T08:11:36Z</time>
      </trkpt>
      <trkpt lat="46.80443" lon="5.43322">
        <ele>208.8</ele>
        <time>2022-03-21T08:11:37Z</time>
      </trkpt>
      <trkpt lat="46.80445" lon="5.43314">
        <ele>208.8</ele>
        <time>2022-03-21T08:11:38Z</time>
      </trkpt>
      <trkpt lat="46.80446" lon="5.43305">
        <ele>208.8</ele>
        <time>2022-03-21T08:11:39Z</time>
      </trkpt>
      <trkpt lat="46.80448" lon="5.43296">
        <ele>209</ele>
        <time>2022-03-21T08:11:41Z</time>
      </trkpt>
      <trkpt lat="46.80449" lon="5.43287">
        <ele>209</ele>
        <time>2022-03-21T08:11:42Z</time>
      </trkpt>
      <trkpt lat="46.80451" lon="5.43278">
        <ele>209</ele>
        <time>2022-03-21T08:11:43Z</time>
      </trkpt>
      <trkpt lat="46.80452" lon="5.43269">
        <ele>209.2</ele>
        <time>2022-03-21T08:11:44Z</time>
      </trkpt>
      <trkpt lat="46.80454" lon="5.4326">
        <ele>209.2</ele>
        <time>2022-03-21T08:11:45Z</time>
      </trkpt>
      <trkpt lat="46.80456" lon="5.43251">
        <ele>209.2</ele>
        <time>2022-03-21T08:11:46Z</time>
      </trkpt>
      <trkpt lat="46.80458" lon="5.43241">
        <ele>209.6</ele>
        <time>2022-03-21T08:11:47Z</time>
      </trkpt>
      <trkpt lat="46.80459" lon="5.43231">
        <ele>209.6</ele>
        <time>2022-03-21T08:11:48Z</time>
      </trkpt>
      <trkpt lat="46.80461" lon="5.43221">
        <ele>209.6</ele>
        <time>2022-03-21T08:11:49Z</time>
      </trkpt>
      <trkpt lat="46.80462" lon="5.43212">
        <ele>209.8</ele>
        <time>2022-03-21T08:11:50Z</time>
      </trkpt>
      <trkpt lat="46.80464" lon="5.43202">
        <ele>209.8</ele>
        <time>2022-03-21T08:11:51Z</time>
      </trkpt>
      <trkpt lat="46.80466" lon="5.43192">
        <ele>210</ele>
        <time>2022-03-21T08:11:52Z</time>
      </trkpt>
      <trkpt lat="46.80467" lon="5.43183">
        <ele>210</ele>
        <time>2022-03-21T08:11:53Z</time>
      </trkpt>
      <trkpt lat="46.80469" lon="5.43174">
        <ele>210</ele>
        <time>2022-03-21T08:11:54Z</time>
      </trkpt>
      <trkpt lat="46.8047" lon="5.43164">
        <ele>210.4</ele>
        <time>2022-03-21T08:11:55Z</time>
      </trkpt>
      <trkpt lat="46.8047" lon="5.43154">
        <ele>210.4</ele>
        <time>2022-03-21T08:11:56Z</time>
      </trkpt>
      <trkpt lat="46.80471" lon="5.43145">
        <ele>210.6</ele>
        <time>2022-03-21T08:11:57Z</time>
      </trkpt>
      <trkpt lat="46.80472" lon="5.43136">
        <ele>210.8</ele>
        <time>2022-03-21T08:11:58Z</time>
      </trkpt>
      <trkpt lat="46.80473" lon="5.43127">
        <ele>210.8</ele>
        <time>2022-03-21T08:11:59Z</time>
      </trkpt>
      <trkpt lat="46.80474" lon="5.43118">
        <ele>211.2</ele>
        <time>2022-03-21T08:12:00Z</time>
      </trkpt>
      <trkpt lat="46.80475" lon="5.4311">
        <ele>211.2</ele>
        <time>2022-03-21T08:12:01Z</time>
      </trkpt>
      <trkpt lat="46.80476" lon="5.43102">
        <ele>211.4</ele>
        <time>2022-03-21T08:12:02Z</time>
      </trkpt>
      <trkpt lat="46.80476" lon="5.43093">
        <ele>211.4</ele>
        <time>2022-03-21T08:12:03Z</time>
      </trkpt>
      <trkpt lat="46.80477" lon="5.43085">
        <ele>211.8</ele>
        <time>2022-03-21T08:12:04Z</time>
      </trkpt>
      <trkpt lat="46.80478" lon="5.43076">
        <ele>212.2</ele>
        <time>2022-03-21T08:12:05Z</time>
      </trkpt>
      <trkpt lat="46.80478" lon="5.43067">
        <ele>212.4</ele>
        <time>2022-03-21T08:12:06Z</time>
      </trkpt>
      <trkpt lat="46.80479" lon="5.43058">
        <ele>212.6</ele>
        <time>2022-03-21T08:12:07Z</time>
      </trkpt>
      <trkpt lat="46.80479" lon="5.43049">
        <ele>212.6</ele>
        <time>2022-03-21T08:12:08Z</time>
      </trkpt>
      <trkpt lat="46.8048" lon="5.4304">
        <ele>213</ele>
        <time>2022-03-21T08:12:09Z</time>
      </trkpt>
      <trkpt lat="46.80481" lon="5.43032">
        <ele>213</ele>
        <time>2022-03-21T08:12:10Z</time>
      </trkpt>
      <trkpt lat="46.80482" lon="5.43023">
        <ele>213.2</ele>
        <time>2022-03-21T08:12:11Z</time>
      </trkpt>
      <trkpt lat="46.80483" lon="5.43015">
        <ele>213.6</ele>
        <time>2022-03-21T08:12:12Z</time>
      </trkpt>
      <trkpt lat="46.80484" lon="5.43007">
        <ele>213.8</ele>
        <time>2022-03-21T08:12:13Z</time>
      </trkpt>
      <trkpt lat="46.80485" lon="5.42999">
        <ele>214</ele>
        <time>2022-03-21T08:12:14Z</time>
      </trkpt>
      <trkpt lat="46.80486" lon="5.42991">
        <ele>214.2</ele>
        <time>2022-03-21T08:12:15Z</time>
      </trkpt>
      <trkpt lat="46.80487" lon="5.42983">
        <ele>214.2</ele>
        <time>2022-03-21T08:12:16Z</time>
      </trkpt>
      <trkpt lat="46.80487" lon="5.42976">
        <ele>214.6</ele>
        <time>2022-03-21T08:12:17Z</time>
      </trkpt>
      <trkpt lat="46.80488" lon="5.42968">
        <ele>215</ele>
        <time>2022-03-21T08:12:18Z</time>
      </trkpt>
      <trkpt lat="46.80489" lon="5.4296">
        <ele>215.2</ele>
        <time>2022-03-21T08:12:19Z</time>
      </trkpt>
      <trkpt lat="46.80491" lon="5.42953">
        <ele>215.6</ele>
        <time>2022-03-21T08:12:20Z</time>
      </trkpt>
      <trkpt lat="46.80493" lon="5.42946">
        <ele>215.6</ele>
        <time>2022-03-21T08:12:21Z</time>
      </trkpt>
      <trkpt lat="46.80494" lon="5.42938">
        <ele>215.8</ele>
        <time>2022-03-21T08:12:22Z</time>
      </trkpt>
      <trkpt lat="46.80496" lon="5.4293">
        <ele>215.8</ele>
        <time>2022-03-21T08:12:23Z</time>
      </trkpt>
      <trkpt lat="46.80498" lon="5.42923">
        <ele>216</ele>
        <time>2022-03-21T08:12:24Z</time>
      </trkpt>
      <trkpt lat="46.80501" lon="5.42916">
        <ele>216</ele>
        <time>2022-03-21T08:12:25Z</time>
      </trkpt>
      <trkpt lat="46.80504" lon="5.42909">
        <ele>216</ele>
        <time>2022-03-21T08:12:26Z</time>
      </trkpt>
      <trkpt lat="46.80508" lon="5.42902">
        <ele>216.4</ele>
        <time>2022-03-21T08:12:27Z</time>
      </trkpt>
      <trkpt lat="46.80512" lon="5.42895">
        <ele>216.4</ele>
        <time>2022-03-21T08:12:28Z</time>
      </trkpt>
      <trkpt lat="46.80516" lon="5.42889">
        <ele>216.4</ele>
        <time>2022-03-21T08:12:29Z</time>
      </trkpt>
      <trkpt lat="46.80521" lon="5.42884">
        <ele>216.4</ele>
        <time>2022-03-21T08:12:30Z</time>
      </trkpt>
      <trkpt lat="46.80526" lon="5.42878">
        <ele>216.6</ele>
        <time>2022-03-21T08:12:31Z</time>
      </trkpt>
      <trkpt lat="46.80531" lon="5.42872">
        <ele>216.6</ele>
        <time>2022-03-21T08:12:32Z</time>
      </trkpt>
      <trkpt lat="46.80536" lon="5.42867">
        <ele>216.6</ele>
        <time>2022-03-21T08:12:33Z</time>
      </trkpt>
      <trkpt lat="46.80542" lon="5.42861">
        <ele>216.6</ele>
        <time>2022-03-21T08:12:34Z</time>
      </trkpt>
      <trkpt lat="46.80547" lon="5.42856">
        <ele>216.6</ele>
        <time>2022-03-21T08:12:35Z</time>
      </trkpt>
      <trkpt lat="46.80552" lon="5.4285">
        <ele>216.8</ele>
        <time>2022-03-21T08:12:36Z</time>
      </trkpt>
      <trkpt lat="46.80557" lon="5.42844">
        <ele>216.8</ele>
        <time>2022-03-21T08:12:37Z</time>
      </trkpt>
      <trkpt lat="46.80563" lon="5.42838">
        <ele>216.8</ele>
        <time>2022-03-21T08:12:38Z</time>
      </trkpt>
      <trkpt lat="46.80569" lon="5.42832">
        <ele>216.8</ele>
        <time>2022-03-21T08:12:39Z</time>
      </trkpt>
      <trkpt lat="46.80574" lon="5.42826">
        <ele>216.8</ele>
        <time>2022-03-21T08:12:40Z</time>
      </trkpt>
      <trkpt lat="46.8058" lon="5.42819">
        <ele>216.8</ele>
        <time>2022-03-21T08:12:41Z</time>
      </trkpt>
      <trkpt lat="46.80586" lon="5.42813">
        <ele>216.4</ele>
        <time>2022-03-21T08:12:42Z</time>
      </trkpt>
      <trkpt lat="46.80598" lon="5.428">
        <ele>216.4</ele>
        <time>2022-03-21T08:12:43Z</time>
      </trkpt>
      <trkpt lat="46.80604" lon="5.42794">
        <ele>216.2</ele>
        <time>2022-03-21T08:12:44Z</time>
      </trkpt>
      <trkpt lat="46.8061" lon="5.42787">
        <ele>216.2</ele>
        <time>2022-03-21T08:12:45Z</time>
      </trkpt>
      <trkpt lat="46.80617" lon="5.42781">
        <ele>216.2</ele>
        <time>2022-03-21T08:12:46Z</time>
      </trkpt>
      <trkpt lat="46.80623" lon="5.42774">
        <ele>216</ele>
        <time>2022-03-21T08:12:47Z</time>
      </trkpt>
      <trkpt lat="46.80629" lon="5.42767">
        <ele>216</ele>
        <time>2022-03-21T08:12:48Z</time>
      </trkpt>
      <trkpt lat="46.80636" lon="5.4276">
        <ele>215.8</ele>
        <time>2022-03-21T08:12:49Z</time>
      </trkpt>
      <trkpt lat="46.80642" lon="5.42753">
        <ele>215.8</ele>
        <time>2022-03-21T08:12:50Z</time>
      </trkpt>
      <trkpt lat="46.80649" lon="5.42746">
        <ele>215.8</ele>
        <time>2022-03-21T08:12:51Z</time>
      </trkpt>
      <trkpt lat="46.80655" lon="5.42739">
        <ele>215.8</ele>
        <time>2022-03-21T08:12:52Z</time>
      </trkpt>
      <trkpt lat="46.80661" lon="5.42732">
        <ele>215.4</ele>
        <time>2022-03-21T08:12:53Z</time>
      </trkpt>
      <trkpt lat="46.80667" lon="5.42724">
        <ele>215.4</ele>
        <time>2022-03-21T08:12:54Z</time>
      </trkpt>
      <trkpt lat="46.80673" lon="5.42716">
        <ele>215.4</ele>
        <time>2022-03-21T08:12:55Z</time>
      </trkpt>
      <trkpt lat="46.80679" lon="5.42707">
        <ele>215.2</ele>
        <time>2022-03-21T08:12:56Z</time>
      </trkpt>
      <trkpt lat="46.80684" lon="5.42698">
        <ele>215.2</ele>
        <time>2022-03-21T08:12:57Z</time>
      </trkpt>
      <trkpt lat="46.80689" lon="5.42689">
        <ele>215</ele>
        <time>2022-03-21T08:12:58Z</time>
      </trkpt>
      <trkpt lat="46.80694" lon="5.42679">
        <ele>215</ele>
        <time>2022-03-21T08:12:59Z</time>
      </trkpt>
      <trkpt lat="46.807" lon="5.42669">
        <ele>214.6</ele>
        <time>2022-03-21T08:13:00Z</time>
      </trkpt>
      <trkpt lat="46.80704" lon="5.42659">
        <ele>214.6</ele>
        <time>2022-03-21T08:13:01Z</time>
      </trkpt>
      <trkpt lat="46.80709" lon="5.42649">
        <ele>214.2</ele>
        <time>2022-03-21T08:13:02Z</time>
      </trkpt>
      <trkpt lat="46.80714" lon="5.42638">
        <ele>214.2</ele>
        <time>2022-03-21T08:13:03Z</time>
      </trkpt>
      <trkpt lat="46.80719" lon="5.42627">
        <ele>214</ele>
        <time>2022-03-21T08:13:04Z</time>
      </trkpt>
      <trkpt lat="46.80724" lon="5.42617">
        <ele>214</ele>
        <time>2022-03-21T08:13:05Z</time>
      </trkpt>
      <trkpt lat="46.80728" lon="5.42606">
        <ele>214</ele>
        <time>2022-03-21T08:13:06Z</time>
      </trkpt>
      <trkpt lat="46.80733" lon="5.42595">
        <ele>214</ele>
        <time>2022-03-21T08:13:07Z</time>
      </trkpt>
      <trkpt lat="46.80738" lon="5.42585">
        <ele>213.6</ele>
        <time>2022-03-21T08:13:08Z</time>
      </trkpt>
      <trkpt lat="46.80742" lon="5.42574">
        <ele>213.6</ele>
        <time>2022-03-21T08:13:09Z</time>
      </trkpt>
      <trkpt lat="46.80747" lon="5.42563">
        <ele>213.4</ele>
        <time>2022-03-21T08:13:10Z</time>
      </trkpt>
      <trkpt lat="46.80752" lon="5.42552">
        <ele>213.4</ele>
        <time>2022-03-21T08:13:11Z</time>
      </trkpt>
      <trkpt lat="46.80757" lon="5.42541">
        <ele>213.4</ele>
        <time>2022-03-21T08:13:12Z</time>
      </trkpt>
      <trkpt lat="46.80761" lon="5.42531">
        <ele>213.2</ele>
        <time>2022-03-21T08:13:13Z</time>
      </trkpt>
      <trkpt lat="46.80766" lon="5.4252">
        <ele>213.2</ele>
        <time>2022-03-21T08:13:14Z</time>
      </trkpt>
      <trkpt lat="46.80771" lon="5.4251">
        <ele>213.2</ele>
        <time>2022-03-21T08:13:15Z</time>
      </trkpt>
      <trkpt lat="46.80776" lon="5.42499">
        <ele>213</ele>
        <time>2022-03-21T08:13:16Z</time>
      </trkpt>
      <trkpt lat="46.80781" lon="5.42489">
        <ele>213</ele>
        <time>2022-03-21T08:13:17Z</time>
      </trkpt>
      <trkpt lat="46.80785" lon="5.42478">
        <ele>212.8</ele>
        <time>2022-03-21T08:13:18Z</time>
      </trkpt>
      <trkpt lat="46.8079" lon="5.42467">
        <ele>212.8</ele>
        <time>2022-03-21T08:13:19Z</time>
      </trkpt>
      <trkpt lat="46.80795" lon="5.42456">
        <ele>212.4</ele>
        <time>2022-03-21T08:13:20Z</time>
      </trkpt>
      <trkpt lat="46.808" lon="5.42445">
        <ele>212.4</ele>
        <time>2022-03-21T08:13:21Z</time>
      </trkpt>
      <trkpt lat="46.80805" lon="5.42434">
        <ele>212.2</ele>
        <time>2022-03-21T08:13:22Z</time>
      </trkpt>
      <trkpt lat="46.80809" lon="5.42423">
        <ele>212.2</ele>
        <time>2022-03-21T08:13:23Z</time>
      </trkpt>
      <trkpt lat="46.80814" lon="5.42411">
        <ele>212</ele>
        <time>2022-03-21T08:13:24Z</time>
      </trkpt>
      <trkpt lat="46.80819" lon="5.42401">
        <ele>211.8</ele>
        <time>2022-03-21T08:13:25Z</time>
      </trkpt>
      <trkpt lat="46.80825" lon="5.42389">
        <ele>211.4</ele>
        <time>2022-03-21T08:13:26Z</time>
      </trkpt>
      <trkpt lat="46.8083" lon="5.42379">
        <ele>211.4</ele>
        <time>2022-03-21T08:13:27Z</time>
      </trkpt>
      <trkpt lat="46.80836" lon="5.42367">
        <ele>211</ele>
        <time>2022-03-21T08:13:28Z</time>
      </trkpt>
      <trkpt lat="46.80841" lon="5.42355">
        <ele>210.8</ele>
        <time>2022-03-21T08:13:29Z</time>
      </trkpt>
      <trkpt lat="46.80846" lon="5.42343">
        <ele>210.6</ele>
        <time>2022-03-21T08:13:30Z</time>
      </trkpt>
      <trkpt lat="46.80851" lon="5.42331">
        <ele>210.2</ele>
        <time>2022-03-21T08:13:31Z</time>
      </trkpt>
      <trkpt lat="46.80856" lon="5.4232">
        <ele>209.8</ele>
        <time>2022-03-21T08:13:32Z</time>
      </trkpt>
      <trkpt lat="46.80861" lon="5.42308">
        <ele>209.8</ele>
        <time>2022-03-21T08:13:33Z</time>
      </trkpt>
      <trkpt lat="46.80866" lon="5.42296">
        <ele>209.8</ele>
        <time>2022-03-21T08:13:34Z</time>
      </trkpt>
      <trkpt lat="46.80871" lon="5.42285">
        <ele>209.8</ele>
        <time>2022-03-21T08:13:35Z</time>
      </trkpt>
      <trkpt lat="46.80876" lon="5.42274">
        <ele>209.8</ele>
        <time>2022-03-21T08:13:36Z</time>
      </trkpt>
      <trkpt lat="46.80881" lon="5.42263">
        <ele>209.8</ele>
        <time>2022-03-21T08:13:37Z</time>
      </trkpt>
      <trkpt lat="46.80885" lon="5.42253">
        <ele>209.8</ele>
        <time>2022-03-21T08:13:38Z</time>
      </trkpt>
      <trkpt lat="46.8089" lon="5.42243">
        <ele>210.2</ele>
        <time>2022-03-21T08:13:39Z</time>
      </trkpt>
      <trkpt lat="46.80894" lon="5.42234">
        <ele>210.2</ele>
        <time>2022-03-21T08:13:40Z</time>
      </trkpt>
      <trkpt lat="46.80897" lon="5.42225">
        <ele>210.6</ele>
        <time>2022-03-21T08:13:41Z</time>
      </trkpt>
      <trkpt lat="46.80901" lon="5.42216">
        <ele>210.8</ele>
        <time>2022-03-21T08:13:42Z</time>
      </trkpt>
      <trkpt lat="46.80905" lon="5.42208">
        <ele>211</ele>
        <time>2022-03-21T08:13:43Z</time>
      </trkpt>
      <trkpt lat="46.80908" lon="5.422">
        <ele>211.4</ele>
        <time>2022-03-21T08:13:44Z</time>
      </trkpt>
      <trkpt lat="46.8091" lon="5.42192">
        <ele>211.6</ele>
        <time>2022-03-21T08:13:45Z</time>
      </trkpt>
      <trkpt lat="46.80912" lon="5.42184">
        <ele>212</ele>
        <time>2022-03-21T08:13:46Z</time>
      </trkpt>
      <trkpt lat="46.80915" lon="5.42176">
        <ele>212.4</ele>
        <time>2022-03-21T08:13:47Z</time>
      </trkpt>
      <trkpt lat="46.80917" lon="5.42169">
        <ele>212.8</ele>
        <time>2022-03-21T08:13:48Z</time>
      </trkpt>
      <trkpt lat="46.80919" lon="5.42162">
        <ele>213</ele>
        <time>2022-03-21T08:13:49Z</time>
      </trkpt>
      <trkpt lat="46.8092" lon="5.42154">
        <ele>213.4</ele>
        <time>2022-03-21T08:13:50Z</time>
      </trkpt>
      <trkpt lat="46.80921" lon="5.42147">
        <ele>213.6</ele>
        <time>2022-03-21T08:13:51Z</time>
      </trkpt>
      <trkpt lat="46.80922" lon="5.42139">
        <ele>213.8</ele>
        <time>2022-03-21T08:13:52Z</time>
      </trkpt>
      <trkpt lat="46.80923" lon="5.42131">
        <ele>214.2</ele>
        <time>2022-03-21T08:13:53Z</time>
      </trkpt>
      <trkpt lat="46.80924" lon="5.42123">
        <ele>214.4</ele>
        <time>2022-03-21T08:13:54Z</time>
      </trkpt>
      <trkpt lat="46.80925" lon="5.42115">
        <ele>214.4</ele>
        <time>2022-03-21T08:13:55Z</time>
      </trkpt>
      <trkpt lat="46.80926" lon="5.42107">
        <ele>214.8</ele>
        <time>2022-03-21T08:13:56Z</time>
      </trkpt>
      <trkpt lat="46.80927" lon="5.42099">
        <ele>214.8</ele>
        <time>2022-03-21T08:13:57Z</time>
      </trkpt>
      <trkpt lat="46.80928" lon="5.4209">
        <ele>215.2</ele>
        <time>2022-03-21T08:13:58Z</time>
      </trkpt>
      <trkpt lat="46.8093" lon="5.42081">
        <ele>215.2</ele>
        <time>2022-03-21T08:13:59Z</time>
      </trkpt>
      <trkpt lat="46.80931" lon="5.42073">
        <ele>215.6</ele>
        <time>2022-03-21T08:14:00Z</time>
      </trkpt>
      <trkpt lat="46.80932" lon="5.42065">
        <ele>215.6</ele>
        <time>2022-03-21T08:14:01Z</time>
      </trkpt>
      <trkpt lat="46.80933" lon="5.42058">
        <ele>215.6</ele>
        <time>2022-03-21T08:14:02Z</time>
      </trkpt>
      <trkpt lat="46.80935" lon="5.4205">
        <ele>215.6</ele>
        <time>2022-03-21T08:14:03Z</time>
      </trkpt>
      <trkpt lat="46.80936" lon="5.42041">
        <ele>215.8</ele>
        <time>2022-03-21T08:14:04Z</time>
      </trkpt>
      <trkpt lat="46.80937" lon="5.42032">
        <ele>215.8</ele>
        <time>2022-03-21T08:14:05Z</time>
      </trkpt>
      <trkpt lat="46.80938" lon="5.42023">
        <ele>215.8</ele>
        <time>2022-03-21T08:14:06Z</time>
      </trkpt>
      <trkpt lat="46.80939" lon="5.42013">
        <ele>215.8</ele>
        <time>2022-03-21T08:14:07Z</time>
      </trkpt>
      <trkpt lat="46.80941" lon="5.42003">
        <ele>215.8</ele>
        <time>2022-03-21T08:14:08Z</time>
      </trkpt>
      <trkpt lat="46.80943" lon="5.41993">
        <ele>215.8</ele>
        <time>2022-03-21T08:14:09Z</time>
      </trkpt>
      <trkpt lat="46.80944" lon="5.41982">
        <ele>215.8</ele>
        <time>2022-03-21T08:14:10Z</time>
      </trkpt>
      <trkpt lat="46.80946" lon="5.41972">
        <ele>215.8</ele>
        <time>2022-03-21T08:14:11Z</time>
      </trkpt>
      <trkpt lat="46.80948" lon="5.41961">
        <ele>215.4</ele>
        <time>2022-03-21T08:14:12Z</time>
      </trkpt>
      <trkpt lat="46.80949" lon="5.41949">
        <ele>215.2</ele>
        <time>2022-03-21T08:14:13Z</time>
      </trkpt>
      <trkpt lat="46.80951" lon="5.41937">
        <ele>215</ele>
        <time>2022-03-21T08:14:14Z</time>
      </trkpt>
      <trkpt lat="46.80953" lon="5.41925">
        <ele>214.8</ele>
        <time>2022-03-21T08:14:15Z</time>
      </trkpt>
      <trkpt lat="46.80955" lon="5.41913">
        <ele>214.6</ele>
        <time>2022-03-21T08:14:16Z</time>
      </trkpt>
      <trkpt lat="46.80957" lon="5.419">
        <ele>214.2</ele>
        <time>2022-03-21T08:14:17Z</time>
      </trkpt>
      <trkpt lat="46.80959" lon="5.41887">
        <ele>213.8</ele>
        <time>2022-03-21T08:14:18Z</time>
      </trkpt>
      <trkpt lat="46.80961" lon="5.41874">
        <ele>213.4</ele>
        <time>2022-03-21T08:14:19Z</time>
      </trkpt>
      <trkpt lat="46.80963" lon="5.4186">
        <ele>213.2</ele>
        <time>2022-03-21T08:14:20Z</time>
      </trkpt>
      <trkpt lat="46.80965" lon="5.41847">
        <ele>212.8</ele>
        <time>2022-03-21T08:14:21Z</time>
      </trkpt>
      <trkpt lat="46.80967" lon="5.41833">
        <ele>212.4</ele>
        <time>2022-03-21T08:14:22Z</time>
      </trkpt>
      <trkpt lat="46.80969" lon="5.41819">
        <ele>212</ele>
        <time>2022-03-21T08:14:23Z</time>
      </trkpt>
      <trkpt lat="46.8097" lon="5.41805">
        <ele>211.6</ele>
        <time>2022-03-21T08:14:24Z</time>
      </trkpt>
      <trkpt lat="46.80972" lon="5.4179">
        <ele>211.4</ele>
        <time>2022-03-21T08:14:25Z</time>
      </trkpt>
      <trkpt lat="46.80974" lon="5.41776">
        <ele>211</ele>
        <time>2022-03-21T08:14:26Z</time>
      </trkpt>
      <trkpt lat="46.80976" lon="5.41762">
        <ele>210.6</ele>
        <time>2022-03-21T08:14:27Z</time>
      </trkpt>
      <trkpt lat="46.80978" lon="5.41749">
        <ele>210.4</ele>
        <time>2022-03-21T08:14:28Z</time>
      </trkpt>
      <trkpt lat="46.80979" lon="5.41735">
        <ele>210</ele>
        <time>2022-03-21T08:14:29Z</time>
      </trkpt>
      <trkpt lat="46.80981" lon="5.41721">
        <ele>210</ele>
        <time>2022-03-21T08:14:30Z</time>
      </trkpt>
      <trkpt lat="46.80983" lon="5.41709">
        <ele>209.8</ele>
        <time>2022-03-21T08:14:31Z</time>
      </trkpt>
      <trkpt lat="46.80985" lon="5.41696">
        <ele>209.8</ele>
        <time>2022-03-21T08:14:32Z</time>
      </trkpt>
      <trkpt lat="46.80986" lon="5.41684">
        <ele>209.8</ele>
        <time>2022-03-21T08:14:33Z</time>
      </trkpt>
      <trkpt lat="46.80987" lon="5.41674">
        <ele>210</ele>
        <time>2022-03-21T08:14:34Z</time>
      </trkpt>
      <trkpt lat="46.80989" lon="5.41664">
        <ele>210</ele>
        <time>2022-03-21T08:14:35Z</time>
      </trkpt>
      <trkpt lat="46.8099" lon="5.41654">
        <ele>210.6</ele>
        <time>2022-03-21T08:14:36Z</time>
      </trkpt>
      <trkpt lat="46.80992" lon="5.41645">
        <ele>210.8</ele>
        <time>2022-03-21T08:14:37Z</time>
      </trkpt>
      <trkpt lat="46.80993" lon="5.41636">
        <ele>211</ele>
        <time>2022-03-21T08:14:38Z</time>
      </trkpt>
      <trkpt lat="46.80994" lon="5.41628">
        <ele>211</ele>
        <time>2022-03-21T08:14:39Z</time>
      </trkpt>
      <trkpt lat="46.80996" lon="5.4162">
        <ele>211.4</ele>
        <time>2022-03-21T08:14:40Z</time>
      </trkpt>
      <trkpt lat="46.80997" lon="5.41612">
        <ele>211.6</ele>
        <time>2022-03-21T08:14:41Z</time>
      </trkpt>
      <trkpt lat="46.80998" lon="5.41604">
        <ele>212</ele>
        <time>2022-03-21T08:14:42Z</time>
      </trkpt>
      <trkpt lat="46.80999" lon="5.41596">
        <ele>212.2</ele>
        <time>2022-03-21T08:14:43Z</time>
      </trkpt>
      <trkpt lat="46.81" lon="5.41588">
        <ele>212.6</ele>
        <time>2022-03-21T08:14:44Z</time>
      </trkpt>
      <trkpt lat="46.81001" lon="5.4158">
        <ele>212.8</ele>
        <time>2022-03-21T08:14:45Z</time>
      </trkpt>
      <trkpt lat="46.81001" lon="5.41573">
        <ele>213</ele>
        <time>2022-03-21T08:14:46Z</time>
      </trkpt>
      <trkpt lat="46.81002" lon="5.41565">
        <ele>213.2</ele>
        <time>2022-03-21T08:14:47Z</time>
      </trkpt>
      <trkpt lat="46.81003" lon="5.41558">
        <ele>213.2</ele>
        <time>2022-03-21T08:14:48Z</time>
      </trkpt>
      <trkpt lat="46.81003" lon="5.4155">
        <ele>213.6</ele>
        <time>2022-03-21T08:14:49Z</time>
      </trkpt>
      <trkpt lat="46.81004" lon="5.41542">
        <ele>213.8</ele>
        <time>2022-03-21T08:14:50Z</time>
      </trkpt>
      <trkpt lat="46.81005" lon="5.41533">
        <ele>214</ele>
        <time>2022-03-21T08:14:51Z</time>
      </trkpt>
      <trkpt lat="46.81006" lon="5.41524">
        <ele>214</ele>
        <time>2022-03-21T08:14:52Z</time>
      </trkpt>
      <trkpt lat="46.81008" lon="5.41515">
        <ele>214.4</ele>
        <time>2022-03-21T08:14:53Z</time>
      </trkpt>
      <trkpt lat="46.81009" lon="5.41506">
        <ele>214.4</ele>
        <time>2022-03-21T08:14:54Z</time>
      </trkpt>
      <trkpt lat="46.8101" lon="5.41498">
        <ele>214.8</ele>
        <time>2022-03-21T08:14:55Z</time>
      </trkpt>
      <trkpt lat="46.81012" lon="5.41489">
        <ele>214.8</ele>
        <time>2022-03-21T08:14:56Z</time>
      </trkpt>
      <trkpt lat="46.81013" lon="5.41481">
        <ele>215</ele>
        <time>2022-03-21T08:14:57Z</time>
      </trkpt>
      <trkpt lat="46.81015" lon="5.41472">
        <ele>215</ele>
        <time>2022-03-21T08:14:58Z</time>
      </trkpt>
      <trkpt lat="46.81017" lon="5.41463">
        <ele>215.2</ele>
        <time>2022-03-21T08:14:59Z</time>
      </trkpt>
      <trkpt lat="46.81018" lon="5.41454">
        <ele>215.2</ele>
        <time>2022-03-21T08:15:00Z</time>
      </trkpt>
      <trkpt lat="46.8102" lon="5.41444">
        <ele>215.6</ele>
        <time>2022-03-21T08:15:01Z</time>
      </trkpt>
      <trkpt lat="46.81021" lon="5.41435">
        <ele>215.6</ele>
        <time>2022-03-21T08:15:02Z</time>
      </trkpt>
      <trkpt lat="46.81023" lon="5.41425">
        <ele>215.6</ele>
        <time>2022-03-21T08:15:03Z</time>
      </trkpt>
      <trkpt lat="46.81024" lon="5.41416">
        <ele>215.6</ele>
        <time>2022-03-21T08:15:04Z</time>
      </trkpt>
      <trkpt lat="46.81025" lon="5.41405">
        <ele>215.6</ele>
        <time>2022-03-21T08:15:05Z</time>
      </trkpt>
      <trkpt lat="46.81027" lon="5.41396">
        <ele>215.6</ele>
        <time>2022-03-21T08:15:06Z</time>
      </trkpt>
      <trkpt lat="46.81029" lon="5.41386">
        <ele>215.8</ele>
        <time>2022-03-21T08:15:07Z</time>
      </trkpt>
      <trkpt lat="46.81031" lon="5.41376">
        <ele>215.8</ele>
        <time>2022-03-21T08:15:08Z</time>
      </trkpt>
      <trkpt lat="46.81032" lon="5.41366">
        <ele>215.8</ele>
        <time>2022-03-21T08:15:09Z</time>
      </trkpt>
      <trkpt lat="46.81033" lon="5.41356">
        <ele>215.8</ele>
        <time>2022-03-21T08:15:10Z</time>
      </trkpt>
      <trkpt lat="46.81034" lon="5.41346">
        <ele>215.8</ele>
        <time>2022-03-21T08:15:11Z</time>
      </trkpt>
      <trkpt lat="46.81035" lon="5.41335">
        <ele>215.8</ele>
        <time>2022-03-21T08:15:12Z</time>
      </trkpt>
      <trkpt lat="46.81037" lon="5.41323">
        <ele>215.8</ele>
        <time>2022-03-21T08:15:14Z</time>
      </trkpt>
      <trkpt lat="46.81038" lon="5.41312">
        <ele>215.8</ele>
        <time>2022-03-21T08:15:15Z</time>
      </trkpt>
      <trkpt lat="46.81039" lon="5.41301">
        <ele>215.8</ele>
        <time>2022-03-21T08:15:16Z</time>
      </trkpt>
      <trkpt lat="46.81041" lon="5.4129">
        <ele>215.8</ele>
        <time>2022-03-21T08:15:17Z</time>
      </trkpt>
      <trkpt lat="46.81043" lon="5.41279">
        <ele>215.8</ele>
        <time>2022-03-21T08:15:18Z</time>
      </trkpt>
      <trkpt lat="46.81044" lon="5.41269">
        <ele>215.8</ele>
        <time>2022-03-21T08:15:19Z</time>
      </trkpt>
      <trkpt lat="46.81045" lon="5.41258">
        <ele>215.8</ele>
        <time>2022-03-21T08:15:20Z</time>
      </trkpt>
      <trkpt lat="46.81047" lon="5.41247">
        <ele>215.8</ele>
        <time>2022-03-21T08:15:21Z</time>
      </trkpt>
      <trkpt lat="46.81048" lon="5.41237">
        <ele>215.8</ele>
        <time>2022-03-21T08:15:22Z</time>
      </trkpt>
      <trkpt lat="46.8105" lon="5.41227">
        <ele>215.8</ele>
        <time>2022-03-21T08:15:23Z</time>
      </trkpt>
      <trkpt lat="46.81052" lon="5.41216">
        <ele>215.8</ele>
        <time>2022-03-21T08:15:24Z</time>
      </trkpt>
      <trkpt lat="46.81054" lon="5.41206">
        <ele>215.8</ele>
        <time>2022-03-21T08:15:25Z</time>
      </trkpt>
      <trkpt lat="46.81056" lon="5.41196">
        <ele>215.8</ele>
        <time>2022-03-21T08:15:26Z</time>
      </trkpt>
      <trkpt lat="46.81057" lon="5.41186">
        <ele>215.8</ele>
        <time>2022-03-21T08:15:27Z</time>
      </trkpt>
      <trkpt lat="46.81058" lon="5.41175">
        <ele>215.8</ele>
        <time>2022-03-21T08:15:28Z</time>
      </trkpt>
      <trkpt lat="46.81059" lon="5.41163">
        <ele>215.8</ele>
        <time>2022-03-21T08:15:29Z</time>
      </trkpt>
      <trkpt lat="46.81059" lon="5.41151">
        <ele>215.8</ele>
        <time>2022-03-21T08:15:30Z</time>
      </trkpt>
      <trkpt lat="46.81059" lon="5.41139">
        <ele>215.6</ele>
        <time>2022-03-21T08:15:31Z</time>
      </trkpt>
      <trkpt lat="46.8106" lon="5.41127">
        <ele>215.6</ele>
        <time>2022-03-21T08:15:32Z</time>
      </trkpt>
      <trkpt lat="46.81061" lon="5.41115">
        <ele>215.6</ele>
        <time>2022-03-21T08:15:33Z</time>
      </trkpt>
      <trkpt lat="46.81062" lon="5.41102">
        <ele>215.6</ele>
        <time>2022-03-21T08:15:34Z</time>
      </trkpt>
      <trkpt lat="46.81062" lon="5.41091">
        <ele>215.6</ele>
        <time>2022-03-21T08:15:35Z</time>
      </trkpt>
      <trkpt lat="46.81063" lon="5.41078">
        <ele>215.6</ele>
        <time>2022-03-21T08:15:36Z</time>
      </trkpt>
      <trkpt lat="46.81063" lon="5.41067">
        <ele>215.6</ele>
        <time>2022-03-21T08:15:37Z</time>
      </trkpt>
      <trkpt lat="46.81064" lon="5.41055">
        <ele>215.6</ele>
        <time>2022-03-21T08:15:38Z</time>
      </trkpt>
      <trkpt lat="46.81065" lon="5.41043">
        <ele>215.6</ele>
        <time>2022-03-21T08:15:39Z</time>
      </trkpt>
      <trkpt lat="46.81066" lon="5.41031">
        <ele>215.6</ele>
        <time>2022-03-21T08:15:40Z</time>
      </trkpt>
      <trkpt lat="46.81067" lon="5.4102">
        <ele>215.6</ele>
        <time>2022-03-21T08:15:41Z</time>
      </trkpt>
      <trkpt lat="46.81067" lon="5.41008">
        <ele>215.6</ele>
        <time>2022-03-21T08:15:42Z</time>
      </trkpt>
      <trkpt lat="46.81068" lon="5.40997">
        <ele>215.6</ele>
        <time>2022-03-21T08:15:43Z</time>
      </trkpt>
      <trkpt lat="46.81069" lon="5.40985">
        <ele>215.4</ele>
        <time>2022-03-21T08:15:44Z</time>
      </trkpt>
      <trkpt lat="46.8107" lon="5.40974">
        <ele>215.4</ele>
        <time>2022-03-21T08:15:45Z</time>
      </trkpt>
      <trkpt lat="46.81071" lon="5.40962">
        <ele>215.4</ele>
        <time>2022-03-21T08:15:46Z</time>
      </trkpt>
      <trkpt lat="46.81072" lon="5.4095">
        <ele>215.4</ele>
        <time>2022-03-21T08:15:47Z</time>
      </trkpt>
      <trkpt lat="46.81072" lon="5.40938">
        <ele>215.2</ele>
        <time>2022-03-21T08:15:48Z</time>
      </trkpt>
      <trkpt lat="46.81073" lon="5.40926">
        <ele>215.2</ele>
        <time>2022-03-21T08:15:49Z</time>
      </trkpt>
      <trkpt lat="46.81073" lon="5.40914">
        <ele>215.2</ele>
        <time>2022-03-21T08:15:50Z</time>
      </trkpt>
      <trkpt lat="46.81074" lon="5.40902">
        <ele>214.8</ele>
        <time>2022-03-21T08:15:51Z</time>
      </trkpt>
      <trkpt lat="46.81075" lon="5.4089">
        <ele>214.8</ele>
        <time>2022-03-21T08:15:52Z</time>
      </trkpt>
      <trkpt lat="46.81075" lon="5.40878">
        <ele>214.8</ele>
        <time>2022-03-21T08:15:53Z</time>
      </trkpt>
      <trkpt lat="46.81076" lon="5.40866">
        <ele>214.6</ele>
        <time>2022-03-21T08:15:54Z</time>
      </trkpt>
      <trkpt lat="46.81077" lon="5.40854">
        <ele>214.6</ele>
        <time>2022-03-21T08:15:55Z</time>
      </trkpt>
      <trkpt lat="46.81077" lon="5.40842">
        <ele>214.6</ele>
        <time>2022-03-21T08:15:56Z</time>
      </trkpt>
      <trkpt lat="46.81078" lon="5.4083">
        <ele>214.6</ele>
        <time>2022-03-21T08:15:57Z</time>
      </trkpt>
      <trkpt lat="46.81079" lon="5.40818">
        <ele>214.6</ele>
        <time>2022-03-21T08:15:58Z</time>
      </trkpt>
      <trkpt lat="46.81081" lon="5.40807">
        <ele>214.6</ele>
        <time>2022-03-21T08:15:59Z</time>
      </trkpt>
      <trkpt lat="46.81083" lon="5.40796">
        <ele>214.6</ele>
        <time>2022-03-21T08:16:00Z</time>
      </trkpt>
      <trkpt lat="46.81085" lon="5.40785">
        <ele>214.6</ele>
        <time>2022-03-21T08:16:01Z</time>
      </trkpt>
      <trkpt lat="46.81087" lon="5.40775">
        <ele>214.6</ele>
        <time>2022-03-21T08:16:02Z</time>
      </trkpt>
      <trkpt lat="46.8109" lon="5.40765">
        <ele>214.8</ele>
        <time>2022-03-21T08:16:03Z</time>
      </trkpt>
      <trkpt lat="46.81093" lon="5.40756">
        <ele>214.8</ele>
        <time>2022-03-21T08:16:04Z</time>
      </trkpt>
      <trkpt lat="46.81096" lon="5.40747">
        <ele>214.8</ele>
        <time>2022-03-21T08:16:05Z</time>
      </trkpt>
      <trkpt lat="46.81099" lon="5.40738">
        <ele>214.8</ele>
        <time>2022-03-21T08:16:06Z</time>
      </trkpt>
      <trkpt lat="46.81103" lon="5.40729">
        <ele>215</ele>
        <time>2022-03-21T08:16:07Z</time>
      </trkpt>
      <trkpt lat="46.81106" lon="5.4072">
        <ele>215</ele>
        <time>2022-03-21T08:16:08Z</time>
      </trkpt>
      <trkpt lat="46.8111" lon="5.40711">
        <ele>215</ele>
        <time>2022-03-21T08:16:09Z</time>
      </trkpt>
      <trkpt lat="46.81114" lon="5.40702">
        <ele>215</ele>
        <time>2022-03-21T08:16:10Z</time>
      </trkpt>
      <trkpt lat="46.81118" lon="5.40693">
        <ele>215</ele>
        <time>2022-03-21T08:16:11Z</time>
      </trkpt>
      <trkpt lat="46.81121" lon="5.40684">
        <ele>215</ele>
        <time>2022-03-21T08:16:12Z</time>
      </trkpt>
      <trkpt lat="46.81125" lon="5.40675">
        <ele>215</ele>
        <time>2022-03-21T08:16:13Z</time>
      </trkpt>
      <trkpt lat="46.8113" lon="5.40665">
        <ele>215</ele>
        <time>2022-03-21T08:16:14Z</time>
      </trkpt>
      <trkpt lat="46.81134" lon="5.40656">
        <ele>215</ele>
        <time>2022-03-21T08:16:15Z</time>
      </trkpt>
      <trkpt lat="46.81138" lon="5.40646">
        <ele>215</ele>
        <time>2022-03-21T08:16:16Z</time>
      </trkpt>
      <trkpt lat="46.81142" lon="5.40637">
        <ele>215</ele>
        <time>2022-03-21T08:16:17Z</time>
      </trkpt>
      <trkpt lat="46.81147" lon="5.40626">
        <ele>215</ele>
        <time>2022-03-21T08:16:18Z</time>
      </trkpt>
      <trkpt lat="46.81151" lon="5.40616">
        <ele>215</ele>
        <time>2022-03-21T08:16:19Z</time>
      </trkpt>
      <trkpt lat="46.81155" lon="5.40606">
        <ele>215</ele>
        <time>2022-03-21T08:16:20Z</time>
      </trkpt>
      <trkpt lat="46.81159" lon="5.40595">
        <ele>215</ele>
        <time>2022-03-21T08:16:21Z</time>
      </trkpt>
      <trkpt lat="46.81163" lon="5.40585">
        <ele>215</ele>
        <time>2022-03-21T08:16:22Z</time>
      </trkpt>
      <trkpt lat="46.81166" lon="5.40574">
        <ele>214.8</ele>
        <time>2022-03-21T08:16:23Z</time>
      </trkpt>
      <trkpt lat="46.8117" lon="5.40563">
        <ele>214.8</ele>
        <time>2022-03-21T08:16:24Z</time>
      </trkpt>
      <trkpt lat="46.81176" lon="5.40541">
        <ele>214.8</ele>
        <time>2022-03-21T08:16:25Z</time>
      </trkpt>
      <trkpt lat="46.81179" lon="5.40529">
        <ele>214.8</ele>
        <time>2022-03-21T08:16:26Z</time>
      </trkpt>
      <trkpt lat="46.81181" lon="5.40518">
        <ele>214.8</ele>
        <time>2022-03-21T08:16:27Z</time>
      </trkpt>
      <trkpt lat="46.81184" lon="5.40507">
        <ele>214.8</ele>
        <time>2022-03-21T08:16:28Z</time>
      </trkpt>
      <trkpt lat="46.81186" lon="5.40495">
        <ele>214.8</ele>
        <time>2022-03-21T08:16:29Z</time>
      </trkpt>
      <trkpt lat="46.81188" lon="5.40484">
        <ele>214.8</ele>
        <time>2022-03-21T08:16:30Z</time>
      </trkpt>
      <trkpt lat="46.8119" lon="5.40473">
        <ele>214.8</ele>
        <time>2022-03-21T08:16:31Z</time>
      </trkpt>
      <trkpt lat="46.81193" lon="5.40462">
        <ele>214.8</ele>
        <time>2022-03-21T08:16:32Z</time>
      </trkpt>
      <trkpt lat="46.81195" lon="5.4045">
        <ele>214.6</ele>
        <time>2022-03-21T08:16:33Z</time>
      </trkpt>
      <trkpt lat="46.81197" lon="5.40439">
        <ele>214.6</ele>
        <time>2022-03-21T08:16:34Z</time>
      </trkpt>
      <trkpt lat="46.81199" lon="5.40427">
        <ele>214.2</ele>
        <time>2022-03-21T08:16:35Z</time>
      </trkpt>
      <trkpt lat="46.81201" lon="5.40415">
        <ele>213.8</ele>
        <time>2022-03-21T08:16:36Z</time>
      </trkpt>
      <trkpt lat="46.81201" lon="5.40403">
        <ele>213.8</ele>
        <time>2022-03-21T08:16:37Z</time>
      </trkpt>
      <trkpt lat="46.81202" lon="5.4039">
        <ele>213.4</ele>
        <time>2022-03-21T08:16:38Z</time>
      </trkpt>
      <trkpt lat="46.81202" lon="5.40377">
        <ele>213</ele>
        <time>2022-03-21T08:16:39Z</time>
      </trkpt>
      <trkpt lat="46.81202" lon="5.40363">
        <ele>212.4</ele>
        <time>2022-03-21T08:16:40Z</time>
      </trkpt>
      <trkpt lat="46.81201" lon="5.40349">
        <ele>212</ele>
        <time>2022-03-21T08:16:41Z</time>
      </trkpt>
      <trkpt lat="46.812" lon="5.40335">
        <ele>211.6</ele>
        <time>2022-03-21T08:16:42Z</time>
      </trkpt>
      <trkpt lat="46.81199" lon="5.4032">
        <ele>211</ele>
        <time>2022-03-21T08:16:43Z</time>
      </trkpt>
      <trkpt lat="46.81197" lon="5.40306">
        <ele>210.8</ele>
        <time>2022-03-21T08:16:44Z</time>
      </trkpt>
      <trkpt lat="46.81196" lon="5.40291">
        <ele>210.4</ele>
        <time>2022-03-21T08:16:45Z</time>
      </trkpt>
      <trkpt lat="46.81194" lon="5.40276">
        <ele>210</ele>
        <time>2022-03-21T08:16:46Z</time>
      </trkpt>
      <trkpt lat="46.81193" lon="5.40261">
        <ele>209.6</ele>
        <time>2022-03-21T08:16:47Z</time>
      </trkpt>
      <trkpt lat="46.81191" lon="5.40246">
        <ele>209</ele>
        <time>2022-03-21T08:16:48Z</time>
      </trkpt>
      <trkpt lat="46.81189" lon="5.40231">
        <ele>208.6</ele>
        <time>2022-03-21T08:16:49Z</time>
      </trkpt>
      <trkpt lat="46.81185" lon="5.40217">
        <ele>208.2</ele>
        <time>2022-03-21T08:16:50Z</time>
      </trkpt>
      <trkpt lat="46.81181" lon="5.40203">
        <ele>208</ele>
        <time>2022-03-21T08:16:51Z</time>
      </trkpt>
      <trkpt lat="46.81177" lon="5.40191">
        <ele>207.8</ele>
        <time>2022-03-21T08:16:52Z</time>
      </trkpt>
      <trkpt lat="46.81172" lon="5.40179">
        <ele>207.8</ele>
        <time>2022-03-21T08:16:53Z</time>
      </trkpt>
      <trkpt lat="46.81167" lon="5.40167">
        <ele>207.6</ele>
        <time>2022-03-21T08:16:54Z</time>
      </trkpt>
      <trkpt lat="46.81163" lon="5.40156">
        <ele>207.6</ele>
        <time>2022-03-21T08:16:55Z</time>
      </trkpt>
      <trkpt lat="46.81158" lon="5.40145">
        <ele>207.6</ele>
        <time>2022-03-21T08:16:56Z</time>
      </trkpt>
      <trkpt lat="46.81154" lon="5.40134">
        <ele>207.6</ele>
        <time>2022-03-21T08:16:57Z</time>
      </trkpt>
      <trkpt lat="46.8115" lon="5.40124">
        <ele>207.6</ele>
        <time>2022-03-21T08:16:58Z</time>
      </trkpt>
      <trkpt lat="46.81146" lon="5.40115">
        <ele>207.8</ele>
        <time>2022-03-21T08:16:59Z</time>
      </trkpt>
      <trkpt lat="46.81142" lon="5.40106">
        <ele>207.8</ele>
        <time>2022-03-21T08:17:00Z</time>
      </trkpt>
      <trkpt lat="46.81138" lon="5.40097">
        <ele>208.2</ele>
        <time>2022-03-21T08:17:01Z</time>
      </trkpt>
      <trkpt lat="46.81135" lon="5.40089">
        <ele>208.4</ele>
        <time>2022-03-21T08:17:02Z</time>
      </trkpt>
      <trkpt lat="46.81131" lon="5.40081">
        <ele>208.4</ele>
        <time>2022-03-21T08:17:03Z</time>
      </trkpt>
      <trkpt lat="46.81127" lon="5.40073">
        <ele>208.8</ele>
        <time>2022-03-21T08:17:04Z</time>
      </trkpt>
      <trkpt lat="46.81123" lon="5.40066">
        <ele>208.8</ele>
        <time>2022-03-21T08:17:05Z</time>
      </trkpt>
      <trkpt lat="46.8112" lon="5.40059">
        <ele>209</ele>
        <time>2022-03-21T08:17:06Z</time>
      </trkpt>
      <trkpt lat="46.81116" lon="5.40052">
        <ele>209</ele>
        <time>2022-03-21T08:17:07Z</time>
      </trkpt>
      <trkpt lat="46.81113" lon="5.40045">
        <ele>209.4</ele>
        <time>2022-03-21T08:17:08Z</time>
      </trkpt>
      <trkpt lat="46.8111" lon="5.40037">
        <ele>209.6</ele>
        <time>2022-03-21T08:17:09Z</time>
      </trkpt>
      <trkpt lat="46.81108" lon="5.4003">
        <ele>209.6</ele>
        <time>2022-03-21T08:17:10Z</time>
      </trkpt>
      <trkpt lat="46.81107" lon="5.40022">
        <ele>210</ele>
        <time>2022-03-21T08:17:11Z</time>
      </trkpt>
      <trkpt lat="46.81106" lon="5.40014">
        <ele>210</ele>
        <time>2022-03-21T08:17:12Z</time>
      </trkpt>
      <trkpt lat="46.81107" lon="5.40005">
        <ele>210.2</ele>
        <time>2022-03-21T08:17:13Z</time>
      </trkpt>
      <trkpt lat="46.81108" lon="5.39997">
        <ele>210.4</ele>
        <time>2022-03-21T08:17:14Z</time>
      </trkpt>
      <trkpt lat="46.81111" lon="5.3999">
        <ele>210.4</ele>
        <time>2022-03-21T08:17:15Z</time>
      </trkpt>
      <trkpt lat="46.81114" lon="5.39983">
        <ele>210.8</ele>
        <time>2022-03-21T08:17:16Z</time>
      </trkpt>
      <trkpt lat="46.81117" lon="5.39976">
        <ele>210.8</ele>
        <time>2022-03-21T08:17:17Z</time>
      </trkpt>
      <trkpt lat="46.81121" lon="5.39969">
        <ele>210.8</ele>
        <time>2022-03-21T08:17:18Z</time>
      </trkpt>
      <trkpt lat="46.81124" lon="5.39961">
        <ele>211</ele>
        <time>2022-03-21T08:17:19Z</time>
      </trkpt>
      <trkpt lat="46.81126" lon="5.39953">
        <ele>211</ele>
        <time>2022-03-21T08:17:20Z</time>
      </trkpt>
      <trkpt lat="46.81129" lon="5.39945">
        <ele>211.4</ele>
        <time>2022-03-21T08:17:21Z</time>
      </trkpt>
      <trkpt lat="46.81132" lon="5.39937">
        <ele>211.4</ele>
        <time>2022-03-21T08:17:22Z</time>
      </trkpt>
      <trkpt lat="46.81135" lon="5.39929">
        <ele>211.6</ele>
        <time>2022-03-21T08:17:23Z</time>
      </trkpt>
      <trkpt lat="46.81137" lon="5.39921">
        <ele>211.6</ele>
        <time>2022-03-21T08:17:24Z</time>
      </trkpt>
      <trkpt lat="46.8114" lon="5.39913">
        <ele>212</ele>
        <time>2022-03-21T08:17:25Z</time>
      </trkpt>
      <trkpt lat="46.81143" lon="5.39904">
        <ele>212</ele>
        <time>2022-03-21T08:17:26Z</time>
      </trkpt>
      <trkpt lat="46.81146" lon="5.39896">
        <ele>212.2</ele>
        <time>2022-03-21T08:17:27Z</time>
      </trkpt>
      <trkpt lat="46.81149" lon="5.39888">
        <ele>212.2</ele>
        <time>2022-03-21T08:17:28Z</time>
      </trkpt>
      <trkpt lat="46.81152" lon="5.3988">
        <ele>212.2</ele>
        <time>2022-03-21T08:17:29Z</time>
      </trkpt>
      <trkpt lat="46.81155" lon="5.39871">
        <ele>212.4</ele>
        <time>2022-03-21T08:17:30Z</time>
      </trkpt>
      <trkpt lat="46.81157" lon="5.39862">
        <ele>212.4</ele>
        <time>2022-03-21T08:17:31Z</time>
      </trkpt>
      <trkpt lat="46.8116" lon="5.39854">
        <ele>212.8</ele>
        <time>2022-03-21T08:17:32Z</time>
      </trkpt>
      <trkpt lat="46.81163" lon="5.39845">
        <ele>212.8</ele>
        <time>2022-03-21T08:17:33Z</time>
      </trkpt>
      <trkpt lat="46.81165" lon="5.39836">
        <ele>213</ele>
        <time>2022-03-21T08:17:34Z</time>
      </trkpt>
      <trkpt lat="46.81168" lon="5.39827">
        <ele>213.2</ele>
        <time>2022-03-21T08:17:35Z</time>
      </trkpt>
      <trkpt lat="46.81172" lon="5.39819">
        <ele>213.2</ele>
        <time>2022-03-21T08:17:36Z</time>
      </trkpt>
      <trkpt lat="46.81175" lon="5.39811">
        <ele>213.6</ele>
        <time>2022-03-21T08:17:37Z</time>
      </trkpt>
      <trkpt lat="46.81178" lon="5.39802">
        <ele>213.6</ele>
        <time>2022-03-21T08:17:38Z</time>
      </trkpt>
      <trkpt lat="46.81181" lon="5.39794">
        <ele>214</ele>
        <time>2022-03-21T08:17:39Z</time>
      </trkpt>
      <trkpt lat="46.81184" lon="5.39786">
        <ele>214</ele>
        <time>2022-03-21T08:17:40Z</time>
      </trkpt>
      <trkpt lat="46.81186" lon="5.39778">
        <ele>214.4</ele>
        <time>2022-03-21T08:17:41Z</time>
      </trkpt>
      <trkpt lat="46.81189" lon="5.39771">
        <ele>214.4</ele>
        <time>2022-03-21T08:17:42Z</time>
      </trkpt>
      <trkpt lat="46.81191" lon="5.39763">
        <ele>214.6</ele>
        <time>2022-03-21T08:17:43Z</time>
      </trkpt>
      <trkpt lat="46.81193" lon="5.39756">
        <ele>214.6</ele>
        <time>2022-03-21T08:17:44Z</time>
      </trkpt>
      <trkpt lat="46.81195" lon="5.39749">
        <ele>214.8</ele>
        <time>2022-03-21T08:17:45Z</time>
      </trkpt>
      <trkpt lat="46.81198" lon="5.39742">
        <ele>214.8</ele>
        <time>2022-03-21T08:17:46Z</time>
      </trkpt>
      <trkpt lat="46.81201" lon="5.39736">
        <ele>214.8</ele>
        <time>2022-03-21T08:17:47Z</time>
      </trkpt>
      <trkpt lat="46.81204" lon="5.3973">
        <ele>214.8</ele>
        <time>2022-03-21T08:17:48Z</time>
      </trkpt>
      <trkpt lat="46.81207" lon="5.39724">
        <ele>214.8</ele>
        <time>2022-03-21T08:17:49Z</time>
      </trkpt>
      <trkpt lat="46.8121" lon="5.39717">
        <ele>214.8</ele>
        <time>2022-03-21T08:17:50Z</time>
      </trkpt>
      <trkpt lat="46.81214" lon="5.39709">
        <ele>214.8</ele>
        <time>2022-03-21T08:17:51Z</time>
      </trkpt>
      <trkpt lat="46.81217" lon="5.39701">
        <ele>214.8</ele>
        <time>2022-03-21T08:17:52Z</time>
      </trkpt>
      <trkpt lat="46.8122" lon="5.39693">
        <ele>214.8</ele>
        <time>2022-03-21T08:17:53Z</time>
      </trkpt>
      <trkpt lat="46.81223" lon="5.39684">
        <ele>214.8</ele>
        <time>2022-03-21T08:17:54Z</time>
      </trkpt>
      <trkpt lat="46.81226" lon="5.39676">
        <ele>214.8</ele>
        <time>2022-03-21T08:17:55Z</time>
      </trkpt>
      <trkpt lat="46.81229" lon="5.39667">
        <ele>214.8</ele>
        <time>2022-03-21T08:17:56Z</time>
      </trkpt>
      <trkpt lat="46.81232" lon="5.39658">
        <ele>214.8</ele>
        <time>2022-03-21T08:17:57Z</time>
      </trkpt>
      <trkpt lat="46.81235" lon="5.39649">
        <ele>214.8</ele>
        <time>2022-03-21T08:17:58Z</time>
      </trkpt>
      <trkpt lat="46.81238" lon="5.39639">
        <ele>214.8</ele>
        <time>2022-03-21T08:17:59Z</time>
      </trkpt>
      <trkpt lat="46.81242" lon="5.3963">
        <ele>214.8</ele>
        <time>2022-03-21T08:18:00Z</time>
      </trkpt>
      <trkpt lat="46.81245" lon="5.39621">
        <ele>214.8</ele>
        <time>2022-03-21T08:18:01Z</time>
      </trkpt>
      <trkpt lat="46.81248" lon="5.39612">
        <ele>214.8</ele>
        <time>2022-03-21T08:18:02Z</time>
      </trkpt>
      <trkpt lat="46.81251" lon="5.39602">
        <ele>214.8</ele>
        <time>2022-03-21T08:18:03Z</time>
      </trkpt>
      <trkpt lat="46.81254" lon="5.39593">
        <ele>214.8</ele>
        <time>2022-03-21T08:18:04Z</time>
      </trkpt>
      <trkpt lat="46.81257" lon="5.39583">
        <ele>214.8</ele>
        <time>2022-03-21T08:18:05Z</time>
      </trkpt>
      <trkpt lat="46.8126" lon="5.39574">
        <ele>214.8</ele>
        <time>2022-03-21T08:18:06Z</time>
      </trkpt>
      <trkpt lat="46.81263" lon="5.39565">
        <ele>214.8</ele>
        <time>2022-03-21T08:18:07Z</time>
      </trkpt>
      <trkpt lat="46.81266" lon="5.39555">
        <ele>214.8</ele>
        <time>2022-03-21T08:18:08Z</time>
      </trkpt>
      <trkpt lat="46.81269" lon="5.39546">
        <ele>214.8</ele>
        <time>2022-03-21T08:18:09Z</time>
      </trkpt>
      <trkpt lat="46.81272" lon="5.39536">
        <ele>214.8</ele>
        <time>2022-03-21T08:18:10Z</time>
      </trkpt>
      <trkpt lat="46.81276" lon="5.39527">
        <ele>214.8</ele>
        <time>2022-03-21T08:18:11Z</time>
      </trkpt>
      <trkpt lat="46.81279" lon="5.39517">
        <ele>214.8</ele>
        <time>2022-03-21T08:18:12Z</time>
      </trkpt>
      <trkpt lat="46.81282" lon="5.39508">
        <ele>214.8</ele>
        <time>2022-03-21T08:18:13Z</time>
      </trkpt>
      <trkpt lat="46.81286" lon="5.39498">
        <ele>214.8</ele>
        <time>2022-03-21T08:18:14Z</time>
      </trkpt>
      <trkpt lat="46.81289" lon="5.39489">
        <ele>214.8</ele>
        <time>2022-03-21T08:18:15Z</time>
      </trkpt>
      <trkpt lat="46.81293" lon="5.39479">
        <ele>214.6</ele>
        <time>2022-03-21T08:18:16Z</time>
      </trkpt>
      <trkpt lat="46.81296" lon="5.39469">
        <ele>214.6</ele>
        <time>2022-03-21T08:18:17Z</time>
      </trkpt>
      <trkpt lat="46.81299" lon="5.39459">
        <ele>214.6</ele>
        <time>2022-03-21T08:18:18Z</time>
      </trkpt>
      <trkpt lat="46.81303" lon="5.39449">
        <ele>214.6</ele>
        <time>2022-03-21T08:18:19Z</time>
      </trkpt>
      <trkpt lat="46.81306" lon="5.39439">
        <ele>214.6</ele>
        <time>2022-03-21T08:18:20Z</time>
      </trkpt>
      <trkpt lat="46.81309" lon="5.39429">
        <ele>214.4</ele>
        <time>2022-03-21T08:18:21Z</time>
      </trkpt>
      <trkpt lat="46.81313" lon="5.39419">
        <ele>214.4</ele>
        <time>2022-03-21T08:18:22Z</time>
      </trkpt>
      <trkpt lat="46.81316" lon="5.39409">
        <ele>214.4</ele>
        <time>2022-03-21T08:18:23Z</time>
      </trkpt>
      <trkpt lat="46.8132" lon="5.39399">
        <ele>214.2</ele>
        <time>2022-03-21T08:18:24Z</time>
      </trkpt>
      <trkpt lat="46.81323" lon="5.39389">
        <ele>214.2</ele>
        <time>2022-03-21T08:18:25Z</time>
      </trkpt>
      <trkpt lat="46.81327" lon="5.39379">
        <ele>214.2</ele>
        <time>2022-03-21T08:18:26Z</time>
      </trkpt>
      <trkpt lat="46.8133" lon="5.39369">
        <ele>214.2</ele>
        <time>2022-03-21T08:18:27Z</time>
      </trkpt>
      <trkpt lat="46.81334" lon="5.39359">
        <ele>214.2</ele>
        <time>2022-03-21T08:18:28Z</time>
      </trkpt>
      <trkpt lat="46.81337" lon="5.39348">
        <ele>214.2</ele>
        <time>2022-03-21T08:18:29Z</time>
      </trkpt>
      <trkpt lat="46.8134" lon="5.39338">
        <ele>214.2</ele>
        <time>2022-03-21T08:18:30Z</time>
      </trkpt>
      <trkpt lat="46.81344" lon="5.39328">
        <ele>214</ele>
        <time>2022-03-21T08:18:31Z</time>
      </trkpt>
      <trkpt lat="46.81347" lon="5.39318">
        <ele>214</ele>
        <time>2022-03-21T08:18:32Z</time>
      </trkpt>
      <trkpt lat="46.81351" lon="5.39307">
        <ele>214</ele>
        <time>2022-03-21T08:18:33Z</time>
      </trkpt>
      <trkpt lat="46.81355" lon="5.39297">
        <ele>213.8</ele>
        <time>2022-03-21T08:18:34Z</time>
      </trkpt>
      <trkpt lat="46.81358" lon="5.39286">
        <ele>213.8</ele>
        <time>2022-03-21T08:18:35Z</time>
      </trkpt>
      <trkpt lat="46.81362" lon="5.39276">
        <ele>213.8</ele>
        <time>2022-03-21T08:18:36Z</time>
      </trkpt>
      <trkpt lat="46.81365" lon="5.39265">
        <ele>213.8</ele>
        <time>2022-03-21T08:18:37Z</time>
      </trkpt>
      <trkpt lat="46.81369" lon="5.39255">
        <ele>213.8</ele>
        <time>2022-03-21T08:18:38Z</time>
      </trkpt>
      <trkpt lat="46.81373" lon="5.39244">
        <ele>213.6</ele>
        <time>2022-03-21T08:18:39Z</time>
      </trkpt>
      <trkpt lat="46.81376" lon="5.39234">
        <ele>213.6</ele>
        <time>2022-03-21T08:18:40Z</time>
      </trkpt>
      <trkpt lat="46.8138" lon="5.39223">
        <ele>213.6</ele>
        <time>2022-03-21T08:18:41Z</time>
      </trkpt>
      <trkpt lat="46.81383" lon="5.39213">
        <ele>213.6</ele>
        <time>2022-03-21T08:18:42Z</time>
      </trkpt>
      <trkpt lat="46.81386" lon="5.39202">
        <ele>213.2</ele>
        <time>2022-03-21T08:18:43Z</time>
      </trkpt>
      <trkpt lat="46.8139" lon="5.39192">
        <ele>213.2</ele>
        <time>2022-03-21T08:18:44Z</time>
      </trkpt>
      <trkpt lat="46.81393" lon="5.39182">
        <ele>213.2</ele>
        <time>2022-03-21T08:18:45Z</time>
      </trkpt>
      <trkpt lat="46.81397" lon="5.39172">
        <ele>213.2</ele>
        <time>2022-03-21T08:18:46Z</time>
      </trkpt>
      <trkpt lat="46.814" lon="5.39162">
        <ele>213.2</ele>
        <time>2022-03-21T08:18:47Z</time>
      </trkpt>
      <trkpt lat="46.81403" lon="5.39153">
        <ele>213.2</ele>
        <time>2022-03-21T08:18:48Z</time>
      </trkpt>
      <trkpt lat="46.81407" lon="5.39143">
        <ele>213.2</ele>
        <time>2022-03-21T08:18:49Z</time>
      </trkpt>
      <trkpt lat="46.8141" lon="5.39133">
        <ele>213.2</ele>
        <time>2022-03-21T08:18:50Z</time>
      </trkpt>
      <trkpt lat="46.81413" lon="5.39124">
        <ele>213.2</ele>
        <time>2022-03-21T08:18:51Z</time>
      </trkpt>
      <trkpt lat="46.81415" lon="5.39114">
        <ele>213.2</ele>
        <time>2022-03-21T08:18:52Z</time>
      </trkpt>
      <trkpt lat="46.81418" lon="5.39105">
        <ele>213.2</ele>
        <time>2022-03-21T08:18:53Z</time>
      </trkpt>
      <trkpt lat="46.81421" lon="5.39096">
        <ele>213.2</ele>
        <time>2022-03-21T08:18:54Z</time>
      </trkpt>
      <trkpt lat="46.81424" lon="5.39087">
        <ele>213.2</ele>
        <time>2022-03-21T08:18:55Z</time>
      </trkpt>
      <trkpt lat="46.81427" lon="5.39078">
        <ele>213.2</ele>
        <time>2022-03-21T08:18:56Z</time>
      </trkpt>
      <trkpt lat="46.81431" lon="5.3907">
        <ele>213.2</ele>
        <time>2022-03-21T08:18:57Z</time>
      </trkpt>
      <trkpt lat="46.81436" lon="5.39063">
        <ele>213.2</ele>
        <time>2022-03-21T08:18:58Z</time>
      </trkpt>
      <trkpt lat="46.81442" lon="5.39057">
        <ele>213.2</ele>
        <time>2022-03-21T08:18:59Z</time>
      </trkpt>
      <trkpt lat="46.81448" lon="5.39052">
        <ele>213.4</ele>
        <time>2022-03-21T08:19:00Z</time>
      </trkpt>
      <trkpt lat="46.81454" lon="5.39047">
        <ele>213.4</ele>
        <time>2022-03-21T08:19:01Z</time>
      </trkpt>
      <trkpt lat="46.8146" lon="5.39041">
        <ele>213.4</ele>
        <time>2022-03-21T08:19:02Z</time>
      </trkpt>
      <trkpt lat="46.81466" lon="5.39036">
        <ele>213.4</ele>
        <time>2022-03-21T08:19:03Z</time>
      </trkpt>
      <trkpt lat="46.81473" lon="5.3903">
        <ele>213.4</ele>
        <time>2022-03-21T08:19:04Z</time>
      </trkpt>
      <trkpt lat="46.81479" lon="5.39025">
        <ele>213.4</ele>
        <time>2022-03-21T08:19:05Z</time>
      </trkpt>
      <trkpt lat="46.81486" lon="5.3902">
        <ele>213.4</ele>
        <time>2022-03-21T08:19:06Z</time>
      </trkpt>
      <trkpt lat="46.81492" lon="5.39015">
        <ele>213.4</ele>
        <time>2022-03-21T08:19:07Z</time>
      </trkpt>
      <trkpt lat="46.81499" lon="5.39009">
        <ele>213.4</ele>
        <time>2022-03-21T08:19:08Z</time>
      </trkpt>
      <trkpt lat="46.81505" lon="5.39004">
        <ele>213.4</ele>
        <time>2022-03-21T08:19:09Z</time>
      </trkpt>
      <trkpt lat="46.81512" lon="5.38998">
        <ele>213.4</ele>
        <time>2022-03-21T08:19:10Z</time>
      </trkpt>
      <trkpt lat="46.81518" lon="5.38993">
        <ele>213.4</ele>
        <time>2022-03-21T08:19:11Z</time>
      </trkpt>
      <trkpt lat="46.81525" lon="5.38987">
        <ele>213.4</ele>
        <time>2022-03-21T08:19:12Z</time>
      </trkpt>
      <trkpt lat="46.81531" lon="5.38982">
        <ele>213.4</ele>
        <time>2022-03-21T08:19:13Z</time>
      </trkpt>
      <trkpt lat="46.81538" lon="5.38976">
        <ele>213.4</ele>
        <time>2022-03-21T08:19:14Z</time>
      </trkpt>
      <trkpt lat="46.81544" lon="5.3897">
        <ele>213.4</ele>
        <time>2022-03-21T08:19:15Z</time>
      </trkpt>
      <trkpt lat="46.81551" lon="5.38965">
        <ele>213.4</ele>
        <time>2022-03-21T08:19:16Z</time>
      </trkpt>
      <trkpt lat="46.81558" lon="5.38959">
        <ele>213.4</ele>
        <time>2022-03-21T08:19:17Z</time>
      </trkpt>
      <trkpt lat="46.81564" lon="5.38954">
        <ele>213.4</ele>
        <time>2022-03-21T08:19:18Z</time>
      </trkpt>
      <trkpt lat="46.81571" lon="5.38948">
        <ele>213.4</ele>
        <time>2022-03-21T08:19:19Z</time>
      </trkpt>
      <trkpt lat="46.81578" lon="5.38943">
        <ele>213.4</ele>
        <time>2022-03-21T08:19:20Z</time>
      </trkpt>
      <trkpt lat="46.81585" lon="5.38937">
        <ele>213.4</ele>
        <time>2022-03-21T08:19:21Z</time>
      </trkpt>
      <trkpt lat="46.81591" lon="5.38931">
        <ele>213.4</ele>
        <time>2022-03-21T08:19:22Z</time>
      </trkpt>
      <trkpt lat="46.81598" lon="5.38925">
        <ele>213.4</ele>
        <time>2022-03-21T08:19:23Z</time>
      </trkpt>
      <trkpt lat="46.81605" lon="5.38919">
        <ele>213.4</ele>
        <time>2022-03-21T08:19:24Z</time>
      </trkpt>
      <trkpt lat="46.81612" lon="5.38913">
        <ele>213.4</ele>
        <time>2022-03-21T08:19:25Z</time>
      </trkpt>
      <trkpt lat="46.81619" lon="5.38907">
        <ele>213.4</ele>
        <time>2022-03-21T08:19:26Z</time>
      </trkpt>
      <trkpt lat="46.81626" lon="5.38901">
        <ele>213.4</ele>
        <time>2022-03-21T08:19:27Z</time>
      </trkpt>
      <trkpt lat="46.81633" lon="5.38895">
        <ele>213.4</ele>
        <time>2022-03-21T08:19:28Z</time>
      </trkpt>
      <trkpt lat="46.8164" lon="5.38889">
        <ele>213.4</ele>
        <time>2022-03-21T08:19:29Z</time>
      </trkpt>
      <trkpt lat="46.81647" lon="5.38883">
        <ele>213.4</ele>
        <time>2022-03-21T08:19:30Z</time>
      </trkpt>
      <trkpt lat="46.81654" lon="5.38877">
        <ele>213.4</ele>
        <time>2022-03-21T08:19:31Z</time>
      </trkpt>
      <trkpt lat="46.81661" lon="5.38872">
        <ele>213.4</ele>
        <time>2022-03-21T08:19:32Z</time>
      </trkpt>
      <trkpt lat="46.81668" lon="5.38866">
        <ele>213.4</ele>
        <time>2022-03-21T08:19:33Z</time>
      </trkpt>
      <trkpt lat="46.81675" lon="5.38859">
        <ele>213.4</ele>
        <time>2022-03-21T08:19:34Z</time>
      </trkpt>
      <trkpt lat="46.81682" lon="5.38853">
        <ele>213.4</ele>
        <time>2022-03-21T08:19:35Z</time>
      </trkpt>
      <trkpt lat="46.81689" lon="5.38847">
        <ele>213.4</ele>
        <time>2022-03-21T08:19:36Z</time>
      </trkpt>
      <trkpt lat="46.81696" lon="5.38841">
        <ele>213.4</ele>
        <time>2022-03-21T08:19:37Z</time>
      </trkpt>
      <trkpt lat="46.81704" lon="5.38834">
        <ele>213.4</ele>
        <time>2022-03-21T08:19:38Z</time>
      </trkpt>
      <trkpt lat="46.81711" lon="5.38828">
        <ele>213.4</ele>
        <time>2022-03-21T08:19:39Z</time>
      </trkpt>
      <trkpt lat="46.81718" lon="5.38822">
        <ele>213.2</ele>
        <time>2022-03-21T08:19:40Z</time>
      </trkpt>
      <trkpt lat="46.81726" lon="5.38816">
        <ele>213.2</ele>
        <time>2022-03-21T08:19:41Z</time>
      </trkpt>
      <trkpt lat="46.81733" lon="5.38809">
        <ele>213.2</ele>
        <time>2022-03-21T08:19:42Z</time>
      </trkpt>
      <trkpt lat="46.8174" lon="5.38803">
        <ele>213.2</ele>
        <time>2022-03-21T08:19:43Z</time>
      </trkpt>
      <trkpt lat="46.81748" lon="5.38797">
        <ele>213.2</ele>
        <time>2022-03-21T08:19:44Z</time>
      </trkpt>
      <trkpt lat="46.81755" lon="5.3879">
        <ele>213.2</ele>
        <time>2022-03-21T08:19:45Z</time>
      </trkpt>
      <trkpt lat="46.81762" lon="5.38784">
        <ele>213.2</ele>
        <time>2022-03-21T08:19:46Z</time>
      </trkpt>
      <trkpt lat="46.8177" lon="5.38778">
        <ele>213.2</ele>
        <time>2022-03-21T08:19:47Z</time>
      </trkpt>
      <trkpt lat="46.81777" lon="5.38771">
        <ele>213.2</ele>
        <time>2022-03-21T08:19:48Z</time>
      </trkpt>
      <trkpt lat="46.81784" lon="5.38765">
        <ele>213</ele>
        <time>2022-03-21T08:19:49Z</time>
      </trkpt>
      <trkpt lat="46.81792" lon="5.38758">
        <ele>213</ele>
        <time>2022-03-21T08:19:50Z</time>
      </trkpt>
      <trkpt lat="46.818" lon="5.38752">
        <ele>212.6</ele>
        <time>2022-03-21T08:19:52Z</time>
      </trkpt>
      <trkpt lat="46.81808" lon="5.38744">
        <ele>212.2</ele>
        <time>2022-03-21T08:19:53Z</time>
      </trkpt>
      <trkpt lat="46.81816" lon="5.38737">
        <ele>211.8</ele>
        <time>2022-03-21T08:19:54Z</time>
      </trkpt>
      <trkpt lat="46.81825" lon="5.3873">
        <ele>211.6</ele>
        <time>2022-03-21T08:19:55Z</time>
      </trkpt>
      <trkpt lat="46.81834" lon="5.38722">
        <ele>211</ele>
        <time>2022-03-21T08:19:56Z</time>
      </trkpt>
      <trkpt lat="46.81843" lon="5.38714">
        <ele>210.6</ele>
        <time>2022-03-21T08:19:57Z</time>
      </trkpt>
      <trkpt lat="46.81853" lon="5.38706">
        <ele>210.2</ele>
        <time>2022-03-21T08:19:58Z</time>
      </trkpt>
      <trkpt lat="46.81861" lon="5.38698">
        <ele>209.8</ele>
        <time>2022-03-21T08:19:59Z</time>
      </trkpt>
      <trkpt lat="46.8187" lon="5.3869">
        <ele>209.2</ele>
        <time>2022-03-21T08:20:00Z</time>
      </trkpt>
      <trkpt lat="46.8188" lon="5.38682">
        <ele>208.8</ele>
        <time>2022-03-21T08:20:01Z</time>
      </trkpt>
      <trkpt lat="46.8189" lon="5.38673">
        <ele>208.2</ele>
        <time>2022-03-21T08:20:02Z</time>
      </trkpt>
      <trkpt lat="46.819" lon="5.38665">
        <ele>207.6</ele>
        <time>2022-03-21T08:20:03Z</time>
      </trkpt>
      <trkpt lat="46.8191" lon="5.38656">
        <ele>207</ele>
        <time>2022-03-21T08:20:04Z</time>
      </trkpt>
      <trkpt lat="46.8192" lon="5.38648">
        <ele>206.6</ele>
        <time>2022-03-21T08:20:05Z</time>
      </trkpt>
      <trkpt lat="46.8193" lon="5.38639">
        <ele>206</ele>
        <time>2022-03-21T08:20:06Z</time>
      </trkpt>
      <trkpt lat="46.8194" lon="5.38629">
        <ele>205.6</ele>
        <time>2022-03-21T08:20:07Z</time>
      </trkpt>
      <trkpt lat="46.8195" lon="5.38621">
        <ele>205</ele>
        <time>2022-03-21T08:20:08Z</time>
      </trkpt>
      <trkpt lat="46.81961" lon="5.38613">
        <ele>204.6</ele>
        <time>2022-03-21T08:20:09Z</time>
      </trkpt>
      <trkpt lat="46.81971" lon="5.38604">
        <ele>204</ele>
        <time>2022-03-21T08:20:10Z</time>
      </trkpt>
      <trkpt lat="46.81981" lon="5.38595">
        <ele>203.6</ele>
        <time>2022-03-21T08:20:11Z</time>
      </trkpt>
      <trkpt lat="46.81991" lon="5.38585">
        <ele>203.2</ele>
        <time>2022-03-21T08:20:12Z</time>
      </trkpt>
      <trkpt lat="46.82001" lon="5.38577">
        <ele>203</ele>
        <time>2022-03-21T08:20:13Z</time>
      </trkpt>
      <trkpt lat="46.82011" lon="5.38568">
        <ele>202.8</ele>
        <time>2022-03-21T08:20:14Z</time>
      </trkpt>
      <trkpt lat="46.8202" lon="5.38558">
        <ele>202.4</ele>
        <time>2022-03-21T08:20:15Z</time>
      </trkpt>
      <trkpt lat="46.8203" lon="5.38549">
        <ele>202</ele>
        <time>2022-03-21T08:20:16Z</time>
      </trkpt>
      <trkpt lat="46.82039" lon="5.38541">
        <ele>201.8</ele>
        <time>2022-03-21T08:20:17Z</time>
      </trkpt>
      <trkpt lat="46.82049" lon="5.38533">
        <ele>201.6</ele>
        <time>2022-03-21T08:20:18Z</time>
      </trkpt>
      <trkpt lat="46.82059" lon="5.38524">
        <ele>201.6</ele>
        <time>2022-03-21T08:20:19Z</time>
      </trkpt>
      <trkpt lat="46.8207" lon="5.38517">
        <ele>201.2</ele>
        <time>2022-03-21T08:20:20Z</time>
      </trkpt>
      <trkpt lat="46.82079" lon="5.3851">
        <ele>200.8</ele>
        <time>2022-03-21T08:20:21Z</time>
      </trkpt>
      <trkpt lat="46.82089" lon="5.38501">
        <ele>200.8</ele>
        <time>2022-03-21T08:20:22Z</time>
      </trkpt>
      <trkpt lat="46.82099" lon="5.38493">
        <ele>200.4</ele>
        <time>2022-03-21T08:20:23Z</time>
      </trkpt>
      <trkpt lat="46.82109" lon="5.38484">
        <ele>200.2</ele>
        <time>2022-03-21T08:20:24Z</time>
      </trkpt>
      <trkpt lat="46.82117" lon="5.38476">
        <ele>200.2</ele>
        <time>2022-03-21T08:20:25Z</time>
      </trkpt>
      <trkpt lat="46.82127" lon="5.38468">
        <ele>199.8</ele>
        <time>2022-03-21T08:20:26Z</time>
      </trkpt>
      <trkpt lat="46.82137" lon="5.3846">
        <ele>199.6</ele>
        <time>2022-03-21T08:20:27Z</time>
      </trkpt>
      <trkpt lat="46.82147" lon="5.38451">
        <ele>199.4</ele>
        <time>2022-03-21T08:20:28Z</time>
      </trkpt>
      <trkpt lat="46.82156" lon="5.38444">
        <ele>199.2</ele>
        <time>2022-03-21T08:20:29Z</time>
      </trkpt>
      <trkpt lat="46.82165" lon="5.38435">
        <ele>198.8</ele>
        <time>2022-03-21T08:20:30Z</time>
      </trkpt>
      <trkpt lat="46.82175" lon="5.38427">
        <ele>198.6</ele>
        <time>2022-03-21T08:20:31Z</time>
      </trkpt>
      <trkpt lat="46.82184" lon="5.3842">
        <ele>198.6</ele>
        <time>2022-03-21T08:20:32Z</time>
      </trkpt>
      <trkpt lat="46.82193" lon="5.38412">
        <ele>198.4</ele>
        <time>2022-03-21T08:20:33Z</time>
      </trkpt>
      <trkpt lat="46.82203" lon="5.38404">
        <ele>198.4</ele>
        <time>2022-03-21T08:20:34Z</time>
      </trkpt>
      <trkpt lat="46.82213" lon="5.38397">
        <ele>198.2</ele>
        <time>2022-03-21T08:20:35Z</time>
      </trkpt>
      <trkpt lat="46.82222" lon="5.38389">
        <ele>198.2</ele>
        <time>2022-03-21T08:20:36Z</time>
      </trkpt>
      <trkpt lat="46.82231" lon="5.3838">
        <ele>197.8</ele>
        <time>2022-03-21T08:20:37Z</time>
      </trkpt>
      <trkpt lat="46.8224" lon="5.38371">
        <ele>197.8</ele>
        <time>2022-03-21T08:20:38Z</time>
      </trkpt>
      <trkpt lat="46.82249" lon="5.38363">
        <ele>197.8</ele>
        <time>2022-03-21T08:20:39Z</time>
      </trkpt>
      <trkpt lat="46.82258" lon="5.38356">
        <ele>197.6</ele>
        <time>2022-03-21T08:20:40Z</time>
      </trkpt>
      <trkpt lat="46.82267" lon="5.38347">
        <ele>197.4</ele>
        <time>2022-03-21T08:20:41Z</time>
      </trkpt>
      <trkpt lat="46.82276" lon="5.3834">
        <ele>197.4</ele>
        <time>2022-03-21T08:20:42Z</time>
      </trkpt>
      <trkpt lat="46.82285" lon="5.38332">
        <ele>197</ele>
        <time>2022-03-21T08:20:43Z</time>
      </trkpt>
      <trkpt lat="46.82294" lon="5.38325">
        <ele>197</ele>
        <time>2022-03-21T08:20:44Z</time>
      </trkpt>
      <trkpt lat="46.82303" lon="5.38317">
        <ele>196.6</ele>
        <time>2022-03-21T08:20:45Z</time>
      </trkpt>
      <trkpt lat="46.82311" lon="5.3831">
        <ele>196.6</ele>
        <time>2022-03-21T08:20:46Z</time>
      </trkpt>
      <trkpt lat="46.8232" lon="5.38302">
        <ele>196.2</ele>
        <time>2022-03-21T08:20:47Z</time>
      </trkpt>
      <trkpt lat="46.82329" lon="5.38294">
        <ele>196.2</ele>
        <time>2022-03-21T08:20:48Z</time>
      </trkpt>
      <trkpt lat="46.82337" lon="5.38287">
        <ele>196.2</ele>
        <time>2022-03-21T08:20:49Z</time>
      </trkpt>
      <trkpt lat="46.82346" lon="5.38281">
        <ele>196.2</ele>
        <time>2022-03-21T08:20:50Z</time>
      </trkpt>
      <trkpt lat="46.82355" lon="5.38273">
        <ele>196.2</ele>
        <time>2022-03-21T08:20:51Z</time>
      </trkpt>
      <trkpt lat="46.82363" lon="5.38265">
        <ele>196.2</ele>
        <time>2022-03-21T08:20:52Z</time>
      </trkpt>
      <trkpt lat="46.82372" lon="5.38258">
        <ele>196</ele>
        <time>2022-03-21T08:20:53Z</time>
      </trkpt>
      <trkpt lat="46.8238" lon="5.3825">
        <ele>196</ele>
        <time>2022-03-21T08:20:54Z</time>
      </trkpt>
      <trkpt lat="46.82388" lon="5.38243">
        <ele>196</ele>
        <time>2022-03-21T08:20:55Z</time>
      </trkpt>
      <trkpt lat="46.82396" lon="5.38236">
        <ele>196</ele>
        <time>2022-03-21T08:20:56Z</time>
      </trkpt>
      <trkpt lat="46.82404" lon="5.38229">
        <ele>196</ele>
        <time>2022-03-21T08:20:57Z</time>
      </trkpt>
      <trkpt lat="46.82413" lon="5.38221">
        <ele>196</ele>
        <time>2022-03-21T08:20:58Z</time>
      </trkpt>
      <trkpt lat="46.8242" lon="5.38215">
        <ele>196</ele>
        <time>2022-03-21T08:20:59Z</time>
      </trkpt>
      <trkpt lat="46.82428" lon="5.38208">
        <ele>196</ele>
        <time>2022-03-21T08:21:00Z</time>
      </trkpt>
      <trkpt lat="46.82436" lon="5.38201">
        <ele>195.8</ele>
        <time>2022-03-21T08:21:01Z</time>
      </trkpt>
      <trkpt lat="46.82444" lon="5.38195">
        <ele>195.8</ele>
        <time>2022-03-21T08:21:02Z</time>
      </trkpt>
      <trkpt lat="46.8246" lon="5.3818">
        <ele>195.8</ele>
        <time>2022-03-21T08:21:03Z</time>
      </trkpt>
      <trkpt lat="46.82469" lon="5.38175">
        <ele>195.8</ele>
        <time>2022-03-21T08:21:04Z</time>
      </trkpt>
      <trkpt lat="46.82476" lon="5.38168">
        <ele>195.8</ele>
        <time>2022-03-21T08:21:05Z</time>
      </trkpt>
      <trkpt lat="46.82484" lon="5.38161">
        <ele>195.8</ele>
        <time>2022-03-21T08:21:06Z</time>
      </trkpt>
      <trkpt lat="46.82492" lon="5.38154">
        <ele>195.8</ele>
        <time>2022-03-21T08:21:07Z</time>
      </trkpt>
      <trkpt lat="46.825" lon="5.38147">
        <ele>195.8</ele>
        <time>2022-03-21T08:21:08Z</time>
      </trkpt>
      <trkpt lat="46.82508" lon="5.3814">
        <ele>195.8</ele>
        <time>2022-03-21T08:21:09Z</time>
      </trkpt>
      <trkpt lat="46.82516" lon="5.38133">
        <ele>195.8</ele>
        <time>2022-03-21T08:21:10Z</time>
      </trkpt>
      <trkpt lat="46.82523" lon="5.38127">
        <ele>195.8</ele>
        <time>2022-03-21T08:21:11Z</time>
      </trkpt>
      <trkpt lat="46.82531" lon="5.3812">
        <ele>195.8</ele>
        <time>2022-03-21T08:21:12Z</time>
      </trkpt>
      <trkpt lat="46.82538" lon="5.38114">
        <ele>195.8</ele>
        <time>2022-03-21T08:21:13Z</time>
      </trkpt>
      <trkpt lat="46.82546" lon="5.38107">
        <ele>195.8</ele>
        <time>2022-03-21T08:21:14Z</time>
      </trkpt>
      <trkpt lat="46.82553" lon="5.381">
        <ele>195.8</ele>
        <time>2022-03-21T08:21:15Z</time>
      </trkpt>
      <trkpt lat="46.82561" lon="5.38094">
        <ele>195.8</ele>
        <time>2022-03-21T08:21:16Z</time>
      </trkpt>
      <trkpt lat="46.82568" lon="5.38088">
        <ele>195.8</ele>
        <time>2022-03-21T08:21:17Z</time>
      </trkpt>
      <trkpt lat="46.82575" lon="5.38081">
        <ele>195.8</ele>
        <time>2022-03-21T08:21:18Z</time>
      </trkpt>
      <trkpt lat="46.82582" lon="5.38075">
        <ele>196.2</ele>
        <time>2022-03-21T08:21:19Z</time>
      </trkpt>
      <trkpt lat="46.8259" lon="5.38069">
        <ele>196.2</ele>
        <time>2022-03-21T08:21:20Z</time>
      </trkpt>
      <trkpt lat="46.82597" lon="5.38062">
        <ele>196.2</ele>
        <time>2022-03-21T08:21:21Z</time>
      </trkpt>
      <trkpt lat="46.82604" lon="5.38056">
        <ele>196.2</ele>
        <time>2022-03-21T08:21:22Z</time>
      </trkpt>
      <trkpt lat="46.82611" lon="5.3805">
        <ele>196.2</ele>
        <time>2022-03-21T08:21:23Z</time>
      </trkpt>
      <trkpt lat="46.82619" lon="5.38044">
        <ele>196.4</ele>
        <time>2022-03-21T08:21:24Z</time>
      </trkpt>
      <trkpt lat="46.82626" lon="5.38037">
        <ele>196.4</ele>
        <time>2022-03-21T08:21:25Z</time>
      </trkpt>
      <trkpt lat="46.82633" lon="5.38031">
        <ele>196.4</ele>
        <time>2022-03-21T08:21:26Z</time>
      </trkpt>
      <trkpt lat="46.8264" lon="5.38025">
        <ele>196.4</ele>
        <time>2022-03-21T08:21:27Z</time>
      </trkpt>
      <trkpt lat="46.82647" lon="5.38019">
        <ele>196.4</ele>
        <time>2022-03-21T08:21:28Z</time>
      </trkpt>
      <trkpt lat="46.82654" lon="5.38013">
        <ele>196.6</ele>
        <time>2022-03-21T08:21:29Z</time>
      </trkpt>
      <trkpt lat="46.82662" lon="5.38007">
        <ele>196.6</ele>
        <time>2022-03-21T08:21:30Z</time>
      </trkpt>
      <trkpt lat="46.82669" lon="5.38001">
        <ele>196.6</ele>
        <time>2022-03-21T08:21:31Z</time>
      </trkpt>
      <trkpt lat="46.82676" lon="5.37994">
        <ele>196.6</ele>
        <time>2022-03-21T08:21:32Z</time>
      </trkpt>
      <trkpt lat="46.82684" lon="5.37987">
        <ele>196.6</ele>
        <time>2022-03-21T08:21:33Z</time>
      </trkpt>
      <trkpt lat="46.82691" lon="5.37981">
        <ele>196.6</ele>
        <time>2022-03-21T08:21:34Z</time>
      </trkpt>
      <trkpt lat="46.82699" lon="5.37974">
        <ele>196.4</ele>
        <time>2022-03-21T08:21:35Z</time>
      </trkpt>
      <trkpt lat="46.82707" lon="5.37966">
        <ele>196.4</ele>
        <time>2022-03-21T08:21:36Z</time>
      </trkpt>
      <trkpt lat="46.82716" lon="5.3796">
        <ele>196</ele>
        <time>2022-03-21T08:21:37Z</time>
      </trkpt>
      <trkpt lat="46.82724" lon="5.37953">
        <ele>196</ele>
        <time>2022-03-21T08:21:38Z</time>
      </trkpt>
      <trkpt lat="46.82732" lon="5.37945">
        <ele>195.4</ele>
        <time>2022-03-21T08:21:39Z</time>
      </trkpt>
      <trkpt lat="46.82741" lon="5.37938">
        <ele>195.2</ele>
        <time>2022-03-21T08:21:40Z</time>
      </trkpt>
      <trkpt lat="46.8275" lon="5.3793">
        <ele>194.8</ele>
        <time>2022-03-21T08:21:41Z</time>
      </trkpt>
      <trkpt lat="46.82758" lon="5.37922">
        <ele>194.6</ele>
        <time>2022-03-21T08:21:42Z</time>
      </trkpt>
      <trkpt lat="46.82768" lon="5.37914">
        <ele>194.2</ele>
        <time>2022-03-21T08:21:43Z</time>
      </trkpt>
      <trkpt lat="46.82776" lon="5.37906">
        <ele>194</ele>
        <time>2022-03-21T08:21:44Z</time>
      </trkpt>
      <trkpt lat="46.82785" lon="5.37899">
        <ele>194</ele>
        <time>2022-03-21T08:21:45Z</time>
      </trkpt>
      <trkpt lat="46.82793" lon="5.37892">
        <ele>193.8</ele>
        <time>2022-03-21T08:21:46Z</time>
      </trkpt>
      <trkpt lat="46.82802" lon="5.37884">
        <ele>193.8</ele>
        <time>2022-03-21T08:21:47Z</time>
      </trkpt>
      <trkpt lat="46.8281" lon="5.37877">
        <ele>193.4</ele>
        <time>2022-03-21T08:21:48Z</time>
      </trkpt>
      <trkpt lat="46.82818" lon="5.37869">
        <ele>193.4</ele>
        <time>2022-03-21T08:21:49Z</time>
      </trkpt>
      <trkpt lat="46.82827" lon="5.37862">
        <ele>193.2</ele>
        <time>2022-03-21T08:21:50Z</time>
      </trkpt>
      <trkpt lat="46.82836" lon="5.37854">
        <ele>193.2</ele>
        <time>2022-03-21T08:21:51Z</time>
      </trkpt>
      <trkpt lat="46.82844" lon="5.37848">
        <ele>193.2</ele>
        <time>2022-03-21T08:21:52Z</time>
      </trkpt>
      <trkpt lat="46.82853" lon="5.3784">
        <ele>193.2</ele>
        <time>2022-03-21T08:21:53Z</time>
      </trkpt>
      <trkpt lat="46.8286" lon="5.37833">
        <ele>193.2</ele>
        <time>2022-03-21T08:21:54Z</time>
      </trkpt>
      <trkpt lat="46.82868" lon="5.37826">
        <ele>193.2</ele>
        <time>2022-03-21T08:21:55Z</time>
      </trkpt>
      <trkpt lat="46.82875" lon="5.37819">
        <ele>193.2</ele>
        <time>2022-03-21T08:21:56Z</time>
      </trkpt>
      <trkpt lat="46.82883" lon="5.37813">
        <ele>193.2</ele>
        <time>2022-03-21T08:21:57Z</time>
      </trkpt>
      <trkpt lat="46.8289" lon="5.37806">
        <ele>193.6</ele>
        <time>2022-03-21T08:21:58Z</time>
      </trkpt>
      <trkpt lat="46.82898" lon="5.37799">
        <ele>193.8</ele>
        <time>2022-03-21T08:21:59Z</time>
      </trkpt>
      <trkpt lat="46.82905" lon="5.37793">
        <ele>194</ele>
        <time>2022-03-21T08:22:00Z</time>
      </trkpt>
      <trkpt lat="46.82912" lon="5.37787">
        <ele>194.4</ele>
        <time>2022-03-21T08:22:01Z</time>
      </trkpt>
      <trkpt lat="46.82919" lon="5.37781">
        <ele>194.6</ele>
        <time>2022-03-21T08:22:02Z</time>
      </trkpt>
      <trkpt lat="46.82926" lon="5.37775">
        <ele>194.8</ele>
        <time>2022-03-21T08:22:03Z</time>
      </trkpt>
      <trkpt lat="46.82933" lon="5.3777">
        <ele>195.2</ele>
        <time>2022-03-21T08:22:04Z</time>
      </trkpt>
      <trkpt lat="46.8294" lon="5.37764">
        <ele>195.4</ele>
        <time>2022-03-21T08:22:05Z</time>
      </trkpt>
      <trkpt lat="46.82946" lon="5.37758">
        <ele>195.6</ele>
        <time>2022-03-21T08:22:06Z</time>
      </trkpt>
      <trkpt lat="46.82953" lon="5.37752">
        <ele>195.8</ele>
        <time>2022-03-21T08:22:07Z</time>
      </trkpt>
      <trkpt lat="46.82959" lon="5.37747">
        <ele>196.2</ele>
        <time>2022-03-21T08:22:08Z</time>
      </trkpt>
      <trkpt lat="46.82966" lon="5.37742">
        <ele>196.4</ele>
        <time>2022-03-21T08:22:09Z</time>
      </trkpt>
      <trkpt lat="46.82972" lon="5.37736">
        <ele>196.6</ele>
        <time>2022-03-21T08:22:10Z</time>
      </trkpt>
      <trkpt lat="46.82978" lon="5.3773">
        <ele>197</ele>
        <time>2022-03-21T08:22:11Z</time>
      </trkpt>
      <trkpt lat="46.82984" lon="5.37725">
        <ele>197.2</ele>
        <time>2022-03-21T08:22:12Z</time>
      </trkpt>
      <trkpt lat="46.82991" lon="5.37719">
        <ele>197.4</ele>
        <time>2022-03-21T08:22:13Z</time>
      </trkpt>
      <trkpt lat="46.82997" lon="5.37714">
        <ele>197.4</ele>
        <time>2022-03-21T08:22:14Z</time>
      </trkpt>
      <trkpt lat="46.83003" lon="5.37708">
        <ele>197.6</ele>
        <time>2022-03-21T08:22:15Z</time>
      </trkpt>
      <trkpt lat="46.8301" lon="5.37703">
        <ele>197.6</ele>
        <time>2022-03-21T08:22:16Z</time>
      </trkpt>
      <trkpt lat="46.83017" lon="5.37697">
        <ele>198</ele>
        <time>2022-03-21T08:22:17Z</time>
      </trkpt>
      <trkpt lat="46.83023" lon="5.37692">
        <ele>198</ele>
        <time>2022-03-21T08:22:18Z</time>
      </trkpt>
      <trkpt lat="46.8303" lon="5.37686">
        <ele>198</ele>
        <time>2022-03-21T08:22:19Z</time>
      </trkpt>
      <trkpt lat="46.83037" lon="5.3768">
        <ele>198</ele>
        <time>2022-03-21T08:22:20Z</time>
      </trkpt>
      <trkpt lat="46.83044" lon="5.37674">
        <ele>198</ele>
        <time>2022-03-21T08:22:21Z</time>
      </trkpt>
      <trkpt lat="46.83051" lon="5.37668">
        <ele>198</ele>
        <time>2022-03-21T08:22:22Z</time>
      </trkpt>
      <trkpt lat="46.83058" lon="5.37662">
        <ele>198</ele>
        <time>2022-03-21T08:22:23Z</time>
      </trkpt>
      <trkpt lat="46.83065" lon="5.37656">
        <ele>198</ele>
        <time>2022-03-21T08:22:24Z</time>
      </trkpt>
      <trkpt lat="46.83072" lon="5.3765">
        <ele>198</ele>
        <time>2022-03-21T08:22:25Z</time>
      </trkpt>
      <trkpt lat="46.83079" lon="5.37644">
        <ele>198</ele>
        <time>2022-03-21T08:22:26Z</time>
      </trkpt>
      <trkpt lat="46.83086" lon="5.37637">
        <ele>198</ele>
        <time>2022-03-21T08:22:27Z</time>
      </trkpt>
      <trkpt lat="46.83094" lon="5.37631">
        <ele>198</ele>
        <time>2022-03-21T08:22:28Z</time>
      </trkpt>
      <trkpt lat="46.83101" lon="5.37625">
        <ele>198</ele>
        <time>2022-03-21T08:22:29Z</time>
      </trkpt>
      <trkpt lat="46.83108" lon="5.37618">
        <ele>198</ele>
        <time>2022-03-21T08:22:30Z</time>
      </trkpt>
      <trkpt lat="46.83115" lon="5.37612">
        <ele>197.8</ele>
        <time>2022-03-21T08:22:31Z</time>
      </trkpt>
      <trkpt lat="46.83123" lon="5.37605">
        <ele>197.8</ele>
        <time>2022-03-21T08:22:32Z</time>
      </trkpt>
      <trkpt lat="46.8313" lon="5.37599">
        <ele>197.8</ele>
        <time>2022-03-21T08:22:33Z</time>
      </trkpt>
      <trkpt lat="46.83138" lon="5.37593">
        <ele>197.8</ele>
        <time>2022-03-21T08:22:34Z</time>
      </trkpt>
      <trkpt lat="46.83145" lon="5.37586">
        <ele>197.8</ele>
        <time>2022-03-21T08:22:35Z</time>
      </trkpt>
      <trkpt lat="46.83152" lon="5.37579">
        <ele>197.8</ele>
        <time>2022-03-21T08:22:36Z</time>
      </trkpt>
      <trkpt lat="46.83159" lon="5.37572">
        <ele>197.8</ele>
        <time>2022-03-21T08:22:37Z</time>
      </trkpt>
      <trkpt lat="46.83167" lon="5.37566">
        <ele>197.8</ele>
        <time>2022-03-21T08:22:38Z</time>
      </trkpt>
      <trkpt lat="46.83174" lon="5.37559">
        <ele>197.8</ele>
        <time>2022-03-21T08:22:39Z</time>
      </trkpt>
      <trkpt lat="46.83182" lon="5.37553">
        <ele>197.8</ele>
        <time>2022-03-21T08:22:40Z</time>
      </trkpt>
      <trkpt lat="46.83189" lon="5.37547">
        <ele>197.4</ele>
        <time>2022-03-21T08:22:41Z</time>
      </trkpt>
      <trkpt lat="46.83197" lon="5.3754">
        <ele>197.4</ele>
        <time>2022-03-21T08:22:42Z</time>
      </trkpt>
      <trkpt lat="46.83205" lon="5.37533">
        <ele>197.4</ele>
        <time>2022-03-21T08:22:43Z</time>
      </trkpt>
      <trkpt lat="46.83212" lon="5.37527">
        <ele>197</ele>
        <time>2022-03-21T08:22:44Z</time>
      </trkpt>
      <trkpt lat="46.8322" lon="5.3752">
        <ele>197</ele>
        <time>2022-03-21T08:22:45Z</time>
      </trkpt>
      <trkpt lat="46.83227" lon="5.37513">
        <ele>197</ele>
        <time>2022-03-21T08:22:46Z</time>
      </trkpt>
      <trkpt lat="46.83235" lon="5.37507">
        <ele>197</ele>
        <time>2022-03-21T08:22:47Z</time>
      </trkpt>
      <trkpt lat="46.83243" lon="5.375">
        <ele>196.8</ele>
        <time>2022-03-21T08:22:48Z</time>
      </trkpt>
      <trkpt lat="46.8325" lon="5.37493">
        <ele>196.8</ele>
        <time>2022-03-21T08:22:49Z</time>
      </trkpt>
      <trkpt lat="46.83258" lon="5.37487">
        <ele>196.6</ele>
        <time>2022-03-21T08:22:50Z</time>
      </trkpt>
      <trkpt lat="46.83265" lon="5.3748">
        <ele>196.6</ele>
        <time>2022-03-21T08:22:51Z</time>
      </trkpt>
      <trkpt lat="46.83273" lon="5.37473">
        <ele>196.2</ele>
        <time>2022-03-21T08:22:52Z</time>
      </trkpt>
      <trkpt lat="46.8328" lon="5.37467">
        <ele>196.2</ele>
        <time>2022-03-21T08:22:53Z</time>
      </trkpt>
      <trkpt lat="46.83288" lon="5.3746">
        <ele>196</ele>
        <time>2022-03-21T08:22:54Z</time>
      </trkpt>
      <trkpt lat="46.83296" lon="5.37453">
        <ele>196</ele>
        <time>2022-03-21T08:22:55Z</time>
      </trkpt>
      <trkpt lat="46.83304" lon="5.37445">
        <ele>195.8</ele>
        <time>2022-03-21T08:22:56Z</time>
      </trkpt>
      <trkpt lat="46.83312" lon="5.37438">
        <ele>195.6</ele>
        <time>2022-03-21T08:22:57Z</time>
      </trkpt>
      <trkpt lat="46.8332" lon="5.37431">
        <ele>195.6</ele>
        <time>2022-03-21T08:22:58Z</time>
      </trkpt>
      <trkpt lat="46.83328" lon="5.37425">
        <ele>195.2</ele>
        <time>2022-03-21T08:22:59Z</time>
      </trkpt>
      <trkpt lat="46.83336" lon="5.37417">
        <ele>195.2</ele>
        <time>2022-03-21T08:23:00Z</time>
      </trkpt>
      <trkpt lat="46.83345" lon="5.37411">
        <ele>195</ele>
        <time>2022-03-21T08:23:01Z</time>
      </trkpt>
      <trkpt lat="46.83353" lon="5.37403">
        <ele>195</ele>
        <time>2022-03-21T08:23:02Z</time>
      </trkpt>
      <trkpt lat="46.83361" lon="5.37397">
        <ele>194.8</ele>
        <time>2022-03-21T08:23:03Z</time>
      </trkpt>
      <trkpt lat="46.83369" lon="5.37389">
        <ele>194.8</ele>
        <time>2022-03-21T08:23:04Z</time>
      </trkpt>
      <trkpt lat="46.83377" lon="5.37383">
        <ele>194.4</ele>
        <time>2022-03-21T08:23:05Z</time>
      </trkpt>
      <trkpt lat="46.83385" lon="5.37375">
        <ele>194.4</ele>
        <time>2022-03-21T08:23:06Z</time>
      </trkpt>
      <trkpt lat="46.83393" lon="5.37368">
        <ele>194.2</ele>
        <time>2022-03-21T08:23:07Z</time>
      </trkpt>
      <trkpt lat="46.83402" lon="5.37361">
        <ele>194</ele>
        <time>2022-03-21T08:23:08Z</time>
      </trkpt>
      <trkpt lat="46.8341" lon="5.37354">
        <ele>194</ele>
        <time>2022-03-21T08:23:09Z</time>
      </trkpt>
      <trkpt lat="46.83418" lon="5.37346">
        <ele>193.6</ele>
        <time>2022-03-21T08:23:10Z</time>
      </trkpt>
      <trkpt lat="46.83426" lon="5.37339">
        <ele>193.6</ele>
        <time>2022-03-21T08:23:11Z</time>
      </trkpt>
      <trkpt lat="46.83435" lon="5.37331">
        <ele>193.4</ele>
        <time>2022-03-21T08:23:12Z</time>
      </trkpt>
      <trkpt lat="46.83443" lon="5.37324">
        <ele>193.4</ele>
        <time>2022-03-21T08:23:13Z</time>
      </trkpt>
      <trkpt lat="46.83452" lon="5.37317">
        <ele>193.4</ele>
        <time>2022-03-21T08:23:14Z</time>
      </trkpt>
      <trkpt lat="46.8346" lon="5.3731">
        <ele>193.4</ele>
        <time>2022-03-21T08:23:15Z</time>
      </trkpt>
      <trkpt lat="46.83468" lon="5.37303">
        <ele>193.4</ele>
        <time>2022-03-21T08:23:16Z</time>
      </trkpt>
      <trkpt lat="46.83476" lon="5.37296">
        <ele>193.4</ele>
        <time>2022-03-21T08:23:17Z</time>
      </trkpt>
      <trkpt lat="46.83484" lon="5.37289">
        <ele>193.4</ele>
        <time>2022-03-21T08:23:18Z</time>
      </trkpt>
      <trkpt lat="46.83492" lon="5.37282">
        <ele>193.2</ele>
        <time>2022-03-21T08:23:19Z</time>
      </trkpt>
      <trkpt lat="46.83501" lon="5.37275">
        <ele>193.2</ele>
        <time>2022-03-21T08:23:20Z</time>
      </trkpt>
      <trkpt lat="46.83509" lon="5.37268">
        <ele>193.2</ele>
        <time>2022-03-21T08:23:21Z</time>
      </trkpt>
      <trkpt lat="46.83517" lon="5.37262">
        <ele>193.2</ele>
        <time>2022-03-21T08:23:22Z</time>
      </trkpt>
      <trkpt lat="46.83525" lon="5.37254">
        <ele>193.2</ele>
        <time>2022-03-21T08:23:23Z</time>
      </trkpt>
      <trkpt lat="46.83533" lon="5.37248">
        <ele>193.2</ele>
        <time>2022-03-21T08:23:24Z</time>
      </trkpt>
      <trkpt lat="46.83541" lon="5.37241">
        <ele>193</ele>
        <time>2022-03-21T08:23:25Z</time>
      </trkpt>
      <trkpt lat="46.83549" lon="5.37234">
        <ele>193</ele>
        <time>2022-03-21T08:23:26Z</time>
      </trkpt>
      <trkpt lat="46.83556" lon="5.37226">
        <ele>193</ele>
        <time>2022-03-21T08:23:27Z</time>
      </trkpt>
      <trkpt lat="46.83564" lon="5.37219">
        <ele>193</ele>
        <time>2022-03-21T08:23:28Z</time>
      </trkpt>
      <trkpt lat="46.83572" lon="5.37212">
        <ele>193</ele>
        <time>2022-03-21T08:23:29Z</time>
      </trkpt>
      <trkpt lat="46.8358" lon="5.37205">
        <ele>193</ele>
        <time>2022-03-21T08:23:30Z</time>
      </trkpt>
      <trkpt lat="46.83587" lon="5.37198">
        <ele>193</ele>
        <time>2022-03-21T08:23:31Z</time>
      </trkpt>
      <trkpt lat="46.83595" lon="5.37192">
        <ele>193</ele>
        <time>2022-03-21T08:23:32Z</time>
      </trkpt>
      <trkpt lat="46.83603" lon="5.37186">
        <ele>193</ele>
        <time>2022-03-21T08:23:33Z</time>
      </trkpt>
      <trkpt lat="46.83611" lon="5.37178">
        <ele>193</ele>
        <time>2022-03-21T08:23:34Z</time>
      </trkpt>
      <trkpt lat="46.83619" lon="5.37172">
        <ele>193</ele>
        <time>2022-03-21T08:23:35Z</time>
      </trkpt>
      <trkpt lat="46.83627" lon="5.37164">
        <ele>192.8</ele>
        <time>2022-03-21T08:23:36Z</time>
      </trkpt>
      <trkpt lat="46.83634" lon="5.37158">
        <ele>192.8</ele>
        <time>2022-03-21T08:23:37Z</time>
      </trkpt>
      <trkpt lat="46.83642" lon="5.37151">
        <ele>192.8</ele>
        <time>2022-03-21T08:23:38Z</time>
      </trkpt>
      <trkpt lat="46.8365" lon="5.37144">
        <ele>192.8</ele>
        <time>2022-03-21T08:23:39Z</time>
      </trkpt>
      <trkpt lat="46.83658" lon="5.37137">
        <ele>192.8</ele>
        <time>2022-03-21T08:23:40Z</time>
      </trkpt>
      <trkpt lat="46.83666" lon="5.37131">
        <ele>192.8</ele>
        <time>2022-03-21T08:23:41Z</time>
      </trkpt>
      <trkpt lat="46.83674" lon="5.37124">
        <ele>192.8</ele>
        <time>2022-03-21T08:23:42Z</time>
      </trkpt>
      <trkpt lat="46.83681" lon="5.37117">
        <ele>192.6</ele>
        <time>2022-03-21T08:23:43Z</time>
      </trkpt>
      <trkpt lat="46.83689" lon="5.37111">
        <ele>192.6</ele>
        <time>2022-03-21T08:23:44Z</time>
      </trkpt>
      <trkpt lat="46.83697" lon="5.37103">
        <ele>192.6</ele>
        <time>2022-03-21T08:23:45Z</time>
      </trkpt>
      <trkpt lat="46.83705" lon="5.37096">
        <ele>192.6</ele>
        <time>2022-03-21T08:23:47Z</time>
      </trkpt>
      <trkpt lat="46.83713" lon="5.3709">
        <ele>192.6</ele>
        <time>2022-03-21T08:23:48Z</time>
      </trkpt>
      <trkpt lat="46.83721" lon="5.37083">
        <ele>192.6</ele>
        <time>2022-03-21T08:23:49Z</time>
      </trkpt>
      <trkpt lat="46.83729" lon="5.37076">
        <ele>192.6</ele>
        <time>2022-03-21T08:23:50Z</time>
      </trkpt>
      <trkpt lat="46.83738" lon="5.37069">
        <ele>192.4</ele>
        <time>2022-03-21T08:23:51Z</time>
      </trkpt>
      <trkpt lat="46.83746" lon="5.37061">
        <ele>192.4</ele>
        <time>2022-03-21T08:23:52Z</time>
      </trkpt>
      <trkpt lat="46.83753" lon="5.37055">
        <ele>192.4</ele>
        <time>2022-03-21T08:23:53Z</time>
      </trkpt>
      <trkpt lat="46.83761" lon="5.37047">
        <ele>192.4</ele>
        <time>2022-03-21T08:23:54Z</time>
      </trkpt>
      <trkpt lat="46.83769" lon="5.37041">
        <ele>192</ele>
        <time>2022-03-21T08:23:55Z</time>
      </trkpt>
      <trkpt lat="46.83777" lon="5.37032">
        <ele>192</ele>
        <time>2022-03-21T08:23:56Z</time>
      </trkpt>
      <trkpt lat="46.83785" lon="5.37026">
        <ele>192</ele>
        <time>2022-03-21T08:23:57Z</time>
      </trkpt>
      <trkpt lat="46.83793" lon="5.37018">
        <ele>192</ele>
        <time>2022-03-21T08:23:58Z</time>
      </trkpt>
      <trkpt lat="46.83801" lon="5.37011">
        <ele>191.8</ele>
        <time>2022-03-21T08:23:59Z</time>
      </trkpt>
      <trkpt lat="46.83808" lon="5.37004">
        <ele>191.8</ele>
        <time>2022-03-21T08:24:00Z</time>
      </trkpt>
      <trkpt lat="46.83816" lon="5.36998">
        <ele>191.8</ele>
        <time>2022-03-21T08:24:01Z</time>
      </trkpt>
      <trkpt lat="46.83824" lon="5.36991">
        <ele>191.8</ele>
        <time>2022-03-21T08:24:02Z</time>
      </trkpt>
      <trkpt lat="46.83832" lon="5.36985">
        <ele>191.8</ele>
        <time>2022-03-21T08:24:03Z</time>
      </trkpt>
      <trkpt lat="46.8384" lon="5.36978">
        <ele>191.8</ele>
        <time>2022-03-21T08:24:04Z</time>
      </trkpt>
      <trkpt lat="46.83848" lon="5.36971">
        <ele>191.8</ele>
        <time>2022-03-21T08:24:05Z</time>
      </trkpt>
      <trkpt lat="46.83855" lon="5.36963">
        <ele>191.6</ele>
        <time>2022-03-21T08:24:06Z</time>
      </trkpt>
      <trkpt lat="46.83863" lon="5.36957">
        <ele>191.6</ele>
        <time>2022-03-21T08:24:07Z</time>
      </trkpt>
      <trkpt lat="46.83871" lon="5.36951">
        <ele>191.6</ele>
        <time>2022-03-21T08:24:08Z</time>
      </trkpt>
      <trkpt lat="46.83878" lon="5.36944">
        <ele>191.6</ele>
        <time>2022-03-21T08:24:09Z</time>
      </trkpt>
      <trkpt lat="46.83886" lon="5.36937">
        <ele>191.6</ele>
        <time>2022-03-21T08:24:10Z</time>
      </trkpt>
      <trkpt lat="46.83893" lon="5.36931">
        <ele>191.6</ele>
        <time>2022-03-21T08:24:11Z</time>
      </trkpt>
      <trkpt lat="46.83901" lon="5.36924">
        <ele>191.6</ele>
        <time>2022-03-21T08:24:12Z</time>
      </trkpt>
      <trkpt lat="46.83908" lon="5.36918">
        <ele>191.6</ele>
        <time>2022-03-21T08:24:13Z</time>
      </trkpt>
      <trkpt lat="46.83915" lon="5.36911">
        <ele>191.6</ele>
        <time>2022-03-21T08:24:14Z</time>
      </trkpt>
      <trkpt lat="46.83923" lon="5.36905">
        <ele>191.6</ele>
        <time>2022-03-21T08:24:15Z</time>
      </trkpt>
      <trkpt lat="46.8393" lon="5.36899">
        <ele>191.6</ele>
        <time>2022-03-21T08:24:16Z</time>
      </trkpt>
      <trkpt lat="46.83937" lon="5.36892">
        <ele>191.6</ele>
        <time>2022-03-21T08:24:17Z</time>
      </trkpt>
      <trkpt lat="46.83944" lon="5.36885">
        <ele>191.6</ele>
        <time>2022-03-21T08:24:18Z</time>
      </trkpt>
      <trkpt lat="46.83952" lon="5.36879">
        <ele>191.6</ele>
        <time>2022-03-21T08:24:19Z</time>
      </trkpt>
      <trkpt lat="46.83959" lon="5.36873">
        <ele>191.6</ele>
        <time>2022-03-21T08:24:20Z</time>
      </trkpt>
      <trkpt lat="46.83966" lon="5.36866">
        <ele>191.6</ele>
        <time>2022-03-21T08:24:21Z</time>
      </trkpt>
      <trkpt lat="46.83973" lon="5.3686">
        <ele>191.6</ele>
        <time>2022-03-21T08:24:22Z</time>
      </trkpt>
      <trkpt lat="46.83981" lon="5.36854">
        <ele>191.6</ele>
        <time>2022-03-21T08:24:23Z</time>
      </trkpt>
      <trkpt lat="46.83988" lon="5.36847">
        <ele>191.6</ele>
        <time>2022-03-21T08:24:24Z</time>
      </trkpt>
      <trkpt lat="46.83995" lon="5.36841">
        <ele>191.6</ele>
        <time>2022-03-21T08:24:25Z</time>
      </trkpt>
      <trkpt lat="46.84002" lon="5.36835">
        <ele>191.6</ele>
        <time>2022-03-21T08:24:26Z</time>
      </trkpt>
      <trkpt lat="46.84009" lon="5.36829">
        <ele>191.6</ele>
        <time>2022-03-21T08:24:27Z</time>
      </trkpt>
      <trkpt lat="46.84016" lon="5.36823">
        <ele>191.6</ele>
        <time>2022-03-21T08:24:28Z</time>
      </trkpt>
      <trkpt lat="46.84023" lon="5.36816">
        <ele>191.6</ele>
        <time>2022-03-21T08:24:29Z</time>
      </trkpt>
      <trkpt lat="46.8403" lon="5.3681">
        <ele>191.8</ele>
        <time>2022-03-21T08:24:30Z</time>
      </trkpt>
      <trkpt lat="46.84037" lon="5.36804">
        <ele>191.8</ele>
        <time>2022-03-21T08:24:31Z</time>
      </trkpt>
      <trkpt lat="46.84044" lon="5.36798">
        <ele>191.8</ele>
        <time>2022-03-21T08:24:32Z</time>
      </trkpt>
      <trkpt lat="46.84051" lon="5.36791">
        <ele>191.8</ele>
        <time>2022-03-21T08:24:33Z</time>
      </trkpt>
      <trkpt lat="46.84058" lon="5.36785">
        <ele>191.8</ele>
        <time>2022-03-21T08:24:34Z</time>
      </trkpt>
      <trkpt lat="46.84065" lon="5.3678">
        <ele>191.8</ele>
        <time>2022-03-21T08:24:35Z</time>
      </trkpt>
      <trkpt lat="46.84072" lon="5.36774">
        <ele>191.8</ele>
        <time>2022-03-21T08:24:36Z</time>
      </trkpt>
      <trkpt lat="46.84079" lon="5.36768">
        <ele>191.8</ele>
        <time>2022-03-21T08:24:37Z</time>
      </trkpt>
      <trkpt lat="46.84086" lon="5.36761">
        <ele>191.8</ele>
        <time>2022-03-21T08:24:38Z</time>
      </trkpt>
      <trkpt lat="46.84092" lon="5.36755">
        <ele>191.8</ele>
        <time>2022-03-21T08:24:39Z</time>
      </trkpt>
      <trkpt lat="46.841" lon="5.36749">
        <ele>191.8</ele>
        <time>2022-03-21T08:24:40Z</time>
      </trkpt>
      <trkpt lat="46.84107" lon="5.36743">
        <ele>191.8</ele>
        <time>2022-03-21T08:24:41Z</time>
      </trkpt>
      <trkpt lat="46.84114" lon="5.36737">
        <ele>191.6</ele>
        <time>2022-03-21T08:24:42Z</time>
      </trkpt>
      <trkpt lat="46.8412" lon="5.36729">
        <ele>191.6</ele>
        <time>2022-03-21T08:24:43Z</time>
      </trkpt>
      <trkpt lat="46.84125" lon="5.36719">
        <ele>191.6</ele>
        <time>2022-03-21T08:24:44Z</time>
      </trkpt>
      <trkpt lat="46.84129" lon="5.36708">
        <ele>191.6</ele>
        <time>2022-03-21T08:24:45Z</time>
      </trkpt>
      <trkpt lat="46.84132" lon="5.36697">
        <ele>191.6</ele>
        <time>2022-03-21T08:24:46Z</time>
      </trkpt>
      <trkpt lat="46.84134" lon="5.36685">
        <ele>191.6</ele>
        <time>2022-03-21T08:24:47Z</time>
      </trkpt>
      <trkpt lat="46.84135" lon="5.36674">
        <ele>191.4</ele>
        <time>2022-03-21T08:24:48Z</time>
      </trkpt>
      <trkpt lat="46.84135" lon="5.36662">
        <ele>191.4</ele>
        <time>2022-03-21T08:24:49Z</time>
      </trkpt>
      <trkpt lat="46.84136" lon="5.3665">
        <ele>191.4</ele>
        <time>2022-03-21T08:24:50Z</time>
      </trkpt>
      <trkpt lat="46.84137" lon="5.36638">
        <ele>191.4</ele>
        <time>2022-03-21T08:24:51Z</time>
      </trkpt>
      <trkpt lat="46.84138" lon="5.36626">
        <ele>191.2</ele>
        <time>2022-03-21T08:24:52Z</time>
      </trkpt>
      <trkpt lat="46.84138" lon="5.36614">
        <ele>191.2</ele>
        <time>2022-03-21T08:24:53Z</time>
      </trkpt>
      <trkpt lat="46.84138" lon="5.36602">
        <ele>191.2</ele>
        <time>2022-03-21T08:24:54Z</time>
      </trkpt>
      <trkpt lat="46.84138" lon="5.3659">
        <ele>191.2</ele>
        <time>2022-03-21T08:24:55Z</time>
      </trkpt>
      <trkpt lat="46.84138" lon="5.36578">
        <ele>191.2</ele>
        <time>2022-03-21T08:24:56Z</time>
      </trkpt>
      <trkpt lat="46.84138" lon="5.36566">
        <ele>191.2</ele>
        <time>2022-03-21T08:24:57Z</time>
      </trkpt>
      <trkpt lat="46.84138" lon="5.36554">
        <ele>191.2</ele>
        <time>2022-03-21T08:24:58Z</time>
      </trkpt>
      <trkpt lat="46.84138" lon="5.36543">
        <ele>191.2</ele>
        <time>2022-03-21T08:24:59Z</time>
      </trkpt>
      <trkpt lat="46.84137" lon="5.36531">
        <ele>191.2</ele>
        <time>2022-03-21T08:25:00Z</time>
      </trkpt>
      <trkpt lat="46.84137" lon="5.36519">
        <ele>191.2</ele>
        <time>2022-03-21T08:25:01Z</time>
      </trkpt>
      <trkpt lat="46.84136" lon="5.36496">
        <ele>191.2</ele>
        <time>2022-03-21T08:25:02Z</time>
      </trkpt>
      <trkpt lat="46.84136" lon="5.36484">
        <ele>191.2</ele>
        <time>2022-03-21T08:25:03Z</time>
      </trkpt>
      <trkpt lat="46.84136" lon="5.36472">
        <ele>191.2</ele>
        <time>2022-03-21T08:25:04Z</time>
      </trkpt>
      <trkpt lat="46.84136" lon="5.36461">
        <ele>191.2</ele>
        <time>2022-03-21T08:25:05Z</time>
      </trkpt>
      <trkpt lat="46.84136" lon="5.36449">
        <ele>191</ele>
        <time>2022-03-21T08:25:06Z</time>
      </trkpt>
      <trkpt lat="46.84137" lon="5.36437">
        <ele>191</ele>
        <time>2022-03-21T08:25:07Z</time>
      </trkpt>
      <trkpt lat="46.84137" lon="5.36425">
        <ele>191</ele>
        <time>2022-03-21T08:25:08Z</time>
      </trkpt>
      <trkpt lat="46.84138" lon="5.36414">
        <ele>191</ele>
        <time>2022-03-21T08:25:09Z</time>
      </trkpt>
      <trkpt lat="46.8414" lon="5.36403">
        <ele>190.8</ele>
        <time>2022-03-21T08:25:10Z</time>
      </trkpt>
      <trkpt lat="46.84141" lon="5.36391">
        <ele>190.8</ele>
        <time>2022-03-21T08:25:11Z</time>
      </trkpt>
      <trkpt lat="46.84143" lon="5.3638">
        <ele>190.8</ele>
        <time>2022-03-21T08:25:12Z</time>
      </trkpt>
      <trkpt lat="46.84144" lon="5.3637">
        <ele>190.8</ele>
        <time>2022-03-21T08:25:13Z</time>
      </trkpt>
      <trkpt lat="46.84145" lon="5.36359">
        <ele>190.8</ele>
        <time>2022-03-21T08:25:14Z</time>
      </trkpt>
      <trkpt lat="46.84147" lon="5.36348">
        <ele>190.8</ele>
        <time>2022-03-21T08:25:15Z</time>
      </trkpt>
      <trkpt lat="46.84149" lon="5.36338">
        <ele>190.8</ele>
        <time>2022-03-21T08:25:16Z</time>
      </trkpt>
      <trkpt lat="46.8415" lon="5.36327">
        <ele>190.8</ele>
        <time>2022-03-21T08:25:17Z</time>
      </trkpt>
      <trkpt lat="46.84152" lon="5.36317">
        <ele>190.8</ele>
        <time>2022-03-21T08:25:18Z</time>
      </trkpt>
      <trkpt lat="46.84153" lon="5.36306">
        <ele>190.8</ele>
        <time>2022-03-21T08:25:19Z</time>
      </trkpt>
      <trkpt lat="46.84155" lon="5.36295">
        <ele>190.8</ele>
        <time>2022-03-21T08:25:20Z</time>
      </trkpt>
      <trkpt lat="46.84156" lon="5.36285">
        <ele>190.8</ele>
        <time>2022-03-21T08:25:21Z</time>
      </trkpt>
      <trkpt lat="46.84157" lon="5.36274">
        <ele>190.8</ele>
        <time>2022-03-21T08:25:22Z</time>
      </trkpt>
      <trkpt lat="46.84158" lon="5.36263">
        <ele>190.8</ele>
        <time>2022-03-21T08:25:23Z</time>
      </trkpt>
      <trkpt lat="46.84159" lon="5.36252">
        <ele>190.8</ele>
        <time>2022-03-21T08:25:24Z</time>
      </trkpt>
      <trkpt lat="46.8416" lon="5.36241">
        <ele>190.8</ele>
        <time>2022-03-21T08:25:25Z</time>
      </trkpt>
      <trkpt lat="46.84161" lon="5.3623">
        <ele>190.8</ele>
        <time>2022-03-21T08:25:26Z</time>
      </trkpt>
      <trkpt lat="46.84162" lon="5.3622">
        <ele>190.8</ele>
        <time>2022-03-21T08:25:27Z</time>
      </trkpt>
      <trkpt lat="46.84165" lon="5.3621">
        <ele>190.8</ele>
        <time>2022-03-21T08:25:28Z</time>
      </trkpt>
      <trkpt lat="46.8417" lon="5.36202">
        <ele>190.8</ele>
        <time>2022-03-21T08:25:29Z</time>
      </trkpt>
      <trkpt lat="46.84176" lon="5.36197">
        <ele>190.8</ele>
        <time>2022-03-21T08:25:30Z</time>
      </trkpt>
      <trkpt lat="46.84183" lon="5.36193">
        <ele>190.8</ele>
        <time>2022-03-21T08:25:31Z</time>
      </trkpt>
      <trkpt lat="46.8419" lon="5.36192">
        <ele>190.6</ele>
        <time>2022-03-21T08:25:32Z</time>
      </trkpt>
      <trkpt lat="46.84198" lon="5.36191">
        <ele>190.6</ele>
        <time>2022-03-21T08:25:33Z</time>
      </trkpt>
      <trkpt lat="46.84206" lon="5.3619">
        <ele>190.6</ele>
        <time>2022-03-21T08:25:34Z</time>
      </trkpt>
      <trkpt lat="46.84214" lon="5.36189">
        <ele>190.6</ele>
        <time>2022-03-21T08:25:35Z</time>
      </trkpt>
      <trkpt lat="46.84221" lon="5.36188">
        <ele>190.6</ele>
        <time>2022-03-21T08:25:36Z</time>
      </trkpt>
      <trkpt lat="46.84229" lon="5.36188">
        <ele>190.6</ele>
        <time>2022-03-21T08:25:37Z</time>
      </trkpt>
      <trkpt lat="46.84237" lon="5.36187">
        <ele>190.6</ele>
        <time>2022-03-21T08:25:38Z</time>
      </trkpt>
      <trkpt lat="46.84245" lon="5.36186">
        <ele>190.6</ele>
        <time>2022-03-21T08:25:39Z</time>
      </trkpt>
      <trkpt lat="46.84253" lon="5.36185">
        <ele>190.6</ele>
        <time>2022-03-21T08:25:40Z</time>
      </trkpt>
      <trkpt lat="46.8426" lon="5.36184">
        <ele>190.6</ele>
        <time>2022-03-21T08:25:41Z</time>
      </trkpt>
      <trkpt lat="46.84268" lon="5.36184">
        <ele>190.6</ele>
        <time>2022-03-21T08:25:42Z</time>
      </trkpt>
      <trkpt lat="46.84276" lon="5.36183">
        <ele>190.6</ele>
        <time>2022-03-21T08:25:43Z</time>
      </trkpt>
      <trkpt lat="46.84283" lon="5.36182">
        <ele>190.6</ele>
        <time>2022-03-21T08:25:44Z</time>
      </trkpt>
      <trkpt lat="46.84291" lon="5.36181">
        <ele>190.6</ele>
        <time>2022-03-21T08:25:45Z</time>
      </trkpt>
      <trkpt lat="46.84299" lon="5.3618">
        <ele>190.6</ele>
        <time>2022-03-21T08:25:46Z</time>
      </trkpt>
      <trkpt lat="46.84306" lon="5.3618">
        <ele>190.8</ele>
        <time>2022-03-21T08:25:47Z</time>
      </trkpt>
      <trkpt lat="46.84313" lon="5.36179">
        <ele>190.8</ele>
        <time>2022-03-21T08:25:48Z</time>
      </trkpt>
      <trkpt lat="46.8432" lon="5.36178">
        <ele>191.2</ele>
        <time>2022-03-21T08:25:49Z</time>
      </trkpt>
      <trkpt lat="46.84327" lon="5.36177">
        <ele>191.2</ele>
        <time>2022-03-21T08:25:50Z</time>
      </trkpt>
      <trkpt lat="46.84332" lon="5.36176">
        <ele>191.4</ele>
        <time>2022-03-21T08:25:51Z</time>
      </trkpt>
      <trkpt lat="46.84336" lon="5.36177">
        <ele>191.4</ele>
        <time>2022-03-21T08:25:52Z</time>
      </trkpt>
      <trkpt lat="46.84338" lon="5.36177">
        <ele>191.8</ele>
        <time>2022-03-21T08:25:53Z</time>
      </trkpt>
      <trkpt lat="46.8434" lon="5.36177">
        <ele>191.8</ele>
        <time>2022-03-21T08:25:54Z</time>
      </trkpt>
      <trkpt lat="46.84341" lon="5.36177">
        <ele>191.8</ele>
        <time>2022-03-21T08:25:55Z</time>
      </trkpt>
      <trkpt lat="46.84342" lon="5.36178">
        <ele>192</ele>
        <time>2022-03-21T08:25:56Z</time>
      </trkpt>
      <trkpt lat="46.84345" lon="5.36177">
        <ele>192</ele>
        <time>2022-03-21T08:26:53Z</time>
      </trkpt>
      <trkpt lat="46.84346" lon="5.36177">
        <ele>192</ele>
        <time>2022-03-21T08:26:54Z</time>
      </trkpt>
      <trkpt lat="46.84348" lon="5.36176">
        <ele>192</ele>
        <time>2022-03-21T08:26:55Z</time>
      </trkpt>
      <trkpt lat="46.84351" lon="5.36176">
        <ele>191.8</ele>
        <time>2022-03-21T08:26:56Z</time>
      </trkpt>
      <trkpt lat="46.84354" lon="5.36175">
        <ele>191.8</ele>
        <time>2022-03-21T08:26:57Z</time>
      </trkpt>
      <trkpt lat="46.84357" lon="5.36176">
        <ele>191.8</ele>
        <time>2022-03-21T08:26:58Z</time>
      </trkpt>
      <trkpt lat="46.84361" lon="5.36175">
        <ele>191.8</ele>
        <time>2022-03-21T08:26:59Z</time>
      </trkpt>
      <trkpt lat="46.84365" lon="5.36175">
        <ele>191.8</ele>
        <time>2022-03-21T08:27:00Z</time>
      </trkpt>
      <trkpt lat="46.84369" lon="5.36174">
        <ele>191.8</ele>
        <time>2022-03-21T08:27:01Z</time>
      </trkpt>
      <trkpt lat="46.84374" lon="5.36173">
        <ele>191.8</ele>
        <time>2022-03-21T08:27:02Z</time>
      </trkpt>
      <trkpt lat="46.84379" lon="5.36172">
        <ele>191.4</ele>
        <time>2022-03-21T08:27:03Z</time>
      </trkpt>
      <trkpt lat="46.84385" lon="5.36172">
        <ele>191.4</ele>
        <time>2022-03-21T08:27:04Z</time>
      </trkpt>
      <trkpt lat="46.84391" lon="5.36171">
        <ele>191.4</ele>
        <time>2022-03-21T08:27:05Z</time>
      </trkpt>
      <trkpt lat="46.84397" lon="5.36171">
        <ele>191.2</ele>
        <time>2022-03-21T08:27:06Z</time>
      </trkpt>
      <trkpt lat="46.84403" lon="5.3617">
        <ele>191.2</ele>
        <time>2022-03-21T08:27:07Z</time>
      </trkpt>
      <trkpt lat="46.8441" lon="5.3617">
        <ele>191</ele>
        <time>2022-03-21T08:27:08Z</time>
      </trkpt>
      <trkpt lat="46.84416" lon="5.36169">
        <ele>191</ele>
        <time>2022-03-21T08:27:09Z</time>
      </trkpt>
      <trkpt lat="46.84422" lon="5.36168">
        <ele>191</ele>
        <time>2022-03-21T08:27:10Z</time>
      </trkpt>
      <trkpt lat="46.84429" lon="5.36168">
        <ele>191</ele>
        <time>2022-03-21T08:27:11Z</time>
      </trkpt>
      <trkpt lat="46.84435" lon="5.36167">
        <ele>191</ele>
        <time>2022-03-21T08:27:12Z</time>
      </trkpt>
      <trkpt lat="46.84441" lon="5.36166">
        <ele>191</ele>
        <time>2022-03-21T08:27:13Z</time>
      </trkpt>
      <trkpt lat="46.84447" lon="5.36166">
        <ele>191.2</ele>
        <time>2022-03-21T08:27:14Z</time>
      </trkpt>
      <trkpt lat="46.84453" lon="5.36166">
        <ele>191.6</ele>
        <time>2022-03-21T08:27:15Z</time>
      </trkpt>
      <trkpt lat="46.84458" lon="5.36165">
        <ele>192</ele>
        <time>2022-03-21T08:27:16Z</time>
      </trkpt>
      <trkpt lat="46.84464" lon="5.36165">
        <ele>192.4</ele>
        <time>2022-03-21T08:27:17Z</time>
      </trkpt>
      <trkpt lat="46.84469" lon="5.36164">
        <ele>192.6</ele>
        <time>2022-03-21T08:27:18Z</time>
      </trkpt>
      <trkpt lat="46.84474" lon="5.36163">
        <ele>193</ele>
        <time>2022-03-21T08:27:19Z</time>
      </trkpt>
      <trkpt lat="46.8448" lon="5.36163">
        <ele>193.4</ele>
        <time>2022-03-21T08:27:20Z</time>
      </trkpt>
      <trkpt lat="46.84485" lon="5.36162">
        <ele>193.6</ele>
        <time>2022-03-21T08:27:21Z</time>
      </trkpt>
      <trkpt lat="46.8449" lon="5.36161">
        <ele>194</ele>
        <time>2022-03-21T08:27:22Z</time>
      </trkpt>
      <trkpt lat="46.84495" lon="5.36161">
        <ele>194.4</ele>
        <time>2022-03-21T08:27:23Z</time>
      </trkpt>
      <trkpt lat="46.845" lon="5.36161">
        <ele>194.6</ele>
        <time>2022-03-21T08:27:24Z</time>
      </trkpt>
      <trkpt lat="46.84505" lon="5.36161">
        <ele>194.8</ele>
        <time>2022-03-21T08:27:25Z</time>
      </trkpt>
      <trkpt lat="46.8451" lon="5.3616">
        <ele>195.2</ele>
        <time>2022-03-21T08:27:26Z</time>
      </trkpt>
      <trkpt lat="46.84515" lon="5.36159">
        <ele>195.6</ele>
        <time>2022-03-21T08:27:27Z</time>
      </trkpt>
      <trkpt lat="46.8452" lon="5.36159">
        <ele>195.8</ele>
        <time>2022-03-21T08:27:28Z</time>
      </trkpt>
      <trkpt lat="46.84525" lon="5.36159">
        <ele>196</ele>
        <time>2022-03-21T08:27:29Z</time>
      </trkpt>
      <trkpt lat="46.8453" lon="5.36158">
        <ele>196.2</ele>
        <time>2022-03-21T08:27:30Z</time>
      </trkpt>
      <trkpt lat="46.84535" lon="5.36157">
        <ele>196.4</ele>
        <time>2022-03-21T08:27:31Z</time>
      </trkpt>
      <trkpt lat="46.8454" lon="5.36157">
        <ele>196.8</ele>
        <time>2022-03-21T08:27:32Z</time>
      </trkpt>
      <trkpt lat="46.84545" lon="5.36157">
        <ele>197</ele>
        <time>2022-03-21T08:27:33Z</time>
      </trkpt>
      <trkpt lat="46.8455" lon="5.36156">
        <ele>197</ele>
        <time>2022-03-21T08:27:34Z</time>
      </trkpt>
      <trkpt lat="46.84555" lon="5.36156">
        <ele>197.4</ele>
        <time>2022-03-21T08:27:35Z</time>
      </trkpt>
      <trkpt lat="46.84561" lon="5.36155">
        <ele>197.4</ele>
        <time>2022-03-21T08:27:36Z</time>
      </trkpt>
      <trkpt lat="46.84567" lon="5.36154">
        <ele>197.8</ele>
        <time>2022-03-21T08:27:37Z</time>
      </trkpt>
      <trkpt lat="46.84572" lon="5.36153">
        <ele>197.8</ele>
        <time>2022-03-21T08:27:38Z</time>
      </trkpt>
      <trkpt lat="46.84578" lon="5.36153">
        <ele>198.2</ele>
        <time>2022-03-21T08:27:39Z</time>
      </trkpt>
      <trkpt lat="46.84584" lon="5.36152">
        <ele>198.2</ele>
        <time>2022-03-21T08:27:40Z</time>
      </trkpt>
      <trkpt lat="46.84589" lon="5.36152">
        <ele>198.4</ele>
        <time>2022-03-21T08:27:41Z</time>
      </trkpt>
      <trkpt lat="46.84595" lon="5.36151">
        <ele>198.4</ele>
        <time>2022-03-21T08:27:42Z</time>
      </trkpt>
      <trkpt lat="46.84601" lon="5.36151">
        <ele>198.8</ele>
        <time>2022-03-21T08:27:43Z</time>
      </trkpt>
      <trkpt lat="46.84606" lon="5.3615">
        <ele>198.8</ele>
        <time>2022-03-21T08:27:44Z</time>
      </trkpt>
      <trkpt lat="46.84612" lon="5.3615">
        <ele>198.8</ele>
        <time>2022-03-21T08:27:45Z</time>
      </trkpt>
      <trkpt lat="46.84618" lon="5.36149">
        <ele>199</ele>
        <time>2022-03-21T08:27:46Z</time>
      </trkpt>
      <trkpt lat="46.84623" lon="5.36149">
        <ele>199</ele>
        <time>2022-03-21T08:27:47Z</time>
      </trkpt>
      <trkpt lat="46.84628" lon="5.36148">
        <ele>199.2</ele>
        <time>2022-03-21T08:27:48Z</time>
      </trkpt>
      <trkpt lat="46.84634" lon="5.36148">
        <ele>199.2</ele>
        <time>2022-03-21T08:27:49Z</time>
      </trkpt>
      <trkpt lat="46.84639" lon="5.36147">
        <ele>199.6</ele>
        <time>2022-03-21T08:27:50Z</time>
      </trkpt>
      <trkpt lat="46.84644" lon="5.36147">
        <ele>199.8</ele>
        <time>2022-03-21T08:27:51Z</time>
      </trkpt>
      <trkpt lat="46.8465" lon="5.36146">
        <ele>200</ele>
        <time>2022-03-21T08:27:52Z</time>
      </trkpt>
      <trkpt lat="46.84655" lon="5.36146">
        <ele>200</ele>
        <time>2022-03-21T08:27:53Z</time>
      </trkpt>
      <trkpt lat="46.84661" lon="5.36146">
        <ele>200.2</ele>
        <time>2022-03-21T08:27:54Z</time>
      </trkpt>
      <trkpt lat="46.84666" lon="5.36145">
        <ele>200.2</ele>
        <time>2022-03-21T08:27:55Z</time>
      </trkpt>
      <trkpt lat="46.84672" lon="5.36145">
        <ele>200.6</ele>
        <time>2022-03-21T08:27:56Z</time>
      </trkpt>
      <trkpt lat="46.84677" lon="5.36144">
        <ele>200.6</ele>
        <time>2022-03-21T08:27:57Z</time>
      </trkpt>
      <trkpt lat="46.84682" lon="5.36143">
        <ele>200.8</ele>
        <time>2022-03-21T08:27:58Z</time>
      </trkpt>
      <trkpt lat="46.84688" lon="5.36143">
        <ele>200.8</ele>
        <time>2022-03-21T08:27:59Z</time>
      </trkpt>
      <trkpt lat="46.84693" lon="5.36143">
        <ele>201</ele>
        <time>2022-03-21T08:28:00Z</time>
      </trkpt>
      <trkpt lat="46.84698" lon="5.36145">
        <ele>201</ele>
        <time>2022-03-21T08:28:01Z</time>
      </trkpt>
      <trkpt lat="46.84704" lon="5.36148">
        <ele>201.2</ele>
        <time>2022-03-21T08:28:02Z</time>
      </trkpt>
      <trkpt lat="46.84708" lon="5.36152">
        <ele>201.2</ele>
        <time>2022-03-21T08:28:03Z</time>
      </trkpt>
      <trkpt lat="46.84713" lon="5.36157">
        <ele>201.2</ele>
        <time>2022-03-21T08:28:04Z</time>
      </trkpt>
      <trkpt lat="46.84717" lon="5.36163">
        <ele>201.6</ele>
        <time>2022-03-21T08:28:05Z</time>
      </trkpt>
      <trkpt lat="46.84721" lon="5.36168">
        <ele>201.6</ele>
        <time>2022-03-21T08:28:06Z</time>
      </trkpt>
      <trkpt lat="46.84725" lon="5.36173">
        <ele>201.6</ele>
        <time>2022-03-21T08:28:07Z</time>
      </trkpt>
      <trkpt lat="46.8473" lon="5.36177">
        <ele>202</ele>
        <time>2022-03-21T08:28:08Z</time>
      </trkpt>
      <trkpt lat="46.84735" lon="5.36181">
        <ele>202</ele>
        <time>2022-03-21T08:28:09Z</time>
      </trkpt>
      <trkpt lat="46.8474" lon="5.36183">
        <ele>202.2</ele>
        <time>2022-03-21T08:28:10Z</time>
      </trkpt>
      <trkpt lat="46.84746" lon="5.36186">
        <ele>202.2</ele>
        <time>2022-03-21T08:28:11Z</time>
      </trkpt>
      <trkpt lat="46.84751" lon="5.36187">
        <ele>202.6</ele>
        <time>2022-03-21T08:28:12Z</time>
      </trkpt>
      <trkpt lat="46.84756" lon="5.36188">
        <ele>202.6</ele>
        <time>2022-03-21T08:28:13Z</time>
      </trkpt>
      <trkpt lat="46.84762" lon="5.36189">
        <ele>202.8</ele>
        <time>2022-03-21T08:28:14Z</time>
      </trkpt>
      <trkpt lat="46.84768" lon="5.3619">
        <ele>202.8</ele>
        <time>2022-03-21T08:28:15Z</time>
      </trkpt>
      <trkpt lat="46.84773" lon="5.36191">
        <ele>202.8</ele>
        <time>2022-03-21T08:28:16Z</time>
      </trkpt>
      <trkpt lat="46.84779" lon="5.36192">
        <ele>203</ele>
        <time>2022-03-21T08:28:17Z</time>
      </trkpt>
      <trkpt lat="46.84785" lon="5.36193">
        <ele>203</ele>
        <time>2022-03-21T08:28:18Z</time>
      </trkpt>
      <trkpt lat="46.84791" lon="5.36193">
        <ele>203</ele>
        <time>2022-03-21T08:28:19Z</time>
      </trkpt>
      <trkpt lat="46.84797" lon="5.36194">
        <ele>203</ele>
        <time>2022-03-21T08:28:20Z</time>
      </trkpt>
      <trkpt lat="46.84804" lon="5.36195">
        <ele>203</ele>
        <time>2022-03-21T08:28:21Z</time>
      </trkpt>
      <trkpt lat="46.8481" lon="5.36195">
        <ele>203</ele>
        <time>2022-03-21T08:28:22Z</time>
      </trkpt>
      <trkpt lat="46.84817" lon="5.36196">
        <ele>203</ele>
        <time>2022-03-21T08:28:23Z</time>
      </trkpt>
      <trkpt lat="46.84823" lon="5.36197">
        <ele>203</ele>
        <time>2022-03-21T08:28:24Z</time>
      </trkpt>
      <trkpt lat="46.8483" lon="5.36198">
        <ele>203.2</ele>
        <time>2022-03-21T08:28:25Z</time>
      </trkpt>
      <trkpt lat="46.84837" lon="5.36199">
        <ele>203.2</ele>
        <time>2022-03-21T08:28:26Z</time>
      </trkpt>
      <trkpt lat="46.84844" lon="5.362">
        <ele>203.2</ele>
        <time>2022-03-21T08:28:27Z</time>
      </trkpt>
      <trkpt lat="46.84851" lon="5.36201">
        <ele>203.2</ele>
        <time>2022-03-21T08:28:28Z</time>
      </trkpt>
      <trkpt lat="46.84859" lon="5.36202">
        <ele>203.2</ele>
        <time>2022-03-21T08:28:29Z</time>
      </trkpt>
      <trkpt lat="46.84866" lon="5.36202">
        <ele>203</ele>
        <time>2022-03-21T08:28:30Z</time>
      </trkpt>
      <trkpt lat="46.84873" lon="5.36203">
        <ele>203</ele>
        <time>2022-03-21T08:28:31Z</time>
      </trkpt>
      <trkpt lat="46.84881" lon="5.36204">
        <ele>203</ele>
        <time>2022-03-21T08:28:32Z</time>
      </trkpt>
      <trkpt lat="46.84888" lon="5.36204">
        <ele>203</ele>
        <time>2022-03-21T08:28:33Z</time>
      </trkpt>
      <trkpt lat="46.84895" lon="5.36203">
        <ele>203</ele>
        <time>2022-03-21T08:28:34Z</time>
      </trkpt>
      <trkpt lat="46.84902" lon="5.36201">
        <ele>203</ele>
        <time>2022-03-21T08:28:35Z</time>
      </trkpt>
      <trkpt lat="46.8491" lon="5.36199">
        <ele>203</ele>
        <time>2022-03-21T08:28:36Z</time>
      </trkpt>
      <trkpt lat="46.84917" lon="5.36196">
        <ele>203</ele>
        <time>2022-03-21T08:28:37Z</time>
      </trkpt>
      <trkpt lat="46.84924" lon="5.36193">
        <ele>203</ele>
        <time>2022-03-21T08:28:38Z</time>
      </trkpt>
      <trkpt lat="46.84931" lon="5.36189">
        <ele>203</ele>
        <time>2022-03-21T08:28:39Z</time>
      </trkpt>
      <trkpt lat="46.84938" lon="5.36186">
        <ele>203</ele>
        <time>2022-03-21T08:28:40Z</time>
      </trkpt>
      <trkpt lat="46.84946" lon="5.36182">
        <ele>203</ele>
        <time>2022-03-21T08:28:41Z</time>
      </trkpt>
      <trkpt lat="46.84953" lon="5.36179">
        <ele>202.8</ele>
        <time>2022-03-21T08:28:42Z</time>
      </trkpt>
      <trkpt lat="46.8496" lon="5.36176">
        <ele>202.8</ele>
        <time>2022-03-21T08:28:43Z</time>
      </trkpt>
      <trkpt lat="46.84968" lon="5.36172">
        <ele>202.8</ele>
        <time>2022-03-21T08:28:44Z</time>
      </trkpt>
      <trkpt lat="46.84975" lon="5.36169">
        <ele>202.8</ele>
        <time>2022-03-21T08:28:45Z</time>
      </trkpt>
      <trkpt lat="46.84982" lon="5.36166">
        <ele>202.8</ele>
        <time>2022-03-21T08:28:46Z</time>
      </trkpt>
      <trkpt lat="46.8499" lon="5.36162">
        <ele>202.8</ele>
        <time>2022-03-21T08:28:47Z</time>
      </trkpt>
      <trkpt lat="46.84997" lon="5.36159">
        <ele>202.8</ele>
        <time>2022-03-21T08:28:48Z</time>
      </trkpt>
      <trkpt lat="46.85005" lon="5.36156">
        <ele>202.8</ele>
        <time>2022-03-21T08:28:49Z</time>
      </trkpt>
      <trkpt lat="46.85013" lon="5.36154">
        <ele>202.8</ele>
        <time>2022-03-21T08:28:50Z</time>
      </trkpt>
      <trkpt lat="46.8502" lon="5.36152">
        <ele>202.8</ele>
        <time>2022-03-21T08:28:51Z</time>
      </trkpt>
      <trkpt lat="46.85028" lon="5.3615">
        <ele>202.8</ele>
        <time>2022-03-21T08:28:52Z</time>
      </trkpt>
      <trkpt lat="46.85035" lon="5.36149">
        <ele>202.8</ele>
        <time>2022-03-21T08:28:53Z</time>
      </trkpt>
      <trkpt lat="46.85042" lon="5.36148">
        <ele>202.4</ele>
        <time>2022-03-21T08:28:54Z</time>
      </trkpt>
      <trkpt lat="46.8505" lon="5.36147">
        <ele>202.4</ele>
        <time>2022-03-21T08:28:55Z</time>
      </trkpt>
      <trkpt lat="46.85057" lon="5.36147">
        <ele>202.4</ele>
        <time>2022-03-21T08:28:56Z</time>
      </trkpt>
      <trkpt lat="46.85065" lon="5.36147">
        <ele>202.4</ele>
        <time>2022-03-21T08:28:57Z</time>
      </trkpt>
      <trkpt lat="46.85072" lon="5.36147">
        <ele>202.4</ele>
        <time>2022-03-21T08:28:58Z</time>
      </trkpt>
      <trkpt lat="46.85079" lon="5.36147">
        <ele>202.4</ele>
        <time>2022-03-21T08:28:59Z</time>
      </trkpt>
      <trkpt lat="46.85087" lon="5.36147">
        <ele>202.4</ele>
        <time>2022-03-21T08:29:00Z</time>
      </trkpt>
      <trkpt lat="46.85094" lon="5.36147">
        <ele>202.4</ele>
        <time>2022-03-21T08:29:01Z</time>
      </trkpt>
      <trkpt lat="46.85101" lon="5.36148">
        <ele>202.4</ele>
        <time>2022-03-21T08:29:02Z</time>
      </trkpt>
      <trkpt lat="46.85108" lon="5.36149">
        <ele>202.4</ele>
        <time>2022-03-21T08:29:03Z</time>
      </trkpt>
      <trkpt lat="46.85115" lon="5.36151">
        <ele>202.4</ele>
        <time>2022-03-21T08:29:04Z</time>
      </trkpt>
      <trkpt lat="46.85122" lon="5.36152">
        <ele>202.4</ele>
        <time>2022-03-21T08:29:05Z</time>
      </trkpt>
      <trkpt lat="46.8513" lon="5.36154">
        <ele>202.4</ele>
        <time>2022-03-21T08:29:06Z</time>
      </trkpt>
      <trkpt lat="46.85137" lon="5.36157">
        <ele>202.4</ele>
        <time>2022-03-21T08:29:07Z</time>
      </trkpt>
      <trkpt lat="46.85144" lon="5.36159">
        <ele>202.4</ele>
        <time>2022-03-21T08:29:08Z</time>
      </trkpt>
      <trkpt lat="46.85151" lon="5.36161">
        <ele>202.4</ele>
        <time>2022-03-21T08:29:09Z</time>
      </trkpt>
      <trkpt lat="46.85158" lon="5.36164">
        <ele>202.4</ele>
        <time>2022-03-21T08:29:10Z</time>
      </trkpt>
      <trkpt lat="46.85166" lon="5.36166">
        <ele>202.4</ele>
        <time>2022-03-21T08:29:11Z</time>
      </trkpt>
      <trkpt lat="46.85173" lon="5.36169">
        <ele>202.4</ele>
        <time>2022-03-21T08:29:12Z</time>
      </trkpt>
      <trkpt lat="46.8518" lon="5.36172">
        <ele>202.4</ele>
        <time>2022-03-21T08:29:13Z</time>
      </trkpt>
      <trkpt lat="46.85187" lon="5.36174">
        <ele>202.4</ele>
        <time>2022-03-21T08:29:14Z</time>
      </trkpt>
      <trkpt lat="46.85195" lon="5.36176">
        <ele>202.4</ele>
        <time>2022-03-21T08:29:15Z</time>
      </trkpt>
      <trkpt lat="46.85202" lon="5.36178">
        <ele>202.2</ele>
        <time>2022-03-21T08:29:16Z</time>
      </trkpt>
      <trkpt lat="46.85209" lon="5.3618">
        <ele>202.2</ele>
        <time>2022-03-21T08:29:17Z</time>
      </trkpt>
      <trkpt lat="46.85216" lon="5.36182">
        <ele>202.2</ele>
        <time>2022-03-21T08:29:18Z</time>
      </trkpt>
      <trkpt lat="46.85224" lon="5.36185">
        <ele>202.2</ele>
        <time>2022-03-21T08:29:19Z</time>
      </trkpt>
      <trkpt lat="46.85231" lon="5.36187">
        <ele>202.2</ele>
        <time>2022-03-21T08:29:20Z</time>
      </trkpt>
      <trkpt lat="46.85238" lon="5.36189">
        <ele>202.2</ele>
        <time>2022-03-21T08:29:21Z</time>
      </trkpt>
      <trkpt lat="46.85245" lon="5.36192">
        <ele>202.2</ele>
        <time>2022-03-21T08:29:22Z</time>
      </trkpt>
      <trkpt lat="46.85252" lon="5.36195">
        <ele>202.2</ele>
        <time>2022-03-21T08:29:23Z</time>
      </trkpt>
      <trkpt lat="46.8526" lon="5.36197">
        <ele>202.2</ele>
        <time>2022-03-21T08:29:24Z</time>
      </trkpt>
      <trkpt lat="46.85267" lon="5.36199">
        <ele>202</ele>
        <time>2022-03-21T08:29:25Z</time>
      </trkpt>
      <trkpt lat="46.85274" lon="5.36202">
        <ele>202</ele>
        <time>2022-03-21T08:29:26Z</time>
      </trkpt>
      <trkpt lat="46.85281" lon="5.36204">
        <ele>202</ele>
        <time>2022-03-21T08:29:27Z</time>
      </trkpt>
      <trkpt lat="46.85289" lon="5.36206">
        <ele>202</ele>
        <time>2022-03-21T08:29:29Z</time>
      </trkpt>
      <trkpt lat="46.85296" lon="5.36208">
        <ele>202</ele>
        <time>2022-03-21T08:29:30Z</time>
      </trkpt>
      <trkpt lat="46.85303" lon="5.36211">
        <ele>202</ele>
        <time>2022-03-21T08:29:31Z</time>
      </trkpt>
      <trkpt lat="46.8531" lon="5.36213">
        <ele>202</ele>
        <time>2022-03-21T08:29:32Z</time>
      </trkpt>
      <trkpt lat="46.85317" lon="5.36215">
        <ele>202</ele>
        <time>2022-03-21T08:29:33Z</time>
      </trkpt>
      <trkpt lat="46.85325" lon="5.36217">
        <ele>202</ele>
        <time>2022-03-21T08:29:34Z</time>
      </trkpt>
      <trkpt lat="46.85332" lon="5.36219">
        <ele>202.2</ele>
        <time>2022-03-21T08:29:35Z</time>
      </trkpt>
      <trkpt lat="46.85339" lon="5.36222">
        <ele>202.2</ele>
        <time>2022-03-21T08:29:36Z</time>
      </trkpt>
      <trkpt lat="46.85347" lon="5.36225">
        <ele>202.2</ele>
        <time>2022-03-21T08:29:37Z</time>
      </trkpt>
      <trkpt lat="46.85354" lon="5.36228">
        <ele>202.2</ele>
        <time>2022-03-21T08:29:38Z</time>
      </trkpt>
      <trkpt lat="46.85361" lon="5.3623">
        <ele>202.2</ele>
        <time>2022-03-21T08:29:39Z</time>
      </trkpt>
      <trkpt lat="46.85368" lon="5.36234">
        <ele>202.2</ele>
        <time>2022-03-21T08:29:40Z</time>
      </trkpt>
      <trkpt lat="46.85376" lon="5.36237">
        <ele>202.2</ele>
        <time>2022-03-21T08:29:41Z</time>
      </trkpt>
      <trkpt lat="46.85383" lon="5.3624">
        <ele>202.2</ele>
        <time>2022-03-21T08:29:42Z</time>
      </trkpt>
      <trkpt lat="46.8539" lon="5.36243">
        <ele>202.2</ele>
        <time>2022-03-21T08:29:43Z</time>
      </trkpt>
      <trkpt lat="46.85397" lon="5.36246">
        <ele>202.2</ele>
        <time>2022-03-21T08:29:44Z</time>
      </trkpt>
      <trkpt lat="46.85404" lon="5.36249">
        <ele>202.2</ele>
        <time>2022-03-21T08:29:45Z</time>
      </trkpt>
      <trkpt lat="46.85411" lon="5.36252">
        <ele>202.2</ele>
        <time>2022-03-21T08:29:46Z</time>
      </trkpt>
      <trkpt lat="46.85418" lon="5.36256">
        <ele>202.2</ele>
        <time>2022-03-21T08:29:47Z</time>
      </trkpt>
      <trkpt lat="46.85425" lon="5.36259">
        <ele>202.2</ele>
        <time>2022-03-21T08:29:48Z</time>
      </trkpt>
      <trkpt lat="46.85432" lon="5.36262">
        <ele>202.2</ele>
        <time>2022-03-21T08:29:49Z</time>
      </trkpt>
      <trkpt lat="46.85439" lon="5.36266">
        <ele>202.2</ele>
        <time>2022-03-21T08:29:50Z</time>
      </trkpt>
      <trkpt lat="46.85447" lon="5.36269">
        <ele>202.2</ele>
        <time>2022-03-21T08:29:51Z</time>
      </trkpt>
      <trkpt lat="46.85454" lon="5.36272">
        <ele>202.4</ele>
        <time>2022-03-21T08:29:52Z</time>
      </trkpt>
      <trkpt lat="46.85461" lon="5.36275">
        <ele>202.4</ele>
        <time>2022-03-21T08:29:53Z</time>
      </trkpt>
      <trkpt lat="46.85468" lon="5.36278">
        <ele>202.4</ele>
        <time>2022-03-21T08:29:54Z</time>
      </trkpt>
      <trkpt lat="46.85475" lon="5.36282">
        <ele>202.6</ele>
        <time>2022-03-21T08:29:55Z</time>
      </trkpt>
      <trkpt lat="46.85482" lon="5.36285">
        <ele>202.6</ele>
        <time>2022-03-21T08:29:56Z</time>
      </trkpt>
      <trkpt lat="46.85489" lon="5.36289">
        <ele>202.6</ele>
        <time>2022-03-21T08:29:57Z</time>
      </trkpt>
      <trkpt lat="46.85496" lon="5.36292">
        <ele>202.6</ele>
        <time>2022-03-21T08:29:58Z</time>
      </trkpt>
      <trkpt lat="46.85503" lon="5.36295">
        <ele>202.6</ele>
        <time>2022-03-21T08:29:59Z</time>
      </trkpt>
      <trkpt lat="46.8551" lon="5.36299">
        <ele>202.6</ele>
        <time>2022-03-21T08:30:00Z</time>
      </trkpt>
      <trkpt lat="46.85517" lon="5.36303">
        <ele>202.8</ele>
        <time>2022-03-21T08:30:01Z</time>
      </trkpt>
      <trkpt lat="46.85524" lon="5.36306">
        <ele>202.8</ele>
        <time>2022-03-21T08:30:02Z</time>
      </trkpt>
      <trkpt lat="46.85531" lon="5.3631">
        <ele>202.8</ele>
        <time>2022-03-21T08:30:03Z</time>
      </trkpt>
      <trkpt lat="46.85538" lon="5.36314">
        <ele>203.2</ele>
        <time>2022-03-21T08:30:04Z</time>
      </trkpt>
      <trkpt lat="46.85544" lon="5.36318">
        <ele>203.2</ele>
        <time>2022-03-21T08:30:05Z</time>
      </trkpt>
      <trkpt lat="46.8555" lon="5.36322">
        <ele>203.2</ele>
        <time>2022-03-21T08:30:06Z</time>
      </trkpt>
      <trkpt lat="46.85557" lon="5.36326">
        <ele>203.4</ele>
        <time>2022-03-21T08:30:07Z</time>
      </trkpt>
      <trkpt lat="46.85563" lon="5.3633">
        <ele>203.4</ele>
        <time>2022-03-21T08:30:08Z</time>
      </trkpt>
      <trkpt lat="46.8557" lon="5.36335">
        <ele>203.4</ele>
        <time>2022-03-21T08:30:09Z</time>
      </trkpt>
      <trkpt lat="46.85576" lon="5.36339">
        <ele>203.4</ele>
        <time>2022-03-21T08:30:10Z</time>
      </trkpt>
      <trkpt lat="46.85582" lon="5.36344">
        <ele>203.4</ele>
        <time>2022-03-21T08:30:11Z</time>
      </trkpt>
      <trkpt lat="46.85589" lon="5.36348">
        <ele>203.4</ele>
        <time>2022-03-21T08:30:12Z</time>
      </trkpt>
      <trkpt lat="46.85596" lon="5.36352">
        <ele>203.4</ele>
        <time>2022-03-21T08:30:13Z</time>
      </trkpt>
      <trkpt lat="46.85602" lon="5.36357">
        <ele>203.4</ele>
        <time>2022-03-21T08:30:14Z</time>
      </trkpt>
      <trkpt lat="46.85609" lon="5.36361">
        <ele>203.4</ele>
        <time>2022-03-21T08:30:15Z</time>
      </trkpt>
      <trkpt lat="46.85616" lon="5.36366">
        <ele>203.4</ele>
        <time>2022-03-21T08:30:16Z</time>
      </trkpt>
      <trkpt lat="46.85623" lon="5.3637">
        <ele>203.8</ele>
        <time>2022-03-21T08:30:17Z</time>
      </trkpt>
      <trkpt lat="46.8563" lon="5.36374">
        <ele>203.8</ele>
        <time>2022-03-21T08:30:18Z</time>
      </trkpt>
      <trkpt lat="46.85638" lon="5.36378">
        <ele>204.2</ele>
        <time>2022-03-21T08:30:19Z</time>
      </trkpt>
      <trkpt lat="46.85645" lon="5.36382">
        <ele>204.2</ele>
        <time>2022-03-21T08:30:20Z</time>
      </trkpt>
      <trkpt lat="46.85652" lon="5.36386">
        <ele>204.4</ele>
        <time>2022-03-21T08:30:21Z</time>
      </trkpt>
      <trkpt lat="46.85659" lon="5.3639">
        <ele>204.4</ele>
        <time>2022-03-21T08:30:22Z</time>
      </trkpt>
      <trkpt lat="46.85666" lon="5.36393">
        <ele>204.8</ele>
        <time>2022-03-21T08:30:23Z</time>
      </trkpt>
      <trkpt lat="46.85673" lon="5.36396">
        <ele>204.8</ele>
        <time>2022-03-21T08:30:24Z</time>
      </trkpt>
      <trkpt lat="46.8568" lon="5.36399">
        <ele>204.8</ele>
        <time>2022-03-21T08:30:25Z</time>
      </trkpt>
      <trkpt lat="46.85694" lon="5.36405">
        <ele>205.2</ele>
        <time>2022-03-21T08:30:26Z</time>
      </trkpt>
      <trkpt lat="46.85702" lon="5.36408">
        <ele>205.2</ele>
        <time>2022-03-21T08:30:27Z</time>
      </trkpt>
      <trkpt lat="46.85709" lon="5.36411">
        <ele>205.4</ele>
        <time>2022-03-21T08:30:28Z</time>
      </trkpt>
      <trkpt lat="46.85716" lon="5.36414">
        <ele>205.4</ele>
        <time>2022-03-21T08:30:29Z</time>
      </trkpt>
      <trkpt lat="46.85723" lon="5.36416">
        <ele>205.8</ele>
        <time>2022-03-21T08:30:30Z</time>
      </trkpt>
      <trkpt lat="46.8573" lon="5.36418">
        <ele>206</ele>
        <time>2022-03-21T08:30:31Z</time>
      </trkpt>
      <trkpt lat="46.85736" lon="5.3642">
        <ele>206.4</ele>
        <time>2022-03-21T08:30:32Z</time>
      </trkpt>
      <trkpt lat="46.85743" lon="5.36422">
        <ele>206.6</ele>
        <time>2022-03-21T08:30:33Z</time>
      </trkpt>
      <trkpt lat="46.8575" lon="5.36424">
        <ele>206.6</ele>
        <time>2022-03-21T08:30:34Z</time>
      </trkpt>
      <trkpt lat="46.85757" lon="5.36426">
        <ele>206.8</ele>
        <time>2022-03-21T08:30:35Z</time>
      </trkpt>
      <trkpt lat="46.85764" lon="5.36427">
        <ele>207.2</ele>
        <time>2022-03-21T08:30:36Z</time>
      </trkpt>
      <trkpt lat="46.85771" lon="5.36429">
        <ele>207.2</ele>
        <time>2022-03-21T08:30:37Z</time>
      </trkpt>
      <trkpt lat="46.85778" lon="5.3643">
        <ele>207.2</ele>
        <time>2022-03-21T08:30:38Z</time>
      </trkpt>
      <trkpt lat="46.85785" lon="5.36432">
        <ele>207.2</ele>
        <time>2022-03-21T08:30:39Z</time>
      </trkpt>
      <trkpt lat="46.85792" lon="5.36433">
        <ele>207.2</ele>
        <time>2022-03-21T08:30:40Z</time>
      </trkpt>
      <trkpt lat="46.858" lon="5.36435">
        <ele>207.2</ele>
        <time>2022-03-21T08:30:41Z</time>
      </trkpt>
      <trkpt lat="46.85807" lon="5.36436">
        <ele>207.2</ele>
        <time>2022-03-21T08:30:42Z</time>
      </trkpt>
      <trkpt lat="46.85815" lon="5.36438">
        <ele>207.2</ele>
        <time>2022-03-21T08:30:43Z</time>
      </trkpt>
      <trkpt lat="46.85823" lon="5.36439">
        <ele>207.2</ele>
        <time>2022-03-21T08:30:44Z</time>
      </trkpt>
      <trkpt lat="46.85831" lon="5.36441">
        <ele>206.8</ele>
        <time>2022-03-21T08:30:45Z</time>
      </trkpt>
      <trkpt lat="46.85839" lon="5.36443">
        <ele>206.8</ele>
        <time>2022-03-21T08:30:46Z</time>
      </trkpt>
      <trkpt lat="46.85848" lon="5.36445">
        <ele>206.4</ele>
        <time>2022-03-21T08:30:47Z</time>
      </trkpt>
      <trkpt lat="46.85857" lon="5.36448">
        <ele>206.2</ele>
        <time>2022-03-21T08:30:48Z</time>
      </trkpt>
      <trkpt lat="46.85866" lon="5.3645">
        <ele>206</ele>
        <time>2022-03-21T08:30:49Z</time>
      </trkpt>
      <trkpt lat="46.85875" lon="5.36454">
        <ele>205.6</ele>
        <time>2022-03-21T08:30:50Z</time>
      </trkpt>
      <trkpt lat="46.85884" lon="5.36459">
        <ele>205.4</ele>
        <time>2022-03-21T08:30:51Z</time>
      </trkpt>
      <trkpt lat="46.85893" lon="5.36462">
        <ele>205</ele>
        <time>2022-03-21T08:30:52Z</time>
      </trkpt>
      <trkpt lat="46.85902" lon="5.36467">
        <ele>204.4</ele>
        <time>2022-03-21T08:30:53Z</time>
      </trkpt>
      <trkpt lat="46.85912" lon="5.36471">
        <ele>204.2</ele>
        <time>2022-03-21T08:30:54Z</time>
      </trkpt>
      <trkpt lat="46.85921" lon="5.36475">
        <ele>203.8</ele>
        <time>2022-03-21T08:30:55Z</time>
      </trkpt>
      <trkpt lat="46.85932" lon="5.36479">
        <ele>203.4</ele>
        <time>2022-03-21T08:30:56Z</time>
      </trkpt>
      <trkpt lat="46.85942" lon="5.36483">
        <ele>203</ele>
        <time>2022-03-21T08:30:57Z</time>
      </trkpt>
      <trkpt lat="46.85951" lon="5.36488">
        <ele>202.8</ele>
        <time>2022-03-21T08:30:58Z</time>
      </trkpt>
      <trkpt lat="46.85961" lon="5.36494">
        <ele>202.4</ele>
        <time>2022-03-21T08:30:59Z</time>
      </trkpt>
      <trkpt lat="46.85971" lon="5.36499">
        <ele>202</ele>
        <time>2022-03-21T08:31:00Z</time>
      </trkpt>
      <trkpt lat="46.8598" lon="5.36503">
        <ele>201.6</ele>
        <time>2022-03-21T08:31:01Z</time>
      </trkpt>
      <trkpt lat="46.8599" lon="5.36508">
        <ele>201.4</ele>
        <time>2022-03-21T08:31:02Z</time>
      </trkpt>
      <trkpt lat="46.85999" lon="5.36514">
        <ele>201.2</ele>
        <time>2022-03-21T08:31:03Z</time>
      </trkpt>
      <trkpt lat="46.86009" lon="5.3652">
        <ele>200.8</ele>
        <time>2022-03-21T08:31:04Z</time>
      </trkpt>
      <trkpt lat="46.86018" lon="5.36527">
        <ele>200.6</ele>
        <time>2022-03-21T08:31:05Z</time>
      </trkpt>
      <trkpt lat="46.86027" lon="5.36533">
        <ele>200.6</ele>
        <time>2022-03-21T08:31:06Z</time>
      </trkpt>
      <trkpt lat="46.86035" lon="5.3654">
        <ele>200.4</ele>
        <time>2022-03-21T08:31:07Z</time>
      </trkpt>
      <trkpt lat="46.86045" lon="5.36546">
        <ele>200.4</ele>
        <time>2022-03-21T08:31:08Z</time>
      </trkpt>
      <trkpt lat="46.86053" lon="5.36552">
        <ele>200.4</ele>
        <time>2022-03-21T08:31:09Z</time>
      </trkpt>
      <trkpt lat="46.86061" lon="5.36559">
        <ele>200.4</ele>
        <time>2022-03-21T08:31:10Z</time>
      </trkpt>
      <trkpt lat="46.86069" lon="5.36566">
        <ele>200.4</ele>
        <time>2022-03-21T08:31:11Z</time>
      </trkpt>
      <trkpt lat="46.86078" lon="5.36572">
        <ele>200.4</ele>
        <time>2022-03-21T08:31:12Z</time>
      </trkpt>
      <trkpt lat="46.86085" lon="5.36577">
        <ele>200.4</ele>
        <time>2022-03-21T08:31:13Z</time>
      </trkpt>
      <trkpt lat="46.86093" lon="5.36583">
        <ele>200.4</ele>
        <time>2022-03-21T08:31:14Z</time>
      </trkpt>
      <trkpt lat="46.861" lon="5.36589">
        <ele>200.4</ele>
        <time>2022-03-21T08:31:15Z</time>
      </trkpt>
      <trkpt lat="46.86108" lon="5.36595">
        <ele>200.4</ele>
        <time>2022-03-21T08:31:16Z</time>
      </trkpt>
      <trkpt lat="46.86116" lon="5.36601">
        <ele>200.4</ele>
        <time>2022-03-21T08:31:17Z</time>
      </trkpt>
      <trkpt lat="46.86123" lon="5.36607">
        <ele>200.4</ele>
        <time>2022-03-21T08:31:18Z</time>
      </trkpt>
      <trkpt lat="46.86131" lon="5.36613">
        <ele>200.4</ele>
        <time>2022-03-21T08:31:19Z</time>
      </trkpt>
      <trkpt lat="46.86138" lon="5.36619">
        <ele>200.4</ele>
        <time>2022-03-21T08:31:20Z</time>
      </trkpt>
      <trkpt lat="46.86146" lon="5.36626">
        <ele>200.4</ele>
        <time>2022-03-21T08:31:21Z</time>
      </trkpt>
      <trkpt lat="46.86153" lon="5.36633">
        <ele>200.2</ele>
        <time>2022-03-21T08:31:22Z</time>
      </trkpt>
      <trkpt lat="46.8616" lon="5.36641">
        <ele>200.2</ele>
        <time>2022-03-21T08:31:23Z</time>
      </trkpt>
      <trkpt lat="46.86168" lon="5.3665">
        <ele>200.2</ele>
        <time>2022-03-21T08:31:24Z</time>
      </trkpt>
      <trkpt lat="46.86175" lon="5.36659">
        <ele>199.8</ele>
        <time>2022-03-21T08:31:25Z</time>
      </trkpt>
      <trkpt lat="46.86182" lon="5.36668">
        <ele>199.6</ele>
        <time>2022-03-21T08:31:26Z</time>
      </trkpt>
      <trkpt lat="46.86189" lon="5.36678">
        <ele>199.2</ele>
        <time>2022-03-21T08:31:27Z</time>
      </trkpt>
      <trkpt lat="46.86196" lon="5.36689">
        <ele>198.8</ele>
        <time>2022-03-21T08:31:28Z</time>
      </trkpt>
      <trkpt lat="46.86202" lon="5.367">
        <ele>198.4</ele>
        <time>2022-03-21T08:31:29Z</time>
      </trkpt>
      <trkpt lat="46.86209" lon="5.36712">
        <ele>198</ele>
        <time>2022-03-21T08:31:30Z</time>
      </trkpt>
      <trkpt lat="46.86215" lon="5.36723">
        <ele>197.6</ele>
        <time>2022-03-21T08:31:31Z</time>
      </trkpt>
      <trkpt lat="46.86222" lon="5.36734">
        <ele>197.2</ele>
        <time>2022-03-21T08:31:32Z</time>
      </trkpt>
      <trkpt lat="46.86228" lon="5.36745">
        <ele>196.8</ele>
        <time>2022-03-21T08:31:33Z</time>
      </trkpt>
      <trkpt lat="46.86234" lon="5.36756">
        <ele>196.6</ele>
        <time>2022-03-21T08:31:34Z</time>
      </trkpt>
      <trkpt lat="46.8624" lon="5.36767">
        <ele>196.4</ele>
        <time>2022-03-21T08:31:35Z</time>
      </trkpt>
      <trkpt lat="46.86246" lon="5.36778">
        <ele>196.2</ele>
        <time>2022-03-21T08:31:36Z</time>
      </trkpt>
      <trkpt lat="46.86252" lon="5.36789">
        <ele>196.2</ele>
        <time>2022-03-21T08:31:37Z</time>
      </trkpt>
      <trkpt lat="46.86258" lon="5.368">
        <ele>195.8</ele>
        <time>2022-03-21T08:31:38Z</time>
      </trkpt>
      <trkpt lat="46.86263" lon="5.36809">
        <ele>195.8</ele>
        <time>2022-03-21T08:31:39Z</time>
      </trkpt>
      <trkpt lat="46.86268" lon="5.3682">
        <ele>195.8</ele>
        <time>2022-03-21T08:31:40Z</time>
      </trkpt>
      <trkpt lat="46.86273" lon="5.36829">
        <ele>195.8</ele>
        <time>2022-03-21T08:31:41Z</time>
      </trkpt>
      <trkpt lat="46.86279" lon="5.36838">
        <ele>196.2</ele>
        <time>2022-03-21T08:31:42Z</time>
      </trkpt>
      <trkpt lat="46.86284" lon="5.36847">
        <ele>196.2</ele>
        <time>2022-03-21T08:31:43Z</time>
      </trkpt>
      <trkpt lat="46.86288" lon="5.36855">
        <ele>196.2</ele>
        <time>2022-03-21T08:31:44Z</time>
      </trkpt>
      <trkpt lat="46.86292" lon="5.36863">
        <ele>196.6</ele>
        <time>2022-03-21T08:31:45Z</time>
      </trkpt>
      <trkpt lat="46.86297" lon="5.36871">
        <ele>196.8</ele>
        <time>2022-03-21T08:31:46Z</time>
      </trkpt>
      <trkpt lat="46.86301" lon="5.36878">
        <ele>197</ele>
        <time>2022-03-21T08:31:47Z</time>
      </trkpt>
      <trkpt lat="46.86305" lon="5.36885">
        <ele>197.2</ele>
        <time>2022-03-21T08:31:48Z</time>
      </trkpt>
      <trkpt lat="46.86309" lon="5.36892">
        <ele>197.4</ele>
        <time>2022-03-21T08:31:49Z</time>
      </trkpt>
      <trkpt lat="46.86313" lon="5.36899">
        <ele>197.6</ele>
        <time>2022-03-21T08:31:50Z</time>
      </trkpt>
      <trkpt lat="46.86317" lon="5.36906">
        <ele>198</ele>
        <time>2022-03-21T08:31:51Z</time>
      </trkpt>
      <trkpt lat="46.8632" lon="5.36913">
        <ele>198.4</ele>
        <time>2022-03-21T08:31:52Z</time>
      </trkpt>
      <trkpt lat="46.86324" lon="5.3692">
        <ele>198.6</ele>
        <time>2022-03-21T08:31:53Z</time>
      </trkpt>
      <trkpt lat="46.86327" lon="5.36927">
        <ele>199</ele>
        <time>2022-03-21T08:31:54Z</time>
      </trkpt>
      <trkpt lat="46.8633" lon="5.36934">
        <ele>199.2</ele>
        <time>2022-03-21T08:31:55Z</time>
      </trkpt>
      <trkpt lat="46.86334" lon="5.3694">
        <ele>199.6</ele>
        <time>2022-03-21T08:31:56Z</time>
      </trkpt>
      <trkpt lat="46.86337" lon="5.36947">
        <ele>199.8</ele>
        <time>2022-03-21T08:31:57Z</time>
      </trkpt>
      <trkpt lat="46.8634" lon="5.36953">
        <ele>200.2</ele>
        <time>2022-03-21T08:31:58Z</time>
      </trkpt>
      <trkpt lat="46.86344" lon="5.36959">
        <ele>200.6</ele>
        <time>2022-03-21T08:31:59Z</time>
      </trkpt>
      <trkpt lat="46.86347" lon="5.36966">
        <ele>200.8</ele>
        <time>2022-03-21T08:32:00Z</time>
      </trkpt>
      <trkpt lat="46.8635" lon="5.36972">
        <ele>201.2</ele>
        <time>2022-03-21T08:32:01Z</time>
      </trkpt>
      <trkpt lat="46.86354" lon="5.36978">
        <ele>201.4</ele>
        <time>2022-03-21T08:32:02Z</time>
      </trkpt>
      <trkpt lat="46.86357" lon="5.36985">
        <ele>201.8</ele>
        <time>2022-03-21T08:32:03Z</time>
      </trkpt>
      <trkpt lat="46.8636" lon="5.36991">
        <ele>202</ele>
        <time>2022-03-21T08:32:04Z</time>
      </trkpt>
      <trkpt lat="46.86364" lon="5.36996">
        <ele>202.4</ele>
        <time>2022-03-21T08:32:05Z</time>
      </trkpt>
      <trkpt lat="46.86367" lon="5.37002">
        <ele>202.6</ele>
        <time>2022-03-21T08:32:06Z</time>
      </trkpt>
      <trkpt lat="46.8637" lon="5.37008">
        <ele>202.8</ele>
        <time>2022-03-21T08:32:07Z</time>
      </trkpt>
      <trkpt lat="46.86374" lon="5.37014">
        <ele>203.2</ele>
        <time>2022-03-21T08:32:08Z</time>
      </trkpt>
      <trkpt lat="46.86377" lon="5.37021">
        <ele>203.4</ele>
        <time>2022-03-21T08:32:09Z</time>
      </trkpt>
      <trkpt lat="46.8638" lon="5.37027">
        <ele>203.8</ele>
        <time>2022-03-21T08:32:10Z</time>
      </trkpt>
      <trkpt lat="46.86383" lon="5.37034">
        <ele>204.2</ele>
        <time>2022-03-21T08:32:11Z</time>
      </trkpt>
      <trkpt lat="46.86387" lon="5.3704">
        <ele>204.4</ele>
        <time>2022-03-21T08:32:12Z</time>
      </trkpt>
      <trkpt lat="46.8639" lon="5.37046">
        <ele>204.8</ele>
        <time>2022-03-21T08:32:13Z</time>
      </trkpt>
      <trkpt lat="46.86393" lon="5.37052">
        <ele>205.2</ele>
        <time>2022-03-21T08:32:14Z</time>
      </trkpt>
      <trkpt lat="46.86397" lon="5.37057">
        <ele>205.4</ele>
        <time>2022-03-21T08:32:15Z</time>
      </trkpt>
      <trkpt lat="46.86401" lon="5.37063">
        <ele>205.6</ele>
        <time>2022-03-21T08:32:16Z</time>
      </trkpt>
      <trkpt lat="46.86405" lon="5.37068">
        <ele>206</ele>
        <time>2022-03-21T08:32:17Z</time>
      </trkpt>
      <trkpt lat="46.86408" lon="5.37074">
        <ele>206.2</ele>
        <time>2022-03-21T08:32:18Z</time>
      </trkpt>
      <trkpt lat="46.86412" lon="5.3708">
        <ele>206.6</ele>
        <time>2022-03-21T08:32:19Z</time>
      </trkpt>
      <trkpt lat="46.86415" lon="5.37087">
        <ele>206.8</ele>
        <time>2022-03-21T08:32:20Z</time>
      </trkpt>
      <trkpt lat="46.86419" lon="5.37093">
        <ele>207.2</ele>
        <time>2022-03-21T08:32:21Z</time>
      </trkpt>
      <trkpt lat="46.86422" lon="5.371">
        <ele>207.6</ele>
        <time>2022-03-21T08:32:22Z</time>
      </trkpt>
      <trkpt lat="46.86426" lon="5.37106">
        <ele>207.8</ele>
        <time>2022-03-21T08:32:23Z</time>
      </trkpt>
      <trkpt lat="46.86429" lon="5.37113">
        <ele>208</ele>
        <time>2022-03-21T08:32:24Z</time>
      </trkpt>
      <trkpt lat="46.86433" lon="5.37119">
        <ele>208</ele>
        <time>2022-03-21T08:32:25Z</time>
      </trkpt>
      <trkpt lat="46.86436" lon="5.37126">
        <ele>208.4</ele>
        <time>2022-03-21T08:32:26Z</time>
      </trkpt>
      <trkpt lat="46.8644" lon="5.37132">
        <ele>208.4</ele>
        <time>2022-03-21T08:32:27Z</time>
      </trkpt>
      <trkpt lat="46.86444" lon="5.37139">
        <ele>208.6</ele>
        <time>2022-03-21T08:32:28Z</time>
      </trkpt>
      <trkpt lat="46.86447" lon="5.37146">
        <ele>208.6</ele>
        <time>2022-03-21T08:32:29Z</time>
      </trkpt>
      <trkpt lat="46.86451" lon="5.37153">
        <ele>208.6</ele>
        <time>2022-03-21T08:32:30Z</time>
      </trkpt>
      <trkpt lat="46.86455" lon="5.3716">
        <ele>208.8</ele>
        <time>2022-03-21T08:32:31Z</time>
      </trkpt>
      <trkpt lat="46.86459" lon="5.37167">
        <ele>208.8</ele>
        <time>2022-03-21T08:32:32Z</time>
      </trkpt>
      <trkpt lat="46.86463" lon="5.37174">
        <ele>208.8</ele>
        <time>2022-03-21T08:32:33Z</time>
      </trkpt>
      <trkpt lat="46.86467" lon="5.37181">
        <ele>208.8</ele>
        <time>2022-03-21T08:32:34Z</time>
      </trkpt>
      <trkpt lat="46.86471" lon="5.37188">
        <ele>208.8</ele>
        <time>2022-03-21T08:32:35Z</time>
      </trkpt>
      <trkpt lat="46.86476" lon="5.37196">
        <ele>208.8</ele>
        <time>2022-03-21T08:32:36Z</time>
      </trkpt>
      <trkpt lat="46.8648" lon="5.37203">
        <ele>208.8</ele>
        <time>2022-03-21T08:32:37Z</time>
      </trkpt>
      <trkpt lat="46.86484" lon="5.37211">
        <ele>209</ele>
        <time>2022-03-21T08:32:38Z</time>
      </trkpt>
      <trkpt lat="46.86488" lon="5.37219">
        <ele>209</ele>
        <time>2022-03-21T08:32:39Z</time>
      </trkpt>
      <trkpt lat="46.86493" lon="5.37226">
        <ele>209</ele>
        <time>2022-03-21T08:32:40Z</time>
      </trkpt>
      <trkpt lat="46.86497" lon="5.37234">
        <ele>209</ele>
        <time>2022-03-21T08:32:41Z</time>
      </trkpt>
      <trkpt lat="46.86501" lon="5.37242">
        <ele>209</ele>
        <time>2022-03-21T08:32:42Z</time>
      </trkpt>
      <trkpt lat="46.86506" lon="5.3725">
        <ele>209</ele>
        <time>2022-03-21T08:32:43Z</time>
      </trkpt>
      <trkpt lat="46.8651" lon="5.37258">
        <ele>208.8</ele>
        <time>2022-03-21T08:32:44Z</time>
      </trkpt>
      <trkpt lat="46.86514" lon="5.37266">
        <ele>208.8</ele>
        <time>2022-03-21T08:32:45Z</time>
      </trkpt>
      <trkpt lat="46.86519" lon="5.37274">
        <ele>208.8</ele>
        <time>2022-03-21T08:32:46Z</time>
      </trkpt>
      <trkpt lat="46.86523" lon="5.37282">
        <ele>208.8</ele>
        <time>2022-03-21T08:32:47Z</time>
      </trkpt>
      <trkpt lat="46.86528" lon="5.3729">
        <ele>208.8</ele>
        <time>2022-03-21T08:32:48Z</time>
      </trkpt>
      <trkpt lat="46.86532" lon="5.37298">
        <ele>208.8</ele>
        <time>2022-03-21T08:32:49Z</time>
      </trkpt>
      <trkpt lat="46.86537" lon="5.37307">
        <ele>208.8</ele>
        <time>2022-03-21T08:32:50Z</time>
      </trkpt>
      <trkpt lat="46.86541" lon="5.37315">
        <ele>208.8</ele>
        <time>2022-03-21T08:32:51Z</time>
      </trkpt>
      <trkpt lat="46.86546" lon="5.37323">
        <ele>208.8</ele>
        <time>2022-03-21T08:32:52Z</time>
      </trkpt>
      <trkpt lat="46.8655" lon="5.3733">
        <ele>208.8</ele>
        <time>2022-03-21T08:32:53Z</time>
      </trkpt>
      <trkpt lat="46.86555" lon="5.37338">
        <ele>208.8</ele>
        <time>2022-03-21T08:32:54Z</time>
      </trkpt>
      <trkpt lat="46.8656" lon="5.37346">
        <ele>208.8</ele>
        <time>2022-03-21T08:32:55Z</time>
      </trkpt>
      <trkpt lat="46.86565" lon="5.37353">
        <ele>208.8</ele>
        <time>2022-03-21T08:32:56Z</time>
      </trkpt>
      <trkpt lat="46.86571" lon="5.37359">
        <ele>208.8</ele>
        <time>2022-03-21T08:32:57Z</time>
      </trkpt>
      <trkpt lat="46.86577" lon="5.37365">
        <ele>209</ele>
        <time>2022-03-21T08:32:58Z</time>
      </trkpt>
      <trkpt lat="46.86584" lon="5.3737">
        <ele>209</ele>
        <time>2022-03-21T08:32:59Z</time>
      </trkpt>
      <trkpt lat="46.8659" lon="5.37375">
        <ele>209</ele>
        <time>2022-03-21T08:33:00Z</time>
      </trkpt>
      <trkpt lat="46.86598" lon="5.37378">
        <ele>209</ele>
        <time>2022-03-21T08:33:01Z</time>
      </trkpt>
      <trkpt lat="46.86605" lon="5.37382">
        <ele>209</ele>
        <time>2022-03-21T08:33:02Z</time>
      </trkpt>
      <trkpt lat="46.86612" lon="5.37384">
        <ele>209</ele>
        <time>2022-03-21T08:33:03Z</time>
      </trkpt>
      <trkpt lat="46.86619" lon="5.37386">
        <ele>209</ele>
        <time>2022-03-21T08:33:04Z</time>
      </trkpt>
      <trkpt lat="46.86627" lon="5.37387">
        <ele>209</ele>
        <time>2022-03-21T08:33:05Z</time>
      </trkpt>
      <trkpt lat="46.86634" lon="5.37388">
        <ele>209</ele>
        <time>2022-03-21T08:33:07Z</time>
      </trkpt>
      <trkpt lat="46.86641" lon="5.3739">
        <ele>209</ele>
        <time>2022-03-21T08:33:08Z</time>
      </trkpt>
      <trkpt lat="46.86649" lon="5.37391">
        <ele>209</ele>
        <time>2022-03-21T08:33:09Z</time>
      </trkpt>
      <trkpt lat="46.86656" lon="5.37392">
        <ele>209</ele>
        <time>2022-03-21T08:33:10Z</time>
      </trkpt>
      <trkpt lat="46.86663" lon="5.37393">
        <ele>209</ele>
        <time>2022-03-21T08:33:11Z</time>
      </trkpt>
      <trkpt lat="46.86671" lon="5.37394">
        <ele>209</ele>
        <time>2022-03-21T08:33:12Z</time>
      </trkpt>
      <trkpt lat="46.86678" lon="5.37395">
        <ele>209</ele>
        <time>2022-03-21T08:33:13Z</time>
      </trkpt>
      <trkpt lat="46.86686" lon="5.37397">
        <ele>209</ele>
        <time>2022-03-21T08:33:14Z</time>
      </trkpt>
      <trkpt lat="46.86693" lon="5.37398">
        <ele>209</ele>
        <time>2022-03-21T08:33:15Z</time>
      </trkpt>
      <trkpt lat="46.86701" lon="5.37399">
        <ele>209</ele>
        <time>2022-03-21T08:33:16Z</time>
      </trkpt>
      <trkpt lat="46.86708" lon="5.37401">
        <ele>209</ele>
        <time>2022-03-21T08:33:17Z</time>
      </trkpt>
      <trkpt lat="46.86716" lon="5.37402">
        <ele>209</ele>
        <time>2022-03-21T08:33:18Z</time>
      </trkpt>
      <trkpt lat="46.86724" lon="5.37403">
        <ele>208.8</ele>
        <time>2022-03-21T08:33:19Z</time>
      </trkpt>
      <trkpt lat="46.86732" lon="5.37404">
        <ele>208.8</ele>
        <time>2022-03-21T08:33:20Z</time>
      </trkpt>
      <trkpt lat="46.86739" lon="5.37406">
        <ele>208.8</ele>
        <time>2022-03-21T08:33:21Z</time>
      </trkpt>
      <trkpt lat="46.86747" lon="5.37407">
        <ele>208.6</ele>
        <time>2022-03-21T08:33:22Z</time>
      </trkpt>
      <trkpt lat="46.86755" lon="5.37409">
        <ele>208.6</ele>
        <time>2022-03-21T08:33:23Z</time>
      </trkpt>
      <trkpt lat="46.86763" lon="5.3741">
        <ele>208.6</ele>
        <time>2022-03-21T08:33:24Z</time>
      </trkpt>
      <trkpt lat="46.86771" lon="5.37412">
        <ele>208.6</ele>
        <time>2022-03-21T08:33:25Z</time>
      </trkpt>
      <trkpt lat="46.86779" lon="5.37413">
        <ele>208.6</ele>
        <time>2022-03-21T08:33:26Z</time>
      </trkpt>
      <trkpt lat="46.86787" lon="5.37414">
        <ele>208.6</ele>
        <time>2022-03-21T08:33:27Z</time>
      </trkpt>
      <trkpt lat="46.86795" lon="5.37414">
        <ele>208.6</ele>
        <time>2022-03-21T08:33:28Z</time>
      </trkpt>
      <trkpt lat="46.86803" lon="5.37414">
        <ele>208.6</ele>
        <time>2022-03-21T08:33:29Z</time>
      </trkpt>
      <trkpt lat="46.86811" lon="5.37414">
        <ele>208.6</ele>
        <time>2022-03-21T08:33:30Z</time>
      </trkpt>
      <trkpt lat="46.86819" lon="5.37413">
        <ele>208.6</ele>
        <time>2022-03-21T08:33:31Z</time>
      </trkpt>
      <trkpt lat="46.86827" lon="5.37411">
        <ele>208.6</ele>
        <time>2022-03-21T08:33:32Z</time>
      </trkpt>
      <trkpt lat="46.86834" lon="5.37409">
        <ele>208.4</ele>
        <time>2022-03-21T08:33:33Z</time>
      </trkpt>
      <trkpt lat="46.86842" lon="5.37408">
        <ele>208.4</ele>
        <time>2022-03-21T08:33:34Z</time>
      </trkpt>
      <trkpt lat="46.8685" lon="5.37406">
        <ele>208.4</ele>
        <time>2022-03-21T08:33:35Z</time>
      </trkpt>
      <trkpt lat="46.86858" lon="5.37404">
        <ele>208.4</ele>
        <time>2022-03-21T08:33:36Z</time>
      </trkpt>
      <trkpt lat="46.86869" lon="5.37402">
        <ele>208.4</ele>
        <time>2022-03-21T08:33:37Z</time>
      </trkpt>
      <trkpt lat="46.86873" lon="5.37401">
        <ele>208.4</ele>
        <time>2022-03-21T08:33:38Z</time>
      </trkpt>
      <trkpt lat="46.86881" lon="5.374">
        <ele>208.4</ele>
        <time>2022-03-21T08:33:39Z</time>
      </trkpt>
      <trkpt lat="46.86888" lon="5.37398">
        <ele>208.4</ele>
        <time>2022-03-21T08:33:40Z</time>
      </trkpt>
      <trkpt lat="46.86896" lon="5.37396">
        <ele>208.4</ele>
        <time>2022-03-21T08:33:41Z</time>
      </trkpt>
      <trkpt lat="46.86903" lon="5.37394">
        <ele>208.4</ele>
        <time>2022-03-21T08:33:42Z</time>
      </trkpt>
      <trkpt lat="46.86911" lon="5.37392">
        <ele>208.4</ele>
        <time>2022-03-21T08:33:43Z</time>
      </trkpt>
      <trkpt lat="46.86918" lon="5.3739">
        <ele>208.4</ele>
        <time>2022-03-21T08:33:44Z</time>
      </trkpt>
      <trkpt lat="46.86926" lon="5.37389">
        <ele>208.4</ele>
        <time>2022-03-21T08:33:45Z</time>
      </trkpt>
      <trkpt lat="46.86933" lon="5.37387">
        <ele>208.6</ele>
        <time>2022-03-21T08:33:46Z</time>
      </trkpt>
      <trkpt lat="46.86941" lon="5.37385">
        <ele>208.6</ele>
        <time>2022-03-21T08:33:47Z</time>
      </trkpt>
      <trkpt lat="46.86948" lon="5.37383">
        <ele>208.6</ele>
        <time>2022-03-21T08:33:48Z</time>
      </trkpt>
      <trkpt lat="46.86955" lon="5.37382">
        <ele>208.6</ele>
        <time>2022-03-21T08:33:49Z</time>
      </trkpt>
      <trkpt lat="46.86963" lon="5.3738">
        <ele>208.6</ele>
        <time>2022-03-21T08:33:50Z</time>
      </trkpt>
      <trkpt lat="46.8697" lon="5.37378">
        <ele>208.8</ele>
        <time>2022-03-21T08:33:51Z</time>
      </trkpt>
      <trkpt lat="46.86978" lon="5.37377">
        <ele>208.8</ele>
        <time>2022-03-21T08:33:52Z</time>
      </trkpt>
      <trkpt lat="46.86985" lon="5.37375">
        <ele>208.8</ele>
        <time>2022-03-21T08:33:53Z</time>
      </trkpt>
      <trkpt lat="46.86993" lon="5.37374">
        <ele>208.8</ele>
        <time>2022-03-21T08:33:54Z</time>
      </trkpt>
      <trkpt lat="46.87" lon="5.37373">
        <ele>208.8</ele>
        <time>2022-03-21T08:33:55Z</time>
      </trkpt>
      <trkpt lat="46.87008" lon="5.37372">
        <ele>208.8</ele>
        <time>2022-03-21T08:33:56Z</time>
      </trkpt>
      <trkpt lat="46.87016" lon="5.37372">
        <ele>208.8</ele>
        <time>2022-03-21T08:33:57Z</time>
      </trkpt>
      <trkpt lat="46.87023" lon="5.37372">
        <ele>208.8</ele>
        <time>2022-03-21T08:33:58Z</time>
      </trkpt>
      <trkpt lat="46.87031" lon="5.37374">
        <ele>208.8</ele>
        <time>2022-03-21T08:33:59Z</time>
      </trkpt>
      <trkpt lat="46.87038" lon="5.37377">
        <ele>208.8</ele>
        <time>2022-03-21T08:34:00Z</time>
      </trkpt>
      <trkpt lat="46.87045" lon="5.3738">
        <ele>208.8</ele>
        <time>2022-03-21T08:34:01Z</time>
      </trkpt>
      <trkpt lat="46.87052" lon="5.37385">
        <ele>208.8</ele>
        <time>2022-03-21T08:34:02Z</time>
      </trkpt>
      <trkpt lat="46.87059" lon="5.3739">
        <ele>208.8</ele>
        <time>2022-03-21T08:34:03Z</time>
      </trkpt>
      <trkpt lat="46.87066" lon="5.37396">
        <ele>208.8</ele>
        <time>2022-03-21T08:34:04Z</time>
      </trkpt>
      <trkpt lat="46.87073" lon="5.37403">
        <ele>208.6</ele>
        <time>2022-03-21T08:34:05Z</time>
      </trkpt>
      <trkpt lat="46.8708" lon="5.37409">
        <ele>208.6</ele>
        <time>2022-03-21T08:34:06Z</time>
      </trkpt>
      <trkpt lat="46.87088" lon="5.37415">
        <ele>208.4</ele>
        <time>2022-03-21T08:34:07Z</time>
      </trkpt>
      <trkpt lat="46.87096" lon="5.37418">
        <ele>208.4</ele>
        <time>2022-03-21T08:34:08Z</time>
      </trkpt>
      <trkpt lat="46.87104" lon="5.3742">
        <ele>207.8</ele>
        <time>2022-03-21T08:34:09Z</time>
      </trkpt>
      <trkpt lat="46.87113" lon="5.3742">
        <ele>207.6</ele>
        <time>2022-03-21T08:34:10Z</time>
      </trkpt>
      <trkpt lat="46.87122" lon="5.37417">
        <ele>207.2</ele>
        <time>2022-03-21T08:34:11Z</time>
      </trkpt>
      <trkpt lat="46.8713" lon="5.37412">
        <ele>206.6</ele>
        <time>2022-03-21T08:34:13Z</time>
      </trkpt>
      <trkpt lat="46.87138" lon="5.37405">
        <ele>206.4</ele>
        <time>2022-03-21T08:34:14Z</time>
      </trkpt>
      <trkpt lat="46.87145" lon="5.37397">
        <ele>206</ele>
        <time>2022-03-21T08:34:15Z</time>
      </trkpt>
      <trkpt lat="46.87153" lon="5.37389">
        <ele>205.8</ele>
        <time>2022-03-21T08:34:16Z</time>
      </trkpt>
      <trkpt lat="46.8716" lon="5.37382">
        <ele>205.6</ele>
        <time>2022-03-21T08:34:17Z</time>
      </trkpt>
      <trkpt lat="46.87168" lon="5.37374">
        <ele>205.4</ele>
        <time>2022-03-21T08:34:18Z</time>
      </trkpt>
      <trkpt lat="46.87176" lon="5.37367">
        <ele>205.4</ele>
        <time>2022-03-21T08:34:19Z</time>
      </trkpt>
      <trkpt lat="46.87184" lon="5.3736">
        <ele>205.2</ele>
        <time>2022-03-21T08:34:20Z</time>
      </trkpt>
      <trkpt lat="46.87191" lon="5.37352">
        <ele>205.2</ele>
        <time>2022-03-21T08:34:21Z</time>
      </trkpt>
      <trkpt lat="46.87205" lon="5.37338">
        <ele>205.2</ele>
        <time>2022-03-21T08:34:22Z</time>
      </trkpt>
      <trkpt lat="46.87219" lon="5.37325">
        <ele>205.2</ele>
        <time>2022-03-21T08:34:23Z</time>
      </trkpt>
      <trkpt lat="46.87226" lon="5.37318">
        <ele>205.4</ele>
        <time>2022-03-21T08:34:24Z</time>
      </trkpt>
      <trkpt lat="46.87232" lon="5.37312">
        <ele>205.4</ele>
        <time>2022-03-21T08:34:25Z</time>
      </trkpt>
      <trkpt lat="46.87239" lon="5.37306">
        <ele>205.8</ele>
        <time>2022-03-21T08:34:26Z</time>
      </trkpt>
      <trkpt lat="46.87245" lon="5.373">
        <ele>206</ele>
        <time>2022-03-21T08:34:27Z</time>
      </trkpt>
      <trkpt lat="46.8725" lon="5.37295">
        <ele>206.2</ele>
        <time>2022-03-21T08:34:28Z</time>
      </trkpt>
      <trkpt lat="46.87256" lon="5.37289">
        <ele>206.6</ele>
        <time>2022-03-21T08:34:29Z</time>
      </trkpt>
      <trkpt lat="46.87262" lon="5.37284">
        <ele>206.8</ele>
        <time>2022-03-21T08:34:30Z</time>
      </trkpt>
      <trkpt lat="46.87268" lon="5.37279">
        <ele>207</ele>
        <time>2022-03-21T08:34:31Z</time>
      </trkpt>
      <trkpt lat="46.87274" lon="5.37274">
        <ele>207</ele>
        <time>2022-03-21T08:34:32Z</time>
      </trkpt>
      <trkpt lat="46.8728" lon="5.3727">
        <ele>207.4</ele>
        <time>2022-03-21T08:34:33Z</time>
      </trkpt>
      <trkpt lat="46.87286" lon="5.37266">
        <ele>207.4</ele>
        <time>2022-03-21T08:34:34Z</time>
      </trkpt>
      <trkpt lat="46.87292" lon="5.37261">
        <ele>207.4</ele>
        <time>2022-03-21T08:34:35Z</time>
      </trkpt>
      <trkpt lat="46.87299" lon="5.37257">
        <ele>207.4</ele>
        <time>2022-03-21T08:34:36Z</time>
      </trkpt>
      <trkpt lat="46.87306" lon="5.37253">
        <ele>207.4</ele>
        <time>2022-03-21T08:34:37Z</time>
      </trkpt>
      <trkpt lat="46.87314" lon="5.3725">
        <ele>207.4</ele>
        <time>2022-03-21T08:34:38Z</time>
      </trkpt>
      <trkpt lat="46.87321" lon="5.37246">
        <ele>207.4</ele>
        <time>2022-03-21T08:34:39Z</time>
      </trkpt>
      <trkpt lat="46.8733" lon="5.37243">
        <ele>207.2</ele>
        <time>2022-03-21T08:34:41Z</time>
      </trkpt>
      <trkpt lat="46.87338" lon="5.37241">
        <ele>207.2</ele>
        <time>2022-03-21T08:34:42Z</time>
      </trkpt>
      <trkpt lat="46.87346" lon="5.37241">
        <ele>206.6</ele>
        <time>2022-03-21T08:34:43Z</time>
      </trkpt>
      <trkpt lat="46.87355" lon="5.37241">
        <ele>206.4</ele>
        <time>2022-03-21T08:34:44Z</time>
      </trkpt>
      <trkpt lat="46.87365" lon="5.37242">
        <ele>206</ele>
        <time>2022-03-21T08:34:45Z</time>
      </trkpt>
      <trkpt lat="46.87375" lon="5.37244">
        <ele>205.6</ele>
        <time>2022-03-21T08:34:46Z</time>
      </trkpt>
      <trkpt lat="46.87384" lon="5.37245">
        <ele>205</ele>
        <time>2022-03-21T08:34:47Z</time>
      </trkpt>
      <trkpt lat="46.87395" lon="5.37247">
        <ele>204.6</ele>
        <time>2022-03-21T08:34:48Z</time>
      </trkpt>
      <trkpt lat="46.87411" lon="5.37249">
        <ele>203.4</ele>
        <time>2022-03-21T08:34:49Z</time>
      </trkpt>
      <trkpt lat="46.87427" lon="5.37251">
        <ele>202.8</ele>
        <time>2022-03-21T08:34:50Z</time>
      </trkpt>
      <trkpt lat="46.87438" lon="5.37251">
        <ele>202.4</ele>
        <time>2022-03-21T08:34:51Z</time>
      </trkpt>
      <trkpt lat="46.87449" lon="5.37252">
        <ele>202</ele>
        <time>2022-03-21T08:34:52Z</time>
      </trkpt>
      <trkpt lat="46.8746" lon="5.37253">
        <ele>201.6</ele>
        <time>2022-03-21T08:34:53Z</time>
      </trkpt>
      <trkpt lat="46.87471" lon="5.37252">
        <ele>201.4</ele>
        <time>2022-03-21T08:34:54Z</time>
      </trkpt>
      <trkpt lat="46.87481" lon="5.3725">
        <ele>201.4</ele>
        <time>2022-03-21T08:34:55Z</time>
      </trkpt>
      <trkpt lat="46.87491" lon="5.37247">
        <ele>201.4</ele>
        <time>2022-03-21T08:34:56Z</time>
      </trkpt>
      <trkpt lat="46.87501" lon="5.37246">
        <ele>201.2</ele>
        <time>2022-03-21T08:34:57Z</time>
      </trkpt>
      <trkpt lat="46.8751" lon="5.37244">
        <ele>201.2</ele>
        <time>2022-03-21T08:34:58Z</time>
      </trkpt>
      <trkpt lat="46.87519" lon="5.37241">
        <ele>201.2</ele>
        <time>2022-03-21T08:34:59Z</time>
      </trkpt>
      <trkpt lat="46.87528" lon="5.3724">
        <ele>201.2</ele>
        <time>2022-03-21T08:35:00Z</time>
      </trkpt>
      <trkpt lat="46.87536" lon="5.37238">
        <ele>201.4</ele>
        <time>2022-03-21T08:35:01Z</time>
      </trkpt>
      <trkpt lat="46.87545" lon="5.37236">
        <ele>201.8</ele>
        <time>2022-03-21T08:35:02Z</time>
      </trkpt>
      <trkpt lat="46.87553" lon="5.37233">
        <ele>202</ele>
        <time>2022-03-21T08:35:03Z</time>
      </trkpt>
      <trkpt lat="46.8756" lon="5.3723">
        <ele>202.2</ele>
        <time>2022-03-21T08:35:04Z</time>
      </trkpt>
      <trkpt lat="46.87567" lon="5.37227">
        <ele>202.6</ele>
        <time>2022-03-21T08:35:05Z</time>
      </trkpt>
      <trkpt lat="46.87574" lon="5.37223">
        <ele>203</ele>
        <time>2022-03-21T08:35:06Z</time>
      </trkpt>
      <trkpt lat="46.8758" lon="5.37219">
        <ele>203.2</ele>
        <time>2022-03-21T08:35:07Z</time>
      </trkpt>
      <trkpt lat="46.87586" lon="5.37214">
        <ele>203.6</ele>
        <time>2022-03-21T08:35:08Z</time>
      </trkpt>
      <trkpt lat="46.87591" lon="5.3721">
        <ele>204</ele>
        <time>2022-03-21T08:35:09Z</time>
      </trkpt>
      <trkpt lat="46.87597" lon="5.37207">
        <ele>204.4</ele>
        <time>2022-03-21T08:35:10Z</time>
      </trkpt>
      <trkpt lat="46.87603" lon="5.37203">
        <ele>204.8</ele>
        <time>2022-03-21T08:35:11Z</time>
      </trkpt>
      <trkpt lat="46.87609" lon="5.37199">
        <ele>205</ele>
        <time>2022-03-21T08:35:12Z</time>
      </trkpt>
      <trkpt lat="46.87615" lon="5.37195">
        <ele>205.4</ele>
        <time>2022-03-21T08:35:13Z</time>
      </trkpt>
      <trkpt lat="46.8762" lon="5.37191">
        <ele>205.6</ele>
        <time>2022-03-21T08:35:14Z</time>
      </trkpt>
      <trkpt lat="46.87626" lon="5.37187">
        <ele>205.8</ele>
        <time>2022-03-21T08:35:15Z</time>
      </trkpt>
      <trkpt lat="46.87632" lon="5.37183">
        <ele>206</ele>
        <time>2022-03-21T08:35:16Z</time>
      </trkpt>
      <trkpt lat="46.87638" lon="5.37179">
        <ele>206.2</ele>
        <time>2022-03-21T08:35:17Z</time>
      </trkpt>
      <trkpt lat="46.87643" lon="5.37175">
        <ele>206.6</ele>
        <time>2022-03-21T08:35:18Z</time>
      </trkpt>
      <trkpt lat="46.87649" lon="5.37171">
        <ele>206.8</ele>
        <time>2022-03-21T08:35:19Z</time>
      </trkpt>
      <trkpt lat="46.87655" lon="5.37167">
        <ele>206.8</ele>
        <time>2022-03-21T08:35:20Z</time>
      </trkpt>
      <trkpt lat="46.87661" lon="5.37164">
        <ele>207.2</ele>
        <time>2022-03-21T08:35:21Z</time>
      </trkpt>
      <trkpt lat="46.87667" lon="5.3716">
        <ele>207.2</ele>
        <time>2022-03-21T08:35:22Z</time>
      </trkpt>
      <trkpt lat="46.87673" lon="5.37156">
        <ele>207.4</ele>
        <time>2022-03-21T08:35:23Z</time>
      </trkpt>
      <trkpt lat="46.87679" lon="5.37152">
        <ele>207.4</ele>
        <time>2022-03-21T08:35:24Z</time>
      </trkpt>
      <trkpt lat="46.87686" lon="5.37148">
        <ele>207.4</ele>
        <time>2022-03-21T08:35:25Z</time>
      </trkpt>
      <trkpt lat="46.87693" lon="5.37144">
        <ele>207.4</ele>
        <time>2022-03-21T08:35:26Z</time>
      </trkpt>
      <trkpt lat="46.877" lon="5.3714">
        <ele>207.2</ele>
        <time>2022-03-21T08:35:27Z</time>
      </trkpt>
      <trkpt lat="46.87708" lon="5.37136">
        <ele>206.8</ele>
        <time>2022-03-21T08:35:28Z</time>
      </trkpt>
      <trkpt lat="46.87715" lon="5.37131">
        <ele>206.6</ele>
        <time>2022-03-21T08:35:29Z</time>
      </trkpt>
      <trkpt lat="46.87723" lon="5.37125">
        <ele>206.2</ele>
        <time>2022-03-21T08:35:30Z</time>
      </trkpt>
      <trkpt lat="46.87729" lon="5.37118">
        <ele>206</ele>
        <time>2022-03-21T08:35:31Z</time>
      </trkpt>
      <trkpt lat="46.87736" lon="5.37109">
        <ele>205.8</ele>
        <time>2022-03-21T08:35:32Z</time>
      </trkpt>
      <trkpt lat="46.87742" lon="5.37101">
        <ele>205.6</ele>
        <time>2022-03-21T08:35:33Z</time>
      </trkpt>
      <trkpt lat="46.87748" lon="5.37092">
        <ele>205.6</ele>
        <time>2022-03-21T08:35:34Z</time>
      </trkpt>
      <trkpt lat="46.87753" lon="5.37082">
        <ele>205.2</ele>
        <time>2022-03-21T08:35:35Z</time>
      </trkpt>
      <trkpt lat="46.87758" lon="5.37073">
        <ele>205.2</ele>
        <time>2022-03-21T08:35:36Z</time>
      </trkpt>
      <trkpt lat="46.87763" lon="5.37063">
        <ele>205.2</ele>
        <time>2022-03-21T08:35:37Z</time>
      </trkpt>
      <trkpt lat="46.87768" lon="5.37054">
        <ele>205.2</ele>
        <time>2022-03-21T08:35:38Z</time>
      </trkpt>
      <trkpt lat="46.87772" lon="5.37044">
        <ele>205.2</ele>
        <time>2022-03-21T08:35:39Z</time>
      </trkpt>
      <trkpt lat="46.87777" lon="5.37035">
        <ele>205.2</ele>
        <time>2022-03-21T08:35:40Z</time>
      </trkpt>
      <trkpt lat="46.87781" lon="5.37025">
        <ele>205.6</ele>
        <time>2022-03-21T08:35:41Z</time>
      </trkpt>
      <trkpt lat="46.87786" lon="5.37017">
        <ele>205.6</ele>
        <time>2022-03-21T08:35:42Z</time>
      </trkpt>
      <trkpt lat="46.8779" lon="5.37008">
        <ele>205.6</ele>
        <time>2022-03-21T08:35:43Z</time>
      </trkpt>
      <trkpt lat="46.87794" lon="5.36999">
        <ele>205.8</ele>
        <time>2022-03-21T08:35:44Z</time>
      </trkpt>
      <trkpt lat="46.87798" lon="5.36989">
        <ele>205.8</ele>
        <time>2022-03-21T08:35:45Z</time>
      </trkpt>
      <trkpt lat="46.87801" lon="5.36979">
        <ele>206.2</ele>
        <time>2022-03-21T08:35:46Z</time>
      </trkpt>
      <trkpt lat="46.87804" lon="5.3697">
        <ele>206.4</ele>
        <time>2022-03-21T08:35:47Z</time>
      </trkpt>
      <trkpt lat="46.87808" lon="5.36961">
        <ele>206.6</ele>
        <time>2022-03-21T08:35:48Z</time>
      </trkpt>
      <trkpt lat="46.87811" lon="5.36952">
        <ele>207</ele>
        <time>2022-03-21T08:35:49Z</time>
      </trkpt>
      <trkpt lat="46.87814" lon="5.36943">
        <ele>207.4</ele>
        <time>2022-03-21T08:35:50Z</time>
      </trkpt>
      <trkpt lat="46.87818" lon="5.36934">
        <ele>207.8</ele>
        <time>2022-03-21T08:35:51Z</time>
      </trkpt>
      <trkpt lat="46.87821" lon="5.36925">
        <ele>208</ele>
        <time>2022-03-21T08:35:52Z</time>
      </trkpt>
      <trkpt lat="46.87824" lon="5.36917">
        <ele>208.4</ele>
        <time>2022-03-21T08:35:53Z</time>
      </trkpt>
      <trkpt lat="46.87827" lon="5.36908">
        <ele>208.6</ele>
        <time>2022-03-21T08:35:54Z</time>
      </trkpt>
      <trkpt lat="46.87831" lon="5.369">
        <ele>209</ele>
        <time>2022-03-21T08:35:55Z</time>
      </trkpt>
      <trkpt lat="46.87834" lon="5.36892">
        <ele>209.2</ele>
        <time>2022-03-21T08:35:56Z</time>
      </trkpt>
      <trkpt lat="46.87838" lon="5.36884">
        <ele>209.6</ele>
        <time>2022-03-21T08:35:57Z</time>
      </trkpt>
      <trkpt lat="46.87841" lon="5.36876">
        <ele>209.6</ele>
        <time>2022-03-21T08:35:58Z</time>
      </trkpt>
      <trkpt lat="46.87845" lon="5.36869">
        <ele>209.8</ele>
        <time>2022-03-21T08:35:59Z</time>
      </trkpt>
      <trkpt lat="46.87849" lon="5.36862">
        <ele>210</ele>
        <time>2022-03-21T08:36:00Z</time>
      </trkpt>
      <trkpt lat="46.87853" lon="5.36855">
        <ele>210.2</ele>
        <time>2022-03-21T08:36:01Z</time>
      </trkpt>
      <trkpt lat="46.87857" lon="5.36848">
        <ele>210.4</ele>
        <time>2022-03-21T08:36:02Z</time>
      </trkpt>
      <trkpt lat="46.87861" lon="5.36842">
        <ele>210.8</ele>
        <time>2022-03-21T08:36:03Z</time>
      </trkpt>
      <trkpt lat="46.87866" lon="5.36836">
        <ele>210.8</ele>
        <time>2022-03-21T08:36:04Z</time>
      </trkpt>
      <trkpt lat="46.8787" lon="5.36829">
        <ele>211</ele>
        <time>2022-03-21T08:36:05Z</time>
      </trkpt>
      <trkpt lat="46.87875" lon="5.36823">
        <ele>211</ele>
        <time>2022-03-21T08:36:06Z</time>
      </trkpt>
      <trkpt lat="46.8788" lon="5.36817">
        <ele>211</ele>
        <time>2022-03-21T08:36:07Z</time>
      </trkpt>
      <trkpt lat="46.87885" lon="5.36811">
        <ele>211</ele>
        <time>2022-03-21T08:36:08Z</time>
      </trkpt>
      <trkpt lat="46.87891" lon="5.36806">
        <ele>211</ele>
        <time>2022-03-21T08:36:09Z</time>
      </trkpt>
      <trkpt lat="46.87896" lon="5.368">
        <ele>211.2</ele>
        <time>2022-03-21T08:36:10Z</time>
      </trkpt>
      <trkpt lat="46.87901" lon="5.36794">
        <ele>211.2</ele>
        <time>2022-03-21T08:36:11Z</time>
      </trkpt>
      <trkpt lat="46.87906" lon="5.36788">
        <ele>211.2</ele>
        <time>2022-03-21T08:36:12Z</time>
      </trkpt>
      <trkpt lat="46.8791" lon="5.36782">
        <ele>211.2</ele>
        <time>2022-03-21T08:36:13Z</time>
      </trkpt>
      <trkpt lat="46.87915" lon="5.36775">
        <ele>211.2</ele>
        <time>2022-03-21T08:36:14Z</time>
      </trkpt>
      <trkpt lat="46.8792" lon="5.36769">
        <ele>211.4</ele>
        <time>2022-03-21T08:36:15Z</time>
      </trkpt>
      <trkpt lat="46.87922" lon="5.36765">
        <ele>211.4</ele>
        <time>2022-03-21T08:36:16Z</time>
      </trkpt>
      <trkpt lat="46.87925" lon="5.36762">
        <ele>211.4</ele>
        <time>2022-03-21T08:36:17Z</time>
      </trkpt>
      <trkpt lat="46.87929" lon="5.36755">
        <ele>211.4</ele>
        <time>2022-03-21T08:36:18Z</time>
      </trkpt>
      <trkpt lat="46.87934" lon="5.36749">
        <ele>211.4</ele>
        <time>2022-03-21T08:36:19Z</time>
      </trkpt>
      <trkpt lat="46.87938" lon="5.36742">
        <ele>211.6</ele>
        <time>2022-03-21T08:36:20Z</time>
      </trkpt>
      <trkpt lat="46.87943" lon="5.36736">
        <ele>211.6</ele>
        <time>2022-03-21T08:36:21Z</time>
      </trkpt>
      <trkpt lat="46.87947" lon="5.36729">
        <ele>211.6</ele>
        <time>2022-03-21T08:36:22Z</time>
      </trkpt>
      <trkpt lat="46.87951" lon="5.36723">
        <ele>212</ele>
        <time>2022-03-21T08:36:23Z</time>
      </trkpt>
      <trkpt lat="46.87955" lon="5.36716">
        <ele>212</ele>
        <time>2022-03-21T08:36:24Z</time>
      </trkpt>
      <trkpt lat="46.87959" lon="5.3671">
        <ele>212.2</ele>
        <time>2022-03-21T08:36:25Z</time>
      </trkpt>
      <trkpt lat="46.87964" lon="5.36704">
        <ele>212.2</ele>
        <time>2022-03-21T08:36:26Z</time>
      </trkpt>
      <trkpt lat="46.87968" lon="5.36698">
        <ele>212.2</ele>
        <time>2022-03-21T08:36:27Z</time>
      </trkpt>
      <trkpt lat="46.87973" lon="5.36692">
        <ele>212.2</ele>
        <time>2022-03-21T08:36:28Z</time>
      </trkpt>
      <trkpt lat="46.87978" lon="5.36685">
        <ele>212.4</ele>
        <time>2022-03-21T08:36:29Z</time>
      </trkpt>
      <trkpt lat="46.87983" lon="5.36679">
        <ele>212.4</ele>
        <time>2022-03-21T08:36:30Z</time>
      </trkpt>
      <trkpt lat="46.87988" lon="5.36672">
        <ele>212.4</ele>
        <time>2022-03-21T08:36:31Z</time>
      </trkpt>
      <trkpt lat="46.87993" lon="5.36666">
        <ele>212.4</ele>
        <time>2022-03-21T08:36:32Z</time>
      </trkpt>
      <trkpt lat="46.87998" lon="5.36659">
        <ele>212.4</ele>
        <time>2022-03-21T08:36:33Z</time>
      </trkpt>
      <trkpt lat="46.88002" lon="5.36652">
        <ele>212.6</ele>
        <time>2022-03-21T08:36:34Z</time>
      </trkpt>
      <trkpt lat="46.88006" lon="5.36645">
        <ele>212.6</ele>
        <time>2022-03-21T08:36:35Z</time>
      </trkpt>
      <trkpt lat="46.88011" lon="5.36638">
        <ele>212.6</ele>
        <time>2022-03-21T08:36:36Z</time>
      </trkpt>
      <trkpt lat="46.88016" lon="5.36631">
        <ele>212.6</ele>
        <time>2022-03-21T08:36:37Z</time>
      </trkpt>
      <trkpt lat="46.88021" lon="5.36623">
        <ele>212.6</ele>
        <time>2022-03-21T08:36:38Z</time>
      </trkpt>
      <trkpt lat="46.88026" lon="5.36616">
        <ele>212.8</ele>
        <time>2022-03-21T08:36:39Z</time>
      </trkpt>
      <trkpt lat="46.88031" lon="5.36608">
        <ele>212.8</ele>
        <time>2022-03-21T08:36:40Z</time>
      </trkpt>
      <trkpt lat="46.88036" lon="5.366">
        <ele>212.8</ele>
        <time>2022-03-21T08:36:41Z</time>
      </trkpt>
      <trkpt lat="46.88041" lon="5.36592">
        <ele>212.8</ele>
        <time>2022-03-21T08:36:42Z</time>
      </trkpt>
      <trkpt lat="46.88045" lon="5.36583">
        <ele>212.8</ele>
        <time>2022-03-21T08:36:43Z</time>
      </trkpt>
      <trkpt lat="46.88049" lon="5.36574">
        <ele>212.8</ele>
        <time>2022-03-21T08:36:44Z</time>
      </trkpt>
      <trkpt lat="46.88052" lon="5.36565">
        <ele>212.8</ele>
        <time>2022-03-21T08:36:45Z</time>
      </trkpt>
      <trkpt lat="46.88056" lon="5.36555">
        <ele>212.8</ele>
        <time>2022-03-21T08:36:46Z</time>
      </trkpt>
      <trkpt lat="46.88059" lon="5.36546">
        <ele>212.8</ele>
        <time>2022-03-21T08:36:47Z</time>
      </trkpt>
      <trkpt lat="46.88063" lon="5.36537">
        <ele>212.8</ele>
        <time>2022-03-21T08:36:48Z</time>
      </trkpt>
      <trkpt lat="46.88067" lon="5.36527">
        <ele>212.8</ele>
        <time>2022-03-21T08:36:49Z</time>
      </trkpt>
      <trkpt lat="46.8807" lon="5.36518">
        <ele>212.8</ele>
        <time>2022-03-21T08:36:50Z</time>
      </trkpt>
      <trkpt lat="46.88075" lon="5.36509">
        <ele>212.8</ele>
        <time>2022-03-21T08:36:51Z</time>
      </trkpt>
      <trkpt lat="46.88079" lon="5.365">
        <ele>212.8</ele>
        <time>2022-03-21T08:36:52Z</time>
      </trkpt>
      <trkpt lat="46.88083" lon="5.36491">
        <ele>212.8</ele>
        <time>2022-03-21T08:36:53Z</time>
      </trkpt>
      <trkpt lat="46.88087" lon="5.36482">
        <ele>212.8</ele>
        <time>2022-03-21T08:36:54Z</time>
      </trkpt>
      <trkpt lat="46.88091" lon="5.36473">
        <ele>212.8</ele>
        <time>2022-03-21T08:36:55Z</time>
      </trkpt>
      <trkpt lat="46.88095" lon="5.36464">
        <ele>212.8</ele>
        <time>2022-03-21T08:36:56Z</time>
      </trkpt>
      <trkpt lat="46.881" lon="5.36455">
        <ele>212.8</ele>
        <time>2022-03-21T08:36:57Z</time>
      </trkpt>
      <trkpt lat="46.88104" lon="5.36446">
        <ele>212.8</ele>
        <time>2022-03-21T08:36:58Z</time>
      </trkpt>
      <trkpt lat="46.88108" lon="5.36437">
        <ele>212.8</ele>
        <time>2022-03-21T08:36:59Z</time>
      </trkpt>
      <trkpt lat="46.88113" lon="5.36428">
        <ele>212.8</ele>
        <time>2022-03-21T08:37:00Z</time>
      </trkpt>
      <trkpt lat="46.88117" lon="5.36419">
        <ele>212.8</ele>
        <time>2022-03-21T08:37:01Z</time>
      </trkpt>
      <trkpt lat="46.88121" lon="5.3641">
        <ele>212.8</ele>
        <time>2022-03-21T08:37:02Z</time>
      </trkpt>
      <trkpt lat="46.88125" lon="5.36401">
        <ele>212.8</ele>
        <time>2022-03-21T08:37:03Z</time>
      </trkpt>
      <trkpt lat="46.8813" lon="5.36392">
        <ele>212.8</ele>
        <time>2022-03-21T08:37:04Z</time>
      </trkpt>
      <trkpt lat="46.88134" lon="5.36383">
        <ele>212.8</ele>
        <time>2022-03-21T08:37:05Z</time>
      </trkpt>
      <trkpt lat="46.88139" lon="5.36375">
        <ele>212.8</ele>
        <time>2022-03-21T08:37:06Z</time>
      </trkpt>
      <trkpt lat="46.88144" lon="5.36366">
        <ele>213.2</ele>
        <time>2022-03-21T08:37:07Z</time>
      </trkpt>
      <trkpt lat="46.88148" lon="5.36358">
        <ele>213.2</ele>
        <time>2022-03-21T08:37:08Z</time>
      </trkpt>
      <trkpt lat="46.88154" lon="5.3635">
        <ele>213.2</ele>
        <time>2022-03-21T08:37:09Z</time>
      </trkpt>
      <trkpt lat="46.88159" lon="5.36343">
        <ele>213.2</ele>
        <time>2022-03-21T08:37:10Z</time>
      </trkpt>
      <trkpt lat="46.88164" lon="5.36335">
        <ele>213.2</ele>
        <time>2022-03-21T08:37:11Z</time>
      </trkpt>
      <trkpt lat="46.8817" lon="5.36328">
        <ele>213.2</ele>
        <time>2022-03-21T08:37:12Z</time>
      </trkpt>
      <trkpt lat="46.88175" lon="5.3632">
        <ele>213.4</ele>
        <time>2022-03-21T08:37:13Z</time>
      </trkpt>
      <trkpt lat="46.88181" lon="5.36312">
        <ele>213.4</ele>
        <time>2022-03-21T08:37:14Z</time>
      </trkpt>
      <trkpt lat="46.88186" lon="5.36305">
        <ele>213.4</ele>
        <time>2022-03-21T08:37:15Z</time>
      </trkpt>
      <trkpt lat="46.88192" lon="5.36298">
        <ele>213.4</ele>
        <time>2022-03-21T08:37:16Z</time>
      </trkpt>
      <trkpt lat="46.88198" lon="5.36292">
        <ele>213.4</ele>
        <time>2022-03-21T08:37:17Z</time>
      </trkpt>
      <trkpt lat="46.88204" lon="5.36285">
        <ele>213.4</ele>
        <time>2022-03-21T08:37:18Z</time>
      </trkpt>
      <trkpt lat="46.88209" lon="5.36279">
        <ele>213.4</ele>
        <time>2022-03-21T08:37:19Z</time>
      </trkpt>
      <trkpt lat="46.88215" lon="5.36272">
        <ele>213.4</ele>
        <time>2022-03-21T08:37:20Z</time>
      </trkpt>
      <trkpt lat="46.88221" lon="5.36265">
        <ele>213.6</ele>
        <time>2022-03-21T08:37:21Z</time>
      </trkpt>
      <trkpt lat="46.88227" lon="5.36259">
        <ele>213.6</ele>
        <time>2022-03-21T08:37:22Z</time>
      </trkpt>
      <trkpt lat="46.88232" lon="5.36253">
        <ele>213.6</ele>
        <time>2022-03-21T08:37:23Z</time>
      </trkpt>
      <trkpt lat="46.88238" lon="5.36247">
        <ele>213.6</ele>
        <time>2022-03-21T08:37:24Z</time>
      </trkpt>
      <trkpt lat="46.88244" lon="5.36241">
        <ele>213.6</ele>
        <time>2022-03-21T08:37:25Z</time>
      </trkpt>
      <trkpt lat="46.8825" lon="5.36234">
        <ele>213.6</ele>
        <time>2022-03-21T08:37:26Z</time>
      </trkpt>
      <trkpt lat="46.88255" lon="5.36229">
        <ele>213.6</ele>
        <time>2022-03-21T08:37:27Z</time>
      </trkpt>
      <trkpt lat="46.88261" lon="5.36222">
        <ele>213.4</ele>
        <time>2022-03-21T08:37:28Z</time>
      </trkpt>
      <trkpt lat="46.88267" lon="5.36215">
        <ele>213.4</ele>
        <time>2022-03-21T08:37:29Z</time>
      </trkpt>
      <trkpt lat="46.88272" lon="5.36208">
        <ele>213.4</ele>
        <time>2022-03-21T08:37:30Z</time>
      </trkpt>
      <trkpt lat="46.88278" lon="5.362">
        <ele>213.4</ele>
        <time>2022-03-21T08:37:31Z</time>
      </trkpt>
      <trkpt lat="46.88284" lon="5.36193">
        <ele>213.4</ele>
        <time>2022-03-21T08:37:32Z</time>
      </trkpt>
      <trkpt lat="46.88289" lon="5.36185">
        <ele>213.4</ele>
        <time>2022-03-21T08:37:33Z</time>
      </trkpt>
      <trkpt lat="46.88295" lon="5.36177">
        <ele>213.4</ele>
        <time>2022-03-21T08:37:34Z</time>
      </trkpt>
      <trkpt lat="46.88301" lon="5.36168">
        <ele>213</ele>
        <time>2022-03-21T08:37:35Z</time>
      </trkpt>
      <trkpt lat="46.88306" lon="5.36159">
        <ele>213</ele>
        <time>2022-03-21T08:37:36Z</time>
      </trkpt>
      <trkpt lat="46.88312" lon="5.36151">
        <ele>213</ele>
        <time>2022-03-21T08:37:37Z</time>
      </trkpt>
      <trkpt lat="46.88318" lon="5.36142">
        <ele>212.8</ele>
        <time>2022-03-21T08:37:38Z</time>
      </trkpt>
      <trkpt lat="46.88324" lon="5.36133">
        <ele>212.8</ele>
        <time>2022-03-21T08:37:39Z</time>
      </trkpt>
      <trkpt lat="46.8833" lon="5.36125">
        <ele>212.8</ele>
        <time>2022-03-21T08:37:40Z</time>
      </trkpt>
      <trkpt lat="46.88337" lon="5.36118">
        <ele>212.4</ele>
        <time>2022-03-21T08:37:41Z</time>
      </trkpt>
      <trkpt lat="46.88345" lon="5.36113">
        <ele>212.4</ele>
        <time>2022-03-21T08:37:42Z</time>
      </trkpt>
      <trkpt lat="46.88353" lon="5.36109">
        <ele>212.2</ele>
        <time>2022-03-21T08:37:43Z</time>
      </trkpt>
      <trkpt lat="46.88362" lon="5.36108">
        <ele>212</ele>
        <time>2022-03-21T08:37:44Z</time>
      </trkpt>
      <trkpt lat="46.8837" lon="5.36107">
        <ele>212</ele>
        <time>2022-03-21T08:37:45Z</time>
      </trkpt>
      <trkpt lat="46.88379" lon="5.36106">
        <ele>211.6</ele>
        <time>2022-03-21T08:37:46Z</time>
      </trkpt>
      <trkpt lat="46.88388" lon="5.36106">
        <ele>211.6</ele>
        <time>2022-03-21T08:37:47Z</time>
      </trkpt>
      <trkpt lat="46.88396" lon="5.36106">
        <ele>211.2</ele>
        <time>2022-03-21T08:37:48Z</time>
      </trkpt>
      <trkpt lat="46.88405" lon="5.36105">
        <ele>211.2</ele>
        <time>2022-03-21T08:37:49Z</time>
      </trkpt>
      <trkpt lat="46.88414" lon="5.36103">
        <ele>211</ele>
        <time>2022-03-21T08:37:50Z</time>
      </trkpt>
      <trkpt lat="46.88422" lon="5.36099">
        <ele>211</ele>
        <time>2022-03-21T08:37:51Z</time>
      </trkpt>
      <trkpt lat="46.8843" lon="5.36095">
        <ele>211</ele>
        <time>2022-03-21T08:37:52Z</time>
      </trkpt>
      <trkpt lat="46.88438" lon="5.36091">
        <ele>210.6</ele>
        <time>2022-03-21T08:37:53Z</time>
      </trkpt>
      <trkpt lat="46.88446" lon="5.36086">
        <ele>210.6</ele>
        <time>2022-03-21T08:37:54Z</time>
      </trkpt>
      <trkpt lat="46.88454" lon="5.36081">
        <ele>210.2</ele>
        <time>2022-03-21T08:37:55Z</time>
      </trkpt>
      <trkpt lat="46.88463" lon="5.36076">
        <ele>210.2</ele>
        <time>2022-03-21T08:37:56Z</time>
      </trkpt>
      <trkpt lat="46.88472" lon="5.36072">
        <ele>210</ele>
        <time>2022-03-21T08:37:57Z</time>
      </trkpt>
      <trkpt lat="46.88481" lon="5.36068">
        <ele>209.6</ele>
        <time>2022-03-21T08:37:58Z</time>
      </trkpt>
      <trkpt lat="46.8849" lon="5.36062">
        <ele>209.4</ele>
        <time>2022-03-21T08:37:59Z</time>
      </trkpt>
      <trkpt lat="46.88498" lon="5.36056">
        <ele>209</ele>
        <time>2022-03-21T08:38:00Z</time>
      </trkpt>
      <trkpt lat="46.88507" lon="5.36049">
        <ele>208.8</ele>
        <time>2022-03-21T08:38:01Z</time>
      </trkpt>
      <trkpt lat="46.88515" lon="5.36043">
        <ele>208.6</ele>
        <time>2022-03-21T08:38:02Z</time>
      </trkpt>
      <trkpt lat="46.88524" lon="5.36037">
        <ele>208.6</ele>
        <time>2022-03-21T08:38:03Z</time>
      </trkpt>
      <trkpt lat="46.88532" lon="5.36031">
        <ele>208.2</ele>
        <time>2022-03-21T08:38:04Z</time>
      </trkpt>
      <trkpt lat="46.8854" lon="5.36024">
        <ele>208.2</ele>
        <time>2022-03-21T08:38:05Z</time>
      </trkpt>
      <trkpt lat="46.88547" lon="5.36015">
        <ele>208.2</ele>
        <time>2022-03-21T08:38:06Z</time>
      </trkpt>
      <trkpt lat="46.88553" lon="5.36004">
        <ele>208.2</ele>
        <time>2022-03-21T08:38:07Z</time>
      </trkpt>
      <trkpt lat="46.88558" lon="5.35994">
        <ele>208.2</ele>
        <time>2022-03-21T08:38:09Z</time>
      </trkpt>
      <trkpt lat="46.88563" lon="5.35984">
        <ele>208.2</ele>
        <time>2022-03-21T08:38:10Z</time>
      </trkpt>
      <trkpt lat="46.88568" lon="5.35973">
        <ele>208.2</ele>
        <time>2022-03-21T08:38:11Z</time>
      </trkpt>
      <trkpt lat="46.88572" lon="5.35963">
        <ele>208.2</ele>
        <time>2022-03-21T08:38:12Z</time>
      </trkpt>
      <trkpt lat="46.88576" lon="5.35951">
        <ele>208.2</ele>
        <time>2022-03-21T08:38:13Z</time>
      </trkpt>
      <trkpt lat="46.8858" lon="5.3594">
        <ele>208</ele>
        <time>2022-03-21T08:38:14Z</time>
      </trkpt>
      <trkpt lat="46.88585" lon="5.35929">
        <ele>207.8</ele>
        <time>2022-03-21T08:38:15Z</time>
      </trkpt>
      <trkpt lat="46.88589" lon="5.35918">
        <ele>207.4</ele>
        <time>2022-03-21T08:38:16Z</time>
      </trkpt>
      <trkpt lat="46.886" lon="5.35897">
        <ele>207.2</ele>
        <time>2022-03-21T08:38:17Z</time>
      </trkpt>
      <trkpt lat="46.88606" lon="5.35886">
        <ele>207.2</ele>
        <time>2022-03-21T08:38:18Z</time>
      </trkpt>
      <trkpt lat="46.88611" lon="5.35877">
        <ele>207</ele>
        <time>2022-03-21T08:38:19Z</time>
      </trkpt>
      <trkpt lat="46.88618" lon="5.35868">
        <ele>206.8</ele>
        <time>2022-03-21T08:38:20Z</time>
      </trkpt>
      <trkpt lat="46.88624" lon="5.35859">
        <ele>206.8</ele>
        <time>2022-03-21T08:38:21Z</time>
      </trkpt>
      <trkpt lat="46.8863" lon="5.3585">
        <ele>206.8</ele>
        <time>2022-03-21T08:38:22Z</time>
      </trkpt>
      <trkpt lat="46.88637" lon="5.35841">
        <ele>206.4</ele>
        <time>2022-03-21T08:38:23Z</time>
      </trkpt>
      <trkpt lat="46.88643" lon="5.35832">
        <ele>206.4</ele>
        <time>2022-03-21T08:38:24Z</time>
      </trkpt>
      <trkpt lat="46.8865" lon="5.35824">
        <ele>206.4</ele>
        <time>2022-03-21T08:38:25Z</time>
      </trkpt>
      <trkpt lat="46.88656" lon="5.35815">
        <ele>206.2</ele>
        <time>2022-03-21T08:38:26Z</time>
      </trkpt>
      <trkpt lat="46.88663" lon="5.35807">
        <ele>206.2</ele>
        <time>2022-03-21T08:38:27Z</time>
      </trkpt>
      <trkpt lat="46.88669" lon="5.35798">
        <ele>206.2</ele>
        <time>2022-03-21T08:38:28Z</time>
      </trkpt>
      <trkpt lat="46.88675" lon="5.35789">
        <ele>206.2</ele>
        <time>2022-03-21T08:38:29Z</time>
      </trkpt>
      <trkpt lat="46.8868" lon="5.3578">
        <ele>206.2</ele>
        <time>2022-03-21T08:38:30Z</time>
      </trkpt>
      <trkpt lat="46.88686" lon="5.3577">
        <ele>206.2</ele>
        <time>2022-03-21T08:38:31Z</time>
      </trkpt>
      <trkpt lat="46.88691" lon="5.35761">
        <ele>206.2</ele>
        <time>2022-03-21T08:38:32Z</time>
      </trkpt>
      <trkpt lat="46.88697" lon="5.35752">
        <ele>206</ele>
        <time>2022-03-21T08:38:33Z</time>
      </trkpt>
      <trkpt lat="46.88703" lon="5.35743">
        <ele>206</ele>
        <time>2022-03-21T08:38:34Z</time>
      </trkpt>
      <trkpt lat="46.88709" lon="5.35735">
        <ele>206</ele>
        <time>2022-03-21T08:38:35Z</time>
      </trkpt>
      <trkpt lat="46.88715" lon="5.35727">
        <ele>206</ele>
        <time>2022-03-21T08:38:36Z</time>
      </trkpt>
      <trkpt lat="46.88721" lon="5.35719">
        <ele>206</ele>
        <time>2022-03-21T08:38:37Z</time>
      </trkpt>
      <trkpt lat="46.88727" lon="5.35711">
        <ele>206</ele>
        <time>2022-03-21T08:38:38Z</time>
      </trkpt>
      <trkpt lat="46.88733" lon="5.35704">
        <ele>206</ele>
        <time>2022-03-21T08:38:39Z</time>
      </trkpt>
      <trkpt lat="46.88739" lon="5.35696">
        <ele>206</ele>
        <time>2022-03-21T08:38:40Z</time>
      </trkpt>
      <trkpt lat="46.88745" lon="5.35689">
        <ele>206</ele>
        <time>2022-03-21T08:38:41Z</time>
      </trkpt>
      <trkpt lat="46.88751" lon="5.35681">
        <ele>206</ele>
        <time>2022-03-21T08:38:42Z</time>
      </trkpt>
      <trkpt lat="46.88757" lon="5.35674">
        <ele>206</ele>
        <time>2022-03-21T08:38:43Z</time>
      </trkpt>
      <trkpt lat="46.88763" lon="5.35666">
        <ele>206</ele>
        <time>2022-03-21T08:38:44Z</time>
      </trkpt>
      <trkpt lat="46.88769" lon="5.35659">
        <ele>206</ele>
        <time>2022-03-21T08:38:45Z</time>
      </trkpt>
      <trkpt lat="46.88775" lon="5.35651">
        <ele>206</ele>
        <time>2022-03-21T08:38:46Z</time>
      </trkpt>
      <trkpt lat="46.88782" lon="5.35644">
        <ele>206</ele>
        <time>2022-03-21T08:38:47Z</time>
      </trkpt>
      <trkpt lat="46.88788" lon="5.35637">
        <ele>206</ele>
        <time>2022-03-21T08:38:48Z</time>
      </trkpt>
      <trkpt lat="46.88794" lon="5.35629">
        <ele>206</ele>
        <time>2022-03-21T08:38:49Z</time>
      </trkpt>
      <trkpt lat="46.888" lon="5.35622">
        <ele>206</ele>
        <time>2022-03-21T08:38:50Z</time>
      </trkpt>
      <trkpt lat="46.88806" lon="5.35615">
        <ele>206</ele>
        <time>2022-03-21T08:38:51Z</time>
      </trkpt>
      <trkpt lat="46.88813" lon="5.35608">
        <ele>206.2</ele>
        <time>2022-03-21T08:38:52Z</time>
      </trkpt>
      <trkpt lat="46.88819" lon="5.35601">
        <ele>206.2</ele>
        <time>2022-03-21T08:38:53Z</time>
      </trkpt>
      <trkpt lat="46.88825" lon="5.35595">
        <ele>206.2</ele>
        <time>2022-03-21T08:38:54Z</time>
      </trkpt>
      <trkpt lat="46.88831" lon="5.3559">
        <ele>206.6</ele>
        <time>2022-03-21T08:38:55Z</time>
      </trkpt>
      <trkpt lat="46.88837" lon="5.35585">
        <ele>206.6</ele>
        <time>2022-03-21T08:38:56Z</time>
      </trkpt>
      <trkpt lat="46.88844" lon="5.3558">
        <ele>206.8</ele>
        <time>2022-03-21T08:38:57Z</time>
      </trkpt>
      <trkpt lat="46.8885" lon="5.35576">
        <ele>206.8</ele>
        <time>2022-03-21T08:38:58Z</time>
      </trkpt>
      <trkpt lat="46.88857" lon="5.35571">
        <ele>207.2</ele>
        <time>2022-03-21T08:38:59Z</time>
      </trkpt>
      <trkpt lat="46.88863" lon="5.35567">
        <ele>207.2</ele>
        <time>2022-03-21T08:39:00Z</time>
      </trkpt>
      <trkpt lat="46.88869" lon="5.35563">
        <ele>207.6</ele>
        <time>2022-03-21T08:39:01Z</time>
      </trkpt>
      <trkpt lat="46.88876" lon="5.35558">
        <ele>207.8</ele>
        <time>2022-03-21T08:39:02Z</time>
      </trkpt>
      <trkpt lat="46.88882" lon="5.35554">
        <ele>208.2</ele>
        <time>2022-03-21T08:39:03Z</time>
      </trkpt>
      <trkpt lat="46.88889" lon="5.3555">
        <ele>208.2</ele>
        <time>2022-03-21T08:39:04Z</time>
      </trkpt>
      <trkpt lat="46.88895" lon="5.35545">
        <ele>208.4</ele>
        <time>2022-03-21T08:39:05Z</time>
      </trkpt>
      <trkpt lat="46.88902" lon="5.35541">
        <ele>208.4</ele>
        <time>2022-03-21T08:39:06Z</time>
      </trkpt>
      <trkpt lat="46.88908" lon="5.35537">
        <ele>208.4</ele>
        <time>2022-03-21T08:39:07Z</time>
      </trkpt>
      <trkpt lat="46.88915" lon="5.35532">
        <ele>208.4</ele>
        <time>2022-03-21T08:39:08Z</time>
      </trkpt>
      <trkpt lat="46.88921" lon="5.35528">
        <ele>208.6</ele>
        <time>2022-03-21T08:39:09Z</time>
      </trkpt>
      <trkpt lat="46.88928" lon="5.35523">
        <ele>208.6</ele>
        <time>2022-03-21T08:39:10Z</time>
      </trkpt>
      <trkpt lat="46.88934" lon="5.35519">
        <ele>208.6</ele>
        <time>2022-03-21T08:39:11Z</time>
      </trkpt>
      <trkpt lat="46.88941" lon="5.35514">
        <ele>208.6</ele>
        <time>2022-03-21T08:39:12Z</time>
      </trkpt>
      <trkpt lat="46.88947" lon="5.3551">
        <ele>208.6</ele>
        <time>2022-03-21T08:39:13Z</time>
      </trkpt>
      <trkpt lat="46.88954" lon="5.35505">
        <ele>208.6</ele>
        <time>2022-03-21T08:39:14Z</time>
      </trkpt>
      <trkpt lat="46.88961" lon="5.355">
        <ele>208.6</ele>
        <time>2022-03-21T08:39:15Z</time>
      </trkpt>
      <trkpt lat="46.88968" lon="5.35496">
        <ele>208.6</ele>
        <time>2022-03-21T08:39:16Z</time>
      </trkpt>
      <trkpt lat="46.88975" lon="5.35492">
        <ele>208.4</ele>
        <time>2022-03-21T08:39:17Z</time>
      </trkpt>
      <trkpt lat="46.88983" lon="5.35488">
        <ele>208.2</ele>
        <time>2022-03-21T08:39:18Z</time>
      </trkpt>
      <trkpt lat="46.88991" lon="5.35484">
        <ele>208.2</ele>
        <time>2022-03-21T08:39:19Z</time>
      </trkpt>
      <trkpt lat="46.88998" lon="5.3548">
        <ele>207.8</ele>
        <time>2022-03-21T08:39:20Z</time>
      </trkpt>
      <trkpt lat="46.89006" lon="5.35476">
        <ele>207.6</ele>
        <time>2022-03-21T08:39:21Z</time>
      </trkpt>
      <trkpt lat="46.89014" lon="5.35473">
        <ele>207.6</ele>
        <time>2022-03-21T08:39:22Z</time>
      </trkpt>
      <trkpt lat="46.89022" lon="5.3547">
        <ele>207.4</ele>
        <time>2022-03-21T08:39:23Z</time>
      </trkpt>
      <trkpt lat="46.89031" lon="5.35467">
        <ele>207</ele>
        <time>2022-03-21T08:39:24Z</time>
      </trkpt>
      <trkpt lat="46.89039" lon="5.35465">
        <ele>207</ele>
        <time>2022-03-21T08:39:25Z</time>
      </trkpt>
      <trkpt lat="46.89047" lon="5.35462">
        <ele>206.8</ele>
        <time>2022-03-21T08:39:26Z</time>
      </trkpt>
      <trkpt lat="46.89055" lon="5.3546">
        <ele>206.6</ele>
        <time>2022-03-21T08:39:27Z</time>
      </trkpt>
      <trkpt lat="46.89064" lon="5.35458">
        <ele>206.4</ele>
        <time>2022-03-21T08:39:28Z</time>
      </trkpt>
      <trkpt lat="46.89072" lon="5.35455">
        <ele>206.2</ele>
        <time>2022-03-21T08:39:29Z</time>
      </trkpt>
      <trkpt lat="46.89081" lon="5.35452">
        <ele>206.2</ele>
        <time>2022-03-21T08:39:30Z</time>
      </trkpt>
      <trkpt lat="46.89089" lon="5.3545">
        <ele>205.6</ele>
        <time>2022-03-21T08:39:31Z</time>
      </trkpt>
      <trkpt lat="46.89098" lon="5.35448">
        <ele>205.4</ele>
        <time>2022-03-21T08:39:32Z</time>
      </trkpt>
      <trkpt lat="46.89108" lon="5.35446">
        <ele>205.2</ele>
        <time>2022-03-21T08:39:33Z</time>
      </trkpt>
      <trkpt lat="46.89118" lon="5.35444">
        <ele>204.8</ele>
        <time>2022-03-21T08:39:34Z</time>
      </trkpt>
      <trkpt lat="46.89127" lon="5.35441">
        <ele>204.6</ele>
        <time>2022-03-21T08:39:35Z</time>
      </trkpt>
      <trkpt lat="46.89136" lon="5.35438">
        <ele>204.2</ele>
        <time>2022-03-21T08:39:36Z</time>
      </trkpt>
      <trkpt lat="46.89145" lon="5.35435">
        <ele>203.8</ele>
        <time>2022-03-21T08:39:37Z</time>
      </trkpt>
      <trkpt lat="46.89155" lon="5.35431">
        <ele>203.4</ele>
        <time>2022-03-21T08:39:38Z</time>
      </trkpt>
      <trkpt lat="46.89165" lon="5.35428">
        <ele>203.2</ele>
        <time>2022-03-21T08:39:39Z</time>
      </trkpt>
      <trkpt lat="46.89175" lon="5.35426">
        <ele>202.8</ele>
        <time>2022-03-21T08:39:40Z</time>
      </trkpt>
      <trkpt lat="46.89187" lon="5.35423">
        <ele>202.4</ele>
        <time>2022-03-21T08:39:41Z</time>
      </trkpt>
      <trkpt lat="46.89198" lon="5.3542">
        <ele>202</ele>
        <time>2022-03-21T08:39:42Z</time>
      </trkpt>
      <trkpt lat="46.89209" lon="5.35417">
        <ele>201.4</ele>
        <time>2022-03-21T08:39:43Z</time>
      </trkpt>
      <trkpt lat="46.89219" lon="5.35413">
        <ele>201</ele>
        <time>2022-03-21T08:39:44Z</time>
      </trkpt>
      <trkpt lat="46.89231" lon="5.35411">
        <ele>200.4</ele>
        <time>2022-03-21T08:39:45Z</time>
      </trkpt>
      <trkpt lat="46.89242" lon="5.35408">
        <ele>199.6</ele>
        <time>2022-03-21T08:39:46Z</time>
      </trkpt>
      <trkpt lat="46.89253" lon="5.35406">
        <ele>199.2</ele>
        <time>2022-03-21T08:39:47Z</time>
      </trkpt>
      <trkpt lat="46.89263" lon="5.35403">
        <ele>198.6</ele>
        <time>2022-03-21T08:39:48Z</time>
      </trkpt>
      <trkpt lat="46.89274" lon="5.354">
        <ele>198.2</ele>
        <time>2022-03-21T08:39:49Z</time>
      </trkpt>
      <trkpt lat="46.89285" lon="5.35397">
        <ele>198</ele>
        <time>2022-03-21T08:39:50Z</time>
      </trkpt>
      <trkpt lat="46.89296" lon="5.35394">
        <ele>197.8</ele>
        <time>2022-03-21T08:39:51Z</time>
      </trkpt>
      <trkpt lat="46.89306" lon="5.3539">
        <ele>197.6</ele>
        <time>2022-03-21T08:39:52Z</time>
      </trkpt>
      <trkpt lat="46.89317" lon="5.35387">
        <ele>197.6</ele>
        <time>2022-03-21T08:39:53Z</time>
      </trkpt>
      <trkpt lat="46.89327" lon="5.35384">
        <ele>197.4</ele>
        <time>2022-03-21T08:39:54Z</time>
      </trkpt>
      <trkpt lat="46.89337" lon="5.3538">
        <ele>197.4</ele>
        <time>2022-03-21T08:39:55Z</time>
      </trkpt>
      <trkpt lat="46.89347" lon="5.35378">
        <ele>197.4</ele>
        <time>2022-03-21T08:39:56Z</time>
      </trkpt>
      <trkpt lat="46.89357" lon="5.35375">
        <ele>197.4</ele>
        <time>2022-03-21T08:39:57Z</time>
      </trkpt>
      <trkpt lat="46.89367" lon="5.35373">
        <ele>197</ele>
        <time>2022-03-21T08:39:58Z</time>
      </trkpt>
      <trkpt lat="46.89376" lon="5.35369">
        <ele>197</ele>
        <time>2022-03-21T08:39:59Z</time>
      </trkpt>
      <trkpt lat="46.89386" lon="5.35367">
        <ele>197</ele>
        <time>2022-03-21T08:40:00Z</time>
      </trkpt>
      <trkpt lat="46.89396" lon="5.35363">
        <ele>196.8</ele>
        <time>2022-03-21T08:40:01Z</time>
      </trkpt>
      <trkpt lat="46.89405" lon="5.3536">
        <ele>196.8</ele>
        <time>2022-03-21T08:40:02Z</time>
      </trkpt>
      <trkpt lat="46.89414" lon="5.35358">
        <ele>196.8</ele>
        <time>2022-03-21T08:40:03Z</time>
      </trkpt>
      <trkpt lat="46.89424" lon="5.35355">
        <ele>196.8</ele>
        <time>2022-03-21T08:40:04Z</time>
      </trkpt>
      <trkpt lat="46.89433" lon="5.35353">
        <ele>196.8</ele>
        <time>2022-03-21T08:40:05Z</time>
      </trkpt>
      <trkpt lat="46.89442" lon="5.35351">
        <ele>196.8</ele>
        <time>2022-03-21T08:40:06Z</time>
      </trkpt>
      <trkpt lat="46.89451" lon="5.35348">
        <ele>196.8</ele>
        <time>2022-03-21T08:40:07Z</time>
      </trkpt>
      <trkpt lat="46.89459" lon="5.35345">
        <ele>196.8</ele>
        <time>2022-03-21T08:40:08Z</time>
      </trkpt>
      <trkpt lat="46.89469" lon="5.35344">
        <ele>196.8</ele>
        <time>2022-03-21T08:40:09Z</time>
      </trkpt>
      <trkpt lat="46.89477" lon="5.35342">
        <ele>196.8</ele>
        <time>2022-03-21T08:40:10Z</time>
      </trkpt>
      <trkpt lat="46.89486" lon="5.3534">
        <ele>196.8</ele>
        <time>2022-03-21T08:40:11Z</time>
      </trkpt>
      <trkpt lat="46.89494" lon="5.35338">
        <ele>196.8</ele>
        <time>2022-03-21T08:40:12Z</time>
      </trkpt>
      <trkpt lat="46.89503" lon="5.35335">
        <ele>196.8</ele>
        <time>2022-03-21T08:40:13Z</time>
      </trkpt>
      <trkpt lat="46.89511" lon="5.35332">
        <ele>196.8</ele>
        <time>2022-03-21T08:40:14Z</time>
      </trkpt>
      <trkpt lat="46.89519" lon="5.3533">
        <ele>197</ele>
        <time>2022-03-21T08:40:15Z</time>
      </trkpt>
      <trkpt lat="46.89528" lon="5.35328">
        <ele>197</ele>
        <time>2022-03-21T08:40:16Z</time>
      </trkpt>
      <trkpt lat="46.89536" lon="5.35326">
        <ele>197</ele>
        <time>2022-03-21T08:40:17Z</time>
      </trkpt>
      <trkpt lat="46.89544" lon="5.35323">
        <ele>197</ele>
        <time>2022-03-21T08:40:18Z</time>
      </trkpt>
      <trkpt lat="46.89553" lon="5.35321">
        <ele>197</ele>
        <time>2022-03-21T08:40:19Z</time>
      </trkpt>
      <trkpt lat="46.89561" lon="5.35318">
        <ele>197</ele>
        <time>2022-03-21T08:40:20Z</time>
      </trkpt>
      <trkpt lat="46.89569" lon="5.35316">
        <ele>197</ele>
        <time>2022-03-21T08:40:21Z</time>
      </trkpt>
      <trkpt lat="46.89577" lon="5.35314">
        <ele>197</ele>
        <time>2022-03-21T08:40:22Z</time>
      </trkpt>
      <trkpt lat="46.89585" lon="5.35311">
        <ele>197</ele>
        <time>2022-03-21T08:40:23Z</time>
      </trkpt>
      <trkpt lat="46.89593" lon="5.35309">
        <ele>197</ele>
        <time>2022-03-21T08:40:24Z</time>
      </trkpt>
      <trkpt lat="46.89601" lon="5.35307">
        <ele>197.4</ele>
        <time>2022-03-21T08:40:25Z</time>
      </trkpt>
      <trkpt lat="46.89609" lon="5.35305">
        <ele>197.4</ele>
        <time>2022-03-21T08:40:26Z</time>
      </trkpt>
      <trkpt lat="46.89617" lon="5.35303">
        <ele>197.6</ele>
        <time>2022-03-21T08:40:27Z</time>
      </trkpt>
      <trkpt lat="46.89625" lon="5.353">
        <ele>197.6</ele>
        <time>2022-03-21T08:40:28Z</time>
      </trkpt>
      <trkpt lat="46.89633" lon="5.35298">
        <ele>197.8</ele>
        <time>2022-03-21T08:40:29Z</time>
      </trkpt>
      <trkpt lat="46.8964" lon="5.35296">
        <ele>197.8</ele>
        <time>2022-03-21T08:40:30Z</time>
      </trkpt>
      <trkpt lat="46.89648" lon="5.35293">
        <ele>198.2</ele>
        <time>2022-03-21T08:40:31Z</time>
      </trkpt>
      <trkpt lat="46.89656" lon="5.35292">
        <ele>198.2</ele>
        <time>2022-03-21T08:40:32Z</time>
      </trkpt>
      <trkpt lat="46.89663" lon="5.35289">
        <ele>198.4</ele>
        <time>2022-03-21T08:40:33Z</time>
      </trkpt>
      <trkpt lat="46.89671" lon="5.35287">
        <ele>198.4</ele>
        <time>2022-03-21T08:40:34Z</time>
      </trkpt>
      <trkpt lat="46.89678" lon="5.35285">
        <ele>198.4</ele>
        <time>2022-03-21T08:40:35Z</time>
      </trkpt>
      <trkpt lat="46.89686" lon="5.35282">
        <ele>198.4</ele>
        <time>2022-03-21T08:40:36Z</time>
      </trkpt>
      <trkpt lat="46.89694" lon="5.3528">
        <ele>198.6</ele>
        <time>2022-03-21T08:40:37Z</time>
      </trkpt>
      <trkpt lat="46.89701" lon="5.35277">
        <ele>198.6</ele>
        <time>2022-03-21T08:40:38Z</time>
      </trkpt>
      <trkpt lat="46.89708" lon="5.35275">
        <ele>198.6</ele>
        <time>2022-03-21T08:40:39Z</time>
      </trkpt>
      <trkpt lat="46.89716" lon="5.35273">
        <ele>198.6</ele>
        <time>2022-03-21T08:40:40Z</time>
      </trkpt>
      <trkpt lat="46.89723" lon="5.35271">
        <ele>198.6</ele>
        <time>2022-03-21T08:40:41Z</time>
      </trkpt>
      <trkpt lat="46.89731" lon="5.35269">
        <ele>198.6</ele>
        <time>2022-03-21T08:40:42Z</time>
      </trkpt>
      <trkpt lat="46.89739" lon="5.35266">
        <ele>199</ele>
        <time>2022-03-21T08:40:43Z</time>
      </trkpt>
      <trkpt lat="46.89746" lon="5.35264">
        <ele>199</ele>
        <time>2022-03-21T08:40:44Z</time>
      </trkpt>
      <trkpt lat="46.89753" lon="5.35262">
        <ele>199.2</ele>
        <time>2022-03-21T08:40:45Z</time>
      </trkpt>
      <trkpt lat="46.89761" lon="5.35259">
        <ele>199.4</ele>
        <time>2022-03-21T08:40:46Z</time>
      </trkpt>
      <trkpt lat="46.89768" lon="5.35257">
        <ele>199.4</ele>
        <time>2022-03-21T08:40:47Z</time>
      </trkpt>
      <trkpt lat="46.89774" lon="5.35256">
        <ele>199.8</ele>
        <time>2022-03-21T08:40:48Z</time>
      </trkpt>
      <trkpt lat="46.89781" lon="5.35253">
        <ele>199.8</ele>
        <time>2022-03-21T08:40:49Z</time>
      </trkpt>
      <trkpt lat="46.89787" lon="5.35251">
        <ele>200.2</ele>
        <time>2022-03-21T08:40:50Z</time>
      </trkpt>
      <trkpt lat="46.89794" lon="5.35249">
        <ele>200.2</ele>
        <time>2022-03-21T08:40:51Z</time>
      </trkpt>
      <trkpt lat="46.89801" lon="5.35248">
        <ele>200.2</ele>
        <time>2022-03-21T08:40:52Z</time>
      </trkpt>
      <trkpt lat="46.89807" lon="5.35246">
        <ele>200.4</ele>
        <time>2022-03-21T08:40:53Z</time>
      </trkpt>
      <trkpt lat="46.89814" lon="5.35244">
        <ele>200.4</ele>
        <time>2022-03-21T08:40:54Z</time>
      </trkpt>
      <trkpt lat="46.8982" lon="5.35242">
        <ele>201</ele>
        <time>2022-03-21T08:40:55Z</time>
      </trkpt>
      <trkpt lat="46.89827" lon="5.3524">
        <ele>201</ele>
        <time>2022-03-21T08:40:56Z</time>
      </trkpt>
      <trkpt lat="46.89834" lon="5.35238">
        <ele>201.2</ele>
        <time>2022-03-21T08:40:57Z</time>
      </trkpt>
      <trkpt lat="46.8984" lon="5.35236">
        <ele>201.6</ele>
        <time>2022-03-21T08:40:58Z</time>
      </trkpt>
      <trkpt lat="46.89846" lon="5.35234">
        <ele>201.6</ele>
        <time>2022-03-21T08:40:59Z</time>
      </trkpt>
      <trkpt lat="46.89853" lon="5.35232">
        <ele>202</ele>
        <time>2022-03-21T08:41:00Z</time>
      </trkpt>
      <trkpt lat="46.89859" lon="5.35231">
        <ele>202.2</ele>
        <time>2022-03-21T08:41:01Z</time>
      </trkpt>
      <trkpt lat="46.89865" lon="5.35229">
        <ele>202.4</ele>
        <time>2022-03-21T08:41:02Z</time>
      </trkpt>
      <trkpt lat="46.89872" lon="5.35228">
        <ele>202.8</ele>
        <time>2022-03-21T08:41:03Z</time>
      </trkpt>
      <trkpt lat="46.89878" lon="5.35226">
        <ele>202.8</ele>
        <time>2022-03-21T08:41:04Z</time>
      </trkpt>
      <trkpt lat="46.89884" lon="5.35225">
        <ele>203.2</ele>
        <time>2022-03-21T08:41:05Z</time>
      </trkpt>
      <trkpt lat="46.8989" lon="5.35223">
        <ele>203.2</ele>
        <time>2022-03-21T08:41:06Z</time>
      </trkpt>
      <trkpt lat="46.89896" lon="5.35221">
        <ele>203.6</ele>
        <time>2022-03-21T08:41:07Z</time>
      </trkpt>
      <trkpt lat="46.89903" lon="5.35219">
        <ele>203.8</ele>
        <time>2022-03-21T08:41:08Z</time>
      </trkpt>
      <trkpt lat="46.89908" lon="5.35218">
        <ele>203.8</ele>
        <time>2022-03-21T08:41:09Z</time>
      </trkpt>
      <trkpt lat="46.89914" lon="5.35216">
        <ele>204.4</ele>
        <time>2022-03-21T08:41:10Z</time>
      </trkpt>
      <trkpt lat="46.8992" lon="5.35214">
        <ele>204.4</ele>
        <time>2022-03-21T08:41:11Z</time>
      </trkpt>
      <trkpt lat="46.89926" lon="5.35213">
        <ele>204.6</ele>
        <time>2022-03-21T08:41:12Z</time>
      </trkpt>
      <trkpt lat="46.89932" lon="5.35211">
        <ele>204.6</ele>
        <time>2022-03-21T08:41:13Z</time>
      </trkpt>
      <trkpt lat="46.89937" lon="5.3521">
        <ele>205</ele>
        <time>2022-03-21T08:41:14Z</time>
      </trkpt>
      <trkpt lat="46.89943" lon="5.35208">
        <ele>205</ele>
        <time>2022-03-21T08:41:15Z</time>
      </trkpt>
      <trkpt lat="46.89948" lon="5.35207">
        <ele>205.4</ele>
        <time>2022-03-21T08:41:16Z</time>
      </trkpt>
      <trkpt lat="46.89953" lon="5.35206">
        <ele>205.6</ele>
        <time>2022-03-21T08:41:17Z</time>
      </trkpt>
      <trkpt lat="46.89959" lon="5.35204">
        <ele>205.6</ele>
        <time>2022-03-21T08:41:18Z</time>
      </trkpt>
      <trkpt lat="46.89964" lon="5.35203">
        <ele>205.8</ele>
        <time>2022-03-21T08:41:19Z</time>
      </trkpt>
      <trkpt lat="46.89969" lon="5.35201">
        <ele>206</ele>
        <time>2022-03-21T08:41:20Z</time>
      </trkpt>
      <trkpt lat="46.89974" lon="5.35199">
        <ele>206</ele>
        <time>2022-03-21T08:41:21Z</time>
      </trkpt>
      <trkpt lat="46.8998" lon="5.35197">
        <ele>206.4</ele>
        <time>2022-03-21T08:41:22Z</time>
      </trkpt>
      <trkpt lat="46.89985" lon="5.35196">
        <ele>206.4</ele>
        <time>2022-03-21T08:41:23Z</time>
      </trkpt>
      <trkpt lat="46.89991" lon="5.35194">
        <ele>206.6</ele>
        <time>2022-03-21T08:41:24Z</time>
      </trkpt>
      <trkpt lat="46.89996" lon="5.35192">
        <ele>206.6</ele>
        <time>2022-03-21T08:41:25Z</time>
      </trkpt>
      <trkpt lat="46.90002" lon="5.3519">
        <ele>206.6</ele>
        <time>2022-03-21T08:41:26Z</time>
      </trkpt>
      <trkpt lat="46.90008" lon="5.35188">
        <ele>206.6</ele>
        <time>2022-03-21T08:41:27Z</time>
      </trkpt>
      <trkpt lat="46.90014" lon="5.35185">
        <ele>206.8</ele>
        <time>2022-03-21T08:41:28Z</time>
      </trkpt>
      <trkpt lat="46.9002" lon="5.35183">
        <ele>206.8</ele>
        <time>2022-03-21T08:41:29Z</time>
      </trkpt>
      <trkpt lat="46.90026" lon="5.35181">
        <ele>206.8</ele>
        <time>2022-03-21T08:41:30Z</time>
      </trkpt>
      <trkpt lat="46.90033" lon="5.35178">
        <ele>206.8</ele>
        <time>2022-03-21T08:41:31Z</time>
      </trkpt>
      <trkpt lat="46.9004" lon="5.35176">
        <ele>206.8</ele>
        <time>2022-03-21T08:41:32Z</time>
      </trkpt>
      <trkpt lat="46.90047" lon="5.35173">
        <ele>206.8</ele>
        <time>2022-03-21T08:41:33Z</time>
      </trkpt>
      <trkpt lat="46.90054" lon="5.35171">
        <ele>206.6</ele>
        <time>2022-03-21T08:41:34Z</time>
      </trkpt>
      <trkpt lat="46.90061" lon="5.35169">
        <ele>206.6</ele>
        <time>2022-03-21T08:41:35Z</time>
      </trkpt>
      <trkpt lat="46.90068" lon="5.35167">
        <ele>206.6</ele>
        <time>2022-03-21T08:41:36Z</time>
      </trkpt>
      <trkpt lat="46.90075" lon="5.35165">
        <ele>206.2</ele>
        <time>2022-03-21T08:41:37Z</time>
      </trkpt>
      <trkpt lat="46.90082" lon="5.35164">
        <ele>206.2</ele>
        <time>2022-03-21T08:41:38Z</time>
      </trkpt>
      <trkpt lat="46.90089" lon="5.35162">
        <ele>206</ele>
        <time>2022-03-21T08:41:39Z</time>
      </trkpt>
      <trkpt lat="46.90097" lon="5.3516">
        <ele>206</ele>
        <time>2022-03-21T08:41:40Z</time>
      </trkpt>
      <trkpt lat="46.90104" lon="5.35158">
        <ele>205.8</ele>
        <time>2022-03-21T08:41:41Z</time>
      </trkpt>
      <trkpt lat="46.90111" lon="5.35156">
        <ele>205.8</ele>
        <time>2022-03-21T08:41:42Z</time>
      </trkpt>
      <trkpt lat="46.90119" lon="5.35154">
        <ele>205.8</ele>
        <time>2022-03-21T08:41:43Z</time>
      </trkpt>
      <trkpt lat="46.90127" lon="5.35151">
        <ele>205.4</ele>
        <time>2022-03-21T08:41:44Z</time>
      </trkpt>
      <trkpt lat="46.90134" lon="5.35149">
        <ele>205.4</ele>
        <time>2022-03-21T08:41:45Z</time>
      </trkpt>
      <trkpt lat="46.90142" lon="5.35147">
        <ele>205.2</ele>
        <time>2022-03-21T08:41:46Z</time>
      </trkpt>
      <trkpt lat="46.9015" lon="5.35144">
        <ele>205.2</ele>
        <time>2022-03-21T08:41:47Z</time>
      </trkpt>
      <trkpt lat="46.90157" lon="5.35142">
        <ele>205</ele>
        <time>2022-03-21T08:41:48Z</time>
      </trkpt>
      <trkpt lat="46.90165" lon="5.3514">
        <ele>205</ele>
        <time>2022-03-21T08:41:49Z</time>
      </trkpt>
      <trkpt lat="46.90174" lon="5.35138">
        <ele>204.8</ele>
        <time>2022-03-21T08:41:50Z</time>
      </trkpt>
      <trkpt lat="46.90182" lon="5.35136">
        <ele>204.8</ele>
        <time>2022-03-21T08:41:51Z</time>
      </trkpt>
      <trkpt lat="46.9019" lon="5.35133">
        <ele>204.8</ele>
        <time>2022-03-21T08:41:52Z</time>
      </trkpt>
      <trkpt lat="46.90198" lon="5.3513">
        <ele>204.8</ele>
        <time>2022-03-21T08:41:53Z</time>
      </trkpt>
      <trkpt lat="46.90205" lon="5.35127">
        <ele>204.8</ele>
        <time>2022-03-21T08:41:54Z</time>
      </trkpt>
      <trkpt lat="46.90213" lon="5.35124">
        <ele>204.8</ele>
        <time>2022-03-21T08:41:55Z</time>
      </trkpt>
      <trkpt lat="46.90221" lon="5.35122">
        <ele>205</ele>
        <time>2022-03-21T08:41:56Z</time>
      </trkpt>
      <trkpt lat="46.90228" lon="5.35119">
        <ele>205</ele>
        <time>2022-03-21T08:41:57Z</time>
      </trkpt>
      <trkpt lat="46.90235" lon="5.35117">
        <ele>205.2</ele>
        <time>2022-03-21T08:41:58Z</time>
      </trkpt>
      <trkpt lat="46.90242" lon="5.35115">
        <ele>205.2</ele>
        <time>2022-03-21T08:41:59Z</time>
      </trkpt>
      <trkpt lat="46.90249" lon="5.35112">
        <ele>205.8</ele>
        <time>2022-03-21T08:42:00Z</time>
      </trkpt>
      <trkpt lat="46.90255" lon="5.3511">
        <ele>206</ele>
        <time>2022-03-21T08:42:01Z</time>
      </trkpt>
      <trkpt lat="46.90261" lon="5.35108">
        <ele>206</ele>
        <time>2022-03-21T08:42:02Z</time>
      </trkpt>
      <trkpt lat="46.90267" lon="5.35106">
        <ele>206.4</ele>
        <time>2022-03-21T08:42:03Z</time>
      </trkpt>
      <trkpt lat="46.90273" lon="5.35105">
        <ele>206.6</ele>
        <time>2022-03-21T08:42:04Z</time>
      </trkpt>
      <trkpt lat="46.90279" lon="5.35103">
        <ele>206.8</ele>
        <time>2022-03-21T08:42:05Z</time>
      </trkpt>
      <trkpt lat="46.90285" lon="5.35101">
        <ele>207</ele>
        <time>2022-03-21T08:42:06Z</time>
      </trkpt>
      <trkpt lat="46.90291" lon="5.35099">
        <ele>207.4</ele>
        <time>2022-03-21T08:42:07Z</time>
      </trkpt>
      <trkpt lat="46.90298" lon="5.35097">
        <ele>207.4</ele>
        <time>2022-03-21T08:42:08Z</time>
      </trkpt>
      <trkpt lat="46.90304" lon="5.35095">
        <ele>207.8</ele>
        <time>2022-03-21T08:42:09Z</time>
      </trkpt>
      <trkpt lat="46.90309" lon="5.35094">
        <ele>208</ele>
        <time>2022-03-21T08:42:10Z</time>
      </trkpt>
      <trkpt lat="46.90315" lon="5.35092">
        <ele>208.4</ele>
        <time>2022-03-21T08:42:12Z</time>
      </trkpt>
      <trkpt lat="46.9032" lon="5.35091">
        <ele>208.6</ele>
        <time>2022-03-21T08:42:13Z</time>
      </trkpt>
      <trkpt lat="46.90326" lon="5.35089">
        <ele>208.8</ele>
        <time>2022-03-21T08:42:14Z</time>
      </trkpt>
      <trkpt lat="46.90331" lon="5.35087">
        <ele>208.8</ele>
        <time>2022-03-21T08:42:15Z</time>
      </trkpt>
      <trkpt lat="46.90337" lon="5.35086">
        <ele>209.2</ele>
        <time>2022-03-21T08:42:16Z</time>
      </trkpt>
      <trkpt lat="46.90343" lon="5.35084">
        <ele>209.4</ele>
        <time>2022-03-21T08:42:17Z</time>
      </trkpt>
      <trkpt lat="46.90348" lon="5.35082">
        <ele>209.6</ele>
        <time>2022-03-21T08:42:18Z</time>
      </trkpt>
      <trkpt lat="46.90354" lon="5.3508">
        <ele>210</ele>
        <time>2022-03-21T08:42:19Z</time>
      </trkpt>
      <trkpt lat="46.90359" lon="5.35078">
        <ele>210.2</ele>
        <time>2022-03-21T08:42:20Z</time>
      </trkpt>
      <trkpt lat="46.90365" lon="5.35077">
        <ele>210.4</ele>
        <time>2022-03-21T08:42:21Z</time>
      </trkpt>
      <trkpt lat="46.9037" lon="5.35075">
        <ele>210.6</ele>
        <time>2022-03-21T08:42:22Z</time>
      </trkpt>
      <trkpt lat="46.90375" lon="5.35073">
        <ele>210.6</ele>
        <time>2022-03-21T08:42:23Z</time>
      </trkpt>
      <trkpt lat="46.9038" lon="5.35071">
        <ele>211</ele>
        <time>2022-03-21T08:42:24Z</time>
      </trkpt>
      <trkpt lat="46.90385" lon="5.35069">
        <ele>211</ele>
        <time>2022-03-21T08:42:25Z</time>
      </trkpt>
      <trkpt lat="46.9039" lon="5.35067">
        <ele>211.2</ele>
        <time>2022-03-21T08:42:26Z</time>
      </trkpt>
      <trkpt lat="46.90395" lon="5.35066">
        <ele>211.2</ele>
        <time>2022-03-21T08:42:27Z</time>
      </trkpt>
      <trkpt lat="46.90406" lon="5.35062">
        <ele>211.6</ele>
        <time>2022-03-21T08:42:28Z</time>
      </trkpt>
      <trkpt lat="46.90411" lon="5.3506">
        <ele>211.6</ele>
        <time>2022-03-21T08:42:29Z</time>
      </trkpt>
      <trkpt lat="46.90417" lon="5.35058">
        <ele>211.6</ele>
        <time>2022-03-21T08:42:30Z</time>
      </trkpt>
      <trkpt lat="46.90422" lon="5.35057">
        <ele>211.8</ele>
        <time>2022-03-21T08:42:31Z</time>
      </trkpt>
      <trkpt lat="46.90428" lon="5.35055">
        <ele>211.8</ele>
        <time>2022-03-21T08:42:32Z</time>
      </trkpt>
      <trkpt lat="46.90434" lon="5.35054">
        <ele>211.8</ele>
        <time>2022-03-21T08:42:33Z</time>
      </trkpt>
      <trkpt lat="46.9044" lon="5.35052">
        <ele>212</ele>
        <time>2022-03-21T08:42:34Z</time>
      </trkpt>
      <trkpt lat="46.90446" lon="5.3505">
        <ele>212</ele>
        <time>2022-03-21T08:42:35Z</time>
      </trkpt>
      <trkpt lat="46.90451" lon="5.35048">
        <ele>212</ele>
        <time>2022-03-21T08:42:36Z</time>
      </trkpt>
      <trkpt lat="46.90457" lon="5.35046">
        <ele>212</ele>
        <time>2022-03-21T08:42:37Z</time>
      </trkpt>
      <trkpt lat="46.90463" lon="5.35044">
        <ele>212.2</ele>
        <time>2022-03-21T08:42:38Z</time>
      </trkpt>
      <trkpt lat="46.90469" lon="5.35041">
        <ele>212.2</ele>
        <time>2022-03-21T08:42:39Z</time>
      </trkpt>
      <trkpt lat="46.90475" lon="5.35039">
        <ele>212.2</ele>
        <time>2022-03-21T08:42:40Z</time>
      </trkpt>
      <trkpt lat="46.90481" lon="5.35037">
        <ele>212.4</ele>
        <time>2022-03-21T08:42:41Z</time>
      </trkpt>
      <trkpt lat="46.90486" lon="5.35034">
        <ele>212.4</ele>
        <time>2022-03-21T08:42:42Z</time>
      </trkpt>
      <trkpt lat="46.90492" lon="5.35032">
        <ele>212.4</ele>
        <time>2022-03-21T08:42:43Z</time>
      </trkpt>
      <trkpt lat="46.90498" lon="5.35029">
        <ele>212.4</ele>
        <time>2022-03-21T08:42:44Z</time>
      </trkpt>
      <trkpt lat="46.90504" lon="5.35027">
        <ele>212.4</ele>
        <time>2022-03-21T08:42:45Z</time>
      </trkpt>
      <trkpt lat="46.9051" lon="5.35024">
        <ele>212.4</ele>
        <time>2022-03-21T08:42:46Z</time>
      </trkpt>
      <trkpt lat="46.90516" lon="5.35022">
        <ele>212.8</ele>
        <time>2022-03-21T08:42:47Z</time>
      </trkpt>
      <trkpt lat="46.90522" lon="5.3502">
        <ele>212.8</ele>
        <time>2022-03-21T08:42:48Z</time>
      </trkpt>
      <trkpt lat="46.90528" lon="5.35018">
        <ele>212.8</ele>
        <time>2022-03-21T08:42:49Z</time>
      </trkpt>
      <trkpt lat="46.90535" lon="5.35016">
        <ele>212.8</ele>
        <time>2022-03-21T08:42:50Z</time>
      </trkpt>
      <trkpt lat="46.90541" lon="5.35014">
        <ele>212.8</ele>
        <time>2022-03-21T08:42:51Z</time>
      </trkpt>
      <trkpt lat="46.90547" lon="5.35012">
        <ele>212.8</ele>
        <time>2022-03-21T08:42:52Z</time>
      </trkpt>
      <trkpt lat="46.90554" lon="5.3501">
        <ele>213</ele>
        <time>2022-03-21T08:42:53Z</time>
      </trkpt>
      <trkpt lat="46.9056" lon="5.35008">
        <ele>213</ele>
        <time>2022-03-21T08:42:54Z</time>
      </trkpt>
      <trkpt lat="46.90567" lon="5.35006">
        <ele>213</ele>
        <time>2022-03-21T08:42:55Z</time>
      </trkpt>
      <trkpt lat="46.90573" lon="5.35003">
        <ele>213</ele>
        <time>2022-03-21T08:42:56Z</time>
      </trkpt>
      <trkpt lat="46.9058" lon="5.35001">
        <ele>213</ele>
        <time>2022-03-21T08:42:57Z</time>
      </trkpt>
      <trkpt lat="46.90586" lon="5.34999">
        <ele>213</ele>
        <time>2022-03-21T08:42:58Z</time>
      </trkpt>
      <trkpt lat="46.90593" lon="5.34996">
        <ele>213</ele>
        <time>2022-03-21T08:42:59Z</time>
      </trkpt>
      <trkpt lat="46.906" lon="5.34994">
        <ele>212.8</ele>
        <time>2022-03-21T08:43:00Z</time>
      </trkpt>
      <trkpt lat="46.90607" lon="5.34992">
        <ele>212.8</ele>
        <time>2022-03-21T08:43:01Z</time>
      </trkpt>
      <trkpt lat="46.90614" lon="5.34989">
        <ele>212.8</ele>
        <time>2022-03-21T08:43:02Z</time>
      </trkpt>
      <trkpt lat="46.90621" lon="5.34986">
        <ele>212.8</ele>
        <time>2022-03-21T08:43:03Z</time>
      </trkpt>
      <trkpt lat="46.90628" lon="5.34984">
        <ele>212.8</ele>
        <time>2022-03-21T08:43:04Z</time>
      </trkpt>
      <trkpt lat="46.90635" lon="5.34982">
        <ele>212.8</ele>
        <time>2022-03-21T08:43:05Z</time>
      </trkpt>
      <trkpt lat="46.90643" lon="5.3498">
        <ele>212.8</ele>
        <time>2022-03-21T08:43:06Z</time>
      </trkpt>
      <trkpt lat="46.9065" lon="5.34977">
        <ele>212.8</ele>
        <time>2022-03-21T08:43:07Z</time>
      </trkpt>
      <trkpt lat="46.90656" lon="5.34975">
        <ele>212.8</ele>
        <time>2022-03-21T08:43:08Z</time>
      </trkpt>
      <trkpt lat="46.90663" lon="5.34972">
        <ele>212.8</ele>
        <time>2022-03-21T08:43:09Z</time>
      </trkpt>
      <trkpt lat="46.9067" lon="5.34969">
        <ele>212.8</ele>
        <time>2022-03-21T08:43:10Z</time>
      </trkpt>
      <trkpt lat="46.90677" lon="5.34966">
        <ele>212.8</ele>
        <time>2022-03-21T08:43:11Z</time>
      </trkpt>
      <trkpt lat="46.90685" lon="5.34963">
        <ele>212.8</ele>
        <time>2022-03-21T08:43:12Z</time>
      </trkpt>
      <trkpt lat="46.90692" lon="5.3496">
        <ele>212.8</ele>
        <time>2022-03-21T08:43:13Z</time>
      </trkpt>
      <trkpt lat="46.90699" lon="5.34957">
        <ele>212.8</ele>
        <time>2022-03-21T08:43:14Z</time>
      </trkpt>
      <trkpt lat="46.90705" lon="5.34955">
        <ele>213</ele>
        <time>2022-03-21T08:43:15Z</time>
      </trkpt>
      <trkpt lat="46.90712" lon="5.34953">
        <ele>213</ele>
        <time>2022-03-21T08:43:16Z</time>
      </trkpt>
      <trkpt lat="46.90719" lon="5.34951">
        <ele>213</ele>
        <time>2022-03-21T08:43:17Z</time>
      </trkpt>
      <trkpt lat="46.90726" lon="5.34949">
        <ele>213</ele>
        <time>2022-03-21T08:43:18Z</time>
      </trkpt>
      <trkpt lat="46.90733" lon="5.34947">
        <ele>213</ele>
        <time>2022-03-21T08:43:19Z</time>
      </trkpt>
      <trkpt lat="46.90739" lon="5.34945">
        <ele>213</ele>
        <time>2022-03-21T08:43:20Z</time>
      </trkpt>
      <trkpt lat="46.90746" lon="5.34942">
        <ele>213</ele>
        <time>2022-03-21T08:43:21Z</time>
      </trkpt>
      <trkpt lat="46.90753" lon="5.3494">
        <ele>213</ele>
        <time>2022-03-21T08:43:22Z</time>
      </trkpt>
      <trkpt lat="46.9076" lon="5.34938">
        <ele>213</ele>
        <time>2022-03-21T08:43:23Z</time>
      </trkpt>
      <trkpt lat="46.90767" lon="5.34936">
        <ele>213</ele>
        <time>2022-03-21T08:43:24Z</time>
      </trkpt>
      <trkpt lat="46.90774" lon="5.34934">
        <ele>213</ele>
        <time>2022-03-21T08:43:25Z</time>
      </trkpt>
      <trkpt lat="46.90781" lon="5.34932">
        <ele>213</ele>
        <time>2022-03-21T08:43:26Z</time>
      </trkpt>
      <trkpt lat="46.90788" lon="5.3493">
        <ele>213</ele>
        <time>2022-03-21T08:43:27Z</time>
      </trkpt>
      <trkpt lat="46.90795" lon="5.34928">
        <ele>213</ele>
        <time>2022-03-21T08:43:28Z</time>
      </trkpt>
      <trkpt lat="46.90801" lon="5.34925">
        <ele>213</ele>
        <time>2022-03-21T08:43:29Z</time>
      </trkpt>
      <trkpt lat="46.90808" lon="5.34922">
        <ele>213</ele>
        <time>2022-03-21T08:43:30Z</time>
      </trkpt>
      <trkpt lat="46.90815" lon="5.3492">
        <ele>213</ele>
        <time>2022-03-21T08:43:31Z</time>
      </trkpt>
      <trkpt lat="46.90822" lon="5.34918">
        <ele>213</ele>
        <time>2022-03-21T08:43:32Z</time>
      </trkpt>
      <trkpt lat="46.90829" lon="5.34915">
        <ele>213</ele>
        <time>2022-03-21T08:43:33Z</time>
      </trkpt>
      <trkpt lat="46.90836" lon="5.34912">
        <ele>213</ele>
        <time>2022-03-21T08:43:34Z</time>
      </trkpt>
      <trkpt lat="46.90843" lon="5.34909">
        <ele>213</ele>
        <time>2022-03-21T08:43:35Z</time>
      </trkpt>
      <trkpt lat="46.9085" lon="5.34907">
        <ele>213</ele>
        <time>2022-03-21T08:43:36Z</time>
      </trkpt>
      <trkpt lat="46.90857" lon="5.34904">
        <ele>213</ele>
        <time>2022-03-21T08:43:37Z</time>
      </trkpt>
      <trkpt lat="46.90864" lon="5.34902">
        <ele>213.2</ele>
        <time>2022-03-21T08:43:38Z</time>
      </trkpt>
      <trkpt lat="46.90871" lon="5.34899">
        <ele>213.2</ele>
        <time>2022-03-21T08:43:39Z</time>
      </trkpt>
      <trkpt lat="46.90878" lon="5.34896">
        <ele>213.2</ele>
        <time>2022-03-21T08:43:40Z</time>
      </trkpt>
      <trkpt lat="46.90885" lon="5.34894">
        <ele>213.2</ele>
        <time>2022-03-21T08:43:41Z</time>
      </trkpt>
      <trkpt lat="46.90892" lon="5.34892">
        <ele>213.2</ele>
        <time>2022-03-21T08:43:42Z</time>
      </trkpt>
      <trkpt lat="46.90898" lon="5.3489">
        <ele>213.2</ele>
        <time>2022-03-21T08:43:43Z</time>
      </trkpt>
      <trkpt lat="46.90905" lon="5.34888">
        <ele>213.2</ele>
        <time>2022-03-21T08:43:44Z</time>
      </trkpt>
      <trkpt lat="46.90912" lon="5.34886">
        <ele>213.2</ele>
        <time>2022-03-21T08:43:45Z</time>
      </trkpt>
      <trkpt lat="46.90919" lon="5.34884">
        <ele>213.2</ele>
        <time>2022-03-21T08:43:46Z</time>
      </trkpt>
      <trkpt lat="46.90926" lon="5.34881">
        <ele>213.2</ele>
        <time>2022-03-21T08:43:47Z</time>
      </trkpt>
      <trkpt lat="46.90933" lon="5.34879">
        <ele>213.2</ele>
        <time>2022-03-21T08:43:48Z</time>
      </trkpt>
      <trkpt lat="46.90941" lon="5.34876">
        <ele>213.2</ele>
        <time>2022-03-21T08:43:49Z</time>
      </trkpt>
      <trkpt lat="46.90948" lon="5.34874">
        <ele>213.2</ele>
        <time>2022-03-21T08:43:50Z</time>
      </trkpt>
      <trkpt lat="46.90955" lon="5.34871">
        <ele>213.2</ele>
        <time>2022-03-21T08:43:51Z</time>
      </trkpt>
      <trkpt lat="46.90962" lon="5.34869">
        <ele>213.2</ele>
        <time>2022-03-21T08:43:52Z</time>
      </trkpt>
      <trkpt lat="46.90969" lon="5.34866">
        <ele>213.2</ele>
        <time>2022-03-21T08:43:53Z</time>
      </trkpt>
      <trkpt lat="46.90977" lon="5.34864">
        <ele>213.2</ele>
        <time>2022-03-21T08:43:54Z</time>
      </trkpt>
      <trkpt lat="46.90984" lon="5.34861">
        <ele>213.2</ele>
        <time>2022-03-21T08:43:55Z</time>
      </trkpt>
      <trkpt lat="46.90991" lon="5.34859">
        <ele>213.2</ele>
        <time>2022-03-21T08:43:56Z</time>
      </trkpt>
      <trkpt lat="46.90998" lon="5.34856">
        <ele>213.2</ele>
        <time>2022-03-21T08:43:57Z</time>
      </trkpt>
      <trkpt lat="46.91006" lon="5.34854">
        <ele>213.2</ele>
        <time>2022-03-21T08:43:58Z</time>
      </trkpt>
      <trkpt lat="46.91013" lon="5.34851">
        <ele>213.2</ele>
        <time>2022-03-21T08:43:59Z</time>
      </trkpt>
      <trkpt lat="46.91021" lon="5.34849">
        <ele>213.2</ele>
        <time>2022-03-21T08:44:00Z</time>
      </trkpt>
      <trkpt lat="46.91028" lon="5.34847">
        <ele>213</ele>
        <time>2022-03-21T08:44:01Z</time>
      </trkpt>
      <trkpt lat="46.91035" lon="5.34845">
        <ele>213</ele>
        <time>2022-03-21T08:44:02Z</time>
      </trkpt>
      <trkpt lat="46.91043" lon="5.34843">
        <ele>213</ele>
        <time>2022-03-21T08:44:03Z</time>
      </trkpt>
      <trkpt lat="46.9105" lon="5.34841">
        <ele>213</ele>
        <time>2022-03-21T08:44:04Z</time>
      </trkpt>
      <trkpt lat="46.91058" lon="5.34838">
        <ele>212.6</ele>
        <time>2022-03-21T08:44:05Z</time>
      </trkpt>
      <trkpt lat="46.91065" lon="5.34835">
        <ele>212.6</ele>
        <time>2022-03-21T08:44:06Z</time>
      </trkpt>
      <trkpt lat="46.91073" lon="5.34832">
        <ele>212.4</ele>
        <time>2022-03-21T08:44:07Z</time>
      </trkpt>
      <trkpt lat="46.91081" lon="5.3483">
        <ele>212.4</ele>
        <time>2022-03-21T08:44:08Z</time>
      </trkpt>
      <trkpt lat="46.9109" lon="5.34827">
        <ele>212.4</ele>
        <time>2022-03-21T08:44:09Z</time>
      </trkpt>
      <trkpt lat="46.91098" lon="5.34824">
        <ele>212.2</ele>
        <time>2022-03-21T08:44:10Z</time>
      </trkpt>
      <trkpt lat="46.91107" lon="5.34821">
        <ele>212</ele>
        <time>2022-03-21T08:44:11Z</time>
      </trkpt>
      <trkpt lat="46.91116" lon="5.34818">
        <ele>211.6</ele>
        <time>2022-03-21T08:44:12Z</time>
      </trkpt>
      <trkpt lat="46.91124" lon="5.34815">
        <ele>211.4</ele>
        <time>2022-03-21T08:44:13Z</time>
      </trkpt>
      <trkpt lat="46.91133" lon="5.34812">
        <ele>211</ele>
        <time>2022-03-21T08:44:14Z</time>
      </trkpt>
      <trkpt lat="46.91143" lon="5.34808">
        <ele>210.8</ele>
        <time>2022-03-21T08:44:15Z</time>
      </trkpt>
      <trkpt lat="46.91152" lon="5.34805">
        <ele>210.4</ele>
        <time>2022-03-21T08:44:16Z</time>
      </trkpt>
      <trkpt lat="46.91162" lon="5.34801">
        <ele>210.2</ele>
        <time>2022-03-21T08:44:17Z</time>
      </trkpt>
      <trkpt lat="46.91171" lon="5.34798">
        <ele>209.8</ele>
        <time>2022-03-21T08:44:18Z</time>
      </trkpt>
      <trkpt lat="46.91181" lon="5.34795">
        <ele>209.4</ele>
        <time>2022-03-21T08:44:19Z</time>
      </trkpt>
      <trkpt lat="46.91191" lon="5.34791">
        <ele>209.2</ele>
        <time>2022-03-21T08:44:20Z</time>
      </trkpt>
      <trkpt lat="46.91201" lon="5.34787">
        <ele>208.8</ele>
        <time>2022-03-21T08:44:21Z</time>
      </trkpt>
      <trkpt lat="46.91211" lon="5.34784">
        <ele>208.4</ele>
        <time>2022-03-21T08:44:22Z</time>
      </trkpt>
      <trkpt lat="46.91222" lon="5.3478">
        <ele>208.2</ele>
        <time>2022-03-21T08:44:23Z</time>
      </trkpt>
      <trkpt lat="46.91232" lon="5.34776">
        <ele>207.8</ele>
        <time>2022-03-21T08:44:24Z</time>
      </trkpt>
      <trkpt lat="46.91242" lon="5.34772">
        <ele>207.4</ele>
        <time>2022-03-21T08:44:25Z</time>
      </trkpt>
      <trkpt lat="46.91252" lon="5.34769">
        <ele>207.4</ele>
        <time>2022-03-21T08:44:26Z</time>
      </trkpt>
      <trkpt lat="46.91262" lon="5.34765">
        <ele>207</ele>
        <time>2022-03-21T08:44:27Z</time>
      </trkpt>
      <trkpt lat="46.91272" lon="5.34762">
        <ele>206.8</ele>
        <time>2022-03-21T08:44:28Z</time>
      </trkpt>
      <trkpt lat="46.91281" lon="5.34759">
        <ele>206.6</ele>
        <time>2022-03-21T08:44:29Z</time>
      </trkpt>
      <trkpt lat="46.91291" lon="5.34755">
        <ele>206.2</ele>
        <time>2022-03-21T08:44:30Z</time>
      </trkpt>
      <trkpt lat="46.913" lon="5.34753">
        <ele>206</ele>
        <time>2022-03-21T08:44:31Z</time>
      </trkpt>
      <trkpt lat="46.91314" lon="5.34748">
        <ele>206</ele>
        <time>2022-03-21T08:44:32Z</time>
      </trkpt>
      <trkpt lat="46.91318" lon="5.34747">
        <ele>205.6</ele>
        <time>2022-03-21T08:44:33Z</time>
      </trkpt>
      <trkpt lat="46.91327" lon="5.34742">
        <ele>205.6</ele>
        <time>2022-03-21T08:44:34Z</time>
      </trkpt>
      <trkpt lat="46.91336" lon="5.34739">
        <ele>205.6</ele>
        <time>2022-03-21T08:44:35Z</time>
      </trkpt>
      <trkpt lat="46.91345" lon="5.34736">
        <ele>205.6</ele>
        <time>2022-03-21T08:44:36Z</time>
      </trkpt>
      <trkpt lat="46.91353" lon="5.34734">
        <ele>206</ele>
        <time>2022-03-21T08:44:37Z</time>
      </trkpt>
      <trkpt lat="46.91362" lon="5.34731">
        <ele>206.2</ele>
        <time>2022-03-21T08:44:38Z</time>
      </trkpt>
      <trkpt lat="46.9137" lon="5.34728">
        <ele>206.4</ele>
        <time>2022-03-21T08:44:39Z</time>
      </trkpt>
      <trkpt lat="46.91378" lon="5.34726">
        <ele>206.8</ele>
        <time>2022-03-21T08:44:40Z</time>
      </trkpt>
      <trkpt lat="46.91386" lon="5.34723">
        <ele>206.8</ele>
        <time>2022-03-21T08:44:41Z</time>
      </trkpt>
      <trkpt lat="46.91393" lon="5.3472">
        <ele>207.2</ele>
        <time>2022-03-21T08:44:42Z</time>
      </trkpt>
      <trkpt lat="46.91401" lon="5.34718">
        <ele>207.4</ele>
        <time>2022-03-21T08:44:43Z</time>
      </trkpt>
      <trkpt lat="46.91408" lon="5.34715">
        <ele>207.8</ele>
        <time>2022-03-21T08:44:44Z</time>
      </trkpt>
      <trkpt lat="46.91416" lon="5.34713">
        <ele>208</ele>
        <time>2022-03-21T08:44:45Z</time>
      </trkpt>
      <trkpt lat="46.91423" lon="5.3471">
        <ele>208.2</ele>
        <time>2022-03-21T08:44:46Z</time>
      </trkpt>
      <trkpt lat="46.91431" lon="5.34707">
        <ele>208.6</ele>
        <time>2022-03-21T08:44:47Z</time>
      </trkpt>
      <trkpt lat="46.91438" lon="5.34705">
        <ele>208.6</ele>
        <time>2022-03-21T08:44:48Z</time>
      </trkpt>
      <trkpt lat="46.91446" lon="5.34702">
        <ele>208.8</ele>
        <time>2022-03-21T08:44:49Z</time>
      </trkpt>
      <trkpt lat="46.91453" lon="5.347">
        <ele>208.8</ele>
        <time>2022-03-21T08:44:50Z</time>
      </trkpt>
      <trkpt lat="46.91461" lon="5.34698">
        <ele>208.8</ele>
        <time>2022-03-21T08:44:51Z</time>
      </trkpt>
      <trkpt lat="46.91468" lon="5.34695">
        <ele>208.8</ele>
        <time>2022-03-21T08:44:52Z</time>
      </trkpt>
      <trkpt lat="46.91476" lon="5.34693">
        <ele>208.8</ele>
        <time>2022-03-21T08:44:53Z</time>
      </trkpt>
      <trkpt lat="46.91484" lon="5.3469">
        <ele>208.8</ele>
        <time>2022-03-21T08:44:54Z</time>
      </trkpt>
      <trkpt lat="46.91492" lon="5.34688">
        <ele>208.8</ele>
        <time>2022-03-21T08:44:55Z</time>
      </trkpt>
      <trkpt lat="46.915" lon="5.34685">
        <ele>208.6</ele>
        <time>2022-03-21T08:44:56Z</time>
      </trkpt>
      <trkpt lat="46.91508" lon="5.34683">
        <ele>208.6</ele>
        <time>2022-03-21T08:44:57Z</time>
      </trkpt>
      <trkpt lat="46.91516" lon="5.3468">
        <ele>208.2</ele>
        <time>2022-03-21T08:44:58Z</time>
      </trkpt>
      <trkpt lat="46.91525" lon="5.34677">
        <ele>208</ele>
        <time>2022-03-21T08:44:59Z</time>
      </trkpt>
      <trkpt lat="46.91533" lon="5.34674">
        <ele>207.6</ele>
        <time>2022-03-21T08:45:00Z</time>
      </trkpt>
      <trkpt lat="46.91542" lon="5.34671">
        <ele>207.6</ele>
        <time>2022-03-21T08:45:01Z</time>
      </trkpt>
      <trkpt lat="46.9155" lon="5.34668">
        <ele>207.2</ele>
        <time>2022-03-21T08:45:02Z</time>
      </trkpt>
      <trkpt lat="46.91559" lon="5.34665">
        <ele>207</ele>
        <time>2022-03-21T08:45:03Z</time>
      </trkpt>
      <trkpt lat="46.91567" lon="5.34662">
        <ele>206.8</ele>
        <time>2022-03-21T08:45:04Z</time>
      </trkpt>
      <trkpt lat="46.91575" lon="5.34659">
        <ele>206.8</ele>
        <time>2022-03-21T08:45:05Z</time>
      </trkpt>
      <trkpt lat="46.91584" lon="5.34657">
        <ele>206.4</ele>
        <time>2022-03-21T08:45:06Z</time>
      </trkpt>
      <trkpt lat="46.91592" lon="5.34654">
        <ele>206.4</ele>
        <time>2022-03-21T08:45:07Z</time>
      </trkpt>
      <trkpt lat="46.916" lon="5.34651">
        <ele>206.4</ele>
        <time>2022-03-21T08:45:08Z</time>
      </trkpt>
      <trkpt lat="46.91608" lon="5.34649">
        <ele>206.4</ele>
        <time>2022-03-21T08:45:09Z</time>
      </trkpt>
      <trkpt lat="46.91615" lon="5.34646">
        <ele>206.4</ele>
        <time>2022-03-21T08:45:10Z</time>
      </trkpt>
      <trkpt lat="46.91623" lon="5.34644">
        <ele>206.4</ele>
        <time>2022-03-21T08:45:11Z</time>
      </trkpt>
      <trkpt lat="46.9163" lon="5.34642">
        <ele>206.4</ele>
        <time>2022-03-21T08:45:12Z</time>
      </trkpt>
      <trkpt lat="46.91637" lon="5.34639">
        <ele>206.4</ele>
        <time>2022-03-21T08:45:13Z</time>
      </trkpt>
      <trkpt lat="46.91644" lon="5.34637">
        <ele>206.4</ele>
        <time>2022-03-21T08:45:14Z</time>
      </trkpt>
      <trkpt lat="46.91652" lon="5.34635">
        <ele>206.4</ele>
        <time>2022-03-21T08:45:15Z</time>
      </trkpt>
      <trkpt lat="46.91659" lon="5.34632">
        <ele>206.8</ele>
        <time>2022-03-21T08:45:16Z</time>
      </trkpt>
      <trkpt lat="46.91666" lon="5.34629">
        <ele>206.8</ele>
        <time>2022-03-21T08:45:17Z</time>
      </trkpt>
      <trkpt lat="46.91673" lon="5.34627">
        <ele>206.8</ele>
        <time>2022-03-21T08:45:18Z</time>
      </trkpt>
      <trkpt lat="46.9168" lon="5.34625">
        <ele>207.2</ele>
        <time>2022-03-21T08:45:19Z</time>
      </trkpt>
      <trkpt lat="46.91687" lon="5.34622">
        <ele>207.2</ele>
        <time>2022-03-21T08:45:20Z</time>
      </trkpt>
      <trkpt lat="46.91695" lon="5.3462">
        <ele>207.4</ele>
        <time>2022-03-21T08:45:21Z</time>
      </trkpt>
      <trkpt lat="46.91702" lon="5.34617">
        <ele>207.4</ele>
        <time>2022-03-21T08:45:22Z</time>
      </trkpt>
      <trkpt lat="46.91709" lon="5.34615">
        <ele>207.4</ele>
        <time>2022-03-21T08:45:23Z</time>
      </trkpt>
      <trkpt lat="46.91716" lon="5.34612">
        <ele>207.8</ele>
        <time>2022-03-21T08:45:24Z</time>
      </trkpt>
      <trkpt lat="46.91723" lon="5.34609">
        <ele>207.8</ele>
        <time>2022-03-21T08:45:25Z</time>
      </trkpt>
      <trkpt lat="46.9173" lon="5.34607">
        <ele>207.8</ele>
        <time>2022-03-21T08:45:26Z</time>
      </trkpt>
      <trkpt lat="46.91737" lon="5.34604">
        <ele>208.2</ele>
        <time>2022-03-21T08:45:27Z</time>
      </trkpt>
      <trkpt lat="46.91744" lon="5.34601">
        <ele>208.4</ele>
        <time>2022-03-21T08:45:28Z</time>
      </trkpt>
      <trkpt lat="46.91751" lon="5.34599">
        <ele>208.6</ele>
        <time>2022-03-21T08:45:29Z</time>
      </trkpt>
      <trkpt lat="46.91757" lon="5.34596">
        <ele>208.8</ele>
        <time>2022-03-21T08:45:30Z</time>
      </trkpt>
      <trkpt lat="46.91764" lon="5.34594">
        <ele>209.2</ele>
        <time>2022-03-21T08:45:31Z</time>
      </trkpt>
      <trkpt lat="46.9177" lon="5.34592">
        <ele>209.4</ele>
        <time>2022-03-21T08:45:32Z</time>
      </trkpt>
      <trkpt lat="46.91777" lon="5.3459">
        <ele>209.6</ele>
        <time>2022-03-21T08:45:33Z</time>
      </trkpt>
      <trkpt lat="46.91783" lon="5.34588">
        <ele>209.8</ele>
        <time>2022-03-21T08:45:34Z</time>
      </trkpt>
      <trkpt lat="46.91789" lon="5.34585">
        <ele>209.8</ele>
        <time>2022-03-21T08:45:35Z</time>
      </trkpt>
      <trkpt lat="46.91796" lon="5.34583">
        <ele>210</ele>
        <time>2022-03-21T08:45:36Z</time>
      </trkpt>
      <trkpt lat="46.91802" lon="5.3458">
        <ele>210</ele>
        <time>2022-03-21T08:45:37Z</time>
      </trkpt>
      <trkpt lat="46.91809" lon="5.34578">
        <ele>210</ele>
        <time>2022-03-21T08:45:38Z</time>
      </trkpt>
      <trkpt lat="46.91816" lon="5.34575">
        <ele>209.6</ele>
        <time>2022-03-21T08:45:39Z</time>
      </trkpt>
      <trkpt lat="46.91824" lon="5.34573">
        <ele>209.6</ele>
        <time>2022-03-21T08:45:40Z</time>
      </trkpt>
      <trkpt lat="46.91832" lon="5.3457">
        <ele>209.4</ele>
        <time>2022-03-21T08:45:41Z</time>
      </trkpt>
      <trkpt lat="46.9184" lon="5.34568">
        <ele>209.2</ele>
        <time>2022-03-21T08:45:42Z</time>
      </trkpt>
      <trkpt lat="46.91848" lon="5.34565">
        <ele>209.2</ele>
        <time>2022-03-21T08:45:43Z</time>
      </trkpt>
      <trkpt lat="46.91856" lon="5.34564">
        <ele>208.8</ele>
        <time>2022-03-21T08:45:44Z</time>
      </trkpt>
      <trkpt lat="46.91865" lon="5.34563">
        <ele>208.8</ele>
        <time>2022-03-21T08:45:45Z</time>
      </trkpt>
      <trkpt lat="46.91873" lon="5.34564">
        <ele>208.6</ele>
        <time>2022-03-21T08:45:46Z</time>
      </trkpt>
      <trkpt lat="46.9188" lon="5.34567">
        <ele>208.4</ele>
        <time>2022-03-21T08:45:47Z</time>
      </trkpt>
      <trkpt lat="46.91888" lon="5.3457">
        <ele>208.4</ele>
        <time>2022-03-21T08:45:48Z</time>
      </trkpt>
      <trkpt lat="46.91895" lon="5.34575">
        <ele>208.4</ele>
        <time>2022-03-21T08:45:49Z</time>
      </trkpt>
      <trkpt lat="46.91902" lon="5.34579">
        <ele>208.2</ele>
        <time>2022-03-21T08:45:50Z</time>
      </trkpt>
      <trkpt lat="46.91909" lon="5.34584">
        <ele>208.2</ele>
        <time>2022-03-21T08:45:51Z</time>
      </trkpt>
      <trkpt lat="46.91915" lon="5.3459">
        <ele>208.2</ele>
        <time>2022-03-21T08:45:52Z</time>
      </trkpt>
      <trkpt lat="46.91921" lon="5.34597">
        <ele>208.2</ele>
        <time>2022-03-21T08:45:53Z</time>
      </trkpt>
      <trkpt lat="46.91927" lon="5.34603">
        <ele>208</ele>
        <time>2022-03-21T08:45:54Z</time>
      </trkpt>
      <trkpt lat="46.91933" lon="5.34611">
        <ele>208</ele>
        <time>2022-03-21T08:45:55Z</time>
      </trkpt>
      <trkpt lat="46.91938" lon="5.34619">
        <ele>207.6</ele>
        <time>2022-03-21T08:45:56Z</time>
      </trkpt>
      <trkpt lat="46.91942" lon="5.34628">
        <ele>207.4</ele>
        <time>2022-03-21T08:45:57Z</time>
      </trkpt>
      <trkpt lat="46.91947" lon="5.34637">
        <ele>207.2</ele>
        <time>2022-03-21T08:45:58Z</time>
      </trkpt>
      <trkpt lat="46.91951" lon="5.34647">
        <ele>206.8</ele>
        <time>2022-03-21T08:45:59Z</time>
      </trkpt>
      <trkpt lat="46.91955" lon="5.34658">
        <ele>206.6</ele>
        <time>2022-03-21T08:46:00Z</time>
      </trkpt>
      <trkpt lat="46.91959" lon="5.34669">
        <ele>206.2</ele>
        <time>2022-03-21T08:46:01Z</time>
      </trkpt>
      <trkpt lat="46.91963" lon="5.3468">
        <ele>206</ele>
        <time>2022-03-21T08:46:02Z</time>
      </trkpt>
      <trkpt lat="46.91968" lon="5.34692">
        <ele>205.6</ele>
        <time>2022-03-21T08:46:03Z</time>
      </trkpt>
      <trkpt lat="46.91973" lon="5.34703">
        <ele>205.2</ele>
        <time>2022-03-21T08:46:04Z</time>
      </trkpt>
      <trkpt lat="46.91978" lon="5.34714">
        <ele>204.8</ele>
        <time>2022-03-21T08:46:05Z</time>
      </trkpt>
      <trkpt lat="46.91984" lon="5.34725">
        <ele>204.2</ele>
        <time>2022-03-21T08:46:06Z</time>
      </trkpt>
      <trkpt lat="46.9199" lon="5.34735">
        <ele>203.6</ele>
        <time>2022-03-21T08:46:07Z</time>
      </trkpt>
      <trkpt lat="46.91996" lon="5.34745">
        <ele>203.2</ele>
        <time>2022-03-21T08:46:08Z</time>
      </trkpt>
      <trkpt lat="46.92004" lon="5.34755">
        <ele>202.6</ele>
        <time>2022-03-21T08:46:09Z</time>
      </trkpt>
      <trkpt lat="46.92013" lon="5.34768">
        <ele>202.2</ele>
        <time>2022-03-21T08:46:10Z</time>
      </trkpt>
      <trkpt lat="46.92021" lon="5.3478">
        <ele>201.6</ele>
        <time>2022-03-21T08:46:11Z</time>
      </trkpt>
      <trkpt lat="46.92028" lon="5.34792">
        <ele>200.8</ele>
        <time>2022-03-21T08:46:12Z</time>
      </trkpt>
      <trkpt lat="46.92035" lon="5.34803">
        <ele>200.4</ele>
        <time>2022-03-21T08:46:13Z</time>
      </trkpt>
      <trkpt lat="46.92042" lon="5.34815">
        <ele>199.6</ele>
        <time>2022-03-21T08:46:14Z</time>
      </trkpt>
      <trkpt lat="46.9205" lon="5.34827">
        <ele>199</ele>
        <time>2022-03-21T08:46:15Z</time>
      </trkpt>
      <trkpt lat="46.92057" lon="5.34839">
        <ele>198.4</ele>
        <time>2022-03-21T08:46:16Z</time>
      </trkpt>
      <trkpt lat="46.92065" lon="5.34851">
        <ele>197.8</ele>
        <time>2022-03-21T08:46:17Z</time>
      </trkpt>
      <trkpt lat="46.92073" lon="5.34863">
        <ele>197.4</ele>
        <time>2022-03-21T08:46:18Z</time>
      </trkpt>
      <trkpt lat="46.9208" lon="5.34875">
        <ele>196.8</ele>
        <time>2022-03-21T08:46:19Z</time>
      </trkpt>
      <trkpt lat="46.92088" lon="5.34886">
        <ele>196.2</ele>
        <time>2022-03-21T08:46:20Z</time>
      </trkpt>
      <trkpt lat="46.92094" lon="5.34898">
        <ele>195.8</ele>
        <time>2022-03-21T08:46:21Z</time>
      </trkpt>
      <trkpt lat="46.921" lon="5.3491">
        <ele>195.4</ele>
        <time>2022-03-21T08:46:22Z</time>
      </trkpt>
      <trkpt lat="46.92106" lon="5.34923">
        <ele>195</ele>
        <time>2022-03-21T08:46:23Z</time>
      </trkpt>
      <trkpt lat="46.92112" lon="5.34935">
        <ele>194.6</ele>
        <time>2022-03-21T08:46:24Z</time>
      </trkpt>
      <trkpt lat="46.92118" lon="5.34948">
        <ele>194.2</ele>
        <time>2022-03-21T08:46:25Z</time>
      </trkpt>
      <trkpt lat="46.92123" lon="5.34961">
        <ele>193.8</ele>
        <time>2022-03-21T08:46:26Z</time>
      </trkpt>
      <trkpt lat="46.92128" lon="5.34974">
        <ele>193.6</ele>
        <time>2022-03-21T08:46:27Z</time>
      </trkpt>
      <trkpt lat="46.92133" lon="5.34986">
        <ele>193.2</ele>
        <time>2022-03-21T08:46:28Z</time>
      </trkpt>
      <trkpt lat="46.92137" lon="5.34999">
        <ele>193.2</ele>
        <time>2022-03-21T08:46:29Z</time>
      </trkpt>
      <trkpt lat="46.92141" lon="5.35011">
        <ele>192.8</ele>
        <time>2022-03-21T08:46:30Z</time>
      </trkpt>
      <trkpt lat="46.92145" lon="5.35024">
        <ele>192.4</ele>
        <time>2022-03-21T08:46:31Z</time>
      </trkpt>
      <trkpt lat="46.92148" lon="5.35035">
        <ele>192</ele>
        <time>2022-03-21T08:46:32Z</time>
      </trkpt>
      <trkpt lat="46.92152" lon="5.35045">
        <ele>192</ele>
        <time>2022-03-21T08:46:33Z</time>
      </trkpt>
      <trkpt lat="46.92157" lon="5.35053">
        <ele>191.6</ele>
        <time>2022-03-21T08:46:34Z</time>
      </trkpt>
      <trkpt lat="46.92164" lon="5.35059">
        <ele>191.4</ele>
        <time>2022-03-21T08:46:35Z</time>
      </trkpt>
      <trkpt lat="46.9217" lon="5.35062">
        <ele>191.4</ele>
        <time>2022-03-21T08:46:36Z</time>
      </trkpt>
      <trkpt lat="46.92178" lon="5.35063">
        <ele>191.2</ele>
        <time>2022-03-21T08:46:37Z</time>
      </trkpt>
      <trkpt lat="46.92186" lon="5.35062">
        <ele>191.2</ele>
        <time>2022-03-21T08:46:38Z</time>
      </trkpt>
      <trkpt lat="46.92193" lon="5.3506">
        <ele>191</ele>
        <time>2022-03-21T08:46:39Z</time>
      </trkpt>
      <trkpt lat="46.922" lon="5.35057">
        <ele>191</ele>
        <time>2022-03-21T08:46:40Z</time>
      </trkpt>
      <trkpt lat="46.92207" lon="5.35055">
        <ele>190.6</ele>
        <time>2022-03-21T08:46:41Z</time>
      </trkpt>
      <trkpt lat="46.92215" lon="5.35053">
        <ele>190.6</ele>
        <time>2022-03-21T08:46:42Z</time>
      </trkpt>
      <trkpt lat="46.92223" lon="5.35051">
        <ele>190.4</ele>
        <time>2022-03-21T08:46:44Z</time>
      </trkpt>
      <trkpt lat="46.92231" lon="5.35048">
        <ele>190.4</ele>
        <time>2022-03-21T08:46:45Z</time>
      </trkpt>
      <trkpt lat="46.92239" lon="5.35045">
        <ele>190.4</ele>
        <time>2022-03-21T08:46:46Z</time>
      </trkpt>
      <trkpt lat="46.92247" lon="5.35043">
        <ele>190</ele>
        <time>2022-03-21T08:46:47Z</time>
      </trkpt>
      <trkpt lat="46.92255" lon="5.35041">
        <ele>190</ele>
        <time>2022-03-21T08:46:48Z</time>
      </trkpt>
      <trkpt lat="46.92262" lon="5.35039">
        <ele>189.8</ele>
        <time>2022-03-21T08:46:49Z</time>
      </trkpt>
      <trkpt lat="46.9227" lon="5.35036">
        <ele>189.8</ele>
        <time>2022-03-21T08:46:50Z</time>
      </trkpt>
      <trkpt lat="46.92285" lon="5.35031">
        <ele>189.8</ele>
        <time>2022-03-21T08:46:51Z</time>
      </trkpt>
      <trkpt lat="46.92293" lon="5.35029">
        <ele>189.6</ele>
        <time>2022-03-21T08:46:52Z</time>
      </trkpt>
      <trkpt lat="46.92301" lon="5.35027">
        <ele>189.6</ele>
        <time>2022-03-21T08:46:53Z</time>
      </trkpt>
      <trkpt lat="46.92309" lon="5.35025">
        <ele>189.6</ele>
        <time>2022-03-21T08:46:54Z</time>
      </trkpt>
      <trkpt lat="46.92317" lon="5.35023">
        <ele>189.2</ele>
        <time>2022-03-21T08:46:55Z</time>
      </trkpt>
      <trkpt lat="46.92325" lon="5.35021">
        <ele>189</ele>
        <time>2022-03-21T08:46:56Z</time>
      </trkpt>
      <trkpt lat="46.92333" lon="5.35019">
        <ele>188.6</ele>
        <time>2022-03-21T08:46:57Z</time>
      </trkpt>
      <trkpt lat="46.92342" lon="5.35016">
        <ele>188.4</ele>
        <time>2022-03-21T08:46:58Z</time>
      </trkpt>
      <trkpt lat="46.9235" lon="5.35014">
        <ele>188.2</ele>
        <time>2022-03-21T08:46:59Z</time>
      </trkpt>
      <trkpt lat="46.92359" lon="5.35011">
        <ele>187.8</ele>
        <time>2022-03-21T08:47:00Z</time>
      </trkpt>
      <trkpt lat="46.92367" lon="5.35009">
        <ele>187.6</ele>
        <time>2022-03-21T08:47:01Z</time>
      </trkpt>
      <trkpt lat="46.92376" lon="5.35006">
        <ele>187.6</ele>
        <time>2022-03-21T08:47:02Z</time>
      </trkpt>
      <trkpt lat="46.92384" lon="5.35004">
        <ele>187.4</ele>
        <time>2022-03-21T08:47:03Z</time>
      </trkpt>
      <trkpt lat="46.92393" lon="5.35001">
        <ele>187.4</ele>
        <time>2022-03-21T08:47:04Z</time>
      </trkpt>
      <trkpt lat="46.92401" lon="5.34999">
        <ele>187</ele>
        <time>2022-03-21T08:47:05Z</time>
      </trkpt>
      <trkpt lat="46.9241" lon="5.34996">
        <ele>187</ele>
        <time>2022-03-21T08:47:06Z</time>
      </trkpt>
      <trkpt lat="46.92419" lon="5.34994">
        <ele>187</ele>
        <time>2022-03-21T08:47:07Z</time>
      </trkpt>
      <trkpt lat="46.92427" lon="5.34993">
        <ele>186.6</ele>
        <time>2022-03-21T08:47:08Z</time>
      </trkpt>
      <trkpt lat="46.92436" lon="5.34992">
        <ele>186.6</ele>
        <time>2022-03-21T08:47:09Z</time>
      </trkpt>
      <trkpt lat="46.92445" lon="5.34991">
        <ele>186.4</ele>
        <time>2022-03-21T08:47:10Z</time>
      </trkpt>
      <trkpt lat="46.92454" lon="5.34991">
        <ele>186.4</ele>
        <time>2022-03-21T08:47:11Z</time>
      </trkpt>
      <trkpt lat="46.92463" lon="5.3499">
        <ele>186.4</ele>
        <time>2022-03-21T08:47:12Z</time>
      </trkpt>
      <trkpt lat="46.92471" lon="5.3499">
        <ele>186.4</ele>
        <time>2022-03-21T08:47:13Z</time>
      </trkpt>
      <trkpt lat="46.9248" lon="5.34989">
        <ele>186.4</ele>
        <time>2022-03-21T08:47:14Z</time>
      </trkpt>
      <trkpt lat="46.92489" lon="5.34988">
        <ele>186.2</ele>
        <time>2022-03-21T08:47:15Z</time>
      </trkpt>
      <trkpt lat="46.92498" lon="5.34988">
        <ele>186.2</ele>
        <time>2022-03-21T08:47:16Z</time>
      </trkpt>
      <trkpt lat="46.92506" lon="5.34988">
        <ele>186.2</ele>
        <time>2022-03-21T08:47:17Z</time>
      </trkpt>
      <trkpt lat="46.92515" lon="5.34987">
        <ele>186.2</ele>
        <time>2022-03-21T08:47:18Z</time>
      </trkpt>
      <trkpt lat="46.92524" lon="5.34987">
        <ele>186.2</ele>
        <time>2022-03-21T08:47:19Z</time>
      </trkpt>
      <trkpt lat="46.92533" lon="5.34987">
        <ele>186</ele>
        <time>2022-03-21T08:47:20Z</time>
      </trkpt>
      <trkpt lat="46.92542" lon="5.34987">
        <ele>186</ele>
        <time>2022-03-21T08:47:21Z</time>
      </trkpt>
      <trkpt lat="46.9255" lon="5.34986">
        <ele>186</ele>
        <time>2022-03-21T08:47:22Z</time>
      </trkpt>
      <trkpt lat="46.92559" lon="5.34985">
        <ele>186</ele>
        <time>2022-03-21T08:47:23Z</time>
      </trkpt>
      <trkpt lat="46.92568" lon="5.34985">
        <ele>186</ele>
        <time>2022-03-21T08:47:24Z</time>
      </trkpt>
      <trkpt lat="46.92576" lon="5.34984">
        <ele>186</ele>
        <time>2022-03-21T08:47:25Z</time>
      </trkpt>
      <trkpt lat="46.92584" lon="5.34984">
        <ele>185.8</ele>
        <time>2022-03-21T08:47:26Z</time>
      </trkpt>
      <trkpt lat="46.92593" lon="5.34983">
        <ele>185.8</ele>
        <time>2022-03-21T08:47:27Z</time>
      </trkpt>
      <trkpt lat="46.92601" lon="5.34983">
        <ele>185.8</ele>
        <time>2022-03-21T08:47:28Z</time>
      </trkpt>
      <trkpt lat="46.92609" lon="5.34982">
        <ele>185.8</ele>
        <time>2022-03-21T08:47:29Z</time>
      </trkpt>
      <trkpt lat="46.92617" lon="5.34981">
        <ele>185.8</ele>
        <time>2022-03-21T08:47:30Z</time>
      </trkpt>
      <trkpt lat="46.92625" lon="5.34981">
        <ele>186</ele>
        <time>2022-03-21T08:47:31Z</time>
      </trkpt>
      <trkpt lat="46.92633" lon="5.3498">
        <ele>186</ele>
        <time>2022-03-21T08:47:32Z</time>
      </trkpt>
      <trkpt lat="46.92642" lon="5.34979">
        <ele>186</ele>
        <time>2022-03-21T08:47:33Z</time>
      </trkpt>
      <trkpt lat="46.9265" lon="5.34979">
        <ele>186</ele>
        <time>2022-03-21T08:47:34Z</time>
      </trkpt>
      <trkpt lat="46.92658" lon="5.34978">
        <ele>186</ele>
        <time>2022-03-21T08:47:35Z</time>
      </trkpt>
      <trkpt lat="46.92667" lon="5.34977">
        <ele>186</ele>
        <time>2022-03-21T08:47:36Z</time>
      </trkpt>
      <trkpt lat="46.92675" lon="5.34976">
        <ele>186</ele>
        <time>2022-03-21T08:47:37Z</time>
      </trkpt>
      <trkpt lat="46.92684" lon="5.34975">
        <ele>186</ele>
        <time>2022-03-21T08:47:38Z</time>
      </trkpt>
      <trkpt lat="46.92692" lon="5.34974">
        <ele>186</ele>
        <time>2022-03-21T08:47:39Z</time>
      </trkpt>
      <trkpt lat="46.92701" lon="5.34973">
        <ele>186</ele>
        <time>2022-03-21T08:47:40Z</time>
      </trkpt>
      <trkpt lat="46.92709" lon="5.34972">
        <ele>186</ele>
        <time>2022-03-21T08:47:41Z</time>
      </trkpt>
      <trkpt lat="46.92718" lon="5.34971">
        <ele>186</ele>
        <time>2022-03-21T08:47:42Z</time>
      </trkpt>
      <trkpt lat="46.92726" lon="5.3497">
        <ele>186</ele>
        <time>2022-03-21T08:47:43Z</time>
      </trkpt>
      <trkpt lat="46.92735" lon="5.34969">
        <ele>186</ele>
        <time>2022-03-21T08:47:44Z</time>
      </trkpt>
      <trkpt lat="46.92743" lon="5.34968">
        <ele>186</ele>
        <time>2022-03-21T08:47:45Z</time>
      </trkpt>
      <trkpt lat="46.92752" lon="5.34967">
        <ele>186</ele>
        <time>2022-03-21T08:47:46Z</time>
      </trkpt>
      <trkpt lat="46.9276" lon="5.34966">
        <ele>186</ele>
        <time>2022-03-21T08:47:47Z</time>
      </trkpt>
      <trkpt lat="46.92769" lon="5.34965">
        <ele>186</ele>
        <time>2022-03-21T08:47:48Z</time>
      </trkpt>
      <trkpt lat="46.92777" lon="5.34964">
        <ele>186</ele>
        <time>2022-03-21T08:47:49Z</time>
      </trkpt>
      <trkpt lat="46.92786" lon="5.34963">
        <ele>186.2</ele>
        <time>2022-03-21T08:47:50Z</time>
      </trkpt>
      <trkpt lat="46.92794" lon="5.34962">
        <ele>186.2</ele>
        <time>2022-03-21T08:47:51Z</time>
      </trkpt>
      <trkpt lat="46.92803" lon="5.34961">
        <ele>186.2</ele>
        <time>2022-03-21T08:47:52Z</time>
      </trkpt>
      <trkpt lat="46.92811" lon="5.34959">
        <ele>186.2</ele>
        <time>2022-03-21T08:47:53Z</time>
      </trkpt>
      <trkpt lat="46.9282" lon="5.34959">
        <ele>186.4</ele>
        <time>2022-03-21T08:47:54Z</time>
      </trkpt>
      <trkpt lat="46.92828" lon="5.34958">
        <ele>186.4</ele>
        <time>2022-03-21T08:47:55Z</time>
      </trkpt>
      <trkpt lat="46.92836" lon="5.34957">
        <ele>186.4</ele>
        <time>2022-03-21T08:47:56Z</time>
      </trkpt>
      <trkpt lat="46.92845" lon="5.34956">
        <ele>186.4</ele>
        <time>2022-03-21T08:47:57Z</time>
      </trkpt>
      <trkpt lat="46.92854" lon="5.34955">
        <ele>186.4</ele>
        <time>2022-03-21T08:47:58Z</time>
      </trkpt>
      <trkpt lat="46.92862" lon="5.34955">
        <ele>186.4</ele>
        <time>2022-03-21T08:47:59Z</time>
      </trkpt>
      <trkpt lat="46.92871" lon="5.34954">
        <ele>186.4</ele>
        <time>2022-03-21T08:48:00Z</time>
      </trkpt>
      <trkpt lat="46.9288" lon="5.34954">
        <ele>186.2</ele>
        <time>2022-03-21T08:48:01Z</time>
      </trkpt>
      <trkpt lat="46.92889" lon="5.34952">
        <ele>186.2</ele>
        <time>2022-03-21T08:48:02Z</time>
      </trkpt>
      <trkpt lat="46.92898" lon="5.34952">
        <ele>186</ele>
        <time>2022-03-21T08:48:03Z</time>
      </trkpt>
      <trkpt lat="46.92906" lon="5.34953">
        <ele>186</ele>
        <time>2022-03-21T08:48:04Z</time>
      </trkpt>
      <trkpt lat="46.92915" lon="5.34954">
        <ele>186</ele>
        <time>2022-03-21T08:48:05Z</time>
      </trkpt>
      <trkpt lat="46.92924" lon="5.34955">
        <ele>186</ele>
        <time>2022-03-21T08:48:06Z</time>
      </trkpt>
      <trkpt lat="46.92933" lon="5.34956">
        <ele>186</ele>
        <time>2022-03-21T08:48:07Z</time>
      </trkpt>
      <trkpt lat="46.92942" lon="5.34957">
        <ele>186</ele>
        <time>2022-03-21T08:48:08Z</time>
      </trkpt>
      <trkpt lat="46.92951" lon="5.34958">
        <ele>186</ele>
        <time>2022-03-21T08:48:09Z</time>
      </trkpt>
      <trkpt lat="46.92959" lon="5.34959">
        <ele>186</ele>
        <time>2022-03-21T08:48:10Z</time>
      </trkpt>
      <trkpt lat="46.92967" lon="5.3496">
        <ele>186.2</ele>
        <time>2022-03-21T08:48:11Z</time>
      </trkpt>
      <trkpt lat="46.92976" lon="5.3496">
        <ele>186.2</ele>
        <time>2022-03-21T08:48:12Z</time>
      </trkpt>
      <trkpt lat="46.92984" lon="5.34959">
        <ele>186.2</ele>
        <time>2022-03-21T08:48:13Z</time>
      </trkpt>
      <trkpt lat="46.92991" lon="5.34956">
        <ele>186.2</ele>
        <time>2022-03-21T08:48:14Z</time>
      </trkpt>
      <trkpt lat="46.92999" lon="5.34952">
        <ele>186.2</ele>
        <time>2022-03-21T08:48:15Z</time>
      </trkpt>
      <trkpt lat="46.93006" lon="5.34946">
        <ele>186.2</ele>
        <time>2022-03-21T08:48:16Z</time>
      </trkpt>
      <trkpt lat="46.93012" lon="5.34939">
        <ele>186.2</ele>
        <time>2022-03-21T08:48:17Z</time>
      </trkpt>
      <trkpt lat="46.93018" lon="5.3493">
        <ele>186.2</ele>
        <time>2022-03-21T08:48:18Z</time>
      </trkpt>
      <trkpt lat="46.93023" lon="5.3492">
        <ele>186.2</ele>
        <time>2022-03-21T08:48:19Z</time>
      </trkpt>
      <trkpt lat="46.93027" lon="5.34909">
        <ele>186.2</ele>
        <time>2022-03-21T08:48:20Z</time>
      </trkpt>
      <trkpt lat="46.9303" lon="5.34898">
        <ele>186.2</ele>
        <time>2022-03-21T08:48:21Z</time>
      </trkpt>
      <trkpt lat="46.93033" lon="5.34887">
        <ele>186.2</ele>
        <time>2022-03-21T08:48:22Z</time>
      </trkpt>
      <trkpt lat="46.93036" lon="5.34876">
        <ele>186.2</ele>
        <time>2022-03-21T08:48:23Z</time>
      </trkpt>
      <trkpt lat="46.93039" lon="5.34865">
        <ele>186.2</ele>
        <time>2022-03-21T08:48:24Z</time>
      </trkpt>
      <trkpt lat="46.93042" lon="5.34854">
        <ele>186.2</ele>
        <time>2022-03-21T08:48:25Z</time>
      </trkpt>
      <trkpt lat="46.93046" lon="5.34843">
        <ele>186.2</ele>
        <time>2022-03-21T08:48:26Z</time>
      </trkpt>
      <trkpt lat="46.93049" lon="5.34832">
        <ele>186.2</ele>
        <time>2022-03-21T08:48:27Z</time>
      </trkpt>
      <trkpt lat="46.93054" lon="5.34823">
        <ele>186.2</ele>
        <time>2022-03-21T08:48:28Z</time>
      </trkpt>
      <trkpt lat="46.93058" lon="5.34814">
        <ele>186.2</ele>
        <time>2022-03-21T08:48:29Z</time>
      </trkpt>
      <trkpt lat="46.93064" lon="5.34804">
        <ele>186.2</ele>
        <time>2022-03-21T08:48:30Z</time>
      </trkpt>
      <trkpt lat="46.93069" lon="5.34796">
        <ele>186.2</ele>
        <time>2022-03-21T08:48:31Z</time>
      </trkpt>
      <trkpt lat="46.93074" lon="5.34787">
        <ele>186.2</ele>
        <time>2022-03-21T08:48:32Z</time>
      </trkpt>
      <trkpt lat="46.9308" lon="5.34779">
        <ele>186.2</ele>
        <time>2022-03-21T08:48:33Z</time>
      </trkpt>
      <trkpt lat="46.93086" lon="5.34771">
        <ele>186.2</ele>
        <time>2022-03-21T08:48:34Z</time>
      </trkpt>
      <trkpt lat="46.93091" lon="5.34763">
        <ele>186.2</ele>
        <time>2022-03-21T08:48:35Z</time>
      </trkpt>
      <trkpt lat="46.93097" lon="5.34754">
        <ele>186</ele>
        <time>2022-03-21T08:48:36Z</time>
      </trkpt>
      <trkpt lat="46.93103" lon="5.34746">
        <ele>186</ele>
        <time>2022-03-21T08:48:37Z</time>
      </trkpt>
      <trkpt lat="46.93108" lon="5.34738">
        <ele>185.8</ele>
        <time>2022-03-21T08:48:38Z</time>
      </trkpt>
      <trkpt lat="46.93114" lon="5.34729">
        <ele>185.8</ele>
        <time>2022-03-21T08:48:39Z</time>
      </trkpt>
      <trkpt lat="46.93119" lon="5.3472">
        <ele>185.8</ele>
        <time>2022-03-21T08:48:40Z</time>
      </trkpt>
      <trkpt lat="46.93124" lon="5.34711">
        <ele>185.8</ele>
        <time>2022-03-21T08:48:41Z</time>
      </trkpt>
      <trkpt lat="46.93128" lon="5.34701">
        <ele>185.8</ele>
        <time>2022-03-21T08:48:42Z</time>
      </trkpt>
      <trkpt lat="46.93132" lon="5.34691">
        <ele>185.8</ele>
        <time>2022-03-21T08:48:43Z</time>
      </trkpt>
      <trkpt lat="46.93135" lon="5.3468">
        <ele>185.8</ele>
        <time>2022-03-21T08:48:44Z</time>
      </trkpt>
      <trkpt lat="46.93138" lon="5.34669">
        <ele>185.8</ele>
        <time>2022-03-21T08:48:45Z</time>
      </trkpt>
      <trkpt lat="46.93141" lon="5.34658">
        <ele>185.8</ele>
        <time>2022-03-21T08:48:46Z</time>
      </trkpt>
      <trkpt lat="46.93143" lon="5.34648">
        <ele>186</ele>
        <time>2022-03-21T08:48:47Z</time>
      </trkpt>
      <trkpt lat="46.93146" lon="5.34638">
        <ele>186</ele>
        <time>2022-03-21T08:48:48Z</time>
      </trkpt>
      <trkpt lat="46.9315" lon="5.34628">
        <ele>186</ele>
        <time>2022-03-21T08:48:49Z</time>
      </trkpt>
      <trkpt lat="46.93153" lon="5.34618">
        <ele>186</ele>
        <time>2022-03-21T08:48:50Z</time>
      </trkpt>
      <trkpt lat="46.93157" lon="5.34608">
        <ele>186</ele>
        <time>2022-03-21T08:48:51Z</time>
      </trkpt>
      <trkpt lat="46.93161" lon="5.34598">
        <ele>186</ele>
        <time>2022-03-21T08:48:52Z</time>
      </trkpt>
      <trkpt lat="46.93165" lon="5.34589">
        <ele>186</ele>
        <time>2022-03-21T08:48:53Z</time>
      </trkpt>
      <trkpt lat="46.93169" lon="5.3458">
        <ele>186</ele>
        <time>2022-03-21T08:48:54Z</time>
      </trkpt>
      <trkpt lat="46.93173" lon="5.34571">
        <ele>186</ele>
        <time>2022-03-21T08:48:55Z</time>
      </trkpt>
      <trkpt lat="46.93177" lon="5.34562">
        <ele>186</ele>
        <time>2022-03-21T08:48:56Z</time>
      </trkpt>
      <trkpt lat="46.93182" lon="5.34553">
        <ele>186</ele>
        <time>2022-03-21T08:48:57Z</time>
      </trkpt>
      <trkpt lat="46.93186" lon="5.34544">
        <ele>186</ele>
        <time>2022-03-21T08:48:58Z</time>
      </trkpt>
      <trkpt lat="46.9319" lon="5.34536">
        <ele>186</ele>
        <time>2022-03-21T08:48:59Z</time>
      </trkpt>
      <trkpt lat="46.93194" lon="5.34527">
        <ele>186</ele>
        <time>2022-03-21T08:49:00Z</time>
      </trkpt>
      <trkpt lat="46.93199" lon="5.34519">
        <ele>186</ele>
        <time>2022-03-21T08:49:01Z</time>
      </trkpt>
      <trkpt lat="46.93203" lon="5.3451">
        <ele>186</ele>
        <time>2022-03-21T08:49:02Z</time>
      </trkpt>
      <trkpt lat="46.93207" lon="5.34501">
        <ele>186</ele>
        <time>2022-03-21T08:49:03Z</time>
      </trkpt>
      <trkpt lat="46.93212" lon="5.34492">
        <ele>186.2</ele>
        <time>2022-03-21T08:49:04Z</time>
      </trkpt>
      <trkpt lat="46.93216" lon="5.34484">
        <ele>186.2</ele>
        <time>2022-03-21T08:49:05Z</time>
      </trkpt>
      <trkpt lat="46.93221" lon="5.34476">
        <ele>186.2</ele>
        <time>2022-03-21T08:49:06Z</time>
      </trkpt>
      <trkpt lat="46.93226" lon="5.34468">
        <ele>186.2</ele>
        <time>2022-03-21T08:49:07Z</time>
      </trkpt>
      <trkpt lat="46.93231" lon="5.34461">
        <ele>186.2</ele>
        <time>2022-03-21T08:49:08Z</time>
      </trkpt>
      <trkpt lat="46.93237" lon="5.34455">
        <ele>186.2</ele>
        <time>2022-03-21T08:49:09Z</time>
      </trkpt>
      <trkpt lat="46.93242" lon="5.34449">
        <ele>186.2</ele>
        <time>2022-03-21T08:49:10Z</time>
      </trkpt>
      <trkpt lat="46.93248" lon="5.34443">
        <ele>186.2</ele>
        <time>2022-03-21T08:49:11Z</time>
      </trkpt>
      <trkpt lat="46.93254" lon="5.34437">
        <ele>186.2</ele>
        <time>2022-03-21T08:49:12Z</time>
      </trkpt>
      <trkpt lat="46.9326" lon="5.34432">
        <ele>186.2</ele>
        <time>2022-03-21T08:49:13Z</time>
      </trkpt>
      <trkpt lat="46.93266" lon="5.34427">
        <ele>186.2</ele>
        <time>2022-03-21T08:49:14Z</time>
      </trkpt>
      <trkpt lat="46.93273" lon="5.34422">
        <ele>186.4</ele>
        <time>2022-03-21T08:49:15Z</time>
      </trkpt>
      <trkpt lat="46.93279" lon="5.34418">
        <ele>186.4</ele>
        <time>2022-03-21T08:49:16Z</time>
      </trkpt>
      <trkpt lat="46.93286" lon="5.34414">
        <ele>186.4</ele>
        <time>2022-03-21T08:49:17Z</time>
      </trkpt>
      <trkpt lat="46.93293" lon="5.34411">
        <ele>186.4</ele>
        <time>2022-03-21T08:49:18Z</time>
      </trkpt>
      <trkpt lat="46.93301" lon="5.34409">
        <ele>186.4</ele>
        <time>2022-03-21T08:49:19Z</time>
      </trkpt>
      <trkpt lat="46.93308" lon="5.34406">
        <ele>186.4</ele>
        <time>2022-03-21T08:49:20Z</time>
      </trkpt>
      <trkpt lat="46.93315" lon="5.34404">
        <ele>186.4</ele>
        <time>2022-03-21T08:49:21Z</time>
      </trkpt>
      <trkpt lat="46.93323" lon="5.34402">
        <ele>186.4</ele>
        <time>2022-03-21T08:49:22Z</time>
      </trkpt>
      <trkpt lat="46.9333" lon="5.34401">
        <ele>186.4</ele>
        <time>2022-03-21T08:49:23Z</time>
      </trkpt>
      <trkpt lat="46.93338" lon="5.344">
        <ele>186.4</ele>
        <time>2022-03-21T08:49:24Z</time>
      </trkpt>
      <trkpt lat="46.93345" lon="5.34398">
        <ele>186.4</ele>
        <time>2022-03-21T08:49:25Z</time>
      </trkpt>
      <trkpt lat="46.93353" lon="5.34397">
        <ele>186.4</ele>
        <time>2022-03-21T08:49:26Z</time>
      </trkpt>
      <trkpt lat="46.93361" lon="5.34396">
        <ele>186.2</ele>
        <time>2022-03-21T08:49:27Z</time>
      </trkpt>
      <trkpt lat="46.93368" lon="5.34394">
        <ele>186.2</ele>
        <time>2022-03-21T08:49:28Z</time>
      </trkpt>
      <trkpt lat="46.93376" lon="5.34392">
        <ele>186.2</ele>
        <time>2022-03-21T08:49:29Z</time>
      </trkpt>
      <trkpt lat="46.93384" lon="5.3439">
        <ele>186.2</ele>
        <time>2022-03-21T08:49:30Z</time>
      </trkpt>
      <trkpt lat="46.93391" lon="5.34388">
        <ele>186.2</ele>
        <time>2022-03-21T08:49:31Z</time>
      </trkpt>
      <trkpt lat="46.93399" lon="5.34385">
        <ele>186.2</ele>
        <time>2022-03-21T08:49:32Z</time>
      </trkpt>
      <trkpt lat="46.93406" lon="5.34381">
        <ele>186</ele>
        <time>2022-03-21T08:49:33Z</time>
      </trkpt>
      <trkpt lat="46.93413" lon="5.34376">
        <ele>186</ele>
        <time>2022-03-21T08:49:34Z</time>
      </trkpt>
      <trkpt lat="46.9342" lon="5.34371">
        <ele>186</ele>
        <time>2022-03-21T08:49:35Z</time>
      </trkpt>
      <trkpt lat="46.93426" lon="5.34366">
        <ele>186</ele>
        <time>2022-03-21T08:49:36Z</time>
      </trkpt>
      <trkpt lat="46.93433" lon="5.3436">
        <ele>186</ele>
        <time>2022-03-21T08:49:37Z</time>
      </trkpt>
      <trkpt lat="46.93439" lon="5.34355">
        <ele>186.2</ele>
        <time>2022-03-21T08:49:38Z</time>
      </trkpt>
      <trkpt lat="46.93446" lon="5.34351">
        <ele>186.2</ele>
        <time>2022-03-21T08:49:39Z</time>
      </trkpt>
      <trkpt lat="46.93452" lon="5.34346">
        <ele>186.2</ele>
        <time>2022-03-21T08:49:40Z</time>
      </trkpt>
      <trkpt lat="46.93459" lon="5.34342">
        <ele>186.2</ele>
        <time>2022-03-21T08:49:41Z</time>
      </trkpt>
      <trkpt lat="46.93465" lon="5.34338">
        <ele>186.2</ele>
        <time>2022-03-21T08:49:42Z</time>
      </trkpt>
      <trkpt lat="46.93472" lon="5.34333">
        <ele>186.6</ele>
        <time>2022-03-21T08:49:43Z</time>
      </trkpt>
      <trkpt lat="46.93479" lon="5.3433">
        <ele>186.6</ele>
        <time>2022-03-21T08:49:44Z</time>
      </trkpt>
      <trkpt lat="46.93486" lon="5.34326">
        <ele>186.6</ele>
        <time>2022-03-21T08:49:45Z</time>
      </trkpt>
      <trkpt lat="46.93493" lon="5.34323">
        <ele>186.6</ele>
        <time>2022-03-21T08:49:46Z</time>
      </trkpt>
      <trkpt lat="46.935" lon="5.34322">
        <ele>186.6</ele>
        <time>2022-03-21T08:49:47Z</time>
      </trkpt>
      <trkpt lat="46.93507" lon="5.34321">
        <ele>186.6</ele>
        <time>2022-03-21T08:49:48Z</time>
      </trkpt>
      <trkpt lat="46.93514" lon="5.3432">
        <ele>186.6</ele>
        <time>2022-03-21T08:49:49Z</time>
      </trkpt>
      <trkpt lat="46.93522" lon="5.34319">
        <ele>186.6</ele>
        <time>2022-03-21T08:49:50Z</time>
      </trkpt>
      <trkpt lat="46.93529" lon="5.3432">
        <ele>186.6</ele>
        <time>2022-03-21T08:49:51Z</time>
      </trkpt>
      <trkpt lat="46.93537" lon="5.3432">
        <ele>186.6</ele>
        <time>2022-03-21T08:49:52Z</time>
      </trkpt>
      <trkpt lat="46.93544" lon="5.3432">
        <ele>186.6</ele>
        <time>2022-03-21T08:49:53Z</time>
      </trkpt>
      <trkpt lat="46.93552" lon="5.34321">
        <ele>186.6</ele>
        <time>2022-03-21T08:49:54Z</time>
      </trkpt>
      <trkpt lat="46.93559" lon="5.34321">
        <ele>186.6</ele>
        <time>2022-03-21T08:49:55Z</time>
      </trkpt>
      <trkpt lat="46.93566" lon="5.34321">
        <ele>186.6</ele>
        <time>2022-03-21T08:49:56Z</time>
      </trkpt>
      <trkpt lat="46.93574" lon="5.34322">
        <ele>186.6</ele>
        <time>2022-03-21T08:49:57Z</time>
      </trkpt>
      <trkpt lat="46.93582" lon="5.34321">
        <ele>186.2</ele>
        <time>2022-03-21T08:49:58Z</time>
      </trkpt>
      <trkpt lat="46.93589" lon="5.34321">
        <ele>186.2</ele>
        <time>2022-03-21T08:49:59Z</time>
      </trkpt>
      <trkpt lat="46.93597" lon="5.34321">
        <ele>186.2</ele>
        <time>2022-03-21T08:50:00Z</time>
      </trkpt>
      <trkpt lat="46.93604" lon="5.34321">
        <ele>186.2</ele>
        <time>2022-03-21T08:50:01Z</time>
      </trkpt>
      <trkpt lat="46.93612" lon="5.34321">
        <ele>186.2</ele>
        <time>2022-03-21T08:50:02Z</time>
      </trkpt>
      <trkpt lat="46.93619" lon="5.34321">
        <ele>186.2</ele>
        <time>2022-03-21T08:50:03Z</time>
      </trkpt>
      <trkpt lat="46.93627" lon="5.34321">
        <ele>186.2</ele>
        <time>2022-03-21T08:50:04Z</time>
      </trkpt>
      <trkpt lat="46.93634" lon="5.34322">
        <ele>186.2</ele>
        <time>2022-03-21T08:50:05Z</time>
      </trkpt>
      <trkpt lat="46.93642" lon="5.34323">
        <ele>186.2</ele>
        <time>2022-03-21T08:50:06Z</time>
      </trkpt>
      <trkpt lat="46.93649" lon="5.34326">
        <ele>186</ele>
        <time>2022-03-21T08:50:07Z</time>
      </trkpt>
      <trkpt lat="46.93657" lon="5.34329">
        <ele>186</ele>
        <time>2022-03-21T08:50:08Z</time>
      </trkpt>
      <trkpt lat="46.93668" lon="5.34333">
        <ele>186</ele>
        <time>2022-03-21T08:50:09Z</time>
      </trkpt>
      <trkpt lat="46.93671" lon="5.34335">
        <ele>186</ele>
        <time>2022-03-21T08:50:10Z</time>
      </trkpt>
      <trkpt lat="46.93679" lon="5.34338">
        <ele>185.8</ele>
        <time>2022-03-21T08:50:11Z</time>
      </trkpt>
      <trkpt lat="46.93686" lon="5.3434">
        <ele>185.8</ele>
        <time>2022-03-21T08:50:12Z</time>
      </trkpt>
      <trkpt lat="46.93693" lon="5.34343">
        <ele>185.8</ele>
        <time>2022-03-21T08:50:13Z</time>
      </trkpt>
      <trkpt lat="46.93701" lon="5.34344">
        <ele>185.8</ele>
        <time>2022-03-21T08:50:14Z</time>
      </trkpt>
      <trkpt lat="46.93708" lon="5.34346">
        <ele>185.8</ele>
        <time>2022-03-21T08:50:15Z</time>
      </trkpt>
      <trkpt lat="46.93716" lon="5.34348">
        <ele>185.8</ele>
        <time>2022-03-21T08:50:16Z</time>
      </trkpt>
      <trkpt lat="46.93723" lon="5.34349">
        <ele>185.8</ele>
        <time>2022-03-21T08:50:17Z</time>
      </trkpt>
      <trkpt lat="46.93731" lon="5.3435">
        <ele>185.8</ele>
        <time>2022-03-21T08:50:18Z</time>
      </trkpt>
      <trkpt lat="46.93738" lon="5.34351">
        <ele>185.8</ele>
        <time>2022-03-21T08:50:19Z</time>
      </trkpt>
      <trkpt lat="46.93746" lon="5.34351">
        <ele>185.8</ele>
        <time>2022-03-21T08:50:20Z</time>
      </trkpt>
      <trkpt lat="46.93754" lon="5.34351">
        <ele>185.6</ele>
        <time>2022-03-21T08:50:21Z</time>
      </trkpt>
      <trkpt lat="46.93761" lon="5.34351">
        <ele>185.6</ele>
        <time>2022-03-21T08:50:22Z</time>
      </trkpt>
      <trkpt lat="46.93769" lon="5.3435">
        <ele>185.4</ele>
        <time>2022-03-21T08:50:23Z</time>
      </trkpt>
      <trkpt lat="46.93777" lon="5.34348">
        <ele>185.4</ele>
        <time>2022-03-21T08:50:24Z</time>
      </trkpt>
      <trkpt lat="46.93785" lon="5.34346">
        <ele>185.4</ele>
        <time>2022-03-21T08:50:25Z</time>
      </trkpt>
      <trkpt lat="46.93792" lon="5.34344">
        <ele>185.4</ele>
        <time>2022-03-21T08:50:26Z</time>
      </trkpt>
      <trkpt lat="46.938" lon="5.34342">
        <ele>185.2</ele>
        <time>2022-03-21T08:50:27Z</time>
      </trkpt>
      <trkpt lat="46.93807" lon="5.34341">
        <ele>185.2</ele>
        <time>2022-03-21T08:50:28Z</time>
      </trkpt>
      <trkpt lat="46.93813" lon="5.34339">
        <ele>185.2</ele>
        <time>2022-03-21T08:50:29Z</time>
      </trkpt>
      <trkpt lat="46.93819" lon="5.34338">
        <ele>185.2</ele>
        <time>2022-03-21T08:50:30Z</time>
      </trkpt>
      <trkpt lat="46.93824" lon="5.34337">
        <ele>185.2</ele>
        <time>2022-03-21T08:50:31Z</time>
      </trkpt>
      <trkpt lat="46.93828" lon="5.34336">
        <ele>185.2</ele>
        <time>2022-03-21T08:50:32Z</time>
      </trkpt>
      <trkpt lat="46.93833" lon="5.34334">
        <ele>185.2</ele>
        <time>2022-03-21T08:50:33Z</time>
      </trkpt>
      <trkpt lat="46.93837" lon="5.3433">
        <ele>185.2</ele>
        <time>2022-03-21T08:50:34Z</time>
      </trkpt>
      <trkpt lat="46.93839" lon="5.34324">
        <ele>184.8</ele>
        <time>2022-03-21T08:50:35Z</time>
      </trkpt>
      <trkpt lat="46.93841" lon="5.34317">
        <ele>184.8</ele>
        <time>2022-03-21T08:50:36Z</time>
      </trkpt>
      <trkpt lat="46.93842" lon="5.34309">
        <ele>184.8</ele>
        <time>2022-03-21T08:50:37Z</time>
      </trkpt>
      <trkpt lat="46.93843" lon="5.34301">
        <ele>184.6</ele>
        <time>2022-03-21T08:50:38Z</time>
      </trkpt>
      <trkpt lat="46.93844" lon="5.34292">
        <ele>184.6</ele>
        <time>2022-03-21T08:50:39Z</time>
      </trkpt>
      <trkpt lat="46.93846" lon="5.34283">
        <ele>184.6</ele>
        <time>2022-03-21T08:50:40Z</time>
      </trkpt>
      <trkpt lat="46.93849" lon="5.34275">
        <ele>184.8</ele>
        <time>2022-03-21T08:50:41Z</time>
      </trkpt>
      <trkpt lat="46.93853" lon="5.34266">
        <ele>184.8</ele>
        <time>2022-03-21T08:50:42Z</time>
      </trkpt>
      <trkpt lat="46.93856" lon="5.34257">
        <ele>184.8</ele>
        <time>2022-03-21T08:50:43Z</time>
      </trkpt>
      <trkpt lat="46.93859" lon="5.34248">
        <ele>184.8</ele>
        <time>2022-03-21T08:50:44Z</time>
      </trkpt>
      <trkpt lat="46.93862" lon="5.34239">
        <ele>184.8</ele>
        <time>2022-03-21T08:50:45Z</time>
      </trkpt>
      <trkpt lat="46.93865" lon="5.34229">
        <ele>184.8</ele>
        <time>2022-03-21T08:50:46Z</time>
      </trkpt>
      <trkpt lat="46.93868" lon="5.3422">
        <ele>185.2</ele>
        <time>2022-03-21T08:50:47Z</time>
      </trkpt>
      <trkpt lat="46.9387" lon="5.3421">
        <ele>185.2</ele>
        <time>2022-03-21T08:50:48Z</time>
      </trkpt>
      <trkpt lat="46.93873" lon="5.34201">
        <ele>185.2</ele>
        <time>2022-03-21T08:50:49Z</time>
      </trkpt>
      <trkpt lat="46.93876" lon="5.34191">
        <ele>185.2</ele>
        <time>2022-03-21T08:50:50Z</time>
      </trkpt>
      <trkpt lat="46.93879" lon="5.34181">
        <ele>185.2</ele>
        <time>2022-03-21T08:50:51Z</time>
      </trkpt>
      <trkpt lat="46.93882" lon="5.34172">
        <ele>185.2</ele>
        <time>2022-03-21T08:50:52Z</time>
      </trkpt>
      <trkpt lat="46.93884" lon="5.34162">
        <ele>185.2</ele>
        <time>2022-03-21T08:50:53Z</time>
      </trkpt>
      <trkpt lat="46.93887" lon="5.34151">
        <ele>185.2</ele>
        <time>2022-03-21T08:50:54Z</time>
      </trkpt>
      <trkpt lat="46.93889" lon="5.34141">
        <ele>185.2</ele>
        <time>2022-03-21T08:50:55Z</time>
      </trkpt>
      <trkpt lat="46.93892" lon="5.34131">
        <ele>185.2</ele>
        <time>2022-03-21T08:50:56Z</time>
      </trkpt>
      <trkpt lat="46.93895" lon="5.34121">
        <ele>185.2</ele>
        <time>2022-03-21T08:50:57Z</time>
      </trkpt>
      <trkpt lat="46.93898" lon="5.3411">
        <ele>185.2</ele>
        <time>2022-03-21T08:50:58Z</time>
      </trkpt>
      <trkpt lat="46.93901" lon="5.341">
        <ele>185.2</ele>
        <time>2022-03-21T08:51:00Z</time>
      </trkpt>
      <trkpt lat="46.93904" lon="5.34089">
        <ele>185.2</ele>
        <time>2022-03-21T08:51:01Z</time>
      </trkpt>
      <trkpt lat="46.93907" lon="5.34079">
        <ele>185.2</ele>
        <time>2022-03-21T08:51:02Z</time>
      </trkpt>
      <trkpt lat="46.93913" lon="5.34058">
        <ele>185.2</ele>
        <time>2022-03-21T08:51:03Z</time>
      </trkpt>
      <trkpt lat="46.93916" lon="5.34048">
        <ele>185.2</ele>
        <time>2022-03-21T08:51:04Z</time>
      </trkpt>
      <trkpt lat="46.93918" lon="5.34037">
        <ele>185.2</ele>
        <time>2022-03-21T08:51:05Z</time>
      </trkpt>
      <trkpt lat="46.9392" lon="5.34026">
        <ele>185.2</ele>
        <time>2022-03-21T08:51:06Z</time>
      </trkpt>
      <trkpt lat="46.93923" lon="5.34015">
        <ele>185.2</ele>
        <time>2022-03-21T08:51:07Z</time>
      </trkpt>
      <trkpt lat="46.93925" lon="5.34005">
        <ele>185.4</ele>
        <time>2022-03-21T08:51:08Z</time>
      </trkpt>
      <trkpt lat="46.93927" lon="5.33994">
        <ele>185.4</ele>
        <time>2022-03-21T08:51:09Z</time>
      </trkpt>
      <trkpt lat="46.93929" lon="5.33983">
        <ele>185.4</ele>
        <time>2022-03-21T08:51:10Z</time>
      </trkpt>
      <trkpt lat="46.93931" lon="5.33972">
        <ele>185.4</ele>
        <time>2022-03-21T08:51:11Z</time>
      </trkpt>
      <trkpt lat="46.93933" lon="5.33961">
        <ele>185.4</ele>
        <time>2022-03-21T08:51:12Z</time>
      </trkpt>
      <trkpt lat="46.93935" lon="5.3395">
        <ele>185.4</ele>
        <time>2022-03-21T08:51:13Z</time>
      </trkpt>
      <trkpt lat="46.93938" lon="5.3394">
        <ele>185.6</ele>
        <time>2022-03-21T08:51:14Z</time>
      </trkpt>
      <trkpt lat="46.9394" lon="5.33929">
        <ele>185.6</ele>
        <time>2022-03-21T08:51:15Z</time>
      </trkpt>
      <trkpt lat="46.93942" lon="5.33918">
        <ele>185.6</ele>
        <time>2022-03-21T08:51:16Z</time>
      </trkpt>
      <trkpt lat="46.93944" lon="5.33907">
        <ele>185.6</ele>
        <time>2022-03-21T08:51:17Z</time>
      </trkpt>
      <trkpt lat="46.93946" lon="5.33897">
        <ele>185.4</ele>
        <time>2022-03-21T08:51:18Z</time>
      </trkpt>
      <trkpt lat="46.93948" lon="5.33886">
        <ele>185.4</ele>
        <time>2022-03-21T08:51:19Z</time>
      </trkpt>
      <trkpt lat="46.9395" lon="5.33875">
        <ele>185.4</ele>
        <time>2022-03-21T08:51:20Z</time>
      </trkpt>
      <trkpt lat="46.93952" lon="5.33864">
        <ele>185.4</ele>
        <time>2022-03-21T08:51:21Z</time>
      </trkpt>
      <trkpt lat="46.93954" lon="5.33854">
        <ele>185.4</ele>
        <time>2022-03-21T08:51:22Z</time>
      </trkpt>
      <trkpt lat="46.93956" lon="5.33843">
        <ele>185.4</ele>
        <time>2022-03-21T08:51:23Z</time>
      </trkpt>
      <trkpt lat="46.93958" lon="5.33832">
        <ele>185.4</ele>
        <time>2022-03-21T08:51:24Z</time>
      </trkpt>
      <trkpt lat="46.9396" lon="5.33822">
        <ele>185.4</ele>
        <time>2022-03-21T08:51:25Z</time>
      </trkpt>
      <trkpt lat="46.93961" lon="5.33811">
        <ele>185.4</ele>
        <time>2022-03-21T08:51:26Z</time>
      </trkpt>
      <trkpt lat="46.93963" lon="5.338">
        <ele>185.4</ele>
        <time>2022-03-21T08:51:27Z</time>
      </trkpt>
      <trkpt lat="46.93965" lon="5.3379">
        <ele>185.4</ele>
        <time>2022-03-21T08:51:28Z</time>
      </trkpt>
      <trkpt lat="46.93967" lon="5.33779">
        <ele>185.4</ele>
        <time>2022-03-21T08:51:29Z</time>
      </trkpt>
      <trkpt lat="46.93969" lon="5.33769">
        <ele>185.4</ele>
        <time>2022-03-21T08:51:30Z</time>
      </trkpt>
      <trkpt lat="46.93972" lon="5.33758">
        <ele>185.4</ele>
        <time>2022-03-21T08:51:31Z</time>
      </trkpt>
      <trkpt lat="46.93975" lon="5.33742">
        <ele>185.4</ele>
        <time>2022-03-21T08:51:32Z</time>
      </trkpt>
      <trkpt lat="46.93976" lon="5.33737">
        <ele>185.4</ele>
        <time>2022-03-21T08:51:33Z</time>
      </trkpt>
      <trkpt lat="46.93978" lon="5.33726">
        <ele>185.4</ele>
        <time>2022-03-21T08:51:34Z</time>
      </trkpt>
      <trkpt lat="46.93981" lon="5.33716">
        <ele>185.4</ele>
        <time>2022-03-21T08:51:35Z</time>
      </trkpt>
      <trkpt lat="46.93983" lon="5.33705">
        <ele>185.2</ele>
        <time>2022-03-21T08:51:36Z</time>
      </trkpt>
      <trkpt lat="46.93985" lon="5.33694">
        <ele>185.2</ele>
        <time>2022-03-21T08:51:37Z</time>
      </trkpt>
      <trkpt lat="46.93987" lon="5.33683">
        <ele>185.2</ele>
        <time>2022-03-21T08:51:38Z</time>
      </trkpt>
      <trkpt lat="46.93989" lon="5.33672">
        <ele>185.2</ele>
        <time>2022-03-21T08:51:39Z</time>
      </trkpt>
      <trkpt lat="46.9399" lon="5.33661">
        <ele>185.2</ele>
        <time>2022-03-21T08:51:40Z</time>
      </trkpt>
      <trkpt lat="46.93991" lon="5.3365">
        <ele>185.2</ele>
        <time>2022-03-21T08:51:41Z</time>
      </trkpt>
      <trkpt lat="46.93992" lon="5.33638">
        <ele>185.2</ele>
        <time>2022-03-21T08:51:42Z</time>
      </trkpt>
      <trkpt lat="46.93993" lon="5.33627">
        <ele>185.2</ele>
        <time>2022-03-21T08:51:43Z</time>
      </trkpt>
      <trkpt lat="46.93994" lon="5.33616">
        <ele>185.2</ele>
        <time>2022-03-21T08:51:44Z</time>
      </trkpt>
      <trkpt lat="46.93995" lon="5.33605">
        <ele>185.2</ele>
        <time>2022-03-21T08:51:45Z</time>
      </trkpt>
      <trkpt lat="46.93996" lon="5.33594">
        <ele>185.2</ele>
        <time>2022-03-21T08:51:46Z</time>
      </trkpt>
      <trkpt lat="46.93997" lon="5.33582">
        <ele>185.2</ele>
        <time>2022-03-21T08:51:47Z</time>
      </trkpt>
      <trkpt lat="46.93997" lon="5.33571">
        <ele>185.2</ele>
        <time>2022-03-21T08:51:48Z</time>
      </trkpt>
      <trkpt lat="46.93997" lon="5.3356">
        <ele>185.2</ele>
        <time>2022-03-21T08:51:49Z</time>
      </trkpt>
      <trkpt lat="46.93998" lon="5.33548">
        <ele>185.2</ele>
        <time>2022-03-21T08:51:50Z</time>
      </trkpt>
      <trkpt lat="46.93998" lon="5.33537">
        <ele>185.2</ele>
        <time>2022-03-21T08:51:51Z</time>
      </trkpt>
      <trkpt lat="46.93998" lon="5.33525">
        <ele>185.2</ele>
        <time>2022-03-21T08:51:52Z</time>
      </trkpt>
      <trkpt lat="46.93999" lon="5.33513">
        <ele>185.2</ele>
        <time>2022-03-21T08:51:53Z</time>
      </trkpt>
      <trkpt lat="46.93999" lon="5.33501">
        <ele>185.2</ele>
        <time>2022-03-21T08:51:54Z</time>
      </trkpt>
      <trkpt lat="46.93999" lon="5.3349">
        <ele>185.2</ele>
        <time>2022-03-21T08:51:55Z</time>
      </trkpt>
      <trkpt lat="46.93998" lon="5.33478">
        <ele>185.2</ele>
        <time>2022-03-21T08:51:56Z</time>
      </trkpt>
      <trkpt lat="46.93998" lon="5.33467">
        <ele>185.2</ele>
        <time>2022-03-21T08:51:57Z</time>
      </trkpt>
      <trkpt lat="46.93999" lon="5.33456">
        <ele>185.2</ele>
        <time>2022-03-21T08:51:58Z</time>
      </trkpt>
      <trkpt lat="46.93999" lon="5.33444">
        <ele>185.2</ele>
        <time>2022-03-21T08:51:59Z</time>
      </trkpt>
      <trkpt lat="46.93998" lon="5.33433">
        <ele>185</ele>
        <time>2022-03-21T08:52:00Z</time>
      </trkpt>
      <trkpt lat="46.93998" lon="5.33422">
        <ele>185</ele>
        <time>2022-03-21T08:52:01Z</time>
      </trkpt>
      <trkpt lat="46.93998" lon="5.3341">
        <ele>185</ele>
        <time>2022-03-21T08:52:02Z</time>
      </trkpt>
      <trkpt lat="46.93997" lon="5.33399">
        <ele>185</ele>
        <time>2022-03-21T08:52:03Z</time>
      </trkpt>
      <trkpt lat="46.93997" lon="5.33388">
        <ele>185</ele>
        <time>2022-03-21T08:52:04Z</time>
      </trkpt>
      <trkpt lat="46.93996" lon="5.33377">
        <ele>185</ele>
        <time>2022-03-21T08:52:05Z</time>
      </trkpt>
      <trkpt lat="46.93995" lon="5.33367">
        <ele>185</ele>
        <time>2022-03-21T08:52:06Z</time>
      </trkpt>
      <trkpt lat="46.93995" lon="5.33356">
        <ele>185</ele>
        <time>2022-03-21T08:52:07Z</time>
      </trkpt>
      <trkpt lat="46.93994" lon="5.33345">
        <ele>185</ele>
        <time>2022-03-21T08:52:08Z</time>
      </trkpt>
      <trkpt lat="46.93993" lon="5.33334">
        <ele>184.8</ele>
        <time>2022-03-21T08:52:09Z</time>
      </trkpt>
      <trkpt lat="46.93993" lon="5.33323">
        <ele>184.8</ele>
        <time>2022-03-21T08:52:10Z</time>
      </trkpt>
      <trkpt lat="46.93992" lon="5.33313">
        <ele>184.8</ele>
        <time>2022-03-21T08:52:11Z</time>
      </trkpt>
      <trkpt lat="46.93992" lon="5.33302">
        <ele>184.8</ele>
        <time>2022-03-21T08:52:12Z</time>
      </trkpt>
      <trkpt lat="46.93991" lon="5.33291">
        <ele>184.8</ele>
        <time>2022-03-21T08:52:13Z</time>
      </trkpt>
      <trkpt lat="46.9399" lon="5.3328">
        <ele>184.8</ele>
        <time>2022-03-21T08:52:14Z</time>
      </trkpt>
      <trkpt lat="46.9399" lon="5.33269">
        <ele>184.8</ele>
        <time>2022-03-21T08:52:15Z</time>
      </trkpt>
      <trkpt lat="46.93989" lon="5.33257">
        <ele>184.8</ele>
        <time>2022-03-21T08:52:16Z</time>
      </trkpt>
      <trkpt lat="46.93988" lon="5.33246">
        <ele>184.8</ele>
        <time>2022-03-21T08:52:17Z</time>
      </trkpt>
      <trkpt lat="46.93987" lon="5.33235">
        <ele>185</ele>
        <time>2022-03-21T08:52:18Z</time>
      </trkpt>
      <trkpt lat="46.93987" lon="5.33224">
        <ele>185</ele>
        <time>2022-03-21T08:52:19Z</time>
      </trkpt>
      <trkpt lat="46.93986" lon="5.33213">
        <ele>185</ele>
        <time>2022-03-21T08:52:20Z</time>
      </trkpt>
      <trkpt lat="46.93985" lon="5.33201">
        <ele>185</ele>
        <time>2022-03-21T08:52:21Z</time>
      </trkpt>
      <trkpt lat="46.93984" lon="5.3319">
        <ele>185</ele>
        <time>2022-03-21T08:52:22Z</time>
      </trkpt>
      <trkpt lat="46.93984" lon="5.33179">
        <ele>185</ele>
        <time>2022-03-21T08:52:23Z</time>
      </trkpt>
      <trkpt lat="46.93983" lon="5.33168">
        <ele>185</ele>
        <time>2022-03-21T08:52:24Z</time>
      </trkpt>
      <trkpt lat="46.93982" lon="5.33157">
        <ele>185</ele>
        <time>2022-03-21T08:52:25Z</time>
      </trkpt>
      <trkpt lat="46.93982" lon="5.33146">
        <ele>185</ele>
        <time>2022-03-21T08:52:26Z</time>
      </trkpt>
      <trkpt lat="46.93981" lon="5.33135">
        <ele>185</ele>
        <time>2022-03-21T08:52:27Z</time>
      </trkpt>
      <trkpt lat="46.9398" lon="5.33124">
        <ele>185</ele>
        <time>2022-03-21T08:52:28Z</time>
      </trkpt>
      <trkpt lat="46.93979" lon="5.33113">
        <ele>185</ele>
        <time>2022-03-21T08:52:29Z</time>
      </trkpt>
      <trkpt lat="46.93978" lon="5.33102">
        <ele>185</ele>
        <time>2022-03-21T08:52:30Z</time>
      </trkpt>
      <trkpt lat="46.93977" lon="5.33091">
        <ele>185</ele>
        <time>2022-03-21T08:52:31Z</time>
      </trkpt>
      <trkpt lat="46.93977" lon="5.3308">
        <ele>185</ele>
        <time>2022-03-21T08:52:32Z</time>
      </trkpt>
      <trkpt lat="46.93976" lon="5.33069">
        <ele>185</ele>
        <time>2022-03-21T08:52:33Z</time>
      </trkpt>
      <trkpt lat="46.93975" lon="5.33057">
        <ele>185</ele>
        <time>2022-03-21T08:52:34Z</time>
      </trkpt>
      <trkpt lat="46.93974" lon="5.33046">
        <ele>184.6</ele>
        <time>2022-03-21T08:52:35Z</time>
      </trkpt>
      <trkpt lat="46.93974" lon="5.33035">
        <ele>184.6</ele>
        <time>2022-03-21T08:52:36Z</time>
      </trkpt>
      <trkpt lat="46.93973" lon="5.33023">
        <ele>184.6</ele>
        <time>2022-03-21T08:52:37Z</time>
      </trkpt>
      <trkpt lat="46.93972" lon="5.33012">
        <ele>184.4</ele>
        <time>2022-03-21T08:52:38Z</time>
      </trkpt>
      <trkpt lat="46.93972" lon="5.33001">
        <ele>184.4</ele>
        <time>2022-03-21T08:52:39Z</time>
      </trkpt>
      <trkpt lat="46.93972" lon="5.32989">
        <ele>184.4</ele>
        <time>2022-03-21T08:52:40Z</time>
      </trkpt>
      <trkpt lat="46.93972" lon="5.32978">
        <ele>184.4</ele>
        <time>2022-03-21T08:52:41Z</time>
      </trkpt>
      <trkpt lat="46.93973" lon="5.32967">
        <ele>184.4</ele>
        <time>2022-03-21T08:52:42Z</time>
      </trkpt>
      <trkpt lat="46.93974" lon="5.32956">
        <ele>184.2</ele>
        <time>2022-03-21T08:52:43Z</time>
      </trkpt>
      <trkpt lat="46.93976" lon="5.32945">
        <ele>184.2</ele>
        <time>2022-03-21T08:52:44Z</time>
      </trkpt>
      <trkpt lat="46.93979" lon="5.32934">
        <ele>184.2</ele>
        <time>2022-03-21T08:52:45Z</time>
      </trkpt>
      <trkpt lat="46.93982" lon="5.32923">
        <ele>184.2</ele>
        <time>2022-03-21T08:52:46Z</time>
      </trkpt>
      <trkpt lat="46.93985" lon="5.32913">
        <ele>184.2</ele>
        <time>2022-03-21T08:52:47Z</time>
      </trkpt>
      <trkpt lat="46.93988" lon="5.32903">
        <ele>184.2</ele>
        <time>2022-03-21T08:52:48Z</time>
      </trkpt>
      <trkpt lat="46.93992" lon="5.32893">
        <ele>184.2</ele>
        <time>2022-03-21T08:52:49Z</time>
      </trkpt>
      <trkpt lat="46.93996" lon="5.32883">
        <ele>184.2</ele>
        <time>2022-03-21T08:52:50Z</time>
      </trkpt>
      <trkpt lat="46.94" lon="5.32874">
        <ele>184.2</ele>
        <time>2022-03-21T08:52:51Z</time>
      </trkpt>
      <trkpt lat="46.94003" lon="5.32864">
        <ele>184.4</ele>
        <time>2022-03-21T08:52:52Z</time>
      </trkpt>
      <trkpt lat="46.94007" lon="5.32854">
        <ele>184.4</ele>
        <time>2022-03-21T08:52:53Z</time>
      </trkpt>
      <trkpt lat="46.94011" lon="5.32844">
        <ele>184.4</ele>
        <time>2022-03-21T08:52:54Z</time>
      </trkpt>
      <trkpt lat="46.94015" lon="5.32834">
        <ele>184.4</ele>
        <time>2022-03-21T08:52:55Z</time>
      </trkpt>
      <trkpt lat="46.94018" lon="5.32824">
        <ele>184.4</ele>
        <time>2022-03-21T08:52:56Z</time>
      </trkpt>
      <trkpt lat="46.94022" lon="5.32814">
        <ele>184.6</ele>
        <time>2022-03-21T08:52:57Z</time>
      </trkpt>
      <trkpt lat="46.94026" lon="5.32805">
        <ele>184.6</ele>
        <time>2022-03-21T08:52:58Z</time>
      </trkpt>
      <trkpt lat="46.9403" lon="5.32795">
        <ele>184.6</ele>
        <time>2022-03-21T08:52:59Z</time>
      </trkpt>
      <trkpt lat="46.94034" lon="5.32785">
        <ele>184.6</ele>
        <time>2022-03-21T08:53:00Z</time>
      </trkpt>
      <trkpt lat="46.94037" lon="5.32775">
        <ele>184.6</ele>
        <time>2022-03-21T08:53:01Z</time>
      </trkpt>
      <trkpt lat="46.94041" lon="5.32765">
        <ele>184.6</ele>
        <time>2022-03-21T08:53:02Z</time>
      </trkpt>
      <trkpt lat="46.94045" lon="5.32755">
        <ele>184.6</ele>
        <time>2022-03-21T08:53:03Z</time>
      </trkpt>
      <trkpt lat="46.94048" lon="5.32745">
        <ele>184.6</ele>
        <time>2022-03-21T08:53:04Z</time>
      </trkpt>
      <trkpt lat="46.94052" lon="5.32736">
        <ele>184.6</ele>
        <time>2022-03-21T08:53:05Z</time>
      </trkpt>
      <trkpt lat="46.94056" lon="5.32725">
        <ele>184.4</ele>
        <time>2022-03-21T08:53:06Z</time>
      </trkpt>
      <trkpt lat="46.94059" lon="5.32715">
        <ele>184.4</ele>
        <time>2022-03-21T08:53:07Z</time>
      </trkpt>
      <trkpt lat="46.94063" lon="5.32705">
        <ele>184.4</ele>
        <time>2022-03-21T08:53:08Z</time>
      </trkpt>
      <trkpt lat="46.94067" lon="5.32695">
        <ele>184.4</ele>
        <time>2022-03-21T08:53:09Z</time>
      </trkpt>
      <trkpt lat="46.94071" lon="5.32685">
        <ele>184.4</ele>
        <time>2022-03-21T08:53:10Z</time>
      </trkpt>
      <trkpt lat="46.94074" lon="5.32675">
        <ele>184.2</ele>
        <time>2022-03-21T08:53:11Z</time>
      </trkpt>
      <trkpt lat="46.94078" lon="5.32666">
        <ele>184.2</ele>
        <time>2022-03-21T08:53:12Z</time>
      </trkpt>
      <trkpt lat="46.94081" lon="5.32656">
        <ele>184.2</ele>
        <time>2022-03-21T08:53:13Z</time>
      </trkpt>
      <trkpt lat="46.94085" lon="5.32646">
        <ele>184.2</ele>
        <time>2022-03-21T08:53:14Z</time>
      </trkpt>
      <trkpt lat="46.94089" lon="5.32636">
        <ele>184.2</ele>
        <time>2022-03-21T08:53:15Z</time>
      </trkpt>
      <trkpt lat="46.94092" lon="5.32626">
        <ele>184.2</ele>
        <time>2022-03-21T08:53:16Z</time>
      </trkpt>
      <trkpt lat="46.94096" lon="5.32616">
        <ele>184.2</ele>
        <time>2022-03-21T08:53:17Z</time>
      </trkpt>
      <trkpt lat="46.941" lon="5.32606">
        <ele>184.2</ele>
        <time>2022-03-21T08:53:18Z</time>
      </trkpt>
      <trkpt lat="46.94104" lon="5.32596">
        <ele>184.2</ele>
        <time>2022-03-21T08:53:19Z</time>
      </trkpt>
      <trkpt lat="46.94107" lon="5.32586">
        <ele>184.2</ele>
        <time>2022-03-21T08:53:20Z</time>
      </trkpt>
      <trkpt lat="46.94111" lon="5.32576">
        <ele>184</ele>
        <time>2022-03-21T08:53:21Z</time>
      </trkpt>
      <trkpt lat="46.94115" lon="5.32566">
        <ele>184</ele>
        <time>2022-03-21T08:53:22Z</time>
      </trkpt>
      <trkpt lat="46.94119" lon="5.32555">
        <ele>184</ele>
        <time>2022-03-21T08:53:23Z</time>
      </trkpt>
      <trkpt lat="46.94123" lon="5.32546">
        <ele>184</ele>
        <time>2022-03-21T08:53:24Z</time>
      </trkpt>
      <trkpt lat="46.94127" lon="5.32536">
        <ele>184</ele>
        <time>2022-03-21T08:53:25Z</time>
      </trkpt>
      <trkpt lat="46.9413" lon="5.32526">
        <ele>184</ele>
        <time>2022-03-21T08:53:26Z</time>
      </trkpt>
      <trkpt lat="46.94134" lon="5.32516">
        <ele>184.2</ele>
        <time>2022-03-21T08:53:27Z</time>
      </trkpt>
      <trkpt lat="46.94138" lon="5.32506">
        <ele>184.2</ele>
        <time>2022-03-21T08:53:28Z</time>
      </trkpt>
      <trkpt lat="46.94141" lon="5.32496">
        <ele>184.2</ele>
        <time>2022-03-21T08:53:29Z</time>
      </trkpt>
      <trkpt lat="46.94145" lon="5.32487">
        <ele>184.4</ele>
        <time>2022-03-21T08:53:30Z</time>
      </trkpt>
      <trkpt lat="46.94148" lon="5.32478">
        <ele>184.4</ele>
        <time>2022-03-21T08:53:31Z</time>
      </trkpt>
      <trkpt lat="46.94152" lon="5.32469">
        <ele>184.8</ele>
        <time>2022-03-21T08:53:32Z</time>
      </trkpt>
      <trkpt lat="46.94155" lon="5.32459">
        <ele>184.8</ele>
        <time>2022-03-21T08:53:33Z</time>
      </trkpt>
      <trkpt lat="46.94159" lon="5.3245">
        <ele>184.8</ele>
        <time>2022-03-21T08:53:34Z</time>
      </trkpt>
      <trkpt lat="46.94162" lon="5.3244">
        <ele>184.8</ele>
        <time>2022-03-21T08:53:35Z</time>
      </trkpt>
      <trkpt lat="46.94166" lon="5.3243">
        <ele>184.8</ele>
        <time>2022-03-21T08:53:36Z</time>
      </trkpt>
      <trkpt lat="46.94169" lon="5.32421">
        <ele>184.8</ele>
        <time>2022-03-21T08:53:37Z</time>
      </trkpt>
      <trkpt lat="46.94173" lon="5.32411">
        <ele>185</ele>
        <time>2022-03-21T08:53:38Z</time>
      </trkpt>
      <trkpt lat="46.94176" lon="5.32401">
        <ele>185</ele>
        <time>2022-03-21T08:53:39Z</time>
      </trkpt>
      <trkpt lat="46.94179" lon="5.32391">
        <ele>185</ele>
        <time>2022-03-21T08:53:40Z</time>
      </trkpt>
      <trkpt lat="46.94182" lon="5.32381">
        <ele>185</ele>
        <time>2022-03-21T08:53:41Z</time>
      </trkpt>
      <trkpt lat="46.94185" lon="5.32372">
        <ele>185</ele>
        <time>2022-03-21T08:53:42Z</time>
      </trkpt>
      <trkpt lat="46.94188" lon="5.32362">
        <ele>185</ele>
        <time>2022-03-21T08:53:43Z</time>
      </trkpt>
      <trkpt lat="46.94191" lon="5.32352">
        <ele>185</ele>
        <time>2022-03-21T08:53:44Z</time>
      </trkpt>
      <trkpt lat="46.94193" lon="5.32341">
        <ele>185</ele>
        <time>2022-03-21T08:53:45Z</time>
      </trkpt>
      <trkpt lat="46.94195" lon="5.32331">
        <ele>185</ele>
        <time>2022-03-21T08:53:46Z</time>
      </trkpt>
      <trkpt lat="46.94197" lon="5.3232">
        <ele>185</ele>
        <time>2022-03-21T08:53:47Z</time>
      </trkpt>
      <trkpt lat="46.94198" lon="5.3231">
        <ele>184.8</ele>
        <time>2022-03-21T08:53:48Z</time>
      </trkpt>
      <trkpt lat="46.942" lon="5.323">
        <ele>184.8</ele>
        <time>2022-03-21T08:53:49Z</time>
      </trkpt>
      <trkpt lat="46.94201" lon="5.32289">
        <ele>184.8</ele>
        <time>2022-03-21T08:53:50Z</time>
      </trkpt>
      <trkpt lat="46.94203" lon="5.32279">
        <ele>184.8</ele>
        <time>2022-03-21T08:53:51Z</time>
      </trkpt>
      <trkpt lat="46.94204" lon="5.32268">
        <ele>184.8</ele>
        <time>2022-03-21T08:53:52Z</time>
      </trkpt>
      <trkpt lat="46.94205" lon="5.32257">
        <ele>185</ele>
        <time>2022-03-21T08:53:53Z</time>
      </trkpt>
      <trkpt lat="46.94207" lon="5.32246">
        <ele>185</ele>
        <time>2022-03-21T08:53:54Z</time>
      </trkpt>
      <trkpt lat="46.94208" lon="5.32235">
        <ele>185</ele>
        <time>2022-03-21T08:53:55Z</time>
      </trkpt>
      <trkpt lat="46.94209" lon="5.32224">
        <ele>185</ele>
        <time>2022-03-21T08:53:56Z</time>
      </trkpt>
      <trkpt lat="46.94211" lon="5.32213">
        <ele>185</ele>
        <time>2022-03-21T08:53:57Z</time>
      </trkpt>
      <trkpt lat="46.94212" lon="5.32202">
        <ele>185</ele>
        <time>2022-03-21T08:53:58Z</time>
      </trkpt>
      <trkpt lat="46.94214" lon="5.32191">
        <ele>185</ele>
        <time>2022-03-21T08:53:59Z</time>
      </trkpt>
      <trkpt lat="46.94215" lon="5.3218">
        <ele>185</ele>
        <time>2022-03-21T08:54:00Z</time>
      </trkpt>
      <trkpt lat="46.94216" lon="5.32169">
        <ele>185</ele>
        <time>2022-03-21T08:54:01Z</time>
      </trkpt>
      <trkpt lat="46.94218" lon="5.32158">
        <ele>185</ele>
        <time>2022-03-21T08:54:02Z</time>
      </trkpt>
      <trkpt lat="46.9422" lon="5.32148">
        <ele>185</ele>
        <time>2022-03-21T08:54:03Z</time>
      </trkpt>
      <trkpt lat="46.94222" lon="5.32137">
        <ele>185.2</ele>
        <time>2022-03-21T08:54:04Z</time>
      </trkpt>
      <trkpt lat="46.94223" lon="5.32126">
        <ele>185.2</ele>
        <time>2022-03-21T08:54:05Z</time>
      </trkpt>
      <trkpt lat="46.94225" lon="5.32115">
        <ele>185.2</ele>
        <time>2022-03-21T08:54:06Z</time>
      </trkpt>
      <trkpt lat="46.94227" lon="5.32104">
        <ele>185.2</ele>
        <time>2022-03-21T08:54:07Z</time>
      </trkpt>
      <trkpt lat="46.94229" lon="5.32094">
        <ele>185.2</ele>
        <time>2022-03-21T08:54:08Z</time>
      </trkpt>
      <trkpt lat="46.94231" lon="5.32083">
        <ele>185.2</ele>
        <time>2022-03-21T08:54:09Z</time>
      </trkpt>
      <trkpt lat="46.94233" lon="5.32073">
        <ele>185.2</ele>
        <time>2022-03-21T08:54:10Z</time>
      </trkpt>
      <trkpt lat="46.94236" lon="5.32063">
        <ele>185.2</ele>
        <time>2022-03-21T08:54:11Z</time>
      </trkpt>
      <trkpt lat="46.94238" lon="5.32052">
        <ele>185.2</ele>
        <time>2022-03-21T08:54:12Z</time>
      </trkpt>
      <trkpt lat="46.9424" lon="5.32042">
        <ele>185.2</ele>
        <time>2022-03-21T08:54:13Z</time>
      </trkpt>
      <trkpt lat="46.94243" lon="5.32032">
        <ele>185.2</ele>
        <time>2022-03-21T08:54:14Z</time>
      </trkpt>
      <trkpt lat="46.94245" lon="5.32022">
        <ele>185.2</ele>
        <time>2022-03-21T08:54:15Z</time>
      </trkpt>
      <trkpt lat="46.94248" lon="5.32012">
        <ele>185.2</ele>
        <time>2022-03-21T08:54:16Z</time>
      </trkpt>
      <trkpt lat="46.94251" lon="5.32002">
        <ele>185.2</ele>
        <time>2022-03-21T08:54:17Z</time>
      </trkpt>
      <trkpt lat="46.94255" lon="5.31993">
        <ele>185.2</ele>
        <time>2022-03-21T08:54:18Z</time>
      </trkpt>
      <trkpt lat="46.94258" lon="5.31983">
        <ele>185.4</ele>
        <time>2022-03-21T08:54:19Z</time>
      </trkpt>
      <trkpt lat="46.94262" lon="5.31974">
        <ele>185.4</ele>
        <time>2022-03-21T08:54:20Z</time>
      </trkpt>
      <trkpt lat="46.94266" lon="5.31965">
        <ele>185.4</ele>
        <time>2022-03-21T08:54:21Z</time>
      </trkpt>
      <trkpt lat="46.94269" lon="5.31956">
        <ele>185.2</ele>
        <time>2022-03-21T08:54:22Z</time>
      </trkpt>
      <trkpt lat="46.94273" lon="5.31947">
        <ele>185.2</ele>
        <time>2022-03-21T08:54:23Z</time>
      </trkpt>
      <trkpt lat="46.94277" lon="5.31938">
        <ele>185.2</ele>
        <time>2022-03-21T08:54:24Z</time>
      </trkpt>
      <trkpt lat="46.94281" lon="5.3193">
        <ele>185.2</ele>
        <time>2022-03-21T08:54:25Z</time>
      </trkpt>
      <trkpt lat="46.94284" lon="5.31921">
        <ele>185</ele>
        <time>2022-03-21T08:54:26Z</time>
      </trkpt>
      <trkpt lat="46.94288" lon="5.31912">
        <ele>185</ele>
        <time>2022-03-21T08:54:27Z</time>
      </trkpt>
      <trkpt lat="46.94292" lon="5.31903">
        <ele>185</ele>
        <time>2022-03-21T08:54:28Z</time>
      </trkpt>
      <trkpt lat="46.94296" lon="5.31894">
        <ele>185</ele>
        <time>2022-03-21T08:54:29Z</time>
      </trkpt>
      <trkpt lat="46.94299" lon="5.31884">
        <ele>185</ele>
        <time>2022-03-21T08:54:30Z</time>
      </trkpt>
      <trkpt lat="46.94303" lon="5.31875">
        <ele>185</ele>
        <time>2022-03-21T08:54:31Z</time>
      </trkpt>
      <trkpt lat="46.94307" lon="5.31866">
        <ele>185</ele>
        <time>2022-03-21T08:54:32Z</time>
      </trkpt>
      <trkpt lat="46.94311" lon="5.31856">
        <ele>185</ele>
        <time>2022-03-21T08:54:33Z</time>
      </trkpt>
      <trkpt lat="46.94315" lon="5.31847">
        <ele>185</ele>
        <time>2022-03-21T08:54:34Z</time>
      </trkpt>
      <trkpt lat="46.94319" lon="5.31837">
        <ele>185</ele>
        <time>2022-03-21T08:54:35Z</time>
      </trkpt>
      <trkpt lat="46.94323" lon="5.31828">
        <ele>185</ele>
        <time>2022-03-21T08:54:36Z</time>
      </trkpt>
      <trkpt lat="46.94327" lon="5.31818">
        <ele>185</ele>
        <time>2022-03-21T08:54:37Z</time>
      </trkpt>
      <trkpt lat="46.94331" lon="5.31809">
        <ele>185</ele>
        <time>2022-03-21T08:54:38Z</time>
      </trkpt>
      <trkpt lat="46.94334" lon="5.31799">
        <ele>184.6</ele>
        <time>2022-03-21T08:54:39Z</time>
      </trkpt>
      <trkpt lat="46.94338" lon="5.31789">
        <ele>184.6</ele>
        <time>2022-03-21T08:54:40Z</time>
      </trkpt>
      <trkpt lat="46.94342" lon="5.3178">
        <ele>184.6</ele>
        <time>2022-03-21T08:54:41Z</time>
      </trkpt>
      <trkpt lat="46.94346" lon="5.31771">
        <ele>184.6</ele>
        <time>2022-03-21T08:54:42Z</time>
      </trkpt>
      <trkpt lat="46.9435" lon="5.31761">
        <ele>184.6</ele>
        <time>2022-03-21T08:54:43Z</time>
      </trkpt>
      <trkpt lat="46.94353" lon="5.31752">
        <ele>184.4</ele>
        <time>2022-03-21T08:54:44Z</time>
      </trkpt>
      <trkpt lat="46.94357" lon="5.31742">
        <ele>184.4</ele>
        <time>2022-03-21T08:54:45Z</time>
      </trkpt>
      <trkpt lat="46.94361" lon="5.31733">
        <ele>184.4</ele>
        <time>2022-03-21T08:54:46Z</time>
      </trkpt>
      <trkpt lat="46.94365" lon="5.31723">
        <ele>184.4</ele>
        <time>2022-03-21T08:54:47Z</time>
      </trkpt>
      <trkpt lat="46.94369" lon="5.31714">
        <ele>184.4</ele>
        <time>2022-03-21T08:54:48Z</time>
      </trkpt>
      <trkpt lat="46.94373" lon="5.31704">
        <ele>184.4</ele>
        <time>2022-03-21T08:54:49Z</time>
      </trkpt>
      <trkpt lat="46.94377" lon="5.31694">
        <ele>184.4</ele>
        <time>2022-03-21T08:54:50Z</time>
      </trkpt>
      <trkpt lat="46.94381" lon="5.31685">
        <ele>184.4</ele>
        <time>2022-03-21T08:54:51Z</time>
      </trkpt>
      <trkpt lat="46.94385" lon="5.31675">
        <ele>184.4</ele>
        <time>2022-03-21T08:54:52Z</time>
      </trkpt>
      <trkpt lat="46.94389" lon="5.31665">
        <ele>184.2</ele>
        <time>2022-03-21T08:54:53Z</time>
      </trkpt>
      <trkpt lat="46.94392" lon="5.31655">
        <ele>184.2</ele>
        <time>2022-03-21T08:54:54Z</time>
      </trkpt>
      <trkpt lat="46.94396" lon="5.31646">
        <ele>184.2</ele>
        <time>2022-03-21T08:54:56Z</time>
      </trkpt>
      <trkpt lat="46.944" lon="5.31636">
        <ele>184.2</ele>
        <time>2022-03-21T08:54:57Z</time>
      </trkpt>
      <trkpt lat="46.94403" lon="5.31626">
        <ele>184.2</ele>
        <time>2022-03-21T08:54:58Z</time>
      </trkpt>
      <trkpt lat="46.94407" lon="5.31617">
        <ele>184.2</ele>
        <time>2022-03-21T08:54:59Z</time>
      </trkpt>
      <trkpt lat="46.9441" lon="5.31607">
        <ele>184.2</ele>
        <time>2022-03-21T08:55:00Z</time>
      </trkpt>
      <trkpt lat="46.94414" lon="5.31597">
        <ele>184.2</ele>
        <time>2022-03-21T08:55:01Z</time>
      </trkpt>
      <trkpt lat="46.94417" lon="5.31587">
        <ele>184.2</ele>
        <time>2022-03-21T08:55:02Z</time>
      </trkpt>
      <trkpt lat="46.9442" lon="5.31577">
        <ele>184.2</ele>
        <time>2022-03-21T08:55:03Z</time>
      </trkpt>
      <trkpt lat="46.94426" lon="5.31557">
        <ele>184.2</ele>
        <time>2022-03-21T08:55:04Z</time>
      </trkpt>
      <trkpt lat="46.94429" lon="5.31547">
        <ele>184.2</ele>
        <time>2022-03-21T08:55:05Z</time>
      </trkpt>
      <trkpt lat="46.94432" lon="5.31536">
        <ele>184.2</ele>
        <time>2022-03-21T08:55:06Z</time>
      </trkpt>
      <trkpt lat="46.94434" lon="5.31526">
        <ele>184.2</ele>
        <time>2022-03-21T08:55:07Z</time>
      </trkpt>
      <trkpt lat="46.94436" lon="5.31516">
        <ele>184.2</ele>
        <time>2022-03-21T08:55:08Z</time>
      </trkpt>
      <trkpt lat="46.94439" lon="5.31505">
        <ele>184.2</ele>
        <time>2022-03-21T08:55:09Z</time>
      </trkpt>
      <trkpt lat="46.9444" lon="5.31495">
        <ele>184.4</ele>
        <time>2022-03-21T08:55:10Z</time>
      </trkpt>
      <trkpt lat="46.94442" lon="5.31484">
        <ele>184.4</ele>
        <time>2022-03-21T08:55:11Z</time>
      </trkpt>
      <trkpt lat="46.94444" lon="5.31473">
        <ele>184.4</ele>
        <time>2022-03-21T08:55:12Z</time>
      </trkpt>
      <trkpt lat="46.94445" lon="5.31462">
        <ele>184.4</ele>
        <time>2022-03-21T08:55:13Z</time>
      </trkpt>
      <trkpt lat="46.94446" lon="5.31451">
        <ele>184.4</ele>
        <time>2022-03-21T08:55:14Z</time>
      </trkpt>
      <trkpt lat="46.94447" lon="5.3144">
        <ele>184.4</ele>
        <time>2022-03-21T08:55:15Z</time>
      </trkpt>
      <trkpt lat="46.94448" lon="5.31429">
        <ele>184.4</ele>
        <time>2022-03-21T08:55:16Z</time>
      </trkpt>
      <trkpt lat="46.94449" lon="5.31419">
        <ele>184.4</ele>
        <time>2022-03-21T08:55:17Z</time>
      </trkpt>
      <trkpt lat="46.9445" lon="5.31408">
        <ele>184.4</ele>
        <time>2022-03-21T08:55:18Z</time>
      </trkpt>
      <trkpt lat="46.94451" lon="5.31397">
        <ele>184.4</ele>
        <time>2022-03-21T08:55:19Z</time>
      </trkpt>
      <trkpt lat="46.94452" lon="5.31386">
        <ele>184.4</ele>
        <time>2022-03-21T08:55:20Z</time>
      </trkpt>
      <trkpt lat="46.94453" lon="5.31375">
        <ele>184.4</ele>
        <time>2022-03-21T08:55:21Z</time>
      </trkpt>
      <trkpt lat="46.94454" lon="5.31364">
        <ele>184.4</ele>
        <time>2022-03-21T08:55:22Z</time>
      </trkpt>
      <trkpt lat="46.94455" lon="5.31353">
        <ele>184.4</ele>
        <time>2022-03-21T08:55:23Z</time>
      </trkpt>
      <trkpt lat="46.94456" lon="5.31342">
        <ele>184.4</ele>
        <time>2022-03-21T08:55:24Z</time>
      </trkpt>
      <trkpt lat="46.94457" lon="5.31332">
        <ele>184.4</ele>
        <time>2022-03-21T08:55:25Z</time>
      </trkpt>
      <trkpt lat="46.94457" lon="5.31321">
        <ele>184.2</ele>
        <time>2022-03-21T08:55:26Z</time>
      </trkpt>
      <trkpt lat="46.94459" lon="5.31305">
        <ele>184.2</ele>
        <time>2022-03-21T08:55:27Z</time>
      </trkpt>
      <trkpt lat="46.94459" lon="5.313">
        <ele>184.2</ele>
        <time>2022-03-21T08:55:28Z</time>
      </trkpt>
      <trkpt lat="46.9446" lon="5.31289">
        <ele>184.2</ele>
        <time>2022-03-21T08:55:29Z</time>
      </trkpt>
      <trkpt lat="46.94461" lon="5.31279">
        <ele>184.2</ele>
        <time>2022-03-21T08:55:30Z</time>
      </trkpt>
      <trkpt lat="46.94462" lon="5.31268">
        <ele>184</ele>
        <time>2022-03-21T08:55:31Z</time>
      </trkpt>
      <trkpt lat="46.94463" lon="5.31258">
        <ele>184</ele>
        <time>2022-03-21T08:55:32Z</time>
      </trkpt>
      <trkpt lat="46.94464" lon="5.31247">
        <ele>184</ele>
        <time>2022-03-21T08:55:33Z</time>
      </trkpt>
      <trkpt lat="46.94465" lon="5.31236">
        <ele>184</ele>
        <time>2022-03-21T08:55:34Z</time>
      </trkpt>
      <trkpt lat="46.94466" lon="5.31226">
        <ele>184</ele>
        <time>2022-03-21T08:55:35Z</time>
      </trkpt>
      <trkpt lat="46.94467" lon="5.31215">
        <ele>184</ele>
        <time>2022-03-21T08:55:36Z</time>
      </trkpt>
      <trkpt lat="46.94468" lon="5.31205">
        <ele>184</ele>
        <time>2022-03-21T08:55:37Z</time>
      </trkpt>
      <trkpt lat="46.94469" lon="5.31195">
        <ele>184</ele>
        <time>2022-03-21T08:55:38Z</time>
      </trkpt>
      <trkpt lat="46.94469" lon="5.31184">
        <ele>184</ele>
        <time>2022-03-21T08:55:39Z</time>
      </trkpt>
      <trkpt lat="46.9447" lon="5.31174">
        <ele>184</ele>
        <time>2022-03-21T08:55:40Z</time>
      </trkpt>
      <trkpt lat="46.94471" lon="5.31163">
        <ele>184</ele>
        <time>2022-03-21T08:55:41Z</time>
      </trkpt>
      <trkpt lat="46.94472" lon="5.31153">
        <ele>184</ele>
        <time>2022-03-21T08:55:42Z</time>
      </trkpt>
      <trkpt lat="46.94473" lon="5.31143">
        <ele>184</ele>
        <time>2022-03-21T08:55:43Z</time>
      </trkpt>
      <trkpt lat="46.94474" lon="5.31132">
        <ele>184</ele>
        <time>2022-03-21T08:55:44Z</time>
      </trkpt>
      <trkpt lat="46.94475" lon="5.31122">
        <ele>184</ele>
        <time>2022-03-21T08:55:45Z</time>
      </trkpt>
      <trkpt lat="46.94476" lon="5.31106">
        <ele>184</ele>
        <time>2022-03-21T08:55:46Z</time>
      </trkpt>
      <trkpt lat="46.94476" lon="5.31101">
        <ele>184</ele>
        <time>2022-03-21T08:55:47Z</time>
      </trkpt>
      <trkpt lat="46.94477" lon="5.3109">
        <ele>184</ele>
        <time>2022-03-21T08:55:48Z</time>
      </trkpt>
      <trkpt lat="46.94478" lon="5.3108">
        <ele>184</ele>
        <time>2022-03-21T08:55:49Z</time>
      </trkpt>
      <trkpt lat="46.94479" lon="5.3107">
        <ele>184</ele>
        <time>2022-03-21T08:55:50Z</time>
      </trkpt>
      <trkpt lat="46.9448" lon="5.3106">
        <ele>184</ele>
        <time>2022-03-21T08:55:51Z</time>
      </trkpt>
      <trkpt lat="46.94481" lon="5.31049">
        <ele>184</ele>
        <time>2022-03-21T08:55:52Z</time>
      </trkpt>
      <trkpt lat="46.94482" lon="5.31039">
        <ele>184</ele>
        <time>2022-03-21T08:55:53Z</time>
      </trkpt>
      <trkpt lat="46.94483" lon="5.31028">
        <ele>184</ele>
        <time>2022-03-21T08:55:54Z</time>
      </trkpt>
      <trkpt lat="46.94484" lon="5.31018">
        <ele>184</ele>
        <time>2022-03-21T08:55:55Z</time>
      </trkpt>
      <trkpt lat="46.94485" lon="5.31007">
        <ele>184</ele>
        <time>2022-03-21T08:55:56Z</time>
      </trkpt>
      <trkpt lat="46.94485" lon="5.30997">
        <ele>184</ele>
        <time>2022-03-21T08:55:57Z</time>
      </trkpt>
      <trkpt lat="46.94486" lon="5.30986">
        <ele>184</ele>
        <time>2022-03-21T08:55:58Z</time>
      </trkpt>
      <trkpt lat="46.94487" lon="5.30975">
        <ele>184</ele>
        <time>2022-03-21T08:55:59Z</time>
      </trkpt>
      <trkpt lat="46.94488" lon="5.30964">
        <ele>184</ele>
        <time>2022-03-21T08:56:00Z</time>
      </trkpt>
      <trkpt lat="46.9449" lon="5.30953">
        <ele>184</ele>
        <time>2022-03-21T08:56:01Z</time>
      </trkpt>
      <trkpt lat="46.94491" lon="5.30941">
        <ele>184</ele>
        <time>2022-03-21T08:56:02Z</time>
      </trkpt>
      <trkpt lat="46.94492" lon="5.3093">
        <ele>184</ele>
        <time>2022-03-21T08:56:03Z</time>
      </trkpt>
      <trkpt lat="46.94494" lon="5.30919">
        <ele>183.8</ele>
        <time>2022-03-21T08:56:04Z</time>
      </trkpt>
      <trkpt lat="46.94496" lon="5.30908">
        <ele>183.8</ele>
        <time>2022-03-21T08:56:05Z</time>
      </trkpt>
      <trkpt lat="46.94498" lon="5.30897">
        <ele>183.8</ele>
        <time>2022-03-21T08:56:06Z</time>
      </trkpt>
      <trkpt lat="46.945" lon="5.30886">
        <ele>183.6</ele>
        <time>2022-03-21T08:56:07Z</time>
      </trkpt>
      <trkpt lat="46.94503" lon="5.30875">
        <ele>183.6</ele>
        <time>2022-03-21T08:56:08Z</time>
      </trkpt>
      <trkpt lat="46.94505" lon="5.30864">
        <ele>183.6</ele>
        <time>2022-03-21T08:56:09Z</time>
      </trkpt>
      <trkpt lat="46.94508" lon="5.30853">
        <ele>183.6</ele>
        <time>2022-03-21T08:56:10Z</time>
      </trkpt>
      <trkpt lat="46.9451" lon="5.30843">
        <ele>183.6</ele>
        <time>2022-03-21T08:56:11Z</time>
      </trkpt>
      <trkpt lat="46.94513" lon="5.30832">
        <ele>183.6</ele>
        <time>2022-03-21T08:56:12Z</time>
      </trkpt>
      <trkpt lat="46.94516" lon="5.30821">
        <ele>183.6</ele>
        <time>2022-03-21T08:56:13Z</time>
      </trkpt>
      <trkpt lat="46.94518" lon="5.30809">
        <ele>183.6</ele>
        <time>2022-03-21T08:56:14Z</time>
      </trkpt>
      <trkpt lat="46.9452" lon="5.30798">
        <ele>183.8</ele>
        <time>2022-03-21T08:56:15Z</time>
      </trkpt>
      <trkpt lat="46.94523" lon="5.30787">
        <ele>183.8</ele>
        <time>2022-03-21T08:56:16Z</time>
      </trkpt>
      <trkpt lat="46.94525" lon="5.30775">
        <ele>183.8</ele>
        <time>2022-03-21T08:56:17Z</time>
      </trkpt>
      <trkpt lat="46.94527" lon="5.30763">
        <ele>183.8</ele>
        <time>2022-03-21T08:56:18Z</time>
      </trkpt>
      <trkpt lat="46.94528" lon="5.30752">
        <ele>183.8</ele>
        <time>2022-03-21T08:56:19Z</time>
      </trkpt>
      <trkpt lat="46.9453" lon="5.3074">
        <ele>183.8</ele>
        <time>2022-03-21T08:56:20Z</time>
      </trkpt>
      <trkpt lat="46.94531" lon="5.30728">
        <ele>183.8</ele>
        <time>2022-03-21T08:56:21Z</time>
      </trkpt>
      <trkpt lat="46.94533" lon="5.30717">
        <ele>183.8</ele>
        <time>2022-03-21T08:56:22Z</time>
      </trkpt>
      <trkpt lat="46.94534" lon="5.30705">
        <ele>183.8</ele>
        <time>2022-03-21T08:56:23Z</time>
      </trkpt>
      <trkpt lat="46.94536" lon="5.30694">
        <ele>183.8</ele>
        <time>2022-03-21T08:56:24Z</time>
      </trkpt>
      <trkpt lat="46.94537" lon="5.30683">
        <ele>183.8</ele>
        <time>2022-03-21T08:56:25Z</time>
      </trkpt>
      <trkpt lat="46.94539" lon="5.30672">
        <ele>183.8</ele>
        <time>2022-03-21T08:56:26Z</time>
      </trkpt>
      <trkpt lat="46.9454" lon="5.3066">
        <ele>183.8</ele>
        <time>2022-03-21T08:56:27Z</time>
      </trkpt>
      <trkpt lat="46.94542" lon="5.30649">
        <ele>183.8</ele>
        <time>2022-03-21T08:56:28Z</time>
      </trkpt>
      <trkpt lat="46.94543" lon="5.30638">
        <ele>183.8</ele>
        <time>2022-03-21T08:56:29Z</time>
      </trkpt>
      <trkpt lat="46.94544" lon="5.30627">
        <ele>183.8</ele>
        <time>2022-03-21T08:56:30Z</time>
      </trkpt>
      <trkpt lat="46.94545" lon="5.30616">
        <ele>183.8</ele>
        <time>2022-03-21T08:56:31Z</time>
      </trkpt>
      <trkpt lat="46.94547" lon="5.30605">
        <ele>183.8</ele>
        <time>2022-03-21T08:56:32Z</time>
      </trkpt>
      <trkpt lat="46.94548" lon="5.30594">
        <ele>183.8</ele>
        <time>2022-03-21T08:56:33Z</time>
      </trkpt>
      <trkpt lat="46.94548" lon="5.30583">
        <ele>183.8</ele>
        <time>2022-03-21T08:56:34Z</time>
      </trkpt>
      <trkpt lat="46.94548" lon="5.30572">
        <ele>183.8</ele>
        <time>2022-03-21T08:56:35Z</time>
      </trkpt>
      <trkpt lat="46.94549" lon="5.30561">
        <ele>183.8</ele>
        <time>2022-03-21T08:56:36Z</time>
      </trkpt>
      <trkpt lat="46.94549" lon="5.3055">
        <ele>183.8</ele>
        <time>2022-03-21T08:56:37Z</time>
      </trkpt>
      <trkpt lat="46.94549" lon="5.30539">
        <ele>183.8</ele>
        <time>2022-03-21T08:56:38Z</time>
      </trkpt>
      <trkpt lat="46.94548" lon="5.30528">
        <ele>183.8</ele>
        <time>2022-03-21T08:56:39Z</time>
      </trkpt>
      <trkpt lat="46.94548" lon="5.30517">
        <ele>183.8</ele>
        <time>2022-03-21T08:56:40Z</time>
      </trkpt>
      <trkpt lat="46.94548" lon="5.30507">
        <ele>183.8</ele>
        <time>2022-03-21T08:56:41Z</time>
      </trkpt>
      <trkpt lat="46.94548" lon="5.30496">
        <ele>183.8</ele>
        <time>2022-03-21T08:56:42Z</time>
      </trkpt>
      <trkpt lat="46.94547" lon="5.30486">
        <ele>183.6</ele>
        <time>2022-03-21T08:56:43Z</time>
      </trkpt>
      <trkpt lat="46.94547" lon="5.30476">
        <ele>183.6</ele>
        <time>2022-03-21T08:56:44Z</time>
      </trkpt>
      <trkpt lat="46.94546" lon="5.30466">
        <ele>183.6</ele>
        <time>2022-03-21T08:56:45Z</time>
      </trkpt>
      <trkpt lat="46.94546" lon="5.30456">
        <ele>183.6</ele>
        <time>2022-03-21T08:56:46Z</time>
      </trkpt>
      <trkpt lat="46.94546" lon="5.30446">
        <ele>183.6</ele>
        <time>2022-03-21T08:56:47Z</time>
      </trkpt>
      <trkpt lat="46.94545" lon="5.30436">
        <ele>183.6</ele>
        <time>2022-03-21T08:56:48Z</time>
      </trkpt>
      <trkpt lat="46.94545" lon="5.30426">
        <ele>183.6</ele>
        <time>2022-03-21T08:56:49Z</time>
      </trkpt>
      <trkpt lat="46.94545" lon="5.30416">
        <ele>183.6</ele>
        <time>2022-03-21T08:56:50Z</time>
      </trkpt>
      <trkpt lat="46.94545" lon="5.30406">
        <ele>183.6</ele>
        <time>2022-03-21T08:56:51Z</time>
      </trkpt>
      <trkpt lat="46.94544" lon="5.30396">
        <ele>183.6</ele>
        <time>2022-03-21T08:56:52Z</time>
      </trkpt>
      <trkpt lat="46.94544" lon="5.30387">
        <ele>183.6</ele>
        <time>2022-03-21T08:56:53Z</time>
      </trkpt>
      <trkpt lat="46.94544" lon="5.30377">
        <ele>183.6</ele>
        <time>2022-03-21T08:56:54Z</time>
      </trkpt>
      <trkpt lat="46.94544" lon="5.30367">
        <ele>183.6</ele>
        <time>2022-03-21T08:56:55Z</time>
      </trkpt>
      <trkpt lat="46.94543" lon="5.30357">
        <ele>183.8</ele>
        <time>2022-03-21T08:56:56Z</time>
      </trkpt>
      <trkpt lat="46.94543" lon="5.30347">
        <ele>183.8</ele>
        <time>2022-03-21T08:56:57Z</time>
      </trkpt>
      <trkpt lat="46.94543" lon="5.30336">
        <ele>183.8</ele>
        <time>2022-03-21T08:56:58Z</time>
      </trkpt>
      <trkpt lat="46.94543" lon="5.30326">
        <ele>183.8</ele>
        <time>2022-03-21T08:56:59Z</time>
      </trkpt>
      <trkpt lat="46.94543" lon="5.30316">
        <ele>184</ele>
        <time>2022-03-21T08:57:00Z</time>
      </trkpt>
      <trkpt lat="46.94544" lon="5.30305">
        <ele>184</ele>
        <time>2022-03-21T08:57:01Z</time>
      </trkpt>
      <trkpt lat="46.94544" lon="5.30294">
        <ele>184</ele>
        <time>2022-03-21T08:57:02Z</time>
      </trkpt>
      <trkpt lat="46.94545" lon="5.30284">
        <ele>184</ele>
        <time>2022-03-21T08:57:03Z</time>
      </trkpt>
      <trkpt lat="46.94546" lon="5.30273">
        <ele>184</ele>
        <time>2022-03-21T08:57:04Z</time>
      </trkpt>
      <trkpt lat="46.94547" lon="5.30263">
        <ele>184</ele>
        <time>2022-03-21T08:57:05Z</time>
      </trkpt>
      <trkpt lat="46.94549" lon="5.30252">
        <ele>184</ele>
        <time>2022-03-21T08:57:06Z</time>
      </trkpt>
      <trkpt lat="46.94551" lon="5.30242">
        <ele>184</ele>
        <time>2022-03-21T08:57:07Z</time>
      </trkpt>
      <trkpt lat="46.94552" lon="5.30231">
        <ele>184</ele>
        <time>2022-03-21T08:57:08Z</time>
      </trkpt>
      <trkpt lat="46.94555" lon="5.30221">
        <ele>184</ele>
        <time>2022-03-21T08:57:09Z</time>
      </trkpt>
      <trkpt lat="46.94557" lon="5.3021">
        <ele>184.2</ele>
        <time>2022-03-21T08:57:10Z</time>
      </trkpt>
      <trkpt lat="46.94559" lon="5.302">
        <ele>184.2</ele>
        <time>2022-03-21T08:57:11Z</time>
      </trkpt>
      <trkpt lat="46.94561" lon="5.3019">
        <ele>184.2</ele>
        <time>2022-03-21T08:57:12Z</time>
      </trkpt>
      <trkpt lat="46.94564" lon="5.3018">
        <ele>184.2</ele>
        <time>2022-03-21T08:57:13Z</time>
      </trkpt>
      <trkpt lat="46.94567" lon="5.3017">
        <ele>184.2</ele>
        <time>2022-03-21T08:57:14Z</time>
      </trkpt>
      <trkpt lat="46.94569" lon="5.3016">
        <ele>184.2</ele>
        <time>2022-03-21T08:57:15Z</time>
      </trkpt>
      <trkpt lat="46.94573" lon="5.3015">
        <ele>184.2</ele>
        <time>2022-03-21T08:57:16Z</time>
      </trkpt>
      <trkpt lat="46.94576" lon="5.30141">
        <ele>184.2</ele>
        <time>2022-03-21T08:57:17Z</time>
      </trkpt>
      <trkpt lat="46.94579" lon="5.30131">
        <ele>184.2</ele>
        <time>2022-03-21T08:57:18Z</time>
      </trkpt>
      <trkpt lat="46.94583" lon="5.30121">
        <ele>184.2</ele>
        <time>2022-03-21T08:57:19Z</time>
      </trkpt>
      <trkpt lat="46.94587" lon="5.30111">
        <ele>184.2</ele>
        <time>2022-03-21T08:57:20Z</time>
      </trkpt>
      <trkpt lat="46.9459" lon="5.30101">
        <ele>184.2</ele>
        <time>2022-03-21T08:57:21Z</time>
      </trkpt>
      <trkpt lat="46.94594" lon="5.30091">
        <ele>184.2</ele>
        <time>2022-03-21T08:57:22Z</time>
      </trkpt>
      <trkpt lat="46.94597" lon="5.3008">
        <ele>184.2</ele>
        <time>2022-03-21T08:57:23Z</time>
      </trkpt>
      <trkpt lat="46.94601" lon="5.3007">
        <ele>184.2</ele>
        <time>2022-03-21T08:57:24Z</time>
      </trkpt>
      <trkpt lat="46.94605" lon="5.30059">
        <ele>184.2</ele>
        <time>2022-03-21T08:57:25Z</time>
      </trkpt>
      <trkpt lat="46.94608" lon="5.30049">
        <ele>184.2</ele>
        <time>2022-03-21T08:57:26Z</time>
      </trkpt>
      <trkpt lat="46.94612" lon="5.30039">
        <ele>184.2</ele>
        <time>2022-03-21T08:57:27Z</time>
      </trkpt>
      <trkpt lat="46.94616" lon="5.30028">
        <ele>184.2</ele>
        <time>2022-03-21T08:57:28Z</time>
      </trkpt>
      <trkpt lat="46.9462" lon="5.30018">
        <ele>184.2</ele>
        <time>2022-03-21T08:57:29Z</time>
      </trkpt>
      <trkpt lat="46.94623" lon="5.30008">
        <ele>184.2</ele>
        <time>2022-03-21T08:57:30Z</time>
      </trkpt>
      <trkpt lat="46.94627" lon="5.29998">
        <ele>184.2</ele>
        <time>2022-03-21T08:57:31Z</time>
      </trkpt>
      <trkpt lat="46.94631" lon="5.29987">
        <ele>184.2</ele>
        <time>2022-03-21T08:57:32Z</time>
      </trkpt>
      <trkpt lat="46.94634" lon="5.29977">
        <ele>184.2</ele>
        <time>2022-03-21T08:57:33Z</time>
      </trkpt>
      <trkpt lat="46.94638" lon="5.29967">
        <ele>184.2</ele>
        <time>2022-03-21T08:57:34Z</time>
      </trkpt>
      <trkpt lat="46.94642" lon="5.29957">
        <ele>184.2</ele>
        <time>2022-03-21T08:57:35Z</time>
      </trkpt>
      <trkpt lat="46.94646" lon="5.29947">
        <ele>184</ele>
        <time>2022-03-21T08:57:36Z</time>
      </trkpt>
      <trkpt lat="46.9465" lon="5.29937">
        <ele>184</ele>
        <time>2022-03-21T08:57:37Z</time>
      </trkpt>
      <trkpt lat="46.94654" lon="5.29926">
        <ele>184</ele>
        <time>2022-03-21T08:57:38Z</time>
      </trkpt>
      <trkpt lat="46.94658" lon="5.29916">
        <ele>184</ele>
        <time>2022-03-21T08:57:39Z</time>
      </trkpt>
      <trkpt lat="46.94662" lon="5.29906">
        <ele>184</ele>
        <time>2022-03-21T08:57:40Z</time>
      </trkpt>
      <trkpt lat="46.94667" lon="5.29896">
        <ele>184</ele>
        <time>2022-03-21T08:57:41Z</time>
      </trkpt>
      <trkpt lat="46.94671" lon="5.29887">
        <ele>184</ele>
        <time>2022-03-21T08:57:42Z</time>
      </trkpt>
      <trkpt lat="46.94675" lon="5.29877">
        <ele>183.8</ele>
        <time>2022-03-21T08:57:43Z</time>
      </trkpt>
      <trkpt lat="46.9468" lon="5.29867">
        <ele>183.8</ele>
        <time>2022-03-21T08:57:44Z</time>
      </trkpt>
      <trkpt lat="46.94684" lon="5.29857">
        <ele>183.8</ele>
        <time>2022-03-21T08:57:45Z</time>
      </trkpt>
      <trkpt lat="46.94689" lon="5.29848">
        <ele>183.8</ele>
        <time>2022-03-21T08:57:46Z</time>
      </trkpt>
      <trkpt lat="46.94693" lon="5.29838">
        <ele>183.8</ele>
        <time>2022-03-21T08:57:47Z</time>
      </trkpt>
      <trkpt lat="46.94698" lon="5.29828">
        <ele>183.8</ele>
        <time>2022-03-21T08:57:48Z</time>
      </trkpt>
      <trkpt lat="46.94702" lon="5.29819">
        <ele>183.8</ele>
        <time>2022-03-21T08:57:49Z</time>
      </trkpt>
      <trkpt lat="46.94707" lon="5.29809">
        <ele>183.8</ele>
        <time>2022-03-21T08:57:50Z</time>
      </trkpt>
      <trkpt lat="46.94711" lon="5.298">
        <ele>183.8</ele>
        <time>2022-03-21T08:57:51Z</time>
      </trkpt>
      <trkpt lat="46.94716" lon="5.29791">
        <ele>183.8</ele>
        <time>2022-03-21T08:57:52Z</time>
      </trkpt>
      <trkpt lat="46.94721" lon="5.29782">
        <ele>183.8</ele>
        <time>2022-03-21T08:57:53Z</time>
      </trkpt>
      <trkpt lat="46.94726" lon="5.29773">
        <ele>183.8</ele>
        <time>2022-03-21T08:57:54Z</time>
      </trkpt>
      <trkpt lat="46.94731" lon="5.29764">
        <ele>184</ele>
        <time>2022-03-21T08:57:55Z</time>
      </trkpt>
      <trkpt lat="46.94736" lon="5.29755">
        <ele>184</ele>
        <time>2022-03-21T08:57:56Z</time>
      </trkpt>
      <trkpt lat="46.9474" lon="5.29746">
        <ele>184</ele>
        <time>2022-03-21T08:57:57Z</time>
      </trkpt>
      <trkpt lat="46.94745" lon="5.29736">
        <ele>184</ele>
        <time>2022-03-21T08:57:58Z</time>
      </trkpt>
      <trkpt lat="46.9475" lon="5.29727">
        <ele>184</ele>
        <time>2022-03-21T08:57:59Z</time>
      </trkpt>
      <trkpt lat="46.94754" lon="5.29717">
        <ele>184</ele>
        <time>2022-03-21T08:58:00Z</time>
      </trkpt>
      <trkpt lat="46.94759" lon="5.29707">
        <ele>184</ele>
        <time>2022-03-21T08:58:01Z</time>
      </trkpt>
      <trkpt lat="46.94763" lon="5.29697">
        <ele>184</ele>
        <time>2022-03-21T08:58:02Z</time>
      </trkpt>
      <trkpt lat="46.94768" lon="5.29688">
        <ele>184</ele>
        <time>2022-03-21T08:58:03Z</time>
      </trkpt>
      <trkpt lat="46.94772" lon="5.29677">
        <ele>184</ele>
        <time>2022-03-21T08:58:04Z</time>
      </trkpt>
      <trkpt lat="46.94776" lon="5.29667">
        <ele>184</ele>
        <time>2022-03-21T08:58:05Z</time>
      </trkpt>
      <trkpt lat="46.94779" lon="5.29656">
        <ele>184</ele>
        <time>2022-03-21T08:58:06Z</time>
      </trkpt>
      <trkpt lat="46.94783" lon="5.29646">
        <ele>184</ele>
        <time>2022-03-21T08:58:07Z</time>
      </trkpt>
      <trkpt lat="46.94787" lon="5.29635">
        <ele>184</ele>
        <time>2022-03-21T08:58:08Z</time>
      </trkpt>
      <trkpt lat="46.94791" lon="5.29625">
        <ele>184</ele>
        <time>2022-03-21T08:58:09Z</time>
      </trkpt>
      <trkpt lat="46.94795" lon="5.29614">
        <ele>184</ele>
        <time>2022-03-21T08:58:10Z</time>
      </trkpt>
      <trkpt lat="46.94799" lon="5.29603">
        <ele>184</ele>
        <time>2022-03-21T08:58:11Z</time>
      </trkpt>
      <trkpt lat="46.94802" lon="5.29593">
        <ele>183.8</ele>
        <time>2022-03-21T08:58:12Z</time>
      </trkpt>
      <trkpt lat="46.94806" lon="5.29582">
        <ele>183.8</ele>
        <time>2022-03-21T08:58:13Z</time>
      </trkpt>
      <trkpt lat="46.94809" lon="5.29571">
        <ele>183.8</ele>
        <time>2022-03-21T08:58:14Z</time>
      </trkpt>
      <trkpt lat="46.94813" lon="5.29561">
        <ele>183.8</ele>
        <time>2022-03-21T08:58:15Z</time>
      </trkpt>
      <trkpt lat="46.94816" lon="5.29551">
        <ele>183.8</ele>
        <time>2022-03-21T08:58:16Z</time>
      </trkpt>
      <trkpt lat="46.9482" lon="5.2954">
        <ele>183.8</ele>
        <time>2022-03-21T08:58:17Z</time>
      </trkpt>
      <trkpt lat="46.94824" lon="5.2953">
        <ele>183.8</ele>
        <time>2022-03-21T08:58:18Z</time>
      </trkpt>
      <trkpt lat="46.94827" lon="5.2952">
        <ele>183.8</ele>
        <time>2022-03-21T08:58:19Z</time>
      </trkpt>
      <trkpt lat="46.9483" lon="5.29509">
        <ele>183.8</ele>
        <time>2022-03-21T08:58:20Z</time>
      </trkpt>
      <trkpt lat="46.94834" lon="5.29499">
        <ele>183.8</ele>
        <time>2022-03-21T08:58:21Z</time>
      </trkpt>
      <trkpt lat="46.94838" lon="5.29489">
        <ele>183.8</ele>
        <time>2022-03-21T08:58:22Z</time>
      </trkpt>
      <trkpt lat="46.94841" lon="5.29479">
        <ele>183.8</ele>
        <time>2022-03-21T08:58:23Z</time>
      </trkpt>
      <trkpt lat="46.94844" lon="5.29468">
        <ele>183.8</ele>
        <time>2022-03-21T08:58:24Z</time>
      </trkpt>
      <trkpt lat="46.94848" lon="5.29458">
        <ele>183.8</ele>
        <time>2022-03-21T08:58:25Z</time>
      </trkpt>
      <trkpt lat="46.94851" lon="5.29448">
        <ele>183.8</ele>
        <time>2022-03-21T08:58:26Z</time>
      </trkpt>
      <trkpt lat="46.94855" lon="5.29438">
        <ele>183.8</ele>
        <time>2022-03-21T08:58:27Z</time>
      </trkpt>
      <trkpt lat="46.94858" lon="5.29428">
        <ele>183.4</ele>
        <time>2022-03-21T08:58:28Z</time>
      </trkpt>
      <trkpt lat="46.94862" lon="5.29418">
        <ele>183.4</ele>
        <time>2022-03-21T08:58:29Z</time>
      </trkpt>
      <trkpt lat="46.94865" lon="5.29408">
        <ele>183.4</ele>
        <time>2022-03-21T08:58:30Z</time>
      </trkpt>
      <trkpt lat="46.94868" lon="5.29398">
        <ele>183.4</ele>
        <time>2022-03-21T08:58:31Z</time>
      </trkpt>
      <trkpt lat="46.94872" lon="5.29388">
        <ele>183.4</ele>
        <time>2022-03-21T08:58:32Z</time>
      </trkpt>
      <trkpt lat="46.94876" lon="5.29378">
        <ele>183.4</ele>
        <time>2022-03-21T08:58:33Z</time>
      </trkpt>
      <trkpt lat="46.94879" lon="5.29367">
        <ele>183.4</ele>
        <time>2022-03-21T08:58:34Z</time>
      </trkpt>
      <trkpt lat="46.94883" lon="5.29357">
        <ele>183.4</ele>
        <time>2022-03-21T08:58:35Z</time>
      </trkpt>
      <trkpt lat="46.94886" lon="5.29347">
        <ele>183.4</ele>
        <time>2022-03-21T08:58:36Z</time>
      </trkpt>
      <trkpt lat="46.9489" lon="5.29337">
        <ele>183.4</ele>
        <time>2022-03-21T08:58:37Z</time>
      </trkpt>
      <trkpt lat="46.94893" lon="5.29327">
        <ele>183.4</ele>
        <time>2022-03-21T08:58:38Z</time>
      </trkpt>
      <trkpt lat="46.94897" lon="5.29317">
        <ele>183.4</ele>
        <time>2022-03-21T08:58:39Z</time>
      </trkpt>
      <trkpt lat="46.94901" lon="5.29307">
        <ele>183.4</ele>
        <time>2022-03-21T08:58:40Z</time>
      </trkpt>
      <trkpt lat="46.94905" lon="5.29298">
        <ele>183.4</ele>
        <time>2022-03-21T08:58:41Z</time>
      </trkpt>
      <trkpt lat="46.9491" lon="5.29289">
        <ele>183.4</ele>
        <time>2022-03-21T08:58:42Z</time>
      </trkpt>
      <trkpt lat="46.94915" lon="5.2928">
        <ele>183.4</ele>
        <time>2022-03-21T08:58:43Z</time>
      </trkpt>
      <trkpt lat="46.94921" lon="5.29272">
        <ele>183.6</ele>
        <time>2022-03-21T08:58:44Z</time>
      </trkpt>
      <trkpt lat="46.94927" lon="5.29265">
        <ele>183.6</ele>
        <time>2022-03-21T08:58:45Z</time>
      </trkpt>
      <trkpt lat="46.94933" lon="5.29257">
        <ele>183.6</ele>
        <time>2022-03-21T08:58:46Z</time>
      </trkpt>
      <trkpt lat="46.94939" lon="5.29251">
        <ele>183.6</ele>
        <time>2022-03-21T08:58:47Z</time>
      </trkpt>
      <trkpt lat="46.94946" lon="5.29245">
        <ele>183.6</ele>
        <time>2022-03-21T08:58:48Z</time>
      </trkpt>
      <trkpt lat="46.94953" lon="5.2924">
        <ele>183.6</ele>
        <time>2022-03-21T08:58:49Z</time>
      </trkpt>
      <trkpt lat="46.94961" lon="5.29235">
        <ele>183.6</ele>
        <time>2022-03-21T08:58:50Z</time>
      </trkpt>
      <trkpt lat="46.94968" lon="5.29231">
        <ele>183.6</ele>
        <time>2022-03-21T08:58:51Z</time>
      </trkpt>
      <trkpt lat="46.94975" lon="5.29227">
        <ele>183.6</ele>
        <time>2022-03-21T08:58:52Z</time>
      </trkpt>
      <trkpt lat="46.94983" lon="5.29223">
        <ele>183.6</ele>
        <time>2022-03-21T08:58:53Z</time>
      </trkpt>
      <trkpt lat="46.9499" lon="5.29218">
        <ele>183.6</ele>
        <time>2022-03-21T08:58:54Z</time>
      </trkpt>
      <trkpt lat="46.94998" lon="5.29214">
        <ele>183.6</ele>
        <time>2022-03-21T08:58:55Z</time>
      </trkpt>
      <trkpt lat="46.95005" lon="5.2921">
        <ele>183.6</ele>
        <time>2022-03-21T08:58:56Z</time>
      </trkpt>
      <trkpt lat="46.95013" lon="5.29205">
        <ele>183.6</ele>
        <time>2022-03-21T08:58:57Z</time>
      </trkpt>
      <trkpt lat="46.9502" lon="5.292">
        <ele>183.6</ele>
        <time>2022-03-21T08:58:58Z</time>
      </trkpt>
      <trkpt lat="46.95027" lon="5.29195">
        <ele>183.6</ele>
        <time>2022-03-21T08:58:59Z</time>
      </trkpt>
      <trkpt lat="46.95035" lon="5.2919">
        <ele>183.6</ele>
        <time>2022-03-21T08:59:00Z</time>
      </trkpt>
      <trkpt lat="46.95042" lon="5.29183">
        <ele>183.6</ele>
        <time>2022-03-21T08:59:01Z</time>
      </trkpt>
      <trkpt lat="46.95048" lon="5.29177">
        <ele>183.6</ele>
        <time>2022-03-21T08:59:02Z</time>
      </trkpt>
      <trkpt lat="46.95055" lon="5.2917">
        <ele>183.6</ele>
        <time>2022-03-21T08:59:03Z</time>
      </trkpt>
      <trkpt lat="46.95062" lon="5.29164">
        <ele>183.6</ele>
        <time>2022-03-21T08:59:04Z</time>
      </trkpt>
      <trkpt lat="46.95069" lon="5.29156">
        <ele>183.8</ele>
        <time>2022-03-21T08:59:05Z</time>
      </trkpt>
      <trkpt lat="46.95075" lon="5.29149">
        <ele>183.8</ele>
        <time>2022-03-21T08:59:06Z</time>
      </trkpt>
      <trkpt lat="46.95081" lon="5.29141">
        <ele>183.8</ele>
        <time>2022-03-21T08:59:07Z</time>
      </trkpt>
      <trkpt lat="46.9509" lon="5.29129">
        <ele>183.8</ele>
        <time>2022-03-21T08:59:08Z</time>
      </trkpt>
      <trkpt lat="46.95093" lon="5.29125">
        <ele>183.8</ele>
        <time>2022-03-21T08:59:09Z</time>
      </trkpt>
      <trkpt lat="46.951" lon="5.29117">
        <ele>183.8</ele>
        <time>2022-03-21T08:59:10Z</time>
      </trkpt>
      <trkpt lat="46.95106" lon="5.29109">
        <ele>183.8</ele>
        <time>2022-03-21T08:59:11Z</time>
      </trkpt>
      <trkpt lat="46.95112" lon="5.29102">
        <ele>183.8</ele>
        <time>2022-03-21T08:59:12Z</time>
      </trkpt>
      <trkpt lat="46.95119" lon="5.29095">
        <ele>183.8</ele>
        <time>2022-03-21T08:59:13Z</time>
      </trkpt>
      <trkpt lat="46.95126" lon="5.29088">
        <ele>183.8</ele>
        <time>2022-03-21T08:59:14Z</time>
      </trkpt>
      <trkpt lat="46.95133" lon="5.29082">
        <ele>183.8</ele>
        <time>2022-03-21T08:59:15Z</time>
      </trkpt>
      <trkpt lat="46.9514" lon="5.29077">
        <ele>183.8</ele>
        <time>2022-03-21T08:59:16Z</time>
      </trkpt>
      <trkpt lat="46.95147" lon="5.29072">
        <ele>183.8</ele>
        <time>2022-03-21T08:59:17Z</time>
      </trkpt>
      <trkpt lat="46.95153" lon="5.29067">
        <ele>183.8</ele>
        <time>2022-03-21T08:59:18Z</time>
      </trkpt>
      <trkpt lat="46.9516" lon="5.29062">
        <ele>183.8</ele>
        <time>2022-03-21T08:59:19Z</time>
      </trkpt>
      <trkpt lat="46.95167" lon="5.29056">
        <ele>183.8</ele>
        <time>2022-03-21T08:59:20Z</time>
      </trkpt>
      <trkpt lat="46.95173" lon="5.2905">
        <ele>183.8</ele>
        <time>2022-03-21T08:59:21Z</time>
      </trkpt>
      <trkpt lat="46.95179" lon="5.29043">
        <ele>183.8</ele>
        <time>2022-03-21T08:59:22Z</time>
      </trkpt>
      <trkpt lat="46.95185" lon="5.29037">
        <ele>183.8</ele>
        <time>2022-03-21T08:59:23Z</time>
      </trkpt>
      <trkpt lat="46.95191" lon="5.29029">
        <ele>183.8</ele>
        <time>2022-03-21T08:59:24Z</time>
      </trkpt>
      <trkpt lat="46.95197" lon="5.29022">
        <ele>183.8</ele>
        <time>2022-03-21T08:59:25Z</time>
      </trkpt>
      <trkpt lat="46.95202" lon="5.29014">
        <ele>184</ele>
        <time>2022-03-21T08:59:27Z</time>
      </trkpt>
      <trkpt lat="46.95207" lon="5.29005">
        <ele>184</ele>
        <time>2022-03-21T08:59:28Z</time>
      </trkpt>
      <trkpt lat="46.95212" lon="5.28997">
        <ele>184</ele>
        <time>2022-03-21T08:59:29Z</time>
      </trkpt>
      <trkpt lat="46.95216" lon="5.28988">
        <ele>184</ele>
        <time>2022-03-21T08:59:30Z</time>
      </trkpt>
      <trkpt lat="46.9522" lon="5.28978">
        <ele>184</ele>
        <time>2022-03-21T08:59:31Z</time>
      </trkpt>
      <trkpt lat="46.95224" lon="5.28969">
        <ele>184</ele>
        <time>2022-03-21T08:59:32Z</time>
      </trkpt>
      <trkpt lat="46.95228" lon="5.2896">
        <ele>184</ele>
        <time>2022-03-21T08:59:33Z</time>
      </trkpt>
      <trkpt lat="46.95232" lon="5.2895">
        <ele>184</ele>
        <time>2022-03-21T08:59:34Z</time>
      </trkpt>
      <trkpt lat="46.95237" lon="5.2894">
        <ele>184</ele>
        <time>2022-03-21T08:59:35Z</time>
      </trkpt>
      <trkpt lat="46.95241" lon="5.28931">
        <ele>184</ele>
        <time>2022-03-21T08:59:36Z</time>
      </trkpt>
      <trkpt lat="46.95245" lon="5.28921">
        <ele>184</ele>
        <time>2022-03-21T08:59:37Z</time>
      </trkpt>
      <trkpt lat="46.95249" lon="5.28911">
        <ele>184</ele>
        <time>2022-03-21T08:59:38Z</time>
      </trkpt>
      <trkpt lat="46.95253" lon="5.28902">
        <ele>184</ele>
        <time>2022-03-21T08:59:39Z</time>
      </trkpt>
      <trkpt lat="46.95261" lon="5.28882">
        <ele>184</ele>
        <time>2022-03-21T08:59:40Z</time>
      </trkpt>
      <trkpt lat="46.95265" lon="5.28873">
        <ele>184</ele>
        <time>2022-03-21T08:59:41Z</time>
      </trkpt>
      <trkpt lat="46.95268" lon="5.28863">
        <ele>184</ele>
        <time>2022-03-21T08:59:42Z</time>
      </trkpt>
      <trkpt lat="46.95272" lon="5.28853">
        <ele>184</ele>
        <time>2022-03-21T08:59:43Z</time>
      </trkpt>
      <trkpt lat="46.95276" lon="5.28843">
        <ele>184</ele>
        <time>2022-03-21T08:59:44Z</time>
      </trkpt>
      <trkpt lat="46.95279" lon="5.28833">
        <ele>183.8</ele>
        <time>2022-03-21T08:59:45Z</time>
      </trkpt>
      <trkpt lat="46.95282" lon="5.28823">
        <ele>183.8</ele>
        <time>2022-03-21T08:59:46Z</time>
      </trkpt>
      <trkpt lat="46.95285" lon="5.28813">
        <ele>183.8</ele>
        <time>2022-03-21T08:59:47Z</time>
      </trkpt>
      <trkpt lat="46.95287" lon="5.28802">
        <ele>183.8</ele>
        <time>2022-03-21T08:59:48Z</time>
      </trkpt>
      <trkpt lat="46.95291" lon="5.28782">
        <ele>183.8</ele>
        <time>2022-03-21T08:59:49Z</time>
      </trkpt>
      <trkpt lat="46.95293" lon="5.28771">
        <ele>183.8</ele>
        <time>2022-03-21T08:59:50Z</time>
      </trkpt>
      <trkpt lat="46.95295" lon="5.2876">
        <ele>183.8</ele>
        <time>2022-03-21T08:59:52Z</time>
      </trkpt>
      <trkpt lat="46.95297" lon="5.2875">
        <ele>183.8</ele>
        <time>2022-03-21T08:59:53Z</time>
      </trkpt>
      <trkpt lat="46.95299" lon="5.28739">
        <ele>183.8</ele>
        <time>2022-03-21T08:59:54Z</time>
      </trkpt>
      <trkpt lat="46.953" lon="5.28729">
        <ele>183.8</ele>
        <time>2022-03-21T08:59:55Z</time>
      </trkpt>
      <trkpt lat="46.95302" lon="5.28718">
        <ele>183.8</ele>
        <time>2022-03-21T08:59:56Z</time>
      </trkpt>
      <trkpt lat="46.95303" lon="5.28708">
        <ele>183.4</ele>
        <time>2022-03-21T08:59:57Z</time>
      </trkpt>
      <trkpt lat="46.95305" lon="5.28698">
        <ele>183.4</ele>
        <time>2022-03-21T08:59:58Z</time>
      </trkpt>
      <trkpt lat="46.95306" lon="5.28687">
        <ele>183.4</ele>
        <time>2022-03-21T08:59:59Z</time>
      </trkpt>
      <trkpt lat="46.95308" lon="5.28677">
        <ele>183.4</ele>
        <time>2022-03-21T09:00:00Z</time>
      </trkpt>
      <trkpt lat="46.95309" lon="5.28666">
        <ele>183.4</ele>
        <time>2022-03-21T09:00:01Z</time>
      </trkpt>
      <trkpt lat="46.9531" lon="5.28656">
        <ele>183.4</ele>
        <time>2022-03-21T09:00:02Z</time>
      </trkpt>
      <trkpt lat="46.95311" lon="5.28645">
        <ele>183.4</ele>
        <time>2022-03-21T09:00:03Z</time>
      </trkpt>
      <trkpt lat="46.95312" lon="5.28634">
        <ele>183.4</ele>
        <time>2022-03-21T09:00:04Z</time>
      </trkpt>
      <trkpt lat="46.95313" lon="5.28624">
        <ele>183.4</ele>
        <time>2022-03-21T09:00:05Z</time>
      </trkpt>
      <trkpt lat="46.95313" lon="5.28613">
        <ele>183.4</ele>
        <time>2022-03-21T09:00:06Z</time>
      </trkpt>
      <trkpt lat="46.95314" lon="5.28602">
        <ele>183.2</ele>
        <time>2022-03-21T09:00:07Z</time>
      </trkpt>
      <trkpt lat="46.95314" lon="5.28591">
        <ele>183.2</ele>
        <time>2022-03-21T09:00:08Z</time>
      </trkpt>
      <trkpt lat="46.95315" lon="5.28581">
        <ele>183.2</ele>
        <time>2022-03-21T09:00:09Z</time>
      </trkpt>
      <trkpt lat="46.95315" lon="5.2857">
        <ele>183.2</ele>
        <time>2022-03-21T09:00:10Z</time>
      </trkpt>
      <trkpt lat="46.95316" lon="5.28553">
        <ele>183.2</ele>
        <time>2022-03-21T09:00:11Z</time>
      </trkpt>
      <trkpt lat="46.95316" lon="5.28548">
        <ele>183.2</ele>
        <time>2022-03-21T09:00:12Z</time>
      </trkpt>
      <trkpt lat="46.95317" lon="5.28537">
        <ele>183.2</ele>
        <time>2022-03-21T09:00:13Z</time>
      </trkpt>
      <trkpt lat="46.95317" lon="5.28526">
        <ele>183</ele>
        <time>2022-03-21T09:00:14Z</time>
      </trkpt>
      <trkpt lat="46.95318" lon="5.28516">
        <ele>183</ele>
        <time>2022-03-21T09:00:15Z</time>
      </trkpt>
      <trkpt lat="46.95318" lon="5.28505">
        <ele>183</ele>
        <time>2022-03-21T09:00:16Z</time>
      </trkpt>
      <trkpt lat="46.95319" lon="5.28494">
        <ele>182.8</ele>
        <time>2022-03-21T09:00:17Z</time>
      </trkpt>
      <trkpt lat="46.95319" lon="5.28484">
        <ele>182.8</ele>
        <time>2022-03-21T09:00:18Z</time>
      </trkpt>
      <trkpt lat="46.9532" lon="5.28473">
        <ele>182.8</ele>
        <time>2022-03-21T09:00:19Z</time>
      </trkpt>
      <trkpt lat="46.95321" lon="5.28463">
        <ele>182.8</ele>
        <time>2022-03-21T09:00:20Z</time>
      </trkpt>
      <trkpt lat="46.95322" lon="5.28453">
        <ele>182.8</ele>
        <time>2022-03-21T09:00:21Z</time>
      </trkpt>
      <trkpt lat="46.95323" lon="5.28442">
        <ele>182.8</ele>
        <time>2022-03-21T09:00:22Z</time>
      </trkpt>
      <trkpt lat="46.95324" lon="5.28432">
        <ele>182.8</ele>
        <time>2022-03-21T09:00:23Z</time>
      </trkpt>
      <trkpt lat="46.95328" lon="5.28412">
        <ele>182.6</ele>
        <time>2022-03-21T09:00:24Z</time>
      </trkpt>
      <trkpt lat="46.9533" lon="5.28402">
        <ele>182.6</ele>
        <time>2022-03-21T09:00:25Z</time>
      </trkpt>
      <trkpt lat="46.95332" lon="5.28392">
        <ele>182.6</ele>
        <time>2022-03-21T09:00:26Z</time>
      </trkpt>
      <trkpt lat="46.95334" lon="5.28382">
        <ele>182.6</ele>
        <time>2022-03-21T09:00:27Z</time>
      </trkpt>
      <trkpt lat="46.95337" lon="5.28372">
        <ele>182.6</ele>
        <time>2022-03-21T09:00:28Z</time>
      </trkpt>
      <trkpt lat="46.95339" lon="5.28361">
        <ele>182.6</ele>
        <time>2022-03-21T09:00:29Z</time>
      </trkpt>
      <trkpt lat="46.95341" lon="5.28351">
        <ele>182.6</ele>
        <time>2022-03-21T09:00:30Z</time>
      </trkpt>
      <trkpt lat="46.95343" lon="5.28341">
        <ele>182.6</ele>
        <time>2022-03-21T09:00:31Z</time>
      </trkpt>
      <trkpt lat="46.95345" lon="5.28331">
        <ele>182.6</ele>
        <time>2022-03-21T09:00:32Z</time>
      </trkpt>
      <trkpt lat="46.95348" lon="5.28321">
        <ele>183</ele>
        <time>2022-03-21T09:00:33Z</time>
      </trkpt>
      <trkpt lat="46.95351" lon="5.28311">
        <ele>183</ele>
        <time>2022-03-21T09:00:34Z</time>
      </trkpt>
      <trkpt lat="46.95354" lon="5.28301">
        <ele>183.2</ele>
        <time>2022-03-21T09:00:35Z</time>
      </trkpt>
      <trkpt lat="46.95357" lon="5.28291">
        <ele>183.2</ele>
        <time>2022-03-21T09:00:36Z</time>
      </trkpt>
      <trkpt lat="46.9536" lon="5.28281">
        <ele>183.2</ele>
        <time>2022-03-21T09:00:37Z</time>
      </trkpt>
      <trkpt lat="46.95362" lon="5.2827">
        <ele>183.2</ele>
        <time>2022-03-21T09:00:38Z</time>
      </trkpt>
      <trkpt lat="46.95364" lon="5.2826">
        <ele>183.2</ele>
        <time>2022-03-21T09:00:39Z</time>
      </trkpt>
      <trkpt lat="46.95365" lon="5.28249">
        <ele>183.2</ele>
        <time>2022-03-21T09:00:40Z</time>
      </trkpt>
      <trkpt lat="46.95367" lon="5.28238">
        <ele>183.2</ele>
        <time>2022-03-21T09:00:41Z</time>
      </trkpt>
      <trkpt lat="46.95369" lon="5.28228">
        <ele>183.4</ele>
        <time>2022-03-21T09:00:42Z</time>
      </trkpt>
      <trkpt lat="46.95372" lon="5.28217">
        <ele>183.4</ele>
        <time>2022-03-21T09:00:43Z</time>
      </trkpt>
      <trkpt lat="46.95375" lon="5.28207">
        <ele>183.4</ele>
        <time>2022-03-21T09:00:44Z</time>
      </trkpt>
      <trkpt lat="46.95378" lon="5.28196">
        <ele>183.4</ele>
        <time>2022-03-21T09:00:45Z</time>
      </trkpt>
      <trkpt lat="46.95381" lon="5.28186">
        <ele>183.4</ele>
        <time>2022-03-21T09:00:46Z</time>
      </trkpt>
      <trkpt lat="46.95384" lon="5.28176">
        <ele>183.4</ele>
        <time>2022-03-21T09:00:47Z</time>
      </trkpt>
      <trkpt lat="46.95388" lon="5.28166">
        <ele>183.4</ele>
        <time>2022-03-21T09:00:48Z</time>
      </trkpt>
      <trkpt lat="46.95392" lon="5.28156">
        <ele>183.4</ele>
        <time>2022-03-21T09:00:49Z</time>
      </trkpt>
      <trkpt lat="46.95396" lon="5.28146">
        <ele>183.2</ele>
        <time>2022-03-21T09:00:50Z</time>
      </trkpt>
      <trkpt lat="46.954" lon="5.28136">
        <ele>183.2</ele>
        <time>2022-03-21T09:00:51Z</time>
      </trkpt>
      <trkpt lat="46.95405" lon="5.28127">
        <ele>183.2</ele>
        <time>2022-03-21T09:00:52Z</time>
      </trkpt>
      <trkpt lat="46.95409" lon="5.28117">
        <ele>183.2</ele>
        <time>2022-03-21T09:00:53Z</time>
      </trkpt>
      <trkpt lat="46.95414" lon="5.28108">
        <ele>183.2</ele>
        <time>2022-03-21T09:00:54Z</time>
      </trkpt>
      <trkpt lat="46.95419" lon="5.28099">
        <ele>183.2</ele>
        <time>2022-03-21T09:00:55Z</time>
      </trkpt>
      <trkpt lat="46.95424" lon="5.2809">
        <ele>183.2</ele>
        <time>2022-03-21T09:00:56Z</time>
      </trkpt>
      <trkpt lat="46.95429" lon="5.28082">
        <ele>183.2</ele>
        <time>2022-03-21T09:00:57Z</time>
      </trkpt>
      <trkpt lat="46.95434" lon="5.28073">
        <ele>183.2</ele>
        <time>2022-03-21T09:00:58Z</time>
      </trkpt>
      <trkpt lat="46.9544" lon="5.28065">
        <ele>183.2</ele>
        <time>2022-03-21T09:00:59Z</time>
      </trkpt>
      <trkpt lat="46.95446" lon="5.28058">
        <ele>183.2</ele>
        <time>2022-03-21T09:01:00Z</time>
      </trkpt>
      <trkpt lat="46.95453" lon="5.28051">
        <ele>183.2</ele>
        <time>2022-03-21T09:01:01Z</time>
      </trkpt>
      <trkpt lat="46.9546" lon="5.28046">
        <ele>183</ele>
        <time>2022-03-21T09:01:02Z</time>
      </trkpt>
      <trkpt lat="46.95467" lon="5.28042">
        <ele>183</ele>
        <time>2022-03-21T09:01:03Z</time>
      </trkpt>
      <trkpt lat="46.95474" lon="5.28039">
        <ele>183</ele>
        <time>2022-03-21T09:01:04Z</time>
      </trkpt>
      <trkpt lat="46.95482" lon="5.28037">
        <ele>183</ele>
        <time>2022-03-21T09:01:05Z</time>
      </trkpt>
      <trkpt lat="46.9549" lon="5.28036">
        <ele>183</ele>
        <time>2022-03-21T09:01:06Z</time>
      </trkpt>
      <trkpt lat="46.95498" lon="5.28035">
        <ele>183</ele>
        <time>2022-03-21T09:01:07Z</time>
      </trkpt>
      <trkpt lat="46.95506" lon="5.28035">
        <ele>183</ele>
        <time>2022-03-21T09:01:08Z</time>
      </trkpt>
      <trkpt lat="46.95514" lon="5.28035">
        <ele>183</ele>
        <time>2022-03-21T09:01:09Z</time>
      </trkpt>
      <trkpt lat="46.95522" lon="5.28036">
        <ele>183</ele>
        <time>2022-03-21T09:01:10Z</time>
      </trkpt>
      <trkpt lat="46.9553" lon="5.28037">
        <ele>183</ele>
        <time>2022-03-21T09:01:11Z</time>
      </trkpt>
      <trkpt lat="46.95538" lon="5.28037">
        <ele>183</ele>
        <time>2022-03-21T09:01:12Z</time>
      </trkpt>
      <trkpt lat="46.95547" lon="5.28037">
        <ele>183</ele>
        <time>2022-03-21T09:01:13Z</time>
      </trkpt>
      <trkpt lat="46.95556" lon="5.28035">
        <ele>183</ele>
        <time>2022-03-21T09:01:14Z</time>
      </trkpt>
      <trkpt lat="46.95564" lon="5.28032">
        <ele>183</ele>
        <time>2022-03-21T09:01:15Z</time>
      </trkpt>
      <trkpt lat="46.95572" lon="5.28028">
        <ele>183</ele>
        <time>2022-03-21T09:01:16Z</time>
      </trkpt>
      <trkpt lat="46.9558" lon="5.28023">
        <ele>183</ele>
        <time>2022-03-21T09:01:17Z</time>
      </trkpt>
      <trkpt lat="46.95587" lon="5.28018">
        <ele>183</ele>
        <time>2022-03-21T09:01:18Z</time>
      </trkpt>
      <trkpt lat="46.95594" lon="5.28012">
        <ele>183</ele>
        <time>2022-03-21T09:01:19Z</time>
      </trkpt>
      <trkpt lat="46.95601" lon="5.28006">
        <ele>183</ele>
        <time>2022-03-21T09:01:20Z</time>
      </trkpt>
      <trkpt lat="46.95608" lon="5.28">
        <ele>183</ele>
        <time>2022-03-21T09:01:21Z</time>
      </trkpt>
      <trkpt lat="46.95615" lon="5.27994">
        <ele>183</ele>
        <time>2022-03-21T09:01:22Z</time>
      </trkpt>
      <trkpt lat="46.95622" lon="5.27988">
        <ele>183</ele>
        <time>2022-03-21T09:01:23Z</time>
      </trkpt>
      <trkpt lat="46.95629" lon="5.27982">
        <ele>183</ele>
        <time>2022-03-21T09:01:24Z</time>
      </trkpt>
      <trkpt lat="46.95636" lon="5.27976">
        <ele>183</ele>
        <time>2022-03-21T09:01:25Z</time>
      </trkpt>
      <trkpt lat="46.95643" lon="5.2797">
        <ele>183</ele>
        <time>2022-03-21T09:01:26Z</time>
      </trkpt>
      <trkpt lat="46.9565" lon="5.27965">
        <ele>183</ele>
        <time>2022-03-21T09:01:27Z</time>
      </trkpt>
      <trkpt lat="46.95658" lon="5.27961">
        <ele>183</ele>
        <time>2022-03-21T09:01:28Z</time>
      </trkpt>
      <trkpt lat="46.95665" lon="5.27958">
        <ele>183</ele>
        <time>2022-03-21T09:01:29Z</time>
      </trkpt>
      <trkpt lat="46.95673" lon="5.27956">
        <ele>183</ele>
        <time>2022-03-21T09:01:30Z</time>
      </trkpt>
      <trkpt lat="46.9568" lon="5.27954">
        <ele>183</ele>
        <time>2022-03-21T09:01:31Z</time>
      </trkpt>
      <trkpt lat="46.95688" lon="5.27953">
        <ele>183</ele>
        <time>2022-03-21T09:01:32Z</time>
      </trkpt>
      <trkpt lat="46.95695" lon="5.27952">
        <ele>183</ele>
        <time>2022-03-21T09:01:33Z</time>
      </trkpt>
      <trkpt lat="46.95702" lon="5.27951">
        <ele>183</ele>
        <time>2022-03-21T09:01:34Z</time>
      </trkpt>
      <trkpt lat="46.95708" lon="5.2795">
        <ele>183</ele>
        <time>2022-03-21T09:01:35Z</time>
      </trkpt>
      <trkpt lat="46.95715" lon="5.27949">
        <ele>183</ele>
        <time>2022-03-21T09:01:36Z</time>
      </trkpt>
      <trkpt lat="46.95721" lon="5.27949">
        <ele>183.2</ele>
        <time>2022-03-21T09:01:37Z</time>
      </trkpt>
      <trkpt lat="46.95727" lon="5.27946">
        <ele>183.2</ele>
        <time>2022-03-21T09:01:38Z</time>
      </trkpt>
      <trkpt lat="46.95732" lon="5.27941">
        <ele>183.2</ele>
        <time>2022-03-21T09:01:39Z</time>
      </trkpt>
      <trkpt lat="46.95735" lon="5.27935">
        <ele>183.4</ele>
        <time>2022-03-21T09:01:40Z</time>
      </trkpt>
      <trkpt lat="46.95736" lon="5.27928">
        <ele>183.4</ele>
        <time>2022-03-21T09:01:41Z</time>
      </trkpt>
      <trkpt lat="46.95736" lon="5.2792">
        <ele>183.8</ele>
        <time>2022-03-21T09:01:43Z</time>
      </trkpt>
      <trkpt lat="46.95736" lon="5.27912">
        <ele>183.8</ele>
        <time>2022-03-21T09:01:44Z</time>
      </trkpt>
      <trkpt lat="46.95736" lon="5.27904">
        <ele>184</ele>
        <time>2022-03-21T09:01:45Z</time>
      </trkpt>
      <trkpt lat="46.95736" lon="5.27896">
        <ele>184</ele>
        <time>2022-03-21T09:01:46Z</time>
      </trkpt>
      <trkpt lat="46.95735" lon="5.27888">
        <ele>184</ele>
        <time>2022-03-21T09:01:47Z</time>
      </trkpt>
      <trkpt lat="46.95735" lon="5.2788">
        <ele>184.2</ele>
        <time>2022-03-21T09:01:48Z</time>
      </trkpt>
      <trkpt lat="46.95735" lon="5.27872">
        <ele>184.6</ele>
        <time>2022-03-21T09:01:49Z</time>
      </trkpt>
      <trkpt lat="46.95735" lon="5.27863">
        <ele>184.6</ele>
        <time>2022-03-21T09:01:50Z</time>
      </trkpt>
      <trkpt lat="46.95736" lon="5.27855">
        <ele>185</ele>
        <time>2022-03-21T09:01:51Z</time>
      </trkpt>
      <trkpt lat="46.95737" lon="5.27847">
        <ele>185</ele>
        <time>2022-03-21T09:01:52Z</time>
      </trkpt>
      <trkpt lat="46.95737" lon="5.27839">
        <ele>185.2</ele>
        <time>2022-03-21T09:01:53Z</time>
      </trkpt>
      <trkpt lat="46.95738" lon="5.27831">
        <ele>185.2</ele>
        <time>2022-03-21T09:01:54Z</time>
      </trkpt>
      <trkpt lat="46.95738" lon="5.27823">
        <ele>185.4</ele>
        <time>2022-03-21T09:01:55Z</time>
      </trkpt>
      <trkpt lat="46.95739" lon="5.27815">
        <ele>185.4</ele>
        <time>2022-03-21T09:01:56Z</time>
      </trkpt>
      <trkpt lat="46.95739" lon="5.27807">
        <ele>185.6</ele>
        <time>2022-03-21T09:01:57Z</time>
      </trkpt>
      <trkpt lat="46.95739" lon="5.27799">
        <ele>185.6</ele>
        <time>2022-03-21T09:01:58Z</time>
      </trkpt>
      <trkpt lat="46.9574" lon="5.27791">
        <ele>185.6</ele>
        <time>2022-03-21T09:01:59Z</time>
      </trkpt>
      <trkpt lat="46.9574" lon="5.27783">
        <ele>185.6</ele>
        <time>2022-03-21T09:02:00Z</time>
      </trkpt>
      <trkpt lat="46.95741" lon="5.27775">
        <ele>185.6</ele>
        <time>2022-03-21T09:02:01Z</time>
      </trkpt>
      <trkpt lat="46.95741" lon="5.27767">
        <ele>185.6</ele>
        <time>2022-03-21T09:02:02Z</time>
      </trkpt>
      <trkpt lat="46.95742" lon="5.27758">
        <ele>185.6</ele>
        <time>2022-03-21T09:02:03Z</time>
      </trkpt>
      <trkpt lat="46.95743" lon="5.2775">
        <ele>185.8</ele>
        <time>2022-03-21T09:02:04Z</time>
      </trkpt>
      <trkpt lat="46.95744" lon="5.27742">
        <ele>185.8</ele>
        <time>2022-03-21T09:02:05Z</time>
      </trkpt>
      <trkpt lat="46.95744" lon="5.27734">
        <ele>185.8</ele>
        <time>2022-03-21T09:02:06Z</time>
      </trkpt>
      <trkpt lat="46.95745" lon="5.27725">
        <ele>185.8</ele>
        <time>2022-03-21T09:02:07Z</time>
      </trkpt>
      <trkpt lat="46.95746" lon="5.27717">
        <ele>185.8</ele>
        <time>2022-03-21T09:02:08Z</time>
      </trkpt>
      <trkpt lat="46.95746" lon="5.27709">
        <ele>185.8</ele>
        <time>2022-03-21T09:02:09Z</time>
      </trkpt>
      <trkpt lat="46.95747" lon="5.27701">
        <ele>185.8</ele>
        <time>2022-03-21T09:02:10Z</time>
      </trkpt>
      <trkpt lat="46.95747" lon="5.27693">
        <ele>185.8</ele>
        <time>2022-03-21T09:02:11Z</time>
      </trkpt>
      <trkpt lat="46.95748" lon="5.27685">
        <ele>185.6</ele>
        <time>2022-03-21T09:02:12Z</time>
      </trkpt>
      <trkpt lat="46.95748" lon="5.27678">
        <ele>185.6</ele>
        <time>2022-03-21T09:02:13Z</time>
      </trkpt>
      <trkpt lat="46.95749" lon="5.27671">
        <ele>185.6</ele>
        <time>2022-03-21T09:02:14Z</time>
      </trkpt>
      <trkpt lat="46.9575" lon="5.27664">
        <ele>185.4</ele>
        <time>2022-03-21T09:02:15Z</time>
      </trkpt>
      <trkpt lat="46.9575" lon="5.27656">
        <ele>185.4</ele>
        <time>2022-03-21T09:02:16Z</time>
      </trkpt>
      <trkpt lat="46.95752" lon="5.2765">
        <ele>185.4</ele>
        <time>2022-03-21T09:02:17Z</time>
      </trkpt>
      <trkpt lat="46.95754" lon="5.27643">
        <ele>185.2</ele>
        <time>2022-03-21T09:02:18Z</time>
      </trkpt>
      <trkpt lat="46.95757" lon="5.27639">
        <ele>185.2</ele>
        <time>2022-03-21T09:02:19Z</time>
      </trkpt>
      <trkpt lat="46.95762" lon="5.27636">
        <ele>185.2</ele>
        <time>2022-03-21T09:02:20Z</time>
      </trkpt>
      <trkpt lat="46.95766" lon="5.27636">
        <ele>185.2</ele>
        <time>2022-03-21T09:02:21Z</time>
      </trkpt>
      <trkpt lat="46.95772" lon="5.27636">
        <ele>185.2</ele>
        <time>2022-03-21T09:02:22Z</time>
      </trkpt>
      <trkpt lat="46.95777" lon="5.27637">
        <ele>185.2</ele>
        <time>2022-03-21T09:02:23Z</time>
      </trkpt>
      <trkpt lat="46.95783" lon="5.27637">
        <ele>185.2</ele>
        <time>2022-03-21T09:02:24Z</time>
      </trkpt>
      <trkpt lat="46.95788" lon="5.27636">
        <ele>185.2</ele>
        <time>2022-03-21T09:02:25Z</time>
      </trkpt>
      <trkpt lat="46.95794" lon="5.27636">
        <ele>185.2</ele>
        <time>2022-03-21T09:02:26Z</time>
      </trkpt>
      <trkpt lat="46.958" lon="5.27636">
        <ele>185.2</ele>
        <time>2022-03-21T09:02:27Z</time>
      </trkpt>
      <trkpt lat="46.95807" lon="5.27635">
        <ele>185.2</ele>
        <time>2022-03-21T09:02:28Z</time>
      </trkpt>
      <trkpt lat="46.95813" lon="5.27635">
        <ele>185.2</ele>
        <time>2022-03-21T09:02:29Z</time>
      </trkpt>
      <trkpt lat="46.95819" lon="5.27635">
        <ele>185.2</ele>
        <time>2022-03-21T09:02:30Z</time>
      </trkpt>
      <trkpt lat="46.95825" lon="5.27634">
        <ele>185.2</ele>
        <time>2022-03-21T09:02:31Z</time>
      </trkpt>
      <trkpt lat="46.95832" lon="5.27634">
        <ele>185.2</ele>
        <time>2022-03-21T09:02:32Z</time>
      </trkpt>
      <trkpt lat="46.95838" lon="5.27633">
        <ele>185.2</ele>
        <time>2022-03-21T09:02:33Z</time>
      </trkpt>
      <trkpt lat="46.95845" lon="5.27632">
        <ele>185.2</ele>
        <time>2022-03-21T09:02:34Z</time>
      </trkpt>
      <trkpt lat="46.95852" lon="5.2763">
        <ele>185.2</ele>
        <time>2022-03-21T09:02:35Z</time>
      </trkpt>
      <trkpt lat="46.95858" lon="5.27628">
        <ele>185.2</ele>
        <time>2022-03-21T09:02:36Z</time>
      </trkpt>
      <trkpt lat="46.95865" lon="5.27626">
        <ele>185</ele>
        <time>2022-03-21T09:02:37Z</time>
      </trkpt>
      <trkpt lat="46.95872" lon="5.27624">
        <ele>185</ele>
        <time>2022-03-21T09:02:38Z</time>
      </trkpt>
      <trkpt lat="46.95879" lon="5.27621">
        <ele>185</ele>
        <time>2022-03-21T09:02:39Z</time>
      </trkpt>
      <trkpt lat="46.95886" lon="5.27618">
        <ele>184.6</ele>
        <time>2022-03-21T09:02:40Z</time>
      </trkpt>
      <trkpt lat="46.95893" lon="5.27615">
        <ele>184.6</ele>
        <time>2022-03-21T09:02:41Z</time>
      </trkpt>
      <trkpt lat="46.959" lon="5.27612">
        <ele>184.6</ele>
        <time>2022-03-21T09:02:42Z</time>
      </trkpt>
      <trkpt lat="46.95907" lon="5.27608">
        <ele>184.6</ele>
        <time>2022-03-21T09:02:43Z</time>
      </trkpt>
      <trkpt lat="46.95914" lon="5.27605">
        <ele>184.6</ele>
        <time>2022-03-21T09:02:44Z</time>
      </trkpt>
      <trkpt lat="46.95921" lon="5.27601">
        <ele>184.4</ele>
        <time>2022-03-21T09:02:45Z</time>
      </trkpt>
      <trkpt lat="46.95928" lon="5.27597">
        <ele>184.4</ele>
        <time>2022-03-21T09:02:46Z</time>
      </trkpt>
      <trkpt lat="46.95935" lon="5.27594">
        <ele>184.4</ele>
        <time>2022-03-21T09:02:47Z</time>
      </trkpt>
      <trkpt lat="46.95942" lon="5.2759">
        <ele>184.4</ele>
        <time>2022-03-21T09:02:48Z</time>
      </trkpt>
      <trkpt lat="46.95948" lon="5.27586">
        <ele>184.4</ele>
        <time>2022-03-21T09:02:49Z</time>
      </trkpt>
      <trkpt lat="46.95955" lon="5.27582">
        <ele>184.4</ele>
        <time>2022-03-21T09:02:50Z</time>
      </trkpt>
      <trkpt lat="46.95962" lon="5.27578">
        <ele>184.4</ele>
        <time>2022-03-21T09:02:51Z</time>
      </trkpt>
      <trkpt lat="46.95969" lon="5.27574">
        <ele>184.4</ele>
        <time>2022-03-21T09:02:52Z</time>
      </trkpt>
      <trkpt lat="46.95975" lon="5.27571">
        <ele>184.4</ele>
        <time>2022-03-21T09:02:53Z</time>
      </trkpt>
      <trkpt lat="46.95982" lon="5.27568">
        <ele>184.4</ele>
        <time>2022-03-21T09:02:54Z</time>
      </trkpt>
      <trkpt lat="46.95989" lon="5.27565">
        <ele>184.4</ele>
        <time>2022-03-21T09:02:55Z</time>
      </trkpt>
      <trkpt lat="46.95996" lon="5.27562">
        <ele>184.4</ele>
        <time>2022-03-21T09:02:56Z</time>
      </trkpt>
      <trkpt lat="46.96003" lon="5.27559">
        <ele>184.4</ele>
        <time>2022-03-21T09:02:57Z</time>
      </trkpt>
      <trkpt lat="46.9601" lon="5.27556">
        <ele>184.4</ele>
        <time>2022-03-21T09:02:58Z</time>
      </trkpt>
      <trkpt lat="46.96016" lon="5.27554">
        <ele>184.6</ele>
        <time>2022-03-21T09:02:59Z</time>
      </trkpt>
      <trkpt lat="46.96023" lon="5.27552">
        <ele>184.6</ele>
        <time>2022-03-21T09:03:00Z</time>
      </trkpt>
      <trkpt lat="46.9603" lon="5.2755">
        <ele>184.6</ele>
        <time>2022-03-21T09:03:01Z</time>
      </trkpt>
      <trkpt lat="46.96037" lon="5.27548">
        <ele>185</ele>
        <time>2022-03-21T09:03:02Z</time>
      </trkpt>
      <trkpt lat="46.96044" lon="5.27546">
        <ele>185</ele>
        <time>2022-03-21T09:03:03Z</time>
      </trkpt>
      <trkpt lat="46.9605" lon="5.27545">
        <ele>185</ele>
        <time>2022-03-21T09:03:04Z</time>
      </trkpt>
      <trkpt lat="46.96057" lon="5.27543">
        <ele>185</ele>
        <time>2022-03-21T09:03:05Z</time>
      </trkpt>
      <trkpt lat="46.96064" lon="5.27541">
        <ele>185.2</ele>
        <time>2022-03-21T09:03:06Z</time>
      </trkpt>
      <trkpt lat="46.9607" lon="5.2754">
        <ele>185.2</ele>
        <time>2022-03-21T09:03:07Z</time>
      </trkpt>
      <trkpt lat="46.96077" lon="5.27538">
        <ele>185.2</ele>
        <time>2022-03-21T09:03:08Z</time>
      </trkpt>
      <trkpt lat="46.96084" lon="5.27537">
        <ele>185.2</ele>
        <time>2022-03-21T09:03:09Z</time>
      </trkpt>
      <trkpt lat="46.9609" lon="5.27536">
        <ele>185.2</ele>
        <time>2022-03-21T09:03:10Z</time>
      </trkpt>
      <trkpt lat="46.96096" lon="5.27536">
        <ele>185.4</ele>
        <time>2022-03-21T09:03:11Z</time>
      </trkpt>
      <trkpt lat="46.96103" lon="5.27535">
        <ele>185.4</ele>
        <time>2022-03-21T09:03:12Z</time>
      </trkpt>
      <trkpt lat="46.9611" lon="5.27534">
        <ele>185.8</ele>
        <time>2022-03-21T09:03:13Z</time>
      </trkpt>
      <trkpt lat="46.96116" lon="5.27533">
        <ele>185.8</ele>
        <time>2022-03-21T09:03:14Z</time>
      </trkpt>
      <trkpt lat="46.96123" lon="5.27532">
        <ele>185.8</ele>
        <time>2022-03-21T09:03:15Z</time>
      </trkpt>
      <trkpt lat="46.96129" lon="5.2753">
        <ele>185.8</ele>
        <time>2022-03-21T09:03:16Z</time>
      </trkpt>
      <trkpt lat="46.96135" lon="5.27529">
        <ele>186</ele>
        <time>2022-03-21T09:03:17Z</time>
      </trkpt>
      <trkpt lat="46.96142" lon="5.27529">
        <ele>186</ele>
        <time>2022-03-21T09:03:18Z</time>
      </trkpt>
      <trkpt lat="46.96148" lon="5.27528">
        <ele>186</ele>
        <time>2022-03-21T09:03:19Z</time>
      </trkpt>
      <trkpt lat="46.96155" lon="5.27528">
        <ele>186</ele>
        <time>2022-03-21T09:03:20Z</time>
      </trkpt>
      <trkpt lat="46.96162" lon="5.27528">
        <ele>186</ele>
        <time>2022-03-21T09:03:21Z</time>
      </trkpt>
      <trkpt lat="46.96168" lon="5.27527">
        <ele>186</ele>
        <time>2022-03-21T09:03:22Z</time>
      </trkpt>
      <trkpt lat="46.96174" lon="5.27527">
        <ele>186</ele>
        <time>2022-03-21T09:03:23Z</time>
      </trkpt>
      <trkpt lat="46.9618" lon="5.27526">
        <ele>186</ele>
        <time>2022-03-21T09:03:24Z</time>
      </trkpt>
      <trkpt lat="46.96186" lon="5.27525">
        <ele>186.2</ele>
        <time>2022-03-21T09:03:25Z</time>
      </trkpt>
      <trkpt lat="46.96191" lon="5.27525">
        <ele>186.2</ele>
        <time>2022-03-21T09:03:26Z</time>
      </trkpt>
      <trkpt lat="46.96195" lon="5.27526">
        <ele>186.2</ele>
        <time>2022-03-21T09:03:27Z</time>
      </trkpt>
      <trkpt lat="46.96199" lon="5.27526">
        <ele>186.2</ele>
        <time>2022-03-21T09:03:28Z</time>
      </trkpt>
      <trkpt lat="46.96202" lon="5.27526">
        <ele>186.4</ele>
        <time>2022-03-21T09:03:29Z</time>
      </trkpt>
      <trkpt lat="46.96204" lon="5.27526">
        <ele>186.4</ele>
        <time>2022-03-21T09:03:30Z</time>
      </trkpt>
      <trkpt lat="46.96206" lon="5.27526">
        <ele>186.6</ele>
        <time>2022-03-21T09:03:31Z</time>
      </trkpt>
      <trkpt lat="46.96207" lon="5.27526">
        <ele>186.6</ele>
        <time>2022-03-21T09:03:32Z</time>
      </trkpt>
      <trkpt lat="46.96208" lon="5.27526">
        <ele>186.6</ele>
        <time>2022-03-21T09:03:33Z</time>
      </trkpt>
      <trkpt lat="46.96209" lon="5.27525">
        <ele>186.6</ele>
        <time>2022-03-21T09:03:34Z</time>
      </trkpt>
      <trkpt lat="46.96211" lon="5.27524">
        <ele>186.8</ele>
        <time>2022-03-21T09:03:35Z</time>
      </trkpt>
      <trkpt lat="46.96213" lon="5.27523">
        <ele>186.8</ele>
        <time>2022-03-21T09:03:36Z</time>
      </trkpt>
      <trkpt lat="46.96214" lon="5.2752">
        <ele>186.8</ele>
        <time>2022-03-21T09:03:37Z</time>
      </trkpt>
      <trkpt lat="46.96215" lon="5.27517">
        <ele>186.8</ele>
        <time>2022-03-21T09:03:38Z</time>
      </trkpt>
      <trkpt lat="46.96216" lon="5.27512">
        <ele>186.8</ele>
        <time>2022-03-21T09:03:39Z</time>
      </trkpt>
      <trkpt lat="46.96216" lon="5.27507">
        <ele>186.8</ele>
        <time>2022-03-21T09:03:40Z</time>
      </trkpt>
      <trkpt lat="46.96215" lon="5.27502">
        <ele>186.8</ele>
        <time>2022-03-21T09:03:41Z</time>
      </trkpt>
      <trkpt lat="46.96215" lon="5.27496">
        <ele>186.8</ele>
        <time>2022-03-21T09:03:42Z</time>
      </trkpt>
      <trkpt lat="46.96214" lon="5.2749">
        <ele>186.8</ele>
        <time>2022-03-21T09:03:43Z</time>
      </trkpt>
      <trkpt lat="46.96214" lon="5.27483">
        <ele>186.8</ele>
        <time>2022-03-21T09:03:44Z</time>
      </trkpt>
      <trkpt lat="46.96213" lon="5.27476">
        <ele>186.8</ele>
        <time>2022-03-21T09:03:45Z</time>
      </trkpt>
      <trkpt lat="46.96212" lon="5.27469">
        <ele>186.8</ele>
        <time>2022-03-21T09:03:46Z</time>
      </trkpt>
      <trkpt lat="46.96212" lon="5.27462">
        <ele>186.8</ele>
        <time>2022-03-21T09:03:47Z</time>
      </trkpt>
      <trkpt lat="46.96211" lon="5.27454">
        <ele>186.8</ele>
        <time>2022-03-21T09:03:48Z</time>
      </trkpt>
      <trkpt lat="46.9621" lon="5.27446">
        <ele>186.8</ele>
        <time>2022-03-21T09:03:49Z</time>
      </trkpt>
      <trkpt lat="46.96208" lon="5.2743">
        <ele>186.8</ele>
        <time>2022-03-21T09:03:50Z</time>
      </trkpt>
      <trkpt lat="46.96207" lon="5.27421">
        <ele>186.8</ele>
        <time>2022-03-21T09:03:51Z</time>
      </trkpt>
      <trkpt lat="46.96206" lon="5.27412">
        <ele>186.8</ele>
        <time>2022-03-21T09:03:52Z</time>
      </trkpt>
      <trkpt lat="46.96204" lon="5.27403">
        <ele>186.6</ele>
        <time>2022-03-21T09:03:53Z</time>
      </trkpt>
      <trkpt lat="46.96203" lon="5.27394">
        <ele>186.6</ele>
        <time>2022-03-21T09:03:54Z</time>
      </trkpt>
      <trkpt lat="46.96201" lon="5.27384">
        <ele>186.6</ele>
        <time>2022-03-21T09:03:55Z</time>
      </trkpt>
      <trkpt lat="46.962" lon="5.27375">
        <ele>186.6</ele>
        <time>2022-03-21T09:03:56Z</time>
      </trkpt>
      <trkpt lat="46.96199" lon="5.27365">
        <ele>186.4</ele>
        <time>2022-03-21T09:03:57Z</time>
      </trkpt>
      <trkpt lat="46.96198" lon="5.27355">
        <ele>186.4</ele>
        <time>2022-03-21T09:03:58Z</time>
      </trkpt>
      <trkpt lat="46.96197" lon="5.27345">
        <ele>186.2</ele>
        <time>2022-03-21T09:03:59Z</time>
      </trkpt>
      <trkpt lat="46.96196" lon="5.27335">
        <ele>186.2</ele>
        <time>2022-03-21T09:04:00Z</time>
      </trkpt>
      <trkpt lat="46.96195" lon="5.27325">
        <ele>186.2</ele>
        <time>2022-03-21T09:04:01Z</time>
      </trkpt>
      <trkpt lat="46.96194" lon="5.27315">
        <ele>185.8</ele>
        <time>2022-03-21T09:04:02Z</time>
      </trkpt>
      <trkpt lat="46.96193" lon="5.27305">
        <ele>185.8</ele>
        <time>2022-03-21T09:04:03Z</time>
      </trkpt>
      <trkpt lat="46.96192" lon="5.27294">
        <ele>185.8</ele>
        <time>2022-03-21T09:04:04Z</time>
      </trkpt>
      <trkpt lat="46.96191" lon="5.27284">
        <ele>185.6</ele>
        <time>2022-03-21T09:04:05Z</time>
      </trkpt>
      <trkpt lat="46.9619" lon="5.27274">
        <ele>185.6</ele>
        <time>2022-03-21T09:04:06Z</time>
      </trkpt>
      <trkpt lat="46.96188" lon="5.27264">
        <ele>185.4</ele>
        <time>2022-03-21T09:04:07Z</time>
      </trkpt>
      <trkpt lat="46.96187" lon="5.27253">
        <ele>185.4</ele>
        <time>2022-03-21T09:04:08Z</time>
      </trkpt>
      <trkpt lat="46.96187" lon="5.27243">
        <ele>185</ele>
        <time>2022-03-21T09:04:09Z</time>
      </trkpt>
      <trkpt lat="46.96186" lon="5.27234">
        <ele>185</ele>
        <time>2022-03-21T09:04:10Z</time>
      </trkpt>
      <trkpt lat="46.96185" lon="5.27224">
        <ele>184.8</ele>
        <time>2022-03-21T09:04:11Z</time>
      </trkpt>
      <trkpt lat="46.96184" lon="5.27214">
        <ele>184.8</ele>
        <time>2022-03-21T09:04:12Z</time>
      </trkpt>
      <trkpt lat="46.96184" lon="5.27205">
        <ele>184.8</ele>
        <time>2022-03-21T09:04:13Z</time>
      </trkpt>
      <trkpt lat="46.96186" lon="5.27195">
        <ele>184.6</ele>
        <time>2022-03-21T09:04:14Z</time>
      </trkpt>
      <trkpt lat="46.96189" lon="5.27186">
        <ele>184.6</ele>
        <time>2022-03-21T09:04:15Z</time>
      </trkpt>
      <trkpt lat="46.96194" lon="5.2718">
        <ele>184.2</ele>
        <time>2022-03-21T09:04:16Z</time>
      </trkpt>
      <trkpt lat="46.962" lon="5.27174">
        <ele>184</ele>
        <time>2022-03-21T09:04:17Z</time>
      </trkpt>
      <trkpt lat="46.96207" lon="5.27169">
        <ele>183.8</ele>
        <time>2022-03-21T09:04:18Z</time>
      </trkpt>
      <trkpt lat="46.96213" lon="5.27163">
        <ele>183.8</ele>
        <time>2022-03-21T09:04:19Z</time>
      </trkpt>
      <trkpt lat="46.9622" lon="5.27158">
        <ele>183.8</ele>
        <time>2022-03-21T09:04:20Z</time>
      </trkpt>
      <trkpt lat="46.96227" lon="5.27154">
        <ele>183.6</ele>
        <time>2022-03-21T09:04:21Z</time>
      </trkpt>
      <trkpt lat="46.96235" lon="5.2715">
        <ele>183.6</ele>
        <time>2022-03-21T09:04:22Z</time>
      </trkpt>
      <trkpt lat="46.96242" lon="5.27147">
        <ele>183.6</ele>
        <time>2022-03-21T09:04:23Z</time>
      </trkpt>
      <trkpt lat="46.9625" lon="5.27145">
        <ele>183.6</ele>
        <time>2022-03-21T09:04:24Z</time>
      </trkpt>
      <trkpt lat="46.96258" lon="5.27143">
        <ele>183.4</ele>
        <time>2022-03-21T09:04:25Z</time>
      </trkpt>
      <trkpt lat="46.96266" lon="5.27142">
        <ele>183.4</ele>
        <time>2022-03-21T09:04:26Z</time>
      </trkpt>
      <trkpt lat="46.96274" lon="5.27142">
        <ele>183.4</ele>
        <time>2022-03-21T09:04:27Z</time>
      </trkpt>
      <trkpt lat="46.96281" lon="5.27141">
        <ele>183.4</ele>
        <time>2022-03-21T09:04:28Z</time>
      </trkpt>
      <trkpt lat="46.96289" lon="5.2714">
        <ele>183.4</ele>
        <time>2022-03-21T09:04:29Z</time>
      </trkpt>
      <trkpt lat="46.96297" lon="5.2714">
        <ele>183.4</ele>
        <time>2022-03-21T09:04:30Z</time>
      </trkpt>
      <trkpt lat="46.96305" lon="5.2714">
        <ele>183.4</ele>
        <time>2022-03-21T09:04:31Z</time>
      </trkpt>
      <trkpt lat="46.96313" lon="5.2714">
        <ele>183.4</ele>
        <time>2022-03-21T09:04:32Z</time>
      </trkpt>
      <trkpt lat="46.96321" lon="5.2714">
        <ele>183.2</ele>
        <time>2022-03-21T09:04:33Z</time>
      </trkpt>
      <trkpt lat="46.96329" lon="5.2714">
        <ele>183.2</ele>
        <time>2022-03-21T09:04:34Z</time>
      </trkpt>
      <trkpt lat="46.96337" lon="5.27139">
        <ele>183.2</ele>
        <time>2022-03-21T09:04:35Z</time>
      </trkpt>
      <trkpt lat="46.96345" lon="5.27139">
        <ele>183.2</ele>
        <time>2022-03-21T09:04:36Z</time>
      </trkpt>
      <trkpt lat="46.96353" lon="5.27138">
        <ele>183.2</ele>
        <time>2022-03-21T09:04:37Z</time>
      </trkpt>
      <trkpt lat="46.96361" lon="5.27138">
        <ele>183.2</ele>
        <time>2022-03-21T09:04:38Z</time>
      </trkpt>
      <trkpt lat="46.96369" lon="5.27137">
        <ele>183.2</ele>
        <time>2022-03-21T09:04:39Z</time>
      </trkpt>
      <trkpt lat="46.96377" lon="5.27137">
        <ele>183.4</ele>
        <time>2022-03-21T09:04:40Z</time>
      </trkpt>
      <trkpt lat="46.96386" lon="5.27137">
        <ele>183.4</ele>
        <time>2022-03-21T09:04:41Z</time>
      </trkpt>
      <trkpt lat="46.96394" lon="5.27137">
        <ele>183.4</ele>
        <time>2022-03-21T09:04:42Z</time>
      </trkpt>
      <trkpt lat="46.96402" lon="5.27137">
        <ele>183.4</ele>
        <time>2022-03-21T09:04:43Z</time>
      </trkpt>
      <trkpt lat="46.96411" lon="5.27137">
        <ele>183.4</ele>
        <time>2022-03-21T09:04:44Z</time>
      </trkpt>
      <trkpt lat="46.96419" lon="5.27137">
        <ele>183.4</ele>
        <time>2022-03-21T09:04:45Z</time>
      </trkpt>
      <trkpt lat="46.96427" lon="5.27138">
        <ele>183.4</ele>
        <time>2022-03-21T09:04:46Z</time>
      </trkpt>
      <trkpt lat="46.96435" lon="5.27139">
        <ele>183.4</ele>
        <time>2022-03-21T09:04:47Z</time>
      </trkpt>
      <trkpt lat="46.96444" lon="5.27139">
        <ele>183.4</ele>
        <time>2022-03-21T09:04:48Z</time>
      </trkpt>
      <trkpt lat="46.96452" lon="5.2714">
        <ele>183.4</ele>
        <time>2022-03-21T09:04:49Z</time>
      </trkpt>
      <trkpt lat="46.9646" lon="5.27141">
        <ele>183.4</ele>
        <time>2022-03-21T09:04:50Z</time>
      </trkpt>
      <trkpt lat="46.96469" lon="5.27142">
        <ele>183.4</ele>
        <time>2022-03-21T09:04:51Z</time>
      </trkpt>
      <trkpt lat="46.96477" lon="5.27142">
        <ele>183.6</ele>
        <time>2022-03-21T09:04:52Z</time>
      </trkpt>
      <trkpt lat="46.96485" lon="5.27142">
        <ele>183.6</ele>
        <time>2022-03-21T09:04:53Z</time>
      </trkpt>
      <trkpt lat="46.96494" lon="5.27142">
        <ele>183.6</ele>
        <time>2022-03-21T09:04:54Z</time>
      </trkpt>
      <trkpt lat="46.96502" lon="5.27142">
        <ele>183.6</ele>
        <time>2022-03-21T09:04:55Z</time>
      </trkpt>
      <trkpt lat="46.96511" lon="5.27142">
        <ele>183.6</ele>
        <time>2022-03-21T09:04:56Z</time>
      </trkpt>
      <trkpt lat="46.96519" lon="5.27142">
        <ele>183.6</ele>
        <time>2022-03-21T09:04:57Z</time>
      </trkpt>
      <trkpt lat="46.96527" lon="5.27142">
        <ele>183.6</ele>
        <time>2022-03-21T09:04:58Z</time>
      </trkpt>
      <trkpt lat="46.96536" lon="5.27142">
        <ele>183.6</ele>
        <time>2022-03-21T09:04:59Z</time>
      </trkpt>
      <trkpt lat="46.96544" lon="5.27142">
        <ele>183.6</ele>
        <time>2022-03-21T09:05:00Z</time>
      </trkpt>
      <trkpt lat="46.96552" lon="5.27142">
        <ele>183.6</ele>
        <time>2022-03-21T09:05:01Z</time>
      </trkpt>
      <trkpt lat="46.96561" lon="5.27142">
        <ele>183.6</ele>
        <time>2022-03-21T09:05:02Z</time>
      </trkpt>
      <trkpt lat="46.96569" lon="5.27142">
        <ele>183.6</ele>
        <time>2022-03-21T09:05:03Z</time>
      </trkpt>
      <trkpt lat="46.96578" lon="5.27142">
        <ele>183.6</ele>
        <time>2022-03-21T09:05:04Z</time>
      </trkpt>
      <trkpt lat="46.96586" lon="5.27142">
        <ele>183.6</ele>
        <time>2022-03-21T09:05:05Z</time>
      </trkpt>
      <trkpt lat="46.96595" lon="5.27143">
        <ele>183.6</ele>
        <time>2022-03-21T09:05:06Z</time>
      </trkpt>
      <trkpt lat="46.96604" lon="5.27143">
        <ele>183.6</ele>
        <time>2022-03-21T09:05:07Z</time>
      </trkpt>
      <trkpt lat="46.96612" lon="5.27144">
        <ele>183.6</ele>
        <time>2022-03-21T09:05:08Z</time>
      </trkpt>
      <trkpt lat="46.96621" lon="5.27145">
        <ele>183.6</ele>
        <time>2022-03-21T09:05:09Z</time>
      </trkpt>
      <trkpt lat="46.96629" lon="5.27146">
        <ele>183.6</ele>
        <time>2022-03-21T09:05:10Z</time>
      </trkpt>
      <trkpt lat="46.96638" lon="5.27147">
        <ele>183.6</ele>
        <time>2022-03-21T09:05:11Z</time>
      </trkpt>
      <trkpt lat="46.96647" lon="5.27147">
        <ele>183.6</ele>
        <time>2022-03-21T09:05:12Z</time>
      </trkpt>
      <trkpt lat="46.96655" lon="5.27148">
        <ele>183.6</ele>
        <time>2022-03-21T09:05:13Z</time>
      </trkpt>
      <trkpt lat="46.96663" lon="5.27148">
        <ele>183.6</ele>
        <time>2022-03-21T09:05:14Z</time>
      </trkpt>
      <trkpt lat="46.96672" lon="5.27148">
        <ele>183.6</ele>
        <time>2022-03-21T09:05:15Z</time>
      </trkpt>
      <trkpt lat="46.9668" lon="5.27148">
        <ele>183.6</ele>
        <time>2022-03-21T09:05:16Z</time>
      </trkpt>
      <trkpt lat="46.96689" lon="5.27147">
        <ele>184</ele>
        <time>2022-03-21T09:05:17Z</time>
      </trkpt>
      <trkpt lat="46.96698" lon="5.27145">
        <ele>184</ele>
        <time>2022-03-21T09:05:18Z</time>
      </trkpt>
      <trkpt lat="46.96706" lon="5.27144">
        <ele>184</ele>
        <time>2022-03-21T09:05:19Z</time>
      </trkpt>
      <trkpt lat="46.96715" lon="5.27141">
        <ele>184</ele>
        <time>2022-03-21T09:05:20Z</time>
      </trkpt>
      <trkpt lat="46.96723" lon="5.27138">
        <ele>184</ele>
        <time>2022-03-21T09:05:21Z</time>
      </trkpt>
      <trkpt lat="46.96732" lon="5.27135">
        <ele>184</ele>
        <time>2022-03-21T09:05:22Z</time>
      </trkpt>
      <trkpt lat="46.9674" lon="5.27131">
        <ele>184</ele>
        <time>2022-03-21T09:05:23Z</time>
      </trkpt>
      <trkpt lat="46.96748" lon="5.27126">
        <ele>184</ele>
        <time>2022-03-21T09:05:24Z</time>
      </trkpt>
      <trkpt lat="46.96756" lon="5.27121">
        <ele>184</ele>
        <time>2022-03-21T09:05:25Z</time>
      </trkpt>
      <trkpt lat="46.96764" lon="5.27116">
        <ele>184</ele>
        <time>2022-03-21T09:05:26Z</time>
      </trkpt>
      <trkpt lat="46.96772" lon="5.27112">
        <ele>184</ele>
        <time>2022-03-21T09:05:27Z</time>
      </trkpt>
      <trkpt lat="46.9678" lon="5.27107">
        <ele>184</ele>
        <time>2022-03-21T09:05:28Z</time>
      </trkpt>
      <trkpt lat="46.96788" lon="5.27104">
        <ele>184</ele>
        <time>2022-03-21T09:05:29Z</time>
      </trkpt>
      <trkpt lat="46.96796" lon="5.27101">
        <ele>184</ele>
        <time>2022-03-21T09:05:30Z</time>
      </trkpt>
      <trkpt lat="46.96805" lon="5.27098">
        <ele>183.8</ele>
        <time>2022-03-21T09:05:31Z</time>
      </trkpt>
      <trkpt lat="46.96813" lon="5.27097">
        <ele>183.8</ele>
        <time>2022-03-21T09:05:32Z</time>
      </trkpt>
      <trkpt lat="46.96821" lon="5.27095">
        <ele>183.8</ele>
        <time>2022-03-21T09:05:33Z</time>
      </trkpt>
      <trkpt lat="46.9683" lon="5.27094">
        <ele>183.8</ele>
        <time>2022-03-21T09:05:34Z</time>
      </trkpt>
      <trkpt lat="46.96838" lon="5.27094">
        <ele>183.8</ele>
        <time>2022-03-21T09:05:35Z</time>
      </trkpt>
      <trkpt lat="46.96847" lon="5.27094">
        <ele>183.8</ele>
        <time>2022-03-21T09:05:36Z</time>
      </trkpt>
      <trkpt lat="46.96855" lon="5.27095">
        <ele>183.8</ele>
        <time>2022-03-21T09:05:38Z</time>
      </trkpt>
      <trkpt lat="46.96863" lon="5.27096">
        <ele>183.8</ele>
        <time>2022-03-21T09:05:39Z</time>
      </trkpt>
      <trkpt lat="46.96872" lon="5.27097">
        <ele>183.8</ele>
        <time>2022-03-21T09:05:40Z</time>
      </trkpt>
      <trkpt lat="46.9688" lon="5.27099">
        <ele>183.8</ele>
        <time>2022-03-21T09:05:41Z</time>
      </trkpt>
      <trkpt lat="46.96889" lon="5.271">
        <ele>183.8</ele>
        <time>2022-03-21T09:05:42Z</time>
      </trkpt>
      <trkpt lat="46.96897" lon="5.27101">
        <ele>183.8</ele>
        <time>2022-03-21T09:05:43Z</time>
      </trkpt>
      <trkpt lat="46.96906" lon="5.27101">
        <ele>183.8</ele>
        <time>2022-03-21T09:05:44Z</time>
      </trkpt>
      <trkpt lat="46.96915" lon="5.27101">
        <ele>183.8</ele>
        <time>2022-03-21T09:05:45Z</time>
      </trkpt>
      <trkpt lat="46.96923" lon="5.271">
        <ele>183.8</ele>
        <time>2022-03-21T09:05:46Z</time>
      </trkpt>
      <trkpt lat="46.96932" lon="5.27098">
        <ele>184</ele>
        <time>2022-03-21T09:05:47Z</time>
      </trkpt>
      <trkpt lat="46.9694" lon="5.27096">
        <ele>184</ele>
        <time>2022-03-21T09:05:48Z</time>
      </trkpt>
      <trkpt lat="46.96949" lon="5.27093">
        <ele>184</ele>
        <time>2022-03-21T09:05:49Z</time>
      </trkpt>
      <trkpt lat="46.96957" lon="5.27089">
        <ele>184</ele>
        <time>2022-03-21T09:05:50Z</time>
      </trkpt>
      <trkpt lat="46.96966" lon="5.27086">
        <ele>184</ele>
        <time>2022-03-21T09:05:51Z</time>
      </trkpt>
      <trkpt lat="46.96974" lon="5.27082">
        <ele>184</ele>
        <time>2022-03-21T09:05:52Z</time>
      </trkpt>
      <trkpt lat="46.96982" lon="5.27078">
        <ele>184</ele>
        <time>2022-03-21T09:05:53Z</time>
      </trkpt>
      <trkpt lat="46.9699" lon="5.27074">
        <ele>184</ele>
        <time>2022-03-21T09:05:54Z</time>
      </trkpt>
      <trkpt lat="46.96999" lon="5.2707">
        <ele>184.2</ele>
        <time>2022-03-21T09:05:55Z</time>
      </trkpt>
      <trkpt lat="46.97007" lon="5.27065">
        <ele>184.2</ele>
        <time>2022-03-21T09:05:56Z</time>
      </trkpt>
      <trkpt lat="46.97015" lon="5.27061">
        <ele>184.2</ele>
        <time>2022-03-21T09:05:57Z</time>
      </trkpt>
      <trkpt lat="46.97023" lon="5.27057">
        <ele>184</ele>
        <time>2022-03-21T09:05:58Z</time>
      </trkpt>
      <trkpt lat="46.97032" lon="5.27053">
        <ele>184</ele>
        <time>2022-03-21T09:05:59Z</time>
      </trkpt>
      <trkpt lat="46.97041" lon="5.27051">
        <ele>184</ele>
        <time>2022-03-21T09:06:00Z</time>
      </trkpt>
      <trkpt lat="46.97049" lon="5.27051">
        <ele>184</ele>
        <time>2022-03-21T09:06:01Z</time>
      </trkpt>
      <trkpt lat="46.97058" lon="5.27052">
        <ele>184</ele>
        <time>2022-03-21T09:06:02Z</time>
      </trkpt>
      <trkpt lat="46.97067" lon="5.27054">
        <ele>184</ele>
        <time>2022-03-21T09:06:03Z</time>
      </trkpt>
      <trkpt lat="46.97075" lon="5.27057">
        <ele>184</ele>
        <time>2022-03-21T09:06:04Z</time>
      </trkpt>
      <trkpt lat="46.97084" lon="5.2706">
        <ele>184</ele>
        <time>2022-03-21T09:06:05Z</time>
      </trkpt>
      <trkpt lat="46.97092" lon="5.27063">
        <ele>184</ele>
        <time>2022-03-21T09:06:06Z</time>
      </trkpt>
      <trkpt lat="46.971" lon="5.27066">
        <ele>184.2</ele>
        <time>2022-03-21T09:06:07Z</time>
      </trkpt>
      <trkpt lat="46.97109" lon="5.27067">
        <ele>184.2</ele>
        <time>2022-03-21T09:06:08Z</time>
      </trkpt>
      <trkpt lat="46.97117" lon="5.27067">
        <ele>184.6</ele>
        <time>2022-03-21T09:06:09Z</time>
      </trkpt>
      <trkpt lat="46.97126" lon="5.27065">
        <ele>184.6</ele>
        <time>2022-03-21T09:06:10Z</time>
      </trkpt>
      <trkpt lat="46.97134" lon="5.27062">
        <ele>184.6</ele>
        <time>2022-03-21T09:06:11Z</time>
      </trkpt>
      <trkpt lat="46.97142" lon="5.27058">
        <ele>184.8</ele>
        <time>2022-03-21T09:06:12Z</time>
      </trkpt>
      <trkpt lat="46.9715" lon="5.27053">
        <ele>184.8</ele>
        <time>2022-03-21T09:06:13Z</time>
      </trkpt>
      <trkpt lat="46.97157" lon="5.27046">
        <ele>184.8</ele>
        <time>2022-03-21T09:06:14Z</time>
      </trkpt>
      <trkpt lat="46.97164" lon="5.27039">
        <ele>185</ele>
        <time>2022-03-21T09:06:15Z</time>
      </trkpt>
      <trkpt lat="46.97171" lon="5.27031">
        <ele>185</ele>
        <time>2022-03-21T09:06:16Z</time>
      </trkpt>
      <trkpt lat="46.97177" lon="5.27023">
        <ele>185</ele>
        <time>2022-03-21T09:06:17Z</time>
      </trkpt>
      <trkpt lat="46.97183" lon="5.27014">
        <ele>185</ele>
        <time>2022-03-21T09:06:18Z</time>
      </trkpt>
      <trkpt lat="46.97189" lon="5.27005">
        <ele>185.4</ele>
        <time>2022-03-21T09:06:19Z</time>
      </trkpt>
      <trkpt lat="46.97195" lon="5.26996">
        <ele>185.4</ele>
        <time>2022-03-21T09:06:20Z</time>
      </trkpt>
      <trkpt lat="46.972" lon="5.26987">
        <ele>185.6</ele>
        <time>2022-03-21T09:06:21Z</time>
      </trkpt>
      <trkpt lat="46.97206" lon="5.26978">
        <ele>185.6</ele>
        <time>2022-03-21T09:06:22Z</time>
      </trkpt>
      <trkpt lat="46.97211" lon="5.26969">
        <ele>186</ele>
        <time>2022-03-21T09:06:23Z</time>
      </trkpt>
      <trkpt lat="46.97216" lon="5.2696">
        <ele>186</ele>
        <time>2022-03-21T09:06:24Z</time>
      </trkpt>
      <trkpt lat="46.97221" lon="5.26951">
        <ele>186.2</ele>
        <time>2022-03-21T09:06:25Z</time>
      </trkpt>
      <trkpt lat="46.97226" lon="5.26942">
        <ele>186.2</ele>
        <time>2022-03-21T09:06:26Z</time>
      </trkpt>
      <trkpt lat="46.97232" lon="5.26933">
        <ele>186.2</ele>
        <time>2022-03-21T09:06:27Z</time>
      </trkpt>
      <trkpt lat="46.97237" lon="5.26924">
        <ele>186.2</ele>
        <time>2022-03-21T09:06:28Z</time>
      </trkpt>
      <trkpt lat="46.97242" lon="5.26915">
        <ele>186.2</ele>
        <time>2022-03-21T09:06:29Z</time>
      </trkpt>
      <trkpt lat="46.97248" lon="5.26906">
        <ele>186.2</ele>
        <time>2022-03-21T09:06:30Z</time>
      </trkpt>
      <trkpt lat="46.97254" lon="5.26897">
        <ele>186.2</ele>
        <time>2022-03-21T09:06:31Z</time>
      </trkpt>
      <trkpt lat="46.97259" lon="5.26888">
        <ele>185.8</ele>
        <time>2022-03-21T09:06:32Z</time>
      </trkpt>
      <trkpt lat="46.97266" lon="5.2688">
        <ele>185.8</ele>
        <time>2022-03-21T09:06:33Z</time>
      </trkpt>
      <trkpt lat="46.97272" lon="5.26871">
        <ele>185.8</ele>
        <time>2022-03-21T09:06:34Z</time>
      </trkpt>
      <trkpt lat="46.97278" lon="5.26862">
        <ele>185.8</ele>
        <time>2022-03-21T09:06:35Z</time>
      </trkpt>
      <trkpt lat="46.97285" lon="5.26854">
        <ele>185.6</ele>
        <time>2022-03-21T09:06:36Z</time>
      </trkpt>
      <trkpt lat="46.97291" lon="5.26845">
        <ele>185.6</ele>
        <time>2022-03-21T09:06:37Z</time>
      </trkpt>
      <trkpt lat="46.97298" lon="5.26837">
        <ele>185.6</ele>
        <time>2022-03-21T09:06:38Z</time>
      </trkpt>
      <trkpt lat="46.97305" lon="5.2683">
        <ele>185.4</ele>
        <time>2022-03-21T09:06:39Z</time>
      </trkpt>
      <trkpt lat="46.97312" lon="5.26822">
        <ele>185.4</ele>
        <time>2022-03-21T09:06:40Z</time>
      </trkpt>
      <trkpt lat="46.97319" lon="5.26813">
        <ele>185.4</ele>
        <time>2022-03-21T09:06:41Z</time>
      </trkpt>
      <trkpt lat="46.97327" lon="5.26804">
        <ele>185.4</ele>
        <time>2022-03-21T09:06:42Z</time>
      </trkpt>
      <trkpt lat="46.97334" lon="5.26796">
        <ele>185.4</ele>
        <time>2022-03-21T09:06:43Z</time>
      </trkpt>
      <trkpt lat="46.97341" lon="5.26788">
        <ele>185.2</ele>
        <time>2022-03-21T09:06:44Z</time>
      </trkpt>
      <trkpt lat="46.97349" lon="5.26781">
        <ele>185.2</ele>
        <time>2022-03-21T09:06:45Z</time>
      </trkpt>
      <trkpt lat="46.97356" lon="5.26772">
        <ele>185.2</ele>
        <time>2022-03-21T09:06:46Z</time>
      </trkpt>
      <trkpt lat="46.97363" lon="5.26764">
        <ele>185.2</ele>
        <time>2022-03-21T09:06:47Z</time>
      </trkpt>
      <trkpt lat="46.97371" lon="5.26757">
        <ele>185.2</ele>
        <time>2022-03-21T09:06:48Z</time>
      </trkpt>
      <trkpt lat="46.97379" lon="5.26749">
        <ele>185</ele>
        <time>2022-03-21T09:06:50Z</time>
      </trkpt>
      <trkpt lat="46.97387" lon="5.26741">
        <ele>185</ele>
        <time>2022-03-21T09:06:51Z</time>
      </trkpt>
      <trkpt lat="46.97394" lon="5.26734">
        <ele>185</ele>
        <time>2022-03-21T09:06:52Z</time>
      </trkpt>
      <trkpt lat="46.97403" lon="5.26728">
        <ele>185</ele>
        <time>2022-03-21T09:06:53Z</time>
      </trkpt>
      <trkpt lat="46.97411" lon="5.26721">
        <ele>185</ele>
        <time>2022-03-21T09:06:54Z</time>
      </trkpt>
      <trkpt lat="46.97418" lon="5.26714">
        <ele>185</ele>
        <time>2022-03-21T09:06:55Z</time>
      </trkpt>
      <trkpt lat="46.97426" lon="5.26709">
        <ele>185</ele>
        <time>2022-03-21T09:06:56Z</time>
      </trkpt>
      <trkpt lat="46.97434" lon="5.26703">
        <ele>185</ele>
        <time>2022-03-21T09:06:57Z</time>
      </trkpt>
      <trkpt lat="46.97443" lon="5.26697">
        <ele>185</ele>
        <time>2022-03-21T09:06:58Z</time>
      </trkpt>
      <trkpt lat="46.97451" lon="5.26691">
        <ele>185</ele>
        <time>2022-03-21T09:06:59Z</time>
      </trkpt>
      <trkpt lat="46.97459" lon="5.26686">
        <ele>185</ele>
        <time>2022-03-21T09:07:00Z</time>
      </trkpt>
      <trkpt lat="46.97467" lon="5.26681">
        <ele>185</ele>
        <time>2022-03-21T09:07:01Z</time>
      </trkpt>
      <trkpt lat="46.97477" lon="5.26677">
        <ele>185</ele>
        <time>2022-03-21T09:07:02Z</time>
      </trkpt>
      <trkpt lat="46.97486" lon="5.26672">
        <ele>185</ele>
        <time>2022-03-21T09:07:03Z</time>
      </trkpt>
      <trkpt lat="46.97495" lon="5.26668">
        <ele>184.8</ele>
        <time>2022-03-21T09:07:04Z</time>
      </trkpt>
      <trkpt lat="46.97504" lon="5.26664">
        <ele>184.8</ele>
        <time>2022-03-21T09:07:05Z</time>
      </trkpt>
      <trkpt lat="46.97513" lon="5.26659">
        <ele>184.8</ele>
        <time>2022-03-21T09:07:06Z</time>
      </trkpt>
      <trkpt lat="46.97521" lon="5.26655">
        <ele>184.8</ele>
        <time>2022-03-21T09:07:07Z</time>
      </trkpt>
      <trkpt lat="46.97531" lon="5.26651">
        <ele>184.8</ele>
        <time>2022-03-21T09:07:08Z</time>
      </trkpt>
      <trkpt lat="46.97539" lon="5.26647">
        <ele>184.8</ele>
        <time>2022-03-21T09:07:09Z</time>
      </trkpt>
      <trkpt lat="46.97548" lon="5.26644">
        <ele>184.8</ele>
        <time>2022-03-21T09:07:10Z</time>
      </trkpt>
      <trkpt lat="46.97557" lon="5.26641">
        <ele>184.8</ele>
        <time>2022-03-21T09:07:11Z</time>
      </trkpt>
      <trkpt lat="46.97566" lon="5.26638">
        <ele>184.8</ele>
        <time>2022-03-21T09:07:12Z</time>
      </trkpt>
      <trkpt lat="46.97575" lon="5.26636">
        <ele>184.8</ele>
        <time>2022-03-21T09:07:13Z</time>
      </trkpt>
      <trkpt lat="46.97583" lon="5.26633">
        <ele>184.8</ele>
        <time>2022-03-21T09:07:14Z</time>
      </trkpt>
      <trkpt lat="46.97592" lon="5.26631">
        <ele>184.8</ele>
        <time>2022-03-21T09:07:15Z</time>
      </trkpt>
      <trkpt lat="46.97601" lon="5.26629">
        <ele>184.8</ele>
        <time>2022-03-21T09:07:16Z</time>
      </trkpt>
      <trkpt lat="46.9761" lon="5.26627">
        <ele>184.8</ele>
        <time>2022-03-21T09:07:17Z</time>
      </trkpt>
      <trkpt lat="46.97619" lon="5.26625">
        <ele>184.8</ele>
        <time>2022-03-21T09:07:18Z</time>
      </trkpt>
      <trkpt lat="46.97628" lon="5.26623">
        <ele>184.8</ele>
        <time>2022-03-21T09:07:19Z</time>
      </trkpt>
      <trkpt lat="46.97637" lon="5.2662">
        <ele>184.8</ele>
        <time>2022-03-21T09:07:20Z</time>
      </trkpt>
      <trkpt lat="46.97646" lon="5.26619">
        <ele>184.8</ele>
        <time>2022-03-21T09:07:21Z</time>
      </trkpt>
      <trkpt lat="46.97655" lon="5.26617">
        <ele>184.8</ele>
        <time>2022-03-21T09:07:22Z</time>
      </trkpt>
      <trkpt lat="46.97664" lon="5.26615">
        <ele>184.8</ele>
        <time>2022-03-21T09:07:23Z</time>
      </trkpt>
      <trkpt lat="46.97673" lon="5.26613">
        <ele>184.8</ele>
        <time>2022-03-21T09:07:24Z</time>
      </trkpt>
      <trkpt lat="46.97682" lon="5.26611">
        <ele>184.8</ele>
        <time>2022-03-21T09:07:25Z</time>
      </trkpt>
      <trkpt lat="46.97691" lon="5.26606">
        <ele>184.8</ele>
        <time>2022-03-21T09:07:26Z</time>
      </trkpt>
      <trkpt lat="46.977" lon="5.26601">
        <ele>184.8</ele>
        <time>2022-03-21T09:07:27Z</time>
      </trkpt>
      <trkpt lat="46.97708" lon="5.26596">
        <ele>184.8</ele>
        <time>2022-03-21T09:07:28Z</time>
      </trkpt>
      <trkpt lat="46.97715" lon="5.2659">
        <ele>184.8</ele>
        <time>2022-03-21T09:07:29Z</time>
      </trkpt>
      <trkpt lat="46.97723" lon="5.26582">
        <ele>184.8</ele>
        <time>2022-03-21T09:07:30Z</time>
      </trkpt>
      <trkpt lat="46.9773" lon="5.26574">
        <ele>184.8</ele>
        <time>2022-03-21T09:07:31Z</time>
      </trkpt>
      <trkpt lat="46.97737" lon="5.26565">
        <ele>184.8</ele>
        <time>2022-03-21T09:07:32Z</time>
      </trkpt>
      <trkpt lat="46.97744" lon="5.26555">
        <ele>184.8</ele>
        <time>2022-03-21T09:07:33Z</time>
      </trkpt>
      <trkpt lat="46.9775" lon="5.26546">
        <ele>184.8</ele>
        <time>2022-03-21T09:07:34Z</time>
      </trkpt>
      <trkpt lat="46.97757" lon="5.26537">
        <ele>184.8</ele>
        <time>2022-03-21T09:07:35Z</time>
      </trkpt>
      <trkpt lat="46.97763" lon="5.26529">
        <ele>184.8</ele>
        <time>2022-03-21T09:07:36Z</time>
      </trkpt>
      <trkpt lat="46.9777" lon="5.2652">
        <ele>184.8</ele>
        <time>2022-03-21T09:07:37Z</time>
      </trkpt>
      <trkpt lat="46.97776" lon="5.26512">
        <ele>184.8</ele>
        <time>2022-03-21T09:07:38Z</time>
      </trkpt>
      <trkpt lat="46.97783" lon="5.26504">
        <ele>184.8</ele>
        <time>2022-03-21T09:07:39Z</time>
      </trkpt>
      <trkpt lat="46.9779" lon="5.26495">
        <ele>184.8</ele>
        <time>2022-03-21T09:07:40Z</time>
      </trkpt>
      <trkpt lat="46.97796" lon="5.26487">
        <ele>184.8</ele>
        <time>2022-03-21T09:07:41Z</time>
      </trkpt>
      <trkpt lat="46.97803" lon="5.26478">
        <ele>184.8</ele>
        <time>2022-03-21T09:07:42Z</time>
      </trkpt>
      <trkpt lat="46.97809" lon="5.2647">
        <ele>184.8</ele>
        <time>2022-03-21T09:07:43Z</time>
      </trkpt>
      <trkpt lat="46.97815" lon="5.26461">
        <ele>184.8</ele>
        <time>2022-03-21T09:07:44Z</time>
      </trkpt>
      <trkpt lat="46.97822" lon="5.26454">
        <ele>184.8</ele>
        <time>2022-03-21T09:07:45Z</time>
      </trkpt>
      <trkpt lat="46.97829" lon="5.26446">
        <ele>185</ele>
        <time>2022-03-21T09:07:46Z</time>
      </trkpt>
      <trkpt lat="46.97841" lon="5.2643">
        <ele>185</ele>
        <time>2022-03-21T09:07:47Z</time>
      </trkpt>
      <trkpt lat="46.97848" lon="5.26423">
        <ele>185</ele>
        <time>2022-03-21T09:07:48Z</time>
      </trkpt>
      <trkpt lat="46.97854" lon="5.26416">
        <ele>185</ele>
        <time>2022-03-21T09:07:49Z</time>
      </trkpt>
      <trkpt lat="46.97861" lon="5.2641">
        <ele>185</ele>
        <time>2022-03-21T09:07:50Z</time>
      </trkpt>
      <trkpt lat="46.97867" lon="5.26403">
        <ele>185</ele>
        <time>2022-03-21T09:07:51Z</time>
      </trkpt>
      <trkpt lat="46.97874" lon="5.26396">
        <ele>185</ele>
        <time>2022-03-21T09:07:52Z</time>
      </trkpt>
      <trkpt lat="46.9788" lon="5.2639">
        <ele>185</ele>
        <time>2022-03-21T09:07:53Z</time>
      </trkpt>
      <trkpt lat="46.97887" lon="5.26384">
        <ele>185.2</ele>
        <time>2022-03-21T09:07:54Z</time>
      </trkpt>
      <trkpt lat="46.97893" lon="5.26377">
        <ele>185.2</ele>
        <time>2022-03-21T09:07:55Z</time>
      </trkpt>
      <trkpt lat="46.979" lon="5.2637">
        <ele>185.2</ele>
        <time>2022-03-21T09:07:56Z</time>
      </trkpt>
      <trkpt lat="46.97906" lon="5.26364">
        <ele>185.2</ele>
        <time>2022-03-21T09:07:57Z</time>
      </trkpt>
      <trkpt lat="46.97913" lon="5.26357">
        <ele>185.2</ele>
        <time>2022-03-21T09:07:58Z</time>
      </trkpt>
      <trkpt lat="46.97919" lon="5.26349">
        <ele>185.4</ele>
        <time>2022-03-21T09:07:59Z</time>
      </trkpt>
      <trkpt lat="46.97925" lon="5.26342">
        <ele>185.4</ele>
        <time>2022-03-21T09:08:00Z</time>
      </trkpt>
      <trkpt lat="46.97931" lon="5.26334">
        <ele>185.4</ele>
        <time>2022-03-21T09:08:01Z</time>
      </trkpt>
      <trkpt lat="46.97937" lon="5.26327">
        <ele>185.4</ele>
        <time>2022-03-21T09:08:02Z</time>
      </trkpt>
      <trkpt lat="46.97943" lon="5.2632">
        <ele>185.4</ele>
        <time>2022-03-21T09:08:03Z</time>
      </trkpt>
      <trkpt lat="46.97949" lon="5.26312">
        <ele>185.4</ele>
        <time>2022-03-21T09:08:04Z</time>
      </trkpt>
      <trkpt lat="46.97955" lon="5.26305">
        <ele>185.4</ele>
        <time>2022-03-21T09:08:05Z</time>
      </trkpt>
      <trkpt lat="46.97961" lon="5.26297">
        <ele>185.4</ele>
        <time>2022-03-21T09:08:06Z</time>
      </trkpt>
      <trkpt lat="46.97967" lon="5.2629">
        <ele>185.4</ele>
        <time>2022-03-21T09:08:07Z</time>
      </trkpt>
      <trkpt lat="46.97973" lon="5.26283">
        <ele>185.4</ele>
        <time>2022-03-21T09:08:08Z</time>
      </trkpt>
      <trkpt lat="46.97979" lon="5.26276">
        <ele>185.4</ele>
        <time>2022-03-21T09:08:09Z</time>
      </trkpt>
      <trkpt lat="46.97985" lon="5.26269">
        <ele>185.4</ele>
        <time>2022-03-21T09:08:10Z</time>
      </trkpt>
      <trkpt lat="46.97992" lon="5.26263">
        <ele>185.4</ele>
        <time>2022-03-21T09:08:11Z</time>
      </trkpt>
      <trkpt lat="46.97998" lon="5.26257">
        <ele>185.4</ele>
        <time>2022-03-21T09:08:12Z</time>
      </trkpt>
      <trkpt lat="46.98004" lon="5.26251">
        <ele>185.4</ele>
        <time>2022-03-21T09:08:13Z</time>
      </trkpt>
      <trkpt lat="46.98011" lon="5.26245">
        <ele>185.4</ele>
        <time>2022-03-21T09:08:14Z</time>
      </trkpt>
      <trkpt lat="46.98018" lon="5.2624">
        <ele>185.4</ele>
        <time>2022-03-21T09:08:15Z</time>
      </trkpt>
      <trkpt lat="46.98025" lon="5.26235">
        <ele>185.4</ele>
        <time>2022-03-21T09:08:16Z</time>
      </trkpt>
      <trkpt lat="46.98032" lon="5.2623">
        <ele>185.4</ele>
        <time>2022-03-21T09:08:17Z</time>
      </trkpt>
      <trkpt lat="46.98039" lon="5.26226">
        <ele>185.4</ele>
        <time>2022-03-21T09:08:18Z</time>
      </trkpt>
      <trkpt lat="46.98046" lon="5.26222">
        <ele>185.4</ele>
        <time>2022-03-21T09:08:19Z</time>
      </trkpt>
      <trkpt lat="46.98053" lon="5.26218">
        <ele>185.4</ele>
        <time>2022-03-21T09:08:20Z</time>
      </trkpt>
      <trkpt lat="46.98061" lon="5.26214">
        <ele>185.4</ele>
        <time>2022-03-21T09:08:21Z</time>
      </trkpt>
      <trkpt lat="46.98068" lon="5.2621">
        <ele>185.4</ele>
        <time>2022-03-21T09:08:22Z</time>
      </trkpt>
      <trkpt lat="46.98076" lon="5.26207">
        <ele>185.4</ele>
        <time>2022-03-21T09:08:23Z</time>
      </trkpt>
      <trkpt lat="46.98084" lon="5.26204">
        <ele>185.2</ele>
        <time>2022-03-21T09:08:24Z</time>
      </trkpt>
      <trkpt lat="46.98092" lon="5.26202">
        <ele>185.2</ele>
        <time>2022-03-21T09:08:25Z</time>
      </trkpt>
      <trkpt lat="46.981" lon="5.262">
        <ele>185.2</ele>
        <time>2022-03-21T09:08:26Z</time>
      </trkpt>
      <trkpt lat="46.98108" lon="5.26198">
        <ele>185.2</ele>
        <time>2022-03-21T09:08:27Z</time>
      </trkpt>
      <trkpt lat="46.98116" lon="5.26196">
        <ele>185.2</ele>
        <time>2022-03-21T09:08:28Z</time>
      </trkpt>
      <trkpt lat="46.98124" lon="5.26195">
        <ele>185.2</ele>
        <time>2022-03-21T09:08:29Z</time>
      </trkpt>
      <trkpt lat="46.98132" lon="5.26194">
        <ele>185.2</ele>
        <time>2022-03-21T09:08:30Z</time>
      </trkpt>
      <trkpt lat="46.9814" lon="5.26193">
        <ele>185.2</ele>
        <time>2022-03-21T09:08:31Z</time>
      </trkpt>
      <trkpt lat="46.98148" lon="5.26192">
        <ele>185.2</ele>
        <time>2022-03-21T09:08:32Z</time>
      </trkpt>
      <trkpt lat="46.98156" lon="5.26192">
        <ele>185.4</ele>
        <time>2022-03-21T09:08:33Z</time>
      </trkpt>
      <trkpt lat="46.98163" lon="5.26191">
        <ele>185.4</ele>
        <time>2022-03-21T09:08:34Z</time>
      </trkpt>
      <trkpt lat="46.98171" lon="5.26191">
        <ele>185.4</ele>
        <time>2022-03-21T09:08:35Z</time>
      </trkpt>
      <trkpt lat="46.98179" lon="5.2619">
        <ele>185.4</ele>
        <time>2022-03-21T09:08:36Z</time>
      </trkpt>
      <trkpt lat="46.98188" lon="5.26189">
        <ele>185.4</ele>
        <time>2022-03-21T09:08:37Z</time>
      </trkpt>
      <trkpt lat="46.98196" lon="5.26188">
        <ele>185.4</ele>
        <time>2022-03-21T09:08:38Z</time>
      </trkpt>
      <trkpt lat="46.98204" lon="5.26186">
        <ele>185.4</ele>
        <time>2022-03-21T09:08:39Z</time>
      </trkpt>
      <trkpt lat="46.98212" lon="5.26184">
        <ele>185.4</ele>
        <time>2022-03-21T09:08:40Z</time>
      </trkpt>
      <trkpt lat="46.9822" lon="5.26182">
        <ele>185.4</ele>
        <time>2022-03-21T09:08:41Z</time>
      </trkpt>
      <trkpt lat="46.98228" lon="5.2618">
        <ele>185.4</ele>
        <time>2022-03-21T09:08:42Z</time>
      </trkpt>
      <trkpt lat="46.98236" lon="5.26178">
        <ele>185.4</ele>
        <time>2022-03-21T09:08:43Z</time>
      </trkpt>
      <trkpt lat="46.98245" lon="5.26176">
        <ele>185</ele>
        <time>2022-03-21T09:08:44Z</time>
      </trkpt>
      <trkpt lat="46.98254" lon="5.26173">
        <ele>185</ele>
        <time>2022-03-21T09:08:45Z</time>
      </trkpt>
      <trkpt lat="46.98263" lon="5.2617">
        <ele>184.8</ele>
        <time>2022-03-21T09:08:46Z</time>
      </trkpt>
      <trkpt lat="46.98272" lon="5.26167">
        <ele>184.8</ele>
        <time>2022-03-21T09:08:47Z</time>
      </trkpt>
      <trkpt lat="46.98281" lon="5.26163">
        <ele>184.6</ele>
        <time>2022-03-21T09:08:48Z</time>
      </trkpt>
      <trkpt lat="46.98289" lon="5.26159">
        <ele>184.6</ele>
        <time>2022-03-21T09:08:49Z</time>
      </trkpt>
      <trkpt lat="46.98298" lon="5.26156">
        <ele>184.6</ele>
        <time>2022-03-21T09:08:50Z</time>
      </trkpt>
      <trkpt lat="46.98306" lon="5.26152">
        <ele>184.2</ele>
        <time>2022-03-21T09:08:51Z</time>
      </trkpt>
      <trkpt lat="46.98315" lon="5.26149">
        <ele>184.2</ele>
        <time>2022-03-21T09:08:52Z</time>
      </trkpt>
      <trkpt lat="46.98324" lon="5.26146">
        <ele>184.2</ele>
        <time>2022-03-21T09:08:53Z</time>
      </trkpt>
      <trkpt lat="46.98333" lon="5.26144">
        <ele>184.2</ele>
        <time>2022-03-21T09:08:54Z</time>
      </trkpt>
      <trkpt lat="46.98341" lon="5.26142">
        <ele>184.2</ele>
        <time>2022-03-21T09:08:55Z</time>
      </trkpt>
      <trkpt lat="46.9835" lon="5.2614">
        <ele>184.2</ele>
        <time>2022-03-21T09:08:56Z</time>
      </trkpt>
      <trkpt lat="46.98359" lon="5.26138">
        <ele>184</ele>
        <time>2022-03-21T09:08:57Z</time>
      </trkpt>
      <trkpt lat="46.98367" lon="5.26137">
        <ele>184</ele>
        <time>2022-03-21T09:08:58Z</time>
      </trkpt>
      <trkpt lat="46.98376" lon="5.26135">
        <ele>184</ele>
        <time>2022-03-21T09:08:59Z</time>
      </trkpt>
      <trkpt lat="46.98384" lon="5.26133">
        <ele>184</ele>
        <time>2022-03-21T09:09:00Z</time>
      </trkpt>
      <trkpt lat="46.98393" lon="5.26132">
        <ele>184</ele>
        <time>2022-03-21T09:09:01Z</time>
      </trkpt>
      <trkpt lat="46.98402" lon="5.2613">
        <ele>184</ele>
        <time>2022-03-21T09:09:02Z</time>
      </trkpt>
      <trkpt lat="46.9841" lon="5.26129">
        <ele>184</ele>
        <time>2022-03-21T09:09:03Z</time>
      </trkpt>
      <trkpt lat="46.98418" lon="5.26129">
        <ele>184</ele>
        <time>2022-03-21T09:09:04Z</time>
      </trkpt>
      <trkpt lat="46.98426" lon="5.26128">
        <ele>184</ele>
        <time>2022-03-21T09:09:05Z</time>
      </trkpt>
      <trkpt lat="46.98434" lon="5.26128">
        <ele>184.4</ele>
        <time>2022-03-21T09:09:06Z</time>
      </trkpt>
      <trkpt lat="46.98442" lon="5.26128">
        <ele>184.4</ele>
        <time>2022-03-21T09:09:07Z</time>
      </trkpt>
      <trkpt lat="46.9845" lon="5.26127">
        <ele>184.4</ele>
        <time>2022-03-21T09:09:08Z</time>
      </trkpt>
      <trkpt lat="46.98458" lon="5.26127">
        <ele>184.4</ele>
        <time>2022-03-21T09:09:09Z</time>
      </trkpt>
      <trkpt lat="46.98466" lon="5.26127">
        <ele>184.4</ele>
        <time>2022-03-21T09:09:10Z</time>
      </trkpt>
      <trkpt lat="46.98474" lon="5.26127">
        <ele>184.4</ele>
        <time>2022-03-21T09:09:11Z</time>
      </trkpt>
      <trkpt lat="46.98483" lon="5.26127">
        <ele>184.4</ele>
        <time>2022-03-21T09:09:12Z</time>
      </trkpt>
      <trkpt lat="46.98491" lon="5.26127">
        <ele>184.4</ele>
        <time>2022-03-21T09:09:13Z</time>
      </trkpt>
      <trkpt lat="46.98499" lon="5.26127">
        <ele>184.4</ele>
        <time>2022-03-21T09:09:14Z</time>
      </trkpt>
      <trkpt lat="46.98508" lon="5.26128">
        <ele>184.2</ele>
        <time>2022-03-21T09:09:15Z</time>
      </trkpt>
      <trkpt lat="46.98517" lon="5.26129">
        <ele>184.2</ele>
        <time>2022-03-21T09:09:16Z</time>
      </trkpt>
      <trkpt lat="46.98525" lon="5.2613">
        <ele>184.2</ele>
        <time>2022-03-21T09:09:17Z</time>
      </trkpt>
      <trkpt lat="46.98534" lon="5.26131">
        <ele>184.2</ele>
        <time>2022-03-21T09:09:18Z</time>
      </trkpt>
      <trkpt lat="46.98542" lon="5.26133">
        <ele>184.2</ele>
        <time>2022-03-21T09:09:19Z</time>
      </trkpt>
      <trkpt lat="46.98551" lon="5.26134">
        <ele>184.2</ele>
        <time>2022-03-21T09:09:20Z</time>
      </trkpt>
      <trkpt lat="46.98559" lon="5.26136">
        <ele>184.2</ele>
        <time>2022-03-21T09:09:21Z</time>
      </trkpt>
      <trkpt lat="46.98567" lon="5.26137">
        <ele>184.2</ele>
        <time>2022-03-21T09:09:22Z</time>
      </trkpt>
      <trkpt lat="46.98575" lon="5.26138">
        <ele>184.2</ele>
        <time>2022-03-21T09:09:23Z</time>
      </trkpt>
      <trkpt lat="46.98584" lon="5.26139">
        <ele>184.2</ele>
        <time>2022-03-21T09:09:24Z</time>
      </trkpt>
      <trkpt lat="46.98592" lon="5.26139">
        <ele>184.2</ele>
        <time>2022-03-21T09:09:25Z</time>
      </trkpt>
      <trkpt lat="46.986" lon="5.2614">
        <ele>184.2</ele>
        <time>2022-03-21T09:09:26Z</time>
      </trkpt>
      <trkpt lat="46.98608" lon="5.2614">
        <ele>184.2</ele>
        <time>2022-03-21T09:09:27Z</time>
      </trkpt>
      <trkpt lat="46.98616" lon="5.2614">
        <ele>184.2</ele>
        <time>2022-03-21T09:09:28Z</time>
      </trkpt>
      <trkpt lat="46.98624" lon="5.2614">
        <ele>184.2</ele>
        <time>2022-03-21T09:09:29Z</time>
      </trkpt>
      <trkpt lat="46.98632" lon="5.26141">
        <ele>184</ele>
        <time>2022-03-21T09:09:30Z</time>
      </trkpt>
      <trkpt lat="46.9864" lon="5.26141">
        <ele>184</ele>
        <time>2022-03-21T09:09:31Z</time>
      </trkpt>
      <trkpt lat="46.98648" lon="5.26141">
        <ele>184</ele>
        <time>2022-03-21T09:09:32Z</time>
      </trkpt>
      <trkpt lat="46.98656" lon="5.2614">
        <ele>184</ele>
        <time>2022-03-21T09:09:33Z</time>
      </trkpt>
      <trkpt lat="46.98664" lon="5.2614">
        <ele>184</ele>
        <time>2022-03-21T09:09:34Z</time>
      </trkpt>
      <trkpt lat="46.98672" lon="5.26139">
        <ele>184</ele>
        <time>2022-03-21T09:09:35Z</time>
      </trkpt>
      <trkpt lat="46.9868" lon="5.26137">
        <ele>184</ele>
        <time>2022-03-21T09:09:36Z</time>
      </trkpt>
      <trkpt lat="46.98688" lon="5.26135">
        <ele>184</ele>
        <time>2022-03-21T09:09:37Z</time>
      </trkpt>
      <trkpt lat="46.98695" lon="5.26132">
        <ele>184.2</ele>
        <time>2022-03-21T09:09:38Z</time>
      </trkpt>
      <trkpt lat="46.98703" lon="5.26129">
        <ele>184.2</ele>
        <time>2022-03-21T09:09:39Z</time>
      </trkpt>
      <trkpt lat="46.9871" lon="5.26125">
        <ele>184.2</ele>
        <time>2022-03-21T09:09:40Z</time>
      </trkpt>
      <trkpt lat="46.98718" lon="5.26122">
        <ele>184.2</ele>
        <time>2022-03-21T09:09:41Z</time>
      </trkpt>
      <trkpt lat="46.98725" lon="5.26118">
        <ele>184.4</ele>
        <time>2022-03-21T09:09:42Z</time>
      </trkpt>
      <trkpt lat="46.98732" lon="5.26113">
        <ele>184.4</ele>
        <time>2022-03-21T09:09:43Z</time>
      </trkpt>
      <trkpt lat="46.98739" lon="5.26109">
        <ele>184.4</ele>
        <time>2022-03-21T09:09:44Z</time>
      </trkpt>
      <trkpt lat="46.98746" lon="5.26104">
        <ele>184.6</ele>
        <time>2022-03-21T09:09:45Z</time>
      </trkpt>
      <trkpt lat="46.98753" lon="5.261">
        <ele>184.6</ele>
        <time>2022-03-21T09:09:46Z</time>
      </trkpt>
      <trkpt lat="46.9876" lon="5.26095">
        <ele>184.8</ele>
        <time>2022-03-21T09:09:47Z</time>
      </trkpt>
      <trkpt lat="46.98767" lon="5.2609">
        <ele>184.8</ele>
        <time>2022-03-21T09:09:48Z</time>
      </trkpt>
      <trkpt lat="46.98774" lon="5.26085">
        <ele>184.8</ele>
        <time>2022-03-21T09:09:49Z</time>
      </trkpt>
      <trkpt lat="46.9878" lon="5.2608">
        <ele>185</ele>
        <time>2022-03-21T09:09:50Z</time>
      </trkpt>
      <trkpt lat="46.98787" lon="5.26075">
        <ele>185</ele>
        <time>2022-03-21T09:09:51Z</time>
      </trkpt>
      <trkpt lat="46.98793" lon="5.26071">
        <ele>185</ele>
        <time>2022-03-21T09:09:52Z</time>
      </trkpt>
      <trkpt lat="46.988" lon="5.26066">
        <ele>185.4</ele>
        <time>2022-03-21T09:09:53Z</time>
      </trkpt>
      <trkpt lat="46.98807" lon="5.26062">
        <ele>185.4</ele>
        <time>2022-03-21T09:09:54Z</time>
      </trkpt>
      <trkpt lat="46.98813" lon="5.26059">
        <ele>185.8</ele>
        <time>2022-03-21T09:09:55Z</time>
      </trkpt>
      <trkpt lat="46.9882" lon="5.26057">
        <ele>185.8</ele>
        <time>2022-03-21T09:09:56Z</time>
      </trkpt>
      <trkpt lat="46.98826" lon="5.26054">
        <ele>186</ele>
        <time>2022-03-21T09:09:57Z</time>
      </trkpt>
      <trkpt lat="46.98833" lon="5.26052">
        <ele>186</ele>
        <time>2022-03-21T09:09:58Z</time>
      </trkpt>
      <trkpt lat="46.98839" lon="5.26049">
        <ele>186.2</ele>
        <time>2022-03-21T09:09:59Z</time>
      </trkpt>
      <trkpt lat="46.98845" lon="5.26046">
        <ele>186.2</ele>
        <time>2022-03-21T09:10:00Z</time>
      </trkpt>
      <trkpt lat="46.98852" lon="5.26043">
        <ele>186.6</ele>
        <time>2022-03-21T09:10:01Z</time>
      </trkpt>
      <trkpt lat="46.98858" lon="5.2604">
        <ele>186.6</ele>
        <time>2022-03-21T09:10:02Z</time>
      </trkpt>
      <trkpt lat="46.98864" lon="5.26037">
        <ele>187</ele>
        <time>2022-03-21T09:10:03Z</time>
      </trkpt>
      <trkpt lat="46.9887" lon="5.26034">
        <ele>187.2</ele>
        <time>2022-03-21T09:10:04Z</time>
      </trkpt>
      <trkpt lat="46.98876" lon="5.26031">
        <ele>187.6</ele>
        <time>2022-03-21T09:10:05Z</time>
      </trkpt>
      <trkpt lat="46.98881" lon="5.26028">
        <ele>187.6</ele>
        <time>2022-03-21T09:10:06Z</time>
      </trkpt>
      <trkpt lat="46.98887" lon="5.26024">
        <ele>187.8</ele>
        <time>2022-03-21T09:10:07Z</time>
      </trkpt>
      <trkpt lat="46.98893" lon="5.26021">
        <ele>188.2</ele>
        <time>2022-03-21T09:10:08Z</time>
      </trkpt>
      <trkpt lat="46.98898" lon="5.26019">
        <ele>188.6</ele>
        <time>2022-03-21T09:10:09Z</time>
      </trkpt>
      <trkpt lat="46.98903" lon="5.26017">
        <ele>188.8</ele>
        <time>2022-03-21T09:10:10Z</time>
      </trkpt>
      <trkpt lat="46.98908" lon="5.26014">
        <ele>189.2</ele>
        <time>2022-03-21T09:10:11Z</time>
      </trkpt>
      <trkpt lat="46.98913" lon="5.26011">
        <ele>189.6</ele>
        <time>2022-03-21T09:10:12Z</time>
      </trkpt>
      <trkpt lat="46.98917" lon="5.26006">
        <ele>190</ele>
        <time>2022-03-21T09:10:13Z</time>
      </trkpt>
      <trkpt lat="46.9892" lon="5.26">
        <ele>190.2</ele>
        <time>2022-03-21T09:10:14Z</time>
      </trkpt>
      <trkpt lat="46.98923" lon="5.25994">
        <ele>190.4</ele>
        <time>2022-03-21T09:10:15Z</time>
      </trkpt>
      <trkpt lat="46.98925" lon="5.25986">
        <ele>190.4</ele>
        <time>2022-03-21T09:10:16Z</time>
      </trkpt>
      <trkpt lat="46.98928" lon="5.25978">
        <ele>190.6</ele>
        <time>2022-03-21T09:10:17Z</time>
      </trkpt>
      <trkpt lat="46.9893" lon="5.2597">
        <ele>190.6</ele>
        <time>2022-03-21T09:10:18Z</time>
      </trkpt>
      <trkpt lat="46.98932" lon="5.25962">
        <ele>190.6</ele>
        <time>2022-03-21T09:10:19Z</time>
      </trkpt>
      <trkpt lat="46.98935" lon="5.25953">
        <ele>190.6</ele>
        <time>2022-03-21T09:10:20Z</time>
      </trkpt>
      <trkpt lat="46.98938" lon="5.25944">
        <ele>190.6</ele>
        <time>2022-03-21T09:10:21Z</time>
      </trkpt>
      <trkpt lat="46.98941" lon="5.25935">
        <ele>190.6</ele>
        <time>2022-03-21T09:10:22Z</time>
      </trkpt>
      <trkpt lat="46.98944" lon="5.25926">
        <ele>190.6</ele>
        <time>2022-03-21T09:10:23Z</time>
      </trkpt>
      <trkpt lat="46.98947" lon="5.25917">
        <ele>190.4</ele>
        <time>2022-03-21T09:10:24Z</time>
      </trkpt>
      <trkpt lat="46.98951" lon="5.25907">
        <ele>190.4</ele>
        <time>2022-03-21T09:10:25Z</time>
      </trkpt>
      <trkpt lat="46.98954" lon="5.25898">
        <ele>190.4</ele>
        <time>2022-03-21T09:10:26Z</time>
      </trkpt>
      <trkpt lat="46.98957" lon="5.25888">
        <ele>190.4</ele>
        <time>2022-03-21T09:10:27Z</time>
      </trkpt>
      <trkpt lat="46.98961" lon="5.25879">
        <ele>190.4</ele>
        <time>2022-03-21T09:10:28Z</time>
      </trkpt>
      <trkpt lat="46.98965" lon="5.2587">
        <ele>190.4</ele>
        <time>2022-03-21T09:10:29Z</time>
      </trkpt>
      <trkpt lat="46.98969" lon="5.2586">
        <ele>190.4</ele>
        <time>2022-03-21T09:10:30Z</time>
      </trkpt>
      <trkpt lat="46.98972" lon="5.25851">
        <ele>190.4</ele>
        <time>2022-03-21T09:10:31Z</time>
      </trkpt>
      <trkpt lat="46.98976" lon="5.25842">
        <ele>190.4</ele>
        <time>2022-03-21T09:10:32Z</time>
      </trkpt>
      <trkpt lat="46.9898" lon="5.25832">
        <ele>190.4</ele>
        <time>2022-03-21T09:10:33Z</time>
      </trkpt>
      <trkpt lat="46.98984" lon="5.25823">
        <ele>190.4</ele>
        <time>2022-03-21T09:10:34Z</time>
      </trkpt>
      <trkpt lat="46.98988" lon="5.25814">
        <ele>190.4</ele>
        <time>2022-03-21T09:10:35Z</time>
      </trkpt>
      <trkpt lat="46.98992" lon="5.25804">
        <ele>190.2</ele>
        <time>2022-03-21T09:10:36Z</time>
      </trkpt>
      <trkpt lat="46.98996" lon="5.25795">
        <ele>190.2</ele>
        <time>2022-03-21T09:10:37Z</time>
      </trkpt>
      <trkpt lat="46.99001" lon="5.25786">
        <ele>190.2</ele>
        <time>2022-03-21T09:10:38Z</time>
      </trkpt>
      <trkpt lat="46.99005" lon="5.25777">
        <ele>190.2</ele>
        <time>2022-03-21T09:10:39Z</time>
      </trkpt>
      <trkpt lat="46.99009" lon="5.25768">
        <ele>190.2</ele>
        <time>2022-03-21T09:10:40Z</time>
      </trkpt>
      <trkpt lat="46.99014" lon="5.25759">
        <ele>190.2</ele>
        <time>2022-03-21T09:10:41Z</time>
      </trkpt>
      <trkpt lat="46.99018" lon="5.25751">
        <ele>190.2</ele>
        <time>2022-03-21T09:10:42Z</time>
      </trkpt>
      <trkpt lat="46.99022" lon="5.25742">
        <ele>190.4</ele>
        <time>2022-03-21T09:10:43Z</time>
      </trkpt>
      <trkpt lat="46.99027" lon="5.25734">
        <ele>190.4</ele>
        <time>2022-03-21T09:10:44Z</time>
      </trkpt>
      <trkpt lat="46.99031" lon="5.25726">
        <ele>190.4</ele>
        <time>2022-03-21T09:10:45Z</time>
      </trkpt>
      <trkpt lat="46.99036" lon="5.25717">
        <ele>190.6</ele>
        <time>2022-03-21T09:10:46Z</time>
      </trkpt>
      <trkpt lat="46.9904" lon="5.2571">
        <ele>190.6</ele>
        <time>2022-03-21T09:10:47Z</time>
      </trkpt>
      <trkpt lat="46.99045" lon="5.25702">
        <ele>190.8</ele>
        <time>2022-03-21T09:10:48Z</time>
      </trkpt>
      <trkpt lat="46.99049" lon="5.25694">
        <ele>190.8</ele>
        <time>2022-03-21T09:10:49Z</time>
      </trkpt>
      <trkpt lat="46.99053" lon="5.25686">
        <ele>191.2</ele>
        <time>2022-03-21T09:10:50Z</time>
      </trkpt>
      <trkpt lat="46.99057" lon="5.25678">
        <ele>191.2</ele>
        <time>2022-03-21T09:10:51Z</time>
      </trkpt>
      <trkpt lat="46.99061" lon="5.25671">
        <ele>191.6</ele>
        <time>2022-03-21T09:10:52Z</time>
      </trkpt>
      <trkpt lat="46.99064" lon="5.25663">
        <ele>191.6</ele>
        <time>2022-03-21T09:10:53Z</time>
      </trkpt>
      <trkpt lat="46.99068" lon="5.25656">
        <ele>191.8</ele>
        <time>2022-03-21T09:10:54Z</time>
      </trkpt>
      <trkpt lat="46.99072" lon="5.25649">
        <ele>191.8</ele>
        <time>2022-03-21T09:10:55Z</time>
      </trkpt>
      <trkpt lat="46.99075" lon="5.25642">
        <ele>192</ele>
        <time>2022-03-21T09:10:56Z</time>
      </trkpt>
      <trkpt lat="46.99079" lon="5.25635">
        <ele>192</ele>
        <time>2022-03-21T09:10:57Z</time>
      </trkpt>
      <trkpt lat="46.99083" lon="5.25628">
        <ele>192.4</ele>
        <time>2022-03-21T09:10:58Z</time>
      </trkpt>
      <trkpt lat="46.99086" lon="5.25621">
        <ele>192.6</ele>
        <time>2022-03-21T09:10:59Z</time>
      </trkpt>
      <trkpt lat="46.9909" lon="5.25614">
        <ele>192.8</ele>
        <time>2022-03-21T09:11:00Z</time>
      </trkpt>
      <trkpt lat="46.99093" lon="5.25608">
        <ele>193.2</ele>
        <time>2022-03-21T09:11:01Z</time>
      </trkpt>
      <trkpt lat="46.99097" lon="5.25601">
        <ele>193.4</ele>
        <time>2022-03-21T09:11:02Z</time>
      </trkpt>
      <trkpt lat="46.991" lon="5.25595">
        <ele>193.6</ele>
        <time>2022-03-21T09:11:03Z</time>
      </trkpt>
      <trkpt lat="46.99104" lon="5.25589">
        <ele>193.8</ele>
        <time>2022-03-21T09:11:04Z</time>
      </trkpt>
      <trkpt lat="46.99107" lon="5.25582">
        <ele>194</ele>
        <time>2022-03-21T09:11:05Z</time>
      </trkpt>
      <trkpt lat="46.99111" lon="5.25576">
        <ele>194</ele>
        <time>2022-03-21T09:11:06Z</time>
      </trkpt>
      <trkpt lat="46.99114" lon="5.2557">
        <ele>194.4</ele>
        <time>2022-03-21T09:11:07Z</time>
      </trkpt>
      <trkpt lat="46.99118" lon="5.25564">
        <ele>194.4</ele>
        <time>2022-03-21T09:11:08Z</time>
      </trkpt>
      <trkpt lat="46.99121" lon="5.25557">
        <ele>194.6</ele>
        <time>2022-03-21T09:11:09Z</time>
      </trkpt>
      <trkpt lat="46.99125" lon="5.25551">
        <ele>194.6</ele>
        <time>2022-03-21T09:11:10Z</time>
      </trkpt>
      <trkpt lat="46.99129" lon="5.25545">
        <ele>195</ele>
        <time>2022-03-21T09:11:11Z</time>
      </trkpt>
      <trkpt lat="46.99133" lon="5.25539">
        <ele>195</ele>
        <time>2022-03-21T09:11:12Z</time>
      </trkpt>
      <trkpt lat="46.99137" lon="5.25532">
        <ele>195.2</ele>
        <time>2022-03-21T09:11:14Z</time>
      </trkpt>
      <trkpt lat="46.9914" lon="5.25526">
        <ele>195.2</ele>
        <time>2022-03-21T09:11:15Z</time>
      </trkpt>
      <trkpt lat="46.99144" lon="5.25519">
        <ele>195.2</ele>
        <time>2022-03-21T09:11:16Z</time>
      </trkpt>
      <trkpt lat="46.99148" lon="5.25512">
        <ele>195.2</ele>
        <time>2022-03-21T09:11:17Z</time>
      </trkpt>
      <trkpt lat="46.99152" lon="5.25505">
        <ele>195.2</ele>
        <time>2022-03-21T09:11:18Z</time>
      </trkpt>
      <trkpt lat="46.99156" lon="5.25499">
        <ele>195.2</ele>
        <time>2022-03-21T09:11:19Z</time>
      </trkpt>
      <trkpt lat="46.9916" lon="5.25492">
        <ele>195.4</ele>
        <time>2022-03-21T09:11:20Z</time>
      </trkpt>
      <trkpt lat="46.99164" lon="5.25484">
        <ele>195.4</ele>
        <time>2022-03-21T09:11:21Z</time>
      </trkpt>
      <trkpt lat="46.99168" lon="5.25477">
        <ele>195.4</ele>
        <time>2022-03-21T09:11:22Z</time>
      </trkpt>
      <trkpt lat="46.99171" lon="5.25469">
        <ele>195.4</ele>
        <time>2022-03-21T09:11:23Z</time>
      </trkpt>
      <trkpt lat="46.99175" lon="5.25461">
        <ele>195.4</ele>
        <time>2022-03-21T09:11:24Z</time>
      </trkpt>
      <trkpt lat="46.99179" lon="5.25453">
        <ele>195.4</ele>
        <time>2022-03-21T09:11:25Z</time>
      </trkpt>
      <trkpt lat="46.99183" lon="5.25446">
        <ele>195.4</ele>
        <time>2022-03-21T09:11:26Z</time>
      </trkpt>
      <trkpt lat="46.99186" lon="5.25437">
        <ele>195.4</ele>
        <time>2022-03-21T09:11:27Z</time>
      </trkpt>
      <trkpt lat="46.9919" lon="5.25429">
        <ele>195.4</ele>
        <time>2022-03-21T09:11:28Z</time>
      </trkpt>
      <trkpt lat="46.99193" lon="5.25421">
        <ele>195.4</ele>
        <time>2022-03-21T09:11:29Z</time>
      </trkpt>
      <trkpt lat="46.99197" lon="5.25413">
        <ele>195.4</ele>
        <time>2022-03-21T09:11:30Z</time>
      </trkpt>
      <trkpt lat="46.99201" lon="5.25405">
        <ele>195.4</ele>
        <time>2022-03-21T09:11:31Z</time>
      </trkpt>
      <trkpt lat="46.99205" lon="5.25397">
        <ele>195.4</ele>
        <time>2022-03-21T09:11:32Z</time>
      </trkpt>
      <trkpt lat="46.99208" lon="5.25388">
        <ele>195.4</ele>
        <time>2022-03-21T09:11:33Z</time>
      </trkpt>
      <trkpt lat="46.99211" lon="5.2538">
        <ele>195.4</ele>
        <time>2022-03-21T09:11:34Z</time>
      </trkpt>
      <trkpt lat="46.99214" lon="5.25371">
        <ele>195.4</ele>
        <time>2022-03-21T09:11:35Z</time>
      </trkpt>
      <trkpt lat="46.99217" lon="5.25363">
        <ele>195.4</ele>
        <time>2022-03-21T09:11:36Z</time>
      </trkpt>
      <trkpt lat="46.9922" lon="5.25354">
        <ele>195.6</ele>
        <time>2022-03-21T09:11:37Z</time>
      </trkpt>
      <trkpt lat="46.99222" lon="5.25346">
        <ele>195.6</ele>
        <time>2022-03-21T09:11:38Z</time>
      </trkpt>
      <trkpt lat="46.99225" lon="5.25337">
        <ele>195.6</ele>
        <time>2022-03-21T09:11:39Z</time>
      </trkpt>
      <trkpt lat="46.99227" lon="5.25329">
        <ele>195.6</ele>
        <time>2022-03-21T09:11:40Z</time>
      </trkpt>
      <trkpt lat="46.99229" lon="5.25321">
        <ele>195.6</ele>
        <time>2022-03-21T09:11:41Z</time>
      </trkpt>
      <trkpt lat="46.99232" lon="5.25312">
        <ele>195.6</ele>
        <time>2022-03-21T09:11:42Z</time>
      </trkpt>
      <trkpt lat="46.99234" lon="5.25304">
        <ele>195.8</ele>
        <time>2022-03-21T09:11:43Z</time>
      </trkpt>
      <trkpt lat="46.99236" lon="5.25296">
        <ele>195.8</ele>
        <time>2022-03-21T09:11:44Z</time>
      </trkpt>
      <trkpt lat="46.99238" lon="5.25287">
        <ele>195.8</ele>
        <time>2022-03-21T09:11:45Z</time>
      </trkpt>
      <trkpt lat="46.99241" lon="5.25279">
        <ele>195.8</ele>
        <time>2022-03-21T09:11:46Z</time>
      </trkpt>
      <trkpt lat="46.99243" lon="5.25271">
        <ele>196</ele>
        <time>2022-03-21T09:11:47Z</time>
      </trkpt>
      <trkpt lat="46.99245" lon="5.25262">
        <ele>196</ele>
        <time>2022-03-21T09:11:48Z</time>
      </trkpt>
      <trkpt lat="46.99247" lon="5.25254">
        <ele>196</ele>
        <time>2022-03-21T09:11:49Z</time>
      </trkpt>
      <trkpt lat="46.99249" lon="5.25245">
        <ele>196</ele>
        <time>2022-03-21T09:11:50Z</time>
      </trkpt>
      <trkpt lat="46.99251" lon="5.25237">
        <ele>196</ele>
        <time>2022-03-21T09:11:51Z</time>
      </trkpt>
      <trkpt lat="46.99252" lon="5.25228">
        <ele>196</ele>
        <time>2022-03-21T09:11:52Z</time>
      </trkpt>
      <trkpt lat="46.99254" lon="5.25219">
        <ele>196</ele>
        <time>2022-03-21T09:11:53Z</time>
      </trkpt>
      <trkpt lat="46.99255" lon="5.2521">
        <ele>196</ele>
        <time>2022-03-21T09:11:54Z</time>
      </trkpt>
      <trkpt lat="46.99256" lon="5.252">
        <ele>196</ele>
        <time>2022-03-21T09:11:55Z</time>
      </trkpt>
      <trkpt lat="46.99257" lon="5.25191">
        <ele>196</ele>
        <time>2022-03-21T09:11:56Z</time>
      </trkpt>
      <trkpt lat="46.99257" lon="5.25182">
        <ele>196</ele>
        <time>2022-03-21T09:11:57Z</time>
      </trkpt>
      <trkpt lat="46.99258" lon="5.25173">
        <ele>196</ele>
        <time>2022-03-21T09:11:58Z</time>
      </trkpt>
      <trkpt lat="46.99259" lon="5.25163">
        <ele>196</ele>
        <time>2022-03-21T09:11:59Z</time>
      </trkpt>
      <trkpt lat="46.9926" lon="5.25154">
        <ele>196</ele>
        <time>2022-03-21T09:12:00Z</time>
      </trkpt>
      <trkpt lat="46.99261" lon="5.25145">
        <ele>195.8</ele>
        <time>2022-03-21T09:12:01Z</time>
      </trkpt>
      <trkpt lat="46.99262" lon="5.25135">
        <ele>195.8</ele>
        <time>2022-03-21T09:12:02Z</time>
      </trkpt>
      <trkpt lat="46.99262" lon="5.25125">
        <ele>195.8</ele>
        <time>2022-03-21T09:12:03Z</time>
      </trkpt>
      <trkpt lat="46.99263" lon="5.25115">
        <ele>195.4</ele>
        <time>2022-03-21T09:12:04Z</time>
      </trkpt>
      <trkpt lat="46.99263" lon="5.25105">
        <ele>195.4</ele>
        <time>2022-03-21T09:12:05Z</time>
      </trkpt>
      <trkpt lat="46.99263" lon="5.25085">
        <ele>195.2</ele>
        <time>2022-03-21T09:12:06Z</time>
      </trkpt>
      <trkpt lat="46.99264" lon="5.25075">
        <ele>195.2</ele>
        <time>2022-03-21T09:12:07Z</time>
      </trkpt>
      <trkpt lat="46.99264" lon="5.25064">
        <ele>194.8</ele>
        <time>2022-03-21T09:12:08Z</time>
      </trkpt>
      <trkpt lat="46.99264" lon="5.25053">
        <ele>194.8</ele>
        <time>2022-03-21T09:12:09Z</time>
      </trkpt>
      <trkpt lat="46.99265" lon="5.25042">
        <ele>194.4</ele>
        <time>2022-03-21T09:12:10Z</time>
      </trkpt>
      <trkpt lat="46.99265" lon="5.25031">
        <ele>194.2</ele>
        <time>2022-03-21T09:12:11Z</time>
      </trkpt>
      <trkpt lat="46.99265" lon="5.2502">
        <ele>194.2</ele>
        <time>2022-03-21T09:12:12Z</time>
      </trkpt>
      <trkpt lat="46.99265" lon="5.25008">
        <ele>193.8</ele>
        <time>2022-03-21T09:12:13Z</time>
      </trkpt>
      <trkpt lat="46.99266" lon="5.24997">
        <ele>193.8</ele>
        <time>2022-03-21T09:12:14Z</time>
      </trkpt>
      <trkpt lat="46.99266" lon="5.24986">
        <ele>193.8</ele>
        <time>2022-03-21T09:12:15Z</time>
      </trkpt>
      <trkpt lat="46.99266" lon="5.24975">
        <ele>193.8</ele>
        <time>2022-03-21T09:12:16Z</time>
      </trkpt>
      <trkpt lat="46.99266" lon="5.24964">
        <ele>193.6</ele>
        <time>2022-03-21T09:12:17Z</time>
      </trkpt>
      <trkpt lat="46.99267" lon="5.24953">
        <ele>193.6</ele>
        <time>2022-03-21T09:12:18Z</time>
      </trkpt>
      <trkpt lat="46.99267" lon="5.24942">
        <ele>193.6</ele>
        <time>2022-03-21T09:12:19Z</time>
      </trkpt>
      <trkpt lat="46.99268" lon="5.24931">
        <ele>193.6</ele>
        <time>2022-03-21T09:12:20Z</time>
      </trkpt>
      <trkpt lat="46.99269" lon="5.2492">
        <ele>193.6</ele>
        <time>2022-03-21T09:12:21Z</time>
      </trkpt>
      <trkpt lat="46.99269" lon="5.2491">
        <ele>193.6</ele>
        <time>2022-03-21T09:12:22Z</time>
      </trkpt>
      <trkpt lat="46.9927" lon="5.249">
        <ele>193.6</ele>
        <time>2022-03-21T09:12:23Z</time>
      </trkpt>
      <trkpt lat="46.9927" lon="5.2489">
        <ele>193.6</ele>
        <time>2022-03-21T09:12:24Z</time>
      </trkpt>
      <trkpt lat="46.99272" lon="5.2488">
        <ele>193.8</ele>
        <time>2022-03-21T09:12:25Z</time>
      </trkpt>
      <trkpt lat="46.99273" lon="5.24871">
        <ele>193.8</ele>
        <time>2022-03-21T09:12:26Z</time>
      </trkpt>
      <trkpt lat="46.99275" lon="5.24862">
        <ele>194.2</ele>
        <time>2022-03-21T09:12:27Z</time>
      </trkpt>
      <trkpt lat="46.99276" lon="5.24853">
        <ele>194.2</ele>
        <time>2022-03-21T09:12:28Z</time>
      </trkpt>
      <trkpt lat="46.99278" lon="5.24844">
        <ele>194.2</ele>
        <time>2022-03-21T09:12:29Z</time>
      </trkpt>
      <trkpt lat="46.9928" lon="5.24835">
        <ele>194.2</ele>
        <time>2022-03-21T09:12:30Z</time>
      </trkpt>
      <trkpt lat="46.99282" lon="5.24826">
        <ele>194.4</ele>
        <time>2022-03-21T09:12:31Z</time>
      </trkpt>
      <trkpt lat="46.99283" lon="5.24817">
        <ele>194.4</ele>
        <time>2022-03-21T09:12:32Z</time>
      </trkpt>
      <trkpt lat="46.99285" lon="5.24808">
        <ele>194.4</ele>
        <time>2022-03-21T09:12:33Z</time>
      </trkpt>
      <trkpt lat="46.99287" lon="5.24799">
        <ele>194.6</ele>
        <time>2022-03-21T09:12:34Z</time>
      </trkpt>
      <trkpt lat="46.99289" lon="5.24789">
        <ele>194.6</ele>
        <time>2022-03-21T09:12:35Z</time>
      </trkpt>
      <trkpt lat="46.99291" lon="5.2478">
        <ele>194.6</ele>
        <time>2022-03-21T09:12:36Z</time>
      </trkpt>
      <trkpt lat="46.99293" lon="5.24771">
        <ele>194.6</ele>
        <time>2022-03-21T09:12:37Z</time>
      </trkpt>
      <trkpt lat="46.99295" lon="5.24762">
        <ele>194.6</ele>
        <time>2022-03-21T09:12:38Z</time>
      </trkpt>
      <trkpt lat="46.99297" lon="5.24752">
        <ele>194.6</ele>
        <time>2022-03-21T09:12:39Z</time>
      </trkpt>
      <trkpt lat="46.99299" lon="5.24743">
        <ele>194.6</ele>
        <time>2022-03-21T09:12:40Z</time>
      </trkpt>
      <trkpt lat="46.993" lon="5.24734">
        <ele>194.6</ele>
        <time>2022-03-21T09:12:41Z</time>
      </trkpt>
      <trkpt lat="46.99302" lon="5.24725">
        <ele>194.6</ele>
        <time>2022-03-21T09:12:42Z</time>
      </trkpt>
      <trkpt lat="46.99304" lon="5.24715">
        <ele>194.6</ele>
        <time>2022-03-21T09:12:43Z</time>
      </trkpt>
      <trkpt lat="46.99306" lon="5.24706">
        <ele>194.6</ele>
        <time>2022-03-21T09:12:44Z</time>
      </trkpt>
      <trkpt lat="46.99308" lon="5.24697">
        <ele>194.8</ele>
        <time>2022-03-21T09:12:45Z</time>
      </trkpt>
      <trkpt lat="46.9931" lon="5.24688">
        <ele>194.8</ele>
        <time>2022-03-21T09:12:46Z</time>
      </trkpt>
      <trkpt lat="46.99312" lon="5.24678">
        <ele>194.8</ele>
        <time>2022-03-21T09:12:47Z</time>
      </trkpt>
      <trkpt lat="46.99314" lon="5.24669">
        <ele>194.8</ele>
        <time>2022-03-21T09:12:48Z</time>
      </trkpt>
      <trkpt lat="46.99316" lon="5.24659">
        <ele>194.8</ele>
        <time>2022-03-21T09:12:49Z</time>
      </trkpt>
      <trkpt lat="46.99318" lon="5.24649">
        <ele>194.8</ele>
        <time>2022-03-21T09:12:50Z</time>
      </trkpt>
      <trkpt lat="46.9932" lon="5.24639">
        <ele>194.6</ele>
        <time>2022-03-21T09:12:51Z</time>
      </trkpt>
      <trkpt lat="46.99322" lon="5.24628">
        <ele>194.6</ele>
        <time>2022-03-21T09:12:52Z</time>
      </trkpt>
      <trkpt lat="46.99325" lon="5.24618">
        <ele>194.6</ele>
        <time>2022-03-21T09:12:53Z</time>
      </trkpt>
      <trkpt lat="46.99327" lon="5.24607">
        <ele>194.2</ele>
        <time>2022-03-21T09:12:54Z</time>
      </trkpt>
      <trkpt lat="46.99329" lon="5.24596">
        <ele>194.2</ele>
        <time>2022-03-21T09:12:55Z</time>
      </trkpt>
      <trkpt lat="46.99331" lon="5.24585">
        <ele>194</ele>
        <time>2022-03-21T09:12:56Z</time>
      </trkpt>
      <trkpt lat="46.99334" lon="5.24574">
        <ele>193.6</ele>
        <time>2022-03-21T09:12:57Z</time>
      </trkpt>
      <trkpt lat="46.99336" lon="5.24562">
        <ele>193.4</ele>
        <time>2022-03-21T09:12:58Z</time>
      </trkpt>
      <trkpt lat="46.99339" lon="5.2455">
        <ele>193</ele>
        <time>2022-03-21T09:12:59Z</time>
      </trkpt>
      <trkpt lat="46.99341" lon="5.24537">
        <ele>192.6</ele>
        <time>2022-03-21T09:13:00Z</time>
      </trkpt>
      <trkpt lat="46.99344" lon="5.24525">
        <ele>192.4</ele>
        <time>2022-03-21T09:13:01Z</time>
      </trkpt>
      <trkpt lat="46.99346" lon="5.2451">
        <ele>192</ele>
        <time>2022-03-21T09:13:02Z</time>
      </trkpt>
      <trkpt lat="46.99348" lon="5.24497">
        <ele>191.6</ele>
        <time>2022-03-21T09:13:03Z</time>
      </trkpt>
      <trkpt lat="46.99351" lon="5.24485">
        <ele>191.6</ele>
        <time>2022-03-21T09:13:04Z</time>
      </trkpt>
      <trkpt lat="46.99353" lon="5.24473">
        <ele>191.2</ele>
        <time>2022-03-21T09:13:05Z</time>
      </trkpt>
      <trkpt lat="46.99356" lon="5.24461">
        <ele>191.2</ele>
        <time>2022-03-21T09:13:06Z</time>
      </trkpt>
      <trkpt lat="46.99359" lon="5.24449">
        <ele>190.8</ele>
        <time>2022-03-21T09:13:07Z</time>
      </trkpt>
      <trkpt lat="46.99361" lon="5.24436">
        <ele>190.8</ele>
        <time>2022-03-21T09:13:08Z</time>
      </trkpt>
      <trkpt lat="46.99363" lon="5.24424">
        <ele>190.6</ele>
        <time>2022-03-21T09:13:09Z</time>
      </trkpt>
      <trkpt lat="46.99366" lon="5.24412">
        <ele>190.6</ele>
        <time>2022-03-21T09:13:10Z</time>
      </trkpt>
      <trkpt lat="46.99368" lon="5.244">
        <ele>190.6</ele>
        <time>2022-03-21T09:13:11Z</time>
      </trkpt>
      <trkpt lat="46.99371" lon="5.24389">
        <ele>190.2</ele>
        <time>2022-03-21T09:13:12Z</time>
      </trkpt>
      <trkpt lat="46.99373" lon="5.24377">
        <ele>190.2</ele>
        <time>2022-03-21T09:13:13Z</time>
      </trkpt>
      <trkpt lat="46.99375" lon="5.24366">
        <ele>190.2</ele>
        <time>2022-03-21T09:13:14Z</time>
      </trkpt>
      <trkpt lat="46.99378" lon="5.24355">
        <ele>190.2</ele>
        <time>2022-03-21T09:13:15Z</time>
      </trkpt>
      <trkpt lat="46.9938" lon="5.24345">
        <ele>190.2</ele>
        <time>2022-03-21T09:13:16Z</time>
      </trkpt>
      <trkpt lat="46.99382" lon="5.24334">
        <ele>190.6</ele>
        <time>2022-03-21T09:13:17Z</time>
      </trkpt>
      <trkpt lat="46.99384" lon="5.24325">
        <ele>190.6</ele>
        <time>2022-03-21T09:13:18Z</time>
      </trkpt>
      <trkpt lat="46.99386" lon="5.24315">
        <ele>190.8</ele>
        <time>2022-03-21T09:13:19Z</time>
      </trkpt>
      <trkpt lat="46.99388" lon="5.24305">
        <ele>190.8</ele>
        <time>2022-03-21T09:13:20Z</time>
      </trkpt>
      <trkpt lat="46.9939" lon="5.24296">
        <ele>190.8</ele>
        <time>2022-03-21T09:13:21Z</time>
      </trkpt>
      <trkpt lat="46.99392" lon="5.24286">
        <ele>191</ele>
        <time>2022-03-21T09:13:22Z</time>
      </trkpt>
      <trkpt lat="46.99394" lon="5.24277">
        <ele>191</ele>
        <time>2022-03-21T09:13:23Z</time>
      </trkpt>
      <trkpt lat="46.99396" lon="5.24267">
        <ele>191.4</ele>
        <time>2022-03-21T09:13:24Z</time>
      </trkpt>
      <trkpt lat="46.99398" lon="5.24258">
        <ele>191.6</ele>
        <time>2022-03-21T09:13:25Z</time>
      </trkpt>
      <trkpt lat="46.994" lon="5.24249">
        <ele>192</ele>
        <time>2022-03-21T09:13:26Z</time>
      </trkpt>
      <trkpt lat="46.99402" lon="5.2424">
        <ele>192.2</ele>
        <time>2022-03-21T09:13:27Z</time>
      </trkpt>
      <trkpt lat="46.99404" lon="5.24231">
        <ele>192.6</ele>
        <time>2022-03-21T09:13:28Z</time>
      </trkpt>
      <trkpt lat="46.99406" lon="5.24223">
        <ele>192.8</ele>
        <time>2022-03-21T09:13:29Z</time>
      </trkpt>
      <trkpt lat="46.99408" lon="5.24214">
        <ele>193.2</ele>
        <time>2022-03-21T09:13:30Z</time>
      </trkpt>
      <trkpt lat="46.9941" lon="5.24206">
        <ele>193.2</ele>
        <time>2022-03-21T09:13:31Z</time>
      </trkpt>
      <trkpt lat="46.99412" lon="5.24199">
        <ele>193.4</ele>
        <time>2022-03-21T09:13:32Z</time>
      </trkpt>
      <trkpt lat="46.99414" lon="5.24191">
        <ele>193.4</ele>
        <time>2022-03-21T09:13:33Z</time>
      </trkpt>
      <trkpt lat="46.99417" lon="5.24183">
        <ele>193.8</ele>
        <time>2022-03-21T09:13:34Z</time>
      </trkpt>
      <trkpt lat="46.99419" lon="5.24176">
        <ele>193.8</ele>
        <time>2022-03-21T09:13:35Z</time>
      </trkpt>
      <trkpt lat="46.99422" lon="5.24168">
        <ele>194</ele>
        <time>2022-03-21T09:13:36Z</time>
      </trkpt>
      <trkpt lat="46.99424" lon="5.24161">
        <ele>194</ele>
        <time>2022-03-21T09:13:37Z</time>
      </trkpt>
      <trkpt lat="46.99427" lon="5.24154">
        <ele>194.4</ele>
        <time>2022-03-21T09:13:38Z</time>
      </trkpt>
      <trkpt lat="46.9943" lon="5.24147">
        <ele>194.4</ele>
        <time>2022-03-21T09:13:39Z</time>
      </trkpt>
      <trkpt lat="46.99434" lon="5.24139">
        <ele>194.4</ele>
        <time>2022-03-21T09:13:40Z</time>
      </trkpt>
      <trkpt lat="46.99437" lon="5.24132">
        <ele>194.6</ele>
        <time>2022-03-21T09:13:41Z</time>
      </trkpt>
      <trkpt lat="46.9944" lon="5.24125">
        <ele>194.6</ele>
        <time>2022-03-21T09:13:42Z</time>
      </trkpt>
      <trkpt lat="46.99444" lon="5.24118">
        <ele>194.6</ele>
        <time>2022-03-21T09:13:43Z</time>
      </trkpt>
      <trkpt lat="46.99448" lon="5.24111">
        <ele>194.6</ele>
        <time>2022-03-21T09:13:44Z</time>
      </trkpt>
      <trkpt lat="46.99452" lon="5.24104">
        <ele>194.6</ele>
        <time>2022-03-21T09:13:45Z</time>
      </trkpt>
      <trkpt lat="46.99457" lon="5.24097">
        <ele>194.6</ele>
        <time>2022-03-21T09:13:46Z</time>
      </trkpt>
      <trkpt lat="46.99461" lon="5.24091">
        <ele>194.6</ele>
        <time>2022-03-21T09:13:47Z</time>
      </trkpt>
      <trkpt lat="46.99466" lon="5.24084">
        <ele>194.6</ele>
        <time>2022-03-21T09:13:48Z</time>
      </trkpt>
      <trkpt lat="46.9947" lon="5.24078">
        <ele>194.6</ele>
        <time>2022-03-21T09:13:49Z</time>
      </trkpt>
      <trkpt lat="46.99475" lon="5.24072">
        <ele>194.6</ele>
        <time>2022-03-21T09:13:50Z</time>
      </trkpt>
      <trkpt lat="46.99481" lon="5.24066">
        <ele>194.6</ele>
        <time>2022-03-21T09:13:51Z</time>
      </trkpt>
      <trkpt lat="46.99486" lon="5.24061">
        <ele>194.6</ele>
        <time>2022-03-21T09:13:52Z</time>
      </trkpt>
      <trkpt lat="46.99492" lon="5.24055">
        <ele>194.6</ele>
        <time>2022-03-21T09:13:53Z</time>
      </trkpt>
      <trkpt lat="46.99497" lon="5.24049">
        <ele>194.6</ele>
        <time>2022-03-21T09:13:54Z</time>
      </trkpt>
      <trkpt lat="46.99503" lon="5.24043">
        <ele>194.4</ele>
        <time>2022-03-21T09:13:55Z</time>
      </trkpt>
      <trkpt lat="46.99509" lon="5.24037">
        <ele>194.4</ele>
        <time>2022-03-21T09:13:56Z</time>
      </trkpt>
      <trkpt lat="46.99515" lon="5.24032">
        <ele>194.4</ele>
        <time>2022-03-21T09:13:57Z</time>
      </trkpt>
      <trkpt lat="46.99522" lon="5.24027">
        <ele>194.2</ele>
        <time>2022-03-21T09:13:58Z</time>
      </trkpt>
      <trkpt lat="46.99528" lon="5.24022">
        <ele>194.2</ele>
        <time>2022-03-21T09:13:59Z</time>
      </trkpt>
      <trkpt lat="46.99534" lon="5.24018">
        <ele>193.8</ele>
        <time>2022-03-21T09:14:00Z</time>
      </trkpt>
      <trkpt lat="46.99541" lon="5.24013">
        <ele>193.8</ele>
        <time>2022-03-21T09:14:01Z</time>
      </trkpt>
      <trkpt lat="46.99548" lon="5.24007">
        <ele>193.6</ele>
        <time>2022-03-21T09:14:02Z</time>
      </trkpt>
      <trkpt lat="46.99554" lon="5.24002">
        <ele>193.6</ele>
        <time>2022-03-21T09:14:03Z</time>
      </trkpt>
      <trkpt lat="46.99561" lon="5.23997">
        <ele>193.2</ele>
        <time>2022-03-21T09:14:04Z</time>
      </trkpt>
      <trkpt lat="46.99568" lon="5.23992">
        <ele>193.2</ele>
        <time>2022-03-21T09:14:05Z</time>
      </trkpt>
      <trkpt lat="46.99575" lon="5.23986">
        <ele>192.8</ele>
        <time>2022-03-21T09:14:06Z</time>
      </trkpt>
      <trkpt lat="46.99582" lon="5.23981">
        <ele>192.8</ele>
        <time>2022-03-21T09:14:07Z</time>
      </trkpt>
      <trkpt lat="46.99589" lon="5.23975">
        <ele>192.8</ele>
        <time>2022-03-21T09:14:08Z</time>
      </trkpt>
      <trkpt lat="46.99596" lon="5.2397">
        <ele>192.4</ele>
        <time>2022-03-21T09:14:09Z</time>
      </trkpt>
      <trkpt lat="46.99603" lon="5.23964">
        <ele>192.2</ele>
        <time>2022-03-21T09:14:10Z</time>
      </trkpt>
      <trkpt lat="46.99611" lon="5.23959">
        <ele>192</ele>
        <time>2022-03-21T09:14:11Z</time>
      </trkpt>
      <trkpt lat="46.99618" lon="5.23953">
        <ele>191.6</ele>
        <time>2022-03-21T09:14:12Z</time>
      </trkpt>
      <trkpt lat="46.99626" lon="5.23947">
        <ele>191.4</ele>
        <time>2022-03-21T09:14:13Z</time>
      </trkpt>
      <trkpt lat="46.99634" lon="5.23941">
        <ele>191</ele>
        <time>2022-03-21T09:14:14Z</time>
      </trkpt>
      <trkpt lat="46.99642" lon="5.23934">
        <ele>190.6</ele>
        <time>2022-03-21T09:14:15Z</time>
      </trkpt>
      <trkpt lat="46.9965" lon="5.23927">
        <ele>190.4</ele>
        <time>2022-03-21T09:14:16Z</time>
      </trkpt>
      <trkpt lat="46.99658" lon="5.23919">
        <ele>190</ele>
        <time>2022-03-21T09:14:17Z</time>
      </trkpt>
      <trkpt lat="46.99667" lon="5.23912">
        <ele>189.8</ele>
        <time>2022-03-21T09:14:18Z</time>
      </trkpt>
      <trkpt lat="46.99675" lon="5.23907">
        <ele>189.6</ele>
        <time>2022-03-21T09:14:19Z</time>
      </trkpt>
      <trkpt lat="46.99684" lon="5.23902">
        <ele>189.6</ele>
        <time>2022-03-21T09:14:20Z</time>
      </trkpt>
      <trkpt lat="46.99693" lon="5.23897">
        <ele>189.6</ele>
        <time>2022-03-21T09:14:21Z</time>
      </trkpt>
      <trkpt lat="46.99702" lon="5.23894">
        <ele>189.2</ele>
        <time>2022-03-21T09:14:22Z</time>
      </trkpt>
      <trkpt lat="46.9971" lon="5.23891">
        <ele>189.2</ele>
        <time>2022-03-21T09:14:23Z</time>
      </trkpt>
      <trkpt lat="46.99718" lon="5.23888">
        <ele>189.2</ele>
        <time>2022-03-21T09:14:24Z</time>
      </trkpt>
      <trkpt lat="46.99726" lon="5.23886">
        <ele>189.2</ele>
        <time>2022-03-21T09:14:25Z</time>
      </trkpt>
      <trkpt lat="46.99735" lon="5.23884">
        <ele>189</ele>
        <time>2022-03-21T09:14:26Z</time>
      </trkpt>
      <trkpt lat="46.99743" lon="5.23881">
        <ele>189</ele>
        <time>2022-03-21T09:14:27Z</time>
      </trkpt>
      <trkpt lat="46.99751" lon="5.23879">
        <ele>188.8</ele>
        <time>2022-03-21T09:14:28Z</time>
      </trkpt>
      <trkpt lat="46.99759" lon="5.23876">
        <ele>188.8</ele>
        <time>2022-03-21T09:14:29Z</time>
      </trkpt>
      <trkpt lat="46.99766" lon="5.23874">
        <ele>188.4</ele>
        <time>2022-03-21T09:14:30Z</time>
      </trkpt>
      <trkpt lat="46.99774" lon="5.23871">
        <ele>188.4</ele>
        <time>2022-03-21T09:14:31Z</time>
      </trkpt>
      <trkpt lat="46.99782" lon="5.23868">
        <ele>188.4</ele>
        <time>2022-03-21T09:14:32Z</time>
      </trkpt>
      <trkpt lat="46.9979" lon="5.23865">
        <ele>188.4</ele>
        <time>2022-03-21T09:14:33Z</time>
      </trkpt>
      <trkpt lat="46.99798" lon="5.23863">
        <ele>188.2</ele>
        <time>2022-03-21T09:14:34Z</time>
      </trkpt>
      <trkpt lat="46.99806" lon="5.2386">
        <ele>188.2</ele>
        <time>2022-03-21T09:14:35Z</time>
      </trkpt>
      <trkpt lat="46.99814" lon="5.23857">
        <ele>188.2</ele>
        <time>2022-03-21T09:14:36Z</time>
      </trkpt>
      <trkpt lat="46.99822" lon="5.23854">
        <ele>188</ele>
        <time>2022-03-21T09:14:37Z</time>
      </trkpt>
      <trkpt lat="46.9983" lon="5.23851">
        <ele>188</ele>
        <time>2022-03-21T09:14:38Z</time>
      </trkpt>
      <trkpt lat="46.99838" lon="5.23848">
        <ele>187.6</ele>
        <time>2022-03-21T09:14:39Z</time>
      </trkpt>
      <trkpt lat="46.99846" lon="5.23845">
        <ele>187.6</ele>
        <time>2022-03-21T09:14:40Z</time>
      </trkpt>
      <trkpt lat="46.99854" lon="5.23843">
        <ele>187.6</ele>
        <time>2022-03-21T09:14:41Z</time>
      </trkpt>
      <trkpt lat="46.99862" lon="5.2384">
        <ele>187.4</ele>
        <time>2022-03-21T09:14:42Z</time>
      </trkpt>
      <trkpt lat="46.9987" lon="5.23837">
        <ele>187.4</ele>
        <time>2022-03-21T09:14:43Z</time>
      </trkpt>
      <trkpt lat="46.99878" lon="5.23834">
        <ele>187.4</ele>
        <time>2022-03-21T09:14:44Z</time>
      </trkpt>
      <trkpt lat="46.99886" lon="5.23831">
        <ele>187.4</ele>
        <time>2022-03-21T09:14:45Z</time>
      </trkpt>
      <trkpt lat="46.99894" lon="5.23828">
        <ele>187.2</ele>
        <time>2022-03-21T09:14:46Z</time>
      </trkpt>
      <trkpt lat="46.99902" lon="5.23825">
        <ele>187.2</ele>
        <time>2022-03-21T09:14:47Z</time>
      </trkpt>
      <trkpt lat="46.9991" lon="5.23822">
        <ele>187.2</ele>
        <time>2022-03-21T09:14:48Z</time>
      </trkpt>
      <trkpt lat="46.99918" lon="5.23819">
        <ele>187.2</ele>
        <time>2022-03-21T09:14:49Z</time>
      </trkpt>
      <trkpt lat="46.99927" lon="5.23816">
        <ele>187.2</ele>
        <time>2022-03-21T09:14:50Z</time>
      </trkpt>
      <trkpt lat="46.99935" lon="5.23813">
        <ele>187.2</ele>
        <time>2022-03-21T09:14:51Z</time>
      </trkpt>
      <trkpt lat="46.99943" lon="5.2381">
        <ele>187.2</ele>
        <time>2022-03-21T09:14:52Z</time>
      </trkpt>
      <trkpt lat="46.99951" lon="5.23807">
        <ele>187.2</ele>
        <time>2022-03-21T09:14:53Z</time>
      </trkpt>
      <trkpt lat="46.9996" lon="5.23804">
        <ele>187</ele>
        <time>2022-03-21T09:14:54Z</time>
      </trkpt>
      <trkpt lat="46.99968" lon="5.23801">
        <ele>187</ele>
        <time>2022-03-21T09:14:55Z</time>
      </trkpt>
      <trkpt lat="46.99977" lon="5.23799">
        <ele>187</ele>
        <time>2022-03-21T09:14:56Z</time>
      </trkpt>
      <trkpt lat="46.99985" lon="5.23796">
        <ele>187</ele>
        <time>2022-03-21T09:14:57Z</time>
      </trkpt>
      <trkpt lat="46.99994" lon="5.23793">
        <ele>187</ele>
        <time>2022-03-21T09:14:58Z</time>
      </trkpt>
      <trkpt lat="47.00003" lon="5.23791">
        <ele>187</ele>
        <time>2022-03-21T09:14:59Z</time>
      </trkpt>
      <trkpt lat="47.00012" lon="5.23788">
        <ele>187</ele>
        <time>2022-03-21T09:15:00Z</time>
      </trkpt>
      <trkpt lat="47.00021" lon="5.23786">
        <ele>187</ele>
        <time>2022-03-21T09:15:01Z</time>
      </trkpt>
      <trkpt lat="47.00029" lon="5.23783">
        <ele>187</ele>
        <time>2022-03-21T09:15:02Z</time>
      </trkpt>
      <trkpt lat="47.00038" lon="5.2378">
        <ele>187</ele>
        <time>2022-03-21T09:15:03Z</time>
      </trkpt>
      <trkpt lat="47.00047" lon="5.23778">
        <ele>187</ele>
        <time>2022-03-21T09:15:04Z</time>
      </trkpt>
      <trkpt lat="47.00056" lon="5.23775">
        <ele>187</ele>
        <time>2022-03-21T09:15:05Z</time>
      </trkpt>
      <trkpt lat="47.00064" lon="5.23774">
        <ele>186.6</ele>
        <time>2022-03-21T09:15:06Z</time>
      </trkpt>
      <trkpt lat="47.00073" lon="5.23772">
        <ele>186.6</ele>
        <time>2022-03-21T09:15:07Z</time>
      </trkpt>
      <trkpt lat="47.00082" lon="5.23769">
        <ele>186.6</ele>
        <time>2022-03-21T09:15:08Z</time>
      </trkpt>
      <trkpt lat="47.00091" lon="5.23767">
        <ele>186.6</ele>
        <time>2022-03-21T09:15:09Z</time>
      </trkpt>
      <trkpt lat="47.00099" lon="5.23765">
        <ele>186.6</ele>
        <time>2022-03-21T09:15:10Z</time>
      </trkpt>
      <trkpt lat="47.00108" lon="5.23763">
        <ele>186.6</ele>
        <time>2022-03-21T09:15:11Z</time>
      </trkpt>
      <trkpt lat="47.00117" lon="5.23761">
        <ele>186.6</ele>
        <time>2022-03-21T09:15:12Z</time>
      </trkpt>
      <trkpt lat="47.00125" lon="5.23759">
        <ele>186.4</ele>
        <time>2022-03-21T09:15:13Z</time>
      </trkpt>
      <trkpt lat="47.00134" lon="5.23757">
        <ele>186.4</ele>
        <time>2022-03-21T09:15:14Z</time>
      </trkpt>
      <trkpt lat="47.00143" lon="5.23756">
        <ele>186.4</ele>
        <time>2022-03-21T09:15:15Z</time>
      </trkpt>
      <trkpt lat="47.00151" lon="5.23754">
        <ele>186.4</ele>
        <time>2022-03-21T09:15:16Z</time>
      </trkpt>
      <trkpt lat="47.0016" lon="5.23751">
        <ele>186.4</ele>
        <time>2022-03-21T09:15:17Z</time>
      </trkpt>
      <trkpt lat="47.00169" lon="5.23749">
        <ele>186.4</ele>
        <time>2022-03-21T09:15:18Z</time>
      </trkpt>
      <trkpt lat="47.00177" lon="5.23747">
        <ele>186.4</ele>
        <time>2022-03-21T09:15:19Z</time>
      </trkpt>
      <trkpt lat="47.00186" lon="5.23746">
        <ele>186.4</ele>
        <time>2022-03-21T09:15:21Z</time>
      </trkpt>
      <trkpt lat="47.00195" lon="5.23744">
        <ele>186.4</ele>
        <time>2022-03-21T09:15:22Z</time>
      </trkpt>
      <trkpt lat="47.00203" lon="5.23742">
        <ele>186.4</ele>
        <time>2022-03-21T09:15:23Z</time>
      </trkpt>
      <trkpt lat="47.00212" lon="5.2374">
        <ele>186.4</ele>
        <time>2022-03-21T09:15:24Z</time>
      </trkpt>
      <trkpt lat="47.00221" lon="5.23738">
        <ele>186.4</ele>
        <time>2022-03-21T09:15:25Z</time>
      </trkpt>
      <trkpt lat="47.00229" lon="5.23736">
        <ele>186.4</ele>
        <time>2022-03-21T09:15:26Z</time>
      </trkpt>
      <trkpt lat="47.00237" lon="5.23733">
        <ele>186.6</ele>
        <time>2022-03-21T09:15:27Z</time>
      </trkpt>
      <trkpt lat="47.00246" lon="5.2373">
        <ele>186.6</ele>
        <time>2022-03-21T09:15:28Z</time>
      </trkpt>
      <trkpt lat="47.00254" lon="5.23726">
        <ele>186.6</ele>
        <time>2022-03-21T09:15:29Z</time>
      </trkpt>
      <trkpt lat="47.00262" lon="5.23722">
        <ele>187</ele>
        <time>2022-03-21T09:15:30Z</time>
      </trkpt>
      <trkpt lat="47.0027" lon="5.23717">
        <ele>187</ele>
        <time>2022-03-21T09:15:31Z</time>
      </trkpt>
      <trkpt lat="47.00277" lon="5.23711">
        <ele>187</ele>
        <time>2022-03-21T09:15:32Z</time>
      </trkpt>
      <trkpt lat="47.00285" lon="5.23705">
        <ele>187</ele>
        <time>2022-03-21T09:15:33Z</time>
      </trkpt>
      <trkpt lat="47.00292" lon="5.23699">
        <ele>187.2</ele>
        <time>2022-03-21T09:15:34Z</time>
      </trkpt>
      <trkpt lat="47.00298" lon="5.23692">
        <ele>187.2</ele>
        <time>2022-03-21T09:15:35Z</time>
      </trkpt>
      <trkpt lat="47.00305" lon="5.23685">
        <ele>187.6</ele>
        <time>2022-03-21T09:15:36Z</time>
      </trkpt>
      <trkpt lat="47.00311" lon="5.23678">
        <ele>187.6</ele>
        <time>2022-03-21T09:15:37Z</time>
      </trkpt>
      <trkpt lat="47.00317" lon="5.23672">
        <ele>188</ele>
        <time>2022-03-21T09:15:38Z</time>
      </trkpt>
      <trkpt lat="47.00323" lon="5.23665">
        <ele>188.2</ele>
        <time>2022-03-21T09:15:39Z</time>
      </trkpt>
      <trkpt lat="47.00329" lon="5.23659">
        <ele>188.2</ele>
        <time>2022-03-21T09:15:40Z</time>
      </trkpt>
      <trkpt lat="47.00336" lon="5.23654">
        <ele>188.6</ele>
        <time>2022-03-21T09:15:41Z</time>
      </trkpt>
      <trkpt lat="47.00342" lon="5.23649">
        <ele>188.8</ele>
        <time>2022-03-21T09:15:42Z</time>
      </trkpt>
      <trkpt lat="47.00348" lon="5.23644">
        <ele>189</ele>
        <time>2022-03-21T09:15:43Z</time>
      </trkpt>
      <trkpt lat="47.00355" lon="5.2364">
        <ele>189</ele>
        <time>2022-03-21T09:15:44Z</time>
      </trkpt>
      <trkpt lat="47.00361" lon="5.23636">
        <ele>189.4</ele>
        <time>2022-03-21T09:15:45Z</time>
      </trkpt>
      <trkpt lat="47.00368" lon="5.23632">
        <ele>189.4</ele>
        <time>2022-03-21T09:15:46Z</time>
      </trkpt>
      <trkpt lat="47.00375" lon="5.23629">
        <ele>189.6</ele>
        <time>2022-03-21T09:15:47Z</time>
      </trkpt>
      <trkpt lat="47.00381" lon="5.23626">
        <ele>189.6</ele>
        <time>2022-03-21T09:15:48Z</time>
      </trkpt>
      <trkpt lat="47.00388" lon="5.23623">
        <ele>189.6</ele>
        <time>2022-03-21T09:15:49Z</time>
      </trkpt>
      <trkpt lat="47.00395" lon="5.23621">
        <ele>189.8</ele>
        <time>2022-03-21T09:15:50Z</time>
      </trkpt>
      <trkpt lat="47.00401" lon="5.2362">
        <ele>189.8</ele>
        <time>2022-03-21T09:15:51Z</time>
      </trkpt>
      <trkpt lat="47.00408" lon="5.23619">
        <ele>189.8</ele>
        <time>2022-03-21T09:15:52Z</time>
      </trkpt>
      <trkpt lat="47.00415" lon="5.23618">
        <ele>190</ele>
        <time>2022-03-21T09:15:53Z</time>
      </trkpt>
      <trkpt lat="47.00421" lon="5.23618">
        <ele>190</ele>
        <time>2022-03-21T09:15:54Z</time>
      </trkpt>
      <trkpt lat="47.00428" lon="5.23618">
        <ele>190</ele>
        <time>2022-03-21T09:15:55Z</time>
      </trkpt>
      <trkpt lat="47.00434" lon="5.23618">
        <ele>190.2</ele>
        <time>2022-03-21T09:15:56Z</time>
      </trkpt>
      <trkpt lat="47.00441" lon="5.23619">
        <ele>190.2</ele>
        <time>2022-03-21T09:15:57Z</time>
      </trkpt>
      <trkpt lat="47.00447" lon="5.23619">
        <ele>190.2</ele>
        <time>2022-03-21T09:15:58Z</time>
      </trkpt>
      <trkpt lat="47.00454" lon="5.2362">
        <ele>190.2</ele>
        <time>2022-03-21T09:15:59Z</time>
      </trkpt>
      <trkpt lat="47.00461" lon="5.23621">
        <ele>190.2</ele>
        <time>2022-03-21T09:16:00Z</time>
      </trkpt>
      <trkpt lat="47.00467" lon="5.23622">
        <ele>190.2</ele>
        <time>2022-03-21T09:16:01Z</time>
      </trkpt>
      <trkpt lat="47.00474" lon="5.23623">
        <ele>190.2</ele>
        <time>2022-03-21T09:16:02Z</time>
      </trkpt>
      <trkpt lat="47.00481" lon="5.23624">
        <ele>190.4</ele>
        <time>2022-03-21T09:16:03Z</time>
      </trkpt>
      <trkpt lat="47.00488" lon="5.23625">
        <ele>190.4</ele>
        <time>2022-03-21T09:16:04Z</time>
      </trkpt>
      <trkpt lat="47.00494" lon="5.23626">
        <ele>190.4</ele>
        <time>2022-03-21T09:16:05Z</time>
      </trkpt>
      <trkpt lat="47.00501" lon="5.23627">
        <ele>190.4</ele>
        <time>2022-03-21T09:16:06Z</time>
      </trkpt>
      <trkpt lat="47.00508" lon="5.23628">
        <ele>190.4</ele>
        <time>2022-03-21T09:16:07Z</time>
      </trkpt>
      <trkpt lat="47.00514" lon="5.23629">
        <ele>190.6</ele>
        <time>2022-03-21T09:16:08Z</time>
      </trkpt>
      <trkpt lat="47.00521" lon="5.2363">
        <ele>190.6</ele>
        <time>2022-03-21T09:16:09Z</time>
      </trkpt>
      <trkpt lat="47.00527" lon="5.23631">
        <ele>190.6</ele>
        <time>2022-03-21T09:16:10Z</time>
      </trkpt>
      <trkpt lat="47.00534" lon="5.23631">
        <ele>190.6</ele>
        <time>2022-03-21T09:16:11Z</time>
      </trkpt>
      <trkpt lat="47.0054" lon="5.23632">
        <ele>190.6</ele>
        <time>2022-03-21T09:16:12Z</time>
      </trkpt>
      <trkpt lat="47.00546" lon="5.23632">
        <ele>190.6</ele>
        <time>2022-03-21T09:16:13Z</time>
      </trkpt>
      <trkpt lat="47.00551" lon="5.23633">
        <ele>190.6</ele>
        <time>2022-03-21T09:16:14Z</time>
      </trkpt>
      <trkpt lat="47.00556" lon="5.23633">
        <ele>190.6</ele>
        <time>2022-03-21T09:16:15Z</time>
      </trkpt>
      <trkpt lat="47.0056" lon="5.23634">
        <ele>190.6</ele>
        <time>2022-03-21T09:16:16Z</time>
      </trkpt>
      <trkpt lat="47.00567" lon="5.23639">
        <ele>190.6</ele>
        <time>2022-03-21T09:16:17Z</time>
      </trkpt>
      <trkpt lat="47.0057" lon="5.23644">
        <ele>190.6</ele>
        <time>2022-03-21T09:16:18Z</time>
      </trkpt>
      <trkpt lat="47.00572" lon="5.2365">
        <ele>190.6</ele>
        <time>2022-03-21T09:16:19Z</time>
      </trkpt>
      <trkpt lat="47.00573" lon="5.23657">
        <ele>190.6</ele>
        <time>2022-03-21T09:16:20Z</time>
      </trkpt>
      <trkpt lat="47.00574" lon="5.23664">
        <ele>190.6</ele>
        <time>2022-03-21T09:16:21Z</time>
      </trkpt>
      <trkpt lat="47.00575" lon="5.23672">
        <ele>190.6</ele>
        <time>2022-03-21T09:16:22Z</time>
      </trkpt>
      <trkpt lat="47.00576" lon="5.2368">
        <ele>190.6</ele>
        <time>2022-03-21T09:16:23Z</time>
      </trkpt>
      <trkpt lat="47.00577" lon="5.23688">
        <ele>190.6</ele>
        <time>2022-03-21T09:16:24Z</time>
      </trkpt>
      <trkpt lat="47.00577" lon="5.23696">
        <ele>191</ele>
        <time>2022-03-21T09:16:25Z</time>
      </trkpt>
      <trkpt lat="47.00578" lon="5.23705">
        <ele>191</ele>
        <time>2022-03-21T09:16:26Z</time>
      </trkpt>
      <trkpt lat="47.00579" lon="5.23714">
        <ele>191</ele>
        <time>2022-03-21T09:16:27Z</time>
      </trkpt>
      <trkpt lat="47.00579" lon="5.23723">
        <ele>191</ele>
        <time>2022-03-21T09:16:28Z</time>
      </trkpt>
      <trkpt lat="47.0058" lon="5.23732">
        <ele>191</ele>
        <time>2022-03-21T09:16:29Z</time>
      </trkpt>
      <trkpt lat="47.00581" lon="5.23742">
        <ele>191</ele>
        <time>2022-03-21T09:16:30Z</time>
      </trkpt>
      <trkpt lat="47.00582" lon="5.23753">
        <ele>191</ele>
        <time>2022-03-21T09:16:31Z</time>
      </trkpt>
      <trkpt lat="47.00583" lon="5.23763">
        <ele>190.8</ele>
        <time>2022-03-21T09:16:32Z</time>
      </trkpt>
      <trkpt lat="47.00584" lon="5.23774">
        <ele>190.8</ele>
        <time>2022-03-21T09:16:33Z</time>
      </trkpt>
      <trkpt lat="47.00585" lon="5.23785">
        <ele>190.4</ele>
        <time>2022-03-21T09:16:34Z</time>
      </trkpt>
      <trkpt lat="47.00586" lon="5.23796">
        <ele>190.4</ele>
        <time>2022-03-21T09:16:35Z</time>
      </trkpt>
      <trkpt lat="47.00587" lon="5.23806">
        <ele>190</ele>
        <time>2022-03-21T09:16:36Z</time>
      </trkpt>
      <trkpt lat="47.00589" lon="5.23817">
        <ele>190</ele>
        <time>2022-03-21T09:16:37Z</time>
      </trkpt>
      <trkpt lat="47.00591" lon="5.23828">
        <ele>190</ele>
        <time>2022-03-21T09:16:38Z</time>
      </trkpt>
      <trkpt lat="47.00594" lon="5.23839">
        <ele>190</ele>
        <time>2022-03-21T09:16:39Z</time>
      </trkpt>
      <trkpt lat="47.00597" lon="5.23849">
        <ele>189.8</ele>
        <time>2022-03-21T09:16:40Z</time>
      </trkpt>
      <trkpt lat="47.00601" lon="5.23859">
        <ele>189.8</ele>
        <time>2022-03-21T09:16:41Z</time>
      </trkpt>
      <trkpt lat="47.00606" lon="5.23869">
        <ele>189.6</ele>
        <time>2022-03-21T09:16:42Z</time>
      </trkpt>
      <trkpt lat="47.00611" lon="5.23879">
        <ele>189.6</ele>
        <time>2022-03-21T09:16:43Z</time>
      </trkpt>
      <trkpt lat="47.00616" lon="5.23888">
        <ele>189.2</ele>
        <time>2022-03-21T09:16:44Z</time>
      </trkpt>
      <trkpt lat="47.00621" lon="5.23897">
        <ele>189.2</ele>
        <time>2022-03-21T09:16:45Z</time>
      </trkpt>
      <trkpt lat="47.00626" lon="5.23907">
        <ele>189</ele>
        <time>2022-03-21T09:16:46Z</time>
      </trkpt>
      <trkpt lat="47.00632" lon="5.23916">
        <ele>189</ele>
        <time>2022-03-21T09:16:47Z</time>
      </trkpt>
      <trkpt lat="47.00637" lon="5.23925">
        <ele>189</ele>
        <time>2022-03-21T09:16:48Z</time>
      </trkpt>
      <trkpt lat="47.00642" lon="5.23934">
        <ele>189</ele>
        <time>2022-03-21T09:16:49Z</time>
      </trkpt>
      <trkpt lat="47.00648" lon="5.23943">
        <ele>189</ele>
        <time>2022-03-21T09:16:50Z</time>
      </trkpt>
      <trkpt lat="47.00653" lon="5.23952">
        <ele>188.8</ele>
        <time>2022-03-21T09:16:51Z</time>
      </trkpt>
      <trkpt lat="47.00658" lon="5.23961">
        <ele>188.8</ele>
        <time>2022-03-21T09:16:52Z</time>
      </trkpt>
      <trkpt lat="47.00663" lon="5.2397">
        <ele>188.8</ele>
        <time>2022-03-21T09:16:53Z</time>
      </trkpt>
      <trkpt lat="47.00668" lon="5.23979">
        <ele>188.8</ele>
        <time>2022-03-21T09:16:54Z</time>
      </trkpt>
      <trkpt lat="47.00673" lon="5.23987">
        <ele>188.8</ele>
        <time>2022-03-21T09:16:55Z</time>
      </trkpt>
      <trkpt lat="47.00677" lon="5.23995">
        <ele>189</ele>
        <time>2022-03-21T09:16:56Z</time>
      </trkpt>
      <trkpt lat="47.00682" lon="5.24003">
        <ele>189</ele>
        <time>2022-03-21T09:16:57Z</time>
      </trkpt>
      <trkpt lat="47.00686" lon="5.24011">
        <ele>189.4</ele>
        <time>2022-03-21T09:16:58Z</time>
      </trkpt>
      <trkpt lat="47.0069" lon="5.24018">
        <ele>189.4</ele>
        <time>2022-03-21T09:16:59Z</time>
      </trkpt>
      <trkpt lat="47.00694" lon="5.24025">
        <ele>189.6</ele>
        <time>2022-03-21T09:17:00Z</time>
      </trkpt>
      <trkpt lat="47.00698" lon="5.24032">
        <ele>189.6</ele>
        <time>2022-03-21T09:17:01Z</time>
      </trkpt>
      <trkpt lat="47.00701" lon="5.24037">
        <ele>189.8</ele>
        <time>2022-03-21T09:17:02Z</time>
      </trkpt>
      <trkpt lat="47.00703" lon="5.24041">
        <ele>189.8</ele>
        <time>2022-03-21T09:17:03Z</time>
      </trkpt>
      <trkpt lat="47.00704" lon="5.24045">
        <ele>189.8</ele>
        <time>2022-03-21T09:17:04Z</time>
      </trkpt>
      <trkpt lat="47.00706" lon="5.24048">
        <ele>189.8</ele>
        <time>2022-03-21T09:17:05Z</time>
      </trkpt>
      <trkpt lat="47.00707" lon="5.24049">
        <ele>189.8</ele>
        <time>2022-03-21T09:17:06Z</time>
      </trkpt>
      <trkpt lat="47.00707" lon="5.2405">
        <ele>189.8</ele>
        <time>2022-03-21T09:17:07Z</time>
      </trkpt>
      <trkpt lat="47.00707" lon="5.24051">
        <ele>189.8</ele>
        <time>2022-03-21T09:17:08Z</time>
      </trkpt>
      <trkpt lat="47.00707" lon="5.2405">
        <ele>189.8</ele>
        <time>2022-03-21T09:17:09Z</time>
      </trkpt>
      <trkpt lat="47.00708" lon="5.24051">
        <ele>190.2</ele>
        <time>2022-03-21T09:17:33Z</time>
      </trkpt>
      <trkpt lat="47.0071" lon="5.24052">
        <ele>190.2</ele>
        <time>2022-03-21T09:17:34Z</time>
      </trkpt>
      <trkpt lat="47.00711" lon="5.24053">
        <ele>190.2</ele>
        <time>2022-03-21T09:17:35Z</time>
      </trkpt>
      <trkpt lat="47.00713" lon="5.24055">
        <ele>190.2</ele>
        <time>2022-03-21T09:17:36Z</time>
      </trkpt>
      <trkpt lat="47.00714" lon="5.24057">
        <ele>190.6</ele>
        <time>2022-03-21T09:17:37Z</time>
      </trkpt>
      <trkpt lat="47.00715" lon="5.24059">
        <ele>190.6</ele>
        <time>2022-03-21T09:17:38Z</time>
      </trkpt>
      <trkpt lat="47.00716" lon="5.24062">
        <ele>190.6</ele>
        <time>2022-03-21T09:17:39Z</time>
      </trkpt>
      <trkpt lat="47.00718" lon="5.24065">
        <ele>190.6</ele>
        <time>2022-03-21T09:17:40Z</time>
      </trkpt>
      <trkpt lat="47.0072" lon="5.24068">
        <ele>190.6</ele>
        <time>2022-03-21T09:17:41Z</time>
      </trkpt>
      <trkpt lat="47.00722" lon="5.24072">
        <ele>190.6</ele>
        <time>2022-03-21T09:17:42Z</time>
      </trkpt>
      <trkpt lat="47.00725" lon="5.24075">
        <ele>190.6</ele>
        <time>2022-03-21T09:17:43Z</time>
      </trkpt>
      <trkpt lat="47.00727" lon="5.24079">
        <ele>190.6</ele>
        <time>2022-03-21T09:17:44Z</time>
      </trkpt>
      <trkpt lat="47.0073" lon="5.24084">
        <ele>190.6</ele>
        <time>2022-03-21T09:17:45Z</time>
      </trkpt>
      <trkpt lat="47.00733" lon="5.24088">
        <ele>190.6</ele>
        <time>2022-03-21T09:17:46Z</time>
      </trkpt>
      <trkpt lat="47.00736" lon="5.24093">
        <ele>190.2</ele>
        <time>2022-03-21T09:17:47Z</time>
      </trkpt>
      <trkpt lat="47.00739" lon="5.24098">
        <ele>190.2</ele>
        <time>2022-03-21T09:17:48Z</time>
      </trkpt>
      <trkpt lat="47.00742" lon="5.24104">
        <ele>190.2</ele>
        <time>2022-03-21T09:17:49Z</time>
      </trkpt>
      <trkpt lat="47.00746" lon="5.24109">
        <ele>190.2</ele>
        <time>2022-03-21T09:17:50Z</time>
      </trkpt>
      <trkpt lat="47.00749" lon="5.24115">
        <ele>190.2</ele>
        <time>2022-03-21T09:17:51Z</time>
      </trkpt>
      <trkpt lat="47.00752" lon="5.24121">
        <ele>190.2</ele>
        <time>2022-03-21T09:17:52Z</time>
      </trkpt>
      <trkpt lat="47.00755" lon="5.24128">
        <ele>190.6</ele>
        <time>2022-03-21T09:17:53Z</time>
      </trkpt>
      <trkpt lat="47.00758" lon="5.24134">
        <ele>190.6</ele>
        <time>2022-03-21T09:17:54Z</time>
      </trkpt>
      <trkpt lat="47.00762" lon="5.24141">
        <ele>190.6</ele>
        <time>2022-03-21T09:17:55Z</time>
      </trkpt>
      <trkpt lat="47.00765" lon="5.24149">
        <ele>190.8</ele>
        <time>2022-03-21T09:17:56Z</time>
      </trkpt>
      <trkpt lat="47.00768" lon="5.24156">
        <ele>190.8</ele>
        <time>2022-03-21T09:17:57Z</time>
      </trkpt>
      <trkpt lat="47.00771" lon="5.24163">
        <ele>191.2</ele>
        <time>2022-03-21T09:17:58Z</time>
      </trkpt>
      <trkpt lat="47.00774" lon="5.2417">
        <ele>191.2</ele>
        <time>2022-03-21T09:17:59Z</time>
      </trkpt>
      <trkpt lat="47.00777" lon="5.24177">
        <ele>191.4</ele>
        <time>2022-03-21T09:18:00Z</time>
      </trkpt>
      <trkpt lat="47.0078" lon="5.24184">
        <ele>191.4</ele>
        <time>2022-03-21T09:18:01Z</time>
      </trkpt>
      <trkpt lat="47.00783" lon="5.24191">
        <ele>191.4</ele>
        <time>2022-03-21T09:18:02Z</time>
      </trkpt>
      <trkpt lat="47.00786" lon="5.24198">
        <ele>191.4</ele>
        <time>2022-03-21T09:18:03Z</time>
      </trkpt>
      <trkpt lat="47.0079" lon="5.24205">
        <ele>191.4</ele>
        <time>2022-03-21T09:18:04Z</time>
      </trkpt>
      <trkpt lat="47.00793" lon="5.24212">
        <ele>191.4</ele>
        <time>2022-03-21T09:18:05Z</time>
      </trkpt>
      <trkpt lat="47.00797" lon="5.24219">
        <ele>191.4</ele>
        <time>2022-03-21T09:18:06Z</time>
      </trkpt>
      <trkpt lat="47.008" lon="5.24226">
        <ele>191.4</ele>
        <time>2022-03-21T09:18:07Z</time>
      </trkpt>
      <trkpt lat="47.00804" lon="5.24233">
        <ele>191.4</ele>
        <time>2022-03-21T09:18:08Z</time>
      </trkpt>
      <trkpt lat="47.00808" lon="5.2424">
        <ele>191.4</ele>
        <time>2022-03-21T09:18:09Z</time>
      </trkpt>
      <trkpt lat="47.00812" lon="5.24246">
        <ele>191.4</ele>
        <time>2022-03-21T09:18:10Z</time>
      </trkpt>
      <trkpt lat="47.00817" lon="5.24252">
        <ele>191.4</ele>
        <time>2022-03-21T09:18:11Z</time>
      </trkpt>
      <trkpt lat="47.00822" lon="5.24258">
        <ele>191.4</ele>
        <time>2022-03-21T09:18:12Z</time>
      </trkpt>
      <trkpt lat="47.00828" lon="5.24264">
        <ele>191.4</ele>
        <time>2022-03-21T09:18:13Z</time>
      </trkpt>
      <trkpt lat="47.00834" lon="5.24269">
        <ele>191.2</ele>
        <time>2022-03-21T09:18:14Z</time>
      </trkpt>
      <trkpt lat="47.0084" lon="5.24274">
        <ele>191.2</ele>
        <time>2022-03-21T09:18:15Z</time>
      </trkpt>
      <trkpt lat="47.00847" lon="5.24278">
        <ele>190.8</ele>
        <time>2022-03-21T09:18:16Z</time>
      </trkpt>
      <trkpt lat="47.00854" lon="5.24283">
        <ele>190.4</ele>
        <time>2022-03-21T09:18:17Z</time>
      </trkpt>
      <trkpt lat="47.00861" lon="5.24287">
        <ele>190.2</ele>
        <time>2022-03-21T09:18:18Z</time>
      </trkpt>
      <trkpt lat="47.00869" lon="5.24292">
        <ele>190</ele>
        <time>2022-03-21T09:18:19Z</time>
      </trkpt>
      <trkpt lat="47.00877" lon="5.24296">
        <ele>189.6</ele>
        <time>2022-03-21T09:18:20Z</time>
      </trkpt>
      <trkpt lat="47.00885" lon="5.24299">
        <ele>189.4</ele>
        <time>2022-03-21T09:18:21Z</time>
      </trkpt>
      <trkpt lat="47.00893" lon="5.24302">
        <ele>189.2</ele>
        <time>2022-03-21T09:18:22Z</time>
      </trkpt>
      <trkpt lat="47.00902" lon="5.24306">
        <ele>188.8</ele>
        <time>2022-03-21T09:18:23Z</time>
      </trkpt>
      <trkpt lat="47.0091" lon="5.2431">
        <ele>188.6</ele>
        <time>2022-03-21T09:18:24Z</time>
      </trkpt>
      <trkpt lat="47.00919" lon="5.24314">
        <ele>188.4</ele>
        <time>2022-03-21T09:18:25Z</time>
      </trkpt>
      <trkpt lat="47.00928" lon="5.24318">
        <ele>188</ele>
        <time>2022-03-21T09:18:26Z</time>
      </trkpt>
      <trkpt lat="47.00937" lon="5.24323">
        <ele>187.8</ele>
        <time>2022-03-21T09:18:27Z</time>
      </trkpt>
      <trkpt lat="47.00945" lon="5.24328">
        <ele>187.6</ele>
        <time>2022-03-21T09:18:28Z</time>
      </trkpt>
      <trkpt lat="47.00954" lon="5.24333">
        <ele>187.4</ele>
        <time>2022-03-21T09:18:29Z</time>
      </trkpt>
      <trkpt lat="47.00962" lon="5.24338">
        <ele>187</ele>
        <time>2022-03-21T09:18:30Z</time>
      </trkpt>
      <trkpt lat="47.0097" lon="5.24344">
        <ele>186.8</ele>
        <time>2022-03-21T09:18:31Z</time>
      </trkpt>
      <trkpt lat="47.00978" lon="5.2435">
        <ele>186.6</ele>
        <time>2022-03-21T09:18:32Z</time>
      </trkpt>
      <trkpt lat="47.00986" lon="5.24356">
        <ele>186.6</ele>
        <time>2022-03-21T09:18:33Z</time>
      </trkpt>
      <trkpt lat="47.00994" lon="5.24362">
        <ele>186.4</ele>
        <time>2022-03-21T09:18:34Z</time>
      </trkpt>
      <trkpt lat="47.01002" lon="5.24368">
        <ele>186.4</ele>
        <time>2022-03-21T09:18:35Z</time>
      </trkpt>
      <trkpt lat="47.0101" lon="5.24374">
        <ele>186.4</ele>
        <time>2022-03-21T09:18:36Z</time>
      </trkpt>
      <trkpt lat="47.01017" lon="5.24381">
        <ele>186</ele>
        <time>2022-03-21T09:18:37Z</time>
      </trkpt>
      <trkpt lat="47.01025" lon="5.24387">
        <ele>186</ele>
        <time>2022-03-21T09:18:38Z</time>
      </trkpt>
      <trkpt lat="47.01032" lon="5.24393">
        <ele>186</ele>
        <time>2022-03-21T09:18:39Z</time>
      </trkpt>
      <trkpt lat="47.01039" lon="5.244">
        <ele>186</ele>
        <time>2022-03-21T09:18:40Z</time>
      </trkpt>
      <trkpt lat="47.01046" lon="5.24406">
        <ele>186</ele>
        <time>2022-03-21T09:18:41Z</time>
      </trkpt>
      <trkpt lat="47.01053" lon="5.24413">
        <ele>186</ele>
        <time>2022-03-21T09:18:42Z</time>
      </trkpt>
      <trkpt lat="47.0106" lon="5.24419">
        <ele>186</ele>
        <time>2022-03-21T09:18:43Z</time>
      </trkpt>
      <trkpt lat="47.01067" lon="5.24426">
        <ele>186</ele>
        <time>2022-03-21T09:18:44Z</time>
      </trkpt>
      <trkpt lat="47.01074" lon="5.24432">
        <ele>186</ele>
        <time>2022-03-21T09:18:45Z</time>
      </trkpt>
      <trkpt lat="47.01081" lon="5.24438">
        <ele>186</ele>
        <time>2022-03-21T09:18:46Z</time>
      </trkpt>
      <trkpt lat="47.01088" lon="5.24444">
        <ele>185.8</ele>
        <time>2022-03-21T09:18:47Z</time>
      </trkpt>
      <trkpt lat="47.01096" lon="5.24451">
        <ele>185.8</ele>
        <time>2022-03-21T09:18:48Z</time>
      </trkpt>
      <trkpt lat="47.01103" lon="5.24457">
        <ele>185.8</ele>
        <time>2022-03-21T09:18:49Z</time>
      </trkpt>
      <trkpt lat="47.0111" lon="5.24463">
        <ele>185.8</ele>
        <time>2022-03-21T09:18:50Z</time>
      </trkpt>
      <trkpt lat="47.01117" lon="5.2447">
        <ele>185.8</ele>
        <time>2022-03-21T09:18:51Z</time>
      </trkpt>
      <trkpt lat="47.01124" lon="5.24476">
        <ele>185.8</ele>
        <time>2022-03-21T09:18:52Z</time>
      </trkpt>
      <trkpt lat="47.01131" lon="5.24482">
        <ele>185.8</ele>
        <time>2022-03-21T09:18:53Z</time>
      </trkpt>
      <trkpt lat="47.01138" lon="5.24488">
        <ele>185.8</ele>
        <time>2022-03-21T09:18:54Z</time>
      </trkpt>
      <trkpt lat="47.01145" lon="5.24494">
        <ele>185.8</ele>
        <time>2022-03-21T09:18:55Z</time>
      </trkpt>
      <trkpt lat="47.01152" lon="5.245">
        <ele>185.8</ele>
        <time>2022-03-21T09:18:56Z</time>
      </trkpt>
      <trkpt lat="47.01159" lon="5.24507">
        <ele>185.8</ele>
        <time>2022-03-21T09:18:57Z</time>
      </trkpt>
      <trkpt lat="47.01166" lon="5.24513">
        <ele>185.8</ele>
        <time>2022-03-21T09:18:58Z</time>
      </trkpt>
      <trkpt lat="47.01173" lon="5.2452">
        <ele>185.8</ele>
        <time>2022-03-21T09:18:59Z</time>
      </trkpt>
      <trkpt lat="47.0118" lon="5.24527">
        <ele>185.8</ele>
        <time>2022-03-21T09:19:00Z</time>
      </trkpt>
      <trkpt lat="47.01187" lon="5.24534">
        <ele>185.8</ele>
        <time>2022-03-21T09:19:01Z</time>
      </trkpt>
      <trkpt lat="47.01193" lon="5.24541">
        <ele>185.6</ele>
        <time>2022-03-21T09:19:02Z</time>
      </trkpt>
      <trkpt lat="47.012" lon="5.24548">
        <ele>185.6</ele>
        <time>2022-03-21T09:19:03Z</time>
      </trkpt>
      <trkpt lat="47.01207" lon="5.24555">
        <ele>185.6</ele>
        <time>2022-03-21T09:19:04Z</time>
      </trkpt>
      <trkpt lat="47.01213" lon="5.24563">
        <ele>185.6</ele>
        <time>2022-03-21T09:19:05Z</time>
      </trkpt>
      <trkpt lat="47.0122" lon="5.2457">
        <ele>185.6</ele>
        <time>2022-03-21T09:19:06Z</time>
      </trkpt>
      <trkpt lat="47.01226" lon="5.24577">
        <ele>185.6</ele>
        <time>2022-03-21T09:19:07Z</time>
      </trkpt>
      <trkpt lat="47.01232" lon="5.24585">
        <ele>185.6</ele>
        <time>2022-03-21T09:19:08Z</time>
      </trkpt>
      <trkpt lat="47.01237" lon="5.24593">
        <ele>185.6</ele>
        <time>2022-03-21T09:19:09Z</time>
      </trkpt>
      <trkpt lat="47.01242" lon="5.24602">
        <ele>185.6</ele>
        <time>2022-03-21T09:19:10Z</time>
      </trkpt>
      <trkpt lat="47.01246" lon="5.24612">
        <ele>185.6</ele>
        <time>2022-03-21T09:19:11Z</time>
      </trkpt>
      <trkpt lat="47.01249" lon="5.24623">
        <ele>185.6</ele>
        <time>2022-03-21T09:19:12Z</time>
      </trkpt>
      <trkpt lat="47.01252" lon="5.24634">
        <ele>185.6</ele>
        <time>2022-03-21T09:19:13Z</time>
      </trkpt>
      <trkpt lat="47.01255" lon="5.24644">
        <ele>185.6</ele>
        <time>2022-03-21T09:19:14Z</time>
      </trkpt>
      <trkpt lat="47.01258" lon="5.24654">
        <ele>185.6</ele>
        <time>2022-03-21T09:19:15Z</time>
      </trkpt>
      <trkpt lat="47.01263" lon="5.24662">
        <ele>185.6</ele>
        <time>2022-03-21T09:19:16Z</time>
      </trkpt>
      <trkpt lat="47.01268" lon="5.24668">
        <ele>186</ele>
        <time>2022-03-21T09:19:17Z</time>
      </trkpt>
      <trkpt lat="47.01275" lon="5.24674">
        <ele>186</ele>
        <time>2022-03-21T09:19:18Z</time>
      </trkpt>
      <trkpt lat="47.01282" lon="5.24677">
        <ele>186</ele>
        <time>2022-03-21T09:19:19Z</time>
      </trkpt>
      <trkpt lat="47.01289" lon="5.2468">
        <ele>186</ele>
        <time>2022-03-21T09:19:20Z</time>
      </trkpt>
      <trkpt lat="47.01296" lon="5.24682">
        <ele>186</ele>
        <time>2022-03-21T09:19:21Z</time>
      </trkpt>
      <trkpt lat="47.01303" lon="5.24684">
        <ele>186</ele>
        <time>2022-03-21T09:19:22Z</time>
      </trkpt>
      <trkpt lat="47.01311" lon="5.24686">
        <ele>186</ele>
        <time>2022-03-21T09:19:23Z</time>
      </trkpt>
      <trkpt lat="47.01318" lon="5.24689">
        <ele>186</ele>
        <time>2022-03-21T09:19:24Z</time>
      </trkpt>
      <trkpt lat="47.01325" lon="5.24691">
        <ele>186</ele>
        <time>2022-03-21T09:19:25Z</time>
      </trkpt>
      <trkpt lat="47.01333" lon="5.24694">
        <ele>186</ele>
        <time>2022-03-21T09:19:26Z</time>
      </trkpt>
      <trkpt lat="47.0134" lon="5.24696">
        <ele>186</ele>
        <time>2022-03-21T09:19:27Z</time>
      </trkpt>
      <trkpt lat="47.01348" lon="5.24699">
        <ele>186</ele>
        <time>2022-03-21T09:19:28Z</time>
      </trkpt>
      <trkpt lat="47.01356" lon="5.24702">
        <ele>186</ele>
        <time>2022-03-21T09:19:29Z</time>
      </trkpt>
      <trkpt lat="47.01363" lon="5.24704">
        <ele>186</ele>
        <time>2022-03-21T09:19:30Z</time>
      </trkpt>
      <trkpt lat="47.01371" lon="5.24706">
        <ele>186</ele>
        <time>2022-03-21T09:19:31Z</time>
      </trkpt>
      <trkpt lat="47.01379" lon="5.24709">
        <ele>186</ele>
        <time>2022-03-21T09:19:32Z</time>
      </trkpt>
      <trkpt lat="47.01386" lon="5.24711">
        <ele>186</ele>
        <time>2022-03-21T09:19:33Z</time>
      </trkpt>
      <trkpt lat="47.01394" lon="5.24713">
        <ele>186</ele>
        <time>2022-03-21T09:19:34Z</time>
      </trkpt>
      <trkpt lat="47.01402" lon="5.24716">
        <ele>186</ele>
        <time>2022-03-21T09:19:35Z</time>
      </trkpt>
      <trkpt lat="47.0141" lon="5.24718">
        <ele>186</ele>
        <time>2022-03-21T09:19:36Z</time>
      </trkpt>
      <trkpt lat="47.01418" lon="5.2472">
        <ele>186</ele>
        <time>2022-03-21T09:19:37Z</time>
      </trkpt>
      <trkpt lat="47.01426" lon="5.24722">
        <ele>186</ele>
        <time>2022-03-21T09:19:38Z</time>
      </trkpt>
      <trkpt lat="47.01433" lon="5.24725">
        <ele>186</ele>
        <time>2022-03-21T09:19:39Z</time>
      </trkpt>
      <trkpt lat="47.01441" lon="5.24727">
        <ele>186</ele>
        <time>2022-03-21T09:19:40Z</time>
      </trkpt>
      <trkpt lat="47.01449" lon="5.24729">
        <ele>185.6</ele>
        <time>2022-03-21T09:19:41Z</time>
      </trkpt>
      <trkpt lat="47.01457" lon="5.24731">
        <ele>185.6</ele>
        <time>2022-03-21T09:19:42Z</time>
      </trkpt>
      <trkpt lat="47.01465" lon="5.24734">
        <ele>185.6</ele>
        <time>2022-03-21T09:19:43Z</time>
      </trkpt>
      <trkpt lat="47.01473" lon="5.24736">
        <ele>185.6</ele>
        <time>2022-03-21T09:19:44Z</time>
      </trkpt>
      <trkpt lat="47.01481" lon="5.24738">
        <ele>185.6</ele>
        <time>2022-03-21T09:19:45Z</time>
      </trkpt>
      <trkpt lat="47.01489" lon="5.2474">
        <ele>185.6</ele>
        <time>2022-03-21T09:19:46Z</time>
      </trkpt>
      <trkpt lat="47.01497" lon="5.24742">
        <ele>185.6</ele>
        <time>2022-03-21T09:19:47Z</time>
      </trkpt>
      <trkpt lat="47.01505" lon="5.24744">
        <ele>185.6</ele>
        <time>2022-03-21T09:19:48Z</time>
      </trkpt>
      <trkpt lat="47.01513" lon="5.24746">
        <ele>185.6</ele>
        <time>2022-03-21T09:19:49Z</time>
      </trkpt>
      <trkpt lat="47.01522" lon="5.24747">
        <ele>185.6</ele>
        <time>2022-03-21T09:19:50Z</time>
      </trkpt>
      <trkpt lat="47.0153" lon="5.24748">
        <ele>185.4</ele>
        <time>2022-03-21T09:19:51Z</time>
      </trkpt>
      <trkpt lat="47.01538" lon="5.24748">
        <ele>185.4</ele>
        <time>2022-03-21T09:19:52Z</time>
      </trkpt>
      <trkpt lat="47.01547" lon="5.24748">
        <ele>185.4</ele>
        <time>2022-03-21T09:19:53Z</time>
      </trkpt>
      <trkpt lat="47.01555" lon="5.24747">
        <ele>185.4</ele>
        <time>2022-03-21T09:19:54Z</time>
      </trkpt>
      <trkpt lat="47.01563" lon="5.24745">
        <ele>185.4</ele>
        <time>2022-03-21T09:19:55Z</time>
      </trkpt>
      <trkpt lat="47.01571" lon="5.24743">
        <ele>185.4</ele>
        <time>2022-03-21T09:19:56Z</time>
      </trkpt>
      <trkpt lat="47.01579" lon="5.24741">
        <ele>185.4</ele>
        <time>2022-03-21T09:19:57Z</time>
      </trkpt>
      <trkpt lat="47.01588" lon="5.24739">
        <ele>185.4</ele>
        <time>2022-03-21T09:19:58Z</time>
      </trkpt>
      <trkpt lat="47.01596" lon="5.24736">
        <ele>185.4</ele>
        <time>2022-03-21T09:19:59Z</time>
      </trkpt>
      <trkpt lat="47.01604" lon="5.24734">
        <ele>185.4</ele>
        <time>2022-03-21T09:20:00Z</time>
      </trkpt>
      <trkpt lat="47.01612" lon="5.24731">
        <ele>185.4</ele>
        <time>2022-03-21T09:20:01Z</time>
      </trkpt>
      <trkpt lat="47.0162" lon="5.24729">
        <ele>185.4</ele>
        <time>2022-03-21T09:20:02Z</time>
      </trkpt>
      <trkpt lat="47.01628" lon="5.24729">
        <ele>185.4</ele>
        <time>2022-03-21T09:20:03Z</time>
      </trkpt>
      <trkpt lat="47.01636" lon="5.24729">
        <ele>185.4</ele>
        <time>2022-03-21T09:20:04Z</time>
      </trkpt>
      <trkpt lat="47.01644" lon="5.24731">
        <ele>185.4</ele>
        <time>2022-03-21T09:20:05Z</time>
      </trkpt>
      <trkpt lat="47.01652" lon="5.24734">
        <ele>185.4</ele>
        <time>2022-03-21T09:20:06Z</time>
      </trkpt>
      <trkpt lat="47.0166" lon="5.24739">
        <ele>185.4</ele>
        <time>2022-03-21T09:20:07Z</time>
      </trkpt>
      <trkpt lat="47.01667" lon="5.24745">
        <ele>185.2</ele>
        <time>2022-03-21T09:20:08Z</time>
      </trkpt>
      <trkpt lat="47.01673" lon="5.24752">
        <ele>185.2</ele>
        <time>2022-03-21T09:20:09Z</time>
      </trkpt>
      <trkpt lat="47.01679" lon="5.24761">
        <ele>185.2</ele>
        <time>2022-03-21T09:20:10Z</time>
      </trkpt>
      <trkpt lat="47.01684" lon="5.2477">
        <ele>185.2</ele>
        <time>2022-03-21T09:20:11Z</time>
      </trkpt>
      <trkpt lat="47.01689" lon="5.24779">
        <ele>185.2</ele>
        <time>2022-03-21T09:20:12Z</time>
      </trkpt>
      <trkpt lat="47.01694" lon="5.24788">
        <ele>185.2</ele>
        <time>2022-03-21T09:20:13Z</time>
      </trkpt>
      <trkpt lat="47.01699" lon="5.24798">
        <ele>185.2</ele>
        <time>2022-03-21T09:20:14Z</time>
      </trkpt>
      <trkpt lat="47.01704" lon="5.24807">
        <ele>185.2</ele>
        <time>2022-03-21T09:20:15Z</time>
      </trkpt>
      <trkpt lat="47.01709" lon="5.24815">
        <ele>185.2</ele>
        <time>2022-03-21T09:20:16Z</time>
      </trkpt>
      <trkpt lat="47.01714" lon="5.24824">
        <ele>185.2</ele>
        <time>2022-03-21T09:20:17Z</time>
      </trkpt>
      <trkpt lat="47.01719" lon="5.24833">
        <ele>185.2</ele>
        <time>2022-03-21T09:20:18Z</time>
      </trkpt>
      <trkpt lat="47.01724" lon="5.24841">
        <ele>185.2</ele>
        <time>2022-03-21T09:20:19Z</time>
      </trkpt>
      <trkpt lat="47.0173" lon="5.2485">
        <ele>185.2</ele>
        <time>2022-03-21T09:20:20Z</time>
      </trkpt>
      <trkpt lat="47.01735" lon="5.24858">
        <ele>185.2</ele>
        <time>2022-03-21T09:20:21Z</time>
      </trkpt>
      <trkpt lat="47.0174" lon="5.24867">
        <ele>185.2</ele>
        <time>2022-03-21T09:20:22Z</time>
      </trkpt>
      <trkpt lat="47.01745" lon="5.24875">
        <ele>185.2</ele>
        <time>2022-03-21T09:20:23Z</time>
      </trkpt>
      <trkpt lat="47.01751" lon="5.24883">
        <ele>185.2</ele>
        <time>2022-03-21T09:20:24Z</time>
      </trkpt>
      <trkpt lat="47.01756" lon="5.24891">
        <ele>185.2</ele>
        <time>2022-03-21T09:20:25Z</time>
      </trkpt>
      <trkpt lat="47.01761" lon="5.24899">
        <ele>185.2</ele>
        <time>2022-03-21T09:20:26Z</time>
      </trkpt>
      <trkpt lat="47.01767" lon="5.24906">
        <ele>185.2</ele>
        <time>2022-03-21T09:20:27Z</time>
      </trkpt>
      <trkpt lat="47.01772" lon="5.24914">
        <ele>185.2</ele>
        <time>2022-03-21T09:20:29Z</time>
      </trkpt>
      <trkpt lat="47.01778" lon="5.24921">
        <ele>185.2</ele>
        <time>2022-03-21T09:20:30Z</time>
      </trkpt>
      <trkpt lat="47.01784" lon="5.24927">
        <ele>185.2</ele>
        <time>2022-03-21T09:20:31Z</time>
      </trkpt>
      <trkpt lat="47.0179" lon="5.24934">
        <ele>185.2</ele>
        <time>2022-03-21T09:20:32Z</time>
      </trkpt>
      <trkpt lat="47.01796" lon="5.2494">
        <ele>185.2</ele>
        <time>2022-03-21T09:20:33Z</time>
      </trkpt>
      <trkpt lat="47.01802" lon="5.24945">
        <ele>185.6</ele>
        <time>2022-03-21T09:20:34Z</time>
      </trkpt>
      <trkpt lat="47.01809" lon="5.24951">
        <ele>185.6</ele>
        <time>2022-03-21T09:20:35Z</time>
      </trkpt>
      <trkpt lat="47.01815" lon="5.24957">
        <ele>185.6</ele>
        <time>2022-03-21T09:20:36Z</time>
      </trkpt>
      <trkpt lat="47.01821" lon="5.24963">
        <ele>185.6</ele>
        <time>2022-03-21T09:20:37Z</time>
      </trkpt>
      <trkpt lat="47.01827" lon="5.24969">
        <ele>185.6</ele>
        <time>2022-03-21T09:20:38Z</time>
      </trkpt>
      <trkpt lat="47.01834" lon="5.24975">
        <ele>185.6</ele>
        <time>2022-03-21T09:20:39Z</time>
      </trkpt>
      <trkpt lat="47.0184" lon="5.24981">
        <ele>185.6</ele>
        <time>2022-03-21T09:20:40Z</time>
      </trkpt>
      <trkpt lat="47.01846" lon="5.24987">
        <ele>185.8</ele>
        <time>2022-03-21T09:20:41Z</time>
      </trkpt>
      <trkpt lat="47.01852" lon="5.24993">
        <ele>185.8</ele>
        <time>2022-03-21T09:20:42Z</time>
      </trkpt>
      <trkpt lat="47.01858" lon="5.25">
        <ele>185.8</ele>
        <time>2022-03-21T09:20:43Z</time>
      </trkpt>
      <trkpt lat="47.01865" lon="5.25006">
        <ele>185.8</ele>
        <time>2022-03-21T09:20:44Z</time>
      </trkpt>
      <trkpt lat="47.01871" lon="5.25011">
        <ele>185.8</ele>
        <time>2022-03-21T09:20:45Z</time>
      </trkpt>
      <trkpt lat="47.01877" lon="5.25017">
        <ele>185.8</ele>
        <time>2022-03-21T09:20:46Z</time>
      </trkpt>
      <trkpt lat="47.01884" lon="5.25023">
        <ele>185.8</ele>
        <time>2022-03-21T09:20:47Z</time>
      </trkpt>
      <trkpt lat="47.0189" lon="5.2503">
        <ele>185.8</ele>
        <time>2022-03-21T09:20:48Z</time>
      </trkpt>
      <trkpt lat="47.01896" lon="5.25036">
        <ele>185.8</ele>
        <time>2022-03-21T09:20:49Z</time>
      </trkpt>
      <trkpt lat="47.01903" lon="5.25042">
        <ele>185.6</ele>
        <time>2022-03-21T09:20:50Z</time>
      </trkpt>
      <trkpt lat="47.0191" lon="5.25048">
        <ele>185.6</ele>
        <time>2022-03-21T09:20:51Z</time>
      </trkpt>
      <trkpt lat="47.01917" lon="5.25054">
        <ele>185.6</ele>
        <time>2022-03-21T09:20:52Z</time>
      </trkpt>
      <trkpt lat="47.01924" lon="5.2506">
        <ele>185.4</ele>
        <time>2022-03-21T09:20:53Z</time>
      </trkpt>
      <trkpt lat="47.01931" lon="5.25064">
        <ele>185.4</ele>
        <time>2022-03-21T09:20:54Z</time>
      </trkpt>
      <trkpt lat="47.01938" lon="5.25069">
        <ele>185.4</ele>
        <time>2022-03-21T09:20:55Z</time>
      </trkpt>
      <trkpt lat="47.01946" lon="5.25073">
        <ele>185.4</ele>
        <time>2022-03-21T09:20:56Z</time>
      </trkpt>
      <trkpt lat="47.01953" lon="5.25078">
        <ele>185.4</ele>
        <time>2022-03-21T09:20:57Z</time>
      </trkpt>
      <trkpt lat="47.01961" lon="5.25082">
        <ele>185.4</ele>
        <time>2022-03-21T09:20:58Z</time>
      </trkpt>
      <trkpt lat="47.01968" lon="5.25087">
        <ele>185.4</ele>
        <time>2022-03-21T09:20:59Z</time>
      </trkpt>
      <trkpt lat="47.01975" lon="5.25093">
        <ele>185</ele>
        <time>2022-03-21T09:21:00Z</time>
      </trkpt>
      <trkpt lat="47.01982" lon="5.251">
        <ele>185</ele>
        <time>2022-03-21T09:21:01Z</time>
      </trkpt>
      <trkpt lat="47.01988" lon="5.25109">
        <ele>185</ele>
        <time>2022-03-21T09:21:02Z</time>
      </trkpt>
      <trkpt lat="47.01992" lon="5.25119">
        <ele>185</ele>
        <time>2022-03-21T09:21:03Z</time>
      </trkpt>
      <trkpt lat="47.01996" lon="5.25129">
        <ele>185</ele>
        <time>2022-03-21T09:21:04Z</time>
      </trkpt>
      <trkpt lat="47.02001" lon="5.25138">
        <ele>185</ele>
        <time>2022-03-21T09:21:05Z</time>
      </trkpt>
      <trkpt lat="47.02006" lon="5.25146">
        <ele>185</ele>
        <time>2022-03-21T09:21:06Z</time>
      </trkpt>
      <trkpt lat="47.02013" lon="5.25153">
        <ele>185</ele>
        <time>2022-03-21T09:21:07Z</time>
      </trkpt>
      <trkpt lat="47.0202" lon="5.25158">
        <ele>185.4</ele>
        <time>2022-03-21T09:21:08Z</time>
      </trkpt>
      <trkpt lat="47.02027" lon="5.25162">
        <ele>185.4</ele>
        <time>2022-03-21T09:21:09Z</time>
      </trkpt>
      <trkpt lat="47.02034" lon="5.25166">
        <ele>185.4</ele>
        <time>2022-03-21T09:21:10Z</time>
      </trkpt>
      <trkpt lat="47.02042" lon="5.2517">
        <ele>185.4</ele>
        <time>2022-03-21T09:21:11Z</time>
      </trkpt>
      <trkpt lat="47.02049" lon="5.25173">
        <ele>185.4</ele>
        <time>2022-03-21T09:21:12Z</time>
      </trkpt>
      <trkpt lat="47.02056" lon="5.25177">
        <ele>185.4</ele>
        <time>2022-03-21T09:21:13Z</time>
      </trkpt>
      <trkpt lat="47.02064" lon="5.2518">
        <ele>185.4</ele>
        <time>2022-03-21T09:21:14Z</time>
      </trkpt>
      <trkpt lat="47.02071" lon="5.25184">
        <ele>185.4</ele>
        <time>2022-03-21T09:21:15Z</time>
      </trkpt>
      <trkpt lat="47.02079" lon="5.25187">
        <ele>185.4</ele>
        <time>2022-03-21T09:21:16Z</time>
      </trkpt>
      <trkpt lat="47.02086" lon="5.25191">
        <ele>185.4</ele>
        <time>2022-03-21T09:21:17Z</time>
      </trkpt>
      <trkpt lat="47.02093" lon="5.25194">
        <ele>185.4</ele>
        <time>2022-03-21T09:21:18Z</time>
      </trkpt>
      <trkpt lat="47.02101" lon="5.25197">
        <ele>185.4</ele>
        <time>2022-03-21T09:21:19Z</time>
      </trkpt>
      <trkpt lat="47.02108" lon="5.252">
        <ele>185.4</ele>
        <time>2022-03-21T09:21:20Z</time>
      </trkpt>
      <trkpt lat="47.02115" lon="5.25205">
        <ele>185.4</ele>
        <time>2022-03-21T09:21:21Z</time>
      </trkpt>
      <trkpt lat="47.02127" lon="5.25218">
        <ele>185</ele>
        <time>2022-03-21T09:21:22Z</time>
      </trkpt>
      <trkpt lat="47.0213" lon="5.25228">
        <ele>185</ele>
        <time>2022-03-21T09:21:23Z</time>
      </trkpt>
      <trkpt lat="47.0213" lon="5.25239">
        <ele>184.8</ele>
        <time>2022-03-21T09:21:24Z</time>
      </trkpt>
      <trkpt lat="47.0213" lon="5.25249">
        <ele>184.8</ele>
        <time>2022-03-21T09:21:25Z</time>
      </trkpt>
      <trkpt lat="47.02129" lon="5.2526">
        <ele>184.8</ele>
        <time>2022-03-21T09:21:26Z</time>
      </trkpt>
      <trkpt lat="47.02129" lon="5.2527">
        <ele>184.8</ele>
        <time>2022-03-21T09:21:27Z</time>
      </trkpt>
      <trkpt lat="47.02128" lon="5.2528">
        <ele>185.2</ele>
        <time>2022-03-21T09:21:28Z</time>
      </trkpt>
      <trkpt lat="47.02129" lon="5.25291">
        <ele>185.2</ele>
        <time>2022-03-21T09:21:29Z</time>
      </trkpt>
      <trkpt lat="47.02129" lon="5.25301">
        <ele>185.2</ele>
        <time>2022-03-21T09:21:30Z</time>
      </trkpt>
      <trkpt lat="47.0213" lon="5.25312">
        <ele>185.2</ele>
        <time>2022-03-21T09:21:31Z</time>
      </trkpt>
      <trkpt lat="47.0213" lon="5.25323">
        <ele>185.2</ele>
        <time>2022-03-21T09:21:32Z</time>
      </trkpt>
      <trkpt lat="47.02131" lon="5.25333">
        <ele>185.2</ele>
        <time>2022-03-21T09:21:33Z</time>
      </trkpt>
      <trkpt lat="47.02132" lon="5.25344">
        <ele>185.2</ele>
        <time>2022-03-21T09:21:34Z</time>
      </trkpt>
      <trkpt lat="47.02133" lon="5.25354">
        <ele>184.8</ele>
        <time>2022-03-21T09:21:35Z</time>
      </trkpt>
      <trkpt lat="47.02134" lon="5.25364">
        <ele>184.8</ele>
        <time>2022-03-21T09:21:36Z</time>
      </trkpt>
      <trkpt lat="47.02135" lon="5.25375">
        <ele>184.8</ele>
        <time>2022-03-21T09:21:37Z</time>
      </trkpt>
      <trkpt lat="47.02136" lon="5.25385">
        <ele>184.8</ele>
        <time>2022-03-21T09:21:38Z</time>
      </trkpt>
      <trkpt lat="47.02137" lon="5.25396">
        <ele>185.2</ele>
        <time>2022-03-21T09:21:39Z</time>
      </trkpt>
      <trkpt lat="47.02138" lon="5.25406">
        <ele>185.2</ele>
        <time>2022-03-21T09:21:40Z</time>
      </trkpt>
      <trkpt lat="47.02139" lon="5.25417">
        <ele>185.2</ele>
        <time>2022-03-21T09:21:41Z</time>
      </trkpt>
      <trkpt lat="47.02141" lon="5.25426">
        <ele>185.4</ele>
        <time>2022-03-21T09:21:42Z</time>
      </trkpt>
      <trkpt lat="47.02144" lon="5.25435">
        <ele>185.4</ele>
        <time>2022-03-21T09:21:43Z</time>
      </trkpt>
      <trkpt lat="47.02147" lon="5.25443">
        <ele>185.4</ele>
        <time>2022-03-21T09:21:44Z</time>
      </trkpt>
      <trkpt lat="47.02152" lon="5.25449">
        <ele>185.4</ele>
        <time>2022-03-21T09:21:45Z</time>
      </trkpt>
      <trkpt lat="47.02158" lon="5.25452">
        <ele>185.4</ele>
        <time>2022-03-21T09:21:46Z</time>
      </trkpt>
      <trkpt lat="47.02164" lon="5.25453">
        <ele>185.4</ele>
        <time>2022-03-21T09:21:47Z</time>
      </trkpt>
      <trkpt lat="47.0217" lon="5.25452">
        <ele>185.4</ele>
        <time>2022-03-21T09:21:48Z</time>
      </trkpt>
      <trkpt lat="47.02176" lon="5.25452">
        <ele>185.4</ele>
        <time>2022-03-21T09:21:49Z</time>
      </trkpt>
      <trkpt lat="47.02182" lon="5.25451">
        <ele>185.6</ele>
        <time>2022-03-21T09:21:50Z</time>
      </trkpt>
      <trkpt lat="47.02188" lon="5.25451">
        <ele>185.6</ele>
        <time>2022-03-21T09:21:51Z</time>
      </trkpt>
      <trkpt lat="47.02195" lon="5.25451">
        <ele>185.8</ele>
        <time>2022-03-21T09:21:52Z</time>
      </trkpt>
      <trkpt lat="47.02201" lon="5.25452">
        <ele>185.8</ele>
        <time>2022-03-21T09:21:53Z</time>
      </trkpt>
      <trkpt lat="47.02208" lon="5.25451">
        <ele>186</ele>
        <time>2022-03-21T09:21:54Z</time>
      </trkpt>
      <trkpt lat="47.02215" lon="5.25451">
        <ele>186</ele>
        <time>2022-03-21T09:21:55Z</time>
      </trkpt>
      <trkpt lat="47.02221" lon="5.2545">
        <ele>186.4</ele>
        <time>2022-03-21T09:21:56Z</time>
      </trkpt>
      <trkpt lat="47.02228" lon="5.2545">
        <ele>186.4</ele>
        <time>2022-03-21T09:21:57Z</time>
      </trkpt>
      <trkpt lat="47.02234" lon="5.2545">
        <ele>186.8</ele>
        <time>2022-03-21T09:21:58Z</time>
      </trkpt>
      <trkpt lat="47.02241" lon="5.2545">
        <ele>186.8</ele>
        <time>2022-03-21T09:21:59Z</time>
      </trkpt>
      <trkpt lat="47.02247" lon="5.2545">
        <ele>187.2</ele>
        <time>2022-03-21T09:22:00Z</time>
      </trkpt>
      <trkpt lat="47.02254" lon="5.25451">
        <ele>187.4</ele>
        <time>2022-03-21T09:22:01Z</time>
      </trkpt>
      <trkpt lat="47.0226" lon="5.25452">
        <ele>187.6</ele>
        <time>2022-03-21T09:22:02Z</time>
      </trkpt>
      <trkpt lat="47.02266" lon="5.25452">
        <ele>188</ele>
        <time>2022-03-21T09:22:03Z</time>
      </trkpt>
      <trkpt lat="47.02272" lon="5.25452">
        <ele>188.4</ele>
        <time>2022-03-21T09:22:04Z</time>
      </trkpt>
      <trkpt lat="47.02278" lon="5.25451">
        <ele>188.8</ele>
        <time>2022-03-21T09:22:05Z</time>
      </trkpt>
      <trkpt lat="47.02283" lon="5.2545">
        <ele>189.2</ele>
        <time>2022-03-21T09:22:06Z</time>
      </trkpt>
      <trkpt lat="47.02289" lon="5.25447">
        <ele>189.6</ele>
        <time>2022-03-21T09:22:07Z</time>
      </trkpt>
      <trkpt lat="47.02294" lon="5.25443">
        <ele>189.8</ele>
        <time>2022-03-21T09:22:08Z</time>
      </trkpt>
      <trkpt lat="47.02299" lon="5.25439">
        <ele>190.2</ele>
        <time>2022-03-21T09:22:09Z</time>
      </trkpt>
      <trkpt lat="47.02304" lon="5.25435">
        <ele>190.6</ele>
        <time>2022-03-21T09:22:10Z</time>
      </trkpt>
      <trkpt lat="47.02309" lon="5.25431">
        <ele>191</ele>
        <time>2022-03-21T09:22:11Z</time>
      </trkpt>
      <trkpt lat="47.02314" lon="5.25429">
        <ele>191.4</ele>
        <time>2022-03-21T09:22:12Z</time>
      </trkpt>
      <trkpt lat="47.0232" lon="5.25427">
        <ele>191.6</ele>
        <time>2022-03-21T09:22:13Z</time>
      </trkpt>
      <trkpt lat="47.02326" lon="5.25427">
        <ele>192</ele>
        <time>2022-03-21T09:22:14Z</time>
      </trkpt>
      <trkpt lat="47.02332" lon="5.25428">
        <ele>192.2</ele>
        <time>2022-03-21T09:22:15Z</time>
      </trkpt>
      <trkpt lat="47.02337" lon="5.25431">
        <ele>192.6</ele>
        <time>2022-03-21T09:22:16Z</time>
      </trkpt>
      <trkpt lat="47.02342" lon="5.25435">
        <ele>192.8</ele>
        <time>2022-03-21T09:22:17Z</time>
      </trkpt>
      <trkpt lat="47.02347" lon="5.2544">
        <ele>193</ele>
        <time>2022-03-21T09:22:18Z</time>
      </trkpt>
      <trkpt lat="47.02353" lon="5.25444">
        <ele>193.6</ele>
        <time>2022-03-21T09:22:19Z</time>
      </trkpt>
      <trkpt lat="47.02358" lon="5.25449">
        <ele>193.8</ele>
        <time>2022-03-21T09:22:20Z</time>
      </trkpt>
      <trkpt lat="47.02364" lon="5.25454">
        <ele>193.8</ele>
        <time>2022-03-21T09:22:21Z</time>
      </trkpt>
      <trkpt lat="47.02369" lon="5.25459">
        <ele>193.8</ele>
        <time>2022-03-21T09:22:22Z</time>
      </trkpt>
      <trkpt lat="47.02375" lon="5.25464">
        <ele>193.8</ele>
        <time>2022-03-21T09:22:23Z</time>
      </trkpt>
      <trkpt lat="47.0238" lon="5.25469">
        <ele>193.8</ele>
        <time>2022-03-21T09:22:24Z</time>
      </trkpt>
      <trkpt lat="47.02386" lon="5.25474">
        <ele>193.8</ele>
        <time>2022-03-21T09:22:25Z</time>
      </trkpt>
      <trkpt lat="47.02393" lon="5.25479">
        <ele>193.8</ele>
        <time>2022-03-21T09:22:26Z</time>
      </trkpt>
      <trkpt lat="47.02399" lon="5.25483">
        <ele>193.8</ele>
        <time>2022-03-21T09:22:27Z</time>
      </trkpt>
      <trkpt lat="47.02406" lon="5.25487">
        <ele>193.4</ele>
        <time>2022-03-21T09:22:28Z</time>
      </trkpt>
      <trkpt lat="47.02413" lon="5.2549">
        <ele>193.4</ele>
        <time>2022-03-21T09:22:29Z</time>
      </trkpt>
      <trkpt lat="47.0242" lon="5.25494">
        <ele>193.2</ele>
        <time>2022-03-21T09:22:30Z</time>
      </trkpt>
      <trkpt lat="47.02427" lon="5.25497">
        <ele>193.2</ele>
        <time>2022-03-21T09:22:31Z</time>
      </trkpt>
      <trkpt lat="47.02435" lon="5.255">
        <ele>193</ele>
        <time>2022-03-21T09:22:32Z</time>
      </trkpt>
      <trkpt lat="47.02442" lon="5.25503">
        <ele>193</ele>
        <time>2022-03-21T09:22:33Z</time>
      </trkpt>
      <trkpt lat="47.0245" lon="5.25504">
        <ele>192.8</ele>
        <time>2022-03-21T09:22:34Z</time>
      </trkpt>
      <trkpt lat="47.02457" lon="5.25505">
        <ele>192.8</ele>
        <time>2022-03-21T09:22:35Z</time>
      </trkpt>
      <trkpt lat="47.02465" lon="5.25506">
        <ele>192.4</ele>
        <time>2022-03-21T09:22:36Z</time>
      </trkpt>
      <trkpt lat="47.02473" lon="5.25507">
        <ele>192.4</ele>
        <time>2022-03-21T09:22:37Z</time>
      </trkpt>
      <trkpt lat="47.02481" lon="5.25507">
        <ele>192.4</ele>
        <time>2022-03-21T09:22:38Z</time>
      </trkpt>
      <trkpt lat="47.02489" lon="5.25508">
        <ele>192.2</ele>
        <time>2022-03-21T09:22:39Z</time>
      </trkpt>
      <trkpt lat="47.02497" lon="5.25508">
        <ele>192.2</ele>
        <time>2022-03-21T09:22:40Z</time>
      </trkpt>
      <trkpt lat="47.02505" lon="5.25507">
        <ele>192</ele>
        <time>2022-03-21T09:22:41Z</time>
      </trkpt>
      <trkpt lat="47.02512" lon="5.25507">
        <ele>192</ele>
        <time>2022-03-21T09:22:42Z</time>
      </trkpt>
      <trkpt lat="47.0252" lon="5.25505">
        <ele>191.6</ele>
        <time>2022-03-21T09:22:43Z</time>
      </trkpt>
      <trkpt lat="47.02527" lon="5.25504">
        <ele>191.6</ele>
        <time>2022-03-21T09:22:44Z</time>
      </trkpt>
      <trkpt lat="47.02534" lon="5.25501">
        <ele>191.6</ele>
        <time>2022-03-21T09:22:45Z</time>
      </trkpt>
      <trkpt lat="47.02539" lon="5.25497">
        <ele>191.6</ele>
        <time>2022-03-21T09:22:46Z</time>
      </trkpt>
      <trkpt lat="47.02543" lon="5.2549">
        <ele>191.6</ele>
        <time>2022-03-21T09:22:47Z</time>
      </trkpt>
      <trkpt lat="47.02545" lon="5.25483">
        <ele>191.6</ele>
        <time>2022-03-21T09:22:48Z</time>
      </trkpt>
      <trkpt lat="47.02547" lon="5.25475">
        <ele>191.6</ele>
        <time>2022-03-21T09:22:49Z</time>
      </trkpt>
      <trkpt lat="47.02549" lon="5.25466">
        <ele>191.6</ele>
        <time>2022-03-21T09:22:50Z</time>
      </trkpt>
      <trkpt lat="47.02551" lon="5.25457">
        <ele>192</ele>
        <time>2022-03-21T09:22:51Z</time>
      </trkpt>
      <trkpt lat="47.02552" lon="5.25449">
        <ele>192</ele>
        <time>2022-03-21T09:22:52Z</time>
      </trkpt>
      <trkpt lat="47.02553" lon="5.2544">
        <ele>192.2</ele>
        <time>2022-03-21T09:22:53Z</time>
      </trkpt>
      <trkpt lat="47.02555" lon="5.25432">
        <ele>192.2</ele>
        <time>2022-03-21T09:22:54Z</time>
      </trkpt>
      <trkpt lat="47.02557" lon="5.25425">
        <ele>192.6</ele>
        <time>2022-03-21T09:22:55Z</time>
      </trkpt>
      <trkpt lat="47.02559" lon="5.25417">
        <ele>192.6</ele>
        <time>2022-03-21T09:22:56Z</time>
      </trkpt>
      <trkpt lat="47.0256" lon="5.25408">
        <ele>192.6</ele>
        <time>2022-03-21T09:22:57Z</time>
      </trkpt>
      <trkpt lat="47.02562" lon="5.254">
        <ele>192.8</ele>
        <time>2022-03-21T09:22:58Z</time>
      </trkpt>
      <trkpt lat="47.02563" lon="5.25391">
        <ele>192.8</ele>
        <time>2022-03-21T09:22:59Z</time>
      </trkpt>
      <trkpt lat="47.02565" lon="5.25382">
        <ele>193.2</ele>
        <time>2022-03-21T09:23:00Z</time>
      </trkpt>
      <trkpt lat="47.02566" lon="5.25374">
        <ele>193.2</ele>
        <time>2022-03-21T09:23:01Z</time>
      </trkpt>
      <trkpt lat="47.02567" lon="5.25365">
        <ele>193.6</ele>
        <time>2022-03-21T09:23:02Z</time>
      </trkpt>
      <trkpt lat="47.02568" lon="5.25356">
        <ele>193.6</ele>
        <time>2022-03-21T09:23:03Z</time>
      </trkpt>
      <trkpt lat="47.02569" lon="5.25347">
        <ele>193.8</ele>
        <time>2022-03-21T09:23:04Z</time>
      </trkpt>
      <trkpt lat="47.0257" lon="5.25338">
        <ele>193.8</ele>
        <time>2022-03-21T09:23:05Z</time>
      </trkpt>
      <trkpt lat="47.02572" lon="5.2533">
        <ele>194.2</ele>
        <time>2022-03-21T09:23:06Z</time>
      </trkpt>
      <trkpt lat="47.02573" lon="5.25321">
        <ele>194.2</ele>
        <time>2022-03-21T09:23:07Z</time>
      </trkpt>
      <trkpt lat="47.02574" lon="5.25312">
        <ele>194.2</ele>
        <time>2022-03-21T09:23:08Z</time>
      </trkpt>
      <trkpt lat="47.02576" lon="5.25302">
        <ele>194.2</ele>
        <time>2022-03-21T09:23:09Z</time>
      </trkpt>
      <trkpt lat="47.02577" lon="5.25293">
        <ele>194.2</ele>
        <time>2022-03-21T09:23:10Z</time>
      </trkpt>
      <trkpt lat="47.02578" lon="5.25284">
        <ele>194.2</ele>
        <time>2022-03-21T09:23:11Z</time>
      </trkpt>
      <trkpt lat="47.0258" lon="5.25274">
        <ele>194.2</ele>
        <time>2022-03-21T09:23:12Z</time>
      </trkpt>
      <trkpt lat="47.02581" lon="5.25265">
        <ele>194.2</ele>
        <time>2022-03-21T09:23:13Z</time>
      </trkpt>
      <trkpt lat="47.02583" lon="5.25256">
        <ele>194.2</ele>
        <time>2022-03-21T09:23:14Z</time>
      </trkpt>
      <trkpt lat="47.02585" lon="5.25246">
        <ele>194.2</ele>
        <time>2022-03-21T09:23:15Z</time>
      </trkpt>
      <trkpt lat="47.02586" lon="5.25237">
        <ele>194.2</ele>
        <time>2022-03-21T09:23:16Z</time>
      </trkpt>
      <trkpt lat="47.02588" lon="5.25227">
        <ele>194.2</ele>
        <time>2022-03-21T09:23:17Z</time>
      </trkpt>
      <trkpt lat="47.0259" lon="5.25217">
        <ele>193.8</ele>
        <time>2022-03-21T09:23:18Z</time>
      </trkpt>
      <trkpt lat="47.02591" lon="5.25207">
        <ele>193.8</ele>
        <time>2022-03-21T09:23:19Z</time>
      </trkpt>
      <trkpt lat="47.02593" lon="5.25197">
        <ele>193.8</ele>
        <time>2022-03-21T09:23:20Z</time>
      </trkpt>
      <trkpt lat="47.02595" lon="5.25186">
        <ele>193.8</ele>
        <time>2022-03-21T09:23:21Z</time>
      </trkpt>
      <trkpt lat="47.02597" lon="5.25176">
        <ele>193.6</ele>
        <time>2022-03-21T09:23:22Z</time>
      </trkpt>
      <trkpt lat="47.02598" lon="5.25165">
        <ele>193.6</ele>
        <time>2022-03-21T09:23:23Z</time>
      </trkpt>
      <trkpt lat="47.02598" lon="5.25154">
        <ele>193.4</ele>
        <time>2022-03-21T09:23:24Z</time>
      </trkpt>
      <trkpt lat="47.02598" lon="5.25142">
        <ele>193.4</ele>
        <time>2022-03-21T09:23:25Z</time>
      </trkpt>
      <trkpt lat="47.02598" lon="5.2513">
        <ele>193.2</ele>
        <time>2022-03-21T09:23:26Z</time>
      </trkpt>
      <trkpt lat="47.02598" lon="5.25118">
        <ele>193.2</ele>
        <time>2022-03-21T09:23:27Z</time>
      </trkpt>
      <trkpt lat="47.02599" lon="5.25107">
        <ele>193.2</ele>
        <time>2022-03-21T09:23:28Z</time>
      </trkpt>
      <trkpt lat="47.02601" lon="5.25096">
        <ele>193.2</ele>
        <time>2022-03-21T09:23:29Z</time>
      </trkpt>
      <trkpt lat="47.02604" lon="5.25086">
        <ele>193.2</ele>
        <time>2022-03-21T09:23:30Z</time>
      </trkpt>
      <trkpt lat="47.02606" lon="5.25076">
        <ele>193.2</ele>
        <time>2022-03-21T09:23:31Z</time>
      </trkpt>
      <trkpt lat="47.02608" lon="5.25066">
        <ele>193.4</ele>
        <time>2022-03-21T09:23:32Z</time>
      </trkpt>
      <trkpt lat="47.0261" lon="5.25057">
        <ele>193.4</ele>
        <time>2022-03-21T09:23:33Z</time>
      </trkpt>
      <trkpt lat="47.02612" lon="5.25047">
        <ele>193.4</ele>
        <time>2022-03-21T09:23:34Z</time>
      </trkpt>
      <trkpt lat="47.02614" lon="5.25038">
        <ele>193.4</ele>
        <time>2022-03-21T09:23:35Z</time>
      </trkpt>
      <trkpt lat="47.02616" lon="5.25028">
        <ele>193.4</ele>
        <time>2022-03-21T09:23:36Z</time>
      </trkpt>
      <trkpt lat="47.02619" lon="5.25019">
        <ele>193.4</ele>
        <time>2022-03-21T09:23:37Z</time>
      </trkpt>
      <trkpt lat="47.02621" lon="5.2501">
        <ele>193.4</ele>
        <time>2022-03-21T09:23:38Z</time>
      </trkpt>
      <trkpt lat="47.02624" lon="5.25">
        <ele>193.4</ele>
        <time>2022-03-21T09:23:39Z</time>
      </trkpt>
      <trkpt lat="47.02627" lon="5.24991">
        <ele>193.4</ele>
        <time>2022-03-21T09:23:40Z</time>
      </trkpt>
      <trkpt lat="47.02631" lon="5.24983">
        <ele>193.4</ele>
        <time>2022-03-21T09:23:41Z</time>
      </trkpt>
      <trkpt lat="47.02635" lon="5.24975">
        <ele>193.4</ele>
        <time>2022-03-21T09:23:42Z</time>
      </trkpt>
      <trkpt lat="47.0264" lon="5.24967">
        <ele>193.4</ele>
        <time>2022-03-21T09:23:43Z</time>
      </trkpt>
      <trkpt lat="47.02645" lon="5.24959">
        <ele>193.4</ele>
        <time>2022-03-21T09:23:44Z</time>
      </trkpt>
      <trkpt lat="47.02651" lon="5.24953">
        <ele>193.4</ele>
        <time>2022-03-21T09:23:45Z</time>
      </trkpt>
      <trkpt lat="47.02656" lon="5.24947">
        <ele>193.4</ele>
        <time>2022-03-21T09:23:46Z</time>
      </trkpt>
      <trkpt lat="47.02663" lon="5.24941">
        <ele>193.6</ele>
        <time>2022-03-21T09:23:47Z</time>
      </trkpt>
      <trkpt lat="47.02669" lon="5.24936">
        <ele>193.6</ele>
        <time>2022-03-21T09:23:48Z</time>
      </trkpt>
      <trkpt lat="47.02675" lon="5.2493">
        <ele>193.6</ele>
        <time>2022-03-21T09:23:49Z</time>
      </trkpt>
      <trkpt lat="47.02681" lon="5.24925">
        <ele>193.6</ele>
        <time>2022-03-21T09:23:50Z</time>
      </trkpt>
      <trkpt lat="47.02688" lon="5.24919">
        <ele>193.6</ele>
        <time>2022-03-21T09:23:51Z</time>
      </trkpt>
      <trkpt lat="47.02694" lon="5.24913">
        <ele>193.6</ele>
        <time>2022-03-21T09:23:52Z</time>
      </trkpt>
      <trkpt lat="47.027" lon="5.24908">
        <ele>193.6</ele>
        <time>2022-03-21T09:23:53Z</time>
      </trkpt>
      <trkpt lat="47.02707" lon="5.24902">
        <ele>193.6</ele>
        <time>2022-03-21T09:23:54Z</time>
      </trkpt>
      <trkpt lat="47.02713" lon="5.24895">
        <ele>193.6</ele>
        <time>2022-03-21T09:23:55Z</time>
      </trkpt>
      <trkpt lat="47.02719" lon="5.24889">
        <ele>193.6</ele>
        <time>2022-03-21T09:23:56Z</time>
      </trkpt>
      <trkpt lat="47.02726" lon="5.24883">
        <ele>193.6</ele>
        <time>2022-03-21T09:23:57Z</time>
      </trkpt>
      <trkpt lat="47.02732" lon="5.24877">
        <ele>193.6</ele>
        <time>2022-03-21T09:23:58Z</time>
      </trkpt>
      <trkpt lat="47.02739" lon="5.2487">
        <ele>193.6</ele>
        <time>2022-03-21T09:23:59Z</time>
      </trkpt>
      <trkpt lat="47.02746" lon="5.24864">
        <ele>193.6</ele>
        <time>2022-03-21T09:24:00Z</time>
      </trkpt>
      <trkpt lat="47.02752" lon="5.24858">
        <ele>193.6</ele>
        <time>2022-03-21T09:24:01Z</time>
      </trkpt>
      <trkpt lat="47.02759" lon="5.24852">
        <ele>193.6</ele>
        <time>2022-03-21T09:24:02Z</time>
      </trkpt>
      <trkpt lat="47.02766" lon="5.24845">
        <ele>193.6</ele>
        <time>2022-03-21T09:24:03Z</time>
      </trkpt>
      <trkpt lat="47.02773" lon="5.24839">
        <ele>193.8</ele>
        <time>2022-03-21T09:24:04Z</time>
      </trkpt>
      <trkpt lat="47.02779" lon="5.24832">
        <ele>193.8</ele>
        <time>2022-03-21T09:24:05Z</time>
      </trkpt>
      <trkpt lat="47.02786" lon="5.24825">
        <ele>193.8</ele>
        <time>2022-03-21T09:24:06Z</time>
      </trkpt>
      <trkpt lat="47.02792" lon="5.24817">
        <ele>193.8</ele>
        <time>2022-03-21T09:24:07Z</time>
      </trkpt>
      <trkpt lat="47.02798" lon="5.2481">
        <ele>193.8</ele>
        <time>2022-03-21T09:24:08Z</time>
      </trkpt>
      <trkpt lat="47.02804" lon="5.24802">
        <ele>193.8</ele>
        <time>2022-03-21T09:24:09Z</time>
      </trkpt>
      <trkpt lat="47.0281" lon="5.24794">
        <ele>193.8</ele>
        <time>2022-03-21T09:24:10Z</time>
      </trkpt>
      <trkpt lat="47.02816" lon="5.24786">
        <ele>193.8</ele>
        <time>2022-03-21T09:24:11Z</time>
      </trkpt>
      <trkpt lat="47.02822" lon="5.24778">
        <ele>194.2</ele>
        <time>2022-03-21T09:24:12Z</time>
      </trkpt>
      <trkpt lat="47.02827" lon="5.24769">
        <ele>194.2</ele>
        <time>2022-03-21T09:24:13Z</time>
      </trkpt>
      <trkpt lat="47.02833" lon="5.2476">
        <ele>194.2</ele>
        <time>2022-03-21T09:24:14Z</time>
      </trkpt>
      <trkpt lat="47.02839" lon="5.24752">
        <ele>194.2</ele>
        <time>2022-03-21T09:24:15Z</time>
      </trkpt>
      <trkpt lat="47.02845" lon="5.24743">
        <ele>194.2</ele>
        <time>2022-03-21T09:24:16Z</time>
      </trkpt>
      <trkpt lat="47.0285" lon="5.24735">
        <ele>194.2</ele>
        <time>2022-03-21T09:24:17Z</time>
      </trkpt>
      <trkpt lat="47.02856" lon="5.24726">
        <ele>194.2</ele>
        <time>2022-03-21T09:24:18Z</time>
      </trkpt>
      <trkpt lat="47.02861" lon="5.24717">
        <ele>194.2</ele>
        <time>2022-03-21T09:24:19Z</time>
      </trkpt>
      <trkpt lat="47.02867" lon="5.24708">
        <ele>194.2</ele>
        <time>2022-03-21T09:24:20Z</time>
      </trkpt>
      <trkpt lat="47.02872" lon="5.24699">
        <ele>194.2</ele>
        <time>2022-03-21T09:24:21Z</time>
      </trkpt>
      <trkpt lat="47.02878" lon="5.2469">
        <ele>194.2</ele>
        <time>2022-03-21T09:24:22Z</time>
      </trkpt>
      <trkpt lat="47.02883" lon="5.24681">
        <ele>194.2</ele>
        <time>2022-03-21T09:24:23Z</time>
      </trkpt>
      <trkpt lat="47.02888" lon="5.24671">
        <ele>194.2</ele>
        <time>2022-03-21T09:24:24Z</time>
      </trkpt>
      <trkpt lat="47.02892" lon="5.2466">
        <ele>194.2</ele>
        <time>2022-03-21T09:24:25Z</time>
      </trkpt>
      <trkpt lat="47.02896" lon="5.2465">
        <ele>194</ele>
        <time>2022-03-21T09:24:26Z</time>
      </trkpt>
      <trkpt lat="47.029" lon="5.24639">
        <ele>194</ele>
        <time>2022-03-21T09:24:27Z</time>
      </trkpt>
      <trkpt lat="47.02904" lon="5.24627">
        <ele>194</ele>
        <time>2022-03-21T09:24:28Z</time>
      </trkpt>
      <trkpt lat="47.02907" lon="5.24616">
        <ele>194</ele>
        <time>2022-03-21T09:24:29Z</time>
      </trkpt>
      <trkpt lat="47.02909" lon="5.24604">
        <ele>194</ele>
        <time>2022-03-21T09:24:30Z</time>
      </trkpt>
      <trkpt lat="47.02911" lon="5.24592">
        <ele>194</ele>
        <time>2022-03-21T09:24:31Z</time>
      </trkpt>
      <trkpt lat="47.02914" lon="5.2458">
        <ele>194</ele>
        <time>2022-03-21T09:24:32Z</time>
      </trkpt>
      <trkpt lat="47.02916" lon="5.24569">
        <ele>194</ele>
        <time>2022-03-21T09:24:33Z</time>
      </trkpt>
      <trkpt lat="47.02917" lon="5.24557">
        <ele>194</ele>
        <time>2022-03-21T09:24:34Z</time>
      </trkpt>
      <trkpt lat="47.02919" lon="5.24545">
        <ele>194</ele>
        <time>2022-03-21T09:24:35Z</time>
      </trkpt>
      <trkpt lat="47.0292" lon="5.24534">
        <ele>194</ele>
        <time>2022-03-21T09:24:36Z</time>
      </trkpt>
      <trkpt lat="47.02922" lon="5.24522">
        <ele>194</ele>
        <time>2022-03-21T09:24:37Z</time>
      </trkpt>
      <trkpt lat="47.02923" lon="5.2451">
        <ele>194</ele>
        <time>2022-03-21T09:24:38Z</time>
      </trkpt>
      <trkpt lat="47.02924" lon="5.24499">
        <ele>194</ele>
        <time>2022-03-21T09:24:39Z</time>
      </trkpt>
      <trkpt lat="47.02924" lon="5.24487">
        <ele>194</ele>
        <time>2022-03-21T09:24:40Z</time>
      </trkpt>
      <trkpt lat="47.02924" lon="5.24475">
        <ele>194</ele>
        <time>2022-03-21T09:24:41Z</time>
      </trkpt>
      <trkpt lat="47.02922" lon="5.24464">
        <ele>194</ele>
        <time>2022-03-21T09:24:42Z</time>
      </trkpt>
      <trkpt lat="47.0292" lon="5.24452">
        <ele>194</ele>
        <time>2022-03-21T09:24:43Z</time>
      </trkpt>
      <trkpt lat="47.02917" lon="5.24441">
        <ele>194</ele>
        <time>2022-03-21T09:24:44Z</time>
      </trkpt>
      <trkpt lat="47.02914" lon="5.2443">
        <ele>194</ele>
        <time>2022-03-21T09:24:45Z</time>
      </trkpt>
      <trkpt lat="47.02911" lon="5.2442">
        <ele>194</ele>
        <time>2022-03-21T09:24:46Z</time>
      </trkpt>
      <trkpt lat="47.02907" lon="5.24409">
        <ele>194</ele>
        <time>2022-03-21T09:24:47Z</time>
      </trkpt>
      <trkpt lat="47.02904" lon="5.24399">
        <ele>194</ele>
        <time>2022-03-21T09:24:48Z</time>
      </trkpt>
      <trkpt lat="47.02901" lon="5.24389">
        <ele>194</ele>
        <time>2022-03-21T09:24:49Z</time>
      </trkpt>
      <trkpt lat="47.02898" lon="5.24378">
        <ele>194</ele>
        <time>2022-03-21T09:24:50Z</time>
      </trkpt>
      <trkpt lat="47.02894" lon="5.24368">
        <ele>194</ele>
        <time>2022-03-21T09:24:52Z</time>
      </trkpt>
      <trkpt lat="47.02891" lon="5.24358">
        <ele>194</ele>
        <time>2022-03-21T09:24:53Z</time>
      </trkpt>
      <trkpt lat="47.02888" lon="5.24348">
        <ele>194</ele>
        <time>2022-03-21T09:24:54Z</time>
      </trkpt>
      <trkpt lat="47.02885" lon="5.24338">
        <ele>194</ele>
        <time>2022-03-21T09:24:55Z</time>
      </trkpt>
      <trkpt lat="47.02881" lon="5.24328">
        <ele>194</ele>
        <time>2022-03-21T09:24:56Z</time>
      </trkpt>
      <trkpt lat="47.02878" lon="5.24319">
        <ele>194</ele>
        <time>2022-03-21T09:24:57Z</time>
      </trkpt>
      <trkpt lat="47.02875" lon="5.24309">
        <ele>194</ele>
        <time>2022-03-21T09:24:58Z</time>
      </trkpt>
      <trkpt lat="47.02872" lon="5.24299">
        <ele>194</ele>
        <time>2022-03-21T09:24:59Z</time>
      </trkpt>
      <trkpt lat="47.02869" lon="5.24289">
        <ele>194</ele>
        <time>2022-03-21T09:25:00Z</time>
      </trkpt>
      <trkpt lat="47.02866" lon="5.24279">
        <ele>194</ele>
        <time>2022-03-21T09:25:01Z</time>
      </trkpt>
      <trkpt lat="47.02863" lon="5.24268">
        <ele>194</ele>
        <time>2022-03-21T09:25:02Z</time>
      </trkpt>
      <trkpt lat="47.0286" lon="5.24258">
        <ele>194</ele>
        <time>2022-03-21T09:25:03Z</time>
      </trkpt>
      <trkpt lat="47.02858" lon="5.24248">
        <ele>194</ele>
        <time>2022-03-21T09:25:04Z</time>
      </trkpt>
      <trkpt lat="47.02857" lon="5.24237">
        <ele>194</ele>
        <time>2022-03-21T09:25:05Z</time>
      </trkpt>
      <trkpt lat="47.02856" lon="5.24226">
        <ele>194</ele>
        <time>2022-03-21T09:25:06Z</time>
      </trkpt>
      <trkpt lat="47.02857" lon="5.24204">
        <ele>194</ele>
        <time>2022-03-21T09:25:07Z</time>
      </trkpt>
      <trkpt lat="47.02858" lon="5.24194">
        <ele>194</ele>
        <time>2022-03-21T09:25:08Z</time>
      </trkpt>
      <trkpt lat="47.0286" lon="5.24183">
        <ele>194</ele>
        <time>2022-03-21T09:25:09Z</time>
      </trkpt>
      <trkpt lat="47.02862" lon="5.24173">
        <ele>194</ele>
        <time>2022-03-21T09:25:10Z</time>
      </trkpt>
      <trkpt lat="47.02865" lon="5.24163">
        <ele>194</ele>
        <time>2022-03-21T09:25:11Z</time>
      </trkpt>
      <trkpt lat="47.02868" lon="5.24153">
        <ele>194</ele>
        <time>2022-03-21T09:25:12Z</time>
      </trkpt>
      <trkpt lat="47.02871" lon="5.24143">
        <ele>194</ele>
        <time>2022-03-21T09:25:13Z</time>
      </trkpt>
      <trkpt lat="47.02874" lon="5.24133">
        <ele>194</ele>
        <time>2022-03-21T09:25:14Z</time>
      </trkpt>
      <trkpt lat="47.02877" lon="5.24122">
        <ele>194</ele>
        <time>2022-03-21T09:25:15Z</time>
      </trkpt>
      <trkpt lat="47.0288" lon="5.24112">
        <ele>194</ele>
        <time>2022-03-21T09:25:16Z</time>
      </trkpt>
      <trkpt lat="47.02883" lon="5.24101">
        <ele>194</ele>
        <time>2022-03-21T09:25:17Z</time>
      </trkpt>
      <trkpt lat="47.02886" lon="5.2409">
        <ele>194</ele>
        <time>2022-03-21T09:25:18Z</time>
      </trkpt>
      <trkpt lat="47.02889" lon="5.2408">
        <ele>194</ele>
        <time>2022-03-21T09:25:19Z</time>
      </trkpt>
      <trkpt lat="47.02892" lon="5.24069">
        <ele>194</ele>
        <time>2022-03-21T09:25:20Z</time>
      </trkpt>
      <trkpt lat="47.02895" lon="5.24058">
        <ele>193.8</ele>
        <time>2022-03-21T09:25:21Z</time>
      </trkpt>
      <trkpt lat="47.02898" lon="5.24047">
        <ele>193.8</ele>
        <time>2022-03-21T09:25:22Z</time>
      </trkpt>
      <trkpt lat="47.02901" lon="5.24037">
        <ele>193.8</ele>
        <time>2022-03-21T09:25:23Z</time>
      </trkpt>
      <trkpt lat="47.02904" lon="5.24026">
        <ele>193.8</ele>
        <time>2022-03-21T09:25:24Z</time>
      </trkpt>
      <trkpt lat="47.02907" lon="5.24015">
        <ele>193.8</ele>
        <time>2022-03-21T09:25:25Z</time>
      </trkpt>
      <trkpt lat="47.0291" lon="5.24005">
        <ele>193.8</ele>
        <time>2022-03-21T09:25:26Z</time>
      </trkpt>
      <trkpt lat="47.02913" lon="5.23994">
        <ele>193.8</ele>
        <time>2022-03-21T09:25:27Z</time>
      </trkpt>
      <trkpt lat="47.02916" lon="5.23983">
        <ele>193.8</ele>
        <time>2022-03-21T09:25:28Z</time>
      </trkpt>
      <trkpt lat="47.02919" lon="5.23973">
        <ele>193.8</ele>
        <time>2022-03-21T09:25:29Z</time>
      </trkpt>
      <trkpt lat="47.02922" lon="5.23962">
        <ele>193.8</ele>
        <time>2022-03-21T09:25:30Z</time>
      </trkpt>
      <trkpt lat="47.02924" lon="5.23952">
        <ele>193.8</ele>
        <time>2022-03-21T09:25:31Z</time>
      </trkpt>
      <trkpt lat="47.02927" lon="5.23941">
        <ele>193.8</ele>
        <time>2022-03-21T09:25:32Z</time>
      </trkpt>
      <trkpt lat="47.0293" lon="5.2393">
        <ele>193.8</ele>
        <time>2022-03-21T09:25:33Z</time>
      </trkpt>
      <trkpt lat="47.02933" lon="5.2392">
        <ele>193.8</ele>
        <time>2022-03-21T09:25:34Z</time>
      </trkpt>
      <trkpt lat="47.02935" lon="5.23909">
        <ele>193.8</ele>
        <time>2022-03-21T09:25:35Z</time>
      </trkpt>
      <trkpt lat="47.02938" lon="5.23898">
        <ele>193.8</ele>
        <time>2022-03-21T09:25:36Z</time>
      </trkpt>
      <trkpt lat="47.02941" lon="5.23887">
        <ele>193.8</ele>
        <time>2022-03-21T09:25:37Z</time>
      </trkpt>
      <trkpt lat="47.02944" lon="5.23876">
        <ele>193.8</ele>
        <time>2022-03-21T09:25:38Z</time>
      </trkpt>
      <trkpt lat="47.02948" lon="5.23865">
        <ele>193.6</ele>
        <time>2022-03-21T09:25:39Z</time>
      </trkpt>
      <trkpt lat="47.02951" lon="5.23854">
        <ele>193.6</ele>
        <time>2022-03-21T09:25:40Z</time>
      </trkpt>
      <trkpt lat="47.02954" lon="5.23843">
        <ele>193.6</ele>
        <time>2022-03-21T09:25:41Z</time>
      </trkpt>
      <trkpt lat="47.02957" lon="5.23832">
        <ele>193.6</ele>
        <time>2022-03-21T09:25:42Z</time>
      </trkpt>
      <trkpt lat="47.0296" lon="5.23821">
        <ele>193.6</ele>
        <time>2022-03-21T09:25:43Z</time>
      </trkpt>
      <trkpt lat="47.02963" lon="5.2381">
        <ele>193.6</ele>
        <time>2022-03-21T09:25:44Z</time>
      </trkpt>
      <trkpt lat="47.02966" lon="5.238">
        <ele>193.6</ele>
        <time>2022-03-21T09:25:45Z</time>
      </trkpt>
      <trkpt lat="47.02969" lon="5.23789">
        <ele>193.4</ele>
        <time>2022-03-21T09:25:46Z</time>
      </trkpt>
      <trkpt lat="47.02972" lon="5.23778">
        <ele>193.4</ele>
        <time>2022-03-21T09:25:47Z</time>
      </trkpt>
      <trkpt lat="47.02975" lon="5.23767">
        <ele>193.4</ele>
        <time>2022-03-21T09:25:48Z</time>
      </trkpt>
      <trkpt lat="47.02978" lon="5.23757">
        <ele>193.4</ele>
        <time>2022-03-21T09:25:49Z</time>
      </trkpt>
      <trkpt lat="47.02981" lon="5.23746">
        <ele>193.4</ele>
        <time>2022-03-21T09:25:50Z</time>
      </trkpt>
      <trkpt lat="47.02984" lon="5.23735">
        <ele>193.4</ele>
        <time>2022-03-21T09:25:51Z</time>
      </trkpt>
      <trkpt lat="47.02987" lon="5.23724">
        <ele>193.4</ele>
        <time>2022-03-21T09:25:52Z</time>
      </trkpt>
      <trkpt lat="47.0299" lon="5.23713">
        <ele>193.4</ele>
        <time>2022-03-21T09:25:53Z</time>
      </trkpt>
      <trkpt lat="47.02993" lon="5.23703">
        <ele>193.4</ele>
        <time>2022-03-21T09:25:54Z</time>
      </trkpt>
      <trkpt lat="47.02996" lon="5.23692">
        <ele>193.4</ele>
        <time>2022-03-21T09:25:55Z</time>
      </trkpt>
      <trkpt lat="47.02999" lon="5.23681">
        <ele>193.4</ele>
        <time>2022-03-21T09:25:56Z</time>
      </trkpt>
      <trkpt lat="47.03002" lon="5.2367">
        <ele>193.4</ele>
        <time>2022-03-21T09:25:57Z</time>
      </trkpt>
      <trkpt lat="47.03005" lon="5.23659">
        <ele>193.6</ele>
        <time>2022-03-21T09:25:58Z</time>
      </trkpt>
      <trkpt lat="47.03008" lon="5.23648">
        <ele>193.6</ele>
        <time>2022-03-21T09:25:59Z</time>
      </trkpt>
      <trkpt lat="47.03011" lon="5.23637">
        <ele>193.6</ele>
        <time>2022-03-21T09:26:00Z</time>
      </trkpt>
      <trkpt lat="47.03014" lon="5.23626">
        <ele>193.6</ele>
        <time>2022-03-21T09:26:01Z</time>
      </trkpt>
      <trkpt lat="47.03017" lon="5.23615">
        <ele>193.6</ele>
        <time>2022-03-21T09:26:02Z</time>
      </trkpt>
      <trkpt lat="47.0302" lon="5.23604">
        <ele>193.6</ele>
        <time>2022-03-21T09:26:03Z</time>
      </trkpt>
      <trkpt lat="47.03023" lon="5.23594">
        <ele>193.6</ele>
        <time>2022-03-21T09:26:04Z</time>
      </trkpt>
      <trkpt lat="47.03026" lon="5.23583">
        <ele>193.6</ele>
        <time>2022-03-21T09:26:05Z</time>
      </trkpt>
      <trkpt lat="47.03029" lon="5.23572">
        <ele>193.6</ele>
        <time>2022-03-21T09:26:06Z</time>
      </trkpt>
      <trkpt lat="47.03032" lon="5.23562">
        <ele>193.6</ele>
        <time>2022-03-21T09:26:07Z</time>
      </trkpt>
      <trkpt lat="47.03035" lon="5.23551">
        <ele>193.6</ele>
        <time>2022-03-21T09:26:08Z</time>
      </trkpt>
      <trkpt lat="47.03038" lon="5.23541">
        <ele>193.6</ele>
        <time>2022-03-21T09:26:09Z</time>
      </trkpt>
      <trkpt lat="47.03041" lon="5.23531">
        <ele>193.8</ele>
        <time>2022-03-21T09:26:10Z</time>
      </trkpt>
      <trkpt lat="47.03044" lon="5.2352">
        <ele>193.8</ele>
        <time>2022-03-21T09:26:11Z</time>
      </trkpt>
      <trkpt lat="47.03047" lon="5.2351">
        <ele>193.8</ele>
        <time>2022-03-21T09:26:12Z</time>
      </trkpt>
      <trkpt lat="47.03049" lon="5.23499">
        <ele>193.8</ele>
        <time>2022-03-21T09:26:13Z</time>
      </trkpt>
      <trkpt lat="47.03053" lon="5.23489">
        <ele>193.8</ele>
        <time>2022-03-21T09:26:14Z</time>
      </trkpt>
      <trkpt lat="47.03056" lon="5.23478">
        <ele>193.6</ele>
        <time>2022-03-21T09:26:15Z</time>
      </trkpt>
      <trkpt lat="47.03058" lon="5.23467">
        <ele>193.6</ele>
        <time>2022-03-21T09:26:16Z</time>
      </trkpt>
      <trkpt lat="47.03061" lon="5.23456">
        <ele>193.6</ele>
        <time>2022-03-21T09:26:17Z</time>
      </trkpt>
      <trkpt lat="47.03065" lon="5.23445">
        <ele>193.6</ele>
        <time>2022-03-21T09:26:18Z</time>
      </trkpt>
      <trkpt lat="47.03068" lon="5.23434">
        <ele>193.6</ele>
        <time>2022-03-21T09:26:19Z</time>
      </trkpt>
      <trkpt lat="47.03071" lon="5.23423">
        <ele>193.6</ele>
        <time>2022-03-21T09:26:20Z</time>
      </trkpt>
      <trkpt lat="47.03074" lon="5.23411">
        <ele>193.6</ele>
        <time>2022-03-21T09:26:21Z</time>
      </trkpt>
      <trkpt lat="47.03077" lon="5.234">
        <ele>193.6</ele>
        <time>2022-03-21T09:26:22Z</time>
      </trkpt>
      <trkpt lat="47.03081" lon="5.23389">
        <ele>193.6</ele>
        <time>2022-03-21T09:26:23Z</time>
      </trkpt>
      <trkpt lat="47.03084" lon="5.23377">
        <ele>193.4</ele>
        <time>2022-03-21T09:26:24Z</time>
      </trkpt>
      <trkpt lat="47.03087" lon="5.23366">
        <ele>193.4</ele>
        <time>2022-03-21T09:26:25Z</time>
      </trkpt>
      <trkpt lat="47.0309" lon="5.23355">
        <ele>193.4</ele>
        <time>2022-03-21T09:26:26Z</time>
      </trkpt>
      <trkpt lat="47.03093" lon="5.23343">
        <ele>193.4</ele>
        <time>2022-03-21T09:26:27Z</time>
      </trkpt>
      <trkpt lat="47.03096" lon="5.23332">
        <ele>193.4</ele>
        <time>2022-03-21T09:26:28Z</time>
      </trkpt>
      <trkpt lat="47.03099" lon="5.23321">
        <ele>193.4</ele>
        <time>2022-03-21T09:26:29Z</time>
      </trkpt>
      <trkpt lat="47.03102" lon="5.2331">
        <ele>193.4</ele>
        <time>2022-03-21T09:26:30Z</time>
      </trkpt>
      <trkpt lat="47.03105" lon="5.23299">
        <ele>193.4</ele>
        <time>2022-03-21T09:26:31Z</time>
      </trkpt>
      <trkpt lat="47.03108" lon="5.23288">
        <ele>193.4</ele>
        <time>2022-03-21T09:26:32Z</time>
      </trkpt>
      <trkpt lat="47.03111" lon="5.23277">
        <ele>193.4</ele>
        <time>2022-03-21T09:26:33Z</time>
      </trkpt>
      <trkpt lat="47.03117" lon="5.23256">
        <ele>193.4</ele>
        <time>2022-03-21T09:26:34Z</time>
      </trkpt>
      <trkpt lat="47.0312" lon="5.23245">
        <ele>193.6</ele>
        <time>2022-03-21T09:26:35Z</time>
      </trkpt>
      <trkpt lat="47.03124" lon="5.23234">
        <ele>193.6</ele>
        <time>2022-03-21T09:26:36Z</time>
      </trkpt>
      <trkpt lat="47.03127" lon="5.23224">
        <ele>193.6</ele>
        <time>2022-03-21T09:26:37Z</time>
      </trkpt>
      <trkpt lat="47.0313" lon="5.23213">
        <ele>193.6</ele>
        <time>2022-03-21T09:26:38Z</time>
      </trkpt>
      <trkpt lat="47.03133" lon="5.23202">
        <ele>193.6</ele>
        <time>2022-03-21T09:26:39Z</time>
      </trkpt>
      <trkpt lat="47.03136" lon="5.23192">
        <ele>193.6</ele>
        <time>2022-03-21T09:26:41Z</time>
      </trkpt>
      <trkpt lat="47.03139" lon="5.23181">
        <ele>193.6</ele>
        <time>2022-03-21T09:26:42Z</time>
      </trkpt>
      <trkpt lat="47.03142" lon="5.2317">
        <ele>193.6</ele>
        <time>2022-03-21T09:26:43Z</time>
      </trkpt>
      <trkpt lat="47.03145" lon="5.2316">
        <ele>193.6</ele>
        <time>2022-03-21T09:26:44Z</time>
      </trkpt>
      <trkpt lat="47.03148" lon="5.23149">
        <ele>193.8</ele>
        <time>2022-03-21T09:26:45Z</time>
      </trkpt>
      <trkpt lat="47.03151" lon="5.23138">
        <ele>193.8</ele>
        <time>2022-03-21T09:26:46Z</time>
      </trkpt>
      <trkpt lat="47.03154" lon="5.23127">
        <ele>193.8</ele>
        <time>2022-03-21T09:26:47Z</time>
      </trkpt>
      <trkpt lat="47.03157" lon="5.23116">
        <ele>193.8</ele>
        <time>2022-03-21T09:26:48Z</time>
      </trkpt>
      <trkpt lat="47.0316" lon="5.23105">
        <ele>193.8</ele>
        <time>2022-03-21T09:26:49Z</time>
      </trkpt>
      <trkpt lat="47.03163" lon="5.23094">
        <ele>194</ele>
        <time>2022-03-21T09:26:50Z</time>
      </trkpt>
      <trkpt lat="47.03166" lon="5.23083">
        <ele>194</ele>
        <time>2022-03-21T09:26:51Z</time>
      </trkpt>
      <trkpt lat="47.03169" lon="5.23072">
        <ele>194</ele>
        <time>2022-03-21T09:26:52Z</time>
      </trkpt>
      <trkpt lat="47.03172" lon="5.23061">
        <ele>194</ele>
        <time>2022-03-21T09:26:53Z</time>
      </trkpt>
      <trkpt lat="47.03175" lon="5.2305">
        <ele>194</ele>
        <time>2022-03-21T09:26:54Z</time>
      </trkpt>
      <trkpt lat="47.03179" lon="5.23038">
        <ele>194</ele>
        <time>2022-03-21T09:26:55Z</time>
      </trkpt>
      <trkpt lat="47.03182" lon="5.23027">
        <ele>194</ele>
        <time>2022-03-21T09:26:56Z</time>
      </trkpt>
      <trkpt lat="47.03185" lon="5.23016">
        <ele>194</ele>
        <time>2022-03-21T09:26:57Z</time>
      </trkpt>
      <trkpt lat="47.03188" lon="5.23005">
        <ele>194</ele>
        <time>2022-03-21T09:26:58Z</time>
      </trkpt>
      <trkpt lat="47.03191" lon="5.22993">
        <ele>194</ele>
        <time>2022-03-21T09:26:59Z</time>
      </trkpt>
      <trkpt lat="47.03194" lon="5.22982">
        <ele>194</ele>
        <time>2022-03-21T09:27:00Z</time>
      </trkpt>
      <trkpt lat="47.03197" lon="5.22971">
        <ele>194</ele>
        <time>2022-03-21T09:27:01Z</time>
      </trkpt>
      <trkpt lat="47.032" lon="5.22959">
        <ele>194</ele>
        <time>2022-03-21T09:27:02Z</time>
      </trkpt>
      <trkpt lat="47.03204" lon="5.22948">
        <ele>194</ele>
        <time>2022-03-21T09:27:03Z</time>
      </trkpt>
      <trkpt lat="47.03207" lon="5.22937">
        <ele>194</ele>
        <time>2022-03-21T09:27:04Z</time>
      </trkpt>
      <trkpt lat="47.0321" lon="5.22926">
        <ele>194</ele>
        <time>2022-03-21T09:27:05Z</time>
      </trkpt>
      <trkpt lat="47.03213" lon="5.22914">
        <ele>194</ele>
        <time>2022-03-21T09:27:06Z</time>
      </trkpt>
      <trkpt lat="47.03216" lon="5.22903">
        <ele>194</ele>
        <time>2022-03-21T09:27:07Z</time>
      </trkpt>
      <trkpt lat="47.03219" lon="5.22892">
        <ele>194</ele>
        <time>2022-03-21T09:27:08Z</time>
      </trkpt>
      <trkpt lat="47.03222" lon="5.22881">
        <ele>194</ele>
        <time>2022-03-21T09:27:09Z</time>
      </trkpt>
      <trkpt lat="47.03225" lon="5.2287">
        <ele>194</ele>
        <time>2022-03-21T09:27:10Z</time>
      </trkpt>
      <trkpt lat="47.03228" lon="5.22858">
        <ele>194</ele>
        <time>2022-03-21T09:27:11Z</time>
      </trkpt>
      <trkpt lat="47.03231" lon="5.22847">
        <ele>194</ele>
        <time>2022-03-21T09:27:12Z</time>
      </trkpt>
      <trkpt lat="47.03234" lon="5.22836">
        <ele>194</ele>
        <time>2022-03-21T09:27:13Z</time>
      </trkpt>
      <trkpt lat="47.03237" lon="5.22825">
        <ele>194</ele>
        <time>2022-03-21T09:27:14Z</time>
      </trkpt>
      <trkpt lat="47.0324" lon="5.22814">
        <ele>194</ele>
        <time>2022-03-21T09:27:15Z</time>
      </trkpt>
      <trkpt lat="47.03243" lon="5.22804">
        <ele>194</ele>
        <time>2022-03-21T09:27:16Z</time>
      </trkpt>
      <trkpt lat="47.03246" lon="5.22793">
        <ele>194</ele>
        <time>2022-03-21T09:27:17Z</time>
      </trkpt>
      <trkpt lat="47.03249" lon="5.22782">
        <ele>194</ele>
        <time>2022-03-21T09:27:18Z</time>
      </trkpt>
      <trkpt lat="47.03253" lon="5.22772">
        <ele>194</ele>
        <time>2022-03-21T09:27:19Z</time>
      </trkpt>
      <trkpt lat="47.03256" lon="5.22761">
        <ele>194</ele>
        <time>2022-03-21T09:27:20Z</time>
      </trkpt>
      <trkpt lat="47.03259" lon="5.22751">
        <ele>194</ele>
        <time>2022-03-21T09:27:21Z</time>
      </trkpt>
      <trkpt lat="47.03262" lon="5.2274">
        <ele>194</ele>
        <time>2022-03-21T09:27:22Z</time>
      </trkpt>
      <trkpt lat="47.03265" lon="5.22729">
        <ele>194</ele>
        <time>2022-03-21T09:27:23Z</time>
      </trkpt>
      <trkpt lat="47.03268" lon="5.22719">
        <ele>194</ele>
        <time>2022-03-21T09:27:24Z</time>
      </trkpt>
      <trkpt lat="47.03271" lon="5.22708">
        <ele>194</ele>
        <time>2022-03-21T09:27:25Z</time>
      </trkpt>
      <trkpt lat="47.03273" lon="5.22697">
        <ele>194</ele>
        <time>2022-03-21T09:27:26Z</time>
      </trkpt>
      <trkpt lat="47.03276" lon="5.22686">
        <ele>194</ele>
        <time>2022-03-21T09:27:27Z</time>
      </trkpt>
      <trkpt lat="47.03279" lon="5.22675">
        <ele>194</ele>
        <time>2022-03-21T09:27:28Z</time>
      </trkpt>
      <trkpt lat="47.03282" lon="5.22665">
        <ele>194</ele>
        <time>2022-03-21T09:27:29Z</time>
      </trkpt>
      <trkpt lat="47.03285" lon="5.22654">
        <ele>194</ele>
        <time>2022-03-21T09:27:30Z</time>
      </trkpt>
      <trkpt lat="47.03288" lon="5.22643">
        <ele>194</ele>
        <time>2022-03-21T09:27:31Z</time>
      </trkpt>
      <trkpt lat="47.03291" lon="5.22633">
        <ele>194</ele>
        <time>2022-03-21T09:27:32Z</time>
      </trkpt>
      <trkpt lat="47.03294" lon="5.22622">
        <ele>194</ele>
        <time>2022-03-21T09:27:33Z</time>
      </trkpt>
      <trkpt lat="47.03297" lon="5.22612">
        <ele>194</ele>
        <time>2022-03-21T09:27:34Z</time>
      </trkpt>
      <trkpt lat="47.033" lon="5.22601">
        <ele>194</ele>
        <time>2022-03-21T09:27:35Z</time>
      </trkpt>
      <trkpt lat="47.03303" lon="5.2259">
        <ele>194</ele>
        <time>2022-03-21T09:27:36Z</time>
      </trkpt>
      <trkpt lat="47.03306" lon="5.2258">
        <ele>194</ele>
        <time>2022-03-21T09:27:37Z</time>
      </trkpt>
      <trkpt lat="47.03309" lon="5.22569">
        <ele>194</ele>
        <time>2022-03-21T09:27:38Z</time>
      </trkpt>
      <trkpt lat="47.03312" lon="5.22559">
        <ele>193.8</ele>
        <time>2022-03-21T09:27:39Z</time>
      </trkpt>
      <trkpt lat="47.03315" lon="5.22548">
        <ele>193.8</ele>
        <time>2022-03-21T09:27:40Z</time>
      </trkpt>
      <trkpt lat="47.03318" lon="5.22537">
        <ele>193.8</ele>
        <time>2022-03-21T09:27:41Z</time>
      </trkpt>
      <trkpt lat="47.03321" lon="5.22526">
        <ele>193.8</ele>
        <time>2022-03-21T09:27:42Z</time>
      </trkpt>
      <trkpt lat="47.03324" lon="5.22515">
        <ele>193.8</ele>
        <time>2022-03-21T09:27:43Z</time>
      </trkpt>
      <trkpt lat="47.03327" lon="5.22505">
        <ele>193.8</ele>
        <time>2022-03-21T09:27:44Z</time>
      </trkpt>
      <trkpt lat="47.0333" lon="5.22494">
        <ele>193.8</ele>
        <time>2022-03-21T09:27:45Z</time>
      </trkpt>
      <trkpt lat="47.03333" lon="5.22483">
        <ele>193.8</ele>
        <time>2022-03-21T09:27:46Z</time>
      </trkpt>
      <trkpt lat="47.03336" lon="5.22473">
        <ele>193.6</ele>
        <time>2022-03-21T09:27:47Z</time>
      </trkpt>
      <trkpt lat="47.03339" lon="5.22462">
        <ele>193.6</ele>
        <time>2022-03-21T09:27:48Z</time>
      </trkpt>
      <trkpt lat="47.03342" lon="5.22451">
        <ele>193.6</ele>
        <time>2022-03-21T09:27:49Z</time>
      </trkpt>
      <trkpt lat="47.03345" lon="5.2244">
        <ele>193.6</ele>
        <time>2022-03-21T09:27:50Z</time>
      </trkpt>
      <trkpt lat="47.03348" lon="5.22429">
        <ele>193.6</ele>
        <time>2022-03-21T09:27:51Z</time>
      </trkpt>
      <trkpt lat="47.03351" lon="5.22418">
        <ele>193.6</ele>
        <time>2022-03-21T09:27:52Z</time>
      </trkpt>
      <trkpt lat="47.03354" lon="5.22407">
        <ele>193.6</ele>
        <time>2022-03-21T09:27:53Z</time>
      </trkpt>
      <trkpt lat="47.03357" lon="5.22396">
        <ele>193.6</ele>
        <time>2022-03-21T09:27:54Z</time>
      </trkpt>
      <trkpt lat="47.03361" lon="5.22385">
        <ele>193.6</ele>
        <time>2022-03-21T09:27:55Z</time>
      </trkpt>
      <trkpt lat="47.03363" lon="5.22374">
        <ele>193.6</ele>
        <time>2022-03-21T09:27:56Z</time>
      </trkpt>
      <trkpt lat="47.03366" lon="5.22363">
        <ele>193.6</ele>
        <time>2022-03-21T09:27:57Z</time>
      </trkpt>
      <trkpt lat="47.0337" lon="5.22352">
        <ele>193.6</ele>
        <time>2022-03-21T09:27:58Z</time>
      </trkpt>
      <trkpt lat="47.03373" lon="5.22341">
        <ele>193.6</ele>
        <time>2022-03-21T09:27:59Z</time>
      </trkpt>
      <trkpt lat="47.03376" lon="5.2233">
        <ele>193.4</ele>
        <time>2022-03-21T09:28:00Z</time>
      </trkpt>
      <trkpt lat="47.03379" lon="5.22319">
        <ele>193.4</ele>
        <time>2022-03-21T09:28:01Z</time>
      </trkpt>
      <trkpt lat="47.03382" lon="5.22308">
        <ele>193.4</ele>
        <time>2022-03-21T09:28:02Z</time>
      </trkpt>
      <trkpt lat="47.03385" lon="5.22297">
        <ele>193.4</ele>
        <time>2022-03-21T09:28:03Z</time>
      </trkpt>
      <trkpt lat="47.03388" lon="5.22286">
        <ele>193.4</ele>
        <time>2022-03-21T09:28:04Z</time>
      </trkpt>
      <trkpt lat="47.03391" lon="5.22275">
        <ele>193</ele>
        <time>2022-03-21T09:28:05Z</time>
      </trkpt>
      <trkpt lat="47.03394" lon="5.22264">
        <ele>193</ele>
        <time>2022-03-21T09:28:06Z</time>
      </trkpt>
      <trkpt lat="47.03397" lon="5.22253">
        <ele>193</ele>
        <time>2022-03-21T09:28:07Z</time>
      </trkpt>
      <trkpt lat="47.034" lon="5.22242">
        <ele>193</ele>
        <time>2022-03-21T09:28:08Z</time>
      </trkpt>
      <trkpt lat="47.03403" lon="5.22231">
        <ele>193</ele>
        <time>2022-03-21T09:28:09Z</time>
      </trkpt>
      <trkpt lat="47.03406" lon="5.2222">
        <ele>193</ele>
        <time>2022-03-21T09:28:10Z</time>
      </trkpt>
      <trkpt lat="47.03409" lon="5.22209">
        <ele>193</ele>
        <time>2022-03-21T09:28:11Z</time>
      </trkpt>
      <trkpt lat="47.03412" lon="5.22198">
        <ele>193</ele>
        <time>2022-03-21T09:28:12Z</time>
      </trkpt>
      <trkpt lat="47.03415" lon="5.22187">
        <ele>193</ele>
        <time>2022-03-21T09:28:13Z</time>
      </trkpt>
      <trkpt lat="47.03418" lon="5.22176">
        <ele>193.4</ele>
        <time>2022-03-21T09:28:14Z</time>
      </trkpt>
      <trkpt lat="47.03422" lon="5.22165">
        <ele>193.4</ele>
        <time>2022-03-21T09:28:15Z</time>
      </trkpt>
      <trkpt lat="47.03425" lon="5.22154">
        <ele>193.4</ele>
        <time>2022-03-21T09:28:16Z</time>
      </trkpt>
      <trkpt lat="47.03428" lon="5.22143">
        <ele>193.4</ele>
        <time>2022-03-21T09:28:18Z</time>
      </trkpt>
      <trkpt lat="47.03431" lon="5.22132">
        <ele>193.6</ele>
        <time>2022-03-21T09:28:19Z</time>
      </trkpt>
      <trkpt lat="47.03434" lon="5.22121">
        <ele>193.6</ele>
        <time>2022-03-21T09:28:20Z</time>
      </trkpt>
      <trkpt lat="47.03437" lon="5.22111">
        <ele>193.6</ele>
        <time>2022-03-21T09:28:21Z</time>
      </trkpt>
      <trkpt lat="47.0344" lon="5.221">
        <ele>193.8</ele>
        <time>2022-03-21T09:28:22Z</time>
      </trkpt>
      <trkpt lat="47.03443" lon="5.2209">
        <ele>193.8</ele>
        <time>2022-03-21T09:28:23Z</time>
      </trkpt>
      <trkpt lat="47.03446" lon="5.22079">
        <ele>193.8</ele>
        <time>2022-03-21T09:28:24Z</time>
      </trkpt>
      <trkpt lat="47.03449" lon="5.22069">
        <ele>193.8</ele>
        <time>2022-03-21T09:28:25Z</time>
      </trkpt>
      <trkpt lat="47.03451" lon="5.22059">
        <ele>193.8</ele>
        <time>2022-03-21T09:28:26Z</time>
      </trkpt>
      <trkpt lat="47.03454" lon="5.22048">
        <ele>193.8</ele>
        <time>2022-03-21T09:28:27Z</time>
      </trkpt>
      <trkpt lat="47.03457" lon="5.22038">
        <ele>193.8</ele>
        <time>2022-03-21T09:28:28Z</time>
      </trkpt>
      <trkpt lat="47.0346" lon="5.22027">
        <ele>193.8</ele>
        <time>2022-03-21T09:28:29Z</time>
      </trkpt>
      <trkpt lat="47.03464" lon="5.22017">
        <ele>193.8</ele>
        <time>2022-03-21T09:28:30Z</time>
      </trkpt>
      <trkpt lat="47.03466" lon="5.22006">
        <ele>193.6</ele>
        <time>2022-03-21T09:28:31Z</time>
      </trkpt>
      <trkpt lat="47.03469" lon="5.21995">
        <ele>193.6</ele>
        <time>2022-03-21T09:28:32Z</time>
      </trkpt>
      <trkpt lat="47.03472" lon="5.21984">
        <ele>193.6</ele>
        <time>2022-03-21T09:28:33Z</time>
      </trkpt>
      <trkpt lat="47.03475" lon="5.21973">
        <ele>193.6</ele>
        <time>2022-03-21T09:28:34Z</time>
      </trkpt>
      <trkpt lat="47.03478" lon="5.21961">
        <ele>193.6</ele>
        <time>2022-03-21T09:28:35Z</time>
      </trkpt>
      <trkpt lat="47.03481" lon="5.2195">
        <ele>193.6</ele>
        <time>2022-03-21T09:28:36Z</time>
      </trkpt>
      <trkpt lat="47.03485" lon="5.21938">
        <ele>193.6</ele>
        <time>2022-03-21T09:28:37Z</time>
      </trkpt>
      <trkpt lat="47.03488" lon="5.21926">
        <ele>193.6</ele>
        <time>2022-03-21T09:28:38Z</time>
      </trkpt>
      <trkpt lat="47.03492" lon="5.21914">
        <ele>193.6</ele>
        <time>2022-03-21T09:28:39Z</time>
      </trkpt>
      <trkpt lat="47.03495" lon="5.21903">
        <ele>193.6</ele>
        <time>2022-03-21T09:28:40Z</time>
      </trkpt>
      <trkpt lat="47.03498" lon="5.21891">
        <ele>193.6</ele>
        <time>2022-03-21T09:28:41Z</time>
      </trkpt>
      <trkpt lat="47.03501" lon="5.2188">
        <ele>193.6</ele>
        <time>2022-03-21T09:28:42Z</time>
      </trkpt>
      <trkpt lat="47.03505" lon="5.21868">
        <ele>193.6</ele>
        <time>2022-03-21T09:28:43Z</time>
      </trkpt>
      <trkpt lat="47.03508" lon="5.21857">
        <ele>193.6</ele>
        <time>2022-03-21T09:28:44Z</time>
      </trkpt>
      <trkpt lat="47.03511" lon="5.21845">
        <ele>193.6</ele>
        <time>2022-03-21T09:28:45Z</time>
      </trkpt>
      <trkpt lat="47.03514" lon="5.21833">
        <ele>193.4</ele>
        <time>2022-03-21T09:28:46Z</time>
      </trkpt>
      <trkpt lat="47.03518" lon="5.21822">
        <ele>193.4</ele>
        <time>2022-03-21T09:28:47Z</time>
      </trkpt>
      <trkpt lat="47.03521" lon="5.2181">
        <ele>193.4</ele>
        <time>2022-03-21T09:28:48Z</time>
      </trkpt>
      <trkpt lat="47.03524" lon="5.21798">
        <ele>193.4</ele>
        <time>2022-03-21T09:28:49Z</time>
      </trkpt>
      <trkpt lat="47.03527" lon="5.21787">
        <ele>193.4</ele>
        <time>2022-03-21T09:28:50Z</time>
      </trkpt>
      <trkpt lat="47.03531" lon="5.21775">
        <ele>193.4</ele>
        <time>2022-03-21T09:28:51Z</time>
      </trkpt>
      <trkpt lat="47.03534" lon="5.21764">
        <ele>193</ele>
        <time>2022-03-21T09:28:52Z</time>
      </trkpt>
      <trkpt lat="47.03537" lon="5.21752">
        <ele>193</ele>
        <time>2022-03-21T09:28:53Z</time>
      </trkpt>
      <trkpt lat="47.0354" lon="5.21741">
        <ele>193</ele>
        <time>2022-03-21T09:28:54Z</time>
      </trkpt>
      <trkpt lat="47.03544" lon="5.2173">
        <ele>193</ele>
        <time>2022-03-21T09:28:55Z</time>
      </trkpt>
      <trkpt lat="47.03547" lon="5.21718">
        <ele>193</ele>
        <time>2022-03-21T09:28:56Z</time>
      </trkpt>
      <trkpt lat="47.0355" lon="5.21707">
        <ele>193</ele>
        <time>2022-03-21T09:28:57Z</time>
      </trkpt>
      <trkpt lat="47.03553" lon="5.21695">
        <ele>193</ele>
        <time>2022-03-21T09:28:58Z</time>
      </trkpt>
      <trkpt lat="47.03555" lon="5.21684">
        <ele>193</ele>
        <time>2022-03-21T09:28:59Z</time>
      </trkpt>
      <trkpt lat="47.03558" lon="5.21672">
        <ele>193</ele>
        <time>2022-03-21T09:29:00Z</time>
      </trkpt>
      <trkpt lat="47.0356" lon="5.2166">
        <ele>193</ele>
        <time>2022-03-21T09:29:01Z</time>
      </trkpt>
      <trkpt lat="47.03563" lon="5.21649">
        <ele>193</ele>
        <time>2022-03-21T09:29:02Z</time>
      </trkpt>
      <trkpt lat="47.03566" lon="5.21637">
        <ele>193</ele>
        <time>2022-03-21T09:29:03Z</time>
      </trkpt>
      <trkpt lat="47.03568" lon="5.21625">
        <ele>193</ele>
        <time>2022-03-21T09:29:04Z</time>
      </trkpt>
      <trkpt lat="47.0357" lon="5.21613">
        <ele>193</ele>
        <time>2022-03-21T09:29:05Z</time>
      </trkpt>
      <trkpt lat="47.03575" lon="5.21589">
        <ele>193</ele>
        <time>2022-03-21T09:29:06Z</time>
      </trkpt>
      <trkpt lat="47.03577" lon="5.21577">
        <ele>193</ele>
        <time>2022-03-21T09:29:07Z</time>
      </trkpt>
      <trkpt lat="47.03579" lon="5.21565">
        <ele>192.8</ele>
        <time>2022-03-21T09:29:08Z</time>
      </trkpt>
      <trkpt lat="47.03582" lon="5.21553">
        <ele>192.8</ele>
        <time>2022-03-21T09:29:09Z</time>
      </trkpt>
      <trkpt lat="47.03584" lon="5.21541">
        <ele>192.8</ele>
        <time>2022-03-21T09:29:10Z</time>
      </trkpt>
      <trkpt lat="47.03586" lon="5.21529">
        <ele>192.8</ele>
        <time>2022-03-21T09:29:11Z</time>
      </trkpt>
      <trkpt lat="47.03589" lon="5.21517">
        <ele>192.8</ele>
        <time>2022-03-21T09:29:12Z</time>
      </trkpt>
      <trkpt lat="47.03591" lon="5.21505">
        <ele>192.8</ele>
        <time>2022-03-21T09:29:13Z</time>
      </trkpt>
      <trkpt lat="47.03593" lon="5.21494">
        <ele>192.8</ele>
        <time>2022-03-21T09:29:14Z</time>
      </trkpt>
      <trkpt lat="47.03595" lon="5.21482">
        <ele>192.6</ele>
        <time>2022-03-21T09:29:15Z</time>
      </trkpt>
      <trkpt lat="47.03598" lon="5.2147">
        <ele>192.6</ele>
        <time>2022-03-21T09:29:16Z</time>
      </trkpt>
      <trkpt lat="47.036" lon="5.21459">
        <ele>192.6</ele>
        <time>2022-03-21T09:29:17Z</time>
      </trkpt>
      <trkpt lat="47.03602" lon="5.21447">
        <ele>192</ele>
        <time>2022-03-21T09:29:18Z</time>
      </trkpt>
      <trkpt lat="47.03604" lon="5.21435">
        <ele>192</ele>
        <time>2022-03-21T09:29:19Z</time>
      </trkpt>
      <trkpt lat="47.03607" lon="5.21423">
        <ele>192</ele>
        <time>2022-03-21T09:29:20Z</time>
      </trkpt>
      <trkpt lat="47.03609" lon="5.21411">
        <ele>191.8</ele>
        <time>2022-03-21T09:29:21Z</time>
      </trkpt>
      <trkpt lat="47.03611" lon="5.21399">
        <ele>191.8</ele>
        <time>2022-03-21T09:29:22Z</time>
      </trkpt>
      <trkpt lat="47.03614" lon="5.21387">
        <ele>191.6</ele>
        <time>2022-03-21T09:29:23Z</time>
      </trkpt>
      <trkpt lat="47.03616" lon="5.21375">
        <ele>191.6</ele>
        <time>2022-03-21T09:29:24Z</time>
      </trkpt>
      <trkpt lat="47.03618" lon="5.21363">
        <ele>191.4</ele>
        <time>2022-03-21T09:29:25Z</time>
      </trkpt>
      <trkpt lat="47.03621" lon="5.21351">
        <ele>191.4</ele>
        <time>2022-03-21T09:29:26Z</time>
      </trkpt>
      <trkpt lat="47.03624" lon="5.21339">
        <ele>191</ele>
        <time>2022-03-21T09:29:27Z</time>
      </trkpt>
      <trkpt lat="47.03626" lon="5.21327">
        <ele>191</ele>
        <time>2022-03-21T09:29:28Z</time>
      </trkpt>
      <trkpt lat="47.03629" lon="5.21315">
        <ele>190.8</ele>
        <time>2022-03-21T09:29:29Z</time>
      </trkpt>
      <trkpt lat="47.03632" lon="5.21302">
        <ele>190.4</ele>
        <time>2022-03-21T09:29:30Z</time>
      </trkpt>
      <trkpt lat="47.03635" lon="5.21289">
        <ele>190.4</ele>
        <time>2022-03-21T09:29:31Z</time>
      </trkpt>
      <trkpt lat="47.03638" lon="5.21277">
        <ele>190.2</ele>
        <time>2022-03-21T09:29:32Z</time>
      </trkpt>
      <trkpt lat="47.03642" lon="5.21265">
        <ele>190.2</ele>
        <time>2022-03-21T09:29:33Z</time>
      </trkpt>
      <trkpt lat="47.03645" lon="5.21252">
        <ele>190</ele>
        <time>2022-03-21T09:29:34Z</time>
      </trkpt>
      <trkpt lat="47.03648" lon="5.2124">
        <ele>190</ele>
        <time>2022-03-21T09:29:35Z</time>
      </trkpt>
      <trkpt lat="47.03651" lon="5.21227">
        <ele>189.6</ele>
        <time>2022-03-21T09:29:36Z</time>
      </trkpt>
      <trkpt lat="47.03655" lon="5.21215">
        <ele>189.6</ele>
        <time>2022-03-21T09:29:37Z</time>
      </trkpt>
      <trkpt lat="47.03658" lon="5.21204">
        <ele>189.6</ele>
        <time>2022-03-21T09:29:38Z</time>
      </trkpt>
      <trkpt lat="47.03662" lon="5.21192">
        <ele>189.6</ele>
        <time>2022-03-21T09:29:39Z</time>
      </trkpt>
      <trkpt lat="47.03665" lon="5.21181">
        <ele>189.6</ele>
        <time>2022-03-21T09:29:40Z</time>
      </trkpt>
      <trkpt lat="47.03668" lon="5.21169">
        <ele>189.6</ele>
        <time>2022-03-21T09:29:41Z</time>
      </trkpt>
      <trkpt lat="47.03672" lon="5.21157">
        <ele>189.6</ele>
        <time>2022-03-21T09:29:42Z</time>
      </trkpt>
      <trkpt lat="47.03675" lon="5.21146">
        <ele>189.6</ele>
        <time>2022-03-21T09:29:43Z</time>
      </trkpt>
      <trkpt lat="47.03679" lon="5.21135">
        <ele>189.6</ele>
        <time>2022-03-21T09:29:44Z</time>
      </trkpt>
      <trkpt lat="47.03682" lon="5.21124">
        <ele>189.6</ele>
        <time>2022-03-21T09:29:45Z</time>
      </trkpt>
      <trkpt lat="47.03686" lon="5.21113">
        <ele>189.6</ele>
        <time>2022-03-21T09:29:46Z</time>
      </trkpt>
      <trkpt lat="47.0369" lon="5.21102">
        <ele>189.6</ele>
        <time>2022-03-21T09:29:47Z</time>
      </trkpt>
      <trkpt lat="47.03694" lon="5.21092">
        <ele>189.6</ele>
        <time>2022-03-21T09:29:48Z</time>
      </trkpt>
      <trkpt lat="47.03698" lon="5.21081">
        <ele>189.6</ele>
        <time>2022-03-21T09:29:49Z</time>
      </trkpt>
      <trkpt lat="47.03702" lon="5.21071">
        <ele>189.6</ele>
        <time>2022-03-21T09:29:50Z</time>
      </trkpt>
      <trkpt lat="47.03707" lon="5.21061">
        <ele>189.6</ele>
        <time>2022-03-21T09:29:51Z</time>
      </trkpt>
      <trkpt lat="47.03711" lon="5.21052">
        <ele>190</ele>
        <time>2022-03-21T09:29:52Z</time>
      </trkpt>
      <trkpt lat="47.03716" lon="5.21043">
        <ele>190</ele>
        <time>2022-03-21T09:29:53Z</time>
      </trkpt>
      <trkpt lat="47.03721" lon="5.21034">
        <ele>190</ele>
        <time>2022-03-21T09:29:54Z</time>
      </trkpt>
      <trkpt lat="47.03726" lon="5.21025">
        <ele>190.2</ele>
        <time>2022-03-21T09:29:55Z</time>
      </trkpt>
      <trkpt lat="47.03731" lon="5.21017">
        <ele>190.2</ele>
        <time>2022-03-21T09:29:56Z</time>
      </trkpt>
      <trkpt lat="47.03736" lon="5.21008">
        <ele>190.2</ele>
        <time>2022-03-21T09:29:57Z</time>
      </trkpt>
      <trkpt lat="47.03741" lon="5.21">
        <ele>190.2</ele>
        <time>2022-03-21T09:29:58Z</time>
      </trkpt>
      <trkpt lat="47.03747" lon="5.20992">
        <ele>190.2</ele>
        <time>2022-03-21T09:29:59Z</time>
      </trkpt>
      <trkpt lat="47.03752" lon="5.20984">
        <ele>190.2</ele>
        <time>2022-03-21T09:30:00Z</time>
      </trkpt>
      <trkpt lat="47.03758" lon="5.20977">
        <ele>190.2</ele>
        <time>2022-03-21T09:30:01Z</time>
      </trkpt>
      <trkpt lat="47.03764" lon="5.2097">
        <ele>190.4</ele>
        <time>2022-03-21T09:30:02Z</time>
      </trkpt>
      <trkpt lat="47.0377" lon="5.20963">
        <ele>190.4</ele>
        <time>2022-03-21T09:30:03Z</time>
      </trkpt>
      <trkpt lat="47.03776" lon="5.20956">
        <ele>190.4</ele>
        <time>2022-03-21T09:30:04Z</time>
      </trkpt>
      <trkpt lat="47.03781" lon="5.2095">
        <ele>190.4</ele>
        <time>2022-03-21T09:30:05Z</time>
      </trkpt>
      <trkpt lat="47.03787" lon="5.20944">
        <ele>190.8</ele>
        <time>2022-03-21T09:30:06Z</time>
      </trkpt>
      <trkpt lat="47.03793" lon="5.20938">
        <ele>190.8</ele>
        <time>2022-03-21T09:30:07Z</time>
      </trkpt>
      <trkpt lat="47.03799" lon="5.20933">
        <ele>191</ele>
        <time>2022-03-21T09:30:08Z</time>
      </trkpt>
      <trkpt lat="47.03805" lon="5.20927">
        <ele>191</ele>
        <time>2022-03-21T09:30:09Z</time>
      </trkpt>
      <trkpt lat="47.03811" lon="5.20922">
        <ele>191.4</ele>
        <time>2022-03-21T09:30:10Z</time>
      </trkpt>
      <trkpt lat="47.03817" lon="5.20917">
        <ele>191.4</ele>
        <time>2022-03-21T09:30:11Z</time>
      </trkpt>
      <trkpt lat="47.03823" lon="5.20912">
        <ele>191.8</ele>
        <time>2022-03-21T09:30:12Z</time>
      </trkpt>
      <trkpt lat="47.0383" lon="5.20906">
        <ele>192</ele>
        <time>2022-03-21T09:30:13Z</time>
      </trkpt>
      <trkpt lat="47.03836" lon="5.20901">
        <ele>192</ele>
        <time>2022-03-21T09:30:14Z</time>
      </trkpt>
      <trkpt lat="47.03842" lon="5.20896">
        <ele>192.4</ele>
        <time>2022-03-21T09:30:15Z</time>
      </trkpt>
      <trkpt lat="47.03848" lon="5.20891">
        <ele>192.4</ele>
        <time>2022-03-21T09:30:16Z</time>
      </trkpt>
      <trkpt lat="47.03854" lon="5.20887">
        <ele>192.6</ele>
        <time>2022-03-21T09:30:17Z</time>
      </trkpt>
      <trkpt lat="47.0386" lon="5.20882">
        <ele>192.6</ele>
        <time>2022-03-21T09:30:18Z</time>
      </trkpt>
      <trkpt lat="47.03866" lon="5.20878">
        <ele>193</ele>
        <time>2022-03-21T09:30:19Z</time>
      </trkpt>
      <trkpt lat="47.03872" lon="5.20873">
        <ele>193</ele>
        <time>2022-03-21T09:30:20Z</time>
      </trkpt>
      <trkpt lat="47.03878" lon="5.20868">
        <ele>193.2</ele>
        <time>2022-03-21T09:30:21Z</time>
      </trkpt>
      <trkpt lat="47.03884" lon="5.20863">
        <ele>193.2</ele>
        <time>2022-03-21T09:30:22Z</time>
      </trkpt>
      <trkpt lat="47.0389" lon="5.20858">
        <ele>193.6</ele>
        <time>2022-03-21T09:30:23Z</time>
      </trkpt>
      <trkpt lat="47.03896" lon="5.20853">
        <ele>193.6</ele>
        <time>2022-03-21T09:30:24Z</time>
      </trkpt>
      <trkpt lat="47.03902" lon="5.20848">
        <ele>194</ele>
        <time>2022-03-21T09:30:25Z</time>
      </trkpt>
      <trkpt lat="47.03908" lon="5.20843">
        <ele>194</ele>
        <time>2022-03-21T09:30:26Z</time>
      </trkpt>
      <trkpt lat="47.03914" lon="5.20839">
        <ele>194.2</ele>
        <time>2022-03-21T09:30:27Z</time>
      </trkpt>
      <trkpt lat="47.0392" lon="5.20835">
        <ele>194.2</ele>
        <time>2022-03-21T09:30:28Z</time>
      </trkpt>
      <trkpt lat="47.03925" lon="5.2083">
        <ele>194.6</ele>
        <time>2022-03-21T09:30:29Z</time>
      </trkpt>
      <trkpt lat="47.03931" lon="5.20826">
        <ele>194.8</ele>
        <time>2022-03-21T09:30:30Z</time>
      </trkpt>
      <trkpt lat="47.03937" lon="5.20821">
        <ele>194.8</ele>
        <time>2022-03-21T09:30:31Z</time>
      </trkpt>
      <trkpt lat="47.03943" lon="5.20817">
        <ele>195</ele>
        <time>2022-03-21T09:30:32Z</time>
      </trkpt>
      <trkpt lat="47.03949" lon="5.20812">
        <ele>195</ele>
        <time>2022-03-21T09:30:33Z</time>
      </trkpt>
      <trkpt lat="47.03956" lon="5.20807">
        <ele>195.6</ele>
        <time>2022-03-21T09:30:34Z</time>
      </trkpt>
      <trkpt lat="47.03961" lon="5.20803">
        <ele>195.6</ele>
        <time>2022-03-21T09:30:35Z</time>
      </trkpt>
      <trkpt lat="47.03968" lon="5.20799">
        <ele>195.8</ele>
        <time>2022-03-21T09:30:36Z</time>
      </trkpt>
      <trkpt lat="47.03974" lon="5.20794">
        <ele>195.8</ele>
        <time>2022-03-21T09:30:37Z</time>
      </trkpt>
      <trkpt lat="47.0398" lon="5.20789">
        <ele>195.8</ele>
        <time>2022-03-21T09:30:38Z</time>
      </trkpt>
      <trkpt lat="47.03986" lon="5.20785">
        <ele>195.8</ele>
        <time>2022-03-21T09:30:39Z</time>
      </trkpt>
      <trkpt lat="47.03992" lon="5.2078">
        <ele>196</ele>
        <time>2022-03-21T09:30:40Z</time>
      </trkpt>
      <trkpt lat="47.03999" lon="5.20775">
        <ele>196</ele>
        <time>2022-03-21T09:30:41Z</time>
      </trkpt>
      <trkpt lat="47.04005" lon="5.2077">
        <ele>196</ele>
        <time>2022-03-21T09:30:42Z</time>
      </trkpt>
      <trkpt lat="47.04012" lon="5.20765">
        <ele>196</ele>
        <time>2022-03-21T09:30:43Z</time>
      </trkpt>
      <trkpt lat="47.04018" lon="5.2076">
        <ele>196</ele>
        <time>2022-03-21T09:30:44Z</time>
      </trkpt>
      <trkpt lat="47.04025" lon="5.20755">
        <ele>195.8</ele>
        <time>2022-03-21T09:30:45Z</time>
      </trkpt>
      <trkpt lat="47.04033" lon="5.20749">
        <ele>195.8</ele>
        <time>2022-03-21T09:30:46Z</time>
      </trkpt>
      <trkpt lat="47.0404" lon="5.20744">
        <ele>195.4</ele>
        <time>2022-03-21T09:30:47Z</time>
      </trkpt>
      <trkpt lat="47.04048" lon="5.20738">
        <ele>195.4</ele>
        <time>2022-03-21T09:30:48Z</time>
      </trkpt>
      <trkpt lat="47.04056" lon="5.20732">
        <ele>194.8</ele>
        <time>2022-03-21T09:30:49Z</time>
      </trkpt>
      <trkpt lat="47.04064" lon="5.20726">
        <ele>194.6</ele>
        <time>2022-03-21T09:30:50Z</time>
      </trkpt>
      <trkpt lat="47.04072" lon="5.20719">
        <ele>194.4</ele>
        <time>2022-03-21T09:30:51Z</time>
      </trkpt>
      <trkpt lat="47.04081" lon="5.20712">
        <ele>194</ele>
        <time>2022-03-21T09:30:52Z</time>
      </trkpt>
      <trkpt lat="47.04089" lon="5.20706">
        <ele>193.6</ele>
        <time>2022-03-21T09:30:53Z</time>
      </trkpt>
      <trkpt lat="47.04098" lon="5.20699">
        <ele>193.2</ele>
        <time>2022-03-21T09:30:54Z</time>
      </trkpt>
      <trkpt lat="47.04107" lon="5.20694">
        <ele>192.8</ele>
        <time>2022-03-21T09:30:55Z</time>
      </trkpt>
      <trkpt lat="47.04115" lon="5.20688">
        <ele>192.4</ele>
        <time>2022-03-21T09:30:56Z</time>
      </trkpt>
      <trkpt lat="47.04124" lon="5.20681">
        <ele>192</ele>
        <time>2022-03-21T09:30:57Z</time>
      </trkpt>
      <trkpt lat="47.04133" lon="5.20675">
        <ele>191.6</ele>
        <time>2022-03-21T09:30:58Z</time>
      </trkpt>
      <trkpt lat="47.04142" lon="5.20668">
        <ele>191.2</ele>
        <time>2022-03-21T09:30:59Z</time>
      </trkpt>
      <trkpt lat="47.04151" lon="5.20662">
        <ele>190.8</ele>
        <time>2022-03-21T09:31:00Z</time>
      </trkpt>
      <trkpt lat="47.0416" lon="5.20654">
        <ele>190.4</ele>
        <time>2022-03-21T09:31:01Z</time>
      </trkpt>
      <trkpt lat="47.0417" lon="5.20648">
        <ele>190</ele>
        <time>2022-03-21T09:31:02Z</time>
      </trkpt>
      <trkpt lat="47.04179" lon="5.20644">
        <ele>189.6</ele>
        <time>2022-03-21T09:31:03Z</time>
      </trkpt>
      <trkpt lat="47.0419" lon="5.20639">
        <ele>189.2</ele>
        <time>2022-03-21T09:31:04Z</time>
      </trkpt>
      <trkpt lat="47.04199" lon="5.20634">
        <ele>188.8</ele>
        <time>2022-03-21T09:31:05Z</time>
      </trkpt>
      <trkpt lat="47.04208" lon="5.20628">
        <ele>188.4</ele>
        <time>2022-03-21T09:31:06Z</time>
      </trkpt>
      <trkpt lat="47.04217" lon="5.20622">
        <ele>188</ele>
        <time>2022-03-21T09:31:07Z</time>
      </trkpt>
      <trkpt lat="47.04225" lon="5.20616">
        <ele>187.8</ele>
        <time>2022-03-21T09:31:08Z</time>
      </trkpt>
      <trkpt lat="47.04234" lon="5.2061">
        <ele>187.4</ele>
        <time>2022-03-21T09:31:09Z</time>
      </trkpt>
      <trkpt lat="47.04243" lon="5.20605">
        <ele>187.2</ele>
        <time>2022-03-21T09:31:10Z</time>
      </trkpt>
      <trkpt lat="47.04252" lon="5.20599">
        <ele>187.2</ele>
        <time>2022-03-21T09:31:11Z</time>
      </trkpt>
      <trkpt lat="47.04261" lon="5.20593">
        <ele>186.8</ele>
        <time>2022-03-21T09:31:12Z</time>
      </trkpt>
      <trkpt lat="47.04269" lon="5.20587">
        <ele>186.8</ele>
        <time>2022-03-21T09:31:13Z</time>
      </trkpt>
      <trkpt lat="47.04277" lon="5.2058">
        <ele>186.6</ele>
        <time>2022-03-21T09:31:14Z</time>
      </trkpt>
      <trkpt lat="47.04283" lon="5.20572">
        <ele>186.6</ele>
        <time>2022-03-21T09:31:15Z</time>
      </trkpt>
      <trkpt lat="47.0429" lon="5.20563">
        <ele>186.6</ele>
        <time>2022-03-21T09:31:16Z</time>
      </trkpt>
      <trkpt lat="47.04296" lon="5.20554">
        <ele>186.4</ele>
        <time>2022-03-21T09:31:17Z</time>
      </trkpt>
      <trkpt lat="47.04302" lon="5.20545">
        <ele>186.4</ele>
        <time>2022-03-21T09:31:18Z</time>
      </trkpt>
      <trkpt lat="47.04308" lon="5.20536">
        <ele>186.4</ele>
        <time>2022-03-21T09:31:19Z</time>
      </trkpt>
      <trkpt lat="47.04314" lon="5.20527">
        <ele>186</ele>
        <time>2022-03-21T09:31:20Z</time>
      </trkpt>
      <trkpt lat="47.0432" lon="5.20519">
        <ele>186</ele>
        <time>2022-03-21T09:31:21Z</time>
      </trkpt>
      <trkpt lat="47.04325" lon="5.2051">
        <ele>186</ele>
        <time>2022-03-21T09:31:22Z</time>
      </trkpt>
      <trkpt lat="47.04331" lon="5.20502">
        <ele>186</ele>
        <time>2022-03-21T09:31:23Z</time>
      </trkpt>
      <trkpt lat="47.04336" lon="5.20493">
        <ele>186</ele>
        <time>2022-03-21T09:31:24Z</time>
      </trkpt>
      <trkpt lat="47.04342" lon="5.20485">
        <ele>185.8</ele>
        <time>2022-03-21T09:31:25Z</time>
      </trkpt>
      <trkpt lat="47.04348" lon="5.20476">
        <ele>185.8</ele>
        <time>2022-03-21T09:31:26Z</time>
      </trkpt>
      <trkpt lat="47.04354" lon="5.20468">
        <ele>185.8</ele>
        <time>2022-03-21T09:31:27Z</time>
      </trkpt>
      <trkpt lat="47.04361" lon="5.2046">
        <ele>185.6</ele>
        <time>2022-03-21T09:31:28Z</time>
      </trkpt>
      <trkpt lat="47.04367" lon="5.20451">
        <ele>185.6</ele>
        <time>2022-03-21T09:31:29Z</time>
      </trkpt>
      <trkpt lat="47.04374" lon="5.20443">
        <ele>185.2</ele>
        <time>2022-03-21T09:31:30Z</time>
      </trkpt>
      <trkpt lat="47.0438" lon="5.20435">
        <ele>185.2</ele>
        <time>2022-03-21T09:31:31Z</time>
      </trkpt>
      <trkpt lat="47.04387" lon="5.20427">
        <ele>185</ele>
        <time>2022-03-21T09:31:32Z</time>
      </trkpt>
      <trkpt lat="47.04393" lon="5.20419">
        <ele>185</ele>
        <time>2022-03-21T09:31:33Z</time>
      </trkpt>
      <trkpt lat="47.044" lon="5.2041">
        <ele>185</ele>
        <time>2022-03-21T09:31:34Z</time>
      </trkpt>
      <trkpt lat="47.04406" lon="5.20401">
        <ele>185</ele>
        <time>2022-03-21T09:31:35Z</time>
      </trkpt>
      <trkpt lat="47.04412" lon="5.20392">
        <ele>185</ele>
        <time>2022-03-21T09:31:36Z</time>
      </trkpt>
      <trkpt lat="47.04417" lon="5.20383">
        <ele>185</ele>
        <time>2022-03-21T09:31:37Z</time>
      </trkpt>
      <trkpt lat="47.04423" lon="5.20373">
        <ele>185</ele>
        <time>2022-03-21T09:31:38Z</time>
      </trkpt>
      <trkpt lat="47.04428" lon="5.20363">
        <ele>185</ele>
        <time>2022-03-21T09:31:39Z</time>
      </trkpt>
      <trkpt lat="47.04432" lon="5.20352">
        <ele>185</ele>
        <time>2022-03-21T09:31:40Z</time>
      </trkpt>
      <trkpt lat="47.04435" lon="5.20341">
        <ele>185</ele>
        <time>2022-03-21T09:31:41Z</time>
      </trkpt>
      <trkpt lat="47.04438" lon="5.20329">
        <ele>185</ele>
        <time>2022-03-21T09:31:42Z</time>
      </trkpt>
      <trkpt lat="47.0444" lon="5.20317">
        <ele>185</ele>
        <time>2022-03-21T09:31:43Z</time>
      </trkpt>
      <trkpt lat="47.04442" lon="5.20305">
        <ele>185</ele>
        <time>2022-03-21T09:31:44Z</time>
      </trkpt>
      <trkpt lat="47.04442" lon="5.20292">
        <ele>184.8</ele>
        <time>2022-03-21T09:31:45Z</time>
      </trkpt>
      <trkpt lat="47.04442" lon="5.2028">
        <ele>184.8</ele>
        <time>2022-03-21T09:31:46Z</time>
      </trkpt>
      <trkpt lat="47.04441" lon="5.20267">
        <ele>184.8</ele>
        <time>2022-03-21T09:31:47Z</time>
      </trkpt>
      <trkpt lat="47.04439" lon="5.20255">
        <ele>184.8</ele>
        <time>2022-03-21T09:31:48Z</time>
      </trkpt>
      <trkpt lat="47.04436" lon="5.20244">
        <ele>184.6</ele>
        <time>2022-03-21T09:31:49Z</time>
      </trkpt>
      <trkpt lat="47.04433" lon="5.20232">
        <ele>184.6</ele>
        <time>2022-03-21T09:31:50Z</time>
      </trkpt>
      <trkpt lat="47.04429" lon="5.20221">
        <ele>184.6</ele>
        <time>2022-03-21T09:31:51Z</time>
      </trkpt>
      <trkpt lat="47.04425" lon="5.20211">
        <ele>184.6</ele>
        <time>2022-03-21T09:31:52Z</time>
      </trkpt>
      <trkpt lat="47.0442" lon="5.20201">
        <ele>184.4</ele>
        <time>2022-03-21T09:31:53Z</time>
      </trkpt>
      <trkpt lat="47.04415" lon="5.20191">
        <ele>184.4</ele>
        <time>2022-03-21T09:31:54Z</time>
      </trkpt>
      <trkpt lat="47.04411" lon="5.20181">
        <ele>184.4</ele>
        <time>2022-03-21T09:31:55Z</time>
      </trkpt>
      <trkpt lat="47.04406" lon="5.20171">
        <ele>184.4</ele>
        <time>2022-03-21T09:31:56Z</time>
      </trkpt>
      <trkpt lat="47.04402" lon="5.20161">
        <ele>184.4</ele>
        <time>2022-03-21T09:31:57Z</time>
      </trkpt>
      <trkpt lat="47.04397" lon="5.20151">
        <ele>184.4</ele>
        <time>2022-03-21T09:31:58Z</time>
      </trkpt>
      <trkpt lat="47.04393" lon="5.20142">
        <ele>184.4</ele>
        <time>2022-03-21T09:31:59Z</time>
      </trkpt>
      <trkpt lat="47.04388" lon="5.20132">
        <ele>184.4</ele>
        <time>2022-03-21T09:32:00Z</time>
      </trkpt>
      <trkpt lat="47.04384" lon="5.20122">
        <ele>184.4</ele>
        <time>2022-03-21T09:32:01Z</time>
      </trkpt>
      <trkpt lat="47.0438" lon="5.20113">
        <ele>184.4</ele>
        <time>2022-03-21T09:32:02Z</time>
      </trkpt>
      <trkpt lat="47.04376" lon="5.20103">
        <ele>184.4</ele>
        <time>2022-03-21T09:32:03Z</time>
      </trkpt>
      <trkpt lat="47.04371" lon="5.20094">
        <ele>184.4</ele>
        <time>2022-03-21T09:32:05Z</time>
      </trkpt>
      <trkpt lat="47.04367" lon="5.20085">
        <ele>184.4</ele>
        <time>2022-03-21T09:32:06Z</time>
      </trkpt>
      <trkpt lat="47.04363" lon="5.20076">
        <ele>184.6</ele>
        <time>2022-03-21T09:32:07Z</time>
      </trkpt>
      <trkpt lat="47.04359" lon="5.20067">
        <ele>184.6</ele>
        <time>2022-03-21T09:32:08Z</time>
      </trkpt>
      <trkpt lat="47.04355" lon="5.20058">
        <ele>184.6</ele>
        <time>2022-03-21T09:32:09Z</time>
      </trkpt>
      <trkpt lat="47.04351" lon="5.20049">
        <ele>184.8</ele>
        <time>2022-03-21T09:32:10Z</time>
      </trkpt>
      <trkpt lat="47.04347" lon="5.20041">
        <ele>184.8</ele>
        <time>2022-03-21T09:32:11Z</time>
      </trkpt>
      <trkpt lat="47.04343" lon="5.20032">
        <ele>184.8</ele>
        <time>2022-03-21T09:32:12Z</time>
      </trkpt>
      <trkpt lat="47.0434" lon="5.20024">
        <ele>184.8</ele>
        <time>2022-03-21T09:32:13Z</time>
      </trkpt>
      <trkpt lat="47.04337" lon="5.20015">
        <ele>185.2</ele>
        <time>2022-03-21T09:32:14Z</time>
      </trkpt>
      <trkpt lat="47.04333" lon="5.20007">
        <ele>185.4</ele>
        <time>2022-03-21T09:32:15Z</time>
      </trkpt>
      <trkpt lat="47.0433" lon="5.19999">
        <ele>185.6</ele>
        <time>2022-03-21T09:32:16Z</time>
      </trkpt>
      <trkpt lat="47.04328" lon="5.19991">
        <ele>185.6</ele>
        <time>2022-03-21T09:32:17Z</time>
      </trkpt>
      <trkpt lat="47.04326" lon="5.19982">
        <ele>186</ele>
        <time>2022-03-21T09:32:18Z</time>
      </trkpt>
      <trkpt lat="47.04325" lon="5.19974">
        <ele>186.2</ele>
        <time>2022-03-21T09:32:19Z</time>
      </trkpt>
      <trkpt lat="47.04324" lon="5.19965">
        <ele>186.4</ele>
        <time>2022-03-21T09:32:20Z</time>
      </trkpt>
      <trkpt lat="47.04324" lon="5.19956">
        <ele>186.8</ele>
        <time>2022-03-21T09:32:21Z</time>
      </trkpt>
      <trkpt lat="47.04324" lon="5.19948">
        <ele>187</ele>
        <time>2022-03-21T09:32:22Z</time>
      </trkpt>
      <trkpt lat="47.04324" lon="5.19939">
        <ele>187.4</ele>
        <time>2022-03-21T09:32:23Z</time>
      </trkpt>
      <trkpt lat="47.04325" lon="5.1993">
        <ele>187.6</ele>
        <time>2022-03-21T09:32:24Z</time>
      </trkpt>
      <trkpt lat="47.04325" lon="5.19922">
        <ele>187.6</ele>
        <time>2022-03-21T09:32:25Z</time>
      </trkpt>
      <trkpt lat="47.04327" lon="5.19913">
        <ele>188</ele>
        <time>2022-03-21T09:32:26Z</time>
      </trkpt>
      <trkpt lat="47.04328" lon="5.19905">
        <ele>188.2</ele>
        <time>2022-03-21T09:32:27Z</time>
      </trkpt>
      <trkpt lat="47.04331" lon="5.19897">
        <ele>188.6</ele>
        <time>2022-03-21T09:32:28Z</time>
      </trkpt>
      <trkpt lat="47.04333" lon="5.1989">
        <ele>188.8</ele>
        <time>2022-03-21T09:32:29Z</time>
      </trkpt>
      <trkpt lat="47.04336" lon="5.19883">
        <ele>189.2</ele>
        <time>2022-03-21T09:32:30Z</time>
      </trkpt>
      <trkpt lat="47.04339" lon="5.19875">
        <ele>189.6</ele>
        <time>2022-03-21T09:32:31Z</time>
      </trkpt>
      <trkpt lat="47.04342" lon="5.19869">
        <ele>189.8</ele>
        <time>2022-03-21T09:32:32Z</time>
      </trkpt>
      <trkpt lat="47.04345" lon="5.19863">
        <ele>190</ele>
        <time>2022-03-21T09:32:33Z</time>
      </trkpt>
      <trkpt lat="47.04349" lon="5.19856">
        <ele>190</ele>
        <time>2022-03-21T09:32:34Z</time>
      </trkpt>
      <trkpt lat="47.04352" lon="5.1985">
        <ele>190.4</ele>
        <time>2022-03-21T09:32:35Z</time>
      </trkpt>
      <trkpt lat="47.04355" lon="5.19845">
        <ele>190.6</ele>
        <time>2022-03-21T09:32:36Z</time>
      </trkpt>
      <trkpt lat="47.04359" lon="5.19838">
        <ele>191</ele>
        <time>2022-03-21T09:32:37Z</time>
      </trkpt>
      <trkpt lat="47.04362" lon="5.19832">
        <ele>191</ele>
        <time>2022-03-21T09:32:38Z</time>
      </trkpt>
      <trkpt lat="47.04365" lon="5.19826">
        <ele>191.4</ele>
        <time>2022-03-21T09:32:39Z</time>
      </trkpt>
      <trkpt lat="47.04369" lon="5.1982">
        <ele>191.6</ele>
        <time>2022-03-21T09:32:40Z</time>
      </trkpt>
      <trkpt lat="47.04372" lon="5.19814">
        <ele>191.6</ele>
        <time>2022-03-21T09:32:41Z</time>
      </trkpt>
      <trkpt lat="47.04376" lon="5.19808">
        <ele>191.6</ele>
        <time>2022-03-21T09:32:42Z</time>
      </trkpt>
      <trkpt lat="47.0438" lon="5.19802">
        <ele>191.6</ele>
        <time>2022-03-21T09:32:43Z</time>
      </trkpt>
      <trkpt lat="47.04384" lon="5.19795">
        <ele>191.6</ele>
        <time>2022-03-21T09:32:44Z</time>
      </trkpt>
      <trkpt lat="47.04388" lon="5.19789">
        <ele>191.6</ele>
        <time>2022-03-21T09:32:45Z</time>
      </trkpt>
      <trkpt lat="47.04392" lon="5.19782">
        <ele>191.6</ele>
        <time>2022-03-21T09:32:46Z</time>
      </trkpt>
      <trkpt lat="47.04396" lon="5.19775">
        <ele>191.6</ele>
        <time>2022-03-21T09:32:47Z</time>
      </trkpt>
      <trkpt lat="47.044" lon="5.19768">
        <ele>191.6</ele>
        <time>2022-03-21T09:32:48Z</time>
      </trkpt>
      <trkpt lat="47.04404" lon="5.1976">
        <ele>191.2</ele>
        <time>2022-03-21T09:32:49Z</time>
      </trkpt>
      <trkpt lat="47.04409" lon="5.19752">
        <ele>191</ele>
        <time>2022-03-21T09:32:50Z</time>
      </trkpt>
      <trkpt lat="47.04413" lon="5.19743">
        <ele>190.8</ele>
        <time>2022-03-21T09:32:51Z</time>
      </trkpt>
      <trkpt lat="47.04418" lon="5.19735">
        <ele>190.6</ele>
        <time>2022-03-21T09:32:52Z</time>
      </trkpt>
      <trkpt lat="47.04423" lon="5.19726">
        <ele>190.2</ele>
        <time>2022-03-21T09:32:53Z</time>
      </trkpt>
      <trkpt lat="47.04429" lon="5.19718">
        <ele>190</ele>
        <time>2022-03-21T09:32:54Z</time>
      </trkpt>
      <trkpt lat="47.04435" lon="5.1971">
        <ele>189.6</ele>
        <time>2022-03-21T09:32:55Z</time>
      </trkpt>
      <trkpt lat="47.04442" lon="5.19703">
        <ele>189.2</ele>
        <time>2022-03-21T09:32:56Z</time>
      </trkpt>
      <trkpt lat="47.04449" lon="5.19698">
        <ele>189</ele>
        <time>2022-03-21T09:32:57Z</time>
      </trkpt>
      <trkpt lat="47.04458" lon="5.19693">
        <ele>188.6</ele>
        <time>2022-03-21T09:32:58Z</time>
      </trkpt>
      <trkpt lat="47.04475" lon="5.19687">
        <ele>188.2</ele>
        <time>2022-03-21T09:32:59Z</time>
      </trkpt>
      <trkpt lat="47.04484" lon="5.19685">
        <ele>187.8</ele>
        <time>2022-03-21T09:33:00Z</time>
      </trkpt>
      <trkpt lat="47.04493" lon="5.19685">
        <ele>187.4</ele>
        <time>2022-03-21T09:33:01Z</time>
      </trkpt>
      <trkpt lat="47.04504" lon="5.19689">
        <ele>187</ele>
        <time>2022-03-21T09:33:02Z</time>
      </trkpt>
      <trkpt lat="47.04514" lon="5.19693">
        <ele>186.8</ele>
        <time>2022-03-21T09:33:03Z</time>
      </trkpt>
      <trkpt lat="47.04523" lon="5.19697">
        <ele>186.8</ele>
        <time>2022-03-21T09:33:04Z</time>
      </trkpt>
      <trkpt lat="47.04531" lon="5.19703">
        <ele>186.4</ele>
        <time>2022-03-21T09:33:05Z</time>
      </trkpt>
      <trkpt lat="47.04539" lon="5.1971">
        <ele>186.4</ele>
        <time>2022-03-21T09:33:06Z</time>
      </trkpt>
      <trkpt lat="47.04547" lon="5.19717">
        <ele>186.2</ele>
        <time>2022-03-21T09:33:07Z</time>
      </trkpt>
      <trkpt lat="47.04554" lon="5.19725">
        <ele>186.2</ele>
        <time>2022-03-21T09:33:08Z</time>
      </trkpt>
      <trkpt lat="47.04561" lon="5.19732">
        <ele>186</ele>
        <time>2022-03-21T09:33:09Z</time>
      </trkpt>
      <trkpt lat="47.04568" lon="5.19739">
        <ele>186</ele>
        <time>2022-03-21T09:33:10Z</time>
      </trkpt>
      <trkpt lat="47.04575" lon="5.19747">
        <ele>186</ele>
        <time>2022-03-21T09:33:11Z</time>
      </trkpt>
      <trkpt lat="47.04581" lon="5.19754">
        <ele>185.8</ele>
        <time>2022-03-21T09:33:12Z</time>
      </trkpt>
      <trkpt lat="47.04588" lon="5.19762">
        <ele>185.8</ele>
        <time>2022-03-21T09:33:13Z</time>
      </trkpt>
      <trkpt lat="47.04595" lon="5.19769">
        <ele>185.8</ele>
        <time>2022-03-21T09:33:14Z</time>
      </trkpt>
      <trkpt lat="47.04601" lon="5.19776">
        <ele>185.6</ele>
        <time>2022-03-21T09:33:15Z</time>
      </trkpt>
      <trkpt lat="47.04608" lon="5.19783">
        <ele>185.6</ele>
        <time>2022-03-21T09:33:16Z</time>
      </trkpt>
      <trkpt lat="47.04615" lon="5.1979">
        <ele>185.2</ele>
        <time>2022-03-21T09:33:17Z</time>
      </trkpt>
      <trkpt lat="47.04622" lon="5.19797">
        <ele>185.2</ele>
        <time>2022-03-21T09:33:18Z</time>
      </trkpt>
      <trkpt lat="47.04629" lon="5.19801">
        <ele>185.2</ele>
        <time>2022-03-21T09:33:19Z</time>
      </trkpt>
      <trkpt lat="47.04636" lon="5.19804">
        <ele>185</ele>
        <time>2022-03-21T09:33:20Z</time>
      </trkpt>
      <trkpt lat="47.04643" lon="5.19806">
        <ele>185</ele>
        <time>2022-03-21T09:33:21Z</time>
      </trkpt>
      <trkpt lat="47.0465" lon="5.19804">
        <ele>185</ele>
        <time>2022-03-21T09:33:22Z</time>
      </trkpt>
      <trkpt lat="47.04657" lon="5.198">
        <ele>185</ele>
        <time>2022-03-21T09:33:23Z</time>
      </trkpt>
      <trkpt lat="47.04663" lon="5.19794">
        <ele>184.8</ele>
        <time>2022-03-21T09:33:24Z</time>
      </trkpt>
      <trkpt lat="47.04669" lon="5.19788">
        <ele>184.8</ele>
        <time>2022-03-21T09:33:25Z</time>
      </trkpt>
      <trkpt lat="47.04675" lon="5.19781">
        <ele>184.8</ele>
        <time>2022-03-21T09:33:26Z</time>
      </trkpt>
      <trkpt lat="47.0468" lon="5.19773">
        <ele>184.8</ele>
        <time>2022-03-21T09:33:27Z</time>
      </trkpt>
      <trkpt lat="47.04685" lon="5.19766">
        <ele>184.6</ele>
        <time>2022-03-21T09:33:28Z</time>
      </trkpt>
      <trkpt lat="47.0469" lon="5.19758">
        <ele>184.6</ele>
        <time>2022-03-21T09:33:29Z</time>
      </trkpt>
      <trkpt lat="47.04695" lon="5.1975">
        <ele>184.6</ele>
        <time>2022-03-21T09:33:30Z</time>
      </trkpt>
      <trkpt lat="47.04701" lon="5.19743">
        <ele>184.6</ele>
        <time>2022-03-21T09:33:31Z</time>
      </trkpt>
      <trkpt lat="47.04706" lon="5.19735">
        <ele>184.6</ele>
        <time>2022-03-21T09:33:32Z</time>
      </trkpt>
      <trkpt lat="47.04711" lon="5.19727">
        <ele>184.6</ele>
        <time>2022-03-21T09:33:33Z</time>
      </trkpt>
      <trkpt lat="47.04716" lon="5.19719">
        <ele>184.6</ele>
        <time>2022-03-21T09:33:34Z</time>
      </trkpt>
      <trkpt lat="47.0472" lon="5.19711">
        <ele>184.6</ele>
        <time>2022-03-21T09:33:35Z</time>
      </trkpt>
      <trkpt lat="47.04723" lon="5.19702">
        <ele>184.6</ele>
        <time>2022-03-21T09:33:36Z</time>
      </trkpt>
      <trkpt lat="47.04725" lon="5.19693">
        <ele>184.6</ele>
        <time>2022-03-21T09:33:37Z</time>
      </trkpt>
      <trkpt lat="47.04725" lon="5.19683">
        <ele>184.6</ele>
        <time>2022-03-21T09:33:38Z</time>
      </trkpt>
      <trkpt lat="47.04723" lon="5.19674">
        <ele>184.6</ele>
        <time>2022-03-21T09:33:39Z</time>
      </trkpt>
      <trkpt lat="47.04721" lon="5.19665">
        <ele>184.6</ele>
        <time>2022-03-21T09:33:40Z</time>
      </trkpt>
      <trkpt lat="47.04719" lon="5.19656">
        <ele>184.6</ele>
        <time>2022-03-21T09:33:41Z</time>
      </trkpt>
      <trkpt lat="47.04717" lon="5.19648">
        <ele>184.4</ele>
        <time>2022-03-21T09:33:42Z</time>
      </trkpt>
      <trkpt lat="47.04715" lon="5.19639">
        <ele>184.4</ele>
        <time>2022-03-21T09:33:43Z</time>
      </trkpt>
      <trkpt lat="47.04713" lon="5.1963">
        <ele>184.4</ele>
        <time>2022-03-21T09:33:44Z</time>
      </trkpt>
      <trkpt lat="47.04712" lon="5.19622">
        <ele>184.4</ele>
        <time>2022-03-21T09:33:45Z</time>
      </trkpt>
      <trkpt lat="47.04711" lon="5.19613">
        <ele>184.4</ele>
        <time>2022-03-21T09:33:46Z</time>
      </trkpt>
      <trkpt lat="47.04712" lon="5.19605">
        <ele>184.4</ele>
        <time>2022-03-21T09:33:47Z</time>
      </trkpt>
      <trkpt lat="47.04713" lon="5.19596">
        <ele>184.4</ele>
        <time>2022-03-21T09:33:48Z</time>
      </trkpt>
      <trkpt lat="47.04716" lon="5.19588">
        <ele>184.4</ele>
        <time>2022-03-21T09:33:49Z</time>
      </trkpt>
      <trkpt lat="47.0472" lon="5.1958">
        <ele>184.4</ele>
        <time>2022-03-21T09:33:50Z</time>
      </trkpt>
      <trkpt lat="47.04724" lon="5.19573">
        <ele>184.4</ele>
        <time>2022-03-21T09:33:51Z</time>
      </trkpt>
      <trkpt lat="47.04729" lon="5.19566">
        <ele>184.4</ele>
        <time>2022-03-21T09:33:52Z</time>
      </trkpt>
      <trkpt lat="47.04734" lon="5.19559">
        <ele>184.4</ele>
        <time>2022-03-21T09:33:53Z</time>
      </trkpt>
      <trkpt lat="47.04739" lon="5.19553">
        <ele>184.4</ele>
        <time>2022-03-21T09:33:54Z</time>
      </trkpt>
      <trkpt lat="47.04744" lon="5.19546">
        <ele>184.4</ele>
        <time>2022-03-21T09:33:55Z</time>
      </trkpt>
      <trkpt lat="47.04749" lon="5.19539">
        <ele>184.4</ele>
        <time>2022-03-21T09:33:56Z</time>
      </trkpt>
      <trkpt lat="47.04755" lon="5.19533">
        <ele>184.4</ele>
        <time>2022-03-21T09:33:57Z</time>
      </trkpt>
      <trkpt lat="47.0476" lon="5.19526">
        <ele>184.4</ele>
        <time>2022-03-21T09:33:58Z</time>
      </trkpt>
      <trkpt lat="47.04766" lon="5.19519">
        <ele>184.4</ele>
        <time>2022-03-21T09:33:59Z</time>
      </trkpt>
      <trkpt lat="47.04771" lon="5.19513">
        <ele>184.2</ele>
        <time>2022-03-21T09:34:00Z</time>
      </trkpt>
      <trkpt lat="47.04777" lon="5.19506">
        <ele>184.2</ele>
        <time>2022-03-21T09:34:01Z</time>
      </trkpt>
      <trkpt lat="47.04783" lon="5.195">
        <ele>184.2</ele>
        <time>2022-03-21T09:34:02Z</time>
      </trkpt>
      <trkpt lat="47.04788" lon="5.19493">
        <ele>184.2</ele>
        <time>2022-03-21T09:34:03Z</time>
      </trkpt>
      <trkpt lat="47.04793" lon="5.19486">
        <ele>184.2</ele>
        <time>2022-03-21T09:34:04Z</time>
      </trkpt>
      <trkpt lat="47.04798" lon="5.1948">
        <ele>184.2</ele>
        <time>2022-03-21T09:34:05Z</time>
      </trkpt>
      <trkpt lat="47.04803" lon="5.19473">
        <ele>184.2</ele>
        <time>2022-03-21T09:34:06Z</time>
      </trkpt>
      <trkpt lat="47.04808" lon="5.19466">
        <ele>184.2</ele>
        <time>2022-03-21T09:34:07Z</time>
      </trkpt>
      <trkpt lat="47.04813" lon="5.19459">
        <ele>184.2</ele>
        <time>2022-03-21T09:34:08Z</time>
      </trkpt>
      <trkpt lat="47.04818" lon="5.19452">
        <ele>184.2</ele>
        <time>2022-03-21T09:34:09Z</time>
      </trkpt>
      <trkpt lat="47.04823" lon="5.19445">
        <ele>184.2</ele>
        <time>2022-03-21T09:34:10Z</time>
      </trkpt>
      <trkpt lat="47.04828" lon="5.19438">
        <ele>183.8</ele>
        <time>2022-03-21T09:34:11Z</time>
      </trkpt>
      <trkpt lat="47.04834" lon="5.19431">
        <ele>183.8</ele>
        <time>2022-03-21T09:34:12Z</time>
      </trkpt>
      <trkpt lat="47.04839" lon="5.19424">
        <ele>183.6</ele>
        <time>2022-03-21T09:34:13Z</time>
      </trkpt>
      <trkpt lat="47.04845" lon="5.19417">
        <ele>183.6</ele>
        <time>2022-03-21T09:34:14Z</time>
      </trkpt>
      <trkpt lat="47.0485" lon="5.19409">
        <ele>183.6</ele>
        <time>2022-03-21T09:34:15Z</time>
      </trkpt>
      <trkpt lat="47.04855" lon="5.19402">
        <ele>183.4</ele>
        <time>2022-03-21T09:34:16Z</time>
      </trkpt>
      <trkpt lat="47.04861" lon="5.19394">
        <ele>183.4</ele>
        <time>2022-03-21T09:34:17Z</time>
      </trkpt>
      <trkpt lat="47.04867" lon="5.19387">
        <ele>183.2</ele>
        <time>2022-03-21T09:34:18Z</time>
      </trkpt>
      <trkpt lat="47.04873" lon="5.1938">
        <ele>183.2</ele>
        <time>2022-03-21T09:34:19Z</time>
      </trkpt>
      <trkpt lat="47.04878" lon="5.19373">
        <ele>183.2</ele>
        <time>2022-03-21T09:34:20Z</time>
      </trkpt>
      <trkpt lat="47.04884" lon="5.19366">
        <ele>183</ele>
        <time>2022-03-21T09:34:21Z</time>
      </trkpt>
      <trkpt lat="47.0489" lon="5.1936">
        <ele>183</ele>
        <time>2022-03-21T09:34:22Z</time>
      </trkpt>
      <trkpt lat="47.04897" lon="5.19355">
        <ele>183</ele>
        <time>2022-03-21T09:34:23Z</time>
      </trkpt>
      <trkpt lat="47.04904" lon="5.1935">
        <ele>183</ele>
        <time>2022-03-21T09:34:24Z</time>
      </trkpt>
      <trkpt lat="47.04911" lon="5.19345">
        <ele>183</ele>
        <time>2022-03-21T09:34:25Z</time>
      </trkpt>
      <trkpt lat="47.04918" lon="5.1934">
        <ele>183</ele>
        <time>2022-03-21T09:34:26Z</time>
      </trkpt>
      <trkpt lat="47.04925" lon="5.19335">
        <ele>183</ele>
        <time>2022-03-21T09:34:27Z</time>
      </trkpt>
      <trkpt lat="47.04932" lon="5.1933">
        <ele>183</ele>
        <time>2022-03-21T09:34:28Z</time>
      </trkpt>
      <trkpt lat="47.04938" lon="5.19323">
        <ele>183</ele>
        <time>2022-03-21T09:34:29Z</time>
      </trkpt>
      <trkpt lat="47.04944" lon="5.19316">
        <ele>183</ele>
        <time>2022-03-21T09:34:30Z</time>
      </trkpt>
      <trkpt lat="47.04949" lon="5.19308">
        <ele>183</ele>
        <time>2022-03-21T09:34:31Z</time>
      </trkpt>
      <trkpt lat="47.04953" lon="5.19299">
        <ele>183</ele>
        <time>2022-03-21T09:34:32Z</time>
      </trkpt>
      <trkpt lat="47.04956" lon="5.1929">
        <ele>183</ele>
        <time>2022-03-21T09:34:33Z</time>
      </trkpt>
      <trkpt lat="47.0496" lon="5.19281">
        <ele>183</ele>
        <time>2022-03-21T09:34:34Z</time>
      </trkpt>
      <trkpt lat="47.04964" lon="5.19272">
        <ele>183</ele>
        <time>2022-03-21T09:34:35Z</time>
      </trkpt>
      <trkpt lat="47.04967" lon="5.19263">
        <ele>183</ele>
        <time>2022-03-21T09:34:36Z</time>
      </trkpt>
      <trkpt lat="47.04971" lon="5.19254">
        <ele>183.2</ele>
        <time>2022-03-21T09:34:37Z</time>
      </trkpt>
      <trkpt lat="47.04974" lon="5.19245">
        <ele>183.2</ele>
        <time>2022-03-21T09:34:38Z</time>
      </trkpt>
      <trkpt lat="47.04977" lon="5.19236">
        <ele>183.4</ele>
        <time>2022-03-21T09:34:39Z</time>
      </trkpt>
      <trkpt lat="47.04981" lon="5.19227">
        <ele>183.4</ele>
        <time>2022-03-21T09:34:40Z</time>
      </trkpt>
      <trkpt lat="47.04985" lon="5.19218">
        <ele>183.4</ele>
        <time>2022-03-21T09:34:41Z</time>
      </trkpt>
      <trkpt lat="47.04988" lon="5.19208">
        <ele>183.4</ele>
        <time>2022-03-21T09:34:42Z</time>
      </trkpt>
      <trkpt lat="47.04992" lon="5.19199">
        <ele>183.4</ele>
        <time>2022-03-21T09:34:43Z</time>
      </trkpt>
      <trkpt lat="47.04996" lon="5.1919">
        <ele>183.4</ele>
        <time>2022-03-21T09:34:44Z</time>
      </trkpt>
      <trkpt lat="47.05" lon="5.19181">
        <ele>183.4</ele>
        <time>2022-03-21T09:34:45Z</time>
      </trkpt>
      <trkpt lat="47.05005" lon="5.19172">
        <ele>183.4</ele>
        <time>2022-03-21T09:34:46Z</time>
      </trkpt>
      <trkpt lat="47.05009" lon="5.19163">
        <ele>183.4</ele>
        <time>2022-03-21T09:34:47Z</time>
      </trkpt>
      <trkpt lat="47.05014" lon="5.19155">
        <ele>183.4</ele>
        <time>2022-03-21T09:34:48Z</time>
      </trkpt>
      <trkpt lat="47.05019" lon="5.19146">
        <ele>183.4</ele>
        <time>2022-03-21T09:34:49Z</time>
      </trkpt>
      <trkpt lat="47.05024" lon="5.19138">
        <ele>183.4</ele>
        <time>2022-03-21T09:34:50Z</time>
      </trkpt>
      <trkpt lat="47.05029" lon="5.1913">
        <ele>183.4</ele>
        <time>2022-03-21T09:34:51Z</time>
      </trkpt>
      <trkpt lat="47.05035" lon="5.19123">
        <ele>183.4</ele>
        <time>2022-03-21T09:34:52Z</time>
      </trkpt>
      <trkpt lat="47.0504" lon="5.19116">
        <ele>183.4</ele>
        <time>2022-03-21T09:34:53Z</time>
      </trkpt>
      <trkpt lat="47.05046" lon="5.19109">
        <ele>183.4</ele>
        <time>2022-03-21T09:34:54Z</time>
      </trkpt>
      <trkpt lat="47.05052" lon="5.19102">
        <ele>183.4</ele>
        <time>2022-03-21T09:34:55Z</time>
      </trkpt>
      <trkpt lat="47.05058" lon="5.19095">
        <ele>183.4</ele>
        <time>2022-03-21T09:34:56Z</time>
      </trkpt>
      <trkpt lat="47.05064" lon="5.19087">
        <ele>183.4</ele>
        <time>2022-03-21T09:34:57Z</time>
      </trkpt>
      <trkpt lat="47.0507" lon="5.1908">
        <ele>183.2</ele>
        <time>2022-03-21T09:34:58Z</time>
      </trkpt>
      <trkpt lat="47.05076" lon="5.19072">
        <ele>183.2</ele>
        <time>2022-03-21T09:34:59Z</time>
      </trkpt>
      <trkpt lat="47.05082" lon="5.19065">
        <ele>183.2</ele>
        <time>2022-03-21T09:35:00Z</time>
      </trkpt>
      <trkpt lat="47.05088" lon="5.19057">
        <ele>183.2</ele>
        <time>2022-03-21T09:35:01Z</time>
      </trkpt>
      <trkpt lat="47.05094" lon="5.1905">
        <ele>183.2</ele>
        <time>2022-03-21T09:35:02Z</time>
      </trkpt>
      <trkpt lat="47.05101" lon="5.19042">
        <ele>183.2</ele>
        <time>2022-03-21T09:35:03Z</time>
      </trkpt>
      <trkpt lat="47.05107" lon="5.19035">
        <ele>183.2</ele>
        <time>2022-03-21T09:35:04Z</time>
      </trkpt>
      <trkpt lat="47.05113" lon="5.19027">
        <ele>183.2</ele>
        <time>2022-03-21T09:35:05Z</time>
      </trkpt>
      <trkpt lat="47.05119" lon="5.1902">
        <ele>183.2</ele>
        <time>2022-03-21T09:35:06Z</time>
      </trkpt>
      <trkpt lat="47.05125" lon="5.19013">
        <ele>183.2</ele>
        <time>2022-03-21T09:35:07Z</time>
      </trkpt>
      <trkpt lat="47.05132" lon="5.19005">
        <ele>183.2</ele>
        <time>2022-03-21T09:35:08Z</time>
      </trkpt>
      <trkpt lat="47.05138" lon="5.18997">
        <ele>183.2</ele>
        <time>2022-03-21T09:35:09Z</time>
      </trkpt>
      <trkpt lat="47.05144" lon="5.18989">
        <ele>183.2</ele>
        <time>2022-03-21T09:35:10Z</time>
      </trkpt>
      <trkpt lat="47.0515" lon="5.18981">
        <ele>183.2</ele>
        <time>2022-03-21T09:35:11Z</time>
      </trkpt>
      <trkpt lat="47.05156" lon="5.18974">
        <ele>183.2</ele>
        <time>2022-03-21T09:35:12Z</time>
      </trkpt>
      <trkpt lat="47.05162" lon="5.18966">
        <ele>183.2</ele>
        <time>2022-03-21T09:35:13Z</time>
      </trkpt>
      <trkpt lat="47.05168" lon="5.18958">
        <ele>183.6</ele>
        <time>2022-03-21T09:35:14Z</time>
      </trkpt>
      <trkpt lat="47.05174" lon="5.18951">
        <ele>183.6</ele>
        <time>2022-03-21T09:35:15Z</time>
      </trkpt>
      <trkpt lat="47.0518" lon="5.18944">
        <ele>183.8</ele>
        <time>2022-03-21T09:35:16Z</time>
      </trkpt>
      <trkpt lat="47.05186" lon="5.18937">
        <ele>183.8</ele>
        <time>2022-03-21T09:35:17Z</time>
      </trkpt>
      <trkpt lat="47.05191" lon="5.1893">
        <ele>184</ele>
        <time>2022-03-21T09:35:18Z</time>
      </trkpt>
      <trkpt lat="47.05197" lon="5.18923">
        <ele>184</ele>
        <time>2022-03-21T09:35:19Z</time>
      </trkpt>
      <trkpt lat="47.05203" lon="5.18916">
        <ele>184</ele>
        <time>2022-03-21T09:35:20Z</time>
      </trkpt>
      <trkpt lat="47.05209" lon="5.18909">
        <ele>184.4</ele>
        <time>2022-03-21T09:35:21Z</time>
      </trkpt>
      <trkpt lat="47.05214" lon="5.18902">
        <ele>184.4</ele>
        <time>2022-03-21T09:35:22Z</time>
      </trkpt>
      <trkpt lat="47.0522" lon="5.18895">
        <ele>184.4</ele>
        <time>2022-03-21T09:35:23Z</time>
      </trkpt>
      <trkpt lat="47.05226" lon="5.18888">
        <ele>184.6</ele>
        <time>2022-03-21T09:35:24Z</time>
      </trkpt>
      <trkpt lat="47.05232" lon="5.18881">
        <ele>184.6</ele>
        <time>2022-03-21T09:35:25Z</time>
      </trkpt>
      <trkpt lat="47.05238" lon="5.18874">
        <ele>184.6</ele>
        <time>2022-03-21T09:35:26Z</time>
      </trkpt>
      <trkpt lat="47.05245" lon="5.18867">
        <ele>184.6</ele>
        <time>2022-03-21T09:35:27Z</time>
      </trkpt>
      <trkpt lat="47.05251" lon="5.1886">
        <ele>184.6</ele>
        <time>2022-03-21T09:35:28Z</time>
      </trkpt>
      <trkpt lat="47.05257" lon="5.18853">
        <ele>184.6</ele>
        <time>2022-03-21T09:35:29Z</time>
      </trkpt>
      <trkpt lat="47.05263" lon="5.18846">
        <ele>184.6</ele>
        <time>2022-03-21T09:35:30Z</time>
      </trkpt>
      <trkpt lat="47.0527" lon="5.18839">
        <ele>184.6</ele>
        <time>2022-03-21T09:35:31Z</time>
      </trkpt>
      <trkpt lat="47.05276" lon="5.18832">
        <ele>184.6</ele>
        <time>2022-03-21T09:35:32Z</time>
      </trkpt>
      <trkpt lat="47.05282" lon="5.18825">
        <ele>184.6</ele>
        <time>2022-03-21T09:35:33Z</time>
      </trkpt>
      <trkpt lat="47.05288" lon="5.18818">
        <ele>184.6</ele>
        <time>2022-03-21T09:35:34Z</time>
      </trkpt>
      <trkpt lat="47.05295" lon="5.18811">
        <ele>184.6</ele>
        <time>2022-03-21T09:35:35Z</time>
      </trkpt>
      <trkpt lat="47.05301" lon="5.18804">
        <ele>184.6</ele>
        <time>2022-03-21T09:35:36Z</time>
      </trkpt>
      <trkpt lat="47.05307" lon="5.18797">
        <ele>184.6</ele>
        <time>2022-03-21T09:35:37Z</time>
      </trkpt>
      <trkpt lat="47.05313" lon="5.1879">
        <ele>184.6</ele>
        <time>2022-03-21T09:35:38Z</time>
      </trkpt>
      <trkpt lat="47.05319" lon="5.18784">
        <ele>184.6</ele>
        <time>2022-03-21T09:35:39Z</time>
      </trkpt>
      <trkpt lat="47.05325" lon="5.18777">
        <ele>184.6</ele>
        <time>2022-03-21T09:35:40Z</time>
      </trkpt>
      <trkpt lat="47.05331" lon="5.18771">
        <ele>184.6</ele>
        <time>2022-03-21T09:35:41Z</time>
      </trkpt>
      <trkpt lat="47.05337" lon="5.18765">
        <ele>185</ele>
        <time>2022-03-21T09:35:42Z</time>
      </trkpt>
      <trkpt lat="47.05342" lon="5.18759">
        <ele>185</ele>
        <time>2022-03-21T09:35:43Z</time>
      </trkpt>
      <trkpt lat="47.05348" lon="5.18753">
        <ele>185.2</ele>
        <time>2022-03-21T09:35:44Z</time>
      </trkpt>
      <trkpt lat="47.05353" lon="5.18747">
        <ele>185.2</ele>
        <time>2022-03-21T09:35:45Z</time>
      </trkpt>
      <trkpt lat="47.05359" lon="5.1874">
        <ele>185.6</ele>
        <time>2022-03-21T09:35:46Z</time>
      </trkpt>
      <trkpt lat="47.05364" lon="5.18735">
        <ele>185.6</ele>
        <time>2022-03-21T09:35:47Z</time>
      </trkpt>
      <trkpt lat="47.0537" lon="5.18729">
        <ele>185.8</ele>
        <time>2022-03-21T09:35:48Z</time>
      </trkpt>
      <trkpt lat="47.05375" lon="5.18724">
        <ele>186.2</ele>
        <time>2022-03-21T09:35:49Z</time>
      </trkpt>
      <trkpt lat="47.0538" lon="5.18718">
        <ele>186.4</ele>
        <time>2022-03-21T09:35:50Z</time>
      </trkpt>
      <trkpt lat="47.05385" lon="5.18712">
        <ele>186.6</ele>
        <time>2022-03-21T09:35:51Z</time>
      </trkpt>
      <trkpt lat="47.05389" lon="5.18707">
        <ele>187</ele>
        <time>2022-03-21T09:35:52Z</time>
      </trkpt>
      <trkpt lat="47.05394" lon="5.18701">
        <ele>187.2</ele>
        <time>2022-03-21T09:35:53Z</time>
      </trkpt>
      <trkpt lat="47.05399" lon="5.18696">
        <ele>187.6</ele>
        <time>2022-03-21T09:35:54Z</time>
      </trkpt>
      <trkpt lat="47.05404" lon="5.1869">
        <ele>187.8</ele>
        <time>2022-03-21T09:35:55Z</time>
      </trkpt>
      <trkpt lat="47.05408" lon="5.18685">
        <ele>188.2</ele>
        <time>2022-03-21T09:35:56Z</time>
      </trkpt>
      <trkpt lat="47.05413" lon="5.18679">
        <ele>188.4</ele>
        <time>2022-03-21T09:35:57Z</time>
      </trkpt>
      <trkpt lat="47.05417" lon="5.18673">
        <ele>188.6</ele>
        <time>2022-03-21T09:35:58Z</time>
      </trkpt>
      <trkpt lat="47.05422" lon="5.18668">
        <ele>189</ele>
        <time>2022-03-21T09:35:59Z</time>
      </trkpt>
      <trkpt lat="47.05427" lon="5.18663">
        <ele>189.2</ele>
        <time>2022-03-21T09:36:00Z</time>
      </trkpt>
      <trkpt lat="47.05432" lon="5.18658">
        <ele>189.4</ele>
        <time>2022-03-21T09:36:01Z</time>
      </trkpt>
      <trkpt lat="47.05437" lon="5.18653">
        <ele>189.6</ele>
        <time>2022-03-21T09:36:02Z</time>
      </trkpt>
      <trkpt lat="47.05441" lon="5.18648">
        <ele>189.6</ele>
        <time>2022-03-21T09:36:03Z</time>
      </trkpt>
      <trkpt lat="47.05446" lon="5.18642">
        <ele>189.8</ele>
        <time>2022-03-21T09:36:04Z</time>
      </trkpt>
      <trkpt lat="47.05451" lon="5.18637">
        <ele>189.8</ele>
        <time>2022-03-21T09:36:05Z</time>
      </trkpt>
      <trkpt lat="47.05456" lon="5.18632">
        <ele>189.8</ele>
        <time>2022-03-21T09:36:06Z</time>
      </trkpt>
      <trkpt lat="47.05461" lon="5.18626">
        <ele>190</ele>
        <time>2022-03-21T09:36:07Z</time>
      </trkpt>
      <trkpt lat="47.05466" lon="5.18621">
        <ele>190</ele>
        <time>2022-03-21T09:36:08Z</time>
      </trkpt>
      <trkpt lat="47.05472" lon="5.18615">
        <ele>190</ele>
        <time>2022-03-21T09:36:09Z</time>
      </trkpt>
      <trkpt lat="47.05477" lon="5.18609">
        <ele>190</ele>
        <time>2022-03-21T09:36:10Z</time>
      </trkpt>
      <trkpt lat="47.05483" lon="5.18603">
        <ele>190</ele>
        <time>2022-03-21T09:36:11Z</time>
      </trkpt>
      <trkpt lat="47.05488" lon="5.18597">
        <ele>190</ele>
        <time>2022-03-21T09:36:12Z</time>
      </trkpt>
      <trkpt lat="47.05494" lon="5.18591">
        <ele>190</ele>
        <time>2022-03-21T09:36:13Z</time>
      </trkpt>
      <trkpt lat="47.055" lon="5.18584">
        <ele>190</ele>
        <time>2022-03-21T09:36:14Z</time>
      </trkpt>
      <trkpt lat="47.05506" lon="5.18578">
        <ele>189.8</ele>
        <time>2022-03-21T09:36:15Z</time>
      </trkpt>
      <trkpt lat="47.05512" lon="5.18571">
        <ele>189.6</ele>
        <time>2022-03-21T09:36:16Z</time>
      </trkpt>
      <trkpt lat="47.05519" lon="5.18564">
        <ele>189.2</ele>
        <time>2022-03-21T09:36:17Z</time>
      </trkpt>
      <trkpt lat="47.05525" lon="5.18557">
        <ele>189</ele>
        <time>2022-03-21T09:36:18Z</time>
      </trkpt>
      <trkpt lat="47.05532" lon="5.18549">
        <ele>188.8</ele>
        <time>2022-03-21T09:36:19Z</time>
      </trkpt>
      <trkpt lat="47.05539" lon="5.18542">
        <ele>188.4</ele>
        <time>2022-03-21T09:36:20Z</time>
      </trkpt>
      <trkpt lat="47.05546" lon="5.18534">
        <ele>188</ele>
        <time>2022-03-21T09:36:21Z</time>
      </trkpt>
      <trkpt lat="47.05554" lon="5.18526">
        <ele>187.6</ele>
        <time>2022-03-21T09:36:22Z</time>
      </trkpt>
      <trkpt lat="47.05561" lon="5.18517">
        <ele>187.2</ele>
        <time>2022-03-21T09:36:23Z</time>
      </trkpt>
      <trkpt lat="47.05568" lon="5.18509">
        <ele>186.8</ele>
        <time>2022-03-21T09:36:24Z</time>
      </trkpt>
      <trkpt lat="47.05575" lon="5.18502">
        <ele>186.4</ele>
        <time>2022-03-21T09:36:25Z</time>
      </trkpt>
      <trkpt lat="47.05582" lon="5.18494">
        <ele>186.2</ele>
        <time>2022-03-21T09:36:26Z</time>
      </trkpt>
      <trkpt lat="47.05589" lon="5.18486">
        <ele>186</ele>
        <time>2022-03-21T09:36:27Z</time>
      </trkpt>
      <trkpt lat="47.05595" lon="5.18478">
        <ele>186</ele>
        <time>2022-03-21T09:36:28Z</time>
      </trkpt>
      <trkpt lat="47.05602" lon="5.1847">
        <ele>185.6</ele>
        <time>2022-03-21T09:36:29Z</time>
      </trkpt>
      <trkpt lat="47.05608" lon="5.18462">
        <ele>185.4</ele>
        <time>2022-03-21T09:36:30Z</time>
      </trkpt>
      <trkpt lat="47.05614" lon="5.18453">
        <ele>185.4</ele>
        <time>2022-03-21T09:36:31Z</time>
      </trkpt>
      <trkpt lat="47.0562" lon="5.18444">
        <ele>185.4</ele>
        <time>2022-03-21T09:36:32Z</time>
      </trkpt>
      <trkpt lat="47.05625" lon="5.18434">
        <ele>185.2</ele>
        <time>2022-03-21T09:36:33Z</time>
      </trkpt>
      <trkpt lat="47.0563" lon="5.18425">
        <ele>185.2</ele>
        <time>2022-03-21T09:36:34Z</time>
      </trkpt>
      <trkpt lat="47.05636" lon="5.18415">
        <ele>185.2</ele>
        <time>2022-03-21T09:36:35Z</time>
      </trkpt>
      <trkpt lat="47.05641" lon="5.18406">
        <ele>185.2</ele>
        <time>2022-03-21T09:36:36Z</time>
      </trkpt>
      <trkpt lat="47.05646" lon="5.18397">
        <ele>185</ele>
        <time>2022-03-21T09:36:37Z</time>
      </trkpt>
      <trkpt lat="47.05651" lon="5.18387">
        <ele>185</ele>
        <time>2022-03-21T09:36:38Z</time>
      </trkpt>
      <trkpt lat="47.05657" lon="5.18378">
        <ele>185</ele>
        <time>2022-03-21T09:36:39Z</time>
      </trkpt>
      <trkpt lat="47.05662" lon="5.18368">
        <ele>184.6</ele>
        <time>2022-03-21T09:36:40Z</time>
      </trkpt>
      <trkpt lat="47.05667" lon="5.18359">
        <ele>184.6</ele>
        <time>2022-03-21T09:36:41Z</time>
      </trkpt>
      <trkpt lat="47.05672" lon="5.18349">
        <ele>184.6</ele>
        <time>2022-03-21T09:36:42Z</time>
      </trkpt>
      <trkpt lat="47.05677" lon="5.1834">
        <ele>184.4</ele>
        <time>2022-03-21T09:36:43Z</time>
      </trkpt>
      <trkpt lat="47.05683" lon="5.18331">
        <ele>184.2</ele>
        <time>2022-03-21T09:36:45Z</time>
      </trkpt>
      <trkpt lat="47.05688" lon="5.18321">
        <ele>184.2</ele>
        <time>2022-03-21T09:36:46Z</time>
      </trkpt>
      <trkpt lat="47.05693" lon="5.18311">
        <ele>184</ele>
        <time>2022-03-21T09:36:47Z</time>
      </trkpt>
      <trkpt lat="47.05699" lon="5.18302">
        <ele>184</ele>
        <time>2022-03-21T09:36:48Z</time>
      </trkpt>
      <trkpt lat="47.05704" lon="5.18292">
        <ele>184</ele>
        <time>2022-03-21T09:36:49Z</time>
      </trkpt>
      <trkpt lat="47.0571" lon="5.18283">
        <ele>183.6</ele>
        <time>2022-03-21T09:36:50Z</time>
      </trkpt>
      <trkpt lat="47.05715" lon="5.18274">
        <ele>183.6</ele>
        <time>2022-03-21T09:36:51Z</time>
      </trkpt>
      <trkpt lat="47.0572" lon="5.18264">
        <ele>183.6</ele>
        <time>2022-03-21T09:36:52Z</time>
      </trkpt>
      <trkpt lat="47.05726" lon="5.18255">
        <ele>183.4</ele>
        <time>2022-03-21T09:36:53Z</time>
      </trkpt>
      <trkpt lat="47.05731" lon="5.18246">
        <ele>183.4</ele>
        <time>2022-03-21T09:36:54Z</time>
      </trkpt>
      <trkpt lat="47.05737" lon="5.18236">
        <ele>183.4</ele>
        <time>2022-03-21T09:36:55Z</time>
      </trkpt>
      <trkpt lat="47.05742" lon="5.18227">
        <ele>183.4</ele>
        <time>2022-03-21T09:36:56Z</time>
      </trkpt>
      <trkpt lat="47.05747" lon="5.18218">
        <ele>183.4</ele>
        <time>2022-03-21T09:36:57Z</time>
      </trkpt>
      <trkpt lat="47.05753" lon="5.18209">
        <ele>183.4</ele>
        <time>2022-03-21T09:36:58Z</time>
      </trkpt>
      <trkpt lat="47.05758" lon="5.182">
        <ele>183.4</ele>
        <time>2022-03-21T09:36:59Z</time>
      </trkpt>
      <trkpt lat="47.05763" lon="5.18192">
        <ele>183.4</ele>
        <time>2022-03-21T09:37:00Z</time>
      </trkpt>
      <trkpt lat="47.05769" lon="5.18184">
        <ele>183.4</ele>
        <time>2022-03-21T09:37:01Z</time>
      </trkpt>
      <trkpt lat="47.05775" lon="5.18176">
        <ele>183.4</ele>
        <time>2022-03-21T09:37:02Z</time>
      </trkpt>
      <trkpt lat="47.05781" lon="5.18168">
        <ele>183.4</ele>
        <time>2022-03-21T09:37:03Z</time>
      </trkpt>
      <trkpt lat="47.05787" lon="5.18162">
        <ele>183.4</ele>
        <time>2022-03-21T09:37:04Z</time>
      </trkpt>
      <trkpt lat="47.05794" lon="5.18156">
        <ele>183.4</ele>
        <time>2022-03-21T09:37:05Z</time>
      </trkpt>
      <trkpt lat="47.05801" lon="5.18151">
        <ele>183.4</ele>
        <time>2022-03-21T09:37:06Z</time>
      </trkpt>
      <trkpt lat="47.05808" lon="5.18146">
        <ele>183.4</ele>
        <time>2022-03-21T09:37:07Z</time>
      </trkpt>
      <trkpt lat="47.05815" lon="5.18141">
        <ele>183.4</ele>
        <time>2022-03-21T09:37:08Z</time>
      </trkpt>
      <trkpt lat="47.05822" lon="5.18136">
        <ele>183.4</ele>
        <time>2022-03-21T09:37:09Z</time>
      </trkpt>
      <trkpt lat="47.05829" lon="5.18131">
        <ele>183.4</ele>
        <time>2022-03-21T09:37:10Z</time>
      </trkpt>
      <trkpt lat="47.05837" lon="5.18127">
        <ele>183.4</ele>
        <time>2022-03-21T09:37:11Z</time>
      </trkpt>
      <trkpt lat="47.05844" lon="5.18122">
        <ele>183.8</ele>
        <time>2022-03-21T09:37:12Z</time>
      </trkpt>
      <trkpt lat="47.05851" lon="5.18117">
        <ele>183.8</ele>
        <time>2022-03-21T09:37:13Z</time>
      </trkpt>
      <trkpt lat="47.05858" lon="5.18113">
        <ele>183.8</ele>
        <time>2022-03-21T09:37:14Z</time>
      </trkpt>
      <trkpt lat="47.05865" lon="5.18108">
        <ele>183.8</ele>
        <time>2022-03-21T09:37:15Z</time>
      </trkpt>
      <trkpt lat="47.05872" lon="5.18104">
        <ele>183.8</ele>
        <time>2022-03-21T09:37:16Z</time>
      </trkpt>
      <trkpt lat="47.05879" lon="5.181">
        <ele>184</ele>
        <time>2022-03-21T09:37:17Z</time>
      </trkpt>
      <trkpt lat="47.05886" lon="5.18095">
        <ele>184</ele>
        <time>2022-03-21T09:37:18Z</time>
      </trkpt>
      <trkpt lat="47.05893" lon="5.18091">
        <ele>184</ele>
        <time>2022-03-21T09:37:19Z</time>
      </trkpt>
      <trkpt lat="47.059" lon="5.18087">
        <ele>184</ele>
        <time>2022-03-21T09:37:20Z</time>
      </trkpt>
      <trkpt lat="47.05908" lon="5.18082">
        <ele>184</ele>
        <time>2022-03-21T09:37:21Z</time>
      </trkpt>
      <trkpt lat="47.05915" lon="5.18078">
        <ele>184</ele>
        <time>2022-03-21T09:37:22Z</time>
      </trkpt>
      <trkpt lat="47.05922" lon="5.18074">
        <ele>184</ele>
        <time>2022-03-21T09:37:23Z</time>
      </trkpt>
      <trkpt lat="47.05936" lon="5.18065">
        <ele>184</ele>
        <time>2022-03-21T09:37:24Z</time>
      </trkpt>
      <trkpt lat="47.05943" lon="5.18061">
        <ele>184</ele>
        <time>2022-03-21T09:37:25Z</time>
      </trkpt>
      <trkpt lat="47.05951" lon="5.18056">
        <ele>184</ele>
        <time>2022-03-21T09:37:26Z</time>
      </trkpt>
      <trkpt lat="47.05958" lon="5.18052">
        <ele>184</ele>
        <time>2022-03-21T09:37:27Z</time>
      </trkpt>
      <trkpt lat="47.05965" lon="5.18048">
        <ele>184</ele>
        <time>2022-03-21T09:37:28Z</time>
      </trkpt>
      <trkpt lat="47.05973" lon="5.18044">
        <ele>184</ele>
        <time>2022-03-21T09:37:29Z</time>
      </trkpt>
      <trkpt lat="47.0598" lon="5.18039">
        <ele>184</ele>
        <time>2022-03-21T09:37:30Z</time>
      </trkpt>
      <trkpt lat="47.05987" lon="5.18035">
        <ele>184</ele>
        <time>2022-03-21T09:37:31Z</time>
      </trkpt>
      <trkpt lat="47.05994" lon="5.1803">
        <ele>184</ele>
        <time>2022-03-21T09:37:32Z</time>
      </trkpt>
      <trkpt lat="47.06001" lon="5.18026">
        <ele>184</ele>
        <time>2022-03-21T09:37:33Z</time>
      </trkpt>
      <trkpt lat="47.06008" lon="5.18021">
        <ele>184</ele>
        <time>2022-03-21T09:37:34Z</time>
      </trkpt>
      <trkpt lat="47.06015" lon="5.18015">
        <ele>184</ele>
        <time>2022-03-21T09:37:35Z</time>
      </trkpt>
      <trkpt lat="47.06022" lon="5.1801">
        <ele>184</ele>
        <time>2022-03-21T09:37:36Z</time>
      </trkpt>
      <trkpt lat="47.06028" lon="5.18003">
        <ele>184</ele>
        <time>2022-03-21T09:37:37Z</time>
      </trkpt>
      <trkpt lat="47.06034" lon="5.17996">
        <ele>184</ele>
        <time>2022-03-21T09:37:38Z</time>
      </trkpt>
      <trkpt lat="47.06039" lon="5.17989">
        <ele>184</ele>
        <time>2022-03-21T09:37:39Z</time>
      </trkpt>
      <trkpt lat="47.06045" lon="5.17981">
        <ele>184</ele>
        <time>2022-03-21T09:37:40Z</time>
      </trkpt>
      <trkpt lat="47.06049" lon="5.17973">
        <ele>184</ele>
        <time>2022-03-21T09:37:41Z</time>
      </trkpt>
      <trkpt lat="47.06054" lon="5.17964">
        <ele>184</ele>
        <time>2022-03-21T09:37:42Z</time>
      </trkpt>
      <trkpt lat="47.06058" lon="5.17954">
        <ele>184</ele>
        <time>2022-03-21T09:37:43Z</time>
      </trkpt>
      <trkpt lat="47.06062" lon="5.17945">
        <ele>184</ele>
        <time>2022-03-21T09:37:44Z</time>
      </trkpt>
      <trkpt lat="47.06066" lon="5.17935">
        <ele>184</ele>
        <time>2022-03-21T09:37:45Z</time>
      </trkpt>
      <trkpt lat="47.0607" lon="5.17926">
        <ele>184</ele>
        <time>2022-03-21T09:37:46Z</time>
      </trkpt>
      <trkpt lat="47.06074" lon="5.17916">
        <ele>184</ele>
        <time>2022-03-21T09:37:47Z</time>
      </trkpt>
      <trkpt lat="47.06078" lon="5.17906">
        <ele>184</ele>
        <time>2022-03-21T09:37:48Z</time>
      </trkpt>
      <trkpt lat="47.06082" lon="5.17897">
        <ele>184</ele>
        <time>2022-03-21T09:37:49Z</time>
      </trkpt>
      <trkpt lat="47.06086" lon="5.17887">
        <ele>184</ele>
        <time>2022-03-21T09:37:50Z</time>
      </trkpt>
      <trkpt lat="47.0609" lon="5.17877">
        <ele>184</ele>
        <time>2022-03-21T09:37:51Z</time>
      </trkpt>
      <trkpt lat="47.06094" lon="5.17867">
        <ele>184</ele>
        <time>2022-03-21T09:37:52Z</time>
      </trkpt>
      <trkpt lat="47.06098" lon="5.17857">
        <ele>184</ele>
        <time>2022-03-21T09:37:53Z</time>
      </trkpt>
      <trkpt lat="47.06102" lon="5.17847">
        <ele>184</ele>
        <time>2022-03-21T09:37:54Z</time>
      </trkpt>
      <trkpt lat="47.06106" lon="5.17837">
        <ele>184</ele>
        <time>2022-03-21T09:37:55Z</time>
      </trkpt>
      <trkpt lat="47.0611" lon="5.17827">
        <ele>184</ele>
        <time>2022-03-21T09:37:56Z</time>
      </trkpt>
      <trkpt lat="47.06114" lon="5.17817">
        <ele>184</ele>
        <time>2022-03-21T09:37:57Z</time>
      </trkpt>
      <trkpt lat="47.06118" lon="5.17807">
        <ele>184</ele>
        <time>2022-03-21T09:37:58Z</time>
      </trkpt>
      <trkpt lat="47.06122" lon="5.17798">
        <ele>184</ele>
        <time>2022-03-21T09:37:59Z</time>
      </trkpt>
      <trkpt lat="47.06125" lon="5.17788">
        <ele>183.6</ele>
        <time>2022-03-21T09:38:00Z</time>
      </trkpt>
      <trkpt lat="47.06128" lon="5.17778">
        <ele>183.6</ele>
        <time>2022-03-21T09:38:01Z</time>
      </trkpt>
      <trkpt lat="47.06131" lon="5.17768">
        <ele>183.6</ele>
        <time>2022-03-21T09:38:02Z</time>
      </trkpt>
      <trkpt lat="47.06135" lon="5.17758">
        <ele>183.6</ele>
        <time>2022-03-21T09:38:03Z</time>
      </trkpt>
      <trkpt lat="47.06138" lon="5.17747">
        <ele>183.6</ele>
        <time>2022-03-21T09:38:04Z</time>
      </trkpt>
      <trkpt lat="47.06141" lon="5.17737">
        <ele>183.6</ele>
        <time>2022-03-21T09:38:05Z</time>
      </trkpt>
      <trkpt lat="47.06144" lon="5.17727">
        <ele>183.4</ele>
        <time>2022-03-21T09:38:06Z</time>
      </trkpt>
      <trkpt lat="47.06147" lon="5.17717">
        <ele>183.4</ele>
        <time>2022-03-21T09:38:07Z</time>
      </trkpt>
      <trkpt lat="47.0615" lon="5.17707">
        <ele>183.4</ele>
        <time>2022-03-21T09:38:08Z</time>
      </trkpt>
      <trkpt lat="47.06153" lon="5.17697">
        <ele>183.2</ele>
        <time>2022-03-21T09:38:09Z</time>
      </trkpt>
      <trkpt lat="47.06156" lon="5.17687">
        <ele>183.2</ele>
        <time>2022-03-21T09:38:10Z</time>
      </trkpt>
      <trkpt lat="47.06158" lon="5.17677">
        <ele>183.2</ele>
        <time>2022-03-21T09:38:11Z</time>
      </trkpt>
      <trkpt lat="47.06161" lon="5.17667">
        <ele>183.2</ele>
        <time>2022-03-21T09:38:12Z</time>
      </trkpt>
      <trkpt lat="47.06164" lon="5.17658">
        <ele>183.2</ele>
        <time>2022-03-21T09:38:13Z</time>
      </trkpt>
      <trkpt lat="47.06167" lon="5.17648">
        <ele>183.2</ele>
        <time>2022-03-21T09:38:14Z</time>
      </trkpt>
      <trkpt lat="47.0617" lon="5.17637">
        <ele>183.2</ele>
        <time>2022-03-21T09:38:15Z</time>
      </trkpt>
      <trkpt lat="47.06174" lon="5.17627">
        <ele>183.2</ele>
        <time>2022-03-21T09:38:16Z</time>
      </trkpt>
      <trkpt lat="47.06177" lon="5.17617">
        <ele>183.2</ele>
        <time>2022-03-21T09:38:17Z</time>
      </trkpt>
      <trkpt lat="47.06179" lon="5.17607">
        <ele>183.2</ele>
        <time>2022-03-21T09:38:18Z</time>
      </trkpt>
      <trkpt lat="47.06183" lon="5.17597">
        <ele>183.2</ele>
        <time>2022-03-21T09:38:19Z</time>
      </trkpt>
      <trkpt lat="47.06186" lon="5.17587">
        <ele>183.2</ele>
        <time>2022-03-21T09:38:20Z</time>
      </trkpt>
      <trkpt lat="47.06189" lon="5.17577">
        <ele>183.2</ele>
        <time>2022-03-21T09:38:21Z</time>
      </trkpt>
      <trkpt lat="47.06192" lon="5.17568">
        <ele>183.2</ele>
        <time>2022-03-21T09:38:22Z</time>
      </trkpt>
      <trkpt lat="47.06195" lon="5.17558">
        <ele>183.2</ele>
        <time>2022-03-21T09:38:23Z</time>
      </trkpt>
      <trkpt lat="47.06199" lon="5.17549">
        <ele>183.2</ele>
        <time>2022-03-21T09:38:24Z</time>
      </trkpt>
      <trkpt lat="47.06203" lon="5.1754">
        <ele>183.2</ele>
        <time>2022-03-21T09:38:25Z</time>
      </trkpt>
      <trkpt lat="47.06207" lon="5.17532">
        <ele>183.2</ele>
        <time>2022-03-21T09:38:26Z</time>
      </trkpt>
      <trkpt lat="47.06212" lon="5.17524">
        <ele>183.2</ele>
        <time>2022-03-21T09:38:27Z</time>
      </trkpt>
      <trkpt lat="47.06217" lon="5.17516">
        <ele>183.2</ele>
        <time>2022-03-21T09:38:28Z</time>
      </trkpt>
      <trkpt lat="47.06221" lon="5.17508">
        <ele>183.2</ele>
        <time>2022-03-21T09:38:29Z</time>
      </trkpt>
      <trkpt lat="47.06226" lon="5.175">
        <ele>183.6</ele>
        <time>2022-03-21T09:38:30Z</time>
      </trkpt>
      <trkpt lat="47.0623" lon="5.17492">
        <ele>183.6</ele>
        <time>2022-03-21T09:38:31Z</time>
      </trkpt>
      <trkpt lat="47.06235" lon="5.17485">
        <ele>183.6</ele>
        <time>2022-03-21T09:38:32Z</time>
      </trkpt>
      <trkpt lat="47.0624" lon="5.17477">
        <ele>183.8</ele>
        <time>2022-03-21T09:38:33Z</time>
      </trkpt>
      <trkpt lat="47.06245" lon="5.17471">
        <ele>184</ele>
        <time>2022-03-21T09:38:34Z</time>
      </trkpt>
      <trkpt lat="47.0625" lon="5.17464">
        <ele>184</ele>
        <time>2022-03-21T09:38:35Z</time>
      </trkpt>
      <trkpt lat="47.06255" lon="5.17458">
        <ele>184.4</ele>
        <time>2022-03-21T09:38:36Z</time>
      </trkpt>
      <trkpt lat="47.06261" lon="5.17451">
        <ele>184.4</ele>
        <time>2022-03-21T09:38:37Z</time>
      </trkpt>
      <trkpt lat="47.06267" lon="5.17445">
        <ele>184.4</ele>
        <time>2022-03-21T09:38:38Z</time>
      </trkpt>
      <trkpt lat="47.06272" lon="5.17438">
        <ele>184.4</ele>
        <time>2022-03-21T09:38:39Z</time>
      </trkpt>
      <trkpt lat="47.06278" lon="5.17431">
        <ele>184.4</ele>
        <time>2022-03-21T09:38:40Z</time>
      </trkpt>
      <trkpt lat="47.06284" lon="5.17424">
        <ele>184.4</ele>
        <time>2022-03-21T09:38:41Z</time>
      </trkpt>
      <trkpt lat="47.06289" lon="5.17417">
        <ele>184.4</ele>
        <time>2022-03-21T09:38:42Z</time>
      </trkpt>
      <trkpt lat="47.06295" lon="5.1741">
        <ele>184</ele>
        <time>2022-03-21T09:38:43Z</time>
      </trkpt>
      <trkpt lat="47.06301" lon="5.17403">
        <ele>184</ele>
        <time>2022-03-21T09:38:44Z</time>
      </trkpt>
      <trkpt lat="47.06307" lon="5.17396">
        <ele>183.8</ele>
        <time>2022-03-21T09:38:45Z</time>
      </trkpt>
      <trkpt lat="47.06313" lon="5.17389">
        <ele>183.8</ele>
        <time>2022-03-21T09:38:46Z</time>
      </trkpt>
      <trkpt lat="47.06319" lon="5.17381">
        <ele>183.4</ele>
        <time>2022-03-21T09:38:47Z</time>
      </trkpt>
      <trkpt lat="47.06325" lon="5.17373">
        <ele>183.4</ele>
        <time>2022-03-21T09:38:48Z</time>
      </trkpt>
      <trkpt lat="47.06331" lon="5.17366">
        <ele>183.2</ele>
        <time>2022-03-21T09:38:49Z</time>
      </trkpt>
      <trkpt lat="47.06337" lon="5.17357">
        <ele>183.2</ele>
        <time>2022-03-21T09:38:50Z</time>
      </trkpt>
      <trkpt lat="47.06342" lon="5.17349">
        <ele>183</ele>
        <time>2022-03-21T09:38:51Z</time>
      </trkpt>
      <trkpt lat="47.06348" lon="5.17342">
        <ele>183</ele>
        <time>2022-03-21T09:38:52Z</time>
      </trkpt>
      <trkpt lat="47.06353" lon="5.17334">
        <ele>183</ele>
        <time>2022-03-21T09:38:53Z</time>
      </trkpt>
      <trkpt lat="47.06356" lon="5.17326">
        <ele>183</ele>
        <time>2022-03-21T09:38:54Z</time>
      </trkpt>
      <trkpt lat="47.06358" lon="5.17317">
        <ele>183</ele>
        <time>2022-03-21T09:38:55Z</time>
      </trkpt>
      <trkpt lat="47.06359" lon="5.17309">
        <ele>183</ele>
        <time>2022-03-21T09:38:56Z</time>
      </trkpt>
      <trkpt lat="47.06356" lon="5.17301">
        <ele>183</ele>
        <time>2022-03-21T09:38:57Z</time>
      </trkpt>
      <trkpt lat="47.06353" lon="5.17293">
        <ele>183</ele>
        <time>2022-03-21T09:38:58Z</time>
      </trkpt>
      <trkpt lat="47.06349" lon="5.17285">
        <ele>182.8</ele>
        <time>2022-03-21T09:38:59Z</time>
      </trkpt>
      <trkpt lat="47.06346" lon="5.17278">
        <ele>182.8</ele>
        <time>2022-03-21T09:39:00Z</time>
      </trkpt>
      <trkpt lat="47.06342" lon="5.1727">
        <ele>182.8</ele>
        <time>2022-03-21T09:39:01Z</time>
      </trkpt>
      <trkpt lat="47.06339" lon="5.17262">
        <ele>182.8</ele>
        <time>2022-03-21T09:39:02Z</time>
      </trkpt>
      <trkpt lat="47.06335" lon="5.17254">
        <ele>182.8</ele>
        <time>2022-03-21T09:39:03Z</time>
      </trkpt>
      <trkpt lat="47.06331" lon="5.17246">
        <ele>182.8</ele>
        <time>2022-03-21T09:39:04Z</time>
      </trkpt>
      <trkpt lat="47.06328" lon="5.17238">
        <ele>182.8</ele>
        <time>2022-03-21T09:39:05Z</time>
      </trkpt>
      <trkpt lat="47.06325" lon="5.1723">
        <ele>182.8</ele>
        <time>2022-03-21T09:39:06Z</time>
      </trkpt>
      <trkpt lat="47.06322" lon="5.17221">
        <ele>182.8</ele>
        <time>2022-03-21T09:39:07Z</time>
      </trkpt>
      <trkpt lat="47.06321" lon="5.17212">
        <ele>182.8</ele>
        <time>2022-03-21T09:39:08Z</time>
      </trkpt>
      <trkpt lat="47.06321" lon="5.17202">
        <ele>182.6</ele>
        <time>2022-03-21T09:39:09Z</time>
      </trkpt>
      <trkpt lat="47.06323" lon="5.17194">
        <ele>182.6</ele>
        <time>2022-03-21T09:39:10Z</time>
      </trkpt>
      <trkpt lat="47.06326" lon="5.17186">
        <ele>182.6</ele>
        <time>2022-03-21T09:39:11Z</time>
      </trkpt>
      <trkpt lat="47.06331" lon="5.17179">
        <ele>182.6</ele>
        <time>2022-03-21T09:39:12Z</time>
      </trkpt>
      <trkpt lat="47.06335" lon="5.17172">
        <ele>182.6</ele>
        <time>2022-03-21T09:39:13Z</time>
      </trkpt>
      <trkpt lat="47.06341" lon="5.17165">
        <ele>182.6</ele>
        <time>2022-03-21T09:39:14Z</time>
      </trkpt>
      <trkpt lat="47.06346" lon="5.1716">
        <ele>182.6</ele>
        <time>2022-03-21T09:39:15Z</time>
      </trkpt>
      <trkpt lat="47.06352" lon="5.17154">
        <ele>182.6</ele>
        <time>2022-03-21T09:39:16Z</time>
      </trkpt>
      <trkpt lat="47.06357" lon="5.17148">
        <ele>182.6</ele>
        <time>2022-03-21T09:39:17Z</time>
      </trkpt>
      <trkpt lat="47.06363" lon="5.17142">
        <ele>182.8</ele>
        <time>2022-03-21T09:39:18Z</time>
      </trkpt>
      <trkpt lat="47.06369" lon="5.17136">
        <ele>182.8</ele>
        <time>2022-03-21T09:39:19Z</time>
      </trkpt>
      <trkpt lat="47.06375" lon="5.17131">
        <ele>182.8</ele>
        <time>2022-03-21T09:39:20Z</time>
      </trkpt>
      <trkpt lat="47.06381" lon="5.17125">
        <ele>182.8</ele>
        <time>2022-03-21T09:39:21Z</time>
      </trkpt>
      <trkpt lat="47.06386" lon="5.17119">
        <ele>182.8</ele>
        <time>2022-03-21T09:39:22Z</time>
      </trkpt>
      <trkpt lat="47.06392" lon="5.17112">
        <ele>182.8</ele>
        <time>2022-03-21T09:39:23Z</time>
      </trkpt>
      <trkpt lat="47.06398" lon="5.17106">
        <ele>182.8</ele>
        <time>2022-03-21T09:39:24Z</time>
      </trkpt>
      <trkpt lat="47.06404" lon="5.171">
        <ele>182.8</ele>
        <time>2022-03-21T09:39:25Z</time>
      </trkpt>
      <trkpt lat="47.06411" lon="5.17094">
        <ele>182.8</ele>
        <time>2022-03-21T09:39:26Z</time>
      </trkpt>
      <trkpt lat="47.06417" lon="5.17088">
        <ele>182.8</ele>
        <time>2022-03-21T09:39:27Z</time>
      </trkpt>
      <trkpt lat="47.06423" lon="5.17081">
        <ele>182.6</ele>
        <time>2022-03-21T09:39:28Z</time>
      </trkpt>
      <trkpt lat="47.0643" lon="5.17075">
        <ele>182.6</ele>
        <time>2022-03-21T09:39:29Z</time>
      </trkpt>
      <trkpt lat="47.06436" lon="5.17069">
        <ele>182.6</ele>
        <time>2022-03-21T09:39:30Z</time>
      </trkpt>
      <trkpt lat="47.06443" lon="5.17063">
        <ele>182.6</ele>
        <time>2022-03-21T09:39:31Z</time>
      </trkpt>
      <trkpt lat="47.0645" lon="5.17057">
        <ele>182.2</ele>
        <time>2022-03-21T09:39:32Z</time>
      </trkpt>
      <trkpt lat="47.06457" lon="5.17051">
        <ele>182.2</ele>
        <time>2022-03-21T09:39:33Z</time>
      </trkpt>
      <trkpt lat="47.06463" lon="5.17045">
        <ele>182.2</ele>
        <time>2022-03-21T09:39:34Z</time>
      </trkpt>
      <trkpt lat="47.0647" lon="5.17039">
        <ele>182</ele>
        <time>2022-03-21T09:39:35Z</time>
      </trkpt>
      <trkpt lat="47.06477" lon="5.17034">
        <ele>182</ele>
        <time>2022-03-21T09:39:36Z</time>
      </trkpt>
      <trkpt lat="47.06484" lon="5.17028">
        <ele>182</ele>
        <time>2022-03-21T09:39:37Z</time>
      </trkpt>
      <trkpt lat="47.06491" lon="5.17023">
        <ele>182</ele>
        <time>2022-03-21T09:39:38Z</time>
      </trkpt>
      <trkpt lat="47.06498" lon="5.17018">
        <ele>182</ele>
        <time>2022-03-21T09:39:39Z</time>
      </trkpt>
      <trkpt lat="47.06505" lon="5.17012">
        <ele>182</ele>
        <time>2022-03-21T09:39:40Z</time>
      </trkpt>
      <trkpt lat="47.06512" lon="5.17006">
        <ele>181.8</ele>
        <time>2022-03-21T09:39:41Z</time>
      </trkpt>
      <trkpt lat="47.06519" lon="5.17">
        <ele>181.8</ele>
        <time>2022-03-21T09:39:42Z</time>
      </trkpt>
      <trkpt lat="47.06526" lon="5.16995">
        <ele>181.8</ele>
        <time>2022-03-21T09:39:43Z</time>
      </trkpt>
      <trkpt lat="47.06533" lon="5.16989">
        <ele>181.8</ele>
        <time>2022-03-21T09:39:44Z</time>
      </trkpt>
      <trkpt lat="47.06541" lon="5.16984">
        <ele>181.8</ele>
        <time>2022-03-21T09:39:45Z</time>
      </trkpt>
      <trkpt lat="47.06548" lon="5.1698">
        <ele>181.8</ele>
        <time>2022-03-21T09:39:46Z</time>
      </trkpt>
      <trkpt lat="47.06556" lon="5.16976">
        <ele>181.8</ele>
        <time>2022-03-21T09:39:47Z</time>
      </trkpt>
      <trkpt lat="47.06564" lon="5.16972">
        <ele>181.8</ele>
        <time>2022-03-21T09:39:48Z</time>
      </trkpt>
      <trkpt lat="47.06572" lon="5.16969">
        <ele>181.8</ele>
        <time>2022-03-21T09:39:49Z</time>
      </trkpt>
      <trkpt lat="47.06579" lon="5.16966">
        <ele>181.8</ele>
        <time>2022-03-21T09:39:50Z</time>
      </trkpt>
      <trkpt lat="47.06587" lon="5.16963">
        <ele>181.8</ele>
        <time>2022-03-21T09:39:51Z</time>
      </trkpt>
      <trkpt lat="47.06595" lon="5.1696">
        <ele>181.6</ele>
        <time>2022-03-21T09:39:52Z</time>
      </trkpt>
      <trkpt lat="47.06602" lon="5.16957">
        <ele>181.6</ele>
        <time>2022-03-21T09:39:53Z</time>
      </trkpt>
      <trkpt lat="47.0661" lon="5.16954">
        <ele>181.6</ele>
        <time>2022-03-21T09:39:54Z</time>
      </trkpt>
      <trkpt lat="47.06617" lon="5.16952">
        <ele>181.6</ele>
        <time>2022-03-21T09:39:55Z</time>
      </trkpt>
      <trkpt lat="47.06625" lon="5.16949">
        <ele>181.6</ele>
        <time>2022-03-21T09:39:56Z</time>
      </trkpt>
      <trkpt lat="47.06632" lon="5.16946">
        <ele>181.6</ele>
        <time>2022-03-21T09:39:57Z</time>
      </trkpt>
      <trkpt lat="47.0664" lon="5.16943">
        <ele>181.6</ele>
        <time>2022-03-21T09:39:58Z</time>
      </trkpt>
      <trkpt lat="47.06647" lon="5.1694">
        <ele>181.6</ele>
        <time>2022-03-21T09:39:59Z</time>
      </trkpt>
      <trkpt lat="47.06654" lon="5.16937">
        <ele>181.6</ele>
        <time>2022-03-21T09:40:00Z</time>
      </trkpt>
      <trkpt lat="47.06662" lon="5.16934">
        <ele>181.6</ele>
        <time>2022-03-21T09:40:01Z</time>
      </trkpt>
      <trkpt lat="47.06669" lon="5.16931">
        <ele>181.6</ele>
        <time>2022-03-21T09:40:02Z</time>
      </trkpt>
      <trkpt lat="47.06677" lon="5.16928">
        <ele>181.6</ele>
        <time>2022-03-21T09:40:03Z</time>
      </trkpt>
      <trkpt lat="47.06684" lon="5.16925">
        <ele>181.6</ele>
        <time>2022-03-21T09:40:04Z</time>
      </trkpt>
      <trkpt lat="47.06692" lon="5.16922">
        <ele>181.6</ele>
        <time>2022-03-21T09:40:05Z</time>
      </trkpt>
      <trkpt lat="47.06699" lon="5.16919">
        <ele>181.6</ele>
        <time>2022-03-21T09:40:06Z</time>
      </trkpt>
      <trkpt lat="47.06707" lon="5.16916">
        <ele>181.6</ele>
        <time>2022-03-21T09:40:07Z</time>
      </trkpt>
      <trkpt lat="47.06715" lon="5.16912">
        <ele>181.6</ele>
        <time>2022-03-21T09:40:08Z</time>
      </trkpt>
      <trkpt lat="47.06722" lon="5.16909">
        <ele>181.6</ele>
        <time>2022-03-21T09:40:09Z</time>
      </trkpt>
      <trkpt lat="47.0673" lon="5.16906">
        <ele>181.6</ele>
        <time>2022-03-21T09:40:10Z</time>
      </trkpt>
      <trkpt lat="47.06738" lon="5.16903">
        <ele>181.6</ele>
        <time>2022-03-21T09:40:11Z</time>
      </trkpt>
      <trkpt lat="47.06746" lon="5.169">
        <ele>181.6</ele>
        <time>2022-03-21T09:40:12Z</time>
      </trkpt>
      <trkpt lat="47.06754" lon="5.16896">
        <ele>181.6</ele>
        <time>2022-03-21T09:40:13Z</time>
      </trkpt>
      <trkpt lat="47.06761" lon="5.16893">
        <ele>181.6</ele>
        <time>2022-03-21T09:40:14Z</time>
      </trkpt>
      <trkpt lat="47.06769" lon="5.1689">
        <ele>181.6</ele>
        <time>2022-03-21T09:40:15Z</time>
      </trkpt>
      <trkpt lat="47.06777" lon="5.16887">
        <ele>181.6</ele>
        <time>2022-03-21T09:40:16Z</time>
      </trkpt>
      <trkpt lat="47.06785" lon="5.16883">
        <ele>181.6</ele>
        <time>2022-03-21T09:40:17Z</time>
      </trkpt>
      <trkpt lat="47.06792" lon="5.1688">
        <ele>181.4</ele>
        <time>2022-03-21T09:40:18Z</time>
      </trkpt>
      <trkpt lat="47.068" lon="5.16877">
        <ele>181.4</ele>
        <time>2022-03-21T09:40:19Z</time>
      </trkpt>
      <trkpt lat="47.06808" lon="5.16874">
        <ele>181.4</ele>
        <time>2022-03-21T09:40:20Z</time>
      </trkpt>
      <trkpt lat="47.06816" lon="5.1687">
        <ele>181.4</ele>
        <time>2022-03-21T09:40:21Z</time>
      </trkpt>
      <trkpt lat="47.06823" lon="5.16867">
        <ele>181.4</ele>
        <time>2022-03-21T09:40:22Z</time>
      </trkpt>
      <trkpt lat="47.06831" lon="5.16864">
        <ele>181.4</ele>
        <time>2022-03-21T09:40:23Z</time>
      </trkpt>
      <trkpt lat="47.06839" lon="5.16861">
        <ele>181.4</ele>
        <time>2022-03-21T09:40:24Z</time>
      </trkpt>
      <trkpt lat="47.06847" lon="5.16858">
        <ele>181.4</ele>
        <time>2022-03-21T09:40:25Z</time>
      </trkpt>
      <trkpt lat="47.06854" lon="5.16855">
        <ele>181.4</ele>
        <time>2022-03-21T09:40:26Z</time>
      </trkpt>
      <trkpt lat="47.06862" lon="5.16851">
        <ele>181.4</ele>
        <time>2022-03-21T09:40:27Z</time>
      </trkpt>
      <trkpt lat="47.0687" lon="5.16848">
        <ele>181.4</ele>
        <time>2022-03-21T09:40:28Z</time>
      </trkpt>
      <trkpt lat="47.06877" lon="5.16845">
        <ele>181.4</ele>
        <time>2022-03-21T09:40:29Z</time>
      </trkpt>
      <trkpt lat="47.06885" lon="5.16842">
        <ele>181.4</ele>
        <time>2022-03-21T09:40:30Z</time>
      </trkpt>
      <trkpt lat="47.06893" lon="5.16839">
        <ele>181.4</ele>
        <time>2022-03-21T09:40:31Z</time>
      </trkpt>
      <trkpt lat="47.069" lon="5.16836">
        <ele>181.4</ele>
        <time>2022-03-21T09:40:32Z</time>
      </trkpt>
      <trkpt lat="47.06908" lon="5.16832">
        <ele>181.6</ele>
        <time>2022-03-21T09:40:33Z</time>
      </trkpt>
      <trkpt lat="47.06915" lon="5.16829">
        <ele>181.6</ele>
        <time>2022-03-21T09:40:34Z</time>
      </trkpt>
      <trkpt lat="47.06922" lon="5.16826">
        <ele>181.6</ele>
        <time>2022-03-21T09:40:35Z</time>
      </trkpt>
      <trkpt lat="47.0693" lon="5.16823">
        <ele>181.6</ele>
        <time>2022-03-21T09:40:36Z</time>
      </trkpt>
      <trkpt lat="47.06937" lon="5.1682">
        <ele>181.6</ele>
        <time>2022-03-21T09:40:37Z</time>
      </trkpt>
      <trkpt lat="47.06945" lon="5.16817">
        <ele>181.6</ele>
        <time>2022-03-21T09:40:38Z</time>
      </trkpt>
      <trkpt lat="47.06952" lon="5.16814">
        <ele>181.6</ele>
        <time>2022-03-21T09:40:39Z</time>
      </trkpt>
      <trkpt lat="47.0696" lon="5.16811">
        <ele>181.6</ele>
        <time>2022-03-21T09:40:40Z</time>
      </trkpt>
      <trkpt lat="47.06967" lon="5.16808">
        <ele>181.6</ele>
        <time>2022-03-21T09:40:41Z</time>
      </trkpt>
      <trkpt lat="47.06975" lon="5.16805">
        <ele>181.6</ele>
        <time>2022-03-21T09:40:42Z</time>
      </trkpt>
      <trkpt lat="47.06982" lon="5.16802">
        <ele>181.6</ele>
        <time>2022-03-21T09:40:43Z</time>
      </trkpt>
      <trkpt lat="47.0699" lon="5.16799">
        <ele>181.6</ele>
        <time>2022-03-21T09:40:44Z</time>
      </trkpt>
      <trkpt lat="47.06997" lon="5.16796">
        <ele>181.6</ele>
        <time>2022-03-21T09:40:45Z</time>
      </trkpt>
      <trkpt lat="47.07004" lon="5.16793">
        <ele>181.6</ele>
        <time>2022-03-21T09:40:46Z</time>
      </trkpt>
      <trkpt lat="47.07012" lon="5.1679">
        <ele>181.6</ele>
        <time>2022-03-21T09:40:47Z</time>
      </trkpt>
      <trkpt lat="47.07019" lon="5.16787">
        <ele>181.2</ele>
        <time>2022-03-21T09:40:48Z</time>
      </trkpt>
      <trkpt lat="47.07027" lon="5.16784">
        <ele>181.2</ele>
        <time>2022-03-21T09:40:49Z</time>
      </trkpt>
      <trkpt lat="47.07034" lon="5.1678">
        <ele>181.2</ele>
        <time>2022-03-21T09:40:50Z</time>
      </trkpt>
      <trkpt lat="47.07041" lon="5.16777">
        <ele>181.2</ele>
        <time>2022-03-21T09:40:51Z</time>
      </trkpt>
      <trkpt lat="47.07049" lon="5.16774">
        <ele>181.2</ele>
        <time>2022-03-21T09:40:52Z</time>
      </trkpt>
      <trkpt lat="47.07056" lon="5.16771">
        <ele>181.2</ele>
        <time>2022-03-21T09:40:53Z</time>
      </trkpt>
      <trkpt lat="47.07063" lon="5.16768">
        <ele>181.2</ele>
        <time>2022-03-21T09:40:54Z</time>
      </trkpt>
      <trkpt lat="47.07071" lon="5.16765">
        <ele>181.2</ele>
        <time>2022-03-21T09:40:55Z</time>
      </trkpt>
      <trkpt lat="47.07078" lon="5.16762">
        <ele>181.2</ele>
        <time>2022-03-21T09:40:56Z</time>
      </trkpt>
      <trkpt lat="47.07085" lon="5.16759">
        <ele>181.2</ele>
        <time>2022-03-21T09:40:57Z</time>
      </trkpt>
      <trkpt lat="47.07093" lon="5.16755">
        <ele>181.2</ele>
        <time>2022-03-21T09:40:58Z</time>
      </trkpt>
      <trkpt lat="47.071" lon="5.16752">
        <ele>181.2</ele>
        <time>2022-03-21T09:40:59Z</time>
      </trkpt>
      <trkpt lat="47.07107" lon="5.16748">
        <ele>181.2</ele>
        <time>2022-03-21T09:41:00Z</time>
      </trkpt>
      <trkpt lat="47.07114" lon="5.16744">
        <ele>181.2</ele>
        <time>2022-03-21T09:41:01Z</time>
      </trkpt>
      <trkpt lat="47.07121" lon="5.1674">
        <ele>181.2</ele>
        <time>2022-03-21T09:41:02Z</time>
      </trkpt>
      <trkpt lat="47.07128" lon="5.16735">
        <ele>181.2</ele>
        <time>2022-03-21T09:41:04Z</time>
      </trkpt>
      <trkpt lat="47.07134" lon="5.1673">
        <ele>181.2</ele>
        <time>2022-03-21T09:41:05Z</time>
      </trkpt>
      <trkpt lat="47.07141" lon="5.16725">
        <ele>181.2</ele>
        <time>2022-03-21T09:41:06Z</time>
      </trkpt>
      <trkpt lat="47.07147" lon="5.16719">
        <ele>181.6</ele>
        <time>2022-03-21T09:41:07Z</time>
      </trkpt>
      <trkpt lat="47.07153" lon="5.16712">
        <ele>181.6</ele>
        <time>2022-03-21T09:41:08Z</time>
      </trkpt>
      <trkpt lat="47.07159" lon="5.16706">
        <ele>181.6</ele>
        <time>2022-03-21T09:41:09Z</time>
      </trkpt>
      <trkpt lat="47.07164" lon="5.16699">
        <ele>181.6</ele>
        <time>2022-03-21T09:41:10Z</time>
      </trkpt>
      <trkpt lat="47.0717" lon="5.16691">
        <ele>181.6</ele>
        <time>2022-03-21T09:41:11Z</time>
      </trkpt>
      <trkpt lat="47.07176" lon="5.16684">
        <ele>181.8</ele>
        <time>2022-03-21T09:41:12Z</time>
      </trkpt>
      <trkpt lat="47.07181" lon="5.16676">
        <ele>181.8</ele>
        <time>2022-03-21T09:41:13Z</time>
      </trkpt>
      <trkpt lat="47.07186" lon="5.16668">
        <ele>182</ele>
        <time>2022-03-21T09:41:14Z</time>
      </trkpt>
      <trkpt lat="47.07191" lon="5.16661">
        <ele>182</ele>
        <time>2022-03-21T09:41:15Z</time>
      </trkpt>
      <trkpt lat="47.07196" lon="5.16653">
        <ele>182</ele>
        <time>2022-03-21T09:41:16Z</time>
      </trkpt>
      <trkpt lat="47.07201" lon="5.16646">
        <ele>182.2</ele>
        <time>2022-03-21T09:41:17Z</time>
      </trkpt>
      <trkpt lat="47.07205" lon="5.16639">
        <ele>182.4</ele>
        <time>2022-03-21T09:41:18Z</time>
      </trkpt>
      <trkpt lat="47.0721" lon="5.16632">
        <ele>182.8</ele>
        <time>2022-03-21T09:41:19Z</time>
      </trkpt>
      <trkpt lat="47.07214" lon="5.16625">
        <ele>183</ele>
        <time>2022-03-21T09:41:20Z</time>
      </trkpt>
      <trkpt lat="47.07219" lon="5.16618">
        <ele>183</ele>
        <time>2022-03-21T09:41:21Z</time>
      </trkpt>
      <trkpt lat="47.07223" lon="5.16611">
        <ele>183.4</ele>
        <time>2022-03-21T09:41:22Z</time>
      </trkpt>
      <trkpt lat="47.07228" lon="5.16605">
        <ele>183.8</ele>
        <time>2022-03-21T09:41:23Z</time>
      </trkpt>
      <trkpt lat="47.07233" lon="5.16598">
        <ele>184</ele>
        <time>2022-03-21T09:41:24Z</time>
      </trkpt>
      <trkpt lat="47.07238" lon="5.16593">
        <ele>184.2</ele>
        <time>2022-03-21T09:41:25Z</time>
      </trkpt>
      <trkpt lat="47.07243" lon="5.16589">
        <ele>184.4</ele>
        <time>2022-03-21T09:41:26Z</time>
      </trkpt>
      <trkpt lat="47.07249" lon="5.16584">
        <ele>184.8</ele>
        <time>2022-03-21T09:41:27Z</time>
      </trkpt>
      <trkpt lat="47.07254" lon="5.1658">
        <ele>185</ele>
        <time>2022-03-21T09:41:28Z</time>
      </trkpt>
      <trkpt lat="47.0726" lon="5.16577">
        <ele>185.2</ele>
        <time>2022-03-21T09:41:29Z</time>
      </trkpt>
      <trkpt lat="47.07266" lon="5.16575">
        <ele>185.6</ele>
        <time>2022-03-21T09:41:30Z</time>
      </trkpt>
      <trkpt lat="47.07272" lon="5.16574">
        <ele>185.8</ele>
        <time>2022-03-21T09:41:31Z</time>
      </trkpt>
      <trkpt lat="47.07278" lon="5.16573">
        <ele>185.8</ele>
        <time>2022-03-21T09:41:32Z</time>
      </trkpt>
      <trkpt lat="47.07284" lon="5.16573">
        <ele>186.4</ele>
        <time>2022-03-21T09:41:33Z</time>
      </trkpt>
      <trkpt lat="47.0729" lon="5.16572">
        <ele>186.8</ele>
        <time>2022-03-21T09:41:34Z</time>
      </trkpt>
      <trkpt lat="47.07296" lon="5.16572">
        <ele>187</ele>
        <time>2022-03-21T09:41:35Z</time>
      </trkpt>
      <trkpt lat="47.07301" lon="5.16573">
        <ele>187.2</ele>
        <time>2022-03-21T09:41:36Z</time>
      </trkpt>
      <trkpt lat="47.07307" lon="5.16574">
        <ele>187.4</ele>
        <time>2022-03-21T09:41:37Z</time>
      </trkpt>
      <trkpt lat="47.07312" lon="5.16575">
        <ele>187.8</ele>
        <time>2022-03-21T09:41:38Z</time>
      </trkpt>
      <trkpt lat="47.07317" lon="5.16576">
        <ele>187.8</ele>
        <time>2022-03-21T09:41:39Z</time>
      </trkpt>
      <trkpt lat="47.07323" lon="5.16577">
        <ele>188</ele>
        <time>2022-03-21T09:41:40Z</time>
      </trkpt>
      <trkpt lat="47.07328" lon="5.16578">
        <ele>188</ele>
        <time>2022-03-21T09:41:41Z</time>
      </trkpt>
      <trkpt lat="47.07334" lon="5.16579">
        <ele>188.4</ele>
        <time>2022-03-21T09:41:42Z</time>
      </trkpt>
      <trkpt lat="47.07339" lon="5.16579">
        <ele>188.4</ele>
        <time>2022-03-21T09:41:43Z</time>
      </trkpt>
      <trkpt lat="47.07345" lon="5.1658">
        <ele>188.6</ele>
        <time>2022-03-21T09:41:44Z</time>
      </trkpt>
      <trkpt lat="47.07351" lon="5.16581">
        <ele>188.6</ele>
        <time>2022-03-21T09:41:45Z</time>
      </trkpt>
      <trkpt lat="47.07356" lon="5.16582">
        <ele>189</ele>
        <time>2022-03-21T09:41:46Z</time>
      </trkpt>
      <trkpt lat="47.07362" lon="5.16583">
        <ele>189</ele>
        <time>2022-03-21T09:41:47Z</time>
      </trkpt>
      <trkpt lat="47.07368" lon="5.16584">
        <ele>189.2</ele>
        <time>2022-03-21T09:41:48Z</time>
      </trkpt>
      <trkpt lat="47.07374" lon="5.16584">
        <ele>189.2</ele>
        <time>2022-03-21T09:41:49Z</time>
      </trkpt>
      <trkpt lat="47.0738" lon="5.16585">
        <ele>189.2</ele>
        <time>2022-03-21T09:41:50Z</time>
      </trkpt>
      <trkpt lat="47.07393" lon="5.16587">
        <ele>189.4</ele>
        <time>2022-03-21T09:41:51Z</time>
      </trkpt>
      <trkpt lat="47.07399" lon="5.16588">
        <ele>189.4</ele>
        <time>2022-03-21T09:41:52Z</time>
      </trkpt>
      <trkpt lat="47.07406" lon="5.16589">
        <ele>189.4</ele>
        <time>2022-03-21T09:41:53Z</time>
      </trkpt>
      <trkpt lat="47.07412" lon="5.1659">
        <ele>189.4</ele>
        <time>2022-03-21T09:41:54Z</time>
      </trkpt>
      <trkpt lat="47.07419" lon="5.1659">
        <ele>189.4</ele>
        <time>2022-03-21T09:41:55Z</time>
      </trkpt>
      <trkpt lat="47.07426" lon="5.16591">
        <ele>189.4</ele>
        <time>2022-03-21T09:41:56Z</time>
      </trkpt>
      <trkpt lat="47.07433" lon="5.16592">
        <ele>189.4</ele>
        <time>2022-03-21T09:41:57Z</time>
      </trkpt>
      <trkpt lat="47.0744" lon="5.16593">
        <ele>189.4</ele>
        <time>2022-03-21T09:41:58Z</time>
      </trkpt>
      <trkpt lat="47.07448" lon="5.16594">
        <ele>189.4</ele>
        <time>2022-03-21T09:41:59Z</time>
      </trkpt>
      <trkpt lat="47.07456" lon="5.16595">
        <ele>189.2</ele>
        <time>2022-03-21T09:42:00Z</time>
      </trkpt>
      <trkpt lat="47.07464" lon="5.16596">
        <ele>189.2</ele>
        <time>2022-03-21T09:42:01Z</time>
      </trkpt>
      <trkpt lat="47.07472" lon="5.16597">
        <ele>188.8</ele>
        <time>2022-03-21T09:42:02Z</time>
      </trkpt>
      <trkpt lat="47.0748" lon="5.16599">
        <ele>188.6</ele>
        <time>2022-03-21T09:42:03Z</time>
      </trkpt>
      <trkpt lat="47.07489" lon="5.16601">
        <ele>188.2</ele>
        <time>2022-03-21T09:42:04Z</time>
      </trkpt>
      <trkpt lat="47.07497" lon="5.16604">
        <ele>188</ele>
        <time>2022-03-21T09:42:05Z</time>
      </trkpt>
      <trkpt lat="47.07506" lon="5.16609">
        <ele>187.4</ele>
        <time>2022-03-21T09:42:06Z</time>
      </trkpt>
      <trkpt lat="47.07514" lon="5.16615">
        <ele>187</ele>
        <time>2022-03-21T09:42:07Z</time>
      </trkpt>
      <trkpt lat="47.07522" lon="5.16622">
        <ele>186.8</ele>
        <time>2022-03-21T09:42:08Z</time>
      </trkpt>
      <trkpt lat="47.0753" lon="5.16629">
        <ele>186.4</ele>
        <time>2022-03-21T09:42:09Z</time>
      </trkpt>
      <trkpt lat="47.07538" lon="5.16637">
        <ele>186</ele>
        <time>2022-03-21T09:42:10Z</time>
      </trkpt>
      <trkpt lat="47.07546" lon="5.16644">
        <ele>185.6</ele>
        <time>2022-03-21T09:42:11Z</time>
      </trkpt>
      <trkpt lat="47.07554" lon="5.16652">
        <ele>185.2</ele>
        <time>2022-03-21T09:42:12Z</time>
      </trkpt>
      <trkpt lat="47.07562" lon="5.1666">
        <ele>185</ele>
        <time>2022-03-21T09:42:13Z</time>
      </trkpt>
      <trkpt lat="47.07571" lon="5.16667">
        <ele>184.6</ele>
        <time>2022-03-21T09:42:14Z</time>
      </trkpt>
      <trkpt lat="47.07579" lon="5.16674">
        <ele>184.2</ele>
        <time>2022-03-21T09:42:15Z</time>
      </trkpt>
      <trkpt lat="47.07588" lon="5.16681">
        <ele>184</ele>
        <time>2022-03-21T09:42:16Z</time>
      </trkpt>
      <trkpt lat="47.07596" lon="5.16686">
        <ele>183.6</ele>
        <time>2022-03-21T09:42:17Z</time>
      </trkpt>
      <trkpt lat="47.07605" lon="5.1669">
        <ele>183.4</ele>
        <time>2022-03-21T09:42:18Z</time>
      </trkpt>
      <trkpt lat="47.07615" lon="5.16693">
        <ele>183.4</ele>
        <time>2022-03-21T09:42:19Z</time>
      </trkpt>
      <trkpt lat="47.07624" lon="5.16694">
        <ele>183</ele>
        <time>2022-03-21T09:42:20Z</time>
      </trkpt>
      <trkpt lat="47.07633" lon="5.16693">
        <ele>183</ele>
        <time>2022-03-21T09:42:21Z</time>
      </trkpt>
      <trkpt lat="47.07643" lon="5.16693">
        <ele>183</ele>
        <time>2022-03-21T09:42:22Z</time>
      </trkpt>
      <trkpt lat="47.07652" lon="5.16691">
        <ele>182.8</ele>
        <time>2022-03-21T09:42:23Z</time>
      </trkpt>
      <trkpt lat="47.07661" lon="5.1669">
        <ele>182.8</ele>
        <time>2022-03-21T09:42:24Z</time>
      </trkpt>
      <trkpt lat="47.0767" lon="5.16688">
        <ele>182.8</ele>
        <time>2022-03-21T09:42:25Z</time>
      </trkpt>
      <trkpt lat="47.07679" lon="5.16686">
        <ele>182.8</ele>
        <time>2022-03-21T09:42:26Z</time>
      </trkpt>
      <trkpt lat="47.07688" lon="5.16685">
        <ele>182.8</ele>
        <time>2022-03-21T09:42:27Z</time>
      </trkpt>
      <trkpt lat="47.07697" lon="5.16683">
        <ele>182.8</ele>
        <time>2022-03-21T09:42:28Z</time>
      </trkpt>
      <trkpt lat="47.07706" lon="5.16682">
        <ele>182.8</ele>
        <time>2022-03-21T09:42:29Z</time>
      </trkpt>
      <trkpt lat="47.07715" lon="5.1668">
        <ele>182.8</ele>
        <time>2022-03-21T09:42:30Z</time>
      </trkpt>
      <trkpt lat="47.07723" lon="5.16679">
        <ele>182.8</ele>
        <time>2022-03-21T09:42:31Z</time>
      </trkpt>
      <trkpt lat="47.07732" lon="5.16677">
        <ele>182.8</ele>
        <time>2022-03-21T09:42:32Z</time>
      </trkpt>
      <trkpt lat="47.0774" lon="5.16676">
        <ele>182.8</ele>
        <time>2022-03-21T09:42:33Z</time>
      </trkpt>
      <trkpt lat="47.07749" lon="5.16674">
        <ele>182.4</ele>
        <time>2022-03-21T09:42:34Z</time>
      </trkpt>
      <trkpt lat="47.07757" lon="5.16673">
        <ele>182.4</ele>
        <time>2022-03-21T09:42:35Z</time>
      </trkpt>
      <trkpt lat="47.07766" lon="5.16671">
        <ele>182.4</ele>
        <time>2022-03-21T09:42:36Z</time>
      </trkpt>
      <trkpt lat="47.07774" lon="5.1667">
        <ele>182.4</ele>
        <time>2022-03-21T09:42:37Z</time>
      </trkpt>
      <trkpt lat="47.07782" lon="5.16669">
        <ele>182.4</ele>
        <time>2022-03-21T09:42:38Z</time>
      </trkpt>
      <trkpt lat="47.07791" lon="5.16667">
        <ele>182.4</ele>
        <time>2022-03-21T09:42:39Z</time>
      </trkpt>
      <trkpt lat="47.07799" lon="5.16665">
        <ele>182.4</ele>
        <time>2022-03-21T09:42:40Z</time>
      </trkpt>
      <trkpt lat="47.07807" lon="5.16664">
        <ele>182.4</ele>
        <time>2022-03-21T09:42:41Z</time>
      </trkpt>
      <trkpt lat="47.07815" lon="5.16662">
        <ele>182.4</ele>
        <time>2022-03-21T09:42:42Z</time>
      </trkpt>
      <trkpt lat="47.07823" lon="5.16661">
        <ele>182.4</ele>
        <time>2022-03-21T09:42:43Z</time>
      </trkpt>
      <trkpt lat="47.07831" lon="5.1666">
        <ele>182.4</ele>
        <time>2022-03-21T09:42:44Z</time>
      </trkpt>
      <trkpt lat="47.07839" lon="5.16658">
        <ele>182.4</ele>
        <time>2022-03-21T09:42:45Z</time>
      </trkpt>
      <trkpt lat="47.07847" lon="5.16657">
        <ele>182.4</ele>
        <time>2022-03-21T09:42:46Z</time>
      </trkpt>
      <trkpt lat="47.07855" lon="5.16655">
        <ele>182.4</ele>
        <time>2022-03-21T09:42:47Z</time>
      </trkpt>
      <trkpt lat="47.07863" lon="5.16654">
        <ele>182.4</ele>
        <time>2022-03-21T09:42:48Z</time>
      </trkpt>
      <trkpt lat="47.07871" lon="5.16653">
        <ele>182.4</ele>
        <time>2022-03-21T09:42:49Z</time>
      </trkpt>
      <trkpt lat="47.07879" lon="5.16651">
        <ele>182.4</ele>
        <time>2022-03-21T09:42:50Z</time>
      </trkpt>
      <trkpt lat="47.07887" lon="5.1665">
        <ele>182.4</ele>
        <time>2022-03-21T09:42:51Z</time>
      </trkpt>
      <trkpt lat="47.07895" lon="5.16649">
        <ele>182.8</ele>
        <time>2022-03-21T09:42:52Z</time>
      </trkpt>
      <trkpt lat="47.07902" lon="5.16647">
        <ele>182.8</ele>
        <time>2022-03-21T09:42:53Z</time>
      </trkpt>
      <trkpt lat="47.07909" lon="5.16646">
        <ele>183.2</ele>
        <time>2022-03-21T09:42:54Z</time>
      </trkpt>
      <trkpt lat="47.07917" lon="5.16644">
        <ele>183.2</ele>
        <time>2022-03-21T09:42:55Z</time>
      </trkpt>
      <trkpt lat="47.07924" lon="5.16642">
        <ele>183.4</ele>
        <time>2022-03-21T09:42:56Z</time>
      </trkpt>
      <trkpt lat="47.07931" lon="5.1664">
        <ele>183.4</ele>
        <time>2022-03-21T09:42:57Z</time>
      </trkpt>
      <trkpt lat="47.07938" lon="5.16638">
        <ele>183.8</ele>
        <time>2022-03-21T09:42:58Z</time>
      </trkpt>
      <trkpt lat="47.07945" lon="5.16635">
        <ele>183.8</ele>
        <time>2022-03-21T09:42:59Z</time>
      </trkpt>
      <trkpt lat="47.07952" lon="5.16633">
        <ele>183.8</ele>
        <time>2022-03-21T09:43:00Z</time>
      </trkpt>
      <trkpt lat="47.07959" lon="5.1663">
        <ele>183.8</ele>
        <time>2022-03-21T09:43:01Z</time>
      </trkpt>
      <trkpt lat="47.07966" lon="5.16628">
        <ele>183.8</ele>
        <time>2022-03-21T09:43:02Z</time>
      </trkpt>
      <trkpt lat="47.07974" lon="5.16625">
        <ele>183.8</ele>
        <time>2022-03-21T09:43:03Z</time>
      </trkpt>
      <trkpt lat="47.07981" lon="5.16622">
        <ele>183.8</ele>
        <time>2022-03-21T09:43:04Z</time>
      </trkpt>
      <trkpt lat="47.07989" lon="5.1662">
        <ele>183.8</ele>
        <time>2022-03-21T09:43:05Z</time>
      </trkpt>
      <trkpt lat="47.07997" lon="5.16617">
        <ele>183.4</ele>
        <time>2022-03-21T09:43:06Z</time>
      </trkpt>
      <trkpt lat="47.08005" lon="5.16614">
        <ele>183.2</ele>
        <time>2022-03-21T09:43:07Z</time>
      </trkpt>
      <trkpt lat="47.08013" lon="5.16611">
        <ele>183.2</ele>
        <time>2022-03-21T09:43:08Z</time>
      </trkpt>
      <trkpt lat="47.08021" lon="5.16608">
        <ele>183</ele>
        <time>2022-03-21T09:43:09Z</time>
      </trkpt>
      <trkpt lat="47.0803" lon="5.16605">
        <ele>183</ele>
        <time>2022-03-21T09:43:10Z</time>
      </trkpt>
      <trkpt lat="47.08038" lon="5.16602">
        <ele>182.6</ele>
        <time>2022-03-21T09:43:11Z</time>
      </trkpt>
      <trkpt lat="47.08046" lon="5.16599">
        <ele>183</ele>
        <time>2022-03-21T09:43:12Z</time>
      </trkpt>
      <trkpt lat="47.08054" lon="5.16596">
        <ele>183</ele>
        <time>2022-03-21T09:43:13Z</time>
      </trkpt>
      <trkpt lat="47.08063" lon="5.16593">
        <ele>182.8</ele>
        <time>2022-03-21T09:43:14Z</time>
      </trkpt>
      <trkpt lat="47.08071" lon="5.1659">
        <ele>182.8</ele>
        <time>2022-03-21T09:43:15Z</time>
      </trkpt>
      <trkpt lat="47.08078" lon="5.16587">
        <ele>182.4</ele>
        <time>2022-03-21T09:43:16Z</time>
      </trkpt>
      <trkpt lat="47.08086" lon="5.16585">
        <ele>182.2</ele>
        <time>2022-03-21T09:43:17Z</time>
      </trkpt>
      <trkpt lat="47.08094" lon="5.16582">
        <ele>182.2</ele>
        <time>2022-03-21T09:43:18Z</time>
      </trkpt>
      <trkpt lat="47.08102" lon="5.16579">
        <ele>182</ele>
        <time>2022-03-21T09:43:19Z</time>
      </trkpt>
      <trkpt lat="47.0811" lon="5.16577">
        <ele>182</ele>
        <time>2022-03-21T09:43:20Z</time>
      </trkpt>
      <trkpt lat="47.08118" lon="5.16573">
        <ele>182</ele>
        <time>2022-03-21T09:43:21Z</time>
      </trkpt>
      <trkpt lat="47.08125" lon="5.1657">
        <ele>182</ele>
        <time>2022-03-21T09:43:22Z</time>
      </trkpt>
      <trkpt lat="47.08133" lon="5.16567">
        <ele>181.8</ele>
        <time>2022-03-21T09:43:23Z</time>
      </trkpt>
      <trkpt lat="47.08141" lon="5.16564">
        <ele>181.8</ele>
        <time>2022-03-21T09:43:24Z</time>
      </trkpt>
      <trkpt lat="47.08148" lon="5.16561">
        <ele>181.8</ele>
        <time>2022-03-21T09:43:25Z</time>
      </trkpt>
      <trkpt lat="47.08156" lon="5.16558">
        <ele>181.8</ele>
        <time>2022-03-21T09:43:26Z</time>
      </trkpt>
      <trkpt lat="47.08164" lon="5.16555">
        <ele>181.8</ele>
        <time>2022-03-21T09:43:27Z</time>
      </trkpt>
      <trkpt lat="47.08171" lon="5.16552">
        <ele>181.8</ele>
        <time>2022-03-21T09:43:28Z</time>
      </trkpt>
      <trkpt lat="47.08179" lon="5.1655">
        <ele>181.8</ele>
        <time>2022-03-21T09:43:29Z</time>
      </trkpt>
      <trkpt lat="47.08186" lon="5.16547">
        <ele>181.8</ele>
        <time>2022-03-21T09:43:30Z</time>
      </trkpt>
      <trkpt lat="47.08194" lon="5.16544">
        <ele>181.8</ele>
        <time>2022-03-21T09:43:31Z</time>
      </trkpt>
      <trkpt lat="47.08201" lon="5.16542">
        <ele>181.8</ele>
        <time>2022-03-21T09:43:32Z</time>
      </trkpt>
      <trkpt lat="47.08209" lon="5.16539">
        <ele>181.8</ele>
        <time>2022-03-21T09:43:33Z</time>
      </trkpt>
      <trkpt lat="47.08216" lon="5.16536">
        <ele>181.8</ele>
        <time>2022-03-21T09:43:34Z</time>
      </trkpt>
      <trkpt lat="47.08224" lon="5.16533">
        <ele>181.8</ele>
        <time>2022-03-21T09:43:35Z</time>
      </trkpt>
      <trkpt lat="47.08231" lon="5.1653">
        <ele>181.8</ele>
        <time>2022-03-21T09:43:36Z</time>
      </trkpt>
      <trkpt lat="47.08238" lon="5.16528">
        <ele>181.8</ele>
        <time>2022-03-21T09:43:37Z</time>
      </trkpt>
      <trkpt lat="47.08245" lon="5.16525">
        <ele>181.8</ele>
        <time>2022-03-21T09:43:38Z</time>
      </trkpt>
      <trkpt lat="47.08252" lon="5.16522">
        <ele>181.8</ele>
        <time>2022-03-21T09:43:39Z</time>
      </trkpt>
      <trkpt lat="47.08259" lon="5.16519">
        <ele>182</ele>
        <time>2022-03-21T09:43:40Z</time>
      </trkpt>
      <trkpt lat="47.08266" lon="5.16516">
        <ele>182</ele>
        <time>2022-03-21T09:43:41Z</time>
      </trkpt>
      <trkpt lat="47.08273" lon="5.16513">
        <ele>182</ele>
        <time>2022-03-21T09:43:42Z</time>
      </trkpt>
      <trkpt lat="47.0828" lon="5.1651">
        <ele>182</ele>
        <time>2022-03-21T09:43:43Z</time>
      </trkpt>
      <trkpt lat="47.08287" lon="5.16506">
        <ele>182</ele>
        <time>2022-03-21T09:43:44Z</time>
      </trkpt>
      <trkpt lat="47.08294" lon="5.16502">
        <ele>182</ele>
        <time>2022-03-21T09:43:45Z</time>
      </trkpt>
      <trkpt lat="47.083" lon="5.16499">
        <ele>182</ele>
        <time>2022-03-21T09:43:46Z</time>
      </trkpt>
      <trkpt lat="47.08307" lon="5.16495">
        <ele>182</ele>
        <time>2022-03-21T09:43:47Z</time>
      </trkpt>
      <trkpt lat="47.08314" lon="5.1649">
        <ele>182</ele>
        <time>2022-03-21T09:43:48Z</time>
      </trkpt>
      <trkpt lat="47.0832" lon="5.16486">
        <ele>182</ele>
        <time>2022-03-21T09:43:49Z</time>
      </trkpt>
      <trkpt lat="47.08327" lon="5.16481">
        <ele>182</ele>
        <time>2022-03-21T09:43:50Z</time>
      </trkpt>
      <trkpt lat="47.08334" lon="5.16477">
        <ele>182</ele>
        <time>2022-03-21T09:43:51Z</time>
      </trkpt>
      <trkpt lat="47.0834" lon="5.16473">
        <ele>182</ele>
        <time>2022-03-21T09:43:52Z</time>
      </trkpt>
      <trkpt lat="47.08347" lon="5.16468">
        <ele>182</ele>
        <time>2022-03-21T09:43:53Z</time>
      </trkpt>
      <trkpt lat="47.08354" lon="5.16464">
        <ele>182</ele>
        <time>2022-03-21T09:43:54Z</time>
      </trkpt>
      <trkpt lat="47.08361" lon="5.1646">
        <ele>182</ele>
        <time>2022-03-21T09:43:55Z</time>
      </trkpt>
      <trkpt lat="47.08367" lon="5.16455">
        <ele>182</ele>
        <time>2022-03-21T09:43:56Z</time>
      </trkpt>
      <trkpt lat="47.08374" lon="5.16451">
        <ele>182</ele>
        <time>2022-03-21T09:43:57Z</time>
      </trkpt>
      <trkpt lat="47.0838" lon="5.16446">
        <ele>182</ele>
        <time>2022-03-21T09:43:58Z</time>
      </trkpt>
      <trkpt lat="47.08387" lon="5.16442">
        <ele>182</ele>
        <time>2022-03-21T09:43:59Z</time>
      </trkpt>
      <trkpt lat="47.08393" lon="5.16438">
        <ele>182</ele>
        <time>2022-03-21T09:44:00Z</time>
      </trkpt>
      <trkpt lat="47.084" lon="5.16434">
        <ele>182</ele>
        <time>2022-03-21T09:44:01Z</time>
      </trkpt>
      <trkpt lat="47.08406" lon="5.16429">
        <ele>182</ele>
        <time>2022-03-21T09:44:02Z</time>
      </trkpt>
      <trkpt lat="47.08413" lon="5.16424">
        <ele>182</ele>
        <time>2022-03-21T09:44:03Z</time>
      </trkpt>
      <trkpt lat="47.08419" lon="5.1642">
        <ele>182</ele>
        <time>2022-03-21T09:44:04Z</time>
      </trkpt>
      <trkpt lat="47.08426" lon="5.16415">
        <ele>182</ele>
        <time>2022-03-21T09:44:05Z</time>
      </trkpt>
      <trkpt lat="47.08432" lon="5.16411">
        <ele>182</ele>
        <time>2022-03-21T09:44:06Z</time>
      </trkpt>
      <trkpt lat="47.08439" lon="5.16407">
        <ele>182</ele>
        <time>2022-03-21T09:44:07Z</time>
      </trkpt>
      <trkpt lat="47.08446" lon="5.16404">
        <ele>182</ele>
        <time>2022-03-21T09:44:08Z</time>
      </trkpt>
      <trkpt lat="47.08453" lon="5.16401">
        <ele>182</ele>
        <time>2022-03-21T09:44:09Z</time>
      </trkpt>
      <trkpt lat="47.0846" lon="5.16398">
        <ele>182</ele>
        <time>2022-03-21T09:44:10Z</time>
      </trkpt>
      <trkpt lat="47.08467" lon="5.16397">
        <ele>182</ele>
        <time>2022-03-21T09:44:11Z</time>
      </trkpt>
      <trkpt lat="47.08474" lon="5.16395">
        <ele>182</ele>
        <time>2022-03-21T09:44:12Z</time>
      </trkpt>
      <trkpt lat="47.08481" lon="5.16393">
        <ele>182.2</ele>
        <time>2022-03-21T09:44:13Z</time>
      </trkpt>
      <trkpt lat="47.08488" lon="5.16392">
        <ele>182.2</ele>
        <time>2022-03-21T09:44:14Z</time>
      </trkpt>
      <trkpt lat="47.08495" lon="5.1639">
        <ele>182.2</ele>
        <time>2022-03-21T09:44:15Z</time>
      </trkpt>
      <trkpt lat="47.08501" lon="5.16388">
        <ele>182.2</ele>
        <time>2022-03-21T09:44:16Z</time>
      </trkpt>
      <trkpt lat="47.08508" lon="5.16387">
        <ele>182.2</ele>
        <time>2022-03-21T09:44:17Z</time>
      </trkpt>
      <trkpt lat="47.08515" lon="5.16385">
        <ele>182.4</ele>
        <time>2022-03-21T09:44:18Z</time>
      </trkpt>
      <trkpt lat="47.08522" lon="5.16383">
        <ele>182.4</ele>
        <time>2022-03-21T09:44:19Z</time>
      </trkpt>
      <trkpt lat="47.08529" lon="5.16381">
        <ele>182.4</ele>
        <time>2022-03-21T09:44:20Z</time>
      </trkpt>
      <trkpt lat="47.08535" lon="5.16379">
        <ele>182.4</ele>
        <time>2022-03-21T09:44:21Z</time>
      </trkpt>
      <trkpt lat="47.08542" lon="5.16377">
        <ele>182.4</ele>
        <time>2022-03-21T09:44:22Z</time>
      </trkpt>
      <trkpt lat="47.08549" lon="5.16376">
        <ele>182.4</ele>
        <time>2022-03-21T09:44:23Z</time>
      </trkpt>
      <trkpt lat="47.08556" lon="5.16376">
        <ele>182.4</ele>
        <time>2022-03-21T09:44:24Z</time>
      </trkpt>
      <trkpt lat="47.08563" lon="5.16375">
        <ele>182.4</ele>
        <time>2022-03-21T09:44:25Z</time>
      </trkpt>
      <trkpt lat="47.08569" lon="5.16374">
        <ele>182.4</ele>
        <time>2022-03-21T09:44:26Z</time>
      </trkpt>
      <trkpt lat="47.08576" lon="5.16373">
        <ele>182.4</ele>
        <time>2022-03-21T09:44:27Z</time>
      </trkpt>
      <trkpt lat="47.08583" lon="5.16372">
        <ele>182.8</ele>
        <time>2022-03-21T09:44:28Z</time>
      </trkpt>
      <trkpt lat="47.0859" lon="5.16371">
        <ele>182.8</ele>
        <time>2022-03-21T09:44:29Z</time>
      </trkpt>
      <trkpt lat="47.08596" lon="5.16371">
        <ele>182.8</ele>
        <time>2022-03-21T09:44:30Z</time>
      </trkpt>
      <trkpt lat="47.08603" lon="5.16371">
        <ele>182.8</ele>
        <time>2022-03-21T09:44:31Z</time>
      </trkpt>
      <trkpt lat="47.08608" lon="5.16371">
        <ele>182.8</ele>
        <time>2022-03-21T09:44:32Z</time>
      </trkpt>
      <trkpt lat="47.08613" lon="5.1637">
        <ele>182.8</ele>
        <time>2022-03-21T09:44:33Z</time>
      </trkpt>
      <trkpt lat="47.08617" lon="5.16366">
        <ele>182.8</ele>
        <time>2022-03-21T09:44:34Z</time>
      </trkpt>
      <trkpt lat="47.08618" lon="5.16361">
        <ele>182.8</ele>
        <time>2022-03-21T09:44:35Z</time>
      </trkpt>
      <trkpt lat="47.08619" lon="5.16355">
        <ele>182.8</ele>
        <time>2022-03-21T09:44:36Z</time>
      </trkpt>
      <trkpt lat="47.08619" lon="5.16349">
        <ele>182.8</ele>
        <time>2022-03-21T09:44:37Z</time>
      </trkpt>
      <trkpt lat="47.08618" lon="5.16342">
        <ele>183</ele>
        <time>2022-03-21T09:44:38Z</time>
      </trkpt>
      <trkpt lat="47.08617" lon="5.16335">
        <ele>183</ele>
        <time>2022-03-21T09:44:39Z</time>
      </trkpt>
      <trkpt lat="47.08617" lon="5.16328">
        <ele>183</ele>
        <time>2022-03-21T09:44:40Z</time>
      </trkpt>
      <trkpt lat="47.08616" lon="5.1632">
        <ele>183.2</ele>
        <time>2022-03-21T09:44:41Z</time>
      </trkpt>
      <trkpt lat="47.08614" lon="5.16313">
        <ele>183.2</ele>
        <time>2022-03-21T09:44:42Z</time>
      </trkpt>
      <trkpt lat="47.08613" lon="5.16305">
        <ele>183.2</ele>
        <time>2022-03-21T09:44:43Z</time>
      </trkpt>
      <trkpt lat="47.08612" lon="5.16298">
        <ele>183.2</ele>
        <time>2022-03-21T09:44:44Z</time>
      </trkpt>
      <trkpt lat="47.08611" lon="5.1629">
        <ele>183.2</ele>
        <time>2022-03-21T09:44:45Z</time>
      </trkpt>
      <trkpt lat="47.0861" lon="5.16283">
        <ele>183.2</ele>
        <time>2022-03-21T09:44:46Z</time>
      </trkpt>
      <trkpt lat="47.0861" lon="5.16276">
        <ele>183.2</ele>
        <time>2022-03-21T09:44:47Z</time>
      </trkpt>
      <trkpt lat="47.08611" lon="5.1627">
        <ele>183.2</ele>
        <time>2022-03-21T09:44:48Z</time>
      </trkpt>
      <trkpt lat="47.08614" lon="5.16264">
        <ele>183.2</ele>
        <time>2022-03-21T09:44:49Z</time>
      </trkpt>
      <trkpt lat="47.08617" lon="5.1626">
        <ele>183.2</ele>
        <time>2022-03-21T09:44:50Z</time>
      </trkpt>
      <trkpt lat="47.08621" lon="5.16257">
        <ele>183.2</ele>
        <time>2022-03-21T09:44:51Z</time>
      </trkpt>
      <trkpt lat="47.08626" lon="5.16254">
        <ele>183.2</ele>
        <time>2022-03-21T09:44:52Z</time>
      </trkpt>
      <trkpt lat="47.0863" lon="5.16251">
        <ele>183.2</ele>
        <time>2022-03-21T09:44:53Z</time>
      </trkpt>
      <trkpt lat="47.08635" lon="5.16248">
        <ele>183.2</ele>
        <time>2022-03-21T09:44:54Z</time>
      </trkpt>
      <trkpt lat="47.0864" lon="5.16245">
        <ele>183.2</ele>
        <time>2022-03-21T09:44:55Z</time>
      </trkpt>
      <trkpt lat="47.08645" lon="5.16242">
        <ele>183.2</ele>
        <time>2022-03-21T09:44:56Z</time>
      </trkpt>
      <trkpt lat="47.0865" lon="5.16238">
        <ele>183.2</ele>
        <time>2022-03-21T09:44:57Z</time>
      </trkpt>
      <trkpt lat="47.08655" lon="5.16235">
        <ele>183.2</ele>
        <time>2022-03-21T09:44:58Z</time>
      </trkpt>
      <trkpt lat="47.0866" lon="5.16231">
        <ele>183.6</ele>
        <time>2022-03-21T09:44:59Z</time>
      </trkpt>
      <trkpt lat="47.08666" lon="5.16227">
        <ele>183.6</ele>
        <time>2022-03-21T09:45:00Z</time>
      </trkpt>
      <trkpt lat="47.08671" lon="5.16223">
        <ele>183.6</ele>
        <time>2022-03-21T09:45:01Z</time>
      </trkpt>
      <trkpt lat="47.08676" lon="5.16219">
        <ele>183.8</ele>
        <time>2022-03-21T09:45:02Z</time>
      </trkpt>
      <trkpt lat="47.08682" lon="5.16216">
        <ele>183.8</ele>
        <time>2022-03-21T09:45:03Z</time>
      </trkpt>
      <trkpt lat="47.08687" lon="5.16212">
        <ele>183.8</ele>
        <time>2022-03-21T09:45:04Z</time>
      </trkpt>
      <trkpt lat="47.08692" lon="5.16209">
        <ele>184</ele>
        <time>2022-03-21T09:45:05Z</time>
      </trkpt>
      <trkpt lat="47.08697" lon="5.16205">
        <ele>184</ele>
        <time>2022-03-21T09:45:06Z</time>
      </trkpt>
      <trkpt lat="47.08703" lon="5.16202">
        <ele>184.4</ele>
        <time>2022-03-21T09:45:07Z</time>
      </trkpt>
      <trkpt lat="47.08708" lon="5.16199">
        <ele>184.4</ele>
        <time>2022-03-21T09:45:08Z</time>
      </trkpt>
      <trkpt lat="47.08713" lon="5.16196">
        <ele>184.6</ele>
        <time>2022-03-21T09:45:09Z</time>
      </trkpt>
      <trkpt lat="47.08718" lon="5.16192">
        <ele>184.8</ele>
        <time>2022-03-21T09:45:10Z</time>
      </trkpt>
      <trkpt lat="47.08723" lon="5.16189">
        <ele>184.8</ele>
        <time>2022-03-21T09:45:11Z</time>
      </trkpt>
      <trkpt lat="47.08728" lon="5.16186">
        <ele>184.8</ele>
        <time>2022-03-21T09:45:12Z</time>
      </trkpt>
      <trkpt lat="47.08732" lon="5.16182">
        <ele>185.2</ele>
        <time>2022-03-21T09:45:13Z</time>
      </trkpt>
      <trkpt lat="47.08737" lon="5.16179">
        <ele>185.2</ele>
        <time>2022-03-21T09:45:14Z</time>
      </trkpt>
      <trkpt lat="47.08742" lon="5.16176">
        <ele>185.4</ele>
        <time>2022-03-21T09:45:15Z</time>
      </trkpt>
      <trkpt lat="47.08747" lon="5.16172">
        <ele>185.4</ele>
        <time>2022-03-21T09:45:16Z</time>
      </trkpt>
      <trkpt lat="47.08752" lon="5.16169">
        <ele>185.4</ele>
        <time>2022-03-21T09:45:17Z</time>
      </trkpt>
      <trkpt lat="47.08757" lon="5.16165">
        <ele>185.6</ele>
        <time>2022-03-21T09:45:18Z</time>
      </trkpt>
      <trkpt lat="47.08762" lon="5.16162">
        <ele>185.6</ele>
        <time>2022-03-21T09:45:19Z</time>
      </trkpt>
      <trkpt lat="47.08766" lon="5.16159">
        <ele>185.6</ele>
        <time>2022-03-21T09:45:20Z</time>
      </trkpt>
      <trkpt lat="47.08771" lon="5.16157">
        <ele>185.8</ele>
        <time>2022-03-21T09:45:21Z</time>
      </trkpt>
      <trkpt lat="47.08776" lon="5.16154">
        <ele>186</ele>
        <time>2022-03-21T09:45:23Z</time>
      </trkpt>
      <trkpt lat="47.08781" lon="5.16152">
        <ele>186</ele>
        <time>2022-03-21T09:45:24Z</time>
      </trkpt>
      <trkpt lat="47.08785" lon="5.1615">
        <ele>186</ele>
        <time>2022-03-21T09:45:25Z</time>
      </trkpt>
      <trkpt lat="47.0879" lon="5.16148">
        <ele>186</ele>
        <time>2022-03-21T09:45:26Z</time>
      </trkpt>
      <trkpt lat="47.08794" lon="5.16146">
        <ele>186.4</ele>
        <time>2022-03-21T09:45:27Z</time>
      </trkpt>
      <trkpt lat="47.08797" lon="5.16143">
        <ele>186.4</ele>
        <time>2022-03-21T09:45:28Z</time>
      </trkpt>
      <trkpt lat="47.08799" lon="5.16139">
        <ele>186.4</ele>
        <time>2022-03-21T09:45:29Z</time>
      </trkpt>
      <trkpt lat="47.088" lon="5.16135">
        <ele>186.4</ele>
        <time>2022-03-21T09:45:30Z</time>
      </trkpt>
      <trkpt lat="47.088" lon="5.16131">
        <ele>186.4</ele>
        <time>2022-03-21T09:45:31Z</time>
      </trkpt>
      <trkpt lat="47.088" lon="5.16126">
        <ele>186.4</ele>
        <time>2022-03-21T09:45:32Z</time>
      </trkpt>
      <trkpt lat="47.08799" lon="5.1612">
        <ele>186.6</ele>
        <time>2022-03-21T09:45:33Z</time>
      </trkpt>
      <trkpt lat="47.08798" lon="5.16115">
        <ele>186.6</ele>
        <time>2022-03-21T09:45:34Z</time>
      </trkpt>
      <trkpt lat="47.08796" lon="5.1611">
        <ele>186.8</ele>
        <time>2022-03-21T09:45:35Z</time>
      </trkpt>
      <trkpt lat="47.08794" lon="5.16105">
        <ele>186.8</ele>
        <time>2022-03-21T09:45:36Z</time>
      </trkpt>
      <trkpt lat="47.08793" lon="5.16099">
        <ele>186.8</ele>
        <time>2022-03-21T09:45:37Z</time>
      </trkpt>
      <trkpt lat="47.08791" lon="5.16093">
        <ele>187</ele>
        <time>2022-03-21T09:45:38Z</time>
      </trkpt>
      <trkpt lat="47.08789" lon="5.16087">
        <ele>187</ele>
        <time>2022-03-21T09:45:39Z</time>
      </trkpt>
      <trkpt lat="47.08787" lon="5.16081">
        <ele>187</ele>
        <time>2022-03-21T09:45:40Z</time>
      </trkpt>
      <trkpt lat="47.08785" lon="5.16074">
        <ele>187.4</ele>
        <time>2022-03-21T09:45:41Z</time>
      </trkpt>
      <trkpt lat="47.08783" lon="5.16067">
        <ele>187.4</ele>
        <time>2022-03-21T09:45:42Z</time>
      </trkpt>
      <trkpt lat="47.08781" lon="5.16059">
        <ele>187.8</ele>
        <time>2022-03-21T09:45:43Z</time>
      </trkpt>
      <trkpt lat="47.0878" lon="5.16052">
        <ele>187.8</ele>
        <time>2022-03-21T09:45:44Z</time>
      </trkpt>
      <trkpt lat="47.08778" lon="5.16045">
        <ele>187.8</ele>
        <time>2022-03-21T09:45:45Z</time>
      </trkpt>
      <trkpt lat="47.08775" lon="5.16038">
        <ele>188</ele>
        <time>2022-03-21T09:45:46Z</time>
      </trkpt>
      <trkpt lat="47.08773" lon="5.1603">
        <ele>188</ele>
        <time>2022-03-21T09:45:47Z</time>
      </trkpt>
      <trkpt lat="47.08772" lon="5.16023">
        <ele>188</ele>
        <time>2022-03-21T09:45:48Z</time>
      </trkpt>
      <trkpt lat="47.08769" lon="5.16015">
        <ele>188</ele>
        <time>2022-03-21T09:45:49Z</time>
      </trkpt>
      <trkpt lat="47.08767" lon="5.16007">
        <ele>188</ele>
        <time>2022-03-21T09:45:50Z</time>
      </trkpt>
      <trkpt lat="47.08765" lon="5.16">
        <ele>188</ele>
        <time>2022-03-21T09:45:51Z</time>
      </trkpt>
      <trkpt lat="47.08763" lon="5.15992">
        <ele>188.2</ele>
        <time>2022-03-21T09:45:52Z</time>
      </trkpt>
      <trkpt lat="47.0876" lon="5.15985">
        <ele>188.2</ele>
        <time>2022-03-21T09:45:53Z</time>
      </trkpt>
      <trkpt lat="47.08758" lon="5.15977">
        <ele>188.2</ele>
        <time>2022-03-21T09:45:54Z</time>
      </trkpt>
      <trkpt lat="47.08756" lon="5.15969">
        <ele>188.2</ele>
        <time>2022-03-21T09:45:55Z</time>
      </trkpt>
      <trkpt lat="47.08754" lon="5.1596">
        <ele>188</ele>
        <time>2022-03-21T09:45:56Z</time>
      </trkpt>
      <trkpt lat="47.08752" lon="5.15952">
        <ele>188</ele>
        <time>2022-03-21T09:45:57Z</time>
      </trkpt>
      <trkpt lat="47.08749" lon="5.15944">
        <ele>188</ele>
        <time>2022-03-21T09:45:58Z</time>
      </trkpt>
      <trkpt lat="47.08747" lon="5.15936">
        <ele>188</ele>
        <time>2022-03-21T09:45:59Z</time>
      </trkpt>
      <trkpt lat="47.08745" lon="5.15927">
        <ele>188</ele>
        <time>2022-03-21T09:46:00Z</time>
      </trkpt>
      <trkpt lat="47.08743" lon="5.15918">
        <ele>188</ele>
        <time>2022-03-21T09:46:01Z</time>
      </trkpt>
      <trkpt lat="47.08741" lon="5.1591">
        <ele>188</ele>
        <time>2022-03-21T09:46:02Z</time>
      </trkpt>
      <trkpt lat="47.08738" lon="5.15901">
        <ele>188</ele>
        <time>2022-03-21T09:46:03Z</time>
      </trkpt>
      <trkpt lat="47.08736" lon="5.15892">
        <ele>188</ele>
        <time>2022-03-21T09:46:04Z</time>
      </trkpt>
      <trkpt lat="47.08734" lon="5.15883">
        <ele>188</ele>
        <time>2022-03-21T09:46:05Z</time>
      </trkpt>
      <trkpt lat="47.08732" lon="5.15874">
        <ele>188</ele>
        <time>2022-03-21T09:46:06Z</time>
      </trkpt>
      <trkpt lat="47.0873" lon="5.15866">
        <ele>188</ele>
        <time>2022-03-21T09:46:07Z</time>
      </trkpt>
      <trkpt lat="47.08725" lon="5.15848">
        <ele>188</ele>
        <time>2022-03-21T09:46:08Z</time>
      </trkpt>
      <trkpt lat="47.08723" lon="5.15838">
        <ele>188</ele>
        <time>2022-03-21T09:46:09Z</time>
      </trkpt>
      <trkpt lat="47.08721" lon="5.15829">
        <ele>188</ele>
        <time>2022-03-21T09:46:10Z</time>
      </trkpt>
      <trkpt lat="47.08719" lon="5.15821">
        <ele>188</ele>
        <time>2022-03-21T09:46:11Z</time>
      </trkpt>
      <trkpt lat="47.08716" lon="5.15812">
        <ele>188</ele>
        <time>2022-03-21T09:46:12Z</time>
      </trkpt>
      <trkpt lat="47.08714" lon="5.15803">
        <ele>188</ele>
        <time>2022-03-21T09:46:13Z</time>
      </trkpt>
      <trkpt lat="47.08712" lon="5.15794">
        <ele>188</ele>
        <time>2022-03-21T09:46:14Z</time>
      </trkpt>
      <trkpt lat="47.0871" lon="5.15785">
        <ele>188</ele>
        <time>2022-03-21T09:46:15Z</time>
      </trkpt>
      <trkpt lat="47.08708" lon="5.15776">
        <ele>188</ele>
        <time>2022-03-21T09:46:16Z</time>
      </trkpt>
      <trkpt lat="47.08706" lon="5.15768">
        <ele>188</ele>
        <time>2022-03-21T09:46:17Z</time>
      </trkpt>
      <trkpt lat="47.08704" lon="5.15759">
        <ele>188</ele>
        <time>2022-03-21T09:46:18Z</time>
      </trkpt>
      <trkpt lat="47.08702" lon="5.1575">
        <ele>188</ele>
        <time>2022-03-21T09:46:19Z</time>
      </trkpt>
      <trkpt lat="47.087" lon="5.15742">
        <ele>188</ele>
        <time>2022-03-21T09:46:20Z</time>
      </trkpt>
      <trkpt lat="47.08698" lon="5.15734">
        <ele>188.2</ele>
        <time>2022-03-21T09:46:21Z</time>
      </trkpt>
      <trkpt lat="47.08696" lon="5.15726">
        <ele>188.2</ele>
        <time>2022-03-21T09:46:22Z</time>
      </trkpt>
      <trkpt lat="47.08694" lon="5.15717">
        <ele>188.2</ele>
        <time>2022-03-21T09:46:23Z</time>
      </trkpt>
      <trkpt lat="47.08692" lon="5.15709">
        <ele>188.2</ele>
        <time>2022-03-21T09:46:24Z</time>
      </trkpt>
      <trkpt lat="47.0869" lon="5.15702">
        <ele>188.6</ele>
        <time>2022-03-21T09:46:25Z</time>
      </trkpt>
      <trkpt lat="47.08688" lon="5.15694">
        <ele>188.6</ele>
        <time>2022-03-21T09:46:26Z</time>
      </trkpt>
      <trkpt lat="47.08686" lon="5.15686">
        <ele>188.8</ele>
        <time>2022-03-21T09:46:27Z</time>
      </trkpt>
      <trkpt lat="47.08684" lon="5.15678">
        <ele>188.8</ele>
        <time>2022-03-21T09:46:28Z</time>
      </trkpt>
      <trkpt lat="47.08682" lon="5.1567">
        <ele>188.8</ele>
        <time>2022-03-21T09:46:29Z</time>
      </trkpt>
      <trkpt lat="47.0868" lon="5.15663">
        <ele>188.8</ele>
        <time>2022-03-21T09:46:30Z</time>
      </trkpt>
      <trkpt lat="47.08678" lon="5.15655">
        <ele>188.8</ele>
        <time>2022-03-21T09:46:31Z</time>
      </trkpt>
      <trkpt lat="47.08676" lon="5.15647">
        <ele>189</ele>
        <time>2022-03-21T09:46:32Z</time>
      </trkpt>
      <trkpt lat="47.08674" lon="5.15639">
        <ele>189</ele>
        <time>2022-03-21T09:46:33Z</time>
      </trkpt>
      <trkpt lat="47.08672" lon="5.15631">
        <ele>189</ele>
        <time>2022-03-21T09:46:34Z</time>
      </trkpt>
      <trkpt lat="47.08671" lon="5.15624">
        <ele>189.2</ele>
        <time>2022-03-21T09:46:35Z</time>
      </trkpt>
      <trkpt lat="47.08669" lon="5.15616">
        <ele>189.2</ele>
        <time>2022-03-21T09:46:36Z</time>
      </trkpt>
      <trkpt lat="47.08667" lon="5.15608">
        <ele>189.6</ele>
        <time>2022-03-21T09:46:37Z</time>
      </trkpt>
      <trkpt lat="47.08665" lon="5.156">
        <ele>189.6</ele>
        <time>2022-03-21T09:46:38Z</time>
      </trkpt>
      <trkpt lat="47.08663" lon="5.15592">
        <ele>189.8</ele>
        <time>2022-03-21T09:46:39Z</time>
      </trkpt>
      <trkpt lat="47.08661" lon="5.15584">
        <ele>189.8</ele>
        <time>2022-03-21T09:46:40Z</time>
      </trkpt>
      <trkpt lat="47.08659" lon="5.15577">
        <ele>189.8</ele>
        <time>2022-03-21T09:46:41Z</time>
      </trkpt>
      <trkpt lat="47.08657" lon="5.15569">
        <ele>190</ele>
        <time>2022-03-21T09:46:42Z</time>
      </trkpt>
      <trkpt lat="47.08656" lon="5.15561">
        <ele>190</ele>
        <time>2022-03-21T09:46:43Z</time>
      </trkpt>
      <trkpt lat="47.08654" lon="5.15553">
        <ele>190</ele>
        <time>2022-03-21T09:46:44Z</time>
      </trkpt>
      <trkpt lat="47.08652" lon="5.15546">
        <ele>190.2</ele>
        <time>2022-03-21T09:46:45Z</time>
      </trkpt>
      <trkpt lat="47.0865" lon="5.15538">
        <ele>190.2</ele>
        <time>2022-03-21T09:46:46Z</time>
      </trkpt>
      <trkpt lat="47.08648" lon="5.1553">
        <ele>190.4</ele>
        <time>2022-03-21T09:46:47Z</time>
      </trkpt>
      <trkpt lat="47.08646" lon="5.15522">
        <ele>190.4</ele>
        <time>2022-03-21T09:46:48Z</time>
      </trkpt>
      <trkpt lat="47.08644" lon="5.15515">
        <ele>190.4</ele>
        <time>2022-03-21T09:46:49Z</time>
      </trkpt>
      <trkpt lat="47.08642" lon="5.15507">
        <ele>190.4</ele>
        <time>2022-03-21T09:46:50Z</time>
      </trkpt>
      <trkpt lat="47.0864" lon="5.15499">
        <ele>190.8</ele>
        <time>2022-03-21T09:46:51Z</time>
      </trkpt>
      <trkpt lat="47.08639" lon="5.15491">
        <ele>190.8</ele>
        <time>2022-03-21T09:46:52Z</time>
      </trkpt>
      <trkpt lat="47.08637" lon="5.15484">
        <ele>190.8</ele>
        <time>2022-03-21T09:46:53Z</time>
      </trkpt>
      <trkpt lat="47.08635" lon="5.15476">
        <ele>190.8</ele>
        <time>2022-03-21T09:46:54Z</time>
      </trkpt>
      <trkpt lat="47.08633" lon="5.15469">
        <ele>190.8</ele>
        <time>2022-03-21T09:46:55Z</time>
      </trkpt>
      <trkpt lat="47.08632" lon="5.15462">
        <ele>190.8</ele>
        <time>2022-03-21T09:46:56Z</time>
      </trkpt>
      <trkpt lat="47.0863" lon="5.15454">
        <ele>191</ele>
        <time>2022-03-21T09:46:57Z</time>
      </trkpt>
      <trkpt lat="47.08628" lon="5.15447">
        <ele>191</ele>
        <time>2022-03-21T09:46:58Z</time>
      </trkpt>
      <trkpt lat="47.08626" lon="5.15439">
        <ele>191</ele>
        <time>2022-03-21T09:46:59Z</time>
      </trkpt>
      <trkpt lat="47.08624" lon="5.15432">
        <ele>191</ele>
        <time>2022-03-21T09:47:00Z</time>
      </trkpt>
      <trkpt lat="47.08622" lon="5.15424">
        <ele>191</ele>
        <time>2022-03-21T09:47:01Z</time>
      </trkpt>
      <trkpt lat="47.0862" lon="5.15416">
        <ele>191</ele>
        <time>2022-03-21T09:47:02Z</time>
      </trkpt>
      <trkpt lat="47.08618" lon="5.15409">
        <ele>191</ele>
        <time>2022-03-21T09:47:03Z</time>
      </trkpt>
      <trkpt lat="47.08616" lon="5.15401">
        <ele>191</ele>
        <time>2022-03-21T09:47:04Z</time>
      </trkpt>
      <trkpt lat="47.08614" lon="5.15394">
        <ele>191</ele>
        <time>2022-03-21T09:47:05Z</time>
      </trkpt>
      <trkpt lat="47.08612" lon="5.15386">
        <ele>191</ele>
        <time>2022-03-21T09:47:06Z</time>
      </trkpt>
      <trkpt lat="47.08611" lon="5.15378">
        <ele>191</ele>
        <time>2022-03-21T09:47:07Z</time>
      </trkpt>
      <trkpt lat="47.08609" lon="5.15371">
        <ele>191</ele>
        <time>2022-03-21T09:47:08Z</time>
      </trkpt>
      <trkpt lat="47.08607" lon="5.15363">
        <ele>191.2</ele>
        <time>2022-03-21T09:47:09Z</time>
      </trkpt>
      <trkpt lat="47.08605" lon="5.15356">
        <ele>191.2</ele>
        <time>2022-03-21T09:47:10Z</time>
      </trkpt>
      <trkpt lat="47.08603" lon="5.15348">
        <ele>191.2</ele>
        <time>2022-03-21T09:47:11Z</time>
      </trkpt>
      <trkpt lat="47.08602" lon="5.15341">
        <ele>191.2</ele>
        <time>2022-03-21T09:47:12Z</time>
      </trkpt>
      <trkpt lat="47.086" lon="5.15333">
        <ele>191.2</ele>
        <time>2022-03-21T09:47:13Z</time>
      </trkpt>
      <trkpt lat="47.08598" lon="5.15325">
        <ele>191.2</ele>
        <time>2022-03-21T09:47:14Z</time>
      </trkpt>
      <trkpt lat="47.08596" lon="5.15318">
        <ele>191.2</ele>
        <time>2022-03-21T09:47:15Z</time>
      </trkpt>
      <trkpt lat="47.08594" lon="5.1531">
        <ele>191.2</ele>
        <time>2022-03-21T09:47:16Z</time>
      </trkpt>
      <trkpt lat="47.08593" lon="5.15302">
        <ele>191.4</ele>
        <time>2022-03-21T09:47:17Z</time>
      </trkpt>
      <trkpt lat="47.08591" lon="5.15295">
        <ele>191.4</ele>
        <time>2022-03-21T09:47:18Z</time>
      </trkpt>
      <trkpt lat="47.08589" lon="5.15287">
        <ele>191.8</ele>
        <time>2022-03-21T09:47:19Z</time>
      </trkpt>
      <trkpt lat="47.08587" lon="5.15279">
        <ele>191.8</ele>
        <time>2022-03-21T09:47:20Z</time>
      </trkpt>
      <trkpt lat="47.08585" lon="5.15272">
        <ele>191.8</ele>
        <time>2022-03-21T09:47:21Z</time>
      </trkpt>
      <trkpt lat="47.08583" lon="5.15265">
        <ele>192</ele>
        <time>2022-03-21T09:47:22Z</time>
      </trkpt>
      <trkpt lat="47.08582" lon="5.15257">
        <ele>192</ele>
        <time>2022-03-21T09:47:23Z</time>
      </trkpt>
      <trkpt lat="47.0858" lon="5.1525">
        <ele>192.4</ele>
        <time>2022-03-21T09:47:24Z</time>
      </trkpt>
      <trkpt lat="47.08579" lon="5.15243">
        <ele>192.6</ele>
        <time>2022-03-21T09:47:25Z</time>
      </trkpt>
      <trkpt lat="47.08577" lon="5.15236">
        <ele>192.8</ele>
        <time>2022-03-21T09:47:26Z</time>
      </trkpt>
      <trkpt lat="47.08575" lon="5.15229">
        <ele>193</ele>
        <time>2022-03-21T09:47:27Z</time>
      </trkpt>
      <trkpt lat="47.08573" lon="5.15222">
        <ele>193</ele>
        <time>2022-03-21T09:47:28Z</time>
      </trkpt>
      <trkpt lat="47.08571" lon="5.15215">
        <ele>193</ele>
        <time>2022-03-21T09:47:29Z</time>
      </trkpt>
      <trkpt lat="47.08569" lon="5.15208">
        <ele>193.4</ele>
        <time>2022-03-21T09:47:30Z</time>
      </trkpt>
      <trkpt lat="47.08567" lon="5.15201">
        <ele>193.4</ele>
        <time>2022-03-21T09:47:31Z</time>
      </trkpt>
      <trkpt lat="47.08564" lon="5.15194">
        <ele>193.4</ele>
        <time>2022-03-21T09:47:32Z</time>
      </trkpt>
      <trkpt lat="47.08562" lon="5.15187">
        <ele>193.4</ele>
        <time>2022-03-21T09:47:33Z</time>
      </trkpt>
      <trkpt lat="47.08559" lon="5.1518">
        <ele>193.4</ele>
        <time>2022-03-21T09:47:34Z</time>
      </trkpt>
      <trkpt lat="47.08557" lon="5.15172">
        <ele>193.4</ele>
        <time>2022-03-21T09:47:35Z</time>
      </trkpt>
      <trkpt lat="47.08554" lon="5.15165">
        <ele>193.4</ele>
        <time>2022-03-21T09:47:36Z</time>
      </trkpt>
      <trkpt lat="47.08551" lon="5.15158">
        <ele>193.4</ele>
        <time>2022-03-21T09:47:37Z</time>
      </trkpt>
      <trkpt lat="47.08548" lon="5.15151">
        <ele>193.4</ele>
        <time>2022-03-21T09:47:38Z</time>
      </trkpt>
      <trkpt lat="47.08544" lon="5.15144">
        <ele>193.4</ele>
        <time>2022-03-21T09:47:39Z</time>
      </trkpt>
      <trkpt lat="47.08541" lon="5.15138">
        <ele>193.4</ele>
        <time>2022-03-21T09:47:40Z</time>
      </trkpt>
      <trkpt lat="47.08538" lon="5.15131">
        <ele>193.4</ele>
        <time>2022-03-21T09:47:41Z</time>
      </trkpt>
      <trkpt lat="47.08534" lon="5.15124">
        <ele>193.4</ele>
        <time>2022-03-21T09:47:42Z</time>
      </trkpt>
      <trkpt lat="47.08531" lon="5.15117">
        <ele>193.4</ele>
        <time>2022-03-21T09:47:43Z</time>
      </trkpt>
      <trkpt lat="47.08527" lon="5.1511">
        <ele>193.4</ele>
        <time>2022-03-21T09:47:44Z</time>
      </trkpt>
      <trkpt lat="47.08524" lon="5.15104">
        <ele>193.4</ele>
        <time>2022-03-21T09:47:45Z</time>
      </trkpt>
      <trkpt lat="47.0852" lon="5.15097">
        <ele>193.4</ele>
        <time>2022-03-21T09:47:46Z</time>
      </trkpt>
      <trkpt lat="47.08517" lon="5.1509">
        <ele>193.4</ele>
        <time>2022-03-21T09:47:47Z</time>
      </trkpt>
      <trkpt lat="47.08513" lon="5.15084">
        <ele>193.4</ele>
        <time>2022-03-21T09:47:48Z</time>
      </trkpt>
      <trkpt lat="47.0851" lon="5.15077">
        <ele>193.6</ele>
        <time>2022-03-21T09:47:49Z</time>
      </trkpt>
      <trkpt lat="47.08507" lon="5.15071">
        <ele>193.6</ele>
        <time>2022-03-21T09:47:50Z</time>
      </trkpt>
      <trkpt lat="47.08504" lon="5.15064">
        <ele>193.6</ele>
        <time>2022-03-21T09:47:51Z</time>
      </trkpt>
      <trkpt lat="47.08501" lon="5.15058">
        <ele>193.8</ele>
        <time>2022-03-21T09:47:52Z</time>
      </trkpt>
      <trkpt lat="47.08498" lon="5.15051">
        <ele>193.8</ele>
        <time>2022-03-21T09:47:53Z</time>
      </trkpt>
      <trkpt lat="47.08494" lon="5.15045">
        <ele>193.8</ele>
        <time>2022-03-21T09:47:54Z</time>
      </trkpt>
      <trkpt lat="47.08491" lon="5.15038">
        <ele>193.8</ele>
        <time>2022-03-21T09:47:55Z</time>
      </trkpt>
      <trkpt lat="47.08488" lon="5.15032">
        <ele>193.8</ele>
        <time>2022-03-21T09:47:56Z</time>
      </trkpt>
      <trkpt lat="47.08485" lon="5.15025">
        <ele>193.8</ele>
        <time>2022-03-21T09:47:57Z</time>
      </trkpt>
      <trkpt lat="47.08481" lon="5.15018">
        <ele>193.8</ele>
        <time>2022-03-21T09:47:58Z</time>
      </trkpt>
      <trkpt lat="47.08478" lon="5.15012">
        <ele>193.8</ele>
        <time>2022-03-21T09:47:59Z</time>
      </trkpt>
      <trkpt lat="47.08474" lon="5.15005">
        <ele>193.8</ele>
        <time>2022-03-21T09:48:00Z</time>
      </trkpt>
      <trkpt lat="47.08471" lon="5.14998">
        <ele>194</ele>
        <time>2022-03-21T09:48:01Z</time>
      </trkpt>
      <trkpt lat="47.08468" lon="5.14991">
        <ele>194</ele>
        <time>2022-03-21T09:48:02Z</time>
      </trkpt>
      <trkpt lat="47.08464" lon="5.14985">
        <ele>194</ele>
        <time>2022-03-21T09:48:03Z</time>
      </trkpt>
      <trkpt lat="47.0846" lon="5.14978">
        <ele>194</ele>
        <time>2022-03-21T09:48:04Z</time>
      </trkpt>
      <trkpt lat="47.08457" lon="5.14971">
        <ele>194.2</ele>
        <time>2022-03-21T09:48:05Z</time>
      </trkpt>
      <trkpt lat="47.08453" lon="5.14964">
        <ele>194.2</ele>
        <time>2022-03-21T09:48:06Z</time>
      </trkpt>
      <trkpt lat="47.0845" lon="5.14957">
        <ele>194.2</ele>
        <time>2022-03-21T09:48:07Z</time>
      </trkpt>
      <trkpt lat="47.08446" lon="5.1495">
        <ele>194.2</ele>
        <time>2022-03-21T09:48:08Z</time>
      </trkpt>
      <trkpt lat="47.08442" lon="5.14943">
        <ele>194.4</ele>
        <time>2022-03-21T09:48:09Z</time>
      </trkpt>
      <trkpt lat="47.08438" lon="5.14936">
        <ele>194.4</ele>
        <time>2022-03-21T09:48:10Z</time>
      </trkpt>
      <trkpt lat="47.08435" lon="5.14929">
        <ele>194.4</ele>
        <time>2022-03-21T09:48:11Z</time>
      </trkpt>
      <trkpt lat="47.08431" lon="5.14922">
        <ele>194.4</ele>
        <time>2022-03-21T09:48:12Z</time>
      </trkpt>
      <trkpt lat="47.08428" lon="5.14916">
        <ele>194.6</ele>
        <time>2022-03-21T09:48:13Z</time>
      </trkpt>
      <trkpt lat="47.08424" lon="5.14909">
        <ele>194.6</ele>
        <time>2022-03-21T09:48:14Z</time>
      </trkpt>
      <trkpt lat="47.0842" lon="5.14902">
        <ele>194.8</ele>
        <time>2022-03-21T09:48:15Z</time>
      </trkpt>
      <trkpt lat="47.08417" lon="5.14895">
        <ele>194.8</ele>
        <time>2022-03-21T09:48:16Z</time>
      </trkpt>
      <trkpt lat="47.08414" lon="5.14888">
        <ele>194.8</ele>
        <time>2022-03-21T09:48:17Z</time>
      </trkpt>
      <trkpt lat="47.08411" lon="5.14882">
        <ele>195.2</ele>
        <time>2022-03-21T09:48:18Z</time>
      </trkpt>
      <trkpt lat="47.08408" lon="5.14875">
        <ele>195.2</ele>
        <time>2022-03-21T09:48:19Z</time>
      </trkpt>
      <trkpt lat="47.08405" lon="5.14868">
        <ele>195.2</ele>
        <time>2022-03-21T09:48:20Z</time>
      </trkpt>
      <trkpt lat="47.08402" lon="5.14861">
        <ele>195.4</ele>
        <time>2022-03-21T09:48:21Z</time>
      </trkpt>
      <trkpt lat="47.08399" lon="5.14854">
        <ele>195.4</ele>
        <time>2022-03-21T09:48:22Z</time>
      </trkpt>
      <trkpt lat="47.08397" lon="5.14847">
        <ele>195.4</ele>
        <time>2022-03-21T09:48:23Z</time>
      </trkpt>
      <trkpt lat="47.08394" lon="5.14841">
        <ele>195.4</ele>
        <time>2022-03-21T09:48:24Z</time>
      </trkpt>
      <trkpt lat="47.08392" lon="5.14834">
        <ele>195.4</ele>
        <time>2022-03-21T09:48:25Z</time>
      </trkpt>
      <trkpt lat="47.08389" lon="5.14827">
        <ele>195.6</ele>
        <time>2022-03-21T09:48:26Z</time>
      </trkpt>
      <trkpt lat="47.08387" lon="5.1482">
        <ele>195.6</ele>
        <time>2022-03-21T09:48:27Z</time>
      </trkpt>
      <trkpt lat="47.08385" lon="5.14814">
        <ele>195.6</ele>
        <time>2022-03-21T09:48:28Z</time>
      </trkpt>
      <trkpt lat="47.08382" lon="5.14807">
        <ele>196</ele>
        <time>2022-03-21T09:48:29Z</time>
      </trkpt>
      <trkpt lat="47.0838" lon="5.148">
        <ele>196</ele>
        <time>2022-03-21T09:48:30Z</time>
      </trkpt>
      <trkpt lat="47.08378" lon="5.14794">
        <ele>196.2</ele>
        <time>2022-03-21T09:48:31Z</time>
      </trkpt>
      <trkpt lat="47.08376" lon="5.14788">
        <ele>196.2</ele>
        <time>2022-03-21T09:48:32Z</time>
      </trkpt>
      <trkpt lat="47.08373" lon="5.14782">
        <ele>196.2</ele>
        <time>2022-03-21T09:48:33Z</time>
      </trkpt>
      <trkpt lat="47.08372" lon="5.14777">
        <ele>196.2</ele>
        <time>2022-03-21T09:48:34Z</time>
      </trkpt>
      <trkpt lat="47.08371" lon="5.14771">
        <ele>196.2</ele>
        <time>2022-03-21T09:48:35Z</time>
      </trkpt>
      <trkpt lat="47.08371" lon="5.14765">
        <ele>196.4</ele>
        <time>2022-03-21T09:48:36Z</time>
      </trkpt>
      <trkpt lat="47.08373" lon="5.14759">
        <ele>196.4</ele>
        <time>2022-03-21T09:48:37Z</time>
      </trkpt>
      <trkpt lat="47.08375" lon="5.14754">
        <ele>196.4</ele>
        <time>2022-03-21T09:48:38Z</time>
      </trkpt>
      <trkpt lat="47.08379" lon="5.1475">
        <ele>196.4</ele>
        <time>2022-03-21T09:48:39Z</time>
      </trkpt>
      <trkpt lat="47.08384" lon="5.14746">
        <ele>196.4</ele>
        <time>2022-03-21T09:48:40Z</time>
      </trkpt>
      <trkpt lat="47.08389" lon="5.14743">
        <ele>196.4</ele>
        <time>2022-03-21T09:48:41Z</time>
      </trkpt>
      <trkpt lat="47.08393" lon="5.14738">
        <ele>196.4</ele>
        <time>2022-03-21T09:48:42Z</time>
      </trkpt>
      <trkpt lat="47.08398" lon="5.14734">
        <ele>196.4</ele>
        <time>2022-03-21T09:48:43Z</time>
      </trkpt>
      <trkpt lat="47.08403" lon="5.14729">
        <ele>196.6</ele>
        <time>2022-03-21T09:48:44Z</time>
      </trkpt>
      <trkpt lat="47.08408" lon="5.14724">
        <ele>196.6</ele>
        <time>2022-03-21T09:48:45Z</time>
      </trkpt>
      <trkpt lat="47.08413" lon="5.1472">
        <ele>196.8</ele>
        <time>2022-03-21T09:48:46Z</time>
      </trkpt>
      <trkpt lat="47.08418" lon="5.14716">
        <ele>196.8</ele>
        <time>2022-03-21T09:48:47Z</time>
      </trkpt>
      <trkpt lat="47.08423" lon="5.14711">
        <ele>196.8</ele>
        <time>2022-03-21T09:48:48Z</time>
      </trkpt>
      <trkpt lat="47.08428" lon="5.14707">
        <ele>196.8</ele>
        <time>2022-03-21T09:48:49Z</time>
      </trkpt>
      <trkpt lat="47.08433" lon="5.14702">
        <ele>197</ele>
        <time>2022-03-21T09:48:50Z</time>
      </trkpt>
      <trkpt lat="47.08439" lon="5.14698">
        <ele>197</ele>
        <time>2022-03-21T09:48:51Z</time>
      </trkpt>
      <trkpt lat="47.08444" lon="5.14694">
        <ele>197.4</ele>
        <time>2022-03-21T09:48:52Z</time>
      </trkpt>
      <trkpt lat="47.08449" lon="5.1469">
        <ele>197.4</ele>
        <time>2022-03-21T09:48:53Z</time>
      </trkpt>
      <trkpt lat="47.08455" lon="5.14686">
        <ele>197.6</ele>
        <time>2022-03-21T09:48:54Z</time>
      </trkpt>
      <trkpt lat="47.0846" lon="5.14682">
        <ele>197.6</ele>
        <time>2022-03-21T09:48:55Z</time>
      </trkpt>
      <trkpt lat="47.08465" lon="5.14677">
        <ele>197.6</ele>
        <time>2022-03-21T09:48:56Z</time>
      </trkpt>
      <trkpt lat="47.0847" lon="5.14673">
        <ele>197.8</ele>
        <time>2022-03-21T09:48:57Z</time>
      </trkpt>
      <trkpt lat="47.08475" lon="5.14669">
        <ele>197.8</ele>
        <time>2022-03-21T09:48:58Z</time>
      </trkpt>
      <trkpt lat="47.0848" lon="5.14666">
        <ele>198.2</ele>
        <time>2022-03-21T09:48:59Z</time>
      </trkpt>
      <trkpt lat="47.08485" lon="5.14662">
        <ele>198.2</ele>
        <time>2022-03-21T09:49:00Z</time>
      </trkpt>
      <trkpt lat="47.0849" lon="5.14658">
        <ele>198.2</ele>
        <time>2022-03-21T09:49:01Z</time>
      </trkpt>
      <trkpt lat="47.08495" lon="5.14654">
        <ele>198.4</ele>
        <time>2022-03-21T09:49:02Z</time>
      </trkpt>
      <trkpt lat="47.085" lon="5.1465">
        <ele>198.8</ele>
        <time>2022-03-21T09:49:03Z</time>
      </trkpt>
      <trkpt lat="47.08505" lon="5.14647">
        <ele>198.8</ele>
        <time>2022-03-21T09:49:04Z</time>
      </trkpt>
      <trkpt lat="47.0851" lon="5.14643">
        <ele>199</ele>
        <time>2022-03-21T09:49:05Z</time>
      </trkpt>
      <trkpt lat="47.08515" lon="5.1464">
        <ele>199.2</ele>
        <time>2022-03-21T09:49:06Z</time>
      </trkpt>
      <trkpt lat="47.0852" lon="5.14637">
        <ele>199.2</ele>
        <time>2022-03-21T09:49:07Z</time>
      </trkpt>
      <trkpt lat="47.08526" lon="5.14633">
        <ele>199.6</ele>
        <time>2022-03-21T09:49:08Z</time>
      </trkpt>
      <trkpt lat="47.08531" lon="5.1463">
        <ele>199.6</ele>
        <time>2022-03-21T09:49:09Z</time>
      </trkpt>
      <trkpt lat="47.08536" lon="5.14627">
        <ele>199.8</ele>
        <time>2022-03-21T09:49:10Z</time>
      </trkpt>
      <trkpt lat="47.08541" lon="5.14625">
        <ele>199.8</ele>
        <time>2022-03-21T09:49:11Z</time>
      </trkpt>
      <trkpt lat="47.08546" lon="5.14622">
        <ele>200.2</ele>
        <time>2022-03-21T09:49:12Z</time>
      </trkpt>
      <trkpt lat="47.08551" lon="5.14619">
        <ele>200.2</ele>
        <time>2022-03-21T09:49:13Z</time>
      </trkpt>
      <trkpt lat="47.08556" lon="5.14616">
        <ele>200.6</ele>
        <time>2022-03-21T09:49:14Z</time>
      </trkpt>
      <trkpt lat="47.08561" lon="5.14613">
        <ele>200.8</ele>
        <time>2022-03-21T09:49:15Z</time>
      </trkpt>
      <trkpt lat="47.08566" lon="5.14611">
        <ele>201</ele>
        <time>2022-03-21T09:49:16Z</time>
      </trkpt>
      <trkpt lat="47.0857" lon="5.14608">
        <ele>201.4</ele>
        <time>2022-03-21T09:49:17Z</time>
      </trkpt>
      <trkpt lat="47.08575" lon="5.14606">
        <ele>201.4</ele>
        <time>2022-03-21T09:49:18Z</time>
      </trkpt>
      <trkpt lat="47.0858" lon="5.14603">
        <ele>201.8</ele>
        <time>2022-03-21T09:49:19Z</time>
      </trkpt>
      <trkpt lat="47.08585" lon="5.14601">
        <ele>202</ele>
        <time>2022-03-21T09:49:20Z</time>
      </trkpt>
      <trkpt lat="47.0859" lon="5.14599">
        <ele>202</ele>
        <time>2022-03-21T09:49:21Z</time>
      </trkpt>
      <trkpt lat="47.08595" lon="5.14597">
        <ele>202.2</ele>
        <time>2022-03-21T09:49:22Z</time>
      </trkpt>
      <trkpt lat="47.086" lon="5.14594">
        <ele>202.4</ele>
        <time>2022-03-21T09:49:24Z</time>
      </trkpt>
      <trkpt lat="47.08605" lon="5.14592">
        <ele>202.4</ele>
        <time>2022-03-21T09:49:25Z</time>
      </trkpt>
      <trkpt lat="47.0861" lon="5.1459">
        <ele>202.4</ele>
        <time>2022-03-21T09:49:26Z</time>
      </trkpt>
      <trkpt lat="47.08615" lon="5.14587">
        <ele>202.4</ele>
        <time>2022-03-21T09:49:27Z</time>
      </trkpt>
      <trkpt lat="47.08621" lon="5.14584">
        <ele>202.4</ele>
        <time>2022-03-21T09:49:28Z</time>
      </trkpt>
      <trkpt lat="47.08626" lon="5.14582">
        <ele>202.4</ele>
        <time>2022-03-21T09:49:29Z</time>
      </trkpt>
      <trkpt lat="47.08632" lon="5.14578">
        <ele>202.8</ele>
        <time>2022-03-21T09:49:30Z</time>
      </trkpt>
      <trkpt lat="47.08637" lon="5.14575">
        <ele>202.8</ele>
        <time>2022-03-21T09:49:31Z</time>
      </trkpt>
      <trkpt lat="47.08643" lon="5.14572">
        <ele>202.8</ele>
        <time>2022-03-21T09:49:32Z</time>
      </trkpt>
      <trkpt lat="47.08649" lon="5.14568">
        <ele>202.8</ele>
        <time>2022-03-21T09:49:33Z</time>
      </trkpt>
      <trkpt lat="47.08655" lon="5.14565">
        <ele>202.8</ele>
        <time>2022-03-21T09:49:34Z</time>
      </trkpt>
      <trkpt lat="47.08661" lon="5.14562">
        <ele>202.8</ele>
        <time>2022-03-21T09:49:35Z</time>
      </trkpt>
      <trkpt lat="47.08666" lon="5.14558">
        <ele>202.8</ele>
        <time>2022-03-21T09:49:36Z</time>
      </trkpt>
      <trkpt lat="47.08673" lon="5.14554">
        <ele>202.8</ele>
        <time>2022-03-21T09:49:37Z</time>
      </trkpt>
      <trkpt lat="47.08679" lon="5.14551">
        <ele>202.8</ele>
        <time>2022-03-21T09:49:38Z</time>
      </trkpt>
      <trkpt lat="47.08685" lon="5.14547">
        <ele>202.8</ele>
        <time>2022-03-21T09:49:39Z</time>
      </trkpt>
      <trkpt lat="47.08691" lon="5.14544">
        <ele>202.8</ele>
        <time>2022-03-21T09:49:40Z</time>
      </trkpt>
      <trkpt lat="47.08697" lon="5.1454">
        <ele>202.8</ele>
        <time>2022-03-21T09:49:41Z</time>
      </trkpt>
      <trkpt lat="47.08703" lon="5.14537">
        <ele>202.8</ele>
        <time>2022-03-21T09:49:42Z</time>
      </trkpt>
      <trkpt lat="47.08709" lon="5.14534">
        <ele>202.8</ele>
        <time>2022-03-21T09:49:43Z</time>
      </trkpt>
      <trkpt lat="47.08714" lon="5.1453">
        <ele>202.8</ele>
        <time>2022-03-21T09:49:44Z</time>
      </trkpt>
      <trkpt lat="47.0872" lon="5.14527">
        <ele>202.8</ele>
        <time>2022-03-21T09:49:45Z</time>
      </trkpt>
      <trkpt lat="47.08725" lon="5.14523">
        <ele>202.8</ele>
        <time>2022-03-21T09:49:46Z</time>
      </trkpt>
      <trkpt lat="47.0873" lon="5.14519">
        <ele>202.4</ele>
        <time>2022-03-21T09:49:47Z</time>
      </trkpt>
      <trkpt lat="47.08736" lon="5.14516">
        <ele>202.4</ele>
        <time>2022-03-21T09:49:48Z</time>
      </trkpt>
      <trkpt lat="47.0874" lon="5.14513">
        <ele>202.4</ele>
        <time>2022-03-21T09:49:49Z</time>
      </trkpt>
      <trkpt lat="47.08745" lon="5.1451">
        <ele>202.4</ele>
        <time>2022-03-21T09:49:50Z</time>
      </trkpt>
      <trkpt lat="47.08748" lon="5.14508">
        <ele>202.4</ele>
        <time>2022-03-21T09:49:51Z</time>
      </trkpt>
      <trkpt lat="47.08752" lon="5.14507">
        <ele>202.4</ele>
        <time>2022-03-21T09:49:52Z</time>
      </trkpt>
      <trkpt lat="47.08755" lon="5.14507">
        <ele>202.4</ele>
        <time>2022-03-21T09:49:53Z</time>
      </trkpt>
      <trkpt lat="47.08757" lon="5.14508">
        <ele>202.4</ele>
        <time>2022-03-21T09:49:54Z</time>
      </trkpt>
      <trkpt lat="47.08759" lon="5.14509">
        <ele>202.4</ele>
        <time>2022-03-21T09:49:55Z</time>
      </trkpt>
      <trkpt lat="47.08761" lon="5.14508">
        <ele>202.4</ele>
        <time>2022-03-21T09:49:56Z</time>
      </trkpt>
      <trkpt lat="47.08762" lon="5.14508">
        <ele>202.4</ele>
        <time>2022-03-21T09:49:57Z</time>
      </trkpt>
      <trkpt lat="47.08763" lon="5.14508">
        <ele>202.4</ele>
        <time>2022-03-21T09:49:58Z</time>
      </trkpt>
      <trkpt lat="47.0876" lon="5.14512">
        <ele>202.8</ele>
        <time>2022-03-21T09:50:10Z</time>
      </trkpt>
      <trkpt lat="47.08759" lon="5.14514">
        <ele>202.8</ele>
        <time>2022-03-21T09:50:11Z</time>
      </trkpt>
      <trkpt lat="47.0876" lon="5.14515">
        <ele>202.8</ele>
        <time>2022-03-21T09:50:12Z</time>
      </trkpt>
      <trkpt lat="47.0876" lon="5.14517">
        <ele>202.8</ele>
        <time>2022-03-21T09:50:13Z</time>
      </trkpt>
      <trkpt lat="47.08761" lon="5.14518">
        <ele>202.8</ele>
        <time>2022-03-21T09:50:14Z</time>
      </trkpt>
      <trkpt lat="47.08762" lon="5.14518">
        <ele>202.8</ele>
        <time>2022-03-21T09:50:16Z</time>
      </trkpt>
      <trkpt lat="47.08762" lon="5.14518">
        <ele>202.8</ele>
        <time>2022-03-21T09:51:27Z</time>
      </trkpt>
      <trkpt lat="47.08759" lon="5.14516">
        <ele>202.8</ele>
        <time>2022-03-21T09:51:28Z</time>
      </trkpt>
      <trkpt lat="47.08759" lon="5.14514">
        <ele>202.8</ele>
        <time>2022-03-21T09:51:29Z</time>
      </trkpt>
      <trkpt lat="47.08758" lon="5.14512">
        <ele>202.8</ele>
        <time>2022-03-21T09:51:30Z</time>
      </trkpt>
      <trkpt lat="47.08758" lon="5.1451">
        <ele>202.8</ele>
        <time>2022-03-21T09:51:31Z</time>
      </trkpt>
      <trkpt lat="47.08757" lon="5.14506">
        <ele>202.8</ele>
        <time>2022-03-21T09:51:32Z</time>
      </trkpt>
      <trkpt lat="47.08758" lon="5.14502">
        <ele>202.8</ele>
        <time>2022-03-21T09:51:33Z</time>
      </trkpt>
      <trkpt lat="47.0876" lon="5.14498">
        <ele>202.8</ele>
        <time>2022-03-21T09:51:34Z</time>
      </trkpt>
      <trkpt lat="47.08762" lon="5.14495">
        <ele>202.8</ele>
        <time>2022-03-21T09:51:35Z</time>
      </trkpt>
      <trkpt lat="47.08765" lon="5.14492">
        <ele>202.8</ele>
        <time>2022-03-21T09:51:36Z</time>
      </trkpt>
      <trkpt lat="47.08768" lon="5.14489">
        <ele>202.8</ele>
        <time>2022-03-21T09:51:37Z</time>
      </trkpt>
      <trkpt lat="47.08772" lon="5.14486">
        <ele>202.8</ele>
        <time>2022-03-21T09:51:38Z</time>
      </trkpt>
      <trkpt lat="47.08775" lon="5.14483">
        <ele>202.6</ele>
        <time>2022-03-21T09:51:39Z</time>
      </trkpt>
      <trkpt lat="47.08779" lon="5.14479">
        <ele>202.6</ele>
        <time>2022-03-21T09:51:40Z</time>
      </trkpt>
      <trkpt lat="47.08783" lon="5.14476">
        <ele>202.6</ele>
        <time>2022-03-21T09:51:41Z</time>
      </trkpt>
      <trkpt lat="47.08787" lon="5.14472">
        <ele>202.6</ele>
        <time>2022-03-21T09:51:42Z</time>
      </trkpt>
      <trkpt lat="47.08791" lon="5.14467">
        <ele>202.6</ele>
        <time>2022-03-21T09:51:43Z</time>
      </trkpt>
      <trkpt lat="47.08795" lon="5.14463">
        <ele>202.6</ele>
        <time>2022-03-21T09:51:44Z</time>
      </trkpt>
      <trkpt lat="47.08799" lon="5.14458">
        <ele>202.6</ele>
        <time>2022-03-21T09:51:45Z</time>
      </trkpt>
      <trkpt lat="47.08803" lon="5.14453">
        <ele>202.6</ele>
        <time>2022-03-21T09:51:46Z</time>
      </trkpt>
      <trkpt lat="47.08807" lon="5.14448">
        <ele>202.6</ele>
        <time>2022-03-21T09:51:47Z</time>
      </trkpt>
      <trkpt lat="47.08811" lon="5.14443">
        <ele>202.6</ele>
        <time>2022-03-21T09:51:48Z</time>
      </trkpt>
      <trkpt lat="47.08815" lon="5.14437">
        <ele>202.6</ele>
        <time>2022-03-21T09:51:49Z</time>
      </trkpt>
      <trkpt lat="47.08819" lon="5.14431">
        <ele>202.6</ele>
        <time>2022-03-21T09:51:50Z</time>
      </trkpt>
      <trkpt lat="47.08823" lon="5.14425">
        <ele>202.8</ele>
        <time>2022-03-21T09:51:51Z</time>
      </trkpt>
      <trkpt lat="47.08827" lon="5.14418">
        <ele>202.8</ele>
        <time>2022-03-21T09:51:52Z</time>
      </trkpt>
      <trkpt lat="47.08832" lon="5.14412">
        <ele>202.8</ele>
        <time>2022-03-21T09:51:53Z</time>
      </trkpt>
      <trkpt lat="47.08836" lon="5.14405">
        <ele>202.8</ele>
        <time>2022-03-21T09:51:54Z</time>
      </trkpt>
      <trkpt lat="47.0884" lon="5.14398">
        <ele>202.8</ele>
        <time>2022-03-21T09:51:55Z</time>
      </trkpt>
      <trkpt lat="47.08844" lon="5.14391">
        <ele>202.8</ele>
        <time>2022-03-21T09:51:56Z</time>
      </trkpt>
      <trkpt lat="47.08848" lon="5.14384">
        <ele>202.8</ele>
        <time>2022-03-21T09:51:57Z</time>
      </trkpt>
      <trkpt lat="47.08852" lon="5.14376">
        <ele>202.8</ele>
        <time>2022-03-21T09:51:58Z</time>
      </trkpt>
      <trkpt lat="47.08856" lon="5.14369">
        <ele>203</ele>
        <time>2022-03-21T09:51:59Z</time>
      </trkpt>
      <trkpt lat="47.0886" lon="5.14362">
        <ele>203</ele>
        <time>2022-03-21T09:52:00Z</time>
      </trkpt>
      <trkpt lat="47.08864" lon="5.14354">
        <ele>203</ele>
        <time>2022-03-21T09:52:01Z</time>
      </trkpt>
      <trkpt lat="47.08867" lon="5.14347">
        <ele>203</ele>
        <time>2022-03-21T09:52:02Z</time>
      </trkpt>
      <trkpt lat="47.08871" lon="5.1434">
        <ele>203.4</ele>
        <time>2022-03-21T09:52:03Z</time>
      </trkpt>
      <trkpt lat="47.08875" lon="5.14333">
        <ele>203.4</ele>
        <time>2022-03-21T09:52:04Z</time>
      </trkpt>
      <trkpt lat="47.08878" lon="5.14325">
        <ele>203.6</ele>
        <time>2022-03-21T09:52:05Z</time>
      </trkpt>
      <trkpt lat="47.08881" lon="5.14318">
        <ele>203.6</ele>
        <time>2022-03-21T09:52:06Z</time>
      </trkpt>
      <trkpt lat="47.08885" lon="5.14311">
        <ele>204</ele>
        <time>2022-03-21T09:52:07Z</time>
      </trkpt>
      <trkpt lat="47.08888" lon="5.14304">
        <ele>204</ele>
        <time>2022-03-21T09:52:08Z</time>
      </trkpt>
      <trkpt lat="47.08891" lon="5.14297">
        <ele>204.4</ele>
        <time>2022-03-21T09:52:09Z</time>
      </trkpt>
      <trkpt lat="47.08894" lon="5.14289">
        <ele>204.4</ele>
        <time>2022-03-21T09:52:10Z</time>
      </trkpt>
      <trkpt lat="47.08897" lon="5.14281">
        <ele>204.4</ele>
        <time>2022-03-21T09:52:11Z</time>
      </trkpt>
      <trkpt lat="47.08899" lon="5.14273">
        <ele>204.6</ele>
        <time>2022-03-21T09:52:12Z</time>
      </trkpt>
      <trkpt lat="47.08902" lon="5.14264">
        <ele>204.6</ele>
        <time>2022-03-21T09:52:13Z</time>
      </trkpt>
      <trkpt lat="47.08904" lon="5.14256">
        <ele>204.8</ele>
        <time>2022-03-21T09:52:14Z</time>
      </trkpt>
      <trkpt lat="47.08906" lon="5.14247">
        <ele>204.8</ele>
        <time>2022-03-21T09:52:15Z</time>
      </trkpt>
      <trkpt lat="47.08908" lon="5.14239">
        <ele>204.8</ele>
        <time>2022-03-21T09:52:16Z</time>
      </trkpt>
      <trkpt lat="47.0891" lon="5.14231">
        <ele>204.8</ele>
        <time>2022-03-21T09:52:17Z</time>
      </trkpt>
      <trkpt lat="47.08912" lon="5.14223">
        <ele>205</ele>
        <time>2022-03-21T09:52:18Z</time>
      </trkpt>
      <trkpt lat="47.08914" lon="5.14215">
        <ele>205</ele>
        <time>2022-03-21T09:52:19Z</time>
      </trkpt>
      <trkpt lat="47.08916" lon="5.14207">
        <ele>205</ele>
        <time>2022-03-21T09:52:20Z</time>
      </trkpt>
      <trkpt lat="47.08918" lon="5.14199">
        <ele>205</ele>
        <time>2022-03-21T09:52:21Z</time>
      </trkpt>
      <trkpt lat="47.0892" lon="5.1419">
        <ele>205</ele>
        <time>2022-03-21T09:52:22Z</time>
      </trkpt>
      <trkpt lat="47.08922" lon="5.14182">
        <ele>205.4</ele>
        <time>2022-03-21T09:52:23Z</time>
      </trkpt>
      <trkpt lat="47.08924" lon="5.14174">
        <ele>205.4</ele>
        <time>2022-03-21T09:52:24Z</time>
      </trkpt>
      <trkpt lat="47.08926" lon="5.14166">
        <ele>205.6</ele>
        <time>2022-03-21T09:52:25Z</time>
      </trkpt>
      <trkpt lat="47.08928" lon="5.14158">
        <ele>205.6</ele>
        <time>2022-03-21T09:52:26Z</time>
      </trkpt>
      <trkpt lat="47.0893" lon="5.1415">
        <ele>205.8</ele>
        <time>2022-03-21T09:52:27Z</time>
      </trkpt>
      <trkpt lat="47.08932" lon="5.14141">
        <ele>205.8</ele>
        <time>2022-03-21T09:52:28Z</time>
      </trkpt>
      <trkpt lat="47.08934" lon="5.14133">
        <ele>205.8</ele>
        <time>2022-03-21T09:52:29Z</time>
      </trkpt>
      <trkpt lat="47.08936" lon="5.14124">
        <ele>206</ele>
        <time>2022-03-21T09:52:30Z</time>
      </trkpt>
      <trkpt lat="47.08938" lon="5.14116">
        <ele>206</ele>
        <time>2022-03-21T09:52:31Z</time>
      </trkpt>
      <trkpt lat="47.0894" lon="5.14107">
        <ele>206.2</ele>
        <time>2022-03-21T09:52:32Z</time>
      </trkpt>
      <trkpt lat="47.08943" lon="5.14099">
        <ele>206.2</ele>
        <time>2022-03-21T09:52:33Z</time>
      </trkpt>
      <trkpt lat="47.08945" lon="5.1409">
        <ele>206.2</ele>
        <time>2022-03-21T09:52:34Z</time>
      </trkpt>
      <trkpt lat="47.08948" lon="5.14082">
        <ele>206.2</ele>
        <time>2022-03-21T09:52:35Z</time>
      </trkpt>
      <trkpt lat="47.0895" lon="5.14073">
        <ele>206.4</ele>
        <time>2022-03-21T09:52:36Z</time>
      </trkpt>
      <trkpt lat="47.08953" lon="5.14065">
        <ele>206.4</ele>
        <time>2022-03-21T09:52:37Z</time>
      </trkpt>
      <trkpt lat="47.08956" lon="5.14056">
        <ele>206.4</ele>
        <time>2022-03-21T09:52:38Z</time>
      </trkpt>
      <trkpt lat="47.08959" lon="5.14047">
        <ele>206.4</ele>
        <time>2022-03-21T09:52:39Z</time>
      </trkpt>
      <trkpt lat="47.08962" lon="5.14039">
        <ele>206.4</ele>
        <time>2022-03-21T09:52:40Z</time>
      </trkpt>
      <trkpt lat="47.08966" lon="5.1403">
        <ele>206.4</ele>
        <time>2022-03-21T09:52:41Z</time>
      </trkpt>
      <trkpt lat="47.0897" lon="5.14022">
        <ele>206.6</ele>
        <time>2022-03-21T09:52:42Z</time>
      </trkpt>
      <trkpt lat="47.08974" lon="5.14013">
        <ele>206.6</ele>
        <time>2022-03-21T09:52:43Z</time>
      </trkpt>
      <trkpt lat="47.08978" lon="5.14005">
        <ele>206.6</ele>
        <time>2022-03-21T09:52:44Z</time>
      </trkpt>
      <trkpt lat="47.08982" lon="5.13997">
        <ele>206.6</ele>
        <time>2022-03-21T09:52:45Z</time>
      </trkpt>
      <trkpt lat="47.08987" lon="5.13989">
        <ele>207</ele>
        <time>2022-03-21T09:52:46Z</time>
      </trkpt>
      <trkpt lat="47.08992" lon="5.13981">
        <ele>207</ele>
        <time>2022-03-21T09:52:47Z</time>
      </trkpt>
      <trkpt lat="47.08996" lon="5.13973">
        <ele>207</ele>
        <time>2022-03-21T09:52:48Z</time>
      </trkpt>
      <trkpt lat="47.09001" lon="5.13965">
        <ele>207</ele>
        <time>2022-03-21T09:52:49Z</time>
      </trkpt>
      <trkpt lat="47.09005" lon="5.13957">
        <ele>207</ele>
        <time>2022-03-21T09:52:50Z</time>
      </trkpt>
      <trkpt lat="47.0901" lon="5.13949">
        <ele>207</ele>
        <time>2022-03-21T09:52:51Z</time>
      </trkpt>
      <trkpt lat="47.09015" lon="5.13941">
        <ele>207</ele>
        <time>2022-03-21T09:52:52Z</time>
      </trkpt>
      <trkpt lat="47.0902" lon="5.13933">
        <ele>207</ele>
        <time>2022-03-21T09:52:53Z</time>
      </trkpt>
      <trkpt lat="47.09024" lon="5.13925">
        <ele>207</ele>
        <time>2022-03-21T09:52:54Z</time>
      </trkpt>
      <trkpt lat="47.09029" lon="5.13917">
        <ele>207</ele>
        <time>2022-03-21T09:52:55Z</time>
      </trkpt>
      <trkpt lat="47.09034" lon="5.1391">
        <ele>207.2</ele>
        <time>2022-03-21T09:52:56Z</time>
      </trkpt>
      <trkpt lat="47.09038" lon="5.13902">
        <ele>207.2</ele>
        <time>2022-03-21T09:52:57Z</time>
      </trkpt>
      <trkpt lat="47.09043" lon="5.13894">
        <ele>207.2</ele>
        <time>2022-03-21T09:52:58Z</time>
      </trkpt>
      <trkpt lat="47.09048" lon="5.13887">
        <ele>207.4</ele>
        <time>2022-03-21T09:52:59Z</time>
      </trkpt>
      <trkpt lat="47.09052" lon="5.13879">
        <ele>207.4</ele>
        <time>2022-03-21T09:53:00Z</time>
      </trkpt>
      <trkpt lat="47.09057" lon="5.13871">
        <ele>207.4</ele>
        <time>2022-03-21T09:53:01Z</time>
      </trkpt>
      <trkpt lat="47.09061" lon="5.13864">
        <ele>207.6</ele>
        <time>2022-03-21T09:53:02Z</time>
      </trkpt>
      <trkpt lat="47.09066" lon="5.13856">
        <ele>207.6</ele>
        <time>2022-03-21T09:53:03Z</time>
      </trkpt>
      <trkpt lat="47.0907" lon="5.13849">
        <ele>207.6</ele>
        <time>2022-03-21T09:53:04Z</time>
      </trkpt>
      <trkpt lat="47.09074" lon="5.13841">
        <ele>207.6</ele>
        <time>2022-03-21T09:53:05Z</time>
      </trkpt>
      <trkpt lat="47.09079" lon="5.13834">
        <ele>207.8</ele>
        <time>2022-03-21T09:53:06Z</time>
      </trkpt>
      <trkpt lat="47.09083" lon="5.13827">
        <ele>207.8</ele>
        <time>2022-03-21T09:53:07Z</time>
      </trkpt>
      <trkpt lat="47.09087" lon="5.13819">
        <ele>207.8</ele>
        <time>2022-03-21T09:53:08Z</time>
      </trkpt>
      <trkpt lat="47.09092" lon="5.13812">
        <ele>207.8</ele>
        <time>2022-03-21T09:53:09Z</time>
      </trkpt>
      <trkpt lat="47.09096" lon="5.13805">
        <ele>207.8</ele>
        <time>2022-03-21T09:53:10Z</time>
      </trkpt>
      <trkpt lat="47.091" lon="5.13797">
        <ele>207.8</ele>
        <time>2022-03-21T09:53:11Z</time>
      </trkpt>
      <trkpt lat="47.09105" lon="5.1379">
        <ele>207.8</ele>
        <time>2022-03-21T09:53:12Z</time>
      </trkpt>
      <trkpt lat="47.09109" lon="5.13782">
        <ele>207.8</ele>
        <time>2022-03-21T09:53:13Z</time>
      </trkpt>
      <trkpt lat="47.09113" lon="5.13775">
        <ele>207.8</ele>
        <time>2022-03-21T09:53:14Z</time>
      </trkpt>
      <trkpt lat="47.09118" lon="5.13768">
        <ele>207.8</ele>
        <time>2022-03-21T09:53:15Z</time>
      </trkpt>
      <trkpt lat="47.09122" lon="5.1376">
        <ele>207.8</ele>
        <time>2022-03-21T09:53:16Z</time>
      </trkpt>
      <trkpt lat="47.09126" lon="5.13753">
        <ele>207.8</ele>
        <time>2022-03-21T09:53:17Z</time>
      </trkpt>
      <trkpt lat="47.0913" lon="5.13745">
        <ele>208</ele>
        <time>2022-03-21T09:53:18Z</time>
      </trkpt>
      <trkpt lat="47.09135" lon="5.13738">
        <ele>208</ele>
        <time>2022-03-21T09:53:19Z</time>
      </trkpt>
      <trkpt lat="47.09139" lon="5.13731">
        <ele>208</ele>
        <time>2022-03-21T09:53:20Z</time>
      </trkpt>
      <trkpt lat="47.09143" lon="5.13724">
        <ele>208</ele>
        <time>2022-03-21T09:53:21Z</time>
      </trkpt>
      <trkpt lat="47.09147" lon="5.13717">
        <ele>208</ele>
        <time>2022-03-21T09:53:22Z</time>
      </trkpt>
      <trkpt lat="47.09152" lon="5.1371">
        <ele>208</ele>
        <time>2022-03-21T09:53:23Z</time>
      </trkpt>
      <trkpt lat="47.09156" lon="5.13703">
        <ele>208</ele>
        <time>2022-03-21T09:53:24Z</time>
      </trkpt>
      <trkpt lat="47.09161" lon="5.13696">
        <ele>208</ele>
        <time>2022-03-21T09:53:25Z</time>
      </trkpt>
      <trkpt lat="47.09165" lon="5.1369">
        <ele>208</ele>
        <time>2022-03-21T09:53:26Z</time>
      </trkpt>
      <trkpt lat="47.0917" lon="5.13683">
        <ele>208.2</ele>
        <time>2022-03-21T09:53:27Z</time>
      </trkpt>
      <trkpt lat="47.09174" lon="5.13676">
        <ele>208.2</ele>
        <time>2022-03-21T09:53:28Z</time>
      </trkpt>
      <trkpt lat="47.09178" lon="5.1367">
        <ele>208.2</ele>
        <time>2022-03-21T09:53:29Z</time>
      </trkpt>
      <trkpt lat="47.09183" lon="5.13663">
        <ele>208.8</ele>
        <time>2022-03-21T09:53:30Z</time>
      </trkpt>
      <trkpt lat="47.09187" lon="5.13657">
        <ele>208.8</ele>
        <time>2022-03-21T09:53:31Z</time>
      </trkpt>
      <trkpt lat="47.09191" lon="5.13651">
        <ele>209</ele>
        <time>2022-03-21T09:53:32Z</time>
      </trkpt>
      <trkpt lat="47.09195" lon="5.13645">
        <ele>209</ele>
        <time>2022-03-21T09:53:33Z</time>
      </trkpt>
      <trkpt lat="47.09199" lon="5.13638">
        <ele>209.4</ele>
        <time>2022-03-21T09:53:34Z</time>
      </trkpt>
      <trkpt lat="47.09204" lon="5.13632">
        <ele>209.4</ele>
        <time>2022-03-21T09:53:35Z</time>
      </trkpt>
      <trkpt lat="47.09208" lon="5.13626">
        <ele>209.6</ele>
        <time>2022-03-21T09:53:36Z</time>
      </trkpt>
      <trkpt lat="47.09212" lon="5.13619">
        <ele>209.6</ele>
        <time>2022-03-21T09:53:37Z</time>
      </trkpt>
      <trkpt lat="47.09217" lon="5.13613">
        <ele>209.6</ele>
        <time>2022-03-21T09:53:38Z</time>
      </trkpt>
      <trkpt lat="47.09221" lon="5.13606">
        <ele>209.6</ele>
        <time>2022-03-21T09:53:39Z</time>
      </trkpt>
      <trkpt lat="47.09226" lon="5.13599">
        <ele>209.6</ele>
        <time>2022-03-21T09:53:40Z</time>
      </trkpt>
      <trkpt lat="47.09231" lon="5.13592">
        <ele>209.6</ele>
        <time>2022-03-21T09:53:41Z</time>
      </trkpt>
      <trkpt lat="47.09235" lon="5.13585">
        <ele>209.6</ele>
        <time>2022-03-21T09:53:42Z</time>
      </trkpt>
      <trkpt lat="47.0924" lon="5.13578">
        <ele>209.6</ele>
        <time>2022-03-21T09:53:43Z</time>
      </trkpt>
      <trkpt lat="47.09245" lon="5.13571">
        <ele>209.6</ele>
        <time>2022-03-21T09:53:44Z</time>
      </trkpt>
      <trkpt lat="47.0925" lon="5.13564">
        <ele>209.6</ele>
        <time>2022-03-21T09:53:45Z</time>
      </trkpt>
      <trkpt lat="47.09255" lon="5.13557">
        <ele>209.6</ele>
        <time>2022-03-21T09:53:46Z</time>
      </trkpt>
      <trkpt lat="47.09259" lon="5.1355">
        <ele>209.6</ele>
        <time>2022-03-21T09:53:47Z</time>
      </trkpt>
      <trkpt lat="47.09264" lon="5.13543">
        <ele>209.6</ele>
        <time>2022-03-21T09:53:48Z</time>
      </trkpt>
      <trkpt lat="47.09269" lon="5.13535">
        <ele>209.6</ele>
        <time>2022-03-21T09:53:49Z</time>
      </trkpt>
      <trkpt lat="47.09273" lon="5.13528">
        <ele>209.6</ele>
        <time>2022-03-21T09:53:50Z</time>
      </trkpt>
      <trkpt lat="47.09278" lon="5.1352">
        <ele>209.6</ele>
        <time>2022-03-21T09:53:52Z</time>
      </trkpt>
      <trkpt lat="47.09283" lon="5.13513">
        <ele>209.6</ele>
        <time>2022-03-21T09:53:53Z</time>
      </trkpt>
      <trkpt lat="47.09288" lon="5.13505">
        <ele>209.6</ele>
        <time>2022-03-21T09:53:54Z</time>
      </trkpt>
      <trkpt lat="47.09292" lon="5.13497">
        <ele>209.4</ele>
        <time>2022-03-21T09:53:55Z</time>
      </trkpt>
      <trkpt lat="47.09297" lon="5.13488">
        <ele>209.4</ele>
        <time>2022-03-21T09:53:56Z</time>
      </trkpt>
      <trkpt lat="47.09302" lon="5.1348">
        <ele>209.4</ele>
        <time>2022-03-21T09:53:57Z</time>
      </trkpt>
      <trkpt lat="47.09306" lon="5.13472">
        <ele>209.4</ele>
        <time>2022-03-21T09:53:58Z</time>
      </trkpt>
      <trkpt lat="47.09311" lon="5.13464">
        <ele>209.4</ele>
        <time>2022-03-21T09:53:59Z</time>
      </trkpt>
      <trkpt lat="47.09315" lon="5.13456">
        <ele>209.4</ele>
        <time>2022-03-21T09:54:00Z</time>
      </trkpt>
      <trkpt lat="47.0932" lon="5.13447">
        <ele>209.4</ele>
        <time>2022-03-21T09:54:01Z</time>
      </trkpt>
      <trkpt lat="47.09324" lon="5.13439">
        <ele>209.4</ele>
        <time>2022-03-21T09:54:02Z</time>
      </trkpt>
      <trkpt lat="47.09329" lon="5.13431">
        <ele>209.4</ele>
        <time>2022-03-21T09:54:03Z</time>
      </trkpt>
      <trkpt lat="47.09334" lon="5.13423">
        <ele>209.4</ele>
        <time>2022-03-21T09:54:04Z</time>
      </trkpt>
      <trkpt lat="47.09338" lon="5.13415">
        <ele>209.4</ele>
        <time>2022-03-21T09:54:05Z</time>
      </trkpt>
      <trkpt lat="47.09342" lon="5.13407">
        <ele>209.4</ele>
        <time>2022-03-21T09:54:06Z</time>
      </trkpt>
      <trkpt lat="47.09347" lon="5.13399">
        <ele>209.4</ele>
        <time>2022-03-21T09:54:07Z</time>
      </trkpt>
      <trkpt lat="47.09351" lon="5.13391">
        <ele>209.4</ele>
        <time>2022-03-21T09:54:08Z</time>
      </trkpt>
      <trkpt lat="47.09356" lon="5.13383">
        <ele>209.4</ele>
        <time>2022-03-21T09:54:09Z</time>
      </trkpt>
      <trkpt lat="47.0936" lon="5.13375">
        <ele>209.4</ele>
        <time>2022-03-21T09:54:10Z</time>
      </trkpt>
      <trkpt lat="47.09365" lon="5.13367">
        <ele>209.4</ele>
        <time>2022-03-21T09:54:11Z</time>
      </trkpt>
      <trkpt lat="47.09369" lon="5.13359">
        <ele>209.6</ele>
        <time>2022-03-21T09:54:12Z</time>
      </trkpt>
      <trkpt lat="47.09374" lon="5.13351">
        <ele>209.6</ele>
        <time>2022-03-21T09:54:13Z</time>
      </trkpt>
      <trkpt lat="47.09378" lon="5.13343">
        <ele>209.6</ele>
        <time>2022-03-21T09:54:14Z</time>
      </trkpt>
      <trkpt lat="47.09382" lon="5.13335">
        <ele>209.6</ele>
        <time>2022-03-21T09:54:15Z</time>
      </trkpt>
      <trkpt lat="47.09387" lon="5.13327">
        <ele>209.6</ele>
        <time>2022-03-21T09:54:16Z</time>
      </trkpt>
      <trkpt lat="47.09391" lon="5.1332">
        <ele>209.6</ele>
        <time>2022-03-21T09:54:17Z</time>
      </trkpt>
      <trkpt lat="47.09396" lon="5.13312">
        <ele>209.6</ele>
        <time>2022-03-21T09:54:18Z</time>
      </trkpt>
      <trkpt lat="47.094" lon="5.13304">
        <ele>209.6</ele>
        <time>2022-03-21T09:54:19Z</time>
      </trkpt>
      <trkpt lat="47.09405" lon="5.13296">
        <ele>209.8</ele>
        <time>2022-03-21T09:54:20Z</time>
      </trkpt>
      <trkpt lat="47.09409" lon="5.13288">
        <ele>209.8</ele>
        <time>2022-03-21T09:54:21Z</time>
      </trkpt>
      <trkpt lat="47.09414" lon="5.1328">
        <ele>209.8</ele>
        <time>2022-03-21T09:54:22Z</time>
      </trkpt>
      <trkpt lat="47.09418" lon="5.13272">
        <ele>210</ele>
        <time>2022-03-21T09:54:23Z</time>
      </trkpt>
      <trkpt lat="47.09423" lon="5.13264">
        <ele>210</ele>
        <time>2022-03-21T09:54:24Z</time>
      </trkpt>
      <trkpt lat="47.09427" lon="5.13256">
        <ele>210</ele>
        <time>2022-03-21T09:54:25Z</time>
      </trkpt>
      <trkpt lat="47.09432" lon="5.13248">
        <ele>210.2</ele>
        <time>2022-03-21T09:54:26Z</time>
      </trkpt>
      <trkpt lat="47.09436" lon="5.13241">
        <ele>210.2</ele>
        <time>2022-03-21T09:54:27Z</time>
      </trkpt>
      <trkpt lat="47.0944" lon="5.13233">
        <ele>210.2</ele>
        <time>2022-03-21T09:54:28Z</time>
      </trkpt>
      <trkpt lat="47.09445" lon="5.13225">
        <ele>210.6</ele>
        <time>2022-03-21T09:54:29Z</time>
      </trkpt>
      <trkpt lat="47.09449" lon="5.13217">
        <ele>210.6</ele>
        <time>2022-03-21T09:54:30Z</time>
      </trkpt>
      <trkpt lat="47.09453" lon="5.1321">
        <ele>210.6</ele>
        <time>2022-03-21T09:54:31Z</time>
      </trkpt>
      <trkpt lat="47.09458" lon="5.13202">
        <ele>210.6</ele>
        <time>2022-03-21T09:54:32Z</time>
      </trkpt>
      <trkpt lat="47.09462" lon="5.13195">
        <ele>210.8</ele>
        <time>2022-03-21T09:54:33Z</time>
      </trkpt>
      <trkpt lat="47.09466" lon="5.13187">
        <ele>210.8</ele>
        <time>2022-03-21T09:54:34Z</time>
      </trkpt>
      <trkpt lat="47.09471" lon="5.13179">
        <ele>210.8</ele>
        <time>2022-03-21T09:54:35Z</time>
      </trkpt>
      <trkpt lat="47.09479" lon="5.13164">
        <ele>210.8</ele>
        <time>2022-03-21T09:54:36Z</time>
      </trkpt>
      <trkpt lat="47.09483" lon="5.13156">
        <ele>210.8</ele>
        <time>2022-03-21T09:54:37Z</time>
      </trkpt>
      <trkpt lat="47.09488" lon="5.13148">
        <ele>210.8</ele>
        <time>2022-03-21T09:54:38Z</time>
      </trkpt>
      <trkpt lat="47.09492" lon="5.1314">
        <ele>210.8</ele>
        <time>2022-03-21T09:54:39Z</time>
      </trkpt>
      <trkpt lat="47.09496" lon="5.13132">
        <ele>210.8</ele>
        <time>2022-03-21T09:54:40Z</time>
      </trkpt>
      <trkpt lat="47.09501" lon="5.13124">
        <ele>210.8</ele>
        <time>2022-03-21T09:54:41Z</time>
      </trkpt>
      <trkpt lat="47.09505" lon="5.13115">
        <ele>210.8</ele>
        <time>2022-03-21T09:54:42Z</time>
      </trkpt>
      <trkpt lat="47.09509" lon="5.13106">
        <ele>210.6</ele>
        <time>2022-03-21T09:54:43Z</time>
      </trkpt>
      <trkpt lat="47.09512" lon="5.13096">
        <ele>210.6</ele>
        <time>2022-03-21T09:54:44Z</time>
      </trkpt>
      <trkpt lat="47.09514" lon="5.13086">
        <ele>210.2</ele>
        <time>2022-03-21T09:54:45Z</time>
      </trkpt>
      <trkpt lat="47.09516" lon="5.13074">
        <ele>210</ele>
        <time>2022-03-21T09:54:46Z</time>
      </trkpt>
      <trkpt lat="47.09517" lon="5.13062">
        <ele>209.8</ele>
        <time>2022-03-21T09:54:47Z</time>
      </trkpt>
      <trkpt lat="47.09517" lon="5.1305">
        <ele>209.4</ele>
        <time>2022-03-21T09:54:48Z</time>
      </trkpt>
      <trkpt lat="47.09517" lon="5.13037">
        <ele>209.2</ele>
        <time>2022-03-21T09:54:49Z</time>
      </trkpt>
      <trkpt lat="47.09517" lon="5.13024">
        <ele>208.8</ele>
        <time>2022-03-21T09:54:50Z</time>
      </trkpt>
      <trkpt lat="47.09516" lon="5.13011">
        <ele>208.6</ele>
        <time>2022-03-21T09:54:51Z</time>
      </trkpt>
      <trkpt lat="47.09516" lon="5.12999">
        <ele>208.6</ele>
        <time>2022-03-21T09:54:52Z</time>
      </trkpt>
      <trkpt lat="47.09515" lon="5.12986">
        <ele>208.4</ele>
        <time>2022-03-21T09:54:53Z</time>
      </trkpt>
      <trkpt lat="47.09515" lon="5.12973">
        <ele>208.4</ele>
        <time>2022-03-21T09:54:54Z</time>
      </trkpt>
      <trkpt lat="47.09515" lon="5.12961">
        <ele>208.4</ele>
        <time>2022-03-21T09:54:55Z</time>
      </trkpt>
      <trkpt lat="47.09515" lon="5.12949">
        <ele>208.2</ele>
        <time>2022-03-21T09:54:56Z</time>
      </trkpt>
      <trkpt lat="47.09515" lon="5.12937">
        <ele>208.2</ele>
        <time>2022-03-21T09:54:57Z</time>
      </trkpt>
      <trkpt lat="47.09515" lon="5.12925">
        <ele>208.2</ele>
        <time>2022-03-21T09:54:58Z</time>
      </trkpt>
      <trkpt lat="47.09515" lon="5.12913">
        <ele>208.2</ele>
        <time>2022-03-21T09:54:59Z</time>
      </trkpt>
      <trkpt lat="47.09516" lon="5.12901">
        <ele>208.2</ele>
        <time>2022-03-21T09:55:00Z</time>
      </trkpt>
      <trkpt lat="47.09517" lon="5.1289">
        <ele>208.2</ele>
        <time>2022-03-21T09:55:01Z</time>
      </trkpt>
      <trkpt lat="47.09519" lon="5.12879">
        <ele>208.2</ele>
        <time>2022-03-21T09:55:02Z</time>
      </trkpt>
      <trkpt lat="47.0952" lon="5.12868">
        <ele>208.2</ele>
        <time>2022-03-21T09:55:03Z</time>
      </trkpt>
      <trkpt lat="47.09522" lon="5.12857">
        <ele>208.2</ele>
        <time>2022-03-21T09:55:04Z</time>
      </trkpt>
      <trkpt lat="47.09523" lon="5.12847">
        <ele>208.2</ele>
        <time>2022-03-21T09:55:05Z</time>
      </trkpt>
      <trkpt lat="47.09525" lon="5.12837">
        <ele>208.2</ele>
        <time>2022-03-21T09:55:06Z</time>
      </trkpt>
      <trkpt lat="47.09528" lon="5.12827">
        <ele>208.2</ele>
        <time>2022-03-21T09:55:07Z</time>
      </trkpt>
      <trkpt lat="47.0953" lon="5.12818">
        <ele>208.2</ele>
        <time>2022-03-21T09:55:08Z</time>
      </trkpt>
      <trkpt lat="47.09532" lon="5.12808">
        <ele>208.4</ele>
        <time>2022-03-21T09:55:09Z</time>
      </trkpt>
      <trkpt lat="47.09535" lon="5.12799">
        <ele>208.4</ele>
        <time>2022-03-21T09:55:10Z</time>
      </trkpt>
      <trkpt lat="47.09537" lon="5.1279">
        <ele>208.4</ele>
        <time>2022-03-21T09:55:11Z</time>
      </trkpt>
      <trkpt lat="47.0954" lon="5.12781">
        <ele>208.4</ele>
        <time>2022-03-21T09:55:12Z</time>
      </trkpt>
      <trkpt lat="47.09543" lon="5.12772">
        <ele>208.4</ele>
        <time>2022-03-21T09:55:13Z</time>
      </trkpt>
      <trkpt lat="47.09546" lon="5.12764">
        <ele>208.4</ele>
        <time>2022-03-21T09:55:14Z</time>
      </trkpt>
      <trkpt lat="47.0955" lon="5.12756">
        <ele>208.6</ele>
        <time>2022-03-21T09:55:15Z</time>
      </trkpt>
      <trkpt lat="47.09553" lon="5.12748">
        <ele>208.8</ele>
        <time>2022-03-21T09:55:16Z</time>
      </trkpt>
      <trkpt lat="47.09557" lon="5.12741">
        <ele>208.8</ele>
        <time>2022-03-21T09:55:17Z</time>
      </trkpt>
      <trkpt lat="47.09561" lon="5.12734">
        <ele>209</ele>
        <time>2022-03-21T09:55:18Z</time>
      </trkpt>
      <trkpt lat="47.09565" lon="5.12727">
        <ele>209</ele>
        <time>2022-03-21T09:55:19Z</time>
      </trkpt>
      <trkpt lat="47.09569" lon="5.12721">
        <ele>209</ele>
        <time>2022-03-21T09:55:20Z</time>
      </trkpt>
      <trkpt lat="47.09573" lon="5.12714">
        <ele>209.4</ele>
        <time>2022-03-21T09:55:21Z</time>
      </trkpt>
      <trkpt lat="47.09577" lon="5.12708">
        <ele>209.6</ele>
        <time>2022-03-21T09:55:22Z</time>
      </trkpt>
      <trkpt lat="47.09582" lon="5.12703">
        <ele>209.8</ele>
        <time>2022-03-21T09:55:23Z</time>
      </trkpt>
      <trkpt lat="47.09586" lon="5.12697">
        <ele>209.8</ele>
        <time>2022-03-21T09:55:24Z</time>
      </trkpt>
      <trkpt lat="47.0959" lon="5.12692">
        <ele>210.2</ele>
        <time>2022-03-21T09:55:25Z</time>
      </trkpt>
      <trkpt lat="47.09594" lon="5.12687">
        <ele>210.2</ele>
        <time>2022-03-21T09:55:26Z</time>
      </trkpt>
      <trkpt lat="47.09598" lon="5.12681">
        <ele>210.2</ele>
        <time>2022-03-21T09:55:27Z</time>
      </trkpt>
      <trkpt lat="47.09603" lon="5.12676">
        <ele>210.4</ele>
        <time>2022-03-21T09:55:28Z</time>
      </trkpt>
      <trkpt lat="47.09607" lon="5.1267">
        <ele>210.6</ele>
        <time>2022-03-21T09:55:29Z</time>
      </trkpt>
      <trkpt lat="47.09611" lon="5.12664">
        <ele>210.6</ele>
        <time>2022-03-21T09:55:30Z</time>
      </trkpt>
      <trkpt lat="47.09615" lon="5.12659">
        <ele>210.6</ele>
        <time>2022-03-21T09:55:31Z</time>
      </trkpt>
      <trkpt lat="47.0962" lon="5.12653">
        <ele>211</ele>
        <time>2022-03-21T09:55:32Z</time>
      </trkpt>
      <trkpt lat="47.09624" lon="5.12647">
        <ele>211</ele>
        <time>2022-03-21T09:55:33Z</time>
      </trkpt>
      <trkpt lat="47.09628" lon="5.12642">
        <ele>211</ele>
        <time>2022-03-21T09:55:34Z</time>
      </trkpt>
      <trkpt lat="47.09633" lon="5.12636">
        <ele>211.2</ele>
        <time>2022-03-21T09:55:35Z</time>
      </trkpt>
      <trkpt lat="47.09637" lon="5.12631">
        <ele>211.2</ele>
        <time>2022-03-21T09:55:36Z</time>
      </trkpt>
      <trkpt lat="47.09641" lon="5.12626">
        <ele>211.4</ele>
        <time>2022-03-21T09:55:37Z</time>
      </trkpt>
      <trkpt lat="47.09646" lon="5.1262">
        <ele>211.4</ele>
        <time>2022-03-21T09:55:38Z</time>
      </trkpt>
      <trkpt lat="47.0965" lon="5.12615">
        <ele>211.4</ele>
        <time>2022-03-21T09:55:39Z</time>
      </trkpt>
      <trkpt lat="47.09654" lon="5.12609">
        <ele>211.6</ele>
        <time>2022-03-21T09:55:40Z</time>
      </trkpt>
      <trkpt lat="47.09658" lon="5.12604">
        <ele>211.6</ele>
        <time>2022-03-21T09:55:41Z</time>
      </trkpt>
      <trkpt lat="47.09662" lon="5.12598">
        <ele>212</ele>
        <time>2022-03-21T09:55:42Z</time>
      </trkpt>
      <trkpt lat="47.09666" lon="5.12593">
        <ele>212</ele>
        <time>2022-03-21T09:55:43Z</time>
      </trkpt>
      <trkpt lat="47.0967" lon="5.12587">
        <ele>212.2</ele>
        <time>2022-03-21T09:55:44Z</time>
      </trkpt>
      <trkpt lat="47.09674" lon="5.12582">
        <ele>212.2</ele>
        <time>2022-03-21T09:55:45Z</time>
      </trkpt>
      <trkpt lat="47.09678" lon="5.12577">
        <ele>212.4</ele>
        <time>2022-03-21T09:55:46Z</time>
      </trkpt>
      <trkpt lat="47.09682" lon="5.12572">
        <ele>212.4</ele>
        <time>2022-03-21T09:55:47Z</time>
      </trkpt>
      <trkpt lat="47.09685" lon="5.12567">
        <ele>212.8</ele>
        <time>2022-03-21T09:55:48Z</time>
      </trkpt>
      <trkpt lat="47.09689" lon="5.12562">
        <ele>213</ele>
        <time>2022-03-21T09:55:49Z</time>
      </trkpt>
      <trkpt lat="47.09692" lon="5.12557">
        <ele>213</ele>
        <time>2022-03-21T09:55:50Z</time>
      </trkpt>
      <trkpt lat="47.09696" lon="5.12552">
        <ele>213.2</ele>
        <time>2022-03-21T09:55:51Z</time>
      </trkpt>
      <trkpt lat="47.097" lon="5.12547">
        <ele>213.2</ele>
        <time>2022-03-21T09:55:52Z</time>
      </trkpt>
      <trkpt lat="47.09704" lon="5.12543">
        <ele>213.4</ele>
        <time>2022-03-21T09:55:53Z</time>
      </trkpt>
      <trkpt lat="47.09707" lon="5.12538">
        <ele>213.4</ele>
        <time>2022-03-21T09:55:54Z</time>
      </trkpt>
      <trkpt lat="47.09711" lon="5.12532">
        <ele>213.4</ele>
        <time>2022-03-21T09:55:55Z</time>
      </trkpt>
      <trkpt lat="47.09715" lon="5.12527">
        <ele>213.6</ele>
        <time>2022-03-21T09:55:56Z</time>
      </trkpt>
      <trkpt lat="47.09719" lon="5.12522">
        <ele>213.6</ele>
        <time>2022-03-21T09:55:57Z</time>
      </trkpt>
      <trkpt lat="47.09723" lon="5.12518">
        <ele>213.8</ele>
        <time>2022-03-21T09:55:58Z</time>
      </trkpt>
      <trkpt lat="47.09728" lon="5.12513">
        <ele>213.8</ele>
        <time>2022-03-21T09:55:59Z</time>
      </trkpt>
      <trkpt lat="47.09732" lon="5.12509">
        <ele>213.8</ele>
        <time>2022-03-21T09:56:00Z</time>
      </trkpt>
      <trkpt lat="47.09737" lon="5.12505">
        <ele>213.8</ele>
        <time>2022-03-21T09:56:01Z</time>
      </trkpt>
      <trkpt lat="47.09742" lon="5.12501">
        <ele>213.8</ele>
        <time>2022-03-21T09:56:02Z</time>
      </trkpt>
      <trkpt lat="47.09746" lon="5.12498">
        <ele>214.2</ele>
        <time>2022-03-21T09:56:03Z</time>
      </trkpt>
      <trkpt lat="47.09751" lon="5.12494">
        <ele>214.2</ele>
        <time>2022-03-21T09:56:04Z</time>
      </trkpt>
      <trkpt lat="47.09756" lon="5.12491">
        <ele>214.4</ele>
        <time>2022-03-21T09:56:05Z</time>
      </trkpt>
      <trkpt lat="47.09761" lon="5.12488">
        <ele>214.6</ele>
        <time>2022-03-21T09:56:06Z</time>
      </trkpt>
      <trkpt lat="47.09766" lon="5.12485">
        <ele>214.6</ele>
        <time>2022-03-21T09:56:07Z</time>
      </trkpt>
      <trkpt lat="47.09771" lon="5.12482">
        <ele>214.6</ele>
        <time>2022-03-21T09:56:08Z</time>
      </trkpt>
      <trkpt lat="47.09776" lon="5.12479">
        <ele>215</ele>
        <time>2022-03-21T09:56:09Z</time>
      </trkpt>
      <trkpt lat="47.09782" lon="5.12476">
        <ele>215</ele>
        <time>2022-03-21T09:56:10Z</time>
      </trkpt>
      <trkpt lat="47.09787" lon="5.12474">
        <ele>215.2</ele>
        <time>2022-03-21T09:56:11Z</time>
      </trkpt>
      <trkpt lat="47.09792" lon="5.12471">
        <ele>215.4</ele>
        <time>2022-03-21T09:56:12Z</time>
      </trkpt>
      <trkpt lat="47.09797" lon="5.12468">
        <ele>215.6</ele>
        <time>2022-03-21T09:56:13Z</time>
      </trkpt>
      <trkpt lat="47.09802" lon="5.12465">
        <ele>215.6</ele>
        <time>2022-03-21T09:56:14Z</time>
      </trkpt>
      <trkpt lat="47.09808" lon="5.12462">
        <ele>216</ele>
        <time>2022-03-21T09:56:15Z</time>
      </trkpt>
      <trkpt lat="47.09813" lon="5.1246">
        <ele>216</ele>
        <time>2022-03-21T09:56:16Z</time>
      </trkpt>
      <trkpt lat="47.09819" lon="5.12457">
        <ele>216</ele>
        <time>2022-03-21T09:56:17Z</time>
      </trkpt>
      <trkpt lat="47.09824" lon="5.12454">
        <ele>216.2</ele>
        <time>2022-03-21T09:56:18Z</time>
      </trkpt>
      <trkpt lat="47.0983" lon="5.12452">
        <ele>216.2</ele>
        <time>2022-03-21T09:56:19Z</time>
      </trkpt>
      <trkpt lat="47.09836" lon="5.12449">
        <ele>216.2</ele>
        <time>2022-03-21T09:56:20Z</time>
      </trkpt>
      <trkpt lat="47.09842" lon="5.12446">
        <ele>216.6</ele>
        <time>2022-03-21T09:56:21Z</time>
      </trkpt>
      <trkpt lat="47.09847" lon="5.12443">
        <ele>216.8</ele>
        <time>2022-03-21T09:56:22Z</time>
      </trkpt>
      <trkpt lat="47.09853" lon="5.1244">
        <ele>216.8</ele>
        <time>2022-03-21T09:56:23Z</time>
      </trkpt>
      <trkpt lat="47.09859" lon="5.12437">
        <ele>216.8</ele>
        <time>2022-03-21T09:56:24Z</time>
      </trkpt>
      <trkpt lat="47.09865" lon="5.12434">
        <ele>217</ele>
        <time>2022-03-21T09:56:25Z</time>
      </trkpt>
      <trkpt lat="47.0987" lon="5.12432">
        <ele>217</ele>
        <time>2022-03-21T09:56:26Z</time>
      </trkpt>
      <trkpt lat="47.09876" lon="5.12429">
        <ele>217</ele>
        <time>2022-03-21T09:56:27Z</time>
      </trkpt>
      <trkpt lat="47.09882" lon="5.12426">
        <ele>217</ele>
        <time>2022-03-21T09:56:28Z</time>
      </trkpt>
      <trkpt lat="47.09888" lon="5.12423">
        <ele>217.2</ele>
        <time>2022-03-21T09:56:29Z</time>
      </trkpt>
      <trkpt lat="47.09894" lon="5.1242">
        <ele>217.2</ele>
        <time>2022-03-21T09:56:30Z</time>
      </trkpt>
      <trkpt lat="47.099" lon="5.12417">
        <ele>217.2</ele>
        <time>2022-03-21T09:56:31Z</time>
      </trkpt>
      <trkpt lat="47.09906" lon="5.12414">
        <ele>217.2</ele>
        <time>2022-03-21T09:56:32Z</time>
      </trkpt>
      <trkpt lat="47.09912" lon="5.12411">
        <ele>217.6</ele>
        <time>2022-03-21T09:56:33Z</time>
      </trkpt>
      <trkpt lat="47.09918" lon="5.12408">
        <ele>217.6</ele>
        <time>2022-03-21T09:56:34Z</time>
      </trkpt>
      <trkpt lat="47.09923" lon="5.12405">
        <ele>217.6</ele>
        <time>2022-03-21T09:56:35Z</time>
      </trkpt>
      <trkpt lat="47.09929" lon="5.12402">
        <ele>217.8</ele>
        <time>2022-03-21T09:56:36Z</time>
      </trkpt>
      <trkpt lat="47.09934" lon="5.12399">
        <ele>217.8</ele>
        <time>2022-03-21T09:56:37Z</time>
      </trkpt>
      <trkpt lat="47.0994" lon="5.12397">
        <ele>217.8</ele>
        <time>2022-03-21T09:56:38Z</time>
      </trkpt>
      <trkpt lat="47.09945" lon="5.12394">
        <ele>217.8</ele>
        <time>2022-03-21T09:56:39Z</time>
      </trkpt>
      <trkpt lat="47.09951" lon="5.12392">
        <ele>218</ele>
        <time>2022-03-21T09:56:40Z</time>
      </trkpt>
      <trkpt lat="47.09957" lon="5.12389">
        <ele>218</ele>
        <time>2022-03-21T09:56:41Z</time>
      </trkpt>
      <trkpt lat="47.09962" lon="5.12386">
        <ele>218</ele>
        <time>2022-03-21T09:56:42Z</time>
      </trkpt>
      <trkpt lat="47.09968" lon="5.12383">
        <ele>218.2</ele>
        <time>2022-03-21T09:56:43Z</time>
      </trkpt>
      <trkpt lat="47.09974" lon="5.1238">
        <ele>218.2</ele>
        <time>2022-03-21T09:56:44Z</time>
      </trkpt>
      <trkpt lat="47.09979" lon="5.12377">
        <ele>218.2</ele>
        <time>2022-03-21T09:56:45Z</time>
      </trkpt>
      <trkpt lat="47.09985" lon="5.12374">
        <ele>218.2</ele>
        <time>2022-03-21T09:56:46Z</time>
      </trkpt>
      <trkpt lat="47.09991" lon="5.12371">
        <ele>218.2</ele>
        <time>2022-03-21T09:56:47Z</time>
      </trkpt>
      <trkpt lat="47.09997" lon="5.12369">
        <ele>218.4</ele>
        <time>2022-03-21T09:56:48Z</time>
      </trkpt>
      <trkpt lat="47.10003" lon="5.12365">
        <ele>218.4</ele>
        <time>2022-03-21T09:56:49Z</time>
      </trkpt>
      <trkpt lat="47.10008" lon="5.12362">
        <ele>218.4</ele>
        <time>2022-03-21T09:56:50Z</time>
      </trkpt>
      <trkpt lat="47.10014" lon="5.12359">
        <ele>218.6</ele>
        <time>2022-03-21T09:56:51Z</time>
      </trkpt>
      <trkpt lat="47.1002" lon="5.12356">
        <ele>218.6</ele>
        <time>2022-03-21T09:56:52Z</time>
      </trkpt>
      <trkpt lat="47.10026" lon="5.12353">
        <ele>218.8</ele>
        <time>2022-03-21T09:56:53Z</time>
      </trkpt>
      <trkpt lat="47.10032" lon="5.1235">
        <ele>218.8</ele>
        <time>2022-03-21T09:56:54Z</time>
      </trkpt>
      <trkpt lat="47.10038" lon="5.12347">
        <ele>218.8</ele>
        <time>2022-03-21T09:56:55Z</time>
      </trkpt>
      <trkpt lat="47.10044" lon="5.12344">
        <ele>219</ele>
        <time>2022-03-21T09:56:56Z</time>
      </trkpt>
      <trkpt lat="47.1005" lon="5.12341">
        <ele>219</ele>
        <time>2022-03-21T09:56:57Z</time>
      </trkpt>
      <trkpt lat="47.10056" lon="5.12337">
        <ele>219</ele>
        <time>2022-03-21T09:56:58Z</time>
      </trkpt>
      <trkpt lat="47.10062" lon="5.12335">
        <ele>219.2</ele>
        <time>2022-03-21T09:56:59Z</time>
      </trkpt>
      <trkpt lat="47.10068" lon="5.12332">
        <ele>219.2</ele>
        <time>2022-03-21T09:57:00Z</time>
      </trkpt>
      <trkpt lat="47.10074" lon="5.12329">
        <ele>219.2</ele>
        <time>2022-03-21T09:57:01Z</time>
      </trkpt>
      <trkpt lat="47.1008" lon="5.12325">
        <ele>219.6</ele>
        <time>2022-03-21T09:57:02Z</time>
      </trkpt>
      <trkpt lat="47.10086" lon="5.12322">
        <ele>219.6</ele>
        <time>2022-03-21T09:57:03Z</time>
      </trkpt>
      <trkpt lat="47.10092" lon="5.12319">
        <ele>219.6</ele>
        <time>2022-03-21T09:57:04Z</time>
      </trkpt>
      <trkpt lat="47.10098" lon="5.12316">
        <ele>219.6</ele>
        <time>2022-03-21T09:57:05Z</time>
      </trkpt>
      <trkpt lat="47.10103" lon="5.12313">
        <ele>219.8</ele>
        <time>2022-03-21T09:57:06Z</time>
      </trkpt>
      <trkpt lat="47.10109" lon="5.1231">
        <ele>219.8</ele>
        <time>2022-03-21T09:57:07Z</time>
      </trkpt>
      <trkpt lat="47.10115" lon="5.12308">
        <ele>220.2</ele>
        <time>2022-03-21T09:57:08Z</time>
      </trkpt>
      <trkpt lat="47.1012" lon="5.12305">
        <ele>220.2</ele>
        <time>2022-03-21T09:57:09Z</time>
      </trkpt>
      <trkpt lat="47.10126" lon="5.12302">
        <ele>220.2</ele>
        <time>2022-03-21T09:57:10Z</time>
      </trkpt>
      <trkpt lat="47.10131" lon="5.12299">
        <ele>220.4</ele>
        <time>2022-03-21T09:57:11Z</time>
      </trkpt>
      <trkpt lat="47.10137" lon="5.12297">
        <ele>220.4</ele>
        <time>2022-03-21T09:57:12Z</time>
      </trkpt>
      <trkpt lat="47.10142" lon="5.12294">
        <ele>220.6</ele>
        <time>2022-03-21T09:57:13Z</time>
      </trkpt>
      <trkpt lat="47.10148" lon="5.12291">
        <ele>221</ele>
        <time>2022-03-21T09:57:14Z</time>
      </trkpt>
      <trkpt lat="47.10153" lon="5.12288">
        <ele>221.2</ele>
        <time>2022-03-21T09:57:15Z</time>
      </trkpt>
      <trkpt lat="47.10158" lon="5.12286">
        <ele>221.2</ele>
        <time>2022-03-21T09:57:16Z</time>
      </trkpt>
      <trkpt lat="47.10164" lon="5.12283">
        <ele>221.6</ele>
        <time>2022-03-21T09:57:17Z</time>
      </trkpt>
      <trkpt lat="47.10169" lon="5.1228">
        <ele>221.8</ele>
        <time>2022-03-21T09:57:18Z</time>
      </trkpt>
      <trkpt lat="47.10174" lon="5.12278">
        <ele>222</ele>
        <time>2022-03-21T09:57:19Z</time>
      </trkpt>
      <trkpt lat="47.10179" lon="5.12276">
        <ele>222.2</ele>
        <time>2022-03-21T09:57:20Z</time>
      </trkpt>
      <trkpt lat="47.10185" lon="5.12273">
        <ele>222.4</ele>
        <time>2022-03-21T09:57:21Z</time>
      </trkpt>
      <trkpt lat="47.1019" lon="5.1227">
        <ele>222.4</ele>
        <time>2022-03-21T09:57:22Z</time>
      </trkpt>
      <trkpt lat="47.10196" lon="5.12267">
        <ele>222.8</ele>
        <time>2022-03-21T09:57:24Z</time>
      </trkpt>
      <trkpt lat="47.10201" lon="5.12264">
        <ele>223.2</ele>
        <time>2022-03-21T09:57:25Z</time>
      </trkpt>
      <trkpt lat="47.10206" lon="5.12261">
        <ele>223.4</ele>
        <time>2022-03-21T09:57:26Z</time>
      </trkpt>
      <trkpt lat="47.10211" lon="5.12257">
        <ele>223.8</ele>
        <time>2022-03-21T09:57:27Z</time>
      </trkpt>
      <trkpt lat="47.10216" lon="5.12254">
        <ele>224</ele>
        <time>2022-03-21T09:57:28Z</time>
      </trkpt>
      <trkpt lat="47.10221" lon="5.1225">
        <ele>224</ele>
        <time>2022-03-21T09:57:29Z</time>
      </trkpt>
      <trkpt lat="47.10225" lon="5.12247">
        <ele>224.2</ele>
        <time>2022-03-21T09:57:30Z</time>
      </trkpt>
      <trkpt lat="47.1023" lon="5.12243">
        <ele>224.2</ele>
        <time>2022-03-21T09:57:31Z</time>
      </trkpt>
      <trkpt lat="47.10235" lon="5.12239">
        <ele>224.4</ele>
        <time>2022-03-21T09:57:32Z</time>
      </trkpt>
      <trkpt lat="47.10239" lon="5.12235">
        <ele>224.4</ele>
        <time>2022-03-21T09:57:33Z</time>
      </trkpt>
      <trkpt lat="47.10244" lon="5.12231">
        <ele>224.4</ele>
        <time>2022-03-21T09:57:34Z</time>
      </trkpt>
      <trkpt lat="47.10249" lon="5.12228">
        <ele>224.8</ele>
        <time>2022-03-21T09:57:35Z</time>
      </trkpt>
      <trkpt lat="47.10253" lon="5.12224">
        <ele>224.8</ele>
        <time>2022-03-21T09:57:36Z</time>
      </trkpt>
      <trkpt lat="47.10258" lon="5.1222">
        <ele>225.2</ele>
        <time>2022-03-21T09:57:37Z</time>
      </trkpt>
      <trkpt lat="47.10263" lon="5.12216">
        <ele>225.4</ele>
        <time>2022-03-21T09:57:38Z</time>
      </trkpt>
      <trkpt lat="47.10267" lon="5.12212">
        <ele>225.4</ele>
        <time>2022-03-21T09:57:39Z</time>
      </trkpt>
      <trkpt lat="47.10271" lon="5.12208">
        <ele>225.8</ele>
        <time>2022-03-21T09:57:40Z</time>
      </trkpt>
      <trkpt lat="47.10276" lon="5.12204">
        <ele>225.8</ele>
        <time>2022-03-21T09:57:41Z</time>
      </trkpt>
      <trkpt lat="47.1028" lon="5.122">
        <ele>226</ele>
        <time>2022-03-21T09:57:42Z</time>
      </trkpt>
      <trkpt lat="47.10285" lon="5.12196">
        <ele>226</ele>
        <time>2022-03-21T09:57:43Z</time>
      </trkpt>
      <trkpt lat="47.10289" lon="5.12192">
        <ele>226.4</ele>
        <time>2022-03-21T09:57:44Z</time>
      </trkpt>
      <trkpt lat="47.10293" lon="5.12188">
        <ele>226.4</ele>
        <time>2022-03-21T09:57:45Z</time>
      </trkpt>
      <trkpt lat="47.10298" lon="5.12184">
        <ele>226.4</ele>
        <time>2022-03-21T09:57:46Z</time>
      </trkpt>
      <trkpt lat="47.10303" lon="5.1218">
        <ele>226.4</ele>
        <time>2022-03-21T09:57:47Z</time>
      </trkpt>
      <trkpt lat="47.10308" lon="5.12175">
        <ele>226.4</ele>
        <time>2022-03-21T09:57:48Z</time>
      </trkpt>
      <trkpt lat="47.10313" lon="5.12171">
        <ele>226.6</ele>
        <time>2022-03-21T09:57:49Z</time>
      </trkpt>
      <trkpt lat="47.10318" lon="5.12167">
        <ele>226.6</ele>
        <time>2022-03-21T09:57:50Z</time>
      </trkpt>
      <trkpt lat="47.10322" lon="5.12163">
        <ele>226.6</ele>
        <time>2022-03-21T09:57:51Z</time>
      </trkpt>
      <trkpt lat="47.10327" lon="5.12158">
        <ele>226.6</ele>
        <time>2022-03-21T09:57:52Z</time>
      </trkpt>
      <trkpt lat="47.10333" lon="5.12154">
        <ele>226.6</ele>
        <time>2022-03-21T09:57:53Z</time>
      </trkpt>
      <trkpt lat="47.10338" lon="5.12149">
        <ele>226.6</ele>
        <time>2022-03-21T09:57:54Z</time>
      </trkpt>
      <trkpt lat="47.10343" lon="5.12144">
        <ele>226.6</ele>
        <time>2022-03-21T09:57:55Z</time>
      </trkpt>
      <trkpt lat="47.10349" lon="5.12139">
        <ele>226.6</ele>
        <time>2022-03-21T09:57:56Z</time>
      </trkpt>
      <trkpt lat="47.10355" lon="5.12133">
        <ele>226.6</ele>
        <time>2022-03-21T09:57:57Z</time>
      </trkpt>
      <trkpt lat="47.1036" lon="5.12127">
        <ele>226.6</ele>
        <time>2022-03-21T09:57:58Z</time>
      </trkpt>
      <trkpt lat="47.10366" lon="5.12121">
        <ele>226.4</ele>
        <time>2022-03-21T09:57:59Z</time>
      </trkpt>
      <trkpt lat="47.10372" lon="5.12114">
        <ele>226.4</ele>
        <time>2022-03-21T09:58:00Z</time>
      </trkpt>
      <trkpt lat="47.10378" lon="5.12108">
        <ele>226.4</ele>
        <time>2022-03-21T09:58:01Z</time>
      </trkpt>
      <trkpt lat="47.10384" lon="5.12101">
        <ele>226</ele>
        <time>2022-03-21T09:58:02Z</time>
      </trkpt>
      <trkpt lat="47.1039" lon="5.12094">
        <ele>226</ele>
        <time>2022-03-21T09:58:03Z</time>
      </trkpt>
      <trkpt lat="47.10396" lon="5.12088">
        <ele>225.8</ele>
        <time>2022-03-21T09:58:04Z</time>
      </trkpt>
      <trkpt lat="47.10403" lon="5.12081">
        <ele>225.8</ele>
        <time>2022-03-21T09:58:05Z</time>
      </trkpt>
      <trkpt lat="47.10409" lon="5.12075">
        <ele>225.8</ele>
        <time>2022-03-21T09:58:06Z</time>
      </trkpt>
      <trkpt lat="47.10415" lon="5.12068">
        <ele>225.6</ele>
        <time>2022-03-21T09:58:07Z</time>
      </trkpt>
      <trkpt lat="47.10422" lon="5.12061">
        <ele>225.6</ele>
        <time>2022-03-21T09:58:08Z</time>
      </trkpt>
      <trkpt lat="47.10428" lon="5.12054">
        <ele>225.6</ele>
        <time>2022-03-21T09:58:09Z</time>
      </trkpt>
      <trkpt lat="47.10434" lon="5.12047">
        <ele>225.2</ele>
        <time>2022-03-21T09:58:10Z</time>
      </trkpt>
      <trkpt lat="47.10441" lon="5.1204">
        <ele>225.2</ele>
        <time>2022-03-21T09:58:11Z</time>
      </trkpt>
      <trkpt lat="47.10447" lon="5.12033">
        <ele>225</ele>
        <time>2022-03-21T09:58:12Z</time>
      </trkpt>
      <trkpt lat="47.10453" lon="5.12027">
        <ele>225</ele>
        <time>2022-03-21T09:58:13Z</time>
      </trkpt>
      <trkpt lat="47.10459" lon="5.12019">
        <ele>224.6</ele>
        <time>2022-03-21T09:58:14Z</time>
      </trkpt>
      <trkpt lat="47.10466" lon="5.12012">
        <ele>224.6</ele>
        <time>2022-03-21T09:58:15Z</time>
      </trkpt>
      <trkpt lat="47.10472" lon="5.12005">
        <ele>224.2</ele>
        <time>2022-03-21T09:58:16Z</time>
      </trkpt>
      <trkpt lat="47.10478" lon="5.11997">
        <ele>223.8</ele>
        <time>2022-03-21T09:58:17Z</time>
      </trkpt>
      <trkpt lat="47.10485" lon="5.11989">
        <ele>223.4</ele>
        <time>2022-03-21T09:58:18Z</time>
      </trkpt>
      <trkpt lat="47.10492" lon="5.11981">
        <ele>223</ele>
        <time>2022-03-21T09:58:19Z</time>
      </trkpt>
      <trkpt lat="47.10505" lon="5.11964">
        <ele>222.8</ele>
        <time>2022-03-21T09:58:20Z</time>
      </trkpt>
      <trkpt lat="47.10512" lon="5.11956">
        <ele>222.4</ele>
        <time>2022-03-21T09:58:21Z</time>
      </trkpt>
      <trkpt lat="47.10519" lon="5.11948">
        <ele>222.2</ele>
        <time>2022-03-21T09:58:22Z</time>
      </trkpt>
      <trkpt lat="47.10525" lon="5.11939">
        <ele>221.8</ele>
        <time>2022-03-21T09:58:23Z</time>
      </trkpt>
      <trkpt lat="47.10532" lon="5.11931">
        <ele>221.6</ele>
        <time>2022-03-21T09:58:24Z</time>
      </trkpt>
      <trkpt lat="47.10539" lon="5.11923">
        <ele>221.6</ele>
        <time>2022-03-21T09:58:25Z</time>
      </trkpt>
      <trkpt lat="47.10545" lon="5.11914">
        <ele>221.4</ele>
        <time>2022-03-21T09:58:26Z</time>
      </trkpt>
      <trkpt lat="47.10552" lon="5.11906">
        <ele>221.4</ele>
        <time>2022-03-21T09:58:27Z</time>
      </trkpt>
      <trkpt lat="47.10558" lon="5.11899">
        <ele>221.2</ele>
        <time>2022-03-21T09:58:28Z</time>
      </trkpt>
      <trkpt lat="47.10565" lon="5.11891">
        <ele>221.2</ele>
        <time>2022-03-21T09:58:29Z</time>
      </trkpt>
      <trkpt lat="47.10571" lon="5.11883">
        <ele>220.8</ele>
        <time>2022-03-21T09:58:30Z</time>
      </trkpt>
      <trkpt lat="47.10577" lon="5.11876">
        <ele>220.8</ele>
        <time>2022-03-21T09:58:31Z</time>
      </trkpt>
      <trkpt lat="47.10583" lon="5.11868">
        <ele>220.6</ele>
        <time>2022-03-21T09:58:32Z</time>
      </trkpt>
      <trkpt lat="47.10589" lon="5.11861">
        <ele>220.6</ele>
        <time>2022-03-21T09:58:33Z</time>
      </trkpt>
      <trkpt lat="47.10595" lon="5.11854">
        <ele>220.6</ele>
        <time>2022-03-21T09:58:34Z</time>
      </trkpt>
      <trkpt lat="47.10601" lon="5.11846">
        <ele>220.6</ele>
        <time>2022-03-21T09:58:35Z</time>
      </trkpt>
      <trkpt lat="47.10607" lon="5.11839">
        <ele>220.6</ele>
        <time>2022-03-21T09:58:36Z</time>
      </trkpt>
      <trkpt lat="47.10613" lon="5.11832">
        <ele>220.6</ele>
        <time>2022-03-21T09:58:37Z</time>
      </trkpt>
      <trkpt lat="47.10618" lon="5.11825">
        <ele>220.8</ele>
        <time>2022-03-21T09:58:38Z</time>
      </trkpt>
      <trkpt lat="47.10624" lon="5.11818">
        <ele>220.8</ele>
        <time>2022-03-21T09:58:39Z</time>
      </trkpt>
      <trkpt lat="47.1063" lon="5.11811">
        <ele>220.8</ele>
        <time>2022-03-21T09:58:40Z</time>
      </trkpt>
      <trkpt lat="47.10635" lon="5.11805">
        <ele>220.8</ele>
        <time>2022-03-21T09:58:41Z</time>
      </trkpt>
      <trkpt lat="47.10641" lon="5.11798">
        <ele>220.8</ele>
        <time>2022-03-21T09:58:42Z</time>
      </trkpt>
      <trkpt lat="47.10646" lon="5.11792">
        <ele>221</ele>
        <time>2022-03-21T09:58:43Z</time>
      </trkpt>
      <trkpt lat="47.10651" lon="5.11785">
        <ele>221</ele>
        <time>2022-03-21T09:58:44Z</time>
      </trkpt>
      <trkpt lat="47.10657" lon="5.11779">
        <ele>221</ele>
        <time>2022-03-21T09:58:45Z</time>
      </trkpt>
      <trkpt lat="47.10662" lon="5.11772">
        <ele>221.4</ele>
        <time>2022-03-21T09:58:46Z</time>
      </trkpt>
      <trkpt lat="47.10667" lon="5.11766">
        <ele>221.4</ele>
        <time>2022-03-21T09:58:47Z</time>
      </trkpt>
      <trkpt lat="47.10672" lon="5.1176">
        <ele>221.6</ele>
        <time>2022-03-21T09:58:48Z</time>
      </trkpt>
      <trkpt lat="47.10677" lon="5.11754">
        <ele>221.6</ele>
        <time>2022-03-21T09:58:49Z</time>
      </trkpt>
      <trkpt lat="47.10682" lon="5.11748">
        <ele>222</ele>
        <time>2022-03-21T09:58:50Z</time>
      </trkpt>
      <trkpt lat="47.10687" lon="5.11743">
        <ele>222</ele>
        <time>2022-03-21T09:58:51Z</time>
      </trkpt>
      <trkpt lat="47.10691" lon="5.11737">
        <ele>222.4</ele>
        <time>2022-03-21T09:58:52Z</time>
      </trkpt>
      <trkpt lat="47.10696" lon="5.11732">
        <ele>222.4</ele>
        <time>2022-03-21T09:58:53Z</time>
      </trkpt>
      <trkpt lat="47.10701" lon="5.11727">
        <ele>222.8</ele>
        <time>2022-03-21T09:58:54Z</time>
      </trkpt>
      <trkpt lat="47.10705" lon="5.11721">
        <ele>222.8</ele>
        <time>2022-03-21T09:58:55Z</time>
      </trkpt>
      <trkpt lat="47.10709" lon="5.11716">
        <ele>223</ele>
        <time>2022-03-21T09:58:56Z</time>
      </trkpt>
      <trkpt lat="47.10714" lon="5.1171">
        <ele>223</ele>
        <time>2022-03-21T09:58:57Z</time>
      </trkpt>
      <trkpt lat="47.10718" lon="5.11705">
        <ele>223</ele>
        <time>2022-03-21T09:58:58Z</time>
      </trkpt>
      <trkpt lat="47.10723" lon="5.117">
        <ele>223.4</ele>
        <time>2022-03-21T09:58:59Z</time>
      </trkpt>
      <trkpt lat="47.10727" lon="5.11694">
        <ele>223.4</ele>
        <time>2022-03-21T09:59:00Z</time>
      </trkpt>
      <trkpt lat="47.10731" lon="5.11689">
        <ele>223.6</ele>
        <time>2022-03-21T09:59:01Z</time>
      </trkpt>
      <trkpt lat="47.10736" lon="5.11683">
        <ele>223.6</ele>
        <time>2022-03-21T09:59:02Z</time>
      </trkpt>
      <trkpt lat="47.1074" lon="5.11678">
        <ele>223.6</ele>
        <time>2022-03-21T09:59:03Z</time>
      </trkpt>
      <trkpt lat="47.10745" lon="5.11672">
        <ele>223.6</ele>
        <time>2022-03-21T09:59:04Z</time>
      </trkpt>
      <trkpt lat="47.10749" lon="5.11666">
        <ele>223.6</ele>
        <time>2022-03-21T09:59:05Z</time>
      </trkpt>
      <trkpt lat="47.10754" lon="5.11661">
        <ele>223.8</ele>
        <time>2022-03-21T09:59:06Z</time>
      </trkpt>
      <trkpt lat="47.10758" lon="5.11655">
        <ele>223.8</ele>
        <time>2022-03-21T09:59:07Z</time>
      </trkpt>
      <trkpt lat="47.10763" lon="5.1165">
        <ele>223.8</ele>
        <time>2022-03-21T09:59:08Z</time>
      </trkpt>
      <trkpt lat="47.10768" lon="5.11644">
        <ele>224</ele>
        <time>2022-03-21T09:59:09Z</time>
      </trkpt>
      <trkpt lat="47.10773" lon="5.11638">
        <ele>224</ele>
        <time>2022-03-21T09:59:10Z</time>
      </trkpt>
      <trkpt lat="47.10777" lon="5.11632">
        <ele>224</ele>
        <time>2022-03-21T09:59:11Z</time>
      </trkpt>
      <trkpt lat="47.10782" lon="5.11626">
        <ele>224.4</ele>
        <time>2022-03-21T09:59:12Z</time>
      </trkpt>
      <trkpt lat="47.10787" lon="5.11621">
        <ele>224.4</ele>
        <time>2022-03-21T09:59:13Z</time>
      </trkpt>
      <trkpt lat="47.10791" lon="5.11615">
        <ele>224.6</ele>
        <time>2022-03-21T09:59:14Z</time>
      </trkpt>
      <trkpt lat="47.10796" lon="5.1161">
        <ele>224.6</ele>
        <time>2022-03-21T09:59:15Z</time>
      </trkpt>
      <trkpt lat="47.108" lon="5.11604">
        <ele>224.8</ele>
        <time>2022-03-21T09:59:16Z</time>
      </trkpt>
      <trkpt lat="47.10805" lon="5.11598">
        <ele>224.8</ele>
        <time>2022-03-21T09:59:17Z</time>
      </trkpt>
      <trkpt lat="47.1081" lon="5.11593">
        <ele>225</ele>
        <time>2022-03-21T09:59:18Z</time>
      </trkpt>
      <trkpt lat="47.10814" lon="5.11587">
        <ele>225</ele>
        <time>2022-03-21T09:59:19Z</time>
      </trkpt>
      <trkpt lat="47.10819" lon="5.11582">
        <ele>225</ele>
        <time>2022-03-21T09:59:20Z</time>
      </trkpt>
      <trkpt lat="47.10823" lon="5.11576">
        <ele>225.2</ele>
        <time>2022-03-21T09:59:21Z</time>
      </trkpt>
      <trkpt lat="47.10828" lon="5.11571">
        <ele>225.2</ele>
        <time>2022-03-21T09:59:22Z</time>
      </trkpt>
      <trkpt lat="47.10833" lon="5.11566">
        <ele>225.2</ele>
        <time>2022-03-21T09:59:23Z</time>
      </trkpt>
      <trkpt lat="47.10837" lon="5.1156">
        <ele>225.6</ele>
        <time>2022-03-21T09:59:24Z</time>
      </trkpt>
      <trkpt lat="47.10842" lon="5.11555">
        <ele>225.6</ele>
        <time>2022-03-21T09:59:25Z</time>
      </trkpt>
      <trkpt lat="47.10846" lon="5.11549">
        <ele>225.8</ele>
        <time>2022-03-21T09:59:26Z</time>
      </trkpt>
      <trkpt lat="47.10851" lon="5.11544">
        <ele>225.8</ele>
        <time>2022-03-21T09:59:27Z</time>
      </trkpt>
      <trkpt lat="47.10855" lon="5.11538">
        <ele>226</ele>
        <time>2022-03-21T09:59:28Z</time>
      </trkpt>
      <trkpt lat="47.10859" lon="5.11533">
        <ele>226</ele>
        <time>2022-03-21T09:59:29Z</time>
      </trkpt>
      <trkpt lat="47.10863" lon="5.11528">
        <ele>226</ele>
        <time>2022-03-21T09:59:30Z</time>
      </trkpt>
      <trkpt lat="47.10867" lon="5.11522">
        <ele>226.2</ele>
        <time>2022-03-21T09:59:31Z</time>
      </trkpt>
      <trkpt lat="47.10871" lon="5.11517">
        <ele>226.2</ele>
        <time>2022-03-21T09:59:32Z</time>
      </trkpt>
      <trkpt lat="47.10875" lon="5.11512">
        <ele>226.6</ele>
        <time>2022-03-21T09:59:33Z</time>
      </trkpt>
      <trkpt lat="47.10879" lon="5.11507">
        <ele>226.6</ele>
        <time>2022-03-21T09:59:34Z</time>
      </trkpt>
      <trkpt lat="47.10884" lon="5.11502">
        <ele>227</ele>
        <time>2022-03-21T09:59:35Z</time>
      </trkpt>
      <trkpt lat="47.10888" lon="5.11497">
        <ele>227</ele>
        <time>2022-03-21T09:59:36Z</time>
      </trkpt>
      <trkpt lat="47.10892" lon="5.11493">
        <ele>227.2</ele>
        <time>2022-03-21T09:59:37Z</time>
      </trkpt>
      <trkpt lat="47.10896" lon="5.11488">
        <ele>227.2</ele>
        <time>2022-03-21T09:59:38Z</time>
      </trkpt>
      <trkpt lat="47.109" lon="5.11483">
        <ele>227.6</ele>
        <time>2022-03-21T09:59:39Z</time>
      </trkpt>
      <trkpt lat="47.10904" lon="5.11478">
        <ele>227.6</ele>
        <time>2022-03-21T09:59:40Z</time>
      </trkpt>
      <trkpt lat="47.10908" lon="5.11473">
        <ele>227.8</ele>
        <time>2022-03-21T09:59:41Z</time>
      </trkpt>
      <trkpt lat="47.10912" lon="5.11468">
        <ele>227.8</ele>
        <time>2022-03-21T09:59:42Z</time>
      </trkpt>
      <trkpt lat="47.10917" lon="5.11463">
        <ele>227.8</ele>
        <time>2022-03-21T09:59:43Z</time>
      </trkpt>
      <trkpt lat="47.10921" lon="5.11458">
        <ele>228.2</ele>
        <time>2022-03-21T09:59:44Z</time>
      </trkpt>
      <trkpt lat="47.10925" lon="5.11452">
        <ele>228.2</ele>
        <time>2022-03-21T09:59:45Z</time>
      </trkpt>
      <trkpt lat="47.1093" lon="5.11447">
        <ele>228.4</ele>
        <time>2022-03-21T09:59:46Z</time>
      </trkpt>
      <trkpt lat="47.10934" lon="5.11442">
        <ele>228.4</ele>
        <time>2022-03-21T09:59:47Z</time>
      </trkpt>
      <trkpt lat="47.10938" lon="5.11437">
        <ele>228.8</ele>
        <time>2022-03-21T09:59:48Z</time>
      </trkpt>
      <trkpt lat="47.10943" lon="5.11431">
        <ele>228.8</ele>
        <time>2022-03-21T09:59:49Z</time>
      </trkpt>
      <trkpt lat="47.10947" lon="5.11426">
        <ele>229</ele>
        <time>2022-03-21T09:59:50Z</time>
      </trkpt>
      <trkpt lat="47.10951" lon="5.1142">
        <ele>229</ele>
        <time>2022-03-21T09:59:51Z</time>
      </trkpt>
      <trkpt lat="47.10956" lon="5.11415">
        <ele>229</ele>
        <time>2022-03-21T09:59:52Z</time>
      </trkpt>
      <trkpt lat="47.10961" lon="5.1141">
        <ele>229</ele>
        <time>2022-03-21T09:59:53Z</time>
      </trkpt>
      <trkpt lat="47.10965" lon="5.11404">
        <ele>229.2</ele>
        <time>2022-03-21T09:59:54Z</time>
      </trkpt>
      <trkpt lat="47.1097" lon="5.11399">
        <ele>229.2</ele>
        <time>2022-03-21T09:59:55Z</time>
      </trkpt>
      <trkpt lat="47.10975" lon="5.11394">
        <ele>229.2</ele>
        <time>2022-03-21T09:59:56Z</time>
      </trkpt>
      <trkpt lat="47.10979" lon="5.11388">
        <ele>229.2</ele>
        <time>2022-03-21T09:59:57Z</time>
      </trkpt>
      <trkpt lat="47.10984" lon="5.11382">
        <ele>229.2</ele>
        <time>2022-03-21T09:59:58Z</time>
      </trkpt>
      <trkpt lat="47.10989" lon="5.11377">
        <ele>229.4</ele>
        <time>2022-03-21T09:59:59Z</time>
      </trkpt>
      <trkpt lat="47.10993" lon="5.11372">
        <ele>229.4</ele>
        <time>2022-03-21T10:00:00Z</time>
      </trkpt>
      <trkpt lat="47.10998" lon="5.11366">
        <ele>229.4</ele>
        <time>2022-03-21T10:00:01Z</time>
      </trkpt>
      <trkpt lat="47.11003" lon="5.1136">
        <ele>229.4</ele>
        <time>2022-03-21T10:00:02Z</time>
      </trkpt>
      <trkpt lat="47.11007" lon="5.11355">
        <ele>229.6</ele>
        <time>2022-03-21T10:00:03Z</time>
      </trkpt>
      <trkpt lat="47.11011" lon="5.11349">
        <ele>229.6</ele>
        <time>2022-03-21T10:00:04Z</time>
      </trkpt>
      <trkpt lat="47.11016" lon="5.11343">
        <ele>229.6</ele>
        <time>2022-03-21T10:00:05Z</time>
      </trkpt>
      <trkpt lat="47.11021" lon="5.11338">
        <ele>229.6</ele>
        <time>2022-03-21T10:00:06Z</time>
      </trkpt>
      <trkpt lat="47.11025" lon="5.11332">
        <ele>230</ele>
        <time>2022-03-21T10:00:07Z</time>
      </trkpt>
      <trkpt lat="47.1103" lon="5.11327">
        <ele>230</ele>
        <time>2022-03-21T10:00:08Z</time>
      </trkpt>
      <trkpt lat="47.11034" lon="5.11321">
        <ele>230</ele>
        <time>2022-03-21T10:00:09Z</time>
      </trkpt>
      <trkpt lat="47.11039" lon="5.11315">
        <ele>230.2</ele>
        <time>2022-03-21T10:00:10Z</time>
      </trkpt>
      <trkpt lat="47.11043" lon="5.11309">
        <ele>230.2</ele>
        <time>2022-03-21T10:00:11Z</time>
      </trkpt>
      <trkpt lat="47.11048" lon="5.11303">
        <ele>230.2</ele>
        <time>2022-03-21T10:00:12Z</time>
      </trkpt>
      <trkpt lat="47.11053" lon="5.11298">
        <ele>230.2</ele>
        <time>2022-03-21T10:00:13Z</time>
      </trkpt>
      <trkpt lat="47.11058" lon="5.11292">
        <ele>230.2</ele>
        <time>2022-03-21T10:00:14Z</time>
      </trkpt>
      <trkpt lat="47.11063" lon="5.11286">
        <ele>230.2</ele>
        <time>2022-03-21T10:00:15Z</time>
      </trkpt>
      <trkpt lat="47.11068" lon="5.1128">
        <ele>230.2</ele>
        <time>2022-03-21T10:00:16Z</time>
      </trkpt>
      <trkpt lat="47.11073" lon="5.11275">
        <ele>230</ele>
        <time>2022-03-21T10:00:17Z</time>
      </trkpt>
      <trkpt lat="47.11077" lon="5.11269">
        <ele>230</ele>
        <time>2022-03-21T10:00:18Z</time>
      </trkpt>
      <trkpt lat="47.11082" lon="5.11263">
        <ele>230</ele>
        <time>2022-03-21T10:00:19Z</time>
      </trkpt>
      <trkpt lat="47.11087" lon="5.11257">
        <ele>230</ele>
        <time>2022-03-21T10:00:20Z</time>
      </trkpt>
      <trkpt lat="47.11091" lon="5.11251">
        <ele>230</ele>
        <time>2022-03-21T10:00:21Z</time>
      </trkpt>
      <trkpt lat="47.11096" lon="5.11245">
        <ele>230</ele>
        <time>2022-03-21T10:00:22Z</time>
      </trkpt>
      <trkpt lat="47.11101" lon="5.11239">
        <ele>230</ele>
        <time>2022-03-21T10:00:23Z</time>
      </trkpt>
      <trkpt lat="47.11106" lon="5.11233">
        <ele>230.2</ele>
        <time>2022-03-21T10:00:24Z</time>
      </trkpt>
      <trkpt lat="47.11111" lon="5.11227">
        <ele>230.2</ele>
        <time>2022-03-21T10:00:25Z</time>
      </trkpt>
      <trkpt lat="47.11116" lon="5.11222">
        <ele>230.2</ele>
        <time>2022-03-21T10:00:26Z</time>
      </trkpt>
      <trkpt lat="47.11121" lon="5.11216">
        <ele>230.2</ele>
        <time>2022-03-21T10:00:27Z</time>
      </trkpt>
      <trkpt lat="47.11125" lon="5.11211">
        <ele>230.2</ele>
        <time>2022-03-21T10:00:28Z</time>
      </trkpt>
      <trkpt lat="47.1113" lon="5.11205">
        <ele>230.2</ele>
        <time>2022-03-21T10:00:29Z</time>
      </trkpt>
      <trkpt lat="47.11135" lon="5.11199">
        <ele>230.2</ele>
        <time>2022-03-21T10:00:30Z</time>
      </trkpt>
      <trkpt lat="47.1114" lon="5.11193">
        <ele>230.2</ele>
        <time>2022-03-21T10:00:31Z</time>
      </trkpt>
      <trkpt lat="47.11145" lon="5.11186">
        <ele>230.2</ele>
        <time>2022-03-21T10:00:32Z</time>
      </trkpt>
      <trkpt lat="47.1115" lon="5.1118">
        <ele>230.4</ele>
        <time>2022-03-21T10:00:33Z</time>
      </trkpt>
      <trkpt lat="47.11155" lon="5.11174">
        <ele>230.4</ele>
        <time>2022-03-21T10:00:34Z</time>
      </trkpt>
      <trkpt lat="47.1116" lon="5.11168">
        <ele>230.4</ele>
        <time>2022-03-21T10:00:35Z</time>
      </trkpt>
      <trkpt lat="47.11165" lon="5.11162">
        <ele>230.4</ele>
        <time>2022-03-21T10:00:36Z</time>
      </trkpt>
      <trkpt lat="47.11171" lon="5.11155">
        <ele>230.4</ele>
        <time>2022-03-21T10:00:37Z</time>
      </trkpt>
      <trkpt lat="47.11176" lon="5.11149">
        <ele>230.2</ele>
        <time>2022-03-21T10:00:38Z</time>
      </trkpt>
      <trkpt lat="47.11181" lon="5.11143">
        <ele>230.2</ele>
        <time>2022-03-21T10:00:39Z</time>
      </trkpt>
      <trkpt lat="47.11186" lon="5.11136">
        <ele>230.2</ele>
        <time>2022-03-21T10:00:40Z</time>
      </trkpt>
      <trkpt lat="47.11192" lon="5.11129">
        <ele>230.2</ele>
        <time>2022-03-21T10:00:41Z</time>
      </trkpt>
      <trkpt lat="47.11197" lon="5.11123">
        <ele>230.2</ele>
        <time>2022-03-21T10:00:42Z</time>
      </trkpt>
      <trkpt lat="47.11202" lon="5.11116">
        <ele>230.2</ele>
        <time>2022-03-21T10:00:43Z</time>
      </trkpt>
      <trkpt lat="47.11208" lon="5.11109">
        <ele>230.2</ele>
        <time>2022-03-21T10:00:44Z</time>
      </trkpt>
      <trkpt lat="47.11213" lon="5.11103">
        <ele>230.2</ele>
        <time>2022-03-21T10:00:45Z</time>
      </trkpt>
      <trkpt lat="47.11219" lon="5.11096">
        <ele>229.8</ele>
        <time>2022-03-21T10:00:46Z</time>
      </trkpt>
      <trkpt lat="47.11225" lon="5.11089">
        <ele>229.8</ele>
        <time>2022-03-21T10:00:47Z</time>
      </trkpt>
      <trkpt lat="47.1123" lon="5.11082">
        <ele>229.8</ele>
        <time>2022-03-21T10:00:48Z</time>
      </trkpt>
      <trkpt lat="47.11236" lon="5.11075">
        <ele>229.8</ele>
        <time>2022-03-21T10:00:49Z</time>
      </trkpt>
      <trkpt lat="47.11241" lon="5.11068">
        <ele>229.8</ele>
        <time>2022-03-21T10:00:50Z</time>
      </trkpt>
      <trkpt lat="47.11247" lon="5.11061">
        <ele>229.8</ele>
        <time>2022-03-21T10:00:51Z</time>
      </trkpt>
      <trkpt lat="47.11252" lon="5.11055">
        <ele>229.8</ele>
        <time>2022-03-21T10:00:52Z</time>
      </trkpt>
      <trkpt lat="47.11258" lon="5.11048">
        <ele>229.8</ele>
        <time>2022-03-21T10:00:53Z</time>
      </trkpt>
      <trkpt lat="47.11263" lon="5.11041">
        <ele>229.8</ele>
        <time>2022-03-21T10:00:54Z</time>
      </trkpt>
      <trkpt lat="47.11269" lon="5.11035">
        <ele>229.8</ele>
        <time>2022-03-21T10:00:55Z</time>
      </trkpt>
      <trkpt lat="47.11274" lon="5.11028">
        <ele>229.8</ele>
        <time>2022-03-21T10:00:56Z</time>
      </trkpt>
      <trkpt lat="47.1128" lon="5.11022">
        <ele>229.8</ele>
        <time>2022-03-21T10:00:57Z</time>
      </trkpt>
      <trkpt lat="47.11285" lon="5.11016">
        <ele>229.8</ele>
        <time>2022-03-21T10:00:58Z</time>
      </trkpt>
      <trkpt lat="47.1129" lon="5.11009">
        <ele>229.8</ele>
        <time>2022-03-21T10:00:59Z</time>
      </trkpt>
      <trkpt lat="47.11296" lon="5.11003">
        <ele>229.8</ele>
        <time>2022-03-21T10:01:00Z</time>
      </trkpt>
      <trkpt lat="47.11301" lon="5.10996">
        <ele>229.8</ele>
        <time>2022-03-21T10:01:01Z</time>
      </trkpt>
      <trkpt lat="47.11307" lon="5.1099">
        <ele>229.8</ele>
        <time>2022-03-21T10:01:02Z</time>
      </trkpt>
      <trkpt lat="47.11312" lon="5.10983">
        <ele>229.8</ele>
        <time>2022-03-21T10:01:03Z</time>
      </trkpt>
      <trkpt lat="47.11317" lon="5.10977">
        <ele>229.8</ele>
        <time>2022-03-21T10:01:04Z</time>
      </trkpt>
      <trkpt lat="47.11323" lon="5.1097">
        <ele>229.8</ele>
        <time>2022-03-21T10:01:05Z</time>
      </trkpt>
      <trkpt lat="47.11328" lon="5.10964">
        <ele>229.8</ele>
        <time>2022-03-21T10:01:06Z</time>
      </trkpt>
      <trkpt lat="47.11333" lon="5.10957">
        <ele>229.8</ele>
        <time>2022-03-21T10:01:07Z</time>
      </trkpt>
      <trkpt lat="47.11339" lon="5.10951">
        <ele>229.8</ele>
        <time>2022-03-21T10:01:08Z</time>
      </trkpt>
      <trkpt lat="47.11344" lon="5.10944">
        <ele>229.8</ele>
        <time>2022-03-21T10:01:09Z</time>
      </trkpt>
      <trkpt lat="47.11349" lon="5.10938">
        <ele>229.8</ele>
        <time>2022-03-21T10:01:10Z</time>
      </trkpt>
      <trkpt lat="47.11355" lon="5.10931">
        <ele>229.8</ele>
        <time>2022-03-21T10:01:11Z</time>
      </trkpt>
      <trkpt lat="47.1136" lon="5.10925">
        <ele>229.8</ele>
        <time>2022-03-21T10:01:12Z</time>
      </trkpt>
      <trkpt lat="47.11366" lon="5.10918">
        <ele>229.8</ele>
        <time>2022-03-21T10:01:13Z</time>
      </trkpt>
      <trkpt lat="47.11371" lon="5.10912">
        <ele>229.8</ele>
        <time>2022-03-21T10:01:14Z</time>
      </trkpt>
      <trkpt lat="47.11376" lon="5.10905">
        <ele>229.8</ele>
        <time>2022-03-21T10:01:15Z</time>
      </trkpt>
      <trkpt lat="47.11382" lon="5.10899">
        <ele>229.8</ele>
        <time>2022-03-21T10:01:16Z</time>
      </trkpt>
      <trkpt lat="47.11387" lon="5.10892">
        <ele>229.8</ele>
        <time>2022-03-21T10:01:17Z</time>
      </trkpt>
      <trkpt lat="47.11393" lon="5.10885">
        <ele>230</ele>
        <time>2022-03-21T10:01:19Z</time>
      </trkpt>
      <trkpt lat="47.11398" lon="5.10878">
        <ele>230</ele>
        <time>2022-03-21T10:01:20Z</time>
      </trkpt>
      <trkpt lat="47.11404" lon="5.10872">
        <ele>230</ele>
        <time>2022-03-21T10:01:21Z</time>
      </trkpt>
      <trkpt lat="47.1141" lon="5.10865">
        <ele>230</ele>
        <time>2022-03-21T10:01:22Z</time>
      </trkpt>
      <trkpt lat="47.11415" lon="5.10858">
        <ele>229.8</ele>
        <time>2022-03-21T10:01:23Z</time>
      </trkpt>
      <trkpt lat="47.11421" lon="5.10852">
        <ele>229.8</ele>
        <time>2022-03-21T10:01:24Z</time>
      </trkpt>
      <trkpt lat="47.11427" lon="5.10845">
        <ele>229.6</ele>
        <time>2022-03-21T10:01:25Z</time>
      </trkpt>
      <trkpt lat="47.11433" lon="5.10838">
        <ele>229.6</ele>
        <time>2022-03-21T10:01:26Z</time>
      </trkpt>
      <trkpt lat="47.11439" lon="5.10831">
        <ele>229.2</ele>
        <time>2022-03-21T10:01:27Z</time>
      </trkpt>
      <trkpt lat="47.11445" lon="5.10823">
        <ele>229.2</ele>
        <time>2022-03-21T10:01:28Z</time>
      </trkpt>
      <trkpt lat="47.11451" lon="5.10815">
        <ele>229</ele>
        <time>2022-03-21T10:01:29Z</time>
      </trkpt>
      <trkpt lat="47.11457" lon="5.10808">
        <ele>228.6</ele>
        <time>2022-03-21T10:01:30Z</time>
      </trkpt>
      <trkpt lat="47.11464" lon="5.108">
        <ele>228.2</ele>
        <time>2022-03-21T10:01:31Z</time>
      </trkpt>
      <trkpt lat="47.11471" lon="5.10792">
        <ele>228</ele>
        <time>2022-03-21T10:01:32Z</time>
      </trkpt>
      <trkpt lat="47.11478" lon="5.10783">
        <ele>227.6</ele>
        <time>2022-03-21T10:01:33Z</time>
      </trkpt>
      <trkpt lat="47.11485" lon="5.10774">
        <ele>227.4</ele>
        <time>2022-03-21T10:01:34Z</time>
      </trkpt>
      <trkpt lat="47.11492" lon="5.10766">
        <ele>227</ele>
        <time>2022-03-21T10:01:35Z</time>
      </trkpt>
      <trkpt lat="47.11499" lon="5.10757">
        <ele>226.6</ele>
        <time>2022-03-21T10:01:36Z</time>
      </trkpt>
      <trkpt lat="47.11507" lon="5.10748">
        <ele>226.2</ele>
        <time>2022-03-21T10:01:37Z</time>
      </trkpt>
      <trkpt lat="47.11514" lon="5.10739">
        <ele>225.8</ele>
        <time>2022-03-21T10:01:38Z</time>
      </trkpt>
      <trkpt lat="47.11522" lon="5.10729">
        <ele>225.4</ele>
        <time>2022-03-21T10:01:39Z</time>
      </trkpt>
      <trkpt lat="47.11532" lon="5.1072">
        <ele>225.2</ele>
        <time>2022-03-21T10:01:40Z</time>
      </trkpt>
      <trkpt lat="47.11539" lon="5.1071">
        <ele>224.8</ele>
        <time>2022-03-21T10:01:41Z</time>
      </trkpt>
      <trkpt lat="47.11547" lon="5.10701">
        <ele>224.6</ele>
        <time>2022-03-21T10:01:42Z</time>
      </trkpt>
      <trkpt lat="47.11554" lon="5.10691">
        <ele>224.2</ele>
        <time>2022-03-21T10:01:43Z</time>
      </trkpt>
      <trkpt lat="47.11562" lon="5.10682">
        <ele>224</ele>
        <time>2022-03-21T10:01:44Z</time>
      </trkpt>
      <trkpt lat="47.1157" lon="5.10673">
        <ele>223.6</ele>
        <time>2022-03-21T10:01:45Z</time>
      </trkpt>
      <trkpt lat="47.11578" lon="5.10664">
        <ele>223.2</ele>
        <time>2022-03-21T10:01:46Z</time>
      </trkpt>
      <trkpt lat="47.11586" lon="5.10654">
        <ele>223</ele>
        <time>2022-03-21T10:01:47Z</time>
      </trkpt>
      <trkpt lat="47.11594" lon="5.10644">
        <ele>222.4</ele>
        <time>2022-03-21T10:01:48Z</time>
      </trkpt>
      <trkpt lat="47.11601" lon="5.10634">
        <ele>222</ele>
        <time>2022-03-21T10:01:49Z</time>
      </trkpt>
      <trkpt lat="47.11608" lon="5.10624">
        <ele>221.6</ele>
        <time>2022-03-21T10:01:50Z</time>
      </trkpt>
      <trkpt lat="47.11617" lon="5.10614">
        <ele>221</ele>
        <time>2022-03-21T10:01:51Z</time>
      </trkpt>
      <trkpt lat="47.11625" lon="5.10605">
        <ele>220.6</ele>
        <time>2022-03-21T10:01:52Z</time>
      </trkpt>
      <trkpt lat="47.11634" lon="5.10596">
        <ele>220.2</ele>
        <time>2022-03-21T10:01:53Z</time>
      </trkpt>
      <trkpt lat="47.11642" lon="5.10586">
        <ele>219.6</ele>
        <time>2022-03-21T10:01:54Z</time>
      </trkpt>
      <trkpt lat="47.1165" lon="5.10576">
        <ele>219</ele>
        <time>2022-03-21T10:01:55Z</time>
      </trkpt>
      <trkpt lat="47.11659" lon="5.10566">
        <ele>218.4</ele>
        <time>2022-03-21T10:01:56Z</time>
      </trkpt>
      <trkpt lat="47.11667" lon="5.10556">
        <ele>217.8</ele>
        <time>2022-03-21T10:01:57Z</time>
      </trkpt>
      <trkpt lat="47.11676" lon="5.10545">
        <ele>217.2</ele>
        <time>2022-03-21T10:01:58Z</time>
      </trkpt>
      <trkpt lat="47.11684" lon="5.10534">
        <ele>216.6</ele>
        <time>2022-03-21T10:01:59Z</time>
      </trkpt>
      <trkpt lat="47.11692" lon="5.10524">
        <ele>216.2</ele>
        <time>2022-03-21T10:02:00Z</time>
      </trkpt>
      <trkpt lat="47.11701" lon="5.10513">
        <ele>215.8</ele>
        <time>2022-03-21T10:02:01Z</time>
      </trkpt>
      <trkpt lat="47.11709" lon="5.10503">
        <ele>215.2</ele>
        <time>2022-03-21T10:02:02Z</time>
      </trkpt>
      <trkpt lat="47.11718" lon="5.10492">
        <ele>214.8</ele>
        <time>2022-03-21T10:02:03Z</time>
      </trkpt>
      <trkpt lat="47.11726" lon="5.10482">
        <ele>214.4</ele>
        <time>2022-03-21T10:02:04Z</time>
      </trkpt>
      <trkpt lat="47.11743" lon="5.10461">
        <ele>214</ele>
        <time>2022-03-21T10:02:05Z</time>
      </trkpt>
      <trkpt lat="47.11752" lon="5.10451">
        <ele>213.6</ele>
        <time>2022-03-21T10:02:06Z</time>
      </trkpt>
      <trkpt lat="47.1176" lon="5.1044">
        <ele>213.2</ele>
        <time>2022-03-21T10:02:07Z</time>
      </trkpt>
      <trkpt lat="47.11768" lon="5.1043">
        <ele>212.8</ele>
        <time>2022-03-21T10:02:08Z</time>
      </trkpt>
      <trkpt lat="47.11777" lon="5.1042">
        <ele>212.6</ele>
        <time>2022-03-21T10:02:09Z</time>
      </trkpt>
      <trkpt lat="47.11785" lon="5.10411">
        <ele>212.4</ele>
        <time>2022-03-21T10:02:10Z</time>
      </trkpt>
      <trkpt lat="47.11793" lon="5.10401">
        <ele>212</ele>
        <time>2022-03-21T10:02:11Z</time>
      </trkpt>
      <trkpt lat="47.11801" lon="5.10391">
        <ele>211.8</ele>
        <time>2022-03-21T10:02:12Z</time>
      </trkpt>
      <trkpt lat="47.11809" lon="5.10381">
        <ele>211.4</ele>
        <time>2022-03-21T10:02:13Z</time>
      </trkpt>
      <trkpt lat="47.11817" lon="5.10371">
        <ele>211.2</ele>
        <time>2022-03-21T10:02:14Z</time>
      </trkpt>
      <trkpt lat="47.11825" lon="5.10362">
        <ele>210.8</ele>
        <time>2022-03-21T10:02:15Z</time>
      </trkpt>
      <trkpt lat="47.11833" lon="5.10353">
        <ele>210.8</ele>
        <time>2022-03-21T10:02:16Z</time>
      </trkpt>
      <trkpt lat="47.11841" lon="5.10343">
        <ele>210.6</ele>
        <time>2022-03-21T10:02:17Z</time>
      </trkpt>
      <trkpt lat="47.11848" lon="5.10334">
        <ele>210.6</ele>
        <time>2022-03-21T10:02:18Z</time>
      </trkpt>
      <trkpt lat="47.11863" lon="5.10316">
        <ele>210.2</ele>
        <time>2022-03-21T10:02:19Z</time>
      </trkpt>
      <trkpt lat="47.11871" lon="5.10307">
        <ele>210</ele>
        <time>2022-03-21T10:02:20Z</time>
      </trkpt>
      <trkpt lat="47.11878" lon="5.10298">
        <ele>210</ele>
        <time>2022-03-21T10:02:21Z</time>
      </trkpt>
      <trkpt lat="47.11885" lon="5.10289">
        <ele>209.8</ele>
        <time>2022-03-21T10:02:22Z</time>
      </trkpt>
      <trkpt lat="47.11893" lon="5.1028">
        <ele>209.8</ele>
        <time>2022-03-21T10:02:23Z</time>
      </trkpt>
      <trkpt lat="47.119" lon="5.10271">
        <ele>209.4</ele>
        <time>2022-03-21T10:02:24Z</time>
      </trkpt>
      <trkpt lat="47.11907" lon="5.10263">
        <ele>209.4</ele>
        <time>2022-03-21T10:02:25Z</time>
      </trkpt>
      <trkpt lat="47.11914" lon="5.10255">
        <ele>209.2</ele>
        <time>2022-03-21T10:02:26Z</time>
      </trkpt>
      <trkpt lat="47.11921" lon="5.10246">
        <ele>209.2</ele>
        <time>2022-03-21T10:02:27Z</time>
      </trkpt>
      <trkpt lat="47.11929" lon="5.10238">
        <ele>209.2</ele>
        <time>2022-03-21T10:02:28Z</time>
      </trkpt>
      <trkpt lat="47.11936" lon="5.10229">
        <ele>208.8</ele>
        <time>2022-03-21T10:02:29Z</time>
      </trkpt>
      <trkpt lat="47.11942" lon="5.10221">
        <ele>208.8</ele>
        <time>2022-03-21T10:02:30Z</time>
      </trkpt>
      <trkpt lat="47.11949" lon="5.10212">
        <ele>208.8</ele>
        <time>2022-03-21T10:02:31Z</time>
      </trkpt>
      <trkpt lat="47.11956" lon="5.10204">
        <ele>208.6</ele>
        <time>2022-03-21T10:02:32Z</time>
      </trkpt>
      <trkpt lat="47.11963" lon="5.10196">
        <ele>208.6</ele>
        <time>2022-03-21T10:02:33Z</time>
      </trkpt>
      <trkpt lat="47.1197" lon="5.10188">
        <ele>208.6</ele>
        <time>2022-03-21T10:02:34Z</time>
      </trkpt>
      <trkpt lat="47.11976" lon="5.1018">
        <ele>208.6</ele>
        <time>2022-03-21T10:02:35Z</time>
      </trkpt>
      <trkpt lat="47.11982" lon="5.10172">
        <ele>208.6</ele>
        <time>2022-03-21T10:02:36Z</time>
      </trkpt>
      <trkpt lat="47.11989" lon="5.10164">
        <ele>208.6</ele>
        <time>2022-03-21T10:02:37Z</time>
      </trkpt>
      <trkpt lat="47.11995" lon="5.10157">
        <ele>208.6</ele>
        <time>2022-03-21T10:02:38Z</time>
      </trkpt>
      <trkpt lat="47.12002" lon="5.10149">
        <ele>208.4</ele>
        <time>2022-03-21T10:02:39Z</time>
      </trkpt>
      <trkpt lat="47.12008" lon="5.10141">
        <ele>208.4</ele>
        <time>2022-03-21T10:02:40Z</time>
      </trkpt>
      <trkpt lat="47.12015" lon="5.10134">
        <ele>208.4</ele>
        <time>2022-03-21T10:02:41Z</time>
      </trkpt>
      <trkpt lat="47.12021" lon="5.10126">
        <ele>208.4</ele>
        <time>2022-03-21T10:02:42Z</time>
      </trkpt>
      <trkpt lat="47.12027" lon="5.10118">
        <ele>208</ele>
        <time>2022-03-21T10:02:43Z</time>
      </trkpt>
      <trkpt lat="47.12033" lon="5.10111">
        <ele>208</ele>
        <time>2022-03-21T10:02:44Z</time>
      </trkpt>
      <trkpt lat="47.1204" lon="5.10103">
        <ele>207.8</ele>
        <time>2022-03-21T10:02:45Z</time>
      </trkpt>
      <trkpt lat="47.12046" lon="5.10096">
        <ele>207.8</ele>
        <time>2022-03-21T10:02:46Z</time>
      </trkpt>
      <trkpt lat="47.12052" lon="5.10088">
        <ele>207.6</ele>
        <time>2022-03-21T10:02:47Z</time>
      </trkpt>
      <trkpt lat="47.12058" lon="5.10081">
        <ele>207.6</ele>
        <time>2022-03-21T10:02:48Z</time>
      </trkpt>
      <trkpt lat="47.12064" lon="5.10074">
        <ele>207.6</ele>
        <time>2022-03-21T10:02:49Z</time>
      </trkpt>
      <trkpt lat="47.12069" lon="5.10067">
        <ele>207.4</ele>
        <time>2022-03-21T10:02:50Z</time>
      </trkpt>
      <trkpt lat="47.12075" lon="5.1006">
        <ele>207.4</ele>
        <time>2022-03-21T10:02:51Z</time>
      </trkpt>
      <trkpt lat="47.12081" lon="5.10053">
        <ele>207.4</ele>
        <time>2022-03-21T10:02:52Z</time>
      </trkpt>
      <trkpt lat="47.12087" lon="5.10046">
        <ele>207.4</ele>
        <time>2022-03-21T10:02:53Z</time>
      </trkpt>
      <trkpt lat="47.12092" lon="5.10039">
        <ele>207.4</ele>
        <time>2022-03-21T10:02:54Z</time>
      </trkpt>
      <trkpt lat="47.12098" lon="5.10032">
        <ele>207.4</ele>
        <time>2022-03-21T10:02:55Z</time>
      </trkpt>
      <trkpt lat="47.12104" lon="5.10026">
        <ele>207.2</ele>
        <time>2022-03-21T10:02:56Z</time>
      </trkpt>
      <trkpt lat="47.12109" lon="5.10019">
        <ele>207.2</ele>
        <time>2022-03-21T10:02:57Z</time>
      </trkpt>
      <trkpt lat="47.12114" lon="5.10013">
        <ele>207.2</ele>
        <time>2022-03-21T10:02:58Z</time>
      </trkpt>
      <trkpt lat="47.12119" lon="5.10006">
        <ele>207.2</ele>
        <time>2022-03-21T10:02:59Z</time>
      </trkpt>
      <trkpt lat="47.12125" lon="5.1">
        <ele>207.2</ele>
        <time>2022-03-21T10:03:00Z</time>
      </trkpt>
      <trkpt lat="47.1213" lon="5.09993">
        <ele>207.2</ele>
        <time>2022-03-21T10:03:01Z</time>
      </trkpt>
      <trkpt lat="47.12136" lon="5.09987">
        <ele>207.2</ele>
        <time>2022-03-21T10:03:02Z</time>
      </trkpt>
      <trkpt lat="47.12141" lon="5.0998">
        <ele>207.2</ele>
        <time>2022-03-21T10:03:03Z</time>
      </trkpt>
      <trkpt lat="47.12146" lon="5.09973">
        <ele>207</ele>
        <time>2022-03-21T10:03:04Z</time>
      </trkpt>
      <trkpt lat="47.1215" lon="5.09967">
        <ele>207</ele>
        <time>2022-03-21T10:03:05Z</time>
      </trkpt>
      <trkpt lat="47.12155" lon="5.0996">
        <ele>207</ele>
        <time>2022-03-21T10:03:06Z</time>
      </trkpt>
      <trkpt lat="47.12159" lon="5.09954">
        <ele>207</ele>
        <time>2022-03-21T10:03:07Z</time>
      </trkpt>
      <trkpt lat="47.12163" lon="5.09948">
        <ele>207</ele>
        <time>2022-03-21T10:03:08Z</time>
      </trkpt>
      <trkpt lat="47.12166" lon="5.09943">
        <ele>207</ele>
        <time>2022-03-21T10:03:09Z</time>
      </trkpt>
      <trkpt lat="47.1217" lon="5.09939">
        <ele>207</ele>
        <time>2022-03-21T10:03:10Z</time>
      </trkpt>
      <trkpt lat="47.12173" lon="5.09935">
        <ele>206.6</ele>
        <time>2022-03-21T10:03:11Z</time>
      </trkpt>
      <trkpt lat="47.12178" lon="5.09932">
        <ele>206.6</ele>
        <time>2022-03-21T10:03:12Z</time>
      </trkpt>
      <trkpt lat="47.12183" lon="5.09931">
        <ele>206.6</ele>
        <time>2022-03-21T10:03:13Z</time>
      </trkpt>
      <trkpt lat="47.12188" lon="5.0993">
        <ele>206.4</ele>
        <time>2022-03-21T10:03:14Z</time>
      </trkpt>
      <trkpt lat="47.12194" lon="5.0993">
        <ele>206.4</ele>
        <time>2022-03-21T10:03:15Z</time>
      </trkpt>
      <trkpt lat="47.122" lon="5.09929">
        <ele>206</ele>
        <time>2022-03-21T10:03:16Z</time>
      </trkpt>
      <trkpt lat="47.12207" lon="5.09928">
        <ele>206</ele>
        <time>2022-03-21T10:03:17Z</time>
      </trkpt>
      <trkpt lat="47.12213" lon="5.09927">
        <ele>205.8</ele>
        <time>2022-03-21T10:03:18Z</time>
      </trkpt>
      <trkpt lat="47.12221" lon="5.09926">
        <ele>205.6</ele>
        <time>2022-03-21T10:03:19Z</time>
      </trkpt>
      <trkpt lat="47.12228" lon="5.09925">
        <ele>205.4</ele>
        <time>2022-03-21T10:03:20Z</time>
      </trkpt>
      <trkpt lat="47.12236" lon="5.09923">
        <ele>205.4</ele>
        <time>2022-03-21T10:03:21Z</time>
      </trkpt>
      <trkpt lat="47.12244" lon="5.09922">
        <ele>204.8</ele>
        <time>2022-03-21T10:03:22Z</time>
      </trkpt>
      <trkpt lat="47.12253" lon="5.0992">
        <ele>204.6</ele>
        <time>2022-03-21T10:03:23Z</time>
      </trkpt>
      <trkpt lat="47.12261" lon="5.09918">
        <ele>204.2</ele>
        <time>2022-03-21T10:03:24Z</time>
      </trkpt>
      <trkpt lat="47.1227" lon="5.09917">
        <ele>203.8</ele>
        <time>2022-03-21T10:03:25Z</time>
      </trkpt>
      <trkpt lat="47.1228" lon="5.09915">
        <ele>203.2</ele>
        <time>2022-03-21T10:03:26Z</time>
      </trkpt>
      <trkpt lat="47.1229" lon="5.09913">
        <ele>202.8</ele>
        <time>2022-03-21T10:03:27Z</time>
      </trkpt>
      <trkpt lat="47.123" lon="5.09912">
        <ele>202.4</ele>
        <time>2022-03-21T10:03:28Z</time>
      </trkpt>
      <trkpt lat="47.1231" lon="5.0991">
        <ele>202</ele>
        <time>2022-03-21T10:03:29Z</time>
      </trkpt>
      <trkpt lat="47.1232" lon="5.09908">
        <ele>201.8</ele>
        <time>2022-03-21T10:03:30Z</time>
      </trkpt>
      <trkpt lat="47.1233" lon="5.09906">
        <ele>201.2</ele>
        <time>2022-03-21T10:03:31Z</time>
      </trkpt>
      <trkpt lat="47.1234" lon="5.09903">
        <ele>201</ele>
        <time>2022-03-21T10:03:32Z</time>
      </trkpt>
      <trkpt lat="47.12349" lon="5.09901">
        <ele>200.6</ele>
        <time>2022-03-21T10:03:33Z</time>
      </trkpt>
      <trkpt lat="47.12359" lon="5.099">
        <ele>200.4</ele>
        <time>2022-03-21T10:03:34Z</time>
      </trkpt>
      <trkpt lat="47.1237" lon="5.09898">
        <ele>200.4</ele>
        <time>2022-03-21T10:03:35Z</time>
      </trkpt>
      <trkpt lat="47.12379" lon="5.09895">
        <ele>200.2</ele>
        <time>2022-03-21T10:03:36Z</time>
      </trkpt>
      <trkpt lat="47.12388" lon="5.09893">
        <ele>200.2</ele>
        <time>2022-03-21T10:03:37Z</time>
      </trkpt>
      <trkpt lat="47.12398" lon="5.09891">
        <ele>199.8</ele>
        <time>2022-03-21T10:03:38Z</time>
      </trkpt>
      <trkpt lat="47.12407" lon="5.09888">
        <ele>199.8</ele>
        <time>2022-03-21T10:03:39Z</time>
      </trkpt>
      <trkpt lat="47.12417" lon="5.09886">
        <ele>199.8</ele>
        <time>2022-03-21T10:03:40Z</time>
      </trkpt>
      <trkpt lat="47.12426" lon="5.09884">
        <ele>199.8</ele>
        <time>2022-03-21T10:03:41Z</time>
      </trkpt>
      <trkpt lat="47.12434" lon="5.09883">
        <ele>199.8</ele>
        <time>2022-03-21T10:03:42Z</time>
      </trkpt>
      <trkpt lat="47.12443" lon="5.09881">
        <ele>199.8</ele>
        <time>2022-03-21T10:03:43Z</time>
      </trkpt>
      <trkpt lat="47.12452" lon="5.09878">
        <ele>199.8</ele>
        <time>2022-03-21T10:03:44Z</time>
      </trkpt>
      <trkpt lat="47.1246" lon="5.09875">
        <ele>199.8</ele>
        <time>2022-03-21T10:03:45Z</time>
      </trkpt>
      <trkpt lat="47.12469" lon="5.09873">
        <ele>199.8</ele>
        <time>2022-03-21T10:03:46Z</time>
      </trkpt>
      <trkpt lat="47.12477" lon="5.0987">
        <ele>199.8</ele>
        <time>2022-03-21T10:03:47Z</time>
      </trkpt>
      <trkpt lat="47.12486" lon="5.09867">
        <ele>199.8</ele>
        <time>2022-03-21T10:03:48Z</time>
      </trkpt>
      <trkpt lat="47.12494" lon="5.09865">
        <ele>199.6</ele>
        <time>2022-03-21T10:03:49Z</time>
      </trkpt>
      <trkpt lat="47.12502" lon="5.09863">
        <ele>199.6</ele>
        <time>2022-03-21T10:03:50Z</time>
      </trkpt>
      <trkpt lat="47.12511" lon="5.09861">
        <ele>199.6</ele>
        <time>2022-03-21T10:03:51Z</time>
      </trkpt>
      <trkpt lat="47.12519" lon="5.09858">
        <ele>199.6</ele>
        <time>2022-03-21T10:03:52Z</time>
      </trkpt>
      <trkpt lat="47.12528" lon="5.09856">
        <ele>199.6</ele>
        <time>2022-03-21T10:03:53Z</time>
      </trkpt>
      <trkpt lat="47.12536" lon="5.09854">
        <ele>199.6</ele>
        <time>2022-03-21T10:03:54Z</time>
      </trkpt>
      <trkpt lat="47.12544" lon="5.09852">
        <ele>199.6</ele>
        <time>2022-03-21T10:03:55Z</time>
      </trkpt>
      <trkpt lat="47.12553" lon="5.0985">
        <ele>199.6</ele>
        <time>2022-03-21T10:03:56Z</time>
      </trkpt>
      <trkpt lat="47.12561" lon="5.09847">
        <ele>199.6</ele>
        <time>2022-03-21T10:03:57Z</time>
      </trkpt>
      <trkpt lat="47.12569" lon="5.09845">
        <ele>199.6</ele>
        <time>2022-03-21T10:03:58Z</time>
      </trkpt>
      <trkpt lat="47.12576" lon="5.09842">
        <ele>199.6</ele>
        <time>2022-03-21T10:03:59Z</time>
      </trkpt>
      <trkpt lat="47.12584" lon="5.09839">
        <ele>199.6</ele>
        <time>2022-03-21T10:04:00Z</time>
      </trkpt>
      <trkpt lat="47.12591" lon="5.09836">
        <ele>199.6</ele>
        <time>2022-03-21T10:04:01Z</time>
      </trkpt>
      <trkpt lat="47.12599" lon="5.09831">
        <ele>199.6</ele>
        <time>2022-03-21T10:04:02Z</time>
      </trkpt>
      <trkpt lat="47.12606" lon="5.09827">
        <ele>199.6</ele>
        <time>2022-03-21T10:04:03Z</time>
      </trkpt>
      <trkpt lat="47.12613" lon="5.09822">
        <ele>199.8</ele>
        <time>2022-03-21T10:04:04Z</time>
      </trkpt>
      <trkpt lat="47.1262" lon="5.09816">
        <ele>199.8</ele>
        <time>2022-03-21T10:04:05Z</time>
      </trkpt>
      <trkpt lat="47.12627" lon="5.09811">
        <ele>199.8</ele>
        <time>2022-03-21T10:04:06Z</time>
      </trkpt>
      <trkpt lat="47.12634" lon="5.09806">
        <ele>199.8</ele>
        <time>2022-03-21T10:04:07Z</time>
      </trkpt>
      <trkpt lat="47.12641" lon="5.09801">
        <ele>199.8</ele>
        <time>2022-03-21T10:04:08Z</time>
      </trkpt>
      <trkpt lat="47.12648" lon="5.09795">
        <ele>199.8</ele>
        <time>2022-03-21T10:04:09Z</time>
      </trkpt>
      <trkpt lat="47.12654" lon="5.0979">
        <ele>199.8</ele>
        <time>2022-03-21T10:04:10Z</time>
      </trkpt>
      <trkpt lat="47.1266" lon="5.09785">
        <ele>200.2</ele>
        <time>2022-03-21T10:04:11Z</time>
      </trkpt>
      <trkpt lat="47.12666" lon="5.0978">
        <ele>200.2</ele>
        <time>2022-03-21T10:04:12Z</time>
      </trkpt>
      <trkpt lat="47.12673" lon="5.09775">
        <ele>200.4</ele>
        <time>2022-03-21T10:04:13Z</time>
      </trkpt>
      <trkpt lat="47.12678" lon="5.0977">
        <ele>200.4</ele>
        <time>2022-03-21T10:04:14Z</time>
      </trkpt>
      <trkpt lat="47.12684" lon="5.09765">
        <ele>200.8</ele>
        <time>2022-03-21T10:04:15Z</time>
      </trkpt>
      <trkpt lat="47.1269" lon="5.09761">
        <ele>201</ele>
        <time>2022-03-21T10:04:16Z</time>
      </trkpt>
      <trkpt lat="47.12695" lon="5.09756">
        <ele>201.4</ele>
        <time>2022-03-21T10:04:17Z</time>
      </trkpt>
      <trkpt lat="47.127" lon="5.09752">
        <ele>201.4</ele>
        <time>2022-03-21T10:04:18Z</time>
      </trkpt>
      <trkpt lat="47.12705" lon="5.09748">
        <ele>201.8</ele>
        <time>2022-03-21T10:04:19Z</time>
      </trkpt>
      <trkpt lat="47.1271" lon="5.09744">
        <ele>202</ele>
        <time>2022-03-21T10:04:20Z</time>
      </trkpt>
      <trkpt lat="47.12715" lon="5.0974">
        <ele>202.4</ele>
        <time>2022-03-21T10:04:21Z</time>
      </trkpt>
      <trkpt lat="47.1272" lon="5.09736">
        <ele>202.8</ele>
        <time>2022-03-21T10:04:22Z</time>
      </trkpt>
      <trkpt lat="47.12725" lon="5.09732">
        <ele>203</ele>
        <time>2022-03-21T10:04:23Z</time>
      </trkpt>
      <trkpt lat="47.12729" lon="5.09728">
        <ele>203.6</ele>
        <time>2022-03-21T10:04:24Z</time>
      </trkpt>
      <trkpt lat="47.12734" lon="5.09724">
        <ele>204</ele>
        <time>2022-03-21T10:04:25Z</time>
      </trkpt>
      <trkpt lat="47.12738" lon="5.09721">
        <ele>204.2</ele>
        <time>2022-03-21T10:04:26Z</time>
      </trkpt>
      <trkpt lat="47.12743" lon="5.09717">
        <ele>204.4</ele>
        <time>2022-03-21T10:04:27Z</time>
      </trkpt>
      <trkpt lat="47.12747" lon="5.09714">
        <ele>204.4</ele>
        <time>2022-03-21T10:04:28Z</time>
      </trkpt>
      <trkpt lat="47.12752" lon="5.0971">
        <ele>204.8</ele>
        <time>2022-03-21T10:04:29Z</time>
      </trkpt>
      <trkpt lat="47.12756" lon="5.09706">
        <ele>204.8</ele>
        <time>2022-03-21T10:04:30Z</time>
      </trkpt>
      <trkpt lat="47.12761" lon="5.09702">
        <ele>205</ele>
        <time>2022-03-21T10:04:31Z</time>
      </trkpt>
      <trkpt lat="47.12765" lon="5.09698">
        <ele>205</ele>
        <time>2022-03-21T10:04:32Z</time>
      </trkpt>
      <trkpt lat="47.1277" lon="5.09693">
        <ele>205.4</ele>
        <time>2022-03-21T10:04:33Z</time>
      </trkpt>
      <trkpt lat="47.12774" lon="5.09689">
        <ele>205.4</ele>
        <time>2022-03-21T10:04:34Z</time>
      </trkpt>
      <trkpt lat="47.12779" lon="5.09685">
        <ele>205.4</ele>
        <time>2022-03-21T10:04:35Z</time>
      </trkpt>
      <trkpt lat="47.12784" lon="5.0968">
        <ele>205.6</ele>
        <time>2022-03-21T10:04:36Z</time>
      </trkpt>
      <trkpt lat="47.12789" lon="5.09676">
        <ele>205.6</ele>
        <time>2022-03-21T10:04:37Z</time>
      </trkpt>
      <trkpt lat="47.12794" lon="5.09671">
        <ele>205.6</ele>
        <time>2022-03-21T10:04:38Z</time>
      </trkpt>
      <trkpt lat="47.12799" lon="5.09667">
        <ele>205.8</ele>
        <time>2022-03-21T10:04:39Z</time>
      </trkpt>
      <trkpt lat="47.12804" lon="5.09662">
        <ele>205.8</ele>
        <time>2022-03-21T10:04:40Z</time>
      </trkpt>
      <trkpt lat="47.12809" lon="5.09658">
        <ele>206.2</ele>
        <time>2022-03-21T10:04:41Z</time>
      </trkpt>
      <trkpt lat="47.12815" lon="5.09653">
        <ele>206.2</ele>
        <time>2022-03-21T10:04:42Z</time>
      </trkpt>
      <trkpt lat="47.1282" lon="5.09648">
        <ele>206.2</ele>
        <time>2022-03-21T10:04:43Z</time>
      </trkpt>
      <trkpt lat="47.12825" lon="5.09643">
        <ele>206.2</ele>
        <time>2022-03-21T10:04:44Z</time>
      </trkpt>
      <trkpt lat="47.1283" lon="5.09638">
        <ele>206.4</ele>
        <time>2022-03-21T10:04:45Z</time>
      </trkpt>
      <trkpt lat="47.12835" lon="5.09632">
        <ele>206.4</ele>
        <time>2022-03-21T10:04:46Z</time>
      </trkpt>
      <trkpt lat="47.12841" lon="5.09627">
        <ele>206.4</ele>
        <time>2022-03-21T10:04:47Z</time>
      </trkpt>
      <trkpt lat="47.12846" lon="5.09622">
        <ele>206.6</ele>
        <time>2022-03-21T10:04:48Z</time>
      </trkpt>
      <trkpt lat="47.12851" lon="5.09617">
        <ele>206.6</ele>
        <time>2022-03-21T10:04:49Z</time>
      </trkpt>
      <trkpt lat="47.12857" lon="5.09612">
        <ele>206.6</ele>
        <time>2022-03-21T10:04:50Z</time>
      </trkpt>
      <trkpt lat="47.12862" lon="5.09607">
        <ele>206.6</ele>
        <time>2022-03-21T10:04:51Z</time>
      </trkpt>
      <trkpt lat="47.12868" lon="5.09602">
        <ele>206.6</ele>
        <time>2022-03-21T10:04:52Z</time>
      </trkpt>
      <trkpt lat="47.12873" lon="5.09597">
        <ele>206.8</ele>
        <time>2022-03-21T10:04:53Z</time>
      </trkpt>
      <trkpt lat="47.12879" lon="5.09591">
        <ele>206.8</ele>
        <time>2022-03-21T10:04:54Z</time>
      </trkpt>
      <trkpt lat="47.12884" lon="5.09586">
        <ele>206.8</ele>
        <time>2022-03-21T10:04:55Z</time>
      </trkpt>
      <trkpt lat="47.1289" lon="5.09581">
        <ele>207</ele>
        <time>2022-03-21T10:04:56Z</time>
      </trkpt>
      <trkpt lat="47.12895" lon="5.09575">
        <ele>207</ele>
        <time>2022-03-21T10:04:57Z</time>
      </trkpt>
      <trkpt lat="47.12901" lon="5.0957">
        <ele>207</ele>
        <time>2022-03-21T10:04:58Z</time>
      </trkpt>
      <trkpt lat="47.12907" lon="5.09565">
        <ele>207</ele>
        <time>2022-03-21T10:04:59Z</time>
      </trkpt>
      <trkpt lat="47.12912" lon="5.09559">
        <ele>207</ele>
        <time>2022-03-21T10:05:00Z</time>
      </trkpt>
      <trkpt lat="47.12918" lon="5.09554">
        <ele>207</ele>
        <time>2022-03-21T10:05:01Z</time>
      </trkpt>
      <trkpt lat="47.12923" lon="5.09549">
        <ele>207</ele>
        <time>2022-03-21T10:05:02Z</time>
      </trkpt>
      <trkpt lat="47.12929" lon="5.09543">
        <ele>207.4</ele>
        <time>2022-03-21T10:05:03Z</time>
      </trkpt>
      <trkpt lat="47.12935" lon="5.09538">
        <ele>207.4</ele>
        <time>2022-03-21T10:05:04Z</time>
      </trkpt>
      <trkpt lat="47.1294" lon="5.09533">
        <ele>207.4</ele>
        <time>2022-03-21T10:05:05Z</time>
      </trkpt>
      <trkpt lat="47.12946" lon="5.09527">
        <ele>207.4</ele>
        <time>2022-03-21T10:05:06Z</time>
      </trkpt>
      <trkpt lat="47.12951" lon="5.09522">
        <ele>207.4</ele>
        <time>2022-03-21T10:05:07Z</time>
      </trkpt>
      <trkpt lat="47.12957" lon="5.09516">
        <ele>207.4</ele>
        <time>2022-03-21T10:05:09Z</time>
      </trkpt>
      <trkpt lat="47.12963" lon="5.09511">
        <ele>207.4</ele>
        <time>2022-03-21T10:05:10Z</time>
      </trkpt>
      <trkpt lat="47.12968" lon="5.09506">
        <ele>207.4</ele>
        <time>2022-03-21T10:05:11Z</time>
      </trkpt>
      <trkpt lat="47.12974" lon="5.095">
        <ele>207.4</ele>
        <time>2022-03-21T10:05:12Z</time>
      </trkpt>
      <trkpt lat="47.1298" lon="5.09495">
        <ele>207.6</ele>
        <time>2022-03-21T10:05:13Z</time>
      </trkpt>
      <trkpt lat="47.12986" lon="5.09489">
        <ele>207.6</ele>
        <time>2022-03-21T10:05:14Z</time>
      </trkpt>
      <trkpt lat="47.12991" lon="5.09484">
        <ele>207.6</ele>
        <time>2022-03-21T10:05:15Z</time>
      </trkpt>
      <trkpt lat="47.12997" lon="5.09478">
        <ele>207.6</ele>
        <time>2022-03-21T10:05:16Z</time>
      </trkpt>
      <trkpt lat="47.13003" lon="5.09472">
        <ele>207.8</ele>
        <time>2022-03-21T10:05:17Z</time>
      </trkpt>
      <trkpt lat="47.13009" lon="5.09467">
        <ele>207.8</ele>
        <time>2022-03-21T10:05:18Z</time>
      </trkpt>
      <trkpt lat="47.13015" lon="5.09461">
        <ele>207.8</ele>
        <time>2022-03-21T10:05:19Z</time>
      </trkpt>
      <trkpt lat="47.1302" lon="5.09456">
        <ele>208</ele>
        <time>2022-03-21T10:05:20Z</time>
      </trkpt>
      <trkpt lat="47.13026" lon="5.0945">
        <ele>208</ele>
        <time>2022-03-21T10:05:21Z</time>
      </trkpt>
      <trkpt lat="47.13032" lon="5.09445">
        <ele>208</ele>
        <time>2022-03-21T10:05:22Z</time>
      </trkpt>
      <trkpt lat="47.13038" lon="5.09439">
        <ele>208</ele>
        <time>2022-03-21T10:05:23Z</time>
      </trkpt>
      <trkpt lat="47.13044" lon="5.09434">
        <ele>208</ele>
        <time>2022-03-21T10:05:24Z</time>
      </trkpt>
      <trkpt lat="47.1305" lon="5.09428">
        <ele>208</ele>
        <time>2022-03-21T10:05:25Z</time>
      </trkpt>
      <trkpt lat="47.13055" lon="5.09422">
        <ele>208</ele>
        <time>2022-03-21T10:05:26Z</time>
      </trkpt>
      <trkpt lat="47.13061" lon="5.09416">
        <ele>208</ele>
        <time>2022-03-21T10:05:27Z</time>
      </trkpt>
      <trkpt lat="47.13067" lon="5.09409">
        <ele>208</ele>
        <time>2022-03-21T10:05:28Z</time>
      </trkpt>
      <trkpt lat="47.13072" lon="5.09403">
        <ele>208</ele>
        <time>2022-03-21T10:05:29Z</time>
      </trkpt>
      <trkpt lat="47.13078" lon="5.09396">
        <ele>208</ele>
        <time>2022-03-21T10:05:30Z</time>
      </trkpt>
      <trkpt lat="47.13083" lon="5.09389">
        <ele>208</ele>
        <time>2022-03-21T10:05:31Z</time>
      </trkpt>
      <trkpt lat="47.13089" lon="5.09382">
        <ele>208</ele>
        <time>2022-03-21T10:05:32Z</time>
      </trkpt>
      <trkpt lat="47.13095" lon="5.09376">
        <ele>208</ele>
        <time>2022-03-21T10:05:33Z</time>
      </trkpt>
      <trkpt lat="47.131" lon="5.09369">
        <ele>208</ele>
        <time>2022-03-21T10:05:34Z</time>
      </trkpt>
      <trkpt lat="47.13106" lon="5.09363">
        <ele>208</ele>
        <time>2022-03-21T10:05:35Z</time>
      </trkpt>
      <trkpt lat="47.13112" lon="5.09357">
        <ele>208.4</ele>
        <time>2022-03-21T10:05:36Z</time>
      </trkpt>
      <trkpt lat="47.13118" lon="5.09351">
        <ele>208.4</ele>
        <time>2022-03-21T10:05:37Z</time>
      </trkpt>
      <trkpt lat="47.13124" lon="5.09346">
        <ele>208.4</ele>
        <time>2022-03-21T10:05:38Z</time>
      </trkpt>
      <trkpt lat="47.1313" lon="5.09341">
        <ele>208.6</ele>
        <time>2022-03-21T10:05:39Z</time>
      </trkpt>
      <trkpt lat="47.13136" lon="5.09337">
        <ele>208.6</ele>
        <time>2022-03-21T10:05:40Z</time>
      </trkpt>
      <trkpt lat="47.13142" lon="5.09334">
        <ele>208.6</ele>
        <time>2022-03-21T10:05:41Z</time>
      </trkpt>
      <trkpt lat="47.13148" lon="5.0933">
        <ele>208.6</ele>
        <time>2022-03-21T10:05:42Z</time>
      </trkpt>
      <trkpt lat="47.13152" lon="5.09327">
        <ele>208.6</ele>
        <time>2022-03-21T10:05:43Z</time>
      </trkpt>
      <trkpt lat="47.13155" lon="5.09323">
        <ele>208.6</ele>
        <time>2022-03-21T10:05:44Z</time>
      </trkpt>
      <trkpt lat="47.13156" lon="5.09318">
        <ele>208.6</ele>
        <time>2022-03-21T10:05:45Z</time>
      </trkpt>
      <trkpt lat="47.13155" lon="5.09314">
        <ele>208.6</ele>
        <time>2022-03-21T10:05:46Z</time>
      </trkpt>
      <trkpt lat="47.13153" lon="5.0931">
        <ele>208.6</ele>
        <time>2022-03-21T10:05:47Z</time>
      </trkpt>
      <trkpt lat="47.13149" lon="5.09308">
        <ele>208.6</ele>
        <time>2022-03-21T10:05:48Z</time>
      </trkpt>
      <trkpt lat="47.13146" lon="5.09307">
        <ele>208.6</ele>
        <time>2022-03-21T10:05:49Z</time>
      </trkpt>
      <trkpt lat="47.13142" lon="5.09306">
        <ele>208.4</ele>
        <time>2022-03-21T10:05:50Z</time>
      </trkpt>
      <trkpt lat="47.13138" lon="5.09305">
        <ele>208.4</ele>
        <time>2022-03-21T10:05:51Z</time>
      </trkpt>
      <trkpt lat="47.13134" lon="5.09304">
        <ele>208.4</ele>
        <time>2022-03-21T10:05:52Z</time>
      </trkpt>
      <trkpt lat="47.13129" lon="5.09302">
        <ele>208.4</ele>
        <time>2022-03-21T10:05:53Z</time>
      </trkpt>
      <trkpt lat="47.13125" lon="5.093">
        <ele>208</ele>
        <time>2022-03-21T10:05:54Z</time>
      </trkpt>
      <trkpt lat="47.1312" lon="5.09298">
        <ele>208</ele>
        <time>2022-03-21T10:05:55Z</time>
      </trkpt>
      <trkpt lat="47.13116" lon="5.09295">
        <ele>208</ele>
        <time>2022-03-21T10:05:56Z</time>
      </trkpt>
      <trkpt lat="47.13112" lon="5.09292">
        <ele>207.8</ele>
        <time>2022-03-21T10:05:57Z</time>
      </trkpt>
      <trkpt lat="47.13107" lon="5.0929">
        <ele>207.8</ele>
        <time>2022-03-21T10:05:58Z</time>
      </trkpt>
      <trkpt lat="47.13103" lon="5.09287">
        <ele>207.8</ele>
        <time>2022-03-21T10:05:59Z</time>
      </trkpt>
      <trkpt lat="47.13098" lon="5.09285">
        <ele>207.6</ele>
        <time>2022-03-21T10:06:00Z</time>
      </trkpt>
      <trkpt lat="47.13093" lon="5.09283">
        <ele>207.6</ele>
        <time>2022-03-21T10:06:01Z</time>
      </trkpt>
      <trkpt lat="47.13088" lon="5.09282">
        <ele>207.6</ele>
        <time>2022-03-21T10:06:02Z</time>
      </trkpt>
      <trkpt lat="47.13084" lon="5.0928">
        <ele>207.6</ele>
        <time>2022-03-21T10:06:03Z</time>
      </trkpt>
      <trkpt lat="47.13079" lon="5.09279">
        <ele>207.6</ele>
        <time>2022-03-21T10:06:04Z</time>
      </trkpt>
      <trkpt lat="47.13075" lon="5.09278">
        <ele>207.6</ele>
        <time>2022-03-21T10:06:05Z</time>
      </trkpt>
      <trkpt lat="47.1307" lon="5.09277">
        <ele>207.4</ele>
        <time>2022-03-21T10:06:06Z</time>
      </trkpt>
      <trkpt lat="47.13066" lon="5.09276">
        <ele>207.4</ele>
        <time>2022-03-21T10:06:07Z</time>
      </trkpt>
      <trkpt lat="47.13061" lon="5.09275">
        <ele>207.4</ele>
        <time>2022-03-21T10:06:08Z</time>
      </trkpt>
      <trkpt lat="47.13056" lon="5.09275">
        <ele>207.4</ele>
        <time>2022-03-21T10:06:09Z</time>
      </trkpt>
      <trkpt lat="47.13051" lon="5.09274">
        <ele>207.4</ele>
        <time>2022-03-21T10:06:10Z</time>
      </trkpt>
      <trkpt lat="47.13046" lon="5.09274">
        <ele>207.4</ele>
        <time>2022-03-21T10:06:11Z</time>
      </trkpt>
      <trkpt lat="47.13041" lon="5.09274">
        <ele>207.4</ele>
        <time>2022-03-21T10:06:12Z</time>
      </trkpt>
      <trkpt lat="47.13036" lon="5.09274">
        <ele>207.4</ele>
        <time>2022-03-21T10:06:13Z</time>
      </trkpt>
      <trkpt lat="47.1303" lon="5.09274">
        <ele>207.4</ele>
        <time>2022-03-21T10:06:14Z</time>
      </trkpt>
      <trkpt lat="47.13025" lon="5.09273">
        <ele>207.2</ele>
        <time>2022-03-21T10:06:15Z</time>
      </trkpt>
      <trkpt lat="47.13019" lon="5.09273">
        <ele>207.2</ele>
        <time>2022-03-21T10:06:16Z</time>
      </trkpt>
      <trkpt lat="47.13014" lon="5.09273">
        <ele>207.2</ele>
        <time>2022-03-21T10:06:17Z</time>
      </trkpt>
      <trkpt lat="47.13009" lon="5.09274">
        <ele>207.2</ele>
        <time>2022-03-21T10:06:18Z</time>
      </trkpt>
      <trkpt lat="47.13003" lon="5.09274">
        <ele>206.8</ele>
        <time>2022-03-21T10:06:19Z</time>
      </trkpt>
      <trkpt lat="47.12998" lon="5.09275">
        <ele>206.8</ele>
        <time>2022-03-21T10:06:20Z</time>
      </trkpt>
      <trkpt lat="47.12993" lon="5.09275">
        <ele>206.8</ele>
        <time>2022-03-21T10:06:21Z</time>
      </trkpt>
      <trkpt lat="47.12989" lon="5.09274">
        <ele>206.8</ele>
        <time>2022-03-21T10:06:22Z</time>
      </trkpt>
      <trkpt lat="47.12984" lon="5.09275">
        <ele>206.8</ele>
        <time>2022-03-21T10:06:23Z</time>
      </trkpt>
      <trkpt lat="47.12979" lon="5.09275">
        <ele>206.8</ele>
        <time>2022-03-21T10:06:24Z</time>
      </trkpt>
      <trkpt lat="47.12975" lon="5.09276">
        <ele>206.8</ele>
        <time>2022-03-21T10:06:25Z</time>
      </trkpt>
      <trkpt lat="47.12971" lon="5.09278">
        <ele>206.8</ele>
        <time>2022-03-21T10:06:26Z</time>
      </trkpt>
      <trkpt lat="47.12967" lon="5.09281">
        <ele>206.8</ele>
        <time>2022-03-21T10:06:27Z</time>
      </trkpt>
      <trkpt lat="47.12965" lon="5.09286">
        <ele>206.8</ele>
        <time>2022-03-21T10:06:28Z</time>
      </trkpt>
      <trkpt lat="47.12963" lon="5.0929">
        <ele>206.8</ele>
        <time>2022-03-21T10:06:29Z</time>
      </trkpt>
      <trkpt lat="47.12962" lon="5.09295">
        <ele>206.8</ele>
        <time>2022-03-21T10:06:30Z</time>
      </trkpt>
      <trkpt lat="47.12962" lon="5.09299">
        <ele>206.8</ele>
        <time>2022-03-21T10:06:31Z</time>
      </trkpt>
      <trkpt lat="47.12961" lon="5.09302">
        <ele>206.8</ele>
        <time>2022-03-21T10:06:32Z</time>
      </trkpt>
      <trkpt lat="47.12961" lon="5.09306">
        <ele>207.2</ele>
        <time>2022-03-21T10:06:33Z</time>
      </trkpt>
      <trkpt lat="47.12959" lon="5.09309">
        <ele>207.2</ele>
        <time>2022-03-21T10:06:34Z</time>
      </trkpt>
      <trkpt lat="47.12957" lon="5.09313">
        <ele>207.2</ele>
        <time>2022-03-21T10:06:35Z</time>
      </trkpt>
      <trkpt lat="47.12952" lon="5.09316">
        <ele>207.2</ele>
        <time>2022-03-21T10:06:36Z</time>
      </trkpt>
      <trkpt lat="47.12948" lon="5.09317">
        <ele>207.2</ele>
        <time>2022-03-21T10:06:37Z</time>
      </trkpt>
      <trkpt lat="47.12945" lon="5.09317">
        <ele>207.2</ele>
        <time>2022-03-21T10:06:39Z</time>
      </trkpt>
      <trkpt lat="47.12943" lon="5.09316">
        <ele>207.2</ele>
        <time>2022-03-21T10:06:40Z</time>
      </trkpt>
      <trkpt lat="47.1294" lon="5.09316">
        <ele>206.8</ele>
        <time>2022-03-21T10:06:41Z</time>
      </trkpt>
      <trkpt lat="47.12938" lon="5.09315">
        <ele>206.8</ele>
        <time>2022-03-21T10:06:42Z</time>
      </trkpt>
      <trkpt lat="47.12936" lon="5.09315">
        <ele>206.8</ele>
        <time>2022-03-21T10:06:43Z</time>
      </trkpt>
      <trkpt lat="47.12933" lon="5.09314">
        <ele>206.8</ele>
        <time>2022-03-21T10:06:44Z</time>
      </trkpt>
      <trkpt lat="47.1293" lon="5.09313">
        <ele>206.6</ele>
        <time>2022-03-21T10:06:45Z</time>
      </trkpt>
      <trkpt lat="47.12928" lon="5.09312">
        <ele>206.6</ele>
        <time>2022-03-21T10:06:46Z</time>
      </trkpt>
      <trkpt lat="47.12925" lon="5.09311">
        <ele>206.4</ele>
        <time>2022-03-21T10:06:47Z</time>
      </trkpt>
      <trkpt lat="47.12922" lon="5.0931">
        <ele>206.4</ele>
        <time>2022-03-21T10:06:48Z</time>
      </trkpt>
      <trkpt lat="47.12919" lon="5.09309">
        <ele>206.4</ele>
        <time>2022-03-21T10:06:49Z</time>
      </trkpt>
      <trkpt lat="47.12915" lon="5.09307">
        <ele>206.4</ele>
        <time>2022-03-21T10:06:50Z</time>
      </trkpt>
      <trkpt lat="47.12912" lon="5.09306">
        <ele>206.2</ele>
        <time>2022-03-21T10:06:51Z</time>
      </trkpt>
      <trkpt lat="47.12909" lon="5.09305">
        <ele>206.2</ele>
        <time>2022-03-21T10:06:52Z</time>
      </trkpt>
      <trkpt lat="47.12906" lon="5.09303">
        <ele>206.2</ele>
        <time>2022-03-21T10:06:53Z</time>
      </trkpt>
      <trkpt lat="47.12903" lon="5.09301">
        <ele>205.8</ele>
        <time>2022-03-21T10:06:54Z</time>
      </trkpt>
      <trkpt lat="47.12899" lon="5.093">
        <ele>205.8</ele>
        <time>2022-03-21T10:06:55Z</time>
      </trkpt>
      <trkpt lat="47.12896" lon="5.09298">
        <ele>205.6</ele>
        <time>2022-03-21T10:06:56Z</time>
      </trkpt>
      <trkpt lat="47.12893" lon="5.09297">
        <ele>205.6</ele>
        <time>2022-03-21T10:06:57Z</time>
      </trkpt>
      <trkpt lat="47.1289" lon="5.09295">
        <ele>205.4</ele>
        <time>2022-03-21T10:06:58Z</time>
      </trkpt>
      <trkpt lat="47.12888" lon="5.09295">
        <ele>205.4</ele>
        <time>2022-03-21T10:06:59Z</time>
      </trkpt>
      <trkpt lat="47.12884" lon="5.09295">
        <ele>205</ele>
        <time>2022-03-21T10:07:00Z</time>
      </trkpt>
      <trkpt lat="47.12882" lon="5.09297">
        <ele>205</ele>
        <time>2022-03-21T10:07:01Z</time>
      </trkpt>
      <trkpt lat="47.1288" lon="5.093">
        <ele>205</ele>
        <time>2022-03-21T10:07:02Z</time>
      </trkpt>
      <trkpt lat="47.12878" lon="5.09303">
        <ele>205</ele>
        <time>2022-03-21T10:07:03Z</time>
      </trkpt>
      <trkpt lat="47.12876" lon="5.09306">
        <ele>205</ele>
        <time>2022-03-21T10:07:04Z</time>
      </trkpt>
      <trkpt lat="47.12875" lon="5.0931">
        <ele>205</ele>
        <time>2022-03-21T10:07:05Z</time>
      </trkpt>
      <trkpt lat="47.12873" lon="5.09314">
        <ele>205</ele>
        <time>2022-03-21T10:07:06Z</time>
      </trkpt>
      <trkpt lat="47.12872" lon="5.09318">
        <ele>205</ele>
        <time>2022-03-21T10:07:07Z</time>
      </trkpt>
      <trkpt lat="47.12871" lon="5.09322">
        <ele>205</ele>
        <time>2022-03-21T10:07:08Z</time>
      </trkpt>
      <trkpt lat="47.12869" lon="5.09325">
        <ele>205.2</ele>
        <time>2022-03-21T10:07:09Z</time>
      </trkpt>
      <trkpt lat="47.12868" lon="5.09329">
        <ele>205.2</ele>
        <time>2022-03-21T10:07:10Z</time>
      </trkpt>
      <trkpt lat="47.12867" lon="5.09332">
        <ele>205.2</ele>
        <time>2022-03-21T10:07:11Z</time>
      </trkpt>
      <trkpt lat="47.12865" lon="5.09335">
        <ele>205.2</ele>
        <time>2022-03-21T10:07:12Z</time>
      </trkpt>
      <trkpt lat="47.12864" lon="5.09338">
        <ele>205.4</ele>
        <time>2022-03-21T10:07:13Z</time>
      </trkpt>
      <trkpt lat="47.12863" lon="5.09341">
        <ele>205.4</ele>
        <time>2022-03-21T10:07:14Z</time>
      </trkpt>
      <trkpt lat="47.12862" lon="5.09345">
        <ele>205.4</ele>
        <time>2022-03-21T10:07:15Z</time>
      </trkpt>
      <trkpt lat="47.12861" lon="5.09349">
        <ele>205.4</ele>
        <time>2022-03-21T10:07:16Z</time>
      </trkpt>
      <trkpt lat="47.12861" lon="5.09353">
        <ele>205.6</ele>
        <time>2022-03-21T10:07:17Z</time>
      </trkpt>
      <trkpt lat="47.1286" lon="5.09357">
        <ele>205.6</ele>
        <time>2022-03-21T10:07:18Z</time>
      </trkpt>
      <trkpt lat="47.12859" lon="5.09361">
        <ele>206</ele>
        <time>2022-03-21T10:07:19Z</time>
      </trkpt>
      <trkpt lat="47.12858" lon="5.09365">
        <ele>206</ele>
        <time>2022-03-21T10:07:20Z</time>
      </trkpt>
      <trkpt lat="47.12857" lon="5.09369">
        <ele>206.2</ele>
        <time>2022-03-21T10:07:21Z</time>
      </trkpt>
      <trkpt lat="47.12855" lon="5.09373">
        <ele>206.2</ele>
        <time>2022-03-21T10:07:22Z</time>
      </trkpt>
      <trkpt lat="47.12854" lon="5.09377">
        <ele>206.4</ele>
        <time>2022-03-21T10:07:23Z</time>
      </trkpt>
      <trkpt lat="47.12852" lon="5.09381">
        <ele>206.4</ele>
        <time>2022-03-21T10:07:24Z</time>
      </trkpt>
      <trkpt lat="47.1285" lon="5.09386">
        <ele>206.4</ele>
        <time>2022-03-21T10:07:25Z</time>
      </trkpt>
      <trkpt lat="47.12849" lon="5.09391">
        <ele>206.4</ele>
        <time>2022-03-21T10:07:26Z</time>
      </trkpt>
      <trkpt lat="47.12848" lon="5.09396">
        <ele>206.4</ele>
        <time>2022-03-21T10:07:27Z</time>
      </trkpt>
      <trkpt lat="47.12846" lon="5.09402">
        <ele>206.4</ele>
        <time>2022-03-21T10:07:28Z</time>
      </trkpt>
      <trkpt lat="47.12845" lon="5.09407">
        <ele>206.4</ele>
        <time>2022-03-21T10:07:29Z</time>
      </trkpt>
      <trkpt lat="47.12843" lon="5.09412">
        <ele>206.4</ele>
        <time>2022-03-21T10:07:30Z</time>
      </trkpt>
      <trkpt lat="47.12841" lon="5.09417">
        <ele>206.4</ele>
        <time>2022-03-21T10:07:31Z</time>
      </trkpt>
      <trkpt lat="47.12839" lon="5.09422">
        <ele>206.6</ele>
        <time>2022-03-21T10:07:32Z</time>
      </trkpt>
      <trkpt lat="47.12838" lon="5.09428">
        <ele>206.6</ele>
        <time>2022-03-21T10:07:33Z</time>
      </trkpt>
      <trkpt lat="47.12836" lon="5.09433">
        <ele>206.6</ele>
        <time>2022-03-21T10:07:34Z</time>
      </trkpt>
      <trkpt lat="47.12835" lon="5.09439">
        <ele>206.6</ele>
        <time>2022-03-21T10:07:35Z</time>
      </trkpt>
      <trkpt lat="47.12834" lon="5.09444">
        <ele>206.8</ele>
        <time>2022-03-21T10:07:36Z</time>
      </trkpt>
      <trkpt lat="47.12832" lon="5.0945">
        <ele>206.8</ele>
        <time>2022-03-21T10:07:37Z</time>
      </trkpt>
      <trkpt lat="47.1283" lon="5.09455">
        <ele>206.8</ele>
        <time>2022-03-21T10:07:38Z</time>
      </trkpt>
      <trkpt lat="47.12829" lon="5.0946">
        <ele>206.8</ele>
        <time>2022-03-21T10:07:39Z</time>
      </trkpt>
      <trkpt lat="47.12827" lon="5.09466">
        <ele>206.8</ele>
        <time>2022-03-21T10:07:40Z</time>
      </trkpt>
      <trkpt lat="47.12825" lon="5.09471">
        <ele>207.2</ele>
        <time>2022-03-21T10:07:41Z</time>
      </trkpt>
      <trkpt lat="47.12824" lon="5.09476">
        <ele>207.2</ele>
        <time>2022-03-21T10:07:42Z</time>
      </trkpt>
      <trkpt lat="47.12822" lon="5.09481">
        <ele>207.2</ele>
        <time>2022-03-21T10:07:43Z</time>
      </trkpt>
      <trkpt lat="47.12821" lon="5.09485">
        <ele>207.2</ele>
        <time>2022-03-21T10:07:44Z</time>
      </trkpt>
      <trkpt lat="47.1282" lon="5.0949">
        <ele>207.4</ele>
        <time>2022-03-21T10:07:45Z</time>
      </trkpt>
      <trkpt lat="47.12818" lon="5.09495">
        <ele>207.4</ele>
        <time>2022-03-21T10:07:46Z</time>
      </trkpt>
      <trkpt lat="47.12817" lon="5.095">
        <ele>207.4</ele>
        <time>2022-03-21T10:07:47Z</time>
      </trkpt>
      <trkpt lat="47.12815" lon="5.09504">
        <ele>207.4</ele>
        <time>2022-03-21T10:07:48Z</time>
      </trkpt>
      <trkpt lat="47.12814" lon="5.09508">
        <ele>207.4</ele>
        <time>2022-03-21T10:07:49Z</time>
      </trkpt>
      <trkpt lat="47.12812" lon="5.09512">
        <ele>207.4</ele>
        <time>2022-03-21T10:07:50Z</time>
      </trkpt>
      <trkpt lat="47.12811" lon="5.09517">
        <ele>207.4</ele>
        <time>2022-03-21T10:07:51Z</time>
      </trkpt>
      <trkpt lat="47.12809" lon="5.09521">
        <ele>207.4</ele>
        <time>2022-03-21T10:07:52Z</time>
      </trkpt>
      <trkpt lat="47.12808" lon="5.09526">
        <ele>207.4</ele>
        <time>2022-03-21T10:07:53Z</time>
      </trkpt>
      <trkpt lat="47.12806" lon="5.09531">
        <ele>207.4</ele>
        <time>2022-03-21T10:07:54Z</time>
      </trkpt>
      <trkpt lat="47.12805" lon="5.09536">
        <ele>207.4</ele>
        <time>2022-03-21T10:07:55Z</time>
      </trkpt>
      <trkpt lat="47.12803" lon="5.09542">
        <ele>207.4</ele>
        <time>2022-03-21T10:07:56Z</time>
      </trkpt>
      <trkpt lat="47.12802" lon="5.09548">
        <ele>207.4</ele>
        <time>2022-03-21T10:07:57Z</time>
      </trkpt>
      <trkpt lat="47.128" lon="5.09553">
        <ele>207.4</ele>
        <time>2022-03-21T10:07:58Z</time>
      </trkpt>
      <trkpt lat="47.12798" lon="5.09559">
        <ele>207</ele>
        <time>2022-03-21T10:07:59Z</time>
      </trkpt>
      <trkpt lat="47.12796" lon="5.09564">
        <ele>207</ele>
        <time>2022-03-21T10:08:00Z</time>
      </trkpt>
      <trkpt lat="47.12794" lon="5.09569">
        <ele>207</ele>
        <time>2022-03-21T10:08:01Z</time>
      </trkpt>
      <trkpt lat="47.12792" lon="5.09574">
        <ele>207</ele>
        <time>2022-03-21T10:08:02Z</time>
      </trkpt>
      <trkpt lat="47.1279" lon="5.0958">
        <ele>207</ele>
        <time>2022-03-21T10:08:03Z</time>
      </trkpt>
      <trkpt lat="47.12789" lon="5.09585">
        <ele>206.8</ele>
        <time>2022-03-21T10:08:04Z</time>
      </trkpt>
      <trkpt lat="47.12787" lon="5.0959">
        <ele>206.8</ele>
        <time>2022-03-21T10:08:05Z</time>
      </trkpt>
      <trkpt lat="47.12785" lon="5.09596">
        <ele>206.8</ele>
        <time>2022-03-21T10:08:06Z</time>
      </trkpt>
      <trkpt lat="47.12783" lon="5.09601">
        <ele>206.8</ele>
        <time>2022-03-21T10:08:07Z</time>
      </trkpt>
      <trkpt lat="47.12781" lon="5.09607">
        <ele>206.6</ele>
        <time>2022-03-21T10:08:08Z</time>
      </trkpt>
      <trkpt lat="47.12779" lon="5.09613">
        <ele>206.6</ele>
        <time>2022-03-21T10:08:09Z</time>
      </trkpt>
      <trkpt lat="47.12777" lon="5.09619">
        <ele>206.4</ele>
        <time>2022-03-21T10:08:10Z</time>
      </trkpt>
      <trkpt lat="47.12775" lon="5.09625">
        <ele>206.4</ele>
        <time>2022-03-21T10:08:11Z</time>
      </trkpt>
      <trkpt lat="47.12773" lon="5.09631">
        <ele>206.4</ele>
        <time>2022-03-21T10:08:12Z</time>
      </trkpt>
      <trkpt lat="47.12771" lon="5.09637">
        <ele>206.4</ele>
        <time>2022-03-21T10:08:13Z</time>
      </trkpt>
      <trkpt lat="47.12769" lon="5.09642">
        <ele>206.2</ele>
        <time>2022-03-21T10:08:14Z</time>
      </trkpt>
      <trkpt lat="47.12767" lon="5.09648">
        <ele>206.2</ele>
        <time>2022-03-21T10:08:15Z</time>
      </trkpt>
      <trkpt lat="47.12765" lon="5.09653">
        <ele>206.2</ele>
        <time>2022-03-21T10:08:16Z</time>
      </trkpt>
      <trkpt lat="47.12763" lon="5.09658">
        <ele>206.2</ele>
        <time>2022-03-21T10:08:17Z</time>
      </trkpt>
      <trkpt lat="47.12762" lon="5.09663">
        <ele>206.2</ele>
        <time>2022-03-21T10:08:18Z</time>
      </trkpt>
      <trkpt lat="47.12761" lon="5.09666">
        <ele>205.8</ele>
        <time>2022-03-21T10:08:19Z</time>
      </trkpt>
      <trkpt lat="47.12759" lon="5.0967">
        <ele>205.8</ele>
        <time>2022-03-21T10:08:20Z</time>
      </trkpt>
      <trkpt lat="47.12758" lon="5.09672">
        <ele>205.8</ele>
        <time>2022-03-21T10:08:21Z</time>
      </trkpt>
      <trkpt lat="47.12757" lon="5.09673">
        <ele>205.8</ele>
        <time>2022-03-21T10:08:22Z</time>
      </trkpt>
      <trkpt lat="47.12756" lon="5.09674">
        <ele>205.8</ele>
        <time>2022-03-21T10:08:23Z</time>
      </trkpt>
      <trkpt lat="47.12754" lon="5.09674">
        <ele>205.8</ele>
        <time>2022-03-21T10:08:24Z</time>
      </trkpt>
      <trkpt lat="47.12753" lon="5.09675">
        <ele>205.8</ele>
        <time>2022-03-21T10:08:25Z</time>
      </trkpt>
      <trkpt lat="47.12752" lon="5.09676">
        <ele>205.8</ele>
        <time>2022-03-21T10:08:26Z</time>
      </trkpt>
      <trkpt lat="47.12752" lon="5.09678">
        <ele>205.8</ele>
        <time>2022-03-21T10:08:27Z</time>
      </trkpt>
      <trkpt lat="47.12752" lon="5.0968">
        <ele>205.8</ele>
        <time>2022-03-21T10:08:28Z</time>
      </trkpt>
      <trkpt lat="47.12753" lon="5.09681">
        <ele>205.8</ele>
        <time>2022-03-21T10:08:29Z</time>
      </trkpt>
      <trkpt lat="47.12754" lon="5.09684">
        <ele>205.8</ele>
        <time>2022-03-21T10:08:30Z</time>
      </trkpt>
      <trkpt lat="47.12754" lon="5.09686">
        <ele>205.8</ele>
        <time>2022-03-21T10:08:31Z</time>
      </trkpt>
      <trkpt lat="47.12754" lon="5.09688">
        <ele>205.8</ele>
        <time>2022-03-21T10:08:32Z</time>
      </trkpt>
      <trkpt lat="47.12753" lon="5.0969">
        <ele>205.8</ele>
        <time>2022-03-21T10:08:33Z</time>
      </trkpt>
      <trkpt lat="47.12752" lon="5.09693">
        <ele>205.8</ele>
        <time>2022-03-21T10:08:34Z</time>
      </trkpt>
      <trkpt lat="47.12751" lon="5.09695">
        <ele>205.8</ele>
        <time>2022-03-21T10:08:35Z</time>
      </trkpt>
      <trkpt lat="47.12749" lon="5.09697">
        <ele>206.2</ele>
        <time>2022-03-21T10:08:36Z</time>
      </trkpt>
      <trkpt lat="47.12748" lon="5.097">
        <ele>206.2</ele>
        <time>2022-03-21T10:08:37Z</time>
      </trkpt>
      <trkpt lat="47.12746" lon="5.09702">
        <ele>206.2</ele>
        <time>2022-03-21T10:08:38Z</time>
      </trkpt>
      <trkpt lat="47.12744" lon="5.09704">
        <ele>206.2</ele>
        <time>2022-03-21T10:08:39Z</time>
      </trkpt>
      <trkpt lat="47.12741" lon="5.09707">
        <ele>206.2</ele>
        <time>2022-03-21T10:08:40Z</time>
      </trkpt>
      <trkpt lat="47.12738" lon="5.09709">
        <ele>206.2</ele>
        <time>2022-03-21T10:08:41Z</time>
      </trkpt>
      <trkpt lat="47.12735" lon="5.09712">
        <ele>206</ele>
        <time>2022-03-21T10:08:42Z</time>
      </trkpt>
      <trkpt lat="47.12731" lon="5.09715">
        <ele>206</ele>
        <time>2022-03-21T10:08:43Z</time>
      </trkpt>
      <trkpt lat="47.12728" lon="5.09718">
        <ele>206</ele>
        <time>2022-03-21T10:08:44Z</time>
      </trkpt>
      <trkpt lat="47.12724" lon="5.09721">
        <ele>205.6</ele>
        <time>2022-03-21T10:08:45Z</time>
      </trkpt>
      <trkpt lat="47.1272" lon="5.09725">
        <ele>205.6</ele>
        <time>2022-03-21T10:08:46Z</time>
      </trkpt>
      <trkpt lat="47.12715" lon="5.09728">
        <ele>205.6</ele>
        <time>2022-03-21T10:08:47Z</time>
      </trkpt>
      <trkpt lat="47.12711" lon="5.09732">
        <ele>205.4</ele>
        <time>2022-03-21T10:08:48Z</time>
      </trkpt>
      <trkpt lat="47.12706" lon="5.09736">
        <ele>205.4</ele>
        <time>2022-03-21T10:08:49Z</time>
      </trkpt>
      <trkpt lat="47.12701" lon="5.0974">
        <ele>204.8</ele>
        <time>2022-03-21T10:08:50Z</time>
      </trkpt>
      <trkpt lat="47.12695" lon="5.09744">
        <ele>204.6</ele>
        <time>2022-03-21T10:08:51Z</time>
      </trkpt>
      <trkpt lat="47.1269" lon="5.09748">
        <ele>204.4</ele>
        <time>2022-03-21T10:08:52Z</time>
      </trkpt>
      <trkpt lat="47.12685" lon="5.09752">
        <ele>204</ele>
        <time>2022-03-21T10:08:53Z</time>
      </trkpt>
      <trkpt lat="47.1268" lon="5.09757">
        <ele>203.8</ele>
        <time>2022-03-21T10:08:54Z</time>
      </trkpt>
      <trkpt lat="47.12674" lon="5.09761">
        <ele>203.6</ele>
        <time>2022-03-21T10:08:55Z</time>
      </trkpt>
      <trkpt lat="47.12669" lon="5.09765">
        <ele>203.2</ele>
        <time>2022-03-21T10:08:56Z</time>
      </trkpt>
      <trkpt lat="47.12664" lon="5.09769">
        <ele>203</ele>
        <time>2022-03-21T10:08:57Z</time>
      </trkpt>
      <trkpt lat="47.1266" lon="5.09773">
        <ele>202.6</ele>
        <time>2022-03-21T10:08:58Z</time>
      </trkpt>
      <trkpt lat="47.12656" lon="5.09777">
        <ele>202.4</ele>
        <time>2022-03-21T10:08:59Z</time>
      </trkpt>
      <trkpt lat="47.12652" lon="5.09779">
        <ele>202.2</ele>
        <time>2022-03-21T10:09:00Z</time>
      </trkpt>
      <trkpt lat="47.12649" lon="5.09781">
        <ele>202</ele>
        <time>2022-03-21T10:09:01Z</time>
      </trkpt>
      <trkpt lat="47.12647" lon="5.09783">
        <ele>202</ele>
        <time>2022-03-21T10:09:02Z</time>
      </trkpt>
      <trkpt lat="47.12645" lon="5.09784">
        <ele>201.6</ele>
        <time>2022-03-21T10:09:03Z</time>
      </trkpt>
      <trkpt lat="47.12644" lon="5.09785">
        <ele>201.6</ele>
        <time>2022-03-21T10:09:04Z</time>
      </trkpt>
      <trkpt lat="47.12642" lon="5.09785">
        <ele>201.2</ele>
        <time>2022-03-21T10:09:08Z</time>
      </trkpt>
      <trkpt lat="47.1264" lon="5.09786">
        <ele>201.2</ele>
        <time>2022-03-21T10:09:09Z</time>
      </trkpt>
      <trkpt lat="47.1264" lon="5.09787">
        <ele>201.2</ele>
        <time>2022-03-21T10:09:11Z</time>
      </trkpt>
      <trkpt lat="47.12639" lon="5.09787">
        <ele>200.6</ele>
        <time>2022-03-21T10:09:14Z</time>
      </trkpt>
      <trkpt lat="47.12639" lon="5.09788">
        <ele>201.2</ele>
        <time>2022-03-21T10:09:15Z</time>
      </trkpt>
      <trkpt lat="47.12638" lon="5.09789">
        <ele>201</ele>
        <time>2022-03-21T10:09:19Z</time>
      </trkpt>
      <trkpt lat="47.12636" lon="5.09791">
        <ele>201</ele>
        <time>2022-03-21T10:09:32Z</time>
      </trkpt>
      <trkpt lat="47.12634" lon="5.09794">
        <ele>201</ele>
        <time>2022-03-21T10:09:33Z</time>
      </trkpt>
      <trkpt lat="47.12633" lon="5.09795">
        <ele>201</ele>
        <time>2022-03-21T10:09:34Z</time>
      </trkpt>
      <trkpt lat="47.12631" lon="5.09797">
        <ele>201</ele>
        <time>2022-03-21T10:09:35Z</time>
      </trkpt>
      <trkpt lat="47.12627" lon="5.098">
        <ele>201.2</ele>
        <time>2022-03-21T10:09:36Z</time>
      </trkpt>
      <trkpt lat="47.12625" lon="5.09801">
        <ele>201.2</ele>
        <time>2022-03-21T10:09:37Z</time>
      </trkpt>
      <trkpt lat="47.12623" lon="5.09804">
        <ele>201.2</ele>
        <time>2022-03-21T10:09:38Z</time>
      </trkpt>
      <trkpt lat="47.12619" lon="5.09806">
        <ele>201.2</ele>
        <time>2022-03-21T10:09:39Z</time>
      </trkpt>
      <trkpt lat="47.12616" lon="5.09808">
        <ele>201.2</ele>
        <time>2022-03-21T10:09:40Z</time>
      </trkpt>
      <trkpt lat="47.12611" lon="5.09812">
        <ele>201.2</ele>
        <time>2022-03-21T10:09:41Z</time>
      </trkpt>
      <trkpt lat="47.12609" lon="5.09813">
        <ele>200.8</ele>
        <time>2022-03-21T10:09:42Z</time>
      </trkpt>
      <trkpt lat="47.12606" lon="5.09816">
        <ele>200.8</ele>
        <time>2022-03-21T10:09:43Z</time>
      </trkpt>
      <trkpt lat="47.12602" lon="5.09819">
        <ele>200.8</ele>
        <time>2022-03-21T10:09:44Z</time>
      </trkpt>
      <trkpt lat="47.12599" lon="5.09821">
        <ele>200.6</ele>
        <time>2022-03-21T10:09:45Z</time>
      </trkpt>
      <trkpt lat="47.12593" lon="5.09825">
        <ele>200.6</ele>
        <time>2022-03-21T10:09:46Z</time>
      </trkpt>
      <trkpt lat="47.12591" lon="5.09827">
        <ele>200.6</ele>
        <time>2022-03-21T10:09:47Z</time>
      </trkpt>
      <trkpt lat="47.12587" lon="5.09829">
        <ele>200.6</ele>
        <time>2022-03-21T10:09:48Z</time>
      </trkpt>
      <trkpt lat="47.12584" lon="5.09831">
        <ele>200.6</ele>
        <time>2022-03-21T10:09:49Z</time>
      </trkpt>
      <trkpt lat="47.12578" lon="5.09833">
        <ele>200.6</ele>
        <time>2022-03-21T10:09:50Z</time>
      </trkpt>
      <trkpt lat="47.12577" lon="5.09834">
        <ele>200.6</ele>
        <time>2022-03-21T10:09:51Z</time>
      </trkpt>
      <trkpt lat="47.12573" lon="5.09836">
        <ele>200.6</ele>
        <time>2022-03-21T10:09:52Z</time>
      </trkpt>
      <trkpt lat="47.1257" lon="5.09836">
        <ele>200.4</ele>
        <time>2022-03-21T10:09:53Z</time>
      </trkpt>
      <trkpt lat="47.12568" lon="5.09837">
        <ele>200.4</ele>
        <time>2022-03-21T10:09:54Z</time>
      </trkpt>
      <trkpt lat="47.12565" lon="5.09837">
        <ele>200.4</ele>
        <time>2022-03-21T10:09:55Z</time>
      </trkpt>
      <trkpt lat="47.12564" lon="5.09836">
        <ele>200.2</ele>
        <time>2022-03-21T10:09:56Z</time>
      </trkpt>
      <trkpt lat="47.12563" lon="5.09836">
        <ele>200.2</ele>
        <time>2022-03-21T10:09:57Z</time>
      </trkpt>
      <trkpt lat="47.12562" lon="5.09836">
        <ele>200.2</ele>
        <time>2022-03-21T10:09:58Z</time>
      </trkpt>
      <trkpt lat="47.12557" lon="5.09839">
        <ele>200.4</ele>
        <time>2022-03-21T10:11:50Z</time>
      </trkpt>
      <trkpt lat="47.12554" lon="5.0984">
        <ele>200.4</ele>
        <time>2022-03-21T10:11:51Z</time>
      </trkpt>
      <trkpt lat="47.12552" lon="5.09841">
        <ele>200.6</ele>
        <time>2022-03-21T10:11:52Z</time>
      </trkpt>
      <trkpt lat="47.12549" lon="5.09841">
        <ele>200.6</ele>
        <time>2022-03-21T10:11:53Z</time>
      </trkpt>
      <trkpt lat="47.12546" lon="5.09842">
        <ele>200.6</ele>
        <time>2022-03-21T10:11:54Z</time>
      </trkpt>
      <trkpt lat="47.12543" lon="5.09843">
        <ele>200.6</ele>
        <time>2022-03-21T10:11:55Z</time>
      </trkpt>
      <trkpt lat="47.12539" lon="5.09845">
        <ele>200.6</ele>
        <time>2022-03-21T10:11:56Z</time>
      </trkpt>
      <trkpt lat="47.12536" lon="5.09846">
        <ele>200.6</ele>
        <time>2022-03-21T10:11:57Z</time>
      </trkpt>
      <trkpt lat="47.12532" lon="5.09848">
        <ele>200.6</ele>
        <time>2022-03-21T10:11:58Z</time>
      </trkpt>
      <trkpt lat="47.12528" lon="5.09849">
        <ele>200.6</ele>
        <time>2022-03-21T10:11:59Z</time>
      </trkpt>
      <trkpt lat="47.12523" lon="5.09851">
        <ele>200.6</ele>
        <time>2022-03-21T10:12:00Z</time>
      </trkpt>
      <trkpt lat="47.12517" lon="5.09852">
        <ele>200.6</ele>
        <time>2022-03-21T10:12:01Z</time>
      </trkpt>
      <trkpt lat="47.12514" lon="5.09853">
        <ele>200.6</ele>
        <time>2022-03-21T10:12:02Z</time>
      </trkpt>
      <trkpt lat="47.12507" lon="5.09855">
        <ele>200.6</ele>
        <time>2022-03-21T10:12:03Z</time>
      </trkpt>
      <trkpt lat="47.12505" lon="5.09855">
        <ele>200.6</ele>
        <time>2022-03-21T10:12:04Z</time>
      </trkpt>
      <trkpt lat="47.12501" lon="5.09857">
        <ele>200.6</ele>
        <time>2022-03-21T10:12:05Z</time>
      </trkpt>
      <trkpt lat="47.12496" lon="5.09858">
        <ele>200.6</ele>
        <time>2022-03-21T10:12:06Z</time>
      </trkpt>
      <trkpt lat="47.12491" lon="5.0986">
        <ele>200.6</ele>
        <time>2022-03-21T10:12:07Z</time>
      </trkpt>
      <trkpt lat="47.12486" lon="5.09861">
        <ele>200.6</ele>
        <time>2022-03-21T10:12:08Z</time>
      </trkpt>
      <trkpt lat="47.12476" lon="5.09863">
        <ele>200.6</ele>
        <time>2022-03-21T10:12:09Z</time>
      </trkpt>
      <trkpt lat="47.12471" lon="5.09864">
        <ele>200.6</ele>
        <time>2022-03-21T10:12:10Z</time>
      </trkpt>
      <trkpt lat="47.12466" lon="5.09866">
        <ele>200.8</ele>
        <time>2022-03-21T10:12:11Z</time>
      </trkpt>
      <trkpt lat="47.12461" lon="5.09867">
        <ele>200.8</ele>
        <time>2022-03-21T10:12:12Z</time>
      </trkpt>
      <trkpt lat="47.12456" lon="5.09868">
        <ele>200.8</ele>
        <time>2022-03-21T10:12:13Z</time>
      </trkpt>
      <trkpt lat="47.12451" lon="5.09869">
        <ele>200.8</ele>
        <time>2022-03-21T10:12:14Z</time>
      </trkpt>
      <trkpt lat="47.12446" lon="5.09871">
        <ele>200.8</ele>
        <time>2022-03-21T10:12:15Z</time>
      </trkpt>
      <trkpt lat="47.12441" lon="5.09872">
        <ele>200.8</ele>
        <time>2022-03-21T10:12:16Z</time>
      </trkpt>
      <trkpt lat="47.12436" lon="5.09874">
        <ele>200.8</ele>
        <time>2022-03-21T10:12:17Z</time>
      </trkpt>
      <trkpt lat="47.1243" lon="5.09875">
        <ele>200.8</ele>
        <time>2022-03-21T10:12:18Z</time>
      </trkpt>
      <trkpt lat="47.12425" lon="5.09876">
        <ele>200.8</ele>
        <time>2022-03-21T10:12:19Z</time>
      </trkpt>
      <trkpt lat="47.1242" lon="5.09878">
        <ele>200.8</ele>
        <time>2022-03-21T10:12:20Z</time>
      </trkpt>
      <trkpt lat="47.12414" lon="5.09879">
        <ele>200.8</ele>
        <time>2022-03-21T10:12:21Z</time>
      </trkpt>
      <trkpt lat="47.12409" lon="5.09881">
        <ele>200.8</ele>
        <time>2022-03-21T10:12:22Z</time>
      </trkpt>
      <trkpt lat="47.12403" lon="5.09882">
        <ele>200.8</ele>
        <time>2022-03-21T10:12:23Z</time>
      </trkpt>
      <trkpt lat="47.12398" lon="5.09883">
        <ele>200.8</ele>
        <time>2022-03-21T10:12:24Z</time>
      </trkpt>
      <trkpt lat="47.12392" lon="5.09884">
        <ele>200.8</ele>
        <time>2022-03-21T10:12:25Z</time>
      </trkpt>
      <trkpt lat="47.12387" lon="5.09886">
        <ele>200.8</ele>
        <time>2022-03-21T10:12:26Z</time>
      </trkpt>
      <trkpt lat="47.12381" lon="5.09887">
        <ele>200.8</ele>
        <time>2022-03-21T10:12:27Z</time>
      </trkpt>
      <trkpt lat="47.12376" lon="5.09889">
        <ele>200.8</ele>
        <time>2022-03-21T10:12:28Z</time>
      </trkpt>
      <trkpt lat="47.1237" lon="5.0989">
        <ele>200.8</ele>
        <time>2022-03-21T10:12:29Z</time>
      </trkpt>
      <trkpt lat="47.12364" lon="5.09892">
        <ele>200.8</ele>
        <time>2022-03-21T10:12:30Z</time>
      </trkpt>
      <trkpt lat="47.12359" lon="5.09893">
        <ele>200.8</ele>
        <time>2022-03-21T10:12:31Z</time>
      </trkpt>
      <trkpt lat="47.12353" lon="5.09895">
        <ele>200.8</ele>
        <time>2022-03-21T10:12:32Z</time>
      </trkpt>
      <trkpt lat="47.12347" lon="5.09896">
        <ele>200.8</ele>
        <time>2022-03-21T10:12:33Z</time>
      </trkpt>
      <trkpt lat="47.12342" lon="5.09898">
        <ele>200.8</ele>
        <time>2022-03-21T10:12:34Z</time>
      </trkpt>
      <trkpt lat="47.12336" lon="5.09899">
        <ele>200.8</ele>
        <time>2022-03-21T10:12:35Z</time>
      </trkpt>
      <trkpt lat="47.1233" lon="5.099">
        <ele>200.8</ele>
        <time>2022-03-21T10:12:36Z</time>
      </trkpt>
      <trkpt lat="47.12325" lon="5.09901">
        <ele>200.8</ele>
        <time>2022-03-21T10:12:37Z</time>
      </trkpt>
      <trkpt lat="47.12319" lon="5.09903">
        <ele>200.8</ele>
        <time>2022-03-21T10:12:38Z</time>
      </trkpt>
      <trkpt lat="47.12313" lon="5.09904">
        <ele>200.8</ele>
        <time>2022-03-21T10:12:39Z</time>
      </trkpt>
      <trkpt lat="47.12307" lon="5.09905">
        <ele>201</ele>
        <time>2022-03-21T10:12:40Z</time>
      </trkpt>
      <trkpt lat="47.12302" lon="5.09906">
        <ele>201</ele>
        <time>2022-03-21T10:12:41Z</time>
      </trkpt>
      <trkpt lat="47.12296" lon="5.09907">
        <ele>201</ele>
        <time>2022-03-21T10:12:42Z</time>
      </trkpt>
      <trkpt lat="47.12291" lon="5.09909">
        <ele>201.4</ele>
        <time>2022-03-21T10:12:43Z</time>
      </trkpt>
      <trkpt lat="47.12286" lon="5.09909">
        <ele>201.4</ele>
        <time>2022-03-21T10:12:44Z</time>
      </trkpt>
      <trkpt lat="47.1228" lon="5.0991">
        <ele>201.4</ele>
        <time>2022-03-21T10:12:45Z</time>
      </trkpt>
      <trkpt lat="47.12275" lon="5.09911">
        <ele>201.4</ele>
        <time>2022-03-21T10:12:46Z</time>
      </trkpt>
      <trkpt lat="47.1227" lon="5.09912">
        <ele>201.4</ele>
        <time>2022-03-21T10:12:47Z</time>
      </trkpt>
      <trkpt lat="47.12265" lon="5.09912">
        <ele>201.6</ele>
        <time>2022-03-21T10:12:48Z</time>
      </trkpt>
      <trkpt lat="47.1226" lon="5.09913">
        <ele>201.8</ele>
        <time>2022-03-21T10:12:49Z</time>
      </trkpt>
      <trkpt lat="47.12255" lon="5.09914">
        <ele>201.8</ele>
        <time>2022-03-21T10:12:50Z</time>
      </trkpt>
      <trkpt lat="47.12251" lon="5.09914">
        <ele>202.4</ele>
        <time>2022-03-21T10:12:51Z</time>
      </trkpt>
      <trkpt lat="47.12246" lon="5.09915">
        <ele>202.8</ele>
        <time>2022-03-21T10:12:53Z</time>
      </trkpt>
      <trkpt lat="47.12242" lon="5.09916">
        <ele>203.2</ele>
        <time>2022-03-21T10:12:54Z</time>
      </trkpt>
      <trkpt lat="47.12237" lon="5.09918">
        <ele>203.4</ele>
        <time>2022-03-21T10:12:55Z</time>
      </trkpt>
      <trkpt lat="47.12233" lon="5.0992">
        <ele>203.4</ele>
        <time>2022-03-21T10:12:56Z</time>
      </trkpt>
      <trkpt lat="47.12229" lon="5.09921">
        <ele>203.6</ele>
        <time>2022-03-21T10:12:57Z</time>
      </trkpt>
      <trkpt lat="47.12226" lon="5.09922">
        <ele>204</ele>
        <time>2022-03-21T10:12:58Z</time>
      </trkpt>
      <trkpt lat="47.12222" lon="5.09923">
        <ele>204</ele>
        <time>2022-03-21T10:12:59Z</time>
      </trkpt>
      <trkpt lat="47.12218" lon="5.09925">
        <ele>204.4</ele>
        <time>2022-03-21T10:13:00Z</time>
      </trkpt>
      <trkpt lat="47.12215" lon="5.09926">
        <ele>204.6</ele>
        <time>2022-03-21T10:13:01Z</time>
      </trkpt>
      <trkpt lat="47.12212" lon="5.09927">
        <ele>204.8</ele>
        <time>2022-03-21T10:13:02Z</time>
      </trkpt>
      <trkpt lat="47.12208" lon="5.09928">
        <ele>205.2</ele>
        <time>2022-03-21T10:13:03Z</time>
      </trkpt>
      <trkpt lat="47.12205" lon="5.09928">
        <ele>205.2</ele>
        <time>2022-03-21T10:13:04Z</time>
      </trkpt>
      <trkpt lat="47.12201" lon="5.09929">
        <ele>205.4</ele>
        <time>2022-03-21T10:13:05Z</time>
      </trkpt>
      <trkpt lat="47.12198" lon="5.0993">
        <ele>205.4</ele>
        <time>2022-03-21T10:13:06Z</time>
      </trkpt>
      <trkpt lat="47.12194" lon="5.0993">
        <ele>205.8</ele>
        <time>2022-03-21T10:13:07Z</time>
      </trkpt>
      <trkpt lat="47.1219" lon="5.09931">
        <ele>206</ele>
        <time>2022-03-21T10:13:08Z</time>
      </trkpt>
      <trkpt lat="47.12186" lon="5.09931">
        <ele>206</ele>
        <time>2022-03-21T10:13:09Z</time>
      </trkpt>
      <trkpt lat="47.12182" lon="5.09932">
        <ele>206.4</ele>
        <time>2022-03-21T10:13:10Z</time>
      </trkpt>
      <trkpt lat="47.12179" lon="5.09933">
        <ele>206.6</ele>
        <time>2022-03-21T10:13:11Z</time>
      </trkpt>
      <trkpt lat="47.12175" lon="5.09934">
        <ele>206.8</ele>
        <time>2022-03-21T10:13:12Z</time>
      </trkpt>
      <trkpt lat="47.12171" lon="5.09935">
        <ele>206.8</ele>
        <time>2022-03-21T10:13:13Z</time>
      </trkpt>
      <trkpt lat="47.12168" lon="5.09937">
        <ele>207.2</ele>
        <time>2022-03-21T10:13:14Z</time>
      </trkpt>
      <trkpt lat="47.12165" lon="5.0994">
        <ele>207.2</ele>
        <time>2022-03-21T10:13:15Z</time>
      </trkpt>
      <trkpt lat="47.12162" lon="5.09944">
        <ele>207.2</ele>
        <time>2022-03-21T10:13:16Z</time>
      </trkpt>
      <trkpt lat="47.12159" lon="5.09948">
        <ele>207.6</ele>
        <time>2022-03-21T10:13:17Z</time>
      </trkpt>
      <trkpt lat="47.12157" lon="5.09952">
        <ele>207.6</ele>
        <time>2022-03-21T10:13:18Z</time>
      </trkpt>
      <trkpt lat="47.12155" lon="5.09956">
        <ele>207.8</ele>
        <time>2022-03-21T10:13:19Z</time>
      </trkpt>
      <trkpt lat="47.12152" lon="5.09961">
        <ele>207.8</ele>
        <time>2022-03-21T10:13:20Z</time>
      </trkpt>
      <trkpt lat="47.12149" lon="5.09965">
        <ele>207.8</ele>
        <time>2022-03-21T10:13:21Z</time>
      </trkpt>
      <trkpt lat="47.12146" lon="5.09969">
        <ele>207.8</ele>
        <time>2022-03-21T10:13:22Z</time>
      </trkpt>
      <trkpt lat="47.12143" lon="5.09973">
        <ele>207.8</ele>
        <time>2022-03-21T10:13:23Z</time>
      </trkpt>
      <trkpt lat="47.1214" lon="5.09976">
        <ele>207.8</ele>
        <time>2022-03-21T10:13:24Z</time>
      </trkpt>
      <trkpt lat="47.12137" lon="5.0998">
        <ele>207.8</ele>
        <time>2022-03-21T10:13:25Z</time>
      </trkpt>
      <trkpt lat="47.12133" lon="5.09984">
        <ele>207.8</ele>
        <time>2022-03-21T10:13:26Z</time>
      </trkpt>
      <trkpt lat="47.1213" lon="5.09988">
        <ele>207.8</ele>
        <time>2022-03-21T10:13:27Z</time>
      </trkpt>
      <trkpt lat="47.12126" lon="5.09992">
        <ele>207.8</ele>
        <time>2022-03-21T10:13:28Z</time>
      </trkpt>
      <trkpt lat="47.12123" lon="5.09996">
        <ele>208.2</ele>
        <time>2022-03-21T10:13:29Z</time>
      </trkpt>
      <trkpt lat="47.1212" lon="5.1">
        <ele>208.2</ele>
        <time>2022-03-21T10:13:30Z</time>
      </trkpt>
      <trkpt lat="47.12116" lon="5.10004">
        <ele>208.2</ele>
        <time>2022-03-21T10:13:31Z</time>
      </trkpt>
      <trkpt lat="47.12113" lon="5.10008">
        <ele>208.2</ele>
        <time>2022-03-21T10:13:32Z</time>
      </trkpt>
      <trkpt lat="47.12109" lon="5.10013">
        <ele>208.2</ele>
        <time>2022-03-21T10:13:33Z</time>
      </trkpt>
      <trkpt lat="47.12105" lon="5.10017">
        <ele>208.2</ele>
        <time>2022-03-21T10:13:34Z</time>
      </trkpt>
      <trkpt lat="47.12101" lon="5.10022">
        <ele>208.2</ele>
        <time>2022-03-21T10:13:35Z</time>
      </trkpt>
      <trkpt lat="47.12097" lon="5.10027">
        <ele>208.2</ele>
        <time>2022-03-21T10:13:36Z</time>
      </trkpt>
      <trkpt lat="47.12093" lon="5.10032">
        <ele>208.2</ele>
        <time>2022-03-21T10:13:37Z</time>
      </trkpt>
      <trkpt lat="47.12089" lon="5.10037">
        <ele>208.2</ele>
        <time>2022-03-21T10:13:38Z</time>
      </trkpt>
      <trkpt lat="47.12085" lon="5.10042">
        <ele>208.2</ele>
        <time>2022-03-21T10:13:39Z</time>
      </trkpt>
      <trkpt lat="47.12081" lon="5.10047">
        <ele>208.2</ele>
        <time>2022-03-21T10:13:40Z</time>
      </trkpt>
      <trkpt lat="47.12072" lon="5.10058">
        <ele>208.2</ele>
        <time>2022-03-21T10:13:41Z</time>
      </trkpt>
      <trkpt lat="47.12067" lon="5.10063">
        <ele>208.2</ele>
        <time>2022-03-21T10:13:42Z</time>
      </trkpt>
      <trkpt lat="47.12063" lon="5.10069">
        <ele>208.2</ele>
        <time>2022-03-21T10:13:43Z</time>
      </trkpt>
      <trkpt lat="47.12058" lon="5.10075">
        <ele>208</ele>
        <time>2022-03-21T10:13:44Z</time>
      </trkpt>
      <trkpt lat="47.12054" lon="5.10081">
        <ele>208</ele>
        <time>2022-03-21T10:13:45Z</time>
      </trkpt>
      <trkpt lat="47.12049" lon="5.10087">
        <ele>208</ele>
        <time>2022-03-21T10:13:46Z</time>
      </trkpt>
      <trkpt lat="47.12045" lon="5.10093">
        <ele>208</ele>
        <time>2022-03-21T10:13:47Z</time>
      </trkpt>
      <trkpt lat="47.1204" lon="5.10098">
        <ele>208</ele>
        <time>2022-03-21T10:13:48Z</time>
      </trkpt>
      <trkpt lat="47.12035" lon="5.10104">
        <ele>208</ele>
        <time>2022-03-21T10:13:49Z</time>
      </trkpt>
      <trkpt lat="47.12031" lon="5.1011">
        <ele>208</ele>
        <time>2022-03-21T10:13:50Z</time>
      </trkpt>
      <trkpt lat="47.12026" lon="5.10116">
        <ele>208</ele>
        <time>2022-03-21T10:13:51Z</time>
      </trkpt>
      <trkpt lat="47.12022" lon="5.10121">
        <ele>208.2</ele>
        <time>2022-03-21T10:13:52Z</time>
      </trkpt>
      <trkpt lat="47.12017" lon="5.10127">
        <ele>208.2</ele>
        <time>2022-03-21T10:13:53Z</time>
      </trkpt>
      <trkpt lat="47.12012" lon="5.10132">
        <ele>208.2</ele>
        <time>2022-03-21T10:13:54Z</time>
      </trkpt>
      <trkpt lat="47.12008" lon="5.10138">
        <ele>208.4</ele>
        <time>2022-03-21T10:13:55Z</time>
      </trkpt>
      <trkpt lat="47.12004" lon="5.10144">
        <ele>208.4</ele>
        <time>2022-03-21T10:13:56Z</time>
      </trkpt>
      <trkpt lat="47.11999" lon="5.1015">
        <ele>208.4</ele>
        <time>2022-03-21T10:13:57Z</time>
      </trkpt>
      <trkpt lat="47.11995" lon="5.10155">
        <ele>208.6</ele>
        <time>2022-03-21T10:13:58Z</time>
      </trkpt>
      <trkpt lat="47.1199" lon="5.1016">
        <ele>208.6</ele>
        <time>2022-03-21T10:13:59Z</time>
      </trkpt>
      <trkpt lat="47.11986" lon="5.10165">
        <ele>208.6</ele>
        <time>2022-03-21T10:14:00Z</time>
      </trkpt>
      <trkpt lat="47.11981" lon="5.1017">
        <ele>208.6</ele>
        <time>2022-03-21T10:14:01Z</time>
      </trkpt>
      <trkpt lat="47.11977" lon="5.10176">
        <ele>208.6</ele>
        <time>2022-03-21T10:14:02Z</time>
      </trkpt>
      <trkpt lat="47.11972" lon="5.10181">
        <ele>209</ele>
        <time>2022-03-21T10:14:03Z</time>
      </trkpt>
      <trkpt lat="47.11968" lon="5.10187">
        <ele>209</ele>
        <time>2022-03-21T10:14:04Z</time>
      </trkpt>
      <trkpt lat="47.11963" lon="5.10192">
        <ele>209</ele>
        <time>2022-03-21T10:14:05Z</time>
      </trkpt>
      <trkpt lat="47.11959" lon="5.10198">
        <ele>209.2</ele>
        <time>2022-03-21T10:14:06Z</time>
      </trkpt>
      <trkpt lat="47.11954" lon="5.10203">
        <ele>209.2</ele>
        <time>2022-03-21T10:14:07Z</time>
      </trkpt>
      <trkpt lat="47.1195" lon="5.10209">
        <ele>209.2</ele>
        <time>2022-03-21T10:14:08Z</time>
      </trkpt>
      <trkpt lat="47.11945" lon="5.10214">
        <ele>209.2</ele>
        <time>2022-03-21T10:14:09Z</time>
      </trkpt>
      <trkpt lat="47.11941" lon="5.1022">
        <ele>209.2</ele>
        <time>2022-03-21T10:14:10Z</time>
      </trkpt>
      <trkpt lat="47.11936" lon="5.10226">
        <ele>209.2</ele>
        <time>2022-03-21T10:14:11Z</time>
      </trkpt>
      <trkpt lat="47.11932" lon="5.10231">
        <ele>209.2</ele>
        <time>2022-03-21T10:14:12Z</time>
      </trkpt>
      <trkpt lat="47.11927" lon="5.10237">
        <ele>209.2</ele>
        <time>2022-03-21T10:14:13Z</time>
      </trkpt>
      <trkpt lat="47.11923" lon="5.10243">
        <ele>209.2</ele>
        <time>2022-03-21T10:14:14Z</time>
      </trkpt>
      <trkpt lat="47.11918" lon="5.1025">
        <ele>209.2</ele>
        <time>2022-03-21T10:14:15Z</time>
      </trkpt>
      <trkpt lat="47.11914" lon="5.10255">
        <ele>209.2</ele>
        <time>2022-03-21T10:14:16Z</time>
      </trkpt>
      <trkpt lat="47.11909" lon="5.10261">
        <ele>209.2</ele>
        <time>2022-03-21T10:14:17Z</time>
      </trkpt>
      <trkpt lat="47.11904" lon="5.10267">
        <ele>209.2</ele>
        <time>2022-03-21T10:14:18Z</time>
      </trkpt>
      <trkpt lat="47.11899" lon="5.10272">
        <ele>209.2</ele>
        <time>2022-03-21T10:14:19Z</time>
      </trkpt>
      <trkpt lat="47.11895" lon="5.10278">
        <ele>209.2</ele>
        <time>2022-03-21T10:14:20Z</time>
      </trkpt>
      <trkpt lat="47.1189" lon="5.10284">
        <ele>209.4</ele>
        <time>2022-03-21T10:14:21Z</time>
      </trkpt>
      <trkpt lat="47.11886" lon="5.1029">
        <ele>209.4</ele>
        <time>2022-03-21T10:14:22Z</time>
      </trkpt>
      <trkpt lat="47.11882" lon="5.10296">
        <ele>209.4</ele>
        <time>2022-03-21T10:14:24Z</time>
      </trkpt>
      <trkpt lat="47.11877" lon="5.10302">
        <ele>209.4</ele>
        <time>2022-03-21T10:14:25Z</time>
      </trkpt>
      <trkpt lat="47.11873" lon="5.10307">
        <ele>209.6</ele>
        <time>2022-03-21T10:14:26Z</time>
      </trkpt>
      <trkpt lat="47.11868" lon="5.10313">
        <ele>209.6</ele>
        <time>2022-03-21T10:14:27Z</time>
      </trkpt>
      <trkpt lat="47.11864" lon="5.10319">
        <ele>209.6</ele>
        <time>2022-03-21T10:14:28Z</time>
      </trkpt>
      <trkpt lat="47.11859" lon="5.10325">
        <ele>210</ele>
        <time>2022-03-21T10:14:29Z</time>
      </trkpt>
      <trkpt lat="47.11855" lon="5.10331">
        <ele>210</ele>
        <time>2022-03-21T10:14:30Z</time>
      </trkpt>
      <trkpt lat="47.1185" lon="5.10336">
        <ele>210.2</ele>
        <time>2022-03-21T10:14:31Z</time>
      </trkpt>
      <trkpt lat="47.11846" lon="5.10342">
        <ele>210.6</ele>
        <time>2022-03-21T10:14:32Z</time>
      </trkpt>
      <trkpt lat="47.11842" lon="5.10348">
        <ele>210.6</ele>
        <time>2022-03-21T10:14:33Z</time>
      </trkpt>
      <trkpt lat="47.11837" lon="5.10353">
        <ele>210.6</ele>
        <time>2022-03-21T10:14:34Z</time>
      </trkpt>
      <trkpt lat="47.11833" lon="5.10359">
        <ele>210.8</ele>
        <time>2022-03-21T10:14:35Z</time>
      </trkpt>
      <trkpt lat="47.11828" lon="5.10365">
        <ele>210.8</ele>
        <time>2022-03-21T10:14:36Z</time>
      </trkpt>
      <trkpt lat="47.11824" lon="5.10371">
        <ele>210.8</ele>
        <time>2022-03-21T10:14:37Z</time>
      </trkpt>
      <trkpt lat="47.11819" lon="5.10377">
        <ele>211</ele>
        <time>2022-03-21T10:14:38Z</time>
      </trkpt>
      <trkpt lat="47.11814" lon="5.10382">
        <ele>211</ele>
        <time>2022-03-21T10:14:39Z</time>
      </trkpt>
      <trkpt lat="47.11809" lon="5.10387">
        <ele>211</ele>
        <time>2022-03-21T10:14:40Z</time>
      </trkpt>
      <trkpt lat="47.11804" lon="5.10393">
        <ele>211.2</ele>
        <time>2022-03-21T10:14:41Z</time>
      </trkpt>
      <trkpt lat="47.11799" lon="5.10399">
        <ele>211.2</ele>
        <time>2022-03-21T10:14:42Z</time>
      </trkpt>
      <trkpt lat="47.11794" lon="5.10405">
        <ele>211.2</ele>
        <time>2022-03-21T10:14:43Z</time>
      </trkpt>
      <trkpt lat="47.11789" lon="5.1041">
        <ele>211.6</ele>
        <time>2022-03-21T10:14:44Z</time>
      </trkpt>
      <trkpt lat="47.11785" lon="5.10415">
        <ele>211.6</ele>
        <time>2022-03-21T10:14:45Z</time>
      </trkpt>
      <trkpt lat="47.1178" lon="5.1042">
        <ele>212</ele>
        <time>2022-03-21T10:14:46Z</time>
      </trkpt>
      <trkpt lat="47.11775" lon="5.10425">
        <ele>212</ele>
        <time>2022-03-21T10:14:47Z</time>
      </trkpt>
      <trkpt lat="47.11771" lon="5.1043">
        <ele>212.2</ele>
        <time>2022-03-21T10:14:48Z</time>
      </trkpt>
      <trkpt lat="47.11766" lon="5.10435">
        <ele>212.2</ele>
        <time>2022-03-21T10:14:49Z</time>
      </trkpt>
      <trkpt lat="47.11762" lon="5.1044">
        <ele>212.6</ele>
        <time>2022-03-21T10:14:50Z</time>
      </trkpt>
      <trkpt lat="47.11757" lon="5.10446">
        <ele>212.8</ele>
        <time>2022-03-21T10:14:51Z</time>
      </trkpt>
      <trkpt lat="47.11753" lon="5.10451">
        <ele>212.8</ele>
        <time>2022-03-21T10:14:52Z</time>
      </trkpt>
      <trkpt lat="47.11748" lon="5.10456">
        <ele>213.2</ele>
        <time>2022-03-21T10:14:53Z</time>
      </trkpt>
      <trkpt lat="47.11744" lon="5.10461">
        <ele>213.2</ele>
        <time>2022-03-21T10:14:54Z</time>
      </trkpt>
      <trkpt lat="47.1174" lon="5.10466">
        <ele>213.4</ele>
        <time>2022-03-21T10:14:55Z</time>
      </trkpt>
      <trkpt lat="47.11735" lon="5.10472">
        <ele>213.4</ele>
        <time>2022-03-21T10:14:56Z</time>
      </trkpt>
      <trkpt lat="47.11731" lon="5.10477">
        <ele>213.4</ele>
        <time>2022-03-21T10:14:57Z</time>
      </trkpt>
      <trkpt lat="47.11727" lon="5.10482">
        <ele>213.8</ele>
        <time>2022-03-21T10:14:58Z</time>
      </trkpt>
      <trkpt lat="47.11723" lon="5.10487">
        <ele>213.8</ele>
        <time>2022-03-21T10:14:59Z</time>
      </trkpt>
      <trkpt lat="47.11719" lon="5.10492">
        <ele>214.2</ele>
        <time>2022-03-21T10:15:00Z</time>
      </trkpt>
      <trkpt lat="47.11715" lon="5.10497">
        <ele>214.4</ele>
        <time>2022-03-21T10:15:01Z</time>
      </trkpt>
      <trkpt lat="47.11711" lon="5.10502">
        <ele>214.4</ele>
        <time>2022-03-21T10:15:02Z</time>
      </trkpt>
      <trkpt lat="47.11707" lon="5.10506">
        <ele>214.8</ele>
        <time>2022-03-21T10:15:03Z</time>
      </trkpt>
      <trkpt lat="47.11703" lon="5.10511">
        <ele>214.8</ele>
        <time>2022-03-21T10:15:04Z</time>
      </trkpt>
      <trkpt lat="47.11699" lon="5.10515">
        <ele>215</ele>
        <time>2022-03-21T10:15:05Z</time>
      </trkpt>
      <trkpt lat="47.11695" lon="5.1052">
        <ele>215</ele>
        <time>2022-03-21T10:15:06Z</time>
      </trkpt>
      <trkpt lat="47.11691" lon="5.10524">
        <ele>215.4</ele>
        <time>2022-03-21T10:15:07Z</time>
      </trkpt>
      <trkpt lat="47.11688" lon="5.10529">
        <ele>215.6</ele>
        <time>2022-03-21T10:15:08Z</time>
      </trkpt>
      <trkpt lat="47.11684" lon="5.10533">
        <ele>215.6</ele>
        <time>2022-03-21T10:15:09Z</time>
      </trkpt>
      <trkpt lat="47.11681" lon="5.10536">
        <ele>215.6</ele>
        <time>2022-03-21T10:15:10Z</time>
      </trkpt>
      <trkpt lat="47.11677" lon="5.10541">
        <ele>216</ele>
        <time>2022-03-21T10:15:11Z</time>
      </trkpt>
      <trkpt lat="47.11674" lon="5.10545">
        <ele>216</ele>
        <time>2022-03-21T10:15:12Z</time>
      </trkpt>
      <trkpt lat="47.1167" lon="5.10549">
        <ele>216.2</ele>
        <time>2022-03-21T10:15:13Z</time>
      </trkpt>
      <trkpt lat="47.11666" lon="5.10553">
        <ele>216.2</ele>
        <time>2022-03-21T10:15:14Z</time>
      </trkpt>
      <trkpt lat="47.11663" lon="5.10557">
        <ele>216.6</ele>
        <time>2022-03-21T10:15:15Z</time>
      </trkpt>
      <trkpt lat="47.11659" lon="5.10561">
        <ele>216.6</ele>
        <time>2022-03-21T10:15:16Z</time>
      </trkpt>
      <trkpt lat="47.11656" lon="5.10566">
        <ele>217</ele>
        <time>2022-03-21T10:15:17Z</time>
      </trkpt>
      <trkpt lat="47.11653" lon="5.1057">
        <ele>217</ele>
        <time>2022-03-21T10:15:18Z</time>
      </trkpt>
      <trkpt lat="47.1165" lon="5.10574">
        <ele>217.4</ele>
        <time>2022-03-21T10:15:19Z</time>
      </trkpt>
      <trkpt lat="47.11646" lon="5.10578">
        <ele>217.6</ele>
        <time>2022-03-21T10:15:20Z</time>
      </trkpt>
      <trkpt lat="47.11643" lon="5.10582">
        <ele>217.8</ele>
        <time>2022-03-21T10:15:21Z</time>
      </trkpt>
      <trkpt lat="47.1164" lon="5.10586">
        <ele>218.2</ele>
        <time>2022-03-21T10:15:22Z</time>
      </trkpt>
      <trkpt lat="47.11637" lon="5.1059">
        <ele>218.4</ele>
        <time>2022-03-21T10:15:23Z</time>
      </trkpt>
      <trkpt lat="47.11634" lon="5.10593">
        <ele>218.8</ele>
        <time>2022-03-21T10:15:24Z</time>
      </trkpt>
      <trkpt lat="47.11631" lon="5.10597">
        <ele>218.8</ele>
        <time>2022-03-21T10:15:25Z</time>
      </trkpt>
      <trkpt lat="47.11628" lon="5.10601">
        <ele>219.2</ele>
        <time>2022-03-21T10:15:26Z</time>
      </trkpt>
      <trkpt lat="47.11624" lon="5.10605">
        <ele>219.4</ele>
        <time>2022-03-21T10:15:27Z</time>
      </trkpt>
      <trkpt lat="47.11621" lon="5.10609">
        <ele>219.8</ele>
        <time>2022-03-21T10:15:28Z</time>
      </trkpt>
      <trkpt lat="47.11617" lon="5.10613">
        <ele>220</ele>
        <time>2022-03-21T10:15:29Z</time>
      </trkpt>
      <trkpt lat="47.11614" lon="5.10616">
        <ele>220</ele>
        <time>2022-03-21T10:15:30Z</time>
      </trkpt>
      <trkpt lat="47.1161" lon="5.1062">
        <ele>220.4</ele>
        <time>2022-03-21T10:15:31Z</time>
      </trkpt>
      <trkpt lat="47.11607" lon="5.10625">
        <ele>220.8</ele>
        <time>2022-03-21T10:15:32Z</time>
      </trkpt>
      <trkpt lat="47.11604" lon="5.10629">
        <ele>220.8</ele>
        <time>2022-03-21T10:15:33Z</time>
      </trkpt>
      <trkpt lat="47.11601" lon="5.10634">
        <ele>221</ele>
        <time>2022-03-21T10:15:34Z</time>
      </trkpt>
      <trkpt lat="47.11597" lon="5.10638">
        <ele>221.2</ele>
        <time>2022-03-21T10:15:35Z</time>
      </trkpt>
      <trkpt lat="47.11594" lon="5.10642">
        <ele>221.6</ele>
        <time>2022-03-21T10:15:36Z</time>
      </trkpt>
      <trkpt lat="47.11591" lon="5.10646">
        <ele>221.8</ele>
        <time>2022-03-21T10:15:37Z</time>
      </trkpt>
      <trkpt lat="47.11588" lon="5.10651">
        <ele>222</ele>
        <time>2022-03-21T10:15:38Z</time>
      </trkpt>
      <trkpt lat="47.11584" lon="5.10655">
        <ele>222</ele>
        <time>2022-03-21T10:15:39Z</time>
      </trkpt>
      <trkpt lat="47.11581" lon="5.10659">
        <ele>222.4</ele>
        <time>2022-03-21T10:15:40Z</time>
      </trkpt>
      <trkpt lat="47.11577" lon="5.10663">
        <ele>222.4</ele>
        <time>2022-03-21T10:15:41Z</time>
      </trkpt>
      <trkpt lat="47.11574" lon="5.10668">
        <ele>222.6</ele>
        <time>2022-03-21T10:15:42Z</time>
      </trkpt>
      <trkpt lat="47.1157" lon="5.10672">
        <ele>222.6</ele>
        <time>2022-03-21T10:15:43Z</time>
      </trkpt>
      <trkpt lat="47.11567" lon="5.10677">
        <ele>223</ele>
        <time>2022-03-21T10:15:44Z</time>
      </trkpt>
      <trkpt lat="47.11563" lon="5.10681">
        <ele>223</ele>
        <time>2022-03-21T10:15:45Z</time>
      </trkpt>
      <trkpt lat="47.1156" lon="5.10685">
        <ele>223.4</ele>
        <time>2022-03-21T10:15:46Z</time>
      </trkpt>
      <trkpt lat="47.11556" lon="5.10689">
        <ele>223.6</ele>
        <time>2022-03-21T10:15:47Z</time>
      </trkpt>
      <trkpt lat="47.11553" lon="5.10694">
        <ele>223.6</ele>
        <time>2022-03-21T10:15:48Z</time>
      </trkpt>
      <trkpt lat="47.11549" lon="5.10698">
        <ele>224</ele>
        <time>2022-03-21T10:15:49Z</time>
      </trkpt>
      <trkpt lat="47.11546" lon="5.10703">
        <ele>224.4</ele>
        <time>2022-03-21T10:15:50Z</time>
      </trkpt>
      <trkpt lat="47.11543" lon="5.10707">
        <ele>224.6</ele>
        <time>2022-03-21T10:15:51Z</time>
      </trkpt>
      <trkpt lat="47.11539" lon="5.10711">
        <ele>224.8</ele>
        <time>2022-03-21T10:15:52Z</time>
      </trkpt>
      <trkpt lat="47.11535" lon="5.10715">
        <ele>224.8</ele>
        <time>2022-03-21T10:15:53Z</time>
      </trkpt>
      <trkpt lat="47.11531" lon="5.10719">
        <ele>225</ele>
        <time>2022-03-21T10:15:54Z</time>
      </trkpt>
      <trkpt lat="47.11528" lon="5.10723">
        <ele>225</ele>
        <time>2022-03-21T10:15:55Z</time>
      </trkpt>
      <trkpt lat="47.11524" lon="5.10728">
        <ele>225.4</ele>
        <time>2022-03-21T10:15:56Z</time>
      </trkpt>
      <trkpt lat="47.1152" lon="5.10733">
        <ele>225.4</ele>
        <time>2022-03-21T10:15:57Z</time>
      </trkpt>
      <trkpt lat="47.11517" lon="5.10738">
        <ele>225.6</ele>
        <time>2022-03-21T10:15:58Z</time>
      </trkpt>
      <trkpt lat="47.11513" lon="5.10743">
        <ele>225.6</ele>
        <time>2022-03-21T10:15:59Z</time>
      </trkpt>
      <trkpt lat="47.11508" lon="5.10747">
        <ele>226</ele>
        <time>2022-03-21T10:16:00Z</time>
      </trkpt>
      <trkpt lat="47.11504" lon="5.10752">
        <ele>226</ele>
        <time>2022-03-21T10:16:01Z</time>
      </trkpt>
      <trkpt lat="47.11501" lon="5.10757">
        <ele>226.4</ele>
        <time>2022-03-21T10:16:02Z</time>
      </trkpt>
      <trkpt lat="47.11497" lon="5.10762">
        <ele>226.4</ele>
        <time>2022-03-21T10:16:03Z</time>
      </trkpt>
      <trkpt lat="47.11493" lon="5.10766">
        <ele>226.6</ele>
        <time>2022-03-21T10:16:04Z</time>
      </trkpt>
      <trkpt lat="47.11489" lon="5.10771">
        <ele>226.6</ele>
        <time>2022-03-21T10:16:05Z</time>
      </trkpt>
      <trkpt lat="47.11482" lon="5.10779">
        <ele>226.6</ele>
        <time>2022-03-21T10:16:06Z</time>
      </trkpt>
      <trkpt lat="47.11478" lon="5.10783">
        <ele>227</ele>
        <time>2022-03-21T10:16:07Z</time>
      </trkpt>
      <trkpt lat="47.11474" lon="5.10787">
        <ele>227</ele>
        <time>2022-03-21T10:16:08Z</time>
      </trkpt>
      <trkpt lat="47.1147" lon="5.10791">
        <ele>227.4</ele>
        <time>2022-03-21T10:16:09Z</time>
      </trkpt>
      <trkpt lat="47.11463" lon="5.10799">
        <ele>227.8</ele>
        <time>2022-03-21T10:16:10Z</time>
      </trkpt>
      <trkpt lat="47.11458" lon="5.10803">
        <ele>228</ele>
        <time>2022-03-21T10:16:12Z</time>
      </trkpt>
      <trkpt lat="47.11455" lon="5.10808">
        <ele>228</ele>
        <time>2022-03-21T10:16:13Z</time>
      </trkpt>
      <trkpt lat="47.11451" lon="5.10812">
        <ele>228.4</ele>
        <time>2022-03-21T10:16:15Z</time>
      </trkpt>
      <trkpt lat="47.11447" lon="5.10816">
        <ele>228.6</ele>
        <time>2022-03-21T10:16:16Z</time>
      </trkpt>
      <trkpt lat="47.11442" lon="5.10823">
        <ele>228.6</ele>
        <time>2022-03-21T10:16:17Z</time>
      </trkpt>
      <trkpt lat="47.11441" lon="5.10825">
        <ele>229.2</ele>
        <time>2022-03-21T10:16:18Z</time>
      </trkpt>
      <trkpt lat="47.11437" lon="5.10829">
        <ele>229.2</ele>
        <time>2022-03-21T10:16:19Z</time>
      </trkpt>
      <trkpt lat="47.11434" lon="5.10833">
        <ele>229.4</ele>
        <time>2022-03-21T10:16:20Z</time>
      </trkpt>
      <trkpt lat="47.11431" lon="5.10837">
        <ele>229.4</ele>
        <time>2022-03-21T10:16:21Z</time>
      </trkpt>
      <trkpt lat="47.11428" lon="5.10841">
        <ele>229.6</ele>
        <time>2022-03-21T10:16:22Z</time>
      </trkpt>
      <trkpt lat="47.11425" lon="5.10845">
        <ele>229.6</ele>
        <time>2022-03-21T10:16:23Z</time>
      </trkpt>
      <trkpt lat="47.11422" lon="5.10849">
        <ele>229.6</ele>
        <time>2022-03-21T10:16:24Z</time>
      </trkpt>
      <trkpt lat="47.11418" lon="5.10853">
        <ele>229.6</ele>
        <time>2022-03-21T10:16:25Z</time>
      </trkpt>
      <trkpt lat="47.11415" lon="5.10857">
        <ele>229.8</ele>
        <time>2022-03-21T10:16:26Z</time>
      </trkpt>
      <trkpt lat="47.11411" lon="5.10861">
        <ele>229.8</ele>
        <time>2022-03-21T10:16:27Z</time>
      </trkpt>
      <trkpt lat="47.11408" lon="5.10865">
        <ele>229.8</ele>
        <time>2022-03-21T10:16:28Z</time>
      </trkpt>
      <trkpt lat="47.11404" lon="5.1087">
        <ele>230.2</ele>
        <time>2022-03-21T10:16:29Z</time>
      </trkpt>
      <trkpt lat="47.114" lon="5.10874">
        <ele>230.2</ele>
        <time>2022-03-21T10:16:30Z</time>
      </trkpt>
      <trkpt lat="47.11396" lon="5.10878">
        <ele>230.4</ele>
        <time>2022-03-21T10:16:31Z</time>
      </trkpt>
      <trkpt lat="47.11391" lon="5.10885">
        <ele>230.4</ele>
        <time>2022-03-21T10:16:32Z</time>
      </trkpt>
      <trkpt lat="47.11389" lon="5.10887">
        <ele>230.6</ele>
        <time>2022-03-21T10:16:33Z</time>
      </trkpt>
      <trkpt lat="47.11385" lon="5.10892">
        <ele>230.6</ele>
        <time>2022-03-21T10:16:34Z</time>
      </trkpt>
      <trkpt lat="47.11381" lon="5.10896">
        <ele>230.6</ele>
        <time>2022-03-21T10:16:35Z</time>
      </trkpt>
      <trkpt lat="47.11377" lon="5.10901">
        <ele>231</ele>
        <time>2022-03-21T10:16:36Z</time>
      </trkpt>
      <trkpt lat="47.11373" lon="5.10906">
        <ele>231</ele>
        <time>2022-03-21T10:16:37Z</time>
      </trkpt>
      <trkpt lat="47.11369" lon="5.10911">
        <ele>231.2</ele>
        <time>2022-03-21T10:16:38Z</time>
      </trkpt>
      <trkpt lat="47.11365" lon="5.10916">
        <ele>231.2</ele>
        <time>2022-03-21T10:16:39Z</time>
      </trkpt>
      <trkpt lat="47.11361" lon="5.10921">
        <ele>231.2</ele>
        <time>2022-03-21T10:16:40Z</time>
      </trkpt>
      <trkpt lat="47.11357" lon="5.10926">
        <ele>231.2</ele>
        <time>2022-03-21T10:16:41Z</time>
      </trkpt>
      <trkpt lat="47.11351" lon="5.10933">
        <ele>231.2</ele>
        <time>2022-03-21T10:16:42Z</time>
      </trkpt>
      <trkpt lat="47.11349" lon="5.10936">
        <ele>231.2</ele>
        <time>2022-03-21T10:16:43Z</time>
      </trkpt>
      <trkpt lat="47.11345" lon="5.10941">
        <ele>231.2</ele>
        <time>2022-03-21T10:16:44Z</time>
      </trkpt>
      <trkpt lat="47.1134" lon="5.10946">
        <ele>231.2</ele>
        <time>2022-03-21T10:16:45Z</time>
      </trkpt>
      <trkpt lat="47.11336" lon="5.10951">
        <ele>231.2</ele>
        <time>2022-03-21T10:16:46Z</time>
      </trkpt>
      <trkpt lat="47.11332" lon="5.10956">
        <ele>231.2</ele>
        <time>2022-03-21T10:16:47Z</time>
      </trkpt>
      <trkpt lat="47.11327" lon="5.10962">
        <ele>231.2</ele>
        <time>2022-03-21T10:16:48Z</time>
      </trkpt>
      <trkpt lat="47.11322" lon="5.10967">
        <ele>231</ele>
        <time>2022-03-21T10:16:49Z</time>
      </trkpt>
      <trkpt lat="47.11318" lon="5.10972">
        <ele>231</ele>
        <time>2022-03-21T10:16:50Z</time>
      </trkpt>
      <trkpt lat="47.11313" lon="5.10978">
        <ele>231</ele>
        <time>2022-03-21T10:16:51Z</time>
      </trkpt>
      <trkpt lat="47.11309" lon="5.10984">
        <ele>231</ele>
        <time>2022-03-21T10:16:52Z</time>
      </trkpt>
      <trkpt lat="47.11304" lon="5.1099">
        <ele>231</ele>
        <time>2022-03-21T10:16:53Z</time>
      </trkpt>
      <trkpt lat="47.11299" lon="5.10995">
        <ele>231</ele>
        <time>2022-03-21T10:16:54Z</time>
      </trkpt>
      <trkpt lat="47.11294" lon="5.11">
        <ele>231</ele>
        <time>2022-03-21T10:16:55Z</time>
      </trkpt>
      <trkpt lat="47.1129" lon="5.11006">
        <ele>231</ele>
        <time>2022-03-21T10:16:56Z</time>
      </trkpt>
      <trkpt lat="47.11285" lon="5.11012">
        <ele>231</ele>
        <time>2022-03-21T10:16:57Z</time>
      </trkpt>
      <trkpt lat="47.1128" lon="5.11018">
        <ele>231</ele>
        <time>2022-03-21T10:16:58Z</time>
      </trkpt>
      <trkpt lat="47.11275" lon="5.11023">
        <ele>231</ele>
        <time>2022-03-21T10:16:59Z</time>
      </trkpt>
      <trkpt lat="47.1127" lon="5.11029">
        <ele>231</ele>
        <time>2022-03-21T10:17:00Z</time>
      </trkpt>
      <trkpt lat="47.11265" lon="5.11035">
        <ele>231</ele>
        <time>2022-03-21T10:17:01Z</time>
      </trkpt>
      <trkpt lat="47.1126" lon="5.11041">
        <ele>231</ele>
        <time>2022-03-21T10:17:02Z</time>
      </trkpt>
      <trkpt lat="47.11255" lon="5.11047">
        <ele>230.8</ele>
        <time>2022-03-21T10:17:03Z</time>
      </trkpt>
      <trkpt lat="47.1125" lon="5.11053">
        <ele>230.8</ele>
        <time>2022-03-21T10:17:04Z</time>
      </trkpt>
      <trkpt lat="47.11245" lon="5.11059">
        <ele>230.8</ele>
        <time>2022-03-21T10:17:05Z</time>
      </trkpt>
      <trkpt lat="47.1124" lon="5.11065">
        <ele>230.8</ele>
        <time>2022-03-21T10:17:06Z</time>
      </trkpt>
      <trkpt lat="47.11236" lon="5.11072">
        <ele>230.8</ele>
        <time>2022-03-21T10:17:07Z</time>
      </trkpt>
      <trkpt lat="47.11231" lon="5.11078">
        <ele>230.8</ele>
        <time>2022-03-21T10:17:08Z</time>
      </trkpt>
      <trkpt lat="47.11226" lon="5.11084">
        <ele>230.8</ele>
        <time>2022-03-21T10:17:09Z</time>
      </trkpt>
      <trkpt lat="47.11221" lon="5.1109">
        <ele>230.8</ele>
        <time>2022-03-21T10:17:10Z</time>
      </trkpt>
      <trkpt lat="47.11217" lon="5.11096">
        <ele>230.8</ele>
        <time>2022-03-21T10:17:11Z</time>
      </trkpt>
      <trkpt lat="47.11212" lon="5.11102">
        <ele>230.8</ele>
        <time>2022-03-21T10:17:12Z</time>
      </trkpt>
      <trkpt lat="47.11208" lon="5.11108">
        <ele>230.8</ele>
        <time>2022-03-21T10:17:13Z</time>
      </trkpt>
      <trkpt lat="47.11203" lon="5.11114">
        <ele>231</ele>
        <time>2022-03-21T10:17:14Z</time>
      </trkpt>
      <trkpt lat="47.11199" lon="5.1112">
        <ele>231</ele>
        <time>2022-03-21T10:17:15Z</time>
      </trkpt>
      <trkpt lat="47.11194" lon="5.11126">
        <ele>231</ele>
        <time>2022-03-21T10:17:16Z</time>
      </trkpt>
      <trkpt lat="47.11189" lon="5.11132">
        <ele>231.2</ele>
        <time>2022-03-21T10:17:17Z</time>
      </trkpt>
      <trkpt lat="47.11184" lon="5.11137">
        <ele>231.2</ele>
        <time>2022-03-21T10:17:18Z</time>
      </trkpt>
      <trkpt lat="47.11179" lon="5.11143">
        <ele>231.2</ele>
        <time>2022-03-21T10:17:19Z</time>
      </trkpt>
      <trkpt lat="47.11175" lon="5.11149">
        <ele>231.4</ele>
        <time>2022-03-21T10:17:20Z</time>
      </trkpt>
      <trkpt lat="47.1117" lon="5.11155">
        <ele>231.4</ele>
        <time>2022-03-21T10:17:21Z</time>
      </trkpt>
      <trkpt lat="47.11164" lon="5.11162">
        <ele>231.4</ele>
        <time>2022-03-21T10:17:22Z</time>
      </trkpt>
      <trkpt lat="47.11159" lon="5.11168">
        <ele>231.4</ele>
        <time>2022-03-21T10:17:23Z</time>
      </trkpt>
      <trkpt lat="47.11154" lon="5.11174">
        <ele>231.8</ele>
        <time>2022-03-21T10:17:24Z</time>
      </trkpt>
      <trkpt lat="47.1115" lon="5.1118">
        <ele>231.8</ele>
        <time>2022-03-21T10:17:25Z</time>
      </trkpt>
      <trkpt lat="47.11144" lon="5.11186">
        <ele>231.8</ele>
        <time>2022-03-21T10:17:26Z</time>
      </trkpt>
      <trkpt lat="47.11139" lon="5.11192">
        <ele>231.8</ele>
        <time>2022-03-21T10:17:27Z</time>
      </trkpt>
      <trkpt lat="47.11134" lon="5.11199">
        <ele>231.8</ele>
        <time>2022-03-21T10:17:28Z</time>
      </trkpt>
      <trkpt lat="47.11128" lon="5.11205">
        <ele>231.8</ele>
        <time>2022-03-21T10:17:29Z</time>
      </trkpt>
      <trkpt lat="47.11123" lon="5.11212">
        <ele>231.8</ele>
        <time>2022-03-21T10:17:30Z</time>
      </trkpt>
      <trkpt lat="47.11118" lon="5.11219">
        <ele>231.8</ele>
        <time>2022-03-21T10:17:31Z</time>
      </trkpt>
      <trkpt lat="47.11113" lon="5.11226">
        <ele>231.8</ele>
        <time>2022-03-21T10:17:32Z</time>
      </trkpt>
      <trkpt lat="47.11107" lon="5.11232">
        <ele>231.8</ele>
        <time>2022-03-21T10:17:33Z</time>
      </trkpt>
      <trkpt lat="47.11101" lon="5.11239">
        <ele>231.8</ele>
        <time>2022-03-21T10:17:34Z</time>
      </trkpt>
      <trkpt lat="47.11096" lon="5.11246">
        <ele>231.8</ele>
        <time>2022-03-21T10:17:35Z</time>
      </trkpt>
      <trkpt lat="47.1109" lon="5.11252">
        <ele>231.6</ele>
        <time>2022-03-21T10:17:36Z</time>
      </trkpt>
      <trkpt lat="47.11085" lon="5.11259">
        <ele>231.6</ele>
        <time>2022-03-21T10:17:37Z</time>
      </trkpt>
      <trkpt lat="47.11079" lon="5.11266">
        <ele>231.6</ele>
        <time>2022-03-21T10:17:38Z</time>
      </trkpt>
      <trkpt lat="47.11074" lon="5.11273">
        <ele>231.6</ele>
        <time>2022-03-21T10:17:39Z</time>
      </trkpt>
      <trkpt lat="47.11068" lon="5.11279">
        <ele>231.6</ele>
        <time>2022-03-21T10:17:40Z</time>
      </trkpt>
      <trkpt lat="47.11063" lon="5.11287">
        <ele>231.6</ele>
        <time>2022-03-21T10:17:41Z</time>
      </trkpt>
      <trkpt lat="47.11057" lon="5.11294">
        <ele>231.6</ele>
        <time>2022-03-21T10:17:42Z</time>
      </trkpt>
      <trkpt lat="47.11051" lon="5.11301">
        <ele>231.6</ele>
        <time>2022-03-21T10:17:43Z</time>
      </trkpt>
      <trkpt lat="47.11046" lon="5.11308">
        <ele>231.6</ele>
        <time>2022-03-21T10:17:44Z</time>
      </trkpt>
      <trkpt lat="47.1104" lon="5.11315">
        <ele>231.6</ele>
        <time>2022-03-21T10:17:45Z</time>
      </trkpt>
      <trkpt lat="47.11035" lon="5.11321">
        <ele>231.4</ele>
        <time>2022-03-21T10:17:46Z</time>
      </trkpt>
      <trkpt lat="47.11029" lon="5.11328">
        <ele>231.4</ele>
        <time>2022-03-21T10:17:47Z</time>
      </trkpt>
      <trkpt lat="47.11024" lon="5.11335">
        <ele>231.4</ele>
        <time>2022-03-21T10:17:48Z</time>
      </trkpt>
      <trkpt lat="47.11018" lon="5.11342">
        <ele>231.4</ele>
        <time>2022-03-21T10:17:49Z</time>
      </trkpt>
      <trkpt lat="47.11012" lon="5.11348">
        <ele>231.4</ele>
        <time>2022-03-21T10:17:50Z</time>
      </trkpt>
      <trkpt lat="47.11007" lon="5.11355">
        <ele>231.4</ele>
        <time>2022-03-21T10:17:51Z</time>
      </trkpt>
      <trkpt lat="47.11001" lon="5.11362">
        <ele>231.4</ele>
        <time>2022-03-21T10:17:52Z</time>
      </trkpt>
      <trkpt lat="47.10995" lon="5.11369">
        <ele>231.4</ele>
        <time>2022-03-21T10:17:53Z</time>
      </trkpt>
      <trkpt lat="47.10989" lon="5.11376">
        <ele>231.4</ele>
        <time>2022-03-21T10:17:54Z</time>
      </trkpt>
      <trkpt lat="47.10983" lon="5.11383">
        <ele>231.4</ele>
        <time>2022-03-21T10:17:55Z</time>
      </trkpt>
      <trkpt lat="47.10977" lon="5.1139">
        <ele>231.4</ele>
        <time>2022-03-21T10:17:56Z</time>
      </trkpt>
      <trkpt lat="47.10972" lon="5.11397">
        <ele>231.4</ele>
        <time>2022-03-21T10:17:57Z</time>
      </trkpt>
      <trkpt lat="47.10966" lon="5.11404">
        <ele>231.4</ele>
        <time>2022-03-21T10:17:58Z</time>
      </trkpt>
      <trkpt lat="47.1096" lon="5.11411">
        <ele>231.4</ele>
        <time>2022-03-21T10:17:59Z</time>
      </trkpt>
      <trkpt lat="47.10954" lon="5.11418">
        <ele>231</ele>
        <time>2022-03-21T10:18:00Z</time>
      </trkpt>
      <trkpt lat="47.10948" lon="5.11425">
        <ele>231</ele>
        <time>2022-03-21T10:18:01Z</time>
      </trkpt>
      <trkpt lat="47.10942" lon="5.11432">
        <ele>230.8</ele>
        <time>2022-03-21T10:18:02Z</time>
      </trkpt>
      <trkpt lat="47.10936" lon="5.1144">
        <ele>230.8</ele>
        <time>2022-03-21T10:18:03Z</time>
      </trkpt>
      <trkpt lat="47.10929" lon="5.11447">
        <ele>230.8</ele>
        <time>2022-03-21T10:18:04Z</time>
      </trkpt>
      <trkpt lat="47.10923" lon="5.11454">
        <ele>230.6</ele>
        <time>2022-03-21T10:18:05Z</time>
      </trkpt>
      <trkpt lat="47.10917" lon="5.11461">
        <ele>230.6</ele>
        <time>2022-03-21T10:18:06Z</time>
      </trkpt>
      <trkpt lat="47.10911" lon="5.11469">
        <ele>230.6</ele>
        <time>2022-03-21T10:18:07Z</time>
      </trkpt>
      <trkpt lat="47.10905" lon="5.11476">
        <ele>230.6</ele>
        <time>2022-03-21T10:18:08Z</time>
      </trkpt>
      <trkpt lat="47.10899" lon="5.11484">
        <ele>230.4</ele>
        <time>2022-03-21T10:18:09Z</time>
      </trkpt>
      <trkpt lat="47.10893" lon="5.11491">
        <ele>230.4</ele>
        <time>2022-03-21T10:18:10Z</time>
      </trkpt>
      <trkpt lat="47.10887" lon="5.11498">
        <ele>230</ele>
        <time>2022-03-21T10:18:11Z</time>
      </trkpt>
      <trkpt lat="47.10881" lon="5.11506">
        <ele>229.8</ele>
        <time>2022-03-21T10:18:12Z</time>
      </trkpt>
      <trkpt lat="47.10875" lon="5.11513">
        <ele>229.4</ele>
        <time>2022-03-21T10:18:13Z</time>
      </trkpt>
      <trkpt lat="47.10869" lon="5.11521">
        <ele>229.2</ele>
        <time>2022-03-21T10:18:14Z</time>
      </trkpt>
      <trkpt lat="47.10863" lon="5.11529">
        <ele>229</ele>
        <time>2022-03-21T10:18:15Z</time>
      </trkpt>
      <trkpt lat="47.10856" lon="5.11537">
        <ele>228.8</ele>
        <time>2022-03-21T10:18:16Z</time>
      </trkpt>
      <trkpt lat="47.1085" lon="5.11544">
        <ele>228.6</ele>
        <time>2022-03-21T10:18:17Z</time>
      </trkpt>
      <trkpt lat="47.10843" lon="5.11552">
        <ele>228.6</ele>
        <time>2022-03-21T10:18:18Z</time>
      </trkpt>
      <trkpt lat="47.10837" lon="5.1156">
        <ele>228.2</ele>
        <time>2022-03-21T10:18:19Z</time>
      </trkpt>
      <trkpt lat="47.10831" lon="5.11568">
        <ele>228</ele>
        <time>2022-03-21T10:18:20Z</time>
      </trkpt>
      <trkpt lat="47.10824" lon="5.11575">
        <ele>228</ele>
        <time>2022-03-21T10:18:21Z</time>
      </trkpt>
      <trkpt lat="47.10818" lon="5.11583">
        <ele>227.4</ele>
        <time>2022-03-21T10:18:22Z</time>
      </trkpt>
      <trkpt lat="47.10812" lon="5.1159">
        <ele>227.2</ele>
        <time>2022-03-21T10:18:23Z</time>
      </trkpt>
      <trkpt lat="47.10805" lon="5.11598">
        <ele>226.8</ele>
        <time>2022-03-21T10:18:24Z</time>
      </trkpt>
      <trkpt lat="47.10799" lon="5.11605">
        <ele>226.6</ele>
        <time>2022-03-21T10:18:25Z</time>
      </trkpt>
      <trkpt lat="47.10793" lon="5.11613">
        <ele>226.4</ele>
        <time>2022-03-21T10:18:26Z</time>
      </trkpt>
      <trkpt lat="47.10786" lon="5.1162">
        <ele>226.2</ele>
        <time>2022-03-21T10:18:27Z</time>
      </trkpt>
      <trkpt lat="47.1078" lon="5.11627">
        <ele>226.2</ele>
        <time>2022-03-21T10:18:28Z</time>
      </trkpt>
      <trkpt lat="47.10774" lon="5.11634">
        <ele>225.8</ele>
        <time>2022-03-21T10:18:29Z</time>
      </trkpt>
      <trkpt lat="47.10768" lon="5.11642">
        <ele>225.8</ele>
        <time>2022-03-21T10:18:30Z</time>
      </trkpt>
      <trkpt lat="47.10762" lon="5.11649">
        <ele>225.4</ele>
        <time>2022-03-21T10:18:31Z</time>
      </trkpt>
      <trkpt lat="47.10753" lon="5.11661">
        <ele>225.4</ele>
        <time>2022-03-21T10:18:32Z</time>
      </trkpt>
      <trkpt lat="47.1075" lon="5.11664">
        <ele>225.4</ele>
        <time>2022-03-21T10:18:33Z</time>
      </trkpt>
      <trkpt lat="47.10744" lon="5.11671">
        <ele>225.2</ele>
        <time>2022-03-21T10:18:34Z</time>
      </trkpt>
      <trkpt lat="47.10738" lon="5.11678">
        <ele>225.2</ele>
        <time>2022-03-21T10:18:35Z</time>
      </trkpt>
      <trkpt lat="47.10733" lon="5.11685">
        <ele>224.8</ele>
        <time>2022-03-21T10:18:36Z</time>
      </trkpt>
      <trkpt lat="47.10727" lon="5.11692">
        <ele>224.8</ele>
        <time>2022-03-21T10:18:37Z</time>
      </trkpt>
      <trkpt lat="47.10721" lon="5.11699">
        <ele>224.8</ele>
        <time>2022-03-21T10:18:38Z</time>
      </trkpt>
      <trkpt lat="47.10716" lon="5.11706">
        <ele>224.8</ele>
        <time>2022-03-21T10:18:39Z</time>
      </trkpt>
      <trkpt lat="47.1071" lon="5.11713">
        <ele>224.8</ele>
        <time>2022-03-21T10:18:40Z</time>
      </trkpt>
      <trkpt lat="47.10704" lon="5.11721">
        <ele>224.8</ele>
        <time>2022-03-21T10:18:41Z</time>
      </trkpt>
      <trkpt lat="47.10698" lon="5.11728">
        <ele>224.8</ele>
        <time>2022-03-21T10:18:42Z</time>
      </trkpt>
      <trkpt lat="47.10693" lon="5.11736">
        <ele>224.8</ele>
        <time>2022-03-21T10:18:43Z</time>
      </trkpt>
      <trkpt lat="47.10687" lon="5.11743">
        <ele>224.6</ele>
        <time>2022-03-21T10:18:44Z</time>
      </trkpt>
      <trkpt lat="47.10681" lon="5.1175">
        <ele>224.4</ele>
        <time>2022-03-21T10:18:45Z</time>
      </trkpt>
      <trkpt lat="47.10675" lon="5.11758">
        <ele>224.4</ele>
        <time>2022-03-21T10:18:46Z</time>
      </trkpt>
      <trkpt lat="47.10669" lon="5.11765">
        <ele>224</ele>
        <time>2022-03-21T10:18:47Z</time>
      </trkpt>
      <trkpt lat="47.10663" lon="5.11773">
        <ele>224</ele>
        <time>2022-03-21T10:18:48Z</time>
      </trkpt>
      <trkpt lat="47.10657" lon="5.11781">
        <ele>223.6</ele>
        <time>2022-03-21T10:18:49Z</time>
      </trkpt>
      <trkpt lat="47.1065" lon="5.11789">
        <ele>223.6</ele>
        <time>2022-03-21T10:18:50Z</time>
      </trkpt>
      <trkpt lat="47.10644" lon="5.11797">
        <ele>223.4</ele>
        <time>2022-03-21T10:18:51Z</time>
      </trkpt>
      <trkpt lat="47.10637" lon="5.11804">
        <ele>223.4</ele>
        <time>2022-03-21T10:18:52Z</time>
      </trkpt>
      <trkpt lat="47.10631" lon="5.11811">
        <ele>223</ele>
        <time>2022-03-21T10:18:53Z</time>
      </trkpt>
      <trkpt lat="47.10625" lon="5.11819">
        <ele>223</ele>
        <time>2022-03-21T10:18:54Z</time>
      </trkpt>
      <trkpt lat="47.10618" lon="5.11826">
        <ele>222.6</ele>
        <time>2022-03-21T10:18:55Z</time>
      </trkpt>
      <trkpt lat="47.10612" lon="5.11833">
        <ele>222.6</ele>
        <time>2022-03-21T10:18:56Z</time>
      </trkpt>
      <trkpt lat="47.10606" lon="5.1184">
        <ele>222.4</ele>
        <time>2022-03-21T10:18:57Z</time>
      </trkpt>
      <trkpt lat="47.106" lon="5.11848">
        <ele>222.4</ele>
        <time>2022-03-21T10:18:58Z</time>
      </trkpt>
      <trkpt lat="47.10595" lon="5.11855">
        <ele>222.2</ele>
        <time>2022-03-21T10:18:59Z</time>
      </trkpt>
      <trkpt lat="47.10589" lon="5.11862">
        <ele>222.2</ele>
        <time>2022-03-21T10:19:00Z</time>
      </trkpt>
      <trkpt lat="47.10583" lon="5.11869">
        <ele>222</ele>
        <time>2022-03-21T10:19:01Z</time>
      </trkpt>
      <trkpt lat="47.10578" lon="5.11876">
        <ele>222</ele>
        <time>2022-03-21T10:19:02Z</time>
      </trkpt>
      <trkpt lat="47.10572" lon="5.11883">
        <ele>222</ele>
        <time>2022-03-21T10:19:03Z</time>
      </trkpt>
      <trkpt lat="47.10566" lon="5.1189">
        <ele>222</ele>
        <time>2022-03-21T10:19:04Z</time>
      </trkpt>
      <trkpt lat="47.1056" lon="5.11896">
        <ele>222</ele>
        <time>2022-03-21T10:19:05Z</time>
      </trkpt>
      <trkpt lat="47.10555" lon="5.11903">
        <ele>222</ele>
        <time>2022-03-21T10:19:06Z</time>
      </trkpt>
      <trkpt lat="47.1055" lon="5.11909">
        <ele>221.8</ele>
        <time>2022-03-21T10:19:07Z</time>
      </trkpt>
      <trkpt lat="47.10544" lon="5.11916">
        <ele>221.8</ele>
        <time>2022-03-21T10:19:08Z</time>
      </trkpt>
      <trkpt lat="47.10539" lon="5.11922">
        <ele>221.8</ele>
        <time>2022-03-21T10:19:09Z</time>
      </trkpt>
      <trkpt lat="47.10534" lon="5.11928">
        <ele>221.8</ele>
        <time>2022-03-21T10:19:10Z</time>
      </trkpt>
      <trkpt lat="47.10529" lon="5.11935">
        <ele>221.8</ele>
        <time>2022-03-21T10:19:11Z</time>
      </trkpt>
      <trkpt lat="47.10525" lon="5.11941">
        <ele>221.8</ele>
        <time>2022-03-21T10:19:12Z</time>
      </trkpt>
      <trkpt lat="47.1052" lon="5.11947">
        <ele>222</ele>
        <time>2022-03-21T10:19:13Z</time>
      </trkpt>
      <trkpt lat="47.10516" lon="5.11953">
        <ele>222</ele>
        <time>2022-03-21T10:19:14Z</time>
      </trkpt>
      <trkpt lat="47.10511" lon="5.11958">
        <ele>222</ele>
        <time>2022-03-21T10:19:15Z</time>
      </trkpt>
      <trkpt lat="47.10507" lon="5.11964">
        <ele>222</ele>
        <time>2022-03-21T10:19:16Z</time>
      </trkpt>
      <trkpt lat="47.10502" lon="5.1197">
        <ele>222</ele>
        <time>2022-03-21T10:19:17Z</time>
      </trkpt>
      <trkpt lat="47.10498" lon="5.11976">
        <ele>222.2</ele>
        <time>2022-03-21T10:19:18Z</time>
      </trkpt>
      <trkpt lat="47.10493" lon="5.11982">
        <ele>222.2</ele>
        <time>2022-03-21T10:19:19Z</time>
      </trkpt>
      <trkpt lat="47.10488" lon="5.11988">
        <ele>222.6</ele>
        <time>2022-03-21T10:19:20Z</time>
      </trkpt>
      <trkpt lat="47.10484" lon="5.11993">
        <ele>222.8</ele>
        <time>2022-03-21T10:19:21Z</time>
      </trkpt>
      <trkpt lat="47.10479" lon="5.11998">
        <ele>223</ele>
        <time>2022-03-21T10:19:22Z</time>
      </trkpt>
      <trkpt lat="47.10476" lon="5.12004">
        <ele>223.4</ele>
        <time>2022-03-21T10:19:23Z</time>
      </trkpt>
      <trkpt lat="47.10472" lon="5.12009">
        <ele>223.6</ele>
        <time>2022-03-21T10:19:24Z</time>
      </trkpt>
      <trkpt lat="47.10468" lon="5.12014">
        <ele>223.8</ele>
        <time>2022-03-21T10:19:25Z</time>
      </trkpt>
      <trkpt lat="47.10463" lon="5.12018">
        <ele>224</ele>
        <time>2022-03-21T10:19:26Z</time>
      </trkpt>
      <trkpt lat="47.10459" lon="5.12023">
        <ele>224.2</ele>
        <time>2022-03-21T10:19:27Z</time>
      </trkpt>
      <trkpt lat="47.10456" lon="5.12028">
        <ele>224.6</ele>
        <time>2022-03-21T10:19:28Z</time>
      </trkpt>
      <trkpt lat="47.10452" lon="5.12033">
        <ele>224.8</ele>
        <time>2022-03-21T10:19:29Z</time>
      </trkpt>
      <trkpt lat="47.10448" lon="5.12038">
        <ele>225</ele>
        <time>2022-03-21T10:19:30Z</time>
      </trkpt>
      <trkpt lat="47.10444" lon="5.12043">
        <ele>225.2</ele>
        <time>2022-03-21T10:19:31Z</time>
      </trkpt>
      <trkpt lat="47.1044" lon="5.12047">
        <ele>225.2</ele>
        <time>2022-03-21T10:19:32Z</time>
      </trkpt>
      <trkpt lat="47.10436" lon="5.12051">
        <ele>225.6</ele>
        <time>2022-03-21T10:19:33Z</time>
      </trkpt>
      <trkpt lat="47.10431" lon="5.12056">
        <ele>225.6</ele>
        <time>2022-03-21T10:19:34Z</time>
      </trkpt>
      <trkpt lat="47.10427" lon="5.12061">
        <ele>225.8</ele>
        <time>2022-03-21T10:19:35Z</time>
      </trkpt>
      <trkpt lat="47.10422" lon="5.12066">
        <ele>225.8</ele>
        <time>2022-03-21T10:19:36Z</time>
      </trkpt>
      <trkpt lat="47.10418" lon="5.12071">
        <ele>225.8</ele>
        <time>2022-03-21T10:19:37Z</time>
      </trkpt>
      <trkpt lat="47.10413" lon="5.12076">
        <ele>225.8</ele>
        <time>2022-03-21T10:19:38Z</time>
      </trkpt>
      <trkpt lat="47.10409" lon="5.12081">
        <ele>226.2</ele>
        <time>2022-03-21T10:19:39Z</time>
      </trkpt>
      <trkpt lat="47.10405" lon="5.12086">
        <ele>226.2</ele>
        <time>2022-03-21T10:19:40Z</time>
      </trkpt>
      <trkpt lat="47.104" lon="5.12091">
        <ele>226.2</ele>
        <time>2022-03-21T10:19:41Z</time>
      </trkpt>
      <trkpt lat="47.10396" lon="5.12095">
        <ele>226.4</ele>
        <time>2022-03-21T10:19:42Z</time>
      </trkpt>
      <trkpt lat="47.10391" lon="5.121">
        <ele>226.4</ele>
        <time>2022-03-21T10:19:43Z</time>
      </trkpt>
      <trkpt lat="47.10387" lon="5.12105">
        <ele>226.4</ele>
        <time>2022-03-21T10:19:44Z</time>
      </trkpt>
      <trkpt lat="47.10382" lon="5.1211">
        <ele>226.6</ele>
        <time>2022-03-21T10:19:45Z</time>
      </trkpt>
      <trkpt lat="47.10377" lon="5.12114">
        <ele>226.6</ele>
        <time>2022-03-21T10:19:46Z</time>
      </trkpt>
      <trkpt lat="47.10373" lon="5.12119">
        <ele>226.6</ele>
        <time>2022-03-21T10:19:47Z</time>
      </trkpt>
      <trkpt lat="47.10368" lon="5.12123">
        <ele>226.8</ele>
        <time>2022-03-21T10:19:48Z</time>
      </trkpt>
      <trkpt lat="47.10364" lon="5.12127">
        <ele>226.8</ele>
        <time>2022-03-21T10:19:49Z</time>
      </trkpt>
      <trkpt lat="47.10359" lon="5.12132">
        <ele>227.2</ele>
        <time>2022-03-21T10:19:50Z</time>
      </trkpt>
      <trkpt lat="47.10354" lon="5.12136">
        <ele>227.2</ele>
        <time>2022-03-21T10:19:51Z</time>
      </trkpt>
      <trkpt lat="47.10349" lon="5.12141">
        <ele>227.4</ele>
        <time>2022-03-21T10:19:52Z</time>
      </trkpt>
      <trkpt lat="47.10344" lon="5.12145">
        <ele>227.4</ele>
        <time>2022-03-21T10:19:53Z</time>
      </trkpt>
      <trkpt lat="47.10339" lon="5.1215">
        <ele>227.6</ele>
        <time>2022-03-21T10:19:54Z</time>
      </trkpt>
      <trkpt lat="47.10334" lon="5.12154">
        <ele>227.6</ele>
        <time>2022-03-21T10:19:55Z</time>
      </trkpt>
      <trkpt lat="47.10329" lon="5.12158">
        <ele>227.6</ele>
        <time>2022-03-21T10:19:56Z</time>
      </trkpt>
      <trkpt lat="47.10324" lon="5.12162">
        <ele>227.6</ele>
        <time>2022-03-21T10:19:57Z</time>
      </trkpt>
      <trkpt lat="47.10319" lon="5.12166">
        <ele>227.6</ele>
        <time>2022-03-21T10:19:58Z</time>
      </trkpt>
      <trkpt lat="47.10314" lon="5.12171">
        <ele>227.6</ele>
        <time>2022-03-21T10:19:59Z</time>
      </trkpt>
      <trkpt lat="47.10309" lon="5.12175">
        <ele>227.6</ele>
        <time>2022-03-21T10:20:00Z</time>
      </trkpt>
      <trkpt lat="47.10303" lon="5.1218">
        <ele>227.6</ele>
        <time>2022-03-21T10:20:01Z</time>
      </trkpt>
      <trkpt lat="47.10298" lon="5.12185">
        <ele>227.6</ele>
        <time>2022-03-21T10:20:02Z</time>
      </trkpt>
      <trkpt lat="47.10293" lon="5.1219">
        <ele>227.6</ele>
        <time>2022-03-21T10:20:03Z</time>
      </trkpt>
      <trkpt lat="47.10287" lon="5.12194">
        <ele>227.6</ele>
        <time>2022-03-21T10:20:04Z</time>
      </trkpt>
      <trkpt lat="47.10282" lon="5.12199">
        <ele>227.4</ele>
        <time>2022-03-21T10:20:05Z</time>
      </trkpt>
      <trkpt lat="47.10276" lon="5.12203">
        <ele>227.4</ele>
        <time>2022-03-21T10:20:06Z</time>
      </trkpt>
      <trkpt lat="47.1027" lon="5.12208">
        <ele>227</ele>
        <time>2022-03-21T10:20:07Z</time>
      </trkpt>
      <trkpt lat="47.10264" lon="5.12214">
        <ele>226.8</ele>
        <time>2022-03-21T10:20:08Z</time>
      </trkpt>
      <trkpt lat="47.10255" lon="5.12222">
        <ele>226.6</ele>
        <time>2022-03-21T10:20:09Z</time>
      </trkpt>
      <trkpt lat="47.10252" lon="5.12225">
        <ele>226.4</ele>
        <time>2022-03-21T10:20:10Z</time>
      </trkpt>
      <trkpt lat="47.10246" lon="5.12231">
        <ele>226.4</ele>
        <time>2022-03-21T10:20:11Z</time>
      </trkpt>
      <trkpt lat="47.10239" lon="5.12237">
        <ele>226.2</ele>
        <time>2022-03-21T10:20:12Z</time>
      </trkpt>
      <trkpt lat="47.10233" lon="5.12243">
        <ele>225.8</ele>
        <time>2022-03-21T10:20:13Z</time>
      </trkpt>
      <trkpt lat="47.10226" lon="5.12248">
        <ele>225.6</ele>
        <time>2022-03-21T10:20:14Z</time>
      </trkpt>
      <trkpt lat="47.10219" lon="5.12253">
        <ele>225.6</ele>
        <time>2022-03-21T10:20:15Z</time>
      </trkpt>
      <trkpt lat="47.10213" lon="5.12258">
        <ele>225.2</ele>
        <time>2022-03-21T10:20:16Z</time>
      </trkpt>
      <trkpt lat="47.10206" lon="5.12262">
        <ele>225</ele>
        <time>2022-03-21T10:20:17Z</time>
      </trkpt>
      <trkpt lat="47.10198" lon="5.12266">
        <ele>224.8</ele>
        <time>2022-03-21T10:20:18Z</time>
      </trkpt>
      <trkpt lat="47.1019" lon="5.1227">
        <ele>224.6</ele>
        <time>2022-03-21T10:20:19Z</time>
      </trkpt>
      <trkpt lat="47.10182" lon="5.12273">
        <ele>224.4</ele>
        <time>2022-03-21T10:20:20Z</time>
      </trkpt>
      <trkpt lat="47.10173" lon="5.12278">
        <ele>224</ele>
        <time>2022-03-21T10:20:21Z</time>
      </trkpt>
      <trkpt lat="47.10165" lon="5.12282">
        <ele>223.8</ele>
        <time>2022-03-21T10:20:22Z</time>
      </trkpt>
      <trkpt lat="47.10157" lon="5.12286">
        <ele>223.4</ele>
        <time>2022-03-21T10:20:23Z</time>
      </trkpt>
      <trkpt lat="47.10149" lon="5.1229">
        <ele>223.2</ele>
        <time>2022-03-21T10:20:24Z</time>
      </trkpt>
      <trkpt lat="47.1014" lon="5.12293">
        <ele>223.2</ele>
        <time>2022-03-21T10:20:25Z</time>
      </trkpt>
      <trkpt lat="47.10132" lon="5.12298">
        <ele>222.6</ele>
        <time>2022-03-21T10:20:26Z</time>
      </trkpt>
      <trkpt lat="47.10124" lon="5.12302">
        <ele>222.4</ele>
        <time>2022-03-21T10:20:27Z</time>
      </trkpt>
      <trkpt lat="47.10115" lon="5.12306">
        <ele>222.2</ele>
        <time>2022-03-21T10:20:28Z</time>
      </trkpt>
      <trkpt lat="47.10107" lon="5.1231">
        <ele>222</ele>
        <time>2022-03-21T10:20:29Z</time>
      </trkpt>
      <trkpt lat="47.10099" lon="5.12315">
        <ele>221.8</ele>
        <time>2022-03-21T10:20:30Z</time>
      </trkpt>
      <trkpt lat="47.10091" lon="5.12319">
        <ele>221.8</ele>
        <time>2022-03-21T10:20:31Z</time>
      </trkpt>
      <trkpt lat="47.10083" lon="5.12323">
        <ele>221.4</ele>
        <time>2022-03-21T10:20:32Z</time>
      </trkpt>
      <trkpt lat="47.10075" lon="5.12327">
        <ele>221.4</ele>
        <time>2022-03-21T10:20:33Z</time>
      </trkpt>
      <trkpt lat="47.10067" lon="5.12331">
        <ele>221.2</ele>
        <time>2022-03-21T10:20:34Z</time>
      </trkpt>
      <trkpt lat="47.1006" lon="5.12334">
        <ele>221.2</ele>
        <time>2022-03-21T10:20:35Z</time>
      </trkpt>
      <trkpt lat="47.10052" lon="5.12338">
        <ele>220.8</ele>
        <time>2022-03-21T10:20:36Z</time>
      </trkpt>
      <trkpt lat="47.10044" lon="5.12342">
        <ele>220.8</ele>
        <time>2022-03-21T10:20:37Z</time>
      </trkpt>
      <trkpt lat="47.10037" lon="5.12346">
        <ele>220.6</ele>
        <time>2022-03-21T10:20:38Z</time>
      </trkpt>
      <trkpt lat="47.10029" lon="5.1235">
        <ele>220.6</ele>
        <time>2022-03-21T10:20:39Z</time>
      </trkpt>
      <trkpt lat="47.10022" lon="5.12354">
        <ele>220.4</ele>
        <time>2022-03-21T10:20:40Z</time>
      </trkpt>
      <trkpt lat="47.10015" lon="5.12357">
        <ele>220.4</ele>
        <time>2022-03-21T10:20:41Z</time>
      </trkpt>
      <trkpt lat="47.10008" lon="5.12361">
        <ele>220.4</ele>
        <time>2022-03-21T10:20:42Z</time>
      </trkpt>
      <trkpt lat="47.09994" lon="5.12368">
        <ele>220.2</ele>
        <time>2022-03-21T10:20:43Z</time>
      </trkpt>
      <trkpt lat="47.09987" lon="5.12372">
        <ele>220.2</ele>
        <time>2022-03-21T10:20:44Z</time>
      </trkpt>
      <trkpt lat="47.09983" lon="5.12373">
        <ele>220.2</ele>
        <time>2022-03-21T10:20:45Z</time>
      </trkpt>
      <trkpt lat="47.0998" lon="5.12375">
        <ele>219.8</ele>
        <time>2022-03-21T10:20:46Z</time>
      </trkpt>
      <trkpt lat="47.09973" lon="5.12379">
        <ele>219.8</ele>
        <time>2022-03-21T10:20:47Z</time>
      </trkpt>
      <trkpt lat="47.09966" lon="5.12383">
        <ele>219.6</ele>
        <time>2022-03-21T10:20:48Z</time>
      </trkpt>
      <trkpt lat="47.09959" lon="5.12386">
        <ele>219.6</ele>
        <time>2022-03-21T10:20:49Z</time>
      </trkpt>
      <trkpt lat="47.09952" lon="5.1239">
        <ele>219.6</ele>
        <time>2022-03-21T10:20:50Z</time>
      </trkpt>
      <trkpt lat="47.09945" lon="5.12393">
        <ele>219.6</ele>
        <time>2022-03-21T10:20:51Z</time>
      </trkpt>
      <trkpt lat="47.09938" lon="5.12397">
        <ele>219.6</ele>
        <time>2022-03-21T10:20:52Z</time>
      </trkpt>
      <trkpt lat="47.09932" lon="5.124">
        <ele>219.4</ele>
        <time>2022-03-21T10:20:53Z</time>
      </trkpt>
      <trkpt lat="47.09925" lon="5.12403">
        <ele>219.4</ele>
        <time>2022-03-21T10:20:54Z</time>
      </trkpt>
      <trkpt lat="47.09918" lon="5.12407">
        <ele>219.2</ele>
        <time>2022-03-21T10:20:55Z</time>
      </trkpt>
      <trkpt lat="47.09911" lon="5.1241">
        <ele>219</ele>
        <time>2022-03-21T10:20:56Z</time>
      </trkpt>
      <trkpt lat="47.09904" lon="5.12414">
        <ele>219</ele>
        <time>2022-03-21T10:20:57Z</time>
      </trkpt>
      <trkpt lat="47.09896" lon="5.12417">
        <ele>219</ele>
        <time>2022-03-21T10:20:58Z</time>
      </trkpt>
      <trkpt lat="47.09889" lon="5.12421">
        <ele>218.6</ele>
        <time>2022-03-21T10:20:59Z</time>
      </trkpt>
      <trkpt lat="47.09882" lon="5.12425">
        <ele>218.6</ele>
        <time>2022-03-21T10:21:00Z</time>
      </trkpt>
      <trkpt lat="47.09875" lon="5.12429">
        <ele>218.6</ele>
        <time>2022-03-21T10:21:01Z</time>
      </trkpt>
      <trkpt lat="47.09868" lon="5.12432">
        <ele>218.6</ele>
        <time>2022-03-21T10:21:02Z</time>
      </trkpt>
      <trkpt lat="47.09861" lon="5.12436">
        <ele>218.4</ele>
        <time>2022-03-21T10:21:03Z</time>
      </trkpt>
      <trkpt lat="47.09854" lon="5.12439">
        <ele>218.4</ele>
        <time>2022-03-21T10:21:04Z</time>
      </trkpt>
      <trkpt lat="47.09847" lon="5.12443">
        <ele>218.4</ele>
        <time>2022-03-21T10:21:05Z</time>
      </trkpt>
      <trkpt lat="47.0984" lon="5.12447">
        <ele>218.4</ele>
        <time>2022-03-21T10:21:06Z</time>
      </trkpt>
      <trkpt lat="47.09833" lon="5.1245">
        <ele>218.4</ele>
        <time>2022-03-21T10:21:07Z</time>
      </trkpt>
      <trkpt lat="47.09826" lon="5.12454">
        <ele>218.4</ele>
        <time>2022-03-21T10:21:08Z</time>
      </trkpt>
      <trkpt lat="47.09818" lon="5.12458">
        <ele>218.2</ele>
        <time>2022-03-21T10:21:09Z</time>
      </trkpt>
      <trkpt lat="47.09811" lon="5.12461">
        <ele>218.2</ele>
        <time>2022-03-21T10:21:10Z</time>
      </trkpt>
      <trkpt lat="47.09804" lon="5.12465">
        <ele>217.6</ele>
        <time>2022-03-21T10:21:11Z</time>
      </trkpt>
      <trkpt lat="47.09796" lon="5.12469">
        <ele>217.6</ele>
        <time>2022-03-21T10:21:12Z</time>
      </trkpt>
      <trkpt lat="47.09789" lon="5.12473">
        <ele>217.4</ele>
        <time>2022-03-21T10:21:13Z</time>
      </trkpt>
      <trkpt lat="47.09782" lon="5.12477">
        <ele>217.2</ele>
        <time>2022-03-21T10:21:14Z</time>
      </trkpt>
      <trkpt lat="47.09775" lon="5.12481">
        <ele>217.2</ele>
        <time>2022-03-21T10:21:15Z</time>
      </trkpt>
      <trkpt lat="47.09768" lon="5.12485">
        <ele>216.8</ele>
        <time>2022-03-21T10:21:16Z</time>
      </trkpt>
      <trkpt lat="47.09761" lon="5.12489">
        <ele>216.8</ele>
        <time>2022-03-21T10:21:17Z</time>
      </trkpt>
      <trkpt lat="47.09754" lon="5.12493">
        <ele>216.4</ele>
        <time>2022-03-21T10:21:18Z</time>
      </trkpt>
      <trkpt lat="47.09746" lon="5.12497">
        <ele>216.2</ele>
        <time>2022-03-21T10:21:19Z</time>
      </trkpt>
      <trkpt lat="47.09739" lon="5.12502">
        <ele>216.2</ele>
        <time>2022-03-21T10:21:20Z</time>
      </trkpt>
      <trkpt lat="47.09732" lon="5.12508">
        <ele>215.8</ele>
        <time>2022-03-21T10:21:21Z</time>
      </trkpt>
      <trkpt lat="47.09725" lon="5.12514">
        <ele>215.8</ele>
        <time>2022-03-21T10:21:22Z</time>
      </trkpt>
      <trkpt lat="47.09718" lon="5.12522">
        <ele>215.4</ele>
        <time>2022-03-21T10:21:23Z</time>
      </trkpt>
      <trkpt lat="47.09712" lon="5.12529">
        <ele>215.4</ele>
        <time>2022-03-21T10:21:24Z</time>
      </trkpt>
      <trkpt lat="47.09706" lon="5.12538">
        <ele>215.2</ele>
        <time>2022-03-21T10:21:25Z</time>
      </trkpt>
      <trkpt lat="47.097" lon="5.12546">
        <ele>215.2</ele>
        <time>2022-03-21T10:21:26Z</time>
      </trkpt>
      <trkpt lat="47.09694" lon="5.12555">
        <ele>214.8</ele>
        <time>2022-03-21T10:21:27Z</time>
      </trkpt>
      <trkpt lat="47.09687" lon="5.12563">
        <ele>214.8</ele>
        <time>2022-03-21T10:21:28Z</time>
      </trkpt>
      <trkpt lat="47.09681" lon="5.12571">
        <ele>214.4</ele>
        <time>2022-03-21T10:21:29Z</time>
      </trkpt>
      <trkpt lat="47.09675" lon="5.12579">
        <ele>214.2</ele>
        <time>2022-03-21T10:21:30Z</time>
      </trkpt>
      <trkpt lat="47.09669" lon="5.12588">
        <ele>214</ele>
        <time>2022-03-21T10:21:31Z</time>
      </trkpt>
      <trkpt lat="47.09662" lon="5.12596">
        <ele>214</ele>
        <time>2022-03-21T10:21:32Z</time>
      </trkpt>
      <trkpt lat="47.09656" lon="5.12605">
        <ele>213.6</ele>
        <time>2022-03-21T10:21:33Z</time>
      </trkpt>
      <trkpt lat="47.09649" lon="5.12613">
        <ele>213.6</ele>
        <time>2022-03-21T10:21:34Z</time>
      </trkpt>
      <trkpt lat="47.09643" lon="5.12621">
        <ele>213.6</ele>
        <time>2022-03-21T10:21:35Z</time>
      </trkpt>
      <trkpt lat="47.09636" lon="5.1263">
        <ele>213.4</ele>
        <time>2022-03-21T10:21:36Z</time>
      </trkpt>
      <trkpt lat="47.09629" lon="5.12638">
        <ele>213.4</ele>
        <time>2022-03-21T10:21:37Z</time>
      </trkpt>
      <trkpt lat="47.09623" lon="5.12646">
        <ele>213</ele>
        <time>2022-03-21T10:21:38Z</time>
      </trkpt>
      <trkpt lat="47.09616" lon="5.12655">
        <ele>213</ele>
        <time>2022-03-21T10:21:39Z</time>
      </trkpt>
      <trkpt lat="47.0961" lon="5.12663">
        <ele>212.6</ele>
        <time>2022-03-21T10:21:40Z</time>
      </trkpt>
      <trkpt lat="47.09603" lon="5.12672">
        <ele>212.6</ele>
        <time>2022-03-21T10:21:41Z</time>
      </trkpt>
      <trkpt lat="47.09596" lon="5.1268">
        <ele>212.4</ele>
        <time>2022-03-21T10:21:42Z</time>
      </trkpt>
      <trkpt lat="47.09589" lon="5.12689">
        <ele>212.4</ele>
        <time>2022-03-21T10:21:43Z</time>
      </trkpt>
      <trkpt lat="47.09583" lon="5.12697">
        <ele>212.4</ele>
        <time>2022-03-21T10:21:44Z</time>
      </trkpt>
      <trkpt lat="47.09577" lon="5.12706">
        <ele>212</ele>
        <time>2022-03-21T10:21:45Z</time>
      </trkpt>
      <trkpt lat="47.09571" lon="5.12715">
        <ele>211.8</ele>
        <time>2022-03-21T10:21:46Z</time>
      </trkpt>
      <trkpt lat="47.09565" lon="5.12724">
        <ele>211.8</ele>
        <time>2022-03-21T10:21:47Z</time>
      </trkpt>
      <trkpt lat="47.09556" lon="5.12738">
        <ele>211.4</ele>
        <time>2022-03-21T10:21:48Z</time>
      </trkpt>
      <trkpt lat="47.09554" lon="5.12743">
        <ele>211.4</ele>
        <time>2022-03-21T10:21:49Z</time>
      </trkpt>
      <trkpt lat="47.09548" lon="5.12752">
        <ele>211.2</ele>
        <time>2022-03-21T10:21:50Z</time>
      </trkpt>
      <trkpt lat="47.09544" lon="5.12763">
        <ele>211.2</ele>
        <time>2022-03-21T10:21:51Z</time>
      </trkpt>
      <trkpt lat="47.09539" lon="5.12773">
        <ele>211.2</ele>
        <time>2022-03-21T10:21:52Z</time>
      </trkpt>
      <trkpt lat="47.09535" lon="5.12784">
        <ele>210.8</ele>
        <time>2022-03-21T10:21:53Z</time>
      </trkpt>
      <trkpt lat="47.09532" lon="5.12795">
        <ele>210.8</ele>
        <time>2022-03-21T10:21:54Z</time>
      </trkpt>
      <trkpt lat="47.09529" lon="5.12806">
        <ele>210.4</ele>
        <time>2022-03-21T10:21:55Z</time>
      </trkpt>
      <trkpt lat="47.09526" lon="5.12817">
        <ele>210.4</ele>
        <time>2022-03-21T10:21:56Z</time>
      </trkpt>
      <trkpt lat="47.09523" lon="5.12828">
        <ele>210.4</ele>
        <time>2022-03-21T10:21:57Z</time>
      </trkpt>
      <trkpt lat="47.09521" lon="5.12839">
        <ele>210.2</ele>
        <time>2022-03-21T10:21:58Z</time>
      </trkpt>
      <trkpt lat="47.09519" lon="5.1285">
        <ele>210.2</ele>
        <time>2022-03-21T10:21:59Z</time>
      </trkpt>
      <trkpt lat="47.09517" lon="5.12861">
        <ele>210.2</ele>
        <time>2022-03-21T10:22:00Z</time>
      </trkpt>
      <trkpt lat="47.09515" lon="5.12873">
        <ele>210.2</ele>
        <time>2022-03-21T10:22:01Z</time>
      </trkpt>
      <trkpt lat="47.09514" lon="5.12884">
        <ele>210.2</ele>
        <time>2022-03-21T10:22:02Z</time>
      </trkpt>
      <trkpt lat="47.09513" lon="5.12895">
        <ele>210</ele>
        <time>2022-03-21T10:22:03Z</time>
      </trkpt>
      <trkpt lat="47.09512" lon="5.12907">
        <ele>210</ele>
        <time>2022-03-21T10:22:04Z</time>
      </trkpt>
      <trkpt lat="47.09511" lon="5.12918">
        <ele>210</ele>
        <time>2022-03-21T10:22:05Z</time>
      </trkpt>
      <trkpt lat="47.09511" lon="5.1293">
        <ele>209.6</ele>
        <time>2022-03-21T10:22:06Z</time>
      </trkpt>
      <trkpt lat="47.09511" lon="5.12941">
        <ele>209.6</ele>
        <time>2022-03-21T10:22:07Z</time>
      </trkpt>
      <trkpt lat="47.09511" lon="5.12953">
        <ele>209.6</ele>
        <time>2022-03-21T10:22:08Z</time>
      </trkpt>
      <trkpt lat="47.09511" lon="5.12964">
        <ele>209.6</ele>
        <time>2022-03-21T10:22:09Z</time>
      </trkpt>
      <trkpt lat="47.09512" lon="5.12975">
        <ele>209.4</ele>
        <time>2022-03-21T10:22:10Z</time>
      </trkpt>
      <trkpt lat="47.09512" lon="5.12986">
        <ele>209.4</ele>
        <time>2022-03-21T10:22:11Z</time>
      </trkpt>
      <trkpt lat="47.09512" lon="5.12998">
        <ele>209.2</ele>
        <time>2022-03-21T10:22:12Z</time>
      </trkpt>
      <trkpt lat="47.09513" lon="5.13008">
        <ele>209.2</ele>
        <time>2022-03-21T10:22:13Z</time>
      </trkpt>
      <trkpt lat="47.09513" lon="5.13019">
        <ele>209.2</ele>
        <time>2022-03-21T10:22:14Z</time>
      </trkpt>
      <trkpt lat="47.09513" lon="5.1303">
        <ele>209.2</ele>
        <time>2022-03-21T10:22:15Z</time>
      </trkpt>
      <trkpt lat="47.09513" lon="5.1304">
        <ele>209</ele>
        <time>2022-03-21T10:22:16Z</time>
      </trkpt>
      <trkpt lat="47.09513" lon="5.1305">
        <ele>209</ele>
        <time>2022-03-21T10:22:17Z</time>
      </trkpt>
      <trkpt lat="47.09512" lon="5.13065">
        <ele>209</ele>
        <time>2022-03-21T10:22:18Z</time>
      </trkpt>
      <trkpt lat="47.09511" lon="5.1307">
        <ele>209.2</ele>
        <time>2022-03-21T10:22:19Z</time>
      </trkpt>
      <trkpt lat="47.09511" lon="5.13079">
        <ele>209.2</ele>
        <time>2022-03-21T10:22:20Z</time>
      </trkpt>
      <trkpt lat="47.09508" lon="5.13093">
        <ele>209.4</ele>
        <time>2022-03-21T10:22:21Z</time>
      </trkpt>
      <trkpt lat="47.09507" lon="5.13097">
        <ele>209.6</ele>
        <time>2022-03-21T10:22:22Z</time>
      </trkpt>
      <trkpt lat="47.09505" lon="5.13105">
        <ele>209.8</ele>
        <time>2022-03-21T10:22:23Z</time>
      </trkpt>
      <trkpt lat="47.09503" lon="5.13113">
        <ele>210.2</ele>
        <time>2022-03-21T10:22:24Z</time>
      </trkpt>
      <trkpt lat="47.095" lon="5.13121">
        <ele>210.4</ele>
        <time>2022-03-21T10:22:25Z</time>
      </trkpt>
      <trkpt lat="47.09496" lon="5.13128">
        <ele>210.4</ele>
        <time>2022-03-21T10:22:26Z</time>
      </trkpt>
      <trkpt lat="47.09491" lon="5.13138">
        <ele>211</ele>
        <time>2022-03-21T10:22:27Z</time>
      </trkpt>
      <trkpt lat="47.09489" lon="5.13141">
        <ele>211</ele>
        <time>2022-03-21T10:22:28Z</time>
      </trkpt>
      <trkpt lat="47.09486" lon="5.13148">
        <ele>211.2</ele>
        <time>2022-03-21T10:22:29Z</time>
      </trkpt>
      <trkpt lat="47.09482" lon="5.13154">
        <ele>211.2</ele>
        <time>2022-03-21T10:22:30Z</time>
      </trkpt>
      <trkpt lat="47.09479" lon="5.13161">
        <ele>211.6</ele>
        <time>2022-03-21T10:22:31Z</time>
      </trkpt>
      <trkpt lat="47.09475" lon="5.13167">
        <ele>211.6</ele>
        <time>2022-03-21T10:22:32Z</time>
      </trkpt>
      <trkpt lat="47.09472" lon="5.13173">
        <ele>211.6</ele>
        <time>2022-03-21T10:22:33Z</time>
      </trkpt>
      <trkpt lat="47.09468" lon="5.13179">
        <ele>211.6</ele>
        <time>2022-03-21T10:22:34Z</time>
      </trkpt>
      <trkpt lat="47.09464" lon="5.13186">
        <ele>211.6</ele>
        <time>2022-03-21T10:22:35Z</time>
      </trkpt>
      <trkpt lat="47.09459" lon="5.13193">
        <ele>211.6</ele>
        <time>2022-03-21T10:22:36Z</time>
      </trkpt>
      <trkpt lat="47.09456" lon="5.132">
        <ele>211.6</ele>
        <time>2022-03-21T10:22:37Z</time>
      </trkpt>
      <trkpt lat="47.09451" lon="5.13207">
        <ele>211.8</ele>
        <time>2022-03-21T10:22:38Z</time>
      </trkpt>
      <trkpt lat="47.09447" lon="5.13215">
        <ele>211.8</ele>
        <time>2022-03-21T10:22:39Z</time>
      </trkpt>
      <trkpt lat="47.09443" lon="5.13223">
        <ele>211.8</ele>
        <time>2022-03-21T10:22:40Z</time>
      </trkpt>
      <trkpt lat="47.09439" lon="5.13231">
        <ele>211.8</ele>
        <time>2022-03-21T10:22:41Z</time>
      </trkpt>
      <trkpt lat="47.09434" lon="5.13238">
        <ele>211.8</ele>
        <time>2022-03-21T10:22:42Z</time>
      </trkpt>
      <trkpt lat="47.0943" lon="5.13246">
        <ele>211.8</ele>
        <time>2022-03-21T10:22:43Z</time>
      </trkpt>
      <trkpt lat="47.09425" lon="5.13254">
        <ele>211.6</ele>
        <time>2022-03-21T10:22:44Z</time>
      </trkpt>
      <trkpt lat="47.09421" lon="5.13262">
        <ele>211.6</ele>
        <time>2022-03-21T10:22:45Z</time>
      </trkpt>
      <trkpt lat="47.09416" lon="5.1327">
        <ele>211.6</ele>
        <time>2022-03-21T10:22:46Z</time>
      </trkpt>
      <trkpt lat="47.09412" lon="5.13278">
        <ele>211.4</ele>
        <time>2022-03-21T10:22:47Z</time>
      </trkpt>
      <trkpt lat="47.09407" lon="5.13286">
        <ele>211.4</ele>
        <time>2022-03-21T10:22:48Z</time>
      </trkpt>
      <trkpt lat="47.09403" lon="5.13294">
        <ele>211.4</ele>
        <time>2022-03-21T10:22:49Z</time>
      </trkpt>
      <trkpt lat="47.09398" lon="5.13302">
        <ele>211.4</ele>
        <time>2022-03-21T10:22:50Z</time>
      </trkpt>
      <trkpt lat="47.09394" lon="5.1331">
        <ele>211.4</ele>
        <time>2022-03-21T10:22:51Z</time>
      </trkpt>
      <trkpt lat="47.09389" lon="5.13318">
        <ele>211.4</ele>
        <time>2022-03-21T10:22:52Z</time>
      </trkpt>
      <trkpt lat="47.09384" lon="5.13326">
        <ele>211.4</ele>
        <time>2022-03-21T10:22:53Z</time>
      </trkpt>
      <trkpt lat="47.0938" lon="5.13334">
        <ele>211.2</ele>
        <time>2022-03-21T10:22:54Z</time>
      </trkpt>
      <trkpt lat="47.09375" lon="5.13342">
        <ele>211.2</ele>
        <time>2022-03-21T10:22:55Z</time>
      </trkpt>
      <trkpt lat="47.09371" lon="5.1335">
        <ele>211.2</ele>
        <time>2022-03-21T10:22:56Z</time>
      </trkpt>
      <trkpt lat="47.09366" lon="5.13358">
        <ele>211</ele>
        <time>2022-03-21T10:22:57Z</time>
      </trkpt>
      <trkpt lat="47.09361" lon="5.13367">
        <ele>211</ele>
        <time>2022-03-21T10:22:58Z</time>
      </trkpt>
      <trkpt lat="47.09357" lon="5.13375">
        <ele>211</ele>
        <time>2022-03-21T10:22:59Z</time>
      </trkpt>
      <trkpt lat="47.09352" lon="5.13383">
        <ele>211</ele>
        <time>2022-03-21T10:23:00Z</time>
      </trkpt>
      <trkpt lat="47.09348" lon="5.13391">
        <ele>211</ele>
        <time>2022-03-21T10:23:01Z</time>
      </trkpt>
      <trkpt lat="47.09343" lon="5.13399">
        <ele>210.8</ele>
        <time>2022-03-21T10:23:02Z</time>
      </trkpt>
      <trkpt lat="47.09338" lon="5.13407">
        <ele>210.8</ele>
        <time>2022-03-21T10:23:03Z</time>
      </trkpt>
      <trkpt lat="47.09334" lon="5.13415">
        <ele>210.8</ele>
        <time>2022-03-21T10:23:04Z</time>
      </trkpt>
      <trkpt lat="47.09329" lon="5.13423">
        <ele>210.8</ele>
        <time>2022-03-21T10:23:05Z</time>
      </trkpt>
      <trkpt lat="47.09325" lon="5.13431">
        <ele>210.4</ele>
        <time>2022-03-21T10:23:06Z</time>
      </trkpt>
      <trkpt lat="47.0932" lon="5.13439">
        <ele>210.4</ele>
        <time>2022-03-21T10:23:07Z</time>
      </trkpt>
      <trkpt lat="47.09316" lon="5.13447">
        <ele>210.4</ele>
        <time>2022-03-21T10:23:08Z</time>
      </trkpt>
      <trkpt lat="47.09311" lon="5.13455">
        <ele>210.4</ele>
        <time>2022-03-21T10:23:09Z</time>
      </trkpt>
      <trkpt lat="47.09307" lon="5.13463">
        <ele>210.4</ele>
        <time>2022-03-21T10:23:10Z</time>
      </trkpt>
      <trkpt lat="47.09303" lon="5.13471">
        <ele>210.2</ele>
        <time>2022-03-21T10:23:11Z</time>
      </trkpt>
      <trkpt lat="47.09298" lon="5.13479">
        <ele>210.2</ele>
        <time>2022-03-21T10:23:12Z</time>
      </trkpt>
      <trkpt lat="47.09294" lon="5.13487">
        <ele>210.2</ele>
        <time>2022-03-21T10:23:13Z</time>
      </trkpt>
      <trkpt lat="47.0929" lon="5.13495">
        <ele>210.2</ele>
        <time>2022-03-21T10:23:14Z</time>
      </trkpt>
      <trkpt lat="47.09285" lon="5.13502">
        <ele>210.2</ele>
        <time>2022-03-21T10:23:15Z</time>
      </trkpt>
      <trkpt lat="47.09281" lon="5.1351">
        <ele>210.2</ele>
        <time>2022-03-21T10:23:16Z</time>
      </trkpt>
      <trkpt lat="47.09276" lon="5.13517">
        <ele>210.2</ele>
        <time>2022-03-21T10:23:17Z</time>
      </trkpt>
      <trkpt lat="47.09272" lon="5.13525">
        <ele>210.2</ele>
        <time>2022-03-21T10:23:18Z</time>
      </trkpt>
      <trkpt lat="47.09267" lon="5.13532">
        <ele>210.2</ele>
        <time>2022-03-21T10:23:19Z</time>
      </trkpt>
      <trkpt lat="47.09263" lon="5.13539">
        <ele>210.2</ele>
        <time>2022-03-21T10:23:20Z</time>
      </trkpt>
      <trkpt lat="47.09258" lon="5.13546">
        <ele>210.4</ele>
        <time>2022-03-21T10:23:21Z</time>
      </trkpt>
      <trkpt lat="47.09253" lon="5.13553">
        <ele>210.4</ele>
        <time>2022-03-21T10:23:22Z</time>
      </trkpt>
      <trkpt lat="47.09249" lon="5.1356">
        <ele>210.4</ele>
        <time>2022-03-21T10:23:23Z</time>
      </trkpt>
      <trkpt lat="47.09244" lon="5.13567">
        <ele>210.4</ele>
        <time>2022-03-21T10:23:24Z</time>
      </trkpt>
      <trkpt lat="47.09239" lon="5.13575">
        <ele>210.8</ele>
        <time>2022-03-21T10:23:25Z</time>
      </trkpt>
      <trkpt lat="47.09234" lon="5.13582">
        <ele>210.8</ele>
        <time>2022-03-21T10:23:26Z</time>
      </trkpt>
      <trkpt lat="47.09227" lon="5.13592">
        <ele>210.8</ele>
        <time>2022-03-21T10:23:27Z</time>
      </trkpt>
      <trkpt lat="47.09224" lon="5.13596">
        <ele>210.8</ele>
        <time>2022-03-21T10:23:28Z</time>
      </trkpt>
      <trkpt lat="47.0922" lon="5.13603">
        <ele>210.8</ele>
        <time>2022-03-21T10:23:29Z</time>
      </trkpt>
      <trkpt lat="47.09215" lon="5.1361">
        <ele>210.8</ele>
        <time>2022-03-21T10:23:30Z</time>
      </trkpt>
      <trkpt lat="47.09208" lon="5.13621">
        <ele>210.8</ele>
        <time>2022-03-21T10:23:31Z</time>
      </trkpt>
      <trkpt lat="47.09205" lon="5.13625">
        <ele>210.8</ele>
        <time>2022-03-21T10:23:32Z</time>
      </trkpt>
      <trkpt lat="47.09201" lon="5.13632">
        <ele>210.8</ele>
        <time>2022-03-21T10:23:33Z</time>
      </trkpt>
      <trkpt lat="47.09196" lon="5.13639">
        <ele>210.8</ele>
        <time>2022-03-21T10:23:34Z</time>
      </trkpt>
      <trkpt lat="47.09191" lon="5.13646">
        <ele>210.8</ele>
        <time>2022-03-21T10:23:35Z</time>
      </trkpt>
      <trkpt lat="47.09186" lon="5.13653">
        <ele>210.8</ele>
        <time>2022-03-21T10:23:36Z</time>
      </trkpt>
      <trkpt lat="47.09181" lon="5.13661">
        <ele>210.6</ele>
        <time>2022-03-21T10:23:37Z</time>
      </trkpt>
      <trkpt lat="47.09176" lon="5.13668">
        <ele>210.6</ele>
        <time>2022-03-21T10:23:38Z</time>
      </trkpt>
      <trkpt lat="47.09171" lon="5.13676">
        <ele>210.6</ele>
        <time>2022-03-21T10:23:39Z</time>
      </trkpt>
      <trkpt lat="47.09166" lon="5.13684">
        <ele>210.6</ele>
        <time>2022-03-21T10:23:40Z</time>
      </trkpt>
      <trkpt lat="47.09161" lon="5.13692">
        <ele>210.2</ele>
        <time>2022-03-21T10:23:41Z</time>
      </trkpt>
      <trkpt lat="47.09156" lon="5.13699">
        <ele>210.2</ele>
        <time>2022-03-21T10:23:42Z</time>
      </trkpt>
      <trkpt lat="47.0915" lon="5.13707">
        <ele>209.8</ele>
        <time>2022-03-21T10:23:43Z</time>
      </trkpt>
      <trkpt lat="47.09145" lon="5.13715">
        <ele>209.6</ele>
        <time>2022-03-21T10:23:44Z</time>
      </trkpt>
      <trkpt lat="47.0914" lon="5.13723">
        <ele>209.6</ele>
        <time>2022-03-21T10:23:45Z</time>
      </trkpt>
      <trkpt lat="47.09135" lon="5.13731">
        <ele>209.4</ele>
        <time>2022-03-21T10:23:46Z</time>
      </trkpt>
      <trkpt lat="47.0913" lon="5.13739">
        <ele>209.4</ele>
        <time>2022-03-21T10:23:47Z</time>
      </trkpt>
      <trkpt lat="47.09126" lon="5.13747">
        <ele>209.4</ele>
        <time>2022-03-21T10:23:48Z</time>
      </trkpt>
      <trkpt lat="47.09121" lon="5.13755">
        <ele>209.4</ele>
        <time>2022-03-21T10:23:49Z</time>
      </trkpt>
      <trkpt lat="47.09116" lon="5.13764">
        <ele>209.4</ele>
        <time>2022-03-21T10:23:50Z</time>
      </trkpt>
      <trkpt lat="47.09111" lon="5.13772">
        <ele>209.4</ele>
        <time>2022-03-21T10:23:51Z</time>
      </trkpt>
      <trkpt lat="47.09107" lon="5.1378">
        <ele>209.2</ele>
        <time>2022-03-21T10:23:52Z</time>
      </trkpt>
      <trkpt lat="47.09102" lon="5.13788">
        <ele>209.2</ele>
        <time>2022-03-21T10:23:53Z</time>
      </trkpt>
      <trkpt lat="47.09097" lon="5.13796">
        <ele>209.2</ele>
        <time>2022-03-21T10:23:54Z</time>
      </trkpt>
      <trkpt lat="47.09092" lon="5.13804">
        <ele>208.8</ele>
        <time>2022-03-21T10:23:55Z</time>
      </trkpt>
      <trkpt lat="47.09088" lon="5.13812">
        <ele>208.8</ele>
        <time>2022-03-21T10:23:56Z</time>
      </trkpt>
      <trkpt lat="47.09083" lon="5.1382">
        <ele>208.8</ele>
        <time>2022-03-21T10:23:57Z</time>
      </trkpt>
      <trkpt lat="47.09078" lon="5.13828">
        <ele>208.8</ele>
        <time>2022-03-21T10:23:58Z</time>
      </trkpt>
      <trkpt lat="47.09074" lon="5.13836">
        <ele>208.6</ele>
        <time>2022-03-21T10:23:59Z</time>
      </trkpt>
      <trkpt lat="47.09069" lon="5.13845">
        <ele>208.6</ele>
        <time>2022-03-21T10:24:00Z</time>
      </trkpt>
      <trkpt lat="47.09064" lon="5.13853">
        <ele>208.6</ele>
        <time>2022-03-21T10:24:01Z</time>
      </trkpt>
      <trkpt lat="47.09059" lon="5.13861">
        <ele>208.6</ele>
        <time>2022-03-21T10:24:02Z</time>
      </trkpt>
      <trkpt lat="47.09055" lon="5.13869">
        <ele>208.6</ele>
        <time>2022-03-21T10:24:03Z</time>
      </trkpt>
      <trkpt lat="47.0905" lon="5.13878">
        <ele>208.6</ele>
        <time>2022-03-21T10:24:04Z</time>
      </trkpt>
      <trkpt lat="47.09046" lon="5.13886">
        <ele>208.4</ele>
        <time>2022-03-21T10:24:05Z</time>
      </trkpt>
      <trkpt lat="47.09041" lon="5.13894">
        <ele>208.4</ele>
        <time>2022-03-21T10:24:06Z</time>
      </trkpt>
      <trkpt lat="47.09036" lon="5.13902">
        <ele>208.4</ele>
        <time>2022-03-21T10:24:07Z</time>
      </trkpt>
      <trkpt lat="47.09031" lon="5.1391">
        <ele>208.4</ele>
        <time>2022-03-21T10:24:08Z</time>
      </trkpt>
      <trkpt lat="47.09026" lon="5.13918">
        <ele>208.4</ele>
        <time>2022-03-21T10:24:09Z</time>
      </trkpt>
      <trkpt lat="47.09022" lon="5.13926">
        <ele>208.4</ele>
        <time>2022-03-21T10:24:10Z</time>
      </trkpt>
      <trkpt lat="47.09017" lon="5.13934">
        <ele>208.4</ele>
        <time>2022-03-21T10:24:11Z</time>
      </trkpt>
      <trkpt lat="47.09012" lon="5.13942">
        <ele>208.4</ele>
        <time>2022-03-21T10:24:12Z</time>
      </trkpt>
      <trkpt lat="47.09007" lon="5.1395">
        <ele>208.4</ele>
        <time>2022-03-21T10:24:13Z</time>
      </trkpt>
      <trkpt lat="47.09003" lon="5.13958">
        <ele>208.4</ele>
        <time>2022-03-21T10:24:14Z</time>
      </trkpt>
      <trkpt lat="47.08998" lon="5.13966">
        <ele>208.4</ele>
        <time>2022-03-21T10:24:15Z</time>
      </trkpt>
      <trkpt lat="47.08993" lon="5.13974">
        <ele>208.4</ele>
        <time>2022-03-21T10:24:16Z</time>
      </trkpt>
      <trkpt lat="47.08989" lon="5.13982">
        <ele>208.4</ele>
        <time>2022-03-21T10:24:17Z</time>
      </trkpt>
      <trkpt lat="47.08984" lon="5.1399">
        <ele>208.4</ele>
        <time>2022-03-21T10:24:18Z</time>
      </trkpt>
      <trkpt lat="47.08979" lon="5.13998">
        <ele>208.2</ele>
        <time>2022-03-21T10:24:19Z</time>
      </trkpt>
      <trkpt lat="47.08975" lon="5.14006">
        <ele>208.2</ele>
        <time>2022-03-21T10:24:20Z</time>
      </trkpt>
      <trkpt lat="47.0897" lon="5.14015">
        <ele>208.2</ele>
        <time>2022-03-21T10:24:21Z</time>
      </trkpt>
      <trkpt lat="47.08966" lon="5.14023">
        <ele>208.2</ele>
        <time>2022-03-21T10:24:22Z</time>
      </trkpt>
      <trkpt lat="47.08962" lon="5.14032">
        <ele>208.2</ele>
        <time>2022-03-21T10:24:23Z</time>
      </trkpt>
      <trkpt lat="47.08959" lon="5.14041">
        <ele>208.2</ele>
        <time>2022-03-21T10:24:24Z</time>
      </trkpt>
      <trkpt lat="47.08955" lon="5.14051">
        <ele>208.2</ele>
        <time>2022-03-21T10:24:25Z</time>
      </trkpt>
      <trkpt lat="47.08952" lon="5.1406">
        <ele>208.2</ele>
        <time>2022-03-21T10:24:26Z</time>
      </trkpt>
      <trkpt lat="47.08949" lon="5.1407">
        <ele>208.2</ele>
        <time>2022-03-21T10:24:27Z</time>
      </trkpt>
      <trkpt lat="47.08947" lon="5.1408">
        <ele>208.2</ele>
        <time>2022-03-21T10:24:28Z</time>
      </trkpt>
      <trkpt lat="47.08944" lon="5.1409">
        <ele>208.2</ele>
        <time>2022-03-21T10:24:29Z</time>
      </trkpt>
      <trkpt lat="47.08941" lon="5.141">
        <ele>208.2</ele>
        <time>2022-03-21T10:24:30Z</time>
      </trkpt>
      <trkpt lat="47.08938" lon="5.14109">
        <ele>208.2</ele>
        <time>2022-03-21T10:24:31Z</time>
      </trkpt>
      <trkpt lat="47.08936" lon="5.14119">
        <ele>208.2</ele>
        <time>2022-03-21T10:24:32Z</time>
      </trkpt>
      <trkpt lat="47.08931" lon="5.14134">
        <ele>208.2</ele>
        <time>2022-03-21T10:24:33Z</time>
      </trkpt>
      <trkpt lat="47.0893" lon="5.14139">
        <ele>207.8</ele>
        <time>2022-03-21T10:24:34Z</time>
      </trkpt>
      <trkpt lat="47.08927" lon="5.14149">
        <ele>207.8</ele>
        <time>2022-03-21T10:24:35Z</time>
      </trkpt>
      <trkpt lat="47.08925" lon="5.1416">
        <ele>207.8</ele>
        <time>2022-03-21T10:24:36Z</time>
      </trkpt>
      <trkpt lat="47.08922" lon="5.1417">
        <ele>207.8</ele>
        <time>2022-03-21T10:24:37Z</time>
      </trkpt>
      <trkpt lat="47.0892" lon="5.1418">
        <ele>207.6</ele>
        <time>2022-03-21T10:24:38Z</time>
      </trkpt>
      <trkpt lat="47.08917" lon="5.1419">
        <ele>207.6</ele>
        <time>2022-03-21T10:24:39Z</time>
      </trkpt>
      <trkpt lat="47.08914" lon="5.14201">
        <ele>207.6</ele>
        <time>2022-03-21T10:24:40Z</time>
      </trkpt>
      <trkpt lat="47.08912" lon="5.14211">
        <ele>207.6</ele>
        <time>2022-03-21T10:24:41Z</time>
      </trkpt>
      <trkpt lat="47.08909" lon="5.14222">
        <ele>207.4</ele>
        <time>2022-03-21T10:24:42Z</time>
      </trkpt>
      <trkpt lat="47.08906" lon="5.14232">
        <ele>207.4</ele>
        <time>2022-03-21T10:24:43Z</time>
      </trkpt>
      <trkpt lat="47.08903" lon="5.14243">
        <ele>207.4</ele>
        <time>2022-03-21T10:24:44Z</time>
      </trkpt>
      <trkpt lat="47.08901" lon="5.14254">
        <ele>207</ele>
        <time>2022-03-21T10:24:45Z</time>
      </trkpt>
      <trkpt lat="47.08898" lon="5.14265">
        <ele>207</ele>
        <time>2022-03-21T10:24:46Z</time>
      </trkpt>
      <trkpt lat="47.08895" lon="5.14275">
        <ele>206.6</ele>
        <time>2022-03-21T10:24:47Z</time>
      </trkpt>
      <trkpt lat="47.08892" lon="5.14286">
        <ele>206.6</ele>
        <time>2022-03-21T10:24:48Z</time>
      </trkpt>
      <trkpt lat="47.08888" lon="5.14296">
        <ele>206.4</ele>
        <time>2022-03-21T10:24:49Z</time>
      </trkpt>
      <trkpt lat="47.08884" lon="5.14306">
        <ele>206.4</ele>
        <time>2022-03-21T10:24:50Z</time>
      </trkpt>
      <trkpt lat="47.0888" lon="5.14315">
        <ele>206.2</ele>
        <time>2022-03-21T10:24:51Z</time>
      </trkpt>
      <trkpt lat="47.08875" lon="5.14324">
        <ele>206.2</ele>
        <time>2022-03-21T10:24:52Z</time>
      </trkpt>
      <trkpt lat="47.08871" lon="5.14334">
        <ele>206.2</ele>
        <time>2022-03-21T10:24:53Z</time>
      </trkpt>
      <trkpt lat="47.08866" lon="5.14343">
        <ele>206</ele>
        <time>2022-03-21T10:24:54Z</time>
      </trkpt>
      <trkpt lat="47.08861" lon="5.14352">
        <ele>205.8</ele>
        <time>2022-03-21T10:24:55Z</time>
      </trkpt>
      <trkpt lat="47.08856" lon="5.14362">
        <ele>205.8</ele>
        <time>2022-03-21T10:24:56Z</time>
      </trkpt>
      <trkpt lat="47.08851" lon="5.14371">
        <ele>205.8</ele>
        <time>2022-03-21T10:24:57Z</time>
      </trkpt>
      <trkpt lat="47.08846" lon="5.1438">
        <ele>205.6</ele>
        <time>2022-03-21T10:24:58Z</time>
      </trkpt>
      <trkpt lat="47.08841" lon="5.14389">
        <ele>205.6</ele>
        <time>2022-03-21T10:24:59Z</time>
      </trkpt>
      <trkpt lat="47.08836" lon="5.14398">
        <ele>205.2</ele>
        <time>2022-03-21T10:25:00Z</time>
      </trkpt>
      <trkpt lat="47.08831" lon="5.14406">
        <ele>205.2</ele>
        <time>2022-03-21T10:25:01Z</time>
      </trkpt>
      <trkpt lat="47.08826" lon="5.14414">
        <ele>205</ele>
        <time>2022-03-21T10:25:02Z</time>
      </trkpt>
      <trkpt lat="47.0882" lon="5.14422">
        <ele>205</ele>
        <time>2022-03-21T10:25:03Z</time>
      </trkpt>
      <trkpt lat="47.08815" lon="5.14429">
        <ele>205</ele>
        <time>2022-03-21T10:25:04Z</time>
      </trkpt>
      <trkpt lat="47.0881" lon="5.14437">
        <ele>205</ele>
        <time>2022-03-21T10:25:05Z</time>
      </trkpt>
      <trkpt lat="47.08804" lon="5.14444">
        <ele>205</ele>
        <time>2022-03-21T10:25:06Z</time>
      </trkpt>
      <trkpt lat="47.08799" lon="5.14452">
        <ele>205</ele>
        <time>2022-03-21T10:25:07Z</time>
      </trkpt>
      <trkpt lat="47.08793" lon="5.14459">
        <ele>204.8</ele>
        <time>2022-03-21T10:25:08Z</time>
      </trkpt>
      <trkpt lat="47.08787" lon="5.14466">
        <ele>204.8</ele>
        <time>2022-03-21T10:25:09Z</time>
      </trkpt>
      <trkpt lat="47.08781" lon="5.14472">
        <ele>204.4</ele>
        <time>2022-03-21T10:25:10Z</time>
      </trkpt>
      <trkpt lat="47.08769" lon="5.14484">
        <ele>204.4</ele>
        <time>2022-03-21T10:25:11Z</time>
      </trkpt>
      <trkpt lat="47.08763" lon="5.1449">
        <ele>204.4</ele>
        <time>2022-03-21T10:25:12Z</time>
      </trkpt>
      <trkpt lat="47.08757" lon="5.14496">
        <ele>204.4</ele>
        <time>2022-03-21T10:25:13Z</time>
      </trkpt>
      <trkpt lat="47.0875" lon="5.14502">
        <ele>204.4</ele>
        <time>2022-03-21T10:25:14Z</time>
      </trkpt>
      <trkpt lat="47.08744" lon="5.14507">
        <ele>204.4</ele>
        <time>2022-03-21T10:25:15Z</time>
      </trkpt>
      <trkpt lat="47.08738" lon="5.14512">
        <ele>204.4</ele>
        <time>2022-03-21T10:25:16Z</time>
      </trkpt>
      <trkpt lat="47.08731" lon="5.14516">
        <ele>204.4</ele>
        <time>2022-03-21T10:25:18Z</time>
      </trkpt>
      <trkpt lat="47.08725" lon="5.14521">
        <ele>204.2</ele>
        <time>2022-03-21T10:25:19Z</time>
      </trkpt>
      <trkpt lat="47.08719" lon="5.14525">
        <ele>204.2</ele>
        <time>2022-03-21T10:25:20Z</time>
      </trkpt>
      <trkpt lat="47.08712" lon="5.14529">
        <ele>204</ele>
        <time>2022-03-21T10:25:21Z</time>
      </trkpt>
      <trkpt lat="47.08706" lon="5.14534">
        <ele>204</ele>
        <time>2022-03-21T10:25:22Z</time>
      </trkpt>
      <trkpt lat="47.087" lon="5.14538">
        <ele>204</ele>
        <time>2022-03-21T10:25:23Z</time>
      </trkpt>
      <trkpt lat="47.08693" lon="5.14542">
        <ele>204</ele>
        <time>2022-03-21T10:25:24Z</time>
      </trkpt>
      <trkpt lat="47.08687" lon="5.14546">
        <ele>204</ele>
        <time>2022-03-21T10:25:25Z</time>
      </trkpt>
      <trkpt lat="47.08681" lon="5.1455">
        <ele>204.4</ele>
        <time>2022-03-21T10:25:26Z</time>
      </trkpt>
      <trkpt lat="47.08675" lon="5.14553">
        <ele>204.4</ele>
        <time>2022-03-21T10:25:27Z</time>
      </trkpt>
      <trkpt lat="47.08668" lon="5.14557">
        <ele>204.6</ele>
        <time>2022-03-21T10:25:28Z</time>
      </trkpt>
      <trkpt lat="47.08662" lon="5.14561">
        <ele>204.6</ele>
        <time>2022-03-21T10:25:29Z</time>
      </trkpt>
      <trkpt lat="47.08656" lon="5.14564">
        <ele>204.6</ele>
        <time>2022-03-21T10:25:30Z</time>
      </trkpt>
      <trkpt lat="47.08649" lon="5.14568">
        <ele>204.8</ele>
        <time>2022-03-21T10:25:31Z</time>
      </trkpt>
      <trkpt lat="47.08643" lon="5.14571">
        <ele>204.8</ele>
        <time>2022-03-21T10:25:32Z</time>
      </trkpt>
      <trkpt lat="47.08637" lon="5.14575">
        <ele>204.8</ele>
        <time>2022-03-21T10:25:33Z</time>
      </trkpt>
      <trkpt lat="47.08631" lon="5.14579">
        <ele>204.8</ele>
        <time>2022-03-21T10:25:34Z</time>
      </trkpt>
      <trkpt lat="47.08624" lon="5.14582">
        <ele>204.8</ele>
        <time>2022-03-21T10:25:35Z</time>
      </trkpt>
      <trkpt lat="47.08618" lon="5.14586">
        <ele>204.8</ele>
        <time>2022-03-21T10:25:36Z</time>
      </trkpt>
      <trkpt lat="47.08612" lon="5.14589">
        <ele>204.8</ele>
        <time>2022-03-21T10:25:37Z</time>
      </trkpt>
      <trkpt lat="47.08605" lon="5.14592">
        <ele>204.8</ele>
        <time>2022-03-21T10:25:38Z</time>
      </trkpt>
      <trkpt lat="47.08599" lon="5.14596">
        <ele>204.8</ele>
        <time>2022-03-21T10:25:39Z</time>
      </trkpt>
      <trkpt lat="47.08592" lon="5.14599">
        <ele>204.8</ele>
        <time>2022-03-21T10:25:40Z</time>
      </trkpt>
      <trkpt lat="47.08582" lon="5.14604">
        <ele>204.8</ele>
        <time>2022-03-21T10:25:41Z</time>
      </trkpt>
      <trkpt lat="47.08578" lon="5.14605">
        <ele>204.8</ele>
        <time>2022-03-21T10:25:42Z</time>
      </trkpt>
      <trkpt lat="47.08572" lon="5.14609">
        <ele>204.6</ele>
        <time>2022-03-21T10:25:43Z</time>
      </trkpt>
      <trkpt lat="47.08565" lon="5.14613">
        <ele>204.6</ele>
        <time>2022-03-21T10:25:44Z</time>
      </trkpt>
      <trkpt lat="47.08558" lon="5.14616">
        <ele>204.2</ele>
        <time>2022-03-21T10:25:45Z</time>
      </trkpt>
      <trkpt lat="47.08551" lon="5.1462">
        <ele>204</ele>
        <time>2022-03-21T10:25:46Z</time>
      </trkpt>
      <trkpt lat="47.08544" lon="5.14624">
        <ele>203.8</ele>
        <time>2022-03-21T10:25:47Z</time>
      </trkpt>
      <trkpt lat="47.08536" lon="5.14628">
        <ele>203.4</ele>
        <time>2022-03-21T10:25:48Z</time>
      </trkpt>
      <trkpt lat="47.08529" lon="5.14633">
        <ele>203.4</ele>
        <time>2022-03-21T10:25:49Z</time>
      </trkpt>
      <trkpt lat="47.08522" lon="5.14637">
        <ele>202.8</ele>
        <time>2022-03-21T10:25:50Z</time>
      </trkpt>
      <trkpt lat="47.08514" lon="5.14641">
        <ele>202.8</ele>
        <time>2022-03-21T10:25:51Z</time>
      </trkpt>
      <trkpt lat="47.08507" lon="5.14646">
        <ele>202.4</ele>
        <time>2022-03-21T10:25:52Z</time>
      </trkpt>
      <trkpt lat="47.085" lon="5.14651">
        <ele>202.2</ele>
        <time>2022-03-21T10:25:53Z</time>
      </trkpt>
      <trkpt lat="47.08492" lon="5.14656">
        <ele>202.2</ele>
        <time>2022-03-21T10:25:54Z</time>
      </trkpt>
      <trkpt lat="47.08485" lon="5.14661">
        <ele>201.8</ele>
        <time>2022-03-21T10:25:55Z</time>
      </trkpt>
      <trkpt lat="47.08478" lon="5.14666">
        <ele>201.6</ele>
        <time>2022-03-21T10:25:56Z</time>
      </trkpt>
      <trkpt lat="47.08471" lon="5.14671">
        <ele>201.2</ele>
        <time>2022-03-21T10:25:57Z</time>
      </trkpt>
      <trkpt lat="47.08464" lon="5.14677">
        <ele>201</ele>
        <time>2022-03-21T10:25:58Z</time>
      </trkpt>
      <trkpt lat="47.08457" lon="5.14682">
        <ele>200.8</ele>
        <time>2022-03-21T10:25:59Z</time>
      </trkpt>
      <trkpt lat="47.0845" lon="5.14688">
        <ele>200.8</ele>
        <time>2022-03-21T10:26:00Z</time>
      </trkpt>
      <trkpt lat="47.08442" lon="5.14694">
        <ele>200.4</ele>
        <time>2022-03-21T10:26:01Z</time>
      </trkpt>
      <trkpt lat="47.08435" lon="5.147">
        <ele>200.2</ele>
        <time>2022-03-21T10:26:02Z</time>
      </trkpt>
      <trkpt lat="47.08428" lon="5.14706">
        <ele>200</ele>
        <time>2022-03-21T10:26:03Z</time>
      </trkpt>
      <trkpt lat="47.08422" lon="5.14712">
        <ele>200</ele>
        <time>2022-03-21T10:26:04Z</time>
      </trkpt>
      <trkpt lat="47.08415" lon="5.14718">
        <ele>199.6</ele>
        <time>2022-03-21T10:26:05Z</time>
      </trkpt>
      <trkpt lat="47.08408" lon="5.14725">
        <ele>199.6</ele>
        <time>2022-03-21T10:26:06Z</time>
      </trkpt>
      <trkpt lat="47.08401" lon="5.1473">
        <ele>199.2</ele>
        <time>2022-03-21T10:26:07Z</time>
      </trkpt>
      <trkpt lat="47.08394" lon="5.14736">
        <ele>199.2</ele>
        <time>2022-03-21T10:26:08Z</time>
      </trkpt>
      <trkpt lat="47.08388" lon="5.14742">
        <ele>199</ele>
        <time>2022-03-21T10:26:09Z</time>
      </trkpt>
      <trkpt lat="47.08382" lon="5.14746">
        <ele>199</ele>
        <time>2022-03-21T10:26:10Z</time>
      </trkpt>
      <trkpt lat="47.08378" lon="5.1475">
        <ele>198.8</ele>
        <time>2022-03-21T10:26:11Z</time>
      </trkpt>
      <trkpt lat="47.08374" lon="5.14753">
        <ele>198.8</ele>
        <time>2022-03-21T10:26:12Z</time>
      </trkpt>
      <trkpt lat="47.08371" lon="5.14756">
        <ele>198.4</ele>
        <time>2022-03-21T10:26:13Z</time>
      </trkpt>
      <trkpt lat="47.08369" lon="5.14758">
        <ele>198.4</ele>
        <time>2022-03-21T10:26:14Z</time>
      </trkpt>
      <trkpt lat="47.08367" lon="5.14761">
        <ele>198.2</ele>
        <time>2022-03-21T10:26:15Z</time>
      </trkpt>
      <trkpt lat="47.08366" lon="5.14763">
        <ele>198.2</ele>
        <time>2022-03-21T10:26:16Z</time>
      </trkpt>
      <trkpt lat="47.08365" lon="5.14767">
        <ele>198.2</ele>
        <time>2022-03-21T10:26:17Z</time>
      </trkpt>
      <trkpt lat="47.08365" lon="5.14771">
        <ele>198.2</ele>
        <time>2022-03-21T10:26:18Z</time>
      </trkpt>
      <trkpt lat="47.08366" lon="5.14775">
        <ele>198.2</ele>
        <time>2022-03-21T10:26:19Z</time>
      </trkpt>
      <trkpt lat="47.08368" lon="5.14781">
        <ele>198.2</ele>
        <time>2022-03-21T10:26:20Z</time>
      </trkpt>
      <trkpt lat="47.0837" lon="5.14786">
        <ele>198.2</ele>
        <time>2022-03-21T10:26:21Z</time>
      </trkpt>
      <trkpt lat="47.08372" lon="5.14792">
        <ele>198.2</ele>
        <time>2022-03-21T10:26:22Z</time>
      </trkpt>
      <trkpt lat="47.08375" lon="5.14798">
        <ele>198.2</ele>
        <time>2022-03-21T10:26:23Z</time>
      </trkpt>
      <trkpt lat="47.08377" lon="5.14805">
        <ele>198.2</ele>
        <time>2022-03-21T10:26:24Z</time>
      </trkpt>
      <trkpt lat="47.0838" lon="5.14812">
        <ele>198.2</ele>
        <time>2022-03-21T10:26:25Z</time>
      </trkpt>
      <trkpt lat="47.08382" lon="5.14819">
        <ele>198</ele>
        <time>2022-03-21T10:26:26Z</time>
      </trkpt>
      <trkpt lat="47.08385" lon="5.14826">
        <ele>198</ele>
        <time>2022-03-21T10:26:27Z</time>
      </trkpt>
      <trkpt lat="47.08388" lon="5.14834">
        <ele>198</ele>
        <time>2022-03-21T10:26:28Z</time>
      </trkpt>
      <trkpt lat="47.08392" lon="5.14842">
        <ele>197.8</ele>
        <time>2022-03-21T10:26:29Z</time>
      </trkpt>
      <trkpt lat="47.08395" lon="5.1485">
        <ele>197.8</ele>
        <time>2022-03-21T10:26:30Z</time>
      </trkpt>
      <trkpt lat="47.08399" lon="5.14858">
        <ele>197.8</ele>
        <time>2022-03-21T10:26:31Z</time>
      </trkpt>
      <trkpt lat="47.08402" lon="5.14866">
        <ele>197.6</ele>
        <time>2022-03-21T10:26:32Z</time>
      </trkpt>
      <trkpt lat="47.08406" lon="5.14875">
        <ele>197.6</ele>
        <time>2022-03-21T10:26:33Z</time>
      </trkpt>
      <trkpt lat="47.0841" lon="5.14884">
        <ele>197.6</ele>
        <time>2022-03-21T10:26:34Z</time>
      </trkpt>
      <trkpt lat="47.08414" lon="5.14892">
        <ele>197.6</ele>
        <time>2022-03-21T10:26:35Z</time>
      </trkpt>
      <trkpt lat="47.08418" lon="5.149">
        <ele>197.6</ele>
        <time>2022-03-21T10:26:36Z</time>
      </trkpt>
      <trkpt lat="47.08422" lon="5.14909">
        <ele>197.2</ele>
        <time>2022-03-21T10:26:37Z</time>
      </trkpt>
      <trkpt lat="47.08427" lon="5.14917">
        <ele>197.2</ele>
        <time>2022-03-21T10:26:38Z</time>
      </trkpt>
      <trkpt lat="47.08431" lon="5.14926">
        <ele>197.2</ele>
        <time>2022-03-21T10:26:39Z</time>
      </trkpt>
      <trkpt lat="47.08436" lon="5.14935">
        <ele>197</ele>
        <time>2022-03-21T10:26:40Z</time>
      </trkpt>
      <trkpt lat="47.0844" lon="5.14944">
        <ele>197</ele>
        <time>2022-03-21T10:26:41Z</time>
      </trkpt>
      <trkpt lat="47.08445" lon="5.14952">
        <ele>197</ele>
        <time>2022-03-21T10:26:42Z</time>
      </trkpt>
      <trkpt lat="47.08449" lon="5.14961">
        <ele>196.6</ele>
        <time>2022-03-21T10:26:43Z</time>
      </trkpt>
      <trkpt lat="47.08454" lon="5.1497">
        <ele>196.6</ele>
        <time>2022-03-21T10:26:44Z</time>
      </trkpt>
      <trkpt lat="47.08459" lon="5.14979">
        <ele>196.6</ele>
        <time>2022-03-21T10:26:45Z</time>
      </trkpt>
      <trkpt lat="47.08464" lon="5.14987">
        <ele>196.6</ele>
        <time>2022-03-21T10:26:46Z</time>
      </trkpt>
      <trkpt lat="47.08468" lon="5.14996">
        <ele>196.6</ele>
        <time>2022-03-21T10:26:47Z</time>
      </trkpt>
      <trkpt lat="47.08473" lon="5.15005">
        <ele>196.6</ele>
        <time>2022-03-21T10:26:48Z</time>
      </trkpt>
      <trkpt lat="47.08477" lon="5.15014">
        <ele>196.6</ele>
        <time>2022-03-21T10:26:49Z</time>
      </trkpt>
      <trkpt lat="47.08482" lon="5.15023">
        <ele>196.4</ele>
        <time>2022-03-21T10:26:50Z</time>
      </trkpt>
      <trkpt lat="47.08486" lon="5.15032">
        <ele>196.4</ele>
        <time>2022-03-21T10:26:51Z</time>
      </trkpt>
      <trkpt lat="47.08491" lon="5.15042">
        <ele>196.4</ele>
        <time>2022-03-21T10:26:52Z</time>
      </trkpt>
      <trkpt lat="47.08495" lon="5.15051">
        <ele>196.2</ele>
        <time>2022-03-21T10:26:53Z</time>
      </trkpt>
      <trkpt lat="47.085" lon="5.1506">
        <ele>196.2</ele>
        <time>2022-03-21T10:26:54Z</time>
      </trkpt>
      <trkpt lat="47.08504" lon="5.15069">
        <ele>196.2</ele>
        <time>2022-03-21T10:26:55Z</time>
      </trkpt>
      <trkpt lat="47.08509" lon="5.15078">
        <ele>196.2</ele>
        <time>2022-03-21T10:26:56Z</time>
      </trkpt>
      <trkpt lat="47.08513" lon="5.15087">
        <ele>196</ele>
        <time>2022-03-21T10:26:57Z</time>
      </trkpt>
      <trkpt lat="47.08518" lon="5.15096">
        <ele>196</ele>
        <time>2022-03-21T10:26:58Z</time>
      </trkpt>
      <trkpt lat="47.08522" lon="5.15105">
        <ele>195.6</ele>
        <time>2022-03-21T10:26:59Z</time>
      </trkpt>
      <trkpt lat="47.08527" lon="5.15114">
        <ele>195.6</ele>
        <time>2022-03-21T10:27:00Z</time>
      </trkpt>
      <trkpt lat="47.08531" lon="5.15124">
        <ele>195.6</ele>
        <time>2022-03-21T10:27:01Z</time>
      </trkpt>
      <trkpt lat="47.08536" lon="5.15133">
        <ele>195.4</ele>
        <time>2022-03-21T10:27:02Z</time>
      </trkpt>
      <trkpt lat="47.08541" lon="5.15142">
        <ele>195.4</ele>
        <time>2022-03-21T10:27:03Z</time>
      </trkpt>
      <trkpt lat="47.08545" lon="5.15151">
        <ele>195.4</ele>
        <time>2022-03-21T10:27:04Z</time>
      </trkpt>
      <trkpt lat="47.08549" lon="5.1516">
        <ele>195.4</ele>
        <time>2022-03-21T10:27:05Z</time>
      </trkpt>
      <trkpt lat="47.08554" lon="5.1517">
        <ele>195.4</ele>
        <time>2022-03-21T10:27:06Z</time>
      </trkpt>
      <trkpt lat="47.08558" lon="5.15179">
        <ele>195.2</ele>
        <time>2022-03-21T10:27:07Z</time>
      </trkpt>
      <trkpt lat="47.08562" lon="5.15189">
        <ele>195.2</ele>
        <time>2022-03-21T10:27:08Z</time>
      </trkpt>
      <trkpt lat="47.08566" lon="5.15199">
        <ele>195.2</ele>
        <time>2022-03-21T10:27:09Z</time>
      </trkpt>
      <trkpt lat="47.08569" lon="5.1521">
        <ele>195.2</ele>
        <time>2022-03-21T10:27:10Z</time>
      </trkpt>
      <trkpt lat="47.08572" lon="5.15221">
        <ele>195.2</ele>
        <time>2022-03-21T10:27:11Z</time>
      </trkpt>
      <trkpt lat="47.08574" lon="5.15232">
        <ele>195.2</ele>
        <time>2022-03-21T10:27:12Z</time>
      </trkpt>
      <trkpt lat="47.08577" lon="5.15243">
        <ele>195.2</ele>
        <time>2022-03-21T10:27:13Z</time>
      </trkpt>
      <trkpt lat="47.0858" lon="5.15254">
        <ele>194.8</ele>
        <time>2022-03-21T10:27:14Z</time>
      </trkpt>
      <trkpt lat="47.08582" lon="5.15266">
        <ele>194.6</ele>
        <time>2022-03-21T10:27:15Z</time>
      </trkpt>
      <trkpt lat="47.08585" lon="5.15278">
        <ele>194.6</ele>
        <time>2022-03-21T10:27:16Z</time>
      </trkpt>
      <trkpt lat="47.08588" lon="5.1529">
        <ele>194.4</ele>
        <time>2022-03-21T10:27:17Z</time>
      </trkpt>
      <trkpt lat="47.08591" lon="5.15302">
        <ele>194.4</ele>
        <time>2022-03-21T10:27:18Z</time>
      </trkpt>
      <trkpt lat="47.08594" lon="5.15314">
        <ele>194</ele>
        <time>2022-03-21T10:27:19Z</time>
      </trkpt>
      <trkpt lat="47.08597" lon="5.15327">
        <ele>194</ele>
        <time>2022-03-21T10:27:20Z</time>
      </trkpt>
      <trkpt lat="47.086" lon="5.15339">
        <ele>193.8</ele>
        <time>2022-03-21T10:27:21Z</time>
      </trkpt>
      <trkpt lat="47.08603" lon="5.15351">
        <ele>193.8</ele>
        <time>2022-03-21T10:27:22Z</time>
      </trkpt>
      <trkpt lat="47.08606" lon="5.15363">
        <ele>193.4</ele>
        <time>2022-03-21T10:27:23Z</time>
      </trkpt>
      <trkpt lat="47.08609" lon="5.15376">
        <ele>193.4</ele>
        <time>2022-03-21T10:27:24Z</time>
      </trkpt>
      <trkpt lat="47.08612" lon="5.15388">
        <ele>193.2</ele>
        <time>2022-03-21T10:27:25Z</time>
      </trkpt>
      <trkpt lat="47.08615" lon="5.154">
        <ele>193.2</ele>
        <time>2022-03-21T10:27:26Z</time>
      </trkpt>
      <trkpt lat="47.08618" lon="5.15413">
        <ele>193.2</ele>
        <time>2022-03-21T10:27:27Z</time>
      </trkpt>
      <trkpt lat="47.08621" lon="5.15425">
        <ele>193.2</ele>
        <time>2022-03-21T10:27:28Z</time>
      </trkpt>
      <trkpt lat="47.08624" lon="5.15437">
        <ele>192.8</ele>
        <time>2022-03-21T10:27:29Z</time>
      </trkpt>
      <trkpt lat="47.08627" lon="5.15449">
        <ele>192.8</ele>
        <time>2022-03-21T10:27:30Z</time>
      </trkpt>
      <trkpt lat="47.0863" lon="5.15461">
        <ele>192.8</ele>
        <time>2022-03-21T10:27:31Z</time>
      </trkpt>
      <trkpt lat="47.08633" lon="5.15473">
        <ele>192.8</ele>
        <time>2022-03-21T10:27:32Z</time>
      </trkpt>
      <trkpt lat="47.08636" lon="5.15485">
        <ele>192.8</ele>
        <time>2022-03-21T10:27:33Z</time>
      </trkpt>
      <trkpt lat="47.08638" lon="5.15496">
        <ele>192.8</ele>
        <time>2022-03-21T10:27:34Z</time>
      </trkpt>
      <trkpt lat="47.08641" lon="5.15508">
        <ele>192.8</ele>
        <time>2022-03-21T10:27:35Z</time>
      </trkpt>
      <trkpt lat="47.08644" lon="5.1552">
        <ele>192.8</ele>
        <time>2022-03-21T10:27:36Z</time>
      </trkpt>
      <trkpt lat="47.08647" lon="5.15531">
        <ele>192.6</ele>
        <time>2022-03-21T10:27:37Z</time>
      </trkpt>
      <trkpt lat="47.0865" lon="5.15543">
        <ele>192.6</ele>
        <time>2022-03-21T10:27:38Z</time>
      </trkpt>
      <trkpt lat="47.08652" lon="5.15555">
        <ele>192.6</ele>
        <time>2022-03-21T10:27:39Z</time>
      </trkpt>
      <trkpt lat="47.08655" lon="5.15566">
        <ele>192.6</ele>
        <time>2022-03-21T10:27:40Z</time>
      </trkpt>
      <trkpt lat="47.08658" lon="5.15578">
        <ele>192.6</ele>
        <time>2022-03-21T10:27:41Z</time>
      </trkpt>
      <trkpt lat="47.08662" lon="5.15595">
        <ele>192.4</ele>
        <time>2022-03-21T10:27:42Z</time>
      </trkpt>
      <trkpt lat="47.08664" lon="5.15601">
        <ele>192.4</ele>
        <time>2022-03-21T10:27:43Z</time>
      </trkpt>
      <trkpt lat="47.08667" lon="5.15612">
        <ele>192.4</ele>
        <time>2022-03-21T10:27:44Z</time>
      </trkpt>
      <trkpt lat="47.08669" lon="5.15623">
        <ele>192</ele>
        <time>2022-03-21T10:27:45Z</time>
      </trkpt>
      <trkpt lat="47.08672" lon="5.15634">
        <ele>192</ele>
        <time>2022-03-21T10:27:46Z</time>
      </trkpt>
      <trkpt lat="47.08674" lon="5.15646">
        <ele>191.8</ele>
        <time>2022-03-21T10:27:47Z</time>
      </trkpt>
      <trkpt lat="47.08677" lon="5.15657">
        <ele>191.8</ele>
        <time>2022-03-21T10:27:48Z</time>
      </trkpt>
      <trkpt lat="47.0868" lon="5.15668">
        <ele>191.6</ele>
        <time>2022-03-21T10:27:49Z</time>
      </trkpt>
      <trkpt lat="47.08682" lon="5.15679">
        <ele>191.6</ele>
        <time>2022-03-21T10:27:50Z</time>
      </trkpt>
      <trkpt lat="47.08685" lon="5.1569">
        <ele>191.4</ele>
        <time>2022-03-21T10:27:51Z</time>
      </trkpt>
      <trkpt lat="47.08688" lon="5.15701">
        <ele>191.4</ele>
        <time>2022-03-21T10:27:52Z</time>
      </trkpt>
      <trkpt lat="47.08691" lon="5.15711">
        <ele>191</ele>
        <time>2022-03-21T10:27:53Z</time>
      </trkpt>
      <trkpt lat="47.08694" lon="5.15722">
        <ele>191</ele>
        <time>2022-03-21T10:27:54Z</time>
      </trkpt>
      <trkpt lat="47.08696" lon="5.15733">
        <ele>190.8</ele>
        <time>2022-03-21T10:27:55Z</time>
      </trkpt>
      <trkpt lat="47.08699" lon="5.15744">
        <ele>190.8</ele>
        <time>2022-03-21T10:27:56Z</time>
      </trkpt>
      <trkpt lat="47.08701" lon="5.15756">
        <ele>190.6</ele>
        <time>2022-03-21T10:27:57Z</time>
      </trkpt>
      <trkpt lat="47.08704" lon="5.15767">
        <ele>190.6</ele>
        <time>2022-03-21T10:27:58Z</time>
      </trkpt>
      <trkpt lat="47.08707" lon="5.15778">
        <ele>190.4</ele>
        <time>2022-03-21T10:27:59Z</time>
      </trkpt>
      <trkpt lat="47.0871" lon="5.15789">
        <ele>190.4</ele>
        <time>2022-03-21T10:28:00Z</time>
      </trkpt>
      <trkpt lat="47.08713" lon="5.158">
        <ele>190.4</ele>
        <time>2022-03-21T10:28:01Z</time>
      </trkpt>
      <trkpt lat="47.08715" lon="5.15812">
        <ele>190.4</ele>
        <time>2022-03-21T10:28:02Z</time>
      </trkpt>
      <trkpt lat="47.08718" lon="5.15823">
        <ele>190.4</ele>
        <time>2022-03-21T10:28:03Z</time>
      </trkpt>
      <trkpt lat="47.08721" lon="5.15834">
        <ele>190</ele>
        <time>2022-03-21T10:28:04Z</time>
      </trkpt>
      <trkpt lat="47.08724" lon="5.15845">
        <ele>190</ele>
        <time>2022-03-21T10:28:05Z</time>
      </trkpt>
      <trkpt lat="47.08726" lon="5.15856">
        <ele>190</ele>
        <time>2022-03-21T10:28:06Z</time>
      </trkpt>
      <trkpt lat="47.08729" lon="5.15867">
        <ele>190</ele>
        <time>2022-03-21T10:28:07Z</time>
      </trkpt>
      <trkpt lat="47.08732" lon="5.15878">
        <ele>190</ele>
        <time>2022-03-21T10:28:08Z</time>
      </trkpt>
      <trkpt lat="47.08734" lon="5.15889">
        <ele>190</ele>
        <time>2022-03-21T10:28:09Z</time>
      </trkpt>
      <trkpt lat="47.08737" lon="5.159">
        <ele>190</ele>
        <time>2022-03-21T10:28:10Z</time>
      </trkpt>
      <trkpt lat="47.0874" lon="5.15911">
        <ele>190</ele>
        <time>2022-03-21T10:28:11Z</time>
      </trkpt>
      <trkpt lat="47.08743" lon="5.15922">
        <ele>190</ele>
        <time>2022-03-21T10:28:12Z</time>
      </trkpt>
      <trkpt lat="47.08745" lon="5.15933">
        <ele>190</ele>
        <time>2022-03-21T10:28:13Z</time>
      </trkpt>
      <trkpt lat="47.08748" lon="5.15944">
        <ele>190</ele>
        <time>2022-03-21T10:28:14Z</time>
      </trkpt>
      <trkpt lat="47.08751" lon="5.15954">
        <ele>190</ele>
        <time>2022-03-21T10:28:15Z</time>
      </trkpt>
      <trkpt lat="47.08754" lon="5.15965">
        <ele>190</ele>
        <time>2022-03-21T10:28:16Z</time>
      </trkpt>
      <trkpt lat="47.08757" lon="5.15976">
        <ele>190</ele>
        <time>2022-03-21T10:28:17Z</time>
      </trkpt>
      <trkpt lat="47.0876" lon="5.15986">
        <ele>190</ele>
        <time>2022-03-21T10:28:18Z</time>
      </trkpt>
      <trkpt lat="47.08763" lon="5.15996">
        <ele>190</ele>
        <time>2022-03-21T10:28:19Z</time>
      </trkpt>
      <trkpt lat="47.08765" lon="5.16007">
        <ele>190</ele>
        <time>2022-03-21T10:28:20Z</time>
      </trkpt>
      <trkpt lat="47.08768" lon="5.16017">
        <ele>190</ele>
        <time>2022-03-21T10:28:21Z</time>
      </trkpt>
      <trkpt lat="47.08771" lon="5.16028">
        <ele>190</ele>
        <time>2022-03-21T10:28:22Z</time>
      </trkpt>
      <trkpt lat="47.08774" lon="5.16038">
        <ele>190</ele>
        <time>2022-03-21T10:28:23Z</time>
      </trkpt>
      <trkpt lat="47.08777" lon="5.16049">
        <ele>190</ele>
        <time>2022-03-21T10:28:24Z</time>
      </trkpt>
      <trkpt lat="47.0878" lon="5.16059">
        <ele>190</ele>
        <time>2022-03-21T10:28:25Z</time>
      </trkpt>
      <trkpt lat="47.08783" lon="5.1607">
        <ele>189.8</ele>
        <time>2022-03-21T10:28:26Z</time>
      </trkpt>
      <trkpt lat="47.08786" lon="5.1608">
        <ele>189.8</ele>
        <time>2022-03-21T10:28:27Z</time>
      </trkpt>
      <trkpt lat="47.08789" lon="5.16091">
        <ele>189.8</ele>
        <time>2022-03-21T10:28:28Z</time>
      </trkpt>
      <trkpt lat="47.08792" lon="5.16102">
        <ele>189.8</ele>
        <time>2022-03-21T10:28:29Z</time>
      </trkpt>
      <trkpt lat="47.08795" lon="5.16113">
        <ele>189.8</ele>
        <time>2022-03-21T10:28:30Z</time>
      </trkpt>
      <trkpt lat="47.08798" lon="5.16123">
        <ele>189.6</ele>
        <time>2022-03-21T10:28:31Z</time>
      </trkpt>
      <trkpt lat="47.08801" lon="5.16131">
        <ele>189.6</ele>
        <time>2022-03-21T10:28:32Z</time>
      </trkpt>
      <trkpt lat="47.08802" lon="5.16137">
        <ele>189.2</ele>
        <time>2022-03-21T10:28:33Z</time>
      </trkpt>
      <trkpt lat="47.08802" lon="5.16142">
        <ele>189.2</ele>
        <time>2022-03-21T10:28:34Z</time>
      </trkpt>
      <trkpt lat="47.088" lon="5.16146">
        <ele>189</ele>
        <time>2022-03-21T10:28:35Z</time>
      </trkpt>
      <trkpt lat="47.08798" lon="5.16149">
        <ele>189</ele>
        <time>2022-03-21T10:28:36Z</time>
      </trkpt>
      <trkpt lat="47.08795" lon="5.16151">
        <ele>189</ele>
        <time>2022-03-21T10:28:37Z</time>
      </trkpt>
      <trkpt lat="47.08791" lon="5.16154">
        <ele>188.8</ele>
        <time>2022-03-21T10:28:38Z</time>
      </trkpt>
      <trkpt lat="47.08787" lon="5.16156">
        <ele>188.8</ele>
        <time>2022-03-21T10:28:39Z</time>
      </trkpt>
      <trkpt lat="47.08783" lon="5.16159">
        <ele>188.8</ele>
        <time>2022-03-21T10:28:40Z</time>
      </trkpt>
      <trkpt lat="47.08778" lon="5.16161">
        <ele>188.8</ele>
        <time>2022-03-21T10:28:41Z</time>
      </trkpt>
      <trkpt lat="47.08774" lon="5.16164">
        <ele>188.4</ele>
        <time>2022-03-21T10:28:42Z</time>
      </trkpt>
      <trkpt lat="47.08768" lon="5.16168">
        <ele>188.4</ele>
        <time>2022-03-21T10:28:43Z</time>
      </trkpt>
      <trkpt lat="47.08763" lon="5.16171">
        <ele>188.4</ele>
        <time>2022-03-21T10:28:44Z</time>
      </trkpt>
      <trkpt lat="47.08757" lon="5.16174">
        <ele>188.4</ele>
        <time>2022-03-21T10:28:45Z</time>
      </trkpt>
      <trkpt lat="47.08751" lon="5.16177">
        <ele>188.4</ele>
        <time>2022-03-21T10:28:46Z</time>
      </trkpt>
      <trkpt lat="47.08745" lon="5.16181">
        <ele>188.2</ele>
        <time>2022-03-21T10:28:47Z</time>
      </trkpt>
      <trkpt lat="47.08739" lon="5.16185">
        <ele>188.2</ele>
        <time>2022-03-21T10:28:48Z</time>
      </trkpt>
      <trkpt lat="47.08732" lon="5.1619">
        <ele>188.2</ele>
        <time>2022-03-21T10:28:49Z</time>
      </trkpt>
      <trkpt lat="47.08726" lon="5.16194">
        <ele>188.2</ele>
        <time>2022-03-21T10:28:50Z</time>
      </trkpt>
      <trkpt lat="47.08719" lon="5.16198">
        <ele>188</ele>
        <time>2022-03-21T10:28:51Z</time>
      </trkpt>
      <trkpt lat="47.08713" lon="5.16202">
        <ele>188</ele>
        <time>2022-03-21T10:28:52Z</time>
      </trkpt>
      <trkpt lat="47.08706" lon="5.16206">
        <ele>187.8</ele>
        <time>2022-03-21T10:28:53Z</time>
      </trkpt>
      <trkpt lat="47.08699" lon="5.1621">
        <ele>187.8</ele>
        <time>2022-03-21T10:28:54Z</time>
      </trkpt>
      <trkpt lat="47.08692" lon="5.16214">
        <ele>187.4</ele>
        <time>2022-03-21T10:28:55Z</time>
      </trkpt>
      <trkpt lat="47.08685" lon="5.16218">
        <ele>187.2</ele>
        <time>2022-03-21T10:28:56Z</time>
      </trkpt>
      <trkpt lat="47.08679" lon="5.16222">
        <ele>187</ele>
        <time>2022-03-21T10:28:57Z</time>
      </trkpt>
      <trkpt lat="47.08672" lon="5.16227">
        <ele>187</ele>
        <time>2022-03-21T10:28:58Z</time>
      </trkpt>
      <trkpt lat="47.08665" lon="5.16231">
        <ele>186.6</ele>
        <time>2022-03-21T10:28:59Z</time>
      </trkpt>
      <trkpt lat="47.08658" lon="5.16235">
        <ele>186.6</ele>
        <time>2022-03-21T10:29:00Z</time>
      </trkpt>
      <trkpt lat="47.08652" lon="5.1624">
        <ele>186.6</ele>
        <time>2022-03-21T10:29:01Z</time>
      </trkpt>
      <trkpt lat="47.08645" lon="5.16244">
        <ele>186.4</ele>
        <time>2022-03-21T10:29:02Z</time>
      </trkpt>
      <trkpt lat="47.08639" lon="5.16248">
        <ele>186.4</ele>
        <time>2022-03-21T10:29:03Z</time>
      </trkpt>
      <trkpt lat="47.08633" lon="5.16251">
        <ele>186.4</ele>
        <time>2022-03-21T10:29:04Z</time>
      </trkpt>
      <trkpt lat="47.08628" lon="5.16254">
        <ele>186.4</ele>
        <time>2022-03-21T10:29:05Z</time>
      </trkpt>
      <trkpt lat="47.08623" lon="5.16257">
        <ele>186</ele>
        <time>2022-03-21T10:29:06Z</time>
      </trkpt>
      <trkpt lat="47.08619" lon="5.16259">
        <ele>186</ele>
        <time>2022-03-21T10:29:07Z</time>
      </trkpt>
      <trkpt lat="47.08616" lon="5.16262">
        <ele>185.8</ele>
        <time>2022-03-21T10:29:08Z</time>
      </trkpt>
      <trkpt lat="47.08613" lon="5.16265">
        <ele>185.8</ele>
        <time>2022-03-21T10:29:09Z</time>
      </trkpt>
      <trkpt lat="47.08611" lon="5.16269">
        <ele>185.6</ele>
        <time>2022-03-21T10:29:10Z</time>
      </trkpt>
      <trkpt lat="47.0861" lon="5.16274">
        <ele>185.6</ele>
        <time>2022-03-21T10:29:11Z</time>
      </trkpt>
      <trkpt lat="47.0861" lon="5.16279">
        <ele>185.6</ele>
        <time>2022-03-21T10:29:12Z</time>
      </trkpt>
      <trkpt lat="47.0861" lon="5.16286">
        <ele>185.6</ele>
        <time>2022-03-21T10:29:13Z</time>
      </trkpt>
      <trkpt lat="47.08611" lon="5.16292">
        <ele>185.6</ele>
        <time>2022-03-21T10:29:14Z</time>
      </trkpt>
      <trkpt lat="47.08612" lon="5.16299">
        <ele>185.6</ele>
        <time>2022-03-21T10:29:15Z</time>
      </trkpt>
      <trkpt lat="47.08612" lon="5.16306">
        <ele>185.6</ele>
        <time>2022-03-21T10:29:16Z</time>
      </trkpt>
      <trkpt lat="47.08613" lon="5.16312">
        <ele>185.6</ele>
        <time>2022-03-21T10:29:17Z</time>
      </trkpt>
      <trkpt lat="47.08613" lon="5.16319">
        <ele>185.6</ele>
        <time>2022-03-21T10:29:18Z</time>
      </trkpt>
      <trkpt lat="47.08614" lon="5.16326">
        <ele>185.6</ele>
        <time>2022-03-21T10:29:19Z</time>
      </trkpt>
      <trkpt lat="47.08614" lon="5.16333">
        <ele>185.6</ele>
        <time>2022-03-21T10:29:20Z</time>
      </trkpt>
      <trkpt lat="47.08615" lon="5.1634">
        <ele>185.6</ele>
        <time>2022-03-21T10:29:21Z</time>
      </trkpt>
      <trkpt lat="47.08616" lon="5.16347">
        <ele>185.6</ele>
        <time>2022-03-21T10:29:22Z</time>
      </trkpt>
      <trkpt lat="47.08617" lon="5.16353">
        <ele>185.6</ele>
        <time>2022-03-21T10:29:23Z</time>
      </trkpt>
      <trkpt lat="47.08617" lon="5.16359">
        <ele>185.6</ele>
        <time>2022-03-21T10:29:24Z</time>
      </trkpt>
      <trkpt lat="47.08615" lon="5.16365">
        <ele>185.6</ele>
        <time>2022-03-21T10:29:25Z</time>
      </trkpt>
      <trkpt lat="47.08608" lon="5.16371">
        <ele>185.6</ele>
        <time>2022-03-21T10:29:26Z</time>
      </trkpt>
      <trkpt lat="47.08604" lon="5.16372">
        <ele>185.6</ele>
        <time>2022-03-21T10:29:27Z</time>
      </trkpt>
      <trkpt lat="47.08597" lon="5.16375">
        <ele>185.6</ele>
        <time>2022-03-21T10:29:28Z</time>
      </trkpt>
      <trkpt lat="47.08591" lon="5.16375">
        <ele>185.6</ele>
        <time>2022-03-21T10:29:29Z</time>
      </trkpt>
      <trkpt lat="47.08586" lon="5.16375">
        <ele>185.6</ele>
        <time>2022-03-21T10:29:30Z</time>
      </trkpt>
      <trkpt lat="47.0858" lon="5.16376">
        <ele>185.6</ele>
        <time>2022-03-21T10:29:31Z</time>
      </trkpt>
      <trkpt lat="47.08574" lon="5.16377">
        <ele>185.6</ele>
        <time>2022-03-21T10:29:32Z</time>
      </trkpt>
      <trkpt lat="47.08568" lon="5.16378">
        <ele>185.6</ele>
        <time>2022-03-21T10:29:33Z</time>
      </trkpt>
      <trkpt lat="47.08562" lon="5.16378">
        <ele>185.6</ele>
        <time>2022-03-21T10:29:34Z</time>
      </trkpt>
      <trkpt lat="47.08556" lon="5.16378">
        <ele>185.6</ele>
        <time>2022-03-21T10:29:35Z</time>
      </trkpt>
      <trkpt lat="47.0855" lon="5.16379">
        <ele>185.6</ele>
        <time>2022-03-21T10:29:36Z</time>
      </trkpt>
      <trkpt lat="47.08544" lon="5.1638">
        <ele>185.6</ele>
        <time>2022-03-21T10:29:37Z</time>
      </trkpt>
      <trkpt lat="47.08537" lon="5.16381">
        <ele>185.6</ele>
        <time>2022-03-21T10:29:38Z</time>
      </trkpt>
      <trkpt lat="47.08531" lon="5.16382">
        <ele>185.6</ele>
        <time>2022-03-21T10:29:39Z</time>
      </trkpt>
      <trkpt lat="47.08524" lon="5.16384">
        <ele>185.6</ele>
        <time>2022-03-21T10:29:40Z</time>
      </trkpt>
      <trkpt lat="47.08518" lon="5.16385">
        <ele>185.4</ele>
        <time>2022-03-21T10:29:41Z</time>
      </trkpt>
      <trkpt lat="47.08511" lon="5.16386">
        <ele>185.4</ele>
        <time>2022-03-21T10:29:42Z</time>
      </trkpt>
      <trkpt lat="47.08504" lon="5.16388">
        <ele>185.4</ele>
        <time>2022-03-21T10:29:43Z</time>
      </trkpt>
      <trkpt lat="47.08497" lon="5.16389">
        <ele>185.4</ele>
        <time>2022-03-21T10:29:44Z</time>
      </trkpt>
      <trkpt lat="47.08491" lon="5.16391">
        <ele>185.4</ele>
        <time>2022-03-21T10:29:45Z</time>
      </trkpt>
      <trkpt lat="47.08484" lon="5.16392">
        <ele>185.4</ele>
        <time>2022-03-21T10:29:46Z</time>
      </trkpt>
      <trkpt lat="47.08477" lon="5.16394">
        <ele>185.4</ele>
        <time>2022-03-21T10:29:47Z</time>
      </trkpt>
      <trkpt lat="47.0847" lon="5.16395">
        <ele>185.4</ele>
        <time>2022-03-21T10:29:48Z</time>
      </trkpt>
      <trkpt lat="47.08463" lon="5.16397">
        <ele>185.4</ele>
        <time>2022-03-21T10:29:49Z</time>
      </trkpt>
      <trkpt lat="47.08456" lon="5.16399">
        <ele>185.4</ele>
        <time>2022-03-21T10:29:50Z</time>
      </trkpt>
      <trkpt lat="47.08449" lon="5.16402">
        <ele>185.4</ele>
        <time>2022-03-21T10:29:51Z</time>
      </trkpt>
      <trkpt lat="47.08442" lon="5.16404">
        <ele>185.4</ele>
        <time>2022-03-21T10:29:52Z</time>
      </trkpt>
      <trkpt lat="47.08438" lon="5.16406">
        <ele>185.4</ele>
        <time>2022-03-21T10:29:53Z</time>
      </trkpt>
      <trkpt lat="47.08435" lon="5.16408">
        <ele>185.2</ele>
        <time>2022-03-21T10:29:54Z</time>
      </trkpt>
      <trkpt lat="47.08428" lon="5.16411">
        <ele>185.2</ele>
        <time>2022-03-21T10:29:55Z</time>
      </trkpt>
      <trkpt lat="47.08421" lon="5.16415">
        <ele>185.2</ele>
        <time>2022-03-21T10:29:56Z</time>
      </trkpt>
      <trkpt lat="47.08414" lon="5.16419">
        <ele>185.2</ele>
        <time>2022-03-21T10:29:57Z</time>
      </trkpt>
      <trkpt lat="47.08407" lon="5.16424">
        <ele>185.2</ele>
        <time>2022-03-21T10:29:58Z</time>
      </trkpt>
      <trkpt lat="47.08401" lon="5.16429">
        <ele>185.2</ele>
        <time>2022-03-21T10:29:59Z</time>
      </trkpt>
      <trkpt lat="47.08394" lon="5.16433">
        <ele>185.2</ele>
        <time>2022-03-21T10:30:00Z</time>
      </trkpt>
      <trkpt lat="47.08388" lon="5.16438">
        <ele>185</ele>
        <time>2022-03-21T10:30:01Z</time>
      </trkpt>
      <trkpt lat="47.08381" lon="5.16442">
        <ele>185</ele>
        <time>2022-03-21T10:30:02Z</time>
      </trkpt>
      <trkpt lat="47.08371" lon="5.16448">
        <ele>185</ele>
        <time>2022-03-21T10:30:03Z</time>
      </trkpt>
      <trkpt lat="47.08368" lon="5.1645">
        <ele>185</ele>
        <time>2022-03-21T10:30:04Z</time>
      </trkpt>
      <trkpt lat="47.08361" lon="5.16455">
        <ele>185</ele>
        <time>2022-03-21T10:30:05Z</time>
      </trkpt>
      <trkpt lat="47.08355" lon="5.16459">
        <ele>185</ele>
        <time>2022-03-21T10:30:06Z</time>
      </trkpt>
      <trkpt lat="47.08348" lon="5.16464">
        <ele>185.2</ele>
        <time>2022-03-21T10:30:07Z</time>
      </trkpt>
      <trkpt lat="47.08342" lon="5.16468">
        <ele>185.2</ele>
        <time>2022-03-21T10:30:08Z</time>
      </trkpt>
      <trkpt lat="47.08335" lon="5.16472">
        <ele>185.2</ele>
        <time>2022-03-21T10:30:09Z</time>
      </trkpt>
      <trkpt lat="47.08328" lon="5.16476">
        <ele>185.2</ele>
        <time>2022-03-21T10:30:10Z</time>
      </trkpt>
      <trkpt lat="47.08321" lon="5.1648">
        <ele>185.2</ele>
        <time>2022-03-21T10:30:11Z</time>
      </trkpt>
      <trkpt lat="47.08314" lon="5.16484">
        <ele>185.2</ele>
        <time>2022-03-21T10:30:12Z</time>
      </trkpt>
      <trkpt lat="47.08307" lon="5.16489">
        <ele>185.2</ele>
        <time>2022-03-21T10:30:13Z</time>
      </trkpt>
      <trkpt lat="47.08301" lon="5.16493">
        <ele>185.2</ele>
        <time>2022-03-21T10:30:14Z</time>
      </trkpt>
      <trkpt lat="47.08294" lon="5.16498">
        <ele>185.2</ele>
        <time>2022-03-21T10:30:15Z</time>
      </trkpt>
      <trkpt lat="47.08287" lon="5.16502">
        <ele>185.2</ele>
        <time>2022-03-21T10:30:16Z</time>
      </trkpt>
      <trkpt lat="47.0828" lon="5.16506">
        <ele>185.2</ele>
        <time>2022-03-21T10:30:17Z</time>
      </trkpt>
      <trkpt lat="47.08272" lon="5.16509">
        <ele>185.2</ele>
        <time>2022-03-21T10:30:18Z</time>
      </trkpt>
      <trkpt lat="47.08265" lon="5.16513">
        <ele>185.2</ele>
        <time>2022-03-21T10:30:19Z</time>
      </trkpt>
      <trkpt lat="47.08258" lon="5.16516">
        <ele>185.2</ele>
        <time>2022-03-21T10:30:20Z</time>
      </trkpt>
      <trkpt lat="47.08251" lon="5.16519">
        <ele>185.2</ele>
        <time>2022-03-21T10:30:21Z</time>
      </trkpt>
      <trkpt lat="47.08244" lon="5.16522">
        <ele>185.2</ele>
        <time>2022-03-21T10:30:22Z</time>
      </trkpt>
      <trkpt lat="47.08237" lon="5.16525">
        <ele>185.2</ele>
        <time>2022-03-21T10:30:23Z</time>
      </trkpt>
      <trkpt lat="47.0823" lon="5.16527">
        <ele>185.2</ele>
        <time>2022-03-21T10:30:24Z</time>
      </trkpt>
      <trkpt lat="47.08222" lon="5.1653">
        <ele>185.2</ele>
        <time>2022-03-21T10:30:25Z</time>
      </trkpt>
      <trkpt lat="47.08215" lon="5.16532">
        <ele>185.2</ele>
        <time>2022-03-21T10:30:26Z</time>
      </trkpt>
      <trkpt lat="47.08208" lon="5.16535">
        <ele>185.2</ele>
        <time>2022-03-21T10:30:27Z</time>
      </trkpt>
      <trkpt lat="47.08201" lon="5.16537">
        <ele>185.2</ele>
        <time>2022-03-21T10:30:28Z</time>
      </trkpt>
      <trkpt lat="47.08193" lon="5.1654">
        <ele>185.2</ele>
        <time>2022-03-21T10:30:29Z</time>
      </trkpt>
      <trkpt lat="47.08186" lon="5.16542">
        <ele>185.2</ele>
        <time>2022-03-21T10:30:30Z</time>
      </trkpt>
      <trkpt lat="47.08179" lon="5.16545">
        <ele>185.2</ele>
        <time>2022-03-21T10:30:31Z</time>
      </trkpt>
      <trkpt lat="47.08172" lon="5.16548">
        <ele>185.2</ele>
        <time>2022-03-21T10:30:32Z</time>
      </trkpt>
      <trkpt lat="47.08165" lon="5.16551">
        <ele>185.2</ele>
        <time>2022-03-21T10:30:33Z</time>
      </trkpt>
      <trkpt lat="47.08158" lon="5.16553">
        <ele>185.2</ele>
        <time>2022-03-21T10:30:34Z</time>
      </trkpt>
      <trkpt lat="47.08151" lon="5.16556">
        <ele>185.2</ele>
        <time>2022-03-21T10:30:35Z</time>
      </trkpt>
      <trkpt lat="47.08144" lon="5.16559">
        <ele>185.2</ele>
        <time>2022-03-21T10:30:36Z</time>
      </trkpt>
      <trkpt lat="47.08137" lon="5.16562">
        <ele>185.2</ele>
        <time>2022-03-21T10:30:37Z</time>
      </trkpt>
      <trkpt lat="47.0813" lon="5.16565">
        <ele>185.2</ele>
        <time>2022-03-21T10:30:38Z</time>
      </trkpt>
      <trkpt lat="47.08123" lon="5.16567">
        <ele>185.2</ele>
        <time>2022-03-21T10:30:39Z</time>
      </trkpt>
      <trkpt lat="47.08116" lon="5.1657">
        <ele>185.2</ele>
        <time>2022-03-21T10:30:40Z</time>
      </trkpt>
      <trkpt lat="47.08109" lon="5.16572">
        <ele>185</ele>
        <time>2022-03-21T10:30:41Z</time>
      </trkpt>
      <trkpt lat="47.08102" lon="5.16575">
        <ele>185</ele>
        <time>2022-03-21T10:30:42Z</time>
      </trkpt>
      <trkpt lat="47.08095" lon="5.16577">
        <ele>185</ele>
        <time>2022-03-21T10:30:43Z</time>
      </trkpt>
      <trkpt lat="47.08088" lon="5.1658">
        <ele>185</ele>
        <time>2022-03-21T10:30:44Z</time>
      </trkpt>
      <trkpt lat="47.08081" lon="5.16582">
        <ele>185</ele>
        <time>2022-03-21T10:30:45Z</time>
      </trkpt>
      <trkpt lat="47.08074" lon="5.16584">
        <ele>185</ele>
        <time>2022-03-21T10:30:46Z</time>
      </trkpt>
      <trkpt lat="47.08068" lon="5.16587">
        <ele>185.2</ele>
        <time>2022-03-21T10:30:47Z</time>
      </trkpt>
      <trkpt lat="47.08061" lon="5.16589">
        <ele>185.2</ele>
        <time>2022-03-21T10:30:48Z</time>
      </trkpt>
      <trkpt lat="47.08054" lon="5.16592">
        <ele>185.2</ele>
        <time>2022-03-21T10:30:49Z</time>
      </trkpt>
      <trkpt lat="47.08047" lon="5.16594">
        <ele>185.2</ele>
        <time>2022-03-21T10:30:50Z</time>
      </trkpt>
      <trkpt lat="47.0804" lon="5.16597">
        <ele>185.2</ele>
        <time>2022-03-21T10:30:51Z</time>
      </trkpt>
      <trkpt lat="47.08033" lon="5.16599">
        <ele>185.4</ele>
        <time>2022-03-21T10:30:52Z</time>
      </trkpt>
      <trkpt lat="47.08027" lon="5.16602">
        <ele>185.4</ele>
        <time>2022-03-21T10:30:53Z</time>
      </trkpt>
      <trkpt lat="47.0802" lon="5.16604">
        <ele>185.4</ele>
        <time>2022-03-21T10:30:54Z</time>
      </trkpt>
      <trkpt lat="47.08013" lon="5.16607">
        <ele>185.4</ele>
        <time>2022-03-21T10:30:55Z</time>
      </trkpt>
      <trkpt lat="47.08006" lon="5.16609">
        <ele>185.8</ele>
        <time>2022-03-21T10:30:56Z</time>
      </trkpt>
      <trkpt lat="47.08" lon="5.16611">
        <ele>185.8</ele>
        <time>2022-03-21T10:30:57Z</time>
      </trkpt>
      <trkpt lat="47.07993" lon="5.16614">
        <ele>185.8</ele>
        <time>2022-03-21T10:30:58Z</time>
      </trkpt>
      <trkpt lat="47.07986" lon="5.16616">
        <ele>185.8</ele>
        <time>2022-03-21T10:30:59Z</time>
      </trkpt>
      <trkpt lat="47.07979" lon="5.16619">
        <ele>186</ele>
        <time>2022-03-21T10:31:00Z</time>
      </trkpt>
      <trkpt lat="47.07973" lon="5.16621">
        <ele>186.4</ele>
        <time>2022-03-21T10:31:01Z</time>
      </trkpt>
      <trkpt lat="47.07966" lon="5.16624">
        <ele>186.4</ele>
        <time>2022-03-21T10:31:02Z</time>
      </trkpt>
      <trkpt lat="47.0796" lon="5.16626">
        <ele>186.6</ele>
        <time>2022-03-21T10:31:03Z</time>
      </trkpt>
      <trkpt lat="47.07953" lon="5.16628">
        <ele>186.6</ele>
        <time>2022-03-21T10:31:04Z</time>
      </trkpt>
      <trkpt lat="47.07947" lon="5.1663">
        <ele>187</ele>
        <time>2022-03-21T10:31:05Z</time>
      </trkpt>
      <trkpt lat="47.07941" lon="5.16632">
        <ele>187</ele>
        <time>2022-03-21T10:31:06Z</time>
      </trkpt>
      <trkpt lat="47.07934" lon="5.16634">
        <ele>187</ele>
        <time>2022-03-21T10:31:07Z</time>
      </trkpt>
      <trkpt lat="47.07928" lon="5.16636">
        <ele>187</ele>
        <time>2022-03-21T10:31:08Z</time>
      </trkpt>
      <trkpt lat="47.07918" lon="5.16639">
        <ele>187</ele>
        <time>2022-03-21T10:31:09Z</time>
      </trkpt>
      <trkpt lat="47.07915" lon="5.1664">
        <ele>187</ele>
        <time>2022-03-21T10:31:10Z</time>
      </trkpt>
      <trkpt lat="47.07909" lon="5.16641">
        <ele>187</ele>
        <time>2022-03-21T10:31:11Z</time>
      </trkpt>
      <trkpt lat="47.07902" lon="5.16643">
        <ele>187</ele>
        <time>2022-03-21T10:31:12Z</time>
      </trkpt>
      <trkpt lat="47.07895" lon="5.16644">
        <ele>186.6</ele>
        <time>2022-03-21T10:31:13Z</time>
      </trkpt>
      <trkpt lat="47.07888" lon="5.16646">
        <ele>186.6</ele>
        <time>2022-03-21T10:31:14Z</time>
      </trkpt>
      <trkpt lat="47.0788" lon="5.16647">
        <ele>186.6</ele>
        <time>2022-03-21T10:31:15Z</time>
      </trkpt>
      <trkpt lat="47.07873" lon="5.16649">
        <ele>186.6</ele>
        <time>2022-03-21T10:31:16Z</time>
      </trkpt>
      <trkpt lat="47.07865" lon="5.1665">
        <ele>186.4</ele>
        <time>2022-03-21T10:31:17Z</time>
      </trkpt>
      <trkpt lat="47.07858" lon="5.16652">
        <ele>186.4</ele>
        <time>2022-03-21T10:31:18Z</time>
      </trkpt>
      <trkpt lat="47.0785" lon="5.16653">
        <ele>186.4</ele>
        <time>2022-03-21T10:31:19Z</time>
      </trkpt>
      <trkpt lat="47.07843" lon="5.16654">
        <ele>186.2</ele>
        <time>2022-03-21T10:31:20Z</time>
      </trkpt>
      <trkpt lat="47.07835" lon="5.16655">
        <ele>186.2</ele>
        <time>2022-03-21T10:31:21Z</time>
      </trkpt>
      <trkpt lat="47.07828" lon="5.16656">
        <ele>186.2</ele>
        <time>2022-03-21T10:31:22Z</time>
      </trkpt>
      <trkpt lat="47.07821" lon="5.16657">
        <ele>186.2</ele>
        <time>2022-03-21T10:31:23Z</time>
      </trkpt>
      <trkpt lat="47.07814" lon="5.16658">
        <ele>185.8</ele>
        <time>2022-03-21T10:31:24Z</time>
      </trkpt>
      <trkpt lat="47.07807" lon="5.16659">
        <ele>185.8</ele>
        <time>2022-03-21T10:31:25Z</time>
      </trkpt>
      <trkpt lat="47.07796" lon="5.16661">
        <ele>185.8</ele>
        <time>2022-03-21T10:31:26Z</time>
      </trkpt>
      <trkpt lat="47.07793" lon="5.16661">
        <ele>185.8</ele>
        <time>2022-03-21T10:31:27Z</time>
      </trkpt>
      <trkpt lat="47.07786" lon="5.16663">
        <ele>185.8</ele>
        <time>2022-03-21T10:31:28Z</time>
      </trkpt>
      <trkpt lat="47.07779" lon="5.16664">
        <ele>185.8</ele>
        <time>2022-03-21T10:31:29Z</time>
      </trkpt>
      <trkpt lat="47.07773" lon="5.16665">
        <ele>185.8</ele>
        <time>2022-03-21T10:31:30Z</time>
      </trkpt>
      <trkpt lat="47.07766" lon="5.16667">
        <ele>185.8</ele>
        <time>2022-03-21T10:31:31Z</time>
      </trkpt>
      <trkpt lat="47.07759" lon="5.16668">
        <ele>185.8</ele>
        <time>2022-03-21T10:31:32Z</time>
      </trkpt>
      <trkpt lat="47.07753" lon="5.1667">
        <ele>185.8</ele>
        <time>2022-03-21T10:31:33Z</time>
      </trkpt>
      <trkpt lat="47.07746" lon="5.16671">
        <ele>185.8</ele>
        <time>2022-03-21T10:31:34Z</time>
      </trkpt>
      <trkpt lat="47.0774" lon="5.16672">
        <ele>185.8</ele>
        <time>2022-03-21T10:31:35Z</time>
      </trkpt>
      <trkpt lat="47.07733" lon="5.16672">
        <ele>185.8</ele>
        <time>2022-03-21T10:31:36Z</time>
      </trkpt>
      <trkpt lat="47.07726" lon="5.16673">
        <ele>185.8</ele>
        <time>2022-03-21T10:31:37Z</time>
      </trkpt>
      <trkpt lat="47.0772" lon="5.16674">
        <ele>185.8</ele>
        <time>2022-03-21T10:31:38Z</time>
      </trkpt>
      <trkpt lat="47.07713" lon="5.16676">
        <ele>185.8</ele>
        <time>2022-03-21T10:31:39Z</time>
      </trkpt>
      <trkpt lat="47.07706" lon="5.16677">
        <ele>185.8</ele>
        <time>2022-03-21T10:31:40Z</time>
      </trkpt>
      <trkpt lat="47.07699" lon="5.16678">
        <ele>185.8</ele>
        <time>2022-03-21T10:31:41Z</time>
      </trkpt>
      <trkpt lat="47.07692" lon="5.16679">
        <ele>185.8</ele>
        <time>2022-03-21T10:31:42Z</time>
      </trkpt>
      <trkpt lat="47.07685" lon="5.1668">
        <ele>185.8</ele>
        <time>2022-03-21T10:31:43Z</time>
      </trkpt>
      <trkpt lat="47.07678" lon="5.16681">
        <ele>185.8</ele>
        <time>2022-03-21T10:31:44Z</time>
      </trkpt>
      <trkpt lat="47.07672" lon="5.16682">
        <ele>185.8</ele>
        <time>2022-03-21T10:31:45Z</time>
      </trkpt>
      <trkpt lat="47.07665" lon="5.16684">
        <ele>185.8</ele>
        <time>2022-03-21T10:31:46Z</time>
      </trkpt>
      <trkpt lat="47.07658" lon="5.16685">
        <ele>185.8</ele>
        <time>2022-03-21T10:31:47Z</time>
      </trkpt>
      <trkpt lat="47.07651" lon="5.16686">
        <ele>185.8</ele>
        <time>2022-03-21T10:31:48Z</time>
      </trkpt>
      <trkpt lat="47.07644" lon="5.16688">
        <ele>185.8</ele>
        <time>2022-03-21T10:31:49Z</time>
      </trkpt>
      <trkpt lat="47.07637" lon="5.16689">
        <ele>185.8</ele>
        <time>2022-03-21T10:31:50Z</time>
      </trkpt>
      <trkpt lat="47.0763" lon="5.16689">
        <ele>185.8</ele>
        <time>2022-03-21T10:31:51Z</time>
      </trkpt>
      <trkpt lat="47.07623" lon="5.1669">
        <ele>185.8</ele>
        <time>2022-03-21T10:31:52Z</time>
      </trkpt>
      <trkpt lat="47.07615" lon="5.16689">
        <ele>185.8</ele>
        <time>2022-03-21T10:31:53Z</time>
      </trkpt>
      <trkpt lat="47.07608" lon="5.16689">
        <ele>185.8</ele>
        <time>2022-03-21T10:31:54Z</time>
      </trkpt>
      <trkpt lat="47.07602" lon="5.16687">
        <ele>185.8</ele>
        <time>2022-03-21T10:31:55Z</time>
      </trkpt>
      <trkpt lat="47.07595" lon="5.16684">
        <ele>185.8</ele>
        <time>2022-03-21T10:31:56Z</time>
      </trkpt>
      <trkpt lat="47.07589" lon="5.1668">
        <ele>186</ele>
        <time>2022-03-21T10:31:57Z</time>
      </trkpt>
      <trkpt lat="47.07583" lon="5.16676">
        <ele>186</ele>
        <time>2022-03-21T10:31:58Z</time>
      </trkpt>
      <trkpt lat="47.07577" lon="5.16671">
        <ele>186.4</ele>
        <time>2022-03-21T10:31:59Z</time>
      </trkpt>
      <trkpt lat="47.07571" lon="5.16666">
        <ele>186.4</ele>
        <time>2022-03-21T10:32:00Z</time>
      </trkpt>
      <trkpt lat="47.07565" lon="5.16661">
        <ele>186.6</ele>
        <time>2022-03-21T10:32:01Z</time>
      </trkpt>
      <trkpt lat="47.0756" lon="5.16656">
        <ele>186.6</ele>
        <time>2022-03-21T10:32:02Z</time>
      </trkpt>
      <trkpt lat="47.07554" lon="5.16651">
        <ele>187</ele>
        <time>2022-03-21T10:32:03Z</time>
      </trkpt>
      <trkpt lat="47.07549" lon="5.16646">
        <ele>187.4</ele>
        <time>2022-03-21T10:32:04Z</time>
      </trkpt>
      <trkpt lat="47.07543" lon="5.16641">
        <ele>187.4</ele>
        <time>2022-03-21T10:32:05Z</time>
      </trkpt>
      <trkpt lat="47.07538" lon="5.16637">
        <ele>187.6</ele>
        <time>2022-03-21T10:32:06Z</time>
      </trkpt>
      <trkpt lat="47.07533" lon="5.16632">
        <ele>187.8</ele>
        <time>2022-03-21T10:32:07Z</time>
      </trkpt>
      <trkpt lat="47.07527" lon="5.16627">
        <ele>188</ele>
        <time>2022-03-21T10:32:08Z</time>
      </trkpt>
      <trkpt lat="47.07522" lon="5.16622">
        <ele>188.4</ele>
        <time>2022-03-21T10:32:09Z</time>
      </trkpt>
      <trkpt lat="47.07517" lon="5.16617">
        <ele>188.6</ele>
        <time>2022-03-21T10:32:10Z</time>
      </trkpt>
      <trkpt lat="47.07512" lon="5.16613">
        <ele>188.8</ele>
        <time>2022-03-21T10:32:11Z</time>
      </trkpt>
      <trkpt lat="47.07505" lon="5.16607">
        <ele>188.8</ele>
        <time>2022-03-21T10:32:12Z</time>
      </trkpt>
      <trkpt lat="47.07502" lon="5.16605">
        <ele>189.2</ele>
        <time>2022-03-21T10:32:13Z</time>
      </trkpt>
      <trkpt lat="47.07497" lon="5.16602">
        <ele>189.6</ele>
        <time>2022-03-21T10:32:14Z</time>
      </trkpt>
      <trkpt lat="47.07491" lon="5.16599">
        <ele>189.8</ele>
        <time>2022-03-21T10:32:15Z</time>
      </trkpt>
      <trkpt lat="47.07485" lon="5.16597">
        <ele>190</ele>
        <time>2022-03-21T10:32:16Z</time>
      </trkpt>
      <trkpt lat="47.0748" lon="5.16595">
        <ele>190.2</ele>
        <time>2022-03-21T10:32:17Z</time>
      </trkpt>
      <trkpt lat="47.07474" lon="5.16595">
        <ele>190.2</ele>
        <time>2022-03-21T10:32:18Z</time>
      </trkpt>
      <trkpt lat="47.07469" lon="5.16594">
        <ele>190.6</ele>
        <time>2022-03-21T10:32:19Z</time>
      </trkpt>
      <trkpt lat="47.07463" lon="5.16593">
        <ele>190.8</ele>
        <time>2022-03-21T10:32:20Z</time>
      </trkpt>
      <trkpt lat="47.07457" lon="5.16593">
        <ele>190.8</ele>
        <time>2022-03-21T10:32:21Z</time>
      </trkpt>
      <trkpt lat="47.07452" lon="5.16592">
        <ele>191.2</ele>
        <time>2022-03-21T10:32:22Z</time>
      </trkpt>
      <trkpt lat="47.07446" lon="5.16591">
        <ele>191.2</ele>
        <time>2022-03-21T10:32:23Z</time>
      </trkpt>
      <trkpt lat="47.07441" lon="5.1659">
        <ele>191.6</ele>
        <time>2022-03-21T10:32:24Z</time>
      </trkpt>
      <trkpt lat="47.07435" lon="5.16589">
        <ele>191.6</ele>
        <time>2022-03-21T10:32:25Z</time>
      </trkpt>
      <trkpt lat="47.0743" lon="5.16589">
        <ele>191.8</ele>
        <time>2022-03-21T10:32:26Z</time>
      </trkpt>
      <trkpt lat="47.07425" lon="5.16588">
        <ele>191.8</ele>
        <time>2022-03-21T10:32:27Z</time>
      </trkpt>
      <trkpt lat="47.07419" lon="5.16588">
        <ele>192.2</ele>
        <time>2022-03-21T10:32:28Z</time>
      </trkpt>
      <trkpt lat="47.07414" lon="5.16587">
        <ele>192.2</ele>
        <time>2022-03-21T10:32:29Z</time>
      </trkpt>
      <trkpt lat="47.07408" lon="5.16586">
        <ele>192.4</ele>
        <time>2022-03-21T10:32:30Z</time>
      </trkpt>
      <trkpt lat="47.07403" lon="5.16586">
        <ele>192.4</ele>
        <time>2022-03-21T10:32:31Z</time>
      </trkpt>
      <trkpt lat="47.07398" lon="5.16585">
        <ele>192.4</ele>
        <time>2022-03-21T10:32:32Z</time>
      </trkpt>
      <trkpt lat="47.07392" lon="5.16584">
        <ele>192.4</ele>
        <time>2022-03-21T10:32:33Z</time>
      </trkpt>
      <trkpt lat="47.07387" lon="5.16583">
        <ele>192.8</ele>
        <time>2022-03-21T10:32:34Z</time>
      </trkpt>
      <trkpt lat="47.07381" lon="5.16582">
        <ele>192.8</ele>
        <time>2022-03-21T10:32:35Z</time>
      </trkpt>
      <trkpt lat="47.07376" lon="5.16582">
        <ele>192.8</ele>
        <time>2022-03-21T10:32:36Z</time>
      </trkpt>
      <trkpt lat="47.0737" lon="5.16581">
        <ele>193</ele>
        <time>2022-03-21T10:32:37Z</time>
      </trkpt>
      <trkpt lat="47.07364" lon="5.1658">
        <ele>193</ele>
        <time>2022-03-21T10:32:38Z</time>
      </trkpt>
      <trkpt lat="47.07359" lon="5.16579">
        <ele>193</ele>
        <time>2022-03-21T10:32:39Z</time>
      </trkpt>
      <trkpt lat="47.07353" lon="5.16579">
        <ele>193</ele>
        <time>2022-03-21T10:32:40Z</time>
      </trkpt>
      <trkpt lat="47.07347" lon="5.16578">
        <ele>193</ele>
        <time>2022-03-21T10:32:41Z</time>
      </trkpt>
      <trkpt lat="47.07341" lon="5.16577">
        <ele>193</ele>
        <time>2022-03-21T10:32:42Z</time>
      </trkpt>
      <trkpt lat="47.07335" lon="5.16577">
        <ele>192.8</ele>
        <time>2022-03-21T10:32:43Z</time>
      </trkpt>
      <trkpt lat="47.07329" lon="5.16576">
        <ele>192.8</ele>
        <time>2022-03-21T10:32:44Z</time>
      </trkpt>
      <trkpt lat="47.07323" lon="5.16575">
        <ele>192.6</ele>
        <time>2022-03-21T10:32:45Z</time>
      </trkpt>
      <trkpt lat="47.07317" lon="5.16575">
        <ele>192.6</ele>
        <time>2022-03-21T10:32:46Z</time>
      </trkpt>
      <trkpt lat="47.0731" lon="5.16574">
        <ele>192.2</ele>
        <time>2022-03-21T10:32:47Z</time>
      </trkpt>
      <trkpt lat="47.07304" lon="5.16573">
        <ele>192.2</ele>
        <time>2022-03-21T10:32:48Z</time>
      </trkpt>
      <trkpt lat="47.07297" lon="5.16572">
        <ele>191.8</ele>
        <time>2022-03-21T10:32:49Z</time>
      </trkpt>
      <trkpt lat="47.0729" lon="5.16571">
        <ele>191.8</ele>
        <time>2022-03-21T10:32:50Z</time>
      </trkpt>
      <trkpt lat="47.07283" lon="5.1657">
        <ele>191.4</ele>
        <time>2022-03-21T10:32:51Z</time>
      </trkpt>
      <trkpt lat="47.07276" lon="5.16571">
        <ele>191.2</ele>
        <time>2022-03-21T10:32:52Z</time>
      </trkpt>
      <trkpt lat="47.07269" lon="5.16572">
        <ele>191</ele>
        <time>2022-03-21T10:32:53Z</time>
      </trkpt>
      <trkpt lat="47.07261" lon="5.16573">
        <ele>190.8</ele>
        <time>2022-03-21T10:32:54Z</time>
      </trkpt>
      <trkpt lat="47.07254" lon="5.16577">
        <ele>190.4</ele>
        <time>2022-03-21T10:32:55Z</time>
      </trkpt>
      <trkpt lat="47.07246" lon="5.16581">
        <ele>190</ele>
        <time>2022-03-21T10:32:56Z</time>
      </trkpt>
      <trkpt lat="47.07239" lon="5.16587">
        <ele>189.8</ele>
        <time>2022-03-21T10:32:57Z</time>
      </trkpt>
      <trkpt lat="47.07232" lon="5.16594">
        <ele>189.4</ele>
        <time>2022-03-21T10:32:58Z</time>
      </trkpt>
      <trkpt lat="47.07225" lon="5.16602">
        <ele>189.2</ele>
        <time>2022-03-21T10:32:59Z</time>
      </trkpt>
      <trkpt lat="47.07219" lon="5.1661">
        <ele>188.8</ele>
        <time>2022-03-21T10:33:00Z</time>
      </trkpt>
      <trkpt lat="47.07212" lon="5.16618">
        <ele>188.6</ele>
        <time>2022-03-21T10:33:01Z</time>
      </trkpt>
      <trkpt lat="47.07206" lon="5.16627">
        <ele>188.2</ele>
        <time>2022-03-21T10:33:02Z</time>
      </trkpt>
      <trkpt lat="47.072" lon="5.16637">
        <ele>187.8</ele>
        <time>2022-03-21T10:33:03Z</time>
      </trkpt>
      <trkpt lat="47.07193" lon="5.16646">
        <ele>187.4</ele>
        <time>2022-03-21T10:33:04Z</time>
      </trkpt>
      <trkpt lat="47.07187" lon="5.16656">
        <ele>187</ele>
        <time>2022-03-21T10:33:05Z</time>
      </trkpt>
      <trkpt lat="47.07179" lon="5.16666">
        <ele>186.8</ele>
        <time>2022-03-21T10:33:06Z</time>
      </trkpt>
      <trkpt lat="47.07173" lon="5.16675">
        <ele>186.4</ele>
        <time>2022-03-21T10:33:07Z</time>
      </trkpt>
      <trkpt lat="47.07163" lon="5.16689">
        <ele>186.4</ele>
        <time>2022-03-21T10:33:08Z</time>
      </trkpt>
      <trkpt lat="47.0716" lon="5.16694">
        <ele>186</ele>
        <time>2022-03-21T10:33:09Z</time>
      </trkpt>
      <trkpt lat="47.07154" lon="5.16703">
        <ele>186</ele>
        <time>2022-03-21T10:33:10Z</time>
      </trkpt>
      <trkpt lat="47.07147" lon="5.16711">
        <ele>185.8</ele>
        <time>2022-03-21T10:33:11Z</time>
      </trkpt>
      <trkpt lat="47.07141" lon="5.16718">
        <ele>185.8</ele>
        <time>2022-03-21T10:33:12Z</time>
      </trkpt>
      <trkpt lat="47.07134" lon="5.16725">
        <ele>185.8</ele>
        <time>2022-03-21T10:33:13Z</time>
      </trkpt>
      <trkpt lat="47.07127" lon="5.16731">
        <ele>185.6</ele>
        <time>2022-03-21T10:33:14Z</time>
      </trkpt>
      <trkpt lat="47.07121" lon="5.16737">
        <ele>185.6</ele>
        <time>2022-03-21T10:33:15Z</time>
      </trkpt>
      <trkpt lat="47.07114" lon="5.16742">
        <ele>185.6</ele>
        <time>2022-03-21T10:33:16Z</time>
      </trkpt>
      <trkpt lat="47.07107" lon="5.16746">
        <ele>185.6</ele>
        <time>2022-03-21T10:33:17Z</time>
      </trkpt>
      <trkpt lat="47.071" lon="5.1675">
        <ele>185.6</ele>
        <time>2022-03-21T10:33:18Z</time>
      </trkpt>
      <trkpt lat="47.07093" lon="5.16753">
        <ele>185.6</ele>
        <time>2022-03-21T10:33:19Z</time>
      </trkpt>
      <trkpt lat="47.07086" lon="5.16757">
        <ele>185.6</ele>
        <time>2022-03-21T10:33:20Z</time>
      </trkpt>
      <trkpt lat="47.07079" lon="5.1676">
        <ele>185.6</ele>
        <time>2022-03-21T10:33:21Z</time>
      </trkpt>
      <trkpt lat="47.07072" lon="5.16762">
        <ele>185.6</ele>
        <time>2022-03-21T10:33:22Z</time>
      </trkpt>
      <trkpt lat="47.07065" lon="5.16765">
        <ele>185.6</ele>
        <time>2022-03-21T10:33:23Z</time>
      </trkpt>
      <trkpt lat="47.07058" lon="5.16768">
        <ele>185.6</ele>
        <time>2022-03-21T10:33:24Z</time>
      </trkpt>
      <trkpt lat="47.07052" lon="5.1677">
        <ele>185.6</ele>
        <time>2022-03-21T10:33:25Z</time>
      </trkpt>
      <trkpt lat="47.07045" lon="5.16773">
        <ele>185.6</ele>
        <time>2022-03-21T10:33:26Z</time>
      </trkpt>
      <trkpt lat="47.07038" lon="5.16775">
        <ele>185.6</ele>
        <time>2022-03-21T10:33:27Z</time>
      </trkpt>
      <trkpt lat="47.07032" lon="5.16778">
        <ele>185.6</ele>
        <time>2022-03-21T10:33:28Z</time>
      </trkpt>
      <trkpt lat="47.07025" lon="5.16781">
        <ele>185.4</ele>
        <time>2022-03-21T10:33:29Z</time>
      </trkpt>
      <trkpt lat="47.07019" lon="5.16783">
        <ele>185.4</ele>
        <time>2022-03-21T10:33:30Z</time>
      </trkpt>
      <trkpt lat="47.07013" lon="5.16786">
        <ele>185.4</ele>
        <time>2022-03-21T10:33:31Z</time>
      </trkpt>
      <trkpt lat="47.07006" lon="5.16788">
        <ele>185.4</ele>
        <time>2022-03-21T10:33:32Z</time>
      </trkpt>
      <trkpt lat="47.07" lon="5.16791">
        <ele>185.4</ele>
        <time>2022-03-21T10:33:33Z</time>
      </trkpt>
      <trkpt lat="47.06993" lon="5.16793">
        <ele>185.4</ele>
        <time>2022-03-21T10:33:34Z</time>
      </trkpt>
      <trkpt lat="47.06987" lon="5.16796">
        <ele>185.4</ele>
        <time>2022-03-21T10:33:35Z</time>
      </trkpt>
      <trkpt lat="47.0698" lon="5.16799">
        <ele>185.4</ele>
        <time>2022-03-21T10:33:36Z</time>
      </trkpt>
      <trkpt lat="47.06974" lon="5.16802">
        <ele>185.4</ele>
        <time>2022-03-21T10:33:37Z</time>
      </trkpt>
      <trkpt lat="47.06967" lon="5.16804">
        <ele>185.4</ele>
        <time>2022-03-21T10:33:38Z</time>
      </trkpt>
      <trkpt lat="47.06961" lon="5.16807">
        <ele>185.4</ele>
        <time>2022-03-21T10:33:39Z</time>
      </trkpt>
      <trkpt lat="47.06954" lon="5.1681">
        <ele>185.4</ele>
        <time>2022-03-21T10:33:40Z</time>
      </trkpt>
      <trkpt lat="47.06948" lon="5.16812">
        <ele>185.4</ele>
        <time>2022-03-21T10:33:41Z</time>
      </trkpt>
      <trkpt lat="47.06942" lon="5.16815">
        <ele>185</ele>
        <time>2022-03-21T10:33:42Z</time>
      </trkpt>
      <trkpt lat="47.06935" lon="5.16817">
        <ele>185</ele>
        <time>2022-03-21T10:33:43Z</time>
      </trkpt>
      <trkpt lat="47.06929" lon="5.1682">
        <ele>185</ele>
        <time>2022-03-21T10:33:44Z</time>
      </trkpt>
      <trkpt lat="47.06922" lon="5.16823">
        <ele>185</ele>
        <time>2022-03-21T10:33:45Z</time>
      </trkpt>
      <trkpt lat="47.06916" lon="5.16826">
        <ele>185</ele>
        <time>2022-03-21T10:33:46Z</time>
      </trkpt>
      <trkpt lat="47.06909" lon="5.16828">
        <ele>185</ele>
        <time>2022-03-21T10:33:47Z</time>
      </trkpt>
      <trkpt lat="47.06896" lon="5.16834">
        <ele>185</ele>
        <time>2022-03-21T10:33:48Z</time>
      </trkpt>
      <trkpt lat="47.06889" lon="5.16837">
        <ele>185</ele>
        <time>2022-03-21T10:33:49Z</time>
      </trkpt>
      <trkpt lat="47.06883" lon="5.16839">
        <ele>185</ele>
        <time>2022-03-21T10:33:50Z</time>
      </trkpt>
      <trkpt lat="47.06876" lon="5.16842">
        <ele>185.2</ele>
        <time>2022-03-21T10:33:51Z</time>
      </trkpt>
      <trkpt lat="47.0687" lon="5.16845">
        <ele>185.2</ele>
        <time>2022-03-21T10:33:52Z</time>
      </trkpt>
      <trkpt lat="47.06863" lon="5.16847">
        <ele>185.2</ele>
        <time>2022-03-21T10:33:53Z</time>
      </trkpt>
      <trkpt lat="47.0686" lon="5.16849">
        <ele>185.2</ele>
        <time>2022-03-21T10:33:54Z</time>
      </trkpt>
      <trkpt lat="47.06856" lon="5.1685">
        <ele>185.2</ele>
        <time>2022-03-21T10:33:55Z</time>
      </trkpt>
      <trkpt lat="47.0685" lon="5.16853">
        <ele>185.2</ele>
        <time>2022-03-21T10:33:56Z</time>
      </trkpt>
      <trkpt lat="47.06843" lon="5.16856">
        <ele>185.2</ele>
        <time>2022-03-21T10:33:57Z</time>
      </trkpt>
      <trkpt lat="47.06836" lon="5.16859">
        <ele>185.2</ele>
        <time>2022-03-21T10:33:58Z</time>
      </trkpt>
      <trkpt lat="47.06829" lon="5.16861">
        <ele>185.2</ele>
        <time>2022-03-21T10:33:59Z</time>
      </trkpt>
      <trkpt lat="47.06822" lon="5.16864">
        <ele>185.2</ele>
        <time>2022-03-21T10:34:00Z</time>
      </trkpt>
      <trkpt lat="47.06815" lon="5.16867">
        <ele>185.2</ele>
        <time>2022-03-21T10:34:01Z</time>
      </trkpt>
      <trkpt lat="47.06809" lon="5.1687">
        <ele>185.2</ele>
        <time>2022-03-21T10:34:02Z</time>
      </trkpt>
      <trkpt lat="47.06802" lon="5.16873">
        <ele>185.2</ele>
        <time>2022-03-21T10:34:03Z</time>
      </trkpt>
      <trkpt lat="47.06795" lon="5.16876">
        <ele>185</ele>
        <time>2022-03-21T10:34:04Z</time>
      </trkpt>
      <trkpt lat="47.06788" lon="5.16878">
        <ele>185</ele>
        <time>2022-03-21T10:34:05Z</time>
      </trkpt>
      <trkpt lat="47.06781" lon="5.16881">
        <ele>185</ele>
        <time>2022-03-21T10:34:06Z</time>
      </trkpt>
      <trkpt lat="47.06774" lon="5.16884">
        <ele>185</ele>
        <time>2022-03-21T10:34:07Z</time>
      </trkpt>
      <trkpt lat="47.06767" lon="5.16887">
        <ele>185</ele>
        <time>2022-03-21T10:34:08Z</time>
      </trkpt>
      <trkpt lat="47.0676" lon="5.1689">
        <ele>185</ele>
        <time>2022-03-21T10:34:09Z</time>
      </trkpt>
      <trkpt lat="47.06753" lon="5.16893">
        <ele>185</ele>
        <time>2022-03-21T10:34:10Z</time>
      </trkpt>
      <trkpt lat="47.06747" lon="5.16896">
        <ele>185</ele>
        <time>2022-03-21T10:34:11Z</time>
      </trkpt>
      <trkpt lat="47.0674" lon="5.16899">
        <ele>185</ele>
        <time>2022-03-21T10:34:12Z</time>
      </trkpt>
      <trkpt lat="47.06733" lon="5.16901">
        <ele>185</ele>
        <time>2022-03-21T10:34:13Z</time>
      </trkpt>
      <trkpt lat="47.06726" lon="5.16904">
        <ele>185</ele>
        <time>2022-03-21T10:34:14Z</time>
      </trkpt>
      <trkpt lat="47.06719" lon="5.16907">
        <ele>185</ele>
        <time>2022-03-21T10:34:15Z</time>
      </trkpt>
      <trkpt lat="47.06713" lon="5.16909">
        <ele>185</ele>
        <time>2022-03-21T10:34:16Z</time>
      </trkpt>
      <trkpt lat="47.06706" lon="5.16912">
        <ele>185</ele>
        <time>2022-03-21T10:34:17Z</time>
      </trkpt>
      <trkpt lat="47.06699" lon="5.16915">
        <ele>185</ele>
        <time>2022-03-21T10:34:18Z</time>
      </trkpt>
      <trkpt lat="47.06693" lon="5.16918">
        <ele>185</ele>
        <time>2022-03-21T10:34:19Z</time>
      </trkpt>
      <trkpt lat="47.06686" lon="5.16921">
        <ele>185</ele>
        <time>2022-03-21T10:34:20Z</time>
      </trkpt>
      <trkpt lat="47.06679" lon="5.16923">
        <ele>185.2</ele>
        <time>2022-03-21T10:34:21Z</time>
      </trkpt>
      <trkpt lat="47.06673" lon="5.16926">
        <ele>185.2</ele>
        <time>2022-03-21T10:34:22Z</time>
      </trkpt>
      <trkpt lat="47.06666" lon="5.16929">
        <ele>185.2</ele>
        <time>2022-03-21T10:34:23Z</time>
      </trkpt>
      <trkpt lat="47.06659" lon="5.16932">
        <ele>185.2</ele>
        <time>2022-03-21T10:34:24Z</time>
      </trkpt>
      <trkpt lat="47.06652" lon="5.16935">
        <ele>185.2</ele>
        <time>2022-03-21T10:34:25Z</time>
      </trkpt>
      <trkpt lat="47.06646" lon="5.16937">
        <ele>185.2</ele>
        <time>2022-03-21T10:34:26Z</time>
      </trkpt>
      <trkpt lat="47.06639" lon="5.1694">
        <ele>185.2</ele>
        <time>2022-03-21T10:34:27Z</time>
      </trkpt>
      <trkpt lat="47.06632" lon="5.16943">
        <ele>185.2</ele>
        <time>2022-03-21T10:34:28Z</time>
      </trkpt>
      <trkpt lat="47.06625" lon="5.16946">
        <ele>185.2</ele>
        <time>2022-03-21T10:34:29Z</time>
      </trkpt>
      <trkpt lat="47.06618" lon="5.16949">
        <ele>185.2</ele>
        <time>2022-03-21T10:34:30Z</time>
      </trkpt>
      <trkpt lat="47.06611" lon="5.16951">
        <ele>185.2</ele>
        <time>2022-03-21T10:34:31Z</time>
      </trkpt>
      <trkpt lat="47.06604" lon="5.16954">
        <ele>185.2</ele>
        <time>2022-03-21T10:34:32Z</time>
      </trkpt>
      <trkpt lat="47.06597" lon="5.16957">
        <ele>185.2</ele>
        <time>2022-03-21T10:34:33Z</time>
      </trkpt>
      <trkpt lat="47.0659" lon="5.1696">
        <ele>185.2</ele>
        <time>2022-03-21T10:34:34Z</time>
      </trkpt>
      <trkpt lat="47.06583" lon="5.16963">
        <ele>185</ele>
        <time>2022-03-21T10:34:35Z</time>
      </trkpt>
      <trkpt lat="47.06576" lon="5.16966">
        <ele>185</ele>
        <time>2022-03-21T10:34:36Z</time>
      </trkpt>
      <trkpt lat="47.06569" lon="5.1697">
        <ele>185</ele>
        <time>2022-03-21T10:34:37Z</time>
      </trkpt>
      <trkpt lat="47.06562" lon="5.16973">
        <ele>185</ele>
        <time>2022-03-21T10:34:38Z</time>
      </trkpt>
      <trkpt lat="47.06555" lon="5.16976">
        <ele>185</ele>
        <time>2022-03-21T10:34:39Z</time>
      </trkpt>
      <trkpt lat="47.06548" lon="5.1698">
        <ele>185</ele>
        <time>2022-03-21T10:34:40Z</time>
      </trkpt>
      <trkpt lat="47.06541" lon="5.16984">
        <ele>185</ele>
        <time>2022-03-21T10:34:41Z</time>
      </trkpt>
      <trkpt lat="47.06534" lon="5.16989">
        <ele>185</ele>
        <time>2022-03-21T10:34:42Z</time>
      </trkpt>
      <trkpt lat="47.06528" lon="5.16993">
        <ele>185</ele>
        <time>2022-03-21T10:34:43Z</time>
      </trkpt>
      <trkpt lat="47.06521" lon="5.16998">
        <ele>185</ele>
        <time>2022-03-21T10:34:44Z</time>
      </trkpt>
      <trkpt lat="47.06515" lon="5.17003">
        <ele>185</ele>
        <time>2022-03-21T10:34:45Z</time>
      </trkpt>
      <trkpt lat="47.06508" lon="5.17008">
        <ele>185</ele>
        <time>2022-03-21T10:34:46Z</time>
      </trkpt>
      <trkpt lat="47.06502" lon="5.17013">
        <ele>185</ele>
        <time>2022-03-21T10:34:47Z</time>
      </trkpt>
      <trkpt lat="47.06496" lon="5.17018">
        <ele>185.2</ele>
        <time>2022-03-21T10:34:48Z</time>
      </trkpt>
      <trkpt lat="47.06489" lon="5.17023">
        <ele>185.2</ele>
        <time>2022-03-21T10:34:49Z</time>
      </trkpt>
      <trkpt lat="47.06483" lon="5.17028">
        <ele>185.2</ele>
        <time>2022-03-21T10:34:50Z</time>
      </trkpt>
      <trkpt lat="47.06477" lon="5.17033">
        <ele>185.2</ele>
        <time>2022-03-21T10:34:51Z</time>
      </trkpt>
      <trkpt lat="47.06471" lon="5.17038">
        <ele>185.2</ele>
        <time>2022-03-21T10:34:52Z</time>
      </trkpt>
      <trkpt lat="47.06462" lon="5.17046">
        <ele>185.2</ele>
        <time>2022-03-21T10:34:53Z</time>
      </trkpt>
      <trkpt lat="47.06459" lon="5.17049">
        <ele>185.2</ele>
        <time>2022-03-21T10:34:54Z</time>
      </trkpt>
      <trkpt lat="47.06453" lon="5.17054">
        <ele>185.2</ele>
        <time>2022-03-21T10:34:55Z</time>
      </trkpt>
      <trkpt lat="47.06448" lon="5.17059">
        <ele>185.4</ele>
        <time>2022-03-21T10:34:56Z</time>
      </trkpt>
      <trkpt lat="47.06442" lon="5.17064">
        <ele>185.4</ele>
        <time>2022-03-21T10:34:57Z</time>
      </trkpt>
      <trkpt lat="47.06436" lon="5.17069">
        <ele>185.4</ele>
        <time>2022-03-21T10:34:58Z</time>
      </trkpt>
      <trkpt lat="47.06428" lon="5.17077">
        <ele>185.6</ele>
        <time>2022-03-21T10:34:59Z</time>
      </trkpt>
      <trkpt lat="47.06425" lon="5.1708">
        <ele>185.6</ele>
        <time>2022-03-21T10:35:00Z</time>
      </trkpt>
      <trkpt lat="47.06419" lon="5.17086">
        <ele>185.6</ele>
        <time>2022-03-21T10:35:01Z</time>
      </trkpt>
      <trkpt lat="47.06414" lon="5.17091">
        <ele>186</ele>
        <time>2022-03-21T10:35:02Z</time>
      </trkpt>
      <trkpt lat="47.06408" lon="5.17097">
        <ele>186</ele>
        <time>2022-03-21T10:35:03Z</time>
      </trkpt>
      <trkpt lat="47.06403" lon="5.17102">
        <ele>186</ele>
        <time>2022-03-21T10:35:04Z</time>
      </trkpt>
      <trkpt lat="47.06398" lon="5.17108">
        <ele>186.2</ele>
        <time>2022-03-21T10:35:05Z</time>
      </trkpt>
      <trkpt lat="47.06393" lon="5.17113">
        <ele>186.2</ele>
        <time>2022-03-21T10:35:06Z</time>
      </trkpt>
      <trkpt lat="47.06387" lon="5.17119">
        <ele>186.4</ele>
        <time>2022-03-21T10:35:07Z</time>
      </trkpt>
      <trkpt lat="47.06382" lon="5.17124">
        <ele>186.4</ele>
        <time>2022-03-21T10:35:08Z</time>
      </trkpt>
      <trkpt lat="47.06377" lon="5.1713">
        <ele>186.4</ele>
        <time>2022-03-21T10:35:09Z</time>
      </trkpt>
      <trkpt lat="47.06371" lon="5.17135">
        <ele>186.4</ele>
        <time>2022-03-21T10:35:10Z</time>
      </trkpt>
      <trkpt lat="47.06366" lon="5.1714">
        <ele>186.4</ele>
        <time>2022-03-21T10:35:11Z</time>
      </trkpt>
      <trkpt lat="47.0636" lon="5.17146">
        <ele>186.4</ele>
        <time>2022-03-21T10:35:12Z</time>
      </trkpt>
      <trkpt lat="47.06355" lon="5.17151">
        <ele>186.4</ele>
        <time>2022-03-21T10:35:13Z</time>
      </trkpt>
      <trkpt lat="47.0635" lon="5.17157">
        <ele>186.4</ele>
        <time>2022-03-21T10:35:14Z</time>
      </trkpt>
      <trkpt lat="47.06344" lon="5.17163">
        <ele>186.4</ele>
        <time>2022-03-21T10:35:15Z</time>
      </trkpt>
      <trkpt lat="47.06339" lon="5.17169">
        <ele>186.4</ele>
        <time>2022-03-21T10:35:16Z</time>
      </trkpt>
      <trkpt lat="47.06335" lon="5.17175">
        <ele>186.4</ele>
        <time>2022-03-21T10:35:17Z</time>
      </trkpt>
      <trkpt lat="47.0633" lon="5.17182">
        <ele>186.4</ele>
        <time>2022-03-21T10:35:18Z</time>
      </trkpt>
      <trkpt lat="47.06326" lon="5.17188">
        <ele>186.4</ele>
        <time>2022-03-21T10:35:19Z</time>
      </trkpt>
      <trkpt lat="47.06322" lon="5.17194">
        <ele>186.8</ele>
        <time>2022-03-21T10:35:20Z</time>
      </trkpt>
      <trkpt lat="47.06319" lon="5.17201">
        <ele>186.8</ele>
        <time>2022-03-21T10:35:21Z</time>
      </trkpt>
      <trkpt lat="47.06316" lon="5.17206">
        <ele>186.8</ele>
        <time>2022-03-21T10:35:22Z</time>
      </trkpt>
      <trkpt lat="47.06312" lon="5.17209">
        <ele>186.8</ele>
        <time>2022-03-21T10:35:23Z</time>
      </trkpt>
      <trkpt lat="47.06308" lon="5.17211">
        <ele>186.8</ele>
        <time>2022-03-21T10:35:24Z</time>
      </trkpt>
      <trkpt lat="47.06303" lon="5.1721">
        <ele>186.8</ele>
        <time>2022-03-21T10:35:25Z</time>
      </trkpt>
      <trkpt lat="47.06299" lon="5.17208">
        <ele>186.8</ele>
        <time>2022-03-21T10:35:26Z</time>
      </trkpt>
      <trkpt lat="47.06294" lon="5.17205">
        <ele>186.8</ele>
        <time>2022-03-21T10:35:27Z</time>
      </trkpt>
      <trkpt lat="47.0629" lon="5.17201">
        <ele>186.8</ele>
        <time>2022-03-21T10:35:28Z</time>
      </trkpt>
      <trkpt lat="47.06286" lon="5.17196">
        <ele>186.8</ele>
        <time>2022-03-21T10:35:29Z</time>
      </trkpt>
      <trkpt lat="47.06282" lon="5.17191">
        <ele>186.8</ele>
        <time>2022-03-21T10:35:30Z</time>
      </trkpt>
      <trkpt lat="47.06278" lon="5.17186">
        <ele>186.8</ele>
        <time>2022-03-21T10:35:31Z</time>
      </trkpt>
      <trkpt lat="47.06274" lon="5.17181">
        <ele>186.8</ele>
        <time>2022-03-21T10:35:32Z</time>
      </trkpt>
      <trkpt lat="47.0627" lon="5.17176">
        <ele>186.8</ele>
        <time>2022-03-21T10:35:33Z</time>
      </trkpt>
      <trkpt lat="47.06266" lon="5.17172">
        <ele>186.8</ele>
        <time>2022-03-21T10:35:34Z</time>
      </trkpt>
      <trkpt lat="47.06262" lon="5.17168">
        <ele>186.8</ele>
        <time>2022-03-21T10:35:35Z</time>
      </trkpt>
      <trkpt lat="47.06259" lon="5.17164">
        <ele>186.8</ele>
        <time>2022-03-21T10:35:36Z</time>
      </trkpt>
      <trkpt lat="47.06256" lon="5.1716">
        <ele>187</ele>
        <time>2022-03-21T10:35:37Z</time>
      </trkpt>
      <trkpt lat="47.06253" lon="5.17157">
        <ele>187</ele>
        <time>2022-03-21T10:35:38Z</time>
      </trkpt>
      <trkpt lat="47.0625" lon="5.17155">
        <ele>187</ele>
        <time>2022-03-21T10:35:39Z</time>
      </trkpt>
      <trkpt lat="47.06246" lon="5.17156">
        <ele>187</ele>
        <time>2022-03-21T10:35:40Z</time>
      </trkpt>
      <trkpt lat="47.06243" lon="5.17159">
        <ele>187</ele>
        <time>2022-03-21T10:35:41Z</time>
      </trkpt>
      <trkpt lat="47.0624" lon="5.17163">
        <ele>187</ele>
        <time>2022-03-21T10:35:42Z</time>
      </trkpt>
      <trkpt lat="47.06238" lon="5.17169">
        <ele>187</ele>
        <time>2022-03-21T10:35:43Z</time>
      </trkpt>
      <trkpt lat="47.06237" lon="5.17174">
        <ele>187</ele>
        <time>2022-03-21T10:35:44Z</time>
      </trkpt>
      <trkpt lat="47.06235" lon="5.1718">
        <ele>187</ele>
        <time>2022-03-21T10:35:45Z</time>
      </trkpt>
      <trkpt lat="47.06232" lon="5.17187">
        <ele>187</ele>
        <time>2022-03-21T10:35:46Z</time>
      </trkpt>
      <trkpt lat="47.0623" lon="5.17194">
        <ele>187</ele>
        <time>2022-03-21T10:35:47Z</time>
      </trkpt>
      <trkpt lat="47.06228" lon="5.172">
        <ele>187</ele>
        <time>2022-03-21T10:35:48Z</time>
      </trkpt>
      <trkpt lat="47.06226" lon="5.17207">
        <ele>187</ele>
        <time>2022-03-21T10:35:49Z</time>
      </trkpt>
      <trkpt lat="47.06224" lon="5.17214">
        <ele>187.2</ele>
        <time>2022-03-21T10:35:50Z</time>
      </trkpt>
      <trkpt lat="47.06221" lon="5.17221">
        <ele>187.2</ele>
        <time>2022-03-21T10:35:51Z</time>
      </trkpt>
      <trkpt lat="47.06219" lon="5.17228">
        <ele>187.4</ele>
        <time>2022-03-21T10:35:52Z</time>
      </trkpt>
      <trkpt lat="47.06216" lon="5.17235">
        <ele>187.4</ele>
        <time>2022-03-21T10:35:53Z</time>
      </trkpt>
      <trkpt lat="47.06214" lon="5.17242">
        <ele>187.6</ele>
        <time>2022-03-21T10:35:54Z</time>
      </trkpt>
      <trkpt lat="47.06212" lon="5.17249">
        <ele>187.6</ele>
        <time>2022-03-21T10:35:55Z</time>
      </trkpt>
      <trkpt lat="47.0621" lon="5.17257">
        <ele>187.6</ele>
        <time>2022-03-21T10:35:56Z</time>
      </trkpt>
      <trkpt lat="47.06209" lon="5.17265">
        <ele>188</ele>
        <time>2022-03-21T10:35:57Z</time>
      </trkpt>
      <trkpt lat="47.06207" lon="5.17273">
        <ele>188</ele>
        <time>2022-03-21T10:35:58Z</time>
      </trkpt>
      <trkpt lat="47.06205" lon="5.1728">
        <ele>188.2</ele>
        <time>2022-03-21T10:35:59Z</time>
      </trkpt>
      <trkpt lat="47.06204" lon="5.17288">
        <ele>188.2</ele>
        <time>2022-03-21T10:36:00Z</time>
      </trkpt>
      <trkpt lat="47.06202" lon="5.17296">
        <ele>188.2</ele>
        <time>2022-03-21T10:36:01Z</time>
      </trkpt>
      <trkpt lat="47.06201" lon="5.17304">
        <ele>188.4</ele>
        <time>2022-03-21T10:36:02Z</time>
      </trkpt>
      <trkpt lat="47.062" lon="5.17312">
        <ele>188.4</ele>
        <time>2022-03-21T10:36:03Z</time>
      </trkpt>
      <trkpt lat="47.06198" lon="5.1732">
        <ele>188.4</ele>
        <time>2022-03-21T10:36:04Z</time>
      </trkpt>
      <trkpt lat="47.06196" lon="5.17327">
        <ele>188.4</ele>
        <time>2022-03-21T10:36:05Z</time>
      </trkpt>
      <trkpt lat="47.06194" lon="5.17335">
        <ele>188.4</ele>
        <time>2022-03-21T10:36:06Z</time>
      </trkpt>
      <trkpt lat="47.06192" lon="5.17343">
        <ele>188.4</ele>
        <time>2022-03-21T10:36:07Z</time>
      </trkpt>
      <trkpt lat="47.06189" lon="5.1735">
        <ele>188.4</ele>
        <time>2022-03-21T10:36:08Z</time>
      </trkpt>
      <trkpt lat="47.06186" lon="5.17357">
        <ele>188.4</ele>
        <time>2022-03-21T10:36:09Z</time>
      </trkpt>
      <trkpt lat="47.06184" lon="5.17365">
        <ele>188.6</ele>
        <time>2022-03-21T10:36:10Z</time>
      </trkpt>
      <trkpt lat="47.06181" lon="5.17371">
        <ele>188.6</ele>
        <time>2022-03-21T10:36:11Z</time>
      </trkpt>
      <trkpt lat="47.06179" lon="5.17377">
        <ele>188.6</ele>
        <time>2022-03-21T10:36:12Z</time>
      </trkpt>
      <trkpt lat="47.06178" lon="5.17383">
        <ele>188.6</ele>
        <time>2022-03-21T10:36:13Z</time>
      </trkpt>
      <trkpt lat="47.06181" lon="5.17391">
        <ele>188.6</ele>
        <time>2022-03-21T10:36:14Z</time>
      </trkpt>
      <trkpt lat="47.06183" lon="5.17393">
        <ele>188.6</ele>
        <time>2022-03-21T10:36:15Z</time>
      </trkpt>
      <trkpt lat="47.06186" lon="5.17397">
        <ele>188.6</ele>
        <time>2022-03-21T10:36:16Z</time>
      </trkpt>
      <trkpt lat="47.06191" lon="5.17401">
        <ele>188.6</ele>
        <time>2022-03-21T10:36:17Z</time>
      </trkpt>
      <trkpt lat="47.06195" lon="5.17405">
        <ele>188.6</ele>
        <time>2022-03-21T10:36:18Z</time>
      </trkpt>
      <trkpt lat="47.06199" lon="5.1741">
        <ele>188.6</ele>
        <time>2022-03-21T10:36:19Z</time>
      </trkpt>
      <trkpt lat="47.06202" lon="5.17415">
        <ele>188.6</ele>
        <time>2022-03-21T10:36:20Z</time>
      </trkpt>
      <trkpt lat="47.06206" lon="5.17421">
        <ele>188.6</ele>
        <time>2022-03-21T10:36:21Z</time>
      </trkpt>
      <trkpt lat="47.0621" lon="5.17426">
        <ele>188.6</ele>
        <time>2022-03-21T10:36:22Z</time>
      </trkpt>
      <trkpt lat="47.06215" lon="5.17431">
        <ele>188.6</ele>
        <time>2022-03-21T10:36:23Z</time>
      </trkpt>
      <trkpt lat="47.06219" lon="5.17436">
        <ele>188.6</ele>
        <time>2022-03-21T10:36:24Z</time>
      </trkpt>
      <trkpt lat="47.06223" lon="5.17442">
        <ele>188.6</ele>
        <time>2022-03-21T10:36:25Z</time>
      </trkpt>
      <trkpt lat="47.06227" lon="5.17447">
        <ele>188.6</ele>
        <time>2022-03-21T10:36:26Z</time>
      </trkpt>
      <trkpt lat="47.06231" lon="5.17452">
        <ele>188.6</ele>
        <time>2022-03-21T10:36:27Z</time>
      </trkpt>
      <trkpt lat="47.06235" lon="5.17456">
        <ele>188.6</ele>
        <time>2022-03-21T10:36:28Z</time>
      </trkpt>
      <trkpt lat="47.0624" lon="5.17463">
        <ele>188.6</ele>
        <time>2022-03-21T10:36:29Z</time>
      </trkpt>
      <trkpt lat="47.06241" lon="5.17465">
        <ele>188.4</ele>
        <time>2022-03-21T10:36:30Z</time>
      </trkpt>
      <trkpt lat="47.06243" lon="5.17469">
        <ele>188.4</ele>
        <time>2022-03-21T10:36:31Z</time>
      </trkpt>
      <trkpt lat="47.06243" lon="5.17473">
        <ele>188.2</ele>
        <time>2022-03-21T10:36:32Z</time>
      </trkpt>
      <trkpt lat="47.06243" lon="5.17478">
        <ele>188.2</ele>
        <time>2022-03-21T10:36:33Z</time>
      </trkpt>
      <trkpt lat="47.06241" lon="5.17483">
        <ele>188.2</ele>
        <time>2022-03-21T10:36:34Z</time>
      </trkpt>
      <trkpt lat="47.06238" lon="5.17487">
        <ele>188.2</ele>
        <time>2022-03-21T10:36:35Z</time>
      </trkpt>
      <trkpt lat="47.06234" lon="5.17492">
        <ele>188.2</ele>
        <time>2022-03-21T10:36:36Z</time>
      </trkpt>
      <trkpt lat="47.0623" lon="5.17497">
        <ele>188</ele>
        <time>2022-03-21T10:36:37Z</time>
      </trkpt>
      <trkpt lat="47.06227" lon="5.17502">
        <ele>188</ele>
        <time>2022-03-21T10:36:38Z</time>
      </trkpt>
      <trkpt lat="47.06223" lon="5.17507">
        <ele>188</ele>
        <time>2022-03-21T10:36:39Z</time>
      </trkpt>
      <trkpt lat="47.06219" lon="5.17513">
        <ele>187.6</ele>
        <time>2022-03-21T10:36:40Z</time>
      </trkpt>
      <trkpt lat="47.06216" lon="5.1752">
        <ele>187.6</ele>
        <time>2022-03-21T10:36:41Z</time>
      </trkpt>
      <trkpt lat="47.0621" lon="5.1753">
        <ele>187.6</ele>
        <time>2022-03-21T10:36:42Z</time>
      </trkpt>
      <trkpt lat="47.06208" lon="5.17534">
        <ele>187.6</ele>
        <time>2022-03-21T10:36:43Z</time>
      </trkpt>
      <trkpt lat="47.06204" lon="5.17541">
        <ele>187.4</ele>
        <time>2022-03-21T10:36:44Z</time>
      </trkpt>
      <trkpt lat="47.06201" lon="5.17549">
        <ele>187.4</ele>
        <time>2022-03-21T10:36:45Z</time>
      </trkpt>
      <trkpt lat="47.06197" lon="5.17557">
        <ele>187.4</ele>
        <time>2022-03-21T10:36:46Z</time>
      </trkpt>
      <trkpt lat="47.06194" lon="5.17565">
        <ele>187.4</ele>
        <time>2022-03-21T10:36:47Z</time>
      </trkpt>
      <trkpt lat="47.06191" lon="5.17574">
        <ele>187.2</ele>
        <time>2022-03-21T10:36:48Z</time>
      </trkpt>
      <trkpt lat="47.06188" lon="5.17584">
        <ele>187.2</ele>
        <time>2022-03-21T10:36:49Z</time>
      </trkpt>
      <trkpt lat="47.06185" lon="5.17593">
        <ele>187</ele>
        <time>2022-03-21T10:36:50Z</time>
      </trkpt>
      <trkpt lat="47.06182" lon="5.17603">
        <ele>187</ele>
        <time>2022-03-21T10:36:51Z</time>
      </trkpt>
      <trkpt lat="47.0618" lon="5.17612">
        <ele>187</ele>
        <time>2022-03-21T10:36:52Z</time>
      </trkpt>
      <trkpt lat="47.06177" lon="5.17622">
        <ele>187</ele>
        <time>2022-03-21T10:36:53Z</time>
      </trkpt>
      <trkpt lat="47.06174" lon="5.17631">
        <ele>187</ele>
        <time>2022-03-21T10:36:54Z</time>
      </trkpt>
      <trkpt lat="47.06172" lon="5.17641">
        <ele>187</ele>
        <time>2022-03-21T10:36:55Z</time>
      </trkpt>
      <trkpt lat="47.06168" lon="5.17651">
        <ele>187</ele>
        <time>2022-03-21T10:36:56Z</time>
      </trkpt>
      <trkpt lat="47.06165" lon="5.1766">
        <ele>187</ele>
        <time>2022-03-21T10:36:57Z</time>
      </trkpt>
      <trkpt lat="47.06162" lon="5.17669">
        <ele>187</ele>
        <time>2022-03-21T10:36:58Z</time>
      </trkpt>
      <trkpt lat="47.06159" lon="5.17679">
        <ele>187</ele>
        <time>2022-03-21T10:36:59Z</time>
      </trkpt>
      <trkpt lat="47.06157" lon="5.17689">
        <ele>187</ele>
        <time>2022-03-21T10:37:00Z</time>
      </trkpt>
      <trkpt lat="47.06154" lon="5.17699">
        <ele>187</ele>
        <time>2022-03-21T10:37:01Z</time>
      </trkpt>
      <trkpt lat="47.06151" lon="5.17709">
        <ele>187</ele>
        <time>2022-03-21T10:37:02Z</time>
      </trkpt>
      <trkpt lat="47.06148" lon="5.17718">
        <ele>187</ele>
        <time>2022-03-21T10:37:03Z</time>
      </trkpt>
      <trkpt lat="47.06145" lon="5.17727">
        <ele>187</ele>
        <time>2022-03-21T10:37:04Z</time>
      </trkpt>
      <trkpt lat="47.06142" lon="5.17736">
        <ele>187</ele>
        <time>2022-03-21T10:37:05Z</time>
      </trkpt>
      <trkpt lat="47.06139" lon="5.17745">
        <ele>187</ele>
        <time>2022-03-21T10:37:06Z</time>
      </trkpt>
      <trkpt lat="47.06136" lon="5.17755">
        <ele>187</ele>
        <time>2022-03-21T10:37:07Z</time>
      </trkpt>
      <trkpt lat="47.06133" lon="5.17764">
        <ele>187</ele>
        <time>2022-03-21T10:37:08Z</time>
      </trkpt>
      <trkpt lat="47.0613" lon="5.17773">
        <ele>187.2</ele>
        <time>2022-03-21T10:37:09Z</time>
      </trkpt>
      <trkpt lat="47.06127" lon="5.17782">
        <ele>187.2</ele>
        <time>2022-03-21T10:37:10Z</time>
      </trkpt>
      <trkpt lat="47.06123" lon="5.1779">
        <ele>187.2</ele>
        <time>2022-03-21T10:37:11Z</time>
      </trkpt>
      <trkpt lat="47.06119" lon="5.17799">
        <ele>187.2</ele>
        <time>2022-03-21T10:37:12Z</time>
      </trkpt>
      <trkpt lat="47.06116" lon="5.17808">
        <ele>187.2</ele>
        <time>2022-03-21T10:37:13Z</time>
      </trkpt>
      <trkpt lat="47.06112" lon="5.17817">
        <ele>187.2</ele>
        <time>2022-03-21T10:37:14Z</time>
      </trkpt>
      <trkpt lat="47.06109" lon="5.17826">
        <ele>187.2</ele>
        <time>2022-03-21T10:37:15Z</time>
      </trkpt>
      <trkpt lat="47.06105" lon="5.17834">
        <ele>187.2</ele>
        <time>2022-03-21T10:37:16Z</time>
      </trkpt>
      <trkpt lat="47.06101" lon="5.17843">
        <ele>187.2</ele>
        <time>2022-03-21T10:37:17Z</time>
      </trkpt>
      <trkpt lat="47.06098" lon="5.17851">
        <ele>187.4</ele>
        <time>2022-03-21T10:37:18Z</time>
      </trkpt>
      <trkpt lat="47.06094" lon="5.17859">
        <ele>187.4</ele>
        <time>2022-03-21T10:37:19Z</time>
      </trkpt>
      <trkpt lat="47.06091" lon="5.17868">
        <ele>187.4</ele>
        <time>2022-03-21T10:37:20Z</time>
      </trkpt>
      <trkpt lat="47.06087" lon="5.17877">
        <ele>187.4</ele>
        <time>2022-03-21T10:37:21Z</time>
      </trkpt>
      <trkpt lat="47.06083" lon="5.17885">
        <ele>187.4</ele>
        <time>2022-03-21T10:37:22Z</time>
      </trkpt>
      <trkpt lat="47.0608" lon="5.17894">
        <ele>187.4</ele>
        <time>2022-03-21T10:37:23Z</time>
      </trkpt>
      <trkpt lat="47.06077" lon="5.17902">
        <ele>187.4</ele>
        <time>2022-03-21T10:37:24Z</time>
      </trkpt>
      <trkpt lat="47.06073" lon="5.17911">
        <ele>187.4</ele>
        <time>2022-03-21T10:37:25Z</time>
      </trkpt>
      <trkpt lat="47.0607" lon="5.17919">
        <ele>187.6</ele>
        <time>2022-03-21T10:37:26Z</time>
      </trkpt>
      <trkpt lat="47.06066" lon="5.17927">
        <ele>187.6</ele>
        <time>2022-03-21T10:37:27Z</time>
      </trkpt>
      <trkpt lat="47.06063" lon="5.17936">
        <ele>187.6</ele>
        <time>2022-03-21T10:37:28Z</time>
      </trkpt>
      <trkpt lat="47.06059" lon="5.17944">
        <ele>187.6</ele>
        <time>2022-03-21T10:37:29Z</time>
      </trkpt>
      <trkpt lat="47.06055" lon="5.17952">
        <ele>187.6</ele>
        <time>2022-03-21T10:37:30Z</time>
      </trkpt>
      <trkpt lat="47.06052" lon="5.1796">
        <ele>187.6</ele>
        <time>2022-03-21T10:37:31Z</time>
      </trkpt>
      <trkpt lat="47.06048" lon="5.17968">
        <ele>187.6</ele>
        <time>2022-03-21T10:37:32Z</time>
      </trkpt>
      <trkpt lat="47.06044" lon="5.17976">
        <ele>187.6</ele>
        <time>2022-03-21T10:37:33Z</time>
      </trkpt>
      <trkpt lat="47.0604" lon="5.17983">
        <ele>187.6</ele>
        <time>2022-03-21T10:37:34Z</time>
      </trkpt>
      <trkpt lat="47.06035" lon="5.1799">
        <ele>187.6</ele>
        <time>2022-03-21T10:37:35Z</time>
      </trkpt>
      <trkpt lat="47.0603" lon="5.17996">
        <ele>187.6</ele>
        <time>2022-03-21T10:37:36Z</time>
      </trkpt>
      <trkpt lat="47.06026" lon="5.18003">
        <ele>187.6</ele>
        <time>2022-03-21T10:37:37Z</time>
      </trkpt>
      <trkpt lat="47.0602" lon="5.18009">
        <ele>187.6</ele>
        <time>2022-03-21T10:37:38Z</time>
      </trkpt>
      <trkpt lat="47.06015" lon="5.18014">
        <ele>187.6</ele>
        <time>2022-03-21T10:37:39Z</time>
      </trkpt>
      <trkpt lat="47.06009" lon="5.18019">
        <ele>187.6</ele>
        <time>2022-03-21T10:37:40Z</time>
      </trkpt>
      <trkpt lat="47.06003" lon="5.18023">
        <ele>187.6</ele>
        <time>2022-03-21T10:37:41Z</time>
      </trkpt>
      <trkpt lat="47.05996" lon="5.18026">
        <ele>187.6</ele>
        <time>2022-03-21T10:37:42Z</time>
      </trkpt>
      <trkpt lat="47.0599" lon="5.1803">
        <ele>187.6</ele>
        <time>2022-03-21T10:37:43Z</time>
      </trkpt>
      <trkpt lat="47.05984" lon="5.18034">
        <ele>187.6</ele>
        <time>2022-03-21T10:37:44Z</time>
      </trkpt>
      <trkpt lat="47.05977" lon="5.18038">
        <ele>188</ele>
        <time>2022-03-21T10:37:45Z</time>
      </trkpt>
      <trkpt lat="47.05971" lon="5.18042">
        <ele>188</ele>
        <time>2022-03-21T10:37:46Z</time>
      </trkpt>
      <trkpt lat="47.05965" lon="5.18045">
        <ele>188</ele>
        <time>2022-03-21T10:37:47Z</time>
      </trkpt>
      <trkpt lat="47.05959" lon="5.18049">
        <ele>188</ele>
        <time>2022-03-21T10:37:48Z</time>
      </trkpt>
      <trkpt lat="47.05953" lon="5.18053">
        <ele>188</ele>
        <time>2022-03-21T10:37:49Z</time>
      </trkpt>
      <trkpt lat="47.05947" lon="5.18057">
        <ele>188</ele>
        <time>2022-03-21T10:37:50Z</time>
      </trkpt>
      <trkpt lat="47.05941" lon="5.1806">
        <ele>188</ele>
        <time>2022-03-21T10:37:51Z</time>
      </trkpt>
      <trkpt lat="47.05935" lon="5.18064">
        <ele>188</ele>
        <time>2022-03-21T10:37:52Z</time>
      </trkpt>
      <trkpt lat="47.05929" lon="5.18067">
        <ele>188</ele>
        <time>2022-03-21T10:37:53Z</time>
      </trkpt>
      <trkpt lat="47.05923" lon="5.1807">
        <ele>188</ele>
        <time>2022-03-21T10:37:54Z</time>
      </trkpt>
      <trkpt lat="47.05918" lon="5.18074">
        <ele>188</ele>
        <time>2022-03-21T10:37:55Z</time>
      </trkpt>
      <trkpt lat="47.05912" lon="5.18077">
        <ele>188</ele>
        <time>2022-03-21T10:37:56Z</time>
      </trkpt>
      <trkpt lat="47.05906" lon="5.18081">
        <ele>188</ele>
        <time>2022-03-21T10:37:57Z</time>
      </trkpt>
      <trkpt lat="47.059" lon="5.18085">
        <ele>188</ele>
        <time>2022-03-21T10:37:58Z</time>
      </trkpt>
      <trkpt lat="47.05895" lon="5.18089">
        <ele>188</ele>
        <time>2022-03-21T10:37:59Z</time>
      </trkpt>
      <trkpt lat="47.05889" lon="5.18092">
        <ele>188</ele>
        <time>2022-03-21T10:38:00Z</time>
      </trkpt>
      <trkpt lat="47.05883" lon="5.18095">
        <ele>188.2</ele>
        <time>2022-03-21T10:38:01Z</time>
      </trkpt>
      <trkpt lat="47.05877" lon="5.18099">
        <ele>188.2</ele>
        <time>2022-03-21T10:38:02Z</time>
      </trkpt>
      <trkpt lat="47.05871" lon="5.18103">
        <ele>188.2</ele>
        <time>2022-03-21T10:38:03Z</time>
      </trkpt>
      <trkpt lat="47.05865" lon="5.18106">
        <ele>188.2</ele>
        <time>2022-03-21T10:38:04Z</time>
      </trkpt>
      <trkpt lat="47.05859" lon="5.1811">
        <ele>188.2</ele>
        <time>2022-03-21T10:38:05Z</time>
      </trkpt>
      <trkpt lat="47.05853" lon="5.18114">
        <ele>188.2</ele>
        <time>2022-03-21T10:38:06Z</time>
      </trkpt>
      <trkpt lat="47.05847" lon="5.18118">
        <ele>188.2</ele>
        <time>2022-03-21T10:38:07Z</time>
      </trkpt>
      <trkpt lat="47.05841" lon="5.18122">
        <ele>188.2</ele>
        <time>2022-03-21T10:38:08Z</time>
      </trkpt>
      <trkpt lat="47.05834" lon="5.18126">
        <ele>188.2</ele>
        <time>2022-03-21T10:38:09Z</time>
      </trkpt>
      <trkpt lat="47.05828" lon="5.18131">
        <ele>187.8</ele>
        <time>2022-03-21T10:38:10Z</time>
      </trkpt>
      <trkpt lat="47.05822" lon="5.18135">
        <ele>187.8</ele>
        <time>2022-03-21T10:38:11Z</time>
      </trkpt>
      <trkpt lat="47.05816" lon="5.18139">
        <ele>187.8</ele>
        <time>2022-03-21T10:38:12Z</time>
      </trkpt>
      <trkpt lat="47.05809" lon="5.18143">
        <ele>187.8</ele>
        <time>2022-03-21T10:38:13Z</time>
      </trkpt>
      <trkpt lat="47.05803" lon="5.18148">
        <ele>187.8</ele>
        <time>2022-03-21T10:38:14Z</time>
      </trkpt>
      <trkpt lat="47.05791" lon="5.18156">
        <ele>187.8</ele>
        <time>2022-03-21T10:38:15Z</time>
      </trkpt>
      <trkpt lat="47.05786" lon="5.18161">
        <ele>187.8</ele>
        <time>2022-03-21T10:38:16Z</time>
      </trkpt>
      <trkpt lat="47.0578" lon="5.18166">
        <ele>187.8</ele>
        <time>2022-03-21T10:38:18Z</time>
      </trkpt>
      <trkpt lat="47.05774" lon="5.18171">
        <ele>187.8</ele>
        <time>2022-03-21T10:38:19Z</time>
      </trkpt>
      <trkpt lat="47.05769" lon="5.18177">
        <ele>187.8</ele>
        <time>2022-03-21T10:38:20Z</time>
      </trkpt>
      <trkpt lat="47.05764" lon="5.18183">
        <ele>187.6</ele>
        <time>2022-03-21T10:38:21Z</time>
      </trkpt>
      <trkpt lat="47.0576" lon="5.1819">
        <ele>187.6</ele>
        <time>2022-03-21T10:38:22Z</time>
      </trkpt>
      <trkpt lat="47.05755" lon="5.18197">
        <ele>187.6</ele>
        <time>2022-03-21T10:38:23Z</time>
      </trkpt>
      <trkpt lat="47.05751" lon="5.18205">
        <ele>187.6</ele>
        <time>2022-03-21T10:38:24Z</time>
      </trkpt>
      <trkpt lat="47.05747" lon="5.18213">
        <ele>187.6</ele>
        <time>2022-03-21T10:38:25Z</time>
      </trkpt>
      <trkpt lat="47.05742" lon="5.1822">
        <ele>187.6</ele>
        <time>2022-03-21T10:38:26Z</time>
      </trkpt>
      <trkpt lat="47.05738" lon="5.18228">
        <ele>187.6</ele>
        <time>2022-03-21T10:38:27Z</time>
      </trkpt>
      <trkpt lat="47.05733" lon="5.18235">
        <ele>187.6</ele>
        <time>2022-03-21T10:38:28Z</time>
      </trkpt>
      <trkpt lat="47.05729" lon="5.18243">
        <ele>187.6</ele>
        <time>2022-03-21T10:38:29Z</time>
      </trkpt>
      <trkpt lat="47.05724" lon="5.18251">
        <ele>187.6</ele>
        <time>2022-03-21T10:38:30Z</time>
      </trkpt>
      <trkpt lat="47.0572" lon="5.18259">
        <ele>187.6</ele>
        <time>2022-03-21T10:38:31Z</time>
      </trkpt>
      <trkpt lat="47.05715" lon="5.18266">
        <ele>187.6</ele>
        <time>2022-03-21T10:38:32Z</time>
      </trkpt>
      <trkpt lat="47.05711" lon="5.18274">
        <ele>187.6</ele>
        <time>2022-03-21T10:38:33Z</time>
      </trkpt>
      <trkpt lat="47.05706" lon="5.18282">
        <ele>187.6</ele>
        <time>2022-03-21T10:38:34Z</time>
      </trkpt>
      <trkpt lat="47.05702" lon="5.1829">
        <ele>187.6</ele>
        <time>2022-03-21T10:38:35Z</time>
      </trkpt>
      <trkpt lat="47.05698" lon="5.18297">
        <ele>187.6</ele>
        <time>2022-03-21T10:38:36Z</time>
      </trkpt>
      <trkpt lat="47.05693" lon="5.18305">
        <ele>187.6</ele>
        <time>2022-03-21T10:38:37Z</time>
      </trkpt>
      <trkpt lat="47.05689" lon="5.18312">
        <ele>187.6</ele>
        <time>2022-03-21T10:38:38Z</time>
      </trkpt>
      <trkpt lat="47.05685" lon="5.1832">
        <ele>187.6</ele>
        <time>2022-03-21T10:38:39Z</time>
      </trkpt>
      <trkpt lat="47.05681" lon="5.18328">
        <ele>188</ele>
        <time>2022-03-21T10:38:40Z</time>
      </trkpt>
      <trkpt lat="47.05677" lon="5.18335">
        <ele>188</ele>
        <time>2022-03-21T10:38:41Z</time>
      </trkpt>
      <trkpt lat="47.05672" lon="5.18342">
        <ele>188</ele>
        <time>2022-03-21T10:38:42Z</time>
      </trkpt>
      <trkpt lat="47.05668" lon="5.1835">
        <ele>188</ele>
        <time>2022-03-21T10:38:43Z</time>
      </trkpt>
      <trkpt lat="47.05664" lon="5.18357">
        <ele>188</ele>
        <time>2022-03-21T10:38:44Z</time>
      </trkpt>
      <trkpt lat="47.0566" lon="5.18365">
        <ele>188</ele>
        <time>2022-03-21T10:38:45Z</time>
      </trkpt>
      <trkpt lat="47.05656" lon="5.18372">
        <ele>188.2</ele>
        <time>2022-03-21T10:38:46Z</time>
      </trkpt>
      <trkpt lat="47.05652" lon="5.18379">
        <ele>188.2</ele>
        <time>2022-03-21T10:38:47Z</time>
      </trkpt>
      <trkpt lat="47.05648" lon="5.18386">
        <ele>188.2</ele>
        <time>2022-03-21T10:38:48Z</time>
      </trkpt>
      <trkpt lat="47.05644" lon="5.18393">
        <ele>188.2</ele>
        <time>2022-03-21T10:38:49Z</time>
      </trkpt>
      <trkpt lat="47.0564" lon="5.184">
        <ele>188.6</ele>
        <time>2022-03-21T10:38:50Z</time>
      </trkpt>
      <trkpt lat="47.05636" lon="5.18408">
        <ele>188.6</ele>
        <time>2022-03-21T10:38:51Z</time>
      </trkpt>
      <trkpt lat="47.05632" lon="5.18415">
        <ele>188.6</ele>
        <time>2022-03-21T10:38:52Z</time>
      </trkpt>
      <trkpt lat="47.05628" lon="5.18423">
        <ele>188.8</ele>
        <time>2022-03-21T10:38:53Z</time>
      </trkpt>
      <trkpt lat="47.05624" lon="5.1843">
        <ele>188.8</ele>
        <time>2022-03-21T10:38:54Z</time>
      </trkpt>
      <trkpt lat="47.05619" lon="5.18438">
        <ele>188.8</ele>
        <time>2022-03-21T10:38:55Z</time>
      </trkpt>
      <trkpt lat="47.05615" lon="5.18445">
        <ele>188.8</ele>
        <time>2022-03-21T10:38:56Z</time>
      </trkpt>
      <trkpt lat="47.0561" lon="5.18452">
        <ele>188.8</ele>
        <time>2022-03-21T10:38:57Z</time>
      </trkpt>
      <trkpt lat="47.05606" lon="5.1846">
        <ele>188.8</ele>
        <time>2022-03-21T10:38:58Z</time>
      </trkpt>
      <trkpt lat="47.05601" lon="5.18466">
        <ele>189</ele>
        <time>2022-03-21T10:38:59Z</time>
      </trkpt>
      <trkpt lat="47.05595" lon="5.18473">
        <ele>189</ele>
        <time>2022-03-21T10:39:00Z</time>
      </trkpt>
      <trkpt lat="47.0559" lon="5.18479">
        <ele>189</ele>
        <time>2022-03-21T10:39:01Z</time>
      </trkpt>
      <trkpt lat="47.05585" lon="5.18485">
        <ele>189</ele>
        <time>2022-03-21T10:39:02Z</time>
      </trkpt>
      <trkpt lat="47.0558" lon="5.18491">
        <ele>189</ele>
        <time>2022-03-21T10:39:03Z</time>
      </trkpt>
      <trkpt lat="47.05574" lon="5.18497">
        <ele>189</ele>
        <time>2022-03-21T10:39:04Z</time>
      </trkpt>
      <trkpt lat="47.05569" lon="5.18503">
        <ele>189</ele>
        <time>2022-03-21T10:39:05Z</time>
      </trkpt>
      <trkpt lat="47.05564" lon="5.18509">
        <ele>189</ele>
        <time>2022-03-21T10:39:06Z</time>
      </trkpt>
      <trkpt lat="47.05559" lon="5.18515">
        <ele>189</ele>
        <time>2022-03-21T10:39:07Z</time>
      </trkpt>
      <trkpt lat="47.05554" lon="5.1852">
        <ele>189.4</ele>
        <time>2022-03-21T10:39:08Z</time>
      </trkpt>
      <trkpt lat="47.05549" lon="5.18526">
        <ele>189.4</ele>
        <time>2022-03-21T10:39:09Z</time>
      </trkpt>
      <trkpt lat="47.05543" lon="5.18531">
        <ele>189.6</ele>
        <time>2022-03-21T10:39:10Z</time>
      </trkpt>
      <trkpt lat="47.05539" lon="5.18537">
        <ele>189.8</ele>
        <time>2022-03-21T10:39:11Z</time>
      </trkpt>
      <trkpt lat="47.05534" lon="5.18542">
        <ele>189.8</ele>
        <time>2022-03-21T10:39:12Z</time>
      </trkpt>
      <trkpt lat="47.05529" lon="5.18548">
        <ele>190.2</ele>
        <time>2022-03-21T10:39:13Z</time>
      </trkpt>
      <trkpt lat="47.05524" lon="5.18553">
        <ele>190.6</ele>
        <time>2022-03-21T10:39:14Z</time>
      </trkpt>
      <trkpt lat="47.05519" lon="5.18558">
        <ele>190.8</ele>
        <time>2022-03-21T10:39:15Z</time>
      </trkpt>
      <trkpt lat="47.05515" lon="5.18563">
        <ele>191.2</ele>
        <time>2022-03-21T10:39:16Z</time>
      </trkpt>
      <trkpt lat="47.0551" lon="5.18568">
        <ele>191.4</ele>
        <time>2022-03-21T10:39:17Z</time>
      </trkpt>
      <trkpt lat="47.05503" lon="5.18576">
        <ele>191.8</ele>
        <time>2022-03-21T10:39:18Z</time>
      </trkpt>
      <trkpt lat="47.05501" lon="5.18578">
        <ele>192</ele>
        <time>2022-03-21T10:39:19Z</time>
      </trkpt>
      <trkpt lat="47.05496" lon="5.18584">
        <ele>192.4</ele>
        <time>2022-03-21T10:39:20Z</time>
      </trkpt>
      <trkpt lat="47.05491" lon="5.18589">
        <ele>192.6</ele>
        <time>2022-03-21T10:39:21Z</time>
      </trkpt>
      <trkpt lat="47.05484" lon="5.18597">
        <ele>192.8</ele>
        <time>2022-03-21T10:39:22Z</time>
      </trkpt>
      <trkpt lat="47.05482" lon="5.186">
        <ele>193.2</ele>
        <time>2022-03-21T10:39:23Z</time>
      </trkpt>
      <trkpt lat="47.05477" lon="5.18605">
        <ele>193.4</ele>
        <time>2022-03-21T10:39:24Z</time>
      </trkpt>
      <trkpt lat="47.05473" lon="5.1861">
        <ele>193.4</ele>
        <time>2022-03-21T10:39:25Z</time>
      </trkpt>
      <trkpt lat="47.05466" lon="5.18617">
        <ele>193.4</ele>
        <time>2022-03-21T10:39:26Z</time>
      </trkpt>
      <trkpt lat="47.05464" lon="5.18619">
        <ele>193.6</ele>
        <time>2022-03-21T10:39:27Z</time>
      </trkpt>
      <trkpt lat="47.05459" lon="5.18624">
        <ele>193.6</ele>
        <time>2022-03-21T10:39:28Z</time>
      </trkpt>
      <trkpt lat="47.05455" lon="5.18629">
        <ele>193.6</ele>
        <time>2022-03-21T10:39:29Z</time>
      </trkpt>
      <trkpt lat="47.0545" lon="5.18634">
        <ele>193.8</ele>
        <time>2022-03-21T10:39:30Z</time>
      </trkpt>
      <trkpt lat="47.05443" lon="5.18642">
        <ele>193.8</ele>
        <time>2022-03-21T10:39:31Z</time>
      </trkpt>
      <trkpt lat="47.05441" lon="5.18645">
        <ele>194</ele>
        <time>2022-03-21T10:39:32Z</time>
      </trkpt>
      <trkpt lat="47.05437" lon="5.1865">
        <ele>194</ele>
        <time>2022-03-21T10:39:33Z</time>
      </trkpt>
      <trkpt lat="47.05432" lon="5.18656">
        <ele>194</ele>
        <time>2022-03-21T10:39:34Z</time>
      </trkpt>
      <trkpt lat="47.05427" lon="5.18661">
        <ele>194</ele>
        <time>2022-03-21T10:39:35Z</time>
      </trkpt>
      <trkpt lat="47.05422" lon="5.18666">
        <ele>194</ele>
        <time>2022-03-21T10:39:36Z</time>
      </trkpt>
      <trkpt lat="47.05417" lon="5.18672">
        <ele>194</ele>
        <time>2022-03-21T10:39:37Z</time>
      </trkpt>
      <trkpt lat="47.05412" lon="5.18677">
        <ele>194</ele>
        <time>2022-03-21T10:39:38Z</time>
      </trkpt>
      <trkpt lat="47.05407" lon="5.18682">
        <ele>193.8</ele>
        <time>2022-03-21T10:39:39Z</time>
      </trkpt>
      <trkpt lat="47.05402" lon="5.18688">
        <ele>193.8</ele>
        <time>2022-03-21T10:39:40Z</time>
      </trkpt>
      <trkpt lat="47.05396" lon="5.18694">
        <ele>193.6</ele>
        <time>2022-03-21T10:39:41Z</time>
      </trkpt>
      <trkpt lat="47.05391" lon="5.187">
        <ele>193.6</ele>
        <time>2022-03-21T10:39:42Z</time>
      </trkpt>
      <trkpt lat="47.05385" lon="5.18706">
        <ele>193</ele>
        <time>2022-03-21T10:39:43Z</time>
      </trkpt>
      <trkpt lat="47.0538" lon="5.18713">
        <ele>192.8</ele>
        <time>2022-03-21T10:39:44Z</time>
      </trkpt>
      <trkpt lat="47.05374" lon="5.1872">
        <ele>192.4</ele>
        <time>2022-03-21T10:39:45Z</time>
      </trkpt>
      <trkpt lat="47.05368" lon="5.18727">
        <ele>192.2</ele>
        <time>2022-03-21T10:39:46Z</time>
      </trkpt>
      <trkpt lat="47.05361" lon="5.18734">
        <ele>191.8</ele>
        <time>2022-03-21T10:39:47Z</time>
      </trkpt>
      <trkpt lat="47.05355" lon="5.18741">
        <ele>191.4</ele>
        <time>2022-03-21T10:39:48Z</time>
      </trkpt>
      <trkpt lat="47.05348" lon="5.18749">
        <ele>191</ele>
        <time>2022-03-21T10:39:49Z</time>
      </trkpt>
      <trkpt lat="47.05341" lon="5.18756">
        <ele>190.8</ele>
        <time>2022-03-21T10:39:50Z</time>
      </trkpt>
      <trkpt lat="47.05334" lon="5.18764">
        <ele>190.6</ele>
        <time>2022-03-21T10:39:51Z</time>
      </trkpt>
      <trkpt lat="47.05327" lon="5.18772">
        <ele>190.2</ele>
        <time>2022-03-21T10:39:52Z</time>
      </trkpt>
      <trkpt lat="47.05321" lon="5.18779">
        <ele>190.2</ele>
        <time>2022-03-21T10:39:53Z</time>
      </trkpt>
      <trkpt lat="47.05314" lon="5.18787">
        <ele>189.8</ele>
        <time>2022-03-21T10:39:54Z</time>
      </trkpt>
      <trkpt lat="47.05307" lon="5.18794">
        <ele>189.8</ele>
        <time>2022-03-21T10:39:55Z</time>
      </trkpt>
      <trkpt lat="47.053" lon="5.18802">
        <ele>189.4</ele>
        <time>2022-03-21T10:39:56Z</time>
      </trkpt>
      <trkpt lat="47.05293" lon="5.18809">
        <ele>189.4</ele>
        <time>2022-03-21T10:39:57Z</time>
      </trkpt>
      <trkpt lat="47.05287" lon="5.18816">
        <ele>189</ele>
        <time>2022-03-21T10:39:58Z</time>
      </trkpt>
      <trkpt lat="47.05281" lon="5.18824">
        <ele>189</ele>
        <time>2022-03-21T10:39:59Z</time>
      </trkpt>
      <trkpt lat="47.05275" lon="5.18831">
        <ele>189</ele>
        <time>2022-03-21T10:40:00Z</time>
      </trkpt>
      <trkpt lat="47.05268" lon="5.18838">
        <ele>189</ele>
        <time>2022-03-21T10:40:01Z</time>
      </trkpt>
      <trkpt lat="47.05262" lon="5.18845">
        <ele>189</ele>
        <time>2022-03-21T10:40:02Z</time>
      </trkpt>
      <trkpt lat="47.05256" lon="5.18852">
        <ele>189</ele>
        <time>2022-03-21T10:40:03Z</time>
      </trkpt>
      <trkpt lat="47.0525" lon="5.18859">
        <ele>189</ele>
        <time>2022-03-21T10:40:04Z</time>
      </trkpt>
      <trkpt lat="47.05244" lon="5.18866">
        <ele>189</ele>
        <time>2022-03-21T10:40:05Z</time>
      </trkpt>
      <trkpt lat="47.05238" lon="5.18873">
        <ele>189</ele>
        <time>2022-03-21T10:40:06Z</time>
      </trkpt>
      <trkpt lat="47.05232" lon="5.1888">
        <ele>189</ele>
        <time>2022-03-21T10:40:07Z</time>
      </trkpt>
      <trkpt lat="47.05227" lon="5.18886">
        <ele>189</ele>
        <time>2022-03-21T10:40:08Z</time>
      </trkpt>
      <trkpt lat="47.05221" lon="5.18893">
        <ele>189.2</ele>
        <time>2022-03-21T10:40:09Z</time>
      </trkpt>
      <trkpt lat="47.05215" lon="5.189">
        <ele>189.2</ele>
        <time>2022-03-21T10:40:10Z</time>
      </trkpt>
      <trkpt lat="47.0521" lon="5.18906">
        <ele>189.2</ele>
        <time>2022-03-21T10:40:11Z</time>
      </trkpt>
      <trkpt lat="47.05205" lon="5.18912">
        <ele>189.2</ele>
        <time>2022-03-21T10:40:12Z</time>
      </trkpt>
      <trkpt lat="47.052" lon="5.18919">
        <ele>189</ele>
        <time>2022-03-21T10:40:13Z</time>
      </trkpt>
      <trkpt lat="47.05194" lon="5.18925">
        <ele>189</ele>
        <time>2022-03-21T10:40:14Z</time>
      </trkpt>
      <trkpt lat="47.05189" lon="5.18931">
        <ele>188.6</ele>
        <time>2022-03-21T10:40:15Z</time>
      </trkpt>
      <trkpt lat="47.05184" lon="5.18938">
        <ele>188.6</ele>
        <time>2022-03-21T10:40:16Z</time>
      </trkpt>
      <trkpt lat="47.05178" lon="5.18945">
        <ele>188.4</ele>
        <time>2022-03-21T10:40:17Z</time>
      </trkpt>
      <trkpt lat="47.05173" lon="5.18952">
        <ele>188.4</ele>
        <time>2022-03-21T10:40:18Z</time>
      </trkpt>
      <trkpt lat="47.05168" lon="5.18959">
        <ele>188.2</ele>
        <time>2022-03-21T10:40:19Z</time>
      </trkpt>
      <trkpt lat="47.05162" lon="5.18966">
        <ele>188.2</ele>
        <time>2022-03-21T10:40:20Z</time>
      </trkpt>
      <trkpt lat="47.05157" lon="5.18973">
        <ele>187.8</ele>
        <time>2022-03-21T10:40:21Z</time>
      </trkpt>
      <trkpt lat="47.05152" lon="5.18979">
        <ele>187.8</ele>
        <time>2022-03-21T10:40:22Z</time>
      </trkpt>
      <trkpt lat="47.05147" lon="5.18986">
        <ele>187.4</ele>
        <time>2022-03-21T10:40:23Z</time>
      </trkpt>
      <trkpt lat="47.05141" lon="5.18992">
        <ele>187.2</ele>
        <time>2022-03-21T10:40:24Z</time>
      </trkpt>
      <trkpt lat="47.05136" lon="5.18998">
        <ele>187.2</ele>
        <time>2022-03-21T10:40:25Z</time>
      </trkpt>
      <trkpt lat="47.05131" lon="5.19005">
        <ele>187.2</ele>
        <time>2022-03-21T10:40:26Z</time>
      </trkpt>
      <trkpt lat="47.05126" lon="5.19011">
        <ele>187.2</ele>
        <time>2022-03-21T10:40:27Z</time>
      </trkpt>
      <trkpt lat="47.05118" lon="5.19021">
        <ele>187</ele>
        <time>2022-03-21T10:40:28Z</time>
      </trkpt>
      <trkpt lat="47.05116" lon="5.19025">
        <ele>187</ele>
        <time>2022-03-21T10:40:29Z</time>
      </trkpt>
      <trkpt lat="47.05111" lon="5.19031">
        <ele>187</ele>
        <time>2022-03-21T10:40:30Z</time>
      </trkpt>
      <trkpt lat="47.05105" lon="5.19037">
        <ele>187</ele>
        <time>2022-03-21T10:40:31Z</time>
      </trkpt>
      <trkpt lat="47.051" lon="5.19044">
        <ele>187</ele>
        <time>2022-03-21T10:40:32Z</time>
      </trkpt>
      <trkpt lat="47.05095" lon="5.19051">
        <ele>187</ele>
        <time>2022-03-21T10:40:33Z</time>
      </trkpt>
      <trkpt lat="47.05089" lon="5.19057">
        <ele>186.6</ele>
        <time>2022-03-21T10:40:34Z</time>
      </trkpt>
      <trkpt lat="47.05084" lon="5.19064">
        <ele>186.6</ele>
        <time>2022-03-21T10:40:35Z</time>
      </trkpt>
      <trkpt lat="47.05079" lon="5.19071">
        <ele>186.6</ele>
        <time>2022-03-21T10:40:36Z</time>
      </trkpt>
      <trkpt lat="47.05073" lon="5.19077">
        <ele>186.6</ele>
        <time>2022-03-21T10:40:37Z</time>
      </trkpt>
      <trkpt lat="47.05068" lon="5.19084">
        <ele>186.6</ele>
        <time>2022-03-21T10:40:38Z</time>
      </trkpt>
      <trkpt lat="47.05062" lon="5.19091">
        <ele>186.6</ele>
        <time>2022-03-21T10:40:39Z</time>
      </trkpt>
      <trkpt lat="47.05057" lon="5.19098">
        <ele>186.6</ele>
        <time>2022-03-21T10:40:40Z</time>
      </trkpt>
      <trkpt lat="47.05051" lon="5.19104">
        <ele>186.6</ele>
        <time>2022-03-21T10:40:41Z</time>
      </trkpt>
      <trkpt lat="47.05046" lon="5.1911">
        <ele>186.6</ele>
        <time>2022-03-21T10:40:42Z</time>
      </trkpt>
      <trkpt lat="47.0504" lon="5.19117">
        <ele>186.6</ele>
        <time>2022-03-21T10:40:43Z</time>
      </trkpt>
      <trkpt lat="47.05032" lon="5.19127">
        <ele>186.6</ele>
        <time>2022-03-21T10:40:44Z</time>
      </trkpt>
      <trkpt lat="47.05029" lon="5.19131">
        <ele>186.6</ele>
        <time>2022-03-21T10:40:45Z</time>
      </trkpt>
      <trkpt lat="47.05024" lon="5.19138">
        <ele>186.6</ele>
        <time>2022-03-21T10:40:46Z</time>
      </trkpt>
      <trkpt lat="47.05019" lon="5.19145">
        <ele>187</ele>
        <time>2022-03-21T10:40:47Z</time>
      </trkpt>
      <trkpt lat="47.05014" lon="5.19152">
        <ele>187</ele>
        <time>2022-03-21T10:40:48Z</time>
      </trkpt>
      <trkpt lat="47.05009" lon="5.1916">
        <ele>187</ele>
        <time>2022-03-21T10:40:49Z</time>
      </trkpt>
      <trkpt lat="47.05005" lon="5.19168">
        <ele>187</ele>
        <time>2022-03-21T10:40:50Z</time>
      </trkpt>
      <trkpt lat="47.05001" lon="5.19177">
        <ele>187</ele>
        <time>2022-03-21T10:40:51Z</time>
      </trkpt>
      <trkpt lat="47.04997" lon="5.19186">
        <ele>187</ele>
        <time>2022-03-21T10:40:52Z</time>
      </trkpt>
      <trkpt lat="47.04993" lon="5.19194">
        <ele>187</ele>
        <time>2022-03-21T10:40:53Z</time>
      </trkpt>
      <trkpt lat="47.04989" lon="5.19203">
        <ele>186.8</ele>
        <time>2022-03-21T10:40:54Z</time>
      </trkpt>
      <trkpt lat="47.04985" lon="5.19212">
        <ele>186.8</ele>
        <time>2022-03-21T10:40:55Z</time>
      </trkpt>
      <trkpt lat="47.04982" lon="5.19221">
        <ele>186.8</ele>
        <time>2022-03-21T10:40:56Z</time>
      </trkpt>
      <trkpt lat="47.04979" lon="5.1923">
        <ele>186.8</ele>
        <time>2022-03-21T10:40:57Z</time>
      </trkpt>
      <trkpt lat="47.04975" lon="5.19238">
        <ele>186.8</ele>
        <time>2022-03-21T10:40:58Z</time>
      </trkpt>
      <trkpt lat="47.04972" lon="5.19248">
        <ele>186.8</ele>
        <time>2022-03-21T10:40:59Z</time>
      </trkpt>
      <trkpt lat="47.04969" lon="5.19257">
        <ele>186.8</ele>
        <time>2022-03-21T10:41:00Z</time>
      </trkpt>
      <trkpt lat="47.04966" lon="5.19266">
        <ele>186.8</ele>
        <time>2022-03-21T10:41:01Z</time>
      </trkpt>
      <trkpt lat="47.04962" lon="5.19274">
        <ele>186.8</ele>
        <time>2022-03-21T10:41:02Z</time>
      </trkpt>
      <trkpt lat="47.04959" lon="5.19283">
        <ele>186.8</ele>
        <time>2022-03-21T10:41:03Z</time>
      </trkpt>
      <trkpt lat="47.04955" lon="5.19293">
        <ele>186.8</ele>
        <time>2022-03-21T10:41:04Z</time>
      </trkpt>
      <trkpt lat="47.04951" lon="5.19302">
        <ele>186.8</ele>
        <time>2022-03-21T10:41:05Z</time>
      </trkpt>
      <trkpt lat="47.04947" lon="5.1931">
        <ele>186.8</ele>
        <time>2022-03-21T10:41:06Z</time>
      </trkpt>
      <trkpt lat="47.04942" lon="5.19319">
        <ele>186.8</ele>
        <time>2022-03-21T10:41:07Z</time>
      </trkpt>
      <trkpt lat="47.04936" lon="5.19326">
        <ele>186.4</ele>
        <time>2022-03-21T10:41:08Z</time>
      </trkpt>
      <trkpt lat="47.0493" lon="5.19333">
        <ele>186.4</ele>
        <time>2022-03-21T10:41:09Z</time>
      </trkpt>
      <trkpt lat="47.04924" lon="5.19339">
        <ele>186.4</ele>
        <time>2022-03-21T10:41:10Z</time>
      </trkpt>
      <trkpt lat="47.04917" lon="5.19344">
        <ele>186.4</ele>
        <time>2022-03-21T10:41:11Z</time>
      </trkpt>
      <trkpt lat="47.0491" lon="5.19348">
        <ele>186.4</ele>
        <time>2022-03-21T10:41:12Z</time>
      </trkpt>
      <trkpt lat="47.04904" lon="5.19352">
        <ele>186.4</ele>
        <time>2022-03-21T10:41:13Z</time>
      </trkpt>
      <trkpt lat="47.04897" lon="5.19356">
        <ele>186.4</ele>
        <time>2022-03-21T10:41:14Z</time>
      </trkpt>
      <trkpt lat="47.04891" lon="5.19361">
        <ele>186.4</ele>
        <time>2022-03-21T10:41:15Z</time>
      </trkpt>
      <trkpt lat="47.04885" lon="5.19367">
        <ele>186.4</ele>
        <time>2022-03-21T10:41:16Z</time>
      </trkpt>
      <trkpt lat="47.04879" lon="5.19373">
        <ele>186.4</ele>
        <time>2022-03-21T10:41:17Z</time>
      </trkpt>
      <trkpt lat="47.04874" lon="5.19379">
        <ele>186.4</ele>
        <time>2022-03-21T10:41:18Z</time>
      </trkpt>
      <trkpt lat="47.04868" lon="5.19385">
        <ele>186.4</ele>
        <time>2022-03-21T10:41:19Z</time>
      </trkpt>
      <trkpt lat="47.04863" lon="5.19392">
        <ele>186.2</ele>
        <time>2022-03-21T10:41:20Z</time>
      </trkpt>
      <trkpt lat="47.04857" lon="5.19398">
        <ele>186.2</ele>
        <time>2022-03-21T10:41:21Z</time>
      </trkpt>
      <trkpt lat="47.04852" lon="5.19405">
        <ele>186.2</ele>
        <time>2022-03-21T10:41:22Z</time>
      </trkpt>
      <trkpt lat="47.04847" lon="5.19412">
        <ele>186.2</ele>
        <time>2022-03-21T10:41:23Z</time>
      </trkpt>
      <trkpt lat="47.04842" lon="5.19419">
        <ele>186.4</ele>
        <time>2022-03-21T10:41:24Z</time>
      </trkpt>
      <trkpt lat="47.04837" lon="5.19425">
        <ele>186.4</ele>
        <time>2022-03-21T10:41:25Z</time>
      </trkpt>
      <trkpt lat="47.04832" lon="5.19432">
        <ele>186.4</ele>
        <time>2022-03-21T10:41:26Z</time>
      </trkpt>
      <trkpt lat="47.04828" lon="5.19439">
        <ele>186.8</ele>
        <time>2022-03-21T10:41:27Z</time>
      </trkpt>
      <trkpt lat="47.04823" lon="5.19445">
        <ele>186.8</ele>
        <time>2022-03-21T10:41:28Z</time>
      </trkpt>
      <trkpt lat="47.04818" lon="5.19452">
        <ele>187</ele>
        <time>2022-03-21T10:41:29Z</time>
      </trkpt>
      <trkpt lat="47.04813" lon="5.19459">
        <ele>187</ele>
        <time>2022-03-21T10:41:30Z</time>
      </trkpt>
      <trkpt lat="47.04808" lon="5.19465">
        <ele>187.2</ele>
        <time>2022-03-21T10:41:31Z</time>
      </trkpt>
      <trkpt lat="47.04803" lon="5.19472">
        <ele>187.2</ele>
        <time>2022-03-21T10:41:32Z</time>
      </trkpt>
      <trkpt lat="47.04798" lon="5.19478">
        <ele>187.2</ele>
        <time>2022-03-21T10:41:33Z</time>
      </trkpt>
      <trkpt lat="47.04793" lon="5.19485">
        <ele>187.4</ele>
        <time>2022-03-21T10:41:34Z</time>
      </trkpt>
      <trkpt lat="47.04788" lon="5.19491">
        <ele>187.4</ele>
        <time>2022-03-21T10:41:35Z</time>
      </trkpt>
      <trkpt lat="47.04782" lon="5.19497">
        <ele>187.4</ele>
        <time>2022-03-21T10:41:36Z</time>
      </trkpt>
      <trkpt lat="47.04777" lon="5.19503">
        <ele>187.6</ele>
        <time>2022-03-21T10:41:37Z</time>
      </trkpt>
      <trkpt lat="47.04772" lon="5.19509">
        <ele>187.6</ele>
        <time>2022-03-21T10:41:38Z</time>
      </trkpt>
      <trkpt lat="47.04767" lon="5.19514">
        <ele>187.6</ele>
        <time>2022-03-21T10:41:39Z</time>
      </trkpt>
      <trkpt lat="47.04762" lon="5.19519">
        <ele>187.6</ele>
        <time>2022-03-21T10:41:40Z</time>
      </trkpt>
      <trkpt lat="47.04757" lon="5.19525">
        <ele>187.6</ele>
        <time>2022-03-21T10:41:41Z</time>
      </trkpt>
      <trkpt lat="47.04753" lon="5.19532">
        <ele>187.6</ele>
        <time>2022-03-21T10:41:42Z</time>
      </trkpt>
      <trkpt lat="47.04748" lon="5.19538">
        <ele>187.6</ele>
        <time>2022-03-21T10:41:43Z</time>
      </trkpt>
      <trkpt lat="47.04744" lon="5.19544">
        <ele>187.6</ele>
        <time>2022-03-21T10:41:44Z</time>
      </trkpt>
      <trkpt lat="47.04739" lon="5.1955">
        <ele>188</ele>
        <time>2022-03-21T10:41:45Z</time>
      </trkpt>
      <trkpt lat="47.04735" lon="5.19555">
        <ele>188</ele>
        <time>2022-03-21T10:41:46Z</time>
      </trkpt>
      <trkpt lat="47.0473" lon="5.1956">
        <ele>188</ele>
        <time>2022-03-21T10:41:47Z</time>
      </trkpt>
      <trkpt lat="47.04725" lon="5.19565">
        <ele>188</ele>
        <time>2022-03-21T10:41:48Z</time>
      </trkpt>
      <trkpt lat="47.04721" lon="5.19571">
        <ele>188.2</ele>
        <time>2022-03-21T10:41:49Z</time>
      </trkpt>
      <trkpt lat="47.04717" lon="5.19577">
        <ele>188.2</ele>
        <time>2022-03-21T10:41:50Z</time>
      </trkpt>
      <trkpt lat="47.04714" lon="5.19584">
        <ele>188.2</ele>
        <time>2022-03-21T10:41:51Z</time>
      </trkpt>
      <trkpt lat="47.04711" lon="5.19591">
        <ele>188.2</ele>
        <time>2022-03-21T10:41:52Z</time>
      </trkpt>
      <trkpt lat="47.04709" lon="5.19599">
        <ele>188.2</ele>
        <time>2022-03-21T10:41:53Z</time>
      </trkpt>
      <trkpt lat="47.04709" lon="5.19607">
        <ele>188.2</ele>
        <time>2022-03-21T10:41:54Z</time>
      </trkpt>
      <trkpt lat="47.04709" lon="5.19616">
        <ele>188.2</ele>
        <time>2022-03-21T10:41:55Z</time>
      </trkpt>
      <trkpt lat="47.04709" lon="5.19625">
        <ele>188.2</ele>
        <time>2022-03-21T10:41:56Z</time>
      </trkpt>
      <trkpt lat="47.04711" lon="5.19634">
        <ele>188.2</ele>
        <time>2022-03-21T10:41:57Z</time>
      </trkpt>
      <trkpt lat="47.04712" lon="5.19643">
        <ele>188.2</ele>
        <time>2022-03-21T10:41:58Z</time>
      </trkpt>
      <trkpt lat="47.04714" lon="5.19652">
        <ele>188.2</ele>
        <time>2022-03-21T10:41:59Z</time>
      </trkpt>
      <trkpt lat="47.04719" lon="5.1967">
        <ele>188.2</ele>
        <time>2022-03-21T10:42:00Z</time>
      </trkpt>
      <trkpt lat="47.04721" lon="5.19679">
        <ele>188.2</ele>
        <time>2022-03-21T10:42:01Z</time>
      </trkpt>
      <trkpt lat="47.04722" lon="5.19688">
        <ele>188.2</ele>
        <time>2022-03-21T10:42:02Z</time>
      </trkpt>
      <trkpt lat="47.04722" lon="5.19698">
        <ele>188.2</ele>
        <time>2022-03-21T10:42:03Z</time>
      </trkpt>
      <trkpt lat="47.0472" lon="5.19707">
        <ele>188.2</ele>
        <time>2022-03-21T10:42:04Z</time>
      </trkpt>
      <trkpt lat="47.04718" lon="5.19711">
        <ele>188.2</ele>
        <time>2022-03-21T10:42:05Z</time>
      </trkpt>
      <trkpt lat="47.04717" lon="5.19715">
        <ele>188.2</ele>
        <time>2022-03-21T10:42:06Z</time>
      </trkpt>
      <trkpt lat="47.04713" lon="5.19722">
        <ele>188.2</ele>
        <time>2022-03-21T10:42:07Z</time>
      </trkpt>
      <trkpt lat="47.04708" lon="5.19729">
        <ele>188.2</ele>
        <time>2022-03-21T10:42:08Z</time>
      </trkpt>
      <trkpt lat="47.04703" lon="5.19736">
        <ele>188.2</ele>
        <time>2022-03-21T10:42:09Z</time>
      </trkpt>
      <trkpt lat="47.04698" lon="5.19743">
        <ele>188.2</ele>
        <time>2022-03-21T10:42:10Z</time>
      </trkpt>
      <trkpt lat="47.04693" lon="5.1975">
        <ele>188.2</ele>
        <time>2022-03-21T10:42:11Z</time>
      </trkpt>
      <trkpt lat="47.04688" lon="5.19757">
        <ele>188.2</ele>
        <time>2022-03-21T10:42:12Z</time>
      </trkpt>
      <trkpt lat="47.04683" lon="5.19763">
        <ele>188.2</ele>
        <time>2022-03-21T10:42:13Z</time>
      </trkpt>
      <trkpt lat="47.04677" lon="5.1977">
        <ele>188</ele>
        <time>2022-03-21T10:42:14Z</time>
      </trkpt>
      <trkpt lat="47.04672" lon="5.19776">
        <ele>188</ele>
        <time>2022-03-21T10:42:15Z</time>
      </trkpt>
      <trkpt lat="47.04667" lon="5.19783">
        <ele>188</ele>
        <time>2022-03-21T10:42:16Z</time>
      </trkpt>
      <trkpt lat="47.04662" lon="5.1979">
        <ele>188</ele>
        <time>2022-03-21T10:42:17Z</time>
      </trkpt>
      <trkpt lat="47.04656" lon="5.19795">
        <ele>188</ele>
        <time>2022-03-21T10:42:18Z</time>
      </trkpt>
      <trkpt lat="47.0465" lon="5.19798">
        <ele>188.2</ele>
        <time>2022-03-21T10:42:19Z</time>
      </trkpt>
      <trkpt lat="47.04643" lon="5.19799">
        <ele>188.2</ele>
        <time>2022-03-21T10:42:20Z</time>
      </trkpt>
      <trkpt lat="47.04637" lon="5.19799">
        <ele>188.2</ele>
        <time>2022-03-21T10:42:21Z</time>
      </trkpt>
      <trkpt lat="47.0463" lon="5.19797">
        <ele>188.2</ele>
        <time>2022-03-21T10:42:22Z</time>
      </trkpt>
      <trkpt lat="47.04624" lon="5.19794">
        <ele>188.4</ele>
        <time>2022-03-21T10:42:23Z</time>
      </trkpt>
      <trkpt lat="47.04618" lon="5.19789">
        <ele>188.4</ele>
        <time>2022-03-21T10:42:24Z</time>
      </trkpt>
      <trkpt lat="47.04613" lon="5.19784">
        <ele>188.4</ele>
        <time>2022-03-21T10:42:25Z</time>
      </trkpt>
      <trkpt lat="47.04607" lon="5.19779">
        <ele>188.4</ele>
        <time>2022-03-21T10:42:26Z</time>
      </trkpt>
      <trkpt lat="47.046" lon="5.19771">
        <ele>188.6</ele>
        <time>2022-03-21T10:42:27Z</time>
      </trkpt>
      <trkpt lat="47.04597" lon="5.19768">
        <ele>188.6</ele>
        <time>2022-03-21T10:42:28Z</time>
      </trkpt>
      <trkpt lat="47.04592" lon="5.19762">
        <ele>188.6</ele>
        <time>2022-03-21T10:42:29Z</time>
      </trkpt>
      <trkpt lat="47.04587" lon="5.19757">
        <ele>188.6</ele>
        <time>2022-03-21T10:42:30Z</time>
      </trkpt>
      <trkpt lat="47.04582" lon="5.19751">
        <ele>188.6</ele>
        <time>2022-03-21T10:42:31Z</time>
      </trkpt>
      <trkpt lat="47.04577" lon="5.19746">
        <ele>188.6</ele>
        <time>2022-03-21T10:42:32Z</time>
      </trkpt>
      <trkpt lat="47.04572" lon="5.19741">
        <ele>188.6</ele>
        <time>2022-03-21T10:42:33Z</time>
      </trkpt>
      <trkpt lat="47.04568" lon="5.19736">
        <ele>188.8</ele>
        <time>2022-03-21T10:42:34Z</time>
      </trkpt>
      <trkpt lat="47.04563" lon="5.1973">
        <ele>188.8</ele>
        <time>2022-03-21T10:42:35Z</time>
      </trkpt>
      <trkpt lat="47.04558" lon="5.19725">
        <ele>189</ele>
        <time>2022-03-21T10:42:36Z</time>
      </trkpt>
      <trkpt lat="47.04553" lon="5.19721">
        <ele>189</ele>
        <time>2022-03-21T10:42:37Z</time>
      </trkpt>
      <trkpt lat="47.04548" lon="5.19716">
        <ele>189</ele>
        <time>2022-03-21T10:42:38Z</time>
      </trkpt>
      <trkpt lat="47.04543" lon="5.19711">
        <ele>189</ele>
        <time>2022-03-21T10:42:39Z</time>
      </trkpt>
      <trkpt lat="47.04538" lon="5.19706">
        <ele>189.2</ele>
        <time>2022-03-21T10:42:40Z</time>
      </trkpt>
      <trkpt lat="47.04533" lon="5.19701">
        <ele>189.2</ele>
        <time>2022-03-21T10:42:41Z</time>
      </trkpt>
      <trkpt lat="47.04528" lon="5.19697">
        <ele>189.6</ele>
        <time>2022-03-21T10:42:42Z</time>
      </trkpt>
      <trkpt lat="47.04523" lon="5.19693">
        <ele>189.6</ele>
        <time>2022-03-21T10:42:43Z</time>
      </trkpt>
      <trkpt lat="47.04518" lon="5.1969">
        <ele>189.6</ele>
        <time>2022-03-21T10:42:44Z</time>
      </trkpt>
      <trkpt lat="47.04512" lon="5.19688">
        <ele>189.8</ele>
        <time>2022-03-21T10:42:45Z</time>
      </trkpt>
      <trkpt lat="47.04507" lon="5.19686">
        <ele>189.8</ele>
        <time>2022-03-21T10:42:46Z</time>
      </trkpt>
      <trkpt lat="47.04501" lon="5.19684">
        <ele>189.8</ele>
        <time>2022-03-21T10:42:47Z</time>
      </trkpt>
      <trkpt lat="47.04495" lon="5.19684">
        <ele>190</ele>
        <time>2022-03-21T10:42:48Z</time>
      </trkpt>
      <trkpt lat="47.04489" lon="5.19684">
        <ele>190</ele>
        <time>2022-03-21T10:42:49Z</time>
      </trkpt>
      <trkpt lat="47.04484" lon="5.19684">
        <ele>190.4</ele>
        <time>2022-03-21T10:42:50Z</time>
      </trkpt>
      <trkpt lat="47.04478" lon="5.19684">
        <ele>190.4</ele>
        <time>2022-03-21T10:42:51Z</time>
      </trkpt>
      <trkpt lat="47.04472" lon="5.19685">
        <ele>190.6</ele>
        <time>2022-03-21T10:42:52Z</time>
      </trkpt>
      <trkpt lat="47.04467" lon="5.19687">
        <ele>190.6</ele>
        <time>2022-03-21T10:42:53Z</time>
      </trkpt>
      <trkpt lat="47.04461" lon="5.19689">
        <ele>191</ele>
        <time>2022-03-21T10:42:54Z</time>
      </trkpt>
      <trkpt lat="47.04456" lon="5.19691">
        <ele>191.2</ele>
        <time>2022-03-21T10:42:55Z</time>
      </trkpt>
      <trkpt lat="47.0445" lon="5.19694">
        <ele>191.4</ele>
        <time>2022-03-21T10:42:56Z</time>
      </trkpt>
      <trkpt lat="47.04445" lon="5.19698">
        <ele>191.8</ele>
        <time>2022-03-21T10:42:57Z</time>
      </trkpt>
      <trkpt lat="47.0444" lon="5.19702">
        <ele>192</ele>
        <time>2022-03-21T10:42:58Z</time>
      </trkpt>
      <trkpt lat="47.04436" lon="5.19707">
        <ele>192.4</ele>
        <time>2022-03-21T10:42:59Z</time>
      </trkpt>
      <trkpt lat="47.04431" lon="5.19712">
        <ele>192.4</ele>
        <time>2022-03-21T10:43:00Z</time>
      </trkpt>
      <trkpt lat="47.04427" lon="5.19717">
        <ele>192.6</ele>
        <time>2022-03-21T10:43:01Z</time>
      </trkpt>
      <trkpt lat="47.04424" lon="5.19723">
        <ele>193</ele>
        <time>2022-03-21T10:43:02Z</time>
      </trkpt>
      <trkpt lat="47.0442" lon="5.19729">
        <ele>193</ele>
        <time>2022-03-21T10:43:03Z</time>
      </trkpt>
      <trkpt lat="47.04416" lon="5.19735">
        <ele>193.4</ele>
        <time>2022-03-21T10:43:04Z</time>
      </trkpt>
      <trkpt lat="47.04412" lon="5.19741">
        <ele>193.6</ele>
        <time>2022-03-21T10:43:05Z</time>
      </trkpt>
      <trkpt lat="47.04409" lon="5.19747">
        <ele>193.8</ele>
        <time>2022-03-21T10:43:06Z</time>
      </trkpt>
      <trkpt lat="47.04406" lon="5.19753">
        <ele>194.2</ele>
        <time>2022-03-21T10:43:07Z</time>
      </trkpt>
      <trkpt lat="47.04402" lon="5.19759">
        <ele>194.2</ele>
        <time>2022-03-21T10:43:08Z</time>
      </trkpt>
      <trkpt lat="47.04399" lon="5.19765">
        <ele>194.4</ele>
        <time>2022-03-21T10:43:09Z</time>
      </trkpt>
      <trkpt lat="47.04396" lon="5.1977">
        <ele>194.4</ele>
        <time>2022-03-21T10:43:10Z</time>
      </trkpt>
      <trkpt lat="47.04393" lon="5.19776">
        <ele>194.8</ele>
        <time>2022-03-21T10:43:11Z</time>
      </trkpt>
      <trkpt lat="47.04389" lon="5.19782">
        <ele>194.8</ele>
        <time>2022-03-21T10:43:12Z</time>
      </trkpt>
      <trkpt lat="47.04386" lon="5.19788">
        <ele>194.8</ele>
        <time>2022-03-21T10:43:13Z</time>
      </trkpt>
      <trkpt lat="47.04383" lon="5.19794">
        <ele>195</ele>
        <time>2022-03-21T10:43:14Z</time>
      </trkpt>
      <trkpt lat="47.0438" lon="5.198">
        <ele>195</ele>
        <time>2022-03-21T10:43:15Z</time>
      </trkpt>
      <trkpt lat="47.04377" lon="5.19806">
        <ele>195</ele>
        <time>2022-03-21T10:43:16Z</time>
      </trkpt>
      <trkpt lat="47.04373" lon="5.19813">
        <ele>195.2</ele>
        <time>2022-03-21T10:43:17Z</time>
      </trkpt>
      <trkpt lat="47.0437" lon="5.19819">
        <ele>195.2</ele>
        <time>2022-03-21T10:43:18Z</time>
      </trkpt>
      <trkpt lat="47.04366" lon="5.19825">
        <ele>195.2</ele>
        <time>2022-03-21T10:43:19Z</time>
      </trkpt>
      <trkpt lat="47.04363" lon="5.19832">
        <ele>195.4</ele>
        <time>2022-03-21T10:43:20Z</time>
      </trkpt>
      <trkpt lat="47.04359" lon="5.19839">
        <ele>195.4</ele>
        <time>2022-03-21T10:43:21Z</time>
      </trkpt>
      <trkpt lat="47.04355" lon="5.19846">
        <ele>195.4</ele>
        <time>2022-03-21T10:43:22Z</time>
      </trkpt>
      <trkpt lat="47.0435" lon="5.19854">
        <ele>195.4</ele>
        <time>2022-03-21T10:43:23Z</time>
      </trkpt>
      <trkpt lat="47.04346" lon="5.19862">
        <ele>195.2</ele>
        <time>2022-03-21T10:43:24Z</time>
      </trkpt>
      <trkpt lat="47.04341" lon="5.19871">
        <ele>195.2</ele>
        <time>2022-03-21T10:43:25Z</time>
      </trkpt>
      <trkpt lat="47.04337" lon="5.1988">
        <ele>194.8</ele>
        <time>2022-03-21T10:43:26Z</time>
      </trkpt>
      <trkpt lat="47.04333" lon="5.19889">
        <ele>194.6</ele>
        <time>2022-03-21T10:43:27Z</time>
      </trkpt>
      <trkpt lat="47.0433" lon="5.199">
        <ele>194.4</ele>
        <time>2022-03-21T10:43:28Z</time>
      </trkpt>
      <trkpt lat="47.04327" lon="5.19911">
        <ele>194</ele>
        <time>2022-03-21T10:43:29Z</time>
      </trkpt>
      <trkpt lat="47.04324" lon="5.19922">
        <ele>193.8</ele>
        <time>2022-03-21T10:43:30Z</time>
      </trkpt>
      <trkpt lat="47.04322" lon="5.19935">
        <ele>193.4</ele>
        <time>2022-03-21T10:43:31Z</time>
      </trkpt>
      <trkpt lat="47.04321" lon="5.19947">
        <ele>193</ele>
        <time>2022-03-21T10:43:32Z</time>
      </trkpt>
      <trkpt lat="47.04322" lon="5.1996">
        <ele>192.8</ele>
        <time>2022-03-21T10:43:33Z</time>
      </trkpt>
      <trkpt lat="47.04323" lon="5.19973">
        <ele>192.4</ele>
        <time>2022-03-21T10:43:34Z</time>
      </trkpt>
      <trkpt lat="47.04325" lon="5.19986">
        <ele>191.8</ele>
        <time>2022-03-21T10:43:35Z</time>
      </trkpt>
      <trkpt lat="47.04329" lon="5.19998">
        <ele>191.4</ele>
        <time>2022-03-21T10:43:36Z</time>
      </trkpt>
      <trkpt lat="47.04333" lon="5.20011">
        <ele>191</ele>
        <time>2022-03-21T10:43:37Z</time>
      </trkpt>
      <trkpt lat="47.04338" lon="5.20023">
        <ele>190.6</ele>
        <time>2022-03-21T10:43:38Z</time>
      </trkpt>
      <trkpt lat="47.04344" lon="5.20036">
        <ele>190</ele>
        <time>2022-03-21T10:43:39Z</time>
      </trkpt>
      <trkpt lat="47.04349" lon="5.20047">
        <ele>189.6</ele>
        <time>2022-03-21T10:43:40Z</time>
      </trkpt>
      <trkpt lat="47.04355" lon="5.20058">
        <ele>189.2</ele>
        <time>2022-03-21T10:43:41Z</time>
      </trkpt>
      <trkpt lat="47.0436" lon="5.20069">
        <ele>188.8</ele>
        <time>2022-03-21T10:43:42Z</time>
      </trkpt>
      <trkpt lat="47.04367" lon="5.20081">
        <ele>188.6</ele>
        <time>2022-03-21T10:43:43Z</time>
      </trkpt>
      <trkpt lat="47.04372" lon="5.20092">
        <ele>188.6</ele>
        <time>2022-03-21T10:43:44Z</time>
      </trkpt>
      <trkpt lat="47.04377" lon="5.20103">
        <ele>188.6</ele>
        <time>2022-03-21T10:43:45Z</time>
      </trkpt>
      <trkpt lat="47.04382" lon="5.20115">
        <ele>188.6</ele>
        <time>2022-03-21T10:43:46Z</time>
      </trkpt>
      <trkpt lat="47.04386" lon="5.20127">
        <ele>188.4</ele>
        <time>2022-03-21T10:43:47Z</time>
      </trkpt>
      <trkpt lat="47.0439" lon="5.20138">
        <ele>188.4</ele>
        <time>2022-03-21T10:43:48Z</time>
      </trkpt>
      <trkpt lat="47.04394" lon="5.20149">
        <ele>188.4</ele>
        <time>2022-03-21T10:43:49Z</time>
      </trkpt>
      <trkpt lat="47.04399" lon="5.2016">
        <ele>188.4</ele>
        <time>2022-03-21T10:43:50Z</time>
      </trkpt>
      <trkpt lat="47.04403" lon="5.20171">
        <ele>188.2</ele>
        <time>2022-03-21T10:43:51Z</time>
      </trkpt>
      <trkpt lat="47.04407" lon="5.20182">
        <ele>188.2</ele>
        <time>2022-03-21T10:43:52Z</time>
      </trkpt>
      <trkpt lat="47.04412" lon="5.20192">
        <ele>188.2</ele>
        <time>2022-03-21T10:43:53Z</time>
      </trkpt>
      <trkpt lat="47.04417" lon="5.20201">
        <ele>188</ele>
        <time>2022-03-21T10:43:54Z</time>
      </trkpt>
      <trkpt lat="47.04421" lon="5.20211">
        <ele>188</ele>
        <time>2022-03-21T10:43:55Z</time>
      </trkpt>
      <trkpt lat="47.04425" lon="5.20221">
        <ele>188</ele>
        <time>2022-03-21T10:43:56Z</time>
      </trkpt>
      <trkpt lat="47.0443" lon="5.20231">
        <ele>188</ele>
        <time>2022-03-21T10:43:57Z</time>
      </trkpt>
      <trkpt lat="47.04434" lon="5.20241">
        <ele>188</ele>
        <time>2022-03-21T10:43:58Z</time>
      </trkpt>
      <trkpt lat="47.04437" lon="5.20251">
        <ele>188</ele>
        <time>2022-03-21T10:43:59Z</time>
      </trkpt>
      <trkpt lat="47.04439" lon="5.20262">
        <ele>188</ele>
        <time>2022-03-21T10:44:00Z</time>
      </trkpt>
      <trkpt lat="47.04441" lon="5.20273">
        <ele>188</ele>
        <time>2022-03-21T10:44:01Z</time>
      </trkpt>
      <trkpt lat="47.04441" lon="5.20284">
        <ele>187.8</ele>
        <time>2022-03-21T10:44:02Z</time>
      </trkpt>
      <trkpt lat="47.04442" lon="5.20296">
        <ele>187.8</ele>
        <time>2022-03-21T10:44:03Z</time>
      </trkpt>
      <trkpt lat="47.04441" lon="5.20307">
        <ele>187.8</ele>
        <time>2022-03-21T10:44:04Z</time>
      </trkpt>
      <trkpt lat="47.0444" lon="5.20318">
        <ele>187.8</ele>
        <time>2022-03-21T10:44:05Z</time>
      </trkpt>
      <trkpt lat="47.04439" lon="5.20329">
        <ele>188</ele>
        <time>2022-03-21T10:44:06Z</time>
      </trkpt>
      <trkpt lat="47.04436" lon="5.20339">
        <ele>188</ele>
        <time>2022-03-21T10:44:07Z</time>
      </trkpt>
      <trkpt lat="47.04434" lon="5.2035">
        <ele>188</ele>
        <time>2022-03-21T10:44:08Z</time>
      </trkpt>
      <trkpt lat="47.0443" lon="5.20359">
        <ele>188.2</ele>
        <time>2022-03-21T10:44:09Z</time>
      </trkpt>
      <trkpt lat="47.04427" lon="5.20369">
        <ele>188.2</ele>
        <time>2022-03-21T10:44:10Z</time>
      </trkpt>
      <trkpt lat="47.04422" lon="5.20377">
        <ele>188.6</ele>
        <time>2022-03-21T10:44:11Z</time>
      </trkpt>
      <trkpt lat="47.04418" lon="5.20386">
        <ele>188.6</ele>
        <time>2022-03-21T10:44:12Z</time>
      </trkpt>
      <trkpt lat="47.04413" lon="5.20394">
        <ele>188.6</ele>
        <time>2022-03-21T10:44:13Z</time>
      </trkpt>
      <trkpt lat="47.04408" lon="5.20401">
        <ele>188.6</ele>
        <time>2022-03-21T10:44:14Z</time>
      </trkpt>
      <trkpt lat="47.04402" lon="5.20408">
        <ele>188.6</ele>
        <time>2022-03-21T10:44:15Z</time>
      </trkpt>
      <trkpt lat="47.04397" lon="5.20416">
        <ele>189</ele>
        <time>2022-03-21T10:44:16Z</time>
      </trkpt>
      <trkpt lat="47.04391" lon="5.20423">
        <ele>189</ele>
        <time>2022-03-21T10:44:17Z</time>
      </trkpt>
      <trkpt lat="47.04386" lon="5.2043">
        <ele>189.2</ele>
        <time>2022-03-21T10:44:18Z</time>
      </trkpt>
      <trkpt lat="47.0438" lon="5.20437">
        <ele>189.2</ele>
        <time>2022-03-21T10:44:19Z</time>
      </trkpt>
      <trkpt lat="47.04374" lon="5.20444">
        <ele>189.2</ele>
        <time>2022-03-21T10:44:20Z</time>
      </trkpt>
      <trkpt lat="47.04369" lon="5.20451">
        <ele>189.2</ele>
        <time>2022-03-21T10:44:21Z</time>
      </trkpt>
      <trkpt lat="47.04363" lon="5.20458">
        <ele>189.4</ele>
        <time>2022-03-21T10:44:22Z</time>
      </trkpt>
      <trkpt lat="47.04358" lon="5.20465">
        <ele>189.4</ele>
        <time>2022-03-21T10:44:23Z</time>
      </trkpt>
      <trkpt lat="47.04353" lon="5.20472">
        <ele>189.4</ele>
        <time>2022-03-21T10:44:24Z</time>
      </trkpt>
      <trkpt lat="47.04348" lon="5.20479">
        <ele>189.4</ele>
        <time>2022-03-21T10:44:25Z</time>
      </trkpt>
      <trkpt lat="47.04342" lon="5.20485">
        <ele>189.4</ele>
        <time>2022-03-21T10:44:26Z</time>
      </trkpt>
      <trkpt lat="47.04337" lon="5.20492">
        <ele>189.6</ele>
        <time>2022-03-21T10:44:27Z</time>
      </trkpt>
      <trkpt lat="47.04332" lon="5.20499">
        <ele>189.6</ele>
        <time>2022-03-21T10:44:28Z</time>
      </trkpt>
      <trkpt lat="47.04328" lon="5.20506">
        <ele>189.6</ele>
        <time>2022-03-21T10:44:29Z</time>
      </trkpt>
      <trkpt lat="47.04324" lon="5.20513">
        <ele>189.8</ele>
        <time>2022-03-21T10:44:30Z</time>
      </trkpt>
      <trkpt lat="47.04319" lon="5.20521">
        <ele>189.8</ele>
        <time>2022-03-21T10:44:31Z</time>
      </trkpt>
      <trkpt lat="47.04314" lon="5.20528">
        <ele>189.8</ele>
        <time>2022-03-21T10:44:32Z</time>
      </trkpt>
      <trkpt lat="47.0431" lon="5.20535">
        <ele>189.8</ele>
        <time>2022-03-21T10:44:33Z</time>
      </trkpt>
      <trkpt lat="47.04305" lon="5.20542">
        <ele>189.8</ele>
        <time>2022-03-21T10:44:34Z</time>
      </trkpt>
      <trkpt lat="47.043" lon="5.20549">
        <ele>189.8</ele>
        <time>2022-03-21T10:44:35Z</time>
      </trkpt>
      <trkpt lat="47.04295" lon="5.20556">
        <ele>189.8</ele>
        <time>2022-03-21T10:44:36Z</time>
      </trkpt>
      <trkpt lat="47.0429" lon="5.20562">
        <ele>189.8</ele>
        <time>2022-03-21T10:44:37Z</time>
      </trkpt>
      <trkpt lat="47.04285" lon="5.20569">
        <ele>189.8</ele>
        <time>2022-03-21T10:44:38Z</time>
      </trkpt>
      <trkpt lat="47.0428" lon="5.20575">
        <ele>190</ele>
        <time>2022-03-21T10:44:39Z</time>
      </trkpt>
      <trkpt lat="47.04274" lon="5.2058">
        <ele>190</ele>
        <time>2022-03-21T10:44:40Z</time>
      </trkpt>
      <trkpt lat="47.04269" lon="5.20586">
        <ele>190</ele>
        <time>2022-03-21T10:44:41Z</time>
      </trkpt>
      <trkpt lat="47.04263" lon="5.20591">
        <ele>190</ele>
        <time>2022-03-21T10:44:42Z</time>
      </trkpt>
      <trkpt lat="47.04258" lon="5.20595">
        <ele>190</ele>
        <time>2022-03-21T10:44:43Z</time>
      </trkpt>
      <trkpt lat="47.04252" lon="5.20599">
        <ele>190</ele>
        <time>2022-03-21T10:44:44Z</time>
      </trkpt>
      <trkpt lat="47.04246" lon="5.20602">
        <ele>190</ele>
        <time>2022-03-21T10:44:45Z</time>
      </trkpt>
      <trkpt lat="47.0424" lon="5.20606">
        <ele>190</ele>
        <time>2022-03-21T10:44:46Z</time>
      </trkpt>
      <trkpt lat="47.04234" lon="5.20609">
        <ele>190</ele>
        <time>2022-03-21T10:44:47Z</time>
      </trkpt>
      <trkpt lat="47.04228" lon="5.20612">
        <ele>190.4</ele>
        <time>2022-03-21T10:44:48Z</time>
      </trkpt>
      <trkpt lat="47.04222" lon="5.20616">
        <ele>190.4</ele>
        <time>2022-03-21T10:44:49Z</time>
      </trkpt>
      <trkpt lat="47.04216" lon="5.2062">
        <ele>190.4</ele>
        <time>2022-03-21T10:44:50Z</time>
      </trkpt>
      <trkpt lat="47.04211" lon="5.20624">
        <ele>190.8</ele>
        <time>2022-03-21T10:44:51Z</time>
      </trkpt>
      <trkpt lat="47.04205" lon="5.20628">
        <ele>190.8</ele>
        <time>2022-03-21T10:44:52Z</time>
      </trkpt>
      <trkpt lat="47.04199" lon="5.20631">
        <ele>191</ele>
        <time>2022-03-21T10:44:53Z</time>
      </trkpt>
      <trkpt lat="47.04194" lon="5.20635">
        <ele>191</ele>
        <time>2022-03-21T10:44:54Z</time>
      </trkpt>
      <trkpt lat="47.04189" lon="5.20639">
        <ele>191.4</ele>
        <time>2022-03-21T10:44:55Z</time>
      </trkpt>
      <trkpt lat="47.04183" lon="5.20642">
        <ele>191.4</ele>
        <time>2022-03-21T10:44:56Z</time>
      </trkpt>
      <trkpt lat="47.04178" lon="5.20645">
        <ele>191.6</ele>
        <time>2022-03-21T10:44:57Z</time>
      </trkpt>
      <trkpt lat="47.04173" lon="5.20648">
        <ele>191.6</ele>
        <time>2022-03-21T10:44:58Z</time>
      </trkpt>
      <trkpt lat="47.04168" lon="5.20651">
        <ele>192</ele>
        <time>2022-03-21T10:44:59Z</time>
      </trkpt>
      <trkpt lat="47.04163" lon="5.20655">
        <ele>192.2</ele>
        <time>2022-03-21T10:45:00Z</time>
      </trkpt>
      <trkpt lat="47.04158" lon="5.20658">
        <ele>192.6</ele>
        <time>2022-03-21T10:45:01Z</time>
      </trkpt>
      <trkpt lat="47.04153" lon="5.20661">
        <ele>192.8</ele>
        <time>2022-03-21T10:45:02Z</time>
      </trkpt>
      <trkpt lat="47.04149" lon="5.20665">
        <ele>192.8</ele>
        <time>2022-03-21T10:45:03Z</time>
      </trkpt>
      <trkpt lat="47.04144" lon="5.20668">
        <ele>193.2</ele>
        <time>2022-03-21T10:45:04Z</time>
      </trkpt>
      <trkpt lat="47.04139" lon="5.20671">
        <ele>193.2</ele>
        <time>2022-03-21T10:45:05Z</time>
      </trkpt>
      <trkpt lat="47.04135" lon="5.20674">
        <ele>193.4</ele>
        <time>2022-03-21T10:45:06Z</time>
      </trkpt>
      <trkpt lat="47.04131" lon="5.20676">
        <ele>193.6</ele>
        <time>2022-03-21T10:45:07Z</time>
      </trkpt>
      <trkpt lat="47.04126" lon="5.20679">
        <ele>193.8</ele>
        <time>2022-03-21T10:45:08Z</time>
      </trkpt>
      <trkpt lat="47.04122" lon="5.20682">
        <ele>193.8</ele>
        <time>2022-03-21T10:45:09Z</time>
      </trkpt>
      <trkpt lat="47.04119" lon="5.20684">
        <ele>194.2</ele>
        <time>2022-03-21T10:45:10Z</time>
      </trkpt>
      <trkpt lat="47.04115" lon="5.20687">
        <ele>194.2</ele>
        <time>2022-03-21T10:45:11Z</time>
      </trkpt>
      <trkpt lat="47.04111" lon="5.20689">
        <ele>194.4</ele>
        <time>2022-03-21T10:45:12Z</time>
      </trkpt>
      <trkpt lat="47.04107" lon="5.20692">
        <ele>194.4</ele>
        <time>2022-03-21T10:45:13Z</time>
      </trkpt>
      <trkpt lat="47.04103" lon="5.20695">
        <ele>194.8</ele>
        <time>2022-03-21T10:45:14Z</time>
      </trkpt>
      <trkpt lat="47.04099" lon="5.20698">
        <ele>194.8</ele>
        <time>2022-03-21T10:45:15Z</time>
      </trkpt>
      <trkpt lat="47.04095" lon="5.20701">
        <ele>195</ele>
        <time>2022-03-21T10:45:16Z</time>
      </trkpt>
      <trkpt lat="47.04091" lon="5.20704">
        <ele>195</ele>
        <time>2022-03-21T10:45:17Z</time>
      </trkpt>
      <trkpt lat="47.04087" lon="5.20707">
        <ele>195.4</ele>
        <time>2022-03-21T10:45:18Z</time>
      </trkpt>
      <trkpt lat="47.04083" lon="5.20711">
        <ele>195.6</ele>
        <time>2022-03-21T10:45:19Z</time>
      </trkpt>
      <trkpt lat="47.04079" lon="5.20714">
        <ele>195.8</ele>
        <time>2022-03-21T10:45:20Z</time>
      </trkpt>
      <trkpt lat="47.04075" lon="5.20717">
        <ele>195.8</ele>
        <time>2022-03-21T10:45:21Z</time>
      </trkpt>
      <trkpt lat="47.04071" lon="5.2072">
        <ele>196.2</ele>
        <time>2022-03-21T10:45:22Z</time>
      </trkpt>
      <trkpt lat="47.04067" lon="5.20723">
        <ele>196.4</ele>
        <time>2022-03-21T10:45:23Z</time>
      </trkpt>
      <trkpt lat="47.04064" lon="5.20726">
        <ele>196.4</ele>
        <time>2022-03-21T10:45:24Z</time>
      </trkpt>
      <trkpt lat="47.0406" lon="5.20728">
        <ele>197</ele>
        <time>2022-03-21T10:45:25Z</time>
      </trkpt>
      <trkpt lat="47.04056" lon="5.2073">
        <ele>197</ele>
        <time>2022-03-21T10:45:26Z</time>
      </trkpt>
      <trkpt lat="47.04052" lon="5.20733">
        <ele>197.2</ele>
        <time>2022-03-21T10:45:27Z</time>
      </trkpt>
      <trkpt lat="47.04049" lon="5.20735">
        <ele>197.2</ele>
        <time>2022-03-21T10:45:28Z</time>
      </trkpt>
      <trkpt lat="47.04045" lon="5.20739">
        <ele>197.8</ele>
        <time>2022-03-21T10:45:29Z</time>
      </trkpt>
      <trkpt lat="47.04041" lon="5.20742">
        <ele>198</ele>
        <time>2022-03-21T10:45:30Z</time>
      </trkpt>
      <trkpt lat="47.04037" lon="5.20745">
        <ele>198.2</ele>
        <time>2022-03-21T10:45:31Z</time>
      </trkpt>
      <trkpt lat="47.04032" lon="5.20749">
        <ele>198.6</ele>
        <time>2022-03-21T10:45:32Z</time>
      </trkpt>
      <trkpt lat="47.0403" lon="5.20751">
        <ele>198.8</ele>
        <time>2022-03-21T10:45:33Z</time>
      </trkpt>
      <trkpt lat="47.04026" lon="5.20753">
        <ele>198.8</ele>
        <time>2022-03-21T10:45:34Z</time>
      </trkpt>
      <trkpt lat="47.04023" lon="5.20756">
        <ele>199</ele>
        <time>2022-03-21T10:45:35Z</time>
      </trkpt>
      <trkpt lat="47.04019" lon="5.20759">
        <ele>199</ele>
        <time>2022-03-21T10:45:36Z</time>
      </trkpt>
      <trkpt lat="47.04015" lon="5.20761">
        <ele>199.4</ele>
        <time>2022-03-21T10:45:37Z</time>
      </trkpt>
      <trkpt lat="47.04012" lon="5.20764">
        <ele>199.4</ele>
        <time>2022-03-21T10:45:38Z</time>
      </trkpt>
      <trkpt lat="47.04008" lon="5.20767">
        <ele>199.8</ele>
        <time>2022-03-21T10:45:39Z</time>
      </trkpt>
      <trkpt lat="47.04005" lon="5.20771">
        <ele>199.8</ele>
        <time>2022-03-21T10:45:40Z</time>
      </trkpt>
      <trkpt lat="47.04001" lon="5.20773">
        <ele>200</ele>
        <time>2022-03-21T10:45:41Z</time>
      </trkpt>
      <trkpt lat="47.03997" lon="5.20776">
        <ele>200</ele>
        <time>2022-03-21T10:45:42Z</time>
      </trkpt>
      <trkpt lat="47.03994" lon="5.20779">
        <ele>200.2</ele>
        <time>2022-03-21T10:45:43Z</time>
      </trkpt>
      <trkpt lat="47.0399" lon="5.20783">
        <ele>200.2</ele>
        <time>2022-03-21T10:45:44Z</time>
      </trkpt>
      <trkpt lat="47.03986" lon="5.20786">
        <ele>200.2</ele>
        <time>2022-03-21T10:45:45Z</time>
      </trkpt>
      <trkpt lat="47.03981" lon="5.20789">
        <ele>200.4</ele>
        <time>2022-03-21T10:45:46Z</time>
      </trkpt>
      <trkpt lat="47.03977" lon="5.20793">
        <ele>200.4</ele>
        <time>2022-03-21T10:45:47Z</time>
      </trkpt>
      <trkpt lat="47.03972" lon="5.20796">
        <ele>200.4</ele>
        <time>2022-03-21T10:45:48Z</time>
      </trkpt>
      <trkpt lat="47.03968" lon="5.208">
        <ele>200.4</ele>
        <time>2022-03-21T10:45:49Z</time>
      </trkpt>
      <trkpt lat="47.03963" lon="5.20804">
        <ele>200.4</ele>
        <time>2022-03-21T10:45:50Z</time>
      </trkpt>
      <trkpt lat="47.03958" lon="5.20807">
        <ele>200.4</ele>
        <time>2022-03-21T10:45:51Z</time>
      </trkpt>
      <trkpt lat="47.03953" lon="5.20811">
        <ele>200.4</ele>
        <time>2022-03-21T10:45:52Z</time>
      </trkpt>
      <trkpt lat="47.03948" lon="5.20815">
        <ele>200.4</ele>
        <time>2022-03-21T10:45:53Z</time>
      </trkpt>
      <trkpt lat="47.03943" lon="5.20819">
        <ele>200.4</ele>
        <time>2022-03-21T10:45:54Z</time>
      </trkpt>
      <trkpt lat="47.03937" lon="5.20823">
        <ele>200.4</ele>
        <time>2022-03-21T10:45:55Z</time>
      </trkpt>
      <trkpt lat="47.03931" lon="5.20828">
        <ele>200.2</ele>
        <time>2022-03-21T10:45:56Z</time>
      </trkpt>
      <trkpt lat="47.03925" lon="5.20833">
        <ele>200.2</ele>
        <time>2022-03-21T10:45:57Z</time>
      </trkpt>
      <trkpt lat="47.03913" lon="5.20842">
        <ele>200</ele>
        <time>2022-03-21T10:45:58Z</time>
      </trkpt>
      <trkpt lat="47.03906" lon="5.20848">
        <ele>199.8</ele>
        <time>2022-03-21T10:46:00Z</time>
      </trkpt>
      <trkpt lat="47.03896" lon="5.20855">
        <ele>199.4</ele>
        <time>2022-03-21T10:46:01Z</time>
      </trkpt>
      <trkpt lat="47.03893" lon="5.20858">
        <ele>199.4</ele>
        <time>2022-03-21T10:46:02Z</time>
      </trkpt>
      <trkpt lat="47.03886" lon="5.20863">
        <ele>199.2</ele>
        <time>2022-03-21T10:46:03Z</time>
      </trkpt>
      <trkpt lat="47.03879" lon="5.20868">
        <ele>198.8</ele>
        <time>2022-03-21T10:46:04Z</time>
      </trkpt>
      <trkpt lat="47.03872" lon="5.20874">
        <ele>198.6</ele>
        <time>2022-03-21T10:46:05Z</time>
      </trkpt>
      <trkpt lat="47.03865" lon="5.20879">
        <ele>198.6</ele>
        <time>2022-03-21T10:46:06Z</time>
      </trkpt>
      <trkpt lat="47.03858" lon="5.20885">
        <ele>198.4</ele>
        <time>2022-03-21T10:46:07Z</time>
      </trkpt>
      <trkpt lat="47.03851" lon="5.20891">
        <ele>198.2</ele>
        <time>2022-03-21T10:46:08Z</time>
      </trkpt>
      <trkpt lat="47.03844" lon="5.20897">
        <ele>198.2</ele>
        <time>2022-03-21T10:46:09Z</time>
      </trkpt>
      <trkpt lat="47.03836" lon="5.20903">
        <ele>197.8</ele>
        <time>2022-03-21T10:46:10Z</time>
      </trkpt>
      <trkpt lat="47.03826" lon="5.20912">
        <ele>197.6</ele>
        <time>2022-03-21T10:46:11Z</time>
      </trkpt>
      <trkpt lat="47.03822" lon="5.20915">
        <ele>197.6</ele>
        <time>2022-03-21T10:46:12Z</time>
      </trkpt>
      <trkpt lat="47.03814" lon="5.20922">
        <ele>197.2</ele>
        <time>2022-03-21T10:46:13Z</time>
      </trkpt>
      <trkpt lat="47.03807" lon="5.20928">
        <ele>197</ele>
        <time>2022-03-21T10:46:14Z</time>
      </trkpt>
      <trkpt lat="47.038" lon="5.20935">
        <ele>196.8</ele>
        <time>2022-03-21T10:46:15Z</time>
      </trkpt>
      <trkpt lat="47.03792" lon="5.20942">
        <ele>196.8</ele>
        <time>2022-03-21T10:46:16Z</time>
      </trkpt>
      <trkpt lat="47.03785" lon="5.20949">
        <ele>196.4</ele>
        <time>2022-03-21T10:46:17Z</time>
      </trkpt>
      <trkpt lat="47.03778" lon="5.20956">
        <ele>196.4</ele>
        <time>2022-03-21T10:46:18Z</time>
      </trkpt>
      <trkpt lat="47.03771" lon="5.20964">
        <ele>196</ele>
        <time>2022-03-21T10:46:19Z</time>
      </trkpt>
      <trkpt lat="47.03765" lon="5.20972">
        <ele>196</ele>
        <time>2022-03-21T10:46:20Z</time>
      </trkpt>
      <trkpt lat="47.03758" lon="5.2098">
        <ele>195.8</ele>
        <time>2022-03-21T10:46:21Z</time>
      </trkpt>
      <trkpt lat="47.03752" lon="5.20989">
        <ele>195.8</ele>
        <time>2022-03-21T10:46:22Z</time>
      </trkpt>
      <trkpt lat="47.03746" lon="5.20997">
        <ele>195.4</ele>
        <time>2022-03-21T10:46:23Z</time>
      </trkpt>
      <trkpt lat="47.0374" lon="5.21006">
        <ele>195.4</ele>
        <time>2022-03-21T10:46:24Z</time>
      </trkpt>
      <trkpt lat="47.03734" lon="5.21015">
        <ele>195.4</ele>
        <time>2022-03-21T10:46:25Z</time>
      </trkpt>
      <trkpt lat="47.03729" lon="5.21024">
        <ele>195.2</ele>
        <time>2022-03-21T10:46:26Z</time>
      </trkpt>
      <trkpt lat="47.03724" lon="5.21033">
        <ele>195.2</ele>
        <time>2022-03-21T10:46:27Z</time>
      </trkpt>
      <trkpt lat="47.03719" lon="5.21043">
        <ele>195.2</ele>
        <time>2022-03-21T10:46:28Z</time>
      </trkpt>
      <trkpt lat="47.03714" lon="5.21052">
        <ele>195</ele>
        <time>2022-03-21T10:46:29Z</time>
      </trkpt>
      <trkpt lat="47.0371" lon="5.21061">
        <ele>195</ele>
        <time>2022-03-21T10:46:30Z</time>
      </trkpt>
      <trkpt lat="47.03705" lon="5.2107">
        <ele>195</ele>
        <time>2022-03-21T10:46:31Z</time>
      </trkpt>
      <trkpt lat="47.03698" lon="5.21085">
        <ele>195</ele>
        <time>2022-03-21T10:46:32Z</time>
      </trkpt>
      <trkpt lat="47.03696" lon="5.21089">
        <ele>194.8</ele>
        <time>2022-03-21T10:46:33Z</time>
      </trkpt>
      <trkpt lat="47.03693" lon="5.21099">
        <ele>194.8</ele>
        <time>2022-03-21T10:46:34Z</time>
      </trkpt>
      <trkpt lat="47.03689" lon="5.2111">
        <ele>194.6</ele>
        <time>2022-03-21T10:46:35Z</time>
      </trkpt>
      <trkpt lat="47.03686" lon="5.2112">
        <ele>194.6</ele>
        <time>2022-03-21T10:46:36Z</time>
      </trkpt>
      <trkpt lat="47.03683" lon="5.2113">
        <ele>194.4</ele>
        <time>2022-03-21T10:46:37Z</time>
      </trkpt>
      <trkpt lat="47.03679" lon="5.21141">
        <ele>194.4</ele>
        <time>2022-03-21T10:46:38Z</time>
      </trkpt>
      <trkpt lat="47.03676" lon="5.21151">
        <ele>194.4</ele>
        <time>2022-03-21T10:46:39Z</time>
      </trkpt>
      <trkpt lat="47.03673" lon="5.21161">
        <ele>194.2</ele>
        <time>2022-03-21T10:46:40Z</time>
      </trkpt>
      <trkpt lat="47.0367" lon="5.21171">
        <ele>194.2</ele>
        <time>2022-03-21T10:46:41Z</time>
      </trkpt>
      <trkpt lat="47.03667" lon="5.21181">
        <ele>194.2</ele>
        <time>2022-03-21T10:46:42Z</time>
      </trkpt>
      <trkpt lat="47.03664" lon="5.2119">
        <ele>194.2</ele>
        <time>2022-03-21T10:46:43Z</time>
      </trkpt>
      <trkpt lat="47.03661" lon="5.212">
        <ele>194.2</ele>
        <time>2022-03-21T10:46:44Z</time>
      </trkpt>
      <trkpt lat="47.03658" lon="5.2121">
        <ele>194.2</ele>
        <time>2022-03-21T10:46:45Z</time>
      </trkpt>
      <trkpt lat="47.03655" lon="5.2122">
        <ele>194.2</ele>
        <time>2022-03-21T10:46:46Z</time>
      </trkpt>
      <trkpt lat="47.03653" lon="5.21231">
        <ele>194.2</ele>
        <time>2022-03-21T10:46:47Z</time>
      </trkpt>
      <trkpt lat="47.0365" lon="5.2124">
        <ele>194.2</ele>
        <time>2022-03-21T10:46:48Z</time>
      </trkpt>
      <trkpt lat="47.03647" lon="5.2125">
        <ele>194.2</ele>
        <time>2022-03-21T10:46:49Z</time>
      </trkpt>
      <trkpt lat="47.03645" lon="5.2126">
        <ele>194.2</ele>
        <time>2022-03-21T10:46:50Z</time>
      </trkpt>
      <trkpt lat="47.03642" lon="5.21269">
        <ele>194.2</ele>
        <time>2022-03-21T10:46:51Z</time>
      </trkpt>
      <trkpt lat="47.0364" lon="5.21279">
        <ele>194.4</ele>
        <time>2022-03-21T10:46:52Z</time>
      </trkpt>
      <trkpt lat="47.03637" lon="5.21289">
        <ele>194.4</ele>
        <time>2022-03-21T10:46:53Z</time>
      </trkpt>
      <trkpt lat="47.03635" lon="5.21298">
        <ele>194.4</ele>
        <time>2022-03-21T10:46:54Z</time>
      </trkpt>
      <trkpt lat="47.03633" lon="5.21308">
        <ele>194.4</ele>
        <time>2022-03-21T10:46:55Z</time>
      </trkpt>
      <trkpt lat="47.0363" lon="5.21317">
        <ele>194.8</ele>
        <time>2022-03-21T10:46:56Z</time>
      </trkpt>
      <trkpt lat="47.03628" lon="5.21327">
        <ele>194.8</ele>
        <time>2022-03-21T10:46:57Z</time>
      </trkpt>
      <trkpt lat="47.03625" lon="5.21336">
        <ele>194.8</ele>
        <time>2022-03-21T10:46:58Z</time>
      </trkpt>
      <trkpt lat="47.03623" lon="5.21344">
        <ele>195</ele>
        <time>2022-03-21T10:46:59Z</time>
      </trkpt>
      <trkpt lat="47.03621" lon="5.21353">
        <ele>195</ele>
        <time>2022-03-21T10:47:00Z</time>
      </trkpt>
      <trkpt lat="47.03619" lon="5.21362">
        <ele>195.2</ele>
        <time>2022-03-21T10:47:01Z</time>
      </trkpt>
      <trkpt lat="47.03618" lon="5.21372">
        <ele>195.2</ele>
        <time>2022-03-21T10:47:02Z</time>
      </trkpt>
      <trkpt lat="47.03616" lon="5.21381">
        <ele>195.2</ele>
        <time>2022-03-21T10:47:03Z</time>
      </trkpt>
      <trkpt lat="47.03615" lon="5.21391">
        <ele>195.4</ele>
        <time>2022-03-21T10:47:04Z</time>
      </trkpt>
      <trkpt lat="47.03613" lon="5.214">
        <ele>195.4</ele>
        <time>2022-03-21T10:47:05Z</time>
      </trkpt>
      <trkpt lat="47.03611" lon="5.21409">
        <ele>195.4</ele>
        <time>2022-03-21T10:47:06Z</time>
      </trkpt>
      <trkpt lat="47.03609" lon="5.21419">
        <ele>195.4</ele>
        <time>2022-03-21T10:47:07Z</time>
      </trkpt>
      <trkpt lat="47.03607" lon="5.21429">
        <ele>195.6</ele>
        <time>2022-03-21T10:47:08Z</time>
      </trkpt>
      <trkpt lat="47.03605" lon="5.21438">
        <ele>195.8</ele>
        <time>2022-03-21T10:47:09Z</time>
      </trkpt>
      <trkpt lat="47.03603" lon="5.21448">
        <ele>195.8</ele>
        <time>2022-03-21T10:47:10Z</time>
      </trkpt>
      <trkpt lat="47.03601" lon="5.21457">
        <ele>196.2</ele>
        <time>2022-03-21T10:47:11Z</time>
      </trkpt>
      <trkpt lat="47.036" lon="5.21467">
        <ele>196.2</ele>
        <time>2022-03-21T10:47:12Z</time>
      </trkpt>
      <trkpt lat="47.03598" lon="5.21477">
        <ele>196.4</ele>
        <time>2022-03-21T10:47:13Z</time>
      </trkpt>
      <trkpt lat="47.03596" lon="5.21486">
        <ele>196.4</ele>
        <time>2022-03-21T10:47:14Z</time>
      </trkpt>
      <trkpt lat="47.03594" lon="5.21496">
        <ele>196.4</ele>
        <time>2022-03-21T10:47:15Z</time>
      </trkpt>
      <trkpt lat="47.03593" lon="5.21505">
        <ele>196.4</ele>
        <time>2022-03-21T10:47:16Z</time>
      </trkpt>
      <trkpt lat="47.03591" lon="5.21515">
        <ele>196.4</ele>
        <time>2022-03-21T10:47:17Z</time>
      </trkpt>
      <trkpt lat="47.0359" lon="5.21525">
        <ele>196.4</ele>
        <time>2022-03-21T10:47:18Z</time>
      </trkpt>
      <trkpt lat="47.03588" lon="5.21535">
        <ele>196.4</ele>
        <time>2022-03-21T10:47:19Z</time>
      </trkpt>
      <trkpt lat="47.03586" lon="5.21545">
        <ele>196.6</ele>
        <time>2022-03-21T10:47:20Z</time>
      </trkpt>
      <trkpt lat="47.03584" lon="5.21554">
        <ele>196.6</ele>
        <time>2022-03-21T10:47:21Z</time>
      </trkpt>
      <trkpt lat="47.03582" lon="5.21564">
        <ele>196.6</ele>
        <time>2022-03-21T10:47:22Z</time>
      </trkpt>
      <trkpt lat="47.0358" lon="5.21574">
        <ele>196.6</ele>
        <time>2022-03-21T10:47:23Z</time>
      </trkpt>
      <trkpt lat="47.03579" lon="5.21584">
        <ele>196.8</ele>
        <time>2022-03-21T10:47:24Z</time>
      </trkpt>
      <trkpt lat="47.03577" lon="5.21593">
        <ele>196.8</ele>
        <time>2022-03-21T10:47:25Z</time>
      </trkpt>
      <trkpt lat="47.03576" lon="5.21603">
        <ele>196.8</ele>
        <time>2022-03-21T10:47:26Z</time>
      </trkpt>
      <trkpt lat="47.03574" lon="5.21613">
        <ele>196.8</ele>
        <time>2022-03-21T10:47:27Z</time>
      </trkpt>
      <trkpt lat="47.03573" lon="5.21622">
        <ele>196.8</ele>
        <time>2022-03-21T10:47:28Z</time>
      </trkpt>
      <trkpt lat="47.03571" lon="5.21632">
        <ele>196.8</ele>
        <time>2022-03-21T10:47:29Z</time>
      </trkpt>
      <trkpt lat="47.03569" lon="5.21642">
        <ele>196.8</ele>
        <time>2022-03-21T10:47:30Z</time>
      </trkpt>
      <trkpt lat="47.03568" lon="5.21652">
        <ele>196.8</ele>
        <time>2022-03-21T10:47:31Z</time>
      </trkpt>
      <trkpt lat="47.03566" lon="5.21662">
        <ele>196.8</ele>
        <time>2022-03-21T10:47:32Z</time>
      </trkpt>
      <trkpt lat="47.03564" lon="5.21671">
        <ele>196.8</ele>
        <time>2022-03-21T10:47:33Z</time>
      </trkpt>
      <trkpt lat="47.03561" lon="5.21681">
        <ele>196.8</ele>
        <time>2022-03-21T10:47:34Z</time>
      </trkpt>
      <trkpt lat="47.03559" lon="5.2169">
        <ele>197</ele>
        <time>2022-03-21T10:47:35Z</time>
      </trkpt>
      <trkpt lat="47.03556" lon="5.217">
        <ele>197</ele>
        <time>2022-03-21T10:47:36Z</time>
      </trkpt>
      <trkpt lat="47.03553" lon="5.21709">
        <ele>197</ele>
        <time>2022-03-21T10:47:37Z</time>
      </trkpt>
      <trkpt lat="47.03549" lon="5.21723">
        <ele>197.2</ele>
        <time>2022-03-21T10:47:38Z</time>
      </trkpt>
      <trkpt lat="47.03548" lon="5.21728">
        <ele>197.2</ele>
        <time>2022-03-21T10:47:39Z</time>
      </trkpt>
      <trkpt lat="47.03546" lon="5.21737">
        <ele>197.2</ele>
        <time>2022-03-21T10:47:40Z</time>
      </trkpt>
      <trkpt lat="47.03543" lon="5.21747">
        <ele>197.2</ele>
        <time>2022-03-21T10:47:41Z</time>
      </trkpt>
      <trkpt lat="47.03541" lon="5.21756">
        <ele>197.2</ele>
        <time>2022-03-21T10:47:42Z</time>
      </trkpt>
      <trkpt lat="47.03538" lon="5.21766">
        <ele>197.2</ele>
        <time>2022-03-21T10:47:43Z</time>
      </trkpt>
      <trkpt lat="47.03536" lon="5.21775">
        <ele>197.2</ele>
        <time>2022-03-21T10:47:44Z</time>
      </trkpt>
      <trkpt lat="47.03533" lon="5.21784">
        <ele>197.4</ele>
        <time>2022-03-21T10:47:45Z</time>
      </trkpt>
      <trkpt lat="47.0353" lon="5.21794">
        <ele>197.4</ele>
        <time>2022-03-21T10:47:46Z</time>
      </trkpt>
      <trkpt lat="47.03527" lon="5.21803">
        <ele>197.4</ele>
        <time>2022-03-21T10:47:47Z</time>
      </trkpt>
      <trkpt lat="47.03525" lon="5.21812">
        <ele>197.4</ele>
        <time>2022-03-21T10:47:48Z</time>
      </trkpt>
      <trkpt lat="47.03522" lon="5.21821">
        <ele>197.4</ele>
        <time>2022-03-21T10:47:49Z</time>
      </trkpt>
      <trkpt lat="47.0352" lon="5.21831">
        <ele>197.4</ele>
        <time>2022-03-21T10:47:50Z</time>
      </trkpt>
      <trkpt lat="47.03518" lon="5.2184">
        <ele>197.6</ele>
        <time>2022-03-21T10:47:51Z</time>
      </trkpt>
      <trkpt lat="47.03515" lon="5.21849">
        <ele>197.6</ele>
        <time>2022-03-21T10:47:52Z</time>
      </trkpt>
      <trkpt lat="47.03513" lon="5.21859">
        <ele>197.6</ele>
        <time>2022-03-21T10:47:53Z</time>
      </trkpt>
      <trkpt lat="47.0351" lon="5.21868">
        <ele>197.6</ele>
        <time>2022-03-21T10:47:54Z</time>
      </trkpt>
      <trkpt lat="47.03508" lon="5.21877">
        <ele>198</ele>
        <time>2022-03-21T10:47:55Z</time>
      </trkpt>
      <trkpt lat="47.03505" lon="5.21886">
        <ele>198</ele>
        <time>2022-03-21T10:47:56Z</time>
      </trkpt>
      <trkpt lat="47.03502" lon="5.21895">
        <ele>198</ele>
        <time>2022-03-21T10:47:57Z</time>
      </trkpt>
      <trkpt lat="47.035" lon="5.21904">
        <ele>198</ele>
        <time>2022-03-21T10:47:58Z</time>
      </trkpt>
      <trkpt lat="47.03497" lon="5.21913">
        <ele>198</ele>
        <time>2022-03-21T10:47:59Z</time>
      </trkpt>
      <trkpt lat="47.03495" lon="5.21922">
        <ele>198</ele>
        <time>2022-03-21T10:48:00Z</time>
      </trkpt>
      <trkpt lat="47.03492" lon="5.21932">
        <ele>198.2</ele>
        <time>2022-03-21T10:48:01Z</time>
      </trkpt>
      <trkpt lat="47.0349" lon="5.21941">
        <ele>198.2</ele>
        <time>2022-03-21T10:48:02Z</time>
      </trkpt>
      <trkpt lat="47.03487" lon="5.2195">
        <ele>198.2</ele>
        <time>2022-03-21T10:48:03Z</time>
      </trkpt>
      <trkpt lat="47.03485" lon="5.21959">
        <ele>198.2</ele>
        <time>2022-03-21T10:48:04Z</time>
      </trkpt>
      <trkpt lat="47.03482" lon="5.21968">
        <ele>198.2</ele>
        <time>2022-03-21T10:48:05Z</time>
      </trkpt>
      <trkpt lat="47.0348" lon="5.21978">
        <ele>198.2</ele>
        <time>2022-03-21T10:48:06Z</time>
      </trkpt>
      <trkpt lat="47.03477" lon="5.21987">
        <ele>198.2</ele>
        <time>2022-03-21T10:48:07Z</time>
      </trkpt>
      <trkpt lat="47.03475" lon="5.21996">
        <ele>198.2</ele>
        <time>2022-03-21T10:48:08Z</time>
      </trkpt>
      <trkpt lat="47.03472" lon="5.22006">
        <ele>198.2</ele>
        <time>2022-03-21T10:48:09Z</time>
      </trkpt>
      <trkpt lat="47.0347" lon="5.22015">
        <ele>198.2</ele>
        <time>2022-03-21T10:48:10Z</time>
      </trkpt>
      <trkpt lat="47.03466" lon="5.22029">
        <ele>198.2</ele>
        <time>2022-03-21T10:48:11Z</time>
      </trkpt>
      <trkpt lat="47.03464" lon="5.22034">
        <ele>198.4</ele>
        <time>2022-03-21T10:48:12Z</time>
      </trkpt>
      <trkpt lat="47.03462" lon="5.22043">
        <ele>198.4</ele>
        <time>2022-03-21T10:48:13Z</time>
      </trkpt>
      <trkpt lat="47.03459" lon="5.22052">
        <ele>198.4</ele>
        <time>2022-03-21T10:48:14Z</time>
      </trkpt>
      <trkpt lat="47.03456" lon="5.22062">
        <ele>198.4</ele>
        <time>2022-03-21T10:48:15Z</time>
      </trkpt>
      <trkpt lat="47.03454" lon="5.22071">
        <ele>198.4</ele>
        <time>2022-03-21T10:48:16Z</time>
      </trkpt>
      <trkpt lat="47.03451" lon="5.2208">
        <ele>198.4</ele>
        <time>2022-03-21T10:48:17Z</time>
      </trkpt>
      <trkpt lat="47.03448" lon="5.2209">
        <ele>198.4</ele>
        <time>2022-03-21T10:48:18Z</time>
      </trkpt>
      <trkpt lat="47.03446" lon="5.22099">
        <ele>198.4</ele>
        <time>2022-03-21T10:48:19Z</time>
      </trkpt>
      <trkpt lat="47.03443" lon="5.22109">
        <ele>198.4</ele>
        <time>2022-03-21T10:48:20Z</time>
      </trkpt>
      <trkpt lat="47.0344" lon="5.22118">
        <ele>198.4</ele>
        <time>2022-03-21T10:48:21Z</time>
      </trkpt>
      <trkpt lat="47.03437" lon="5.22127">
        <ele>198.4</ele>
        <time>2022-03-21T10:48:22Z</time>
      </trkpt>
      <trkpt lat="47.03435" lon="5.22136">
        <ele>198.4</ele>
        <time>2022-03-21T10:48:23Z</time>
      </trkpt>
      <trkpt lat="47.03432" lon="5.22146">
        <ele>198.2</ele>
        <time>2022-03-21T10:48:24Z</time>
      </trkpt>
      <trkpt lat="47.03429" lon="5.22155">
        <ele>198.2</ele>
        <time>2022-03-21T10:48:25Z</time>
      </trkpt>
      <trkpt lat="47.03426" lon="5.22165">
        <ele>198.2</ele>
        <time>2022-03-21T10:48:26Z</time>
      </trkpt>
      <trkpt lat="47.03423" lon="5.22175">
        <ele>198.2</ele>
        <time>2022-03-21T10:48:27Z</time>
      </trkpt>
      <trkpt lat="47.03421" lon="5.22185">
        <ele>198.2</ele>
        <time>2022-03-21T10:48:28Z</time>
      </trkpt>
      <trkpt lat="47.03418" lon="5.22194">
        <ele>198.2</ele>
        <time>2022-03-21T10:48:29Z</time>
      </trkpt>
      <trkpt lat="47.03415" lon="5.22204">
        <ele>198.2</ele>
        <time>2022-03-21T10:48:30Z</time>
      </trkpt>
      <trkpt lat="47.03412" lon="5.22215">
        <ele>198.2</ele>
        <time>2022-03-21T10:48:31Z</time>
      </trkpt>
      <trkpt lat="47.0341" lon="5.22225">
        <ele>198.2</ele>
        <time>2022-03-21T10:48:32Z</time>
      </trkpt>
      <trkpt lat="47.03407" lon="5.22235">
        <ele>198.2</ele>
        <time>2022-03-21T10:48:33Z</time>
      </trkpt>
      <trkpt lat="47.03405" lon="5.22245">
        <ele>198.2</ele>
        <time>2022-03-21T10:48:34Z</time>
      </trkpt>
      <trkpt lat="47.03402" lon="5.22255">
        <ele>198.2</ele>
        <time>2022-03-21T10:48:35Z</time>
      </trkpt>
      <trkpt lat="47.03399" lon="5.22265">
        <ele>198.2</ele>
        <time>2022-03-21T10:48:36Z</time>
      </trkpt>
      <trkpt lat="47.03396" lon="5.22274">
        <ele>198.2</ele>
        <time>2022-03-21T10:48:37Z</time>
      </trkpt>
      <trkpt lat="47.03393" lon="5.22284">
        <ele>198.2</ele>
        <time>2022-03-21T10:48:38Z</time>
      </trkpt>
      <trkpt lat="47.03391" lon="5.22293">
        <ele>198</ele>
        <time>2022-03-21T10:48:39Z</time>
      </trkpt>
      <trkpt lat="47.03388" lon="5.22303">
        <ele>198</ele>
        <time>2022-03-21T10:48:40Z</time>
      </trkpt>
      <trkpt lat="47.03385" lon="5.22313">
        <ele>197.6</ele>
        <time>2022-03-21T10:48:41Z</time>
      </trkpt>
      <trkpt lat="47.03382" lon="5.22322">
        <ele>197.6</ele>
        <time>2022-03-21T10:48:42Z</time>
      </trkpt>
      <trkpt lat="47.0338" lon="5.22332">
        <ele>197.6</ele>
        <time>2022-03-21T10:48:43Z</time>
      </trkpt>
      <trkpt lat="47.03377" lon="5.22342">
        <ele>197.6</ele>
        <time>2022-03-21T10:48:44Z</time>
      </trkpt>
      <trkpt lat="47.03374" lon="5.22351">
        <ele>197.6</ele>
        <time>2022-03-21T10:48:45Z</time>
      </trkpt>
      <trkpt lat="47.03371" lon="5.22361">
        <ele>197.6</ele>
        <time>2022-03-21T10:48:46Z</time>
      </trkpt>
      <trkpt lat="47.03368" lon="5.2237">
        <ele>198</ele>
        <time>2022-03-21T10:48:47Z</time>
      </trkpt>
      <trkpt lat="47.03365" lon="5.22379">
        <ele>198</ele>
        <time>2022-03-21T10:48:48Z</time>
      </trkpt>
      <trkpt lat="47.03362" lon="5.22389">
        <ele>198</ele>
        <time>2022-03-21T10:48:49Z</time>
      </trkpt>
      <trkpt lat="47.0336" lon="5.22399">
        <ele>198</ele>
        <time>2022-03-21T10:48:50Z</time>
      </trkpt>
      <trkpt lat="47.03357" lon="5.22409">
        <ele>198</ele>
        <time>2022-03-21T10:48:51Z</time>
      </trkpt>
      <trkpt lat="47.03355" lon="5.22419">
        <ele>198.2</ele>
        <time>2022-03-21T10:48:52Z</time>
      </trkpt>
      <trkpt lat="47.03352" lon="5.22429">
        <ele>198.2</ele>
        <time>2022-03-21T10:48:53Z</time>
      </trkpt>
      <trkpt lat="47.03349" lon="5.22438">
        <ele>198.2</ele>
        <time>2022-03-21T10:48:54Z</time>
      </trkpt>
      <trkpt lat="47.03346" lon="5.22448">
        <ele>198.4</ele>
        <time>2022-03-21T10:48:55Z</time>
      </trkpt>
      <trkpt lat="47.03344" lon="5.22458">
        <ele>198.4</ele>
        <time>2022-03-21T10:48:56Z</time>
      </trkpt>
      <trkpt lat="47.03341" lon="5.22469">
        <ele>198.4</ele>
        <time>2022-03-21T10:48:57Z</time>
      </trkpt>
      <trkpt lat="47.03338" lon="5.22479">
        <ele>198.6</ele>
        <time>2022-03-21T10:48:58Z</time>
      </trkpt>
      <trkpt lat="47.03333" lon="5.22494">
        <ele>198.6</ele>
        <time>2022-03-21T10:48:59Z</time>
      </trkpt>
      <trkpt lat="47.03332" lon="5.22499">
        <ele>198.6</ele>
        <time>2022-03-21T10:49:00Z</time>
      </trkpt>
      <trkpt lat="47.03329" lon="5.2251">
        <ele>198.6</ele>
        <time>2022-03-21T10:49:01Z</time>
      </trkpt>
      <trkpt lat="47.03326" lon="5.2252">
        <ele>198.6</ele>
        <time>2022-03-21T10:49:02Z</time>
      </trkpt>
      <trkpt lat="47.03323" lon="5.22531">
        <ele>198.6</ele>
        <time>2022-03-21T10:49:03Z</time>
      </trkpt>
      <trkpt lat="47.03321" lon="5.22541">
        <ele>198.6</ele>
        <time>2022-03-21T10:49:04Z</time>
      </trkpt>
      <trkpt lat="47.03318" lon="5.22552">
        <ele>198.6</ele>
        <time>2022-03-21T10:49:05Z</time>
      </trkpt>
      <trkpt lat="47.03315" lon="5.22562">
        <ele>198.8</ele>
        <time>2022-03-21T10:49:06Z</time>
      </trkpt>
      <trkpt lat="47.03312" lon="5.22572">
        <ele>198.8</ele>
        <time>2022-03-21T10:49:07Z</time>
      </trkpt>
      <trkpt lat="47.0331" lon="5.22583">
        <ele>198.8</ele>
        <time>2022-03-21T10:49:08Z</time>
      </trkpt>
      <trkpt lat="47.03307" lon="5.22593">
        <ele>198.8</ele>
        <time>2022-03-21T10:49:09Z</time>
      </trkpt>
      <trkpt lat="47.03304" lon="5.22603">
        <ele>198.8</ele>
        <time>2022-03-21T10:49:10Z</time>
      </trkpt>
      <trkpt lat="47.033" lon="5.22614">
        <ele>198.8</ele>
        <time>2022-03-21T10:49:11Z</time>
      </trkpt>
      <trkpt lat="47.03297" lon="5.22624">
        <ele>198.8</ele>
        <time>2022-03-21T10:49:12Z</time>
      </trkpt>
      <trkpt lat="47.03295" lon="5.22635">
        <ele>199</ele>
        <time>2022-03-21T10:49:13Z</time>
      </trkpt>
      <trkpt lat="47.03292" lon="5.22646">
        <ele>199</ele>
        <time>2022-03-21T10:49:14Z</time>
      </trkpt>
      <trkpt lat="47.03289" lon="5.22656">
        <ele>199</ele>
        <time>2022-03-21T10:49:15Z</time>
      </trkpt>
      <trkpt lat="47.03286" lon="5.22667">
        <ele>199</ele>
        <time>2022-03-21T10:49:16Z</time>
      </trkpt>
      <trkpt lat="47.03283" lon="5.22678">
        <ele>199</ele>
        <time>2022-03-21T10:49:17Z</time>
      </trkpt>
      <trkpt lat="47.0328" lon="5.22689">
        <ele>199</ele>
        <time>2022-03-21T10:49:18Z</time>
      </trkpt>
      <trkpt lat="47.03277" lon="5.227">
        <ele>199</ele>
        <time>2022-03-21T10:49:19Z</time>
      </trkpt>
      <trkpt lat="47.03274" lon="5.22711">
        <ele>199</ele>
        <time>2022-03-21T10:49:20Z</time>
      </trkpt>
      <trkpt lat="47.03271" lon="5.22722">
        <ele>199</ele>
        <time>2022-03-21T10:49:21Z</time>
      </trkpt>
      <trkpt lat="47.03268" lon="5.22733">
        <ele>199</ele>
        <time>2022-03-21T10:49:22Z</time>
      </trkpt>
      <trkpt lat="47.03265" lon="5.22744">
        <ele>199</ele>
        <time>2022-03-21T10:49:23Z</time>
      </trkpt>
      <trkpt lat="47.03262" lon="5.22755">
        <ele>199</ele>
        <time>2022-03-21T10:49:24Z</time>
      </trkpt>
      <trkpt lat="47.03259" lon="5.22766">
        <ele>199</ele>
        <time>2022-03-21T10:49:25Z</time>
      </trkpt>
      <trkpt lat="47.03256" lon="5.22777">
        <ele>199</ele>
        <time>2022-03-21T10:49:26Z</time>
      </trkpt>
      <trkpt lat="47.03253" lon="5.22788">
        <ele>199</ele>
        <time>2022-03-21T10:49:27Z</time>
      </trkpt>
      <trkpt lat="47.0325" lon="5.22799">
        <ele>199</ele>
        <time>2022-03-21T10:49:28Z</time>
      </trkpt>
      <trkpt lat="47.03247" lon="5.2281">
        <ele>199</ele>
        <time>2022-03-21T10:49:29Z</time>
      </trkpt>
      <trkpt lat="47.03244" lon="5.22821">
        <ele>199</ele>
        <time>2022-03-21T10:49:30Z</time>
      </trkpt>
      <trkpt lat="47.03241" lon="5.22831">
        <ele>199</ele>
        <time>2022-03-21T10:49:31Z</time>
      </trkpt>
      <trkpt lat="47.03238" lon="5.22842">
        <ele>199</ele>
        <time>2022-03-21T10:49:32Z</time>
      </trkpt>
      <trkpt lat="47.03235" lon="5.22853">
        <ele>199</ele>
        <time>2022-03-21T10:49:33Z</time>
      </trkpt>
      <trkpt lat="47.03232" lon="5.22863">
        <ele>199</ele>
        <time>2022-03-21T10:49:34Z</time>
      </trkpt>
      <trkpt lat="47.03229" lon="5.22874">
        <ele>199</ele>
        <time>2022-03-21T10:49:35Z</time>
      </trkpt>
      <trkpt lat="47.03226" lon="5.22884">
        <ele>198.8</ele>
        <time>2022-03-21T10:49:36Z</time>
      </trkpt>
      <trkpt lat="47.03223" lon="5.22894">
        <ele>198.8</ele>
        <time>2022-03-21T10:49:37Z</time>
      </trkpt>
      <trkpt lat="47.0322" lon="5.22905">
        <ele>198.8</ele>
        <time>2022-03-21T10:49:38Z</time>
      </trkpt>
      <trkpt lat="47.03217" lon="5.22915">
        <ele>198.8</ele>
        <time>2022-03-21T10:49:39Z</time>
      </trkpt>
      <trkpt lat="47.03214" lon="5.22925">
        <ele>198.8</ele>
        <time>2022-03-21T10:49:40Z</time>
      </trkpt>
      <trkpt lat="47.03211" lon="5.22936">
        <ele>198.8</ele>
        <time>2022-03-21T10:49:41Z</time>
      </trkpt>
      <trkpt lat="47.03209" lon="5.22946">
        <ele>198.8</ele>
        <time>2022-03-21T10:49:42Z</time>
      </trkpt>
      <trkpt lat="47.03206" lon="5.22956">
        <ele>198.8</ele>
        <time>2022-03-21T10:49:43Z</time>
      </trkpt>
      <trkpt lat="47.03201" lon="5.22972">
        <ele>198.8</ele>
        <time>2022-03-21T10:49:44Z</time>
      </trkpt>
      <trkpt lat="47.032" lon="5.22978">
        <ele>198.8</ele>
        <time>2022-03-21T10:49:45Z</time>
      </trkpt>
      <trkpt lat="47.03197" lon="5.22988">
        <ele>198.8</ele>
        <time>2022-03-21T10:49:46Z</time>
      </trkpt>
      <trkpt lat="47.03194" lon="5.22999">
        <ele>198.8</ele>
        <time>2022-03-21T10:49:47Z</time>
      </trkpt>
      <trkpt lat="47.03191" lon="5.2301">
        <ele>198.8</ele>
        <time>2022-03-21T10:49:48Z</time>
      </trkpt>
      <trkpt lat="47.03188" lon="5.23021">
        <ele>198.8</ele>
        <time>2022-03-21T10:49:49Z</time>
      </trkpt>
      <trkpt lat="47.03185" lon="5.23032">
        <ele>198.8</ele>
        <time>2022-03-21T10:49:50Z</time>
      </trkpt>
      <trkpt lat="47.03182" lon="5.23043">
        <ele>198.8</ele>
        <time>2022-03-21T10:49:51Z</time>
      </trkpt>
      <trkpt lat="47.03179" lon="5.23054">
        <ele>198.8</ele>
        <time>2022-03-21T10:49:52Z</time>
      </trkpt>
      <trkpt lat="47.03176" lon="5.23065">
        <ele>198.8</ele>
        <time>2022-03-21T10:49:53Z</time>
      </trkpt>
      <trkpt lat="47.03173" lon="5.23075">
        <ele>198.8</ele>
        <time>2022-03-21T10:49:54Z</time>
      </trkpt>
      <trkpt lat="47.0317" lon="5.23086">
        <ele>198.8</ele>
        <time>2022-03-21T10:49:55Z</time>
      </trkpt>
      <trkpt lat="47.03167" lon="5.23097">
        <ele>198.8</ele>
        <time>2022-03-21T10:49:56Z</time>
      </trkpt>
      <trkpt lat="47.03164" lon="5.23108">
        <ele>198.8</ele>
        <time>2022-03-21T10:49:57Z</time>
      </trkpt>
      <trkpt lat="47.03161" lon="5.23119">
        <ele>198.8</ele>
        <time>2022-03-21T10:49:58Z</time>
      </trkpt>
      <trkpt lat="47.03158" lon="5.2313">
        <ele>198.8</ele>
        <time>2022-03-21T10:49:59Z</time>
      </trkpt>
      <trkpt lat="47.03152" lon="5.23152">
        <ele>199</ele>
        <time>2022-03-21T10:50:00Z</time>
      </trkpt>
      <trkpt lat="47.03149" lon="5.23162">
        <ele>199</ele>
        <time>2022-03-21T10:50:01Z</time>
      </trkpt>
      <trkpt lat="47.03146" lon="5.23173">
        <ele>199</ele>
        <time>2022-03-21T10:50:02Z</time>
      </trkpt>
      <trkpt lat="47.03143" lon="5.23184">
        <ele>199</ele>
        <time>2022-03-21T10:50:03Z</time>
      </trkpt>
      <trkpt lat="47.0314" lon="5.23194">
        <ele>199</ele>
        <time>2022-03-21T10:50:04Z</time>
      </trkpt>
      <trkpt lat="47.03137" lon="5.23205">
        <ele>199</ele>
        <time>2022-03-21T10:50:05Z</time>
      </trkpt>
      <trkpt lat="47.03134" lon="5.23215">
        <ele>199</ele>
        <time>2022-03-21T10:50:06Z</time>
      </trkpt>
      <trkpt lat="47.03131" lon="5.23226">
        <ele>199</ele>
        <time>2022-03-21T10:50:07Z</time>
      </trkpt>
      <trkpt lat="47.03128" lon="5.23236">
        <ele>199</ele>
        <time>2022-03-21T10:50:08Z</time>
      </trkpt>
      <trkpt lat="47.03125" lon="5.23247">
        <ele>199</ele>
        <time>2022-03-21T10:50:09Z</time>
      </trkpt>
      <trkpt lat="47.03122" lon="5.23257">
        <ele>199</ele>
        <time>2022-03-21T10:50:10Z</time>
      </trkpt>
      <trkpt lat="47.03119" lon="5.23268">
        <ele>199</ele>
        <time>2022-03-21T10:50:11Z</time>
      </trkpt>
      <trkpt lat="47.03116" lon="5.23278">
        <ele>198.8</ele>
        <time>2022-03-21T10:50:12Z</time>
      </trkpt>
      <trkpt lat="47.03113" lon="5.23289">
        <ele>198.8</ele>
        <time>2022-03-21T10:50:13Z</time>
      </trkpt>
      <trkpt lat="47.0311" lon="5.233">
        <ele>198.8</ele>
        <time>2022-03-21T10:50:14Z</time>
      </trkpt>
      <trkpt lat="47.03107" lon="5.23311">
        <ele>198.8</ele>
        <time>2022-03-21T10:50:15Z</time>
      </trkpt>
      <trkpt lat="47.03105" lon="5.23322">
        <ele>198.8</ele>
        <time>2022-03-21T10:50:16Z</time>
      </trkpt>
      <trkpt lat="47.03102" lon="5.23332">
        <ele>198.8</ele>
        <time>2022-03-21T10:50:17Z</time>
      </trkpt>
      <trkpt lat="47.03099" lon="5.23343">
        <ele>198.8</ele>
        <time>2022-03-21T10:50:18Z</time>
      </trkpt>
      <trkpt lat="47.03096" lon="5.23354">
        <ele>198.8</ele>
        <time>2022-03-21T10:50:19Z</time>
      </trkpt>
      <trkpt lat="47.03094" lon="5.23364">
        <ele>198.8</ele>
        <time>2022-03-21T10:50:20Z</time>
      </trkpt>
      <trkpt lat="47.03091" lon="5.23375">
        <ele>198.8</ele>
        <time>2022-03-21T10:50:21Z</time>
      </trkpt>
      <trkpt lat="47.03088" lon="5.23385">
        <ele>198.8</ele>
        <time>2022-03-21T10:50:22Z</time>
      </trkpt>
      <trkpt lat="47.03085" lon="5.23396">
        <ele>198.8</ele>
        <time>2022-03-21T10:50:23Z</time>
      </trkpt>
      <trkpt lat="47.03082" lon="5.23406">
        <ele>198.8</ele>
        <time>2022-03-21T10:50:24Z</time>
      </trkpt>
      <trkpt lat="47.03079" lon="5.23416">
        <ele>198.8</ele>
        <time>2022-03-21T10:50:25Z</time>
      </trkpt>
      <trkpt lat="47.03076" lon="5.23426">
        <ele>198.8</ele>
        <time>2022-03-21T10:50:26Z</time>
      </trkpt>
      <trkpt lat="47.03073" lon="5.23436">
        <ele>198.8</ele>
        <time>2022-03-21T10:50:27Z</time>
      </trkpt>
      <trkpt lat="47.0307" lon="5.23447">
        <ele>198.8</ele>
        <time>2022-03-21T10:50:28Z</time>
      </trkpt>
      <trkpt lat="47.03067" lon="5.23457">
        <ele>198.8</ele>
        <time>2022-03-21T10:50:29Z</time>
      </trkpt>
      <trkpt lat="47.03064" lon="5.23467">
        <ele>198.8</ele>
        <time>2022-03-21T10:50:30Z</time>
      </trkpt>
      <trkpt lat="47.03062" lon="5.23477">
        <ele>198.8</ele>
        <time>2022-03-21T10:50:31Z</time>
      </trkpt>
      <trkpt lat="47.03059" lon="5.23488">
        <ele>198.8</ele>
        <time>2022-03-21T10:50:32Z</time>
      </trkpt>
      <trkpt lat="47.03056" lon="5.23498">
        <ele>198.8</ele>
        <time>2022-03-21T10:50:33Z</time>
      </trkpt>
      <trkpt lat="47.03053" lon="5.23508">
        <ele>198.8</ele>
        <time>2022-03-21T10:50:34Z</time>
      </trkpt>
      <trkpt lat="47.0305" lon="5.23519">
        <ele>198.8</ele>
        <time>2022-03-21T10:50:35Z</time>
      </trkpt>
      <trkpt lat="47.03048" lon="5.23529">
        <ele>198.8</ele>
        <time>2022-03-21T10:50:36Z</time>
      </trkpt>
      <trkpt lat="47.03045" lon="5.23539">
        <ele>198.8</ele>
        <time>2022-03-21T10:50:37Z</time>
      </trkpt>
      <trkpt lat="47.03041" lon="5.23549">
        <ele>198.8</ele>
        <time>2022-03-21T10:50:38Z</time>
      </trkpt>
      <trkpt lat="47.03038" lon="5.23559">
        <ele>198.8</ele>
        <time>2022-03-21T10:50:39Z</time>
      </trkpt>
      <trkpt lat="47.03035" lon="5.2357">
        <ele>198.8</ele>
        <time>2022-03-21T10:50:40Z</time>
      </trkpt>
      <trkpt lat="47.03033" lon="5.2358">
        <ele>198.8</ele>
        <time>2022-03-21T10:50:41Z</time>
      </trkpt>
      <trkpt lat="47.0303" lon="5.23591">
        <ele>198.8</ele>
        <time>2022-03-21T10:50:42Z</time>
      </trkpt>
      <trkpt lat="47.03027" lon="5.23601">
        <ele>198.8</ele>
        <time>2022-03-21T10:50:43Z</time>
      </trkpt>
      <trkpt lat="47.03024" lon="5.23611">
        <ele>198.8</ele>
        <time>2022-03-21T10:50:44Z</time>
      </trkpt>
      <trkpt lat="47.03021" lon="5.23621">
        <ele>198.8</ele>
        <time>2022-03-21T10:50:45Z</time>
      </trkpt>
      <trkpt lat="47.03018" lon="5.23631">
        <ele>198.8</ele>
        <time>2022-03-21T10:50:46Z</time>
      </trkpt>
      <trkpt lat="47.03015" lon="5.23641">
        <ele>198.8</ele>
        <time>2022-03-21T10:50:47Z</time>
      </trkpt>
      <trkpt lat="47.03012" lon="5.23651">
        <ele>198.8</ele>
        <time>2022-03-21T10:50:48Z</time>
      </trkpt>
      <trkpt lat="47.03009" lon="5.23661">
        <ele>198.8</ele>
        <time>2022-03-21T10:50:49Z</time>
      </trkpt>
      <trkpt lat="47.03007" lon="5.23671">
        <ele>198.8</ele>
        <time>2022-03-21T10:50:50Z</time>
      </trkpt>
      <trkpt lat="47.03004" lon="5.23681">
        <ele>198.8</ele>
        <time>2022-03-21T10:50:51Z</time>
      </trkpt>
      <trkpt lat="47.03001" lon="5.23691">
        <ele>198.8</ele>
        <time>2022-03-21T10:50:52Z</time>
      </trkpt>
      <trkpt lat="47.02998" lon="5.23701">
        <ele>198.8</ele>
        <time>2022-03-21T10:50:53Z</time>
      </trkpt>
      <trkpt lat="47.02995" lon="5.23711">
        <ele>198.8</ele>
        <time>2022-03-21T10:50:54Z</time>
      </trkpt>
      <trkpt lat="47.02993" lon="5.23721">
        <ele>198.8</ele>
        <time>2022-03-21T10:50:55Z</time>
      </trkpt>
      <trkpt lat="47.0299" lon="5.23731">
        <ele>198.8</ele>
        <time>2022-03-21T10:50:56Z</time>
      </trkpt>
      <trkpt lat="47.02987" lon="5.2374">
        <ele>198.6</ele>
        <time>2022-03-21T10:50:57Z</time>
      </trkpt>
      <trkpt lat="47.02984" lon="5.2375">
        <ele>198.6</ele>
        <time>2022-03-21T10:50:58Z</time>
      </trkpt>
      <trkpt lat="47.02982" lon="5.23759">
        <ele>198.6</ele>
        <time>2022-03-21T10:50:59Z</time>
      </trkpt>
      <trkpt lat="47.02979" lon="5.23769">
        <ele>198.6</ele>
        <time>2022-03-21T10:51:00Z</time>
      </trkpt>
      <trkpt lat="47.02977" lon="5.23778">
        <ele>198.6</ele>
        <time>2022-03-21T10:51:01Z</time>
      </trkpt>
      <trkpt lat="47.02974" lon="5.23787">
        <ele>198.6</ele>
        <time>2022-03-21T10:51:02Z</time>
      </trkpt>
      <trkpt lat="47.02972" lon="5.23797">
        <ele>198.6</ele>
        <time>2022-03-21T10:51:03Z</time>
      </trkpt>
      <trkpt lat="47.02969" lon="5.23805">
        <ele>198.6</ele>
        <time>2022-03-21T10:51:04Z</time>
      </trkpt>
      <trkpt lat="47.02966" lon="5.23815">
        <ele>198.6</ele>
        <time>2022-03-21T10:51:05Z</time>
      </trkpt>
      <trkpt lat="47.02964" lon="5.23824">
        <ele>198.6</ele>
        <time>2022-03-21T10:51:06Z</time>
      </trkpt>
      <trkpt lat="47.02961" lon="5.23833">
        <ele>198.6</ele>
        <time>2022-03-21T10:51:07Z</time>
      </trkpt>
      <trkpt lat="47.02959" lon="5.23842">
        <ele>198.6</ele>
        <time>2022-03-21T10:51:08Z</time>
      </trkpt>
      <trkpt lat="47.02956" lon="5.23851">
        <ele>198.6</ele>
        <time>2022-03-21T10:51:09Z</time>
      </trkpt>
      <trkpt lat="47.02953" lon="5.23861">
        <ele>198.6</ele>
        <time>2022-03-21T10:51:10Z</time>
      </trkpt>
      <trkpt lat="47.02951" lon="5.2387">
        <ele>198.6</ele>
        <time>2022-03-21T10:51:11Z</time>
      </trkpt>
      <trkpt lat="47.02948" lon="5.2388">
        <ele>198.6</ele>
        <time>2022-03-21T10:51:12Z</time>
      </trkpt>
      <trkpt lat="47.02946" lon="5.23889">
        <ele>198.6</ele>
        <time>2022-03-21T10:51:13Z</time>
      </trkpt>
      <trkpt lat="47.02943" lon="5.23899">
        <ele>198.6</ele>
        <time>2022-03-21T10:51:15Z</time>
      </trkpt>
      <trkpt lat="47.0294" lon="5.23908">
        <ele>198.6</ele>
        <time>2022-03-21T10:51:16Z</time>
      </trkpt>
      <trkpt lat="47.02938" lon="5.23918">
        <ele>198.6</ele>
        <time>2022-03-21T10:51:17Z</time>
      </trkpt>
      <trkpt lat="47.02935" lon="5.23927">
        <ele>198.6</ele>
        <time>2022-03-21T10:51:18Z</time>
      </trkpt>
      <trkpt lat="47.02932" lon="5.23936">
        <ele>198.6</ele>
        <time>2022-03-21T10:51:19Z</time>
      </trkpt>
      <trkpt lat="47.02929" lon="5.23945">
        <ele>198.6</ele>
        <time>2022-03-21T10:51:20Z</time>
      </trkpt>
      <trkpt lat="47.02926" lon="5.23954">
        <ele>198.6</ele>
        <time>2022-03-21T10:51:21Z</time>
      </trkpt>
      <trkpt lat="47.02924" lon="5.23963">
        <ele>198.6</ele>
        <time>2022-03-21T10:51:22Z</time>
      </trkpt>
      <trkpt lat="47.02922" lon="5.23972">
        <ele>198.6</ele>
        <time>2022-03-21T10:51:23Z</time>
      </trkpt>
      <trkpt lat="47.02919" lon="5.23982">
        <ele>198.8</ele>
        <time>2022-03-21T10:51:24Z</time>
      </trkpt>
      <trkpt lat="47.02916" lon="5.23991">
        <ele>198.8</ele>
        <time>2022-03-21T10:51:25Z</time>
      </trkpt>
      <trkpt lat="47.02914" lon="5.24">
        <ele>198.8</ele>
        <time>2022-03-21T10:51:26Z</time>
      </trkpt>
      <trkpt lat="47.02911" lon="5.24009">
        <ele>198.8</ele>
        <time>2022-03-21T10:51:27Z</time>
      </trkpt>
      <trkpt lat="47.02908" lon="5.24018">
        <ele>198.8</ele>
        <time>2022-03-21T10:51:28Z</time>
      </trkpt>
      <trkpt lat="47.02905" lon="5.24027">
        <ele>198.8</ele>
        <time>2022-03-21T10:51:29Z</time>
      </trkpt>
      <trkpt lat="47.02903" lon="5.24037">
        <ele>198.8</ele>
        <time>2022-03-21T10:51:30Z</time>
      </trkpt>
      <trkpt lat="47.029" lon="5.24046">
        <ele>198.8</ele>
        <time>2022-03-21T10:51:31Z</time>
      </trkpt>
      <trkpt lat="47.02898" lon="5.24055">
        <ele>198.8</ele>
        <time>2022-03-21T10:51:32Z</time>
      </trkpt>
      <trkpt lat="47.02896" lon="5.24064">
        <ele>198.8</ele>
        <time>2022-03-21T10:51:33Z</time>
      </trkpt>
      <trkpt lat="47.02893" lon="5.24073">
        <ele>198.8</ele>
        <time>2022-03-21T10:51:34Z</time>
      </trkpt>
      <trkpt lat="47.02891" lon="5.24083">
        <ele>198.8</ele>
        <time>2022-03-21T10:51:35Z</time>
      </trkpt>
      <trkpt lat="47.02888" lon="5.24092">
        <ele>198.8</ele>
        <time>2022-03-21T10:51:36Z</time>
      </trkpt>
      <trkpt lat="47.02886" lon="5.24101">
        <ele>198.8</ele>
        <time>2022-03-21T10:51:37Z</time>
      </trkpt>
      <trkpt lat="47.02883" lon="5.2411">
        <ele>198.8</ele>
        <time>2022-03-21T10:51:38Z</time>
      </trkpt>
      <trkpt lat="47.02881" lon="5.24119">
        <ele>198.8</ele>
        <time>2022-03-21T10:51:39Z</time>
      </trkpt>
      <trkpt lat="47.02878" lon="5.24128">
        <ele>198.8</ele>
        <time>2022-03-21T10:51:40Z</time>
      </trkpt>
      <trkpt lat="47.02876" lon="5.24137">
        <ele>198.8</ele>
        <time>2022-03-21T10:51:41Z</time>
      </trkpt>
      <trkpt lat="47.02873" lon="5.24146">
        <ele>198.8</ele>
        <time>2022-03-21T10:51:42Z</time>
      </trkpt>
      <trkpt lat="47.02868" lon="5.24164">
        <ele>198.8</ele>
        <time>2022-03-21T10:51:43Z</time>
      </trkpt>
      <trkpt lat="47.02866" lon="5.24174">
        <ele>198.8</ele>
        <time>2022-03-21T10:51:44Z</time>
      </trkpt>
      <trkpt lat="47.02863" lon="5.24183">
        <ele>198.8</ele>
        <time>2022-03-21T10:51:45Z</time>
      </trkpt>
      <trkpt lat="47.02861" lon="5.24192">
        <ele>198.8</ele>
        <time>2022-03-21T10:51:46Z</time>
      </trkpt>
      <trkpt lat="47.02859" lon="5.24202">
        <ele>198.8</ele>
        <time>2022-03-21T10:51:47Z</time>
      </trkpt>
      <trkpt lat="47.02858" lon="5.24213">
        <ele>198.8</ele>
        <time>2022-03-21T10:51:48Z</time>
      </trkpt>
      <trkpt lat="47.02858" lon="5.24223">
        <ele>199</ele>
        <time>2022-03-21T10:51:49Z</time>
      </trkpt>
      <trkpt lat="47.02857" lon="5.24233">
        <ele>199</ele>
        <time>2022-03-21T10:51:50Z</time>
      </trkpt>
      <trkpt lat="47.02858" lon="5.24244">
        <ele>199</ele>
        <time>2022-03-21T10:51:51Z</time>
      </trkpt>
      <trkpt lat="47.02859" lon="5.24254">
        <ele>198.8</ele>
        <time>2022-03-21T10:51:52Z</time>
      </trkpt>
      <trkpt lat="47.02861" lon="5.24265">
        <ele>198.8</ele>
        <time>2022-03-21T10:51:53Z</time>
      </trkpt>
      <trkpt lat="47.02864" lon="5.24275">
        <ele>198.8</ele>
        <time>2022-03-21T10:51:54Z</time>
      </trkpt>
      <trkpt lat="47.02866" lon="5.24284">
        <ele>198.8</ele>
        <time>2022-03-21T10:51:55Z</time>
      </trkpt>
      <trkpt lat="47.02869" lon="5.24294">
        <ele>198.8</ele>
        <time>2022-03-21T10:51:56Z</time>
      </trkpt>
      <trkpt lat="47.02872" lon="5.24304">
        <ele>198.8</ele>
        <time>2022-03-21T10:51:57Z</time>
      </trkpt>
      <trkpt lat="47.02875" lon="5.24314">
        <ele>198.6</ele>
        <time>2022-03-21T10:51:58Z</time>
      </trkpt>
      <trkpt lat="47.02879" lon="5.24324">
        <ele>198.6</ele>
        <time>2022-03-21T10:51:59Z</time>
      </trkpt>
      <trkpt lat="47.02882" lon="5.24333">
        <ele>198.6</ele>
        <time>2022-03-21T10:52:00Z</time>
      </trkpt>
      <trkpt lat="47.02885" lon="5.24343">
        <ele>198.6</ele>
        <time>2022-03-21T10:52:01Z</time>
      </trkpt>
      <trkpt lat="47.02888" lon="5.24353">
        <ele>198.6</ele>
        <time>2022-03-21T10:52:02Z</time>
      </trkpt>
      <trkpt lat="47.02891" lon="5.24363">
        <ele>198.6</ele>
        <time>2022-03-21T10:52:03Z</time>
      </trkpt>
      <trkpt lat="47.02894" lon="5.24372">
        <ele>198.6</ele>
        <time>2022-03-21T10:52:04Z</time>
      </trkpt>
      <trkpt lat="47.02897" lon="5.24382">
        <ele>198.6</ele>
        <time>2022-03-21T10:52:05Z</time>
      </trkpt>
      <trkpt lat="47.029" lon="5.24392">
        <ele>198.6</ele>
        <time>2022-03-21T10:52:06Z</time>
      </trkpt>
      <trkpt lat="47.02903" lon="5.24402">
        <ele>198.6</ele>
        <time>2022-03-21T10:52:07Z</time>
      </trkpt>
      <trkpt lat="47.02906" lon="5.24412">
        <ele>198.6</ele>
        <time>2022-03-21T10:52:08Z</time>
      </trkpt>
      <trkpt lat="47.02909" lon="5.24422">
        <ele>198.6</ele>
        <time>2022-03-21T10:52:09Z</time>
      </trkpt>
      <trkpt lat="47.02912" lon="5.24431">
        <ele>198.6</ele>
        <time>2022-03-21T10:52:10Z</time>
      </trkpt>
      <trkpt lat="47.02915" lon="5.24441">
        <ele>198.6</ele>
        <time>2022-03-21T10:52:11Z</time>
      </trkpt>
      <trkpt lat="47.02918" lon="5.24451">
        <ele>198.6</ele>
        <time>2022-03-21T10:52:12Z</time>
      </trkpt>
      <trkpt lat="47.0292" lon="5.24462">
        <ele>198.6</ele>
        <time>2022-03-21T10:52:13Z</time>
      </trkpt>
      <trkpt lat="47.02922" lon="5.24472">
        <ele>198.6</ele>
        <time>2022-03-21T10:52:14Z</time>
      </trkpt>
      <trkpt lat="47.02924" lon="5.24482">
        <ele>198.6</ele>
        <time>2022-03-21T10:52:15Z</time>
      </trkpt>
      <trkpt lat="47.02924" lon="5.24493">
        <ele>198.6</ele>
        <time>2022-03-21T10:52:16Z</time>
      </trkpt>
      <trkpt lat="47.02924" lon="5.24504">
        <ele>198.4</ele>
        <time>2022-03-21T10:52:17Z</time>
      </trkpt>
      <trkpt lat="47.02924" lon="5.24514">
        <ele>198.4</ele>
        <time>2022-03-21T10:52:18Z</time>
      </trkpt>
      <trkpt lat="47.02923" lon="5.24525">
        <ele>198.4</ele>
        <time>2022-03-21T10:52:19Z</time>
      </trkpt>
      <trkpt lat="47.02922" lon="5.24535">
        <ele>198.4</ele>
        <time>2022-03-21T10:52:20Z</time>
      </trkpt>
      <trkpt lat="47.0292" lon="5.24546">
        <ele>198.4</ele>
        <time>2022-03-21T10:52:21Z</time>
      </trkpt>
      <trkpt lat="47.02919" lon="5.24556">
        <ele>198.4</ele>
        <time>2022-03-21T10:52:22Z</time>
      </trkpt>
      <trkpt lat="47.02917" lon="5.24566">
        <ele>198.6</ele>
        <time>2022-03-21T10:52:23Z</time>
      </trkpt>
      <trkpt lat="47.02915" lon="5.24576">
        <ele>198.6</ele>
        <time>2022-03-21T10:52:24Z</time>
      </trkpt>
      <trkpt lat="47.02913" lon="5.24586">
        <ele>198.6</ele>
        <time>2022-03-21T10:52:25Z</time>
      </trkpt>
      <trkpt lat="47.02911" lon="5.24597">
        <ele>198.6</ele>
        <time>2022-03-21T10:52:26Z</time>
      </trkpt>
      <trkpt lat="47.02909" lon="5.24607">
        <ele>198.6</ele>
        <time>2022-03-21T10:52:28Z</time>
      </trkpt>
      <trkpt lat="47.02907" lon="5.24617">
        <ele>198.6</ele>
        <time>2022-03-21T10:52:29Z</time>
      </trkpt>
      <trkpt lat="47.02905" lon="5.24627">
        <ele>198.6</ele>
        <time>2022-03-21T10:52:30Z</time>
      </trkpt>
      <trkpt lat="47.02902" lon="5.24636">
        <ele>198.6</ele>
        <time>2022-03-21T10:52:31Z</time>
      </trkpt>
      <trkpt lat="47.029" lon="5.24646">
        <ele>198.6</ele>
        <time>2022-03-21T10:52:32Z</time>
      </trkpt>
      <trkpt lat="47.02896" lon="5.24655">
        <ele>198.6</ele>
        <time>2022-03-21T10:52:33Z</time>
      </trkpt>
      <trkpt lat="47.02893" lon="5.24664">
        <ele>198.6</ele>
        <time>2022-03-21T10:52:34Z</time>
      </trkpt>
      <trkpt lat="47.02889" lon="5.24672">
        <ele>198.6</ele>
        <time>2022-03-21T10:52:35Z</time>
      </trkpt>
      <trkpt lat="47.02885" lon="5.24681">
        <ele>198.6</ele>
        <time>2022-03-21T10:52:36Z</time>
      </trkpt>
      <trkpt lat="47.02881" lon="5.24689">
        <ele>198.6</ele>
        <time>2022-03-21T10:52:37Z</time>
      </trkpt>
      <trkpt lat="47.02877" lon="5.24696">
        <ele>198.6</ele>
        <time>2022-03-21T10:52:38Z</time>
      </trkpt>
      <trkpt lat="47.02873" lon="5.24704">
        <ele>198.6</ele>
        <time>2022-03-21T10:52:39Z</time>
      </trkpt>
      <trkpt lat="47.02868" lon="5.24712">
        <ele>198.6</ele>
        <time>2022-03-21T10:52:40Z</time>
      </trkpt>
      <trkpt lat="47.02864" lon="5.24719">
        <ele>198.6</ele>
        <time>2022-03-21T10:52:41Z</time>
      </trkpt>
      <trkpt lat="47.02859" lon="5.24726">
        <ele>198.6</ele>
        <time>2022-03-21T10:52:42Z</time>
      </trkpt>
      <trkpt lat="47.02854" lon="5.24733">
        <ele>198.6</ele>
        <time>2022-03-21T10:52:43Z</time>
      </trkpt>
      <trkpt lat="47.02849" lon="5.24739">
        <ele>198.6</ele>
        <time>2022-03-21T10:52:44Z</time>
      </trkpt>
      <trkpt lat="47.02845" lon="5.24746">
        <ele>198.6</ele>
        <time>2022-03-21T10:52:45Z</time>
      </trkpt>
      <trkpt lat="47.0284" lon="5.24753">
        <ele>198.6</ele>
        <time>2022-03-21T10:52:46Z</time>
      </trkpt>
      <trkpt lat="47.02835" lon="5.2476">
        <ele>198.6</ele>
        <time>2022-03-21T10:52:47Z</time>
      </trkpt>
      <trkpt lat="47.02831" lon="5.24767">
        <ele>198.6</ele>
        <time>2022-03-21T10:52:48Z</time>
      </trkpt>
      <trkpt lat="47.02826" lon="5.24774">
        <ele>198.6</ele>
        <time>2022-03-21T10:52:49Z</time>
      </trkpt>
      <trkpt lat="47.02822" lon="5.24781">
        <ele>198.8</ele>
        <time>2022-03-21T10:52:50Z</time>
      </trkpt>
      <trkpt lat="47.02817" lon="5.24788">
        <ele>198.8</ele>
        <time>2022-03-21T10:52:51Z</time>
      </trkpt>
      <trkpt lat="47.02812" lon="5.24794">
        <ele>198.8</ele>
        <time>2022-03-21T10:52:52Z</time>
      </trkpt>
      <trkpt lat="47.02807" lon="5.24801">
        <ele>198.8</ele>
        <time>2022-03-21T10:52:53Z</time>
      </trkpt>
      <trkpt lat="47.02802" lon="5.24807">
        <ele>198.8</ele>
        <time>2022-03-21T10:52:54Z</time>
      </trkpt>
      <trkpt lat="47.02797" lon="5.24813">
        <ele>198.8</ele>
        <time>2022-03-21T10:52:55Z</time>
      </trkpt>
      <trkpt lat="47.02792" lon="5.24819">
        <ele>198.8</ele>
        <time>2022-03-21T10:52:56Z</time>
      </trkpt>
      <trkpt lat="47.02787" lon="5.24825">
        <ele>198.8</ele>
        <time>2022-03-21T10:52:57Z</time>
      </trkpt>
      <trkpt lat="47.02782" lon="5.24831">
        <ele>198.8</ele>
        <time>2022-03-21T10:52:58Z</time>
      </trkpt>
      <trkpt lat="47.02777" lon="5.24836">
        <ele>198.8</ele>
        <time>2022-03-21T10:52:59Z</time>
      </trkpt>
      <trkpt lat="47.02766" lon="5.24846">
        <ele>198.8</ele>
        <time>2022-03-21T10:53:00Z</time>
      </trkpt>
      <trkpt lat="47.0276" lon="5.24852">
        <ele>198.8</ele>
        <time>2022-03-21T10:53:01Z</time>
      </trkpt>
      <trkpt lat="47.02755" lon="5.24856">
        <ele>198.8</ele>
        <time>2022-03-21T10:53:02Z</time>
      </trkpt>
      <trkpt lat="47.0275" lon="5.24862">
        <ele>198.8</ele>
        <time>2022-03-21T10:53:03Z</time>
      </trkpt>
      <trkpt lat="47.02744" lon="5.24867">
        <ele>198.8</ele>
        <time>2022-03-21T10:53:04Z</time>
      </trkpt>
      <trkpt lat="47.02739" lon="5.24872">
        <ele>198.8</ele>
        <time>2022-03-21T10:53:05Z</time>
      </trkpt>
      <trkpt lat="47.02734" lon="5.24877">
        <ele>198.8</ele>
        <time>2022-03-21T10:53:06Z</time>
      </trkpt>
      <trkpt lat="47.02728" lon="5.24882">
        <ele>198.8</ele>
        <time>2022-03-21T10:53:07Z</time>
      </trkpt>
      <trkpt lat="47.02723" lon="5.24887">
        <ele>198.8</ele>
        <time>2022-03-21T10:53:08Z</time>
      </trkpt>
      <trkpt lat="47.02717" lon="5.24892">
        <ele>198.8</ele>
        <time>2022-03-21T10:53:09Z</time>
      </trkpt>
      <trkpt lat="47.02712" lon="5.24898">
        <ele>198.8</ele>
        <time>2022-03-21T10:53:10Z</time>
      </trkpt>
      <trkpt lat="47.02706" lon="5.24903">
        <ele>199</ele>
        <time>2022-03-21T10:53:12Z</time>
      </trkpt>
      <trkpt lat="47.02701" lon="5.24907">
        <ele>199</ele>
        <time>2022-03-21T10:53:13Z</time>
      </trkpt>
      <trkpt lat="47.02696" lon="5.24912">
        <ele>199</ele>
        <time>2022-03-21T10:53:14Z</time>
      </trkpt>
      <trkpt lat="47.0269" lon="5.24917">
        <ele>199</ele>
        <time>2022-03-21T10:53:15Z</time>
      </trkpt>
      <trkpt lat="47.02685" lon="5.24922">
        <ele>199</ele>
        <time>2022-03-21T10:53:16Z</time>
      </trkpt>
      <trkpt lat="47.0268" lon="5.24927">
        <ele>199</ele>
        <time>2022-03-21T10:53:17Z</time>
      </trkpt>
      <trkpt lat="47.02674" lon="5.24932">
        <ele>199</ele>
        <time>2022-03-21T10:53:18Z</time>
      </trkpt>
      <trkpt lat="47.02669" lon="5.24938">
        <ele>199</ele>
        <time>2022-03-21T10:53:19Z</time>
      </trkpt>
      <trkpt lat="47.02664" lon="5.24943">
        <ele>199</ele>
        <time>2022-03-21T10:53:20Z</time>
      </trkpt>
      <trkpt lat="47.02658" lon="5.24948">
        <ele>199</ele>
        <time>2022-03-21T10:53:21Z</time>
      </trkpt>
      <trkpt lat="47.02653" lon="5.24954">
        <ele>199</ele>
        <time>2022-03-21T10:53:22Z</time>
      </trkpt>
      <trkpt lat="47.02647" lon="5.24959">
        <ele>199</ele>
        <time>2022-03-21T10:53:23Z</time>
      </trkpt>
      <trkpt lat="47.02642" lon="5.24965">
        <ele>199</ele>
        <time>2022-03-21T10:53:24Z</time>
      </trkpt>
      <trkpt lat="47.02637" lon="5.24972">
        <ele>198.8</ele>
        <time>2022-03-21T10:53:25Z</time>
      </trkpt>
      <trkpt lat="47.02633" lon="5.2498">
        <ele>198.8</ele>
        <time>2022-03-21T10:53:26Z</time>
      </trkpt>
      <trkpt lat="47.02629" lon="5.24988">
        <ele>198.8</ele>
        <time>2022-03-21T10:53:27Z</time>
      </trkpt>
      <trkpt lat="47.02625" lon="5.24996">
        <ele>198.6</ele>
        <time>2022-03-21T10:53:28Z</time>
      </trkpt>
      <trkpt lat="47.02622" lon="5.25005">
        <ele>198.6</ele>
        <time>2022-03-21T10:53:29Z</time>
      </trkpt>
      <trkpt lat="47.0262" lon="5.25013">
        <ele>198.6</ele>
        <time>2022-03-21T10:53:30Z</time>
      </trkpt>
      <trkpt lat="47.02617" lon="5.25022">
        <ele>198.6</ele>
        <time>2022-03-21T10:53:31Z</time>
      </trkpt>
      <trkpt lat="47.02615" lon="5.25031">
        <ele>198.6</ele>
        <time>2022-03-21T10:53:32Z</time>
      </trkpt>
      <trkpt lat="47.02613" lon="5.25041">
        <ele>198.6</ele>
        <time>2022-03-21T10:53:33Z</time>
      </trkpt>
      <trkpt lat="47.02611" lon="5.2505">
        <ele>198.6</ele>
        <time>2022-03-21T10:53:34Z</time>
      </trkpt>
      <trkpt lat="47.02609" lon="5.25059">
        <ele>198.6</ele>
        <time>2022-03-21T10:53:35Z</time>
      </trkpt>
      <trkpt lat="47.02607" lon="5.25068">
        <ele>198.6</ele>
        <time>2022-03-21T10:53:36Z</time>
      </trkpt>
      <trkpt lat="47.02605" lon="5.25078">
        <ele>198.6</ele>
        <time>2022-03-21T10:53:37Z</time>
      </trkpt>
      <trkpt lat="47.02603" lon="5.25088">
        <ele>198.2</ele>
        <time>2022-03-21T10:53:38Z</time>
      </trkpt>
      <trkpt lat="47.02601" lon="5.25098">
        <ele>198.2</ele>
        <time>2022-03-21T10:53:39Z</time>
      </trkpt>
      <trkpt lat="47.02599" lon="5.25108">
        <ele>198.2</ele>
        <time>2022-03-21T10:53:40Z</time>
      </trkpt>
      <trkpt lat="47.02598" lon="5.25118">
        <ele>198</ele>
        <time>2022-03-21T10:53:41Z</time>
      </trkpt>
      <trkpt lat="47.02597" lon="5.25129">
        <ele>198</ele>
        <time>2022-03-21T10:53:42Z</time>
      </trkpt>
      <trkpt lat="47.02597" lon="5.2514">
        <ele>198</ele>
        <time>2022-03-21T10:53:43Z</time>
      </trkpt>
      <trkpt lat="47.02597" lon="5.25151">
        <ele>198</ele>
        <time>2022-03-21T10:53:44Z</time>
      </trkpt>
      <trkpt lat="47.02597" lon="5.25162">
        <ele>198</ele>
        <time>2022-03-21T10:53:45Z</time>
      </trkpt>
      <trkpt lat="47.02597" lon="5.25172">
        <ele>198</ele>
        <time>2022-03-21T10:53:47Z</time>
      </trkpt>
      <trkpt lat="47.02596" lon="5.25182">
        <ele>198</ele>
        <time>2022-03-21T10:53:48Z</time>
      </trkpt>
      <trkpt lat="47.02594" lon="5.25191">
        <ele>198</ele>
        <time>2022-03-21T10:53:49Z</time>
      </trkpt>
      <trkpt lat="47.02593" lon="5.252">
        <ele>198.2</ele>
        <time>2022-03-21T10:53:50Z</time>
      </trkpt>
      <trkpt lat="47.02591" lon="5.25209">
        <ele>198.2</ele>
        <time>2022-03-21T10:53:51Z</time>
      </trkpt>
      <trkpt lat="47.02589" lon="5.25218">
        <ele>198.2</ele>
        <time>2022-03-21T10:53:52Z</time>
      </trkpt>
      <trkpt lat="47.02588" lon="5.25227">
        <ele>198.2</ele>
        <time>2022-03-21T10:53:53Z</time>
      </trkpt>
      <trkpt lat="47.02586" lon="5.25235">
        <ele>198.4</ele>
        <time>2022-03-21T10:53:54Z</time>
      </trkpt>
      <trkpt lat="47.02584" lon="5.25244">
        <ele>198.4</ele>
        <time>2022-03-21T10:53:55Z</time>
      </trkpt>
      <trkpt lat="47.02583" lon="5.25253">
        <ele>198.4</ele>
        <time>2022-03-21T10:53:56Z</time>
      </trkpt>
      <trkpt lat="47.02582" lon="5.25262">
        <ele>198.4</ele>
        <time>2022-03-21T10:53:57Z</time>
      </trkpt>
      <trkpt lat="47.02581" lon="5.25271">
        <ele>198.4</ele>
        <time>2022-03-21T10:53:58Z</time>
      </trkpt>
      <trkpt lat="47.02579" lon="5.2528">
        <ele>198.4</ele>
        <time>2022-03-21T10:53:59Z</time>
      </trkpt>
      <trkpt lat="47.02578" lon="5.25288">
        <ele>198.4</ele>
        <time>2022-03-21T10:54:00Z</time>
      </trkpt>
      <trkpt lat="47.02576" lon="5.25297">
        <ele>198.4</ele>
        <time>2022-03-21T10:54:01Z</time>
      </trkpt>
      <trkpt lat="47.02575" lon="5.25306">
        <ele>198.4</ele>
        <time>2022-03-21T10:54:02Z</time>
      </trkpt>
      <trkpt lat="47.02573" lon="5.25315">
        <ele>198.4</ele>
        <time>2022-03-21T10:54:03Z</time>
      </trkpt>
      <trkpt lat="47.02572" lon="5.25324">
        <ele>198.4</ele>
        <time>2022-03-21T10:54:04Z</time>
      </trkpt>
      <trkpt lat="47.02571" lon="5.25333">
        <ele>198.4</ele>
        <time>2022-03-21T10:54:05Z</time>
      </trkpt>
      <trkpt lat="47.0257" lon="5.25343">
        <ele>198.4</ele>
        <time>2022-03-21T10:54:06Z</time>
      </trkpt>
      <trkpt lat="47.02569" lon="5.25352">
        <ele>198.8</ele>
        <time>2022-03-21T10:54:07Z</time>
      </trkpt>
      <trkpt lat="47.02567" lon="5.25361">
        <ele>198.8</ele>
        <time>2022-03-21T10:54:08Z</time>
      </trkpt>
      <trkpt lat="47.02566" lon="5.25371">
        <ele>198.8</ele>
        <time>2022-03-21T10:54:09Z</time>
      </trkpt>
      <trkpt lat="47.02565" lon="5.25381">
        <ele>198.6</ele>
        <time>2022-03-21T10:54:10Z</time>
      </trkpt>
      <trkpt lat="47.02563" lon="5.25391">
        <ele>198.6</ele>
        <time>2022-03-21T10:54:11Z</time>
      </trkpt>
      <trkpt lat="47.02561" lon="5.25401">
        <ele>198.2</ele>
        <time>2022-03-21T10:54:12Z</time>
      </trkpt>
      <trkpt lat="47.02559" lon="5.25411">
        <ele>198.2</ele>
        <time>2022-03-21T10:54:13Z</time>
      </trkpt>
      <trkpt lat="47.02557" lon="5.25421">
        <ele>198</ele>
        <time>2022-03-21T10:54:14Z</time>
      </trkpt>
      <trkpt lat="47.02555" lon="5.25431">
        <ele>198</ele>
        <time>2022-03-21T10:54:15Z</time>
      </trkpt>
      <trkpt lat="47.02553" lon="5.25442">
        <ele>197.6</ele>
        <time>2022-03-21T10:54:16Z</time>
      </trkpt>
      <trkpt lat="47.02551" lon="5.25452">
        <ele>197.6</ele>
        <time>2022-03-21T10:54:17Z</time>
      </trkpt>
      <trkpt lat="47.02549" lon="5.25462">
        <ele>197.2</ele>
        <time>2022-03-21T10:54:18Z</time>
      </trkpt>
      <trkpt lat="47.02548" lon="5.25472">
        <ele>197.2</ele>
        <time>2022-03-21T10:54:19Z</time>
      </trkpt>
      <trkpt lat="47.02546" lon="5.25481">
        <ele>197</ele>
        <time>2022-03-21T10:54:20Z</time>
      </trkpt>
      <trkpt lat="47.02538" lon="5.25495">
        <ele>197</ele>
        <time>2022-03-21T10:54:21Z</time>
      </trkpt>
      <trkpt lat="47.02533" lon="5.255">
        <ele>197</ele>
        <time>2022-03-21T10:54:22Z</time>
      </trkpt>
      <trkpt lat="47.02528" lon="5.25503">
        <ele>196.6</ele>
        <time>2022-03-21T10:54:23Z</time>
      </trkpt>
      <trkpt lat="47.02521" lon="5.25505">
        <ele>196.6</ele>
        <time>2022-03-21T10:54:24Z</time>
      </trkpt>
      <trkpt lat="47.02515" lon="5.25505">
        <ele>196.6</ele>
        <time>2022-03-21T10:54:25Z</time>
      </trkpt>
      <trkpt lat="47.02509" lon="5.25506">
        <ele>196.6</ele>
        <time>2022-03-21T10:54:26Z</time>
      </trkpt>
      <trkpt lat="47.02502" lon="5.25505">
        <ele>196.6</ele>
        <time>2022-03-21T10:54:27Z</time>
      </trkpt>
      <trkpt lat="47.02496" lon="5.25505">
        <ele>196.6</ele>
        <time>2022-03-21T10:54:28Z</time>
      </trkpt>
      <trkpt lat="47.0249" lon="5.25505">
        <ele>196.6</ele>
        <time>2022-03-21T10:54:29Z</time>
      </trkpt>
      <trkpt lat="47.02483" lon="5.25504">
        <ele>196.6</ele>
        <time>2022-03-21T10:54:30Z</time>
      </trkpt>
      <trkpt lat="47.02477" lon="5.25503">
        <ele>196.6</ele>
        <time>2022-03-21T10:54:31Z</time>
      </trkpt>
      <trkpt lat="47.02471" lon="5.25502">
        <ele>196.6</ele>
        <time>2022-03-21T10:54:32Z</time>
      </trkpt>
      <trkpt lat="47.02465" lon="5.25502">
        <ele>196.8</ele>
        <time>2022-03-21T10:54:33Z</time>
      </trkpt>
      <trkpt lat="47.02459" lon="5.25501">
        <ele>196.8</ele>
        <time>2022-03-21T10:54:34Z</time>
      </trkpt>
      <trkpt lat="47.02453" lon="5.25499">
        <ele>196.8</ele>
        <time>2022-03-21T10:54:35Z</time>
      </trkpt>
      <trkpt lat="47.02447" lon="5.25497">
        <ele>196.8</ele>
        <time>2022-03-21T10:54:36Z</time>
      </trkpt>
      <trkpt lat="47.02441" lon="5.25495">
        <ele>196.8</ele>
        <time>2022-03-21T10:54:37Z</time>
      </trkpt>
      <trkpt lat="47.02435" lon="5.25493">
        <ele>197.2</ele>
        <time>2022-03-21T10:54:38Z</time>
      </trkpt>
      <trkpt lat="47.02428" lon="5.25492">
        <ele>197.2</ele>
        <time>2022-03-21T10:54:39Z</time>
      </trkpt>
      <trkpt lat="47.02422" lon="5.25489">
        <ele>197.4</ele>
        <time>2022-03-21T10:54:40Z</time>
      </trkpt>
      <trkpt lat="47.02416" lon="5.25487">
        <ele>197.4</ele>
        <time>2022-03-21T10:54:41Z</time>
      </trkpt>
      <trkpt lat="47.0241" lon="5.25484">
        <ele>197.6</ele>
        <time>2022-03-21T10:54:42Z</time>
      </trkpt>
      <trkpt lat="47.02404" lon="5.2548">
        <ele>197.6</ele>
        <time>2022-03-21T10:54:43Z</time>
      </trkpt>
      <trkpt lat="47.02398" lon="5.25476">
        <ele>198</ele>
        <time>2022-03-21T10:54:44Z</time>
      </trkpt>
      <trkpt lat="47.02393" lon="5.25472">
        <ele>198</ele>
        <time>2022-03-21T10:54:45Z</time>
      </trkpt>
      <trkpt lat="47.02387" lon="5.25468">
        <ele>198</ele>
        <time>2022-03-21T10:54:46Z</time>
      </trkpt>
      <trkpt lat="47.02382" lon="5.25463">
        <ele>198.2</ele>
        <time>2022-03-21T10:54:47Z</time>
      </trkpt>
      <trkpt lat="47.02377" lon="5.25459">
        <ele>198.2</ele>
        <time>2022-03-21T10:54:48Z</time>
      </trkpt>
      <trkpt lat="47.02372" lon="5.25455">
        <ele>198.2</ele>
        <time>2022-03-21T10:54:49Z</time>
      </trkpt>
      <trkpt lat="47.02367" lon="5.2545">
        <ele>198.6</ele>
        <time>2022-03-21T10:54:50Z</time>
      </trkpt>
      <trkpt lat="47.02362" lon="5.25446">
        <ele>198.6</ele>
        <time>2022-03-21T10:54:51Z</time>
      </trkpt>
      <trkpt lat="47.02357" lon="5.25442">
        <ele>198.6</ele>
        <time>2022-03-21T10:54:52Z</time>
      </trkpt>
      <trkpt lat="47.02352" lon="5.25437">
        <ele>198.6</ele>
        <time>2022-03-21T10:54:53Z</time>
      </trkpt>
      <trkpt lat="47.02346" lon="5.25432">
        <ele>198.6</ele>
        <time>2022-03-21T10:54:54Z</time>
      </trkpt>
      <trkpt lat="47.02341" lon="5.25428">
        <ele>198.6</ele>
        <time>2022-03-21T10:54:55Z</time>
      </trkpt>
      <trkpt lat="47.02335" lon="5.25424">
        <ele>198.6</ele>
        <time>2022-03-21T10:54:56Z</time>
      </trkpt>
      <trkpt lat="47.02329" lon="5.25421">
        <ele>198.6</ele>
        <time>2022-03-21T10:54:57Z</time>
      </trkpt>
      <trkpt lat="47.02322" lon="5.25422">
        <ele>198.2</ele>
        <time>2022-03-21T10:54:58Z</time>
      </trkpt>
      <trkpt lat="47.02316" lon="5.25425">
        <ele>198</ele>
        <time>2022-03-21T10:54:59Z</time>
      </trkpt>
      <trkpt lat="47.02309" lon="5.25429">
        <ele>197.6</ele>
        <time>2022-03-21T10:55:00Z</time>
      </trkpt>
      <trkpt lat="47.02303" lon="5.25434">
        <ele>197.2</ele>
        <time>2022-03-21T10:55:01Z</time>
      </trkpt>
      <trkpt lat="47.02296" lon="5.2544">
        <ele>196.8</ele>
        <time>2022-03-21T10:55:02Z</time>
      </trkpt>
      <trkpt lat="47.02288" lon="5.25445">
        <ele>196.4</ele>
        <time>2022-03-21T10:55:03Z</time>
      </trkpt>
      <trkpt lat="47.0228" lon="5.25448">
        <ele>196</ele>
        <time>2022-03-21T10:55:04Z</time>
      </trkpt>
      <trkpt lat="47.02271" lon="5.2545">
        <ele>195.6</ele>
        <time>2022-03-21T10:55:05Z</time>
      </trkpt>
      <trkpt lat="47.02262" lon="5.25451">
        <ele>195.2</ele>
        <time>2022-03-21T10:55:06Z</time>
      </trkpt>
      <trkpt lat="47.02252" lon="5.25449">
        <ele>194.8</ele>
        <time>2022-03-21T10:55:07Z</time>
      </trkpt>
      <trkpt lat="47.02242" lon="5.25449">
        <ele>194.4</ele>
        <time>2022-03-21T10:55:08Z</time>
      </trkpt>
      <trkpt lat="47.02232" lon="5.25447">
        <ele>193.8</ele>
        <time>2022-03-21T10:55:09Z</time>
      </trkpt>
      <trkpt lat="47.02222" lon="5.25447">
        <ele>193.4</ele>
        <time>2022-03-21T10:55:10Z</time>
      </trkpt>
      <trkpt lat="47.02212" lon="5.25447">
        <ele>193</ele>
        <time>2022-03-21T10:55:11Z</time>
      </trkpt>
      <trkpt lat="47.02202" lon="5.25448">
        <ele>192.8</ele>
        <time>2022-03-21T10:55:12Z</time>
      </trkpt>
      <trkpt lat="47.02192" lon="5.25448">
        <ele>192.4</ele>
        <time>2022-03-21T10:55:13Z</time>
      </trkpt>
      <trkpt lat="47.02183" lon="5.2545">
        <ele>192</ele>
        <time>2022-03-21T10:55:14Z</time>
      </trkpt>
      <trkpt lat="47.02174" lon="5.25451">
        <ele>191.6</ele>
        <time>2022-03-21T10:55:15Z</time>
      </trkpt>
      <trkpt lat="47.02166" lon="5.25451">
        <ele>191.2</ele>
        <time>2022-03-21T10:55:16Z</time>
      </trkpt>
      <trkpt lat="47.02158" lon="5.2545">
        <ele>190.8</ele>
        <time>2022-03-21T10:55:17Z</time>
      </trkpt>
      <trkpt lat="47.02151" lon="5.25446">
        <ele>190.6</ele>
        <time>2022-03-21T10:55:18Z</time>
      </trkpt>
      <trkpt lat="47.02145" lon="5.25439">
        <ele>190.4</ele>
        <time>2022-03-21T10:55:19Z</time>
      </trkpt>
      <trkpt lat="47.02141" lon="5.2543">
        <ele>190.4</ele>
        <time>2022-03-21T10:55:20Z</time>
      </trkpt>
      <trkpt lat="47.02138" lon="5.25421">
        <ele>190.4</ele>
        <time>2022-03-21T10:55:21Z</time>
      </trkpt>
      <trkpt lat="47.02136" lon="5.25411">
        <ele>190.4</ele>
        <time>2022-03-21T10:55:22Z</time>
      </trkpt>
      <trkpt lat="47.02134" lon="5.25401">
        <ele>190.4</ele>
        <time>2022-03-21T10:55:23Z</time>
      </trkpt>
      <trkpt lat="47.02133" lon="5.25391">
        <ele>190</ele>
        <time>2022-03-21T10:55:24Z</time>
      </trkpt>
      <trkpt lat="47.02133" lon="5.25382">
        <ele>189.6</ele>
        <time>2022-03-21T10:55:25Z</time>
      </trkpt>
      <trkpt lat="47.02132" lon="5.25372">
        <ele>189.6</ele>
        <time>2022-03-21T10:55:26Z</time>
      </trkpt>
      <trkpt lat="47.02131" lon="5.25363">
        <ele>189.2</ele>
        <time>2022-03-21T10:55:27Z</time>
      </trkpt>
      <trkpt lat="47.02131" lon="5.25354">
        <ele>189</ele>
        <time>2022-03-21T10:55:28Z</time>
      </trkpt>
      <trkpt lat="47.0213" lon="5.25345">
        <ele>189</ele>
        <time>2022-03-21T10:55:29Z</time>
      </trkpt>
      <trkpt lat="47.0213" lon="5.25335">
        <ele>189</ele>
        <time>2022-03-21T10:55:30Z</time>
      </trkpt>
      <trkpt lat="47.02129" lon="5.25326">
        <ele>189</ele>
        <time>2022-03-21T10:55:31Z</time>
      </trkpt>
      <trkpt lat="47.02129" lon="5.25317">
        <ele>189</ele>
        <time>2022-03-21T10:55:32Z</time>
      </trkpt>
      <trkpt lat="47.02128" lon="5.25308">
        <ele>189</ele>
        <time>2022-03-21T10:55:33Z</time>
      </trkpt>
      <trkpt lat="47.02127" lon="5.25299">
        <ele>188.8</ele>
        <time>2022-03-21T10:55:34Z</time>
      </trkpt>
      <trkpt lat="47.02127" lon="5.25289">
        <ele>188.8</ele>
        <time>2022-03-21T10:55:35Z</time>
      </trkpt>
      <trkpt lat="47.02127" lon="5.2528">
        <ele>188.8</ele>
        <time>2022-03-21T10:55:36Z</time>
      </trkpt>
      <trkpt lat="47.02127" lon="5.25271">
        <ele>188.8</ele>
        <time>2022-03-21T10:55:37Z</time>
      </trkpt>
      <trkpt lat="47.02128" lon="5.25262">
        <ele>188.8</ele>
        <time>2022-03-21T10:55:38Z</time>
      </trkpt>
      <trkpt lat="47.02128" lon="5.25253">
        <ele>188.8</ele>
        <time>2022-03-21T10:55:39Z</time>
      </trkpt>
      <trkpt lat="47.02129" lon="5.25244">
        <ele>188.8</ele>
        <time>2022-03-21T10:55:40Z</time>
      </trkpt>
      <trkpt lat="47.02128" lon="5.25235">
        <ele>188.8</ele>
        <time>2022-03-21T10:55:41Z</time>
      </trkpt>
      <trkpt lat="47.02127" lon="5.25226">
        <ele>188.8</ele>
        <time>2022-03-21T10:55:42Z</time>
      </trkpt>
      <trkpt lat="47.02125" lon="5.25217">
        <ele>188.8</ele>
        <time>2022-03-21T10:55:43Z</time>
      </trkpt>
      <trkpt lat="47.02121" lon="5.25209">
        <ele>189</ele>
        <time>2022-03-21T10:55:44Z</time>
      </trkpt>
      <trkpt lat="47.02116" lon="5.25203">
        <ele>189</ele>
        <time>2022-03-21T10:55:45Z</time>
      </trkpt>
      <trkpt lat="47.02111" lon="5.252">
        <ele>189.4</ele>
        <time>2022-03-21T10:55:46Z</time>
      </trkpt>
      <trkpt lat="47.02105" lon="5.25197">
        <ele>189.4</ele>
        <time>2022-03-21T10:55:47Z</time>
      </trkpt>
      <trkpt lat="47.02098" lon="5.25194">
        <ele>189.4</ele>
        <time>2022-03-21T10:55:48Z</time>
      </trkpt>
      <trkpt lat="47.02092" lon="5.25192">
        <ele>189.6</ele>
        <time>2022-03-21T10:55:49Z</time>
      </trkpt>
      <trkpt lat="47.02086" lon="5.25189">
        <ele>189.6</ele>
        <time>2022-03-21T10:55:50Z</time>
      </trkpt>
      <trkpt lat="47.0208" lon="5.25186">
        <ele>189.6</ele>
        <time>2022-03-21T10:55:51Z</time>
      </trkpt>
      <trkpt lat="47.02074" lon="5.25183">
        <ele>189.6</ele>
        <time>2022-03-21T10:55:52Z</time>
      </trkpt>
      <trkpt lat="47.02068" lon="5.25181">
        <ele>189.6</ele>
        <time>2022-03-21T10:55:53Z</time>
      </trkpt>
      <trkpt lat="47.02062" lon="5.25178">
        <ele>189.6</ele>
        <time>2022-03-21T10:55:54Z</time>
      </trkpt>
      <trkpt lat="47.02056" lon="5.25175">
        <ele>189.6</ele>
        <time>2022-03-21T10:55:55Z</time>
      </trkpt>
      <trkpt lat="47.0205" lon="5.25172">
        <ele>189.8</ele>
        <time>2022-03-21T10:55:56Z</time>
      </trkpt>
      <trkpt lat="47.02044" lon="5.25169">
        <ele>189.8</ele>
        <time>2022-03-21T10:55:57Z</time>
      </trkpt>
      <trkpt lat="47.02038" lon="5.25166">
        <ele>189.8</ele>
        <time>2022-03-21T10:55:58Z</time>
      </trkpt>
      <trkpt lat="47.02032" lon="5.25163">
        <ele>189.8</ele>
        <time>2022-03-21T10:55:59Z</time>
      </trkpt>
      <trkpt lat="47.02026" lon="5.25159">
        <ele>189.8</ele>
        <time>2022-03-21T10:56:00Z</time>
      </trkpt>
      <trkpt lat="47.0202" lon="5.25155">
        <ele>190</ele>
        <time>2022-03-21T10:56:01Z</time>
      </trkpt>
      <trkpt lat="47.02014" lon="5.25151">
        <ele>190</ele>
        <time>2022-03-21T10:56:02Z</time>
      </trkpt>
      <trkpt lat="47.02008" lon="5.25146">
        <ele>190</ele>
        <time>2022-03-21T10:56:03Z</time>
      </trkpt>
      <trkpt lat="47.02003" lon="5.25141">
        <ele>190</ele>
        <time>2022-03-21T10:56:04Z</time>
      </trkpt>
      <trkpt lat="47.01998" lon="5.25134">
        <ele>190</ele>
        <time>2022-03-21T10:56:05Z</time>
      </trkpt>
      <trkpt lat="47.01994" lon="5.25127">
        <ele>190</ele>
        <time>2022-03-21T10:56:06Z</time>
      </trkpt>
      <trkpt lat="47.01991" lon="5.25119">
        <ele>190</ele>
        <time>2022-03-21T10:56:07Z</time>
      </trkpt>
      <trkpt lat="47.01988" lon="5.2511">
        <ele>189.8</ele>
        <time>2022-03-21T10:56:08Z</time>
      </trkpt>
      <trkpt lat="47.01985" lon="5.25102">
        <ele>189.8</ele>
        <time>2022-03-21T10:56:09Z</time>
      </trkpt>
      <trkpt lat="47.0198" lon="5.25095">
        <ele>189.8</ele>
        <time>2022-03-21T10:56:10Z</time>
      </trkpt>
      <trkpt lat="47.01976" lon="5.25089">
        <ele>189.6</ele>
        <time>2022-03-21T10:56:11Z</time>
      </trkpt>
      <trkpt lat="47.0197" lon="5.25084">
        <ele>189.6</ele>
        <time>2022-03-21T10:56:12Z</time>
      </trkpt>
      <trkpt lat="47.01964" lon="5.2508">
        <ele>189.6</ele>
        <time>2022-03-21T10:56:13Z</time>
      </trkpt>
      <trkpt lat="47.01959" lon="5.25076">
        <ele>189.6</ele>
        <time>2022-03-21T10:56:14Z</time>
      </trkpt>
      <trkpt lat="47.01953" lon="5.25072">
        <ele>189.6</ele>
        <time>2022-03-21T10:56:15Z</time>
      </trkpt>
      <trkpt lat="47.01947" lon="5.25069">
        <ele>189.8</ele>
        <time>2022-03-21T10:56:16Z</time>
      </trkpt>
      <trkpt lat="47.01941" lon="5.25066">
        <ele>189.8</ele>
        <time>2022-03-21T10:56:17Z</time>
      </trkpt>
      <trkpt lat="47.01935" lon="5.25062">
        <ele>189.8</ele>
        <time>2022-03-21T10:56:18Z</time>
      </trkpt>
      <trkpt lat="47.01929" lon="5.25059">
        <ele>189.8</ele>
        <time>2022-03-21T10:56:19Z</time>
      </trkpt>
      <trkpt lat="47.01924" lon="5.25055">
        <ele>189.8</ele>
        <time>2022-03-21T10:56:20Z</time>
      </trkpt>
      <trkpt lat="47.01918" lon="5.2505">
        <ele>189.8</ele>
        <time>2022-03-21T10:56:21Z</time>
      </trkpt>
      <trkpt lat="47.01913" lon="5.25046">
        <ele>189.8</ele>
        <time>2022-03-21T10:56:22Z</time>
      </trkpt>
      <trkpt lat="47.01907" lon="5.25041">
        <ele>189.8</ele>
        <time>2022-03-21T10:56:23Z</time>
      </trkpt>
      <trkpt lat="47.01902" lon="5.25037">
        <ele>189.8</ele>
        <time>2022-03-21T10:56:24Z</time>
      </trkpt>
      <trkpt lat="47.01897" lon="5.25032">
        <ele>189.8</ele>
        <time>2022-03-21T10:56:25Z</time>
      </trkpt>
      <trkpt lat="47.01892" lon="5.25028">
        <ele>190</ele>
        <time>2022-03-21T10:56:26Z</time>
      </trkpt>
      <trkpt lat="47.01887" lon="5.25023">
        <ele>190</ele>
        <time>2022-03-21T10:56:27Z</time>
      </trkpt>
      <trkpt lat="47.01882" lon="5.25018">
        <ele>190</ele>
        <time>2022-03-21T10:56:28Z</time>
      </trkpt>
      <trkpt lat="47.01877" lon="5.25013">
        <ele>190.4</ele>
        <time>2022-03-21T10:56:29Z</time>
      </trkpt>
      <trkpt lat="47.01872" lon="5.25008">
        <ele>190.4</ele>
        <time>2022-03-21T10:56:30Z</time>
      </trkpt>
      <trkpt lat="47.01868" lon="5.25003">
        <ele>190.4</ele>
        <time>2022-03-21T10:56:31Z</time>
      </trkpt>
      <trkpt lat="47.01863" lon="5.24999">
        <ele>190.4</ele>
        <time>2022-03-21T10:56:32Z</time>
      </trkpt>
      <trkpt lat="47.01858" lon="5.24994">
        <ele>190.6</ele>
        <time>2022-03-21T10:56:33Z</time>
      </trkpt>
      <trkpt lat="47.01854" lon="5.24989">
        <ele>190.6</ele>
        <time>2022-03-21T10:56:34Z</time>
      </trkpt>
      <trkpt lat="47.01849" lon="5.24985">
        <ele>190.8</ele>
        <time>2022-03-21T10:56:35Z</time>
      </trkpt>
      <trkpt lat="47.01844" lon="5.2498">
        <ele>190.8</ele>
        <time>2022-03-21T10:56:36Z</time>
      </trkpt>
      <trkpt lat="47.01839" lon="5.24975">
        <ele>190.8</ele>
        <time>2022-03-21T10:56:37Z</time>
      </trkpt>
      <trkpt lat="47.01834" lon="5.2497">
        <ele>190.8</ele>
        <time>2022-03-21T10:56:38Z</time>
      </trkpt>
      <trkpt lat="47.01829" lon="5.24966">
        <ele>190.8</ele>
        <time>2022-03-21T10:56:39Z</time>
      </trkpt>
      <trkpt lat="47.01824" lon="5.24961">
        <ele>190.8</ele>
        <time>2022-03-21T10:56:40Z</time>
      </trkpt>
      <trkpt lat="47.01819" lon="5.24956">
        <ele>190.8</ele>
        <time>2022-03-21T10:56:41Z</time>
      </trkpt>
      <trkpt lat="47.01814" lon="5.24952">
        <ele>190.8</ele>
        <time>2022-03-21T10:56:42Z</time>
      </trkpt>
      <trkpt lat="47.01809" lon="5.24947">
        <ele>190.6</ele>
        <time>2022-03-21T10:56:43Z</time>
      </trkpt>
      <trkpt lat="47.01804" lon="5.24942">
        <ele>190.6</ele>
        <time>2022-03-21T10:56:44Z</time>
      </trkpt>
      <trkpt lat="47.01799" lon="5.24937">
        <ele>190.6</ele>
        <time>2022-03-21T10:56:46Z</time>
      </trkpt>
      <trkpt lat="47.01794" lon="5.24932">
        <ele>190.6</ele>
        <time>2022-03-21T10:56:47Z</time>
      </trkpt>
      <trkpt lat="47.01789" lon="5.24928">
        <ele>190.6</ele>
        <time>2022-03-21T10:56:48Z</time>
      </trkpt>
      <trkpt lat="47.01784" lon="5.24922">
        <ele>190.4</ele>
        <time>2022-03-21T10:56:49Z</time>
      </trkpt>
      <trkpt lat="47.01779" lon="5.24917">
        <ele>190.6</ele>
        <time>2022-03-21T10:56:50Z</time>
      </trkpt>
      <trkpt lat="47.01774" lon="5.24911">
        <ele>190.6</ele>
        <time>2022-03-21T10:56:51Z</time>
      </trkpt>
      <trkpt lat="47.01769" lon="5.24906">
        <ele>190.4</ele>
        <time>2022-03-21T10:56:52Z</time>
      </trkpt>
      <trkpt lat="47.01764" lon="5.249">
        <ele>190.4</ele>
        <time>2022-03-21T10:56:53Z</time>
      </trkpt>
      <trkpt lat="47.0176" lon="5.24893">
        <ele>190.4</ele>
        <time>2022-03-21T10:56:54Z</time>
      </trkpt>
      <trkpt lat="47.01755" lon="5.24887">
        <ele>190.4</ele>
        <time>2022-03-21T10:56:55Z</time>
      </trkpt>
      <trkpt lat="47.01751" lon="5.2488">
        <ele>190.4</ele>
        <time>2022-03-21T10:56:56Z</time>
      </trkpt>
      <trkpt lat="47.01747" lon="5.24873">
        <ele>190.4</ele>
        <time>2022-03-21T10:56:57Z</time>
      </trkpt>
      <trkpt lat="47.01743" lon="5.24867">
        <ele>190.4</ele>
        <time>2022-03-21T10:56:58Z</time>
      </trkpt>
      <trkpt lat="47.01738" lon="5.2486">
        <ele>190.4</ele>
        <time>2022-03-21T10:56:59Z</time>
      </trkpt>
      <trkpt lat="47.01734" lon="5.24854">
        <ele>190.4</ele>
        <time>2022-03-21T10:57:00Z</time>
      </trkpt>
      <trkpt lat="47.0173" lon="5.24847">
        <ele>190.4</ele>
        <time>2022-03-21T10:57:01Z</time>
      </trkpt>
      <trkpt lat="47.01726" lon="5.2484">
        <ele>190.4</ele>
        <time>2022-03-21T10:57:02Z</time>
      </trkpt>
      <trkpt lat="47.01721" lon="5.24833">
        <ele>190.4</ele>
        <time>2022-03-21T10:57:03Z</time>
      </trkpt>
      <trkpt lat="47.01717" lon="5.24826">
        <ele>190.4</ele>
        <time>2022-03-21T10:57:04Z</time>
      </trkpt>
      <trkpt lat="47.01713" lon="5.24819">
        <ele>190.4</ele>
        <time>2022-03-21T10:57:05Z</time>
      </trkpt>
      <trkpt lat="47.01708" lon="5.24812">
        <ele>190.4</ele>
        <time>2022-03-21T10:57:06Z</time>
      </trkpt>
      <trkpt lat="47.01704" lon="5.24805">
        <ele>190.4</ele>
        <time>2022-03-21T10:57:07Z</time>
      </trkpt>
      <trkpt lat="47.017" lon="5.24798">
        <ele>190.4</ele>
        <time>2022-03-21T10:57:08Z</time>
      </trkpt>
      <trkpt lat="47.01696" lon="5.24791">
        <ele>190.4</ele>
        <time>2022-03-21T10:57:09Z</time>
      </trkpt>
      <trkpt lat="47.01692" lon="5.24784">
        <ele>190.4</ele>
        <time>2022-03-21T10:57:10Z</time>
      </trkpt>
      <trkpt lat="47.01688" lon="5.24776">
        <ele>190.4</ele>
        <time>2022-03-21T10:57:11Z</time>
      </trkpt>
      <trkpt lat="47.01685" lon="5.24769">
        <ele>190.4</ele>
        <time>2022-03-21T10:57:12Z</time>
      </trkpt>
      <trkpt lat="47.01681" lon="5.24762">
        <ele>190.4</ele>
        <time>2022-03-21T10:57:13Z</time>
      </trkpt>
      <trkpt lat="47.01676" lon="5.24755">
        <ele>190.4</ele>
        <time>2022-03-21T10:57:14Z</time>
      </trkpt>
      <trkpt lat="47.01672" lon="5.24748">
        <ele>190.4</ele>
        <time>2022-03-21T10:57:15Z</time>
      </trkpt>
      <trkpt lat="47.01667" lon="5.24743">
        <ele>190.4</ele>
        <time>2022-03-21T10:57:16Z</time>
      </trkpt>
      <trkpt lat="47.01662" lon="5.24737">
        <ele>190.4</ele>
        <time>2022-03-21T10:57:17Z</time>
      </trkpt>
      <trkpt lat="47.01656" lon="5.24733">
        <ele>190.4</ele>
        <time>2022-03-21T10:57:18Z</time>
      </trkpt>
      <trkpt lat="47.0165" lon="5.24729">
        <ele>190.4</ele>
        <time>2022-03-21T10:57:19Z</time>
      </trkpt>
      <trkpt lat="47.01644" lon="5.24727">
        <ele>190.4</ele>
        <time>2022-03-21T10:57:20Z</time>
      </trkpt>
      <trkpt lat="47.01638" lon="5.24725">
        <ele>190.6</ele>
        <time>2022-03-21T10:57:21Z</time>
      </trkpt>
      <trkpt lat="47.01631" lon="5.24724">
        <ele>190.6</ele>
        <time>2022-03-21T10:57:22Z</time>
      </trkpt>
      <trkpt lat="47.01624" lon="5.24724">
        <ele>190.6</ele>
        <time>2022-03-21T10:57:23Z</time>
      </trkpt>
      <trkpt lat="47.01618" lon="5.24725">
        <ele>190.6</ele>
        <time>2022-03-21T10:57:24Z</time>
      </trkpt>
      <trkpt lat="47.01611" lon="5.24726">
        <ele>190.6</ele>
        <time>2022-03-21T10:57:25Z</time>
      </trkpt>
      <trkpt lat="47.01604" lon="5.24728">
        <ele>190.6</ele>
        <time>2022-03-21T10:57:26Z</time>
      </trkpt>
      <trkpt lat="47.01598" lon="5.2473">
        <ele>190.6</ele>
        <time>2022-03-21T10:57:27Z</time>
      </trkpt>
      <trkpt lat="47.01591" lon="5.24732">
        <ele>190.6</ele>
        <time>2022-03-21T10:57:28Z</time>
      </trkpt>
      <trkpt lat="47.01584" lon="5.24734">
        <ele>190.6</ele>
        <time>2022-03-21T10:57:29Z</time>
      </trkpt>
      <trkpt lat="47.01577" lon="5.24736">
        <ele>190.6</ele>
        <time>2022-03-21T10:57:30Z</time>
      </trkpt>
      <trkpt lat="47.01571" lon="5.24738">
        <ele>190.6</ele>
        <time>2022-03-21T10:57:31Z</time>
      </trkpt>
      <trkpt lat="47.01564" lon="5.2474">
        <ele>190.8</ele>
        <time>2022-03-21T10:57:32Z</time>
      </trkpt>
      <trkpt lat="47.01557" lon="5.24741">
        <ele>190.8</ele>
        <time>2022-03-21T10:57:33Z</time>
      </trkpt>
      <trkpt lat="47.01551" lon="5.24743">
        <ele>190.8</ele>
        <time>2022-03-21T10:57:34Z</time>
      </trkpt>
      <trkpt lat="47.01544" lon="5.24743">
        <ele>190.8</ele>
        <time>2022-03-21T10:57:35Z</time>
      </trkpt>
      <trkpt lat="47.01537" lon="5.24744">
        <ele>190.8</ele>
        <time>2022-03-21T10:57:36Z</time>
      </trkpt>
      <trkpt lat="47.0153" lon="5.24744">
        <ele>190.8</ele>
        <time>2022-03-21T10:57:37Z</time>
      </trkpt>
      <trkpt lat="47.01523" lon="5.24743">
        <ele>190.8</ele>
        <time>2022-03-21T10:57:38Z</time>
      </trkpt>
      <trkpt lat="47.01517" lon="5.24742">
        <ele>190.8</ele>
        <time>2022-03-21T10:57:39Z</time>
      </trkpt>
      <trkpt lat="47.0151" lon="5.24741">
        <ele>190.8</ele>
        <time>2022-03-21T10:57:40Z</time>
      </trkpt>
      <trkpt lat="47.01503" lon="5.24739">
        <ele>190.8</ele>
        <time>2022-03-21T10:57:41Z</time>
      </trkpt>
      <trkpt lat="47.01497" lon="5.24738">
        <ele>190.8</ele>
        <time>2022-03-21T10:57:42Z</time>
      </trkpt>
      <trkpt lat="47.01491" lon="5.24736">
        <ele>190.8</ele>
        <time>2022-03-21T10:57:43Z</time>
      </trkpt>
      <trkpt lat="47.01484" lon="5.24735">
        <ele>190.8</ele>
        <time>2022-03-21T10:57:44Z</time>
      </trkpt>
      <trkpt lat="47.01478" lon="5.24733">
        <ele>190.8</ele>
        <time>2022-03-21T10:57:45Z</time>
      </trkpt>
      <trkpt lat="47.01471" lon="5.24731">
        <ele>190.8</ele>
        <time>2022-03-21T10:57:46Z</time>
      </trkpt>
      <trkpt lat="47.01459" lon="5.24727">
        <ele>190.8</ele>
        <time>2022-03-21T10:57:47Z</time>
      </trkpt>
      <trkpt lat="47.01453" lon="5.24726">
        <ele>190.8</ele>
        <time>2022-03-21T10:57:48Z</time>
      </trkpt>
      <trkpt lat="47.01447" lon="5.24724">
        <ele>190.8</ele>
        <time>2022-03-21T10:57:49Z</time>
      </trkpt>
      <trkpt lat="47.01441" lon="5.24723">
        <ele>190.8</ele>
        <time>2022-03-21T10:57:50Z</time>
      </trkpt>
      <trkpt lat="47.01435" lon="5.24721">
        <ele>190.8</ele>
        <time>2022-03-21T10:57:51Z</time>
      </trkpt>
      <trkpt lat="47.01429" lon="5.24719">
        <ele>190.8</ele>
        <time>2022-03-21T10:57:52Z</time>
      </trkpt>
      <trkpt lat="47.01424" lon="5.24718">
        <ele>190.8</ele>
        <time>2022-03-21T10:57:53Z</time>
      </trkpt>
      <trkpt lat="47.01418" lon="5.24716">
        <ele>190.8</ele>
        <time>2022-03-21T10:57:54Z</time>
      </trkpt>
      <trkpt lat="47.01412" lon="5.24714">
        <ele>190.8</ele>
        <time>2022-03-21T10:57:55Z</time>
      </trkpt>
      <trkpt lat="47.01406" lon="5.24713">
        <ele>190.8</ele>
        <time>2022-03-21T10:57:56Z</time>
      </trkpt>
      <trkpt lat="47.01401" lon="5.24711">
        <ele>190.8</ele>
        <time>2022-03-21T10:57:57Z</time>
      </trkpt>
      <trkpt lat="47.01395" lon="5.2471">
        <ele>190.8</ele>
        <time>2022-03-21T10:57:58Z</time>
      </trkpt>
      <trkpt lat="47.01389" lon="5.24708">
        <ele>190.8</ele>
        <time>2022-03-21T10:57:59Z</time>
      </trkpt>
      <trkpt lat="47.01384" lon="5.24706">
        <ele>190.8</ele>
        <time>2022-03-21T10:58:00Z</time>
      </trkpt>
      <trkpt lat="47.01378" lon="5.24704">
        <ele>190.8</ele>
        <time>2022-03-21T10:58:01Z</time>
      </trkpt>
      <trkpt lat="47.01372" lon="5.24703">
        <ele>190.8</ele>
        <time>2022-03-21T10:58:02Z</time>
      </trkpt>
      <trkpt lat="47.01366" lon="5.24701">
        <ele>190.8</ele>
        <time>2022-03-21T10:58:03Z</time>
      </trkpt>
      <trkpt lat="47.0136" lon="5.24699">
        <ele>190.8</ele>
        <time>2022-03-21T10:58:04Z</time>
      </trkpt>
      <trkpt lat="47.01355" lon="5.24697">
        <ele>190.8</ele>
        <time>2022-03-21T10:58:05Z</time>
      </trkpt>
      <trkpt lat="47.01349" lon="5.24695">
        <ele>190.8</ele>
        <time>2022-03-21T10:58:06Z</time>
      </trkpt>
      <trkpt lat="47.01343" lon="5.24693">
        <ele>190.8</ele>
        <time>2022-03-21T10:58:07Z</time>
      </trkpt>
      <trkpt lat="47.01338" lon="5.24691">
        <ele>190.8</ele>
        <time>2022-03-21T10:58:08Z</time>
      </trkpt>
      <trkpt lat="47.01332" lon="5.24689">
        <ele>190.8</ele>
        <time>2022-03-21T10:58:09Z</time>
      </trkpt>
      <trkpt lat="47.01327" lon="5.24687">
        <ele>190.8</ele>
        <time>2022-03-21T10:58:10Z</time>
      </trkpt>
      <trkpt lat="47.01321" lon="5.24685">
        <ele>190.8</ele>
        <time>2022-03-21T10:58:11Z</time>
      </trkpt>
      <trkpt lat="47.01316" lon="5.24683">
        <ele>190.8</ele>
        <time>2022-03-21T10:58:12Z</time>
      </trkpt>
      <trkpt lat="47.01311" lon="5.24681">
        <ele>190.8</ele>
        <time>2022-03-21T10:58:13Z</time>
      </trkpt>
      <trkpt lat="47.01305" lon="5.24679">
        <ele>190.8</ele>
        <time>2022-03-21T10:58:14Z</time>
      </trkpt>
      <trkpt lat="47.013" lon="5.24677">
        <ele>190.8</ele>
        <time>2022-03-21T10:58:15Z</time>
      </trkpt>
      <trkpt lat="47.01295" lon="5.24675">
        <ele>190.8</ele>
        <time>2022-03-21T10:58:16Z</time>
      </trkpt>
      <trkpt lat="47.0129" lon="5.24674">
        <ele>190.8</ele>
        <time>2022-03-21T10:58:17Z</time>
      </trkpt>
      <trkpt lat="47.01285" lon="5.24672">
        <ele>190.8</ele>
        <time>2022-03-21T10:58:18Z</time>
      </trkpt>
      <trkpt lat="47.01279" lon="5.2467">
        <ele>190.8</ele>
        <time>2022-03-21T10:58:19Z</time>
      </trkpt>
      <trkpt lat="47.01274" lon="5.24668">
        <ele>190.8</ele>
        <time>2022-03-21T10:58:20Z</time>
      </trkpt>
      <trkpt lat="47.01269" lon="5.24666">
        <ele>190.8</ele>
        <time>2022-03-21T10:58:21Z</time>
      </trkpt>
      <trkpt lat="47.01264" lon="5.24662">
        <ele>190.8</ele>
        <time>2022-03-21T10:58:22Z</time>
      </trkpt>
      <trkpt lat="47.0126" lon="5.24657">
        <ele>190.8</ele>
        <time>2022-03-21T10:58:23Z</time>
      </trkpt>
      <trkpt lat="47.01257" lon="5.24651">
        <ele>190.8</ele>
        <time>2022-03-21T10:58:24Z</time>
      </trkpt>
      <trkpt lat="47.01254" lon="5.24645">
        <ele>190.8</ele>
        <time>2022-03-21T10:58:25Z</time>
      </trkpt>
      <trkpt lat="47.01252" lon="5.24637">
        <ele>190.8</ele>
        <time>2022-03-21T10:58:26Z</time>
      </trkpt>
      <trkpt lat="47.0125" lon="5.2463">
        <ele>190.8</ele>
        <time>2022-03-21T10:58:27Z</time>
      </trkpt>
      <trkpt lat="47.01249" lon="5.24622">
        <ele>190.8</ele>
        <time>2022-03-21T10:58:28Z</time>
      </trkpt>
      <trkpt lat="47.01247" lon="5.24614">
        <ele>190.6</ele>
        <time>2022-03-21T10:58:29Z</time>
      </trkpt>
      <trkpt lat="47.01245" lon="5.24606">
        <ele>190.6</ele>
        <time>2022-03-21T10:58:30Z</time>
      </trkpt>
      <trkpt lat="47.01243" lon="5.24599">
        <ele>190.6</ele>
        <time>2022-03-21T10:58:31Z</time>
      </trkpt>
      <trkpt lat="47.01239" lon="5.24592">
        <ele>190.6</ele>
        <time>2022-03-21T10:58:32Z</time>
      </trkpt>
      <trkpt lat="47.01236" lon="5.24586">
        <ele>190.6</ele>
        <time>2022-03-21T10:58:33Z</time>
      </trkpt>
      <trkpt lat="47.01232" lon="5.2458">
        <ele>190.6</ele>
        <time>2022-03-21T10:58:34Z</time>
      </trkpt>
      <trkpt lat="47.01227" lon="5.24574">
        <ele>190.6</ele>
        <time>2022-03-21T10:58:35Z</time>
      </trkpt>
      <trkpt lat="47.01223" lon="5.24568">
        <ele>190.6</ele>
        <time>2022-03-21T10:58:36Z</time>
      </trkpt>
      <trkpt lat="47.01219" lon="5.24563">
        <ele>190.6</ele>
        <time>2022-03-21T10:58:37Z</time>
      </trkpt>
      <trkpt lat="47.01214" lon="5.24557">
        <ele>190.6</ele>
        <time>2022-03-21T10:58:38Z</time>
      </trkpt>
      <trkpt lat="47.01209" lon="5.24552">
        <ele>190.6</ele>
        <time>2022-03-21T10:58:39Z</time>
      </trkpt>
      <trkpt lat="47.01205" lon="5.24547">
        <ele>190.6</ele>
        <time>2022-03-21T10:58:40Z</time>
      </trkpt>
      <trkpt lat="47.012" lon="5.24542">
        <ele>190.6</ele>
        <time>2022-03-21T10:58:41Z</time>
      </trkpt>
      <trkpt lat="47.01195" lon="5.24537">
        <ele>190.6</ele>
        <time>2022-03-21T10:58:42Z</time>
      </trkpt>
      <trkpt lat="47.01191" lon="5.24532">
        <ele>190.6</ele>
        <time>2022-03-21T10:58:43Z</time>
      </trkpt>
      <trkpt lat="47.01186" lon="5.24527">
        <ele>190.6</ele>
        <time>2022-03-21T10:58:44Z</time>
      </trkpt>
      <trkpt lat="47.01181" lon="5.24522">
        <ele>190.6</ele>
        <time>2022-03-21T10:58:45Z</time>
      </trkpt>
      <trkpt lat="47.01177" lon="5.24517">
        <ele>190.6</ele>
        <time>2022-03-21T10:58:46Z</time>
      </trkpt>
      <trkpt lat="47.01172" lon="5.24512">
        <ele>190.6</ele>
        <time>2022-03-21T10:58:47Z</time>
      </trkpt>
      <trkpt lat="47.01168" lon="5.24508">
        <ele>190.6</ele>
        <time>2022-03-21T10:58:48Z</time>
      </trkpt>
      <trkpt lat="47.01163" lon="5.24503">
        <ele>190.6</ele>
        <time>2022-03-21T10:58:49Z</time>
      </trkpt>
      <trkpt lat="47.01158" lon="5.24499">
        <ele>190.6</ele>
        <time>2022-03-21T10:58:50Z</time>
      </trkpt>
      <trkpt lat="47.01154" lon="5.24495">
        <ele>190.8</ele>
        <time>2022-03-21T10:58:51Z</time>
      </trkpt>
      <trkpt lat="47.01149" lon="5.24491">
        <ele>190.8</ele>
        <time>2022-03-21T10:58:52Z</time>
      </trkpt>
      <trkpt lat="47.01144" lon="5.24487">
        <ele>190.8</ele>
        <time>2022-03-21T10:58:53Z</time>
      </trkpt>
      <trkpt lat="47.0114" lon="5.24483">
        <ele>191</ele>
        <time>2022-03-21T10:58:54Z</time>
      </trkpt>
      <trkpt lat="47.01135" lon="5.24479">
        <ele>191</ele>
        <time>2022-03-21T10:58:55Z</time>
      </trkpt>
      <trkpt lat="47.01131" lon="5.24475">
        <ele>191</ele>
        <time>2022-03-21T10:58:56Z</time>
      </trkpt>
      <trkpt lat="47.01127" lon="5.24471">
        <ele>191</ele>
        <time>2022-03-21T10:58:57Z</time>
      </trkpt>
      <trkpt lat="47.01122" lon="5.24467">
        <ele>191</ele>
        <time>2022-03-21T10:58:58Z</time>
      </trkpt>
      <trkpt lat="47.01118" lon="5.24463">
        <ele>191</ele>
        <time>2022-03-21T10:58:59Z</time>
      </trkpt>
      <trkpt lat="47.01113" lon="5.2446">
        <ele>191</ele>
        <time>2022-03-21T10:59:00Z</time>
      </trkpt>
      <trkpt lat="47.01109" lon="5.24456">
        <ele>191</ele>
        <time>2022-03-21T10:59:01Z</time>
      </trkpt>
      <trkpt lat="47.01104" lon="5.24452">
        <ele>191</ele>
        <time>2022-03-21T10:59:02Z</time>
      </trkpt>
      <trkpt lat="47.01099" lon="5.24448">
        <ele>191</ele>
        <time>2022-03-21T10:59:03Z</time>
      </trkpt>
      <trkpt lat="47.01094" lon="5.24443">
        <ele>191</ele>
        <time>2022-03-21T10:59:04Z</time>
      </trkpt>
      <trkpt lat="47.01089" lon="5.24439">
        <ele>191</ele>
        <time>2022-03-21T10:59:05Z</time>
      </trkpt>
      <trkpt lat="47.01084" lon="5.24434">
        <ele>191</ele>
        <time>2022-03-21T10:59:06Z</time>
      </trkpt>
      <trkpt lat="47.01079" lon="5.2443">
        <ele>191</ele>
        <time>2022-03-21T10:59:07Z</time>
      </trkpt>
      <trkpt lat="47.01074" lon="5.24425">
        <ele>191</ele>
        <time>2022-03-21T10:59:08Z</time>
      </trkpt>
      <trkpt lat="47.01069" lon="5.2442">
        <ele>191</ele>
        <time>2022-03-21T10:59:09Z</time>
      </trkpt>
      <trkpt lat="47.01064" lon="5.24416">
        <ele>191</ele>
        <time>2022-03-21T10:59:10Z</time>
      </trkpt>
      <trkpt lat="47.01059" lon="5.24411">
        <ele>191</ele>
        <time>2022-03-21T10:59:11Z</time>
      </trkpt>
      <trkpt lat="47.01054" lon="5.24407">
        <ele>191</ele>
        <time>2022-03-21T10:59:12Z</time>
      </trkpt>
      <trkpt lat="47.01049" lon="5.24402">
        <ele>191</ele>
        <time>2022-03-21T10:59:13Z</time>
      </trkpt>
      <trkpt lat="47.01044" lon="5.24398">
        <ele>191</ele>
        <time>2022-03-21T10:59:14Z</time>
      </trkpt>
      <trkpt lat="47.01039" lon="5.24393">
        <ele>191</ele>
        <time>2022-03-21T10:59:15Z</time>
      </trkpt>
      <trkpt lat="47.01034" lon="5.24389">
        <ele>191</ele>
        <time>2022-03-21T10:59:16Z</time>
      </trkpt>
      <trkpt lat="47.01029" lon="5.24384">
        <ele>191</ele>
        <time>2022-03-21T10:59:17Z</time>
      </trkpt>
      <trkpt lat="47.01024" lon="5.2438">
        <ele>191.2</ele>
        <time>2022-03-21T10:59:18Z</time>
      </trkpt>
      <trkpt lat="47.01019" lon="5.24376">
        <ele>191.2</ele>
        <time>2022-03-21T10:59:19Z</time>
      </trkpt>
      <trkpt lat="47.01014" lon="5.24371">
        <ele>191.2</ele>
        <time>2022-03-21T10:59:20Z</time>
      </trkpt>
      <trkpt lat="47.01009" lon="5.24367">
        <ele>191.2</ele>
        <time>2022-03-21T10:59:21Z</time>
      </trkpt>
      <trkpt lat="47.01005" lon="5.24363">
        <ele>191.2</ele>
        <time>2022-03-21T10:59:22Z</time>
      </trkpt>
      <trkpt lat="47.01" lon="5.24358">
        <ele>191.2</ele>
        <time>2022-03-21T10:59:23Z</time>
      </trkpt>
      <trkpt lat="47.00995" lon="5.24355">
        <ele>191.2</ele>
        <time>2022-03-21T10:59:24Z</time>
      </trkpt>
      <trkpt lat="47.0099" lon="5.24351">
        <ele>191.2</ele>
        <time>2022-03-21T10:59:25Z</time>
      </trkpt>
      <trkpt lat="47.00985" lon="5.24347">
        <ele>191.2</ele>
        <time>2022-03-21T10:59:26Z</time>
      </trkpt>
      <trkpt lat="47.0098" lon="5.24343">
        <ele>191.2</ele>
        <time>2022-03-21T10:59:27Z</time>
      </trkpt>
      <trkpt lat="47.00975" lon="5.2434">
        <ele>191.2</ele>
        <time>2022-03-21T10:59:28Z</time>
      </trkpt>
      <trkpt lat="47.0097" lon="5.24336">
        <ele>191.2</ele>
        <time>2022-03-21T10:59:29Z</time>
      </trkpt>
      <trkpt lat="47.00964" lon="5.24333">
        <ele>191.2</ele>
        <time>2022-03-21T10:59:30Z</time>
      </trkpt>
      <trkpt lat="47.00959" lon="5.24329">
        <ele>191.2</ele>
        <time>2022-03-21T10:59:31Z</time>
      </trkpt>
      <trkpt lat="47.00954" lon="5.24326">
        <ele>191.2</ele>
        <time>2022-03-21T10:59:32Z</time>
      </trkpt>
      <trkpt lat="47.00949" lon="5.24323">
        <ele>191.2</ele>
        <time>2022-03-21T10:59:33Z</time>
      </trkpt>
      <trkpt lat="47.00943" lon="5.2432">
        <ele>191.2</ele>
        <time>2022-03-21T10:59:34Z</time>
      </trkpt>
      <trkpt lat="47.00938" lon="5.24317">
        <ele>191.4</ele>
        <time>2022-03-21T10:59:35Z</time>
      </trkpt>
      <trkpt lat="47.00933" lon="5.24314">
        <ele>191.4</ele>
        <time>2022-03-21T10:59:36Z</time>
      </trkpt>
      <trkpt lat="47.00928" lon="5.24311">
        <ele>191.8</ele>
        <time>2022-03-21T10:59:37Z</time>
      </trkpt>
      <trkpt lat="47.00923" lon="5.24309">
        <ele>191.8</ele>
        <time>2022-03-21T10:59:38Z</time>
      </trkpt>
      <trkpt lat="47.00917" lon="5.24306">
        <ele>192.2</ele>
        <time>2022-03-21T10:59:39Z</time>
      </trkpt>
      <trkpt lat="47.00912" lon="5.24304">
        <ele>192.2</ele>
        <time>2022-03-21T10:59:40Z</time>
      </trkpt>
      <trkpt lat="47.00907" lon="5.24302">
        <ele>192.4</ele>
        <time>2022-03-21T10:59:41Z</time>
      </trkpt>
      <trkpt lat="47.00901" lon="5.24299">
        <ele>192.4</ele>
        <time>2022-03-21T10:59:42Z</time>
      </trkpt>
      <trkpt lat="47.00896" lon="5.24297">
        <ele>192.8</ele>
        <time>2022-03-21T10:59:43Z</time>
      </trkpt>
      <trkpt lat="47.00891" lon="5.24294">
        <ele>193</ele>
        <time>2022-03-21T10:59:44Z</time>
      </trkpt>
      <trkpt lat="47.00886" lon="5.24293">
        <ele>193.2</ele>
        <time>2022-03-21T10:59:45Z</time>
      </trkpt>
      <trkpt lat="47.00881" lon="5.24291">
        <ele>193.2</ele>
        <time>2022-03-21T10:59:46Z</time>
      </trkpt>
      <trkpt lat="47.00876" lon="5.24289">
        <ele>193.4</ele>
        <time>2022-03-21T10:59:47Z</time>
      </trkpt>
      <trkpt lat="47.00872" lon="5.24286">
        <ele>193.6</ele>
        <time>2022-03-21T10:59:48Z</time>
      </trkpt>
      <trkpt lat="47.00867" lon="5.24283">
        <ele>193.6</ele>
        <time>2022-03-21T10:59:49Z</time>
      </trkpt>
      <trkpt lat="47.00862" lon="5.2428">
        <ele>193.8</ele>
        <time>2022-03-21T10:59:50Z</time>
      </trkpt>
      <trkpt lat="47.00858" lon="5.24278">
        <ele>193.8</ele>
        <time>2022-03-21T10:59:51Z</time>
      </trkpt>
      <trkpt lat="47.00853" lon="5.24275">
        <ele>194.2</ele>
        <time>2022-03-21T10:59:52Z</time>
      </trkpt>
      <trkpt lat="47.00848" lon="5.24272">
        <ele>194.2</ele>
        <time>2022-03-21T10:59:53Z</time>
      </trkpt>
      <trkpt lat="47.00844" lon="5.24269">
        <ele>194.6</ele>
        <time>2022-03-21T10:59:54Z</time>
      </trkpt>
      <trkpt lat="47.00839" lon="5.24266">
        <ele>194.8</ele>
        <time>2022-03-21T10:59:55Z</time>
      </trkpt>
      <trkpt lat="47.00835" lon="5.24263">
        <ele>195.2</ele>
        <time>2022-03-21T10:59:56Z</time>
      </trkpt>
      <trkpt lat="47.00831" lon="5.24259">
        <ele>195.2</ele>
        <time>2022-03-21T10:59:57Z</time>
      </trkpt>
      <trkpt lat="47.00827" lon="5.24255">
        <ele>195.6</ele>
        <time>2022-03-21T10:59:58Z</time>
      </trkpt>
      <trkpt lat="47.00823" lon="5.24251">
        <ele>195.6</ele>
        <time>2022-03-21T10:59:59Z</time>
      </trkpt>
      <trkpt lat="47.00819" lon="5.24247">
        <ele>196</ele>
        <time>2022-03-21T11:00:00Z</time>
      </trkpt>
      <trkpt lat="47.00816" lon="5.24243">
        <ele>196.2</ele>
        <time>2022-03-21T11:00:01Z</time>
      </trkpt>
      <trkpt lat="47.00813" lon="5.24239">
        <ele>196.2</ele>
        <time>2022-03-21T11:00:02Z</time>
      </trkpt>
      <trkpt lat="47.0081" lon="5.24234">
        <ele>196.4</ele>
        <time>2022-03-21T11:00:03Z</time>
      </trkpt>
      <trkpt lat="47.00807" lon="5.24229">
        <ele>196.4</ele>
        <time>2022-03-21T11:00:04Z</time>
      </trkpt>
      <trkpt lat="47.00804" lon="5.24224">
        <ele>196.4</ele>
        <time>2022-03-21T11:00:05Z</time>
      </trkpt>
      <trkpt lat="47.00801" lon="5.24219">
        <ele>196.8</ele>
        <time>2022-03-21T11:00:06Z</time>
      </trkpt>
      <trkpt lat="47.00798" lon="5.24213">
        <ele>196.8</ele>
        <time>2022-03-21T11:00:07Z</time>
      </trkpt>
      <trkpt lat="47.00795" lon="5.24207">
        <ele>196.8</ele>
        <time>2022-03-21T11:00:08Z</time>
      </trkpt>
      <trkpt lat="47.00792" lon="5.24201">
        <ele>196.8</ele>
        <time>2022-03-21T11:00:09Z</time>
      </trkpt>
      <trkpt lat="47.00789" lon="5.24195">
        <ele>197</ele>
        <time>2022-03-21T11:00:10Z</time>
      </trkpt>
      <trkpt lat="47.00786" lon="5.24188">
        <ele>197</ele>
        <time>2022-03-21T11:00:11Z</time>
      </trkpt>
      <trkpt lat="47.00783" lon="5.24182">
        <ele>197</ele>
        <time>2022-03-21T11:00:12Z</time>
      </trkpt>
      <trkpt lat="47.00781" lon="5.24175">
        <ele>197</ele>
        <time>2022-03-21T11:00:13Z</time>
      </trkpt>
      <trkpt lat="47.00778" lon="5.24169">
        <ele>197</ele>
        <time>2022-03-21T11:00:14Z</time>
      </trkpt>
      <trkpt lat="47.00775" lon="5.24162">
        <ele>197</ele>
        <time>2022-03-21T11:00:15Z</time>
      </trkpt>
      <trkpt lat="47.00772" lon="5.24155">
        <ele>197</ele>
        <time>2022-03-21T11:00:16Z</time>
      </trkpt>
      <trkpt lat="47.00769" lon="5.24149">
        <ele>197</ele>
        <time>2022-03-21T11:00:17Z</time>
      </trkpt>
      <trkpt lat="47.00766" lon="5.24142">
        <ele>196.8</ele>
        <time>2022-03-21T11:00:18Z</time>
      </trkpt>
      <trkpt lat="47.00763" lon="5.24135">
        <ele>196.8</ele>
        <time>2022-03-21T11:00:19Z</time>
      </trkpt>
      <trkpt lat="47.0076" lon="5.24128">
        <ele>196.4</ele>
        <time>2022-03-21T11:00:20Z</time>
      </trkpt>
      <trkpt lat="47.00756" lon="5.24121">
        <ele>196.4</ele>
        <time>2022-03-21T11:00:21Z</time>
      </trkpt>
      <trkpt lat="47.00753" lon="5.24114">
        <ele>196.2</ele>
        <time>2022-03-21T11:00:22Z</time>
      </trkpt>
      <trkpt lat="47.00749" lon="5.24107">
        <ele>196.2</ele>
        <time>2022-03-21T11:00:23Z</time>
      </trkpt>
      <trkpt lat="47.00745" lon="5.24099">
        <ele>196</ele>
        <time>2022-03-21T11:00:24Z</time>
      </trkpt>
      <trkpt lat="47.00741" lon="5.24092">
        <ele>196</ele>
        <time>2022-03-21T11:00:25Z</time>
      </trkpt>
      <trkpt lat="47.00736" lon="5.24084">
        <ele>196</ele>
        <time>2022-03-21T11:00:26Z</time>
      </trkpt>
      <trkpt lat="47.00731" lon="5.24077">
        <ele>195.8</ele>
        <time>2022-03-21T11:00:27Z</time>
      </trkpt>
      <trkpt lat="47.00726" lon="5.2407">
        <ele>195.8</ele>
        <time>2022-03-21T11:00:28Z</time>
      </trkpt>
      <trkpt lat="47.00722" lon="5.24063">
        <ele>195.8</ele>
        <time>2022-03-21T11:00:29Z</time>
      </trkpt>
      <trkpt lat="47.00717" lon="5.24055">
        <ele>195.8</ele>
        <time>2022-03-21T11:00:30Z</time>
      </trkpt>
      <trkpt lat="47.00712" lon="5.24048">
        <ele>195.8</ele>
        <time>2022-03-21T11:00:31Z</time>
      </trkpt>
      <trkpt lat="47.00708" lon="5.2404">
        <ele>195.8</ele>
        <time>2022-03-21T11:00:32Z</time>
      </trkpt>
      <trkpt lat="47.00703" lon="5.24032">
        <ele>195.8</ele>
        <time>2022-03-21T11:00:33Z</time>
      </trkpt>
      <trkpt lat="47.00699" lon="5.24024">
        <ele>195.8</ele>
        <time>2022-03-21T11:00:34Z</time>
      </trkpt>
      <trkpt lat="47.00695" lon="5.24016">
        <ele>195.4</ele>
        <time>2022-03-21T11:00:35Z</time>
      </trkpt>
      <trkpt lat="47.0069" lon="5.24008">
        <ele>195.4</ele>
        <time>2022-03-21T11:00:36Z</time>
      </trkpt>
      <trkpt lat="47.00685" lon="5.24001">
        <ele>195.2</ele>
        <time>2022-03-21T11:00:37Z</time>
      </trkpt>
      <trkpt lat="47.00681" lon="5.23993">
        <ele>195.2</ele>
        <time>2022-03-21T11:00:38Z</time>
      </trkpt>
      <trkpt lat="47.00677" lon="5.23985">
        <ele>195</ele>
        <time>2022-03-21T11:00:39Z</time>
      </trkpt>
      <trkpt lat="47.00672" lon="5.23977">
        <ele>195</ele>
        <time>2022-03-21T11:00:40Z</time>
      </trkpt>
      <trkpt lat="47.00668" lon="5.23969">
        <ele>194.8</ele>
        <time>2022-03-21T11:00:41Z</time>
      </trkpt>
      <trkpt lat="47.00664" lon="5.23961">
        <ele>194.8</ele>
        <time>2022-03-21T11:00:42Z</time>
      </trkpt>
      <trkpt lat="47.00659" lon="5.23954">
        <ele>194.6</ele>
        <time>2022-03-21T11:00:43Z</time>
      </trkpt>
      <trkpt lat="47.00655" lon="5.23946">
        <ele>194.6</ele>
        <time>2022-03-21T11:00:44Z</time>
      </trkpt>
      <trkpt lat="47.0065" lon="5.23938">
        <ele>194.6</ele>
        <time>2022-03-21T11:00:45Z</time>
      </trkpt>
      <trkpt lat="47.00646" lon="5.23931">
        <ele>194.2</ele>
        <time>2022-03-21T11:00:47Z</time>
      </trkpt>
      <trkpt lat="47.00641" lon="5.23923">
        <ele>194.2</ele>
        <time>2022-03-21T11:00:48Z</time>
      </trkpt>
      <trkpt lat="47.00637" lon="5.23916">
        <ele>194.2</ele>
        <time>2022-03-21T11:00:49Z</time>
      </trkpt>
      <trkpt lat="47.00632" lon="5.23908">
        <ele>194.2</ele>
        <time>2022-03-21T11:00:50Z</time>
      </trkpt>
      <trkpt lat="47.00628" lon="5.23901">
        <ele>194.2</ele>
        <time>2022-03-21T11:00:51Z</time>
      </trkpt>
      <trkpt lat="47.00624" lon="5.23893">
        <ele>194.2</ele>
        <time>2022-03-21T11:00:52Z</time>
      </trkpt>
      <trkpt lat="47.00619" lon="5.23886">
        <ele>194.2</ele>
        <time>2022-03-21T11:00:53Z</time>
      </trkpt>
      <trkpt lat="47.00615" lon="5.23878">
        <ele>194.2</ele>
        <time>2022-03-21T11:00:54Z</time>
      </trkpt>
      <trkpt lat="47.00611" lon="5.23871">
        <ele>194.2</ele>
        <time>2022-03-21T11:00:55Z</time>
      </trkpt>
      <trkpt lat="47.00607" lon="5.23864">
        <ele>194.2</ele>
        <time>2022-03-21T11:00:56Z</time>
      </trkpt>
      <trkpt lat="47.00603" lon="5.23856">
        <ele>194.2</ele>
        <time>2022-03-21T11:00:57Z</time>
      </trkpt>
      <trkpt lat="47.006" lon="5.23848">
        <ele>194.2</ele>
        <time>2022-03-21T11:00:58Z</time>
      </trkpt>
      <trkpt lat="47.00597" lon="5.2384">
        <ele>194.2</ele>
        <time>2022-03-21T11:00:59Z</time>
      </trkpt>
      <trkpt lat="47.00595" lon="5.23832">
        <ele>194.2</ele>
        <time>2022-03-21T11:01:00Z</time>
      </trkpt>
      <trkpt lat="47.00593" lon="5.23823">
        <ele>194.6</ele>
        <time>2022-03-21T11:01:01Z</time>
      </trkpt>
      <trkpt lat="47.00591" lon="5.23815">
        <ele>194.6</ele>
        <time>2022-03-21T11:01:02Z</time>
      </trkpt>
      <trkpt lat="47.0059" lon="5.23807">
        <ele>194.6</ele>
        <time>2022-03-21T11:01:03Z</time>
      </trkpt>
      <trkpt lat="47.00589" lon="5.23798">
        <ele>194.6</ele>
        <time>2022-03-21T11:01:04Z</time>
      </trkpt>
      <trkpt lat="47.00587" lon="5.2379">
        <ele>194.8</ele>
        <time>2022-03-21T11:01:05Z</time>
      </trkpt>
      <trkpt lat="47.00587" lon="5.23782">
        <ele>194.8</ele>
        <time>2022-03-21T11:01:06Z</time>
      </trkpt>
      <trkpt lat="47.00587" lon="5.23774">
        <ele>194.8</ele>
        <time>2022-03-21T11:01:07Z</time>
      </trkpt>
      <trkpt lat="47.00586" lon="5.23765">
        <ele>194.8</ele>
        <time>2022-03-21T11:01:08Z</time>
      </trkpt>
      <trkpt lat="47.00586" lon="5.23757">
        <ele>194.8</ele>
        <time>2022-03-21T11:01:09Z</time>
      </trkpt>
      <trkpt lat="47.00585" lon="5.23748">
        <ele>195</ele>
        <time>2022-03-21T11:01:10Z</time>
      </trkpt>
      <trkpt lat="47.00585" lon="5.23739">
        <ele>195</ele>
        <time>2022-03-21T11:01:11Z</time>
      </trkpt>
      <trkpt lat="47.00584" lon="5.23731">
        <ele>195.4</ele>
        <time>2022-03-21T11:01:12Z</time>
      </trkpt>
      <trkpt lat="47.00584" lon="5.23723">
        <ele>195.4</ele>
        <time>2022-03-21T11:01:13Z</time>
      </trkpt>
      <trkpt lat="47.00583" lon="5.23715">
        <ele>195.8</ele>
        <time>2022-03-21T11:01:14Z</time>
      </trkpt>
      <trkpt lat="47.00582" lon="5.23707">
        <ele>195.8</ele>
        <time>2022-03-21T11:01:15Z</time>
      </trkpt>
      <trkpt lat="47.00582" lon="5.23699">
        <ele>196</ele>
        <time>2022-03-21T11:01:16Z</time>
      </trkpt>
      <trkpt lat="47.00581" lon="5.23691">
        <ele>196</ele>
        <time>2022-03-21T11:01:17Z</time>
      </trkpt>
      <trkpt lat="47.0058" lon="5.23683">
        <ele>196.2</ele>
        <time>2022-03-21T11:01:18Z</time>
      </trkpt>
      <trkpt lat="47.00579" lon="5.23675">
        <ele>196.2</ele>
        <time>2022-03-21T11:01:19Z</time>
      </trkpt>
      <trkpt lat="47.00577" lon="5.23667">
        <ele>196.2</ele>
        <time>2022-03-21T11:01:20Z</time>
      </trkpt>
      <trkpt lat="47.00576" lon="5.23659">
        <ele>196.2</ele>
        <time>2022-03-21T11:01:21Z</time>
      </trkpt>
      <trkpt lat="47.00575" lon="5.2365">
        <ele>196</ele>
        <time>2022-03-21T11:01:22Z</time>
      </trkpt>
      <trkpt lat="47.00573" lon="5.23642">
        <ele>196</ele>
        <time>2022-03-21T11:01:23Z</time>
      </trkpt>
      <trkpt lat="47.0057" lon="5.23635">
        <ele>196</ele>
        <time>2022-03-21T11:01:24Z</time>
      </trkpt>
      <trkpt lat="47.00566" lon="5.2363">
        <ele>196</ele>
        <time>2022-03-21T11:01:25Z</time>
      </trkpt>
      <trkpt lat="47.00562" lon="5.23628">
        <ele>196</ele>
        <time>2022-03-21T11:01:26Z</time>
      </trkpt>
      <trkpt lat="47.00557" lon="5.23627">
        <ele>196</ele>
        <time>2022-03-21T11:01:27Z</time>
      </trkpt>
      <trkpt lat="47.00552" lon="5.23627">
        <ele>195.8</ele>
        <time>2022-03-21T11:01:28Z</time>
      </trkpt>
      <trkpt lat="47.00547" lon="5.23627">
        <ele>195.8</ele>
        <time>2022-03-21T11:01:29Z</time>
      </trkpt>
      <trkpt lat="47.00542" lon="5.23627">
        <ele>195.8</ele>
        <time>2022-03-21T11:01:30Z</time>
      </trkpt>
      <trkpt lat="47.00537" lon="5.23628">
        <ele>195.8</ele>
        <time>2022-03-21T11:01:31Z</time>
      </trkpt>
      <trkpt lat="47.00531" lon="5.23628">
        <ele>195.8</ele>
        <time>2022-03-21T11:01:32Z</time>
      </trkpt>
      <trkpt lat="47.00526" lon="5.23627">
        <ele>195.8</ele>
        <time>2022-03-21T11:01:33Z</time>
      </trkpt>
      <trkpt lat="47.0052" lon="5.23627">
        <ele>196</ele>
        <time>2022-03-21T11:01:34Z</time>
      </trkpt>
      <trkpt lat="47.00514" lon="5.23626">
        <ele>196</ele>
        <time>2022-03-21T11:01:35Z</time>
      </trkpt>
      <trkpt lat="47.00508" lon="5.23625">
        <ele>196</ele>
        <time>2022-03-21T11:01:36Z</time>
      </trkpt>
      <trkpt lat="47.00503" lon="5.23625">
        <ele>196</ele>
        <time>2022-03-21T11:01:37Z</time>
      </trkpt>
      <trkpt lat="47.00497" lon="5.23624">
        <ele>196</ele>
        <time>2022-03-21T11:01:38Z</time>
      </trkpt>
      <trkpt lat="47.00491" lon="5.23623">
        <ele>196</ele>
        <time>2022-03-21T11:01:39Z</time>
      </trkpt>
      <trkpt lat="47.00485" lon="5.23622">
        <ele>196</ele>
        <time>2022-03-21T11:01:40Z</time>
      </trkpt>
      <trkpt lat="47.00479" lon="5.23621">
        <ele>196</ele>
        <time>2022-03-21T11:01:41Z</time>
      </trkpt>
      <trkpt lat="47.00473" lon="5.2362">
        <ele>196</ele>
        <time>2022-03-21T11:01:42Z</time>
      </trkpt>
      <trkpt lat="47.00467" lon="5.2362">
        <ele>196</ele>
        <time>2022-03-21T11:01:43Z</time>
      </trkpt>
      <trkpt lat="47.00461" lon="5.23619">
        <ele>196</ele>
        <time>2022-03-21T11:01:44Z</time>
      </trkpt>
      <trkpt lat="47.00456" lon="5.23618">
        <ele>196</ele>
        <time>2022-03-21T11:01:45Z</time>
      </trkpt>
      <trkpt lat="47.0045" lon="5.23617">
        <ele>196</ele>
        <time>2022-03-21T11:01:46Z</time>
      </trkpt>
      <trkpt lat="47.00444" lon="5.23616">
        <ele>196</ele>
        <time>2022-03-21T11:01:47Z</time>
      </trkpt>
      <trkpt lat="47.00438" lon="5.23615">
        <ele>196</ele>
        <time>2022-03-21T11:01:48Z</time>
      </trkpt>
      <trkpt lat="47.00426" lon="5.23615">
        <ele>196</ele>
        <time>2022-03-21T11:01:49Z</time>
      </trkpt>
      <trkpt lat="47.0042" lon="5.23615">
        <ele>196</ele>
        <time>2022-03-21T11:01:50Z</time>
      </trkpt>
      <trkpt lat="47.00414" lon="5.23615">
        <ele>196</ele>
        <time>2022-03-21T11:01:51Z</time>
      </trkpt>
      <trkpt lat="47.00408" lon="5.23616">
        <ele>196</ele>
        <time>2022-03-21T11:01:52Z</time>
      </trkpt>
      <trkpt lat="47.00402" lon="5.23616">
        <ele>196</ele>
        <time>2022-03-21T11:01:53Z</time>
      </trkpt>
      <trkpt lat="47.00396" lon="5.23618">
        <ele>196</ele>
        <time>2022-03-21T11:01:54Z</time>
      </trkpt>
      <trkpt lat="47.00389" lon="5.2362">
        <ele>196</ele>
        <time>2022-03-21T11:01:55Z</time>
      </trkpt>
      <trkpt lat="47.00383" lon="5.23622">
        <ele>196</ele>
        <time>2022-03-21T11:01:56Z</time>
      </trkpt>
      <trkpt lat="47.00377" lon="5.23624">
        <ele>196</ele>
        <time>2022-03-21T11:01:57Z</time>
      </trkpt>
      <trkpt lat="47.00371" lon="5.23626">
        <ele>196</ele>
        <time>2022-03-21T11:01:58Z</time>
      </trkpt>
      <trkpt lat="47.00364" lon="5.23629">
        <ele>196</ele>
        <time>2022-03-21T11:01:59Z</time>
      </trkpt>
      <trkpt lat="47.00358" lon="5.23633">
        <ele>195.8</ele>
        <time>2022-03-21T11:02:00Z</time>
      </trkpt>
      <trkpt lat="47.00352" lon="5.23637">
        <ele>195.8</ele>
        <time>2022-03-21T11:02:01Z</time>
      </trkpt>
      <trkpt lat="47.00346" lon="5.23642">
        <ele>195.4</ele>
        <time>2022-03-21T11:02:02Z</time>
      </trkpt>
      <trkpt lat="47.00339" lon="5.23646">
        <ele>195.4</ele>
        <time>2022-03-21T11:02:03Z</time>
      </trkpt>
      <trkpt lat="47.00333" lon="5.23651">
        <ele>195.2</ele>
        <time>2022-03-21T11:02:04Z</time>
      </trkpt>
      <trkpt lat="47.00327" lon="5.23657">
        <ele>195.2</ele>
        <time>2022-03-21T11:02:05Z</time>
      </trkpt>
      <trkpt lat="47.00321" lon="5.23663">
        <ele>194.8</ele>
        <time>2022-03-21T11:02:06Z</time>
      </trkpt>
      <trkpt lat="47.00315" lon="5.23669">
        <ele>194.8</ele>
        <time>2022-03-21T11:02:07Z</time>
      </trkpt>
      <trkpt lat="47.00309" lon="5.23676">
        <ele>194.6</ele>
        <time>2022-03-21T11:02:08Z</time>
      </trkpt>
      <trkpt lat="47.00302" lon="5.23682">
        <ele>194.6</ele>
        <time>2022-03-21T11:02:09Z</time>
      </trkpt>
      <trkpt lat="47.00296" lon="5.23689">
        <ele>194.2</ele>
        <time>2022-03-21T11:02:10Z</time>
      </trkpt>
      <trkpt lat="47.00289" lon="5.23696">
        <ele>194</ele>
        <time>2022-03-21T11:02:11Z</time>
      </trkpt>
      <trkpt lat="47.00282" lon="5.23703">
        <ele>193.8</ele>
        <time>2022-03-21T11:02:12Z</time>
      </trkpt>
      <trkpt lat="47.00275" lon="5.23709">
        <ele>193.4</ele>
        <time>2022-03-21T11:02:13Z</time>
      </trkpt>
      <trkpt lat="47.00267" lon="5.23715">
        <ele>193.4</ele>
        <time>2022-03-21T11:02:14Z</time>
      </trkpt>
      <trkpt lat="47.0026" lon="5.2372">
        <ele>193.2</ele>
        <time>2022-03-21T11:02:15Z</time>
      </trkpt>
      <trkpt lat="47.00252" lon="5.23724">
        <ele>193.2</ele>
        <time>2022-03-21T11:02:16Z</time>
      </trkpt>
      <trkpt lat="47.00244" lon="5.23728">
        <ele>193</ele>
        <time>2022-03-21T11:02:17Z</time>
      </trkpt>
      <trkpt lat="47.00236" lon="5.23731">
        <ele>193</ele>
        <time>2022-03-21T11:02:18Z</time>
      </trkpt>
      <trkpt lat="47.00228" lon="5.23733">
        <ele>192.8</ele>
        <time>2022-03-21T11:02:19Z</time>
      </trkpt>
      <trkpt lat="47.00221" lon="5.23735">
        <ele>192.8</ele>
        <time>2022-03-21T11:02:20Z</time>
      </trkpt>
      <trkpt lat="47.00213" lon="5.23737">
        <ele>192.8</ele>
        <time>2022-03-21T11:02:21Z</time>
      </trkpt>
      <trkpt lat="47.00205" lon="5.23739">
        <ele>192.6</ele>
        <time>2022-03-21T11:02:22Z</time>
      </trkpt>
      <trkpt lat="47.00198" lon="5.23741">
        <ele>192.6</ele>
        <time>2022-03-21T11:02:23Z</time>
      </trkpt>
      <trkpt lat="47.0019" lon="5.23743">
        <ele>192.6</ele>
        <time>2022-03-21T11:02:24Z</time>
      </trkpt>
      <trkpt lat="47.00183" lon="5.23744">
        <ele>192.6</ele>
        <time>2022-03-21T11:02:25Z</time>
      </trkpt>
      <trkpt lat="47.00175" lon="5.23746">
        <ele>192.6</ele>
        <time>2022-03-21T11:02:26Z</time>
      </trkpt>
      <trkpt lat="47.00168" lon="5.23748">
        <ele>192.6</ele>
        <time>2022-03-21T11:02:27Z</time>
      </trkpt>
      <trkpt lat="47.00161" lon="5.23749">
        <ele>192.6</ele>
        <time>2022-03-21T11:02:28Z</time>
      </trkpt>
      <trkpt lat="47.00154" lon="5.23751">
        <ele>192.6</ele>
        <time>2022-03-21T11:02:29Z</time>
      </trkpt>
      <trkpt lat="47.00148" lon="5.23753">
        <ele>192.6</ele>
        <time>2022-03-21T11:02:30Z</time>
      </trkpt>
      <trkpt lat="47.00141" lon="5.23755">
        <ele>192.6</ele>
        <time>2022-03-21T11:02:31Z</time>
      </trkpt>
      <trkpt lat="47.00134" lon="5.23756">
        <ele>192.6</ele>
        <time>2022-03-21T11:02:32Z</time>
      </trkpt>
      <trkpt lat="47.00128" lon="5.23757">
        <ele>192.6</ele>
        <time>2022-03-21T11:02:33Z</time>
      </trkpt>
      <trkpt lat="47.00121" lon="5.23759">
        <ele>192.6</ele>
        <time>2022-03-21T11:02:34Z</time>
      </trkpt>
      <trkpt lat="47.00115" lon="5.2376">
        <ele>192.6</ele>
        <time>2022-03-21T11:02:35Z</time>
      </trkpt>
      <trkpt lat="47.00108" lon="5.23762">
        <ele>192.6</ele>
        <time>2022-03-21T11:02:36Z</time>
      </trkpt>
      <trkpt lat="47.00102" lon="5.23763">
        <ele>192.6</ele>
        <time>2022-03-21T11:02:37Z</time>
      </trkpt>
      <trkpt lat="47.00096" lon="5.23765">
        <ele>192.6</ele>
        <time>2022-03-21T11:02:38Z</time>
      </trkpt>
      <trkpt lat="47.00089" lon="5.23766">
        <ele>192.6</ele>
        <time>2022-03-21T11:02:39Z</time>
      </trkpt>
      <trkpt lat="47.00083" lon="5.23768">
        <ele>192.4</ele>
        <time>2022-03-21T11:02:40Z</time>
      </trkpt>
      <trkpt lat="47.00076" lon="5.23769">
        <ele>192.4</ele>
        <time>2022-03-21T11:02:41Z</time>
      </trkpt>
      <trkpt lat="47.0007" lon="5.23771">
        <ele>192.4</ele>
        <time>2022-03-21T11:02:42Z</time>
      </trkpt>
      <trkpt lat="47.00064" lon="5.23773">
        <ele>192.4</ele>
        <time>2022-03-21T11:02:43Z</time>
      </trkpt>
      <trkpt lat="47.00057" lon="5.23774">
        <ele>192.4</ele>
        <time>2022-03-21T11:02:44Z</time>
      </trkpt>
      <trkpt lat="47.00051" lon="5.23776">
        <ele>192.4</ele>
        <time>2022-03-21T11:02:45Z</time>
      </trkpt>
      <trkpt lat="47.00045" lon="5.23777">
        <ele>192.4</ele>
        <time>2022-03-21T11:02:46Z</time>
      </trkpt>
      <trkpt lat="47.00038" lon="5.23779">
        <ele>192.4</ele>
        <time>2022-03-21T11:02:47Z</time>
      </trkpt>
      <trkpt lat="47.00032" lon="5.2378">
        <ele>192.4</ele>
        <time>2022-03-21T11:02:48Z</time>
      </trkpt>
      <trkpt lat="47.00026" lon="5.23782">
        <ele>192.4</ele>
        <time>2022-03-21T11:02:49Z</time>
      </trkpt>
      <trkpt lat="47.00019" lon="5.23784">
        <ele>192.4</ele>
        <time>2022-03-21T11:02:50Z</time>
      </trkpt>
      <trkpt lat="47.00013" lon="5.23785">
        <ele>192.4</ele>
        <time>2022-03-21T11:02:51Z</time>
      </trkpt>
      <trkpt lat="47.00007" lon="5.23787">
        <ele>192.4</ele>
        <time>2022-03-21T11:02:52Z</time>
      </trkpt>
      <trkpt lat="47.00001" lon="5.23789">
        <ele>192.4</ele>
        <time>2022-03-21T11:02:53Z</time>
      </trkpt>
      <trkpt lat="46.99994" lon="5.23792">
        <ele>192.4</ele>
        <time>2022-03-21T11:02:54Z</time>
      </trkpt>
      <trkpt lat="46.99988" lon="5.23794">
        <ele>192.4</ele>
        <time>2022-03-21T11:02:55Z</time>
      </trkpt>
      <trkpt lat="46.99982" lon="5.23796">
        <ele>192.4</ele>
        <time>2022-03-21T11:02:56Z</time>
      </trkpt>
      <trkpt lat="46.99976" lon="5.23799">
        <ele>192.4</ele>
        <time>2022-03-21T11:02:57Z</time>
      </trkpt>
      <trkpt lat="46.9997" lon="5.23801">
        <ele>192.4</ele>
        <time>2022-03-21T11:02:58Z</time>
      </trkpt>
      <trkpt lat="46.99964" lon="5.23803">
        <ele>192.4</ele>
        <time>2022-03-21T11:02:59Z</time>
      </trkpt>
      <trkpt lat="46.99957" lon="5.23805">
        <ele>192.4</ele>
        <time>2022-03-21T11:03:00Z</time>
      </trkpt>
      <trkpt lat="46.99951" lon="5.23806">
        <ele>192.4</ele>
        <time>2022-03-21T11:03:01Z</time>
      </trkpt>
      <trkpt lat="46.99945" lon="5.23808">
        <ele>192.4</ele>
        <time>2022-03-21T11:03:02Z</time>
      </trkpt>
      <trkpt lat="46.99939" lon="5.23809">
        <ele>192.4</ele>
        <time>2022-03-21T11:03:03Z</time>
      </trkpt>
      <trkpt lat="46.99933" lon="5.23811">
        <ele>192.4</ele>
        <time>2022-03-21T11:03:04Z</time>
      </trkpt>
      <trkpt lat="46.99927" lon="5.23814">
        <ele>192.4</ele>
        <time>2022-03-21T11:03:05Z</time>
      </trkpt>
      <trkpt lat="46.99921" lon="5.23815">
        <ele>192.4</ele>
        <time>2022-03-21T11:03:06Z</time>
      </trkpt>
      <trkpt lat="46.99915" lon="5.23817">
        <ele>192.4</ele>
        <time>2022-03-21T11:03:07Z</time>
      </trkpt>
      <trkpt lat="46.99908" lon="5.2382">
        <ele>192.4</ele>
        <time>2022-03-21T11:03:08Z</time>
      </trkpt>
      <trkpt lat="46.99902" lon="5.23823">
        <ele>192.4</ele>
        <time>2022-03-21T11:03:09Z</time>
      </trkpt>
      <trkpt lat="46.99896" lon="5.23825">
        <ele>192.4</ele>
        <time>2022-03-21T11:03:10Z</time>
      </trkpt>
      <trkpt lat="46.99889" lon="5.23828">
        <ele>192.6</ele>
        <time>2022-03-21T11:03:11Z</time>
      </trkpt>
      <trkpt lat="46.99883" lon="5.23831">
        <ele>192.6</ele>
        <time>2022-03-21T11:03:12Z</time>
      </trkpt>
      <trkpt lat="46.99876" lon="5.23833">
        <ele>192.8</ele>
        <time>2022-03-21T11:03:13Z</time>
      </trkpt>
      <trkpt lat="46.99869" lon="5.23836">
        <ele>192.8</ele>
        <time>2022-03-21T11:03:14Z</time>
      </trkpt>
      <trkpt lat="46.99863" lon="5.23839">
        <ele>192.8</ele>
        <time>2022-03-21T11:03:15Z</time>
      </trkpt>
      <trkpt lat="46.99856" lon="5.23842">
        <ele>192.8</ele>
        <time>2022-03-21T11:03:16Z</time>
      </trkpt>
      <trkpt lat="46.99849" lon="5.23844">
        <ele>192.8</ele>
        <time>2022-03-21T11:03:17Z</time>
      </trkpt>
      <trkpt lat="46.99843" lon="5.23847">
        <ele>192.8</ele>
        <time>2022-03-21T11:03:18Z</time>
      </trkpt>
      <trkpt lat="46.99836" lon="5.23849">
        <ele>192.8</ele>
        <time>2022-03-21T11:03:19Z</time>
      </trkpt>
      <trkpt lat="46.99829" lon="5.23851">
        <ele>192.8</ele>
        <time>2022-03-21T11:03:20Z</time>
      </trkpt>
      <trkpt lat="46.99823" lon="5.23853">
        <ele>193</ele>
        <time>2022-03-21T11:03:21Z</time>
      </trkpt>
      <trkpt lat="46.99816" lon="5.23855">
        <ele>193</ele>
        <time>2022-03-21T11:03:22Z</time>
      </trkpt>
      <trkpt lat="46.99809" lon="5.23858">
        <ele>193</ele>
        <time>2022-03-21T11:03:23Z</time>
      </trkpt>
      <trkpt lat="46.99803" lon="5.2386">
        <ele>193</ele>
        <time>2022-03-21T11:03:24Z</time>
      </trkpt>
      <trkpt lat="46.99796" lon="5.23863">
        <ele>193.2</ele>
        <time>2022-03-21T11:03:25Z</time>
      </trkpt>
      <trkpt lat="46.9979" lon="5.23865">
        <ele>193.2</ele>
        <time>2022-03-21T11:03:26Z</time>
      </trkpt>
      <trkpt lat="46.99783" lon="5.23867">
        <ele>193.4</ele>
        <time>2022-03-21T11:03:27Z</time>
      </trkpt>
      <trkpt lat="46.99776" lon="5.23869">
        <ele>193.4</ele>
        <time>2022-03-21T11:03:28Z</time>
      </trkpt>
      <trkpt lat="46.9977" lon="5.23871">
        <ele>193.6</ele>
        <time>2022-03-21T11:03:29Z</time>
      </trkpt>
      <trkpt lat="46.99763" lon="5.23873">
        <ele>193.6</ele>
        <time>2022-03-21T11:03:30Z</time>
      </trkpt>
      <trkpt lat="46.99757" lon="5.23876">
        <ele>193.6</ele>
        <time>2022-03-21T11:03:31Z</time>
      </trkpt>
      <trkpt lat="46.9975" lon="5.23878">
        <ele>193.8</ele>
        <time>2022-03-21T11:03:32Z</time>
      </trkpt>
      <trkpt lat="46.99744" lon="5.2388">
        <ele>193.8</ele>
        <time>2022-03-21T11:03:33Z</time>
      </trkpt>
      <trkpt lat="46.99737" lon="5.23882">
        <ele>193.8</ele>
        <time>2022-03-21T11:03:34Z</time>
      </trkpt>
      <trkpt lat="46.99731" lon="5.23884">
        <ele>194.2</ele>
        <time>2022-03-21T11:03:35Z</time>
      </trkpt>
      <trkpt lat="46.99725" lon="5.23887">
        <ele>194.2</ele>
        <time>2022-03-21T11:03:36Z</time>
      </trkpt>
      <trkpt lat="46.99718" lon="5.23889">
        <ele>194.2</ele>
        <time>2022-03-21T11:03:37Z</time>
      </trkpt>
      <trkpt lat="46.99712" lon="5.23891">
        <ele>194.4</ele>
        <time>2022-03-21T11:03:38Z</time>
      </trkpt>
      <trkpt lat="46.99706" lon="5.23893">
        <ele>194.4</ele>
        <time>2022-03-21T11:03:39Z</time>
      </trkpt>
      <trkpt lat="46.99699" lon="5.23896">
        <ele>194.8</ele>
        <time>2022-03-21T11:03:40Z</time>
      </trkpt>
      <trkpt lat="46.99693" lon="5.23899">
        <ele>194.8</ele>
        <time>2022-03-21T11:03:41Z</time>
      </trkpt>
      <trkpt lat="46.99687" lon="5.23903">
        <ele>194.8</ele>
        <time>2022-03-21T11:03:42Z</time>
      </trkpt>
      <trkpt lat="46.99681" lon="5.23907">
        <ele>194.8</ele>
        <time>2022-03-21T11:03:43Z</time>
      </trkpt>
      <trkpt lat="46.99675" lon="5.23912">
        <ele>194.8</ele>
        <time>2022-03-21T11:03:44Z</time>
      </trkpt>
      <trkpt lat="46.99669" lon="5.23917">
        <ele>194.8</ele>
        <time>2022-03-21T11:03:45Z</time>
      </trkpt>
      <trkpt lat="46.99663" lon="5.23921">
        <ele>194.8</ele>
        <time>2022-03-21T11:03:46Z</time>
      </trkpt>
      <trkpt lat="46.99657" lon="5.23925">
        <ele>194.8</ele>
        <time>2022-03-21T11:03:47Z</time>
      </trkpt>
      <trkpt lat="46.99652" lon="5.23929">
        <ele>194.8</ele>
        <time>2022-03-21T11:03:48Z</time>
      </trkpt>
      <trkpt lat="46.99647" lon="5.23933">
        <ele>194.8</ele>
        <time>2022-03-21T11:03:49Z</time>
      </trkpt>
      <trkpt lat="46.99642" lon="5.23937">
        <ele>195</ele>
        <time>2022-03-21T11:03:50Z</time>
      </trkpt>
      <trkpt lat="46.99637" lon="5.2394">
        <ele>195</ele>
        <time>2022-03-21T11:03:51Z</time>
      </trkpt>
      <trkpt lat="46.99632" lon="5.23944">
        <ele>195.4</ele>
        <time>2022-03-21T11:03:52Z</time>
      </trkpt>
      <trkpt lat="46.99628" lon="5.23947">
        <ele>195.4</ele>
        <time>2022-03-21T11:03:53Z</time>
      </trkpt>
      <trkpt lat="46.99623" lon="5.2395">
        <ele>195.4</ele>
        <time>2022-03-21T11:03:54Z</time>
      </trkpt>
      <trkpt lat="46.99619" lon="5.23953">
        <ele>195.8</ele>
        <time>2022-03-21T11:03:55Z</time>
      </trkpt>
      <trkpt lat="46.99615" lon="5.23956">
        <ele>196</ele>
        <time>2022-03-21T11:03:56Z</time>
      </trkpt>
      <trkpt lat="46.99611" lon="5.2396">
        <ele>196.4</ele>
        <time>2022-03-21T11:03:57Z</time>
      </trkpt>
      <trkpt lat="46.99607" lon="5.23963">
        <ele>196.6</ele>
        <time>2022-03-21T11:03:58Z</time>
      </trkpt>
      <trkpt lat="46.99602" lon="5.23966">
        <ele>196.8</ele>
        <time>2022-03-21T11:03:59Z</time>
      </trkpt>
      <trkpt lat="46.99598" lon="5.23969">
        <ele>197.2</ele>
        <time>2022-03-21T11:04:00Z</time>
      </trkpt>
      <trkpt lat="46.99594" lon="5.23973">
        <ele>197.4</ele>
        <time>2022-03-21T11:04:01Z</time>
      </trkpt>
      <trkpt lat="46.9959" lon="5.23977">
        <ele>197.6</ele>
        <time>2022-03-21T11:04:02Z</time>
      </trkpt>
      <trkpt lat="46.99585" lon="5.2398">
        <ele>198</ele>
        <time>2022-03-21T11:04:03Z</time>
      </trkpt>
      <trkpt lat="46.99581" lon="5.23983">
        <ele>198</ele>
        <time>2022-03-21T11:04:04Z</time>
      </trkpt>
      <trkpt lat="46.99577" lon="5.23986">
        <ele>198.2</ele>
        <time>2022-03-21T11:04:05Z</time>
      </trkpt>
      <trkpt lat="46.99574" lon="5.2399">
        <ele>198.2</ele>
        <time>2022-03-21T11:04:06Z</time>
      </trkpt>
      <trkpt lat="46.9957" lon="5.23993">
        <ele>198.2</ele>
        <time>2022-03-21T11:04:07Z</time>
      </trkpt>
      <trkpt lat="46.99565" lon="5.23996">
        <ele>198.4</ele>
        <time>2022-03-21T11:04:08Z</time>
      </trkpt>
      <trkpt lat="46.99561" lon="5.24">
        <ele>198.4</ele>
        <time>2022-03-21T11:04:09Z</time>
      </trkpt>
      <trkpt lat="46.99557" lon="5.24003">
        <ele>198.8</ele>
        <time>2022-03-21T11:04:10Z</time>
      </trkpt>
      <trkpt lat="46.99553" lon="5.24007">
        <ele>198.8</ele>
        <time>2022-03-21T11:04:11Z</time>
      </trkpt>
      <trkpt lat="46.99549" lon="5.2401">
        <ele>198.8</ele>
        <time>2022-03-21T11:04:12Z</time>
      </trkpt>
      <trkpt lat="46.99544" lon="5.24014">
        <ele>199</ele>
        <time>2022-03-21T11:04:13Z</time>
      </trkpt>
      <trkpt lat="46.9954" lon="5.24017">
        <ele>199</ele>
        <time>2022-03-21T11:04:14Z</time>
      </trkpt>
      <trkpt lat="46.99536" lon="5.24021">
        <ele>199.2</ele>
        <time>2022-03-21T11:04:15Z</time>
      </trkpt>
      <trkpt lat="46.99531" lon="5.24025">
        <ele>199.2</ele>
        <time>2022-03-21T11:04:16Z</time>
      </trkpt>
      <trkpt lat="46.99527" lon="5.24029">
        <ele>199.6</ele>
        <time>2022-03-21T11:04:17Z</time>
      </trkpt>
      <trkpt lat="46.99523" lon="5.24034">
        <ele>199.6</ele>
        <time>2022-03-21T11:04:18Z</time>
      </trkpt>
      <trkpt lat="46.99518" lon="5.24038">
        <ele>199.6</ele>
        <time>2022-03-21T11:04:19Z</time>
      </trkpt>
      <trkpt lat="46.99514" lon="5.24043">
        <ele>199.6</ele>
        <time>2022-03-21T11:04:20Z</time>
      </trkpt>
      <trkpt lat="46.99509" lon="5.24047">
        <ele>199.8</ele>
        <time>2022-03-21T11:04:21Z</time>
      </trkpt>
      <trkpt lat="46.99504" lon="5.24052">
        <ele>199.8</ele>
        <time>2022-03-21T11:04:22Z</time>
      </trkpt>
      <trkpt lat="46.995" lon="5.24056">
        <ele>199.8</ele>
        <time>2022-03-21T11:04:23Z</time>
      </trkpt>
      <trkpt lat="46.99495" lon="5.24061">
        <ele>200</ele>
        <time>2022-03-21T11:04:24Z</time>
      </trkpt>
      <trkpt lat="46.99491" lon="5.24066">
        <ele>200</ele>
        <time>2022-03-21T11:04:25Z</time>
      </trkpt>
      <trkpt lat="46.99486" lon="5.24071">
        <ele>200</ele>
        <time>2022-03-21T11:04:26Z</time>
      </trkpt>
      <trkpt lat="46.99482" lon="5.24076">
        <ele>200.2</ele>
        <time>2022-03-21T11:04:27Z</time>
      </trkpt>
      <trkpt lat="46.99477" lon="5.24082">
        <ele>200.2</ele>
        <time>2022-03-21T11:04:28Z</time>
      </trkpt>
      <trkpt lat="46.99473" lon="5.24088">
        <ele>200.2</ele>
        <time>2022-03-21T11:04:29Z</time>
      </trkpt>
      <trkpt lat="46.99468" lon="5.24094">
        <ele>200.6</ele>
        <time>2022-03-21T11:04:30Z</time>
      </trkpt>
      <trkpt lat="46.99463" lon="5.241">
        <ele>200.6</ele>
        <time>2022-03-21T11:04:31Z</time>
      </trkpt>
      <trkpt lat="46.99459" lon="5.24107">
        <ele>200.6</ele>
        <time>2022-03-21T11:04:32Z</time>
      </trkpt>
      <trkpt lat="46.99454" lon="5.24114">
        <ele>200.6</ele>
        <time>2022-03-21T11:04:33Z</time>
      </trkpt>
      <trkpt lat="46.9945" lon="5.24122">
        <ele>200.6</ele>
        <time>2022-03-21T11:04:34Z</time>
      </trkpt>
      <trkpt lat="46.99446" lon="5.24129">
        <ele>200.8</ele>
        <time>2022-03-21T11:04:35Z</time>
      </trkpt>
      <trkpt lat="46.99442" lon="5.24137">
        <ele>200.8</ele>
        <time>2022-03-21T11:04:36Z</time>
      </trkpt>
      <trkpt lat="46.99439" lon="5.24145">
        <ele>200.8</ele>
        <time>2022-03-21T11:04:37Z</time>
      </trkpt>
      <trkpt lat="46.99435" lon="5.24153">
        <ele>200.8</ele>
        <time>2022-03-21T11:04:38Z</time>
      </trkpt>
      <trkpt lat="46.99431" lon="5.24161">
        <ele>200.8</ele>
        <time>2022-03-21T11:04:39Z</time>
      </trkpt>
      <trkpt lat="46.99427" lon="5.2417">
        <ele>200.8</ele>
        <time>2022-03-21T11:04:40Z</time>
      </trkpt>
      <trkpt lat="46.99424" lon="5.24179">
        <ele>200.8</ele>
        <time>2022-03-21T11:04:41Z</time>
      </trkpt>
      <trkpt lat="46.99421" lon="5.24188">
        <ele>200.8</ele>
        <time>2022-03-21T11:04:42Z</time>
      </trkpt>
      <trkpt lat="46.99417" lon="5.24197">
        <ele>200.8</ele>
        <time>2022-03-21T11:04:43Z</time>
      </trkpt>
      <trkpt lat="46.99415" lon="5.24206">
        <ele>200.8</ele>
        <time>2022-03-21T11:04:44Z</time>
      </trkpt>
      <trkpt lat="46.99412" lon="5.24216">
        <ele>200.8</ele>
        <time>2022-03-21T11:04:45Z</time>
      </trkpt>
      <trkpt lat="46.9941" lon="5.24226">
        <ele>200.4</ele>
        <time>2022-03-21T11:04:46Z</time>
      </trkpt>
      <trkpt lat="46.99407" lon="5.24235">
        <ele>199.8</ele>
        <time>2022-03-21T11:04:48Z</time>
      </trkpt>
      <trkpt lat="46.99405" lon="5.24245">
        <ele>199.4</ele>
        <time>2022-03-21T11:04:49Z</time>
      </trkpt>
      <trkpt lat="46.99402" lon="5.24255">
        <ele>199.4</ele>
        <time>2022-03-21T11:04:50Z</time>
      </trkpt>
      <trkpt lat="46.994" lon="5.24265">
        <ele>199</ele>
        <time>2022-03-21T11:04:51Z</time>
      </trkpt>
      <trkpt lat="46.99398" lon="5.24276">
        <ele>198.8</ele>
        <time>2022-03-21T11:04:52Z</time>
      </trkpt>
      <trkpt lat="46.99396" lon="5.24287">
        <ele>198.6</ele>
        <time>2022-03-21T11:04:53Z</time>
      </trkpt>
      <trkpt lat="46.99394" lon="5.24298">
        <ele>198.2</ele>
        <time>2022-03-21T11:04:54Z</time>
      </trkpt>
      <trkpt lat="46.99391" lon="5.24309">
        <ele>197.8</ele>
        <time>2022-03-21T11:04:55Z</time>
      </trkpt>
      <trkpt lat="46.99389" lon="5.2432">
        <ele>197.2</ele>
        <time>2022-03-21T11:04:56Z</time>
      </trkpt>
      <trkpt lat="46.99386" lon="5.24331">
        <ele>196.8</ele>
        <time>2022-03-21T11:04:57Z</time>
      </trkpt>
      <trkpt lat="46.99373" lon="5.24394">
        <ele>199.6</ele>
        <time>2022-03-21T11:35:38Z</time>
      </trkpt>
      <trkpt lat="46.99373" lon="5.24394">
        <ele>199.6</ele>
        <time>2022-03-21T11:35:44Z</time>
      </trkpt>
      <trkpt lat="46.99373" lon="5.24396">
        <ele>187.4</ele>
        <time>2022-03-21T11:35:45Z</time>
      </trkpt>
      <trkpt lat="46.99373" lon="5.24398">
        <ele>187.4</ele>
        <time>2022-03-21T11:35:46Z</time>
      </trkpt>
      <trkpt lat="46.99373" lon="5.24401">
        <ele>187.4</ele>
        <time>2022-03-21T11:35:47Z</time>
      </trkpt>
      <trkpt lat="46.99372" lon="5.24404">
        <ele>187.4</ele>
        <time>2022-03-21T11:35:48Z</time>
      </trkpt>
      <trkpt lat="46.99371" lon="5.24407">
        <ele>187.6</ele>
        <time>2022-03-21T11:35:49Z</time>
      </trkpt>
      <trkpt lat="46.9937" lon="5.2441">
        <ele>187.6</ele>
        <time>2022-03-21T11:35:50Z</time>
      </trkpt>
      <trkpt lat="46.99369" lon="5.24414">
        <ele>187.6</ele>
        <time>2022-03-21T11:35:51Z</time>
      </trkpt>
      <trkpt lat="46.99368" lon="5.24418">
        <ele>187.6</ele>
        <time>2022-03-21T11:35:52Z</time>
      </trkpt>
      <trkpt lat="46.99367" lon="5.24423">
        <ele>187.6</ele>
        <time>2022-03-21T11:35:53Z</time>
      </trkpt>
      <trkpt lat="46.99366" lon="5.24428">
        <ele>187.6</ele>
        <time>2022-03-21T11:35:54Z</time>
      </trkpt>
      <trkpt lat="46.99364" lon="5.24434">
        <ele>187.6</ele>
        <time>2022-03-21T11:35:55Z</time>
      </trkpt>
      <trkpt lat="46.99363" lon="5.2444">
        <ele>187.6</ele>
        <time>2022-03-21T11:35:56Z</time>
      </trkpt>
      <trkpt lat="46.99362" lon="5.24446">
        <ele>187.6</ele>
        <time>2022-03-21T11:35:57Z</time>
      </trkpt>
      <trkpt lat="46.99361" lon="5.24452">
        <ele>187.6</ele>
        <time>2022-03-21T11:35:58Z</time>
      </trkpt>
      <trkpt lat="46.99359" lon="5.24458">
        <ele>187.8</ele>
        <time>2022-03-21T11:35:59Z</time>
      </trkpt>
      <trkpt lat="46.99358" lon="5.24465">
        <ele>187.8</ele>
        <time>2022-03-21T11:36:00Z</time>
      </trkpt>
      <trkpt lat="46.99357" lon="5.24471">
        <ele>187.8</ele>
        <time>2022-03-21T11:36:01Z</time>
      </trkpt>
      <trkpt lat="46.99355" lon="5.24477">
        <ele>187.8</ele>
        <time>2022-03-21T11:36:02Z</time>
      </trkpt>
      <trkpt lat="46.99354" lon="5.24484">
        <ele>187.8</ele>
        <time>2022-03-21T11:36:03Z</time>
      </trkpt>
      <trkpt lat="46.99353" lon="5.24491">
        <ele>187.8</ele>
        <time>2022-03-21T11:36:04Z</time>
      </trkpt>
      <trkpt lat="46.99352" lon="5.24497">
        <ele>187.8</ele>
        <time>2022-03-21T11:36:05Z</time>
      </trkpt>
      <trkpt lat="46.9935" lon="5.24504">
        <ele>187.8</ele>
        <time>2022-03-21T11:36:06Z</time>
      </trkpt>
      <trkpt lat="46.99349" lon="5.24512">
        <ele>187.8</ele>
        <time>2022-03-21T11:36:07Z</time>
      </trkpt>
      <trkpt lat="46.99347" lon="5.24519">
        <ele>187.8</ele>
        <time>2022-03-21T11:36:08Z</time>
      </trkpt>
      <trkpt lat="46.99346" lon="5.24526">
        <ele>187.8</ele>
        <time>2022-03-21T11:36:09Z</time>
      </trkpt>
      <trkpt lat="46.99344" lon="5.24534">
        <ele>187.8</ele>
        <time>2022-03-21T11:36:10Z</time>
      </trkpt>
      <trkpt lat="46.99342" lon="5.24541">
        <ele>187.8</ele>
        <time>2022-03-21T11:36:11Z</time>
      </trkpt>
      <trkpt lat="46.99341" lon="5.24548">
        <ele>188.2</ele>
        <time>2022-03-21T11:36:12Z</time>
      </trkpt>
      <trkpt lat="46.99339" lon="5.24555">
        <ele>188.2</ele>
        <time>2022-03-21T11:36:13Z</time>
      </trkpt>
      <trkpt lat="46.99338" lon="5.24562">
        <ele>188.4</ele>
        <time>2022-03-21T11:36:14Z</time>
      </trkpt>
      <trkpt lat="46.99336" lon="5.24569">
        <ele>188.4</ele>
        <time>2022-03-21T11:36:15Z</time>
      </trkpt>
      <trkpt lat="46.99335" lon="5.24575">
        <ele>189</ele>
        <time>2022-03-21T11:36:16Z</time>
      </trkpt>
      <trkpt lat="46.99334" lon="5.24581">
        <ele>189.2</ele>
        <time>2022-03-21T11:36:17Z</time>
      </trkpt>
      <trkpt lat="46.99332" lon="5.24587">
        <ele>189.4</ele>
        <time>2022-03-21T11:36:18Z</time>
      </trkpt>
      <trkpt lat="46.9933" lon="5.24593">
        <ele>189.6</ele>
        <time>2022-03-21T11:36:19Z</time>
      </trkpt>
      <trkpt lat="46.99329" lon="5.24599">
        <ele>189.6</ele>
        <time>2022-03-21T11:36:20Z</time>
      </trkpt>
      <trkpt lat="46.99328" lon="5.24606">
        <ele>190</ele>
        <time>2022-03-21T11:36:21Z</time>
      </trkpt>
      <trkpt lat="46.99327" lon="5.24612">
        <ele>190.2</ele>
        <time>2022-03-21T11:36:22Z</time>
      </trkpt>
      <trkpt lat="46.99326" lon="5.24618">
        <ele>190.6</ele>
        <time>2022-03-21T11:36:23Z</time>
      </trkpt>
      <trkpt lat="46.99324" lon="5.24624">
        <ele>190.8</ele>
        <time>2022-03-21T11:36:24Z</time>
      </trkpt>
      <trkpt lat="46.99323" lon="5.2463">
        <ele>190.8</ele>
        <time>2022-03-21T11:36:25Z</time>
      </trkpt>
      <trkpt lat="46.99322" lon="5.24637">
        <ele>191.2</ele>
        <time>2022-03-21T11:36:26Z</time>
      </trkpt>
      <trkpt lat="46.9932" lon="5.24643">
        <ele>191.2</ele>
        <time>2022-03-21T11:36:27Z</time>
      </trkpt>
      <trkpt lat="46.99319" lon="5.24649">
        <ele>191.4</ele>
        <time>2022-03-21T11:36:28Z</time>
      </trkpt>
      <trkpt lat="46.99318" lon="5.24655">
        <ele>191.4</ele>
        <time>2022-03-21T11:36:29Z</time>
      </trkpt>
      <trkpt lat="46.99316" lon="5.24661">
        <ele>191.4</ele>
        <time>2022-03-21T11:36:30Z</time>
      </trkpt>
      <trkpt lat="46.99315" lon="5.24668">
        <ele>191.4</ele>
        <time>2022-03-21T11:36:31Z</time>
      </trkpt>
      <trkpt lat="46.99314" lon="5.24674">
        <ele>191.8</ele>
        <time>2022-03-21T11:36:32Z</time>
      </trkpt>
      <trkpt lat="46.99313" lon="5.2468">
        <ele>191.8</ele>
        <time>2022-03-21T11:36:33Z</time>
      </trkpt>
      <trkpt lat="46.99312" lon="5.24687">
        <ele>191.8</ele>
        <time>2022-03-21T11:36:34Z</time>
      </trkpt>
      <trkpt lat="46.9931" lon="5.24693">
        <ele>191.8</ele>
        <time>2022-03-21T11:36:35Z</time>
      </trkpt>
      <trkpt lat="46.99309" lon="5.247">
        <ele>192</ele>
        <time>2022-03-21T11:36:36Z</time>
      </trkpt>
      <trkpt lat="46.99307" lon="5.24706">
        <ele>192</ele>
        <time>2022-03-21T11:36:37Z</time>
      </trkpt>
      <trkpt lat="46.99306" lon="5.24713">
        <ele>192</ele>
        <time>2022-03-21T11:36:38Z</time>
      </trkpt>
      <trkpt lat="46.99305" lon="5.24719">
        <ele>192</ele>
        <time>2022-03-21T11:36:39Z</time>
      </trkpt>
      <trkpt lat="46.99303" lon="5.24726">
        <ele>192</ele>
        <time>2022-03-21T11:36:40Z</time>
      </trkpt>
      <trkpt lat="46.99302" lon="5.24733">
        <ele>192</ele>
        <time>2022-03-21T11:36:41Z</time>
      </trkpt>
      <trkpt lat="46.993" lon="5.2474">
        <ele>192</ele>
        <time>2022-03-21T11:36:42Z</time>
      </trkpt>
      <trkpt lat="46.99299" lon="5.24748">
        <ele>192</ele>
        <time>2022-03-21T11:36:43Z</time>
      </trkpt>
      <trkpt lat="46.99297" lon="5.24755">
        <ele>192</ele>
        <time>2022-03-21T11:36:44Z</time>
      </trkpt>
      <trkpt lat="46.99296" lon="5.24763">
        <ele>192</ele>
        <time>2022-03-21T11:36:45Z</time>
      </trkpt>
      <trkpt lat="46.99294" lon="5.2477">
        <ele>192</ele>
        <time>2022-03-21T11:36:46Z</time>
      </trkpt>
      <trkpt lat="46.99292" lon="5.24778">
        <ele>192</ele>
        <time>2022-03-21T11:36:47Z</time>
      </trkpt>
      <trkpt lat="46.99291" lon="5.24785">
        <ele>192</ele>
        <time>2022-03-21T11:36:48Z</time>
      </trkpt>
      <trkpt lat="46.99289" lon="5.24793">
        <ele>192</ele>
        <time>2022-03-21T11:36:49Z</time>
      </trkpt>
      <trkpt lat="46.99288" lon="5.24801">
        <ele>192</ele>
        <time>2022-03-21T11:36:50Z</time>
      </trkpt>
      <trkpt lat="46.99286" lon="5.24809">
        <ele>192</ele>
        <time>2022-03-21T11:36:51Z</time>
      </trkpt>
      <trkpt lat="46.99284" lon="5.24817">
        <ele>192</ele>
        <time>2022-03-21T11:36:52Z</time>
      </trkpt>
      <trkpt lat="46.99283" lon="5.24825">
        <ele>192</ele>
        <time>2022-03-21T11:36:53Z</time>
      </trkpt>
      <trkpt lat="46.99281" lon="5.24833">
        <ele>192</ele>
        <time>2022-03-21T11:36:54Z</time>
      </trkpt>
      <trkpt lat="46.9928" lon="5.24841">
        <ele>192</ele>
        <time>2022-03-21T11:36:55Z</time>
      </trkpt>
      <trkpt lat="46.99278" lon="5.24849">
        <ele>192</ele>
        <time>2022-03-21T11:36:56Z</time>
      </trkpt>
      <trkpt lat="46.99277" lon="5.24857">
        <ele>192</ele>
        <time>2022-03-21T11:36:57Z</time>
      </trkpt>
      <trkpt lat="46.99275" lon="5.24866">
        <ele>192</ele>
        <time>2022-03-21T11:36:58Z</time>
      </trkpt>
      <trkpt lat="46.99274" lon="5.24875">
        <ele>192</ele>
        <time>2022-03-21T11:36:59Z</time>
      </trkpt>
      <trkpt lat="46.99272" lon="5.24884">
        <ele>192</ele>
        <time>2022-03-21T11:37:00Z</time>
      </trkpt>
      <trkpt lat="46.99271" lon="5.24893">
        <ele>192</ele>
        <time>2022-03-21T11:37:01Z</time>
      </trkpt>
      <trkpt lat="46.99271" lon="5.24902">
        <ele>191.6</ele>
        <time>2022-03-21T11:37:02Z</time>
      </trkpt>
      <trkpt lat="46.9927" lon="5.24912">
        <ele>191.6</ele>
        <time>2022-03-21T11:37:03Z</time>
      </trkpt>
      <trkpt lat="46.99269" lon="5.24922">
        <ele>191.6</ele>
        <time>2022-03-21T11:37:04Z</time>
      </trkpt>
      <trkpt lat="46.99269" lon="5.24932">
        <ele>191.2</ele>
        <time>2022-03-21T11:37:05Z</time>
      </trkpt>
      <trkpt lat="46.99268" lon="5.24942">
        <ele>191.2</ele>
        <time>2022-03-21T11:37:06Z</time>
      </trkpt>
      <trkpt lat="46.99268" lon="5.24952">
        <ele>191</ele>
        <time>2022-03-21T11:37:07Z</time>
      </trkpt>
      <trkpt lat="46.99267" lon="5.24962">
        <ele>191</ele>
        <time>2022-03-21T11:37:08Z</time>
      </trkpt>
      <trkpt lat="46.99267" lon="5.24972">
        <ele>190.8</ele>
        <time>2022-03-21T11:37:09Z</time>
      </trkpt>
      <trkpt lat="46.99267" lon="5.24982">
        <ele>190.8</ele>
        <time>2022-03-21T11:37:10Z</time>
      </trkpt>
      <trkpt lat="46.99266" lon="5.24991">
        <ele>190.8</ele>
        <time>2022-03-21T11:37:11Z</time>
      </trkpt>
      <trkpt lat="46.99266" lon="5.25001">
        <ele>190.8</ele>
        <time>2022-03-21T11:37:12Z</time>
      </trkpt>
      <trkpt lat="46.99266" lon="5.25011">
        <ele>190.8</ele>
        <time>2022-03-21T11:37:13Z</time>
      </trkpt>
      <trkpt lat="46.99266" lon="5.2502">
        <ele>190.8</ele>
        <time>2022-03-21T11:37:14Z</time>
      </trkpt>
      <trkpt lat="46.99265" lon="5.2503">
        <ele>190.8</ele>
        <time>2022-03-21T11:37:15Z</time>
      </trkpt>
      <trkpt lat="46.99265" lon="5.25039">
        <ele>190.8</ele>
        <time>2022-03-21T11:37:16Z</time>
      </trkpt>
      <trkpt lat="46.99265" lon="5.25049">
        <ele>190.8</ele>
        <time>2022-03-21T11:37:17Z</time>
      </trkpt>
      <trkpt lat="46.99265" lon="5.25058">
        <ele>191</ele>
        <time>2022-03-21T11:37:18Z</time>
      </trkpt>
      <trkpt lat="46.99264" lon="5.25067">
        <ele>191</ele>
        <time>2022-03-21T11:37:19Z</time>
      </trkpt>
      <trkpt lat="46.99264" lon="5.25076">
        <ele>191.4</ele>
        <time>2022-03-21T11:37:20Z</time>
      </trkpt>
      <trkpt lat="46.99264" lon="5.25084">
        <ele>191.4</ele>
        <time>2022-03-21T11:37:21Z</time>
      </trkpt>
      <trkpt lat="46.99263" lon="5.25093">
        <ele>191.6</ele>
        <time>2022-03-21T11:37:22Z</time>
      </trkpt>
      <trkpt lat="46.99263" lon="5.25102">
        <ele>191.6</ele>
        <time>2022-03-21T11:37:23Z</time>
      </trkpt>
      <trkpt lat="46.99263" lon="5.2511">
        <ele>192</ele>
        <time>2022-03-21T11:37:24Z</time>
      </trkpt>
      <trkpt lat="46.99263" lon="5.25118">
        <ele>192</ele>
        <time>2022-03-21T11:37:25Z</time>
      </trkpt>
      <trkpt lat="46.99262" lon="5.25127">
        <ele>192.2</ele>
        <time>2022-03-21T11:37:26Z</time>
      </trkpt>
      <trkpt lat="46.99262" lon="5.25135">
        <ele>192.2</ele>
        <time>2022-03-21T11:37:27Z</time>
      </trkpt>
      <trkpt lat="46.99262" lon="5.25143">
        <ele>192.4</ele>
        <time>2022-03-21T11:37:28Z</time>
      </trkpt>
      <trkpt lat="46.99261" lon="5.25151">
        <ele>192.4</ele>
        <time>2022-03-21T11:37:29Z</time>
      </trkpt>
      <trkpt lat="46.99261" lon="5.25159">
        <ele>192.8</ele>
        <time>2022-03-21T11:37:30Z</time>
      </trkpt>
      <trkpt lat="46.9926" lon="5.25168">
        <ele>192.8</ele>
        <time>2022-03-21T11:37:31Z</time>
      </trkpt>
      <trkpt lat="46.9926" lon="5.25176">
        <ele>193</ele>
        <time>2022-03-21T11:37:32Z</time>
      </trkpt>
      <trkpt lat="46.99259" lon="5.25184">
        <ele>193</ele>
        <time>2022-03-21T11:37:33Z</time>
      </trkpt>
      <trkpt lat="46.99258" lon="5.25193">
        <ele>193.2</ele>
        <time>2022-03-21T11:37:34Z</time>
      </trkpt>
      <trkpt lat="46.99257" lon="5.25201">
        <ele>193.2</ele>
        <time>2022-03-21T11:37:35Z</time>
      </trkpt>
      <trkpt lat="46.99256" lon="5.2521">
        <ele>193.2</ele>
        <time>2022-03-21T11:37:36Z</time>
      </trkpt>
      <trkpt lat="46.99255" lon="5.25218">
        <ele>193.2</ele>
        <time>2022-03-21T11:37:37Z</time>
      </trkpt>
      <trkpt lat="46.99253" lon="5.25227">
        <ele>193.2</ele>
        <time>2022-03-21T11:37:38Z</time>
      </trkpt>
      <trkpt lat="46.99252" lon="5.25235">
        <ele>193.2</ele>
        <time>2022-03-21T11:37:39Z</time>
      </trkpt>
      <trkpt lat="46.9925" lon="5.25244">
        <ele>193.2</ele>
        <time>2022-03-21T11:37:40Z</time>
      </trkpt>
      <trkpt lat="46.99248" lon="5.25252">
        <ele>193.2</ele>
        <time>2022-03-21T11:37:41Z</time>
      </trkpt>
      <trkpt lat="46.99247" lon="5.25261">
        <ele>193.2</ele>
        <time>2022-03-21T11:37:42Z</time>
      </trkpt>
      <trkpt lat="46.99245" lon="5.25269">
        <ele>193.2</ele>
        <time>2022-03-21T11:37:43Z</time>
      </trkpt>
      <trkpt lat="46.99243" lon="5.25277">
        <ele>193.2</ele>
        <time>2022-03-21T11:37:44Z</time>
      </trkpt>
      <trkpt lat="46.9924" lon="5.25286">
        <ele>193.2</ele>
        <time>2022-03-21T11:37:45Z</time>
      </trkpt>
      <trkpt lat="46.99238" lon="5.25294">
        <ele>193.2</ele>
        <time>2022-03-21T11:37:46Z</time>
      </trkpt>
      <trkpt lat="46.99236" lon="5.25303">
        <ele>193.2</ele>
        <time>2022-03-21T11:37:47Z</time>
      </trkpt>
      <trkpt lat="46.99234" lon="5.25311">
        <ele>193.4</ele>
        <time>2022-03-21T11:37:48Z</time>
      </trkpt>
      <trkpt lat="46.99231" lon="5.25319">
        <ele>193.4</ele>
        <time>2022-03-21T11:37:49Z</time>
      </trkpt>
      <trkpt lat="46.99228" lon="5.25328">
        <ele>193.4</ele>
        <time>2022-03-21T11:37:50Z</time>
      </trkpt>
      <trkpt lat="46.99226" lon="5.25336">
        <ele>193.4</ele>
        <time>2022-03-21T11:37:51Z</time>
      </trkpt>
      <trkpt lat="46.99223" lon="5.25345">
        <ele>193.4</ele>
        <time>2022-03-21T11:37:52Z</time>
      </trkpt>
      <trkpt lat="46.99221" lon="5.25354">
        <ele>193.4</ele>
        <time>2022-03-21T11:37:53Z</time>
      </trkpt>
      <trkpt lat="46.99218" lon="5.25363">
        <ele>193.4</ele>
        <time>2022-03-21T11:37:54Z</time>
      </trkpt>
      <trkpt lat="46.99215" lon="5.25372">
        <ele>193.2</ele>
        <time>2022-03-21T11:37:55Z</time>
      </trkpt>
      <trkpt lat="46.99212" lon="5.25381">
        <ele>193.2</ele>
        <time>2022-03-21T11:37:56Z</time>
      </trkpt>
      <trkpt lat="46.99209" lon="5.25389">
        <ele>193.2</ele>
        <time>2022-03-21T11:37:57Z</time>
      </trkpt>
      <trkpt lat="46.99206" lon="5.25398">
        <ele>193</ele>
        <time>2022-03-21T11:37:58Z</time>
      </trkpt>
      <trkpt lat="46.99202" lon="5.25407">
        <ele>193</ele>
        <time>2022-03-21T11:37:59Z</time>
      </trkpt>
      <trkpt lat="46.99199" lon="5.25415">
        <ele>193</ele>
        <time>2022-03-21T11:38:00Z</time>
      </trkpt>
      <trkpt lat="46.99195" lon="5.25423">
        <ele>193</ele>
        <time>2022-03-21T11:38:01Z</time>
      </trkpt>
      <trkpt lat="46.99192" lon="5.25431">
        <ele>193</ele>
        <time>2022-03-21T11:38:02Z</time>
      </trkpt>
      <trkpt lat="46.99188" lon="5.25438">
        <ele>193.4</ele>
        <time>2022-03-21T11:38:03Z</time>
      </trkpt>
      <trkpt lat="46.99185" lon="5.25446">
        <ele>193.4</ele>
        <time>2022-03-21T11:38:04Z</time>
      </trkpt>
      <trkpt lat="46.99181" lon="5.25454">
        <ele>193.6</ele>
        <time>2022-03-21T11:38:05Z</time>
      </trkpt>
      <trkpt lat="46.99178" lon="5.25462">
        <ele>193.6</ele>
        <time>2022-03-21T11:38:06Z</time>
      </trkpt>
      <trkpt lat="46.99174" lon="5.2547">
        <ele>193.6</ele>
        <time>2022-03-21T11:38:07Z</time>
      </trkpt>
      <trkpt lat="46.9917" lon="5.25477">
        <ele>193.6</ele>
        <time>2022-03-21T11:38:08Z</time>
      </trkpt>
      <trkpt lat="46.99167" lon="5.25485">
        <ele>193.6</ele>
        <time>2022-03-21T11:38:09Z</time>
      </trkpt>
      <trkpt lat="46.99163" lon="5.25492">
        <ele>193.6</ele>
        <time>2022-03-21T11:38:10Z</time>
      </trkpt>
      <trkpt lat="46.99159" lon="5.255">
        <ele>193.6</ele>
        <time>2022-03-21T11:38:11Z</time>
      </trkpt>
      <trkpt lat="46.99155" lon="5.25507">
        <ele>193.6</ele>
        <time>2022-03-21T11:38:12Z</time>
      </trkpt>
      <trkpt lat="46.99151" lon="5.25514">
        <ele>193.6</ele>
        <time>2022-03-21T11:38:13Z</time>
      </trkpt>
      <trkpt lat="46.99147" lon="5.25521">
        <ele>193.6</ele>
        <time>2022-03-21T11:38:14Z</time>
      </trkpt>
      <trkpt lat="46.99143" lon="5.25529">
        <ele>193.6</ele>
        <time>2022-03-21T11:38:15Z</time>
      </trkpt>
      <trkpt lat="46.99139" lon="5.25536">
        <ele>193.6</ele>
        <time>2022-03-21T11:38:16Z</time>
      </trkpt>
      <trkpt lat="46.99135" lon="5.25543">
        <ele>193.8</ele>
        <time>2022-03-21T11:38:17Z</time>
      </trkpt>
      <trkpt lat="46.9913" lon="5.2555">
        <ele>193.8</ele>
        <time>2022-03-21T11:38:18Z</time>
      </trkpt>
      <trkpt lat="46.99126" lon="5.25557">
        <ele>193.8</ele>
        <time>2022-03-21T11:38:19Z</time>
      </trkpt>
      <trkpt lat="46.99122" lon="5.25564">
        <ele>193.8</ele>
        <time>2022-03-21T11:38:20Z</time>
      </trkpt>
      <trkpt lat="46.99118" lon="5.25572">
        <ele>193.8</ele>
        <time>2022-03-21T11:38:21Z</time>
      </trkpt>
      <trkpt lat="46.99113" lon="5.25579">
        <ele>193.6</ele>
        <time>2022-03-21T11:38:22Z</time>
      </trkpt>
      <trkpt lat="46.99109" lon="5.25587">
        <ele>193.6</ele>
        <time>2022-03-21T11:38:23Z</time>
      </trkpt>
      <trkpt lat="46.99104" lon="5.25595">
        <ele>193.2</ele>
        <time>2022-03-21T11:38:24Z</time>
      </trkpt>
      <trkpt lat="46.991" lon="5.25602">
        <ele>193.2</ele>
        <time>2022-03-21T11:38:25Z</time>
      </trkpt>
      <trkpt lat="46.99095" lon="5.2561">
        <ele>192.6</ele>
        <time>2022-03-21T11:38:27Z</time>
      </trkpt>
      <trkpt lat="46.9909" lon="5.25618">
        <ele>192.2</ele>
        <time>2022-03-21T11:38:28Z</time>
      </trkpt>
      <trkpt lat="46.99086" lon="5.25627">
        <ele>191.8</ele>
        <time>2022-03-21T11:38:29Z</time>
      </trkpt>
      <trkpt lat="46.99081" lon="5.25635">
        <ele>191.6</ele>
        <time>2022-03-21T11:38:30Z</time>
      </trkpt>
      <trkpt lat="46.99077" lon="5.25644">
        <ele>191.2</ele>
        <time>2022-03-21T11:38:31Z</time>
      </trkpt>
      <trkpt lat="46.99072" lon="5.25654">
        <ele>191</ele>
        <time>2022-03-21T11:38:32Z</time>
      </trkpt>
      <trkpt lat="46.99067" lon="5.25663">
        <ele>190.6</ele>
        <time>2022-03-21T11:38:33Z</time>
      </trkpt>
      <trkpt lat="46.99062" lon="5.25672">
        <ele>190.4</ele>
        <time>2022-03-21T11:38:34Z</time>
      </trkpt>
      <trkpt lat="46.99057" lon="5.25681">
        <ele>190</ele>
        <time>2022-03-21T11:38:35Z</time>
      </trkpt>
      <trkpt lat="46.99052" lon="5.25691">
        <ele>189.8</ele>
        <time>2022-03-21T11:38:36Z</time>
      </trkpt>
      <trkpt lat="46.99047" lon="5.257">
        <ele>189.6</ele>
        <time>2022-03-21T11:38:37Z</time>
      </trkpt>
      <trkpt lat="46.99042" lon="5.2571">
        <ele>189.6</ele>
        <time>2022-03-21T11:38:38Z</time>
      </trkpt>
      <trkpt lat="46.99037" lon="5.25719">
        <ele>189.2</ele>
        <time>2022-03-21T11:38:39Z</time>
      </trkpt>
      <trkpt lat="46.99032" lon="5.25729">
        <ele>189.2</ele>
        <time>2022-03-21T11:38:40Z</time>
      </trkpt>
      <trkpt lat="46.99027" lon="5.25738">
        <ele>189</ele>
        <time>2022-03-21T11:38:41Z</time>
      </trkpt>
      <trkpt lat="46.99022" lon="5.25748">
        <ele>189</ele>
        <time>2022-03-21T11:38:42Z</time>
      </trkpt>
      <trkpt lat="46.99017" lon="5.25757">
        <ele>188.8</ele>
        <time>2022-03-21T11:38:43Z</time>
      </trkpt>
      <trkpt lat="46.99012" lon="5.25766">
        <ele>188.6</ele>
        <time>2022-03-21T11:38:44Z</time>
      </trkpt>
      <trkpt lat="46.99007" lon="5.25776">
        <ele>188.6</ele>
        <time>2022-03-21T11:38:45Z</time>
      </trkpt>
      <trkpt lat="46.99003" lon="5.25785">
        <ele>188.4</ele>
        <time>2022-03-21T11:38:46Z</time>
      </trkpt>
      <trkpt lat="46.98998" lon="5.25795">
        <ele>188.2</ele>
        <time>2022-03-21T11:38:47Z</time>
      </trkpt>
      <trkpt lat="46.98994" lon="5.25804">
        <ele>188.2</ele>
        <time>2022-03-21T11:38:48Z</time>
      </trkpt>
      <trkpt lat="46.9899" lon="5.25814">
        <ele>188.2</ele>
        <time>2022-03-21T11:38:49Z</time>
      </trkpt>
      <trkpt lat="46.98986" lon="5.25823">
        <ele>187.8</ele>
        <time>2022-03-21T11:38:50Z</time>
      </trkpt>
      <trkpt lat="46.98982" lon="5.25832">
        <ele>187.8</ele>
        <time>2022-03-21T11:38:51Z</time>
      </trkpt>
      <trkpt lat="46.98978" lon="5.25841">
        <ele>187.8</ele>
        <time>2022-03-21T11:38:52Z</time>
      </trkpt>
      <trkpt lat="46.98974" lon="5.2585">
        <ele>187.8</ele>
        <time>2022-03-21T11:38:53Z</time>
      </trkpt>
      <trkpt lat="46.9897" lon="5.25859">
        <ele>187.8</ele>
        <time>2022-03-21T11:38:54Z</time>
      </trkpt>
      <trkpt lat="46.98966" lon="5.25868">
        <ele>187.8</ele>
        <time>2022-03-21T11:38:55Z</time>
      </trkpt>
      <trkpt lat="46.98963" lon="5.25877">
        <ele>188</ele>
        <time>2022-03-21T11:38:56Z</time>
      </trkpt>
      <trkpt lat="46.98959" lon="5.25886">
        <ele>188</ele>
        <time>2022-03-21T11:38:57Z</time>
      </trkpt>
      <trkpt lat="46.98956" lon="5.25895">
        <ele>188</ele>
        <time>2022-03-21T11:38:58Z</time>
      </trkpt>
      <trkpt lat="46.98953" lon="5.25904">
        <ele>188</ele>
        <time>2022-03-21T11:38:59Z</time>
      </trkpt>
      <trkpt lat="46.9895" lon="5.25913">
        <ele>187.8</ele>
        <time>2022-03-21T11:39:00Z</time>
      </trkpt>
      <trkpt lat="46.98947" lon="5.25921">
        <ele>187.8</ele>
        <time>2022-03-21T11:39:01Z</time>
      </trkpt>
      <trkpt lat="46.98944" lon="5.2593">
        <ele>187.8</ele>
        <time>2022-03-21T11:39:02Z</time>
      </trkpt>
      <trkpt lat="46.98941" lon="5.25938">
        <ele>187.8</ele>
        <time>2022-03-21T11:39:03Z</time>
      </trkpt>
      <trkpt lat="46.98938" lon="5.25947">
        <ele>187.8</ele>
        <time>2022-03-21T11:39:04Z</time>
      </trkpt>
      <trkpt lat="46.98936" lon="5.25955">
        <ele>188.2</ele>
        <time>2022-03-21T11:39:05Z</time>
      </trkpt>
      <trkpt lat="46.98933" lon="5.25963">
        <ele>188.2</ele>
        <time>2022-03-21T11:39:06Z</time>
      </trkpt>
      <trkpt lat="46.9893" lon="5.25971">
        <ele>188.2</ele>
        <time>2022-03-21T11:39:07Z</time>
      </trkpt>
      <trkpt lat="46.98928" lon="5.25979">
        <ele>188.2</ele>
        <time>2022-03-21T11:39:08Z</time>
      </trkpt>
      <trkpt lat="46.98926" lon="5.25987">
        <ele>188.4</ele>
        <time>2022-03-21T11:39:09Z</time>
      </trkpt>
      <trkpt lat="46.98923" lon="5.25994">
        <ele>188.4</ele>
        <time>2022-03-21T11:39:10Z</time>
      </trkpt>
      <trkpt lat="46.9892" lon="5.26001">
        <ele>188.4</ele>
        <time>2022-03-21T11:39:11Z</time>
      </trkpt>
      <trkpt lat="46.98916" lon="5.26007">
        <ele>188.4</ele>
        <time>2022-03-21T11:39:12Z</time>
      </trkpt>
      <trkpt lat="46.98911" lon="5.26011">
        <ele>188.4</ele>
        <time>2022-03-21T11:39:13Z</time>
      </trkpt>
      <trkpt lat="46.98906" lon="5.26015">
        <ele>188.4</ele>
        <time>2022-03-21T11:39:14Z</time>
      </trkpt>
      <trkpt lat="46.98901" lon="5.26019">
        <ele>188</ele>
        <time>2022-03-21T11:39:15Z</time>
      </trkpt>
      <trkpt lat="46.98894" lon="5.26022">
        <ele>187.8</ele>
        <time>2022-03-21T11:39:16Z</time>
      </trkpt>
      <trkpt lat="46.98888" lon="5.26026">
        <ele>187.4</ele>
        <time>2022-03-21T11:39:17Z</time>
      </trkpt>
      <trkpt lat="46.98881" lon="5.2603">
        <ele>187.2</ele>
        <time>2022-03-21T11:39:18Z</time>
      </trkpt>
      <trkpt lat="46.98873" lon="5.26033">
        <ele>186.8</ele>
        <time>2022-03-21T11:39:19Z</time>
      </trkpt>
      <trkpt lat="46.98866" lon="5.26037">
        <ele>186.6</ele>
        <time>2022-03-21T11:39:20Z</time>
      </trkpt>
      <trkpt lat="46.98859" lon="5.26041">
        <ele>186.2</ele>
        <time>2022-03-21T11:39:21Z</time>
      </trkpt>
      <trkpt lat="46.98851" lon="5.26044">
        <ele>185.8</ele>
        <time>2022-03-21T11:39:22Z</time>
      </trkpt>
      <trkpt lat="46.98843" lon="5.26048">
        <ele>185.4</ele>
        <time>2022-03-21T11:39:23Z</time>
      </trkpt>
      <trkpt lat="46.98835" lon="5.26051">
        <ele>185.4</ele>
        <time>2022-03-21T11:39:24Z</time>
      </trkpt>
      <trkpt lat="46.98828" lon="5.26055">
        <ele>185.2</ele>
        <time>2022-03-21T11:39:25Z</time>
      </trkpt>
      <trkpt lat="46.9882" lon="5.26058">
        <ele>185.2</ele>
        <time>2022-03-21T11:39:26Z</time>
      </trkpt>
      <trkpt lat="46.98812" lon="5.26062">
        <ele>184.6</ele>
        <time>2022-03-21T11:39:27Z</time>
      </trkpt>
      <trkpt lat="46.98804" lon="5.26066">
        <ele>184.6</ele>
        <time>2022-03-21T11:39:28Z</time>
      </trkpt>
      <trkpt lat="46.98789" lon="5.26075">
        <ele>184.4</ele>
        <time>2022-03-21T11:39:29Z</time>
      </trkpt>
      <trkpt lat="46.98781" lon="5.26081">
        <ele>184</ele>
        <time>2022-03-21T11:39:30Z</time>
      </trkpt>
      <trkpt lat="46.98774" lon="5.26086">
        <ele>183.8</ele>
        <time>2022-03-21T11:39:31Z</time>
      </trkpt>
      <trkpt lat="46.98766" lon="5.2609">
        <ele>183.8</ele>
        <time>2022-03-21T11:39:32Z</time>
      </trkpt>
      <trkpt lat="46.98759" lon="5.26095">
        <ele>183.8</ele>
        <time>2022-03-21T11:39:33Z</time>
      </trkpt>
      <trkpt lat="46.98752" lon="5.261">
        <ele>183.4</ele>
        <time>2022-03-21T11:39:34Z</time>
      </trkpt>
      <trkpt lat="46.98744" lon="5.26105">
        <ele>183.2</ele>
        <time>2022-03-21T11:39:35Z</time>
      </trkpt>
      <trkpt lat="46.98737" lon="5.2611">
        <ele>183.2</ele>
        <time>2022-03-21T11:39:36Z</time>
      </trkpt>
      <trkpt lat="46.98729" lon="5.26114">
        <ele>183</ele>
        <time>2022-03-21T11:39:37Z</time>
      </trkpt>
      <trkpt lat="46.98722" lon="5.26119">
        <ele>183</ele>
        <time>2022-03-21T11:39:38Z</time>
      </trkpt>
      <trkpt lat="46.98714" lon="5.26123">
        <ele>182.8</ele>
        <time>2022-03-21T11:39:39Z</time>
      </trkpt>
      <trkpt lat="46.98707" lon="5.26127">
        <ele>182.8</ele>
        <time>2022-03-21T11:39:40Z</time>
      </trkpt>
      <trkpt lat="46.98699" lon="5.2613">
        <ele>182.8</ele>
        <time>2022-03-21T11:39:41Z</time>
      </trkpt>
      <trkpt lat="46.98692" lon="5.26133">
        <ele>182.6</ele>
        <time>2022-03-21T11:39:42Z</time>
      </trkpt>
      <trkpt lat="46.98684" lon="5.26136">
        <ele>182.6</ele>
        <time>2022-03-21T11:39:43Z</time>
      </trkpt>
      <trkpt lat="46.98676" lon="5.26138">
        <ele>182.6</ele>
        <time>2022-03-21T11:39:44Z</time>
      </trkpt>
      <trkpt lat="46.98669" lon="5.26139">
        <ele>182.6</ele>
        <time>2022-03-21T11:39:45Z</time>
      </trkpt>
      <trkpt lat="46.98661" lon="5.2614">
        <ele>182.4</ele>
        <time>2022-03-21T11:39:46Z</time>
      </trkpt>
      <trkpt lat="46.98654" lon="5.2614">
        <ele>182.4</ele>
        <time>2022-03-21T11:39:47Z</time>
      </trkpt>
      <trkpt lat="46.98646" lon="5.26139">
        <ele>182.4</ele>
        <time>2022-03-21T11:39:48Z</time>
      </trkpt>
      <trkpt lat="46.98639" lon="5.26139">
        <ele>182.4</ele>
        <time>2022-03-21T11:39:49Z</time>
      </trkpt>
      <trkpt lat="46.98632" lon="5.26139">
        <ele>182</ele>
        <time>2022-03-21T11:39:50Z</time>
      </trkpt>
      <trkpt lat="46.98625" lon="5.26139">
        <ele>182</ele>
        <time>2022-03-21T11:39:51Z</time>
      </trkpt>
      <trkpt lat="46.98617" lon="5.26139">
        <ele>182</ele>
        <time>2022-03-21T11:39:52Z</time>
      </trkpt>
      <trkpt lat="46.98611" lon="5.26139">
        <ele>182</ele>
        <time>2022-03-21T11:39:53Z</time>
      </trkpt>
      <trkpt lat="46.98604" lon="5.26139">
        <ele>182</ele>
        <time>2022-03-21T11:39:54Z</time>
      </trkpt>
      <trkpt lat="46.98597" lon="5.26138">
        <ele>182</ele>
        <time>2022-03-21T11:39:55Z</time>
      </trkpt>
      <trkpt lat="46.98591" lon="5.26137">
        <ele>182</ele>
        <time>2022-03-21T11:39:56Z</time>
      </trkpt>
      <trkpt lat="46.98584" lon="5.26137">
        <ele>182</ele>
        <time>2022-03-21T11:39:57Z</time>
      </trkpt>
      <trkpt lat="46.98577" lon="5.26136">
        <ele>182</ele>
        <time>2022-03-21T11:39:58Z</time>
      </trkpt>
      <trkpt lat="46.98571" lon="5.26135">
        <ele>182</ele>
        <time>2022-03-21T11:39:59Z</time>
      </trkpt>
      <trkpt lat="46.98564" lon="5.26134">
        <ele>181.8</ele>
        <time>2022-03-21T11:40:00Z</time>
      </trkpt>
      <trkpt lat="46.98558" lon="5.26134">
        <ele>181.8</ele>
        <time>2022-03-21T11:40:01Z</time>
      </trkpt>
      <trkpt lat="46.98551" lon="5.26133">
        <ele>181.8</ele>
        <time>2022-03-21T11:40:02Z</time>
      </trkpt>
      <trkpt lat="46.98545" lon="5.26132">
        <ele>181.6</ele>
        <time>2022-03-21T11:40:03Z</time>
      </trkpt>
      <trkpt lat="46.98538" lon="5.26131">
        <ele>181.6</ele>
        <time>2022-03-21T11:40:04Z</time>
      </trkpt>
      <trkpt lat="46.98532" lon="5.2613">
        <ele>181.6</ele>
        <time>2022-03-21T11:40:05Z</time>
      </trkpt>
      <trkpt lat="46.98525" lon="5.26129">
        <ele>181.6</ele>
        <time>2022-03-21T11:40:06Z</time>
      </trkpt>
      <trkpt lat="46.98519" lon="5.26128">
        <ele>181.6</ele>
        <time>2022-03-21T11:40:07Z</time>
      </trkpt>
      <trkpt lat="46.98513" lon="5.26127">
        <ele>181.6</ele>
        <time>2022-03-21T11:40:08Z</time>
      </trkpt>
      <trkpt lat="46.98506" lon="5.26127">
        <ele>181.6</ele>
        <time>2022-03-21T11:40:09Z</time>
      </trkpt>
      <trkpt lat="46.985" lon="5.26126">
        <ele>181.8</ele>
        <time>2022-03-21T11:40:10Z</time>
      </trkpt>
      <trkpt lat="46.98493" lon="5.26126">
        <ele>181.8</ele>
        <time>2022-03-21T11:40:11Z</time>
      </trkpt>
      <trkpt lat="46.98487" lon="5.26125">
        <ele>181.8</ele>
        <time>2022-03-21T11:40:12Z</time>
      </trkpt>
      <trkpt lat="46.98481" lon="5.26125">
        <ele>181.8</ele>
        <time>2022-03-21T11:40:13Z</time>
      </trkpt>
      <trkpt lat="46.98475" lon="5.26125">
        <ele>182</ele>
        <time>2022-03-21T11:40:14Z</time>
      </trkpt>
      <trkpt lat="46.98469" lon="5.26125">
        <ele>182</ele>
        <time>2022-03-21T11:40:15Z</time>
      </trkpt>
      <trkpt lat="46.98463" lon="5.26125">
        <ele>182.4</ele>
        <time>2022-03-21T11:40:16Z</time>
      </trkpt>
      <trkpt lat="46.98457" lon="5.26125">
        <ele>182.4</ele>
        <time>2022-03-21T11:40:17Z</time>
      </trkpt>
      <trkpt lat="46.98451" lon="5.26126">
        <ele>182.6</ele>
        <time>2022-03-21T11:40:18Z</time>
      </trkpt>
      <trkpt lat="46.98446" lon="5.26126">
        <ele>182.6</ele>
        <time>2022-03-21T11:40:19Z</time>
      </trkpt>
      <trkpt lat="46.9844" lon="5.26126">
        <ele>182.6</ele>
        <time>2022-03-21T11:40:20Z</time>
      </trkpt>
      <trkpt lat="46.98434" lon="5.26127">
        <ele>183</ele>
        <time>2022-03-21T11:40:21Z</time>
      </trkpt>
      <trkpt lat="46.98429" lon="5.26127">
        <ele>183</ele>
        <time>2022-03-21T11:40:22Z</time>
      </trkpt>
      <trkpt lat="46.98423" lon="5.26127">
        <ele>183</ele>
        <time>2022-03-21T11:40:23Z</time>
      </trkpt>
      <trkpt lat="46.98418" lon="5.26127">
        <ele>183</ele>
        <time>2022-03-21T11:40:24Z</time>
      </trkpt>
      <trkpt lat="46.98412" lon="5.26127">
        <ele>183</ele>
        <time>2022-03-21T11:40:25Z</time>
      </trkpt>
      <trkpt lat="46.98406" lon="5.26128">
        <ele>183</ele>
        <time>2022-03-21T11:40:26Z</time>
      </trkpt>
      <trkpt lat="46.984" lon="5.2613">
        <ele>182.8</ele>
        <time>2022-03-21T11:40:27Z</time>
      </trkpt>
      <trkpt lat="46.98393" lon="5.26131">
        <ele>182.8</ele>
        <time>2022-03-21T11:40:28Z</time>
      </trkpt>
      <trkpt lat="46.98387" lon="5.26132">
        <ele>182.8</ele>
        <time>2022-03-21T11:40:29Z</time>
      </trkpt>
      <trkpt lat="46.9838" lon="5.26133">
        <ele>182.4</ele>
        <time>2022-03-21T11:40:30Z</time>
      </trkpt>
      <trkpt lat="46.98374" lon="5.26134">
        <ele>182.4</ele>
        <time>2022-03-21T11:40:31Z</time>
      </trkpt>
      <trkpt lat="46.98368" lon="5.26135">
        <ele>182.4</ele>
        <time>2022-03-21T11:40:32Z</time>
      </trkpt>
      <trkpt lat="46.98362" lon="5.26136">
        <ele>182.4</ele>
        <time>2022-03-21T11:40:33Z</time>
      </trkpt>
      <trkpt lat="46.98355" lon="5.26137">
        <ele>182.2</ele>
        <time>2022-03-21T11:40:34Z</time>
      </trkpt>
      <trkpt lat="46.98349" lon="5.26139">
        <ele>182.2</ele>
        <time>2022-03-21T11:40:35Z</time>
      </trkpt>
      <trkpt lat="46.98343" lon="5.2614">
        <ele>182.2</ele>
        <time>2022-03-21T11:40:36Z</time>
      </trkpt>
      <trkpt lat="46.98338" lon="5.26142">
        <ele>182.2</ele>
        <time>2022-03-21T11:40:37Z</time>
      </trkpt>
      <trkpt lat="46.98332" lon="5.26143">
        <ele>182.2</ele>
        <time>2022-03-21T11:40:38Z</time>
      </trkpt>
      <trkpt lat="46.98326" lon="5.26145">
        <ele>182.2</ele>
        <time>2022-03-21T11:40:39Z</time>
      </trkpt>
      <trkpt lat="46.9832" lon="5.26146">
        <ele>182.2</ele>
        <time>2022-03-21T11:40:40Z</time>
      </trkpt>
      <trkpt lat="46.98314" lon="5.26148">
        <ele>182.2</ele>
        <time>2022-03-21T11:40:41Z</time>
      </trkpt>
      <trkpt lat="46.98309" lon="5.2615">
        <ele>182.2</ele>
        <time>2022-03-21T11:40:42Z</time>
      </trkpt>
      <trkpt lat="46.98303" lon="5.26152">
        <ele>182.2</ele>
        <time>2022-03-21T11:40:43Z</time>
      </trkpt>
      <trkpt lat="46.98297" lon="5.26155">
        <ele>182.2</ele>
        <time>2022-03-21T11:40:44Z</time>
      </trkpt>
      <trkpt lat="46.98291" lon="5.26157">
        <ele>182.4</ele>
        <time>2022-03-21T11:40:45Z</time>
      </trkpt>
      <trkpt lat="46.98285" lon="5.26159">
        <ele>182.4</ele>
        <time>2022-03-21T11:40:46Z</time>
      </trkpt>
      <trkpt lat="46.9828" lon="5.26161">
        <ele>182.4</ele>
        <time>2022-03-21T11:40:47Z</time>
      </trkpt>
      <trkpt lat="46.98274" lon="5.26164">
        <ele>182.4</ele>
        <time>2022-03-21T11:40:48Z</time>
      </trkpt>
      <trkpt lat="46.98268" lon="5.26166">
        <ele>182.4</ele>
        <time>2022-03-21T11:40:49Z</time>
      </trkpt>
      <trkpt lat="46.98262" lon="5.26169">
        <ele>182.4</ele>
        <time>2022-03-21T11:40:50Z</time>
      </trkpt>
      <trkpt lat="46.98256" lon="5.26171">
        <ele>182.4</ele>
        <time>2022-03-21T11:40:51Z</time>
      </trkpt>
      <trkpt lat="46.98251" lon="5.26173">
        <ele>182.4</ele>
        <time>2022-03-21T11:40:52Z</time>
      </trkpt>
      <trkpt lat="46.98245" lon="5.26175">
        <ele>182.4</ele>
        <time>2022-03-21T11:40:53Z</time>
      </trkpt>
      <trkpt lat="46.9824" lon="5.26176">
        <ele>182.8</ele>
        <time>2022-03-21T11:40:54Z</time>
      </trkpt>
      <trkpt lat="46.98234" lon="5.26178">
        <ele>182.8</ele>
        <time>2022-03-21T11:40:55Z</time>
      </trkpt>
      <trkpt lat="46.98229" lon="5.2618">
        <ele>182.8</ele>
        <time>2022-03-21T11:40:56Z</time>
      </trkpt>
      <trkpt lat="46.98223" lon="5.26181">
        <ele>182.8</ele>
        <time>2022-03-21T11:40:57Z</time>
      </trkpt>
      <trkpt lat="46.98218" lon="5.26183">
        <ele>183.2</ele>
        <time>2022-03-21T11:40:58Z</time>
      </trkpt>
      <trkpt lat="46.98212" lon="5.26184">
        <ele>183.4</ele>
        <time>2022-03-21T11:40:59Z</time>
      </trkpt>
      <trkpt lat="46.98207" lon="5.26185">
        <ele>183.4</ele>
        <time>2022-03-21T11:41:00Z</time>
      </trkpt>
      <trkpt lat="46.98202" lon="5.26186">
        <ele>183.4</ele>
        <time>2022-03-21T11:41:01Z</time>
      </trkpt>
      <trkpt lat="46.98196" lon="5.26188">
        <ele>183.6</ele>
        <time>2022-03-21T11:41:02Z</time>
      </trkpt>
      <trkpt lat="46.98191" lon="5.26189">
        <ele>183.6</ele>
        <time>2022-03-21T11:41:03Z</time>
      </trkpt>
      <trkpt lat="46.98185" lon="5.26189">
        <ele>183.6</ele>
        <time>2022-03-21T11:41:04Z</time>
      </trkpt>
      <trkpt lat="46.9818" lon="5.2619">
        <ele>183.6</ele>
        <time>2022-03-21T11:41:05Z</time>
      </trkpt>
      <trkpt lat="46.98174" lon="5.26191">
        <ele>183.6</ele>
        <time>2022-03-21T11:41:06Z</time>
      </trkpt>
      <trkpt lat="46.98169" lon="5.26191">
        <ele>183.6</ele>
        <time>2022-03-21T11:41:07Z</time>
      </trkpt>
      <trkpt lat="46.98163" lon="5.26192">
        <ele>184</ele>
        <time>2022-03-21T11:41:08Z</time>
      </trkpt>
      <trkpt lat="46.98158" lon="5.26193">
        <ele>184</ele>
        <time>2022-03-21T11:41:09Z</time>
      </trkpt>
      <trkpt lat="46.98152" lon="5.26193">
        <ele>184</ele>
        <time>2022-03-21T11:41:10Z</time>
      </trkpt>
      <trkpt lat="46.98146" lon="5.26194">
        <ele>184</ele>
        <time>2022-03-21T11:41:11Z</time>
      </trkpt>
      <trkpt lat="46.9814" lon="5.26195">
        <ele>184.2</ele>
        <time>2022-03-21T11:41:12Z</time>
      </trkpt>
      <trkpt lat="46.98135" lon="5.26195">
        <ele>184.2</ele>
        <time>2022-03-21T11:41:13Z</time>
      </trkpt>
      <trkpt lat="46.98129" lon="5.26195">
        <ele>184.2</ele>
        <time>2022-03-21T11:41:14Z</time>
      </trkpt>
      <trkpt lat="46.98123" lon="5.26196">
        <ele>184</ele>
        <time>2022-03-21T11:41:15Z</time>
      </trkpt>
      <trkpt lat="46.98117" lon="5.26197">
        <ele>184</ele>
        <time>2022-03-21T11:41:16Z</time>
      </trkpt>
      <trkpt lat="46.98111" lon="5.26198">
        <ele>184</ele>
        <time>2022-03-21T11:41:17Z</time>
      </trkpt>
      <trkpt lat="46.98105" lon="5.26199">
        <ele>184</ele>
        <time>2022-03-21T11:41:18Z</time>
      </trkpt>
      <trkpt lat="46.98099" lon="5.262">
        <ele>184</ele>
        <time>2022-03-21T11:41:19Z</time>
      </trkpt>
      <trkpt lat="46.98093" lon="5.26202">
        <ele>184</ele>
        <time>2022-03-21T11:41:20Z</time>
      </trkpt>
      <trkpt lat="46.98087" lon="5.26204">
        <ele>184</ele>
        <time>2022-03-21T11:41:21Z</time>
      </trkpt>
      <trkpt lat="46.98081" lon="5.26206">
        <ele>184</ele>
        <time>2022-03-21T11:41:22Z</time>
      </trkpt>
      <trkpt lat="46.98075" lon="5.26208">
        <ele>184</ele>
        <time>2022-03-21T11:41:23Z</time>
      </trkpt>
      <trkpt lat="46.98069" lon="5.26211">
        <ele>184</ele>
        <time>2022-03-21T11:41:24Z</time>
      </trkpt>
      <trkpt lat="46.98064" lon="5.26213">
        <ele>184</ele>
        <time>2022-03-21T11:41:25Z</time>
      </trkpt>
      <trkpt lat="46.98058" lon="5.26216">
        <ele>184</ele>
        <time>2022-03-21T11:41:26Z</time>
      </trkpt>
      <trkpt lat="46.98053" lon="5.26219">
        <ele>184</ele>
        <time>2022-03-21T11:41:27Z</time>
      </trkpt>
      <trkpt lat="46.98047" lon="5.26222">
        <ele>184</ele>
        <time>2022-03-21T11:41:28Z</time>
      </trkpt>
      <trkpt lat="46.98042" lon="5.26225">
        <ele>184</ele>
        <time>2022-03-21T11:41:29Z</time>
      </trkpt>
      <trkpt lat="46.98037" lon="5.26228">
        <ele>184</ele>
        <time>2022-03-21T11:41:30Z</time>
      </trkpt>
      <trkpt lat="46.98032" lon="5.26231">
        <ele>184</ele>
        <time>2022-03-21T11:41:31Z</time>
      </trkpt>
      <trkpt lat="46.98027" lon="5.26235">
        <ele>184</ele>
        <time>2022-03-21T11:41:32Z</time>
      </trkpt>
      <trkpt lat="46.98021" lon="5.26239">
        <ele>184</ele>
        <time>2022-03-21T11:41:33Z</time>
      </trkpt>
      <trkpt lat="46.98016" lon="5.26242">
        <ele>184</ele>
        <time>2022-03-21T11:41:34Z</time>
      </trkpt>
      <trkpt lat="46.98011" lon="5.26246">
        <ele>184</ele>
        <time>2022-03-21T11:41:35Z</time>
      </trkpt>
      <trkpt lat="46.98006" lon="5.2625">
        <ele>184</ele>
        <time>2022-03-21T11:41:36Z</time>
      </trkpt>
      <trkpt lat="46.98001" lon="5.26255">
        <ele>184</ele>
        <time>2022-03-21T11:41:37Z</time>
      </trkpt>
      <trkpt lat="46.97996" lon="5.26259">
        <ele>184</ele>
        <time>2022-03-21T11:41:38Z</time>
      </trkpt>
      <trkpt lat="46.97991" lon="5.26264">
        <ele>184</ele>
        <time>2022-03-21T11:41:39Z</time>
      </trkpt>
      <trkpt lat="46.97986" lon="5.26269">
        <ele>184</ele>
        <time>2022-03-21T11:41:40Z</time>
      </trkpt>
      <trkpt lat="46.97982" lon="5.26274">
        <ele>184</ele>
        <time>2022-03-21T11:41:41Z</time>
      </trkpt>
      <trkpt lat="46.97977" lon="5.26279">
        <ele>184</ele>
        <time>2022-03-21T11:41:42Z</time>
      </trkpt>
      <trkpt lat="46.97973" lon="5.26284">
        <ele>184</ele>
        <time>2022-03-21T11:41:43Z</time>
      </trkpt>
      <trkpt lat="46.97969" lon="5.2629">
        <ele>184.2</ele>
        <time>2022-03-21T11:41:44Z</time>
      </trkpt>
      <trkpt lat="46.97964" lon="5.26295">
        <ele>184.2</ele>
        <time>2022-03-21T11:41:45Z</time>
      </trkpt>
      <trkpt lat="46.9796" lon="5.263">
        <ele>184.2</ele>
        <time>2022-03-21T11:41:46Z</time>
      </trkpt>
      <trkpt lat="46.97955" lon="5.26306">
        <ele>184.2</ele>
        <time>2022-03-21T11:41:47Z</time>
      </trkpt>
      <trkpt lat="46.97951" lon="5.26311">
        <ele>184.2</ele>
        <time>2022-03-21T11:41:48Z</time>
      </trkpt>
      <trkpt lat="46.97946" lon="5.26317">
        <ele>184.2</ele>
        <time>2022-03-21T11:41:49Z</time>
      </trkpt>
      <trkpt lat="46.97942" lon="5.26323">
        <ele>184.2</ele>
        <time>2022-03-21T11:41:50Z</time>
      </trkpt>
      <trkpt lat="46.97937" lon="5.26328">
        <ele>184.2</ele>
        <time>2022-03-21T11:41:51Z</time>
      </trkpt>
      <trkpt lat="46.97933" lon="5.26333">
        <ele>184.2</ele>
        <time>2022-03-21T11:41:52Z</time>
      </trkpt>
      <trkpt lat="46.97929" lon="5.26339">
        <ele>184.2</ele>
        <time>2022-03-21T11:41:53Z</time>
      </trkpt>
      <trkpt lat="46.97924" lon="5.26344">
        <ele>184.2</ele>
        <time>2022-03-21T11:41:54Z</time>
      </trkpt>
      <trkpt lat="46.9792" lon="5.2635">
        <ele>184.2</ele>
        <time>2022-03-21T11:41:55Z</time>
      </trkpt>
      <trkpt lat="46.97916" lon="5.26355">
        <ele>184.2</ele>
        <time>2022-03-21T11:41:56Z</time>
      </trkpt>
      <trkpt lat="46.97911" lon="5.2636">
        <ele>184.2</ele>
        <time>2022-03-21T11:41:57Z</time>
      </trkpt>
      <trkpt lat="46.97906" lon="5.26365">
        <ele>184.2</ele>
        <time>2022-03-21T11:41:58Z</time>
      </trkpt>
      <trkpt lat="46.97902" lon="5.2637">
        <ele>184.2</ele>
        <time>2022-03-21T11:41:59Z</time>
      </trkpt>
      <trkpt lat="46.97897" lon="5.26375">
        <ele>184.2</ele>
        <time>2022-03-21T11:42:00Z</time>
      </trkpt>
      <trkpt lat="46.97892" lon="5.2638">
        <ele>184.2</ele>
        <time>2022-03-21T11:42:01Z</time>
      </trkpt>
      <trkpt lat="46.97887" lon="5.26385">
        <ele>184.2</ele>
        <time>2022-03-21T11:42:02Z</time>
      </trkpt>
      <trkpt lat="46.97883" lon="5.26389">
        <ele>184.2</ele>
        <time>2022-03-21T11:42:03Z</time>
      </trkpt>
      <trkpt lat="46.97878" lon="5.26394">
        <ele>184.2</ele>
        <time>2022-03-21T11:42:04Z</time>
      </trkpt>
      <trkpt lat="46.97873" lon="5.26398">
        <ele>184.2</ele>
        <time>2022-03-21T11:42:05Z</time>
      </trkpt>
      <trkpt lat="46.97868" lon="5.26403">
        <ele>184.2</ele>
        <time>2022-03-21T11:42:06Z</time>
      </trkpt>
      <trkpt lat="46.97864" lon="5.26408">
        <ele>184.2</ele>
        <time>2022-03-21T11:42:07Z</time>
      </trkpt>
      <trkpt lat="46.97859" lon="5.26413">
        <ele>183.8</ele>
        <time>2022-03-21T11:42:08Z</time>
      </trkpt>
      <trkpt lat="46.97854" lon="5.26418">
        <ele>183.8</ele>
        <time>2022-03-21T11:42:09Z</time>
      </trkpt>
      <trkpt lat="46.97849" lon="5.26424">
        <ele>183.8</ele>
        <time>2022-03-21T11:42:10Z</time>
      </trkpt>
      <trkpt lat="46.97844" lon="5.26429">
        <ele>183.8</ele>
        <time>2022-03-21T11:42:11Z</time>
      </trkpt>
      <trkpt lat="46.97839" lon="5.26434">
        <ele>183.8</ele>
        <time>2022-03-21T11:42:12Z</time>
      </trkpt>
      <trkpt lat="46.97835" lon="5.26439">
        <ele>183.8</ele>
        <time>2022-03-21T11:42:13Z</time>
      </trkpt>
      <trkpt lat="46.9783" lon="5.26445">
        <ele>183.8</ele>
        <time>2022-03-21T11:42:14Z</time>
      </trkpt>
      <trkpt lat="46.97825" lon="5.26451">
        <ele>183.8</ele>
        <time>2022-03-21T11:42:15Z</time>
      </trkpt>
      <trkpt lat="46.9782" lon="5.26457">
        <ele>183.6</ele>
        <time>2022-03-21T11:42:17Z</time>
      </trkpt>
      <trkpt lat="46.97816" lon="5.26463">
        <ele>183.6</ele>
        <time>2022-03-21T11:42:18Z</time>
      </trkpt>
      <trkpt lat="46.97811" lon="5.26469">
        <ele>183.4</ele>
        <time>2022-03-21T11:42:19Z</time>
      </trkpt>
      <trkpt lat="46.97806" lon="5.26475">
        <ele>183.4</ele>
        <time>2022-03-21T11:42:20Z</time>
      </trkpt>
      <trkpt lat="46.97801" lon="5.26481">
        <ele>183.4</ele>
        <time>2022-03-21T11:42:21Z</time>
      </trkpt>
      <trkpt lat="46.97797" lon="5.26487">
        <ele>183.4</ele>
        <time>2022-03-21T11:42:22Z</time>
      </trkpt>
      <trkpt lat="46.97792" lon="5.26493">
        <ele>183.4</ele>
        <time>2022-03-21T11:42:23Z</time>
      </trkpt>
      <trkpt lat="46.97788" lon="5.26499">
        <ele>183.4</ele>
        <time>2022-03-21T11:42:24Z</time>
      </trkpt>
      <trkpt lat="46.97783" lon="5.26506">
        <ele>183.4</ele>
        <time>2022-03-21T11:42:25Z</time>
      </trkpt>
      <trkpt lat="46.97778" lon="5.26511">
        <ele>183.4</ele>
        <time>2022-03-21T11:42:26Z</time>
      </trkpt>
      <trkpt lat="46.97774" lon="5.26517">
        <ele>183.4</ele>
        <time>2022-03-21T11:42:27Z</time>
      </trkpt>
      <trkpt lat="46.9777" lon="5.26523">
        <ele>183.4</ele>
        <time>2022-03-21T11:42:28Z</time>
      </trkpt>
      <trkpt lat="46.97765" lon="5.26529">
        <ele>183.4</ele>
        <time>2022-03-21T11:42:29Z</time>
      </trkpt>
      <trkpt lat="46.97761" lon="5.26535">
        <ele>183.4</ele>
        <time>2022-03-21T11:42:30Z</time>
      </trkpt>
      <trkpt lat="46.97756" lon="5.26541">
        <ele>183.4</ele>
        <time>2022-03-21T11:42:31Z</time>
      </trkpt>
      <trkpt lat="46.97752" lon="5.26547">
        <ele>183.4</ele>
        <time>2022-03-21T11:42:32Z</time>
      </trkpt>
      <trkpt lat="46.97748" lon="5.26553">
        <ele>183.4</ele>
        <time>2022-03-21T11:42:33Z</time>
      </trkpt>
      <trkpt lat="46.97743" lon="5.26558">
        <ele>183.4</ele>
        <time>2022-03-21T11:42:34Z</time>
      </trkpt>
      <trkpt lat="46.97739" lon="5.26564">
        <ele>183.4</ele>
        <time>2022-03-21T11:42:35Z</time>
      </trkpt>
      <trkpt lat="46.97734" lon="5.2657">
        <ele>183.4</ele>
        <time>2022-03-21T11:42:36Z</time>
      </trkpt>
      <trkpt lat="46.9773" lon="5.26575">
        <ele>183.4</ele>
        <time>2022-03-21T11:42:37Z</time>
      </trkpt>
      <trkpt lat="46.97725" lon="5.26581">
        <ele>183.4</ele>
        <time>2022-03-21T11:42:38Z</time>
      </trkpt>
      <trkpt lat="46.9772" lon="5.26586">
        <ele>183.4</ele>
        <time>2022-03-21T11:42:39Z</time>
      </trkpt>
      <trkpt lat="46.97715" lon="5.26591">
        <ele>183.4</ele>
        <time>2022-03-21T11:42:40Z</time>
      </trkpt>
      <trkpt lat="46.9771" lon="5.26595">
        <ele>183.4</ele>
        <time>2022-03-21T11:42:41Z</time>
      </trkpt>
      <trkpt lat="46.97705" lon="5.26599">
        <ele>183.4</ele>
        <time>2022-03-21T11:42:42Z</time>
      </trkpt>
      <trkpt lat="46.97699" lon="5.26603">
        <ele>183.4</ele>
        <time>2022-03-21T11:42:43Z</time>
      </trkpt>
      <trkpt lat="46.97694" lon="5.26606">
        <ele>183.4</ele>
        <time>2022-03-21T11:42:44Z</time>
      </trkpt>
      <trkpt lat="46.97688" lon="5.26609">
        <ele>183.4</ele>
        <time>2022-03-21T11:42:45Z</time>
      </trkpt>
      <trkpt lat="46.97683" lon="5.26611">
        <ele>183.4</ele>
        <time>2022-03-21T11:42:46Z</time>
      </trkpt>
      <trkpt lat="46.97677" lon="5.26613">
        <ele>183.4</ele>
        <time>2022-03-21T11:42:47Z</time>
      </trkpt>
      <trkpt lat="46.97672" lon="5.26615">
        <ele>183.4</ele>
        <time>2022-03-21T11:42:48Z</time>
      </trkpt>
      <trkpt lat="46.97666" lon="5.26616">
        <ele>183.4</ele>
        <time>2022-03-21T11:42:49Z</time>
      </trkpt>
      <trkpt lat="46.9766" lon="5.26617">
        <ele>183.4</ele>
        <time>2022-03-21T11:42:50Z</time>
      </trkpt>
      <trkpt lat="46.97654" lon="5.26618">
        <ele>183.6</ele>
        <time>2022-03-21T11:42:51Z</time>
      </trkpt>
      <trkpt lat="46.97649" lon="5.26619">
        <ele>183.6</ele>
        <time>2022-03-21T11:42:52Z</time>
      </trkpt>
      <trkpt lat="46.97643" lon="5.26621">
        <ele>183.6</ele>
        <time>2022-03-21T11:42:53Z</time>
      </trkpt>
      <trkpt lat="46.97637" lon="5.26622">
        <ele>183.6</ele>
        <time>2022-03-21T11:42:54Z</time>
      </trkpt>
      <trkpt lat="46.97631" lon="5.26623">
        <ele>183.6</ele>
        <time>2022-03-21T11:42:55Z</time>
      </trkpt>
      <trkpt lat="46.97625" lon="5.26624">
        <ele>183.6</ele>
        <time>2022-03-21T11:42:56Z</time>
      </trkpt>
      <trkpt lat="46.97619" lon="5.26625">
        <ele>183.6</ele>
        <time>2022-03-21T11:42:57Z</time>
      </trkpt>
      <trkpt lat="46.97614" lon="5.26627">
        <ele>183.6</ele>
        <time>2022-03-21T11:42:58Z</time>
      </trkpt>
      <trkpt lat="46.97608" lon="5.26628">
        <ele>183.6</ele>
        <time>2022-03-21T11:42:59Z</time>
      </trkpt>
      <trkpt lat="46.97602" lon="5.26629">
        <ele>183.6</ele>
        <time>2022-03-21T11:43:00Z</time>
      </trkpt>
      <trkpt lat="46.97596" lon="5.2663">
        <ele>183.6</ele>
        <time>2022-03-21T11:43:01Z</time>
      </trkpt>
      <trkpt lat="46.97591" lon="5.26631">
        <ele>183.6</ele>
        <time>2022-03-21T11:43:02Z</time>
      </trkpt>
      <trkpt lat="46.97585" lon="5.26633">
        <ele>183.6</ele>
        <time>2022-03-21T11:43:03Z</time>
      </trkpt>
      <trkpt lat="46.97579" lon="5.26634">
        <ele>183.6</ele>
        <time>2022-03-21T11:43:04Z</time>
      </trkpt>
      <trkpt lat="46.97573" lon="5.26636">
        <ele>183.6</ele>
        <time>2022-03-21T11:43:05Z</time>
      </trkpt>
      <trkpt lat="46.97568" lon="5.26638">
        <ele>183.6</ele>
        <time>2022-03-21T11:43:06Z</time>
      </trkpt>
      <trkpt lat="46.97562" lon="5.26639">
        <ele>183.6</ele>
        <time>2022-03-21T11:43:07Z</time>
      </trkpt>
      <trkpt lat="46.97557" lon="5.26641">
        <ele>183.6</ele>
        <time>2022-03-21T11:43:08Z</time>
      </trkpt>
      <trkpt lat="46.97551" lon="5.26643">
        <ele>183.6</ele>
        <time>2022-03-21T11:43:09Z</time>
      </trkpt>
      <trkpt lat="46.97546" lon="5.26645">
        <ele>183.6</ele>
        <time>2022-03-21T11:43:10Z</time>
      </trkpt>
      <trkpt lat="46.9754" lon="5.26647">
        <ele>183.6</ele>
        <time>2022-03-21T11:43:11Z</time>
      </trkpt>
      <trkpt lat="46.97535" lon="5.26649">
        <ele>183.6</ele>
        <time>2022-03-21T11:43:12Z</time>
      </trkpt>
      <trkpt lat="46.97529" lon="5.26651">
        <ele>183.6</ele>
        <time>2022-03-21T11:43:13Z</time>
      </trkpt>
      <trkpt lat="46.97524" lon="5.26654">
        <ele>183.6</ele>
        <time>2022-03-21T11:43:14Z</time>
      </trkpt>
      <trkpt lat="46.97519" lon="5.26656">
        <ele>183.2</ele>
        <time>2022-03-21T11:43:15Z</time>
      </trkpt>
      <trkpt lat="46.97513" lon="5.26658">
        <ele>183.2</ele>
        <time>2022-03-21T11:43:16Z</time>
      </trkpt>
      <trkpt lat="46.97508" lon="5.26661">
        <ele>183.2</ele>
        <time>2022-03-21T11:43:17Z</time>
      </trkpt>
      <trkpt lat="46.97503" lon="5.26664">
        <ele>183</ele>
        <time>2022-03-21T11:43:18Z</time>
      </trkpt>
      <trkpt lat="46.97497" lon="5.26667">
        <ele>183</ele>
        <time>2022-03-21T11:43:19Z</time>
      </trkpt>
      <trkpt lat="46.97492" lon="5.2667">
        <ele>183</ele>
        <time>2022-03-21T11:43:20Z</time>
      </trkpt>
      <trkpt lat="46.97486" lon="5.26672">
        <ele>183</ele>
        <time>2022-03-21T11:43:21Z</time>
      </trkpt>
      <trkpt lat="46.97481" lon="5.26676">
        <ele>183</ele>
        <time>2022-03-21T11:43:22Z</time>
      </trkpt>
      <trkpt lat="46.9747" lon="5.26682">
        <ele>182.8</ele>
        <time>2022-03-21T11:43:23Z</time>
      </trkpt>
      <trkpt lat="46.97465" lon="5.26685">
        <ele>182.8</ele>
        <time>2022-03-21T11:43:24Z</time>
      </trkpt>
      <trkpt lat="46.97459" lon="5.26689">
        <ele>182.8</ele>
        <time>2022-03-21T11:43:25Z</time>
      </trkpt>
      <trkpt lat="46.97454" lon="5.26692">
        <ele>182.8</ele>
        <time>2022-03-21T11:43:26Z</time>
      </trkpt>
      <trkpt lat="46.97449" lon="5.26695">
        <ele>182.8</ele>
        <time>2022-03-21T11:43:27Z</time>
      </trkpt>
      <trkpt lat="46.97443" lon="5.26699">
        <ele>183</ele>
        <time>2022-03-21T11:43:28Z</time>
      </trkpt>
      <trkpt lat="46.97438" lon="5.26703">
        <ele>183</ele>
        <time>2022-03-21T11:43:29Z</time>
      </trkpt>
      <trkpt lat="46.97433" lon="5.26706">
        <ele>183</ele>
        <time>2022-03-21T11:43:30Z</time>
      </trkpt>
      <trkpt lat="46.97428" lon="5.2671">
        <ele>183</ele>
        <time>2022-03-21T11:43:31Z</time>
      </trkpt>
      <trkpt lat="46.97422" lon="5.26714">
        <ele>183</ele>
        <time>2022-03-21T11:43:32Z</time>
      </trkpt>
      <trkpt lat="46.97417" lon="5.26718">
        <ele>183</ele>
        <time>2022-03-21T11:43:33Z</time>
      </trkpt>
      <trkpt lat="46.97412" lon="5.26722">
        <ele>183</ele>
        <time>2022-03-21T11:43:34Z</time>
      </trkpt>
      <trkpt lat="46.97407" lon="5.26726">
        <ele>183.2</ele>
        <time>2022-03-21T11:43:35Z</time>
      </trkpt>
      <trkpt lat="46.97402" lon="5.2673">
        <ele>183.2</ele>
        <time>2022-03-21T11:43:36Z</time>
      </trkpt>
      <trkpt lat="46.97396" lon="5.26734">
        <ele>183.2</ele>
        <time>2022-03-21T11:43:37Z</time>
      </trkpt>
      <trkpt lat="46.97391" lon="5.26738">
        <ele>183.2</ele>
        <time>2022-03-21T11:43:38Z</time>
      </trkpt>
      <trkpt lat="46.97386" lon="5.26743">
        <ele>183.2</ele>
        <time>2022-03-21T11:43:39Z</time>
      </trkpt>
      <trkpt lat="46.97381" lon="5.26747">
        <ele>183.2</ele>
        <time>2022-03-21T11:43:40Z</time>
      </trkpt>
      <trkpt lat="46.97376" lon="5.26752">
        <ele>183.2</ele>
        <time>2022-03-21T11:43:41Z</time>
      </trkpt>
      <trkpt lat="46.97371" lon="5.26757">
        <ele>183.2</ele>
        <time>2022-03-21T11:43:42Z</time>
      </trkpt>
      <trkpt lat="46.97367" lon="5.26762">
        <ele>183.2</ele>
        <time>2022-03-21T11:43:43Z</time>
      </trkpt>
      <trkpt lat="46.97362" lon="5.26767">
        <ele>183.2</ele>
        <time>2022-03-21T11:43:44Z</time>
      </trkpt>
      <trkpt lat="46.97357" lon="5.26772">
        <ele>183.2</ele>
        <time>2022-03-21T11:43:45Z</time>
      </trkpt>
      <trkpt lat="46.97352" lon="5.26778">
        <ele>183.2</ele>
        <time>2022-03-21T11:43:46Z</time>
      </trkpt>
      <trkpt lat="46.97348" lon="5.26783">
        <ele>183.2</ele>
        <time>2022-03-21T11:43:47Z</time>
      </trkpt>
      <trkpt lat="46.97343" lon="5.26788">
        <ele>183.2</ele>
        <time>2022-03-21T11:43:48Z</time>
      </trkpt>
      <trkpt lat="46.97338" lon="5.26793">
        <ele>183.2</ele>
        <time>2022-03-21T11:43:49Z</time>
      </trkpt>
      <trkpt lat="46.97333" lon="5.26798">
        <ele>183.2</ele>
        <time>2022-03-21T11:43:50Z</time>
      </trkpt>
      <trkpt lat="46.97328" lon="5.26804">
        <ele>183.2</ele>
        <time>2022-03-21T11:43:51Z</time>
      </trkpt>
      <trkpt lat="46.97324" lon="5.26809">
        <ele>183.2</ele>
        <time>2022-03-21T11:43:52Z</time>
      </trkpt>
      <trkpt lat="46.97319" lon="5.26814">
        <ele>183.2</ele>
        <time>2022-03-21T11:43:53Z</time>
      </trkpt>
      <trkpt lat="46.97314" lon="5.26819">
        <ele>183.2</ele>
        <time>2022-03-21T11:43:54Z</time>
      </trkpt>
      <trkpt lat="46.9731" lon="5.26825">
        <ele>183.2</ele>
        <time>2022-03-21T11:43:55Z</time>
      </trkpt>
      <trkpt lat="46.97305" lon="5.2683">
        <ele>183.2</ele>
        <time>2022-03-21T11:43:56Z</time>
      </trkpt>
      <trkpt lat="46.973" lon="5.26835">
        <ele>183.2</ele>
        <time>2022-03-21T11:43:57Z</time>
      </trkpt>
      <trkpt lat="46.97296" lon="5.26841">
        <ele>183.2</ele>
        <time>2022-03-21T11:43:58Z</time>
      </trkpt>
      <trkpt lat="46.97291" lon="5.26846">
        <ele>183.2</ele>
        <time>2022-03-21T11:43:59Z</time>
      </trkpt>
      <trkpt lat="46.97287" lon="5.26852">
        <ele>183.2</ele>
        <time>2022-03-21T11:44:00Z</time>
      </trkpt>
      <trkpt lat="46.97283" lon="5.26858">
        <ele>183.4</ele>
        <time>2022-03-21T11:44:01Z</time>
      </trkpt>
      <trkpt lat="46.97278" lon="5.26863">
        <ele>183.4</ele>
        <time>2022-03-21T11:44:02Z</time>
      </trkpt>
      <trkpt lat="46.97274" lon="5.26869">
        <ele>183.4</ele>
        <time>2022-03-21T11:44:03Z</time>
      </trkpt>
      <trkpt lat="46.9727" lon="5.26874">
        <ele>183.4</ele>
        <time>2022-03-21T11:44:04Z</time>
      </trkpt>
      <trkpt lat="46.97265" lon="5.2688">
        <ele>183.4</ele>
        <time>2022-03-21T11:44:05Z</time>
      </trkpt>
      <trkpt lat="46.97261" lon="5.26886">
        <ele>183.4</ele>
        <time>2022-03-21T11:44:06Z</time>
      </trkpt>
      <trkpt lat="46.97257" lon="5.26892">
        <ele>183.6</ele>
        <time>2022-03-21T11:44:07Z</time>
      </trkpt>
      <trkpt lat="46.97253" lon="5.26898">
        <ele>183.6</ele>
        <time>2022-03-21T11:44:08Z</time>
      </trkpt>
      <trkpt lat="46.97249" lon="5.26904">
        <ele>183.6</ele>
        <time>2022-03-21T11:44:09Z</time>
      </trkpt>
      <trkpt lat="46.97245" lon="5.2691">
        <ele>183.8</ele>
        <time>2022-03-21T11:44:10Z</time>
      </trkpt>
      <trkpt lat="46.97242" lon="5.26916">
        <ele>183.8</ele>
        <time>2022-03-21T11:44:11Z</time>
      </trkpt>
      <trkpt lat="46.97238" lon="5.26923">
        <ele>183.8</ele>
        <time>2022-03-21T11:44:12Z</time>
      </trkpt>
      <trkpt lat="46.97234" lon="5.26929">
        <ele>184.2</ele>
        <time>2022-03-21T11:44:13Z</time>
      </trkpt>
      <trkpt lat="46.97231" lon="5.26935">
        <ele>184.2</ele>
        <time>2022-03-21T11:44:14Z</time>
      </trkpt>
      <trkpt lat="46.97227" lon="5.26941">
        <ele>184.2</ele>
        <time>2022-03-21T11:44:15Z</time>
      </trkpt>
      <trkpt lat="46.97223" lon="5.26947">
        <ele>184.2</ele>
        <time>2022-03-21T11:44:16Z</time>
      </trkpt>
      <trkpt lat="46.97219" lon="5.26954">
        <ele>184.2</ele>
        <time>2022-03-21T11:44:17Z</time>
      </trkpt>
      <trkpt lat="46.97215" lon="5.2696">
        <ele>184.2</ele>
        <time>2022-03-21T11:44:18Z</time>
      </trkpt>
      <trkpt lat="46.97212" lon="5.26966">
        <ele>184.2</ele>
        <time>2022-03-21T11:44:19Z</time>
      </trkpt>
      <trkpt lat="46.97208" lon="5.26973">
        <ele>184.2</ele>
        <time>2022-03-21T11:44:20Z</time>
      </trkpt>
      <trkpt lat="46.97204" lon="5.26979">
        <ele>184.2</ele>
        <time>2022-03-21T11:44:21Z</time>
      </trkpt>
      <trkpt lat="46.972" lon="5.26985">
        <ele>184.2</ele>
        <time>2022-03-21T11:44:22Z</time>
      </trkpt>
      <trkpt lat="46.97196" lon="5.26992">
        <ele>184.2</ele>
        <time>2022-03-21T11:44:23Z</time>
      </trkpt>
      <trkpt lat="46.97192" lon="5.26998">
        <ele>184.2</ele>
        <time>2022-03-21T11:44:24Z</time>
      </trkpt>
      <trkpt lat="46.97188" lon="5.27005">
        <ele>184.2</ele>
        <time>2022-03-21T11:44:25Z</time>
      </trkpt>
      <trkpt lat="46.97184" lon="5.27011">
        <ele>183.8</ele>
        <time>2022-03-21T11:44:26Z</time>
      </trkpt>
      <trkpt lat="46.97179" lon="5.27018">
        <ele>183.6</ele>
        <time>2022-03-21T11:44:27Z</time>
      </trkpt>
      <trkpt lat="46.97175" lon="5.27025">
        <ele>183.6</ele>
        <time>2022-03-21T11:44:28Z</time>
      </trkpt>
      <trkpt lat="46.9717" lon="5.27031">
        <ele>183.6</ele>
        <time>2022-03-21T11:44:29Z</time>
      </trkpt>
      <trkpt lat="46.97165" lon="5.27037">
        <ele>183.4</ele>
        <time>2022-03-21T11:44:30Z</time>
      </trkpt>
      <trkpt lat="46.9716" lon="5.27043">
        <ele>183.4</ele>
        <time>2022-03-21T11:44:31Z</time>
      </trkpt>
      <trkpt lat="46.97154" lon="5.27049">
        <ele>183.4</ele>
        <time>2022-03-21T11:44:32Z</time>
      </trkpt>
      <trkpt lat="46.97149" lon="5.27053">
        <ele>183.4</ele>
        <time>2022-03-21T11:44:33Z</time>
      </trkpt>
      <trkpt lat="46.97143" lon="5.27058">
        <ele>183.2</ele>
        <time>2022-03-21T11:44:34Z</time>
      </trkpt>
      <trkpt lat="46.97137" lon="5.27061">
        <ele>183.2</ele>
        <time>2022-03-21T11:44:35Z</time>
      </trkpt>
      <trkpt lat="46.9713" lon="5.27064">
        <ele>183.2</ele>
        <time>2022-03-21T11:44:36Z</time>
      </trkpt>
      <trkpt lat="46.97124" lon="5.27066">
        <ele>183.2</ele>
        <time>2022-03-21T11:44:37Z</time>
      </trkpt>
      <trkpt lat="46.97117" lon="5.27068">
        <ele>183.2</ele>
        <time>2022-03-21T11:44:38Z</time>
      </trkpt>
      <trkpt lat="46.97111" lon="5.27068">
        <ele>183.2</ele>
        <time>2022-03-21T11:44:39Z</time>
      </trkpt>
      <trkpt lat="46.97104" lon="5.27067">
        <ele>183.2</ele>
        <time>2022-03-21T11:44:40Z</time>
      </trkpt>
      <trkpt lat="46.97098" lon="5.27066">
        <ele>183.2</ele>
        <time>2022-03-21T11:44:41Z</time>
      </trkpt>
      <trkpt lat="46.97092" lon="5.27064">
        <ele>183.2</ele>
        <time>2022-03-21T11:44:42Z</time>
      </trkpt>
      <trkpt lat="46.97086" lon="5.27062">
        <ele>183.2</ele>
        <time>2022-03-21T11:44:43Z</time>
      </trkpt>
      <trkpt lat="46.97079" lon="5.2706">
        <ele>183.2</ele>
        <time>2022-03-21T11:44:44Z</time>
      </trkpt>
      <trkpt lat="46.97073" lon="5.27057">
        <ele>183.2</ele>
        <time>2022-03-21T11:44:45Z</time>
      </trkpt>
      <trkpt lat="46.97067" lon="5.27055">
        <ele>183.2</ele>
        <time>2022-03-21T11:44:46Z</time>
      </trkpt>
      <trkpt lat="46.97061" lon="5.27053">
        <ele>183.2</ele>
        <time>2022-03-21T11:44:47Z</time>
      </trkpt>
      <trkpt lat="46.97055" lon="5.27052">
        <ele>183.2</ele>
        <time>2022-03-21T11:44:48Z</time>
      </trkpt>
      <trkpt lat="46.97049" lon="5.27051">
        <ele>182.8</ele>
        <time>2022-03-21T11:44:49Z</time>
      </trkpt>
      <trkpt lat="46.97043" lon="5.27051">
        <ele>182.8</ele>
        <time>2022-03-21T11:44:50Z</time>
      </trkpt>
      <trkpt lat="46.97037" lon="5.27051">
        <ele>182.8</ele>
        <time>2022-03-21T11:44:51Z</time>
      </trkpt>
      <trkpt lat="46.97031" lon="5.27052">
        <ele>182.8</ele>
        <time>2022-03-21T11:44:52Z</time>
      </trkpt>
      <trkpt lat="46.97025" lon="5.27054">
        <ele>182.6</ele>
        <time>2022-03-21T11:44:53Z</time>
      </trkpt>
      <trkpt lat="46.97019" lon="5.27056">
        <ele>182.6</ele>
        <time>2022-03-21T11:44:54Z</time>
      </trkpt>
      <trkpt lat="46.97013" lon="5.27059">
        <ele>182.6</ele>
        <time>2022-03-21T11:44:55Z</time>
      </trkpt>
      <trkpt lat="46.97008" lon="5.27062">
        <ele>182.6</ele>
        <time>2022-03-21T11:44:56Z</time>
      </trkpt>
      <trkpt lat="46.97002" lon="5.27065">
        <ele>182.4</ele>
        <time>2022-03-21T11:44:57Z</time>
      </trkpt>
      <trkpt lat="46.96997" lon="5.27068">
        <ele>182.4</ele>
        <time>2022-03-21T11:44:58Z</time>
      </trkpt>
      <trkpt lat="46.96991" lon="5.27071">
        <ele>182.4</ele>
        <time>2022-03-21T11:44:59Z</time>
      </trkpt>
      <trkpt lat="46.96986" lon="5.27074">
        <ele>182.4</ele>
        <time>2022-03-21T11:45:00Z</time>
      </trkpt>
      <trkpt lat="46.9698" lon="5.27077">
        <ele>182.4</ele>
        <time>2022-03-21T11:45:01Z</time>
      </trkpt>
      <trkpt lat="46.96975" lon="5.2708">
        <ele>182.4</ele>
        <time>2022-03-21T11:45:02Z</time>
      </trkpt>
      <trkpt lat="46.96969" lon="5.27083">
        <ele>182.4</ele>
        <time>2022-03-21T11:45:03Z</time>
      </trkpt>
      <trkpt lat="46.96963" lon="5.27085">
        <ele>182.4</ele>
        <time>2022-03-21T11:45:04Z</time>
      </trkpt>
      <trkpt lat="46.96958" lon="5.27087">
        <ele>182.4</ele>
        <time>2022-03-21T11:45:05Z</time>
      </trkpt>
      <trkpt lat="46.96952" lon="5.27089">
        <ele>182.4</ele>
        <time>2022-03-21T11:45:06Z</time>
      </trkpt>
      <trkpt lat="46.96947" lon="5.27091">
        <ele>182.2</ele>
        <time>2022-03-21T11:45:07Z</time>
      </trkpt>
      <trkpt lat="46.96941" lon="5.27093">
        <ele>182.2</ele>
        <time>2022-03-21T11:45:08Z</time>
      </trkpt>
      <trkpt lat="46.96935" lon="5.27095">
        <ele>182.2</ele>
        <time>2022-03-21T11:45:09Z</time>
      </trkpt>
      <trkpt lat="46.9693" lon="5.27096">
        <ele>182.2</ele>
        <time>2022-03-21T11:45:10Z</time>
      </trkpt>
      <trkpt lat="46.96924" lon="5.27098">
        <ele>182.2</ele>
        <time>2022-03-21T11:45:11Z</time>
      </trkpt>
      <trkpt lat="46.96919" lon="5.27099">
        <ele>182.2</ele>
        <time>2022-03-21T11:45:12Z</time>
      </trkpt>
      <trkpt lat="46.96913" lon="5.27099">
        <ele>182.2</ele>
        <time>2022-03-21T11:45:13Z</time>
      </trkpt>
      <trkpt lat="46.96907" lon="5.27099">
        <ele>182.2</ele>
        <time>2022-03-21T11:45:14Z</time>
      </trkpt>
      <trkpt lat="46.96902" lon="5.27099">
        <ele>182.2</ele>
        <time>2022-03-21T11:45:15Z</time>
      </trkpt>
      <trkpt lat="46.96896" lon="5.27099">
        <ele>182.2</ele>
        <time>2022-03-21T11:45:16Z</time>
      </trkpt>
      <trkpt lat="46.9689" lon="5.27098">
        <ele>182.2</ele>
        <time>2022-03-21T11:45:17Z</time>
      </trkpt>
      <trkpt lat="46.96885" lon="5.27098">
        <ele>182.2</ele>
        <time>2022-03-21T11:45:18Z</time>
      </trkpt>
      <trkpt lat="46.96879" lon="5.27097">
        <ele>182.2</ele>
        <time>2022-03-21T11:45:19Z</time>
      </trkpt>
      <trkpt lat="46.96874" lon="5.27096">
        <ele>182.2</ele>
        <time>2022-03-21T11:45:20Z</time>
      </trkpt>
      <trkpt lat="46.96868" lon="5.27095">
        <ele>182.2</ele>
        <time>2022-03-21T11:45:21Z</time>
      </trkpt>
      <trkpt lat="46.96863" lon="5.27094">
        <ele>182.2</ele>
        <time>2022-03-21T11:45:22Z</time>
      </trkpt>
      <trkpt lat="46.96857" lon="5.27094">
        <ele>182.4</ele>
        <time>2022-03-21T11:45:23Z</time>
      </trkpt>
      <trkpt lat="46.96852" lon="5.27093">
        <ele>182.4</ele>
        <time>2022-03-21T11:45:24Z</time>
      </trkpt>
      <trkpt lat="46.96846" lon="5.27093">
        <ele>182.4</ele>
        <time>2022-03-21T11:45:25Z</time>
      </trkpt>
      <trkpt lat="46.96841" lon="5.27093">
        <ele>182.4</ele>
        <time>2022-03-21T11:45:26Z</time>
      </trkpt>
      <trkpt lat="46.96835" lon="5.27092">
        <ele>182.4</ele>
        <time>2022-03-21T11:45:27Z</time>
      </trkpt>
      <trkpt lat="46.9683" lon="5.27092">
        <ele>182.4</ele>
        <time>2022-03-21T11:45:28Z</time>
      </trkpt>
      <trkpt lat="46.96824" lon="5.27093">
        <ele>182.4</ele>
        <time>2022-03-21T11:45:29Z</time>
      </trkpt>
      <trkpt lat="46.96819" lon="5.27093">
        <ele>182.4</ele>
        <time>2022-03-21T11:45:30Z</time>
      </trkpt>
      <trkpt lat="46.96813" lon="5.27094">
        <ele>182.4</ele>
        <time>2022-03-21T11:45:31Z</time>
      </trkpt>
      <trkpt lat="46.96808" lon="5.27095">
        <ele>182.4</ele>
        <time>2022-03-21T11:45:32Z</time>
      </trkpt>
      <trkpt lat="46.96802" lon="5.27096">
        <ele>182.4</ele>
        <time>2022-03-21T11:45:33Z</time>
      </trkpt>
      <trkpt lat="46.96796" lon="5.27098">
        <ele>182.4</ele>
        <time>2022-03-21T11:45:34Z</time>
      </trkpt>
      <trkpt lat="46.96791" lon="5.271">
        <ele>182.4</ele>
        <time>2022-03-21T11:45:35Z</time>
      </trkpt>
      <trkpt lat="46.96786" lon="5.27103">
        <ele>182.4</ele>
        <time>2022-03-21T11:45:36Z</time>
      </trkpt>
      <trkpt lat="46.9678" lon="5.27105">
        <ele>182.4</ele>
        <time>2022-03-21T11:45:37Z</time>
      </trkpt>
      <trkpt lat="46.96775" lon="5.27107">
        <ele>182.4</ele>
        <time>2022-03-21T11:45:39Z</time>
      </trkpt>
      <trkpt lat="46.96769" lon="5.2711">
        <ele>182.4</ele>
        <time>2022-03-21T11:45:40Z</time>
      </trkpt>
      <trkpt lat="46.96764" lon="5.27113">
        <ele>182.4</ele>
        <time>2022-03-21T11:45:41Z</time>
      </trkpt>
      <trkpt lat="46.96759" lon="5.27117">
        <ele>182.4</ele>
        <time>2022-03-21T11:45:42Z</time>
      </trkpt>
      <trkpt lat="46.96753" lon="5.2712">
        <ele>182.4</ele>
        <time>2022-03-21T11:45:43Z</time>
      </trkpt>
      <trkpt lat="46.96748" lon="5.27123">
        <ele>182.4</ele>
        <time>2022-03-21T11:45:44Z</time>
      </trkpt>
      <trkpt lat="46.96742" lon="5.27126">
        <ele>182.2</ele>
        <time>2022-03-21T11:45:45Z</time>
      </trkpt>
      <trkpt lat="46.96737" lon="5.27129">
        <ele>182.2</ele>
        <time>2022-03-21T11:45:46Z</time>
      </trkpt>
      <trkpt lat="46.96731" lon="5.27132">
        <ele>182.2</ele>
        <time>2022-03-21T11:45:47Z</time>
      </trkpt>
      <trkpt lat="46.96725" lon="5.27134">
        <ele>182.2</ele>
        <time>2022-03-21T11:45:48Z</time>
      </trkpt>
      <trkpt lat="46.96719" lon="5.27137">
        <ele>182.2</ele>
        <time>2022-03-21T11:45:49Z</time>
      </trkpt>
      <trkpt lat="46.96713" lon="5.27139">
        <ele>182.2</ele>
        <time>2022-03-21T11:45:50Z</time>
      </trkpt>
      <trkpt lat="46.96708" lon="5.27141">
        <ele>182.2</ele>
        <time>2022-03-21T11:45:51Z</time>
      </trkpt>
      <trkpt lat="46.96702" lon="5.27142">
        <ele>182.2</ele>
        <time>2022-03-21T11:45:52Z</time>
      </trkpt>
      <trkpt lat="46.96696" lon="5.27143">
        <ele>182.2</ele>
        <time>2022-03-21T11:45:53Z</time>
      </trkpt>
      <trkpt lat="46.9669" lon="5.27144">
        <ele>182.2</ele>
        <time>2022-03-21T11:45:54Z</time>
      </trkpt>
      <trkpt lat="46.96685" lon="5.27145">
        <ele>182.2</ele>
        <time>2022-03-21T11:45:55Z</time>
      </trkpt>
      <trkpt lat="46.96679" lon="5.27145">
        <ele>182.2</ele>
        <time>2022-03-21T11:45:56Z</time>
      </trkpt>
      <trkpt lat="46.96674" lon="5.27146">
        <ele>182.4</ele>
        <time>2022-03-21T11:45:57Z</time>
      </trkpt>
      <trkpt lat="46.96669" lon="5.27146">
        <ele>182.4</ele>
        <time>2022-03-21T11:45:58Z</time>
      </trkpt>
      <trkpt lat="46.96664" lon="5.27146">
        <ele>182.4</ele>
        <time>2022-03-21T11:45:59Z</time>
      </trkpt>
      <trkpt lat="46.96658" lon="5.27146">
        <ele>182.4</ele>
        <time>2022-03-21T11:46:00Z</time>
      </trkpt>
      <trkpt lat="46.96653" lon="5.27146">
        <ele>182.4</ele>
        <time>2022-03-21T11:46:01Z</time>
      </trkpt>
      <trkpt lat="46.96648" lon="5.27146">
        <ele>182.6</ele>
        <time>2022-03-21T11:46:02Z</time>
      </trkpt>
      <trkpt lat="46.96642" lon="5.27145">
        <ele>182.6</ele>
        <time>2022-03-21T11:46:03Z</time>
      </trkpt>
      <trkpt lat="46.96637" lon="5.27145">
        <ele>182.6</ele>
        <time>2022-03-21T11:46:04Z</time>
      </trkpt>
      <trkpt lat="46.96632" lon="5.27144">
        <ele>182.6</ele>
        <time>2022-03-21T11:46:05Z</time>
      </trkpt>
      <trkpt lat="46.96626" lon="5.27143">
        <ele>182.6</ele>
        <time>2022-03-21T11:46:06Z</time>
      </trkpt>
      <trkpt lat="46.9662" lon="5.27143">
        <ele>182.6</ele>
        <time>2022-03-21T11:46:07Z</time>
      </trkpt>
      <trkpt lat="46.96615" lon="5.27143">
        <ele>182.6</ele>
        <time>2022-03-21T11:46:08Z</time>
      </trkpt>
      <trkpt lat="46.96609" lon="5.27142">
        <ele>182.6</ele>
        <time>2022-03-21T11:46:09Z</time>
      </trkpt>
      <trkpt lat="46.96603" lon="5.27141">
        <ele>182.6</ele>
        <time>2022-03-21T11:46:10Z</time>
      </trkpt>
      <trkpt lat="46.96597" lon="5.27141">
        <ele>182.6</ele>
        <time>2022-03-21T11:46:11Z</time>
      </trkpt>
      <trkpt lat="46.96591" lon="5.27141">
        <ele>182.6</ele>
        <time>2022-03-21T11:46:12Z</time>
      </trkpt>
      <trkpt lat="46.96585" lon="5.27141">
        <ele>182.6</ele>
        <time>2022-03-21T11:46:13Z</time>
      </trkpt>
      <trkpt lat="46.96579" lon="5.2714">
        <ele>182.6</ele>
        <time>2022-03-21T11:46:14Z</time>
      </trkpt>
      <trkpt lat="46.96574" lon="5.2714">
        <ele>182.6</ele>
        <time>2022-03-21T11:46:15Z</time>
      </trkpt>
      <trkpt lat="46.96567" lon="5.2714">
        <ele>182.6</ele>
        <time>2022-03-21T11:46:16Z</time>
      </trkpt>
      <trkpt lat="46.96561" lon="5.2714">
        <ele>182.6</ele>
        <time>2022-03-21T11:46:17Z</time>
      </trkpt>
      <trkpt lat="46.96556" lon="5.2714">
        <ele>182.6</ele>
        <time>2022-03-21T11:46:18Z</time>
      </trkpt>
      <trkpt lat="46.9655" lon="5.2714">
        <ele>182.6</ele>
        <time>2022-03-21T11:46:19Z</time>
      </trkpt>
      <trkpt lat="46.96544" lon="5.2714">
        <ele>182.6</ele>
        <time>2022-03-21T11:46:20Z</time>
      </trkpt>
      <trkpt lat="46.96538" lon="5.27139">
        <ele>182.6</ele>
        <time>2022-03-21T11:46:21Z</time>
      </trkpt>
      <trkpt lat="46.96532" lon="5.27139">
        <ele>182.6</ele>
        <time>2022-03-21T11:46:22Z</time>
      </trkpt>
      <trkpt lat="46.96526" lon="5.27139">
        <ele>182.6</ele>
        <time>2022-03-21T11:46:23Z</time>
      </trkpt>
      <trkpt lat="46.9652" lon="5.2714">
        <ele>182.6</ele>
        <time>2022-03-21T11:46:24Z</time>
      </trkpt>
      <trkpt lat="46.96514" lon="5.2714">
        <ele>182.6</ele>
        <time>2022-03-21T11:46:25Z</time>
      </trkpt>
      <trkpt lat="46.96508" lon="5.2714">
        <ele>182.6</ele>
        <time>2022-03-21T11:46:26Z</time>
      </trkpt>
      <trkpt lat="46.96502" lon="5.2714">
        <ele>182.6</ele>
        <time>2022-03-21T11:46:27Z</time>
      </trkpt>
      <trkpt lat="46.96496" lon="5.2714">
        <ele>182.6</ele>
        <time>2022-03-21T11:46:28Z</time>
      </trkpt>
      <trkpt lat="46.9649" lon="5.2714">
        <ele>182.6</ele>
        <time>2022-03-21T11:46:29Z</time>
      </trkpt>
      <trkpt lat="46.96484" lon="5.2714">
        <ele>182.6</ele>
        <time>2022-03-21T11:46:30Z</time>
      </trkpt>
      <trkpt lat="46.96478" lon="5.2714">
        <ele>182.6</ele>
        <time>2022-03-21T11:46:31Z</time>
      </trkpt>
      <trkpt lat="46.96472" lon="5.2714">
        <ele>182.6</ele>
        <time>2022-03-21T11:46:32Z</time>
      </trkpt>
      <trkpt lat="46.96467" lon="5.27139">
        <ele>182.6</ele>
        <time>2022-03-21T11:46:33Z</time>
      </trkpt>
      <trkpt lat="46.96461" lon="5.27139">
        <ele>182.6</ele>
        <time>2022-03-21T11:46:34Z</time>
      </trkpt>
      <trkpt lat="46.96455" lon="5.27138">
        <ele>182.6</ele>
        <time>2022-03-21T11:46:35Z</time>
      </trkpt>
      <trkpt lat="46.9645" lon="5.27138">
        <ele>182.6</ele>
        <time>2022-03-21T11:46:36Z</time>
      </trkpt>
      <trkpt lat="46.96444" lon="5.27137">
        <ele>182.6</ele>
        <time>2022-03-21T11:46:37Z</time>
      </trkpt>
      <trkpt lat="46.96438" lon="5.27137">
        <ele>182.6</ele>
        <time>2022-03-21T11:46:38Z</time>
      </trkpt>
      <trkpt lat="46.96433" lon="5.27136">
        <ele>182.6</ele>
        <time>2022-03-21T11:46:39Z</time>
      </trkpt>
      <trkpt lat="46.96427" lon="5.27136">
        <ele>182.6</ele>
        <time>2022-03-21T11:46:40Z</time>
      </trkpt>
      <trkpt lat="46.96421" lon="5.27135">
        <ele>182.6</ele>
        <time>2022-03-21T11:46:41Z</time>
      </trkpt>
      <trkpt lat="46.96415" lon="5.27135">
        <ele>182.6</ele>
        <time>2022-03-21T11:46:42Z</time>
      </trkpt>
      <trkpt lat="46.9641" lon="5.27135">
        <ele>182.6</ele>
        <time>2022-03-21T11:46:43Z</time>
      </trkpt>
      <trkpt lat="46.96404" lon="5.27135">
        <ele>182.6</ele>
        <time>2022-03-21T11:46:44Z</time>
      </trkpt>
      <trkpt lat="46.96398" lon="5.27135">
        <ele>182.6</ele>
        <time>2022-03-21T11:46:45Z</time>
      </trkpt>
      <trkpt lat="46.96393" lon="5.27135">
        <ele>182.4</ele>
        <time>2022-03-21T11:46:46Z</time>
      </trkpt>
      <trkpt lat="46.96387" lon="5.27135">
        <ele>182.4</ele>
        <time>2022-03-21T11:46:47Z</time>
      </trkpt>
      <trkpt lat="46.96382" lon="5.27135">
        <ele>182.4</ele>
        <time>2022-03-21T11:46:48Z</time>
      </trkpt>
      <trkpt lat="46.96371" lon="5.27136">
        <ele>182.4</ele>
        <time>2022-03-21T11:46:49Z</time>
      </trkpt>
      <trkpt lat="46.96365" lon="5.27136">
        <ele>182.4</ele>
        <time>2022-03-21T11:46:50Z</time>
      </trkpt>
      <trkpt lat="46.9636" lon="5.27137">
        <ele>182.2</ele>
        <time>2022-03-21T11:46:51Z</time>
      </trkpt>
      <trkpt lat="46.96354" lon="5.27137">
        <ele>182.2</ele>
        <time>2022-03-21T11:46:52Z</time>
      </trkpt>
      <trkpt lat="46.96348" lon="5.27137">
        <ele>182.2</ele>
        <time>2022-03-21T11:46:53Z</time>
      </trkpt>
      <trkpt lat="46.96342" lon="5.27138">
        <ele>182.2</ele>
        <time>2022-03-21T11:46:54Z</time>
      </trkpt>
      <trkpt lat="46.96336" lon="5.27138">
        <ele>182.2</ele>
        <time>2022-03-21T11:46:55Z</time>
      </trkpt>
      <trkpt lat="46.96331" lon="5.27138">
        <ele>182</ele>
        <time>2022-03-21T11:46:56Z</time>
      </trkpt>
      <trkpt lat="46.96325" lon="5.27139">
        <ele>182</ele>
        <time>2022-03-21T11:46:57Z</time>
      </trkpt>
      <trkpt lat="46.96319" lon="5.27139">
        <ele>182</ele>
        <time>2022-03-21T11:46:58Z</time>
      </trkpt>
      <trkpt lat="46.96313" lon="5.27139">
        <ele>182</ele>
        <time>2022-03-21T11:46:59Z</time>
      </trkpt>
      <trkpt lat="46.96307" lon="5.2714">
        <ele>182</ele>
        <time>2022-03-21T11:47:00Z</time>
      </trkpt>
      <trkpt lat="46.96301" lon="5.2714">
        <ele>182</ele>
        <time>2022-03-21T11:47:01Z</time>
      </trkpt>
      <trkpt lat="46.96295" lon="5.2714">
        <ele>182</ele>
        <time>2022-03-21T11:47:02Z</time>
      </trkpt>
      <trkpt lat="46.96288" lon="5.2714">
        <ele>182</ele>
        <time>2022-03-21T11:47:03Z</time>
      </trkpt>
      <trkpt lat="46.96282" lon="5.27141">
        <ele>182</ele>
        <time>2022-03-21T11:47:04Z</time>
      </trkpt>
      <trkpt lat="46.96276" lon="5.27141">
        <ele>182</ele>
        <time>2022-03-21T11:47:05Z</time>
      </trkpt>
      <trkpt lat="46.9627" lon="5.27142">
        <ele>182</ele>
        <time>2022-03-21T11:47:06Z</time>
      </trkpt>
      <trkpt lat="46.96264" lon="5.27142">
        <ele>182</ele>
        <time>2022-03-21T11:47:07Z</time>
      </trkpt>
      <trkpt lat="46.96258" lon="5.27143">
        <ele>182</ele>
        <time>2022-03-21T11:47:08Z</time>
      </trkpt>
      <trkpt lat="46.96253" lon="5.27144">
        <ele>182</ele>
        <time>2022-03-21T11:47:09Z</time>
      </trkpt>
      <trkpt lat="46.96247" lon="5.27146">
        <ele>182</ele>
        <time>2022-03-21T11:47:10Z</time>
      </trkpt>
      <trkpt lat="46.96241" lon="5.27147">
        <ele>182</ele>
        <time>2022-03-21T11:47:11Z</time>
      </trkpt>
      <trkpt lat="46.96236" lon="5.2715">
        <ele>182</ele>
        <time>2022-03-21T11:47:12Z</time>
      </trkpt>
      <trkpt lat="46.96231" lon="5.27152">
        <ele>182</ele>
        <time>2022-03-21T11:47:13Z</time>
      </trkpt>
      <trkpt lat="46.96225" lon="5.27155">
        <ele>182</ele>
        <time>2022-03-21T11:47:14Z</time>
      </trkpt>
      <trkpt lat="46.9622" lon="5.27158">
        <ele>182</ele>
        <time>2022-03-21T11:47:15Z</time>
      </trkpt>
      <trkpt lat="46.96216" lon="5.27162">
        <ele>182</ele>
        <time>2022-03-21T11:47:16Z</time>
      </trkpt>
      <trkpt lat="46.96211" lon="5.27166">
        <ele>182</ele>
        <time>2022-03-21T11:47:17Z</time>
      </trkpt>
      <trkpt lat="46.96207" lon="5.2717">
        <ele>182</ele>
        <time>2022-03-21T11:47:18Z</time>
      </trkpt>
      <trkpt lat="46.96203" lon="5.27173">
        <ele>182</ele>
        <time>2022-03-21T11:47:19Z</time>
      </trkpt>
      <trkpt lat="46.96199" lon="5.27175">
        <ele>182</ele>
        <time>2022-03-21T11:47:20Z</time>
      </trkpt>
      <trkpt lat="46.96195" lon="5.27174">
        <ele>182</ele>
        <time>2022-03-21T11:47:21Z</time>
      </trkpt>
      <trkpt lat="46.96191" lon="5.27171">
        <ele>182</ele>
        <time>2022-03-21T11:47:22Z</time>
      </trkpt>
      <trkpt lat="46.96188" lon="5.27168">
        <ele>182.2</ele>
        <time>2022-03-21T11:47:23Z</time>
      </trkpt>
      <trkpt lat="46.96186" lon="5.27164">
        <ele>182.4</ele>
        <time>2022-03-21T11:47:24Z</time>
      </trkpt>
      <trkpt lat="46.96184" lon="5.2716">
        <ele>182.4</ele>
        <time>2022-03-21T11:47:25Z</time>
      </trkpt>
      <trkpt lat="46.96182" lon="5.27154">
        <ele>182.4</ele>
        <time>2022-03-21T11:47:26Z</time>
      </trkpt>
      <trkpt lat="46.96181" lon="5.27148">
        <ele>182.4</ele>
        <time>2022-03-21T11:47:27Z</time>
      </trkpt>
      <trkpt lat="46.9618" lon="5.27141">
        <ele>182.6</ele>
        <time>2022-03-21T11:47:28Z</time>
      </trkpt>
      <trkpt lat="46.96179" lon="5.27134">
        <ele>182.6</ele>
        <time>2022-03-21T11:47:29Z</time>
      </trkpt>
      <trkpt lat="46.96179" lon="5.27127">
        <ele>183</ele>
        <time>2022-03-21T11:47:30Z</time>
      </trkpt>
      <trkpt lat="46.96178" lon="5.2712">
        <ele>183</ele>
        <time>2022-03-21T11:47:31Z</time>
      </trkpt>
      <trkpt lat="46.96177" lon="5.27112">
        <ele>183.2</ele>
        <time>2022-03-21T11:47:32Z</time>
      </trkpt>
      <trkpt lat="46.96177" lon="5.27104">
        <ele>183.6</ele>
        <time>2022-03-21T11:47:33Z</time>
      </trkpt>
      <trkpt lat="46.96176" lon="5.27096">
        <ele>183.6</ele>
        <time>2022-03-21T11:47:34Z</time>
      </trkpt>
      <trkpt lat="46.96175" lon="5.27088">
        <ele>183.6</ele>
        <time>2022-03-21T11:47:35Z</time>
      </trkpt>
      <trkpt lat="46.96174" lon="5.2708">
        <ele>183.6</ele>
        <time>2022-03-21T11:47:36Z</time>
      </trkpt>
      <trkpt lat="46.96173" lon="5.27072">
        <ele>183.6</ele>
        <time>2022-03-21T11:47:37Z</time>
      </trkpt>
      <trkpt lat="46.96172" lon="5.27064">
        <ele>183.6</ele>
        <time>2022-03-21T11:47:38Z</time>
      </trkpt>
      <trkpt lat="46.96172" lon="5.27056">
        <ele>183.6</ele>
        <time>2022-03-21T11:47:39Z</time>
      </trkpt>
      <trkpt lat="46.96171" lon="5.27048">
        <ele>183.6</ele>
        <time>2022-03-21T11:47:40Z</time>
      </trkpt>
      <trkpt lat="46.9617" lon="5.27039">
        <ele>183.6</ele>
        <time>2022-03-21T11:47:41Z</time>
      </trkpt>
      <trkpt lat="46.96169" lon="5.27031">
        <ele>183.4</ele>
        <time>2022-03-21T11:47:42Z</time>
      </trkpt>
      <trkpt lat="46.96168" lon="5.27022">
        <ele>183.4</ele>
        <time>2022-03-21T11:47:43Z</time>
      </trkpt>
      <trkpt lat="46.96167" lon="5.27013">
        <ele>183.2</ele>
        <time>2022-03-21T11:47:44Z</time>
      </trkpt>
      <trkpt lat="46.96166" lon="5.27004">
        <ele>183.2</ele>
        <time>2022-03-21T11:47:45Z</time>
      </trkpt>
      <trkpt lat="46.96165" lon="5.26995">
        <ele>183.2</ele>
        <time>2022-03-21T11:47:46Z</time>
      </trkpt>
      <trkpt lat="46.96165" lon="5.26986">
        <ele>183.2</ele>
        <time>2022-03-21T11:47:47Z</time>
      </trkpt>
      <trkpt lat="46.96164" lon="5.26977">
        <ele>183.2</ele>
        <time>2022-03-21T11:47:48Z</time>
      </trkpt>
      <trkpt lat="46.96163" lon="5.26968">
        <ele>183.2</ele>
        <time>2022-03-21T11:47:49Z</time>
      </trkpt>
      <trkpt lat="46.96162" lon="5.26959">
        <ele>183.2</ele>
        <time>2022-03-21T11:47:50Z</time>
      </trkpt>
      <trkpt lat="46.96161" lon="5.2695">
        <ele>183.2</ele>
        <time>2022-03-21T11:47:51Z</time>
      </trkpt>
      <trkpt lat="46.9616" lon="5.2694">
        <ele>182.8</ele>
        <time>2022-03-21T11:47:52Z</time>
      </trkpt>
      <trkpt lat="46.96159" lon="5.26931">
        <ele>182.8</ele>
        <time>2022-03-21T11:47:53Z</time>
      </trkpt>
      <trkpt lat="46.96158" lon="5.26922">
        <ele>182.8</ele>
        <time>2022-03-21T11:47:54Z</time>
      </trkpt>
      <trkpt lat="46.96157" lon="5.26913">
        <ele>182.8</ele>
        <time>2022-03-21T11:47:55Z</time>
      </trkpt>
      <trkpt lat="46.96156" lon="5.26904">
        <ele>182.8</ele>
        <time>2022-03-21T11:47:56Z</time>
      </trkpt>
      <trkpt lat="46.96156" lon="5.26895">
        <ele>182.8</ele>
        <time>2022-03-21T11:47:57Z</time>
      </trkpt>
      <trkpt lat="46.96155" lon="5.26886">
        <ele>182.8</ele>
        <time>2022-03-21T11:47:58Z</time>
      </trkpt>
      <trkpt lat="46.96154" lon="5.26877">
        <ele>182.8</ele>
        <time>2022-03-21T11:47:59Z</time>
      </trkpt>
      <trkpt lat="46.96153" lon="5.26868">
        <ele>182.8</ele>
        <time>2022-03-21T11:48:00Z</time>
      </trkpt>
      <trkpt lat="46.96152" lon="5.2686">
        <ele>182.8</ele>
        <time>2022-03-21T11:48:01Z</time>
      </trkpt>
      <trkpt lat="46.96151" lon="5.26851">
        <ele>182.6</ele>
        <time>2022-03-21T11:48:02Z</time>
      </trkpt>
      <trkpt lat="46.9615" lon="5.26842">
        <ele>182.6</ele>
        <time>2022-03-21T11:48:03Z</time>
      </trkpt>
      <trkpt lat="46.96149" lon="5.26834">
        <ele>182.6</ele>
        <time>2022-03-21T11:48:04Z</time>
      </trkpt>
      <trkpt lat="46.96149" lon="5.26825">
        <ele>182.6</ele>
        <time>2022-03-21T11:48:05Z</time>
      </trkpt>
      <trkpt lat="46.96148" lon="5.26816">
        <ele>182.6</ele>
        <time>2022-03-21T11:48:06Z</time>
      </trkpt>
      <trkpt lat="46.96147" lon="5.26808">
        <ele>182.4</ele>
        <time>2022-03-21T11:48:07Z</time>
      </trkpt>
      <trkpt lat="46.96146" lon="5.26799">
        <ele>182.4</ele>
        <time>2022-03-21T11:48:08Z</time>
      </trkpt>
      <trkpt lat="46.96145" lon="5.26791">
        <ele>182.4</ele>
        <time>2022-03-21T11:48:09Z</time>
      </trkpt>
      <trkpt lat="46.96144" lon="5.26782">
        <ele>182.4</ele>
        <time>2022-03-21T11:48:10Z</time>
      </trkpt>
      <trkpt lat="46.96144" lon="5.26773">
        <ele>182.4</ele>
        <time>2022-03-21T11:48:11Z</time>
      </trkpt>
      <trkpt lat="46.96143" lon="5.26764">
        <ele>182.4</ele>
        <time>2022-03-21T11:48:12Z</time>
      </trkpt>
      <trkpt lat="46.96142" lon="5.26756">
        <ele>182.4</ele>
        <time>2022-03-21T11:48:13Z</time>
      </trkpt>
      <trkpt lat="46.96141" lon="5.26747">
        <ele>182.4</ele>
        <time>2022-03-21T11:48:14Z</time>
      </trkpt>
      <trkpt lat="46.9614" lon="5.26738">
        <ele>182.4</ele>
        <time>2022-03-21T11:48:15Z</time>
      </trkpt>
      <trkpt lat="46.96139" lon="5.2673">
        <ele>182.2</ele>
        <time>2022-03-21T11:48:16Z</time>
      </trkpt>
      <trkpt lat="46.96138" lon="5.26721">
        <ele>182.2</ele>
        <time>2022-03-21T11:48:17Z</time>
      </trkpt>
      <trkpt lat="46.96137" lon="5.26713">
        <ele>182.2</ele>
        <time>2022-03-21T11:48:18Z</time>
      </trkpt>
      <trkpt lat="46.96136" lon="5.26704">
        <ele>182.2</ele>
        <time>2022-03-21T11:48:19Z</time>
      </trkpt>
      <trkpt lat="46.96135" lon="5.26695">
        <ele>182.2</ele>
        <time>2022-03-21T11:48:20Z</time>
      </trkpt>
      <trkpt lat="46.96135" lon="5.26687">
        <ele>182</ele>
        <time>2022-03-21T11:48:21Z</time>
      </trkpt>
      <trkpt lat="46.96134" lon="5.26678">
        <ele>182</ele>
        <time>2022-03-21T11:48:22Z</time>
      </trkpt>
      <trkpt lat="46.96133" lon="5.26669">
        <ele>182</ele>
        <time>2022-03-21T11:48:23Z</time>
      </trkpt>
      <trkpt lat="46.96132" lon="5.2666">
        <ele>182</ele>
        <time>2022-03-21T11:48:24Z</time>
      </trkpt>
      <trkpt lat="46.96131" lon="5.26651">
        <ele>182</ele>
        <time>2022-03-21T11:48:25Z</time>
      </trkpt>
      <trkpt lat="46.9613" lon="5.26642">
        <ele>182</ele>
        <time>2022-03-21T11:48:26Z</time>
      </trkpt>
      <trkpt lat="46.96129" lon="5.26633">
        <ele>182</ele>
        <time>2022-03-21T11:48:27Z</time>
      </trkpt>
      <trkpt lat="46.96128" lon="5.26624">
        <ele>182</ele>
        <time>2022-03-21T11:48:28Z</time>
      </trkpt>
      <trkpt lat="46.96127" lon="5.26615">
        <ele>182</ele>
        <time>2022-03-21T11:48:29Z</time>
      </trkpt>
      <trkpt lat="46.96126" lon="5.26606">
        <ele>182</ele>
        <time>2022-03-21T11:48:30Z</time>
      </trkpt>
      <trkpt lat="46.96125" lon="5.26597">
        <ele>182</ele>
        <time>2022-03-21T11:48:31Z</time>
      </trkpt>
      <trkpt lat="46.96125" lon="5.26588">
        <ele>182</ele>
        <time>2022-03-21T11:48:32Z</time>
      </trkpt>
      <trkpt lat="46.96124" lon="5.26579">
        <ele>182</ele>
        <time>2022-03-21T11:48:33Z</time>
      </trkpt>
      <trkpt lat="46.96123" lon="5.2657">
        <ele>182</ele>
        <time>2022-03-21T11:48:34Z</time>
      </trkpt>
      <trkpt lat="46.96122" lon="5.26561">
        <ele>182</ele>
        <time>2022-03-21T11:48:35Z</time>
      </trkpt>
      <trkpt lat="46.96121" lon="5.26552">
        <ele>182</ele>
        <time>2022-03-21T11:48:36Z</time>
      </trkpt>
      <trkpt lat="46.96121" lon="5.26542">
        <ele>182.2</ele>
        <time>2022-03-21T11:48:37Z</time>
      </trkpt>
      <trkpt lat="46.9612" lon="5.26533">
        <ele>182.2</ele>
        <time>2022-03-21T11:48:38Z</time>
      </trkpt>
      <trkpt lat="46.96119" lon="5.26524">
        <ele>182.2</ele>
        <time>2022-03-21T11:48:39Z</time>
      </trkpt>
      <trkpt lat="46.96118" lon="5.26514">
        <ele>183</ele>
        <time>2022-03-21T11:48:40Z</time>
      </trkpt>
      <trkpt lat="46.96117" lon="5.26505">
        <ele>182.8</ele>
        <time>2022-03-21T11:48:41Z</time>
      </trkpt>
      <trkpt lat="46.96116" lon="5.26496">
        <ele>182.8</ele>
        <time>2022-03-21T11:48:42Z</time>
      </trkpt>
      <trkpt lat="46.96115" lon="5.26487">
        <ele>182.4</ele>
        <time>2022-03-21T11:48:43Z</time>
      </trkpt>
      <trkpt lat="46.96114" lon="5.26477">
        <ele>182.4</ele>
        <time>2022-03-21T11:48:44Z</time>
      </trkpt>
      <trkpt lat="46.96113" lon="5.26468">
        <ele>182.4</ele>
        <time>2022-03-21T11:48:45Z</time>
      </trkpt>
      <trkpt lat="46.96112" lon="5.26458">
        <ele>182.2</ele>
        <time>2022-03-21T11:48:46Z</time>
      </trkpt>
      <trkpt lat="46.96112" lon="5.26448">
        <ele>182.2</ele>
        <time>2022-03-21T11:48:47Z</time>
      </trkpt>
      <trkpt lat="46.96111" lon="5.26439">
        <ele>182.4</ele>
        <time>2022-03-21T11:48:48Z</time>
      </trkpt>
      <trkpt lat="46.9611" lon="5.26429">
        <ele>182.2</ele>
        <time>2022-03-21T11:48:49Z</time>
      </trkpt>
      <trkpt lat="46.96109" lon="5.26419">
        <ele>182</ele>
        <time>2022-03-21T11:48:50Z</time>
      </trkpt>
      <trkpt lat="46.96108" lon="5.26409">
        <ele>182</ele>
        <time>2022-03-21T11:48:51Z</time>
      </trkpt>
      <trkpt lat="46.96107" lon="5.264">
        <ele>182</ele>
        <time>2022-03-21T11:48:52Z</time>
      </trkpt>
      <trkpt lat="46.96105" lon="5.2639">
        <ele>182</ele>
        <time>2022-03-21T11:48:53Z</time>
      </trkpt>
      <trkpt lat="46.96104" lon="5.26379">
        <ele>182</ele>
        <time>2022-03-21T11:48:54Z</time>
      </trkpt>
      <trkpt lat="46.96103" lon="5.2637">
        <ele>182</ele>
        <time>2022-03-21T11:48:55Z</time>
      </trkpt>
      <trkpt lat="46.96102" lon="5.2636">
        <ele>182</ele>
        <time>2022-03-21T11:48:56Z</time>
      </trkpt>
      <trkpt lat="46.96102" lon="5.2635">
        <ele>182</ele>
        <time>2022-03-21T11:48:57Z</time>
      </trkpt>
      <trkpt lat="46.96101" lon="5.26341">
        <ele>182</ele>
        <time>2022-03-21T11:48:58Z</time>
      </trkpt>
      <trkpt lat="46.961" lon="5.26331">
        <ele>182.4</ele>
        <time>2022-03-21T11:48:59Z</time>
      </trkpt>
      <trkpt lat="46.96099" lon="5.26321">
        <ele>182.4</ele>
        <time>2022-03-21T11:49:00Z</time>
      </trkpt>
      <trkpt lat="46.96098" lon="5.26312">
        <ele>182.6</ele>
        <time>2022-03-21T11:49:01Z</time>
      </trkpt>
      <trkpt lat="46.96098" lon="5.26302">
        <ele>182.6</ele>
        <time>2022-03-21T11:49:02Z</time>
      </trkpt>
      <trkpt lat="46.96097" lon="5.26293">
        <ele>183</ele>
        <time>2022-03-21T11:49:03Z</time>
      </trkpt>
      <trkpt lat="46.96097" lon="5.26284">
        <ele>183</ele>
        <time>2022-03-21T11:49:04Z</time>
      </trkpt>
      <trkpt lat="46.96096" lon="5.26275">
        <ele>183.2</ele>
        <time>2022-03-21T11:49:05Z</time>
      </trkpt>
      <trkpt lat="46.96096" lon="5.26266">
        <ele>183.2</ele>
        <time>2022-03-21T11:49:06Z</time>
      </trkpt>
      <trkpt lat="46.96096" lon="5.26257">
        <ele>183.2</ele>
        <time>2022-03-21T11:49:07Z</time>
      </trkpt>
      <trkpt lat="46.96096" lon="5.26248">
        <ele>183.4</ele>
        <time>2022-03-21T11:49:08Z</time>
      </trkpt>
      <trkpt lat="46.96095" lon="5.26239">
        <ele>183.4</ele>
        <time>2022-03-21T11:49:09Z</time>
      </trkpt>
      <trkpt lat="46.96095" lon="5.26231">
        <ele>183.8</ele>
        <time>2022-03-21T11:49:10Z</time>
      </trkpt>
      <trkpt lat="46.96094" lon="5.26222">
        <ele>183.8</ele>
        <time>2022-03-21T11:49:11Z</time>
      </trkpt>
      <trkpt lat="46.96094" lon="5.26213">
        <ele>183.8</ele>
        <time>2022-03-21T11:49:12Z</time>
      </trkpt>
      <trkpt lat="46.96093" lon="5.26204">
        <ele>183.8</ele>
        <time>2022-03-21T11:49:13Z</time>
      </trkpt>
      <trkpt lat="46.96093" lon="5.26195">
        <ele>184</ele>
        <time>2022-03-21T11:49:14Z</time>
      </trkpt>
      <trkpt lat="46.96093" lon="5.26187">
        <ele>184</ele>
        <time>2022-03-21T11:49:15Z</time>
      </trkpt>
      <trkpt lat="46.96092" lon="5.26179">
        <ele>184</ele>
        <time>2022-03-21T11:49:16Z</time>
      </trkpt>
      <trkpt lat="46.96092" lon="5.26171">
        <ele>184.8</ele>
        <time>2022-03-21T11:49:17Z</time>
      </trkpt>
      <trkpt lat="46.96092" lon="5.26163">
        <ele>184.8</ele>
        <time>2022-03-21T11:49:18Z</time>
      </trkpt>
      <trkpt lat="46.96091" lon="5.26155">
        <ele>184.8</ele>
        <time>2022-03-21T11:49:19Z</time>
      </trkpt>
      <trkpt lat="46.96091" lon="5.26148">
        <ele>184.8</ele>
        <time>2022-03-21T11:49:20Z</time>
      </trkpt>
      <trkpt lat="46.96091" lon="5.2614">
        <ele>184.8</ele>
        <time>2022-03-21T11:49:21Z</time>
      </trkpt>
      <trkpt lat="46.96091" lon="5.26133">
        <ele>185</ele>
        <time>2022-03-21T11:49:22Z</time>
      </trkpt>
      <trkpt lat="46.9609" lon="5.26127">
        <ele>185.2</ele>
        <time>2022-03-21T11:49:23Z</time>
      </trkpt>
      <trkpt lat="46.9609" lon="5.2612">
        <ele>185.6</ele>
        <time>2022-03-21T11:49:24Z</time>
      </trkpt>
      <trkpt lat="46.9609" lon="5.26113">
        <ele>185.6</ele>
        <time>2022-03-21T11:49:25Z</time>
      </trkpt>
      <trkpt lat="46.9609" lon="5.26106">
        <ele>186</ele>
        <time>2022-03-21T11:49:26Z</time>
      </trkpt>
      <trkpt lat="46.96089" lon="5.261">
        <ele>186.2</ele>
        <time>2022-03-21T11:49:27Z</time>
      </trkpt>
      <trkpt lat="46.96089" lon="5.26093">
        <ele>186.4</ele>
        <time>2022-03-21T11:49:28Z</time>
      </trkpt>
      <trkpt lat="46.96089" lon="5.26086">
        <ele>186.8</ele>
        <time>2022-03-21T11:49:29Z</time>
      </trkpt>
      <trkpt lat="46.96089" lon="5.2608">
        <ele>187</ele>
        <time>2022-03-21T11:49:30Z</time>
      </trkpt>
      <trkpt lat="46.96088" lon="5.26073">
        <ele>187.2</ele>
        <time>2022-03-21T11:49:31Z</time>
      </trkpt>
      <trkpt lat="46.96088" lon="5.26067">
        <ele>187.2</ele>
        <time>2022-03-21T11:49:32Z</time>
      </trkpt>
      <trkpt lat="46.96088" lon="5.2606">
        <ele>187.6</ele>
        <time>2022-03-21T11:49:33Z</time>
      </trkpt>
      <trkpt lat="46.96088" lon="5.26053">
        <ele>188</ele>
        <time>2022-03-21T11:49:34Z</time>
      </trkpt>
      <trkpt lat="46.96088" lon="5.26046">
        <ele>188.2</ele>
        <time>2022-03-21T11:49:35Z</time>
      </trkpt>
      <trkpt lat="46.96087" lon="5.2604">
        <ele>188.4</ele>
        <time>2022-03-21T11:49:36Z</time>
      </trkpt>
      <trkpt lat="46.96087" lon="5.26033">
        <ele>188.6</ele>
        <time>2022-03-21T11:49:37Z</time>
      </trkpt>
      <trkpt lat="46.96087" lon="5.26026">
        <ele>188.8</ele>
        <time>2022-03-21T11:49:38Z</time>
      </trkpt>
      <trkpt lat="46.96087" lon="5.26018">
        <ele>189.2</ele>
        <time>2022-03-21T11:49:39Z</time>
      </trkpt>
      <trkpt lat="46.96086" lon="5.26011">
        <ele>189.2</ele>
        <time>2022-03-21T11:49:40Z</time>
      </trkpt>
      <trkpt lat="46.96086" lon="5.26004">
        <ele>189.6</ele>
        <time>2022-03-21T11:49:41Z</time>
      </trkpt>
      <trkpt lat="46.96086" lon="5.25997">
        <ele>189.6</ele>
        <time>2022-03-21T11:49:42Z</time>
      </trkpt>
      <trkpt lat="46.96086" lon="5.2599">
        <ele>189.8</ele>
        <time>2022-03-21T11:49:43Z</time>
      </trkpt>
      <trkpt lat="46.96085" lon="5.25983">
        <ele>189.8</ele>
        <time>2022-03-21T11:49:44Z</time>
      </trkpt>
      <trkpt lat="46.96085" lon="5.25976">
        <ele>190.2</ele>
        <time>2022-03-21T11:49:45Z</time>
      </trkpt>
      <trkpt lat="46.96085" lon="5.25968">
        <ele>190.2</ele>
        <time>2022-03-21T11:49:46Z</time>
      </trkpt>
      <trkpt lat="46.96085" lon="5.25961">
        <ele>190.2</ele>
        <time>2022-03-21T11:49:47Z</time>
      </trkpt>
      <trkpt lat="46.96085" lon="5.25954">
        <ele>190.2</ele>
        <time>2022-03-21T11:49:48Z</time>
      </trkpt>
      <trkpt lat="46.96084" lon="5.25947">
        <ele>190.4</ele>
        <time>2022-03-21T11:49:50Z</time>
      </trkpt>
      <trkpt lat="46.96084" lon="5.25939">
        <ele>190.4</ele>
        <time>2022-03-21T11:49:51Z</time>
      </trkpt>
      <trkpt lat="46.96084" lon="5.25932">
        <ele>190.6</ele>
        <time>2022-03-21T11:49:52Z</time>
      </trkpt>
      <trkpt lat="46.96084" lon="5.25925">
        <ele>190.6</ele>
        <time>2022-03-21T11:49:53Z</time>
      </trkpt>
      <trkpt lat="46.96083" lon="5.25917">
        <ele>190.6</ele>
        <time>2022-03-21T11:49:54Z</time>
      </trkpt>
      <trkpt lat="46.96083" lon="5.2591">
        <ele>190.6</ele>
        <time>2022-03-21T11:49:55Z</time>
      </trkpt>
      <trkpt lat="46.96083" lon="5.25903">
        <ele>191</ele>
        <time>2022-03-21T11:49:56Z</time>
      </trkpt>
      <trkpt lat="46.96083" lon="5.25896">
        <ele>191</ele>
        <time>2022-03-21T11:49:57Z</time>
      </trkpt>
      <trkpt lat="46.96082" lon="5.25888">
        <ele>191.2</ele>
        <time>2022-03-21T11:49:58Z</time>
      </trkpt>
      <trkpt lat="46.96082" lon="5.25881">
        <ele>191.2</ele>
        <time>2022-03-21T11:49:59Z</time>
      </trkpt>
      <trkpt lat="46.96082" lon="5.25874">
        <ele>191.2</ele>
        <time>2022-03-21T11:50:00Z</time>
      </trkpt>
      <trkpt lat="46.96082" lon="5.25867">
        <ele>191.2</ele>
        <time>2022-03-21T11:50:01Z</time>
      </trkpt>
      <trkpt lat="46.96081" lon="5.2586">
        <ele>191.4</ele>
        <time>2022-03-21T11:50:02Z</time>
      </trkpt>
      <trkpt lat="46.96081" lon="5.25853">
        <ele>191.4</ele>
        <time>2022-03-21T11:50:03Z</time>
      </trkpt>
      <trkpt lat="46.96081" lon="5.25845">
        <ele>191.6</ele>
        <time>2022-03-21T11:50:04Z</time>
      </trkpt>
      <trkpt lat="46.96081" lon="5.25838">
        <ele>191.6</ele>
        <time>2022-03-21T11:50:05Z</time>
      </trkpt>
      <trkpt lat="46.96081" lon="5.2583">
        <ele>191.6</ele>
        <time>2022-03-21T11:50:06Z</time>
      </trkpt>
      <trkpt lat="46.9608" lon="5.25823">
        <ele>191.6</ele>
        <time>2022-03-21T11:50:07Z</time>
      </trkpt>
      <trkpt lat="46.9608" lon="5.25815">
        <ele>191.6</ele>
        <time>2022-03-21T11:50:08Z</time>
      </trkpt>
      <trkpt lat="46.9608" lon="5.25807">
        <ele>191.8</ele>
        <time>2022-03-21T11:50:09Z</time>
      </trkpt>
      <trkpt lat="46.9608" lon="5.25799">
        <ele>191.8</ele>
        <time>2022-03-21T11:50:10Z</time>
      </trkpt>
      <trkpt lat="46.96079" lon="5.25791">
        <ele>191.8</ele>
        <time>2022-03-21T11:50:11Z</time>
      </trkpt>
      <trkpt lat="46.96079" lon="5.25783">
        <ele>192.4</ele>
        <time>2022-03-21T11:50:12Z</time>
      </trkpt>
      <trkpt lat="46.96079" lon="5.25775">
        <ele>192.2</ele>
        <time>2022-03-21T11:50:13Z</time>
      </trkpt>
      <trkpt lat="46.96079" lon="5.25767">
        <ele>192.2</ele>
        <time>2022-03-21T11:50:14Z</time>
      </trkpt>
      <trkpt lat="46.96078" lon="5.25759">
        <ele>192.2</ele>
        <time>2022-03-21T11:50:15Z</time>
      </trkpt>
      <trkpt lat="46.96078" lon="5.25751">
        <ele>192.2</ele>
        <time>2022-03-21T11:50:16Z</time>
      </trkpt>
      <trkpt lat="46.96078" lon="5.25743">
        <ele>191.8</ele>
        <time>2022-03-21T11:50:17Z</time>
      </trkpt>
      <trkpt lat="46.96077" lon="5.25735">
        <ele>191.8</ele>
        <time>2022-03-21T11:50:18Z</time>
      </trkpt>
      <trkpt lat="46.96077" lon="5.25726">
        <ele>191.8</ele>
        <time>2022-03-21T11:50:19Z</time>
      </trkpt>
      <trkpt lat="46.96077" lon="5.25718">
        <ele>191.6</ele>
        <time>2022-03-21T11:50:20Z</time>
      </trkpt>
      <trkpt lat="46.96077" lon="5.25709">
        <ele>191.6</ele>
        <time>2022-03-21T11:50:21Z</time>
      </trkpt>
      <trkpt lat="46.96076" lon="5.25701">
        <ele>191.6</ele>
        <time>2022-03-21T11:50:22Z</time>
      </trkpt>
      <trkpt lat="46.96076" lon="5.25692">
        <ele>191.4</ele>
        <time>2022-03-21T11:50:23Z</time>
      </trkpt>
      <trkpt lat="46.96076" lon="5.25683">
        <ele>191.4</ele>
        <time>2022-03-21T11:50:24Z</time>
      </trkpt>
      <trkpt lat="46.96076" lon="5.25674">
        <ele>191.4</ele>
        <time>2022-03-21T11:50:25Z</time>
      </trkpt>
      <trkpt lat="46.96075" lon="5.25665">
        <ele>191.4</ele>
        <time>2022-03-21T11:50:26Z</time>
      </trkpt>
      <trkpt lat="46.96075" lon="5.25656">
        <ele>191.2</ele>
        <time>2022-03-21T11:50:27Z</time>
      </trkpt>
      <trkpt lat="46.96075" lon="5.25647">
        <ele>191.2</ele>
        <time>2022-03-21T11:50:28Z</time>
      </trkpt>
      <trkpt lat="46.96074" lon="5.25637">
        <ele>191.2</ele>
        <time>2022-03-21T11:50:29Z</time>
      </trkpt>
      <trkpt lat="46.96074" lon="5.25628">
        <ele>191.2</ele>
        <time>2022-03-21T11:50:30Z</time>
      </trkpt>
      <trkpt lat="46.96074" lon="5.25618">
        <ele>190.8</ele>
        <time>2022-03-21T11:50:31Z</time>
      </trkpt>
      <trkpt lat="46.96073" lon="5.25608">
        <ele>190.6</ele>
        <time>2022-03-21T11:50:32Z</time>
      </trkpt>
      <trkpt lat="46.96073" lon="5.25598">
        <ele>190.6</ele>
        <time>2022-03-21T11:50:33Z</time>
      </trkpt>
      <trkpt lat="46.96073" lon="5.25588">
        <ele>190.4</ele>
        <time>2022-03-21T11:50:34Z</time>
      </trkpt>
      <trkpt lat="46.96072" lon="5.25578">
        <ele>190.4</ele>
        <time>2022-03-21T11:50:35Z</time>
      </trkpt>
      <trkpt lat="46.96072" lon="5.25567">
        <ele>190</ele>
        <time>2022-03-21T11:50:36Z</time>
      </trkpt>
      <trkpt lat="46.96072" lon="5.25557">
        <ele>189.6</ele>
        <time>2022-03-21T11:50:37Z</time>
      </trkpt>
      <trkpt lat="46.96071" lon="5.25546">
        <ele>189.4</ele>
        <time>2022-03-21T11:50:38Z</time>
      </trkpt>
      <trkpt lat="46.96071" lon="5.25535">
        <ele>189</ele>
        <time>2022-03-21T11:50:39Z</time>
      </trkpt>
      <trkpt lat="46.96071" lon="5.25524">
        <ele>188.6</ele>
        <time>2022-03-21T11:50:40Z</time>
      </trkpt>
      <trkpt lat="46.9607" lon="5.25512">
        <ele>188.4</ele>
        <time>2022-03-21T11:50:41Z</time>
      </trkpt>
      <trkpt lat="46.9607" lon="5.25501">
        <ele>188</ele>
        <time>2022-03-21T11:50:42Z</time>
      </trkpt>
      <trkpt lat="46.96069" lon="5.2549">
        <ele>187.8</ele>
        <time>2022-03-21T11:50:43Z</time>
      </trkpt>
      <trkpt lat="46.96069" lon="5.25478">
        <ele>187.6</ele>
        <time>2022-03-21T11:50:44Z</time>
      </trkpt>
      <trkpt lat="46.96069" lon="5.25467">
        <ele>187.2</ele>
        <time>2022-03-21T11:50:45Z</time>
      </trkpt>
      <trkpt lat="46.96068" lon="5.25456">
        <ele>187</ele>
        <time>2022-03-21T11:50:46Z</time>
      </trkpt>
      <trkpt lat="46.96068" lon="5.25444">
        <ele>186.6</ele>
        <time>2022-03-21T11:50:47Z</time>
      </trkpt>
      <trkpt lat="46.96067" lon="5.25433">
        <ele>186.4</ele>
        <time>2022-03-21T11:50:48Z</time>
      </trkpt>
      <trkpt lat="46.96067" lon="5.25422">
        <ele>186.2</ele>
        <time>2022-03-21T11:50:49Z</time>
      </trkpt>
      <trkpt lat="46.96067" lon="5.25411">
        <ele>186</ele>
        <time>2022-03-21T11:50:50Z</time>
      </trkpt>
      <trkpt lat="46.96066" lon="5.254">
        <ele>185.8</ele>
        <time>2022-03-21T11:50:51Z</time>
      </trkpt>
      <trkpt lat="46.96066" lon="5.25389">
        <ele>185.8</ele>
        <time>2022-03-21T11:50:52Z</time>
      </trkpt>
      <trkpt lat="46.96066" lon="5.25378">
        <ele>185.4</ele>
        <time>2022-03-21T11:50:53Z</time>
      </trkpt>
      <trkpt lat="46.96065" lon="5.25358">
        <ele>185.4</ele>
        <time>2022-03-21T11:50:54Z</time>
      </trkpt>
      <trkpt lat="46.96064" lon="5.25348">
        <ele>185.2</ele>
        <time>2022-03-21T11:50:55Z</time>
      </trkpt>
      <trkpt lat="46.96064" lon="5.25338">
        <ele>185.2</ele>
        <time>2022-03-21T11:50:56Z</time>
      </trkpt>
      <trkpt lat="46.96064" lon="5.25329">
        <ele>185.2</ele>
        <time>2022-03-21T11:50:57Z</time>
      </trkpt>
      <trkpt lat="46.96063" lon="5.2532">
        <ele>185.2</ele>
        <time>2022-03-21T11:50:58Z</time>
      </trkpt>
      <trkpt lat="46.96063" lon="5.25311">
        <ele>185.2</ele>
        <time>2022-03-21T11:50:59Z</time>
      </trkpt>
      <trkpt lat="46.96063" lon="5.25302">
        <ele>185.2</ele>
        <time>2022-03-21T11:51:00Z</time>
      </trkpt>
      <trkpt lat="46.96062" lon="5.25293">
        <ele>185</ele>
        <time>2022-03-21T11:51:01Z</time>
      </trkpt>
      <trkpt lat="46.96062" lon="5.25284">
        <ele>185</ele>
        <time>2022-03-21T11:51:02Z</time>
      </trkpt>
      <trkpt lat="46.96062" lon="5.25276">
        <ele>185</ele>
        <time>2022-03-21T11:51:03Z</time>
      </trkpt>
      <trkpt lat="46.96061" lon="5.25267">
        <ele>185</ele>
        <time>2022-03-21T11:51:04Z</time>
      </trkpt>
      <trkpt lat="46.96061" lon="5.25259">
        <ele>185</ele>
        <time>2022-03-21T11:51:05Z</time>
      </trkpt>
      <trkpt lat="46.96061" lon="5.25251">
        <ele>185</ele>
        <time>2022-03-21T11:51:06Z</time>
      </trkpt>
      <trkpt lat="46.96061" lon="5.25242">
        <ele>185</ele>
        <time>2022-03-21T11:51:07Z</time>
      </trkpt>
      <trkpt lat="46.9606" lon="5.25234">
        <ele>185</ele>
        <time>2022-03-21T11:51:08Z</time>
      </trkpt>
      <trkpt lat="46.9606" lon="5.25226">
        <ele>185</ele>
        <time>2022-03-21T11:51:09Z</time>
      </trkpt>
      <trkpt lat="46.9606" lon="5.25218">
        <ele>185</ele>
        <time>2022-03-21T11:51:10Z</time>
      </trkpt>
      <trkpt lat="46.96059" lon="5.2521">
        <ele>185</ele>
        <time>2022-03-21T11:51:11Z</time>
      </trkpt>
      <trkpt lat="46.96059" lon="5.25202">
        <ele>185</ele>
        <time>2022-03-21T11:51:12Z</time>
      </trkpt>
      <trkpt lat="46.96059" lon="5.25194">
        <ele>185</ele>
        <time>2022-03-21T11:51:13Z</time>
      </trkpt>
      <trkpt lat="46.96059" lon="5.25187">
        <ele>185.2</ele>
        <time>2022-03-21T11:51:14Z</time>
      </trkpt>
      <trkpt lat="46.96058" lon="5.25179">
        <ele>185.2</ele>
        <time>2022-03-21T11:51:15Z</time>
      </trkpt>
      <trkpt lat="46.96058" lon="5.25172">
        <ele>185.6</ele>
        <time>2022-03-21T11:51:16Z</time>
      </trkpt>
      <trkpt lat="46.96058" lon="5.25165">
        <ele>185.6</ele>
        <time>2022-03-21T11:51:17Z</time>
      </trkpt>
      <trkpt lat="46.96058" lon="5.25158">
        <ele>185.6</ele>
        <time>2022-03-21T11:51:18Z</time>
      </trkpt>
      <trkpt lat="46.96058" lon="5.25151">
        <ele>186</ele>
        <time>2022-03-21T11:51:19Z</time>
      </trkpt>
      <trkpt lat="46.96058" lon="5.25144">
        <ele>186.8</ele>
        <time>2022-03-21T11:51:20Z</time>
      </trkpt>
      <trkpt lat="46.96057" lon="5.25137">
        <ele>186.8</ele>
        <time>2022-03-21T11:51:21Z</time>
      </trkpt>
      <trkpt lat="46.96057" lon="5.2513">
        <ele>186.8</ele>
        <time>2022-03-21T11:51:22Z</time>
      </trkpt>
      <trkpt lat="46.96057" lon="5.25123">
        <ele>186.8</ele>
        <time>2022-03-21T11:51:23Z</time>
      </trkpt>
      <trkpt lat="46.96057" lon="5.25116">
        <ele>186.8</ele>
        <time>2022-03-21T11:51:24Z</time>
      </trkpt>
      <trkpt lat="46.96056" lon="5.25109">
        <ele>187</ele>
        <time>2022-03-21T11:51:25Z</time>
      </trkpt>
      <trkpt lat="46.96056" lon="5.25101">
        <ele>187</ele>
        <time>2022-03-21T11:51:26Z</time>
      </trkpt>
      <trkpt lat="46.96056" lon="5.25095">
        <ele>187.2</ele>
        <time>2022-03-21T11:51:27Z</time>
      </trkpt>
      <trkpt lat="46.96056" lon="5.25088">
        <ele>187.2</ele>
        <time>2022-03-21T11:51:28Z</time>
      </trkpt>
      <trkpt lat="46.96055" lon="5.25081">
        <ele>187.2</ele>
        <time>2022-03-21T11:51:29Z</time>
      </trkpt>
      <trkpt lat="46.96055" lon="5.25074">
        <ele>187.4</ele>
        <time>2022-03-21T11:51:30Z</time>
      </trkpt>
      <trkpt lat="46.96055" lon="5.25068">
        <ele>187.4</ele>
        <time>2022-03-21T11:51:31Z</time>
      </trkpt>
      <trkpt lat="46.96054" lon="5.25061">
        <ele>187.8</ele>
        <time>2022-03-21T11:51:32Z</time>
      </trkpt>
      <trkpt lat="46.96054" lon="5.25054">
        <ele>187.8</ele>
        <time>2022-03-21T11:51:33Z</time>
      </trkpt>
      <trkpt lat="46.96054" lon="5.25048">
        <ele>188</ele>
        <time>2022-03-21T11:51:34Z</time>
      </trkpt>
      <trkpt lat="46.96054" lon="5.25041">
        <ele>188</ele>
        <time>2022-03-21T11:51:35Z</time>
      </trkpt>
      <trkpt lat="46.96054" lon="5.25035">
        <ele>188.4</ele>
        <time>2022-03-21T11:51:36Z</time>
      </trkpt>
      <trkpt lat="46.96054" lon="5.25028">
        <ele>188.4</ele>
        <time>2022-03-21T11:51:37Z</time>
      </trkpt>
      <trkpt lat="46.96053" lon="5.25022">
        <ele>188.6</ele>
        <time>2022-03-21T11:51:38Z</time>
      </trkpt>
      <trkpt lat="46.96053" lon="5.25015">
        <ele>188.6</ele>
        <time>2022-03-21T11:51:39Z</time>
      </trkpt>
      <trkpt lat="46.96053" lon="5.25009">
        <ele>189</ele>
        <time>2022-03-21T11:51:40Z</time>
      </trkpt>
      <trkpt lat="46.96053" lon="5.25002">
        <ele>189</ele>
        <time>2022-03-21T11:51:41Z</time>
      </trkpt>
      <trkpt lat="46.96052" lon="5.24996">
        <ele>189</ele>
        <time>2022-03-21T11:51:42Z</time>
      </trkpt>
      <trkpt lat="46.96052" lon="5.24989">
        <ele>189.2</ele>
        <time>2022-03-21T11:51:43Z</time>
      </trkpt>
      <trkpt lat="46.96052" lon="5.24983">
        <ele>189.2</ele>
        <time>2022-03-21T11:51:44Z</time>
      </trkpt>
      <trkpt lat="46.96052" lon="5.24977">
        <ele>189.2</ele>
        <time>2022-03-21T11:51:45Z</time>
      </trkpt>
      <trkpt lat="46.96052" lon="5.2497">
        <ele>189.4</ele>
        <time>2022-03-21T11:51:46Z</time>
      </trkpt>
      <trkpt lat="46.96051" lon="5.24964">
        <ele>189.4</ele>
        <time>2022-03-21T11:51:47Z</time>
      </trkpt>
      <trkpt lat="46.96051" lon="5.24958">
        <ele>189.4</ele>
        <time>2022-03-21T11:51:48Z</time>
      </trkpt>
      <trkpt lat="46.96051" lon="5.24951">
        <ele>189.8</ele>
        <time>2022-03-21T11:51:49Z</time>
      </trkpt>
      <trkpt lat="46.96051" lon="5.24945">
        <ele>189.8</ele>
        <time>2022-03-21T11:51:50Z</time>
      </trkpt>
      <trkpt lat="46.96051" lon="5.24939">
        <ele>190</ele>
        <time>2022-03-21T11:51:51Z</time>
      </trkpt>
      <trkpt lat="46.9605" lon="5.24933">
        <ele>190</ele>
        <time>2022-03-21T11:51:52Z</time>
      </trkpt>
      <trkpt lat="46.9605" lon="5.24927">
        <ele>190.4</ele>
        <time>2022-03-21T11:51:53Z</time>
      </trkpt>
      <trkpt lat="46.9605" lon="5.2492">
        <ele>190.4</ele>
        <time>2022-03-21T11:51:54Z</time>
      </trkpt>
      <trkpt lat="46.9605" lon="5.24914">
        <ele>190.6</ele>
        <time>2022-03-21T11:51:55Z</time>
      </trkpt>
      <trkpt lat="46.9605" lon="5.24908">
        <ele>190.6</ele>
        <time>2022-03-21T11:51:56Z</time>
      </trkpt>
      <trkpt lat="46.96049" lon="5.24902">
        <ele>190.6</ele>
        <time>2022-03-21T11:51:57Z</time>
      </trkpt>
      <trkpt lat="46.96049" lon="5.24896">
        <ele>190.8</ele>
        <time>2022-03-21T11:51:58Z</time>
      </trkpt>
      <trkpt lat="46.96049" lon="5.2489">
        <ele>190.8</ele>
        <time>2022-03-21T11:51:59Z</time>
      </trkpt>
      <trkpt lat="46.96049" lon="5.24884">
        <ele>190.8</ele>
        <time>2022-03-21T11:52:00Z</time>
      </trkpt>
      <trkpt lat="46.96049" lon="5.24878">
        <ele>191.2</ele>
        <time>2022-03-21T11:52:01Z</time>
      </trkpt>
      <trkpt lat="46.96048" lon="5.24872">
        <ele>191.2</ele>
        <time>2022-03-21T11:52:02Z</time>
      </trkpt>
      <trkpt lat="46.96048" lon="5.24866">
        <ele>191.4</ele>
        <time>2022-03-21T11:52:03Z</time>
      </trkpt>
      <trkpt lat="46.96048" lon="5.2486">
        <ele>191.4</ele>
        <time>2022-03-21T11:52:04Z</time>
      </trkpt>
      <trkpt lat="46.96048" lon="5.24854">
        <ele>191.4</ele>
        <time>2022-03-21T11:52:05Z</time>
      </trkpt>
      <trkpt lat="46.96048" lon="5.24848">
        <ele>191.8</ele>
        <time>2022-03-21T11:52:06Z</time>
      </trkpt>
      <trkpt lat="46.96048" lon="5.24842">
        <ele>191.8</ele>
        <time>2022-03-21T11:52:07Z</time>
      </trkpt>
      <trkpt lat="46.96047" lon="5.24836">
        <ele>191.8</ele>
        <time>2022-03-21T11:52:08Z</time>
      </trkpt>
      <trkpt lat="46.96047" lon="5.2483">
        <ele>192</ele>
        <time>2022-03-21T11:52:09Z</time>
      </trkpt>
      <trkpt lat="46.96047" lon="5.24824">
        <ele>192</ele>
        <time>2022-03-21T11:52:10Z</time>
      </trkpt>
      <trkpt lat="46.96047" lon="5.24818">
        <ele>192</ele>
        <time>2022-03-21T11:52:11Z</time>
      </trkpt>
      <trkpt lat="46.96047" lon="5.24812">
        <ele>192</ele>
        <time>2022-03-21T11:52:12Z</time>
      </trkpt>
      <trkpt lat="46.96047" lon="5.24806">
        <ele>192</ele>
        <time>2022-03-21T11:52:13Z</time>
      </trkpt>
      <trkpt lat="46.96047" lon="5.248">
        <ele>191.8</ele>
        <time>2022-03-21T11:52:14Z</time>
      </trkpt>
      <trkpt lat="46.96047" lon="5.24794">
        <ele>192.8</ele>
        <time>2022-03-21T11:52:15Z</time>
      </trkpt>
      <trkpt lat="46.96047" lon="5.24788">
        <ele>192.6</ele>
        <time>2022-03-21T11:52:16Z</time>
      </trkpt>
      <trkpt lat="46.96047" lon="5.24782">
        <ele>192.6</ele>
        <time>2022-03-21T11:52:17Z</time>
      </trkpt>
      <trkpt lat="46.96046" lon="5.24776">
        <ele>192.4</ele>
        <time>2022-03-21T11:52:18Z</time>
      </trkpt>
      <trkpt lat="46.96044" lon="5.2477">
        <ele>192.4</ele>
        <time>2022-03-21T11:52:19Z</time>
      </trkpt>
      <trkpt lat="46.96042" lon="5.24764">
        <ele>192.4</ele>
        <time>2022-03-21T11:52:20Z</time>
      </trkpt>
      <trkpt lat="46.9604" lon="5.24757">
        <ele>192.4</ele>
        <time>2022-03-21T11:52:21Z</time>
      </trkpt>
      <trkpt lat="46.96039" lon="5.24751">
        <ele>192.4</ele>
        <time>2022-03-21T11:52:22Z</time>
      </trkpt>
      <trkpt lat="46.96039" lon="5.24744">
        <ele>192.4</ele>
        <time>2022-03-21T11:52:23Z</time>
      </trkpt>
      <trkpt lat="46.96038" lon="5.24738">
        <ele>192.4</ele>
        <time>2022-03-21T11:52:24Z</time>
      </trkpt>
      <trkpt lat="46.96035" lon="5.24733">
        <ele>192.4</ele>
        <time>2022-03-21T11:52:25Z</time>
      </trkpt>
      <trkpt lat="46.96031" lon="5.2473">
        <ele>192</ele>
        <time>2022-03-21T11:52:26Z</time>
      </trkpt>
      <trkpt lat="46.96027" lon="5.24728">
        <ele>192</ele>
        <time>2022-03-21T11:52:27Z</time>
      </trkpt>
      <trkpt lat="46.96022" lon="5.24728">
        <ele>192</ele>
        <time>2022-03-21T11:52:28Z</time>
      </trkpt>
      <trkpt lat="46.96017" lon="5.24728">
        <ele>191.6</ele>
        <time>2022-03-21T11:52:29Z</time>
      </trkpt>
      <trkpt lat="46.96011" lon="5.24729">
        <ele>191.6</ele>
        <time>2022-03-21T11:52:30Z</time>
      </trkpt>
      <trkpt lat="46.96004" lon="5.24729">
        <ele>191.2</ele>
        <time>2022-03-21T11:52:31Z</time>
      </trkpt>
      <trkpt lat="46.95998" lon="5.2473">
        <ele>191</ele>
        <time>2022-03-21T11:52:32Z</time>
      </trkpt>
      <trkpt lat="46.95991" lon="5.2473">
        <ele>190.6</ele>
        <time>2022-03-21T11:52:33Z</time>
      </trkpt>
      <trkpt lat="46.95985" lon="5.2473">
        <ele>190.4</ele>
        <time>2022-03-21T11:52:34Z</time>
      </trkpt>
      <trkpt lat="46.95978" lon="5.2473">
        <ele>190.2</ele>
        <time>2022-03-21T11:52:35Z</time>
      </trkpt>
      <trkpt lat="46.95971" lon="5.2473">
        <ele>189.8</ele>
        <time>2022-03-21T11:52:36Z</time>
      </trkpt>
      <trkpt lat="46.95964" lon="5.2473">
        <ele>189.4</ele>
        <time>2022-03-21T11:52:37Z</time>
      </trkpt>
      <trkpt lat="46.95956" lon="5.2473">
        <ele>189.2</ele>
        <time>2022-03-21T11:52:38Z</time>
      </trkpt>
      <trkpt lat="46.95949" lon="5.2473">
        <ele>189</ele>
        <time>2022-03-21T11:52:39Z</time>
      </trkpt>
      <trkpt lat="46.95941" lon="5.2473">
        <ele>188.6</ele>
        <time>2022-03-21T11:52:40Z</time>
      </trkpt>
      <trkpt lat="46.95934" lon="5.2473">
        <ele>188.6</ele>
        <time>2022-03-21T11:52:41Z</time>
      </trkpt>
      <trkpt lat="46.95926" lon="5.2473">
        <ele>188.2</ele>
        <time>2022-03-21T11:52:42Z</time>
      </trkpt>
      <trkpt lat="46.95918" lon="5.24731">
        <ele>188</ele>
        <time>2022-03-21T11:52:43Z</time>
      </trkpt>
      <trkpt lat="46.9591" lon="5.24731">
        <ele>188</ele>
        <time>2022-03-21T11:52:44Z</time>
      </trkpt>
      <trkpt lat="46.95903" lon="5.24731">
        <ele>187.6</ele>
        <time>2022-03-21T11:52:45Z</time>
      </trkpt>
      <trkpt lat="46.95895" lon="5.2473">
        <ele>187.6</ele>
        <time>2022-03-21T11:52:46Z</time>
      </trkpt>
      <trkpt lat="46.95888" lon="5.2473">
        <ele>187.4</ele>
        <time>2022-03-21T11:52:47Z</time>
      </trkpt>
      <trkpt lat="46.9588" lon="5.2473">
        <ele>187.4</ele>
        <time>2022-03-21T11:52:48Z</time>
      </trkpt>
      <trkpt lat="46.95873" lon="5.2473">
        <ele>187.2</ele>
        <time>2022-03-21T11:52:49Z</time>
      </trkpt>
      <trkpt lat="46.95866" lon="5.2473">
        <ele>187.2</ele>
        <time>2022-03-21T11:52:50Z</time>
      </trkpt>
      <trkpt lat="46.95859" lon="5.2473">
        <ele>187.2</ele>
        <time>2022-03-21T11:52:51Z</time>
      </trkpt>
      <trkpt lat="46.95852" lon="5.2473">
        <ele>187.2</ele>
        <time>2022-03-21T11:52:52Z</time>
      </trkpt>
      <trkpt lat="46.95846" lon="5.2473">
        <ele>186.8</ele>
        <time>2022-03-21T11:52:53Z</time>
      </trkpt>
      <trkpt lat="46.95839" lon="5.2473">
        <ele>186.8</ele>
        <time>2022-03-21T11:52:54Z</time>
      </trkpt>
      <trkpt lat="46.95833" lon="5.24729">
        <ele>186.8</ele>
        <time>2022-03-21T11:52:55Z</time>
      </trkpt>
      <trkpt lat="46.95827" lon="5.24728">
        <ele>186.8</ele>
        <time>2022-03-21T11:52:56Z</time>
      </trkpt>
      <trkpt lat="46.95821" lon="5.24727">
        <ele>186.8</ele>
        <time>2022-03-21T11:52:57Z</time>
      </trkpt>
      <trkpt lat="46.95815" lon="5.24725">
        <ele>186.8</ele>
        <time>2022-03-21T11:52:58Z</time>
      </trkpt>
      <trkpt lat="46.95809" lon="5.24722">
        <ele>186.8</ele>
        <time>2022-03-21T11:52:59Z</time>
      </trkpt>
      <trkpt lat="46.95804" lon="5.24718">
        <ele>186.8</ele>
        <time>2022-03-21T11:53:00Z</time>
      </trkpt>
      <trkpt lat="46.958" lon="5.24713">
        <ele>186.8</ele>
        <time>2022-03-21T11:53:01Z</time>
      </trkpt>
      <trkpt lat="46.95795" lon="5.24708">
        <ele>186.8</ele>
        <time>2022-03-21T11:53:02Z</time>
      </trkpt>
      <trkpt lat="46.95792" lon="5.24702">
        <ele>186.8</ele>
        <time>2022-03-21T11:53:03Z</time>
      </trkpt>
      <trkpt lat="46.95788" lon="5.24695">
        <ele>186.8</ele>
        <time>2022-03-21T11:53:04Z</time>
      </trkpt>
      <trkpt lat="46.95785" lon="5.24688">
        <ele>186.8</ele>
        <time>2022-03-21T11:53:05Z</time>
      </trkpt>
      <trkpt lat="46.95782" lon="5.24681">
        <ele>186.8</ele>
        <time>2022-03-21T11:53:06Z</time>
      </trkpt>
      <trkpt lat="46.9578" lon="5.24673">
        <ele>186.8</ele>
        <time>2022-03-21T11:53:07Z</time>
      </trkpt>
      <trkpt lat="46.95778" lon="5.24665">
        <ele>186.8</ele>
        <time>2022-03-21T11:53:08Z</time>
      </trkpt>
      <trkpt lat="46.95775" lon="5.24658">
        <ele>186.8</ele>
        <time>2022-03-21T11:53:09Z</time>
      </trkpt>
      <trkpt lat="46.95773" lon="5.24651">
        <ele>186.8</ele>
        <time>2022-03-21T11:53:10Z</time>
      </trkpt>
      <trkpt lat="46.9577" lon="5.24643">
        <ele>187.2</ele>
        <time>2022-03-21T11:53:11Z</time>
      </trkpt>
      <trkpt lat="46.95768" lon="5.24636">
        <ele>187.2</ele>
        <time>2022-03-21T11:53:12Z</time>
      </trkpt>
      <trkpt lat="46.95765" lon="5.2463">
        <ele>187.2</ele>
        <time>2022-03-21T11:53:13Z</time>
      </trkpt>
      <trkpt lat="46.95762" lon="5.24623">
        <ele>187.2</ele>
        <time>2022-03-21T11:53:14Z</time>
      </trkpt>
      <trkpt lat="46.9576" lon="5.24615">
        <ele>187.2</ele>
        <time>2022-03-21T11:53:15Z</time>
      </trkpt>
      <trkpt lat="46.95757" lon="5.24608">
        <ele>187.4</ele>
        <time>2022-03-21T11:53:16Z</time>
      </trkpt>
      <trkpt lat="46.95754" lon="5.24602">
        <ele>187.4</ele>
        <time>2022-03-21T11:53:17Z</time>
      </trkpt>
      <trkpt lat="46.95751" lon="5.24594">
        <ele>187.6</ele>
        <time>2022-03-21T11:53:18Z</time>
      </trkpt>
      <trkpt lat="46.95749" lon="5.24587">
        <ele>187.6</ele>
        <time>2022-03-21T11:53:19Z</time>
      </trkpt>
      <trkpt lat="46.95746" lon="5.2458">
        <ele>188</ele>
        <time>2022-03-21T11:53:20Z</time>
      </trkpt>
      <trkpt lat="46.95744" lon="5.24573">
        <ele>188</ele>
        <time>2022-03-21T11:53:21Z</time>
      </trkpt>
      <trkpt lat="46.95741" lon="5.24566">
        <ele>188</ele>
        <time>2022-03-21T11:53:22Z</time>
      </trkpt>
      <trkpt lat="46.95739" lon="5.24559">
        <ele>188</ele>
        <time>2022-03-21T11:53:23Z</time>
      </trkpt>
      <trkpt lat="46.95737" lon="5.24551">
        <ele>188.2</ele>
        <time>2022-03-21T11:53:24Z</time>
      </trkpt>
      <trkpt lat="46.95736" lon="5.24544">
        <ele>188.2</ele>
        <time>2022-03-21T11:53:25Z</time>
      </trkpt>
      <trkpt lat="46.95735" lon="5.24536">
        <ele>188.2</ele>
        <time>2022-03-21T11:53:26Z</time>
      </trkpt>
      <trkpt lat="46.95733" lon="5.24528">
        <ele>188.2</ele>
        <time>2022-03-21T11:53:27Z</time>
      </trkpt>
      <trkpt lat="46.95732" lon="5.24521">
        <ele>188.2</ele>
        <time>2022-03-21T11:53:28Z</time>
      </trkpt>
      <trkpt lat="46.9573" lon="5.24513">
        <ele>188.2</ele>
        <time>2022-03-21T11:53:29Z</time>
      </trkpt>
      <trkpt lat="46.95729" lon="5.24505">
        <ele>188.2</ele>
        <time>2022-03-21T11:53:30Z</time>
      </trkpt>
      <trkpt lat="46.95727" lon="5.24498">
        <ele>188.2</ele>
        <time>2022-03-21T11:53:31Z</time>
      </trkpt>
      <trkpt lat="46.95725" lon="5.24491">
        <ele>188.2</ele>
        <time>2022-03-21T11:53:32Z</time>
      </trkpt>
      <trkpt lat="46.95722" lon="5.24484">
        <ele>188.2</ele>
        <time>2022-03-21T11:53:33Z</time>
      </trkpt>
      <trkpt lat="46.95719" lon="5.24477">
        <ele>188.2</ele>
        <time>2022-03-21T11:53:34Z</time>
      </trkpt>
      <trkpt lat="46.95717" lon="5.2447">
        <ele>188.4</ele>
        <time>2022-03-21T11:53:35Z</time>
      </trkpt>
      <trkpt lat="46.95714" lon="5.24463">
        <ele>188.4</ele>
        <time>2022-03-21T11:53:36Z</time>
      </trkpt>
      <trkpt lat="46.95711" lon="5.24456">
        <ele>188.4</ele>
        <time>2022-03-21T11:53:37Z</time>
      </trkpt>
      <trkpt lat="46.95708" lon="5.24449">
        <ele>188.6</ele>
        <time>2022-03-21T11:53:38Z</time>
      </trkpt>
      <trkpt lat="46.95705" lon="5.24443">
        <ele>188.6</ele>
        <time>2022-03-21T11:53:39Z</time>
      </trkpt>
      <trkpt lat="46.95703" lon="5.24436">
        <ele>188.6</ele>
        <time>2022-03-21T11:53:40Z</time>
      </trkpt>
      <trkpt lat="46.957" lon="5.24429">
        <ele>188.8</ele>
        <time>2022-03-21T11:53:41Z</time>
      </trkpt>
      <trkpt lat="46.95698" lon="5.24423">
        <ele>188.8</ele>
        <time>2022-03-21T11:53:42Z</time>
      </trkpt>
      <trkpt lat="46.95695" lon="5.24416">
        <ele>189.2</ele>
        <time>2022-03-21T11:53:43Z</time>
      </trkpt>
      <trkpt lat="46.95692" lon="5.2441">
        <ele>189.2</ele>
        <time>2022-03-21T11:53:44Z</time>
      </trkpt>
      <trkpt lat="46.9569" lon="5.24404">
        <ele>189.4</ele>
        <time>2022-03-21T11:53:45Z</time>
      </trkpt>
      <trkpt lat="46.95687" lon="5.24398">
        <ele>189.6</ele>
        <time>2022-03-21T11:53:46Z</time>
      </trkpt>
      <trkpt lat="46.95684" lon="5.24392">
        <ele>189.6</ele>
        <time>2022-03-21T11:53:47Z</time>
      </trkpt>
      <trkpt lat="46.95682" lon="5.24386">
        <ele>189.6</ele>
        <time>2022-03-21T11:53:48Z</time>
      </trkpt>
      <trkpt lat="46.9568" lon="5.2438">
        <ele>190</ele>
        <time>2022-03-21T11:53:49Z</time>
      </trkpt>
      <trkpt lat="46.95677" lon="5.24374">
        <ele>190</ele>
        <time>2022-03-21T11:53:50Z</time>
      </trkpt>
      <trkpt lat="46.95675" lon="5.24368">
        <ele>190.4</ele>
        <time>2022-03-21T11:53:51Z</time>
      </trkpt>
      <trkpt lat="46.95672" lon="5.24363">
        <ele>190.4</ele>
        <time>2022-03-21T11:53:52Z</time>
      </trkpt>
      <trkpt lat="46.9567" lon="5.24358">
        <ele>190.6</ele>
        <time>2022-03-21T11:53:53Z</time>
      </trkpt>
      <trkpt lat="46.95667" lon="5.24352">
        <ele>190.6</ele>
        <time>2022-03-21T11:53:54Z</time>
      </trkpt>
      <trkpt lat="46.95664" lon="5.24347">
        <ele>190.8</ele>
        <time>2022-03-21T11:53:55Z</time>
      </trkpt>
      <trkpt lat="46.95662" lon="5.24342">
        <ele>190.8</ele>
        <time>2022-03-21T11:53:56Z</time>
      </trkpt>
      <trkpt lat="46.95659" lon="5.24336">
        <ele>191</ele>
        <time>2022-03-21T11:53:57Z</time>
      </trkpt>
      <trkpt lat="46.95657" lon="5.2433">
        <ele>191</ele>
        <time>2022-03-21T11:53:58Z</time>
      </trkpt>
      <trkpt lat="46.95655" lon="5.24324">
        <ele>191.4</ele>
        <time>2022-03-21T11:53:59Z</time>
      </trkpt>
      <trkpt lat="46.95653" lon="5.24319">
        <ele>191.4</ele>
        <time>2022-03-21T11:54:00Z</time>
      </trkpt>
      <trkpt lat="46.95651" lon="5.24313">
        <ele>191.6</ele>
        <time>2022-03-21T11:54:01Z</time>
      </trkpt>
      <trkpt lat="46.95649" lon="5.24308">
        <ele>191.6</ele>
        <time>2022-03-21T11:54:02Z</time>
      </trkpt>
      <trkpt lat="46.95647" lon="5.24303">
        <ele>192</ele>
        <time>2022-03-21T11:54:03Z</time>
      </trkpt>
      <trkpt lat="46.95645" lon="5.24299">
        <ele>192.2</ele>
        <time>2022-03-21T11:54:04Z</time>
      </trkpt>
      <trkpt lat="46.95643" lon="5.24293">
        <ele>192.2</ele>
        <time>2022-03-21T11:54:05Z</time>
      </trkpt>
      <trkpt lat="46.95641" lon="5.24288">
        <ele>192.4</ele>
        <time>2022-03-21T11:54:06Z</time>
      </trkpt>
      <trkpt lat="46.95639" lon="5.24283">
        <ele>192.4</ele>
        <time>2022-03-21T11:54:07Z</time>
      </trkpt>
      <trkpt lat="46.95637" lon="5.24277">
        <ele>192.4</ele>
        <time>2022-03-21T11:54:09Z</time>
      </trkpt>
      <trkpt lat="46.95635" lon="5.24271">
        <ele>192.6</ele>
        <time>2022-03-21T11:54:10Z</time>
      </trkpt>
      <trkpt lat="46.95633" lon="5.24266">
        <ele>192.6</ele>
        <time>2022-03-21T11:54:11Z</time>
      </trkpt>
      <trkpt lat="46.95631" lon="5.2426">
        <ele>192.8</ele>
        <time>2022-03-21T11:54:12Z</time>
      </trkpt>
      <trkpt lat="46.95629" lon="5.24254">
        <ele>192.8</ele>
        <time>2022-03-21T11:54:13Z</time>
      </trkpt>
      <trkpt lat="46.95627" lon="5.24248">
        <ele>192.8</ele>
        <time>2022-03-21T11:54:14Z</time>
      </trkpt>
      <trkpt lat="46.95625" lon="5.24243">
        <ele>192.8</ele>
        <time>2022-03-21T11:54:15Z</time>
      </trkpt>
      <trkpt lat="46.95623" lon="5.24237">
        <ele>193.2</ele>
        <time>2022-03-21T11:54:16Z</time>
      </trkpt>
      <trkpt lat="46.9562" lon="5.24231">
        <ele>193.2</ele>
        <time>2022-03-21T11:54:17Z</time>
      </trkpt>
      <trkpt lat="46.95618" lon="5.24225">
        <ele>193.2</ele>
        <time>2022-03-21T11:54:18Z</time>
      </trkpt>
      <trkpt lat="46.95616" lon="5.2422">
        <ele>193.2</ele>
        <time>2022-03-21T11:54:19Z</time>
      </trkpt>
      <trkpt lat="46.95613" lon="5.24214">
        <ele>193.2</ele>
        <time>2022-03-21T11:54:20Z</time>
      </trkpt>
      <trkpt lat="46.95611" lon="5.24209">
        <ele>193.2</ele>
        <time>2022-03-21T11:54:21Z</time>
      </trkpt>
      <trkpt lat="46.95608" lon="5.24204">
        <ele>193.2</ele>
        <time>2022-03-21T11:54:22Z</time>
      </trkpt>
      <trkpt lat="46.95604" lon="5.242">
        <ele>193.4</ele>
        <time>2022-03-21T11:54:23Z</time>
      </trkpt>
      <trkpt lat="46.95601" lon="5.24195">
        <ele>193.4</ele>
        <time>2022-03-21T11:54:24Z</time>
      </trkpt>
      <trkpt lat="46.95598" lon="5.2419">
        <ele>193.4</ele>
        <time>2022-03-21T11:54:25Z</time>
      </trkpt>
      <trkpt lat="46.95595" lon="5.24185">
        <ele>193.6</ele>
        <time>2022-03-21T11:54:26Z</time>
      </trkpt>
      <trkpt lat="46.95593" lon="5.2418">
        <ele>193.6</ele>
        <time>2022-03-21T11:54:27Z</time>
      </trkpt>
      <trkpt lat="46.9559" lon="5.24175">
        <ele>193.6</ele>
        <time>2022-03-21T11:54:28Z</time>
      </trkpt>
      <trkpt lat="46.95587" lon="5.2417">
        <ele>193.6</ele>
        <time>2022-03-21T11:54:29Z</time>
      </trkpt>
      <trkpt lat="46.95584" lon="5.24165">
        <ele>193.6</ele>
        <time>2022-03-21T11:54:30Z</time>
      </trkpt>
      <trkpt lat="46.95581" lon="5.2416">
        <ele>193.8</ele>
        <time>2022-03-21T11:54:31Z</time>
      </trkpt>
      <trkpt lat="46.95578" lon="5.24156">
        <ele>193.8</ele>
        <time>2022-03-21T11:54:32Z</time>
      </trkpt>
      <trkpt lat="46.95576" lon="5.24151">
        <ele>193.8</ele>
        <time>2022-03-21T11:54:33Z</time>
      </trkpt>
      <trkpt lat="46.95573" lon="5.24145">
        <ele>193.8</ele>
        <time>2022-03-21T11:54:34Z</time>
      </trkpt>
      <trkpt lat="46.95571" lon="5.2414">
        <ele>193.8</ele>
        <time>2022-03-21T11:54:35Z</time>
      </trkpt>
      <trkpt lat="46.95566" lon="5.24128">
        <ele>193.8</ele>
        <time>2022-03-21T11:54:36Z</time>
      </trkpt>
      <trkpt lat="46.95563" lon="5.24122">
        <ele>193.8</ele>
        <time>2022-03-21T11:54:37Z</time>
      </trkpt>
      <trkpt lat="46.9556" lon="5.24115">
        <ele>193.6</ele>
        <time>2022-03-21T11:54:38Z</time>
      </trkpt>
      <trkpt lat="46.95556" lon="5.24108">
        <ele>193.6</ele>
        <time>2022-03-21T11:54:39Z</time>
      </trkpt>
      <trkpt lat="46.95553" lon="5.24101">
        <ele>193.6</ele>
        <time>2022-03-21T11:54:40Z</time>
      </trkpt>
      <trkpt lat="46.95549" lon="5.24093">
        <ele>193.2</ele>
        <time>2022-03-21T11:54:41Z</time>
      </trkpt>
      <trkpt lat="46.95545" lon="5.24086">
        <ele>192.8</ele>
        <time>2022-03-21T11:54:42Z</time>
      </trkpt>
      <trkpt lat="46.95539" lon="5.24079">
        <ele>192.6</ele>
        <time>2022-03-21T11:54:43Z</time>
      </trkpt>
      <trkpt lat="46.95533" lon="5.24074">
        <ele>192.4</ele>
        <time>2022-03-21T11:54:44Z</time>
      </trkpt>
      <trkpt lat="46.95527" lon="5.24069">
        <ele>192</ele>
        <time>2022-03-21T11:54:45Z</time>
      </trkpt>
      <trkpt lat="46.9552" lon="5.24065">
        <ele>191.6</ele>
        <time>2022-03-21T11:54:46Z</time>
      </trkpt>
      <trkpt lat="46.95512" lon="5.24062">
        <ele>191.2</ele>
        <time>2022-03-21T11:54:47Z</time>
      </trkpt>
      <trkpt lat="46.95504" lon="5.2406">
        <ele>190.8</ele>
        <time>2022-03-21T11:54:48Z</time>
      </trkpt>
      <trkpt lat="46.95496" lon="5.24058">
        <ele>190.4</ele>
        <time>2022-03-21T11:54:49Z</time>
      </trkpt>
      <trkpt lat="46.95488" lon="5.24057">
        <ele>189.8</ele>
        <time>2022-03-21T11:54:50Z</time>
      </trkpt>
      <trkpt lat="46.95479" lon="5.24059">
        <ele>189.2</ele>
        <time>2022-03-21T11:54:51Z</time>
      </trkpt>
      <trkpt lat="46.9547" lon="5.24063">
        <ele>188.4</ele>
        <time>2022-03-21T11:54:52Z</time>
      </trkpt>
      <trkpt lat="46.95462" lon="5.24068">
        <ele>187.8</ele>
        <time>2022-03-21T11:54:53Z</time>
      </trkpt>
      <trkpt lat="46.95454" lon="5.24074">
        <ele>187.2</ele>
        <time>2022-03-21T11:54:54Z</time>
      </trkpt>
      <trkpt lat="46.95445" lon="5.24081">
        <ele>186.4</ele>
        <time>2022-03-21T11:54:55Z</time>
      </trkpt>
      <trkpt lat="46.95437" lon="5.24087">
        <ele>185.8</ele>
        <time>2022-03-21T11:54:56Z</time>
      </trkpt>
      <trkpt lat="46.95428" lon="5.24095">
        <ele>185.2</ele>
        <time>2022-03-21T11:54:57Z</time>
      </trkpt>
      <trkpt lat="46.95419" lon="5.24102">
        <ele>184.6</ele>
        <time>2022-03-21T11:54:58Z</time>
      </trkpt>
      <trkpt lat="46.9541" lon="5.2411">
        <ele>183.8</ele>
        <time>2022-03-21T11:54:59Z</time>
      </trkpt>
      <trkpt lat="46.95401" lon="5.24118">
        <ele>183.2</ele>
        <time>2022-03-21T11:55:00Z</time>
      </trkpt>
      <trkpt lat="46.95393" lon="5.24126">
        <ele>182.6</ele>
        <time>2022-03-21T11:55:01Z</time>
      </trkpt>
      <trkpt lat="46.95385" lon="5.24133">
        <ele>182</ele>
        <time>2022-03-21T11:55:02Z</time>
      </trkpt>
      <trkpt lat="46.95376" lon="5.24139">
        <ele>181.6</ele>
        <time>2022-03-21T11:55:03Z</time>
      </trkpt>
      <trkpt lat="46.95363" lon="5.2415">
        <ele>181.2</ele>
        <time>2022-03-21T11:55:04Z</time>
      </trkpt>
      <trkpt lat="46.95357" lon="5.24154">
        <ele>180.8</ele>
        <time>2022-03-21T11:55:05Z</time>
      </trkpt>
      <trkpt lat="46.95346" lon="5.24164">
        <ele>180.6</ele>
        <time>2022-03-21T11:55:06Z</time>
      </trkpt>
      <trkpt lat="46.9534" lon="5.24169">
        <ele>180.2</ele>
        <time>2022-03-21T11:55:07Z</time>
      </trkpt>
      <trkpt lat="46.95333" lon="5.24175">
        <ele>180.2</ele>
        <time>2022-03-21T11:55:08Z</time>
      </trkpt>
      <trkpt lat="46.95327" lon="5.2418">
        <ele>180.2</ele>
        <time>2022-03-21T11:55:09Z</time>
      </trkpt>
      <trkpt lat="46.9532" lon="5.24185">
        <ele>180.2</ele>
        <time>2022-03-21T11:55:10Z</time>
      </trkpt>
      <trkpt lat="46.95317" lon="5.24188">
        <ele>180.2</ele>
        <time>2022-03-21T11:55:11Z</time>
      </trkpt>
      <trkpt lat="46.95314" lon="5.2419">
        <ele>180.2</ele>
        <time>2022-03-21T11:55:12Z</time>
      </trkpt>
      <trkpt lat="46.95308" lon="5.24195">
        <ele>180.2</ele>
        <time>2022-03-21T11:55:13Z</time>
      </trkpt>
      <trkpt lat="46.95302" lon="5.24201">
        <ele>180.2</ele>
        <time>2022-03-21T11:55:14Z</time>
      </trkpt>
      <trkpt lat="46.95296" lon="5.24206">
        <ele>180.2</ele>
        <time>2022-03-21T11:55:15Z</time>
      </trkpt>
      <trkpt lat="46.9529" lon="5.24211">
        <ele>180.2</ele>
        <time>2022-03-21T11:55:16Z</time>
      </trkpt>
      <trkpt lat="46.95284" lon="5.24216">
        <ele>180.2</ele>
        <time>2022-03-21T11:55:17Z</time>
      </trkpt>
      <trkpt lat="46.95278" lon="5.24221">
        <ele>180.2</ele>
        <time>2022-03-21T11:55:18Z</time>
      </trkpt>
      <trkpt lat="46.95272" lon="5.24226">
        <ele>180.2</ele>
        <time>2022-03-21T11:55:19Z</time>
      </trkpt>
      <trkpt lat="46.95266" lon="5.24231">
        <ele>180.2</ele>
        <time>2022-03-21T11:55:20Z</time>
      </trkpt>
      <trkpt lat="46.9526" lon="5.24236">
        <ele>180.2</ele>
        <time>2022-03-21T11:55:21Z</time>
      </trkpt>
      <trkpt lat="46.95255" lon="5.24241">
        <ele>180</ele>
        <time>2022-03-21T11:55:22Z</time>
      </trkpt>
      <trkpt lat="46.95249" lon="5.24246">
        <ele>180</ele>
        <time>2022-03-21T11:55:23Z</time>
      </trkpt>
      <trkpt lat="46.95243" lon="5.24251">
        <ele>180</ele>
        <time>2022-03-21T11:55:24Z</time>
      </trkpt>
      <trkpt lat="46.95237" lon="5.24256">
        <ele>180</ele>
        <time>2022-03-21T11:55:25Z</time>
      </trkpt>
      <trkpt lat="46.95231" lon="5.24261">
        <ele>180.2</ele>
        <time>2022-03-21T11:55:26Z</time>
      </trkpt>
      <trkpt lat="46.95226" lon="5.24266">
        <ele>180.2</ele>
        <time>2022-03-21T11:55:27Z</time>
      </trkpt>
      <trkpt lat="46.9522" lon="5.2427">
        <ele>180.2</ele>
        <time>2022-03-21T11:55:28Z</time>
      </trkpt>
      <trkpt lat="46.95211" lon="5.24278">
        <ele>180.2</ele>
        <time>2022-03-21T11:55:29Z</time>
      </trkpt>
      <trkpt lat="46.95208" lon="5.2428">
        <ele>180.2</ele>
        <time>2022-03-21T11:55:30Z</time>
      </trkpt>
      <trkpt lat="46.95203" lon="5.24285">
        <ele>180.2</ele>
        <time>2022-03-21T11:55:31Z</time>
      </trkpt>
      <trkpt lat="46.95197" lon="5.2429">
        <ele>180.2</ele>
        <time>2022-03-21T11:55:32Z</time>
      </trkpt>
      <trkpt lat="46.95188" lon="5.24296">
        <ele>180.2</ele>
        <time>2022-03-21T11:55:33Z</time>
      </trkpt>
      <trkpt lat="46.95185" lon="5.24299">
        <ele>180.2</ele>
        <time>2022-03-21T11:55:34Z</time>
      </trkpt>
      <trkpt lat="46.95177" lon="5.24306">
        <ele>180.2</ele>
        <time>2022-03-21T11:55:35Z</time>
      </trkpt>
      <trkpt lat="46.95174" lon="5.24309">
        <ele>180.2</ele>
        <time>2022-03-21T11:55:36Z</time>
      </trkpt>
      <trkpt lat="46.95168" lon="5.24314">
        <ele>180.2</ele>
        <time>2022-03-21T11:55:37Z</time>
      </trkpt>
      <trkpt lat="46.95162" lon="5.24319">
        <ele>180.2</ele>
        <time>2022-03-21T11:55:38Z</time>
      </trkpt>
      <trkpt lat="46.95157" lon="5.24323">
        <ele>180.4</ele>
        <time>2022-03-21T11:55:39Z</time>
      </trkpt>
      <trkpt lat="46.95151" lon="5.24328">
        <ele>180.4</ele>
        <time>2022-03-21T11:55:40Z</time>
      </trkpt>
      <trkpt lat="46.95146" lon="5.24333">
        <ele>180.4</ele>
        <time>2022-03-21T11:55:41Z</time>
      </trkpt>
      <trkpt lat="46.95138" lon="5.2434">
        <ele>180.4</ele>
        <time>2022-03-21T11:55:42Z</time>
      </trkpt>
      <trkpt lat="46.95135" lon="5.24343">
        <ele>180.4</ele>
        <time>2022-03-21T11:55:43Z</time>
      </trkpt>
      <trkpt lat="46.95127" lon="5.24349">
        <ele>180.4</ele>
        <time>2022-03-21T11:55:44Z</time>
      </trkpt>
      <trkpt lat="46.95124" lon="5.24352">
        <ele>180.4</ele>
        <time>2022-03-21T11:55:45Z</time>
      </trkpt>
      <trkpt lat="46.95119" lon="5.24356">
        <ele>180.4</ele>
        <time>2022-03-21T11:55:46Z</time>
      </trkpt>
      <trkpt lat="46.95114" lon="5.24361">
        <ele>180.4</ele>
        <time>2022-03-21T11:55:47Z</time>
      </trkpt>
      <trkpt lat="46.95109" lon="5.24365">
        <ele>180.4</ele>
        <time>2022-03-21T11:55:48Z</time>
      </trkpt>
      <trkpt lat="46.95104" lon="5.24369">
        <ele>180.4</ele>
        <time>2022-03-21T11:55:49Z</time>
      </trkpt>
      <trkpt lat="46.95096" lon="5.24375">
        <ele>180.4</ele>
        <time>2022-03-21T11:55:50Z</time>
      </trkpt>
      <trkpt lat="46.95093" lon="5.24376">
        <ele>180.4</ele>
        <time>2022-03-21T11:55:51Z</time>
      </trkpt>
      <trkpt lat="46.95088" lon="5.2438">
        <ele>180.4</ele>
        <time>2022-03-21T11:55:52Z</time>
      </trkpt>
      <trkpt lat="46.95083" lon="5.24384">
        <ele>180.4</ele>
        <time>2022-03-21T11:55:53Z</time>
      </trkpt>
      <trkpt lat="46.95078" lon="5.24387">
        <ele>180.4</ele>
        <time>2022-03-21T11:55:54Z</time>
      </trkpt>
      <trkpt lat="46.95072" lon="5.24391">
        <ele>180.4</ele>
        <time>2022-03-21T11:55:55Z</time>
      </trkpt>
      <trkpt lat="46.95067" lon="5.24394">
        <ele>180.4</ele>
        <time>2022-03-21T11:55:56Z</time>
      </trkpt>
      <trkpt lat="46.95061" lon="5.24397">
        <ele>180.4</ele>
        <time>2022-03-21T11:55:57Z</time>
      </trkpt>
      <trkpt lat="46.95055" lon="5.244">
        <ele>180.4</ele>
        <time>2022-03-21T11:55:58Z</time>
      </trkpt>
      <trkpt lat="46.95049" lon="5.24404">
        <ele>180.4</ele>
        <time>2022-03-21T11:55:59Z</time>
      </trkpt>
      <trkpt lat="46.95044" lon="5.24407">
        <ele>180.4</ele>
        <time>2022-03-21T11:56:00Z</time>
      </trkpt>
      <trkpt lat="46.95038" lon="5.2441">
        <ele>180.4</ele>
        <time>2022-03-21T11:56:01Z</time>
      </trkpt>
      <trkpt lat="46.95033" lon="5.24413">
        <ele>180.4</ele>
        <time>2022-03-21T11:56:02Z</time>
      </trkpt>
      <trkpt lat="46.95027" lon="5.24416">
        <ele>180.4</ele>
        <time>2022-03-21T11:56:03Z</time>
      </trkpt>
      <trkpt lat="46.95022" lon="5.24419">
        <ele>180.4</ele>
        <time>2022-03-21T11:56:04Z</time>
      </trkpt>
      <trkpt lat="46.95014" lon="5.24423">
        <ele>180.4</ele>
        <time>2022-03-21T11:56:05Z</time>
      </trkpt>
      <trkpt lat="46.95011" lon="5.24425">
        <ele>180.4</ele>
        <time>2022-03-21T11:56:06Z</time>
      </trkpt>
      <trkpt lat="46.95003" lon="5.24429">
        <ele>180.4</ele>
        <time>2022-03-21T11:56:07Z</time>
      </trkpt>
      <trkpt lat="46.95" lon="5.2443">
        <ele>180.4</ele>
        <time>2022-03-21T11:56:08Z</time>
      </trkpt>
      <trkpt lat="46.94995" lon="5.24433">
        <ele>180.4</ele>
        <time>2022-03-21T11:56:09Z</time>
      </trkpt>
      <trkpt lat="46.9499" lon="5.24436">
        <ele>180.4</ele>
        <time>2022-03-21T11:56:10Z</time>
      </trkpt>
      <trkpt lat="46.94985" lon="5.24439">
        <ele>180.4</ele>
        <time>2022-03-21T11:56:11Z</time>
      </trkpt>
      <trkpt lat="46.9498" lon="5.24442">
        <ele>180.4</ele>
        <time>2022-03-21T11:56:12Z</time>
      </trkpt>
      <trkpt lat="46.94974" lon="5.24445">
        <ele>180.4</ele>
        <time>2022-03-21T11:56:13Z</time>
      </trkpt>
      <trkpt lat="46.94969" lon="5.24448">
        <ele>180.6</ele>
        <time>2022-03-21T11:56:14Z</time>
      </trkpt>
      <trkpt lat="46.94963" lon="5.24451">
        <ele>180.6</ele>
        <time>2022-03-21T11:56:15Z</time>
      </trkpt>
      <trkpt lat="46.94958" lon="5.24453">
        <ele>180.6</ele>
        <time>2022-03-21T11:56:16Z</time>
      </trkpt>
      <trkpt lat="46.94952" lon="5.24456">
        <ele>180.6</ele>
        <time>2022-03-21T11:56:17Z</time>
      </trkpt>
      <trkpt lat="46.94947" lon="5.24459">
        <ele>180.6</ele>
        <time>2022-03-21T11:56:18Z</time>
      </trkpt>
      <trkpt lat="46.94941" lon="5.24462">
        <ele>180.6</ele>
        <time>2022-03-21T11:56:19Z</time>
      </trkpt>
      <trkpt lat="46.94936" lon="5.24464">
        <ele>180.6</ele>
        <time>2022-03-21T11:56:20Z</time>
      </trkpt>
      <trkpt lat="46.9493" lon="5.24467">
        <ele>180.6</ele>
        <time>2022-03-21T11:56:21Z</time>
      </trkpt>
      <trkpt lat="46.94925" lon="5.2447">
        <ele>180.6</ele>
        <time>2022-03-21T11:56:22Z</time>
      </trkpt>
      <trkpt lat="46.94919" lon="5.24473">
        <ele>180.6</ele>
        <time>2022-03-21T11:56:23Z</time>
      </trkpt>
      <trkpt lat="46.94913" lon="5.24476">
        <ele>180.6</ele>
        <time>2022-03-21T11:56:24Z</time>
      </trkpt>
      <trkpt lat="46.94908" lon="5.24478">
        <ele>180.6</ele>
        <time>2022-03-21T11:56:25Z</time>
      </trkpt>
      <trkpt lat="46.94902" lon="5.24481">
        <ele>180.6</ele>
        <time>2022-03-21T11:56:26Z</time>
      </trkpt>
      <trkpt lat="46.94897" lon="5.24483">
        <ele>180.6</ele>
        <time>2022-03-21T11:56:27Z</time>
      </trkpt>
      <trkpt lat="46.94891" lon="5.24486">
        <ele>180.6</ele>
        <time>2022-03-21T11:56:28Z</time>
      </trkpt>
      <trkpt lat="46.94886" lon="5.24488">
        <ele>180.6</ele>
        <time>2022-03-21T11:56:29Z</time>
      </trkpt>
      <trkpt lat="46.9488" lon="5.24491">
        <ele>180.6</ele>
        <time>2022-03-21T11:56:30Z</time>
      </trkpt>
      <trkpt lat="46.94875" lon="5.24493">
        <ele>180.6</ele>
        <time>2022-03-21T11:56:31Z</time>
      </trkpt>
      <trkpt lat="46.94869" lon="5.24495">
        <ele>180.6</ele>
        <time>2022-03-21T11:56:32Z</time>
      </trkpt>
      <trkpt lat="46.94864" lon="5.24498">
        <ele>180.6</ele>
        <time>2022-03-21T11:56:33Z</time>
      </trkpt>
      <trkpt lat="46.94858" lon="5.245">
        <ele>180.6</ele>
        <time>2022-03-21T11:56:34Z</time>
      </trkpt>
      <trkpt lat="46.94853" lon="5.24502">
        <ele>180.6</ele>
        <time>2022-03-21T11:56:35Z</time>
      </trkpt>
      <trkpt lat="46.94847" lon="5.24504">
        <ele>180.6</ele>
        <time>2022-03-21T11:56:36Z</time>
      </trkpt>
      <trkpt lat="46.94842" lon="5.24506">
        <ele>181</ele>
        <time>2022-03-21T11:56:37Z</time>
      </trkpt>
      <trkpt lat="46.94836" lon="5.24508">
        <ele>181</ele>
        <time>2022-03-21T11:56:38Z</time>
      </trkpt>
      <trkpt lat="46.9483" lon="5.24509">
        <ele>181</ele>
        <time>2022-03-21T11:56:39Z</time>
      </trkpt>
      <trkpt lat="46.94824" lon="5.24511">
        <ele>181</ele>
        <time>2022-03-21T11:56:40Z</time>
      </trkpt>
      <trkpt lat="46.94819" lon="5.24512">
        <ele>181</ele>
        <time>2022-03-21T11:56:41Z</time>
      </trkpt>
      <trkpt lat="46.94813" lon="5.24513">
        <ele>181.2</ele>
        <time>2022-03-21T11:56:42Z</time>
      </trkpt>
      <trkpt lat="46.94807" lon="5.24514">
        <ele>181.2</ele>
        <time>2022-03-21T11:56:43Z</time>
      </trkpt>
      <trkpt lat="46.94801" lon="5.24515">
        <ele>181.2</ele>
        <time>2022-03-21T11:56:44Z</time>
      </trkpt>
      <trkpt lat="46.94795" lon="5.24516">
        <ele>181.2</ele>
        <time>2022-03-21T11:56:45Z</time>
      </trkpt>
      <trkpt lat="46.94789" lon="5.24516">
        <ele>181.2</ele>
        <time>2022-03-21T11:56:46Z</time>
      </trkpt>
      <trkpt lat="46.94784" lon="5.24516">
        <ele>181.2</ele>
        <time>2022-03-21T11:56:47Z</time>
      </trkpt>
      <trkpt lat="46.94775" lon="5.24515">
        <ele>181.2</ele>
        <time>2022-03-21T11:56:48Z</time>
      </trkpt>
      <trkpt lat="46.94772" lon="5.24515">
        <ele>181.2</ele>
        <time>2022-03-21T11:56:49Z</time>
      </trkpt>
      <trkpt lat="46.94766" lon="5.24515">
        <ele>181.2</ele>
        <time>2022-03-21T11:56:50Z</time>
      </trkpt>
      <trkpt lat="46.94761" lon="5.24514">
        <ele>181.2</ele>
        <time>2022-03-21T11:56:51Z</time>
      </trkpt>
      <trkpt lat="46.94755" lon="5.24513">
        <ele>181.2</ele>
        <time>2022-03-21T11:56:52Z</time>
      </trkpt>
      <trkpt lat="46.94744" lon="5.2451">
        <ele>181.2</ele>
        <time>2022-03-21T11:56:53Z</time>
      </trkpt>
      <trkpt lat="46.94738" lon="5.24509">
        <ele>181.2</ele>
        <time>2022-03-21T11:56:54Z</time>
      </trkpt>
      <trkpt lat="46.94733" lon="5.24507">
        <ele>181.2</ele>
        <time>2022-03-21T11:56:55Z</time>
      </trkpt>
      <trkpt lat="46.94727" lon="5.24506">
        <ele>181.2</ele>
        <time>2022-03-21T11:56:56Z</time>
      </trkpt>
      <trkpt lat="46.94721" lon="5.24504">
        <ele>181.2</ele>
        <time>2022-03-21T11:56:57Z</time>
      </trkpt>
      <trkpt lat="46.94716" lon="5.24502">
        <ele>181.2</ele>
        <time>2022-03-21T11:56:58Z</time>
      </trkpt>
      <trkpt lat="46.9471" lon="5.24501">
        <ele>181.2</ele>
        <time>2022-03-21T11:56:59Z</time>
      </trkpt>
      <trkpt lat="46.94704" lon="5.245">
        <ele>181.2</ele>
        <time>2022-03-21T11:57:00Z</time>
      </trkpt>
      <trkpt lat="46.94699" lon="5.24498">
        <ele>181.2</ele>
        <time>2022-03-21T11:57:01Z</time>
      </trkpt>
      <trkpt lat="46.94693" lon="5.24496">
        <ele>181.2</ele>
        <time>2022-03-21T11:57:02Z</time>
      </trkpt>
      <trkpt lat="46.94688" lon="5.24495">
        <ele>181.4</ele>
        <time>2022-03-21T11:57:03Z</time>
      </trkpt>
      <trkpt lat="46.94682" lon="5.24494">
        <ele>181.4</ele>
        <time>2022-03-21T11:57:04Z</time>
      </trkpt>
      <trkpt lat="46.94677" lon="5.24492">
        <ele>181.4</ele>
        <time>2022-03-21T11:57:05Z</time>
      </trkpt>
      <trkpt lat="46.94671" lon="5.24491">
        <ele>181.4</ele>
        <time>2022-03-21T11:57:06Z</time>
      </trkpt>
      <trkpt lat="46.94666" lon="5.24489">
        <ele>181.4</ele>
        <time>2022-03-21T11:57:07Z</time>
      </trkpt>
      <trkpt lat="46.94661" lon="5.24488">
        <ele>181.6</ele>
        <time>2022-03-21T11:57:09Z</time>
      </trkpt>
      <trkpt lat="46.94655" lon="5.24486">
        <ele>181.6</ele>
        <time>2022-03-21T11:57:10Z</time>
      </trkpt>
      <trkpt lat="46.9465" lon="5.24485">
        <ele>181.6</ele>
        <time>2022-03-21T11:57:11Z</time>
      </trkpt>
      <trkpt lat="46.94644" lon="5.24484">
        <ele>181.6</ele>
        <time>2022-03-21T11:57:12Z</time>
      </trkpt>
      <trkpt lat="46.94639" lon="5.24483">
        <ele>181.6</ele>
        <time>2022-03-21T11:57:13Z</time>
      </trkpt>
      <trkpt lat="46.94633" lon="5.24482">
        <ele>181.6</ele>
        <time>2022-03-21T11:57:14Z</time>
      </trkpt>
      <trkpt lat="46.94628" lon="5.24482">
        <ele>181.6</ele>
        <time>2022-03-21T11:57:15Z</time>
      </trkpt>
      <trkpt lat="46.94622" lon="5.24481">
        <ele>181.6</ele>
        <time>2022-03-21T11:57:16Z</time>
      </trkpt>
      <trkpt lat="46.94617" lon="5.2448">
        <ele>181.6</ele>
        <time>2022-03-21T11:57:17Z</time>
      </trkpt>
      <trkpt lat="46.94611" lon="5.2448">
        <ele>181.6</ele>
        <time>2022-03-21T11:57:18Z</time>
      </trkpt>
      <trkpt lat="46.94605" lon="5.24479">
        <ele>181.6</ele>
        <time>2022-03-21T11:57:19Z</time>
      </trkpt>
      <trkpt lat="46.946" lon="5.24479">
        <ele>181.6</ele>
        <time>2022-03-21T11:57:20Z</time>
      </trkpt>
      <trkpt lat="46.94594" lon="5.24478">
        <ele>181.6</ele>
        <time>2022-03-21T11:57:21Z</time>
      </trkpt>
      <trkpt lat="46.94588" lon="5.24478">
        <ele>181.6</ele>
        <time>2022-03-21T11:57:22Z</time>
      </trkpt>
      <trkpt lat="46.94582" lon="5.24477">
        <ele>181.6</ele>
        <time>2022-03-21T11:57:23Z</time>
      </trkpt>
      <trkpt lat="46.94577" lon="5.24477">
        <ele>181.6</ele>
        <time>2022-03-21T11:57:24Z</time>
      </trkpt>
      <trkpt lat="46.94571" lon="5.24476">
        <ele>181.6</ele>
        <time>2022-03-21T11:57:25Z</time>
      </trkpt>
      <trkpt lat="46.94565" lon="5.24476">
        <ele>181.6</ele>
        <time>2022-03-21T11:57:26Z</time>
      </trkpt>
      <trkpt lat="46.94559" lon="5.24475">
        <ele>181.6</ele>
        <time>2022-03-21T11:57:27Z</time>
      </trkpt>
      <trkpt lat="46.94553" lon="5.24475">
        <ele>181.6</ele>
        <time>2022-03-21T11:57:28Z</time>
      </trkpt>
      <trkpt lat="46.94547" lon="5.24475">
        <ele>181.6</ele>
        <time>2022-03-21T11:57:29Z</time>
      </trkpt>
      <trkpt lat="46.94542" lon="5.24474">
        <ele>181.6</ele>
        <time>2022-03-21T11:57:30Z</time>
      </trkpt>
      <trkpt lat="46.94536" lon="5.24474">
        <ele>181.6</ele>
        <time>2022-03-21T11:57:31Z</time>
      </trkpt>
      <trkpt lat="46.9453" lon="5.24473">
        <ele>181.6</ele>
        <time>2022-03-21T11:57:32Z</time>
      </trkpt>
      <trkpt lat="46.94524" lon="5.24473">
        <ele>181.6</ele>
        <time>2022-03-21T11:57:33Z</time>
      </trkpt>
      <trkpt lat="46.94519" lon="5.24472">
        <ele>181.6</ele>
        <time>2022-03-21T11:57:34Z</time>
      </trkpt>
      <trkpt lat="46.94513" lon="5.24472">
        <ele>181.6</ele>
        <time>2022-03-21T11:57:35Z</time>
      </trkpt>
      <trkpt lat="46.94507" lon="5.24471">
        <ele>181.6</ele>
        <time>2022-03-21T11:57:36Z</time>
      </trkpt>
      <trkpt lat="46.94502" lon="5.24471">
        <ele>181.6</ele>
        <time>2022-03-21T11:57:37Z</time>
      </trkpt>
      <trkpt lat="46.94496" lon="5.24471">
        <ele>181.6</ele>
        <time>2022-03-21T11:57:38Z</time>
      </trkpt>
      <trkpt lat="46.9449" lon="5.2447">
        <ele>181.6</ele>
        <time>2022-03-21T11:57:39Z</time>
      </trkpt>
      <trkpt lat="46.94484" lon="5.2447">
        <ele>181.6</ele>
        <time>2022-03-21T11:57:40Z</time>
      </trkpt>
      <trkpt lat="46.94478" lon="5.24469">
        <ele>181.6</ele>
        <time>2022-03-21T11:57:41Z</time>
      </trkpt>
      <trkpt lat="46.94473" lon="5.24469">
        <ele>181.6</ele>
        <time>2022-03-21T11:57:42Z</time>
      </trkpt>
      <trkpt lat="46.94467" lon="5.24468">
        <ele>181.6</ele>
        <time>2022-03-21T11:57:43Z</time>
      </trkpt>
      <trkpt lat="46.94461" lon="5.24467">
        <ele>181.6</ele>
        <time>2022-03-21T11:57:44Z</time>
      </trkpt>
      <trkpt lat="46.94452" lon="5.24467">
        <ele>181.6</ele>
        <time>2022-03-21T11:57:45Z</time>
      </trkpt>
      <trkpt lat="46.94449" lon="5.24466">
        <ele>181.6</ele>
        <time>2022-03-21T11:57:46Z</time>
      </trkpt>
      <trkpt lat="46.94444" lon="5.24466">
        <ele>181.6</ele>
        <time>2022-03-21T11:57:47Z</time>
      </trkpt>
      <trkpt lat="46.94438" lon="5.24466">
        <ele>181.6</ele>
        <time>2022-03-21T11:57:48Z</time>
      </trkpt>
      <trkpt lat="46.94432" lon="5.24465">
        <ele>181.6</ele>
        <time>2022-03-21T11:57:49Z</time>
      </trkpt>
      <trkpt lat="46.94427" lon="5.24465">
        <ele>181.6</ele>
        <time>2022-03-21T11:57:50Z</time>
      </trkpt>
      <trkpt lat="46.94421" lon="5.24464">
        <ele>181.6</ele>
        <time>2022-03-21T11:57:51Z</time>
      </trkpt>
      <trkpt lat="46.94415" lon="5.24464">
        <ele>181.6</ele>
        <time>2022-03-21T11:57:52Z</time>
      </trkpt>
      <trkpt lat="46.9441" lon="5.24463">
        <ele>181.6</ele>
        <time>2022-03-21T11:57:53Z</time>
      </trkpt>
      <trkpt lat="46.94404" lon="5.24463">
        <ele>181.6</ele>
        <time>2022-03-21T11:57:54Z</time>
      </trkpt>
      <trkpt lat="46.94398" lon="5.24462">
        <ele>181.6</ele>
        <time>2022-03-21T11:57:55Z</time>
      </trkpt>
      <trkpt lat="46.94393" lon="5.24462">
        <ele>181.6</ele>
        <time>2022-03-21T11:57:56Z</time>
      </trkpt>
      <trkpt lat="46.94388" lon="5.24461">
        <ele>181.6</ele>
        <time>2022-03-21T11:57:57Z</time>
      </trkpt>
      <trkpt lat="46.94382" lon="5.24461">
        <ele>181.4</ele>
        <time>2022-03-21T11:57:58Z</time>
      </trkpt>
      <trkpt lat="46.94377" lon="5.24461">
        <ele>181.4</ele>
        <time>2022-03-21T11:57:59Z</time>
      </trkpt>
      <trkpt lat="46.94372" lon="5.2446">
        <ele>181.4</ele>
        <time>2022-03-21T11:58:00Z</time>
      </trkpt>
      <trkpt lat="46.94366" lon="5.2446">
        <ele>181.4</ele>
        <time>2022-03-21T11:58:01Z</time>
      </trkpt>
      <trkpt lat="46.94361" lon="5.2446">
        <ele>181.4</ele>
        <time>2022-03-21T11:58:02Z</time>
      </trkpt>
      <trkpt lat="46.94355" lon="5.24459">
        <ele>181.4</ele>
        <time>2022-03-21T11:58:03Z</time>
      </trkpt>
      <trkpt lat="46.9435" lon="5.24459">
        <ele>181.4</ele>
        <time>2022-03-21T11:58:04Z</time>
      </trkpt>
      <trkpt lat="46.94344" lon="5.24458">
        <ele>181.4</ele>
        <time>2022-03-21T11:58:05Z</time>
      </trkpt>
      <trkpt lat="46.94339" lon="5.24458">
        <ele>181.4</ele>
        <time>2022-03-21T11:58:06Z</time>
      </trkpt>
      <trkpt lat="46.94333" lon="5.24457">
        <ele>181.4</ele>
        <time>2022-03-21T11:58:07Z</time>
      </trkpt>
      <trkpt lat="46.94327" lon="5.24456">
        <ele>181.4</ele>
        <time>2022-03-21T11:58:08Z</time>
      </trkpt>
      <trkpt lat="46.94322" lon="5.24455">
        <ele>181.4</ele>
        <time>2022-03-21T11:58:09Z</time>
      </trkpt>
      <trkpt lat="46.94316" lon="5.24455">
        <ele>181.4</ele>
        <time>2022-03-21T11:58:10Z</time>
      </trkpt>
      <trkpt lat="46.9431" lon="5.24454">
        <ele>181.4</ele>
        <time>2022-03-21T11:58:11Z</time>
      </trkpt>
      <trkpt lat="46.94304" lon="5.24453">
        <ele>181.4</ele>
        <time>2022-03-21T11:58:12Z</time>
      </trkpt>
      <trkpt lat="46.94298" lon="5.24451">
        <ele>181.4</ele>
        <time>2022-03-21T11:58:13Z</time>
      </trkpt>
      <trkpt lat="46.94292" lon="5.2445">
        <ele>181.4</ele>
        <time>2022-03-21T11:58:14Z</time>
      </trkpt>
      <trkpt lat="46.94286" lon="5.24448">
        <ele>181.4</ele>
        <time>2022-03-21T11:58:15Z</time>
      </trkpt>
      <trkpt lat="46.9428" lon="5.24446">
        <ele>181.4</ele>
        <time>2022-03-21T11:58:16Z</time>
      </trkpt>
      <trkpt lat="46.94275" lon="5.24445">
        <ele>181.4</ele>
        <time>2022-03-21T11:58:17Z</time>
      </trkpt>
      <trkpt lat="46.94269" lon="5.24443">
        <ele>181.4</ele>
        <time>2022-03-21T11:58:18Z</time>
      </trkpt>
      <trkpt lat="46.94263" lon="5.2444">
        <ele>181.4</ele>
        <time>2022-03-21T11:58:19Z</time>
      </trkpt>
      <trkpt lat="46.94257" lon="5.24438">
        <ele>181.2</ele>
        <time>2022-03-21T11:58:20Z</time>
      </trkpt>
      <trkpt lat="46.94251" lon="5.24435">
        <ele>181.2</ele>
        <time>2022-03-21T11:58:21Z</time>
      </trkpt>
      <trkpt lat="46.94246" lon="5.24433">
        <ele>181.2</ele>
        <time>2022-03-21T11:58:22Z</time>
      </trkpt>
      <trkpt lat="46.9424" lon="5.2443">
        <ele>181.2</ele>
        <time>2022-03-21T11:58:23Z</time>
      </trkpt>
      <trkpt lat="46.94234" lon="5.24428">
        <ele>181.2</ele>
        <time>2022-03-21T11:58:24Z</time>
      </trkpt>
      <trkpt lat="46.94228" lon="5.24425">
        <ele>181.2</ele>
        <time>2022-03-21T11:58:25Z</time>
      </trkpt>
      <trkpt lat="46.94223" lon="5.24423">
        <ele>181.2</ele>
        <time>2022-03-21T11:58:26Z</time>
      </trkpt>
      <trkpt lat="46.94217" lon="5.2442">
        <ele>181.2</ele>
        <time>2022-03-21T11:58:27Z</time>
      </trkpt>
      <trkpt lat="46.94211" lon="5.24418">
        <ele>181.2</ele>
        <time>2022-03-21T11:58:28Z</time>
      </trkpt>
      <trkpt lat="46.94206" lon="5.24416">
        <ele>181.2</ele>
        <time>2022-03-21T11:58:29Z</time>
      </trkpt>
      <trkpt lat="46.942" lon="5.24413">
        <ele>181.2</ele>
        <time>2022-03-21T11:58:30Z</time>
      </trkpt>
      <trkpt lat="46.94195" lon="5.24411">
        <ele>181.2</ele>
        <time>2022-03-21T11:58:31Z</time>
      </trkpt>
      <trkpt lat="46.9419" lon="5.24408">
        <ele>181.2</ele>
        <time>2022-03-21T11:58:32Z</time>
      </trkpt>
      <trkpt lat="46.94185" lon="5.24406">
        <ele>181.2</ele>
        <time>2022-03-21T11:58:33Z</time>
      </trkpt>
      <trkpt lat="46.9418" lon="5.24404">
        <ele>181.2</ele>
        <time>2022-03-21T11:58:34Z</time>
      </trkpt>
      <trkpt lat="46.94175" lon="5.24402">
        <ele>181.2</ele>
        <time>2022-03-21T11:58:35Z</time>
      </trkpt>
      <trkpt lat="46.9417" lon="5.244">
        <ele>181.2</ele>
        <time>2022-03-21T11:58:36Z</time>
      </trkpt>
      <trkpt lat="46.94165" lon="5.24397">
        <ele>181.2</ele>
        <time>2022-03-21T11:58:37Z</time>
      </trkpt>
      <trkpt lat="46.9416" lon="5.24395">
        <ele>181.2</ele>
        <time>2022-03-21T11:58:38Z</time>
      </trkpt>
      <trkpt lat="46.94155" lon="5.24393">
        <ele>181.2</ele>
        <time>2022-03-21T11:58:39Z</time>
      </trkpt>
      <trkpt lat="46.9415" lon="5.2439">
        <ele>181.2</ele>
        <time>2022-03-21T11:58:40Z</time>
      </trkpt>
      <trkpt lat="46.94145" lon="5.24388">
        <ele>181.2</ele>
        <time>2022-03-21T11:58:41Z</time>
      </trkpt>
      <trkpt lat="46.9414" lon="5.24386">
        <ele>181.2</ele>
        <time>2022-03-21T11:58:42Z</time>
      </trkpt>
      <trkpt lat="46.94135" lon="5.24384">
        <ele>181.2</ele>
        <time>2022-03-21T11:58:43Z</time>
      </trkpt>
      <trkpt lat="46.9413" lon="5.24381">
        <ele>181.4</ele>
        <time>2022-03-21T11:58:44Z</time>
      </trkpt>
      <trkpt lat="46.94125" lon="5.24379">
        <ele>181.4</ele>
        <time>2022-03-21T11:58:45Z</time>
      </trkpt>
      <trkpt lat="46.9412" lon="5.24377">
        <ele>181.4</ele>
        <time>2022-03-21T11:58:46Z</time>
      </trkpt>
      <trkpt lat="46.94115" lon="5.24375">
        <ele>181.4</ele>
        <time>2022-03-21T11:58:47Z</time>
      </trkpt>
      <trkpt lat="46.9411" lon="5.24372">
        <ele>181.4</ele>
        <time>2022-03-21T11:58:48Z</time>
      </trkpt>
      <trkpt lat="46.94105" lon="5.2437">
        <ele>181.4</ele>
        <time>2022-03-21T11:58:49Z</time>
      </trkpt>
      <trkpt lat="46.94099" lon="5.24367">
        <ele>181.4</ele>
        <time>2022-03-21T11:58:50Z</time>
      </trkpt>
      <trkpt lat="46.94094" lon="5.24365">
        <ele>181.4</ele>
        <time>2022-03-21T11:58:51Z</time>
      </trkpt>
      <trkpt lat="46.94089" lon="5.24363">
        <ele>181.4</ele>
        <time>2022-03-21T11:58:52Z</time>
      </trkpt>
      <trkpt lat="46.94084" lon="5.2436">
        <ele>181.4</ele>
        <time>2022-03-21T11:58:53Z</time>
      </trkpt>
      <trkpt lat="46.94079" lon="5.24358">
        <ele>181.4</ele>
        <time>2022-03-21T11:58:54Z</time>
      </trkpt>
      <trkpt lat="46.94074" lon="5.24356">
        <ele>181.4</ele>
        <time>2022-03-21T11:58:55Z</time>
      </trkpt>
      <trkpt lat="46.94068" lon="5.24354">
        <ele>181.4</ele>
        <time>2022-03-21T11:58:56Z</time>
      </trkpt>
      <trkpt lat="46.94063" lon="5.24352">
        <ele>181.6</ele>
        <time>2022-03-21T11:58:57Z</time>
      </trkpt>
      <trkpt lat="46.94053" lon="5.24347">
        <ele>181.6</ele>
        <time>2022-03-21T11:58:58Z</time>
      </trkpt>
      <trkpt lat="46.94048" lon="5.24345">
        <ele>181.6</ele>
        <time>2022-03-21T11:58:59Z</time>
      </trkpt>
      <trkpt lat="46.94043" lon="5.24343">
        <ele>181.6</ele>
        <time>2022-03-21T11:59:00Z</time>
      </trkpt>
      <trkpt lat="46.94037" lon="5.2434">
        <ele>181.6</ele>
        <time>2022-03-21T11:59:01Z</time>
      </trkpt>
      <trkpt lat="46.94032" lon="5.24338">
        <ele>181.6</ele>
        <time>2022-03-21T11:59:02Z</time>
      </trkpt>
      <trkpt lat="46.94027" lon="5.24336">
        <ele>181.6</ele>
        <time>2022-03-21T11:59:03Z</time>
      </trkpt>
      <trkpt lat="46.94021" lon="5.24334">
        <ele>181.6</ele>
        <time>2022-03-21T11:59:04Z</time>
      </trkpt>
      <trkpt lat="46.94016" lon="5.24331">
        <ele>181.6</ele>
        <time>2022-03-21T11:59:05Z</time>
      </trkpt>
      <trkpt lat="46.94011" lon="5.24328">
        <ele>181.6</ele>
        <time>2022-03-21T11:59:06Z</time>
      </trkpt>
      <trkpt lat="46.94005" lon="5.24326">
        <ele>181.6</ele>
        <time>2022-03-21T11:59:07Z</time>
      </trkpt>
      <trkpt lat="46.94" lon="5.24323">
        <ele>181.6</ele>
        <time>2022-03-21T11:59:08Z</time>
      </trkpt>
      <trkpt lat="46.93995" lon="5.2432">
        <ele>181.6</ele>
        <time>2022-03-21T11:59:09Z</time>
      </trkpt>
      <trkpt lat="46.9399" lon="5.24317">
        <ele>181.6</ele>
        <time>2022-03-21T11:59:10Z</time>
      </trkpt>
      <trkpt lat="46.93985" lon="5.24314">
        <ele>181.6</ele>
        <time>2022-03-21T11:59:11Z</time>
      </trkpt>
      <trkpt lat="46.9398" lon="5.24311">
        <ele>181.6</ele>
        <time>2022-03-21T11:59:12Z</time>
      </trkpt>
      <trkpt lat="46.93974" lon="5.24308">
        <ele>182</ele>
        <time>2022-03-21T11:59:13Z</time>
      </trkpt>
      <trkpt lat="46.9397" lon="5.24305">
        <ele>182</ele>
        <time>2022-03-21T11:59:14Z</time>
      </trkpt>
      <trkpt lat="46.93965" lon="5.24303">
        <ele>182</ele>
        <time>2022-03-21T11:59:15Z</time>
      </trkpt>
      <trkpt lat="46.9396" lon="5.243">
        <ele>182</ele>
        <time>2022-03-21T11:59:16Z</time>
      </trkpt>
      <trkpt lat="46.93955" lon="5.24297">
        <ele>182</ele>
        <time>2022-03-21T11:59:17Z</time>
      </trkpt>
      <trkpt lat="46.9395" lon="5.24294">
        <ele>182</ele>
        <time>2022-03-21T11:59:18Z</time>
      </trkpt>
      <trkpt lat="46.93945" lon="5.24292">
        <ele>182</ele>
        <time>2022-03-21T11:59:19Z</time>
      </trkpt>
      <trkpt lat="46.9394" lon="5.24289">
        <ele>182</ele>
        <time>2022-03-21T11:59:20Z</time>
      </trkpt>
      <trkpt lat="46.93935" lon="5.24285">
        <ele>182</ele>
        <time>2022-03-21T11:59:21Z</time>
      </trkpt>
      <trkpt lat="46.9393" lon="5.24282">
        <ele>182</ele>
        <time>2022-03-21T11:59:22Z</time>
      </trkpt>
      <trkpt lat="46.93924" lon="5.24279">
        <ele>182</ele>
        <time>2022-03-21T11:59:23Z</time>
      </trkpt>
      <trkpt lat="46.93919" lon="5.24276">
        <ele>182</ele>
        <time>2022-03-21T11:59:24Z</time>
      </trkpt>
      <trkpt lat="46.93914" lon="5.24273">
        <ele>181.8</ele>
        <time>2022-03-21T11:59:25Z</time>
      </trkpt>
      <trkpt lat="46.93908" lon="5.2427">
        <ele>181.8</ele>
        <time>2022-03-21T11:59:26Z</time>
      </trkpt>
      <trkpt lat="46.93903" lon="5.24267">
        <ele>181.8</ele>
        <time>2022-03-21T11:59:27Z</time>
      </trkpt>
      <trkpt lat="46.93897" lon="5.24265">
        <ele>181.8</ele>
        <time>2022-03-21T11:59:28Z</time>
      </trkpt>
      <trkpt lat="46.93892" lon="5.24262">
        <ele>181.8</ele>
        <time>2022-03-21T11:59:29Z</time>
      </trkpt>
      <trkpt lat="46.93887" lon="5.2426">
        <ele>181.8</ele>
        <time>2022-03-21T11:59:30Z</time>
      </trkpt>
      <trkpt lat="46.93881" lon="5.24258">
        <ele>181.8</ele>
        <time>2022-03-21T11:59:31Z</time>
      </trkpt>
      <trkpt lat="46.93876" lon="5.24256">
        <ele>181.8</ele>
        <time>2022-03-21T11:59:32Z</time>
      </trkpt>
      <trkpt lat="46.9387" lon="5.24254">
        <ele>181.8</ele>
        <time>2022-03-21T11:59:33Z</time>
      </trkpt>
      <trkpt lat="46.93864" lon="5.24252">
        <ele>181.8</ele>
        <time>2022-03-21T11:59:35Z</time>
      </trkpt>
      <trkpt lat="46.93859" lon="5.24251">
        <ele>181.8</ele>
        <time>2022-03-21T11:59:36Z</time>
      </trkpt>
      <trkpt lat="46.93853" lon="5.24249">
        <ele>181.8</ele>
        <time>2022-03-21T11:59:37Z</time>
      </trkpt>
      <trkpt lat="46.93847" lon="5.24248">
        <ele>181.8</ele>
        <time>2022-03-21T11:59:38Z</time>
      </trkpt>
      <trkpt lat="46.93841" lon="5.24248">
        <ele>181.8</ele>
        <time>2022-03-21T11:59:39Z</time>
      </trkpt>
      <trkpt lat="46.93836" lon="5.24247">
        <ele>181.8</ele>
        <time>2022-03-21T11:59:40Z</time>
      </trkpt>
      <trkpt lat="46.9383" lon="5.24247">
        <ele>181.6</ele>
        <time>2022-03-21T11:59:41Z</time>
      </trkpt>
      <trkpt lat="46.93824" lon="5.24246">
        <ele>181.6</ele>
        <time>2022-03-21T11:59:42Z</time>
      </trkpt>
      <trkpt lat="46.93818" lon="5.24246">
        <ele>181.6</ele>
        <time>2022-03-21T11:59:43Z</time>
      </trkpt>
      <trkpt lat="46.93812" lon="5.24246">
        <ele>181.6</ele>
        <time>2022-03-21T11:59:44Z</time>
      </trkpt>
      <trkpt lat="46.93806" lon="5.24246">
        <ele>181.6</ele>
        <time>2022-03-21T11:59:45Z</time>
      </trkpt>
      <trkpt lat="46.938" lon="5.24247">
        <ele>181.6</ele>
        <time>2022-03-21T11:59:46Z</time>
      </trkpt>
      <trkpt lat="46.93794" lon="5.24247">
        <ele>181.6</ele>
        <time>2022-03-21T11:59:47Z</time>
      </trkpt>
      <trkpt lat="46.93788" lon="5.24247">
        <ele>181.4</ele>
        <time>2022-03-21T11:59:48Z</time>
      </trkpt>
      <trkpt lat="46.93782" lon="5.24248">
        <ele>181.4</ele>
        <time>2022-03-21T11:59:49Z</time>
      </trkpt>
      <trkpt lat="46.93777" lon="5.24248">
        <ele>181.4</ele>
        <time>2022-03-21T11:59:50Z</time>
      </trkpt>
      <trkpt lat="46.93771" lon="5.24249">
        <ele>181.4</ele>
        <time>2022-03-21T11:59:51Z</time>
      </trkpt>
      <trkpt lat="46.93766" lon="5.2425">
        <ele>181.4</ele>
        <time>2022-03-21T11:59:52Z</time>
      </trkpt>
      <trkpt lat="46.9376" lon="5.2425">
        <ele>181.2</ele>
        <time>2022-03-21T11:59:53Z</time>
      </trkpt>
      <trkpt lat="46.93755" lon="5.24251">
        <ele>181.2</ele>
        <time>2022-03-21T11:59:54Z</time>
      </trkpt>
      <trkpt lat="46.93749" lon="5.24252">
        <ele>181.2</ele>
        <time>2022-03-21T11:59:55Z</time>
      </trkpt>
      <trkpt lat="46.93743" lon="5.24253">
        <ele>181.2</ele>
        <time>2022-03-21T11:59:56Z</time>
      </trkpt>
      <trkpt lat="46.93738" lon="5.24254">
        <ele>181.2</ele>
        <time>2022-03-21T11:59:57Z</time>
      </trkpt>
      <trkpt lat="46.93732" lon="5.24255">
        <ele>181.2</ele>
        <time>2022-03-21T11:59:58Z</time>
      </trkpt>
      <trkpt lat="46.93727" lon="5.24255">
        <ele>181.2</ele>
        <time>2022-03-21T11:59:59Z</time>
      </trkpt>
      <trkpt lat="46.93721" lon="5.24256">
        <ele>181.2</ele>
        <time>2022-03-21T12:00:00Z</time>
      </trkpt>
      <trkpt lat="46.93715" lon="5.24257">
        <ele>181.4</ele>
        <time>2022-03-21T12:00:01Z</time>
      </trkpt>
      <trkpt lat="46.9371" lon="5.24258">
        <ele>181.4</ele>
        <time>2022-03-21T12:00:02Z</time>
      </trkpt>
      <trkpt lat="46.93704" lon="5.24259">
        <ele>181.4</ele>
        <time>2022-03-21T12:00:03Z</time>
      </trkpt>
      <trkpt lat="46.93699" lon="5.24259">
        <ele>181.4</ele>
        <time>2022-03-21T12:00:04Z</time>
      </trkpt>
      <trkpt lat="46.93693" lon="5.2426">
        <ele>181.4</ele>
        <time>2022-03-21T12:00:05Z</time>
      </trkpt>
      <trkpt lat="46.93688" lon="5.24261">
        <ele>181.4</ele>
        <time>2022-03-21T12:00:06Z</time>
      </trkpt>
      <trkpt lat="46.93682" lon="5.24262">
        <ele>181.4</ele>
        <time>2022-03-21T12:00:07Z</time>
      </trkpt>
      <trkpt lat="46.93676" lon="5.24263">
        <ele>181.4</ele>
        <time>2022-03-21T12:00:08Z</time>
      </trkpt>
      <trkpt lat="46.9367" lon="5.24264">
        <ele>181.4</ele>
        <time>2022-03-21T12:00:09Z</time>
      </trkpt>
      <trkpt lat="46.93665" lon="5.24264">
        <ele>181.4</ele>
        <time>2022-03-21T12:00:10Z</time>
      </trkpt>
      <trkpt lat="46.93659" lon="5.24265">
        <ele>181.4</ele>
        <time>2022-03-21T12:00:11Z</time>
      </trkpt>
      <trkpt lat="46.93653" lon="5.24266">
        <ele>181.4</ele>
        <time>2022-03-21T12:00:12Z</time>
      </trkpt>
      <trkpt lat="46.93647" lon="5.24267">
        <ele>181.4</ele>
        <time>2022-03-21T12:00:13Z</time>
      </trkpt>
      <trkpt lat="46.93642" lon="5.24267">
        <ele>181.4</ele>
        <time>2022-03-21T12:00:14Z</time>
      </trkpt>
      <trkpt lat="46.93636" lon="5.24268">
        <ele>181.4</ele>
        <time>2022-03-21T12:00:15Z</time>
      </trkpt>
      <trkpt lat="46.9363" lon="5.24269">
        <ele>181.4</ele>
        <time>2022-03-21T12:00:16Z</time>
      </trkpt>
      <trkpt lat="46.93624" lon="5.24269">
        <ele>181.4</ele>
        <time>2022-03-21T12:00:17Z</time>
      </trkpt>
      <trkpt lat="46.93619" lon="5.2427">
        <ele>181.4</ele>
        <time>2022-03-21T12:00:18Z</time>
      </trkpt>
      <trkpt lat="46.93613" lon="5.24271">
        <ele>181.4</ele>
        <time>2022-03-21T12:00:19Z</time>
      </trkpt>
      <trkpt lat="46.93607" lon="5.24271">
        <ele>181.4</ele>
        <time>2022-03-21T12:00:20Z</time>
      </trkpt>
      <trkpt lat="46.93602" lon="5.24272">
        <ele>181.4</ele>
        <time>2022-03-21T12:00:21Z</time>
      </trkpt>
      <trkpt lat="46.93596" lon="5.24272">
        <ele>181.4</ele>
        <time>2022-03-21T12:00:22Z</time>
      </trkpt>
      <trkpt lat="46.93591" lon="5.24272">
        <ele>181.6</ele>
        <time>2022-03-21T12:00:23Z</time>
      </trkpt>
      <trkpt lat="46.93585" lon="5.24273">
        <ele>181.6</ele>
        <time>2022-03-21T12:00:24Z</time>
      </trkpt>
      <trkpt lat="46.93579" lon="5.24273">
        <ele>181.6</ele>
        <time>2022-03-21T12:00:25Z</time>
      </trkpt>
      <trkpt lat="46.93574" lon="5.24273">
        <ele>181.6</ele>
        <time>2022-03-21T12:00:26Z</time>
      </trkpt>
      <trkpt lat="46.93568" lon="5.24274">
        <ele>181.6</ele>
        <time>2022-03-21T12:00:27Z</time>
      </trkpt>
      <trkpt lat="46.93562" lon="5.24274">
        <ele>181.6</ele>
        <time>2022-03-21T12:00:28Z</time>
      </trkpt>
      <trkpt lat="46.93556" lon="5.24274">
        <ele>181.8</ele>
        <time>2022-03-21T12:00:29Z</time>
      </trkpt>
      <trkpt lat="46.93551" lon="5.24275">
        <ele>181.8</ele>
        <time>2022-03-21T12:00:30Z</time>
      </trkpt>
      <trkpt lat="46.93545" lon="5.24275">
        <ele>181.8</ele>
        <time>2022-03-21T12:00:31Z</time>
      </trkpt>
      <trkpt lat="46.93539" lon="5.24275">
        <ele>181.8</ele>
        <time>2022-03-21T12:00:32Z</time>
      </trkpt>
      <trkpt lat="46.93533" lon="5.24275">
        <ele>181.8</ele>
        <time>2022-03-21T12:00:33Z</time>
      </trkpt>
      <trkpt lat="46.93527" lon="5.24276">
        <ele>181.8</ele>
        <time>2022-03-21T12:00:34Z</time>
      </trkpt>
      <trkpt lat="46.93521" lon="5.24276">
        <ele>181.8</ele>
        <time>2022-03-21T12:00:35Z</time>
      </trkpt>
      <trkpt lat="46.93515" lon="5.24276">
        <ele>181.8</ele>
        <time>2022-03-21T12:00:36Z</time>
      </trkpt>
      <trkpt lat="46.93509" lon="5.24276">
        <ele>181.8</ele>
        <time>2022-03-21T12:00:37Z</time>
      </trkpt>
      <trkpt lat="46.93503" lon="5.24276">
        <ele>181.8</ele>
        <time>2022-03-21T12:00:38Z</time>
      </trkpt>
      <trkpt lat="46.93497" lon="5.24276">
        <ele>181.8</ele>
        <time>2022-03-21T12:00:39Z</time>
      </trkpt>
      <trkpt lat="46.93491" lon="5.24277">
        <ele>181.8</ele>
        <time>2022-03-21T12:00:40Z</time>
      </trkpt>
      <trkpt lat="46.93485" lon="5.24277">
        <ele>181.8</ele>
        <time>2022-03-21T12:00:41Z</time>
      </trkpt>
      <trkpt lat="46.93479" lon="5.24277">
        <ele>181.8</ele>
        <time>2022-03-21T12:00:42Z</time>
      </trkpt>
      <trkpt lat="46.93473" lon="5.24276">
        <ele>182.2</ele>
        <time>2022-03-21T12:00:43Z</time>
      </trkpt>
      <trkpt lat="46.93467" lon="5.24275">
        <ele>182.2</ele>
        <time>2022-03-21T12:00:44Z</time>
      </trkpt>
      <trkpt lat="46.93461" lon="5.24273">
        <ele>182.2</ele>
        <time>2022-03-21T12:00:45Z</time>
      </trkpt>
      <trkpt lat="46.93455" lon="5.2427">
        <ele>182.2</ele>
        <time>2022-03-21T12:00:46Z</time>
      </trkpt>
      <trkpt lat="46.93449" lon="5.24267">
        <ele>182.2</ele>
        <time>2022-03-21T12:00:47Z</time>
      </trkpt>
      <trkpt lat="46.93443" lon="5.24264">
        <ele>182.2</ele>
        <time>2022-03-21T12:00:48Z</time>
      </trkpt>
      <trkpt lat="46.93437" lon="5.24261">
        <ele>182.2</ele>
        <time>2022-03-21T12:00:49Z</time>
      </trkpt>
      <trkpt lat="46.93432" lon="5.24257">
        <ele>182.2</ele>
        <time>2022-03-21T12:00:50Z</time>
      </trkpt>
      <trkpt lat="46.93427" lon="5.24252">
        <ele>182.2</ele>
        <time>2022-03-21T12:00:51Z</time>
      </trkpt>
      <trkpt lat="46.93422" lon="5.24247">
        <ele>182.2</ele>
        <time>2022-03-21T12:00:52Z</time>
      </trkpt>
      <trkpt lat="46.93417" lon="5.24243">
        <ele>182.4</ele>
        <time>2022-03-21T12:00:53Z</time>
      </trkpt>
      <trkpt lat="46.93412" lon="5.24238">
        <ele>182.4</ele>
        <time>2022-03-21T12:00:54Z</time>
      </trkpt>
      <trkpt lat="46.93407" lon="5.24234">
        <ele>182.4</ele>
        <time>2022-03-21T12:00:55Z</time>
      </trkpt>
      <trkpt lat="46.93402" lon="5.24229">
        <ele>182.4</ele>
        <time>2022-03-21T12:00:56Z</time>
      </trkpt>
      <trkpt lat="46.93397" lon="5.24225">
        <ele>182.4</ele>
        <time>2022-03-21T12:00:57Z</time>
      </trkpt>
      <trkpt lat="46.93392" lon="5.24221">
        <ele>182.6</ele>
        <time>2022-03-21T12:00:58Z</time>
      </trkpt>
      <trkpt lat="46.93386" lon="5.24218">
        <ele>182.6</ele>
        <time>2022-03-21T12:00:59Z</time>
      </trkpt>
      <trkpt lat="46.9338" lon="5.24214">
        <ele>182.6</ele>
        <time>2022-03-21T12:01:00Z</time>
      </trkpt>
      <trkpt lat="46.93375" lon="5.24211">
        <ele>182.8</ele>
        <time>2022-03-21T12:01:01Z</time>
      </trkpt>
      <trkpt lat="46.93369" lon="5.24207">
        <ele>182.8</ele>
        <time>2022-03-21T12:01:02Z</time>
      </trkpt>
      <trkpt lat="46.93363" lon="5.24204">
        <ele>182.8</ele>
        <time>2022-03-21T12:01:03Z</time>
      </trkpt>
      <trkpt lat="46.93357" lon="5.24202">
        <ele>182.8</ele>
        <time>2022-03-21T12:01:04Z</time>
      </trkpt>
      <trkpt lat="46.93351" lon="5.24199">
        <ele>182.8</ele>
        <time>2022-03-21T12:01:05Z</time>
      </trkpt>
      <trkpt lat="46.93345" lon="5.24197">
        <ele>182.8</ele>
        <time>2022-03-21T12:01:06Z</time>
      </trkpt>
      <trkpt lat="46.93338" lon="5.24196">
        <ele>182.8</ele>
        <time>2022-03-21T12:01:07Z</time>
      </trkpt>
      <trkpt lat="46.93332" lon="5.24196">
        <ele>182.8</ele>
        <time>2022-03-21T12:01:08Z</time>
      </trkpt>
      <trkpt lat="46.93326" lon="5.24198">
        <ele>182.8</ele>
        <time>2022-03-21T12:01:09Z</time>
      </trkpt>
      <trkpt lat="46.93319" lon="5.24201">
        <ele>182.8</ele>
        <time>2022-03-21T12:01:10Z</time>
      </trkpt>
      <trkpt lat="46.93314" lon="5.24206">
        <ele>182.8</ele>
        <time>2022-03-21T12:01:11Z</time>
      </trkpt>
      <trkpt lat="46.93308" lon="5.24212">
        <ele>182.8</ele>
        <time>2022-03-21T12:01:12Z</time>
      </trkpt>
      <trkpt lat="46.93303" lon="5.24218">
        <ele>182.8</ele>
        <time>2022-03-21T12:01:13Z</time>
      </trkpt>
      <trkpt lat="46.93294" lon="5.24232">
        <ele>182.8</ele>
        <time>2022-03-21T12:01:14Z</time>
      </trkpt>
      <trkpt lat="46.93289" lon="5.24239">
        <ele>182.8</ele>
        <time>2022-03-21T12:01:15Z</time>
      </trkpt>
      <trkpt lat="46.93285" lon="5.24246">
        <ele>182.6</ele>
        <time>2022-03-21T12:01:16Z</time>
      </trkpt>
      <trkpt lat="46.9328" lon="5.24253">
        <ele>182.6</ele>
        <time>2022-03-21T12:01:17Z</time>
      </trkpt>
      <trkpt lat="46.93276" lon="5.2426">
        <ele>182.6</ele>
        <time>2022-03-21T12:01:18Z</time>
      </trkpt>
      <trkpt lat="46.93271" lon="5.24267">
        <ele>182.6</ele>
        <time>2022-03-21T12:01:19Z</time>
      </trkpt>
      <trkpt lat="46.93267" lon="5.24274">
        <ele>182.6</ele>
        <time>2022-03-21T12:01:20Z</time>
      </trkpt>
      <trkpt lat="46.93263" lon="5.24281">
        <ele>182.6</ele>
        <time>2022-03-21T12:01:21Z</time>
      </trkpt>
      <trkpt lat="46.93258" lon="5.24288">
        <ele>182.6</ele>
        <time>2022-03-21T12:01:22Z</time>
      </trkpt>
      <trkpt lat="46.93254" lon="5.24295">
        <ele>182.6</ele>
        <time>2022-03-21T12:01:23Z</time>
      </trkpt>
      <trkpt lat="46.9325" lon="5.24302">
        <ele>182.8</ele>
        <time>2022-03-21T12:01:24Z</time>
      </trkpt>
      <trkpt lat="46.93245" lon="5.24309">
        <ele>182.8</ele>
        <time>2022-03-21T12:01:25Z</time>
      </trkpt>
      <trkpt lat="46.93241" lon="5.24316">
        <ele>182.8</ele>
        <time>2022-03-21T12:01:26Z</time>
      </trkpt>
      <trkpt lat="46.93237" lon="5.24322">
        <ele>182.8</ele>
        <time>2022-03-21T12:01:27Z</time>
      </trkpt>
      <trkpt lat="46.93232" lon="5.24329">
        <ele>182.8</ele>
        <time>2022-03-21T12:01:29Z</time>
      </trkpt>
      <trkpt lat="46.93228" lon="5.24336">
        <ele>182.8</ele>
        <time>2022-03-21T12:01:30Z</time>
      </trkpt>
      <trkpt lat="46.93223" lon="5.24342">
        <ele>182.8</ele>
        <time>2022-03-21T12:01:31Z</time>
      </trkpt>
      <trkpt lat="46.93219" lon="5.24349">
        <ele>182.8</ele>
        <time>2022-03-21T12:01:32Z</time>
      </trkpt>
      <trkpt lat="46.93215" lon="5.24355">
        <ele>182.8</ele>
        <time>2022-03-21T12:01:33Z</time>
      </trkpt>
      <trkpt lat="46.9321" lon="5.24361">
        <ele>182.8</ele>
        <time>2022-03-21T12:01:34Z</time>
      </trkpt>
      <trkpt lat="46.93206" lon="5.24367">
        <ele>182.8</ele>
        <time>2022-03-21T12:01:35Z</time>
      </trkpt>
      <trkpt lat="46.93202" lon="5.24373">
        <ele>183</ele>
        <time>2022-03-21T12:01:36Z</time>
      </trkpt>
      <trkpt lat="46.93197" lon="5.24378">
        <ele>183</ele>
        <time>2022-03-21T12:01:37Z</time>
      </trkpt>
      <trkpt lat="46.93193" lon="5.24384">
        <ele>183.4</ele>
        <time>2022-03-21T12:01:38Z</time>
      </trkpt>
      <trkpt lat="46.93189" lon="5.24388">
        <ele>183.4</ele>
        <time>2022-03-21T12:01:39Z</time>
      </trkpt>
      <trkpt lat="46.93184" lon="5.24393">
        <ele>183.4</ele>
        <time>2022-03-21T12:01:40Z</time>
      </trkpt>
      <trkpt lat="46.9318" lon="5.24397">
        <ele>183.4</ele>
        <time>2022-03-21T12:01:41Z</time>
      </trkpt>
      <trkpt lat="46.93175" lon="5.24401">
        <ele>183.6</ele>
        <time>2022-03-21T12:01:42Z</time>
      </trkpt>
      <trkpt lat="46.9317" lon="5.24405">
        <ele>183.6</ele>
        <time>2022-03-21T12:01:43Z</time>
      </trkpt>
      <trkpt lat="46.93165" lon="5.24408">
        <ele>183.6</ele>
        <time>2022-03-21T12:01:44Z</time>
      </trkpt>
      <trkpt lat="46.9316" lon="5.24412">
        <ele>184</ele>
        <time>2022-03-21T12:01:45Z</time>
      </trkpt>
      <trkpt lat="46.9315" lon="5.24419">
        <ele>184</ele>
        <time>2022-03-21T12:01:46Z</time>
      </trkpt>
      <trkpt lat="46.93145" lon="5.24422">
        <ele>184.2</ele>
        <time>2022-03-21T12:01:47Z</time>
      </trkpt>
      <trkpt lat="46.9314" lon="5.24426">
        <ele>184.2</ele>
        <time>2022-03-21T12:01:48Z</time>
      </trkpt>
      <trkpt lat="46.93135" lon="5.24429">
        <ele>184.6</ele>
        <time>2022-03-21T12:01:49Z</time>
      </trkpt>
      <trkpt lat="46.9313" lon="5.24432">
        <ele>184.6</ele>
        <time>2022-03-21T12:01:50Z</time>
      </trkpt>
      <trkpt lat="46.93125" lon="5.24436">
        <ele>184.6</ele>
        <time>2022-03-21T12:01:51Z</time>
      </trkpt>
      <trkpt lat="46.9312" lon="5.24439">
        <ele>184.8</ele>
        <time>2022-03-21T12:01:52Z</time>
      </trkpt>
      <trkpt lat="46.93115" lon="5.24442">
        <ele>184.8</ele>
        <time>2022-03-21T12:01:53Z</time>
      </trkpt>
      <trkpt lat="46.9311" lon="5.24446">
        <ele>185</ele>
        <time>2022-03-21T12:01:54Z</time>
      </trkpt>
      <trkpt lat="46.93105" lon="5.24449">
        <ele>185</ele>
        <time>2022-03-21T12:01:55Z</time>
      </trkpt>
      <trkpt lat="46.931" lon="5.24452">
        <ele>185</ele>
        <time>2022-03-21T12:01:56Z</time>
      </trkpt>
      <trkpt lat="46.93095" lon="5.24456">
        <ele>185</ele>
        <time>2022-03-21T12:01:57Z</time>
      </trkpt>
      <trkpt lat="46.9309" lon="5.24459">
        <ele>185</ele>
        <time>2022-03-21T12:01:58Z</time>
      </trkpt>
      <trkpt lat="46.93085" lon="5.24462">
        <ele>185</ele>
        <time>2022-03-21T12:01:59Z</time>
      </trkpt>
      <trkpt lat="46.9308" lon="5.24466">
        <ele>185</ele>
        <time>2022-03-21T12:02:00Z</time>
      </trkpt>
      <trkpt lat="46.93075" lon="5.24469">
        <ele>185</ele>
        <time>2022-03-21T12:02:01Z</time>
      </trkpt>
      <trkpt lat="46.9307" lon="5.24472">
        <ele>185</ele>
        <time>2022-03-21T12:02:02Z</time>
      </trkpt>
      <trkpt lat="46.93065" lon="5.24476">
        <ele>185</ele>
        <time>2022-03-21T12:02:03Z</time>
      </trkpt>
      <trkpt lat="46.9306" lon="5.24479">
        <ele>185</ele>
        <time>2022-03-21T12:02:04Z</time>
      </trkpt>
      <trkpt lat="46.93054" lon="5.24483">
        <ele>185.4</ele>
        <time>2022-03-21T12:02:06Z</time>
      </trkpt>
      <trkpt lat="46.93049" lon="5.24487">
        <ele>185.4</ele>
        <time>2022-03-21T12:02:07Z</time>
      </trkpt>
      <trkpt lat="46.93043" lon="5.2449">
        <ele>185.4</ele>
        <time>2022-03-21T12:02:08Z</time>
      </trkpt>
      <trkpt lat="46.93038" lon="5.24494">
        <ele>185.4</ele>
        <time>2022-03-21T12:02:09Z</time>
      </trkpt>
      <trkpt lat="46.93032" lon="5.24498">
        <ele>185</ele>
        <time>2022-03-21T12:02:10Z</time>
      </trkpt>
      <trkpt lat="46.93026" lon="5.24502">
        <ele>185</ele>
        <time>2022-03-21T12:02:11Z</time>
      </trkpt>
      <trkpt lat="46.9302" lon="5.24506">
        <ele>185</ele>
        <time>2022-03-21T12:02:12Z</time>
      </trkpt>
      <trkpt lat="46.93015" lon="5.2451">
        <ele>184.8</ele>
        <time>2022-03-21T12:02:13Z</time>
      </trkpt>
      <trkpt lat="46.93009" lon="5.24514">
        <ele>184.8</ele>
        <time>2022-03-21T12:02:14Z</time>
      </trkpt>
      <trkpt lat="46.93004" lon="5.2452">
        <ele>184.8</ele>
        <time>2022-03-21T12:02:15Z</time>
      </trkpt>
      <trkpt lat="46.92999" lon="5.24526">
        <ele>184.6</ele>
        <time>2022-03-21T12:02:16Z</time>
      </trkpt>
      <trkpt lat="46.92994" lon="5.24533">
        <ele>184.2</ele>
        <time>2022-03-21T12:02:17Z</time>
      </trkpt>
      <trkpt lat="46.92989" lon="5.24541">
        <ele>184.2</ele>
        <time>2022-03-21T12:02:18Z</time>
      </trkpt>
      <trkpt lat="46.92985" lon="5.24549">
        <ele>183.8</ele>
        <time>2022-03-21T12:02:19Z</time>
      </trkpt>
      <trkpt lat="46.92982" lon="5.24558">
        <ele>183.8</ele>
        <time>2022-03-21T12:02:20Z</time>
      </trkpt>
      <trkpt lat="46.92979" lon="5.24567">
        <ele>183.4</ele>
        <time>2022-03-21T12:02:21Z</time>
      </trkpt>
      <trkpt lat="46.92975" lon="5.24577">
        <ele>183.4</ele>
        <time>2022-03-21T12:02:22Z</time>
      </trkpt>
      <trkpt lat="46.92972" lon="5.24587">
        <ele>183.4</ele>
        <time>2022-03-21T12:02:23Z</time>
      </trkpt>
      <trkpt lat="46.9297" lon="5.24597">
        <ele>183.4</ele>
        <time>2022-03-21T12:02:24Z</time>
      </trkpt>
      <trkpt lat="46.92967" lon="5.24607">
        <ele>183.2</ele>
        <time>2022-03-21T12:02:25Z</time>
      </trkpt>
      <trkpt lat="46.92965" lon="5.24617">
        <ele>183.2</ele>
        <time>2022-03-21T12:02:26Z</time>
      </trkpt>
      <trkpt lat="46.92962" lon="5.24627">
        <ele>183.2</ele>
        <time>2022-03-21T12:02:27Z</time>
      </trkpt>
      <trkpt lat="46.9296" lon="5.24637">
        <ele>183.2</ele>
        <time>2022-03-21T12:02:28Z</time>
      </trkpt>
      <trkpt lat="46.92958" lon="5.24646">
        <ele>183.2</ele>
        <time>2022-03-21T12:02:29Z</time>
      </trkpt>
      <trkpt lat="46.92955" lon="5.24656">
        <ele>183.2</ele>
        <time>2022-03-21T12:02:30Z</time>
      </trkpt>
      <trkpt lat="46.92953" lon="5.24665">
        <ele>183.2</ele>
        <time>2022-03-21T12:02:31Z</time>
      </trkpt>
      <trkpt lat="46.9295" lon="5.24674">
        <ele>183.2</ele>
        <time>2022-03-21T12:02:32Z</time>
      </trkpt>
      <trkpt lat="46.92948" lon="5.24684">
        <ele>183.2</ele>
        <time>2022-03-21T12:02:33Z</time>
      </trkpt>
      <trkpt lat="46.92945" lon="5.24693">
        <ele>183.2</ele>
        <time>2022-03-21T12:02:34Z</time>
      </trkpt>
      <trkpt lat="46.92943" lon="5.24702">
        <ele>183.2</ele>
        <time>2022-03-21T12:02:35Z</time>
      </trkpt>
      <trkpt lat="46.9294" lon="5.24712">
        <ele>183.2</ele>
        <time>2022-03-21T12:02:36Z</time>
      </trkpt>
      <trkpt lat="46.92938" lon="5.24721">
        <ele>183.2</ele>
        <time>2022-03-21T12:02:37Z</time>
      </trkpt>
      <trkpt lat="46.92935" lon="5.2473">
        <ele>183.2</ele>
        <time>2022-03-21T12:02:38Z</time>
      </trkpt>
      <trkpt lat="46.92933" lon="5.2474">
        <ele>183.2</ele>
        <time>2022-03-21T12:02:39Z</time>
      </trkpt>
      <trkpt lat="46.92931" lon="5.24749">
        <ele>183.2</ele>
        <time>2022-03-21T12:02:40Z</time>
      </trkpt>
      <trkpt lat="46.92928" lon="5.24757">
        <ele>183.2</ele>
        <time>2022-03-21T12:02:41Z</time>
      </trkpt>
      <trkpt lat="46.92925" lon="5.24766">
        <ele>183.2</ele>
        <time>2022-03-21T12:02:42Z</time>
      </trkpt>
      <trkpt lat="46.92922" lon="5.24775">
        <ele>183.2</ele>
        <time>2022-03-21T12:02:43Z</time>
      </trkpt>
      <trkpt lat="46.92919" lon="5.24783">
        <ele>183.2</ele>
        <time>2022-03-21T12:02:44Z</time>
      </trkpt>
      <trkpt lat="46.92915" lon="5.24791">
        <ele>183.2</ele>
        <time>2022-03-21T12:02:45Z</time>
      </trkpt>
      <trkpt lat="46.92912" lon="5.24799">
        <ele>183.2</ele>
        <time>2022-03-21T12:02:46Z</time>
      </trkpt>
      <trkpt lat="46.92908" lon="5.24806">
        <ele>183.2</ele>
        <time>2022-03-21T12:02:47Z</time>
      </trkpt>
      <trkpt lat="46.92903" lon="5.24814">
        <ele>183.2</ele>
        <time>2022-03-21T12:02:48Z</time>
      </trkpt>
      <trkpt lat="46.92899" lon="5.2482">
        <ele>183.2</ele>
        <time>2022-03-21T12:02:49Z</time>
      </trkpt>
      <trkpt lat="46.92894" lon="5.24827">
        <ele>183.2</ele>
        <time>2022-03-21T12:02:50Z</time>
      </trkpt>
      <trkpt lat="46.92889" lon="5.24833">
        <ele>183.2</ele>
        <time>2022-03-21T12:02:51Z</time>
      </trkpt>
      <trkpt lat="46.92885" lon="5.24839">
        <ele>183.2</ele>
        <time>2022-03-21T12:02:52Z</time>
      </trkpt>
      <trkpt lat="46.9288" lon="5.24846">
        <ele>183.2</ele>
        <time>2022-03-21T12:02:53Z</time>
      </trkpt>
      <trkpt lat="46.92875" lon="5.24852">
        <ele>183.2</ele>
        <time>2022-03-21T12:02:54Z</time>
      </trkpt>
      <trkpt lat="46.92871" lon="5.24859">
        <ele>183</ele>
        <time>2022-03-21T12:02:55Z</time>
      </trkpt>
      <trkpt lat="46.92866" lon="5.24865">
        <ele>183</ele>
        <time>2022-03-21T12:02:56Z</time>
      </trkpt>
      <trkpt lat="46.92862" lon="5.24872">
        <ele>183</ele>
        <time>2022-03-21T12:02:57Z</time>
      </trkpt>
      <trkpt lat="46.92857" lon="5.24878">
        <ele>183</ele>
        <time>2022-03-21T12:02:58Z</time>
      </trkpt>
      <trkpt lat="46.92851" lon="5.24883">
        <ele>183</ele>
        <time>2022-03-21T12:02:59Z</time>
      </trkpt>
      <trkpt lat="46.92846" lon="5.24889">
        <ele>183</ele>
        <time>2022-03-21T12:03:00Z</time>
      </trkpt>
      <trkpt lat="46.92841" lon="5.24894">
        <ele>182.8</ele>
        <time>2022-03-21T12:03:01Z</time>
      </trkpt>
      <trkpt lat="46.92835" lon="5.24898">
        <ele>182.8</ele>
        <time>2022-03-21T12:03:02Z</time>
      </trkpt>
      <trkpt lat="46.92829" lon="5.24902">
        <ele>182.8</ele>
        <time>2022-03-21T12:03:03Z</time>
      </trkpt>
      <trkpt lat="46.92823" lon="5.24904">
        <ele>182.8</ele>
        <time>2022-03-21T12:03:04Z</time>
      </trkpt>
      <trkpt lat="46.92816" lon="5.24905">
        <ele>182.8</ele>
        <time>2022-03-21T12:03:05Z</time>
      </trkpt>
      <trkpt lat="46.92804" lon="5.24904">
        <ele>182.8</ele>
        <time>2022-03-21T12:03:06Z</time>
      </trkpt>
      <trkpt lat="46.92799" lon="5.24901">
        <ele>182.8</ele>
        <time>2022-03-21T12:03:07Z</time>
      </trkpt>
      <trkpt lat="46.92793" lon="5.24898">
        <ele>182.8</ele>
        <time>2022-03-21T12:03:08Z</time>
      </trkpt>
      <trkpt lat="46.92788" lon="5.24895">
        <ele>182.8</ele>
        <time>2022-03-21T12:03:09Z</time>
      </trkpt>
      <trkpt lat="46.92782" lon="5.24891">
        <ele>182.8</ele>
        <time>2022-03-21T12:03:10Z</time>
      </trkpt>
      <trkpt lat="46.92777" lon="5.24888">
        <ele>182.8</ele>
        <time>2022-03-21T12:03:11Z</time>
      </trkpt>
      <trkpt lat="46.92772" lon="5.24885">
        <ele>182.8</ele>
        <time>2022-03-21T12:03:12Z</time>
      </trkpt>
      <trkpt lat="46.92766" lon="5.24881">
        <ele>182.8</ele>
        <time>2022-03-21T12:03:13Z</time>
      </trkpt>
      <trkpt lat="46.92761" lon="5.24878">
        <ele>182.8</ele>
        <time>2022-03-21T12:03:14Z</time>
      </trkpt>
      <trkpt lat="46.92755" lon="5.24874">
        <ele>182.8</ele>
        <time>2022-03-21T12:03:15Z</time>
      </trkpt>
      <trkpt lat="46.9275" lon="5.24871">
        <ele>182.8</ele>
        <time>2022-03-21T12:03:16Z</time>
      </trkpt>
      <trkpt lat="46.92744" lon="5.24867">
        <ele>182.8</ele>
        <time>2022-03-21T12:03:17Z</time>
      </trkpt>
      <trkpt lat="46.92739" lon="5.24864">
        <ele>182.8</ele>
        <time>2022-03-21T12:03:18Z</time>
      </trkpt>
      <trkpt lat="46.92733" lon="5.2486">
        <ele>182.8</ele>
        <time>2022-03-21T12:03:19Z</time>
      </trkpt>
      <trkpt lat="46.92727" lon="5.24857">
        <ele>182.8</ele>
        <time>2022-03-21T12:03:20Z</time>
      </trkpt>
      <trkpt lat="46.92721" lon="5.24854">
        <ele>182.8</ele>
        <time>2022-03-21T12:03:21Z</time>
      </trkpt>
      <trkpt lat="46.92715" lon="5.2485">
        <ele>182.8</ele>
        <time>2022-03-21T12:03:22Z</time>
      </trkpt>
      <trkpt lat="46.92709" lon="5.24847">
        <ele>182.8</ele>
        <time>2022-03-21T12:03:23Z</time>
      </trkpt>
      <trkpt lat="46.92704" lon="5.24844">
        <ele>182.8</ele>
        <time>2022-03-21T12:03:24Z</time>
      </trkpt>
      <trkpt lat="46.92698" lon="5.24841">
        <ele>182.8</ele>
        <time>2022-03-21T12:03:25Z</time>
      </trkpt>
      <trkpt lat="46.92692" lon="5.24838">
        <ele>182.8</ele>
        <time>2022-03-21T12:03:26Z</time>
      </trkpt>
      <trkpt lat="46.92685" lon="5.24836">
        <ele>182.8</ele>
        <time>2022-03-21T12:03:27Z</time>
      </trkpt>
      <trkpt lat="46.92679" lon="5.24834">
        <ele>182.8</ele>
        <time>2022-03-21T12:03:28Z</time>
      </trkpt>
      <trkpt lat="46.92673" lon="5.24832">
        <ele>182.8</ele>
        <time>2022-03-21T12:03:29Z</time>
      </trkpt>
      <trkpt lat="46.92668" lon="5.2483">
        <ele>182.8</ele>
        <time>2022-03-21T12:03:30Z</time>
      </trkpt>
      <trkpt lat="46.92662" lon="5.24828">
        <ele>182.8</ele>
        <time>2022-03-21T12:03:31Z</time>
      </trkpt>
      <trkpt lat="46.92656" lon="5.24826">
        <ele>182.8</ele>
        <time>2022-03-21T12:03:32Z</time>
      </trkpt>
      <trkpt lat="46.9265" lon="5.24824">
        <ele>182.8</ele>
        <time>2022-03-21T12:03:33Z</time>
      </trkpt>
      <trkpt lat="46.92645" lon="5.24821">
        <ele>182.8</ele>
        <time>2022-03-21T12:03:34Z</time>
      </trkpt>
      <trkpt lat="46.92639" lon="5.24819">
        <ele>182.8</ele>
        <time>2022-03-21T12:03:35Z</time>
      </trkpt>
      <trkpt lat="46.92634" lon="5.24818">
        <ele>182.8</ele>
        <time>2022-03-21T12:03:36Z</time>
      </trkpt>
      <trkpt lat="46.92629" lon="5.24816">
        <ele>182.8</ele>
        <time>2022-03-21T12:03:37Z</time>
      </trkpt>
      <trkpt lat="46.92623" lon="5.24814">
        <ele>182.8</ele>
        <time>2022-03-21T12:03:38Z</time>
      </trkpt>
      <trkpt lat="46.92618" lon="5.24812">
        <ele>182.8</ele>
        <time>2022-03-21T12:03:39Z</time>
      </trkpt>
      <trkpt lat="46.92613" lon="5.2481">
        <ele>182.8</ele>
        <time>2022-03-21T12:03:40Z</time>
      </trkpt>
      <trkpt lat="46.92608" lon="5.24807">
        <ele>182.8</ele>
        <time>2022-03-21T12:03:41Z</time>
      </trkpt>
      <trkpt lat="46.92602" lon="5.24805">
        <ele>182.8</ele>
        <time>2022-03-21T12:03:42Z</time>
      </trkpt>
      <trkpt lat="46.92597" lon="5.24803">
        <ele>182.8</ele>
        <time>2022-03-21T12:03:43Z</time>
      </trkpt>
      <trkpt lat="46.92592" lon="5.24801">
        <ele>182.8</ele>
        <time>2022-03-21T12:03:44Z</time>
      </trkpt>
      <trkpt lat="46.92587" lon="5.24799">
        <ele>182.8</ele>
        <time>2022-03-21T12:03:45Z</time>
      </trkpt>
      <trkpt lat="46.92581" lon="5.24797">
        <ele>182.8</ele>
        <time>2022-03-21T12:03:46Z</time>
      </trkpt>
      <trkpt lat="46.92576" lon="5.24795">
        <ele>182.6</ele>
        <time>2022-03-21T12:03:47Z</time>
      </trkpt>
      <trkpt lat="46.92571" lon="5.24793">
        <ele>182.6</ele>
        <time>2022-03-21T12:03:48Z</time>
      </trkpt>
      <trkpt lat="46.92565" lon="5.24792">
        <ele>182.6</ele>
        <time>2022-03-21T12:03:49Z</time>
      </trkpt>
      <trkpt lat="46.9256" lon="5.2479">
        <ele>182.6</ele>
        <time>2022-03-21T12:03:50Z</time>
      </trkpt>
      <trkpt lat="46.92555" lon="5.24788">
        <ele>182.6</ele>
        <time>2022-03-21T12:03:51Z</time>
      </trkpt>
      <trkpt lat="46.92549" lon="5.24786">
        <ele>182.6</ele>
        <time>2022-03-21T12:03:52Z</time>
      </trkpt>
      <trkpt lat="46.92544" lon="5.24784">
        <ele>182.6</ele>
        <time>2022-03-21T12:03:53Z</time>
      </trkpt>
      <trkpt lat="46.92539" lon="5.24782">
        <ele>182.6</ele>
        <time>2022-03-21T12:03:54Z</time>
      </trkpt>
      <trkpt lat="46.92533" lon="5.24779">
        <ele>182.4</ele>
        <time>2022-03-21T12:03:55Z</time>
      </trkpt>
      <trkpt lat="46.92528" lon="5.24777">
        <ele>182.4</ele>
        <time>2022-03-21T12:03:56Z</time>
      </trkpt>
      <trkpt lat="46.92522" lon="5.24775">
        <ele>182.4</ele>
        <time>2022-03-21T12:03:57Z</time>
      </trkpt>
      <trkpt lat="46.92517" lon="5.24774">
        <ele>182.4</ele>
        <time>2022-03-21T12:03:58Z</time>
      </trkpt>
      <trkpt lat="46.92512" lon="5.24772">
        <ele>182.4</ele>
        <time>2022-03-21T12:03:59Z</time>
      </trkpt>
      <trkpt lat="46.92506" lon="5.2477">
        <ele>182.4</ele>
        <time>2022-03-21T12:04:00Z</time>
      </trkpt>
      <trkpt lat="46.92501" lon="5.24768">
        <ele>182.4</ele>
        <time>2022-03-21T12:04:01Z</time>
      </trkpt>
      <trkpt lat="46.92495" lon="5.24767">
        <ele>182.4</ele>
        <time>2022-03-21T12:04:02Z</time>
      </trkpt>
      <trkpt lat="46.9249" lon="5.24765">
        <ele>182.4</ele>
        <time>2022-03-21T12:04:03Z</time>
      </trkpt>
      <trkpt lat="46.92484" lon="5.24763">
        <ele>182.4</ele>
        <time>2022-03-21T12:04:04Z</time>
      </trkpt>
      <trkpt lat="46.92479" lon="5.24762">
        <ele>182.4</ele>
        <time>2022-03-21T12:04:05Z</time>
      </trkpt>
      <trkpt lat="46.92473" lon="5.2476">
        <ele>182.4</ele>
        <time>2022-03-21T12:04:06Z</time>
      </trkpt>
      <trkpt lat="46.92468" lon="5.24758">
        <ele>182.4</ele>
        <time>2022-03-21T12:04:07Z</time>
      </trkpt>
      <trkpt lat="46.92462" lon="5.24756">
        <ele>182.4</ele>
        <time>2022-03-21T12:04:08Z</time>
      </trkpt>
      <trkpt lat="46.92456" lon="5.24755">
        <ele>182.4</ele>
        <time>2022-03-21T12:04:09Z</time>
      </trkpt>
      <trkpt lat="46.92451" lon="5.24753">
        <ele>182.4</ele>
        <time>2022-03-21T12:04:10Z</time>
      </trkpt>
      <trkpt lat="46.92445" lon="5.24751">
        <ele>182.4</ele>
        <time>2022-03-21T12:04:11Z</time>
      </trkpt>
      <trkpt lat="46.9244" lon="5.2475">
        <ele>182.4</ele>
        <time>2022-03-21T12:04:12Z</time>
      </trkpt>
      <trkpt lat="46.92434" lon="5.24748">
        <ele>182.4</ele>
        <time>2022-03-21T12:04:13Z</time>
      </trkpt>
      <trkpt lat="46.92428" lon="5.24746">
        <ele>182.2</ele>
        <time>2022-03-21T12:04:14Z</time>
      </trkpt>
      <trkpt lat="46.92422" lon="5.24745">
        <ele>182.2</ele>
        <time>2022-03-21T12:04:15Z</time>
      </trkpt>
      <trkpt lat="46.92417" lon="5.24743">
        <ele>182.2</ele>
        <time>2022-03-21T12:04:16Z</time>
      </trkpt>
      <trkpt lat="46.92411" lon="5.24741">
        <ele>182.2</ele>
        <time>2022-03-21T12:04:17Z</time>
      </trkpt>
      <trkpt lat="46.92405" lon="5.24739">
        <ele>182.2</ele>
        <time>2022-03-21T12:04:18Z</time>
      </trkpt>
      <trkpt lat="46.92399" lon="5.24737">
        <ele>182.2</ele>
        <time>2022-03-21T12:04:19Z</time>
      </trkpt>
      <trkpt lat="46.92393" lon="5.24735">
        <ele>182.2</ele>
        <time>2022-03-21T12:04:20Z</time>
      </trkpt>
      <trkpt lat="46.92387" lon="5.24733">
        <ele>182.2</ele>
        <time>2022-03-21T12:04:21Z</time>
      </trkpt>
      <trkpt lat="46.92381" lon="5.24731">
        <ele>182.2</ele>
        <time>2022-03-21T12:04:22Z</time>
      </trkpt>
      <trkpt lat="46.92375" lon="5.24729">
        <ele>182.2</ele>
        <time>2022-03-21T12:04:23Z</time>
      </trkpt>
      <trkpt lat="46.92369" lon="5.24728">
        <ele>182.2</ele>
        <time>2022-03-21T12:04:24Z</time>
      </trkpt>
      <trkpt lat="46.92363" lon="5.24726">
        <ele>182.2</ele>
        <time>2022-03-21T12:04:25Z</time>
      </trkpt>
      <trkpt lat="46.92357" lon="5.24724">
        <ele>182</ele>
        <time>2022-03-21T12:04:26Z</time>
      </trkpt>
      <trkpt lat="46.92351" lon="5.24722">
        <ele>182</ele>
        <time>2022-03-21T12:04:27Z</time>
      </trkpt>
      <trkpt lat="46.92345" lon="5.2472">
        <ele>182</ele>
        <time>2022-03-21T12:04:28Z</time>
      </trkpt>
      <trkpt lat="46.92339" lon="5.24717">
        <ele>182</ele>
        <time>2022-03-21T12:04:29Z</time>
      </trkpt>
      <trkpt lat="46.92333" lon="5.24715">
        <ele>182</ele>
        <time>2022-03-21T12:04:30Z</time>
      </trkpt>
      <trkpt lat="46.92327" lon="5.24713">
        <ele>182</ele>
        <time>2022-03-21T12:04:31Z</time>
      </trkpt>
      <trkpt lat="46.92321" lon="5.24711">
        <ele>182</ele>
        <time>2022-03-21T12:04:32Z</time>
      </trkpt>
      <trkpt lat="46.92315" lon="5.24709">
        <ele>182</ele>
        <time>2022-03-21T12:04:33Z</time>
      </trkpt>
      <trkpt lat="46.92309" lon="5.24707">
        <ele>182</ele>
        <time>2022-03-21T12:04:34Z</time>
      </trkpt>
      <trkpt lat="46.92303" lon="5.24705">
        <ele>182</ele>
        <time>2022-03-21T12:04:35Z</time>
      </trkpt>
      <trkpt lat="46.92297" lon="5.24703">
        <ele>182</ele>
        <time>2022-03-21T12:04:36Z</time>
      </trkpt>
      <trkpt lat="46.92291" lon="5.24702">
        <ele>182</ele>
        <time>2022-03-21T12:04:37Z</time>
      </trkpt>
      <trkpt lat="46.92285" lon="5.24703">
        <ele>182.2</ele>
        <time>2022-03-21T12:04:38Z</time>
      </trkpt>
      <trkpt lat="46.9228" lon="5.24705">
        <ele>182.2</ele>
        <time>2022-03-21T12:04:39Z</time>
      </trkpt>
      <trkpt lat="46.92275" lon="5.2471">
        <ele>182.2</ele>
        <time>2022-03-21T12:04:40Z</time>
      </trkpt>
      <trkpt lat="46.92271" lon="5.24717">
        <ele>182.2</ele>
        <time>2022-03-21T12:04:41Z</time>
      </trkpt>
      <trkpt lat="46.92268" lon="5.24725">
        <ele>182.2</ele>
        <time>2022-03-21T12:04:42Z</time>
      </trkpt>
      <trkpt lat="46.92265" lon="5.24733">
        <ele>182.2</ele>
        <time>2022-03-21T12:04:43Z</time>
      </trkpt>
      <trkpt lat="46.92262" lon="5.24741">
        <ele>182.2</ele>
        <time>2022-03-21T12:04:44Z</time>
      </trkpt>
      <trkpt lat="46.9226" lon="5.2475">
        <ele>182.2</ele>
        <time>2022-03-21T12:04:45Z</time>
      </trkpt>
      <trkpt lat="46.92257" lon="5.24759">
        <ele>182.2</ele>
        <time>2022-03-21T12:04:46Z</time>
      </trkpt>
      <trkpt lat="46.92253" lon="5.24767">
        <ele>182.2</ele>
        <time>2022-03-21T12:04:47Z</time>
      </trkpt>
      <trkpt lat="46.92249" lon="5.24774">
        <ele>182.2</ele>
        <time>2022-03-21T12:04:48Z</time>
      </trkpt>
      <trkpt lat="46.92244" lon="5.24779">
        <ele>182.2</ele>
        <time>2022-03-21T12:04:49Z</time>
      </trkpt>
      <trkpt lat="46.92238" lon="5.24782">
        <ele>182.2</ele>
        <time>2022-03-21T12:04:50Z</time>
      </trkpt>
      <trkpt lat="46.92232" lon="5.24784">
        <ele>182.2</ele>
        <time>2022-03-21T12:04:51Z</time>
      </trkpt>
      <trkpt lat="46.92226" lon="5.24785">
        <ele>182.2</ele>
        <time>2022-03-21T12:04:52Z</time>
      </trkpt>
      <trkpt lat="46.92219" lon="5.24784">
        <ele>182.2</ele>
        <time>2022-03-21T12:04:53Z</time>
      </trkpt>
      <trkpt lat="46.92213" lon="5.24784">
        <ele>182.2</ele>
        <time>2022-03-21T12:04:54Z</time>
      </trkpt>
      <trkpt lat="46.92206" lon="5.24783">
        <ele>182.2</ele>
        <time>2022-03-21T12:04:55Z</time>
      </trkpt>
      <trkpt lat="46.922" lon="5.24782">
        <ele>182.2</ele>
        <time>2022-03-21T12:04:56Z</time>
      </trkpt>
      <trkpt lat="46.92194" lon="5.24781">
        <ele>182.2</ele>
        <time>2022-03-21T12:04:57Z</time>
      </trkpt>
      <trkpt lat="46.92188" lon="5.2478">
        <ele>182.2</ele>
        <time>2022-03-21T12:04:58Z</time>
      </trkpt>
      <trkpt lat="46.92181" lon="5.24779">
        <ele>182.2</ele>
        <time>2022-03-21T12:05:00Z</time>
      </trkpt>
      <trkpt lat="46.92175" lon="5.24778">
        <ele>182.2</ele>
        <time>2022-03-21T12:05:01Z</time>
      </trkpt>
      <trkpt lat="46.92169" lon="5.24777">
        <ele>182.2</ele>
        <time>2022-03-21T12:05:02Z</time>
      </trkpt>
      <trkpt lat="46.92162" lon="5.24776">
        <ele>182.2</ele>
        <time>2022-03-21T12:05:03Z</time>
      </trkpt>
      <trkpt lat="46.92156" lon="5.24775">
        <ele>182.2</ele>
        <time>2022-03-21T12:05:04Z</time>
      </trkpt>
      <trkpt lat="46.9215" lon="5.24774">
        <ele>182.2</ele>
        <time>2022-03-21T12:05:05Z</time>
      </trkpt>
      <trkpt lat="46.92143" lon="5.24774">
        <ele>182.2</ele>
        <time>2022-03-21T12:05:06Z</time>
      </trkpt>
      <trkpt lat="46.92137" lon="5.24773">
        <ele>182.2</ele>
        <time>2022-03-21T12:05:07Z</time>
      </trkpt>
      <trkpt lat="46.9213" lon="5.24773">
        <ele>182.2</ele>
        <time>2022-03-21T12:05:08Z</time>
      </trkpt>
      <trkpt lat="46.92124" lon="5.24772">
        <ele>182.2</ele>
        <time>2022-03-21T12:05:09Z</time>
      </trkpt>
      <trkpt lat="46.92118" lon="5.24771">
        <ele>182.2</ele>
        <time>2022-03-21T12:05:10Z</time>
      </trkpt>
      <trkpt lat="46.92111" lon="5.2477">
        <ele>182.2</ele>
        <time>2022-03-21T12:05:11Z</time>
      </trkpt>
      <trkpt lat="46.92105" lon="5.24769">
        <ele>182.2</ele>
        <time>2022-03-21T12:05:12Z</time>
      </trkpt>
      <trkpt lat="46.92099" lon="5.24768">
        <ele>182.2</ele>
        <time>2022-03-21T12:05:13Z</time>
      </trkpt>
      <trkpt lat="46.92092" lon="5.24767">
        <ele>182.2</ele>
        <time>2022-03-21T12:05:14Z</time>
      </trkpt>
      <trkpt lat="46.92086" lon="5.24766">
        <ele>182.2</ele>
        <time>2022-03-21T12:05:15Z</time>
      </trkpt>
      <trkpt lat="46.9208" lon="5.24765">
        <ele>182.2</ele>
        <time>2022-03-21T12:05:16Z</time>
      </trkpt>
      <trkpt lat="46.92073" lon="5.24764">
        <ele>182.2</ele>
        <time>2022-03-21T12:05:17Z</time>
      </trkpt>
      <trkpt lat="46.92067" lon="5.24763">
        <ele>182.2</ele>
        <time>2022-03-21T12:05:18Z</time>
      </trkpt>
      <trkpt lat="46.92061" lon="5.24761">
        <ele>182.2</ele>
        <time>2022-03-21T12:05:19Z</time>
      </trkpt>
      <trkpt lat="46.92055" lon="5.24761">
        <ele>182.2</ele>
        <time>2022-03-21T12:05:20Z</time>
      </trkpt>
      <trkpt lat="46.92049" lon="5.2476">
        <ele>182.2</ele>
        <time>2022-03-21T12:05:21Z</time>
      </trkpt>
      <trkpt lat="46.92042" lon="5.24759">
        <ele>182.2</ele>
        <time>2022-03-21T12:05:22Z</time>
      </trkpt>
      <trkpt lat="46.92036" lon="5.24758">
        <ele>182.4</ele>
        <time>2022-03-21T12:05:23Z</time>
      </trkpt>
      <trkpt lat="46.9203" lon="5.24756">
        <ele>182.4</ele>
        <time>2022-03-21T12:05:24Z</time>
      </trkpt>
      <trkpt lat="46.92024" lon="5.24755">
        <ele>182.4</ele>
        <time>2022-03-21T12:05:25Z</time>
      </trkpt>
      <trkpt lat="46.92018" lon="5.24753">
        <ele>182.4</ele>
        <time>2022-03-21T12:05:26Z</time>
      </trkpt>
      <trkpt lat="46.92012" lon="5.24751">
        <ele>182.4</ele>
        <time>2022-03-21T12:05:27Z</time>
      </trkpt>
      <trkpt lat="46.92006" lon="5.24749">
        <ele>182.4</ele>
        <time>2022-03-21T12:05:28Z</time>
      </trkpt>
      <trkpt lat="46.92" lon="5.24748">
        <ele>182.4</ele>
        <time>2022-03-21T12:05:29Z</time>
      </trkpt>
      <trkpt lat="46.91994" lon="5.24746">
        <ele>182.4</ele>
        <time>2022-03-21T12:05:30Z</time>
      </trkpt>
      <trkpt lat="46.91988" lon="5.24745">
        <ele>182.4</ele>
        <time>2022-03-21T12:05:31Z</time>
      </trkpt>
      <trkpt lat="46.91981" lon="5.24743">
        <ele>182.4</ele>
        <time>2022-03-21T12:05:32Z</time>
      </trkpt>
      <trkpt lat="46.91975" lon="5.24742">
        <ele>182.4</ele>
        <time>2022-03-21T12:05:33Z</time>
      </trkpt>
      <trkpt lat="46.91969" lon="5.24741">
        <ele>182.4</ele>
        <time>2022-03-21T12:05:34Z</time>
      </trkpt>
      <trkpt lat="46.91962" lon="5.24741">
        <ele>182.4</ele>
        <time>2022-03-21T12:05:35Z</time>
      </trkpt>
      <trkpt lat="46.91956" lon="5.24741">
        <ele>182.4</ele>
        <time>2022-03-21T12:05:36Z</time>
      </trkpt>
      <trkpt lat="46.91949" lon="5.24741">
        <ele>182.4</ele>
        <time>2022-03-21T12:05:37Z</time>
      </trkpt>
      <trkpt lat="46.91943" lon="5.24741">
        <ele>182.4</ele>
        <time>2022-03-21T12:05:38Z</time>
      </trkpt>
      <trkpt lat="46.91936" lon="5.24742">
        <ele>182.4</ele>
        <time>2022-03-21T12:05:39Z</time>
      </trkpt>
      <trkpt lat="46.9193" lon="5.24743">
        <ele>182.4</ele>
        <time>2022-03-21T12:05:40Z</time>
      </trkpt>
      <trkpt lat="46.91923" lon="5.24744">
        <ele>182.4</ele>
        <time>2022-03-21T12:05:41Z</time>
      </trkpt>
      <trkpt lat="46.91917" lon="5.24746">
        <ele>182.4</ele>
        <time>2022-03-21T12:05:42Z</time>
      </trkpt>
      <trkpt lat="46.91911" lon="5.24747">
        <ele>182.4</ele>
        <time>2022-03-21T12:05:43Z</time>
      </trkpt>
      <trkpt lat="46.91905" lon="5.24749">
        <ele>182.4</ele>
        <time>2022-03-21T12:05:44Z</time>
      </trkpt>
      <trkpt lat="46.91899" lon="5.2475">
        <ele>182.4</ele>
        <time>2022-03-21T12:05:45Z</time>
      </trkpt>
      <trkpt lat="46.91893" lon="5.24752">
        <ele>182.4</ele>
        <time>2022-03-21T12:05:46Z</time>
      </trkpt>
      <trkpt lat="46.91887" lon="5.24753">
        <ele>182.4</ele>
        <time>2022-03-21T12:05:47Z</time>
      </trkpt>
      <trkpt lat="46.91882" lon="5.24755">
        <ele>182.4</ele>
        <time>2022-03-21T12:05:48Z</time>
      </trkpt>
      <trkpt lat="46.91876" lon="5.24757">
        <ele>182.4</ele>
        <time>2022-03-21T12:05:49Z</time>
      </trkpt>
      <trkpt lat="46.9187" lon="5.24758">
        <ele>182.4</ele>
        <time>2022-03-21T12:05:50Z</time>
      </trkpt>
      <trkpt lat="46.91864" lon="5.2476">
        <ele>182.6</ele>
        <time>2022-03-21T12:05:51Z</time>
      </trkpt>
      <trkpt lat="46.91858" lon="5.24762">
        <ele>182.6</ele>
        <time>2022-03-21T12:05:52Z</time>
      </trkpt>
      <trkpt lat="46.91853" lon="5.24764">
        <ele>182.6</ele>
        <time>2022-03-21T12:05:53Z</time>
      </trkpt>
      <trkpt lat="46.91847" lon="5.24767">
        <ele>182.6</ele>
        <time>2022-03-21T12:05:54Z</time>
      </trkpt>
      <trkpt lat="46.91842" lon="5.2477">
        <ele>182.6</ele>
        <time>2022-03-21T12:05:55Z</time>
      </trkpt>
      <trkpt lat="46.91836" lon="5.24773">
        <ele>182.6</ele>
        <time>2022-03-21T12:05:56Z</time>
      </trkpt>
      <trkpt lat="46.91831" lon="5.24777">
        <ele>182.6</ele>
        <time>2022-03-21T12:05:57Z</time>
      </trkpt>
      <trkpt lat="46.91826" lon="5.2478">
        <ele>182.6</ele>
        <time>2022-03-21T12:05:58Z</time>
      </trkpt>
      <trkpt lat="46.9182" lon="5.24784">
        <ele>182.6</ele>
        <time>2022-03-21T12:05:59Z</time>
      </trkpt>
      <trkpt lat="46.91815" lon="5.24788">
        <ele>182.6</ele>
        <time>2022-03-21T12:06:00Z</time>
      </trkpt>
      <trkpt lat="46.91809" lon="5.24791">
        <ele>182.6</ele>
        <time>2022-03-21T12:06:01Z</time>
      </trkpt>
      <trkpt lat="46.91804" lon="5.24795">
        <ele>182.6</ele>
        <time>2022-03-21T12:06:02Z</time>
      </trkpt>
      <trkpt lat="46.91798" lon="5.24798">
        <ele>182.6</ele>
        <time>2022-03-21T12:06:03Z</time>
      </trkpt>
      <trkpt lat="46.91793" lon="5.24803">
        <ele>182.6</ele>
        <time>2022-03-21T12:06:04Z</time>
      </trkpt>
      <trkpt lat="46.91787" lon="5.24807">
        <ele>182.6</ele>
        <time>2022-03-21T12:06:05Z</time>
      </trkpt>
      <trkpt lat="46.91782" lon="5.24811">
        <ele>182.6</ele>
        <time>2022-03-21T12:06:06Z</time>
      </trkpt>
      <trkpt lat="46.91776" lon="5.24815">
        <ele>182.6</ele>
        <time>2022-03-21T12:06:07Z</time>
      </trkpt>
      <trkpt lat="46.9177" lon="5.24819">
        <ele>182.6</ele>
        <time>2022-03-21T12:06:08Z</time>
      </trkpt>
      <trkpt lat="46.91764" lon="5.24823">
        <ele>182.6</ele>
        <time>2022-03-21T12:06:09Z</time>
      </trkpt>
      <trkpt lat="46.91759" lon="5.24827">
        <ele>182.6</ele>
        <time>2022-03-21T12:06:10Z</time>
      </trkpt>
      <trkpt lat="46.91753" lon="5.24831">
        <ele>182.6</ele>
        <time>2022-03-21T12:06:11Z</time>
      </trkpt>
      <trkpt lat="46.91747" lon="5.24835">
        <ele>182.6</ele>
        <time>2022-03-21T12:06:12Z</time>
      </trkpt>
      <trkpt lat="46.91741" lon="5.24839">
        <ele>182.6</ele>
        <time>2022-03-21T12:06:13Z</time>
      </trkpt>
      <trkpt lat="46.91735" lon="5.24843">
        <ele>182.6</ele>
        <time>2022-03-21T12:06:14Z</time>
      </trkpt>
      <trkpt lat="46.9173" lon="5.24847">
        <ele>182.6</ele>
        <time>2022-03-21T12:06:15Z</time>
      </trkpt>
      <trkpt lat="46.91724" lon="5.24852">
        <ele>182.6</ele>
        <time>2022-03-21T12:06:16Z</time>
      </trkpt>
      <trkpt lat="46.91718" lon="5.24856">
        <ele>182.6</ele>
        <time>2022-03-21T12:06:17Z</time>
      </trkpt>
      <trkpt lat="46.91712" lon="5.24859">
        <ele>182.6</ele>
        <time>2022-03-21T12:06:18Z</time>
      </trkpt>
      <trkpt lat="46.91706" lon="5.24863">
        <ele>182.8</ele>
        <time>2022-03-21T12:06:19Z</time>
      </trkpt>
      <trkpt lat="46.91701" lon="5.24867">
        <ele>182.8</ele>
        <time>2022-03-21T12:06:20Z</time>
      </trkpt>
      <trkpt lat="46.91695" lon="5.24871">
        <ele>182.8</ele>
        <time>2022-03-21T12:06:21Z</time>
      </trkpt>
      <trkpt lat="46.91689" lon="5.24876">
        <ele>182.8</ele>
        <time>2022-03-21T12:06:22Z</time>
      </trkpt>
      <trkpt lat="46.91684" lon="5.2488">
        <ele>182.8</ele>
        <time>2022-03-21T12:06:23Z</time>
      </trkpt>
      <trkpt lat="46.91678" lon="5.24883">
        <ele>182.8</ele>
        <time>2022-03-21T12:06:24Z</time>
      </trkpt>
      <trkpt lat="46.91673" lon="5.24887">
        <ele>182.8</ele>
        <time>2022-03-21T12:06:25Z</time>
      </trkpt>
      <trkpt lat="46.91667" lon="5.24891">
        <ele>182.8</ele>
        <time>2022-03-21T12:06:26Z</time>
      </trkpt>
      <trkpt lat="46.91661" lon="5.24895">
        <ele>182.8</ele>
        <time>2022-03-21T12:06:27Z</time>
      </trkpt>
      <trkpt lat="46.91656" lon="5.24899">
        <ele>182.8</ele>
        <time>2022-03-21T12:06:28Z</time>
      </trkpt>
      <trkpt lat="46.9165" lon="5.24904">
        <ele>182.8</ele>
        <time>2022-03-21T12:06:29Z</time>
      </trkpt>
      <trkpt lat="46.91644" lon="5.24908">
        <ele>182.8</ele>
        <time>2022-03-21T12:06:30Z</time>
      </trkpt>
      <trkpt lat="46.91638" lon="5.24912">
        <ele>182.8</ele>
        <time>2022-03-21T12:06:31Z</time>
      </trkpt>
      <trkpt lat="46.91633" lon="5.24916">
        <ele>182.8</ele>
        <time>2022-03-21T12:06:32Z</time>
      </trkpt>
      <trkpt lat="46.91627" lon="5.2492">
        <ele>182.8</ele>
        <time>2022-03-21T12:06:33Z</time>
      </trkpt>
      <trkpt lat="46.91621" lon="5.24924">
        <ele>182.8</ele>
        <time>2022-03-21T12:06:34Z</time>
      </trkpt>
      <trkpt lat="46.91616" lon="5.24928">
        <ele>182.8</ele>
        <time>2022-03-21T12:06:35Z</time>
      </trkpt>
      <trkpt lat="46.9161" lon="5.24931">
        <ele>182.6</ele>
        <time>2022-03-21T12:06:36Z</time>
      </trkpt>
      <trkpt lat="46.91604" lon="5.24935">
        <ele>182.6</ele>
        <time>2022-03-21T12:06:37Z</time>
      </trkpt>
      <trkpt lat="46.91598" lon="5.24938">
        <ele>182.6</ele>
        <time>2022-03-21T12:06:38Z</time>
      </trkpt>
      <trkpt lat="46.91592" lon="5.24942">
        <ele>182.6</ele>
        <time>2022-03-21T12:06:39Z</time>
      </trkpt>
      <trkpt lat="46.91587" lon="5.24945">
        <ele>182.6</ele>
        <time>2022-03-21T12:06:40Z</time>
      </trkpt>
      <trkpt lat="46.91581" lon="5.24948">
        <ele>182.6</ele>
        <time>2022-03-21T12:06:41Z</time>
      </trkpt>
      <trkpt lat="46.91575" lon="5.24952">
        <ele>182.6</ele>
        <time>2022-03-21T12:06:42Z</time>
      </trkpt>
      <trkpt lat="46.91569" lon="5.24955">
        <ele>182.6</ele>
        <time>2022-03-21T12:06:43Z</time>
      </trkpt>
      <trkpt lat="46.91563" lon="5.24958">
        <ele>182.6</ele>
        <time>2022-03-21T12:06:44Z</time>
      </trkpt>
      <trkpt lat="46.91557" lon="5.24961">
        <ele>182.6</ele>
        <time>2022-03-21T12:06:45Z</time>
      </trkpt>
      <trkpt lat="46.91552" lon="5.24965">
        <ele>182.6</ele>
        <time>2022-03-21T12:06:46Z</time>
      </trkpt>
      <trkpt lat="46.91546" lon="5.24968">
        <ele>182.6</ele>
        <time>2022-03-21T12:06:47Z</time>
      </trkpt>
      <trkpt lat="46.91539" lon="5.24971">
        <ele>182.6</ele>
        <time>2022-03-21T12:06:48Z</time>
      </trkpt>
      <trkpt lat="46.91533" lon="5.24973">
        <ele>182.6</ele>
        <time>2022-03-21T12:06:49Z</time>
      </trkpt>
      <trkpt lat="46.91527" lon="5.24976">
        <ele>182.6</ele>
        <time>2022-03-21T12:06:50Z</time>
      </trkpt>
      <trkpt lat="46.91521" lon="5.24979">
        <ele>182.6</ele>
        <time>2022-03-21T12:06:51Z</time>
      </trkpt>
      <trkpt lat="46.91515" lon="5.24982">
        <ele>182.6</ele>
        <time>2022-03-21T12:06:52Z</time>
      </trkpt>
      <trkpt lat="46.91508" lon="5.24985">
        <ele>182.6</ele>
        <time>2022-03-21T12:06:53Z</time>
      </trkpt>
      <trkpt lat="46.91502" lon="5.24988">
        <ele>182.6</ele>
        <time>2022-03-21T12:06:54Z</time>
      </trkpt>
      <trkpt lat="46.91496" lon="5.24991">
        <ele>182.6</ele>
        <time>2022-03-21T12:06:55Z</time>
      </trkpt>
      <trkpt lat="46.9149" lon="5.24993">
        <ele>182.6</ele>
        <time>2022-03-21T12:06:56Z</time>
      </trkpt>
      <trkpt lat="46.91484" lon="5.24996">
        <ele>182.6</ele>
        <time>2022-03-21T12:06:57Z</time>
      </trkpt>
      <trkpt lat="46.91478" lon="5.24999">
        <ele>182.6</ele>
        <time>2022-03-21T12:06:58Z</time>
      </trkpt>
      <trkpt lat="46.91471" lon="5.25001">
        <ele>182.6</ele>
        <time>2022-03-21T12:06:59Z</time>
      </trkpt>
      <trkpt lat="46.91465" lon="5.25003">
        <ele>182.6</ele>
        <time>2022-03-21T12:07:00Z</time>
      </trkpt>
      <trkpt lat="46.91459" lon="5.25005">
        <ele>182.6</ele>
        <time>2022-03-21T12:07:01Z</time>
      </trkpt>
      <trkpt lat="46.91453" lon="5.25007">
        <ele>182.6</ele>
        <time>2022-03-21T12:07:02Z</time>
      </trkpt>
      <trkpt lat="46.91447" lon="5.25009">
        <ele>182.6</ele>
        <time>2022-03-21T12:07:03Z</time>
      </trkpt>
      <trkpt lat="46.91441" lon="5.25011">
        <ele>182.6</ele>
        <time>2022-03-21T12:07:04Z</time>
      </trkpt>
      <trkpt lat="46.91435" lon="5.25013">
        <ele>182.6</ele>
        <time>2022-03-21T12:07:05Z</time>
      </trkpt>
      <trkpt lat="46.9143" lon="5.25014">
        <ele>182.6</ele>
        <time>2022-03-21T12:07:06Z</time>
      </trkpt>
      <trkpt lat="46.91424" lon="5.25016">
        <ele>182.6</ele>
        <time>2022-03-21T12:07:07Z</time>
      </trkpt>
      <trkpt lat="46.91418" lon="5.25017">
        <ele>182.6</ele>
        <time>2022-03-21T12:07:08Z</time>
      </trkpt>
      <trkpt lat="46.91413" lon="5.25019">
        <ele>182.6</ele>
        <time>2022-03-21T12:07:09Z</time>
      </trkpt>
      <trkpt lat="46.91407" lon="5.2502">
        <ele>182.6</ele>
        <time>2022-03-21T12:07:10Z</time>
      </trkpt>
      <trkpt lat="46.91402" lon="5.25022">
        <ele>182.8</ele>
        <time>2022-03-21T12:07:11Z</time>
      </trkpt>
      <trkpt lat="46.91396" lon="5.25023">
        <ele>182.8</ele>
        <time>2022-03-21T12:07:12Z</time>
      </trkpt>
      <trkpt lat="46.91391" lon="5.25024">
        <ele>182.8</ele>
        <time>2022-03-21T12:07:13Z</time>
      </trkpt>
      <trkpt lat="46.91385" lon="5.25025">
        <ele>182.8</ele>
        <time>2022-03-21T12:07:14Z</time>
      </trkpt>
      <trkpt lat="46.9138" lon="5.25026">
        <ele>182.8</ele>
        <time>2022-03-21T12:07:15Z</time>
      </trkpt>
      <trkpt lat="46.91369" lon="5.25028">
        <ele>182.8</ele>
        <time>2022-03-21T12:07:16Z</time>
      </trkpt>
      <trkpt lat="46.91363" lon="5.25029">
        <ele>182.8</ele>
        <time>2022-03-21T12:07:17Z</time>
      </trkpt>
      <trkpt lat="46.91357" lon="5.25031">
        <ele>182.8</ele>
        <time>2022-03-21T12:07:18Z</time>
      </trkpt>
      <trkpt lat="46.91351" lon="5.25032">
        <ele>182.8</ele>
        <time>2022-03-21T12:07:19Z</time>
      </trkpt>
      <trkpt lat="46.91346" lon="5.25033">
        <ele>182.8</ele>
        <time>2022-03-21T12:07:20Z</time>
      </trkpt>
      <trkpt lat="46.9134" lon="5.25034">
        <ele>182.8</ele>
        <time>2022-03-21T12:07:21Z</time>
      </trkpt>
      <trkpt lat="46.91334" lon="5.25035">
        <ele>182.8</ele>
        <time>2022-03-21T12:07:22Z</time>
      </trkpt>
      <trkpt lat="46.91329" lon="5.25036">
        <ele>182.8</ele>
        <time>2022-03-21T12:07:23Z</time>
      </trkpt>
      <trkpt lat="46.91323" lon="5.25037">
        <ele>182.8</ele>
        <time>2022-03-21T12:07:24Z</time>
      </trkpt>
      <trkpt lat="46.91318" lon="5.25038">
        <ele>182.8</ele>
        <time>2022-03-21T12:07:25Z</time>
      </trkpt>
      <trkpt lat="46.91312" lon="5.25039">
        <ele>182.8</ele>
        <time>2022-03-21T12:07:26Z</time>
      </trkpt>
      <trkpt lat="46.91307" lon="5.2504">
        <ele>182.8</ele>
        <time>2022-03-21T12:07:27Z</time>
      </trkpt>
      <trkpt lat="46.91301" lon="5.25042">
        <ele>182.8</ele>
        <time>2022-03-21T12:07:28Z</time>
      </trkpt>
      <trkpt lat="46.91296" lon="5.25043">
        <ele>182.8</ele>
        <time>2022-03-21T12:07:29Z</time>
      </trkpt>
      <trkpt lat="46.9129" lon="5.25044">
        <ele>182.8</ele>
        <time>2022-03-21T12:07:30Z</time>
      </trkpt>
      <trkpt lat="46.91284" lon="5.25045">
        <ele>182.8</ele>
        <time>2022-03-21T12:07:31Z</time>
      </trkpt>
      <trkpt lat="46.91279" lon="5.25046">
        <ele>182.8</ele>
        <time>2022-03-21T12:07:32Z</time>
      </trkpt>
      <trkpt lat="46.91273" lon="5.25047">
        <ele>182.8</ele>
        <time>2022-03-21T12:07:33Z</time>
      </trkpt>
      <trkpt lat="46.91268" lon="5.25048">
        <ele>182.8</ele>
        <time>2022-03-21T12:07:34Z</time>
      </trkpt>
      <trkpt lat="46.91262" lon="5.25049">
        <ele>182.8</ele>
        <time>2022-03-21T12:07:35Z</time>
      </trkpt>
      <trkpt lat="46.91257" lon="5.25051">
        <ele>182.8</ele>
        <time>2022-03-21T12:07:36Z</time>
      </trkpt>
      <trkpt lat="46.91251" lon="5.25052">
        <ele>182.8</ele>
        <time>2022-03-21T12:07:37Z</time>
      </trkpt>
      <trkpt lat="46.91246" lon="5.25053">
        <ele>182.6</ele>
        <time>2022-03-21T12:07:38Z</time>
      </trkpt>
      <trkpt lat="46.91241" lon="5.25055">
        <ele>182.6</ele>
        <time>2022-03-21T12:07:39Z</time>
      </trkpt>
      <trkpt lat="46.91235" lon="5.25056">
        <ele>182.6</ele>
        <time>2022-03-21T12:07:40Z</time>
      </trkpt>
      <trkpt lat="46.9123" lon="5.25058">
        <ele>182.6</ele>
        <time>2022-03-21T12:07:41Z</time>
      </trkpt>
      <trkpt lat="46.91225" lon="5.2506">
        <ele>182.6</ele>
        <time>2022-03-21T12:07:42Z</time>
      </trkpt>
      <trkpt lat="46.91219" lon="5.25061">
        <ele>182.6</ele>
        <time>2022-03-21T12:07:43Z</time>
      </trkpt>
      <trkpt lat="46.91214" lon="5.25063">
        <ele>182.6</ele>
        <time>2022-03-21T12:07:44Z</time>
      </trkpt>
      <trkpt lat="46.91209" lon="5.25064">
        <ele>182.6</ele>
        <time>2022-03-21T12:07:45Z</time>
      </trkpt>
      <trkpt lat="46.91204" lon="5.25066">
        <ele>182.6</ele>
        <time>2022-03-21T12:07:46Z</time>
      </trkpt>
      <trkpt lat="46.91199" lon="5.25067">
        <ele>182.6</ele>
        <time>2022-03-21T12:07:47Z</time>
      </trkpt>
      <trkpt lat="46.91193" lon="5.25068">
        <ele>182.6</ele>
        <time>2022-03-21T12:07:48Z</time>
      </trkpt>
      <trkpt lat="46.91188" lon="5.2507">
        <ele>182.6</ele>
        <time>2022-03-21T12:07:49Z</time>
      </trkpt>
      <trkpt lat="46.91183" lon="5.25071">
        <ele>182.6</ele>
        <time>2022-03-21T12:07:50Z</time>
      </trkpt>
      <trkpt lat="46.91177" lon="5.25073">
        <ele>182.6</ele>
        <time>2022-03-21T12:07:51Z</time>
      </trkpt>
      <trkpt lat="46.91172" lon="5.25074">
        <ele>182.6</ele>
        <time>2022-03-21T12:07:52Z</time>
      </trkpt>
      <trkpt lat="46.91166" lon="5.25076">
        <ele>182.6</ele>
        <time>2022-03-21T12:07:53Z</time>
      </trkpt>
      <trkpt lat="46.91161" lon="5.25078">
        <ele>182.6</ele>
        <time>2022-03-21T12:07:54Z</time>
      </trkpt>
      <trkpt lat="46.91155" lon="5.2508">
        <ele>182.6</ele>
        <time>2022-03-21T12:07:55Z</time>
      </trkpt>
      <trkpt lat="46.91149" lon="5.25081">
        <ele>182.6</ele>
        <time>2022-03-21T12:07:56Z</time>
      </trkpt>
      <trkpt lat="46.91144" lon="5.25082">
        <ele>182.4</ele>
        <time>2022-03-21T12:07:57Z</time>
      </trkpt>
      <trkpt lat="46.91138" lon="5.25084">
        <ele>182.4</ele>
        <time>2022-03-21T12:07:58Z</time>
      </trkpt>
      <trkpt lat="46.91133" lon="5.25085">
        <ele>182.4</ele>
        <time>2022-03-21T12:07:59Z</time>
      </trkpt>
      <trkpt lat="46.91127" lon="5.25086">
        <ele>182.4</ele>
        <time>2022-03-21T12:08:00Z</time>
      </trkpt>
      <trkpt lat="46.91121" lon="5.25088">
        <ele>182.4</ele>
        <time>2022-03-21T12:08:01Z</time>
      </trkpt>
      <trkpt lat="46.91116" lon="5.25089">
        <ele>182.4</ele>
        <time>2022-03-21T12:08:02Z</time>
      </trkpt>
      <trkpt lat="46.9111" lon="5.25091">
        <ele>182.4</ele>
        <time>2022-03-21T12:08:03Z</time>
      </trkpt>
      <trkpt lat="46.91105" lon="5.25092">
        <ele>182.4</ele>
        <time>2022-03-21T12:08:04Z</time>
      </trkpt>
      <trkpt lat="46.91099" lon="5.25094">
        <ele>182.4</ele>
        <time>2022-03-21T12:08:05Z</time>
      </trkpt>
      <trkpt lat="46.91093" lon="5.25095">
        <ele>182.4</ele>
        <time>2022-03-21T12:08:06Z</time>
      </trkpt>
      <trkpt lat="46.91088" lon="5.25097">
        <ele>182.4</ele>
        <time>2022-03-21T12:08:07Z</time>
      </trkpt>
      <trkpt lat="46.91082" lon="5.25099">
        <ele>182.4</ele>
        <time>2022-03-21T12:08:08Z</time>
      </trkpt>
      <trkpt lat="46.91076" lon="5.25101">
        <ele>182.4</ele>
        <time>2022-03-21T12:08:09Z</time>
      </trkpt>
      <trkpt lat="46.9107" lon="5.25104">
        <ele>182.4</ele>
        <time>2022-03-21T12:08:10Z</time>
      </trkpt>
      <trkpt lat="46.91065" lon="5.25107">
        <ele>182.4</ele>
        <time>2022-03-21T12:08:11Z</time>
      </trkpt>
      <trkpt lat="46.91059" lon="5.2511">
        <ele>182.4</ele>
        <time>2022-03-21T12:08:12Z</time>
      </trkpt>
      <trkpt lat="46.91054" lon="5.25113">
        <ele>182.4</ele>
        <time>2022-03-21T12:08:13Z</time>
      </trkpt>
      <trkpt lat="46.91048" lon="5.25117">
        <ele>182.4</ele>
        <time>2022-03-21T12:08:14Z</time>
      </trkpt>
      <trkpt lat="46.91043" lon="5.25121">
        <ele>182.4</ele>
        <time>2022-03-21T12:08:15Z</time>
      </trkpt>
      <trkpt lat="46.91037" lon="5.25126">
        <ele>182.4</ele>
        <time>2022-03-21T12:08:16Z</time>
      </trkpt>
      <trkpt lat="46.91032" lon="5.25131">
        <ele>182.4</ele>
        <time>2022-03-21T12:08:17Z</time>
      </trkpt>
      <trkpt lat="46.91027" lon="5.25136">
        <ele>182.4</ele>
        <time>2022-03-21T12:08:18Z</time>
      </trkpt>
      <trkpt lat="46.91022" lon="5.25141">
        <ele>182.4</ele>
        <time>2022-03-21T12:08:19Z</time>
      </trkpt>
      <trkpt lat="46.91017" lon="5.25146">
        <ele>182.4</ele>
        <time>2022-03-21T12:08:20Z</time>
      </trkpt>
      <trkpt lat="46.91012" lon="5.25152">
        <ele>182.4</ele>
        <time>2022-03-21T12:08:21Z</time>
      </trkpt>
      <trkpt lat="46.91007" lon="5.25158">
        <ele>182.4</ele>
        <time>2022-03-21T12:08:22Z</time>
      </trkpt>
      <trkpt lat="46.91002" lon="5.25163">
        <ele>182.4</ele>
        <time>2022-03-21T12:08:23Z</time>
      </trkpt>
      <trkpt lat="46.90997" lon="5.25169">
        <ele>182.4</ele>
        <time>2022-03-21T12:08:24Z</time>
      </trkpt>
      <trkpt lat="46.90993" lon="5.25174">
        <ele>182.4</ele>
        <time>2022-03-21T12:08:25Z</time>
      </trkpt>
      <trkpt lat="46.90988" lon="5.2518">
        <ele>182.2</ele>
        <time>2022-03-21T12:08:26Z</time>
      </trkpt>
      <trkpt lat="46.90983" lon="5.25185">
        <ele>182.2</ele>
        <time>2022-03-21T12:08:27Z</time>
      </trkpt>
      <trkpt lat="46.90978" lon="5.25191">
        <ele>182.2</ele>
        <time>2022-03-21T12:08:28Z</time>
      </trkpt>
      <trkpt lat="46.90974" lon="5.25196">
        <ele>182.2</ele>
        <time>2022-03-21T12:08:29Z</time>
      </trkpt>
      <trkpt lat="46.90969" lon="5.25202">
        <ele>182.2</ele>
        <time>2022-03-21T12:08:30Z</time>
      </trkpt>
      <trkpt lat="46.90965" lon="5.25207">
        <ele>182.2</ele>
        <time>2022-03-21T12:08:31Z</time>
      </trkpt>
      <trkpt lat="46.9096" lon="5.25213">
        <ele>182.2</ele>
        <time>2022-03-21T12:08:32Z</time>
      </trkpt>
      <trkpt lat="46.90955" lon="5.25218">
        <ele>182.2</ele>
        <time>2022-03-21T12:08:33Z</time>
      </trkpt>
      <trkpt lat="46.90951" lon="5.25223">
        <ele>182.2</ele>
        <time>2022-03-21T12:08:34Z</time>
      </trkpt>
      <trkpt lat="46.90946" lon="5.25229">
        <ele>182.2</ele>
        <time>2022-03-21T12:08:35Z</time>
      </trkpt>
      <trkpt lat="46.90942" lon="5.25234">
        <ele>182.2</ele>
        <time>2022-03-21T12:08:36Z</time>
      </trkpt>
      <trkpt lat="46.90937" lon="5.2524">
        <ele>182.2</ele>
        <time>2022-03-21T12:08:37Z</time>
      </trkpt>
      <trkpt lat="46.90932" lon="5.25245">
        <ele>182.2</ele>
        <time>2022-03-21T12:08:38Z</time>
      </trkpt>
      <trkpt lat="46.90928" lon="5.25251">
        <ele>182.2</ele>
        <time>2022-03-21T12:08:39Z</time>
      </trkpt>
      <trkpt lat="46.90923" lon="5.25256">
        <ele>182.2</ele>
        <time>2022-03-21T12:08:40Z</time>
      </trkpt>
      <trkpt lat="46.90918" lon="5.25261">
        <ele>182.2</ele>
        <time>2022-03-21T12:08:41Z</time>
      </trkpt>
      <trkpt lat="46.90914" lon="5.25267">
        <ele>182.2</ele>
        <time>2022-03-21T12:08:42Z</time>
      </trkpt>
      <trkpt lat="46.90909" lon="5.25272">
        <ele>182.2</ele>
        <time>2022-03-21T12:08:43Z</time>
      </trkpt>
      <trkpt lat="46.90905" lon="5.25277">
        <ele>182.2</ele>
        <time>2022-03-21T12:08:44Z</time>
      </trkpt>
      <trkpt lat="46.909" lon="5.25283">
        <ele>182.2</ele>
        <time>2022-03-21T12:08:45Z</time>
      </trkpt>
      <trkpt lat="46.90896" lon="5.25288">
        <ele>182.2</ele>
        <time>2022-03-21T12:08:46Z</time>
      </trkpt>
      <trkpt lat="46.90891" lon="5.25293">
        <ele>182.4</ele>
        <time>2022-03-21T12:08:47Z</time>
      </trkpt>
      <trkpt lat="46.90887" lon="5.25299">
        <ele>182.4</ele>
        <time>2022-03-21T12:08:48Z</time>
      </trkpt>
      <trkpt lat="46.90882" lon="5.25304">
        <ele>182.4</ele>
        <time>2022-03-21T12:08:49Z</time>
      </trkpt>
      <trkpt lat="46.90878" lon="5.25309">
        <ele>182.4</ele>
        <time>2022-03-21T12:08:51Z</time>
      </trkpt>
      <trkpt lat="46.90873" lon="5.25314">
        <ele>182.4</ele>
        <time>2022-03-21T12:08:52Z</time>
      </trkpt>
      <trkpt lat="46.90869" lon="5.2532">
        <ele>182.4</ele>
        <time>2022-03-21T12:08:53Z</time>
      </trkpt>
      <trkpt lat="46.90864" lon="5.25325">
        <ele>182.4</ele>
        <time>2022-03-21T12:08:54Z</time>
      </trkpt>
      <trkpt lat="46.9086" lon="5.2533">
        <ele>182.4</ele>
        <time>2022-03-21T12:08:55Z</time>
      </trkpt>
      <trkpt lat="46.90855" lon="5.25336">
        <ele>182.4</ele>
        <time>2022-03-21T12:08:56Z</time>
      </trkpt>
      <trkpt lat="46.9085" lon="5.25341">
        <ele>182.4</ele>
        <time>2022-03-21T12:08:57Z</time>
      </trkpt>
      <trkpt lat="46.90846" lon="5.25347">
        <ele>182.4</ele>
        <time>2022-03-21T12:08:58Z</time>
      </trkpt>
      <trkpt lat="46.90841" lon="5.25352">
        <ele>182.4</ele>
        <time>2022-03-21T12:08:59Z</time>
      </trkpt>
      <trkpt lat="46.90837" lon="5.25357">
        <ele>182.4</ele>
        <time>2022-03-21T12:09:00Z</time>
      </trkpt>
      <trkpt lat="46.90832" lon="5.25362">
        <ele>182.4</ele>
        <time>2022-03-21T12:09:01Z</time>
      </trkpt>
      <trkpt lat="46.90828" lon="5.25368">
        <ele>182.4</ele>
        <time>2022-03-21T12:09:02Z</time>
      </trkpt>
      <trkpt lat="46.90823" lon="5.25373">
        <ele>182.4</ele>
        <time>2022-03-21T12:09:03Z</time>
      </trkpt>
      <trkpt lat="46.90818" lon="5.25378">
        <ele>182.4</ele>
        <time>2022-03-21T12:09:04Z</time>
      </trkpt>
      <trkpt lat="46.90814" lon="5.25383">
        <ele>182.4</ele>
        <time>2022-03-21T12:09:05Z</time>
      </trkpt>
      <trkpt lat="46.9081" lon="5.25389">
        <ele>182.4</ele>
        <time>2022-03-21T12:09:06Z</time>
      </trkpt>
      <trkpt lat="46.90805" lon="5.25394">
        <ele>182.4</ele>
        <time>2022-03-21T12:09:07Z</time>
      </trkpt>
      <trkpt lat="46.90801" lon="5.25399">
        <ele>182.4</ele>
        <time>2022-03-21T12:09:08Z</time>
      </trkpt>
      <trkpt lat="46.90796" lon="5.25405">
        <ele>182.4</ele>
        <time>2022-03-21T12:09:09Z</time>
      </trkpt>
      <trkpt lat="46.90792" lon="5.2541">
        <ele>182.4</ele>
        <time>2022-03-21T12:09:10Z</time>
      </trkpt>
      <trkpt lat="46.90787" lon="5.25415">
        <ele>182.4</ele>
        <time>2022-03-21T12:09:11Z</time>
      </trkpt>
      <trkpt lat="46.90782" lon="5.2542">
        <ele>182.4</ele>
        <time>2022-03-21T12:09:12Z</time>
      </trkpt>
      <trkpt lat="46.90778" lon="5.25425">
        <ele>182.4</ele>
        <time>2022-03-21T12:09:13Z</time>
      </trkpt>
      <trkpt lat="46.90773" lon="5.25431">
        <ele>182.4</ele>
        <time>2022-03-21T12:09:14Z</time>
      </trkpt>
      <trkpt lat="46.90769" lon="5.25436">
        <ele>182.4</ele>
        <time>2022-03-21T12:09:15Z</time>
      </trkpt>
      <trkpt lat="46.90764" lon="5.25442">
        <ele>182.4</ele>
        <time>2022-03-21T12:09:16Z</time>
      </trkpt>
      <trkpt lat="46.90759" lon="5.25447">
        <ele>182.4</ele>
        <time>2022-03-21T12:09:17Z</time>
      </trkpt>
      <trkpt lat="46.90755" lon="5.25453">
        <ele>182.4</ele>
        <time>2022-03-21T12:09:18Z</time>
      </trkpt>
      <trkpt lat="46.9075" lon="5.25458">
        <ele>182.4</ele>
        <time>2022-03-21T12:09:19Z</time>
      </trkpt>
      <trkpt lat="46.90745" lon="5.25464">
        <ele>182.4</ele>
        <time>2022-03-21T12:09:20Z</time>
      </trkpt>
      <trkpt lat="46.90741" lon="5.25469">
        <ele>182.4</ele>
        <time>2022-03-21T12:09:21Z</time>
      </trkpt>
      <trkpt lat="46.90736" lon="5.25475">
        <ele>182.4</ele>
        <time>2022-03-21T12:09:22Z</time>
      </trkpt>
      <trkpt lat="46.90732" lon="5.2548">
        <ele>182.4</ele>
        <time>2022-03-21T12:09:23Z</time>
      </trkpt>
      <trkpt lat="46.90727" lon="5.25486">
        <ele>182.4</ele>
        <time>2022-03-21T12:09:24Z</time>
      </trkpt>
      <trkpt lat="46.90722" lon="5.25491">
        <ele>182.4</ele>
        <time>2022-03-21T12:09:25Z</time>
      </trkpt>
      <trkpt lat="46.90718" lon="5.25496">
        <ele>182.4</ele>
        <time>2022-03-21T12:09:26Z</time>
      </trkpt>
      <trkpt lat="46.90713" lon="5.25501">
        <ele>182.4</ele>
        <time>2022-03-21T12:09:27Z</time>
      </trkpt>
      <trkpt lat="46.90709" lon="5.25507">
        <ele>182.4</ele>
        <time>2022-03-21T12:09:28Z</time>
      </trkpt>
      <trkpt lat="46.90704" lon="5.25512">
        <ele>182.4</ele>
        <time>2022-03-21T12:09:29Z</time>
      </trkpt>
      <trkpt lat="46.90699" lon="5.25517">
        <ele>182.4</ele>
        <time>2022-03-21T12:09:30Z</time>
      </trkpt>
      <trkpt lat="46.90694" lon="5.25521">
        <ele>182.4</ele>
        <time>2022-03-21T12:09:31Z</time>
      </trkpt>
      <trkpt lat="46.90689" lon="5.25525">
        <ele>182.4</ele>
        <time>2022-03-21T12:09:32Z</time>
      </trkpt>
      <trkpt lat="46.90684" lon="5.25529">
        <ele>182.4</ele>
        <time>2022-03-21T12:09:33Z</time>
      </trkpt>
      <trkpt lat="46.90679" lon="5.25533">
        <ele>182.4</ele>
        <time>2022-03-21T12:09:34Z</time>
      </trkpt>
      <trkpt lat="46.90673" lon="5.25536">
        <ele>182.4</ele>
        <time>2022-03-21T12:09:35Z</time>
      </trkpt>
      <trkpt lat="46.90667" lon="5.25538">
        <ele>182.4</ele>
        <time>2022-03-21T12:09:36Z</time>
      </trkpt>
      <trkpt lat="46.90662" lon="5.2554">
        <ele>182.4</ele>
        <time>2022-03-21T12:09:37Z</time>
      </trkpt>
      <trkpt lat="46.90656" lon="5.25542">
        <ele>182.4</ele>
        <time>2022-03-21T12:09:38Z</time>
      </trkpt>
      <trkpt lat="46.90651" lon="5.25543">
        <ele>182.4</ele>
        <time>2022-03-21T12:09:39Z</time>
      </trkpt>
      <trkpt lat="46.90645" lon="5.25544">
        <ele>182.6</ele>
        <time>2022-03-21T12:09:40Z</time>
      </trkpt>
      <trkpt lat="46.9064" lon="5.25544">
        <ele>182.6</ele>
        <time>2022-03-21T12:09:41Z</time>
      </trkpt>
      <trkpt lat="46.90634" lon="5.25544">
        <ele>182.6</ele>
        <time>2022-03-21T12:09:42Z</time>
      </trkpt>
      <trkpt lat="46.90628" lon="5.25545">
        <ele>182.6</ele>
        <time>2022-03-21T12:09:43Z</time>
      </trkpt>
      <trkpt lat="46.90623" lon="5.25545">
        <ele>182.6</ele>
        <time>2022-03-21T12:09:44Z</time>
      </trkpt>
      <trkpt lat="46.90617" lon="5.25545">
        <ele>182.6</ele>
        <time>2022-03-21T12:09:45Z</time>
      </trkpt>
      <trkpt lat="46.90612" lon="5.25546">
        <ele>182.6</ele>
        <time>2022-03-21T12:09:46Z</time>
      </trkpt>
      <trkpt lat="46.90607" lon="5.25545">
        <ele>182.6</ele>
        <time>2022-03-21T12:09:47Z</time>
      </trkpt>
      <trkpt lat="46.90601" lon="5.25545">
        <ele>182.6</ele>
        <time>2022-03-21T12:09:48Z</time>
      </trkpt>
      <trkpt lat="46.90595" lon="5.25545">
        <ele>182.6</ele>
        <time>2022-03-21T12:09:49Z</time>
      </trkpt>
      <trkpt lat="46.9059" lon="5.25545">
        <ele>182.6</ele>
        <time>2022-03-21T12:09:50Z</time>
      </trkpt>
      <trkpt lat="46.90585" lon="5.25545">
        <ele>182.6</ele>
        <time>2022-03-21T12:09:51Z</time>
      </trkpt>
      <trkpt lat="46.9058" lon="5.25545">
        <ele>182.6</ele>
        <time>2022-03-21T12:09:52Z</time>
      </trkpt>
      <trkpt lat="46.90574" lon="5.25545">
        <ele>182.6</ele>
        <time>2022-03-21T12:09:53Z</time>
      </trkpt>
      <trkpt lat="46.90569" lon="5.25545">
        <ele>182.6</ele>
        <time>2022-03-21T12:09:54Z</time>
      </trkpt>
      <trkpt lat="46.90564" lon="5.25545">
        <ele>182.6</ele>
        <time>2022-03-21T12:09:55Z</time>
      </trkpt>
      <trkpt lat="46.90558" lon="5.25545">
        <ele>182.6</ele>
        <time>2022-03-21T12:09:56Z</time>
      </trkpt>
      <trkpt lat="46.90553" lon="5.25545">
        <ele>182.6</ele>
        <time>2022-03-21T12:09:57Z</time>
      </trkpt>
      <trkpt lat="46.90548" lon="5.25545">
        <ele>182.6</ele>
        <time>2022-03-21T12:09:58Z</time>
      </trkpt>
      <trkpt lat="46.90543" lon="5.25545">
        <ele>182.6</ele>
        <time>2022-03-21T12:09:59Z</time>
      </trkpt>
      <trkpt lat="46.90537" lon="5.25545">
        <ele>182.6</ele>
        <time>2022-03-21T12:10:00Z</time>
      </trkpt>
      <trkpt lat="46.90532" lon="5.25545">
        <ele>182.6</ele>
        <time>2022-03-21T12:10:01Z</time>
      </trkpt>
      <trkpt lat="46.90526" lon="5.25545">
        <ele>182.6</ele>
        <time>2022-03-21T12:10:02Z</time>
      </trkpt>
      <trkpt lat="46.90521" lon="5.25546">
        <ele>182.6</ele>
        <time>2022-03-21T12:10:03Z</time>
      </trkpt>
      <trkpt lat="46.90515" lon="5.25546">
        <ele>182.6</ele>
        <time>2022-03-21T12:10:04Z</time>
      </trkpt>
      <trkpt lat="46.9051" lon="5.25546">
        <ele>182.6</ele>
        <time>2022-03-21T12:10:05Z</time>
      </trkpt>
      <trkpt lat="46.90504" lon="5.25546">
        <ele>182.6</ele>
        <time>2022-03-21T12:10:06Z</time>
      </trkpt>
      <trkpt lat="46.90499" lon="5.25546">
        <ele>182.6</ele>
        <time>2022-03-21T12:10:07Z</time>
      </trkpt>
      <trkpt lat="46.90493" lon="5.25546">
        <ele>182.6</ele>
        <time>2022-03-21T12:10:08Z</time>
      </trkpt>
      <trkpt lat="46.90487" lon="5.25547">
        <ele>182.6</ele>
        <time>2022-03-21T12:10:09Z</time>
      </trkpt>
      <trkpt lat="46.90482" lon="5.25547">
        <ele>182.6</ele>
        <time>2022-03-21T12:10:10Z</time>
      </trkpt>
      <trkpt lat="46.90476" lon="5.25547">
        <ele>182.6</ele>
        <time>2022-03-21T12:10:11Z</time>
      </trkpt>
      <trkpt lat="46.90471" lon="5.25547">
        <ele>182.6</ele>
        <time>2022-03-21T12:10:12Z</time>
      </trkpt>
      <trkpt lat="46.90465" lon="5.25547">
        <ele>182.6</ele>
        <time>2022-03-21T12:10:13Z</time>
      </trkpt>
      <trkpt lat="46.9046" lon="5.25547">
        <ele>182.6</ele>
        <time>2022-03-21T12:10:14Z</time>
      </trkpt>
      <trkpt lat="46.90454" lon="5.25547">
        <ele>182.6</ele>
        <time>2022-03-21T12:10:15Z</time>
      </trkpt>
      <trkpt lat="46.90448" lon="5.25548">
        <ele>182.6</ele>
        <time>2022-03-21T12:10:16Z</time>
      </trkpt>
      <trkpt lat="46.90443" lon="5.25548">
        <ele>182.6</ele>
        <time>2022-03-21T12:10:17Z</time>
      </trkpt>
      <trkpt lat="46.90437" lon="5.25548">
        <ele>182.4</ele>
        <time>2022-03-21T12:10:18Z</time>
      </trkpt>
      <trkpt lat="46.90432" lon="5.25548">
        <ele>182.4</ele>
        <time>2022-03-21T12:10:19Z</time>
      </trkpt>
      <trkpt lat="46.90426" lon="5.25548">
        <ele>182.4</ele>
        <time>2022-03-21T12:10:20Z</time>
      </trkpt>
      <trkpt lat="46.9042" lon="5.25547">
        <ele>182.4</ele>
        <time>2022-03-21T12:10:21Z</time>
      </trkpt>
      <trkpt lat="46.90415" lon="5.25546">
        <ele>182.4</ele>
        <time>2022-03-21T12:10:22Z</time>
      </trkpt>
      <trkpt lat="46.90409" lon="5.25545">
        <ele>182.4</ele>
        <time>2022-03-21T12:10:23Z</time>
      </trkpt>
      <trkpt lat="46.90404" lon="5.25543">
        <ele>182.4</ele>
        <time>2022-03-21T12:10:24Z</time>
      </trkpt>
      <trkpt lat="46.90399" lon="5.25542">
        <ele>182.4</ele>
        <time>2022-03-21T12:10:25Z</time>
      </trkpt>
      <trkpt lat="46.90393" lon="5.2554">
        <ele>182.4</ele>
        <time>2022-03-21T12:10:26Z</time>
      </trkpt>
      <trkpt lat="46.90388" lon="5.25539">
        <ele>182.4</ele>
        <time>2022-03-21T12:10:27Z</time>
      </trkpt>
      <trkpt lat="46.90383" lon="5.25536">
        <ele>182.4</ele>
        <time>2022-03-21T12:10:28Z</time>
      </trkpt>
      <trkpt lat="46.90378" lon="5.25534">
        <ele>182.6</ele>
        <time>2022-03-21T12:10:29Z</time>
      </trkpt>
      <trkpt lat="46.90373" lon="5.25532">
        <ele>182.6</ele>
        <time>2022-03-21T12:10:30Z</time>
      </trkpt>
      <trkpt lat="46.90368" lon="5.25531">
        <ele>182.6</ele>
        <time>2022-03-21T12:10:31Z</time>
      </trkpt>
      <trkpt lat="46.90363" lon="5.2553">
        <ele>182.6</ele>
        <time>2022-03-21T12:10:32Z</time>
      </trkpt>
      <trkpt lat="46.90358" lon="5.25529">
        <ele>182.6</ele>
        <time>2022-03-21T12:10:33Z</time>
      </trkpt>
      <trkpt lat="46.90353" lon="5.25529">
        <ele>182.6</ele>
        <time>2022-03-21T12:10:34Z</time>
      </trkpt>
      <trkpt lat="46.90347" lon="5.25529">
        <ele>182.8</ele>
        <time>2022-03-21T12:10:35Z</time>
      </trkpt>
      <trkpt lat="46.90342" lon="5.2553">
        <ele>182.8</ele>
        <time>2022-03-21T12:10:36Z</time>
      </trkpt>
      <trkpt lat="46.90337" lon="5.25531">
        <ele>182.8</ele>
        <time>2022-03-21T12:10:37Z</time>
      </trkpt>
      <trkpt lat="46.90332" lon="5.25533">
        <ele>182.8</ele>
        <time>2022-03-21T12:10:38Z</time>
      </trkpt>
      <trkpt lat="46.90327" lon="5.25535">
        <ele>182.8</ele>
        <time>2022-03-21T12:10:39Z</time>
      </trkpt>
      <trkpt lat="46.90322" lon="5.25537">
        <ele>182.8</ele>
        <time>2022-03-21T12:10:40Z</time>
      </trkpt>
      <trkpt lat="46.90318" lon="5.25539">
        <ele>182.8</ele>
        <time>2022-03-21T12:10:41Z</time>
      </trkpt>
      <trkpt lat="46.90313" lon="5.25541">
        <ele>182.8</ele>
        <time>2022-03-21T12:10:42Z</time>
      </trkpt>
      <trkpt lat="46.90308" lon="5.25543">
        <ele>182.8</ele>
        <time>2022-03-21T12:10:43Z</time>
      </trkpt>
      <trkpt lat="46.90303" lon="5.25545">
        <ele>182.8</ele>
        <time>2022-03-21T12:10:44Z</time>
      </trkpt>
      <trkpt lat="46.90298" lon="5.25548">
        <ele>182.8</ele>
        <time>2022-03-21T12:10:45Z</time>
      </trkpt>
      <trkpt lat="46.90293" lon="5.2555">
        <ele>182.8</ele>
        <time>2022-03-21T12:10:46Z</time>
      </trkpt>
      <trkpt lat="46.90288" lon="5.25552">
        <ele>182.8</ele>
        <time>2022-03-21T12:10:47Z</time>
      </trkpt>
      <trkpt lat="46.90283" lon="5.25554">
        <ele>182.8</ele>
        <time>2022-03-21T12:10:48Z</time>
      </trkpt>
      <trkpt lat="46.90278" lon="5.25556">
        <ele>182.8</ele>
        <time>2022-03-21T12:10:49Z</time>
      </trkpt>
      <trkpt lat="46.90273" lon="5.25558">
        <ele>182.8</ele>
        <time>2022-03-21T12:10:50Z</time>
      </trkpt>
      <trkpt lat="46.90268" lon="5.25561">
        <ele>182.8</ele>
        <time>2022-03-21T12:10:51Z</time>
      </trkpt>
      <trkpt lat="46.90263" lon="5.25563">
        <ele>182.8</ele>
        <time>2022-03-21T12:10:52Z</time>
      </trkpt>
      <trkpt lat="46.90258" lon="5.25565">
        <ele>182.8</ele>
        <time>2022-03-21T12:10:53Z</time>
      </trkpt>
      <trkpt lat="46.90253" lon="5.25567">
        <ele>183</ele>
        <time>2022-03-21T12:10:54Z</time>
      </trkpt>
      <trkpt lat="46.90248" lon="5.25569">
        <ele>183</ele>
        <time>2022-03-21T12:10:55Z</time>
      </trkpt>
      <trkpt lat="46.90243" lon="5.25571">
        <ele>183</ele>
        <time>2022-03-21T12:10:56Z</time>
      </trkpt>
      <trkpt lat="46.90238" lon="5.25574">
        <ele>183</ele>
        <time>2022-03-21T12:10:57Z</time>
      </trkpt>
      <trkpt lat="46.90233" lon="5.25576">
        <ele>183</ele>
        <time>2022-03-21T12:10:58Z</time>
      </trkpt>
      <trkpt lat="46.90228" lon="5.25578">
        <ele>183</ele>
        <time>2022-03-21T12:10:59Z</time>
      </trkpt>
      <trkpt lat="46.90223" lon="5.25581">
        <ele>183</ele>
        <time>2022-03-21T12:11:00Z</time>
      </trkpt>
      <trkpt lat="46.90218" lon="5.25583">
        <ele>183</ele>
        <time>2022-03-21T12:11:01Z</time>
      </trkpt>
      <trkpt lat="46.90213" lon="5.25585">
        <ele>183</ele>
        <time>2022-03-21T12:11:02Z</time>
      </trkpt>
      <trkpt lat="46.90208" lon="5.25587">
        <ele>183</ele>
        <time>2022-03-21T12:11:03Z</time>
      </trkpt>
      <trkpt lat="46.90203" lon="5.25589">
        <ele>183</ele>
        <time>2022-03-21T12:11:04Z</time>
      </trkpt>
      <trkpt lat="46.90197" lon="5.25591">
        <ele>183</ele>
        <time>2022-03-21T12:11:05Z</time>
      </trkpt>
      <trkpt lat="46.90192" lon="5.25594">
        <ele>183</ele>
        <time>2022-03-21T12:11:06Z</time>
      </trkpt>
      <trkpt lat="46.90187" lon="5.25596">
        <ele>183</ele>
        <time>2022-03-21T12:11:07Z</time>
      </trkpt>
      <trkpt lat="46.90182" lon="5.25598">
        <ele>183</ele>
        <time>2022-03-21T12:11:08Z</time>
      </trkpt>
      <trkpt lat="46.90177" lon="5.256">
        <ele>183</ele>
        <time>2022-03-21T12:11:09Z</time>
      </trkpt>
      <trkpt lat="46.90167" lon="5.25604">
        <ele>183</ele>
        <time>2022-03-21T12:11:10Z</time>
      </trkpt>
      <trkpt lat="46.90162" lon="5.25606">
        <ele>183</ele>
        <time>2022-03-21T12:11:11Z</time>
      </trkpt>
      <trkpt lat="46.90157" lon="5.25608">
        <ele>183</ele>
        <time>2022-03-21T12:11:12Z</time>
      </trkpt>
      <trkpt lat="46.90152" lon="5.2561">
        <ele>183</ele>
        <time>2022-03-21T12:11:13Z</time>
      </trkpt>
      <trkpt lat="46.90147" lon="5.25613">
        <ele>183</ele>
        <time>2022-03-21T12:11:14Z</time>
      </trkpt>
      <trkpt lat="46.90143" lon="5.25615">
        <ele>183</ele>
        <time>2022-03-21T12:11:15Z</time>
      </trkpt>
      <trkpt lat="46.90138" lon="5.25617">
        <ele>183</ele>
        <time>2022-03-21T12:11:16Z</time>
      </trkpt>
      <trkpt lat="46.90133" lon="5.25619">
        <ele>183</ele>
        <time>2022-03-21T12:11:17Z</time>
      </trkpt>
      <trkpt lat="46.90128" lon="5.25622">
        <ele>183</ele>
        <time>2022-03-21T12:11:18Z</time>
      </trkpt>
      <trkpt lat="46.90124" lon="5.25624">
        <ele>183</ele>
        <time>2022-03-21T12:11:19Z</time>
      </trkpt>
      <trkpt lat="46.90119" lon="5.25627">
        <ele>183</ele>
        <time>2022-03-21T12:11:20Z</time>
      </trkpt>
      <trkpt lat="46.90114" lon="5.2563">
        <ele>183</ele>
        <time>2022-03-21T12:11:21Z</time>
      </trkpt>
      <trkpt lat="46.90109" lon="5.25632">
        <ele>182.8</ele>
        <time>2022-03-21T12:11:22Z</time>
      </trkpt>
      <trkpt lat="46.90104" lon="5.25636">
        <ele>182.6</ele>
        <time>2022-03-21T12:11:23Z</time>
      </trkpt>
      <trkpt lat="46.90099" lon="5.25639">
        <ele>183</ele>
        <time>2022-03-21T12:11:24Z</time>
      </trkpt>
      <trkpt lat="46.90095" lon="5.25643">
        <ele>183</ele>
        <time>2022-03-21T12:11:25Z</time>
      </trkpt>
      <trkpt lat="46.9009" lon="5.25647">
        <ele>182.6</ele>
        <time>2022-03-21T12:11:26Z</time>
      </trkpt>
      <trkpt lat="46.90086" lon="5.25651">
        <ele>182.6</ele>
        <time>2022-03-21T12:11:27Z</time>
      </trkpt>
      <trkpt lat="46.90081" lon="5.25656">
        <ele>182.6</ele>
        <time>2022-03-21T12:11:28Z</time>
      </trkpt>
      <trkpt lat="46.90077" lon="5.25661">
        <ele>182.6</ele>
        <time>2022-03-21T12:11:29Z</time>
      </trkpt>
      <trkpt lat="46.90073" lon="5.25665">
        <ele>182.6</ele>
        <time>2022-03-21T12:11:30Z</time>
      </trkpt>
      <trkpt lat="46.90068" lon="5.2567">
        <ele>182.6</ele>
        <time>2022-03-21T12:11:31Z</time>
      </trkpt>
      <trkpt lat="46.90064" lon="5.25675">
        <ele>182.6</ele>
        <time>2022-03-21T12:11:32Z</time>
      </trkpt>
      <trkpt lat="46.90059" lon="5.25679">
        <ele>182.6</ele>
        <time>2022-03-21T12:11:33Z</time>
      </trkpt>
      <trkpt lat="46.90054" lon="5.25684">
        <ele>182.6</ele>
        <time>2022-03-21T12:11:34Z</time>
      </trkpt>
      <trkpt lat="46.9005" lon="5.25688">
        <ele>182.6</ele>
        <time>2022-03-21T12:11:35Z</time>
      </trkpt>
      <trkpt lat="46.90045" lon="5.25693">
        <ele>182.6</ele>
        <time>2022-03-21T12:11:36Z</time>
      </trkpt>
      <trkpt lat="46.9004" lon="5.25697">
        <ele>182.6</ele>
        <time>2022-03-21T12:11:37Z</time>
      </trkpt>
      <trkpt lat="46.90035" lon="5.257">
        <ele>182.6</ele>
        <time>2022-03-21T12:11:38Z</time>
      </trkpt>
      <trkpt lat="46.90029" lon="5.25704">
        <ele>182.6</ele>
        <time>2022-03-21T12:11:39Z</time>
      </trkpt>
      <trkpt lat="46.90024" lon="5.25707">
        <ele>182.4</ele>
        <time>2022-03-21T12:11:40Z</time>
      </trkpt>
      <trkpt lat="46.90019" lon="5.2571">
        <ele>182.4</ele>
        <time>2022-03-21T12:11:41Z</time>
      </trkpt>
      <trkpt lat="46.90014" lon="5.25712">
        <ele>182.4</ele>
        <time>2022-03-21T12:11:42Z</time>
      </trkpt>
      <trkpt lat="46.90009" lon="5.25715">
        <ele>182.4</ele>
        <time>2022-03-21T12:11:43Z</time>
      </trkpt>
      <trkpt lat="46.90003" lon="5.25717">
        <ele>182.6</ele>
        <time>2022-03-21T12:11:44Z</time>
      </trkpt>
      <trkpt lat="46.89998" lon="5.25719">
        <ele>182.6</ele>
        <time>2022-03-21T12:11:45Z</time>
      </trkpt>
      <trkpt lat="46.89993" lon="5.25721">
        <ele>182.6</ele>
        <time>2022-03-21T12:11:46Z</time>
      </trkpt>
      <trkpt lat="46.89987" lon="5.25722">
        <ele>182.6</ele>
        <time>2022-03-21T12:11:47Z</time>
      </trkpt>
      <trkpt lat="46.89982" lon="5.25724">
        <ele>182.6</ele>
        <time>2022-03-21T12:11:48Z</time>
      </trkpt>
      <trkpt lat="46.89976" lon="5.25726">
        <ele>182.6</ele>
        <time>2022-03-21T12:11:49Z</time>
      </trkpt>
      <trkpt lat="46.89971" lon="5.25727">
        <ele>182.6</ele>
        <time>2022-03-21T12:11:50Z</time>
      </trkpt>
      <trkpt lat="46.89966" lon="5.25728">
        <ele>182.6</ele>
        <time>2022-03-21T12:11:51Z</time>
      </trkpt>
      <trkpt lat="46.8996" lon="5.25729">
        <ele>182.6</ele>
        <time>2022-03-21T12:11:52Z</time>
      </trkpt>
      <trkpt lat="46.89955" lon="5.2573">
        <ele>182.6</ele>
        <time>2022-03-21T12:11:53Z</time>
      </trkpt>
      <trkpt lat="46.89949" lon="5.25732">
        <ele>182.6</ele>
        <time>2022-03-21T12:11:54Z</time>
      </trkpt>
      <trkpt lat="46.89944" lon="5.25733">
        <ele>182.6</ele>
        <time>2022-03-21T12:11:55Z</time>
      </trkpt>
      <trkpt lat="46.89938" lon="5.25734">
        <ele>182.6</ele>
        <time>2022-03-21T12:11:56Z</time>
      </trkpt>
      <trkpt lat="46.89933" lon="5.25734">
        <ele>182.6</ele>
        <time>2022-03-21T12:11:57Z</time>
      </trkpt>
      <trkpt lat="46.89927" lon="5.25735">
        <ele>182.6</ele>
        <time>2022-03-21T12:11:58Z</time>
      </trkpt>
      <trkpt lat="46.89922" lon="5.25736">
        <ele>182.6</ele>
        <time>2022-03-21T12:11:59Z</time>
      </trkpt>
      <trkpt lat="46.89917" lon="5.25737">
        <ele>182.6</ele>
        <time>2022-03-21T12:12:00Z</time>
      </trkpt>
      <trkpt lat="46.89911" lon="5.25738">
        <ele>182.6</ele>
        <time>2022-03-21T12:12:01Z</time>
      </trkpt>
      <trkpt lat="46.89906" lon="5.25738">
        <ele>182.6</ele>
        <time>2022-03-21T12:12:02Z</time>
      </trkpt>
      <trkpt lat="46.89901" lon="5.25738">
        <ele>182.6</ele>
        <time>2022-03-21T12:12:03Z</time>
      </trkpt>
      <trkpt lat="46.89896" lon="5.25738">
        <ele>182.6</ele>
        <time>2022-03-21T12:12:04Z</time>
      </trkpt>
      <trkpt lat="46.89891" lon="5.25737">
        <ele>182.6</ele>
        <time>2022-03-21T12:12:05Z</time>
      </trkpt>
      <trkpt lat="46.89885" lon="5.25737">
        <ele>182.6</ele>
        <time>2022-03-21T12:12:06Z</time>
      </trkpt>
      <trkpt lat="46.8988" lon="5.25736">
        <ele>182.6</ele>
        <time>2022-03-21T12:12:07Z</time>
      </trkpt>
      <trkpt lat="46.89875" lon="5.25735">
        <ele>182.6</ele>
        <time>2022-03-21T12:12:08Z</time>
      </trkpt>
      <trkpt lat="46.8987" lon="5.25733">
        <ele>182.6</ele>
        <time>2022-03-21T12:12:09Z</time>
      </trkpt>
      <trkpt lat="46.89864" lon="5.25732">
        <ele>182.6</ele>
        <time>2022-03-21T12:12:10Z</time>
      </trkpt>
      <trkpt lat="46.89859" lon="5.2573">
        <ele>182.6</ele>
        <time>2022-03-21T12:12:11Z</time>
      </trkpt>
      <trkpt lat="46.89854" lon="5.25728">
        <ele>182.6</ele>
        <time>2022-03-21T12:12:12Z</time>
      </trkpt>
      <trkpt lat="46.89849" lon="5.25726">
        <ele>182.6</ele>
        <time>2022-03-21T12:12:13Z</time>
      </trkpt>
      <trkpt lat="46.89843" lon="5.25725">
        <ele>182.6</ele>
        <time>2022-03-21T12:12:14Z</time>
      </trkpt>
      <trkpt lat="46.89838" lon="5.25723">
        <ele>182.6</ele>
        <time>2022-03-21T12:12:15Z</time>
      </trkpt>
      <trkpt lat="46.89833" lon="5.25722">
        <ele>182.6</ele>
        <time>2022-03-21T12:12:16Z</time>
      </trkpt>
      <trkpt lat="46.89827" lon="5.25721">
        <ele>182.6</ele>
        <time>2022-03-21T12:12:17Z</time>
      </trkpt>
      <trkpt lat="46.89822" lon="5.25721">
        <ele>182.6</ele>
        <time>2022-03-21T12:12:18Z</time>
      </trkpt>
      <trkpt lat="46.89817" lon="5.25721">
        <ele>182.6</ele>
        <time>2022-03-21T12:12:19Z</time>
      </trkpt>
      <trkpt lat="46.89811" lon="5.25723">
        <ele>182.6</ele>
        <time>2022-03-21T12:12:20Z</time>
      </trkpt>
      <trkpt lat="46.89806" lon="5.25725">
        <ele>182.6</ele>
        <time>2022-03-21T12:12:21Z</time>
      </trkpt>
      <trkpt lat="46.89801" lon="5.25728">
        <ele>182.6</ele>
        <time>2022-03-21T12:12:22Z</time>
      </trkpt>
      <trkpt lat="46.89796" lon="5.25732">
        <ele>182.6</ele>
        <time>2022-03-21T12:12:23Z</time>
      </trkpt>
      <trkpt lat="46.89792" lon="5.25737">
        <ele>182.6</ele>
        <time>2022-03-21T12:12:24Z</time>
      </trkpt>
      <trkpt lat="46.89788" lon="5.25742">
        <ele>182.6</ele>
        <time>2022-03-21T12:12:25Z</time>
      </trkpt>
      <trkpt lat="46.89784" lon="5.25748">
        <ele>182.6</ele>
        <time>2022-03-21T12:12:26Z</time>
      </trkpt>
      <trkpt lat="46.89781" lon="5.25754">
        <ele>182.6</ele>
        <time>2022-03-21T12:12:27Z</time>
      </trkpt>
      <trkpt lat="46.89779" lon="5.2576">
        <ele>182.6</ele>
        <time>2022-03-21T12:12:28Z</time>
      </trkpt>
      <trkpt lat="46.89777" lon="5.25767">
        <ele>182.6</ele>
        <time>2022-03-21T12:12:29Z</time>
      </trkpt>
      <trkpt lat="46.89775" lon="5.25774">
        <ele>182.6</ele>
        <time>2022-03-21T12:12:30Z</time>
      </trkpt>
      <trkpt lat="46.89772" lon="5.25781">
        <ele>182.6</ele>
        <time>2022-03-21T12:12:31Z</time>
      </trkpt>
      <trkpt lat="46.89771" lon="5.25788">
        <ele>182.6</ele>
        <time>2022-03-21T12:12:32Z</time>
      </trkpt>
      <trkpt lat="46.89769" lon="5.25795">
        <ele>182.6</ele>
        <time>2022-03-21T12:12:33Z</time>
      </trkpt>
      <trkpt lat="46.89768" lon="5.25802">
        <ele>182.6</ele>
        <time>2022-03-21T12:12:34Z</time>
      </trkpt>
      <trkpt lat="46.89767" lon="5.2581">
        <ele>182.6</ele>
        <time>2022-03-21T12:12:35Z</time>
      </trkpt>
      <trkpt lat="46.89766" lon="5.25818">
        <ele>182.6</ele>
        <time>2022-03-21T12:12:36Z</time>
      </trkpt>
      <trkpt lat="46.89765" lon="5.25825">
        <ele>182.6</ele>
        <time>2022-03-21T12:12:37Z</time>
      </trkpt>
      <trkpt lat="46.89763" lon="5.25833">
        <ele>182.6</ele>
        <time>2022-03-21T12:12:38Z</time>
      </trkpt>
      <trkpt lat="46.89762" lon="5.25841">
        <ele>182.6</ele>
        <time>2022-03-21T12:12:39Z</time>
      </trkpt>
      <trkpt lat="46.89761" lon="5.25849">
        <ele>182.6</ele>
        <time>2022-03-21T12:12:40Z</time>
      </trkpt>
      <trkpt lat="46.89759" lon="5.25856">
        <ele>182.6</ele>
        <time>2022-03-21T12:12:41Z</time>
      </trkpt>
      <trkpt lat="46.89758" lon="5.25864">
        <ele>182.6</ele>
        <time>2022-03-21T12:12:42Z</time>
      </trkpt>
      <trkpt lat="46.89756" lon="5.25872">
        <ele>182.6</ele>
        <time>2022-03-21T12:12:43Z</time>
      </trkpt>
      <trkpt lat="46.89753" lon="5.25879">
        <ele>182.4</ele>
        <time>2022-03-21T12:12:44Z</time>
      </trkpt>
      <trkpt lat="46.8975" lon="5.25886">
        <ele>182.4</ele>
        <time>2022-03-21T12:12:45Z</time>
      </trkpt>
      <trkpt lat="46.89747" lon="5.25893">
        <ele>182.4</ele>
        <time>2022-03-21T12:12:46Z</time>
      </trkpt>
      <trkpt lat="46.89744" lon="5.259">
        <ele>182.4</ele>
        <time>2022-03-21T12:12:47Z</time>
      </trkpt>
      <trkpt lat="46.8974" lon="5.25907">
        <ele>182.4</ele>
        <time>2022-03-21T12:12:48Z</time>
      </trkpt>
      <trkpt lat="46.89736" lon="5.25913">
        <ele>182.4</ele>
        <time>2022-03-21T12:12:49Z</time>
      </trkpt>
      <trkpt lat="46.89733" lon="5.25919">
        <ele>182.4</ele>
        <time>2022-03-21T12:12:50Z</time>
      </trkpt>
      <trkpt lat="46.89729" lon="5.25925">
        <ele>182.4</ele>
        <time>2022-03-21T12:12:51Z</time>
      </trkpt>
      <trkpt lat="46.89725" lon="5.25932">
        <ele>182.4</ele>
        <time>2022-03-21T12:12:52Z</time>
      </trkpt>
      <trkpt lat="46.8972" lon="5.25938">
        <ele>182.4</ele>
        <time>2022-03-21T12:12:53Z</time>
      </trkpt>
      <trkpt lat="46.89716" lon="5.25944">
        <ele>182.4</ele>
        <time>2022-03-21T12:12:54Z</time>
      </trkpt>
      <trkpt lat="46.89712" lon="5.25949">
        <ele>182.4</ele>
        <time>2022-03-21T12:12:55Z</time>
      </trkpt>
      <trkpt lat="46.89707" lon="5.25955">
        <ele>182.4</ele>
        <time>2022-03-21T12:12:56Z</time>
      </trkpt>
      <trkpt lat="46.89702" lon="5.25959">
        <ele>182.4</ele>
        <time>2022-03-21T12:12:57Z</time>
      </trkpt>
      <trkpt lat="46.89697" lon="5.25964">
        <ele>182.4</ele>
        <time>2022-03-21T12:12:58Z</time>
      </trkpt>
      <trkpt lat="46.89692" lon="5.25967">
        <ele>182.4</ele>
        <time>2022-03-21T12:12:59Z</time>
      </trkpt>
      <trkpt lat="46.89687" lon="5.2597">
        <ele>182.4</ele>
        <time>2022-03-21T12:13:01Z</time>
      </trkpt>
      <trkpt lat="46.89682" lon="5.25973">
        <ele>182.4</ele>
        <time>2022-03-21T12:13:02Z</time>
      </trkpt>
      <trkpt lat="46.89676" lon="5.25974">
        <ele>182.4</ele>
        <time>2022-03-21T12:13:03Z</time>
      </trkpt>
      <trkpt lat="46.89671" lon="5.25975">
        <ele>182.4</ele>
        <time>2022-03-21T12:13:04Z</time>
      </trkpt>
      <trkpt lat="46.89665" lon="5.25976">
        <ele>182.4</ele>
        <time>2022-03-21T12:13:05Z</time>
      </trkpt>
      <trkpt lat="46.8966" lon="5.25975">
        <ele>182.4</ele>
        <time>2022-03-21T12:13:06Z</time>
      </trkpt>
      <trkpt lat="46.89655" lon="5.25975">
        <ele>182.4</ele>
        <time>2022-03-21T12:13:07Z</time>
      </trkpt>
      <trkpt lat="46.89649" lon="5.25974">
        <ele>182.4</ele>
        <time>2022-03-21T12:13:08Z</time>
      </trkpt>
      <trkpt lat="46.89644" lon="5.25973">
        <ele>182.4</ele>
        <time>2022-03-21T12:13:09Z</time>
      </trkpt>
      <trkpt lat="46.89639" lon="5.25972">
        <ele>182.4</ele>
        <time>2022-03-21T12:13:10Z</time>
      </trkpt>
      <trkpt lat="46.89634" lon="5.25972">
        <ele>182.4</ele>
        <time>2022-03-21T12:13:11Z</time>
      </trkpt>
      <trkpt lat="46.8963" lon="5.25971">
        <ele>182.4</ele>
        <time>2022-03-21T12:13:12Z</time>
      </trkpt>
      <trkpt lat="46.89625" lon="5.25971">
        <ele>182.4</ele>
        <time>2022-03-21T12:13:13Z</time>
      </trkpt>
      <trkpt lat="46.89621" lon="5.2597">
        <ele>182.4</ele>
        <time>2022-03-21T12:13:14Z</time>
      </trkpt>
      <trkpt lat="46.89616" lon="5.2597">
        <ele>182.6</ele>
        <time>2022-03-21T12:13:15Z</time>
      </trkpt>
      <trkpt lat="46.89611" lon="5.25969">
        <ele>182.6</ele>
        <time>2022-03-21T12:13:16Z</time>
      </trkpt>
      <trkpt lat="46.89607" lon="5.25968">
        <ele>182.6</ele>
        <time>2022-03-21T12:13:17Z</time>
      </trkpt>
      <trkpt lat="46.89602" lon="5.25967">
        <ele>182.6</ele>
        <time>2022-03-21T12:13:18Z</time>
      </trkpt>
      <trkpt lat="46.89597" lon="5.25966">
        <ele>182.6</ele>
        <time>2022-03-21T12:13:19Z</time>
      </trkpt>
      <trkpt lat="46.89592" lon="5.25965">
        <ele>182.6</ele>
        <time>2022-03-21T12:13:20Z</time>
      </trkpt>
      <trkpt lat="46.89587" lon="5.25964">
        <ele>182.6</ele>
        <time>2022-03-21T12:13:21Z</time>
      </trkpt>
      <trkpt lat="46.89582" lon="5.25963">
        <ele>182.6</ele>
        <time>2022-03-21T12:13:22Z</time>
      </trkpt>
      <trkpt lat="46.89577" lon="5.25962">
        <ele>182.4</ele>
        <time>2022-03-21T12:13:23Z</time>
      </trkpt>
      <trkpt lat="46.89572" lon="5.2596">
        <ele>182.4</ele>
        <time>2022-03-21T12:13:24Z</time>
      </trkpt>
      <trkpt lat="46.89567" lon="5.25959">
        <ele>182.4</ele>
        <time>2022-03-21T12:13:25Z</time>
      </trkpt>
      <trkpt lat="46.89562" lon="5.25958">
        <ele>182.4</ele>
        <time>2022-03-21T12:13:26Z</time>
      </trkpt>
      <trkpt lat="46.89557" lon="5.25956">
        <ele>182.4</ele>
        <time>2022-03-21T12:13:27Z</time>
      </trkpt>
      <trkpt lat="46.89552" lon="5.25955">
        <ele>182.4</ele>
        <time>2022-03-21T12:13:28Z</time>
      </trkpt>
      <trkpt lat="46.89546" lon="5.25954">
        <ele>182.4</ele>
        <time>2022-03-21T12:13:29Z</time>
      </trkpt>
      <trkpt lat="46.89541" lon="5.25952">
        <ele>182.4</ele>
        <time>2022-03-21T12:13:30Z</time>
      </trkpt>
      <trkpt lat="46.89536" lon="5.25951">
        <ele>182.4</ele>
        <time>2022-03-21T12:13:31Z</time>
      </trkpt>
      <trkpt lat="46.89531" lon="5.2595">
        <ele>182.4</ele>
        <time>2022-03-21T12:13:32Z</time>
      </trkpt>
      <trkpt lat="46.89526" lon="5.25948">
        <ele>182.4</ele>
        <time>2022-03-21T12:13:33Z</time>
      </trkpt>
      <trkpt lat="46.89521" lon="5.25947">
        <ele>182.4</ele>
        <time>2022-03-21T12:13:34Z</time>
      </trkpt>
      <trkpt lat="46.89515" lon="5.25946">
        <ele>182.4</ele>
        <time>2022-03-21T12:13:35Z</time>
      </trkpt>
      <trkpt lat="46.8951" lon="5.25944">
        <ele>182.4</ele>
        <time>2022-03-21T12:13:36Z</time>
      </trkpt>
      <trkpt lat="46.89504" lon="5.25943">
        <ele>182.4</ele>
        <time>2022-03-21T12:13:37Z</time>
      </trkpt>
      <trkpt lat="46.89499" lon="5.25942">
        <ele>182.4</ele>
        <time>2022-03-21T12:13:38Z</time>
      </trkpt>
      <trkpt lat="46.89493" lon="5.2594">
        <ele>182.4</ele>
        <time>2022-03-21T12:13:39Z</time>
      </trkpt>
      <trkpt lat="46.89488" lon="5.25938">
        <ele>182.4</ele>
        <time>2022-03-21T12:13:40Z</time>
      </trkpt>
      <trkpt lat="46.89482" lon="5.25937">
        <ele>182.4</ele>
        <time>2022-03-21T12:13:41Z</time>
      </trkpt>
      <trkpt lat="46.89477" lon="5.25935">
        <ele>182.4</ele>
        <time>2022-03-21T12:13:42Z</time>
      </trkpt>
      <trkpt lat="46.89471" lon="5.25933">
        <ele>182.4</ele>
        <time>2022-03-21T12:13:43Z</time>
      </trkpt>
      <trkpt lat="46.89465" lon="5.25932">
        <ele>182.4</ele>
        <time>2022-03-21T12:13:44Z</time>
      </trkpt>
      <trkpt lat="46.8946" lon="5.2593">
        <ele>182.4</ele>
        <time>2022-03-21T12:13:45Z</time>
      </trkpt>
      <trkpt lat="46.89454" lon="5.25929">
        <ele>182.4</ele>
        <time>2022-03-21T12:13:46Z</time>
      </trkpt>
      <trkpt lat="46.89449" lon="5.25927">
        <ele>182.4</ele>
        <time>2022-03-21T12:13:47Z</time>
      </trkpt>
      <trkpt lat="46.89443" lon="5.25925">
        <ele>182.4</ele>
        <time>2022-03-21T12:13:48Z</time>
      </trkpt>
      <trkpt lat="46.89438" lon="5.25924">
        <ele>182.4</ele>
        <time>2022-03-21T12:13:49Z</time>
      </trkpt>
      <trkpt lat="46.89432" lon="5.25922">
        <ele>182.6</ele>
        <time>2022-03-21T12:13:50Z</time>
      </trkpt>
      <trkpt lat="46.89427" lon="5.2592">
        <ele>182.6</ele>
        <time>2022-03-21T12:13:51Z</time>
      </trkpt>
      <trkpt lat="46.89421" lon="5.25919">
        <ele>182.6</ele>
        <time>2022-03-21T12:13:52Z</time>
      </trkpt>
      <trkpt lat="46.89415" lon="5.25917">
        <ele>182.8</ele>
        <time>2022-03-21T12:13:53Z</time>
      </trkpt>
      <trkpt lat="46.8941" lon="5.25915">
        <ele>182.8</ele>
        <time>2022-03-21T12:13:54Z</time>
      </trkpt>
      <trkpt lat="46.89404" lon="5.25914">
        <ele>182.8</ele>
        <time>2022-03-21T12:13:55Z</time>
      </trkpt>
      <trkpt lat="46.89399" lon="5.25912">
        <ele>182.8</ele>
        <time>2022-03-21T12:13:56Z</time>
      </trkpt>
      <trkpt lat="46.89393" lon="5.2591">
        <ele>182.8</ele>
        <time>2022-03-21T12:13:57Z</time>
      </trkpt>
      <trkpt lat="46.89388" lon="5.25909">
        <ele>183</ele>
        <time>2022-03-21T12:13:58Z</time>
      </trkpt>
      <trkpt lat="46.89382" lon="5.25907">
        <ele>183</ele>
        <time>2022-03-21T12:13:59Z</time>
      </trkpt>
      <trkpt lat="46.89377" lon="5.25905">
        <ele>183</ele>
        <time>2022-03-21T12:14:00Z</time>
      </trkpt>
      <trkpt lat="46.89371" lon="5.25903">
        <ele>183</ele>
        <time>2022-03-21T12:14:01Z</time>
      </trkpt>
      <trkpt lat="46.89366" lon="5.25901">
        <ele>183</ele>
        <time>2022-03-21T12:14:02Z</time>
      </trkpt>
      <trkpt lat="46.8936" lon="5.25899">
        <ele>183</ele>
        <time>2022-03-21T12:14:03Z</time>
      </trkpt>
      <trkpt lat="46.89355" lon="5.25898">
        <ele>183</ele>
        <time>2022-03-21T12:14:04Z</time>
      </trkpt>
      <trkpt lat="46.89349" lon="5.25896">
        <ele>183</ele>
        <time>2022-03-21T12:14:05Z</time>
      </trkpt>
      <trkpt lat="46.89343" lon="5.25894">
        <ele>183</ele>
        <time>2022-03-21T12:14:06Z</time>
      </trkpt>
      <trkpt lat="46.89338" lon="5.25893">
        <ele>183</ele>
        <time>2022-03-21T12:14:07Z</time>
      </trkpt>
      <trkpt lat="46.89332" lon="5.25892">
        <ele>182.8</ele>
        <time>2022-03-21T12:14:08Z</time>
      </trkpt>
      <trkpt lat="46.89327" lon="5.25891">
        <ele>182.8</ele>
        <time>2022-03-21T12:14:09Z</time>
      </trkpt>
      <trkpt lat="46.89321" lon="5.2589">
        <ele>182.8</ele>
        <time>2022-03-21T12:14:10Z</time>
      </trkpt>
      <trkpt lat="46.89315" lon="5.25889">
        <ele>182.8</ele>
        <time>2022-03-21T12:14:11Z</time>
      </trkpt>
      <trkpt lat="46.8931" lon="5.25887">
        <ele>182.8</ele>
        <time>2022-03-21T12:14:12Z</time>
      </trkpt>
      <trkpt lat="46.89305" lon="5.25886">
        <ele>182.8</ele>
        <time>2022-03-21T12:14:13Z</time>
      </trkpt>
      <trkpt lat="46.89299" lon="5.25884">
        <ele>182.8</ele>
        <time>2022-03-21T12:14:14Z</time>
      </trkpt>
      <trkpt lat="46.89294" lon="5.25883">
        <ele>182.8</ele>
        <time>2022-03-21T12:14:15Z</time>
      </trkpt>
      <trkpt lat="46.89288" lon="5.25882">
        <ele>182.8</ele>
        <time>2022-03-21T12:14:16Z</time>
      </trkpt>
      <trkpt lat="46.89283" lon="5.25881">
        <ele>183.2</ele>
        <time>2022-03-21T12:14:17Z</time>
      </trkpt>
      <trkpt lat="46.89277" lon="5.2588">
        <ele>183.2</ele>
        <time>2022-03-21T12:14:18Z</time>
      </trkpt>
      <trkpt lat="46.89271" lon="5.25879">
        <ele>183.2</ele>
        <time>2022-03-21T12:14:19Z</time>
      </trkpt>
      <trkpt lat="46.89266" lon="5.25879">
        <ele>183.2</ele>
        <time>2022-03-21T12:14:20Z</time>
      </trkpt>
      <trkpt lat="46.8926" lon="5.25878">
        <ele>183.2</ele>
        <time>2022-03-21T12:14:21Z</time>
      </trkpt>
      <trkpt lat="46.89254" lon="5.25877">
        <ele>183.2</ele>
        <time>2022-03-21T12:14:22Z</time>
      </trkpt>
      <trkpt lat="46.89249" lon="5.25876">
        <ele>183.2</ele>
        <time>2022-03-21T12:14:23Z</time>
      </trkpt>
      <trkpt lat="46.89243" lon="5.25875">
        <ele>183.2</ele>
        <time>2022-03-21T12:14:24Z</time>
      </trkpt>
      <trkpt lat="46.89237" lon="5.25874">
        <ele>183.2</ele>
        <time>2022-03-21T12:14:25Z</time>
      </trkpt>
      <trkpt lat="46.89232" lon="5.25873">
        <ele>183.2</ele>
        <time>2022-03-21T12:14:26Z</time>
      </trkpt>
      <trkpt lat="46.89226" lon="5.25872">
        <ele>183.2</ele>
        <time>2022-03-21T12:14:27Z</time>
      </trkpt>
      <trkpt lat="46.89221" lon="5.25872">
        <ele>183.2</ele>
        <time>2022-03-21T12:14:28Z</time>
      </trkpt>
      <trkpt lat="46.89215" lon="5.25871">
        <ele>183.2</ele>
        <time>2022-03-21T12:14:29Z</time>
      </trkpt>
      <trkpt lat="46.8921" lon="5.25872">
        <ele>183.2</ele>
        <time>2022-03-21T12:14:30Z</time>
      </trkpt>
      <trkpt lat="46.89205" lon="5.25872">
        <ele>183.2</ele>
        <time>2022-03-21T12:14:31Z</time>
      </trkpt>
      <trkpt lat="46.892" lon="5.25872">
        <ele>183.2</ele>
        <time>2022-03-21T12:14:32Z</time>
      </trkpt>
      <trkpt lat="46.89195" lon="5.25872">
        <ele>183.4</ele>
        <time>2022-03-21T12:14:33Z</time>
      </trkpt>
      <trkpt lat="46.89191" lon="5.25872">
        <ele>183.4</ele>
        <time>2022-03-21T12:14:34Z</time>
      </trkpt>
      <trkpt lat="46.89187" lon="5.25872">
        <ele>183.6</ele>
        <time>2022-03-21T12:14:35Z</time>
      </trkpt>
      <trkpt lat="46.89182" lon="5.25872">
        <ele>183.6</ele>
        <time>2022-03-21T12:14:36Z</time>
      </trkpt>
      <trkpt lat="46.89179" lon="5.25872">
        <ele>184</ele>
        <time>2022-03-21T12:14:37Z</time>
      </trkpt>
      <trkpt lat="46.89175" lon="5.25873">
        <ele>184</ele>
        <time>2022-03-21T12:14:38Z</time>
      </trkpt>
      <trkpt lat="46.89172" lon="5.25873">
        <ele>184.4</ele>
        <time>2022-03-21T12:14:39Z</time>
      </trkpt>
      <trkpt lat="46.89169" lon="5.25874">
        <ele>184.4</ele>
        <time>2022-03-21T12:14:40Z</time>
      </trkpt>
      <trkpt lat="46.89165" lon="5.25874">
        <ele>184.8</ele>
        <time>2022-03-21T12:14:41Z</time>
      </trkpt>
      <trkpt lat="46.89162" lon="5.25874">
        <ele>185</ele>
        <time>2022-03-21T12:14:42Z</time>
      </trkpt>
      <trkpt lat="46.89159" lon="5.25874">
        <ele>185.2</ele>
        <time>2022-03-21T12:14:43Z</time>
      </trkpt>
      <trkpt lat="46.89155" lon="5.25874">
        <ele>185.2</ele>
        <time>2022-03-21T12:14:44Z</time>
      </trkpt>
      <trkpt lat="46.89152" lon="5.25873">
        <ele>185.4</ele>
        <time>2022-03-21T12:14:45Z</time>
      </trkpt>
      <trkpt lat="46.89149" lon="5.25873">
        <ele>185.4</ele>
        <time>2022-03-21T12:14:46Z</time>
      </trkpt>
      <trkpt lat="46.89146" lon="5.25873">
        <ele>185.8</ele>
        <time>2022-03-21T12:14:47Z</time>
      </trkpt>
      <trkpt lat="46.89142" lon="5.25873">
        <ele>185.8</ele>
        <time>2022-03-21T12:14:48Z</time>
      </trkpt>
      <trkpt lat="46.89139" lon="5.25873">
        <ele>186.2</ele>
        <time>2022-03-21T12:14:49Z</time>
      </trkpt>
      <trkpt lat="46.89136" lon="5.25872">
        <ele>186.2</ele>
        <time>2022-03-21T12:14:50Z</time>
      </trkpt>
      <trkpt lat="46.89133" lon="5.25872">
        <ele>186.6</ele>
        <time>2022-03-21T12:14:51Z</time>
      </trkpt>
      <trkpt lat="46.8913" lon="5.25871">
        <ele>187</ele>
        <time>2022-03-21T12:14:52Z</time>
      </trkpt>
      <trkpt lat="46.89128" lon="5.25871">
        <ele>187.2</ele>
        <time>2022-03-21T12:14:53Z</time>
      </trkpt>
      <trkpt lat="46.89125" lon="5.25871">
        <ele>187.4</ele>
        <time>2022-03-21T12:14:54Z</time>
      </trkpt>
      <trkpt lat="46.89122" lon="5.25871">
        <ele>187.4</ele>
        <time>2022-03-21T12:14:55Z</time>
      </trkpt>
      <trkpt lat="46.89119" lon="5.2587">
        <ele>187.8</ele>
        <time>2022-03-21T12:14:56Z</time>
      </trkpt>
      <trkpt lat="46.89117" lon="5.25869">
        <ele>188</ele>
        <time>2022-03-21T12:14:57Z</time>
      </trkpt>
      <trkpt lat="46.89114" lon="5.25869">
        <ele>188</ele>
        <time>2022-03-21T12:14:58Z</time>
      </trkpt>
      <trkpt lat="46.89111" lon="5.25868">
        <ele>188.4</ele>
        <time>2022-03-21T12:14:59Z</time>
      </trkpt>
      <trkpt lat="46.89108" lon="5.25867">
        <ele>188.6</ele>
        <time>2022-03-21T12:15:00Z</time>
      </trkpt>
      <trkpt lat="46.89105" lon="5.25866">
        <ele>188.8</ele>
        <time>2022-03-21T12:15:01Z</time>
      </trkpt>
      <trkpt lat="46.89101" lon="5.25866">
        <ele>188.8</ele>
        <time>2022-03-21T12:15:02Z</time>
      </trkpt>
      <trkpt lat="46.89098" lon="5.25865">
        <ele>189.2</ele>
        <time>2022-03-21T12:15:03Z</time>
      </trkpt>
      <trkpt lat="46.89095" lon="5.25865">
        <ele>189.4</ele>
        <time>2022-03-21T12:15:04Z</time>
      </trkpt>
      <trkpt lat="46.89093" lon="5.25865">
        <ele>189.4</ele>
        <time>2022-03-21T12:15:05Z</time>
      </trkpt>
      <trkpt lat="46.8909" lon="5.25864">
        <ele>189.8</ele>
        <time>2022-03-21T12:15:06Z</time>
      </trkpt>
      <trkpt lat="46.89087" lon="5.25863">
        <ele>189.8</ele>
        <time>2022-03-21T12:15:07Z</time>
      </trkpt>
      <trkpt lat="46.89084" lon="5.25862">
        <ele>190.2</ele>
        <time>2022-03-21T12:15:08Z</time>
      </trkpt>
      <trkpt lat="46.89078" lon="5.25859">
        <ele>190.2</ele>
        <time>2022-03-21T12:15:09Z</time>
      </trkpt>
      <trkpt lat="46.89075" lon="5.25858">
        <ele>190.6</ele>
        <time>2022-03-21T12:15:10Z</time>
      </trkpt>
      <trkpt lat="46.89072" lon="5.25857">
        <ele>190.8</ele>
        <time>2022-03-21T12:15:11Z</time>
      </trkpt>
      <trkpt lat="46.8907" lon="5.25856">
        <ele>191</ele>
        <time>2022-03-21T12:15:12Z</time>
      </trkpt>
      <trkpt lat="46.89067" lon="5.25855">
        <ele>191.2</ele>
        <time>2022-03-21T12:15:13Z</time>
      </trkpt>
      <trkpt lat="46.89064" lon="5.25854">
        <ele>191.2</ele>
        <time>2022-03-21T12:15:14Z</time>
      </trkpt>
      <trkpt lat="46.89061" lon="5.25853">
        <ele>191.6</ele>
        <time>2022-03-21T12:15:15Z</time>
      </trkpt>
      <trkpt lat="46.89059" lon="5.25852">
        <ele>191.8</ele>
        <time>2022-03-21T12:15:16Z</time>
      </trkpt>
      <trkpt lat="46.89056" lon="5.25851">
        <ele>192.2</ele>
        <time>2022-03-21T12:15:17Z</time>
      </trkpt>
      <trkpt lat="46.89053" lon="5.2585">
        <ele>192.4</ele>
        <time>2022-03-21T12:15:18Z</time>
      </trkpt>
      <trkpt lat="46.89051" lon="5.25849">
        <ele>192.4</ele>
        <time>2022-03-21T12:15:19Z</time>
      </trkpt>
      <trkpt lat="46.89048" lon="5.25848">
        <ele>192.8</ele>
        <time>2022-03-21T12:15:20Z</time>
      </trkpt>
      <trkpt lat="46.89045" lon="5.25847">
        <ele>193</ele>
        <time>2022-03-21T12:15:21Z</time>
      </trkpt>
      <trkpt lat="46.89042" lon="5.25846">
        <ele>193.2</ele>
        <time>2022-03-21T12:15:22Z</time>
      </trkpt>
      <trkpt lat="46.89039" lon="5.25845">
        <ele>193.2</ele>
        <time>2022-03-21T12:15:23Z</time>
      </trkpt>
      <trkpt lat="46.89036" lon="5.25844">
        <ele>193.6</ele>
        <time>2022-03-21T12:15:24Z</time>
      </trkpt>
      <trkpt lat="46.89033" lon="5.25843">
        <ele>193.6</ele>
        <time>2022-03-21T12:15:25Z</time>
      </trkpt>
      <trkpt lat="46.8903" lon="5.25842">
        <ele>194</ele>
        <time>2022-03-21T12:15:26Z</time>
      </trkpt>
      <trkpt lat="46.89027" lon="5.25841">
        <ele>194</ele>
        <time>2022-03-21T12:15:27Z</time>
      </trkpt>
      <trkpt lat="46.89025" lon="5.2584">
        <ele>194</ele>
        <time>2022-03-21T12:15:28Z</time>
      </trkpt>
      <trkpt lat="46.89022" lon="5.25839">
        <ele>194.2</ele>
        <time>2022-03-21T12:15:29Z</time>
      </trkpt>
      <trkpt lat="46.89018" lon="5.25838">
        <ele>194.2</ele>
        <time>2022-03-21T12:15:30Z</time>
      </trkpt>
      <trkpt lat="46.89015" lon="5.25837">
        <ele>194.6</ele>
        <time>2022-03-21T12:15:31Z</time>
      </trkpt>
      <trkpt lat="46.89012" lon="5.25836">
        <ele>194.6</ele>
        <time>2022-03-21T12:15:32Z</time>
      </trkpt>
      <trkpt lat="46.89009" lon="5.25835">
        <ele>194.8</ele>
        <time>2022-03-21T12:15:33Z</time>
      </trkpt>
      <trkpt lat="46.89006" lon="5.25835">
        <ele>194.8</ele>
        <time>2022-03-21T12:15:34Z</time>
      </trkpt>
      <trkpt lat="46.89003" lon="5.25834">
        <ele>195.2</ele>
        <time>2022-03-21T12:15:35Z</time>
      </trkpt>
      <trkpt lat="46.89" lon="5.25833">
        <ele>195.2</ele>
        <time>2022-03-21T12:15:36Z</time>
      </trkpt>
      <trkpt lat="46.88997" lon="5.25832">
        <ele>195.4</ele>
        <time>2022-03-21T12:15:37Z</time>
      </trkpt>
      <trkpt lat="46.88994" lon="5.25831">
        <ele>195.4</ele>
        <time>2022-03-21T12:15:38Z</time>
      </trkpt>
      <trkpt lat="46.88991" lon="5.2583">
        <ele>195.4</ele>
        <time>2022-03-21T12:15:39Z</time>
      </trkpt>
      <trkpt lat="46.88988" lon="5.25829">
        <ele>195.6</ele>
        <time>2022-03-21T12:15:40Z</time>
      </trkpt>
      <trkpt lat="46.88984" lon="5.25829">
        <ele>195.6</ele>
        <time>2022-03-21T12:15:41Z</time>
      </trkpt>
      <trkpt lat="46.88981" lon="5.25828">
        <ele>195.6</ele>
        <time>2022-03-21T12:15:42Z</time>
      </trkpt>
      <trkpt lat="46.88977" lon="5.25828">
        <ele>195.8</ele>
        <time>2022-03-21T12:15:43Z</time>
      </trkpt>
      <trkpt lat="46.88974" lon="5.25827">
        <ele>195.8</ele>
        <time>2022-03-21T12:15:44Z</time>
      </trkpt>
      <trkpt lat="46.8897" lon="5.25827">
        <ele>195.8</ele>
        <time>2022-03-21T12:15:45Z</time>
      </trkpt>
      <trkpt lat="46.88966" lon="5.25826">
        <ele>195.8</ele>
        <time>2022-03-21T12:15:46Z</time>
      </trkpt>
      <trkpt lat="46.88962" lon="5.25825">
        <ele>195.8</ele>
        <time>2022-03-21T12:15:47Z</time>
      </trkpt>
      <trkpt lat="46.88958" lon="5.25824">
        <ele>195.8</ele>
        <time>2022-03-21T12:15:48Z</time>
      </trkpt>
      <trkpt lat="46.88954" lon="5.25824">
        <ele>196.2</ele>
        <time>2022-03-21T12:15:49Z</time>
      </trkpt>
      <trkpt lat="46.8895" lon="5.25823">
        <ele>196.2</ele>
        <time>2022-03-21T12:15:50Z</time>
      </trkpt>
      <trkpt lat="46.88946" lon="5.25822">
        <ele>196.2</ele>
        <time>2022-03-21T12:15:51Z</time>
      </trkpt>
      <trkpt lat="46.88943" lon="5.25821">
        <ele>196.2</ele>
        <time>2022-03-21T12:15:52Z</time>
      </trkpt>
      <trkpt lat="46.88939" lon="5.2582">
        <ele>196.2</ele>
        <time>2022-03-21T12:15:53Z</time>
      </trkpt>
      <trkpt lat="46.88936" lon="5.25819">
        <ele>196.2</ele>
        <time>2022-03-21T12:15:54Z</time>
      </trkpt>
      <trkpt lat="46.88932" lon="5.25818">
        <ele>196.2</ele>
        <time>2022-03-21T12:15:55Z</time>
      </trkpt>
      <trkpt lat="46.88928" lon="5.25817">
        <ele>196.4</ele>
        <time>2022-03-21T12:15:56Z</time>
      </trkpt>
      <trkpt lat="46.88925" lon="5.25816">
        <ele>196.4</ele>
        <time>2022-03-21T12:15:57Z</time>
      </trkpt>
      <trkpt lat="46.88921" lon="5.25815">
        <ele>196.4</ele>
        <time>2022-03-21T12:15:58Z</time>
      </trkpt>
      <trkpt lat="46.88917" lon="5.25814">
        <ele>196.6</ele>
        <time>2022-03-21T12:15:59Z</time>
      </trkpt>
      <trkpt lat="46.88913" lon="5.25813">
        <ele>196.6</ele>
        <time>2022-03-21T12:16:00Z</time>
      </trkpt>
      <trkpt lat="46.88908" lon="5.25812">
        <ele>196.6</ele>
        <time>2022-03-21T12:16:01Z</time>
      </trkpt>
      <trkpt lat="46.88904" lon="5.25811">
        <ele>197</ele>
        <time>2022-03-21T12:16:02Z</time>
      </trkpt>
      <trkpt lat="46.889" lon="5.2581">
        <ele>197</ele>
        <time>2022-03-21T12:16:03Z</time>
      </trkpt>
      <trkpt lat="46.88896" lon="5.25808">
        <ele>197.2</ele>
        <time>2022-03-21T12:16:04Z</time>
      </trkpt>
      <trkpt lat="46.88892" lon="5.25807">
        <ele>197.2</ele>
        <time>2022-03-21T12:16:05Z</time>
      </trkpt>
      <trkpt lat="46.88888" lon="5.25805">
        <ele>197.2</ele>
        <time>2022-03-21T12:16:06Z</time>
      </trkpt>
      <trkpt lat="46.88883" lon="5.25804">
        <ele>197.2</ele>
        <time>2022-03-21T12:16:07Z</time>
      </trkpt>
      <trkpt lat="46.88879" lon="5.25802">
        <ele>197.4</ele>
        <time>2022-03-21T12:16:08Z</time>
      </trkpt>
      <trkpt lat="46.88875" lon="5.25801">
        <ele>197.4</ele>
        <time>2022-03-21T12:16:09Z</time>
      </trkpt>
      <trkpt lat="46.88871" lon="5.258">
        <ele>197.4</ele>
        <time>2022-03-21T12:16:10Z</time>
      </trkpt>
      <trkpt lat="46.88867" lon="5.25798">
        <ele>197.4</ele>
        <time>2022-03-21T12:16:11Z</time>
      </trkpt>
      <trkpt lat="46.88863" lon="5.25797">
        <ele>197.6</ele>
        <time>2022-03-21T12:16:12Z</time>
      </trkpt>
      <trkpt lat="46.88858" lon="5.25796">
        <ele>197.6</ele>
        <time>2022-03-21T12:16:13Z</time>
      </trkpt>
      <trkpt lat="46.88854" lon="5.25794">
        <ele>197.6</ele>
        <time>2022-03-21T12:16:14Z</time>
      </trkpt>
      <trkpt lat="46.8885" lon="5.25792">
        <ele>197.6</ele>
        <time>2022-03-21T12:16:15Z</time>
      </trkpt>
      <trkpt lat="46.88846" lon="5.25791">
        <ele>197.6</ele>
        <time>2022-03-21T12:16:16Z</time>
      </trkpt>
      <trkpt lat="46.88842" lon="5.25789">
        <ele>197.6</ele>
        <time>2022-03-21T12:16:17Z</time>
      </trkpt>
      <trkpt lat="46.88837" lon="5.25787">
        <ele>197.6</ele>
        <time>2022-03-21T12:16:18Z</time>
      </trkpt>
      <trkpt lat="46.88833" lon="5.25786">
        <ele>197.8</ele>
        <time>2022-03-21T12:16:19Z</time>
      </trkpt>
      <trkpt lat="46.88828" lon="5.25785">
        <ele>197.8</ele>
        <time>2022-03-21T12:16:20Z</time>
      </trkpt>
      <trkpt lat="46.88824" lon="5.25783">
        <ele>197.8</ele>
        <time>2022-03-21T12:16:21Z</time>
      </trkpt>
      <trkpt lat="46.88819" lon="5.25782">
        <ele>197.8</ele>
        <time>2022-03-21T12:16:22Z</time>
      </trkpt>
      <trkpt lat="46.88815" lon="5.2578">
        <ele>198.2</ele>
        <time>2022-03-21T12:16:23Z</time>
      </trkpt>
      <trkpt lat="46.8881" lon="5.25778">
        <ele>198.2</ele>
        <time>2022-03-21T12:16:24Z</time>
      </trkpt>
      <trkpt lat="46.88806" lon="5.25777">
        <ele>198.2</ele>
        <time>2022-03-21T12:16:25Z</time>
      </trkpt>
      <trkpt lat="46.88802" lon="5.25775">
        <ele>198.4</ele>
        <time>2022-03-21T12:16:26Z</time>
      </trkpt>
      <trkpt lat="46.88797" lon="5.25774">
        <ele>198.4</ele>
        <time>2022-03-21T12:16:27Z</time>
      </trkpt>
      <trkpt lat="46.88793" lon="5.25773">
        <ele>198.4</ele>
        <time>2022-03-21T12:16:28Z</time>
      </trkpt>
      <trkpt lat="46.88789" lon="5.25771">
        <ele>198.4</ele>
        <time>2022-03-21T12:16:29Z</time>
      </trkpt>
      <trkpt lat="46.88785" lon="5.2577">
        <ele>198.4</ele>
        <time>2022-03-21T12:16:30Z</time>
      </trkpt>
      <trkpt lat="46.8878" lon="5.25769">
        <ele>198.4</ele>
        <time>2022-03-21T12:16:31Z</time>
      </trkpt>
      <trkpt lat="46.88776" lon="5.25768">
        <ele>198.8</ele>
        <time>2022-03-21T12:16:32Z</time>
      </trkpt>
      <trkpt lat="46.88771" lon="5.25767">
        <ele>198.8</ele>
        <time>2022-03-21T12:16:33Z</time>
      </trkpt>
      <trkpt lat="46.88767" lon="5.25766">
        <ele>198.8</ele>
        <time>2022-03-21T12:16:34Z</time>
      </trkpt>
      <trkpt lat="46.88762" lon="5.25765">
        <ele>199</ele>
        <time>2022-03-21T12:16:35Z</time>
      </trkpt>
      <trkpt lat="46.88757" lon="5.25764">
        <ele>199</ele>
        <time>2022-03-21T12:16:36Z</time>
      </trkpt>
      <trkpt lat="46.88752" lon="5.25764">
        <ele>199</ele>
        <time>2022-03-21T12:16:37Z</time>
      </trkpt>
      <trkpt lat="46.88747" lon="5.25763">
        <ele>199</ele>
        <time>2022-03-21T12:16:38Z</time>
      </trkpt>
      <trkpt lat="46.88742" lon="5.25762">
        <ele>199</ele>
        <time>2022-03-21T12:16:39Z</time>
      </trkpt>
      <trkpt lat="46.88737" lon="5.25762">
        <ele>199</ele>
        <time>2022-03-21T12:16:40Z</time>
      </trkpt>
      <trkpt lat="46.88732" lon="5.25761">
        <ele>199</ele>
        <time>2022-03-21T12:16:41Z</time>
      </trkpt>
      <trkpt lat="46.88727" lon="5.25761">
        <ele>199</ele>
        <time>2022-03-21T12:16:42Z</time>
      </trkpt>
      <trkpt lat="46.88722" lon="5.2576">
        <ele>199</ele>
        <time>2022-03-21T12:16:43Z</time>
      </trkpt>
      <trkpt lat="46.88717" lon="5.2576">
        <ele>199</ele>
        <time>2022-03-21T12:16:44Z</time>
      </trkpt>
      <trkpt lat="46.88711" lon="5.25761">
        <ele>199</ele>
        <time>2022-03-21T12:16:45Z</time>
      </trkpt>
      <trkpt lat="46.88706" lon="5.25763">
        <ele>199</ele>
        <time>2022-03-21T12:16:46Z</time>
      </trkpt>
      <trkpt lat="46.88701" lon="5.25765">
        <ele>199</ele>
        <time>2022-03-21T12:16:47Z</time>
      </trkpt>
      <trkpt lat="46.88696" lon="5.25769">
        <ele>199</ele>
        <time>2022-03-21T12:16:48Z</time>
      </trkpt>
      <trkpt lat="46.88692" lon="5.25774">
        <ele>199</ele>
        <time>2022-03-21T12:16:49Z</time>
      </trkpt>
      <trkpt lat="46.88688" lon="5.2578">
        <ele>199</ele>
        <time>2022-03-21T12:16:50Z</time>
      </trkpt>
      <trkpt lat="46.88685" lon="5.25787">
        <ele>199</ele>
        <time>2022-03-21T12:16:51Z</time>
      </trkpt>
      <trkpt lat="46.88682" lon="5.25794">
        <ele>199</ele>
        <time>2022-03-21T12:16:52Z</time>
      </trkpt>
      <trkpt lat="46.88681" lon="5.25801">
        <ele>199</ele>
        <time>2022-03-21T12:16:53Z</time>
      </trkpt>
      <trkpt lat="46.88679" lon="5.25808">
        <ele>199.2</ele>
        <time>2022-03-21T12:16:54Z</time>
      </trkpt>
      <trkpt lat="46.88677" lon="5.25815">
        <ele>199.2</ele>
        <time>2022-03-21T12:16:56Z</time>
      </trkpt>
      <trkpt lat="46.88676" lon="5.25822">
        <ele>199.2</ele>
        <time>2022-03-21T12:16:57Z</time>
      </trkpt>
      <trkpt lat="46.88674" lon="5.2583">
        <ele>199.2</ele>
        <time>2022-03-21T12:16:58Z</time>
      </trkpt>
      <trkpt lat="46.88672" lon="5.25837">
        <ele>199.2</ele>
        <time>2022-03-21T12:16:59Z</time>
      </trkpt>
      <trkpt lat="46.8867" lon="5.25844">
        <ele>199.2</ele>
        <time>2022-03-21T12:17:00Z</time>
      </trkpt>
      <trkpt lat="46.88669" lon="5.25852">
        <ele>199.2</ele>
        <time>2022-03-21T12:17:01Z</time>
      </trkpt>
      <trkpt lat="46.88667" lon="5.25859">
        <ele>199.2</ele>
        <time>2022-03-21T12:17:02Z</time>
      </trkpt>
      <trkpt lat="46.88666" lon="5.25866">
        <ele>199.2</ele>
        <time>2022-03-21T12:17:03Z</time>
      </trkpt>
      <trkpt lat="46.88664" lon="5.25874">
        <ele>199.2</ele>
        <time>2022-03-21T12:17:04Z</time>
      </trkpt>
      <trkpt lat="46.88662" lon="5.25881">
        <ele>199.2</ele>
        <time>2022-03-21T12:17:05Z</time>
      </trkpt>
      <trkpt lat="46.88661" lon="5.25889">
        <ele>199.2</ele>
        <time>2022-03-21T12:17:06Z</time>
      </trkpt>
      <trkpt lat="46.88659" lon="5.25896">
        <ele>199.2</ele>
        <time>2022-03-21T12:17:07Z</time>
      </trkpt>
      <trkpt lat="46.88657" lon="5.25904">
        <ele>199.2</ele>
        <time>2022-03-21T12:17:08Z</time>
      </trkpt>
      <trkpt lat="46.88655" lon="5.25912">
        <ele>199.2</ele>
        <time>2022-03-21T12:17:09Z</time>
      </trkpt>
      <trkpt lat="46.88653" lon="5.25919">
        <ele>199.2</ele>
        <time>2022-03-21T12:17:10Z</time>
      </trkpt>
      <trkpt lat="46.88651" lon="5.25927">
        <ele>199.2</ele>
        <time>2022-03-21T12:17:11Z</time>
      </trkpt>
      <trkpt lat="46.8865" lon="5.25935">
        <ele>199.2</ele>
        <time>2022-03-21T12:17:12Z</time>
      </trkpt>
      <trkpt lat="46.88649" lon="5.25943">
        <ele>199.2</ele>
        <time>2022-03-21T12:17:13Z</time>
      </trkpt>
      <trkpt lat="46.88648" lon="5.25951">
        <ele>199.2</ele>
        <time>2022-03-21T12:17:14Z</time>
      </trkpt>
      <trkpt lat="46.88647" lon="5.25958">
        <ele>199.2</ele>
        <time>2022-03-21T12:17:15Z</time>
      </trkpt>
      <trkpt lat="46.88645" lon="5.25966">
        <ele>199.2</ele>
        <time>2022-03-21T12:17:16Z</time>
      </trkpt>
      <trkpt lat="46.88644" lon="5.25974">
        <ele>199.2</ele>
        <time>2022-03-21T12:17:17Z</time>
      </trkpt>
      <trkpt lat="46.88643" lon="5.25981">
        <ele>199.2</ele>
        <time>2022-03-21T12:17:18Z</time>
      </trkpt>
      <trkpt lat="46.88642" lon="5.25989">
        <ele>199.2</ele>
        <time>2022-03-21T12:17:19Z</time>
      </trkpt>
      <trkpt lat="46.88641" lon="5.25996">
        <ele>199.2</ele>
        <time>2022-03-21T12:17:20Z</time>
      </trkpt>
      <trkpt lat="46.8864" lon="5.26004">
        <ele>199.2</ele>
        <time>2022-03-21T12:17:21Z</time>
      </trkpt>
      <trkpt lat="46.88639" lon="5.26011">
        <ele>199.2</ele>
        <time>2022-03-21T12:17:22Z</time>
      </trkpt>
      <trkpt lat="46.88638" lon="5.26018">
        <ele>199.4</ele>
        <time>2022-03-21T12:17:23Z</time>
      </trkpt>
      <trkpt lat="46.88637" lon="5.26025">
        <ele>199.4</ele>
        <time>2022-03-21T12:17:24Z</time>
      </trkpt>
      <trkpt lat="46.88635" lon="5.26033">
        <ele>199.4</ele>
        <time>2022-03-21T12:17:25Z</time>
      </trkpt>
      <trkpt lat="46.88634" lon="5.2604">
        <ele>199.4</ele>
        <time>2022-03-21T12:17:26Z</time>
      </trkpt>
      <trkpt lat="46.88633" lon="5.26047">
        <ele>199.4</ele>
        <time>2022-03-21T12:17:27Z</time>
      </trkpt>
      <trkpt lat="46.88631" lon="5.26053">
        <ele>199.4</ele>
        <time>2022-03-21T12:17:28Z</time>
      </trkpt>
      <trkpt lat="46.8863" lon="5.26061">
        <ele>199.4</ele>
        <time>2022-03-21T12:17:29Z</time>
      </trkpt>
      <trkpt lat="46.88628" lon="5.26068">
        <ele>199.6</ele>
        <time>2022-03-21T12:17:30Z</time>
      </trkpt>
      <trkpt lat="46.88627" lon="5.26074">
        <ele>199.6</ele>
        <time>2022-03-21T12:17:31Z</time>
      </trkpt>
      <trkpt lat="46.88626" lon="5.26081">
        <ele>199.6</ele>
        <time>2022-03-21T12:17:32Z</time>
      </trkpt>
      <trkpt lat="46.88625" lon="5.26087">
        <ele>200</ele>
        <time>2022-03-21T12:17:33Z</time>
      </trkpt>
      <trkpt lat="46.88623" lon="5.26093">
        <ele>200</ele>
        <time>2022-03-21T12:17:34Z</time>
      </trkpt>
      <trkpt lat="46.88622" lon="5.26099">
        <ele>200</ele>
        <time>2022-03-21T12:17:35Z</time>
      </trkpt>
      <trkpt lat="46.88621" lon="5.26105">
        <ele>200.2</ele>
        <time>2022-03-21T12:17:36Z</time>
      </trkpt>
      <trkpt lat="46.8862" lon="5.2611">
        <ele>200.2</ele>
        <time>2022-03-21T12:17:37Z</time>
      </trkpt>
      <trkpt lat="46.88619" lon="5.26115">
        <ele>200.2</ele>
        <time>2022-03-21T12:17:38Z</time>
      </trkpt>
      <trkpt lat="46.88618" lon="5.2612">
        <ele>200.4</ele>
        <time>2022-03-21T12:17:39Z</time>
      </trkpt>
      <trkpt lat="46.88616" lon="5.26124">
        <ele>200.4</ele>
        <time>2022-03-21T12:17:40Z</time>
      </trkpt>
      <trkpt lat="46.88614" lon="5.26127">
        <ele>200.4</ele>
        <time>2022-03-21T12:17:41Z</time>
      </trkpt>
      <trkpt lat="46.88611" lon="5.2613">
        <ele>200.4</ele>
        <time>2022-03-21T12:17:42Z</time>
      </trkpt>
      <trkpt lat="46.88608" lon="5.26131">
        <ele>200.4</ele>
        <time>2022-03-21T12:17:43Z</time>
      </trkpt>
      <trkpt lat="46.88605" lon="5.26133">
        <ele>200.4</ele>
        <time>2022-03-21T12:17:44Z</time>
      </trkpt>
      <trkpt lat="46.88602" lon="5.26135">
        <ele>200.4</ele>
        <time>2022-03-21T12:17:45Z</time>
      </trkpt>
      <trkpt lat="46.88598" lon="5.26136">
        <ele>200.4</ele>
        <time>2022-03-21T12:17:46Z</time>
      </trkpt>
      <trkpt lat="46.88594" lon="5.26137">
        <ele>200.4</ele>
        <time>2022-03-21T12:17:47Z</time>
      </trkpt>
      <trkpt lat="46.88591" lon="5.26138">
        <ele>200.4</ele>
        <time>2022-03-21T12:17:48Z</time>
      </trkpt>
      <trkpt lat="46.88587" lon="5.26139">
        <ele>200.4</ele>
        <time>2022-03-21T12:17:49Z</time>
      </trkpt>
      <trkpt lat="46.88584" lon="5.26139">
        <ele>200.6</ele>
        <time>2022-03-21T12:17:50Z</time>
      </trkpt>
      <trkpt lat="46.8858" lon="5.2614">
        <ele>200.6</ele>
        <time>2022-03-21T12:17:51Z</time>
      </trkpt>
      <trkpt lat="46.88577" lon="5.26142">
        <ele>200.6</ele>
        <time>2022-03-21T12:17:52Z</time>
      </trkpt>
      <trkpt lat="46.88574" lon="5.26144">
        <ele>200.6</ele>
        <time>2022-03-21T12:17:53Z</time>
      </trkpt>
      <trkpt lat="46.8857" lon="5.26145">
        <ele>200.6</ele>
        <time>2022-03-21T12:17:54Z</time>
      </trkpt>
      <trkpt lat="46.88568" lon="5.26146">
        <ele>200.6</ele>
        <time>2022-03-21T12:17:55Z</time>
      </trkpt>
      <trkpt lat="46.88565" lon="5.26147">
        <ele>200.8</ele>
        <time>2022-03-21T12:17:56Z</time>
      </trkpt>
      <trkpt lat="46.88562" lon="5.26148">
        <ele>200.8</ele>
        <time>2022-03-21T12:17:57Z</time>
      </trkpt>
      <trkpt lat="46.88558" lon="5.26149">
        <ele>200.8</ele>
        <time>2022-03-21T12:17:58Z</time>
      </trkpt>
      <trkpt lat="46.88555" lon="5.26151">
        <ele>200.8</ele>
        <time>2022-03-21T12:17:59Z</time>
      </trkpt>
      <trkpt lat="46.88552" lon="5.26152">
        <ele>201</ele>
        <time>2022-03-21T12:18:00Z</time>
      </trkpt>
      <trkpt lat="46.88548" lon="5.26154">
        <ele>201</ele>
        <time>2022-03-21T12:18:01Z</time>
      </trkpt>
      <trkpt lat="46.88544" lon="5.26155">
        <ele>201</ele>
        <time>2022-03-21T12:18:02Z</time>
      </trkpt>
      <trkpt lat="46.8854" lon="5.26156">
        <ele>201</ele>
        <time>2022-03-21T12:18:03Z</time>
      </trkpt>
      <trkpt lat="46.88535" lon="5.26156">
        <ele>201</ele>
        <time>2022-03-21T12:18:04Z</time>
      </trkpt>
      <trkpt lat="46.88531" lon="5.26158">
        <ele>201</ele>
        <time>2022-03-21T12:18:05Z</time>
      </trkpt>
      <trkpt lat="46.88528" lon="5.2616">
        <ele>201</ele>
        <time>2022-03-21T12:18:06Z</time>
      </trkpt>
      <trkpt lat="46.88524" lon="5.26162">
        <ele>201</ele>
        <time>2022-03-21T12:18:07Z</time>
      </trkpt>
      <trkpt lat="46.8852" lon="5.26164">
        <ele>201</ele>
        <time>2022-03-21T12:18:08Z</time>
      </trkpt>
      <trkpt lat="46.88515" lon="5.26166">
        <ele>201.2</ele>
        <time>2022-03-21T12:18:09Z</time>
      </trkpt>
      <trkpt lat="46.88511" lon="5.26167">
        <ele>201.2</ele>
        <time>2022-03-21T12:18:10Z</time>
      </trkpt>
      <trkpt lat="46.88506" lon="5.26169">
        <ele>201.2</ele>
        <time>2022-03-21T12:18:11Z</time>
      </trkpt>
      <trkpt lat="46.88502" lon="5.2617">
        <ele>201.2</ele>
        <time>2022-03-21T12:18:12Z</time>
      </trkpt>
      <trkpt lat="46.88498" lon="5.26171">
        <ele>201.6</ele>
        <time>2022-03-21T12:18:13Z</time>
      </trkpt>
      <trkpt lat="46.88493" lon="5.26171">
        <ele>201.6</ele>
        <time>2022-03-21T12:18:14Z</time>
      </trkpt>
      <trkpt lat="46.88489" lon="5.26172">
        <ele>201.6</ele>
        <time>2022-03-21T12:18:15Z</time>
      </trkpt>
      <trkpt lat="46.88484" lon="5.26173">
        <ele>201.8</ele>
        <time>2022-03-21T12:18:16Z</time>
      </trkpt>
      <trkpt lat="46.8848" lon="5.26175">
        <ele>201.8</ele>
        <time>2022-03-21T12:18:17Z</time>
      </trkpt>
      <trkpt lat="46.88476" lon="5.26177">
        <ele>201.8</ele>
        <time>2022-03-21T12:18:18Z</time>
      </trkpt>
      <trkpt lat="46.88472" lon="5.26179">
        <ele>201.8</ele>
        <time>2022-03-21T12:18:19Z</time>
      </trkpt>
      <trkpt lat="46.88468" lon="5.26181">
        <ele>201.8</ele>
        <time>2022-03-21T12:18:20Z</time>
      </trkpt>
      <trkpt lat="46.88464" lon="5.26183">
        <ele>201.8</ele>
        <time>2022-03-21T12:18:21Z</time>
      </trkpt>
      <trkpt lat="46.8846" lon="5.26186">
        <ele>201.8</ele>
        <time>2022-03-21T12:18:22Z</time>
      </trkpt>
      <trkpt lat="46.88456" lon="5.26188">
        <ele>201.8</ele>
        <time>2022-03-21T12:18:23Z</time>
      </trkpt>
      <trkpt lat="46.88452" lon="5.2619">
        <ele>202</ele>
        <time>2022-03-21T12:18:24Z</time>
      </trkpt>
      <trkpt lat="46.88448" lon="5.26192">
        <ele>202</ele>
        <time>2022-03-21T12:18:25Z</time>
      </trkpt>
      <trkpt lat="46.88444" lon="5.26195">
        <ele>202.2</ele>
        <time>2022-03-21T12:18:26Z</time>
      </trkpt>
      <trkpt lat="46.8844" lon="5.26198">
        <ele>202.2</ele>
        <time>2022-03-21T12:18:27Z</time>
      </trkpt>
      <trkpt lat="46.88436" lon="5.262">
        <ele>202.2</ele>
        <time>2022-03-21T12:18:28Z</time>
      </trkpt>
      <trkpt lat="46.88431" lon="5.26202">
        <ele>202.2</ele>
        <time>2022-03-21T12:18:29Z</time>
      </trkpt>
      <trkpt lat="46.88427" lon="5.26204">
        <ele>202.2</ele>
        <time>2022-03-21T12:18:30Z</time>
      </trkpt>
      <trkpt lat="46.88423" lon="5.26205">
        <ele>202.2</ele>
        <time>2022-03-21T12:18:31Z</time>
      </trkpt>
      <trkpt lat="46.88419" lon="5.26205">
        <ele>202.4</ele>
        <time>2022-03-21T12:18:32Z</time>
      </trkpt>
      <trkpt lat="46.88415" lon="5.26205">
        <ele>202.4</ele>
        <time>2022-03-21T12:18:33Z</time>
      </trkpt>
      <trkpt lat="46.88411" lon="5.26204">
        <ele>202.4</ele>
        <time>2022-03-21T12:18:34Z</time>
      </trkpt>
      <trkpt lat="46.88407" lon="5.26204">
        <ele>202.4</ele>
        <time>2022-03-21T12:18:35Z</time>
      </trkpt>
      <trkpt lat="46.88403" lon="5.26202">
        <ele>202.4</ele>
        <time>2022-03-21T12:18:36Z</time>
      </trkpt>
      <trkpt lat="46.884" lon="5.26199">
        <ele>202.4</ele>
        <time>2022-03-21T12:18:37Z</time>
      </trkpt>
      <trkpt lat="46.88396" lon="5.26197">
        <ele>202.4</ele>
        <time>2022-03-21T12:18:38Z</time>
      </trkpt>
      <trkpt lat="46.88393" lon="5.26194">
        <ele>202.4</ele>
        <time>2022-03-21T12:18:39Z</time>
      </trkpt>
      <trkpt lat="46.8839" lon="5.26189">
        <ele>202.4</ele>
        <time>2022-03-21T12:18:40Z</time>
      </trkpt>
      <trkpt lat="46.88388" lon="5.26183">
        <ele>202.4</ele>
        <time>2022-03-21T12:18:41Z</time>
      </trkpt>
      <trkpt lat="46.88386" lon="5.26177">
        <ele>202.4</ele>
        <time>2022-03-21T12:18:42Z</time>
      </trkpt>
      <trkpt lat="46.88385" lon="5.2617">
        <ele>202.2</ele>
        <time>2022-03-21T12:18:43Z</time>
      </trkpt>
      <trkpt lat="46.88383" lon="5.26163">
        <ele>202.2</ele>
        <time>2022-03-21T12:18:44Z</time>
      </trkpt>
      <trkpt lat="46.88381" lon="5.26157">
        <ele>202.2</ele>
        <time>2022-03-21T12:18:45Z</time>
      </trkpt>
      <trkpt lat="46.88379" lon="5.2615">
        <ele>201.8</ele>
        <time>2022-03-21T12:18:46Z</time>
      </trkpt>
      <trkpt lat="46.88377" lon="5.26143">
        <ele>201.8</ele>
        <time>2022-03-21T12:18:47Z</time>
      </trkpt>
      <trkpt lat="46.88374" lon="5.26137">
        <ele>201.8</ele>
        <time>2022-03-21T12:18:48Z</time>
      </trkpt>
      <trkpt lat="46.8837" lon="5.26132">
        <ele>201.6</ele>
        <time>2022-03-21T12:18:49Z</time>
      </trkpt>
      <trkpt lat="46.88366" lon="5.26128">
        <ele>201.6</ele>
        <time>2022-03-21T12:18:50Z</time>
      </trkpt>
      <trkpt lat="46.88361" lon="5.26126">
        <ele>201.6</ele>
        <time>2022-03-21T12:18:51Z</time>
      </trkpt>
      <trkpt lat="46.88356" lon="5.26124">
        <ele>201.6</ele>
        <time>2022-03-21T12:18:52Z</time>
      </trkpt>
      <trkpt lat="46.88351" lon="5.26124">
        <ele>201.6</ele>
        <time>2022-03-21T12:18:53Z</time>
      </trkpt>
      <trkpt lat="46.88347" lon="5.26124">
        <ele>201.8</ele>
        <time>2022-03-21T12:18:54Z</time>
      </trkpt>
      <trkpt lat="46.88342" lon="5.26125">
        <ele>201.8</ele>
        <time>2022-03-21T12:18:55Z</time>
      </trkpt>
      <trkpt lat="46.88337" lon="5.26126">
        <ele>201.8</ele>
        <time>2022-03-21T12:18:56Z</time>
      </trkpt>
      <trkpt lat="46.88333" lon="5.26127">
        <ele>202.2</ele>
        <time>2022-03-21T12:18:57Z</time>
      </trkpt>
      <trkpt lat="46.88329" lon="5.26128">
        <ele>202.2</ele>
        <time>2022-03-21T12:18:58Z</time>
      </trkpt>
      <trkpt lat="46.88326" lon="5.26129">
        <ele>202.2</ele>
        <time>2022-03-21T12:18:59Z</time>
      </trkpt>
      <trkpt lat="46.88322" lon="5.2613">
        <ele>202.2</ele>
        <time>2022-03-21T12:19:00Z</time>
      </trkpt>
      <trkpt lat="46.88319" lon="5.2613">
        <ele>202.4</ele>
        <time>2022-03-21T12:19:01Z</time>
      </trkpt>
      <trkpt lat="46.88316" lon="5.2613">
        <ele>202.4</ele>
        <time>2022-03-21T12:19:02Z</time>
      </trkpt>
      <trkpt lat="46.88314" lon="5.26131">
        <ele>202.4</ele>
        <time>2022-03-21T12:19:03Z</time>
      </trkpt>
      <trkpt lat="46.88312" lon="5.26131">
        <ele>202.4</ele>
        <time>2022-03-21T12:19:04Z</time>
      </trkpt>
      <trkpt lat="46.8831" lon="5.26131">
        <ele>202.4</ele>
        <time>2022-03-21T12:19:05Z</time>
      </trkpt>
      <trkpt lat="46.88307" lon="5.26129">
        <ele>202.6</ele>
        <time>2022-03-21T12:19:06Z</time>
      </trkpt>
      <trkpt lat="46.88306" lon="5.26126">
        <ele>202.6</ele>
        <time>2022-03-21T12:19:07Z</time>
      </trkpt>
      <trkpt lat="46.88305" lon="5.26123">
        <ele>202.6</ele>
        <time>2022-03-21T12:19:08Z</time>
      </trkpt>
      <trkpt lat="46.88305" lon="5.26119">
        <ele>202.6</ele>
        <time>2022-03-21T12:19:09Z</time>
      </trkpt>
      <trkpt lat="46.88304" lon="5.26115">
        <ele>202.8</ele>
        <time>2022-03-21T12:19:10Z</time>
      </trkpt>
      <trkpt lat="46.88304" lon="5.26111">
        <ele>202.8</ele>
        <time>2022-03-21T12:19:11Z</time>
      </trkpt>
      <trkpt lat="46.88304" lon="5.26106">
        <ele>202.8</ele>
        <time>2022-03-21T12:19:12Z</time>
      </trkpt>
      <trkpt lat="46.88304" lon="5.26102">
        <ele>202.8</ele>
        <time>2022-03-21T12:19:13Z</time>
      </trkpt>
      <trkpt lat="46.88303" lon="5.26098">
        <ele>202.8</ele>
        <time>2022-03-21T12:19:14Z</time>
      </trkpt>
      <trkpt lat="46.88303" lon="5.26094">
        <ele>202.8</ele>
        <time>2022-03-21T12:19:15Z</time>
      </trkpt>
      <trkpt lat="46.88302" lon="5.2609">
        <ele>202.8</ele>
        <time>2022-03-21T12:19:16Z</time>
      </trkpt>
      <trkpt lat="46.88302" lon="5.26087">
        <ele>202.8</ele>
        <time>2022-03-21T12:19:17Z</time>
      </trkpt>
      <trkpt lat="46.88302" lon="5.26083">
        <ele>202.8</ele>
        <time>2022-03-21T12:19:18Z</time>
      </trkpt>
      <trkpt lat="46.88302" lon="5.2608">
        <ele>202.8</ele>
        <time>2022-03-21T12:19:19Z</time>
      </trkpt>
      <trkpt lat="46.88302" lon="5.26077">
        <ele>202.8</ele>
        <time>2022-03-21T12:19:20Z</time>
      </trkpt>
      <trkpt lat="46.88301" lon="5.26074">
        <ele>202.8</ele>
        <time>2022-03-21T12:19:21Z</time>
      </trkpt>
      <trkpt lat="46.88301" lon="5.26071">
        <ele>202.8</ele>
        <time>2022-03-21T12:19:22Z</time>
      </trkpt>
      <trkpt lat="46.88301" lon="5.26067">
        <ele>202.8</ele>
        <time>2022-03-21T12:19:23Z</time>
      </trkpt>
      <trkpt lat="46.883" lon="5.26062">
        <ele>202.6</ele>
        <time>2022-03-21T12:19:24Z</time>
      </trkpt>
      <trkpt lat="46.883" lon="5.26058">
        <ele>202.6</ele>
        <time>2022-03-21T12:19:25Z</time>
      </trkpt>
      <trkpt lat="46.883" lon="5.26053">
        <ele>202.6</ele>
        <time>2022-03-21T12:19:26Z</time>
      </trkpt>
      <trkpt lat="46.88299" lon="5.26049">
        <ele>202.6</ele>
        <time>2022-03-21T12:19:27Z</time>
      </trkpt>
      <trkpt lat="46.88299" lon="5.26044">
        <ele>202.2</ele>
        <time>2022-03-21T12:19:28Z</time>
      </trkpt>
      <trkpt lat="46.883" lon="5.2604">
        <ele>202.2</ele>
        <time>2022-03-21T12:19:29Z</time>
      </trkpt>
      <trkpt lat="46.883" lon="5.26036">
        <ele>202.2</ele>
        <time>2022-03-21T12:19:30Z</time>
      </trkpt>
      <trkpt lat="46.883" lon="5.26033">
        <ele>202.2</ele>
        <time>2022-03-21T12:19:31Z</time>
      </trkpt>
      <trkpt lat="46.883" lon="5.26029">
        <ele>202.2</ele>
        <time>2022-03-21T12:19:32Z</time>
      </trkpt>
      <trkpt lat="46.883" lon="5.26026">
        <ele>202.2</ele>
        <time>2022-03-21T12:19:33Z</time>
      </trkpt>
      <trkpt lat="46.88299" lon="5.26024">
        <ele>202.2</ele>
        <time>2022-03-21T12:19:34Z</time>
      </trkpt>
      <trkpt lat="46.88298" lon="5.26023">
        <ele>202.2</ele>
        <time>2022-03-21T12:19:35Z</time>
      </trkpt>
      <trkpt lat="46.88297" lon="5.26022">
        <ele>202.2</ele>
        <time>2022-03-21T12:19:36Z</time>
      </trkpt>
      <trkpt lat="46.88296" lon="5.26023">
        <ele>202.2</ele>
        <time>2022-03-21T12:19:37Z</time>
      </trkpt>
      <trkpt lat="46.88296" lon="5.26024">
        <ele>202.2</ele>
        <time>2022-03-21T12:19:38Z</time>
      </trkpt>
      <trkpt lat="46.88296" lon="5.26026">
        <ele>202.2</ele>
        <time>2022-03-21T12:19:39Z</time>
      </trkpt>
      <trkpt lat="46.88296" lon="5.26028">
        <ele>202.2</ele>
        <time>2022-03-21T12:19:40Z</time>
      </trkpt>
      <trkpt lat="46.88296" lon="5.26031">
        <ele>202.2</ele>
        <time>2022-03-21T12:19:41Z</time>
      </trkpt>
      <trkpt lat="46.88296" lon="5.26033">
        <ele>202.2</ele>
        <time>2022-03-21T12:19:42Z</time>
      </trkpt>
      <trkpt lat="46.88296" lon="5.26036">
        <ele>202.4</ele>
        <time>2022-03-21T12:19:43Z</time>
      </trkpt>
      <trkpt lat="46.88296" lon="5.2604">
        <ele>202.4</ele>
        <time>2022-03-21T12:19:44Z</time>
      </trkpt>
      <trkpt lat="46.88296" lon="5.26044">
        <ele>202.4</ele>
        <time>2022-03-21T12:19:45Z</time>
      </trkpt>
      <trkpt lat="46.88296" lon="5.26048">
        <ele>202.4</ele>
        <time>2022-03-21T12:19:46Z</time>
      </trkpt>
      <trkpt lat="46.88297" lon="5.26052">
        <ele>202.4</ele>
        <time>2022-03-21T12:19:47Z</time>
      </trkpt>
      <trkpt lat="46.88297" lon="5.26057">
        <ele>202.4</ele>
        <time>2022-03-21T12:19:48Z</time>
      </trkpt>
      <trkpt lat="46.88297" lon="5.26061">
        <ele>202.4</ele>
        <time>2022-03-21T12:19:49Z</time>
      </trkpt>
      <trkpt lat="46.88297" lon="5.26066">
        <ele>202.4</ele>
        <time>2022-03-21T12:19:50Z</time>
      </trkpt>
      <trkpt lat="46.88298" lon="5.26071">
        <ele>202.4</ele>
        <time>2022-03-21T12:19:51Z</time>
      </trkpt>
      <trkpt lat="46.88298" lon="5.26076">
        <ele>202.8</ele>
        <time>2022-03-21T12:19:52Z</time>
      </trkpt>
      <trkpt lat="46.88298" lon="5.26081">
        <ele>202.8</ele>
        <time>2022-03-21T12:19:53Z</time>
      </trkpt>
      <trkpt lat="46.88298" lon="5.26086">
        <ele>202.8</ele>
        <time>2022-03-21T12:19:54Z</time>
      </trkpt>
      <trkpt lat="46.88298" lon="5.26091">
        <ele>202.8</ele>
        <time>2022-03-21T12:19:55Z</time>
      </trkpt>
      <trkpt lat="46.88299" lon="5.26096">
        <ele>203</ele>
        <time>2022-03-21T12:19:56Z</time>
      </trkpt>
      <trkpt lat="46.88299" lon="5.261">
        <ele>203</ele>
        <time>2022-03-21T12:19:57Z</time>
      </trkpt>
      <trkpt lat="46.88299" lon="5.26105">
        <ele>203.2</ele>
        <time>2022-03-21T12:19:58Z</time>
      </trkpt>
      <trkpt lat="46.88298" lon="5.26109">
        <ele>203.2</ele>
        <time>2022-03-21T12:19:59Z</time>
      </trkpt>
      <trkpt lat="46.88298" lon="5.26112">
        <ele>203.2</ele>
        <time>2022-03-21T12:20:00Z</time>
      </trkpt>
      <trkpt lat="46.88297" lon="5.26115">
        <ele>203.2</ele>
        <time>2022-03-21T12:20:01Z</time>
      </trkpt>
      <trkpt lat="46.88297" lon="5.26118">
        <ele>203.2</ele>
        <time>2022-03-21T12:20:02Z</time>
      </trkpt>
      <trkpt lat="46.88297" lon="5.26122">
        <ele>203.2</ele>
        <time>2022-03-21T12:20:03Z</time>
      </trkpt>
      <trkpt lat="46.88298" lon="5.26126">
        <ele>203.2</ele>
        <time>2022-03-21T12:20:04Z</time>
      </trkpt>
      <trkpt lat="46.88299" lon="5.26129">
        <ele>203.2</ele>
        <time>2022-03-21T12:20:05Z</time>
      </trkpt>
      <trkpt lat="46.883" lon="5.26133">
        <ele>203.2</ele>
        <time>2022-03-21T12:20:06Z</time>
      </trkpt>
      <trkpt lat="46.883" lon="5.26138">
        <ele>203.4</ele>
        <time>2022-03-21T12:20:07Z</time>
      </trkpt>
      <trkpt lat="46.88301" lon="5.26143">
        <ele>203.4</ele>
        <time>2022-03-21T12:20:08Z</time>
      </trkpt>
      <trkpt lat="46.88301" lon="5.26148">
        <ele>203.4</ele>
        <time>2022-03-21T12:20:09Z</time>
      </trkpt>
      <trkpt lat="46.88301" lon="5.26152">
        <ele>203.4</ele>
        <time>2022-03-21T12:20:10Z</time>
      </trkpt>
      <trkpt lat="46.883" lon="5.26155">
        <ele>203.4</ele>
        <time>2022-03-21T12:20:11Z</time>
      </trkpt>
      <trkpt lat="46.883" lon="5.26158">
        <ele>203.4</ele>
        <time>2022-03-21T12:20:12Z</time>
      </trkpt>
      <trkpt lat="46.883" lon="5.26161">
        <ele>203.4</ele>
        <time>2022-03-21T12:20:13Z</time>
      </trkpt>
      <trkpt lat="46.883" lon="5.26163">
        <ele>203.4</ele>
        <time>2022-03-21T12:20:14Z</time>
      </trkpt>
      <trkpt lat="46.88301" lon="5.26166">
        <ele>203.6</ele>
        <time>2022-03-21T12:20:15Z</time>
      </trkpt>
      <trkpt lat="46.88301" lon="5.26167">
        <ele>203.6</ele>
        <time>2022-03-21T12:20:16Z</time>
      </trkpt>
      <trkpt lat="46.88301" lon="5.2617">
        <ele>203.6</ele>
        <time>2022-03-21T12:20:17Z</time>
      </trkpt>
      <trkpt lat="46.88301" lon="5.26172">
        <ele>203.6</ele>
        <time>2022-03-21T12:20:18Z</time>
      </trkpt>
      <trkpt lat="46.88301" lon="5.26175">
        <ele>203.6</ele>
        <time>2022-03-21T12:20:19Z</time>
      </trkpt>
      <trkpt lat="46.88302" lon="5.26178">
        <ele>203.6</ele>
        <time>2022-03-21T12:20:20Z</time>
      </trkpt>
      <trkpt lat="46.88302" lon="5.26181">
        <ele>203.6</ele>
        <time>2022-03-21T12:20:21Z</time>
      </trkpt>
      <trkpt lat="46.88302" lon="5.26184">
        <ele>204</ele>
        <time>2022-03-21T12:20:22Z</time>
      </trkpt>
      <trkpt lat="46.88302" lon="5.26187">
        <ele>204</ele>
        <time>2022-03-21T12:20:23Z</time>
      </trkpt>
      <trkpt lat="46.88302" lon="5.26191">
        <ele>204</ele>
        <time>2022-03-21T12:20:24Z</time>
      </trkpt>
      <trkpt lat="46.88303" lon="5.26196">
        <ele>204</ele>
        <time>2022-03-21T12:20:25Z</time>
      </trkpt>
      <trkpt lat="46.88303" lon="5.26201">
        <ele>204</ele>
        <time>2022-03-21T12:20:26Z</time>
      </trkpt>
      <trkpt lat="46.88303" lon="5.26206">
        <ele>204</ele>
        <time>2022-03-21T12:20:27Z</time>
      </trkpt>
      <trkpt lat="46.88304" lon="5.26212">
        <ele>204</ele>
        <time>2022-03-21T12:20:28Z</time>
      </trkpt>
      <trkpt lat="46.88304" lon="5.26218">
        <ele>204.2</ele>
        <time>2022-03-21T12:20:29Z</time>
      </trkpt>
      <trkpt lat="46.88304" lon="5.26225">
        <ele>204.2</ele>
        <time>2022-03-21T12:20:30Z</time>
      </trkpt>
      <trkpt lat="46.88303" lon="5.26231">
        <ele>204.2</ele>
        <time>2022-03-21T12:20:31Z</time>
      </trkpt>
      <trkpt lat="46.88304" lon="5.26237">
        <ele>204.2</ele>
        <time>2022-03-21T12:20:32Z</time>
      </trkpt>
      <trkpt lat="46.88304" lon="5.26243">
        <ele>204.4</ele>
        <time>2022-03-21T12:20:33Z</time>
      </trkpt>
      <trkpt lat="46.88304" lon="5.26249">
        <ele>204.4</ele>
        <time>2022-03-21T12:20:34Z</time>
      </trkpt>
      <trkpt lat="46.88304" lon="5.26255">
        <ele>204.6</ele>
        <time>2022-03-21T12:20:35Z</time>
      </trkpt>
      <trkpt lat="46.88305" lon="5.26261">
        <ele>204.6</ele>
        <time>2022-03-21T12:20:36Z</time>
      </trkpt>
      <trkpt lat="46.88305" lon="5.26267">
        <ele>204.6</ele>
        <time>2022-03-21T12:20:37Z</time>
      </trkpt>
      <trkpt lat="46.88305" lon="5.26273">
        <ele>204.6</ele>
        <time>2022-03-21T12:20:38Z</time>
      </trkpt>
      <trkpt lat="46.88305" lon="5.26279">
        <ele>204.6</ele>
        <time>2022-03-21T12:20:39Z</time>
      </trkpt>
      <trkpt lat="46.88305" lon="5.26286">
        <ele>204.8</ele>
        <time>2022-03-21T12:20:40Z</time>
      </trkpt>
      <trkpt lat="46.88305" lon="5.26292">
        <ele>204.8</ele>
        <time>2022-03-21T12:20:41Z</time>
      </trkpt>
      <trkpt lat="46.88305" lon="5.26298">
        <ele>205</ele>
        <time>2022-03-21T12:20:43Z</time>
      </trkpt>
      <trkpt lat="46.88305" lon="5.26304">
        <ele>205</ele>
        <time>2022-03-21T12:20:44Z</time>
      </trkpt>
      <trkpt lat="46.88306" lon="5.2631">
        <ele>205</ele>
        <time>2022-03-21T12:20:45Z</time>
      </trkpt>
      <trkpt lat="46.88306" lon="5.26315">
        <ele>205.2</ele>
        <time>2022-03-21T12:20:46Z</time>
      </trkpt>
      <trkpt lat="46.88306" lon="5.26321">
        <ele>205.2</ele>
        <time>2022-03-21T12:20:47Z</time>
      </trkpt>
      <trkpt lat="46.88307" lon="5.26326">
        <ele>205.2</ele>
        <time>2022-03-21T12:20:48Z</time>
      </trkpt>
      <trkpt lat="46.88307" lon="5.26331">
        <ele>205.2</ele>
        <time>2022-03-21T12:20:49Z</time>
      </trkpt>
      <trkpt lat="46.88308" lon="5.26336">
        <ele>205.2</ele>
        <time>2022-03-21T12:20:50Z</time>
      </trkpt>
      <trkpt lat="46.88309" lon="5.26341">
        <ele>205.2</ele>
        <time>2022-03-21T12:20:51Z</time>
      </trkpt>
      <trkpt lat="46.88309" lon="5.26347">
        <ele>205.2</ele>
        <time>2022-03-21T12:20:52Z</time>
      </trkpt>
      <trkpt lat="46.8831" lon="5.26352">
        <ele>205.2</ele>
        <time>2022-03-21T12:20:53Z</time>
      </trkpt>
      <trkpt lat="46.88311" lon="5.26358">
        <ele>205.2</ele>
        <time>2022-03-21T12:20:54Z</time>
      </trkpt>
      <trkpt lat="46.88312" lon="5.26364">
        <ele>205.2</ele>
        <time>2022-03-21T12:20:55Z</time>
      </trkpt>
      <trkpt lat="46.88313" lon="5.2637">
        <ele>205.2</ele>
        <time>2022-03-21T12:20:56Z</time>
      </trkpt>
      <trkpt lat="46.88314" lon="5.26376">
        <ele>205.2</ele>
        <time>2022-03-21T12:20:57Z</time>
      </trkpt>
      <trkpt lat="46.88315" lon="5.26381">
        <ele>205.2</ele>
        <time>2022-03-21T12:20:58Z</time>
      </trkpt>
      <trkpt lat="46.88315" lon="5.26387">
        <ele>205.2</ele>
        <time>2022-03-21T12:20:59Z</time>
      </trkpt>
      <trkpt lat="46.88315" lon="5.26392">
        <ele>205.2</ele>
        <time>2022-03-21T12:21:00Z</time>
      </trkpt>
      <trkpt lat="46.88315" lon="5.26398">
        <ele>205.2</ele>
        <time>2022-03-21T12:21:01Z</time>
      </trkpt>
      <trkpt lat="46.88315" lon="5.26402">
        <ele>205.4</ele>
        <time>2022-03-21T12:21:02Z</time>
      </trkpt>
      <trkpt lat="46.88314" lon="5.26407">
        <ele>205.4</ele>
        <time>2022-03-21T12:21:03Z</time>
      </trkpt>
      <trkpt lat="46.88314" lon="5.26411">
        <ele>205.4</ele>
        <time>2022-03-21T12:21:04Z</time>
      </trkpt>
      <trkpt lat="46.88315" lon="5.26415">
        <ele>205.4</ele>
        <time>2022-03-21T12:21:05Z</time>
      </trkpt>
      <trkpt lat="46.88315" lon="5.26419">
        <ele>205.4</ele>
        <time>2022-03-21T12:21:06Z</time>
      </trkpt>
      <trkpt lat="46.88316" lon="5.26423">
        <ele>205.4</ele>
        <time>2022-03-21T12:21:07Z</time>
      </trkpt>
      <trkpt lat="46.88317" lon="5.26426">
        <ele>205.4</ele>
        <time>2022-03-21T12:21:08Z</time>
      </trkpt>
      <trkpt lat="46.88318" lon="5.2643">
        <ele>205.4</ele>
        <time>2022-03-21T12:21:09Z</time>
      </trkpt>
      <trkpt lat="46.88319" lon="5.26433">
        <ele>205.4</ele>
        <time>2022-03-21T12:21:10Z</time>
      </trkpt>
      <trkpt lat="46.88321" lon="5.26435">
        <ele>205.8</ele>
        <time>2022-03-21T12:21:11Z</time>
      </trkpt>
      <trkpt lat="46.88323" lon="5.26436">
        <ele>205.8</ele>
        <time>2022-03-21T12:21:12Z</time>
      </trkpt>
      <trkpt lat="46.88325" lon="5.26436">
        <ele>205.8</ele>
        <time>2022-03-21T12:21:13Z</time>
      </trkpt>
      <trkpt lat="46.88327" lon="5.26434">
        <ele>205.8</ele>
        <time>2022-03-21T12:21:14Z</time>
      </trkpt>
      <trkpt lat="46.88328" lon="5.26431">
        <ele>205.8</ele>
        <time>2022-03-21T12:21:15Z</time>
      </trkpt>
      <trkpt lat="46.88327" lon="5.26427">
        <ele>205.8</ele>
        <time>2022-03-21T12:21:16Z</time>
      </trkpt>
      <trkpt lat="46.88325" lon="5.26423">
        <ele>205.4</ele>
        <time>2022-03-21T12:21:17Z</time>
      </trkpt>
      <trkpt lat="46.88323" lon="5.26421">
        <ele>205.4</ele>
        <time>2022-03-21T12:21:18Z</time>
      </trkpt>
      <trkpt lat="46.8832" lon="5.26418">
        <ele>205.4</ele>
        <time>2022-03-21T12:21:19Z</time>
      </trkpt>
      <trkpt lat="46.88318" lon="5.26415">
        <ele>205.4</ele>
        <time>2022-03-21T12:21:20Z</time>
      </trkpt>
      <trkpt lat="46.88315" lon="5.26411">
        <ele>205.4</ele>
        <time>2022-03-21T12:21:21Z</time>
      </trkpt>
      <trkpt lat="46.88313" lon="5.26408">
        <ele>205.4</ele>
        <time>2022-03-21T12:21:22Z</time>
      </trkpt>
      <trkpt lat="46.88311" lon="5.26404">
        <ele>205.4</ele>
        <time>2022-03-21T12:21:23Z</time>
      </trkpt>
      <trkpt lat="46.88309" lon="5.264">
        <ele>205.4</ele>
        <time>2022-03-21T12:21:24Z</time>
      </trkpt>
      <trkpt lat="46.88308" lon="5.26396">
        <ele>205.4</ele>
        <time>2022-03-21T12:21:25Z</time>
      </trkpt>
      <trkpt lat="46.88308" lon="5.26392">
        <ele>205.4</ele>
        <time>2022-03-21T12:21:26Z</time>
      </trkpt>
      <trkpt lat="46.88307" lon="5.26389">
        <ele>205.4</ele>
        <time>2022-03-21T12:21:27Z</time>
      </trkpt>
      <trkpt lat="46.88306" lon="5.26386">
        <ele>205.4</ele>
        <time>2022-03-21T12:21:28Z</time>
      </trkpt>
      <trkpt lat="46.88304" lon="5.26384">
        <ele>205.4</ele>
        <time>2022-03-21T12:21:29Z</time>
      </trkpt>
      <trkpt lat="46.88303" lon="5.26383">
        <ele>205.4</ele>
        <time>2022-03-21T12:21:30Z</time>
      </trkpt>
      <trkpt lat="46.88302" lon="5.26383">
        <ele>205.4</ele>
        <time>2022-03-21T12:21:31Z</time>
      </trkpt>
      <trkpt lat="46.88301" lon="5.26383">
        <ele>205.4</ele>
        <time>2022-03-21T12:21:32Z</time>
      </trkpt>
      <trkpt lat="46.88299" lon="5.26383">
        <ele>205.4</ele>
        <time>2022-03-21T12:21:33Z</time>
      </trkpt>
      <trkpt lat="46.88297" lon="5.26384">
        <ele>205.4</ele>
        <time>2022-03-21T12:21:34Z</time>
      </trkpt>
      <trkpt lat="46.88295" lon="5.26385">
        <ele>205.4</ele>
        <time>2022-03-21T12:21:35Z</time>
      </trkpt>
      <trkpt lat="46.88293" lon="5.26387">
        <ele>205.4</ele>
        <time>2022-03-21T12:21:36Z</time>
      </trkpt>
      <trkpt lat="46.88291" lon="5.26389">
        <ele>205.4</ele>
        <time>2022-03-21T12:21:37Z</time>
      </trkpt>
      <trkpt lat="46.88289" lon="5.2639">
        <ele>205.4</ele>
        <time>2022-03-21T12:21:38Z</time>
      </trkpt>
      <trkpt lat="46.88286" lon="5.26392">
        <ele>205.4</ele>
        <time>2022-03-21T12:21:39Z</time>
      </trkpt>
      <trkpt lat="46.88284" lon="5.26393">
        <ele>205.6</ele>
        <time>2022-03-21T12:21:40Z</time>
      </trkpt>
      <trkpt lat="46.88281" lon="5.26394">
        <ele>205.6</ele>
        <time>2022-03-21T12:21:41Z</time>
      </trkpt>
      <trkpt lat="46.88277" lon="5.26396">
        <ele>205.6</ele>
        <time>2022-03-21T12:21:42Z</time>
      </trkpt>
      <trkpt lat="46.88274" lon="5.26397">
        <ele>205.6</ele>
        <time>2022-03-21T12:21:43Z</time>
      </trkpt>
      <trkpt lat="46.88271" lon="5.26398">
        <ele>205.6</ele>
        <time>2022-03-21T12:21:44Z</time>
      </trkpt>
      <trkpt lat="46.88267" lon="5.26399">
        <ele>205.6</ele>
        <time>2022-03-21T12:21:45Z</time>
      </trkpt>
      <trkpt lat="46.88264" lon="5.264">
        <ele>206</ele>
        <time>2022-03-21T12:21:46Z</time>
      </trkpt>
      <trkpt lat="46.88261" lon="5.264">
        <ele>206</ele>
        <time>2022-03-21T12:21:47Z</time>
      </trkpt>
      <trkpt lat="46.88258" lon="5.26399">
        <ele>206</ele>
        <time>2022-03-21T12:21:48Z</time>
      </trkpt>
      <trkpt lat="46.88255" lon="5.26399">
        <ele>206</ele>
        <time>2022-03-21T12:21:49Z</time>
      </trkpt>
      <trkpt lat="46.88252" lon="5.26398">
        <ele>206.2</ele>
        <time>2022-03-21T12:21:50Z</time>
      </trkpt>
      <trkpt lat="46.88249" lon="5.26398">
        <ele>206.2</ele>
        <time>2022-03-21T12:21:51Z</time>
      </trkpt>
      <trkpt lat="46.88246" lon="5.26397">
        <ele>206.2</ele>
        <time>2022-03-21T12:21:52Z</time>
      </trkpt>
      <trkpt lat="46.88243" lon="5.26396">
        <ele>206.4</ele>
        <time>2022-03-21T12:21:53Z</time>
      </trkpt>
      <trkpt lat="46.88239" lon="5.26394">
        <ele>206.4</ele>
        <time>2022-03-21T12:21:54Z</time>
      </trkpt>
      <trkpt lat="46.88236" lon="5.26393">
        <ele>206.4</ele>
        <time>2022-03-21T12:21:55Z</time>
      </trkpt>
      <trkpt lat="46.88232" lon="5.26391">
        <ele>206.6</ele>
        <time>2022-03-21T12:21:56Z</time>
      </trkpt>
      <trkpt lat="46.88229" lon="5.26389">
        <ele>206.6</ele>
        <time>2022-03-21T12:21:57Z</time>
      </trkpt>
      <trkpt lat="46.88226" lon="5.26387">
        <ele>206.6</ele>
        <time>2022-03-21T12:21:58Z</time>
      </trkpt>
      <trkpt lat="46.88223" lon="5.26385">
        <ele>206.6</ele>
        <time>2022-03-21T12:21:59Z</time>
      </trkpt>
      <trkpt lat="46.88219" lon="5.26383">
        <ele>206.6</ele>
        <time>2022-03-21T12:22:00Z</time>
      </trkpt>
      <trkpt lat="46.88216" lon="5.2638">
        <ele>207</ele>
        <time>2022-03-21T12:22:01Z</time>
      </trkpt>
      <trkpt lat="46.88213" lon="5.26377">
        <ele>207</ele>
        <time>2022-03-21T12:22:02Z</time>
      </trkpt>
      <trkpt lat="46.8821" lon="5.26374">
        <ele>207</ele>
        <time>2022-03-21T12:22:03Z</time>
      </trkpt>
      <trkpt lat="46.88208" lon="5.26372">
        <ele>207</ele>
        <time>2022-03-21T12:22:04Z</time>
      </trkpt>
      <trkpt lat="46.88204" lon="5.2637">
        <ele>207</ele>
        <time>2022-03-21T12:22:05Z</time>
      </trkpt>
      <trkpt lat="46.88201" lon="5.26368">
        <ele>207</ele>
        <time>2022-03-21T12:22:06Z</time>
      </trkpt>
      <trkpt lat="46.88198" lon="5.26368">
        <ele>207</ele>
        <time>2022-03-21T12:22:07Z</time>
      </trkpt>
      <trkpt lat="46.88195" lon="5.26368">
        <ele>207</ele>
        <time>2022-03-21T12:22:08Z</time>
      </trkpt>
      <trkpt lat="46.88191" lon="5.26369">
        <ele>207</ele>
        <time>2022-03-21T12:22:09Z</time>
      </trkpt>
      <trkpt lat="46.88188" lon="5.2637">
        <ele>207</ele>
        <time>2022-03-21T12:22:10Z</time>
      </trkpt>
      <trkpt lat="46.88185" lon="5.26372">
        <ele>207.2</ele>
        <time>2022-03-21T12:22:11Z</time>
      </trkpt>
      <trkpt lat="46.88182" lon="5.26374">
        <ele>207.2</ele>
        <time>2022-03-21T12:22:12Z</time>
      </trkpt>
      <trkpt lat="46.88179" lon="5.26376">
        <ele>207.2</ele>
        <time>2022-03-21T12:22:13Z</time>
      </trkpt>
      <trkpt lat="46.88176" lon="5.26378">
        <ele>207.4</ele>
        <time>2022-03-21T12:22:14Z</time>
      </trkpt>
      <trkpt lat="46.88173" lon="5.26381">
        <ele>207.4</ele>
        <time>2022-03-21T12:22:15Z</time>
      </trkpt>
      <trkpt lat="46.8817" lon="5.26383">
        <ele>207.4</ele>
        <time>2022-03-21T12:22:16Z</time>
      </trkpt>
      <trkpt lat="46.88168" lon="5.26384">
        <ele>207.4</ele>
        <time>2022-03-21T12:22:17Z</time>
      </trkpt>
      <trkpt lat="46.88165" lon="5.26386">
        <ele>207.6</ele>
        <time>2022-03-21T12:22:18Z</time>
      </trkpt>
      <trkpt lat="46.88163" lon="5.26387">
        <ele>207.6</ele>
        <time>2022-03-21T12:22:19Z</time>
      </trkpt>
      <trkpt lat="46.88162" lon="5.26389">
        <ele>207.6</ele>
        <time>2022-03-21T12:22:20Z</time>
      </trkpt>
      <trkpt lat="46.88162" lon="5.26392">
        <ele>207.6</ele>
        <time>2022-03-21T12:22:21Z</time>
      </trkpt>
      <trkpt lat="46.88161" lon="5.26394">
        <ele>207.6</ele>
        <time>2022-03-21T12:22:22Z</time>
      </trkpt>
      <trkpt lat="46.88161" lon="5.26397">
        <ele>207.6</ele>
        <time>2022-03-21T12:22:23Z</time>
      </trkpt>
      <trkpt lat="46.88162" lon="5.264">
        <ele>207.6</ele>
        <time>2022-03-21T12:22:24Z</time>
      </trkpt>
      <trkpt lat="46.88162" lon="5.26403">
        <ele>207.6</ele>
        <time>2022-03-21T12:22:25Z</time>
      </trkpt>
      <trkpt lat="46.88163" lon="5.26405">
        <ele>207.6</ele>
        <time>2022-03-21T12:22:26Z</time>
      </trkpt>
      <trkpt lat="46.88164" lon="5.26408">
        <ele>207.6</ele>
        <time>2022-03-21T12:22:27Z</time>
      </trkpt>
      <trkpt lat="46.88165" lon="5.26411">
        <ele>207.6</ele>
        <time>2022-03-21T12:22:28Z</time>
      </trkpt>
      <trkpt lat="46.88165" lon="5.26413">
        <ele>207.6</ele>
        <time>2022-03-21T12:22:29Z</time>
      </trkpt>
      <trkpt lat="46.88166" lon="5.26416">
        <ele>207.6</ele>
        <time>2022-03-21T12:22:30Z</time>
      </trkpt>
      <trkpt lat="46.88167" lon="5.26418">
        <ele>207.4</ele>
        <time>2022-03-21T12:22:31Z</time>
      </trkpt>
      <trkpt lat="46.88167" lon="5.2642">
        <ele>207.4</ele>
        <time>2022-03-21T12:22:32Z</time>
      </trkpt>
      <trkpt lat="46.88167" lon="5.26421">
        <ele>207.4</ele>
        <time>2022-03-21T12:22:33Z</time>
      </trkpt>
      <trkpt lat="46.88168" lon="5.26421">
        <ele>207.4</ele>
        <time>2022-03-21T12:22:34Z</time>
      </trkpt>
      <trkpt lat="46.88168" lon="5.26421">
        <ele>207.4</ele>
        <time>2022-03-21T12:22:35Z</time>
      </trkpt>
      <trkpt lat="46.88167" lon="5.26416">
        <ele>207.6</ele>
        <time>2022-03-21T12:23:10Z</time>
      </trkpt>
      <trkpt lat="46.88166" lon="5.26413">
        <ele>207.6</ele>
        <time>2022-03-21T12:23:11Z</time>
      </trkpt>
      <trkpt lat="46.88165" lon="5.2641">
        <ele>207.6</ele>
        <time>2022-03-21T12:23:12Z</time>
      </trkpt>
      <trkpt lat="46.88164" lon="5.26407">
        <ele>207.6</ele>
        <time>2022-03-21T12:23:13Z</time>
      </trkpt>
      <trkpt lat="46.88163" lon="5.26403">
        <ele>207.6</ele>
        <time>2022-03-21T12:23:14Z</time>
      </trkpt>
      <trkpt lat="46.88162" lon="5.26399">
        <ele>207.6</ele>
        <time>2022-03-21T12:23:15Z</time>
      </trkpt>
      <trkpt lat="46.88161" lon="5.26396">
        <ele>207.6</ele>
        <time>2022-03-21T12:23:16Z</time>
      </trkpt>
      <trkpt lat="46.8816" lon="5.26392">
        <ele>207.6</ele>
        <time>2022-03-21T12:23:17Z</time>
      </trkpt>
      <trkpt lat="46.88158" lon="5.26388">
        <ele>207.6</ele>
        <time>2022-03-21T12:23:18Z</time>
      </trkpt>
      <trkpt lat="46.88157" lon="5.26383">
        <ele>207.4</ele>
        <time>2022-03-21T12:23:19Z</time>
      </trkpt>
      <trkpt lat="46.88156" lon="5.26378">
        <ele>207.4</ele>
        <time>2022-03-21T12:23:20Z</time>
      </trkpt>
      <trkpt lat="46.88155" lon="5.26373">
        <ele>207.4</ele>
        <time>2022-03-21T12:23:21Z</time>
      </trkpt>
      <trkpt lat="46.88153" lon="5.26369">
        <ele>207.4</ele>
        <time>2022-03-21T12:23:22Z</time>
      </trkpt>
      <trkpt lat="46.88151" lon="5.26364">
        <ele>207.4</ele>
        <time>2022-03-21T12:23:23Z</time>
      </trkpt>
      <trkpt lat="46.8815" lon="5.26358">
        <ele>207.4</ele>
        <time>2022-03-21T12:23:24Z</time>
      </trkpt>
      <trkpt lat="46.88148" lon="5.26353">
        <ele>207.4</ele>
        <time>2022-03-21T12:23:25Z</time>
      </trkpt>
      <trkpt lat="46.88147" lon="5.26347">
        <ele>207.4</ele>
        <time>2022-03-21T12:23:26Z</time>
      </trkpt>
      <trkpt lat="46.88146" lon="5.26342">
        <ele>207.4</ele>
        <time>2022-03-21T12:23:27Z</time>
      </trkpt>
      <trkpt lat="46.88144" lon="5.26336">
        <ele>207.4</ele>
        <time>2022-03-21T12:23:28Z</time>
      </trkpt>
      <trkpt lat="46.88142" lon="5.26331">
        <ele>207.4</ele>
        <time>2022-03-21T12:23:29Z</time>
      </trkpt>
      <trkpt lat="46.8814" lon="5.26325">
        <ele>207.4</ele>
        <time>2022-03-21T12:23:30Z</time>
      </trkpt>
      <trkpt lat="46.88139" lon="5.2632">
        <ele>207.4</ele>
        <time>2022-03-21T12:23:31Z</time>
      </trkpt>
      <trkpt lat="46.88136" lon="5.26314">
        <ele>207.4</ele>
        <time>2022-03-21T12:23:32Z</time>
      </trkpt>
      <trkpt lat="46.88134" lon="5.26308">
        <ele>207.4</ele>
        <time>2022-03-21T12:23:33Z</time>
      </trkpt>
      <trkpt lat="46.88132" lon="5.26302">
        <ele>207.4</ele>
        <time>2022-03-21T12:23:34Z</time>
      </trkpt>
      <trkpt lat="46.8813" lon="5.26295">
        <ele>207.4</ele>
        <time>2022-03-21T12:23:35Z</time>
      </trkpt>
      <trkpt lat="46.88128" lon="5.26289">
        <ele>207.4</ele>
        <time>2022-03-21T12:23:36Z</time>
      </trkpt>
      <trkpt lat="46.88127" lon="5.26283">
        <ele>207.4</ele>
        <time>2022-03-21T12:23:37Z</time>
      </trkpt>
      <trkpt lat="46.88125" lon="5.26277">
        <ele>207.4</ele>
        <time>2022-03-21T12:23:38Z</time>
      </trkpt>
      <trkpt lat="46.88123" lon="5.26271">
        <ele>207.4</ele>
        <time>2022-03-21T12:23:39Z</time>
      </trkpt>
      <trkpt lat="46.88122" lon="5.26265">
        <ele>207</ele>
        <time>2022-03-21T12:23:40Z</time>
      </trkpt>
      <trkpt lat="46.8812" lon="5.26258">
        <ele>207</ele>
        <time>2022-03-21T12:23:41Z</time>
      </trkpt>
      <trkpt lat="46.88118" lon="5.26251">
        <ele>207</ele>
        <time>2022-03-21T12:23:42Z</time>
      </trkpt>
      <trkpt lat="46.88116" lon="5.26245">
        <ele>207</ele>
        <time>2022-03-21T12:23:43Z</time>
      </trkpt>
      <trkpt lat="46.88114" lon="5.2624">
        <ele>206.8</ele>
        <time>2022-03-21T12:23:44Z</time>
      </trkpt>
      <trkpt lat="46.88112" lon="5.26234">
        <ele>206.8</ele>
        <time>2022-03-21T12:23:45Z</time>
      </trkpt>
      <trkpt lat="46.8811" lon="5.26228">
        <ele>206.8</ele>
        <time>2022-03-21T12:23:46Z</time>
      </trkpt>
      <trkpt lat="46.88109" lon="5.26222">
        <ele>206.8</ele>
        <time>2022-03-21T12:23:47Z</time>
      </trkpt>
      <trkpt lat="46.88107" lon="5.26217">
        <ele>206.6</ele>
        <time>2022-03-21T12:23:48Z</time>
      </trkpt>
      <trkpt lat="46.88105" lon="5.26211">
        <ele>206.6</ele>
        <time>2022-03-21T12:23:49Z</time>
      </trkpt>
      <trkpt lat="46.88103" lon="5.26206">
        <ele>206.4</ele>
        <time>2022-03-21T12:23:50Z</time>
      </trkpt>
      <trkpt lat="46.88101" lon="5.262">
        <ele>206.4</ele>
        <time>2022-03-21T12:23:51Z</time>
      </trkpt>
      <trkpt lat="46.88099" lon="5.26194">
        <ele>206.4</ele>
        <time>2022-03-21T12:23:52Z</time>
      </trkpt>
      <trkpt lat="46.88097" lon="5.26189">
        <ele>206.4</ele>
        <time>2022-03-21T12:23:53Z</time>
      </trkpt>
      <trkpt lat="46.88095" lon="5.26185">
        <ele>206.4</ele>
        <time>2022-03-21T12:23:54Z</time>
      </trkpt>
      <trkpt lat="46.88094" lon="5.26181">
        <ele>206.2</ele>
        <time>2022-03-21T12:23:55Z</time>
      </trkpt>
      <trkpt lat="46.88093" lon="5.26178">
        <ele>206.2</ele>
        <time>2022-03-21T12:23:56Z</time>
      </trkpt>
      <trkpt lat="46.88092" lon="5.26175">
        <ele>206.2</ele>
        <time>2022-03-21T12:23:57Z</time>
      </trkpt>
      <trkpt lat="46.88091" lon="5.26172">
        <ele>205.8</ele>
        <time>2022-03-21T12:23:58Z</time>
      </trkpt>
      <trkpt lat="46.8809" lon="5.26169">
        <ele>205.8</ele>
        <time>2022-03-21T12:23:59Z</time>
      </trkpt>
      <trkpt lat="46.88088" lon="5.26166">
        <ele>205.8</ele>
        <time>2022-03-21T12:24:00Z</time>
      </trkpt>
      <trkpt lat="46.88085" lon="5.26163">
        <ele>205.6</ele>
        <time>2022-03-21T12:24:01Z</time>
      </trkpt>
      <trkpt lat="46.88082" lon="5.26162">
        <ele>205.6</ele>
        <time>2022-03-21T12:24:02Z</time>
      </trkpt>
      <trkpt lat="46.88078" lon="5.26162">
        <ele>205.6</ele>
        <time>2022-03-21T12:24:03Z</time>
      </trkpt>
      <trkpt lat="46.88073" lon="5.26163">
        <ele>205.6</ele>
        <time>2022-03-21T12:24:04Z</time>
      </trkpt>
      <trkpt lat="46.88069" lon="5.26163">
        <ele>205.6</ele>
        <time>2022-03-21T12:24:05Z</time>
      </trkpt>
      <trkpt lat="46.88065" lon="5.26164">
        <ele>205.6</ele>
        <time>2022-03-21T12:24:06Z</time>
      </trkpt>
      <trkpt lat="46.8806" lon="5.26164">
        <ele>205.6</ele>
        <time>2022-03-21T12:24:07Z</time>
      </trkpt>
      <trkpt lat="46.88056" lon="5.26165">
        <ele>205.6</ele>
        <time>2022-03-21T12:24:08Z</time>
      </trkpt>
      <trkpt lat="46.88051" lon="5.26165">
        <ele>205.6</ele>
        <time>2022-03-21T12:24:09Z</time>
      </trkpt>
      <trkpt lat="46.88047" lon="5.26166">
        <ele>205.6</ele>
        <time>2022-03-21T12:24:10Z</time>
      </trkpt>
      <trkpt lat="46.88042" lon="5.26167">
        <ele>205.6</ele>
        <time>2022-03-21T12:24:11Z</time>
      </trkpt>
      <trkpt lat="46.88038" lon="5.26167">
        <ele>205.8</ele>
        <time>2022-03-21T12:24:12Z</time>
      </trkpt>
      <trkpt lat="46.88033" lon="5.26168">
        <ele>205.8</ele>
        <time>2022-03-21T12:24:13Z</time>
      </trkpt>
      <trkpt lat="46.88028" lon="5.26168">
        <ele>205.8</ele>
        <time>2022-03-21T12:24:14Z</time>
      </trkpt>
      <trkpt lat="46.88024" lon="5.26169">
        <ele>205.8</ele>
        <time>2022-03-21T12:24:15Z</time>
      </trkpt>
      <trkpt lat="46.88019" lon="5.2617">
        <ele>205.8</ele>
        <time>2022-03-21T12:24:16Z</time>
      </trkpt>
      <trkpt lat="46.88014" lon="5.26171">
        <ele>206</ele>
        <time>2022-03-21T12:24:17Z</time>
      </trkpt>
      <trkpt lat="46.88009" lon="5.26171">
        <ele>206</ele>
        <time>2022-03-21T12:24:18Z</time>
      </trkpt>
      <trkpt lat="46.88004" lon="5.26172">
        <ele>206</ele>
        <time>2022-03-21T12:24:19Z</time>
      </trkpt>
      <trkpt lat="46.87999" lon="5.26173">
        <ele>206</ele>
        <time>2022-03-21T12:24:20Z</time>
      </trkpt>
      <trkpt lat="46.87994" lon="5.26174">
        <ele>206</ele>
        <time>2022-03-21T12:24:21Z</time>
      </trkpt>
      <trkpt lat="46.87989" lon="5.26175">
        <ele>206</ele>
        <time>2022-03-21T12:24:22Z</time>
      </trkpt>
      <trkpt lat="46.87984" lon="5.26176">
        <ele>206</ele>
        <time>2022-03-21T12:24:23Z</time>
      </trkpt>
      <trkpt lat="46.87978" lon="5.26177">
        <ele>206</ele>
        <time>2022-03-21T12:24:24Z</time>
      </trkpt>
      <trkpt lat="46.87973" lon="5.26178">
        <ele>206.2</ele>
        <time>2022-03-21T12:24:25Z</time>
      </trkpt>
      <trkpt lat="46.87968" lon="5.26179">
        <ele>206.2</ele>
        <time>2022-03-21T12:24:26Z</time>
      </trkpt>
      <trkpt lat="46.87962" lon="5.2618">
        <ele>206.2</ele>
        <time>2022-03-21T12:24:27Z</time>
      </trkpt>
      <trkpt lat="46.87957" lon="5.26181">
        <ele>206.2</ele>
        <time>2022-03-21T12:24:28Z</time>
      </trkpt>
      <trkpt lat="46.87952" lon="5.26182">
        <ele>206.2</ele>
        <time>2022-03-21T12:24:29Z</time>
      </trkpt>
      <trkpt lat="46.87946" lon="5.26182">
        <ele>206.2</ele>
        <time>2022-03-21T12:24:30Z</time>
      </trkpt>
      <trkpt lat="46.8794" lon="5.26183">
        <ele>206.2</ele>
        <time>2022-03-21T12:24:31Z</time>
      </trkpt>
      <trkpt lat="46.87935" lon="5.26183">
        <ele>206.2</ele>
        <time>2022-03-21T12:24:32Z</time>
      </trkpt>
      <trkpt lat="46.87929" lon="5.26184">
        <ele>206</ele>
        <time>2022-03-21T12:24:33Z</time>
      </trkpt>
      <trkpt lat="46.87924" lon="5.26185">
        <ele>206</ele>
        <time>2022-03-21T12:24:34Z</time>
      </trkpt>
      <trkpt lat="46.87918" lon="5.26186">
        <ele>206</ele>
        <time>2022-03-21T12:24:35Z</time>
      </trkpt>
      <trkpt lat="46.87912" lon="5.26187">
        <ele>206</ele>
        <time>2022-03-21T12:24:36Z</time>
      </trkpt>
      <trkpt lat="46.87907" lon="5.26188">
        <ele>206</ele>
        <time>2022-03-21T12:24:37Z</time>
      </trkpt>
      <trkpt lat="46.87902" lon="5.26189">
        <ele>206</ele>
        <time>2022-03-21T12:24:38Z</time>
      </trkpt>
      <trkpt lat="46.87896" lon="5.2619">
        <ele>206</ele>
        <time>2022-03-21T12:24:39Z</time>
      </trkpt>
      <trkpt lat="46.87891" lon="5.26191">
        <ele>206</ele>
        <time>2022-03-21T12:24:40Z</time>
      </trkpt>
      <trkpt lat="46.87885" lon="5.26192">
        <ele>206</ele>
        <time>2022-03-21T12:24:41Z</time>
      </trkpt>
      <trkpt lat="46.8788" lon="5.26193">
        <ele>206</ele>
        <time>2022-03-21T12:24:42Z</time>
      </trkpt>
      <trkpt lat="46.87875" lon="5.26194">
        <ele>206</ele>
        <time>2022-03-21T12:24:43Z</time>
      </trkpt>
      <trkpt lat="46.87869" lon="5.26195">
        <ele>206</ele>
        <time>2022-03-21T12:24:44Z</time>
      </trkpt>
      <trkpt lat="46.87864" lon="5.26196">
        <ele>206</ele>
        <time>2022-03-21T12:24:45Z</time>
      </trkpt>
      <trkpt lat="46.87859" lon="5.26197">
        <ele>206</ele>
        <time>2022-03-21T12:24:46Z</time>
      </trkpt>
      <trkpt lat="46.87855" lon="5.26198">
        <ele>206</ele>
        <time>2022-03-21T12:24:47Z</time>
      </trkpt>
      <trkpt lat="46.8785" lon="5.26198">
        <ele>206</ele>
        <time>2022-03-21T12:24:48Z</time>
      </trkpt>
      <trkpt lat="46.87846" lon="5.26199">
        <ele>205.8</ele>
        <time>2022-03-21T12:24:49Z</time>
      </trkpt>
      <trkpt lat="46.87841" lon="5.262">
        <ele>205.8</ele>
        <time>2022-03-21T12:24:50Z</time>
      </trkpt>
      <trkpt lat="46.87837" lon="5.262">
        <ele>205.8</ele>
        <time>2022-03-21T12:24:51Z</time>
      </trkpt>
      <trkpt lat="46.87833" lon="5.26201">
        <ele>205.8</ele>
        <time>2022-03-21T12:24:52Z</time>
      </trkpt>
      <trkpt lat="46.8783" lon="5.26203">
        <ele>205.8</ele>
        <time>2022-03-21T12:24:53Z</time>
      </trkpt>
      <trkpt lat="46.87827" lon="5.26204">
        <ele>205.8</ele>
        <time>2022-03-21T12:24:54Z</time>
      </trkpt>
      <trkpt lat="46.87824" lon="5.26204">
        <ele>205.6</ele>
        <time>2022-03-21T12:24:55Z</time>
      </trkpt>
      <trkpt lat="46.87821" lon="5.26205">
        <ele>205.6</ele>
        <time>2022-03-21T12:24:56Z</time>
      </trkpt>
      <trkpt lat="46.87819" lon="5.26208">
        <ele>205.6</ele>
        <time>2022-03-21T12:24:57Z</time>
      </trkpt>
      <trkpt lat="46.87818" lon="5.26211">
        <ele>205.6</ele>
        <time>2022-03-21T12:24:58Z</time>
      </trkpt>
      <trkpt lat="46.87818" lon="5.26213">
        <ele>205.6</ele>
        <time>2022-03-21T12:24:59Z</time>
      </trkpt>
      <trkpt lat="46.87819" lon="5.26216">
        <ele>205.6</ele>
        <time>2022-03-21T12:25:00Z</time>
      </trkpt>
      <trkpt lat="46.8782" lon="5.26217">
        <ele>205.6</ele>
        <time>2022-03-21T12:25:01Z</time>
      </trkpt>
      <trkpt lat="46.87822" lon="5.26216">
        <ele>205.6</ele>
        <time>2022-03-21T12:25:02Z</time>
      </trkpt>
      <trkpt lat="46.87823" lon="5.26216">
        <ele>205.6</ele>
        <time>2022-03-21T12:25:03Z</time>
      </trkpt>
      <trkpt lat="46.87825" lon="5.26215">
        <ele>205.6</ele>
        <time>2022-03-21T12:25:04Z</time>
      </trkpt>
      <trkpt lat="46.87826" lon="5.26214">
        <ele>205.6</ele>
        <time>2022-03-21T12:25:05Z</time>
      </trkpt>
      <trkpt lat="46.87827" lon="5.26213">
        <ele>205.6</ele>
        <time>2022-03-21T12:25:06Z</time>
      </trkpt>
      <trkpt lat="46.87827" lon="5.26213">
        <ele>205.6</ele>
        <time>2022-03-21T12:25:08Z</time>
      </trkpt>
      <trkpt lat="46.87829" lon="5.26213">
        <ele>209.2</ele>
        <time>2022-03-21T12:49:28Z</time>
      </trkpt>
      <trkpt lat="46.87826" lon="5.26212">
        <ele>209.2</ele>
        <time>2022-03-21T12:49:33Z</time>
      </trkpt>
      <trkpt lat="46.87824" lon="5.26213">
        <ele>209.2</ele>
        <time>2022-03-21T12:49:34Z</time>
      </trkpt>
      <trkpt lat="46.87822" lon="5.26213">
        <ele>209.2</ele>
        <time>2022-03-21T12:49:35Z</time>
      </trkpt>
      <trkpt lat="46.8782" lon="5.26213">
        <ele>209.2</ele>
        <time>2022-03-21T12:49:36Z</time>
      </trkpt>
      <trkpt lat="46.87817" lon="5.26213">
        <ele>209.2</ele>
        <time>2022-03-21T12:49:37Z</time>
      </trkpt>
      <trkpt lat="46.87814" lon="5.26212">
        <ele>209.2</ele>
        <time>2022-03-21T12:49:38Z</time>
      </trkpt>
      <trkpt lat="46.8781" lon="5.26211">
        <ele>209.2</ele>
        <time>2022-03-21T12:49:39Z</time>
      </trkpt>
      <trkpt lat="46.87806" lon="5.26209">
        <ele>209.2</ele>
        <time>2022-03-21T12:49:40Z</time>
      </trkpt>
      <trkpt lat="46.87802" lon="5.26207">
        <ele>209.2</ele>
        <time>2022-03-21T12:49:41Z</time>
      </trkpt>
      <trkpt lat="46.87798" lon="5.26207">
        <ele>209</ele>
        <time>2022-03-21T12:49:42Z</time>
      </trkpt>
      <trkpt lat="46.87793" lon="5.26207">
        <ele>209</ele>
        <time>2022-03-21T12:49:43Z</time>
      </trkpt>
      <trkpt lat="46.87789" lon="5.26208">
        <ele>209</ele>
        <time>2022-03-21T12:49:44Z</time>
      </trkpt>
      <trkpt lat="46.87785" lon="5.26209">
        <ele>209</ele>
        <time>2022-03-21T12:49:45Z</time>
      </trkpt>
      <trkpt lat="46.8778" lon="5.26209">
        <ele>209</ele>
        <time>2022-03-21T12:49:46Z</time>
      </trkpt>
      <trkpt lat="46.87776" lon="5.26209">
        <ele>209</ele>
        <time>2022-03-21T12:49:47Z</time>
      </trkpt>
      <trkpt lat="46.87771" lon="5.26209">
        <ele>209</ele>
        <time>2022-03-21T12:49:48Z</time>
      </trkpt>
      <trkpt lat="46.87766" lon="5.2621">
        <ele>209</ele>
        <time>2022-03-21T12:49:49Z</time>
      </trkpt>
      <trkpt lat="46.87762" lon="5.26212">
        <ele>209</ele>
        <time>2022-03-21T12:49:50Z</time>
      </trkpt>
      <trkpt lat="46.87758" lon="5.26215">
        <ele>208.8</ele>
        <time>2022-03-21T12:49:51Z</time>
      </trkpt>
      <trkpt lat="46.87754" lon="5.26221">
        <ele>208.8</ele>
        <time>2022-03-21T12:49:52Z</time>
      </trkpt>
      <trkpt lat="46.87752" lon="5.26227">
        <ele>208.8</ele>
        <time>2022-03-21T12:49:53Z</time>
      </trkpt>
      <trkpt lat="46.87749" lon="5.26235">
        <ele>208.6</ele>
        <time>2022-03-21T12:49:54Z</time>
      </trkpt>
      <trkpt lat="46.87746" lon="5.26242">
        <ele>208.6</ele>
        <time>2022-03-21T12:49:55Z</time>
      </trkpt>
      <trkpt lat="46.87742" lon="5.26248">
        <ele>208.6</ele>
        <time>2022-03-21T12:49:56Z</time>
      </trkpt>
      <trkpt lat="46.87738" lon="5.26252">
        <ele>208.6</ele>
        <time>2022-03-21T12:49:57Z</time>
      </trkpt>
      <trkpt lat="46.87733" lon="5.26256">
        <ele>208.6</ele>
        <time>2022-03-21T12:49:58Z</time>
      </trkpt>
      <trkpt lat="46.87728" lon="5.26259">
        <ele>208.6</ele>
        <time>2022-03-21T12:49:59Z</time>
      </trkpt>
      <trkpt lat="46.87722" lon="5.26261">
        <ele>208.6</ele>
        <time>2022-03-21T12:50:00Z</time>
      </trkpt>
      <trkpt lat="46.87717" lon="5.26264">
        <ele>208.6</ele>
        <time>2022-03-21T12:50:01Z</time>
      </trkpt>
      <trkpt lat="46.87711" lon="5.26267">
        <ele>208.6</ele>
        <time>2022-03-21T12:50:02Z</time>
      </trkpt>
      <trkpt lat="46.87706" lon="5.26269">
        <ele>208.6</ele>
        <time>2022-03-21T12:50:03Z</time>
      </trkpt>
      <trkpt lat="46.877" lon="5.26272">
        <ele>208.6</ele>
        <time>2022-03-21T12:50:04Z</time>
      </trkpt>
      <trkpt lat="46.87695" lon="5.26275">
        <ele>208.6</ele>
        <time>2022-03-21T12:50:05Z</time>
      </trkpt>
      <trkpt lat="46.87689" lon="5.26277">
        <ele>208.6</ele>
        <time>2022-03-21T12:50:06Z</time>
      </trkpt>
      <trkpt lat="46.87684" lon="5.26279">
        <ele>208.6</ele>
        <time>2022-03-21T12:50:07Z</time>
      </trkpt>
      <trkpt lat="46.87679" lon="5.26282">
        <ele>208.6</ele>
        <time>2022-03-21T12:50:08Z</time>
      </trkpt>
      <trkpt lat="46.87674" lon="5.26284">
        <ele>208.6</ele>
        <time>2022-03-21T12:50:09Z</time>
      </trkpt>
      <trkpt lat="46.87669" lon="5.26287">
        <ele>208.6</ele>
        <time>2022-03-21T12:50:10Z</time>
      </trkpt>
      <trkpt lat="46.87664" lon="5.26289">
        <ele>208.6</ele>
        <time>2022-03-21T12:50:11Z</time>
      </trkpt>
      <trkpt lat="46.87659" lon="5.26292">
        <ele>208.6</ele>
        <time>2022-03-21T12:50:12Z</time>
      </trkpt>
      <trkpt lat="46.87654" lon="5.26295">
        <ele>208.6</ele>
        <time>2022-03-21T12:50:13Z</time>
      </trkpt>
      <trkpt lat="46.87648" lon="5.26298">
        <ele>208.6</ele>
        <time>2022-03-21T12:50:14Z</time>
      </trkpt>
      <trkpt lat="46.87643" lon="5.26301">
        <ele>208.6</ele>
        <time>2022-03-21T12:50:15Z</time>
      </trkpt>
      <trkpt lat="46.87638" lon="5.26305">
        <ele>208.6</ele>
        <time>2022-03-21T12:50:16Z</time>
      </trkpt>
      <trkpt lat="46.87634" lon="5.26311">
        <ele>208.6</ele>
        <time>2022-03-21T12:50:17Z</time>
      </trkpt>
      <trkpt lat="46.87631" lon="5.26317">
        <ele>208.6</ele>
        <time>2022-03-21T12:50:18Z</time>
      </trkpt>
      <trkpt lat="46.87628" lon="5.26325">
        <ele>208.6</ele>
        <time>2022-03-21T12:50:19Z</time>
      </trkpt>
      <trkpt lat="46.87626" lon="5.26333">
        <ele>208.6</ele>
        <time>2022-03-21T12:50:20Z</time>
      </trkpt>
      <trkpt lat="46.87625" lon="5.26341">
        <ele>208.4</ele>
        <time>2022-03-21T12:50:21Z</time>
      </trkpt>
      <trkpt lat="46.87624" lon="5.26349">
        <ele>208.4</ele>
        <time>2022-03-21T12:50:22Z</time>
      </trkpt>
      <trkpt lat="46.87624" lon="5.26357">
        <ele>208.4</ele>
        <time>2022-03-21T12:50:23Z</time>
      </trkpt>
      <trkpt lat="46.87625" lon="5.26365">
        <ele>208.4</ele>
        <time>2022-03-21T12:50:24Z</time>
      </trkpt>
      <trkpt lat="46.87625" lon="5.26373">
        <ele>208.4</ele>
        <time>2022-03-21T12:50:25Z</time>
      </trkpt>
      <trkpt lat="46.87625" lon="5.26381">
        <ele>208.4</ele>
        <time>2022-03-21T12:50:26Z</time>
      </trkpt>
      <trkpt lat="46.87625" lon="5.26389">
        <ele>208.4</ele>
        <time>2022-03-21T12:50:27Z</time>
      </trkpt>
      <trkpt lat="46.87625" lon="5.26396">
        <ele>208.4</ele>
        <time>2022-03-21T12:50:28Z</time>
      </trkpt>
      <trkpt lat="46.87625" lon="5.26403">
        <ele>208.4</ele>
        <time>2022-03-21T12:50:29Z</time>
      </trkpt>
      <trkpt lat="46.87625" lon="5.2641">
        <ele>208.2</ele>
        <time>2022-03-21T12:50:30Z</time>
      </trkpt>
      <trkpt lat="46.87625" lon="5.26418">
        <ele>208.2</ele>
        <time>2022-03-21T12:50:31Z</time>
      </trkpt>
      <trkpt lat="46.87625" lon="5.26425">
        <ele>208.2</ele>
        <time>2022-03-21T12:50:32Z</time>
      </trkpt>
      <trkpt lat="46.87626" lon="5.26433">
        <ele>208.2</ele>
        <time>2022-03-21T12:50:33Z</time>
      </trkpt>
      <trkpt lat="46.87626" lon="5.26441">
        <ele>208.2</ele>
        <time>2022-03-21T12:50:34Z</time>
      </trkpt>
      <trkpt lat="46.87627" lon="5.26449">
        <ele>208.2</ele>
        <time>2022-03-21T12:50:35Z</time>
      </trkpt>
      <trkpt lat="46.87627" lon="5.26457">
        <ele>208.2</ele>
        <time>2022-03-21T12:50:36Z</time>
      </trkpt>
      <trkpt lat="46.87628" lon="5.26465">
        <ele>208.2</ele>
        <time>2022-03-21T12:50:37Z</time>
      </trkpt>
      <trkpt lat="46.87628" lon="5.26473">
        <ele>208.2</ele>
        <time>2022-03-21T12:50:38Z</time>
      </trkpt>
      <trkpt lat="46.87628" lon="5.26481">
        <ele>208.2</ele>
        <time>2022-03-21T12:50:39Z</time>
      </trkpt>
      <trkpt lat="46.87628" lon="5.26489">
        <ele>208.2</ele>
        <time>2022-03-21T12:50:40Z</time>
      </trkpt>
      <trkpt lat="46.87628" lon="5.26497">
        <ele>208.2</ele>
        <time>2022-03-21T12:50:41Z</time>
      </trkpt>
      <trkpt lat="46.87627" lon="5.26506">
        <ele>208.2</ele>
        <time>2022-03-21T12:50:42Z</time>
      </trkpt>
      <trkpt lat="46.87626" lon="5.26514">
        <ele>208.2</ele>
        <time>2022-03-21T12:50:43Z</time>
      </trkpt>
      <trkpt lat="46.87623" lon="5.26523">
        <ele>208.2</ele>
        <time>2022-03-21T12:50:44Z</time>
      </trkpt>
      <trkpt lat="46.87621" lon="5.26531">
        <ele>208.2</ele>
        <time>2022-03-21T12:50:45Z</time>
      </trkpt>
      <trkpt lat="46.87618" lon="5.2654">
        <ele>208.2</ele>
        <time>2022-03-21T12:50:46Z</time>
      </trkpt>
      <trkpt lat="46.87614" lon="5.26547">
        <ele>208.2</ele>
        <time>2022-03-21T12:50:47Z</time>
      </trkpt>
      <trkpt lat="46.87611" lon="5.26555">
        <ele>207.8</ele>
        <time>2022-03-21T12:50:48Z</time>
      </trkpt>
      <trkpt lat="46.87608" lon="5.26563">
        <ele>207.8</ele>
        <time>2022-03-21T12:50:49Z</time>
      </trkpt>
      <trkpt lat="46.87605" lon="5.2657">
        <ele>207.8</ele>
        <time>2022-03-21T12:50:50Z</time>
      </trkpt>
      <trkpt lat="46.87601" lon="5.26578">
        <ele>207.8</ele>
        <time>2022-03-21T12:50:51Z</time>
      </trkpt>
      <trkpt lat="46.87598" lon="5.26585">
        <ele>207.8</ele>
        <time>2022-03-21T12:50:52Z</time>
      </trkpt>
      <trkpt lat="46.87595" lon="5.26592">
        <ele>207.8</ele>
        <time>2022-03-21T12:50:53Z</time>
      </trkpt>
      <trkpt lat="46.87592" lon="5.266">
        <ele>207.8</ele>
        <time>2022-03-21T12:50:54Z</time>
      </trkpt>
      <trkpt lat="46.87589" lon="5.26608">
        <ele>207.8</ele>
        <time>2022-03-21T12:50:55Z</time>
      </trkpt>
      <trkpt lat="46.87587" lon="5.26616">
        <ele>207.8</ele>
        <time>2022-03-21T12:50:56Z</time>
      </trkpt>
      <trkpt lat="46.87585" lon="5.26624">
        <ele>207.8</ele>
        <time>2022-03-21T12:50:57Z</time>
      </trkpt>
      <trkpt lat="46.87583" lon="5.26633">
        <ele>207.8</ele>
        <time>2022-03-21T12:50:58Z</time>
      </trkpt>
      <trkpt lat="46.87582" lon="5.26641">
        <ele>207.8</ele>
        <time>2022-03-21T12:50:59Z</time>
      </trkpt>
      <trkpt lat="46.87581" lon="5.2665">
        <ele>207.8</ele>
        <time>2022-03-21T12:51:00Z</time>
      </trkpt>
      <trkpt lat="46.8758" lon="5.26658">
        <ele>208</ele>
        <time>2022-03-21T12:51:01Z</time>
      </trkpt>
      <trkpt lat="46.87579" lon="5.26667">
        <ele>208</ele>
        <time>2022-03-21T12:51:02Z</time>
      </trkpt>
      <trkpt lat="46.87578" lon="5.26676">
        <ele>208</ele>
        <time>2022-03-21T12:51:04Z</time>
      </trkpt>
      <trkpt lat="46.87578" lon="5.26685">
        <ele>208</ele>
        <time>2022-03-21T12:51:05Z</time>
      </trkpt>
      <trkpt lat="46.87577" lon="5.26693">
        <ele>208</ele>
        <time>2022-03-21T12:51:06Z</time>
      </trkpt>
      <trkpt lat="46.87576" lon="5.26702">
        <ele>208</ele>
        <time>2022-03-21T12:51:07Z</time>
      </trkpt>
      <trkpt lat="46.87576" lon="5.26711">
        <ele>208.2</ele>
        <time>2022-03-21T12:51:08Z</time>
      </trkpt>
      <trkpt lat="46.87575" lon="5.26719">
        <ele>208.2</ele>
        <time>2022-03-21T12:51:09Z</time>
      </trkpt>
      <trkpt lat="46.87574" lon="5.26728">
        <ele>208.2</ele>
        <time>2022-03-21T12:51:10Z</time>
      </trkpt>
      <trkpt lat="46.87573" lon="5.26736">
        <ele>208.2</ele>
        <time>2022-03-21T12:51:11Z</time>
      </trkpt>
      <trkpt lat="46.87572" lon="5.26745">
        <ele>208.2</ele>
        <time>2022-03-21T12:51:12Z</time>
      </trkpt>
      <trkpt lat="46.87572" lon="5.26754">
        <ele>208.6</ele>
        <time>2022-03-21T12:51:13Z</time>
      </trkpt>
      <trkpt lat="46.87571" lon="5.26762">
        <ele>208.6</ele>
        <time>2022-03-21T12:51:14Z</time>
      </trkpt>
      <trkpt lat="46.87571" lon="5.26771">
        <ele>208.8</ele>
        <time>2022-03-21T12:51:15Z</time>
      </trkpt>
      <trkpt lat="46.8757" lon="5.2678">
        <ele>208.8</ele>
        <time>2022-03-21T12:51:16Z</time>
      </trkpt>
      <trkpt lat="46.87569" lon="5.26788">
        <ele>209</ele>
        <time>2022-03-21T12:51:17Z</time>
      </trkpt>
      <trkpt lat="46.87568" lon="5.26796">
        <ele>209</ele>
        <time>2022-03-21T12:51:18Z</time>
      </trkpt>
      <trkpt lat="46.87567" lon="5.26805">
        <ele>209.2</ele>
        <time>2022-03-21T12:51:19Z</time>
      </trkpt>
      <trkpt lat="46.87567" lon="5.26813">
        <ele>209.2</ele>
        <time>2022-03-21T12:51:20Z</time>
      </trkpt>
      <trkpt lat="46.87566" lon="5.26821">
        <ele>209.2</ele>
        <time>2022-03-21T12:51:21Z</time>
      </trkpt>
      <trkpt lat="46.87565" lon="5.2683">
        <ele>209.6</ele>
        <time>2022-03-21T12:51:22Z</time>
      </trkpt>
      <trkpt lat="46.87564" lon="5.26838">
        <ele>209.6</ele>
        <time>2022-03-21T12:51:23Z</time>
      </trkpt>
      <trkpt lat="46.87564" lon="5.26847">
        <ele>209.8</ele>
        <time>2022-03-21T12:51:24Z</time>
      </trkpt>
      <trkpt lat="46.87563" lon="5.26855">
        <ele>209.8</ele>
        <time>2022-03-21T12:51:25Z</time>
      </trkpt>
      <trkpt lat="46.87563" lon="5.26864">
        <ele>210.2</ele>
        <time>2022-03-21T12:51:26Z</time>
      </trkpt>
      <trkpt lat="46.87562" lon="5.26872">
        <ele>210.2</ele>
        <time>2022-03-21T12:51:27Z</time>
      </trkpt>
      <trkpt lat="46.87561" lon="5.2688">
        <ele>210.4</ele>
        <time>2022-03-21T12:51:28Z</time>
      </trkpt>
      <trkpt lat="46.8756" lon="5.26888">
        <ele>210.4</ele>
        <time>2022-03-21T12:51:29Z</time>
      </trkpt>
      <trkpt lat="46.87559" lon="5.26895">
        <ele>210.6</ele>
        <time>2022-03-21T12:51:30Z</time>
      </trkpt>
      <trkpt lat="46.87557" lon="5.26903">
        <ele>210.6</ele>
        <time>2022-03-21T12:51:31Z</time>
      </trkpt>
      <trkpt lat="46.87556" lon="5.2691">
        <ele>211</ele>
        <time>2022-03-21T12:51:32Z</time>
      </trkpt>
      <trkpt lat="46.87555" lon="5.26918">
        <ele>211</ele>
        <time>2022-03-21T12:51:33Z</time>
      </trkpt>
      <trkpt lat="46.87553" lon="5.26925">
        <ele>211</ele>
        <time>2022-03-21T12:51:34Z</time>
      </trkpt>
      <trkpt lat="46.87551" lon="5.26933">
        <ele>211.2</ele>
        <time>2022-03-21T12:51:35Z</time>
      </trkpt>
      <trkpt lat="46.8755" lon="5.2694">
        <ele>211.2</ele>
        <time>2022-03-21T12:51:36Z</time>
      </trkpt>
      <trkpt lat="46.87549" lon="5.26948">
        <ele>211.2</ele>
        <time>2022-03-21T12:51:37Z</time>
      </trkpt>
      <trkpt lat="46.87548" lon="5.26956">
        <ele>211.4</ele>
        <time>2022-03-21T12:51:38Z</time>
      </trkpt>
      <trkpt lat="46.87546" lon="5.26964">
        <ele>211.6</ele>
        <time>2022-03-21T12:51:39Z</time>
      </trkpt>
      <trkpt lat="46.87545" lon="5.26972">
        <ele>211.6</ele>
        <time>2022-03-21T12:51:40Z</time>
      </trkpt>
      <trkpt lat="46.87543" lon="5.2698">
        <ele>212</ele>
        <time>2022-03-21T12:51:41Z</time>
      </trkpt>
      <trkpt lat="46.87542" lon="5.26987">
        <ele>212</ele>
        <time>2022-03-21T12:51:42Z</time>
      </trkpt>
      <trkpt lat="46.87541" lon="5.26995">
        <ele>212</ele>
        <time>2022-03-21T12:51:43Z</time>
      </trkpt>
      <trkpt lat="46.8754" lon="5.27002">
        <ele>212.4</ele>
        <time>2022-03-21T12:51:44Z</time>
      </trkpt>
      <trkpt lat="46.8754" lon="5.27009">
        <ele>212.4</ele>
        <time>2022-03-21T12:51:45Z</time>
      </trkpt>
      <trkpt lat="46.87539" lon="5.27015">
        <ele>212.8</ele>
        <time>2022-03-21T12:51:46Z</time>
      </trkpt>
      <trkpt lat="46.8754" lon="5.27021">
        <ele>213</ele>
        <time>2022-03-21T12:51:47Z</time>
      </trkpt>
      <trkpt lat="46.8754" lon="5.27028">
        <ele>213</ele>
        <time>2022-03-21T12:51:48Z</time>
      </trkpt>
      <trkpt lat="46.87541" lon="5.27034">
        <ele>213.4</ele>
        <time>2022-03-21T12:51:49Z</time>
      </trkpt>
      <trkpt lat="46.87543" lon="5.2704">
        <ele>213.6</ele>
        <time>2022-03-21T12:51:50Z</time>
      </trkpt>
      <trkpt lat="46.87546" lon="5.27046">
        <ele>213.6</ele>
        <time>2022-03-21T12:51:51Z</time>
      </trkpt>
      <trkpt lat="46.87548" lon="5.27052">
        <ele>214</ele>
        <time>2022-03-21T12:51:52Z</time>
      </trkpt>
      <trkpt lat="46.8755" lon="5.27058">
        <ele>214</ele>
        <time>2022-03-21T12:51:53Z</time>
      </trkpt>
      <trkpt lat="46.87553" lon="5.27064">
        <ele>214.2</ele>
        <time>2022-03-21T12:51:54Z</time>
      </trkpt>
      <trkpt lat="46.87555" lon="5.2707">
        <ele>214.2</ele>
        <time>2022-03-21T12:51:55Z</time>
      </trkpt>
      <trkpt lat="46.87557" lon="5.27076">
        <ele>214.4</ele>
        <time>2022-03-21T12:51:56Z</time>
      </trkpt>
      <trkpt lat="46.8756" lon="5.27082">
        <ele>214.4</ele>
        <time>2022-03-21T12:51:57Z</time>
      </trkpt>
      <trkpt lat="46.87562" lon="5.27088">
        <ele>214.8</ele>
        <time>2022-03-21T12:51:58Z</time>
      </trkpt>
      <trkpt lat="46.87564" lon="5.27093">
        <ele>214.8</ele>
        <time>2022-03-21T12:51:59Z</time>
      </trkpt>
      <trkpt lat="46.87566" lon="5.271">
        <ele>214.8</ele>
        <time>2022-03-21T12:52:00Z</time>
      </trkpt>
      <trkpt lat="46.87569" lon="5.27106">
        <ele>214.8</ele>
        <time>2022-03-21T12:52:01Z</time>
      </trkpt>
      <trkpt lat="46.87571" lon="5.27112">
        <ele>215</ele>
        <time>2022-03-21T12:52:02Z</time>
      </trkpt>
      <trkpt lat="46.87572" lon="5.27118">
        <ele>215</ele>
        <time>2022-03-21T12:52:03Z</time>
      </trkpt>
      <trkpt lat="46.87574" lon="5.27125">
        <ele>215</ele>
        <time>2022-03-21T12:52:04Z</time>
      </trkpt>
      <trkpt lat="46.87575" lon="5.27132">
        <ele>215.2</ele>
        <time>2022-03-21T12:52:05Z</time>
      </trkpt>
      <trkpt lat="46.87577" lon="5.27139">
        <ele>215.2</ele>
        <time>2022-03-21T12:52:06Z</time>
      </trkpt>
      <trkpt lat="46.87579" lon="5.27146">
        <ele>215.4</ele>
        <time>2022-03-21T12:52:07Z</time>
      </trkpt>
      <trkpt lat="46.8758" lon="5.27152">
        <ele>215.4</ele>
        <time>2022-03-21T12:52:08Z</time>
      </trkpt>
      <trkpt lat="46.87581" lon="5.27159">
        <ele>215.8</ele>
        <time>2022-03-21T12:52:09Z</time>
      </trkpt>
      <trkpt lat="46.87582" lon="5.27166">
        <ele>215.8</ele>
        <time>2022-03-21T12:52:10Z</time>
      </trkpt>
      <trkpt lat="46.87583" lon="5.27172">
        <ele>216</ele>
        <time>2022-03-21T12:52:11Z</time>
      </trkpt>
      <trkpt lat="46.87584" lon="5.27178">
        <ele>216</ele>
        <time>2022-03-21T12:52:12Z</time>
      </trkpt>
      <trkpt lat="46.87585" lon="5.27184">
        <ele>216.4</ele>
        <time>2022-03-21T12:52:13Z</time>
      </trkpt>
      <trkpt lat="46.87585" lon="5.27188">
        <ele>216.4</ele>
        <time>2022-03-21T12:52:14Z</time>
      </trkpt>
      <trkpt lat="46.87585" lon="5.27192">
        <ele>216.8</ele>
        <time>2022-03-21T12:52:15Z</time>
      </trkpt>
      <trkpt lat="46.87585" lon="5.27195">
        <ele>216.8</ele>
        <time>2022-03-21T12:52:16Z</time>
      </trkpt>
      <trkpt lat="46.87585" lon="5.27198">
        <ele>217</ele>
        <time>2022-03-21T12:52:17Z</time>
      </trkpt>
      <trkpt lat="46.87586" lon="5.272">
        <ele>217</ele>
        <time>2022-03-21T12:52:18Z</time>
      </trkpt>
      <trkpt lat="46.87586" lon="5.27202">
        <ele>217</ele>
        <time>2022-03-21T12:52:19Z</time>
      </trkpt>
      <trkpt lat="46.87588" lon="5.27205">
        <ele>217.2</ele>
        <time>2022-03-21T12:52:20Z</time>
      </trkpt>
      <trkpt lat="46.87589" lon="5.27207">
        <ele>217.2</ele>
        <time>2022-03-21T12:52:21Z</time>
      </trkpt>
      <trkpt lat="46.87592" lon="5.27208">
        <ele>217.2</ele>
        <time>2022-03-21T12:52:22Z</time>
      </trkpt>
      <trkpt lat="46.87594" lon="5.2721">
        <ele>217.2</ele>
        <time>2022-03-21T12:52:23Z</time>
      </trkpt>
      <trkpt lat="46.87597" lon="5.2721">
        <ele>217.2</ele>
        <time>2022-03-21T12:52:24Z</time>
      </trkpt>
      <trkpt lat="46.87601" lon="5.2721">
        <ele>217.2</ele>
        <time>2022-03-21T12:52:25Z</time>
      </trkpt>
      <trkpt lat="46.87605" lon="5.2721">
        <ele>217.2</ele>
        <time>2022-03-21T12:52:26Z</time>
      </trkpt>
      <trkpt lat="46.87608" lon="5.2721">
        <ele>217.4</ele>
        <time>2022-03-21T12:52:27Z</time>
      </trkpt>
      <trkpt lat="46.87612" lon="5.2721">
        <ele>217.4</ele>
        <time>2022-03-21T12:52:28Z</time>
      </trkpt>
      <trkpt lat="46.87617" lon="5.2721">
        <ele>217.4</ele>
        <time>2022-03-21T12:52:29Z</time>
      </trkpt>
      <trkpt lat="46.87621" lon="5.2721">
        <ele>217.4</ele>
        <time>2022-03-21T12:52:30Z</time>
      </trkpt>
      <trkpt lat="46.87625" lon="5.2721">
        <ele>217.6</ele>
        <time>2022-03-21T12:52:31Z</time>
      </trkpt>
      <trkpt lat="46.8763" lon="5.2721">
        <ele>217.6</ele>
        <time>2022-03-21T12:52:32Z</time>
      </trkpt>
      <trkpt lat="46.87634" lon="5.2721">
        <ele>217.6</ele>
        <time>2022-03-21T12:52:33Z</time>
      </trkpt>
      <trkpt lat="46.87639" lon="5.2721">
        <ele>218</ele>
        <time>2022-03-21T12:52:34Z</time>
      </trkpt>
      <trkpt lat="46.87644" lon="5.27211">
        <ele>218</ele>
        <time>2022-03-21T12:52:35Z</time>
      </trkpt>
      <trkpt lat="46.87648" lon="5.27211">
        <ele>218</ele>
        <time>2022-03-21T12:52:36Z</time>
      </trkpt>
      <trkpt lat="46.87652" lon="5.27211">
        <ele>218</ele>
        <time>2022-03-21T12:52:37Z</time>
      </trkpt>
      <trkpt lat="46.87655" lon="5.27211">
        <ele>218</ele>
        <time>2022-03-21T12:52:38Z</time>
      </trkpt>
      <trkpt lat="46.87659" lon="5.27211">
        <ele>218</ele>
        <time>2022-03-21T12:52:39Z</time>
      </trkpt>
      <trkpt lat="46.87661" lon="5.27212">
        <ele>218</ele>
        <time>2022-03-21T12:52:40Z</time>
      </trkpt>
      <trkpt lat="46.87664" lon="5.27212">
        <ele>218</ele>
        <time>2022-03-21T12:52:41Z</time>
      </trkpt>
      <trkpt lat="46.87666" lon="5.27213">
        <ele>218</ele>
        <time>2022-03-21T12:52:42Z</time>
      </trkpt>
      <trkpt lat="46.87668" lon="5.27213">
        <ele>218</ele>
        <time>2022-03-21T12:52:43Z</time>
      </trkpt>
      <trkpt lat="46.8767" lon="5.27213">
        <ele>218.2</ele>
        <time>2022-03-21T12:52:44Z</time>
      </trkpt>
      <trkpt lat="46.87671" lon="5.27214">
        <ele>218.2</ele>
        <time>2022-03-21T12:52:45Z</time>
      </trkpt>
      <trkpt lat="46.87672" lon="5.27216">
        <ele>218.2</ele>
        <time>2022-03-21T12:52:46Z</time>
      </trkpt>
      <trkpt lat="46.87673" lon="5.27217">
        <ele>218.2</ele>
        <time>2022-03-21T12:52:47Z</time>
      </trkpt>
      <trkpt lat="46.87673" lon="5.2722">
        <ele>218.2</ele>
        <time>2022-03-21T12:52:48Z</time>
      </trkpt>
      <trkpt lat="46.87672" lon="5.27224">
        <ele>218.2</ele>
        <time>2022-03-21T12:52:49Z</time>
      </trkpt>
      <trkpt lat="46.87672" lon="5.27228">
        <ele>218.2</ele>
        <time>2022-03-21T12:52:50Z</time>
      </trkpt>
      <trkpt lat="46.8767" lon="5.27232">
        <ele>218.2</ele>
        <time>2022-03-21T12:52:51Z</time>
      </trkpt>
      <trkpt lat="46.87668" lon="5.2724">
        <ele>218.2</ele>
        <time>2022-03-21T12:52:52Z</time>
      </trkpt>
      <trkpt lat="46.87666" lon="5.27245">
        <ele>218.2</ele>
        <time>2022-03-21T12:52:53Z</time>
      </trkpt>
      <trkpt lat="46.87665" lon="5.2725">
        <ele>218.2</ele>
        <time>2022-03-21T12:52:54Z</time>
      </trkpt>
      <trkpt lat="46.87664" lon="5.27255">
        <ele>218</ele>
        <time>2022-03-21T12:52:55Z</time>
      </trkpt>
      <trkpt lat="46.87663" lon="5.27261">
        <ele>218</ele>
        <time>2022-03-21T12:52:56Z</time>
      </trkpt>
      <trkpt lat="46.87661" lon="5.27267">
        <ele>218</ele>
        <time>2022-03-21T12:52:57Z</time>
      </trkpt>
      <trkpt lat="46.8766" lon="5.27274">
        <ele>218</ele>
        <time>2022-03-21T12:52:58Z</time>
      </trkpt>
      <trkpt lat="46.87658" lon="5.2728">
        <ele>218</ele>
        <time>2022-03-21T12:52:59Z</time>
      </trkpt>
      <trkpt lat="46.87656" lon="5.27287">
        <ele>218</ele>
        <time>2022-03-21T12:53:00Z</time>
      </trkpt>
      <trkpt lat="46.87655" lon="5.27295">
        <ele>218</ele>
        <time>2022-03-21T12:53:01Z</time>
      </trkpt>
      <trkpt lat="46.87654" lon="5.27303">
        <ele>218</ele>
        <time>2022-03-21T12:53:02Z</time>
      </trkpt>
      <trkpt lat="46.87654" lon="5.27311">
        <ele>218</ele>
        <time>2022-03-21T12:53:03Z</time>
      </trkpt>
      <trkpt lat="46.87653" lon="5.27319">
        <ele>218</ele>
        <time>2022-03-21T12:53:04Z</time>
      </trkpt>
      <trkpt lat="46.87652" lon="5.27328">
        <ele>218</ele>
        <time>2022-03-21T12:53:05Z</time>
      </trkpt>
      <trkpt lat="46.87651" lon="5.27336">
        <ele>218</ele>
        <time>2022-03-21T12:53:06Z</time>
      </trkpt>
      <trkpt lat="46.87651" lon="5.27345">
        <ele>218</ele>
        <time>2022-03-21T12:53:07Z</time>
      </trkpt>
      <trkpt lat="46.8765" lon="5.27354">
        <ele>218</ele>
        <time>2022-03-21T12:53:08Z</time>
      </trkpt>
      <trkpt lat="46.8765" lon="5.27363">
        <ele>218.2</ele>
        <time>2022-03-21T12:53:09Z</time>
      </trkpt>
      <trkpt lat="46.87649" lon="5.27372">
        <ele>218.2</ele>
        <time>2022-03-21T12:53:10Z</time>
      </trkpt>
      <trkpt lat="46.8765" lon="5.2738">
        <ele>218.2</ele>
        <time>2022-03-21T12:53:11Z</time>
      </trkpt>
      <trkpt lat="46.87649" lon="5.2739">
        <ele>218.2</ele>
        <time>2022-03-21T12:53:12Z</time>
      </trkpt>
      <trkpt lat="46.87649" lon="5.27399">
        <ele>218.2</ele>
        <time>2022-03-21T12:53:13Z</time>
      </trkpt>
      <trkpt lat="46.87649" lon="5.27408">
        <ele>218.2</ele>
        <time>2022-03-21T12:53:14Z</time>
      </trkpt>
      <trkpt lat="46.87649" lon="5.27417">
        <ele>218.2</ele>
        <time>2022-03-21T12:53:15Z</time>
      </trkpt>
      <trkpt lat="46.87649" lon="5.27426">
        <ele>218.2</ele>
        <time>2022-03-21T12:53:16Z</time>
      </trkpt>
      <trkpt lat="46.87649" lon="5.27436">
        <ele>218.2</ele>
        <time>2022-03-21T12:53:17Z</time>
      </trkpt>
      <trkpt lat="46.87649" lon="5.27446">
        <ele>218.2</ele>
        <time>2022-03-21T12:53:18Z</time>
      </trkpt>
      <trkpt lat="46.87649" lon="5.27456">
        <ele>218.2</ele>
        <time>2022-03-21T12:53:19Z</time>
      </trkpt>
      <trkpt lat="46.87649" lon="5.27466">
        <ele>218.2</ele>
        <time>2022-03-21T12:53:20Z</time>
      </trkpt>
      <trkpt lat="46.87649" lon="5.27476">
        <ele>218.2</ele>
        <time>2022-03-21T12:53:21Z</time>
      </trkpt>
      <trkpt lat="46.87649" lon="5.27487">
        <ele>218.2</ele>
        <time>2022-03-21T12:53:22Z</time>
      </trkpt>
      <trkpt lat="46.87649" lon="5.27497">
        <ele>218.2</ele>
        <time>2022-03-21T12:53:23Z</time>
      </trkpt>
      <trkpt lat="46.8765" lon="5.27508">
        <ele>218.2</ele>
        <time>2022-03-21T12:53:24Z</time>
      </trkpt>
      <trkpt lat="46.8765" lon="5.27519">
        <ele>218.2</ele>
        <time>2022-03-21T12:53:25Z</time>
      </trkpt>
      <trkpt lat="46.8765" lon="5.2753">
        <ele>218.2</ele>
        <time>2022-03-21T12:53:26Z</time>
      </trkpt>
      <trkpt lat="46.8765" lon="5.27541">
        <ele>218.2</ele>
        <time>2022-03-21T12:53:27Z</time>
      </trkpt>
      <trkpt lat="46.8765" lon="5.27552">
        <ele>218.2</ele>
        <time>2022-03-21T12:53:28Z</time>
      </trkpt>
      <trkpt lat="46.8765" lon="5.27563">
        <ele>218</ele>
        <time>2022-03-21T12:53:29Z</time>
      </trkpt>
      <trkpt lat="46.8765" lon="5.27574">
        <ele>218</ele>
        <time>2022-03-21T12:53:30Z</time>
      </trkpt>
      <trkpt lat="46.8765" lon="5.27585">
        <ele>218</ele>
        <time>2022-03-21T12:53:31Z</time>
      </trkpt>
      <trkpt lat="46.87649" lon="5.27596">
        <ele>218</ele>
        <time>2022-03-21T12:53:32Z</time>
      </trkpt>
      <trkpt lat="46.87649" lon="5.27607">
        <ele>218</ele>
        <time>2022-03-21T12:53:33Z</time>
      </trkpt>
      <trkpt lat="46.87648" lon="5.27618">
        <ele>218</ele>
        <time>2022-03-21T12:53:34Z</time>
      </trkpt>
      <trkpt lat="46.87647" lon="5.27628">
        <ele>218</ele>
        <time>2022-03-21T12:53:35Z</time>
      </trkpt>
      <trkpt lat="46.87646" lon="5.27639">
        <ele>218</ele>
        <time>2022-03-21T12:53:36Z</time>
      </trkpt>
      <trkpt lat="46.87645" lon="5.27649">
        <ele>218</ele>
        <time>2022-03-21T12:53:37Z</time>
      </trkpt>
      <trkpt lat="46.87643" lon="5.2766">
        <ele>218</ele>
        <time>2022-03-21T12:53:38Z</time>
      </trkpt>
      <trkpt lat="46.87642" lon="5.2767">
        <ele>218</ele>
        <time>2022-03-21T12:53:39Z</time>
      </trkpt>
      <trkpt lat="46.87641" lon="5.2768">
        <ele>218</ele>
        <time>2022-03-21T12:53:40Z</time>
      </trkpt>
      <trkpt lat="46.87639" lon="5.2769">
        <ele>218</ele>
        <time>2022-03-21T12:53:41Z</time>
      </trkpt>
      <trkpt lat="46.87638" lon="5.277">
        <ele>218</ele>
        <time>2022-03-21T12:53:42Z</time>
      </trkpt>
      <trkpt lat="46.87637" lon="5.2771">
        <ele>218</ele>
        <time>2022-03-21T12:53:43Z</time>
      </trkpt>
      <trkpt lat="46.87635" lon="5.2772">
        <ele>218</ele>
        <time>2022-03-21T12:53:44Z</time>
      </trkpt>
      <trkpt lat="46.87634" lon="5.2773">
        <ele>218</ele>
        <time>2022-03-21T12:53:45Z</time>
      </trkpt>
      <trkpt lat="46.87633" lon="5.2774">
        <ele>218</ele>
        <time>2022-03-21T12:53:46Z</time>
      </trkpt>
      <trkpt lat="46.87631" lon="5.2775">
        <ele>218</ele>
        <time>2022-03-21T12:53:47Z</time>
      </trkpt>
      <trkpt lat="46.8763" lon="5.2776">
        <ele>218</ele>
        <time>2022-03-21T12:53:48Z</time>
      </trkpt>
      <trkpt lat="46.87629" lon="5.27769">
        <ele>218</ele>
        <time>2022-03-21T12:53:49Z</time>
      </trkpt>
      <trkpt lat="46.87627" lon="5.27779">
        <ele>218</ele>
        <time>2022-03-21T12:53:50Z</time>
      </trkpt>
      <trkpt lat="46.87626" lon="5.27788">
        <ele>218</ele>
        <time>2022-03-21T12:53:51Z</time>
      </trkpt>
      <trkpt lat="46.87625" lon="5.27798">
        <ele>218</ele>
        <time>2022-03-21T12:53:52Z</time>
      </trkpt>
      <trkpt lat="46.87624" lon="5.27807">
        <ele>218</ele>
        <time>2022-03-21T12:53:53Z</time>
      </trkpt>
      <trkpt lat="46.87623" lon="5.27816">
        <ele>218</ele>
        <time>2022-03-21T12:53:54Z</time>
      </trkpt>
      <trkpt lat="46.87622" lon="5.27826">
        <ele>218</ele>
        <time>2022-03-21T12:53:55Z</time>
      </trkpt>
      <trkpt lat="46.87621" lon="5.27835">
        <ele>218</ele>
        <time>2022-03-21T12:53:56Z</time>
      </trkpt>
      <trkpt lat="46.87619" lon="5.27844">
        <ele>218</ele>
        <time>2022-03-21T12:53:57Z</time>
      </trkpt>
      <trkpt lat="46.87618" lon="5.27853">
        <ele>218</ele>
        <time>2022-03-21T12:53:58Z</time>
      </trkpt>
      <trkpt lat="46.87617" lon="5.27862">
        <ele>218</ele>
        <time>2022-03-21T12:53:59Z</time>
      </trkpt>
      <trkpt lat="46.87616" lon="5.27871">
        <ele>218.2</ele>
        <time>2022-03-21T12:54:00Z</time>
      </trkpt>
      <trkpt lat="46.87615" lon="5.27881">
        <ele>218.2</ele>
        <time>2022-03-21T12:54:01Z</time>
      </trkpt>
      <trkpt lat="46.87613" lon="5.27889">
        <ele>218.4</ele>
        <time>2022-03-21T12:54:02Z</time>
      </trkpt>
      <trkpt lat="46.87612" lon="5.27898">
        <ele>218.4</ele>
        <time>2022-03-21T12:54:03Z</time>
      </trkpt>
      <trkpt lat="46.87611" lon="5.27907">
        <ele>218.4</ele>
        <time>2022-03-21T12:54:04Z</time>
      </trkpt>
      <trkpt lat="46.8761" lon="5.27916">
        <ele>218.4</ele>
        <time>2022-03-21T12:54:05Z</time>
      </trkpt>
      <trkpt lat="46.87609" lon="5.27925">
        <ele>218.4</ele>
        <time>2022-03-21T12:54:06Z</time>
      </trkpt>
      <trkpt lat="46.87608" lon="5.27934">
        <ele>218.4</ele>
        <time>2022-03-21T12:54:07Z</time>
      </trkpt>
      <trkpt lat="46.87606" lon="5.27942">
        <ele>218.4</ele>
        <time>2022-03-21T12:54:08Z</time>
      </trkpt>
      <trkpt lat="46.87605" lon="5.27951">
        <ele>218.6</ele>
        <time>2022-03-21T12:54:09Z</time>
      </trkpt>
      <trkpt lat="46.87604" lon="5.27959">
        <ele>218.6</ele>
        <time>2022-03-21T12:54:10Z</time>
      </trkpt>
      <trkpt lat="46.87603" lon="5.27968">
        <ele>218.6</ele>
        <time>2022-03-21T12:54:11Z</time>
      </trkpt>
      <trkpt lat="46.87602" lon="5.27976">
        <ele>218.6</ele>
        <time>2022-03-21T12:54:12Z</time>
      </trkpt>
      <trkpt lat="46.87601" lon="5.27985">
        <ele>218.6</ele>
        <time>2022-03-21T12:54:13Z</time>
      </trkpt>
      <trkpt lat="46.876" lon="5.27994">
        <ele>218.6</ele>
        <time>2022-03-21T12:54:14Z</time>
      </trkpt>
      <trkpt lat="46.87599" lon="5.28003">
        <ele>218.6</ele>
        <time>2022-03-21T12:54:15Z</time>
      </trkpt>
      <trkpt lat="46.87598" lon="5.28013">
        <ele>219</ele>
        <time>2022-03-21T12:54:16Z</time>
      </trkpt>
      <trkpt lat="46.87596" lon="5.28022">
        <ele>219</ele>
        <time>2022-03-21T12:54:18Z</time>
      </trkpt>
      <trkpt lat="46.87595" lon="5.28031">
        <ele>219</ele>
        <time>2022-03-21T12:54:19Z</time>
      </trkpt>
      <trkpt lat="46.87594" lon="5.2804">
        <ele>219</ele>
        <time>2022-03-21T12:54:20Z</time>
      </trkpt>
      <trkpt lat="46.87593" lon="5.2805">
        <ele>219</ele>
        <time>2022-03-21T12:54:21Z</time>
      </trkpt>
      <trkpt lat="46.87591" lon="5.28059">
        <ele>219</ele>
        <time>2022-03-21T12:54:22Z</time>
      </trkpt>
      <trkpt lat="46.8759" lon="5.28069">
        <ele>219</ele>
        <time>2022-03-21T12:54:23Z</time>
      </trkpt>
      <trkpt lat="46.87589" lon="5.28078">
        <ele>219</ele>
        <time>2022-03-21T12:54:24Z</time>
      </trkpt>
      <trkpt lat="46.87588" lon="5.28088">
        <ele>219</ele>
        <time>2022-03-21T12:54:25Z</time>
      </trkpt>
      <trkpt lat="46.87586" lon="5.28098">
        <ele>218.6</ele>
        <time>2022-03-21T12:54:26Z</time>
      </trkpt>
      <trkpt lat="46.87585" lon="5.28108">
        <ele>218.6</ele>
        <time>2022-03-21T12:54:27Z</time>
      </trkpt>
      <trkpt lat="46.87584" lon="5.28119">
        <ele>218.4</ele>
        <time>2022-03-21T12:54:28Z</time>
      </trkpt>
      <trkpt lat="46.87583" lon="5.28129">
        <ele>218.4</ele>
        <time>2022-03-21T12:54:29Z</time>
      </trkpt>
      <trkpt lat="46.87581" lon="5.28139">
        <ele>218.4</ele>
        <time>2022-03-21T12:54:30Z</time>
      </trkpt>
      <trkpt lat="46.8758" lon="5.28149">
        <ele>218.2</ele>
        <time>2022-03-21T12:54:31Z</time>
      </trkpt>
      <trkpt lat="46.87579" lon="5.28159">
        <ele>218.2</ele>
        <time>2022-03-21T12:54:32Z</time>
      </trkpt>
      <trkpt lat="46.87578" lon="5.28169">
        <ele>218.2</ele>
        <time>2022-03-21T12:54:33Z</time>
      </trkpt>
      <trkpt lat="46.87576" lon="5.28178">
        <ele>218.2</ele>
        <time>2022-03-21T12:54:34Z</time>
      </trkpt>
      <trkpt lat="46.87575" lon="5.28188">
        <ele>218.2</ele>
        <time>2022-03-21T12:54:35Z</time>
      </trkpt>
      <trkpt lat="46.87574" lon="5.28197">
        <ele>218.2</ele>
        <time>2022-03-21T12:54:36Z</time>
      </trkpt>
      <trkpt lat="46.87573" lon="5.28206">
        <ele>218.2</ele>
        <time>2022-03-21T12:54:37Z</time>
      </trkpt>
      <trkpt lat="46.87572" lon="5.28216">
        <ele>218.2</ele>
        <time>2022-03-21T12:54:38Z</time>
      </trkpt>
      <trkpt lat="46.87571" lon="5.28225">
        <ele>218.2</ele>
        <time>2022-03-21T12:54:39Z</time>
      </trkpt>
      <trkpt lat="46.87569" lon="5.28234">
        <ele>218.2</ele>
        <time>2022-03-21T12:54:40Z</time>
      </trkpt>
      <trkpt lat="46.87568" lon="5.28244">
        <ele>218.2</ele>
        <time>2022-03-21T12:54:41Z</time>
      </trkpt>
      <trkpt lat="46.87567" lon="5.28254">
        <ele>218.2</ele>
        <time>2022-03-21T12:54:42Z</time>
      </trkpt>
      <trkpt lat="46.87566" lon="5.28263">
        <ele>218.2</ele>
        <time>2022-03-21T12:54:43Z</time>
      </trkpt>
      <trkpt lat="46.87564" lon="5.28273">
        <ele>218.2</ele>
        <time>2022-03-21T12:54:44Z</time>
      </trkpt>
      <trkpt lat="46.87563" lon="5.28283">
        <ele>218.2</ele>
        <time>2022-03-21T12:54:45Z</time>
      </trkpt>
      <trkpt lat="46.87562" lon="5.28293">
        <ele>218.2</ele>
        <time>2022-03-21T12:54:46Z</time>
      </trkpt>
      <trkpt lat="46.87561" lon="5.28303">
        <ele>218.2</ele>
        <time>2022-03-21T12:54:47Z</time>
      </trkpt>
      <trkpt lat="46.8756" lon="5.28313">
        <ele>218.2</ele>
        <time>2022-03-21T12:54:48Z</time>
      </trkpt>
      <trkpt lat="46.87558" lon="5.28322">
        <ele>218.2</ele>
        <time>2022-03-21T12:54:49Z</time>
      </trkpt>
      <trkpt lat="46.87557" lon="5.28332">
        <ele>218.2</ele>
        <time>2022-03-21T12:54:50Z</time>
      </trkpt>
      <trkpt lat="46.87556" lon="5.28342">
        <ele>218.2</ele>
        <time>2022-03-21T12:54:51Z</time>
      </trkpt>
      <trkpt lat="46.87555" lon="5.28351">
        <ele>218.2</ele>
        <time>2022-03-21T12:54:52Z</time>
      </trkpt>
      <trkpt lat="46.87553" lon="5.28361">
        <ele>218.2</ele>
        <time>2022-03-21T12:54:53Z</time>
      </trkpt>
      <trkpt lat="46.87552" lon="5.2837">
        <ele>218.2</ele>
        <time>2022-03-21T12:54:54Z</time>
      </trkpt>
      <trkpt lat="46.87551" lon="5.2838">
        <ele>218.2</ele>
        <time>2022-03-21T12:54:55Z</time>
      </trkpt>
      <trkpt lat="46.87549" lon="5.28389">
        <ele>218.2</ele>
        <time>2022-03-21T12:54:56Z</time>
      </trkpt>
      <trkpt lat="46.87548" lon="5.28399">
        <ele>218.6</ele>
        <time>2022-03-21T12:54:57Z</time>
      </trkpt>
      <trkpt lat="46.87547" lon="5.28408">
        <ele>218.6</ele>
        <time>2022-03-21T12:54:58Z</time>
      </trkpt>
      <trkpt lat="46.87546" lon="5.28417">
        <ele>218.6</ele>
        <time>2022-03-21T12:54:59Z</time>
      </trkpt>
      <trkpt lat="46.87545" lon="5.28426">
        <ele>218.6</ele>
        <time>2022-03-21T12:55:00Z</time>
      </trkpt>
      <trkpt lat="46.87544" lon="5.28435">
        <ele>218.6</ele>
        <time>2022-03-21T12:55:01Z</time>
      </trkpt>
      <trkpt lat="46.87542" lon="5.28444">
        <ele>218.6</ele>
        <time>2022-03-21T12:55:02Z</time>
      </trkpt>
      <trkpt lat="46.87541" lon="5.28453">
        <ele>218.6</ele>
        <time>2022-03-21T12:55:03Z</time>
      </trkpt>
      <trkpt lat="46.8754" lon="5.28462">
        <ele>218.6</ele>
        <time>2022-03-21T12:55:04Z</time>
      </trkpt>
      <trkpt lat="46.87539" lon="5.28471">
        <ele>218.6</ele>
        <time>2022-03-21T12:55:05Z</time>
      </trkpt>
      <trkpt lat="46.87537" lon="5.2848">
        <ele>218.6</ele>
        <time>2022-03-21T12:55:06Z</time>
      </trkpt>
      <trkpt lat="46.87536" lon="5.2849">
        <ele>218.6</ele>
        <time>2022-03-21T12:55:07Z</time>
      </trkpt>
      <trkpt lat="46.87534" lon="5.28499">
        <ele>218.6</ele>
        <time>2022-03-21T12:55:08Z</time>
      </trkpt>
      <trkpt lat="46.87533" lon="5.28509">
        <ele>218.6</ele>
        <time>2022-03-21T12:55:09Z</time>
      </trkpt>
      <trkpt lat="46.87532" lon="5.28519">
        <ele>218.6</ele>
        <time>2022-03-21T12:55:10Z</time>
      </trkpt>
      <trkpt lat="46.87531" lon="5.28529">
        <ele>218.2</ele>
        <time>2022-03-21T12:55:11Z</time>
      </trkpt>
      <trkpt lat="46.8753" lon="5.28539">
        <ele>218.2</ele>
        <time>2022-03-21T12:55:12Z</time>
      </trkpt>
      <trkpt lat="46.87528" lon="5.28549">
        <ele>218.2</ele>
        <time>2022-03-21T12:55:13Z</time>
      </trkpt>
      <trkpt lat="46.87527" lon="5.28559">
        <ele>218.2</ele>
        <time>2022-03-21T12:55:14Z</time>
      </trkpt>
      <trkpt lat="46.87526" lon="5.28569">
        <ele>218</ele>
        <time>2022-03-21T12:55:15Z</time>
      </trkpt>
      <trkpt lat="46.87524" lon="5.28579">
        <ele>218</ele>
        <time>2022-03-21T12:55:16Z</time>
      </trkpt>
      <trkpt lat="46.87523" lon="5.2859">
        <ele>218</ele>
        <time>2022-03-21T12:55:17Z</time>
      </trkpt>
      <trkpt lat="46.87522" lon="5.286">
        <ele>217.8</ele>
        <time>2022-03-21T12:55:18Z</time>
      </trkpt>
      <trkpt lat="46.87521" lon="5.2861">
        <ele>217.8</ele>
        <time>2022-03-21T12:55:19Z</time>
      </trkpt>
      <trkpt lat="46.87519" lon="5.28621">
        <ele>217.8</ele>
        <time>2022-03-21T12:55:20Z</time>
      </trkpt>
      <trkpt lat="46.87518" lon="5.28631">
        <ele>217.8</ele>
        <time>2022-03-21T12:55:21Z</time>
      </trkpt>
      <trkpt lat="46.87517" lon="5.28642">
        <ele>217.8</ele>
        <time>2022-03-21T12:55:22Z</time>
      </trkpt>
      <trkpt lat="46.87516" lon="5.28652">
        <ele>217.8</ele>
        <time>2022-03-21T12:55:23Z</time>
      </trkpt>
      <trkpt lat="46.87514" lon="5.28663">
        <ele>217.8</ele>
        <time>2022-03-21T12:55:24Z</time>
      </trkpt>
      <trkpt lat="46.87513" lon="5.28673">
        <ele>217.8</ele>
        <time>2022-03-21T12:55:25Z</time>
      </trkpt>
      <trkpt lat="46.87512" lon="5.28683">
        <ele>217.8</ele>
        <time>2022-03-21T12:55:26Z</time>
      </trkpt>
      <trkpt lat="46.8751" lon="5.28694">
        <ele>217.8</ele>
        <time>2022-03-21T12:55:27Z</time>
      </trkpt>
      <trkpt lat="46.87509" lon="5.28704">
        <ele>217.8</ele>
        <time>2022-03-21T12:55:28Z</time>
      </trkpt>
      <trkpt lat="46.87508" lon="5.28714">
        <ele>217.8</ele>
        <time>2022-03-21T12:55:29Z</time>
      </trkpt>
      <trkpt lat="46.87506" lon="5.28724">
        <ele>217.8</ele>
        <time>2022-03-21T12:55:30Z</time>
      </trkpt>
      <trkpt lat="46.87505" lon="5.28734">
        <ele>217.8</ele>
        <time>2022-03-21T12:55:31Z</time>
      </trkpt>
      <trkpt lat="46.87504" lon="5.28744">
        <ele>217.8</ele>
        <time>2022-03-21T12:55:32Z</time>
      </trkpt>
      <trkpt lat="46.87502" lon="5.28753">
        <ele>217.8</ele>
        <time>2022-03-21T12:55:33Z</time>
      </trkpt>
      <trkpt lat="46.87501" lon="5.28763">
        <ele>217.8</ele>
        <time>2022-03-21T12:55:34Z</time>
      </trkpt>
      <trkpt lat="46.875" lon="5.28773">
        <ele>217.8</ele>
        <time>2022-03-21T12:55:35Z</time>
      </trkpt>
      <trkpt lat="46.87499" lon="5.28782">
        <ele>217.8</ele>
        <time>2022-03-21T12:55:36Z</time>
      </trkpt>
      <trkpt lat="46.87498" lon="5.28792">
        <ele>217.8</ele>
        <time>2022-03-21T12:55:37Z</time>
      </trkpt>
      <trkpt lat="46.87496" lon="5.28801">
        <ele>217.8</ele>
        <time>2022-03-21T12:55:38Z</time>
      </trkpt>
      <trkpt lat="46.87495" lon="5.28811">
        <ele>218</ele>
        <time>2022-03-21T12:55:39Z</time>
      </trkpt>
      <trkpt lat="46.87494" lon="5.2882">
        <ele>218</ele>
        <time>2022-03-21T12:55:40Z</time>
      </trkpt>
      <trkpt lat="46.87493" lon="5.28829">
        <ele>218</ele>
        <time>2022-03-21T12:55:41Z</time>
      </trkpt>
      <trkpt lat="46.87492" lon="5.28838">
        <ele>218</ele>
        <time>2022-03-21T12:55:42Z</time>
      </trkpt>
      <trkpt lat="46.8749" lon="5.28847">
        <ele>218</ele>
        <time>2022-03-21T12:55:43Z</time>
      </trkpt>
      <trkpt lat="46.87489" lon="5.28857">
        <ele>218</ele>
        <time>2022-03-21T12:55:44Z</time>
      </trkpt>
      <trkpt lat="46.87488" lon="5.28866">
        <ele>218</ele>
        <time>2022-03-21T12:55:45Z</time>
      </trkpt>
      <trkpt lat="46.87487" lon="5.28875">
        <ele>218</ele>
        <time>2022-03-21T12:55:46Z</time>
      </trkpt>
      <trkpt lat="46.87486" lon="5.28885">
        <ele>218</ele>
        <time>2022-03-21T12:55:47Z</time>
      </trkpt>
      <trkpt lat="46.87485" lon="5.28895">
        <ele>218</ele>
        <time>2022-03-21T12:55:48Z</time>
      </trkpt>
      <trkpt lat="46.87483" lon="5.28904">
        <ele>218</ele>
        <time>2022-03-21T12:55:49Z</time>
      </trkpt>
      <trkpt lat="46.87482" lon="5.28914">
        <ele>218</ele>
        <time>2022-03-21T12:55:50Z</time>
      </trkpt>
      <trkpt lat="46.87481" lon="5.28923">
        <ele>218</ele>
        <time>2022-03-21T12:55:51Z</time>
      </trkpt>
      <trkpt lat="46.8748" lon="5.28933">
        <ele>218</ele>
        <time>2022-03-21T12:55:52Z</time>
      </trkpt>
      <trkpt lat="46.87479" lon="5.28943">
        <ele>218</ele>
        <time>2022-03-21T12:55:53Z</time>
      </trkpt>
      <trkpt lat="46.87477" lon="5.28953">
        <ele>218</ele>
        <time>2022-03-21T12:55:54Z</time>
      </trkpt>
      <trkpt lat="46.87476" lon="5.28963">
        <ele>217.8</ele>
        <time>2022-03-21T12:55:55Z</time>
      </trkpt>
      <trkpt lat="46.87475" lon="5.28972">
        <ele>217.8</ele>
        <time>2022-03-21T12:55:56Z</time>
      </trkpt>
      <trkpt lat="46.87473" lon="5.28982">
        <ele>217.8</ele>
        <time>2022-03-21T12:55:57Z</time>
      </trkpt>
      <trkpt lat="46.87472" lon="5.28992">
        <ele>217.8</ele>
        <time>2022-03-21T12:55:58Z</time>
      </trkpt>
      <trkpt lat="46.87471" lon="5.29002">
        <ele>217.8</ele>
        <time>2022-03-21T12:55:59Z</time>
      </trkpt>
      <trkpt lat="46.8747" lon="5.29012">
        <ele>217.8</ele>
        <time>2022-03-21T12:56:00Z</time>
      </trkpt>
      <trkpt lat="46.87468" lon="5.29022">
        <ele>217.8</ele>
        <time>2022-03-21T12:56:01Z</time>
      </trkpt>
      <trkpt lat="46.87467" lon="5.29032">
        <ele>217.8</ele>
        <time>2022-03-21T12:56:02Z</time>
      </trkpt>
      <trkpt lat="46.87466" lon="5.29042">
        <ele>217.8</ele>
        <time>2022-03-21T12:56:03Z</time>
      </trkpt>
      <trkpt lat="46.87465" lon="5.29053">
        <ele>217.8</ele>
        <time>2022-03-21T12:56:04Z</time>
      </trkpt>
      <trkpt lat="46.87464" lon="5.29063">
        <ele>217.8</ele>
        <time>2022-03-21T12:56:05Z</time>
      </trkpt>
      <trkpt lat="46.87463" lon="5.29073">
        <ele>217.8</ele>
        <time>2022-03-21T12:56:06Z</time>
      </trkpt>
      <trkpt lat="46.87461" lon="5.29083">
        <ele>217.8</ele>
        <time>2022-03-21T12:56:07Z</time>
      </trkpt>
      <trkpt lat="46.8746" lon="5.29093">
        <ele>217.8</ele>
        <time>2022-03-21T12:56:08Z</time>
      </trkpt>
      <trkpt lat="46.87459" lon="5.29103">
        <ele>217.8</ele>
        <time>2022-03-21T12:56:09Z</time>
      </trkpt>
      <trkpt lat="46.87457" lon="5.29113">
        <ele>217.8</ele>
        <time>2022-03-21T12:56:10Z</time>
      </trkpt>
      <trkpt lat="46.87456" lon="5.29122">
        <ele>217.8</ele>
        <time>2022-03-21T12:56:11Z</time>
      </trkpt>
      <trkpt lat="46.87455" lon="5.29132">
        <ele>217.8</ele>
        <time>2022-03-21T12:56:12Z</time>
      </trkpt>
      <trkpt lat="46.87453" lon="5.29142">
        <ele>217.8</ele>
        <time>2022-03-21T12:56:13Z</time>
      </trkpt>
      <trkpt lat="46.87452" lon="5.29151">
        <ele>217.8</ele>
        <time>2022-03-21T12:56:14Z</time>
      </trkpt>
      <trkpt lat="46.87451" lon="5.29161">
        <ele>217.8</ele>
        <time>2022-03-21T12:56:15Z</time>
      </trkpt>
      <trkpt lat="46.8745" lon="5.29171">
        <ele>217.8</ele>
        <time>2022-03-21T12:56:16Z</time>
      </trkpt>
      <trkpt lat="46.87449" lon="5.2918">
        <ele>217.8</ele>
        <time>2022-03-21T12:56:17Z</time>
      </trkpt>
      <trkpt lat="46.87447" lon="5.2919">
        <ele>217.8</ele>
        <time>2022-03-21T12:56:18Z</time>
      </trkpt>
      <trkpt lat="46.87445" lon="5.2921">
        <ele>217.8</ele>
        <time>2022-03-21T12:56:19Z</time>
      </trkpt>
      <trkpt lat="46.87444" lon="5.2922">
        <ele>217.8</ele>
        <time>2022-03-21T12:56:20Z</time>
      </trkpt>
      <trkpt lat="46.87443" lon="5.29229">
        <ele>217.8</ele>
        <time>2022-03-21T12:56:21Z</time>
      </trkpt>
      <trkpt lat="46.87441" lon="5.29239">
        <ele>217.8</ele>
        <time>2022-03-21T12:56:22Z</time>
      </trkpt>
      <trkpt lat="46.8744" lon="5.29249">
        <ele>218</ele>
        <time>2022-03-21T12:56:23Z</time>
      </trkpt>
      <trkpt lat="46.87439" lon="5.29259">
        <ele>218</ele>
        <time>2022-03-21T12:56:24Z</time>
      </trkpt>
      <trkpt lat="46.87438" lon="5.29268">
        <ele>218</ele>
        <time>2022-03-21T12:56:25Z</time>
      </trkpt>
      <trkpt lat="46.87437" lon="5.29278">
        <ele>218</ele>
        <time>2022-03-21T12:56:26Z</time>
      </trkpt>
      <trkpt lat="46.87436" lon="5.29288">
        <ele>218</ele>
        <time>2022-03-21T12:56:27Z</time>
      </trkpt>
      <trkpt lat="46.87434" lon="5.29298">
        <ele>218</ele>
        <time>2022-03-21T12:56:28Z</time>
      </trkpt>
      <trkpt lat="46.87433" lon="5.29307">
        <ele>218</ele>
        <time>2022-03-21T12:56:29Z</time>
      </trkpt>
      <trkpt lat="46.87432" lon="5.29317">
        <ele>218</ele>
        <time>2022-03-21T12:56:30Z</time>
      </trkpt>
      <trkpt lat="46.87431" lon="5.29327">
        <ele>218</ele>
        <time>2022-03-21T12:56:31Z</time>
      </trkpt>
      <trkpt lat="46.8743" lon="5.29337">
        <ele>218</ele>
        <time>2022-03-21T12:56:32Z</time>
      </trkpt>
      <trkpt lat="46.87428" lon="5.29347">
        <ele>218</ele>
        <time>2022-03-21T12:56:33Z</time>
      </trkpt>
      <trkpt lat="46.87427" lon="5.29357">
        <ele>218</ele>
        <time>2022-03-21T12:56:34Z</time>
      </trkpt>
      <trkpt lat="46.87426" lon="5.29367">
        <ele>218</ele>
        <time>2022-03-21T12:56:35Z</time>
      </trkpt>
      <trkpt lat="46.87424" lon="5.29377">
        <ele>218</ele>
        <time>2022-03-21T12:56:36Z</time>
      </trkpt>
      <trkpt lat="46.87423" lon="5.29387">
        <ele>218</ele>
        <time>2022-03-21T12:56:37Z</time>
      </trkpt>
      <trkpt lat="46.87422" lon="5.29398">
        <ele>218</ele>
        <time>2022-03-21T12:56:38Z</time>
      </trkpt>
      <trkpt lat="46.87421" lon="5.29408">
        <ele>218</ele>
        <time>2022-03-21T12:56:39Z</time>
      </trkpt>
      <trkpt lat="46.87419" lon="5.29418">
        <ele>218</ele>
        <time>2022-03-21T12:56:40Z</time>
      </trkpt>
      <trkpt lat="46.87418" lon="5.29429">
        <ele>218</ele>
        <time>2022-03-21T12:56:41Z</time>
      </trkpt>
      <trkpt lat="46.87417" lon="5.29439">
        <ele>218</ele>
        <time>2022-03-21T12:56:42Z</time>
      </trkpt>
      <trkpt lat="46.87416" lon="5.29449">
        <ele>218</ele>
        <time>2022-03-21T12:56:43Z</time>
      </trkpt>
      <trkpt lat="46.87415" lon="5.29459">
        <ele>218</ele>
        <time>2022-03-21T12:56:44Z</time>
      </trkpt>
      <trkpt lat="46.87413" lon="5.2947">
        <ele>218</ele>
        <time>2022-03-21T12:56:45Z</time>
      </trkpt>
      <trkpt lat="46.87412" lon="5.2948">
        <ele>218</ele>
        <time>2022-03-21T12:56:46Z</time>
      </trkpt>
      <trkpt lat="46.87411" lon="5.2949">
        <ele>218</ele>
        <time>2022-03-21T12:56:47Z</time>
      </trkpt>
      <trkpt lat="46.8741" lon="5.295">
        <ele>218.2</ele>
        <time>2022-03-21T12:56:48Z</time>
      </trkpt>
      <trkpt lat="46.87408" lon="5.29511">
        <ele>218.2</ele>
        <time>2022-03-21T12:56:49Z</time>
      </trkpt>
      <trkpt lat="46.87407" lon="5.29521">
        <ele>218.2</ele>
        <time>2022-03-21T12:56:50Z</time>
      </trkpt>
      <trkpt lat="46.87406" lon="5.29531">
        <ele>218.2</ele>
        <time>2022-03-21T12:56:51Z</time>
      </trkpt>
      <trkpt lat="46.87404" lon="5.29541">
        <ele>218.4</ele>
        <time>2022-03-21T12:56:52Z</time>
      </trkpt>
      <trkpt lat="46.87403" lon="5.29551">
        <ele>218.4</ele>
        <time>2022-03-21T12:56:53Z</time>
      </trkpt>
      <trkpt lat="46.87402" lon="5.29561">
        <ele>218.4</ele>
        <time>2022-03-21T12:56:54Z</time>
      </trkpt>
      <trkpt lat="46.87401" lon="5.29572">
        <ele>218.4</ele>
        <time>2022-03-21T12:56:55Z</time>
      </trkpt>
      <trkpt lat="46.874" lon="5.29582">
        <ele>218.4</ele>
        <time>2022-03-21T12:56:56Z</time>
      </trkpt>
      <trkpt lat="46.87398" lon="5.29592">
        <ele>218.4</ele>
        <time>2022-03-21T12:56:57Z</time>
      </trkpt>
      <trkpt lat="46.87397" lon="5.29603">
        <ele>218.4</ele>
        <time>2022-03-21T12:56:58Z</time>
      </trkpt>
      <trkpt lat="46.87396" lon="5.29613">
        <ele>218.2</ele>
        <time>2022-03-21T12:56:59Z</time>
      </trkpt>
      <trkpt lat="46.87395" lon="5.29624">
        <ele>218.2</ele>
        <time>2022-03-21T12:57:00Z</time>
      </trkpt>
      <trkpt lat="46.87393" lon="5.29635">
        <ele>218.2</ele>
        <time>2022-03-21T12:57:01Z</time>
      </trkpt>
      <trkpt lat="46.87392" lon="5.29645">
        <ele>218.2</ele>
        <time>2022-03-21T12:57:02Z</time>
      </trkpt>
      <trkpt lat="46.87391" lon="5.29656">
        <ele>218.2</ele>
        <time>2022-03-21T12:57:03Z</time>
      </trkpt>
      <trkpt lat="46.87389" lon="5.29666">
        <ele>218.2</ele>
        <time>2022-03-21T12:57:04Z</time>
      </trkpt>
      <trkpt lat="46.87388" lon="5.29677">
        <ele>218.2</ele>
        <time>2022-03-21T12:57:05Z</time>
      </trkpt>
      <trkpt lat="46.87387" lon="5.29688">
        <ele>218.2</ele>
        <time>2022-03-21T12:57:06Z</time>
      </trkpt>
      <trkpt lat="46.87385" lon="5.29698">
        <ele>218.2</ele>
        <time>2022-03-21T12:57:07Z</time>
      </trkpt>
      <trkpt lat="46.87384" lon="5.29709">
        <ele>218.2</ele>
        <time>2022-03-21T12:57:08Z</time>
      </trkpt>
      <trkpt lat="46.87383" lon="5.2972">
        <ele>218.2</ele>
        <time>2022-03-21T12:57:09Z</time>
      </trkpt>
      <trkpt lat="46.87381" lon="5.2973">
        <ele>218</ele>
        <time>2022-03-21T12:57:10Z</time>
      </trkpt>
      <trkpt lat="46.8738" lon="5.29741">
        <ele>218</ele>
        <time>2022-03-21T12:57:11Z</time>
      </trkpt>
      <trkpt lat="46.87379" lon="5.29752">
        <ele>218</ele>
        <time>2022-03-21T12:57:12Z</time>
      </trkpt>
      <trkpt lat="46.87377" lon="5.29763">
        <ele>218</ele>
        <time>2022-03-21T12:57:13Z</time>
      </trkpt>
      <trkpt lat="46.87376" lon="5.29773">
        <ele>218</ele>
        <time>2022-03-21T12:57:14Z</time>
      </trkpt>
      <trkpt lat="46.87375" lon="5.29784">
        <ele>218</ele>
        <time>2022-03-21T12:57:15Z</time>
      </trkpt>
      <trkpt lat="46.87373" lon="5.29795">
        <ele>218</ele>
        <time>2022-03-21T12:57:16Z</time>
      </trkpt>
      <trkpt lat="46.87372" lon="5.29806">
        <ele>218</ele>
        <time>2022-03-21T12:57:17Z</time>
      </trkpt>
      <trkpt lat="46.8737" lon="5.29816">
        <ele>218</ele>
        <time>2022-03-21T12:57:18Z</time>
      </trkpt>
      <trkpt lat="46.87369" lon="5.29826">
        <ele>218</ele>
        <time>2022-03-21T12:57:19Z</time>
      </trkpt>
      <trkpt lat="46.87368" lon="5.29837">
        <ele>218</ele>
        <time>2022-03-21T12:57:20Z</time>
      </trkpt>
      <trkpt lat="46.87366" lon="5.29847">
        <ele>218</ele>
        <time>2022-03-21T12:57:21Z</time>
      </trkpt>
      <trkpt lat="46.87365" lon="5.29857">
        <ele>218</ele>
        <time>2022-03-21T12:57:22Z</time>
      </trkpt>
      <trkpt lat="46.87363" lon="5.29866">
        <ele>217.8</ele>
        <time>2022-03-21T12:57:23Z</time>
      </trkpt>
      <trkpt lat="46.87362" lon="5.29876">
        <ele>217.8</ele>
        <time>2022-03-21T12:57:24Z</time>
      </trkpt>
      <trkpt lat="46.87361" lon="5.29886">
        <ele>217.8</ele>
        <time>2022-03-21T12:57:25Z</time>
      </trkpt>
      <trkpt lat="46.8736" lon="5.29896">
        <ele>217.8</ele>
        <time>2022-03-21T12:57:26Z</time>
      </trkpt>
      <trkpt lat="46.87359" lon="5.29906">
        <ele>217.8</ele>
        <time>2022-03-21T12:57:27Z</time>
      </trkpt>
      <trkpt lat="46.87357" lon="5.29915">
        <ele>217.8</ele>
        <time>2022-03-21T12:57:28Z</time>
      </trkpt>
      <trkpt lat="46.87356" lon="5.29925">
        <ele>217.8</ele>
        <time>2022-03-21T12:57:29Z</time>
      </trkpt>
      <trkpt lat="46.87355" lon="5.29935">
        <ele>217.8</ele>
        <time>2022-03-21T12:57:30Z</time>
      </trkpt>
      <trkpt lat="46.87354" lon="5.29946">
        <ele>217.8</ele>
        <time>2022-03-21T12:57:31Z</time>
      </trkpt>
      <trkpt lat="46.87352" lon="5.29956">
        <ele>217.4</ele>
        <time>2022-03-21T12:57:32Z</time>
      </trkpt>
      <trkpt lat="46.87351" lon="5.29967">
        <ele>217.4</ele>
        <time>2022-03-21T12:57:33Z</time>
      </trkpt>
      <trkpt lat="46.8735" lon="5.29977">
        <ele>217.2</ele>
        <time>2022-03-21T12:57:34Z</time>
      </trkpt>
      <trkpt lat="46.87348" lon="5.29988">
        <ele>217.2</ele>
        <time>2022-03-21T12:57:35Z</time>
      </trkpt>
      <trkpt lat="46.87347" lon="5.29998">
        <ele>217.2</ele>
        <time>2022-03-21T12:57:36Z</time>
      </trkpt>
      <trkpt lat="46.87345" lon="5.30009">
        <ele>217</ele>
        <time>2022-03-21T12:57:37Z</time>
      </trkpt>
      <trkpt lat="46.87344" lon="5.30019">
        <ele>217</ele>
        <time>2022-03-21T12:57:38Z</time>
      </trkpt>
      <trkpt lat="46.87342" lon="5.3003">
        <ele>216.8</ele>
        <time>2022-03-21T12:57:39Z</time>
      </trkpt>
      <trkpt lat="46.87341" lon="5.30041">
        <ele>216.8</ele>
        <time>2022-03-21T12:57:40Z</time>
      </trkpt>
      <trkpt lat="46.87339" lon="5.30052">
        <ele>216.4</ele>
        <time>2022-03-21T12:57:41Z</time>
      </trkpt>
      <trkpt lat="46.87337" lon="5.30063">
        <ele>216.2</ele>
        <time>2022-03-21T12:57:42Z</time>
      </trkpt>
      <trkpt lat="46.87336" lon="5.30075">
        <ele>215.8</ele>
        <time>2022-03-21T12:57:43Z</time>
      </trkpt>
      <trkpt lat="46.87334" lon="5.30086">
        <ele>215.6</ele>
        <time>2022-03-21T12:57:44Z</time>
      </trkpt>
      <trkpt lat="46.87332" lon="5.30098">
        <ele>215.2</ele>
        <time>2022-03-21T12:57:45Z</time>
      </trkpt>
      <trkpt lat="46.8733" lon="5.30111">
        <ele>215</ele>
        <time>2022-03-21T12:57:46Z</time>
      </trkpt>
      <trkpt lat="46.87329" lon="5.30123">
        <ele>214.4</ele>
        <time>2022-03-21T12:57:47Z</time>
      </trkpt>
      <trkpt lat="46.87327" lon="5.30138">
        <ele>214</ele>
        <time>2022-03-21T12:57:48Z</time>
      </trkpt>
      <trkpt lat="46.87325" lon="5.30152">
        <ele>213.6</ele>
        <time>2022-03-21T12:57:49Z</time>
      </trkpt>
      <trkpt lat="46.87323" lon="5.30164">
        <ele>213.2</ele>
        <time>2022-03-21T12:57:50Z</time>
      </trkpt>
      <trkpt lat="46.87321" lon="5.30178">
        <ele>212.8</ele>
        <time>2022-03-21T12:57:51Z</time>
      </trkpt>
      <trkpt lat="46.87319" lon="5.30191">
        <ele>212.6</ele>
        <time>2022-03-21T12:57:52Z</time>
      </trkpt>
      <trkpt lat="46.87317" lon="5.30203">
        <ele>212.6</ele>
        <time>2022-03-21T12:57:53Z</time>
      </trkpt>
      <trkpt lat="46.87314" lon="5.30215">
        <ele>212.4</ele>
        <time>2022-03-21T12:57:54Z</time>
      </trkpt>
      <trkpt lat="46.87312" lon="5.30227">
        <ele>212.4</ele>
        <time>2022-03-21T12:57:55Z</time>
      </trkpt>
      <trkpt lat="46.8731" lon="5.30238">
        <ele>212.4</ele>
        <time>2022-03-21T12:57:56Z</time>
      </trkpt>
      <trkpt lat="46.87309" lon="5.30249">
        <ele>212.6</ele>
        <time>2022-03-21T12:57:57Z</time>
      </trkpt>
      <trkpt lat="46.87307" lon="5.30258">
        <ele>212.8</ele>
        <time>2022-03-21T12:57:58Z</time>
      </trkpt>
      <trkpt lat="46.87305" lon="5.30268">
        <ele>212.8</ele>
        <time>2022-03-21T12:57:59Z</time>
      </trkpt>
      <trkpt lat="46.87304" lon="5.30277">
        <ele>213.2</ele>
        <time>2022-03-21T12:58:00Z</time>
      </trkpt>
      <trkpt lat="46.87302" lon="5.30285">
        <ele>213.2</ele>
        <time>2022-03-21T12:58:01Z</time>
      </trkpt>
      <trkpt lat="46.873" lon="5.30294">
        <ele>213.6</ele>
        <time>2022-03-21T12:58:02Z</time>
      </trkpt>
      <trkpt lat="46.87299" lon="5.30303">
        <ele>214</ele>
        <time>2022-03-21T12:58:03Z</time>
      </trkpt>
      <trkpt lat="46.87298" lon="5.30311">
        <ele>214.2</ele>
        <time>2022-03-21T12:58:04Z</time>
      </trkpt>
      <trkpt lat="46.87296" lon="5.3032">
        <ele>214.4</ele>
        <time>2022-03-21T12:58:05Z</time>
      </trkpt>
      <trkpt lat="46.87295" lon="5.30328">
        <ele>214.4</ele>
        <time>2022-03-21T12:58:06Z</time>
      </trkpt>
      <trkpt lat="46.87293" lon="5.30336">
        <ele>214.8</ele>
        <time>2022-03-21T12:58:07Z</time>
      </trkpt>
      <trkpt lat="46.87292" lon="5.30345">
        <ele>214.8</ele>
        <time>2022-03-21T12:58:08Z</time>
      </trkpt>
      <trkpt lat="46.8729" lon="5.30354">
        <ele>214.8</ele>
        <time>2022-03-21T12:58:09Z</time>
      </trkpt>
      <trkpt lat="46.87288" lon="5.30364">
        <ele>214.8</ele>
        <time>2022-03-21T12:58:10Z</time>
      </trkpt>
      <trkpt lat="46.87287" lon="5.30374">
        <ele>214.8</ele>
        <time>2022-03-21T12:58:11Z</time>
      </trkpt>
      <trkpt lat="46.87285" lon="5.30384">
        <ele>214.4</ele>
        <time>2022-03-21T12:58:12Z</time>
      </trkpt>
      <trkpt lat="46.87283" lon="5.30394">
        <ele>214.4</ele>
        <time>2022-03-21T12:58:13Z</time>
      </trkpt>
      <trkpt lat="46.87281" lon="5.30405">
        <ele>214.2</ele>
        <time>2022-03-21T12:58:14Z</time>
      </trkpt>
      <trkpt lat="46.87279" lon="5.30416">
        <ele>214.2</ele>
        <time>2022-03-21T12:58:15Z</time>
      </trkpt>
      <trkpt lat="46.87277" lon="5.30428">
        <ele>214.2</ele>
        <time>2022-03-21T12:58:16Z</time>
      </trkpt>
      <trkpt lat="46.87275" lon="5.30439">
        <ele>213.8</ele>
        <time>2022-03-21T12:58:17Z</time>
      </trkpt>
      <trkpt lat="46.87273" lon="5.30451">
        <ele>213.8</ele>
        <time>2022-03-21T12:58:18Z</time>
      </trkpt>
      <trkpt lat="46.87271" lon="5.30462">
        <ele>213.4</ele>
        <time>2022-03-21T12:58:19Z</time>
      </trkpt>
      <trkpt lat="46.87269" lon="5.30474">
        <ele>213.2</ele>
        <time>2022-03-21T12:58:20Z</time>
      </trkpt>
      <trkpt lat="46.87267" lon="5.30487">
        <ele>213.2</ele>
        <time>2022-03-21T12:58:21Z</time>
      </trkpt>
      <trkpt lat="46.87265" lon="5.30499">
        <ele>212.8</ele>
        <time>2022-03-21T12:58:22Z</time>
      </trkpt>
      <trkpt lat="46.87263" lon="5.30511">
        <ele>212.8</ele>
        <time>2022-03-21T12:58:23Z</time>
      </trkpt>
      <trkpt lat="46.87261" lon="5.30523">
        <ele>212.4</ele>
        <time>2022-03-21T12:58:24Z</time>
      </trkpt>
      <trkpt lat="46.87259" lon="5.30535">
        <ele>212.2</ele>
        <time>2022-03-21T12:58:26Z</time>
      </trkpt>
      <trkpt lat="46.87257" lon="5.30547">
        <ele>212.2</ele>
        <time>2022-03-21T12:58:27Z</time>
      </trkpt>
      <trkpt lat="46.87255" lon="5.30559">
        <ele>211.8</ele>
        <time>2022-03-21T12:58:28Z</time>
      </trkpt>
      <trkpt lat="46.87253" lon="5.30571">
        <ele>211.8</ele>
        <time>2022-03-21T12:58:29Z</time>
      </trkpt>
      <trkpt lat="46.87251" lon="5.30582">
        <ele>211.6</ele>
        <time>2022-03-21T12:58:30Z</time>
      </trkpt>
      <trkpt lat="46.87249" lon="5.30594">
        <ele>211.6</ele>
        <time>2022-03-21T12:58:31Z</time>
      </trkpt>
      <trkpt lat="46.87247" lon="5.30606">
        <ele>211.4</ele>
        <time>2022-03-21T12:58:32Z</time>
      </trkpt>
      <trkpt lat="46.87245" lon="5.30617">
        <ele>211.4</ele>
        <time>2022-03-21T12:58:33Z</time>
      </trkpt>
      <trkpt lat="46.87243" lon="5.30629">
        <ele>211.4</ele>
        <time>2022-03-21T12:58:34Z</time>
      </trkpt>
      <trkpt lat="46.87241" lon="5.3064">
        <ele>211.2</ele>
        <time>2022-03-21T12:58:35Z</time>
      </trkpt>
      <trkpt lat="46.87239" lon="5.30651">
        <ele>211.2</ele>
        <time>2022-03-21T12:58:36Z</time>
      </trkpt>
      <trkpt lat="46.87237" lon="5.30662">
        <ele>211.2</ele>
        <time>2022-03-21T12:58:37Z</time>
      </trkpt>
      <trkpt lat="46.87235" lon="5.30672">
        <ele>210.8</ele>
        <time>2022-03-21T12:58:38Z</time>
      </trkpt>
      <trkpt lat="46.87233" lon="5.30683">
        <ele>210.4</ele>
        <time>2022-03-21T12:58:39Z</time>
      </trkpt>
      <trkpt lat="46.87232" lon="5.30694">
        <ele>210.2</ele>
        <time>2022-03-21T12:58:40Z</time>
      </trkpt>
      <trkpt lat="46.8723" lon="5.30705">
        <ele>210</ele>
        <time>2022-03-21T12:58:41Z</time>
      </trkpt>
      <trkpt lat="46.87228" lon="5.30716">
        <ele>209.8</ele>
        <time>2022-03-21T12:58:42Z</time>
      </trkpt>
      <trkpt lat="46.87226" lon="5.30727">
        <ele>209.6</ele>
        <time>2022-03-21T12:58:43Z</time>
      </trkpt>
      <trkpt lat="46.87224" lon="5.30738">
        <ele>209.4</ele>
        <time>2022-03-21T12:58:44Z</time>
      </trkpt>
      <trkpt lat="46.87222" lon="5.3075">
        <ele>209</ele>
        <time>2022-03-21T12:58:45Z</time>
      </trkpt>
      <trkpt lat="46.8722" lon="5.30762">
        <ele>208.6</ele>
        <time>2022-03-21T12:58:46Z</time>
      </trkpt>
      <trkpt lat="46.87218" lon="5.30774">
        <ele>208.2</ele>
        <time>2022-03-21T12:58:47Z</time>
      </trkpt>
      <trkpt lat="46.87216" lon="5.30787">
        <ele>207.8</ele>
        <time>2022-03-21T12:58:48Z</time>
      </trkpt>
      <trkpt lat="46.87214" lon="5.308">
        <ele>207.6</ele>
        <time>2022-03-21T12:58:49Z</time>
      </trkpt>
      <trkpt lat="46.87212" lon="5.30813">
        <ele>207.2</ele>
        <time>2022-03-21T12:58:50Z</time>
      </trkpt>
      <trkpt lat="46.87211" lon="5.30826">
        <ele>206.8</ele>
        <time>2022-03-21T12:58:51Z</time>
      </trkpt>
      <trkpt lat="46.87208" lon="5.3084">
        <ele>206.4</ele>
        <time>2022-03-21T12:58:52Z</time>
      </trkpt>
      <trkpt lat="46.87206" lon="5.30855">
        <ele>206</ele>
        <time>2022-03-21T12:58:53Z</time>
      </trkpt>
      <trkpt lat="46.87204" lon="5.30869">
        <ele>205.4</ele>
        <time>2022-03-21T12:58:54Z</time>
      </trkpt>
      <trkpt lat="46.87202" lon="5.30885">
        <ele>205</ele>
        <time>2022-03-21T12:58:55Z</time>
      </trkpt>
      <trkpt lat="46.87199" lon="5.30899">
        <ele>204.4</ele>
        <time>2022-03-21T12:58:56Z</time>
      </trkpt>
      <trkpt lat="46.87196" lon="5.30913">
        <ele>203.8</ele>
        <time>2022-03-21T12:58:57Z</time>
      </trkpt>
      <trkpt lat="46.87194" lon="5.30928">
        <ele>203.4</ele>
        <time>2022-03-21T12:58:58Z</time>
      </trkpt>
      <trkpt lat="46.87192" lon="5.30943">
        <ele>203</ele>
        <time>2022-03-21T12:58:59Z</time>
      </trkpt>
      <trkpt lat="46.8719" lon="5.30957">
        <ele>202.4</ele>
        <time>2022-03-21T12:59:00Z</time>
      </trkpt>
      <trkpt lat="46.87187" lon="5.30971">
        <ele>202.2</ele>
        <time>2022-03-21T12:59:01Z</time>
      </trkpt>
      <trkpt lat="46.87184" lon="5.30985">
        <ele>201.8</ele>
        <time>2022-03-21T12:59:02Z</time>
      </trkpt>
      <trkpt lat="46.87181" lon="5.30998">
        <ele>201.8</ele>
        <time>2022-03-21T12:59:03Z</time>
      </trkpt>
      <trkpt lat="46.87179" lon="5.31011">
        <ele>201.6</ele>
        <time>2022-03-21T12:59:04Z</time>
      </trkpt>
      <trkpt lat="46.87177" lon="5.31023">
        <ele>201.6</ele>
        <time>2022-03-21T12:59:05Z</time>
      </trkpt>
      <trkpt lat="46.87175" lon="5.31036">
        <ele>201.4</ele>
        <time>2022-03-21T12:59:06Z</time>
      </trkpt>
      <trkpt lat="46.87173" lon="5.31048">
        <ele>201.2</ele>
        <time>2022-03-21T12:59:07Z</time>
      </trkpt>
      <trkpt lat="46.87171" lon="5.3106">
        <ele>201.2</ele>
        <time>2022-03-21T12:59:08Z</time>
      </trkpt>
      <trkpt lat="46.87169" lon="5.31072">
        <ele>200.8</ele>
        <time>2022-03-21T12:59:09Z</time>
      </trkpt>
      <trkpt lat="46.87167" lon="5.31084">
        <ele>200.8</ele>
        <time>2022-03-21T12:59:10Z</time>
      </trkpt>
      <trkpt lat="46.87165" lon="5.31095">
        <ele>200.8</ele>
        <time>2022-03-21T12:59:11Z</time>
      </trkpt>
      <trkpt lat="46.87164" lon="5.31106">
        <ele>200.8</ele>
        <time>2022-03-21T12:59:12Z</time>
      </trkpt>
      <trkpt lat="46.87162" lon="5.31117">
        <ele>200.8</ele>
        <time>2022-03-21T12:59:13Z</time>
      </trkpt>
      <trkpt lat="46.8716" lon="5.31128">
        <ele>200.8</ele>
        <time>2022-03-21T12:59:14Z</time>
      </trkpt>
      <trkpt lat="46.87158" lon="5.31138">
        <ele>200.8</ele>
        <time>2022-03-21T12:59:15Z</time>
      </trkpt>
      <trkpt lat="46.87156" lon="5.31149">
        <ele>200.8</ele>
        <time>2022-03-21T12:59:16Z</time>
      </trkpt>
      <trkpt lat="46.87154" lon="5.3116">
        <ele>201</ele>
        <time>2022-03-21T12:59:17Z</time>
      </trkpt>
      <trkpt lat="46.87153" lon="5.3117">
        <ele>201</ele>
        <time>2022-03-21T12:59:18Z</time>
      </trkpt>
      <trkpt lat="46.87151" lon="5.3118">
        <ele>201</ele>
        <time>2022-03-21T12:59:19Z</time>
      </trkpt>
      <trkpt lat="46.87149" lon="5.31191">
        <ele>201</ele>
        <time>2022-03-21T12:59:20Z</time>
      </trkpt>
      <trkpt lat="46.87148" lon="5.31201">
        <ele>201.4</ele>
        <time>2022-03-21T12:59:21Z</time>
      </trkpt>
      <trkpt lat="46.87146" lon="5.31211">
        <ele>201.4</ele>
        <time>2022-03-21T12:59:22Z</time>
      </trkpt>
      <trkpt lat="46.87145" lon="5.31221">
        <ele>201.4</ele>
        <time>2022-03-21T12:59:23Z</time>
      </trkpt>
      <trkpt lat="46.87143" lon="5.31232">
        <ele>201</ele>
        <time>2022-03-21T12:59:24Z</time>
      </trkpt>
      <trkpt lat="46.87141" lon="5.31242">
        <ele>201</ele>
        <time>2022-03-21T12:59:25Z</time>
      </trkpt>
      <trkpt lat="46.87138" lon="5.31252">
        <ele>201</ele>
        <time>2022-03-21T12:59:26Z</time>
      </trkpt>
      <trkpt lat="46.87136" lon="5.31263">
        <ele>200.8</ele>
        <time>2022-03-21T12:59:27Z</time>
      </trkpt>
      <trkpt lat="46.87132" lon="5.31273">
        <ele>200.8</ele>
        <time>2022-03-21T12:59:28Z</time>
      </trkpt>
      <trkpt lat="46.87129" lon="5.31284">
        <ele>200.6</ele>
        <time>2022-03-21T12:59:29Z</time>
      </trkpt>
      <trkpt lat="46.87125" lon="5.31294">
        <ele>200.6</ele>
        <time>2022-03-21T12:59:30Z</time>
      </trkpt>
      <trkpt lat="46.8712" lon="5.31304">
        <ele>200.4</ele>
        <time>2022-03-21T12:59:31Z</time>
      </trkpt>
      <trkpt lat="46.87115" lon="5.31313">
        <ele>200.2</ele>
        <time>2022-03-21T12:59:32Z</time>
      </trkpt>
      <trkpt lat="46.87109" lon="5.31323">
        <ele>200</ele>
        <time>2022-03-21T12:59:33Z</time>
      </trkpt>
      <trkpt lat="46.87103" lon="5.31331">
        <ele>199.6</ele>
        <time>2022-03-21T12:59:34Z</time>
      </trkpt>
      <trkpt lat="46.87097" lon="5.3134">
        <ele>199.4</ele>
        <time>2022-03-21T12:59:35Z</time>
      </trkpt>
      <trkpt lat="46.8709" lon="5.31348">
        <ele>199.4</ele>
        <time>2022-03-21T12:59:36Z</time>
      </trkpt>
      <trkpt lat="46.87083" lon="5.31356">
        <ele>199.2</ele>
        <time>2022-03-21T12:59:37Z</time>
      </trkpt>
      <trkpt lat="46.87077" lon="5.31364">
        <ele>199.2</ele>
        <time>2022-03-21T12:59:38Z</time>
      </trkpt>
      <trkpt lat="46.87071" lon="5.31372">
        <ele>199.2</ele>
        <time>2022-03-21T12:59:39Z</time>
      </trkpt>
      <trkpt lat="46.87065" lon="5.31381">
        <ele>199.2</ele>
        <time>2022-03-21T12:59:40Z</time>
      </trkpt>
      <trkpt lat="46.87059" lon="5.31389">
        <ele>199.2</ele>
        <time>2022-03-21T12:59:41Z</time>
      </trkpt>
      <trkpt lat="46.87054" lon="5.31398">
        <ele>199.2</ele>
        <time>2022-03-21T12:59:42Z</time>
      </trkpt>
      <trkpt lat="46.87049" lon="5.31407">
        <ele>199.2</ele>
        <time>2022-03-21T12:59:43Z</time>
      </trkpt>
      <trkpt lat="46.87044" lon="5.31416">
        <ele>199.2</ele>
        <time>2022-03-21T12:59:44Z</time>
      </trkpt>
      <trkpt lat="46.8704" lon="5.31426">
        <ele>199.2</ele>
        <time>2022-03-21T12:59:45Z</time>
      </trkpt>
      <trkpt lat="46.87037" lon="5.31436">
        <ele>199</ele>
        <time>2022-03-21T12:59:46Z</time>
      </trkpt>
      <trkpt lat="46.87033" lon="5.31446">
        <ele>199</ele>
        <time>2022-03-21T12:59:47Z</time>
      </trkpt>
      <trkpt lat="46.8703" lon="5.31456">
        <ele>199</ele>
        <time>2022-03-21T12:59:48Z</time>
      </trkpt>
      <trkpt lat="46.87026" lon="5.31466">
        <ele>199</ele>
        <time>2022-03-21T12:59:49Z</time>
      </trkpt>
      <trkpt lat="46.87022" lon="5.31475">
        <ele>199</ele>
        <time>2022-03-21T12:59:50Z</time>
      </trkpt>
      <trkpt lat="46.87019" lon="5.31485">
        <ele>199</ele>
        <time>2022-03-21T12:59:51Z</time>
      </trkpt>
      <trkpt lat="46.87015" lon="5.31494">
        <ele>199</ele>
        <time>2022-03-21T12:59:52Z</time>
      </trkpt>
      <trkpt lat="46.87011" lon="5.31503">
        <ele>198.8</ele>
        <time>2022-03-21T12:59:53Z</time>
      </trkpt>
      <trkpt lat="46.87006" lon="5.31512">
        <ele>198.8</ele>
        <time>2022-03-21T12:59:54Z</time>
      </trkpt>
      <trkpt lat="46.87001" lon="5.3152">
        <ele>198.8</ele>
        <time>2022-03-21T12:59:55Z</time>
      </trkpt>
      <trkpt lat="46.86996" lon="5.31528">
        <ele>198.8</ele>
        <time>2022-03-21T12:59:56Z</time>
      </trkpt>
      <trkpt lat="46.8699" lon="5.31535">
        <ele>198.8</ele>
        <time>2022-03-21T12:59:57Z</time>
      </trkpt>
      <trkpt lat="46.86984" lon="5.31542">
        <ele>198.8</ele>
        <time>2022-03-21T12:59:58Z</time>
      </trkpt>
      <trkpt lat="46.86978" lon="5.31549">
        <ele>198.8</ele>
        <time>2022-03-21T12:59:59Z</time>
      </trkpt>
      <trkpt lat="46.86972" lon="5.31554">
        <ele>198.8</ele>
        <time>2022-03-21T13:00:00Z</time>
      </trkpt>
      <trkpt lat="46.86966" lon="5.3156">
        <ele>198.8</ele>
        <time>2022-03-21T13:00:01Z</time>
      </trkpt>
      <trkpt lat="46.8696" lon="5.31565">
        <ele>198.8</ele>
        <time>2022-03-21T13:00:02Z</time>
      </trkpt>
      <trkpt lat="46.86953" lon="5.31569">
        <ele>198.8</ele>
        <time>2022-03-21T13:00:03Z</time>
      </trkpt>
      <trkpt lat="46.86947" lon="5.31574">
        <ele>198.8</ele>
        <time>2022-03-21T13:00:04Z</time>
      </trkpt>
      <trkpt lat="46.86941" lon="5.31579">
        <ele>199</ele>
        <time>2022-03-21T13:00:05Z</time>
      </trkpt>
      <trkpt lat="46.86935" lon="5.31583">
        <ele>199</ele>
        <time>2022-03-21T13:00:06Z</time>
      </trkpt>
      <trkpt lat="46.86928" lon="5.31588">
        <ele>199.2</ele>
        <time>2022-03-21T13:00:07Z</time>
      </trkpt>
      <trkpt lat="46.86922" lon="5.31593">
        <ele>199.2</ele>
        <time>2022-03-21T13:00:08Z</time>
      </trkpt>
      <trkpt lat="46.86916" lon="5.31599">
        <ele>199.2</ele>
        <time>2022-03-21T13:00:09Z</time>
      </trkpt>
      <trkpt lat="46.8691" lon="5.31605">
        <ele>199.2</ele>
        <time>2022-03-21T13:00:10Z</time>
      </trkpt>
      <trkpt lat="46.86905" lon="5.31611">
        <ele>199.4</ele>
        <time>2022-03-21T13:00:11Z</time>
      </trkpt>
      <trkpt lat="46.869" lon="5.31618">
        <ele>199.4</ele>
        <time>2022-03-21T13:00:12Z</time>
      </trkpt>
      <trkpt lat="46.86895" lon="5.31625">
        <ele>199.4</ele>
        <time>2022-03-21T13:00:13Z</time>
      </trkpt>
      <trkpt lat="46.8689" lon="5.31633">
        <ele>199.6</ele>
        <time>2022-03-21T13:00:14Z</time>
      </trkpt>
      <trkpt lat="46.86886" lon="5.31641">
        <ele>199.6</ele>
        <time>2022-03-21T13:00:15Z</time>
      </trkpt>
      <trkpt lat="46.86882" lon="5.31649">
        <ele>199.6</ele>
        <time>2022-03-21T13:00:16Z</time>
      </trkpt>
      <trkpt lat="46.86878" lon="5.31658">
        <ele>200</ele>
        <time>2022-03-21T13:00:17Z</time>
      </trkpt>
      <trkpt lat="46.86873" lon="5.31666">
        <ele>200</ele>
        <time>2022-03-21T13:00:18Z</time>
      </trkpt>
      <trkpt lat="46.86869" lon="5.31675">
        <ele>200.2</ele>
        <time>2022-03-21T13:00:19Z</time>
      </trkpt>
      <trkpt lat="46.86865" lon="5.31683">
        <ele>200.2</ele>
        <time>2022-03-21T13:00:20Z</time>
      </trkpt>
      <trkpt lat="46.86861" lon="5.31691">
        <ele>200.6</ele>
        <time>2022-03-21T13:00:21Z</time>
      </trkpt>
      <trkpt lat="46.86857" lon="5.31699">
        <ele>200.6</ele>
        <time>2022-03-21T13:00:22Z</time>
      </trkpt>
      <trkpt lat="46.86854" lon="5.31706">
        <ele>200.8</ele>
        <time>2022-03-21T13:00:23Z</time>
      </trkpt>
      <trkpt lat="46.86847" lon="5.31721">
        <ele>200.8</ele>
        <time>2022-03-21T13:00:24Z</time>
      </trkpt>
      <trkpt lat="46.86844" lon="5.31728">
        <ele>201.2</ele>
        <time>2022-03-21T13:00:25Z</time>
      </trkpt>
      <trkpt lat="46.8684" lon="5.31735">
        <ele>201.6</ele>
        <time>2022-03-21T13:00:26Z</time>
      </trkpt>
      <trkpt lat="46.86837" lon="5.31741">
        <ele>201.6</ele>
        <time>2022-03-21T13:00:27Z</time>
      </trkpt>
      <trkpt lat="46.86834" lon="5.31748">
        <ele>202</ele>
        <time>2022-03-21T13:00:28Z</time>
      </trkpt>
      <trkpt lat="46.86831" lon="5.31754">
        <ele>202.2</ele>
        <time>2022-03-21T13:00:29Z</time>
      </trkpt>
      <trkpt lat="46.86828" lon="5.31761">
        <ele>202.6</ele>
        <time>2022-03-21T13:00:30Z</time>
      </trkpt>
      <trkpt lat="46.86826" lon="5.31767">
        <ele>202.8</ele>
        <time>2022-03-21T13:00:31Z</time>
      </trkpt>
      <trkpt lat="46.86823" lon="5.31773">
        <ele>203</ele>
        <time>2022-03-21T13:00:32Z</time>
      </trkpt>
      <trkpt lat="46.8682" lon="5.31779">
        <ele>203.2</ele>
        <time>2022-03-21T13:00:33Z</time>
      </trkpt>
      <trkpt lat="46.86817" lon="5.31785">
        <ele>203.4</ele>
        <time>2022-03-21T13:00:34Z</time>
      </trkpt>
      <trkpt lat="46.86814" lon="5.3179">
        <ele>203.4</ele>
        <time>2022-03-21T13:00:35Z</time>
      </trkpt>
      <trkpt lat="46.86812" lon="5.31796">
        <ele>203.8</ele>
        <time>2022-03-21T13:00:36Z</time>
      </trkpt>
      <trkpt lat="46.86809" lon="5.31802">
        <ele>204</ele>
        <time>2022-03-21T13:00:37Z</time>
      </trkpt>
      <trkpt lat="46.86807" lon="5.31808">
        <ele>204</ele>
        <time>2022-03-21T13:00:38Z</time>
      </trkpt>
      <trkpt lat="46.86804" lon="5.31814">
        <ele>204.4</ele>
        <time>2022-03-21T13:00:39Z</time>
      </trkpt>
      <trkpt lat="46.86801" lon="5.31819">
        <ele>204.4</ele>
        <time>2022-03-21T13:00:40Z</time>
      </trkpt>
      <trkpt lat="46.86799" lon="5.31824">
        <ele>204.8</ele>
        <time>2022-03-21T13:00:41Z</time>
      </trkpt>
      <trkpt lat="46.86796" lon="5.3183">
        <ele>205</ele>
        <time>2022-03-21T13:00:42Z</time>
      </trkpt>
      <trkpt lat="46.86794" lon="5.31835">
        <ele>205.2</ele>
        <time>2022-03-21T13:00:43Z</time>
      </trkpt>
      <trkpt lat="46.86792" lon="5.31841">
        <ele>205.4</ele>
        <time>2022-03-21T13:00:44Z</time>
      </trkpt>
      <trkpt lat="46.86789" lon="5.31846">
        <ele>205.8</ele>
        <time>2022-03-21T13:00:45Z</time>
      </trkpt>
      <trkpt lat="46.86787" lon="5.31851">
        <ele>206</ele>
        <time>2022-03-21T13:00:46Z</time>
      </trkpt>
      <trkpt lat="46.86784" lon="5.31856">
        <ele>206</ele>
        <time>2022-03-21T13:00:47Z</time>
      </trkpt>
      <trkpt lat="46.86782" lon="5.31861">
        <ele>206.4</ele>
        <time>2022-03-21T13:00:48Z</time>
      </trkpt>
      <trkpt lat="46.8678" lon="5.31866">
        <ele>206.8</ele>
        <time>2022-03-21T13:00:49Z</time>
      </trkpt>
      <trkpt lat="46.86778" lon="5.31871">
        <ele>207</ele>
        <time>2022-03-21T13:00:50Z</time>
      </trkpt>
      <trkpt lat="46.86775" lon="5.31876">
        <ele>207</ele>
        <time>2022-03-21T13:00:51Z</time>
      </trkpt>
      <trkpt lat="46.86773" lon="5.31881">
        <ele>207.6</ele>
        <time>2022-03-21T13:00:52Z</time>
      </trkpt>
      <trkpt lat="46.86771" lon="5.31885">
        <ele>207.8</ele>
        <time>2022-03-21T13:00:53Z</time>
      </trkpt>
      <trkpt lat="46.86769" lon="5.3189">
        <ele>208.2</ele>
        <time>2022-03-21T13:00:54Z</time>
      </trkpt>
      <trkpt lat="46.86767" lon="5.31895">
        <ele>208.4</ele>
        <time>2022-03-21T13:00:55Z</time>
      </trkpt>
      <trkpt lat="46.86765" lon="5.319">
        <ele>208.6</ele>
        <time>2022-03-21T13:00:56Z</time>
      </trkpt>
      <trkpt lat="46.86763" lon="5.31905">
        <ele>209</ele>
        <time>2022-03-21T13:00:57Z</time>
      </trkpt>
      <trkpt lat="46.86761" lon="5.31909">
        <ele>209.2</ele>
        <time>2022-03-21T13:00:58Z</time>
      </trkpt>
      <trkpt lat="46.86758" lon="5.31914">
        <ele>209.4</ele>
        <time>2022-03-21T13:00:59Z</time>
      </trkpt>
      <trkpt lat="46.86756" lon="5.31918">
        <ele>209.8</ele>
        <time>2022-03-21T13:01:00Z</time>
      </trkpt>
      <trkpt lat="46.86754" lon="5.31922">
        <ele>210</ele>
        <time>2022-03-21T13:01:01Z</time>
      </trkpt>
      <trkpt lat="46.86752" lon="5.31927">
        <ele>210.2</ele>
        <time>2022-03-21T13:01:02Z</time>
      </trkpt>
      <trkpt lat="46.8675" lon="5.31931">
        <ele>210.4</ele>
        <time>2022-03-21T13:01:03Z</time>
      </trkpt>
      <trkpt lat="46.86748" lon="5.31936">
        <ele>210.6</ele>
        <time>2022-03-21T13:01:04Z</time>
      </trkpt>
      <trkpt lat="46.86746" lon="5.3194">
        <ele>211</ele>
        <time>2022-03-21T13:01:05Z</time>
      </trkpt>
      <trkpt lat="46.86744" lon="5.31945">
        <ele>211.2</ele>
        <time>2022-03-21T13:01:06Z</time>
      </trkpt>
      <trkpt lat="46.86742" lon="5.3195">
        <ele>211.2</ele>
        <time>2022-03-21T13:01:07Z</time>
      </trkpt>
      <trkpt lat="46.8674" lon="5.31955">
        <ele>211.4</ele>
        <time>2022-03-21T13:01:08Z</time>
      </trkpt>
      <trkpt lat="46.86738" lon="5.3196">
        <ele>211.4</ele>
        <time>2022-03-21T13:01:09Z</time>
      </trkpt>
      <trkpt lat="46.86735" lon="5.31965">
        <ele>211.8</ele>
        <time>2022-03-21T13:01:10Z</time>
      </trkpt>
      <trkpt lat="46.86732" lon="5.31969">
        <ele>211.8</ele>
        <time>2022-03-21T13:01:11Z</time>
      </trkpt>
      <trkpt lat="46.8673" lon="5.31974">
        <ele>212</ele>
        <time>2022-03-21T13:01:12Z</time>
      </trkpt>
      <trkpt lat="46.86727" lon="5.3198">
        <ele>212</ele>
        <time>2022-03-21T13:01:13Z</time>
      </trkpt>
      <trkpt lat="46.86725" lon="5.31985">
        <ele>212</ele>
        <time>2022-03-21T13:01:14Z</time>
      </trkpt>
      <trkpt lat="46.86723" lon="5.31991">
        <ele>212.2</ele>
        <time>2022-03-21T13:01:15Z</time>
      </trkpt>
      <trkpt lat="46.86721" lon="5.31997">
        <ele>212.2</ele>
        <time>2022-03-21T13:01:16Z</time>
      </trkpt>
      <trkpt lat="46.86718" lon="5.32003">
        <ele>212.2</ele>
        <time>2022-03-21T13:01:17Z</time>
      </trkpt>
      <trkpt lat="46.86715" lon="5.32008">
        <ele>212.4</ele>
        <time>2022-03-21T13:01:18Z</time>
      </trkpt>
      <trkpt lat="46.86713" lon="5.32014">
        <ele>212.4</ele>
        <time>2022-03-21T13:01:19Z</time>
      </trkpt>
      <trkpt lat="46.8671" lon="5.3202">
        <ele>212.4</ele>
        <time>2022-03-21T13:01:20Z</time>
      </trkpt>
      <trkpt lat="46.86707" lon="5.32026">
        <ele>212.4</ele>
        <time>2022-03-21T13:01:21Z</time>
      </trkpt>
      <trkpt lat="46.86704" lon="5.32032">
        <ele>212.4</ele>
        <time>2022-03-21T13:01:22Z</time>
      </trkpt>
      <trkpt lat="46.86702" lon="5.32039">
        <ele>212.4</ele>
        <time>2022-03-21T13:01:23Z</time>
      </trkpt>
      <trkpt lat="46.86699" lon="5.32045">
        <ele>212.4</ele>
        <time>2022-03-21T13:01:24Z</time>
      </trkpt>
      <trkpt lat="46.86696" lon="5.32051">
        <ele>212.4</ele>
        <time>2022-03-21T13:01:25Z</time>
      </trkpt>
      <trkpt lat="46.86693" lon="5.32058">
        <ele>212.8</ele>
        <time>2022-03-21T13:01:26Z</time>
      </trkpt>
      <trkpt lat="46.8669" lon="5.32064">
        <ele>212.8</ele>
        <time>2022-03-21T13:01:27Z</time>
      </trkpt>
      <trkpt lat="46.86687" lon="5.32071">
        <ele>212.8</ele>
        <time>2022-03-21T13:01:28Z</time>
      </trkpt>
      <trkpt lat="46.86684" lon="5.32077">
        <ele>212.8</ele>
        <time>2022-03-21T13:01:29Z</time>
      </trkpt>
      <trkpt lat="46.86681" lon="5.32084">
        <ele>212.8</ele>
        <time>2022-03-21T13:01:30Z</time>
      </trkpt>
      <trkpt lat="46.86678" lon="5.3209">
        <ele>212.8</ele>
        <time>2022-03-21T13:01:31Z</time>
      </trkpt>
      <trkpt lat="46.86675" lon="5.32097">
        <ele>212.8</ele>
        <time>2022-03-21T13:01:32Z</time>
      </trkpt>
      <trkpt lat="46.86672" lon="5.32104">
        <ele>212.8</ele>
        <time>2022-03-21T13:01:33Z</time>
      </trkpt>
      <trkpt lat="46.86669" lon="5.3211">
        <ele>212.8</ele>
        <time>2022-03-21T13:01:34Z</time>
      </trkpt>
      <trkpt lat="46.86666" lon="5.32117">
        <ele>212.8</ele>
        <time>2022-03-21T13:01:35Z</time>
      </trkpt>
      <trkpt lat="46.86663" lon="5.32124">
        <ele>212.8</ele>
        <time>2022-03-21T13:01:36Z</time>
      </trkpt>
      <trkpt lat="46.8666" lon="5.3213">
        <ele>212.8</ele>
        <time>2022-03-21T13:01:37Z</time>
      </trkpt>
      <trkpt lat="46.86657" lon="5.32137">
        <ele>213</ele>
        <time>2022-03-21T13:01:38Z</time>
      </trkpt>
      <trkpt lat="46.86654" lon="5.32144">
        <ele>213</ele>
        <time>2022-03-21T13:01:39Z</time>
      </trkpt>
      <trkpt lat="46.86651" lon="5.32151">
        <ele>213</ele>
        <time>2022-03-21T13:01:40Z</time>
      </trkpt>
      <trkpt lat="46.86648" lon="5.32158">
        <ele>213</ele>
        <time>2022-03-21T13:01:41Z</time>
      </trkpt>
      <trkpt lat="46.86645" lon="5.32165">
        <ele>213</ele>
        <time>2022-03-21T13:01:42Z</time>
      </trkpt>
      <trkpt lat="46.86642" lon="5.32171">
        <ele>213.2</ele>
        <time>2022-03-21T13:01:43Z</time>
      </trkpt>
      <trkpt lat="46.86639" lon="5.32178">
        <ele>213.2</ele>
        <time>2022-03-21T13:01:44Z</time>
      </trkpt>
      <trkpt lat="46.86636" lon="5.32185">
        <ele>213.4</ele>
        <time>2022-03-21T13:01:45Z</time>
      </trkpt>
      <trkpt lat="46.86633" lon="5.32191">
        <ele>213.4</ele>
        <time>2022-03-21T13:01:46Z</time>
      </trkpt>
      <trkpt lat="46.8663" lon="5.32198">
        <ele>213.4</ele>
        <time>2022-03-21T13:01:47Z</time>
      </trkpt>
      <trkpt lat="46.86626" lon="5.32204">
        <ele>213.4</ele>
        <time>2022-03-21T13:01:48Z</time>
      </trkpt>
      <trkpt lat="46.86623" lon="5.32211">
        <ele>213.4</ele>
        <time>2022-03-21T13:01:49Z</time>
      </trkpt>
      <trkpt lat="46.8662" lon="5.32218">
        <ele>213.4</ele>
        <time>2022-03-21T13:01:50Z</time>
      </trkpt>
      <trkpt lat="46.86617" lon="5.32225">
        <ele>213.4</ele>
        <time>2022-03-21T13:01:51Z</time>
      </trkpt>
      <trkpt lat="46.86614" lon="5.32232">
        <ele>213.4</ele>
        <time>2022-03-21T13:01:52Z</time>
      </trkpt>
      <trkpt lat="46.86611" lon="5.32239">
        <ele>213.4</ele>
        <time>2022-03-21T13:01:53Z</time>
      </trkpt>
      <trkpt lat="46.86607" lon="5.32247">
        <ele>213.4</ele>
        <time>2022-03-21T13:01:54Z</time>
      </trkpt>
      <trkpt lat="46.86604" lon="5.32254">
        <ele>213.4</ele>
        <time>2022-03-21T13:01:55Z</time>
      </trkpt>
      <trkpt lat="46.866" lon="5.32262">
        <ele>213.4</ele>
        <time>2022-03-21T13:01:56Z</time>
      </trkpt>
      <trkpt lat="46.86597" lon="5.32271">
        <ele>213.4</ele>
        <time>2022-03-21T13:01:57Z</time>
      </trkpt>
      <trkpt lat="46.86593" lon="5.32279">
        <ele>213.4</ele>
        <time>2022-03-21T13:01:58Z</time>
      </trkpt>
      <trkpt lat="46.86589" lon="5.32287">
        <ele>213.2</ele>
        <time>2022-03-21T13:01:59Z</time>
      </trkpt>
      <trkpt lat="46.86586" lon="5.32295">
        <ele>213.2</ele>
        <time>2022-03-21T13:02:00Z</time>
      </trkpt>
      <trkpt lat="46.86582" lon="5.32304">
        <ele>213.2</ele>
        <time>2022-03-21T13:02:01Z</time>
      </trkpt>
      <trkpt lat="46.86578" lon="5.32312">
        <ele>213.2</ele>
        <time>2022-03-21T13:02:02Z</time>
      </trkpt>
      <trkpt lat="46.86575" lon="5.3232">
        <ele>213.2</ele>
        <time>2022-03-21T13:02:03Z</time>
      </trkpt>
      <trkpt lat="46.86571" lon="5.32328">
        <ele>213.2</ele>
        <time>2022-03-21T13:02:04Z</time>
      </trkpt>
      <trkpt lat="46.86568" lon="5.32335">
        <ele>213.2</ele>
        <time>2022-03-21T13:02:05Z</time>
      </trkpt>
      <trkpt lat="46.86565" lon="5.32343">
        <ele>213.2</ele>
        <time>2022-03-21T13:02:06Z</time>
      </trkpt>
      <trkpt lat="46.86561" lon="5.3235">
        <ele>213.2</ele>
        <time>2022-03-21T13:02:07Z</time>
      </trkpt>
      <trkpt lat="46.86558" lon="5.32357">
        <ele>213.4</ele>
        <time>2022-03-21T13:02:08Z</time>
      </trkpt>
      <trkpt lat="46.86555" lon="5.32364">
        <ele>213.4</ele>
        <time>2022-03-21T13:02:09Z</time>
      </trkpt>
      <trkpt lat="46.86551" lon="5.32371">
        <ele>213.4</ele>
        <time>2022-03-21T13:02:10Z</time>
      </trkpt>
      <trkpt lat="46.86548" lon="5.32377">
        <ele>213.8</ele>
        <time>2022-03-21T13:02:11Z</time>
      </trkpt>
      <trkpt lat="46.86546" lon="5.32384">
        <ele>214</ele>
        <time>2022-03-21T13:02:12Z</time>
      </trkpt>
      <trkpt lat="46.86542" lon="5.32391">
        <ele>214.2</ele>
        <time>2022-03-21T13:02:13Z</time>
      </trkpt>
      <trkpt lat="46.86539" lon="5.32397">
        <ele>214.4</ele>
        <time>2022-03-21T13:02:14Z</time>
      </trkpt>
      <trkpt lat="46.86537" lon="5.32404">
        <ele>214.6</ele>
        <time>2022-03-21T13:02:15Z</time>
      </trkpt>
      <trkpt lat="46.86534" lon="5.3241">
        <ele>214.6</ele>
        <time>2022-03-21T13:02:16Z</time>
      </trkpt>
      <trkpt lat="46.86531" lon="5.32417">
        <ele>214.8</ele>
        <time>2022-03-21T13:02:17Z</time>
      </trkpt>
      <trkpt lat="46.86528" lon="5.32423">
        <ele>214.8</ele>
        <time>2022-03-21T13:02:18Z</time>
      </trkpt>
      <trkpt lat="46.86525" lon="5.3243">
        <ele>214.8</ele>
        <time>2022-03-21T13:02:19Z</time>
      </trkpt>
      <trkpt lat="46.86522" lon="5.32437">
        <ele>214.8</ele>
        <time>2022-03-21T13:02:20Z</time>
      </trkpt>
      <trkpt lat="46.86519" lon="5.32443">
        <ele>215.2</ele>
        <time>2022-03-21T13:02:21Z</time>
      </trkpt>
      <trkpt lat="46.86516" lon="5.3245">
        <ele>215.2</ele>
        <time>2022-03-21T13:02:23Z</time>
      </trkpt>
      <trkpt lat="46.86513" lon="5.32457">
        <ele>215.2</ele>
        <time>2022-03-21T13:02:24Z</time>
      </trkpt>
      <trkpt lat="46.8651" lon="5.32463">
        <ele>215.2</ele>
        <time>2022-03-21T13:02:25Z</time>
      </trkpt>
      <trkpt lat="46.86507" lon="5.3247">
        <ele>215.2</ele>
        <time>2022-03-21T13:02:26Z</time>
      </trkpt>
      <trkpt lat="46.86504" lon="5.32477">
        <ele>215.2</ele>
        <time>2022-03-21T13:02:27Z</time>
      </trkpt>
      <trkpt lat="46.86501" lon="5.32484">
        <ele>215.4</ele>
        <time>2022-03-21T13:02:28Z</time>
      </trkpt>
      <trkpt lat="46.86498" lon="5.32491">
        <ele>215.4</ele>
        <time>2022-03-21T13:02:29Z</time>
      </trkpt>
      <trkpt lat="46.86495" lon="5.32498">
        <ele>215.4</ele>
        <time>2022-03-21T13:02:30Z</time>
      </trkpt>
      <trkpt lat="46.86492" lon="5.32505">
        <ele>215.4</ele>
        <time>2022-03-21T13:02:31Z</time>
      </trkpt>
      <trkpt lat="46.86488" lon="5.32512">
        <ele>215.8</ele>
        <time>2022-03-21T13:02:32Z</time>
      </trkpt>
      <trkpt lat="46.86485" lon="5.32519">
        <ele>215.8</ele>
        <time>2022-03-21T13:02:33Z</time>
      </trkpt>
      <trkpt lat="46.86482" lon="5.32526">
        <ele>215.8</ele>
        <time>2022-03-21T13:02:34Z</time>
      </trkpt>
      <trkpt lat="46.86478" lon="5.32533">
        <ele>215.8</ele>
        <time>2022-03-21T13:02:35Z</time>
      </trkpt>
      <trkpt lat="46.86475" lon="5.3254">
        <ele>215.8</ele>
        <time>2022-03-21T13:02:36Z</time>
      </trkpt>
      <trkpt lat="46.86472" lon="5.32548">
        <ele>216</ele>
        <time>2022-03-21T13:02:37Z</time>
      </trkpt>
      <trkpt lat="46.86469" lon="5.32555">
        <ele>216</ele>
        <time>2022-03-21T13:02:38Z</time>
      </trkpt>
      <trkpt lat="46.86465" lon="5.32562">
        <ele>216.2</ele>
        <time>2022-03-21T13:02:39Z</time>
      </trkpt>
      <trkpt lat="46.86462" lon="5.32569">
        <ele>216.2</ele>
        <time>2022-03-21T13:02:40Z</time>
      </trkpt>
      <trkpt lat="46.86458" lon="5.32577">
        <ele>216.2</ele>
        <time>2022-03-21T13:02:41Z</time>
      </trkpt>
      <trkpt lat="46.86455" lon="5.32584">
        <ele>216.2</ele>
        <time>2022-03-21T13:02:42Z</time>
      </trkpt>
      <trkpt lat="46.86452" lon="5.32592">
        <ele>216.2</ele>
        <time>2022-03-21T13:02:43Z</time>
      </trkpt>
      <trkpt lat="46.86448" lon="5.326">
        <ele>216.2</ele>
        <time>2022-03-21T13:02:44Z</time>
      </trkpt>
      <trkpt lat="46.86445" lon="5.32608">
        <ele>216.2</ele>
        <time>2022-03-21T13:02:45Z</time>
      </trkpt>
      <trkpt lat="46.86442" lon="5.32615">
        <ele>216.2</ele>
        <time>2022-03-21T13:02:46Z</time>
      </trkpt>
      <trkpt lat="46.86438" lon="5.32623">
        <ele>216.2</ele>
        <time>2022-03-21T13:02:47Z</time>
      </trkpt>
      <trkpt lat="46.86435" lon="5.32631">
        <ele>216.2</ele>
        <time>2022-03-21T13:02:48Z</time>
      </trkpt>
      <trkpt lat="46.86431" lon="5.32639">
        <ele>216.2</ele>
        <time>2022-03-21T13:02:49Z</time>
      </trkpt>
      <trkpt lat="46.86428" lon="5.32647">
        <ele>216.2</ele>
        <time>2022-03-21T13:02:50Z</time>
      </trkpt>
      <trkpt lat="46.86424" lon="5.32655">
        <ele>216.2</ele>
        <time>2022-03-21T13:02:51Z</time>
      </trkpt>
      <trkpt lat="46.86421" lon="5.32663">
        <ele>216</ele>
        <time>2022-03-21T13:02:52Z</time>
      </trkpt>
      <trkpt lat="46.86417" lon="5.3267">
        <ele>216</ele>
        <time>2022-03-21T13:02:53Z</time>
      </trkpt>
      <trkpt lat="46.86413" lon="5.32678">
        <ele>216</ele>
        <time>2022-03-21T13:02:54Z</time>
      </trkpt>
      <trkpt lat="46.8641" lon="5.32686">
        <ele>216</ele>
        <time>2022-03-21T13:02:55Z</time>
      </trkpt>
      <trkpt lat="46.86407" lon="5.32694">
        <ele>216</ele>
        <time>2022-03-21T13:02:56Z</time>
      </trkpt>
      <trkpt lat="46.86403" lon="5.32702">
        <ele>216</ele>
        <time>2022-03-21T13:02:57Z</time>
      </trkpt>
      <trkpt lat="46.864" lon="5.3271">
        <ele>216</ele>
        <time>2022-03-21T13:02:58Z</time>
      </trkpt>
      <trkpt lat="46.86396" lon="5.32717">
        <ele>216</ele>
        <time>2022-03-21T13:02:59Z</time>
      </trkpt>
      <trkpt lat="46.86393" lon="5.32724">
        <ele>215.8</ele>
        <time>2022-03-21T13:03:00Z</time>
      </trkpt>
      <trkpt lat="46.86389" lon="5.32732">
        <ele>215.8</ele>
        <time>2022-03-21T13:03:01Z</time>
      </trkpt>
      <trkpt lat="46.86386" lon="5.32739">
        <ele>215.8</ele>
        <time>2022-03-21T13:03:02Z</time>
      </trkpt>
      <trkpt lat="46.86383" lon="5.32747">
        <ele>215.8</ele>
        <time>2022-03-21T13:03:03Z</time>
      </trkpt>
      <trkpt lat="46.86379" lon="5.32755">
        <ele>215.8</ele>
        <time>2022-03-21T13:03:04Z</time>
      </trkpt>
      <trkpt lat="46.86375" lon="5.32763">
        <ele>215.6</ele>
        <time>2022-03-21T13:03:05Z</time>
      </trkpt>
      <trkpt lat="46.86372" lon="5.32771">
        <ele>215.6</ele>
        <time>2022-03-21T13:03:06Z</time>
      </trkpt>
      <trkpt lat="46.86368" lon="5.3278">
        <ele>215.2</ele>
        <time>2022-03-21T13:03:07Z</time>
      </trkpt>
      <trkpt lat="46.86364" lon="5.32789">
        <ele>215</ele>
        <time>2022-03-21T13:03:08Z</time>
      </trkpt>
      <trkpt lat="46.8636" lon="5.32798">
        <ele>214.8</ele>
        <time>2022-03-21T13:03:09Z</time>
      </trkpt>
      <trkpt lat="46.86355" lon="5.32808">
        <ele>214.4</ele>
        <time>2022-03-21T13:03:10Z</time>
      </trkpt>
      <trkpt lat="46.86351" lon="5.32818">
        <ele>214</ele>
        <time>2022-03-21T13:03:11Z</time>
      </trkpt>
      <trkpt lat="46.86346" lon="5.32828">
        <ele>213.6</ele>
        <time>2022-03-21T13:03:12Z</time>
      </trkpt>
      <trkpt lat="46.86341" lon="5.32839">
        <ele>213.4</ele>
        <time>2022-03-21T13:03:13Z</time>
      </trkpt>
      <trkpt lat="46.86336" lon="5.3285">
        <ele>213</ele>
        <time>2022-03-21T13:03:14Z</time>
      </trkpt>
      <trkpt lat="46.86331" lon="5.32861">
        <ele>212.6</ele>
        <time>2022-03-21T13:03:15Z</time>
      </trkpt>
      <trkpt lat="46.86325" lon="5.32873">
        <ele>212.6</ele>
        <time>2022-03-21T13:03:16Z</time>
      </trkpt>
      <trkpt lat="46.8632" lon="5.32886">
        <ele>212.2</ele>
        <time>2022-03-21T13:03:17Z</time>
      </trkpt>
      <trkpt lat="46.86315" lon="5.32897">
        <ele>212.2</ele>
        <time>2022-03-21T13:03:18Z</time>
      </trkpt>
      <trkpt lat="46.8631" lon="5.32907">
        <ele>212.2</ele>
        <time>2022-03-21T13:03:19Z</time>
      </trkpt>
      <trkpt lat="46.86306" lon="5.32918">
        <ele>212.2</ele>
        <time>2022-03-21T13:03:20Z</time>
      </trkpt>
      <trkpt lat="46.86302" lon="5.32928">
        <ele>212.2</ele>
        <time>2022-03-21T13:03:21Z</time>
      </trkpt>
      <trkpt lat="46.86297" lon="5.32937">
        <ele>212.2</ele>
        <time>2022-03-21T13:03:22Z</time>
      </trkpt>
      <trkpt lat="46.86293" lon="5.32946">
        <ele>212.2</ele>
        <time>2022-03-21T13:03:23Z</time>
      </trkpt>
      <trkpt lat="46.86289" lon="5.32954">
        <ele>212.6</ele>
        <time>2022-03-21T13:03:24Z</time>
      </trkpt>
      <trkpt lat="46.86285" lon="5.32962">
        <ele>212.8</ele>
        <time>2022-03-21T13:03:25Z</time>
      </trkpt>
      <trkpt lat="46.86281" lon="5.32969">
        <ele>213</ele>
        <time>2022-03-21T13:03:26Z</time>
      </trkpt>
      <trkpt lat="46.86278" lon="5.32977">
        <ele>213.2</ele>
        <time>2022-03-21T13:03:27Z</time>
      </trkpt>
      <trkpt lat="46.86274" lon="5.32984">
        <ele>213.6</ele>
        <time>2022-03-21T13:03:28Z</time>
      </trkpt>
      <trkpt lat="46.86271" lon="5.32991">
        <ele>214</ele>
        <time>2022-03-21T13:03:29Z</time>
      </trkpt>
      <trkpt lat="46.86268" lon="5.32998">
        <ele>214.2</ele>
        <time>2022-03-21T13:03:30Z</time>
      </trkpt>
      <trkpt lat="46.86265" lon="5.33005">
        <ele>214.8</ele>
        <time>2022-03-21T13:03:31Z</time>
      </trkpt>
      <trkpt lat="46.86262" lon="5.33012">
        <ele>215</ele>
        <time>2022-03-21T13:03:32Z</time>
      </trkpt>
      <trkpt lat="46.86259" lon="5.33018">
        <ele>215.2</ele>
        <time>2022-03-21T13:03:33Z</time>
      </trkpt>
      <trkpt lat="46.86256" lon="5.33025">
        <ele>215.2</ele>
        <time>2022-03-21T13:03:34Z</time>
      </trkpt>
      <trkpt lat="46.86253" lon="5.33031">
        <ele>215.6</ele>
        <time>2022-03-21T13:03:35Z</time>
      </trkpt>
      <trkpt lat="46.8625" lon="5.33038">
        <ele>215.6</ele>
        <time>2022-03-21T13:03:36Z</time>
      </trkpt>
      <trkpt lat="46.86247" lon="5.33044">
        <ele>215.6</ele>
        <time>2022-03-21T13:03:37Z</time>
      </trkpt>
      <trkpt lat="46.86244" lon="5.33051">
        <ele>215.6</ele>
        <time>2022-03-21T13:03:38Z</time>
      </trkpt>
      <trkpt lat="46.86241" lon="5.33058">
        <ele>216</ele>
        <time>2022-03-21T13:03:39Z</time>
      </trkpt>
      <trkpt lat="46.86237" lon="5.33065">
        <ele>216</ele>
        <time>2022-03-21T13:03:40Z</time>
      </trkpt>
      <trkpt lat="46.86234" lon="5.33072">
        <ele>216.2</ele>
        <time>2022-03-21T13:03:41Z</time>
      </trkpt>
      <trkpt lat="46.86231" lon="5.33079">
        <ele>216.2</ele>
        <time>2022-03-21T13:03:42Z</time>
      </trkpt>
      <trkpt lat="46.86228" lon="5.33087">
        <ele>216.2</ele>
        <time>2022-03-21T13:03:43Z</time>
      </trkpt>
      <trkpt lat="46.86225" lon="5.33094">
        <ele>216.2</ele>
        <time>2022-03-21T13:03:44Z</time>
      </trkpt>
      <trkpt lat="46.86222" lon="5.33101">
        <ele>216.2</ele>
        <time>2022-03-21T13:03:45Z</time>
      </trkpt>
      <trkpt lat="46.86219" lon="5.33109">
        <ele>216.2</ele>
        <time>2022-03-21T13:03:46Z</time>
      </trkpt>
      <trkpt lat="46.86215" lon="5.33116">
        <ele>216.2</ele>
        <time>2022-03-21T13:03:47Z</time>
      </trkpt>
      <trkpt lat="46.86212" lon="5.33123">
        <ele>216.2</ele>
        <time>2022-03-21T13:03:48Z</time>
      </trkpt>
      <trkpt lat="46.86209" lon="5.3313">
        <ele>216.2</ele>
        <time>2022-03-21T13:03:49Z</time>
      </trkpt>
      <trkpt lat="46.86205" lon="5.33137">
        <ele>216.2</ele>
        <time>2022-03-21T13:03:50Z</time>
      </trkpt>
      <trkpt lat="46.86202" lon="5.33144">
        <ele>216.2</ele>
        <time>2022-03-21T13:03:51Z</time>
      </trkpt>
      <trkpt lat="46.86199" lon="5.33151">
        <ele>216.2</ele>
        <time>2022-03-21T13:03:52Z</time>
      </trkpt>
      <trkpt lat="46.86195" lon="5.33158">
        <ele>216.2</ele>
        <time>2022-03-21T13:03:53Z</time>
      </trkpt>
      <trkpt lat="46.86192" lon="5.33165">
        <ele>216.2</ele>
        <time>2022-03-21T13:03:54Z</time>
      </trkpt>
      <trkpt lat="46.86189" lon="5.33172">
        <ele>216.4</ele>
        <time>2022-03-21T13:03:55Z</time>
      </trkpt>
      <trkpt lat="46.86186" lon="5.33179">
        <ele>216.4</ele>
        <time>2022-03-21T13:03:56Z</time>
      </trkpt>
      <trkpt lat="46.86183" lon="5.33186">
        <ele>216.4</ele>
        <time>2022-03-21T13:03:57Z</time>
      </trkpt>
      <trkpt lat="46.8618" lon="5.33193">
        <ele>216.4</ele>
        <time>2022-03-21T13:03:58Z</time>
      </trkpt>
      <trkpt lat="46.86176" lon="5.33201">
        <ele>216.4</ele>
        <time>2022-03-21T13:03:59Z</time>
      </trkpt>
      <trkpt lat="46.86173" lon="5.33207">
        <ele>216.4</ele>
        <time>2022-03-21T13:04:00Z</time>
      </trkpt>
      <trkpt lat="46.8617" lon="5.33215">
        <ele>216.4</ele>
        <time>2022-03-21T13:04:01Z</time>
      </trkpt>
      <trkpt lat="46.86167" lon="5.33222">
        <ele>216.6</ele>
        <time>2022-03-21T13:04:02Z</time>
      </trkpt>
      <trkpt lat="46.86164" lon="5.33229">
        <ele>216.6</ele>
        <time>2022-03-21T13:04:03Z</time>
      </trkpt>
      <trkpt lat="46.86161" lon="5.33236">
        <ele>216.6</ele>
        <time>2022-03-21T13:04:04Z</time>
      </trkpt>
      <trkpt lat="46.86158" lon="5.33243">
        <ele>216.6</ele>
        <time>2022-03-21T13:04:05Z</time>
      </trkpt>
      <trkpt lat="46.86154" lon="5.3325">
        <ele>216.6</ele>
        <time>2022-03-21T13:04:06Z</time>
      </trkpt>
      <trkpt lat="46.86151" lon="5.33258">
        <ele>216.6</ele>
        <time>2022-03-21T13:04:07Z</time>
      </trkpt>
      <trkpt lat="46.86147" lon="5.33265">
        <ele>216.6</ele>
        <time>2022-03-21T13:04:08Z</time>
      </trkpt>
      <trkpt lat="46.86144" lon="5.33273">
        <ele>216.6</ele>
        <time>2022-03-21T13:04:09Z</time>
      </trkpt>
      <trkpt lat="46.8614" lon="5.3328">
        <ele>216.6</ele>
        <time>2022-03-21T13:04:10Z</time>
      </trkpt>
      <trkpt lat="46.86137" lon="5.33288">
        <ele>216.6</ele>
        <time>2022-03-21T13:04:11Z</time>
      </trkpt>
      <trkpt lat="46.86133" lon="5.33296">
        <ele>216.6</ele>
        <time>2022-03-21T13:04:12Z</time>
      </trkpt>
      <trkpt lat="46.86129" lon="5.33304">
        <ele>216.6</ele>
        <time>2022-03-21T13:04:13Z</time>
      </trkpt>
      <trkpt lat="46.86126" lon="5.33312">
        <ele>216.6</ele>
        <time>2022-03-21T13:04:14Z</time>
      </trkpt>
      <trkpt lat="46.86122" lon="5.3332">
        <ele>216.6</ele>
        <time>2022-03-21T13:04:15Z</time>
      </trkpt>
      <trkpt lat="46.86119" lon="5.33328">
        <ele>216.6</ele>
        <time>2022-03-21T13:04:16Z</time>
      </trkpt>
      <trkpt lat="46.86115" lon="5.33336">
        <ele>216.6</ele>
        <time>2022-03-21T13:04:17Z</time>
      </trkpt>
      <trkpt lat="46.86111" lon="5.33344">
        <ele>216.6</ele>
        <time>2022-03-21T13:04:18Z</time>
      </trkpt>
      <trkpt lat="46.86108" lon="5.33352">
        <ele>216.8</ele>
        <time>2022-03-21T13:04:19Z</time>
      </trkpt>
      <trkpt lat="46.86104" lon="5.3336">
        <ele>216.8</ele>
        <time>2022-03-21T13:04:20Z</time>
      </trkpt>
      <trkpt lat="46.861" lon="5.33368">
        <ele>216.8</ele>
        <time>2022-03-21T13:04:21Z</time>
      </trkpt>
      <trkpt lat="46.86093" lon="5.33385">
        <ele>216.8</ele>
        <time>2022-03-21T13:04:22Z</time>
      </trkpt>
      <trkpt lat="46.86089" lon="5.33393">
        <ele>216.8</ele>
        <time>2022-03-21T13:04:23Z</time>
      </trkpt>
      <trkpt lat="46.86085" lon="5.33402">
        <ele>216.8</ele>
        <time>2022-03-21T13:04:24Z</time>
      </trkpt>
      <trkpt lat="46.86081" lon="5.3341">
        <ele>216.8</ele>
        <time>2022-03-21T13:04:25Z</time>
      </trkpt>
      <trkpt lat="46.86077" lon="5.33419">
        <ele>216.8</ele>
        <time>2022-03-21T13:04:26Z</time>
      </trkpt>
      <trkpt lat="46.86073" lon="5.33427">
        <ele>216.8</ele>
        <time>2022-03-21T13:04:27Z</time>
      </trkpt>
      <trkpt lat="46.86069" lon="5.33436">
        <ele>216.8</ele>
        <time>2022-03-21T13:04:28Z</time>
      </trkpt>
      <trkpt lat="46.86065" lon="5.33444">
        <ele>216.8</ele>
        <time>2022-03-21T13:04:29Z</time>
      </trkpt>
      <trkpt lat="46.86061" lon="5.33453">
        <ele>216.8</ele>
        <time>2022-03-21T13:04:30Z</time>
      </trkpt>
      <trkpt lat="46.86057" lon="5.33461">
        <ele>216.6</ele>
        <time>2022-03-21T13:04:31Z</time>
      </trkpt>
      <trkpt lat="46.86053" lon="5.3347">
        <ele>216.6</ele>
        <time>2022-03-21T13:04:32Z</time>
      </trkpt>
      <trkpt lat="46.86049" lon="5.33479">
        <ele>216.6</ele>
        <time>2022-03-21T13:04:33Z</time>
      </trkpt>
      <trkpt lat="46.86045" lon="5.33488">
        <ele>216.2</ele>
        <time>2022-03-21T13:04:34Z</time>
      </trkpt>
      <trkpt lat="46.86041" lon="5.33497">
        <ele>216.2</ele>
        <time>2022-03-21T13:04:35Z</time>
      </trkpt>
      <trkpt lat="46.86037" lon="5.33506">
        <ele>216</ele>
        <time>2022-03-21T13:04:36Z</time>
      </trkpt>
      <trkpt lat="46.86033" lon="5.33514">
        <ele>216</ele>
        <time>2022-03-21T13:04:37Z</time>
      </trkpt>
      <trkpt lat="46.86029" lon="5.33523">
        <ele>216</ele>
        <time>2022-03-21T13:04:38Z</time>
      </trkpt>
      <trkpt lat="46.86025" lon="5.33532">
        <ele>215.8</ele>
        <time>2022-03-21T13:04:39Z</time>
      </trkpt>
      <trkpt lat="46.86021" lon="5.33541">
        <ele>215.8</ele>
        <time>2022-03-21T13:04:40Z</time>
      </trkpt>
      <trkpt lat="46.86016" lon="5.3355">
        <ele>215.6</ele>
        <time>2022-03-21T13:04:41Z</time>
      </trkpt>
      <trkpt lat="46.86012" lon="5.33559">
        <ele>215.6</ele>
        <time>2022-03-21T13:04:42Z</time>
      </trkpt>
      <trkpt lat="46.86008" lon="5.33569">
        <ele>215.6</ele>
        <time>2022-03-21T13:04:43Z</time>
      </trkpt>
      <trkpt lat="46.86004" lon="5.33578">
        <ele>215.2</ele>
        <time>2022-03-21T13:04:44Z</time>
      </trkpt>
      <trkpt lat="46.85999" lon="5.33587">
        <ele>215.2</ele>
        <time>2022-03-21T13:04:45Z</time>
      </trkpt>
      <trkpt lat="46.85995" lon="5.33597">
        <ele>215</ele>
        <time>2022-03-21T13:04:46Z</time>
      </trkpt>
      <trkpt lat="46.85991" lon="5.33606">
        <ele>215</ele>
        <time>2022-03-21T13:04:47Z</time>
      </trkpt>
      <trkpt lat="46.85986" lon="5.33616">
        <ele>214.6</ele>
        <time>2022-03-21T13:04:48Z</time>
      </trkpt>
      <trkpt lat="46.85982" lon="5.33626">
        <ele>214.4</ele>
        <time>2022-03-21T13:04:49Z</time>
      </trkpt>
      <trkpt lat="46.85977" lon="5.33636">
        <ele>214.4</ele>
        <time>2022-03-21T13:04:50Z</time>
      </trkpt>
      <trkpt lat="46.85973" lon="5.33645">
        <ele>214.2</ele>
        <time>2022-03-21T13:04:51Z</time>
      </trkpt>
      <trkpt lat="46.85968" lon="5.33656">
        <ele>214.2</ele>
        <time>2022-03-21T13:04:52Z</time>
      </trkpt>
      <trkpt lat="46.85964" lon="5.33666">
        <ele>213.8</ele>
        <time>2022-03-21T13:04:53Z</time>
      </trkpt>
      <trkpt lat="46.85959" lon="5.33676">
        <ele>213.8</ele>
        <time>2022-03-21T13:04:54Z</time>
      </trkpt>
      <trkpt lat="46.85954" lon="5.33686">
        <ele>213.4</ele>
        <time>2022-03-21T13:04:55Z</time>
      </trkpt>
      <trkpt lat="46.8595" lon="5.33696">
        <ele>213.2</ele>
        <time>2022-03-21T13:04:56Z</time>
      </trkpt>
      <trkpt lat="46.85945" lon="5.33707">
        <ele>212.8</ele>
        <time>2022-03-21T13:04:57Z</time>
      </trkpt>
      <trkpt lat="46.8594" lon="5.33717">
        <ele>212.4</ele>
        <time>2022-03-21T13:04:58Z</time>
      </trkpt>
      <trkpt lat="46.85935" lon="5.33728">
        <ele>212</ele>
        <time>2022-03-21T13:04:59Z</time>
      </trkpt>
      <trkpt lat="46.8593" lon="5.3374">
        <ele>211.8</ele>
        <time>2022-03-21T13:05:00Z</time>
      </trkpt>
      <trkpt lat="46.85924" lon="5.33752">
        <ele>211.2</ele>
        <time>2022-03-21T13:05:01Z</time>
      </trkpt>
      <trkpt lat="46.85918" lon="5.33764">
        <ele>210.8</ele>
        <time>2022-03-21T13:05:02Z</time>
      </trkpt>
      <trkpt lat="46.85913" lon="5.33776">
        <ele>210.6</ele>
        <time>2022-03-21T13:05:03Z</time>
      </trkpt>
      <trkpt lat="46.85908" lon="5.33787">
        <ele>210.2</ele>
        <time>2022-03-21T13:05:04Z</time>
      </trkpt>
      <trkpt lat="46.85903" lon="5.33799">
        <ele>209.8</ele>
        <time>2022-03-21T13:05:05Z</time>
      </trkpt>
      <trkpt lat="46.85898" lon="5.33811">
        <ele>209.2</ele>
        <time>2022-03-21T13:05:06Z</time>
      </trkpt>
      <trkpt lat="46.85892" lon="5.33823">
        <ele>208.8</ele>
        <time>2022-03-21T13:05:07Z</time>
      </trkpt>
      <trkpt lat="46.85887" lon="5.33834">
        <ele>208.4</ele>
        <time>2022-03-21T13:05:08Z</time>
      </trkpt>
      <trkpt lat="46.85881" lon="5.33845">
        <ele>208</ele>
        <time>2022-03-21T13:05:09Z</time>
      </trkpt>
      <trkpt lat="46.85876" lon="5.33857">
        <ele>207.4</ele>
        <time>2022-03-21T13:05:10Z</time>
      </trkpt>
      <trkpt lat="46.85871" lon="5.33869">
        <ele>207</ele>
        <time>2022-03-21T13:05:11Z</time>
      </trkpt>
      <trkpt lat="46.85865" lon="5.33881">
        <ele>206.4</ele>
        <time>2022-03-21T13:05:12Z</time>
      </trkpt>
      <trkpt lat="46.85859" lon="5.33893">
        <ele>206.2</ele>
        <time>2022-03-21T13:05:13Z</time>
      </trkpt>
      <trkpt lat="46.85854" lon="5.33905">
        <ele>205.8</ele>
        <time>2022-03-21T13:05:14Z</time>
      </trkpt>
      <trkpt lat="46.85849" lon="5.33916">
        <ele>205.4</ele>
        <time>2022-03-21T13:05:15Z</time>
      </trkpt>
      <trkpt lat="46.85844" lon="5.33928">
        <ele>204.8</ele>
        <time>2022-03-21T13:05:16Z</time>
      </trkpt>
      <trkpt lat="46.85838" lon="5.3394">
        <ele>204.4</ele>
        <time>2022-03-21T13:05:17Z</time>
      </trkpt>
      <trkpt lat="46.85833" lon="5.33953">
        <ele>204</ele>
        <time>2022-03-21T13:05:18Z</time>
      </trkpt>
      <trkpt lat="46.85828" lon="5.33964">
        <ele>203.6</ele>
        <time>2022-03-21T13:05:19Z</time>
      </trkpt>
      <trkpt lat="46.85822" lon="5.33976">
        <ele>203.2</ele>
        <time>2022-03-21T13:05:20Z</time>
      </trkpt>
      <trkpt lat="46.85817" lon="5.33987">
        <ele>203</ele>
        <time>2022-03-21T13:05:21Z</time>
      </trkpt>
      <trkpt lat="46.85812" lon="5.33999">
        <ele>202.6</ele>
        <time>2022-03-21T13:05:22Z</time>
      </trkpt>
      <trkpt lat="46.85807" lon="5.3401">
        <ele>202.4</ele>
        <time>2022-03-21T13:05:23Z</time>
      </trkpt>
      <trkpt lat="46.85801" lon="5.34021">
        <ele>202</ele>
        <time>2022-03-21T13:05:24Z</time>
      </trkpt>
      <trkpt lat="46.85796" lon="5.34032">
        <ele>201.8</ele>
        <time>2022-03-21T13:05:25Z</time>
      </trkpt>
      <trkpt lat="46.85791" lon="5.34044">
        <ele>201.6</ele>
        <time>2022-03-21T13:05:26Z</time>
      </trkpt>
      <trkpt lat="46.85785" lon="5.34054">
        <ele>201.6</ele>
        <time>2022-03-21T13:05:27Z</time>
      </trkpt>
      <trkpt lat="46.8578" lon="5.34065">
        <ele>201.2</ele>
        <time>2022-03-21T13:05:28Z</time>
      </trkpt>
      <trkpt lat="46.85775" lon="5.34075">
        <ele>201.2</ele>
        <time>2022-03-21T13:05:29Z</time>
      </trkpt>
      <trkpt lat="46.8577" lon="5.34086">
        <ele>201</ele>
        <time>2022-03-21T13:05:30Z</time>
      </trkpt>
      <trkpt lat="46.85765" lon="5.34096">
        <ele>201</ele>
        <time>2022-03-21T13:05:31Z</time>
      </trkpt>
      <trkpt lat="46.85761" lon="5.34106">
        <ele>201</ele>
        <time>2022-03-21T13:05:32Z</time>
      </trkpt>
      <trkpt lat="46.85756" lon="5.34116">
        <ele>201</ele>
        <time>2022-03-21T13:05:33Z</time>
      </trkpt>
      <trkpt lat="46.85752" lon="5.34125">
        <ele>201</ele>
        <time>2022-03-21T13:05:34Z</time>
      </trkpt>
      <trkpt lat="46.85747" lon="5.34135">
        <ele>201</ele>
        <time>2022-03-21T13:05:35Z</time>
      </trkpt>
      <trkpt lat="46.85743" lon="5.34144">
        <ele>201</ele>
        <time>2022-03-21T13:05:36Z</time>
      </trkpt>
      <trkpt lat="46.85739" lon="5.34152">
        <ele>201.2</ele>
        <time>2022-03-21T13:05:37Z</time>
      </trkpt>
      <trkpt lat="46.85736" lon="5.34161">
        <ele>201.2</ele>
        <time>2022-03-21T13:05:38Z</time>
      </trkpt>
      <trkpt lat="46.85732" lon="5.34169">
        <ele>201.4</ele>
        <time>2022-03-21T13:05:39Z</time>
      </trkpt>
      <trkpt lat="46.85728" lon="5.34177">
        <ele>201.4</ele>
        <time>2022-03-21T13:05:40Z</time>
      </trkpt>
      <trkpt lat="46.85725" lon="5.34185">
        <ele>201.6</ele>
        <time>2022-03-21T13:05:41Z</time>
      </trkpt>
      <trkpt lat="46.85721" lon="5.34193">
        <ele>201.6</ele>
        <time>2022-03-21T13:05:42Z</time>
      </trkpt>
      <trkpt lat="46.85718" lon="5.34201">
        <ele>201.6</ele>
        <time>2022-03-21T13:05:43Z</time>
      </trkpt>
      <trkpt lat="46.85714" lon="5.34209">
        <ele>202</ele>
        <time>2022-03-21T13:05:44Z</time>
      </trkpt>
      <trkpt lat="46.85711" lon="5.34217">
        <ele>202.2</ele>
        <time>2022-03-21T13:05:45Z</time>
      </trkpt>
      <trkpt lat="46.85708" lon="5.34224">
        <ele>202.2</ele>
        <time>2022-03-21T13:05:46Z</time>
      </trkpt>
      <trkpt lat="46.85704" lon="5.34231">
        <ele>202.4</ele>
        <time>2022-03-21T13:05:47Z</time>
      </trkpt>
      <trkpt lat="46.85701" lon="5.34238">
        <ele>202.4</ele>
        <time>2022-03-21T13:05:48Z</time>
      </trkpt>
      <trkpt lat="46.85697" lon="5.34246">
        <ele>202.8</ele>
        <time>2022-03-21T13:05:49Z</time>
      </trkpt>
      <trkpt lat="46.85694" lon="5.34253">
        <ele>202.8</ele>
        <time>2022-03-21T13:05:50Z</time>
      </trkpt>
      <trkpt lat="46.8569" lon="5.3426">
        <ele>203</ele>
        <time>2022-03-21T13:05:51Z</time>
      </trkpt>
      <trkpt lat="46.85687" lon="5.34268">
        <ele>203</ele>
        <time>2022-03-21T13:05:52Z</time>
      </trkpt>
      <trkpt lat="46.85683" lon="5.34275">
        <ele>203.2</ele>
        <time>2022-03-21T13:05:53Z</time>
      </trkpt>
      <trkpt lat="46.8568" lon="5.34282">
        <ele>203.2</ele>
        <time>2022-03-21T13:05:54Z</time>
      </trkpt>
      <trkpt lat="46.85677" lon="5.34289">
        <ele>203.6</ele>
        <time>2022-03-21T13:05:55Z</time>
      </trkpt>
      <trkpt lat="46.85674" lon="5.34297">
        <ele>203.8</ele>
        <time>2022-03-21T13:05:56Z</time>
      </trkpt>
      <trkpt lat="46.85671" lon="5.34304">
        <ele>203.8</ele>
        <time>2022-03-21T13:05:57Z</time>
      </trkpt>
      <trkpt lat="46.85668" lon="5.34311">
        <ele>204.2</ele>
        <time>2022-03-21T13:05:58Z</time>
      </trkpt>
      <trkpt lat="46.85664" lon="5.34319">
        <ele>204.4</ele>
        <time>2022-03-21T13:05:59Z</time>
      </trkpt>
      <trkpt lat="46.85661" lon="5.34326">
        <ele>204.6</ele>
        <time>2022-03-21T13:06:00Z</time>
      </trkpt>
      <trkpt lat="46.85657" lon="5.34333">
        <ele>204.8</ele>
        <time>2022-03-21T13:06:01Z</time>
      </trkpt>
      <trkpt lat="46.85653" lon="5.3434">
        <ele>204.8</ele>
        <time>2022-03-21T13:06:02Z</time>
      </trkpt>
      <trkpt lat="46.8565" lon="5.34348">
        <ele>205.4</ele>
        <time>2022-03-21T13:06:03Z</time>
      </trkpt>
      <trkpt lat="46.85647" lon="5.34355">
        <ele>205.6</ele>
        <time>2022-03-21T13:06:04Z</time>
      </trkpt>
      <trkpt lat="46.85643" lon="5.34362">
        <ele>205.8</ele>
        <time>2022-03-21T13:06:05Z</time>
      </trkpt>
      <trkpt lat="46.8564" lon="5.34369">
        <ele>206.2</ele>
        <time>2022-03-21T13:06:06Z</time>
      </trkpt>
      <trkpt lat="46.85637" lon="5.34375">
        <ele>206.4</ele>
        <time>2022-03-21T13:06:07Z</time>
      </trkpt>
      <trkpt lat="46.85634" lon="5.34382">
        <ele>206.6</ele>
        <time>2022-03-21T13:06:08Z</time>
      </trkpt>
      <trkpt lat="46.85631" lon="5.34389">
        <ele>206.8</ele>
        <time>2022-03-21T13:06:09Z</time>
      </trkpt>
      <trkpt lat="46.85628" lon="5.34395">
        <ele>207.2</ele>
        <time>2022-03-21T13:06:10Z</time>
      </trkpt>
      <trkpt lat="46.85625" lon="5.34401">
        <ele>207.4</ele>
        <time>2022-03-21T13:06:11Z</time>
      </trkpt>
      <trkpt lat="46.85622" lon="5.34407">
        <ele>207.8</ele>
        <time>2022-03-21T13:06:12Z</time>
      </trkpt>
      <trkpt lat="46.85619" lon="5.34413">
        <ele>207.8</ele>
        <time>2022-03-21T13:06:13Z</time>
      </trkpt>
      <trkpt lat="46.85616" lon="5.34419">
        <ele>208.2</ele>
        <time>2022-03-21T13:06:14Z</time>
      </trkpt>
      <trkpt lat="46.85613" lon="5.34426">
        <ele>208.2</ele>
        <time>2022-03-21T13:06:15Z</time>
      </trkpt>
      <trkpt lat="46.8561" lon="5.34432">
        <ele>208.6</ele>
        <time>2022-03-21T13:06:17Z</time>
      </trkpt>
      <trkpt lat="46.85608" lon="5.34438">
        <ele>208.6</ele>
        <time>2022-03-21T13:06:18Z</time>
      </trkpt>
      <trkpt lat="46.85605" lon="5.34444">
        <ele>209</ele>
        <time>2022-03-21T13:06:19Z</time>
      </trkpt>
      <trkpt lat="46.85603" lon="5.3445">
        <ele>209.2</ele>
        <time>2022-03-21T13:06:20Z</time>
      </trkpt>
      <trkpt lat="46.856" lon="5.34456">
        <ele>209.2</ele>
        <time>2022-03-21T13:06:21Z</time>
      </trkpt>
      <trkpt lat="46.85597" lon="5.34462">
        <ele>209.6</ele>
        <time>2022-03-21T13:06:22Z</time>
      </trkpt>
      <trkpt lat="46.85594" lon="5.34468">
        <ele>209.8</ele>
        <time>2022-03-21T13:06:23Z</time>
      </trkpt>
      <trkpt lat="46.85591" lon="5.34474">
        <ele>210</ele>
        <time>2022-03-21T13:06:24Z</time>
      </trkpt>
      <trkpt lat="46.85588" lon="5.34481">
        <ele>210</ele>
        <time>2022-03-21T13:06:25Z</time>
      </trkpt>
      <trkpt lat="46.85585" lon="5.34487">
        <ele>210.4</ele>
        <time>2022-03-21T13:06:26Z</time>
      </trkpt>
      <trkpt lat="46.85582" lon="5.34493">
        <ele>210.8</ele>
        <time>2022-03-21T13:06:27Z</time>
      </trkpt>
      <trkpt lat="46.85579" lon="5.34499">
        <ele>211</ele>
        <time>2022-03-21T13:06:28Z</time>
      </trkpt>
      <trkpt lat="46.85576" lon="5.34505">
        <ele>211</ele>
        <time>2022-03-21T13:06:29Z</time>
      </trkpt>
      <trkpt lat="46.85573" lon="5.34511">
        <ele>211.2</ele>
        <time>2022-03-21T13:06:30Z</time>
      </trkpt>
      <trkpt lat="46.8557" lon="5.34518">
        <ele>211.6</ele>
        <time>2022-03-21T13:06:31Z</time>
      </trkpt>
      <trkpt lat="46.85567" lon="5.34524">
        <ele>211.6</ele>
        <time>2022-03-21T13:06:32Z</time>
      </trkpt>
      <trkpt lat="46.85564" lon="5.3453">
        <ele>211.8</ele>
        <time>2022-03-21T13:06:33Z</time>
      </trkpt>
      <trkpt lat="46.85561" lon="5.34536">
        <ele>211.8</ele>
        <time>2022-03-21T13:06:34Z</time>
      </trkpt>
      <trkpt lat="46.85558" lon="5.34543">
        <ele>211.8</ele>
        <time>2022-03-21T13:06:35Z</time>
      </trkpt>
      <trkpt lat="46.85555" lon="5.34549">
        <ele>212</ele>
        <time>2022-03-21T13:06:36Z</time>
      </trkpt>
      <trkpt lat="46.85552" lon="5.34555">
        <ele>212</ele>
        <time>2022-03-21T13:06:37Z</time>
      </trkpt>
      <trkpt lat="46.85549" lon="5.34562">
        <ele>212</ele>
        <time>2022-03-21T13:06:38Z</time>
      </trkpt>
      <trkpt lat="46.85546" lon="5.34569">
        <ele>212</ele>
        <time>2022-03-21T13:06:39Z</time>
      </trkpt>
      <trkpt lat="46.85543" lon="5.34576">
        <ele>212</ele>
        <time>2022-03-21T13:06:40Z</time>
      </trkpt>
      <trkpt lat="46.8554" lon="5.34584">
        <ele>212</ele>
        <time>2022-03-21T13:06:41Z</time>
      </trkpt>
      <trkpt lat="46.85536" lon="5.34592">
        <ele>212</ele>
        <time>2022-03-21T13:06:42Z</time>
      </trkpt>
      <trkpt lat="46.85532" lon="5.346">
        <ele>211.6</ele>
        <time>2022-03-21T13:06:43Z</time>
      </trkpt>
      <trkpt lat="46.85529" lon="5.34608">
        <ele>211.6</ele>
        <time>2022-03-21T13:06:44Z</time>
      </trkpt>
      <trkpt lat="46.85525" lon="5.34616">
        <ele>211.4</ele>
        <time>2022-03-21T13:06:45Z</time>
      </trkpt>
      <trkpt lat="46.85521" lon="5.34625">
        <ele>211</ele>
        <time>2022-03-21T13:06:46Z</time>
      </trkpt>
      <trkpt lat="46.85517" lon="5.34634">
        <ele>211</ele>
        <time>2022-03-21T13:06:47Z</time>
      </trkpt>
      <trkpt lat="46.85513" lon="5.34643">
        <ele>210.6</ele>
        <time>2022-03-21T13:06:48Z</time>
      </trkpt>
      <trkpt lat="46.85508" lon="5.34653">
        <ele>210.2</ele>
        <time>2022-03-21T13:06:49Z</time>
      </trkpt>
      <trkpt lat="46.85504" lon="5.34662">
        <ele>210</ele>
        <time>2022-03-21T13:06:50Z</time>
      </trkpt>
      <trkpt lat="46.85499" lon="5.34672">
        <ele>209.6</ele>
        <time>2022-03-21T13:06:51Z</time>
      </trkpt>
      <trkpt lat="46.85494" lon="5.34682">
        <ele>209.4</ele>
        <time>2022-03-21T13:06:52Z</time>
      </trkpt>
      <trkpt lat="46.8549" lon="5.34692">
        <ele>209</ele>
        <time>2022-03-21T13:06:53Z</time>
      </trkpt>
      <trkpt lat="46.85485" lon="5.34702">
        <ele>208.6</ele>
        <time>2022-03-21T13:06:54Z</time>
      </trkpt>
      <trkpt lat="46.8548" lon="5.34713">
        <ele>208.2</ele>
        <time>2022-03-21T13:06:55Z</time>
      </trkpt>
      <trkpt lat="46.85475" lon="5.34723">
        <ele>208</ele>
        <time>2022-03-21T13:06:56Z</time>
      </trkpt>
      <trkpt lat="46.8547" lon="5.34734">
        <ele>207.6</ele>
        <time>2022-03-21T13:06:57Z</time>
      </trkpt>
      <trkpt lat="46.85465" lon="5.34744">
        <ele>207.2</ele>
        <time>2022-03-21T13:06:58Z</time>
      </trkpt>
      <trkpt lat="46.8546" lon="5.34755">
        <ele>206.8</ele>
        <time>2022-03-21T13:06:59Z</time>
      </trkpt>
      <trkpt lat="46.85455" lon="5.34765">
        <ele>206.4</ele>
        <time>2022-03-21T13:07:00Z</time>
      </trkpt>
      <trkpt lat="46.8545" lon="5.34776">
        <ele>206.2</ele>
        <time>2022-03-21T13:07:01Z</time>
      </trkpt>
      <trkpt lat="46.85445" lon="5.34787">
        <ele>205.8</ele>
        <time>2022-03-21T13:07:02Z</time>
      </trkpt>
      <trkpt lat="46.85439" lon="5.34798">
        <ele>205.6</ele>
        <time>2022-03-21T13:07:03Z</time>
      </trkpt>
      <trkpt lat="46.85433" lon="5.34809">
        <ele>205.2</ele>
        <time>2022-03-21T13:07:04Z</time>
      </trkpt>
      <trkpt lat="46.85428" lon="5.34821">
        <ele>204.8</ele>
        <time>2022-03-21T13:07:05Z</time>
      </trkpt>
      <trkpt lat="46.85422" lon="5.34832">
        <ele>204.6</ele>
        <time>2022-03-21T13:07:06Z</time>
      </trkpt>
      <trkpt lat="46.85418" lon="5.34843">
        <ele>204.2</ele>
        <time>2022-03-21T13:07:07Z</time>
      </trkpt>
      <trkpt lat="46.85413" lon="5.34854">
        <ele>203.8</ele>
        <time>2022-03-21T13:07:08Z</time>
      </trkpt>
      <trkpt lat="46.85409" lon="5.34866">
        <ele>203.4</ele>
        <time>2022-03-21T13:07:09Z</time>
      </trkpt>
      <trkpt lat="46.85406" lon="5.34878">
        <ele>203</ele>
        <time>2022-03-21T13:07:10Z</time>
      </trkpt>
      <trkpt lat="46.85403" lon="5.34891">
        <ele>202.6</ele>
        <time>2022-03-21T13:07:11Z</time>
      </trkpt>
      <trkpt lat="46.85402" lon="5.34904">
        <ele>202.2</ele>
        <time>2022-03-21T13:07:12Z</time>
      </trkpt>
      <trkpt lat="46.854" lon="5.34918">
        <ele>201.8</ele>
        <time>2022-03-21T13:07:13Z</time>
      </trkpt>
      <trkpt lat="46.85399" lon="5.34932">
        <ele>201.4</ele>
        <time>2022-03-21T13:07:14Z</time>
      </trkpt>
      <trkpt lat="46.85398" lon="5.34946">
        <ele>200.8</ele>
        <time>2022-03-21T13:07:15Z</time>
      </trkpt>
      <trkpt lat="46.85397" lon="5.3496">
        <ele>200.4</ele>
        <time>2022-03-21T13:07:16Z</time>
      </trkpt>
      <trkpt lat="46.85396" lon="5.34974">
        <ele>199.8</ele>
        <time>2022-03-21T13:07:17Z</time>
      </trkpt>
      <trkpt lat="46.85395" lon="5.34989">
        <ele>199.6</ele>
        <time>2022-03-21T13:07:18Z</time>
      </trkpt>
      <trkpt lat="46.85394" lon="5.35004">
        <ele>199.2</ele>
        <time>2022-03-21T13:07:19Z</time>
      </trkpt>
      <trkpt lat="46.85392" lon="5.35019">
        <ele>198.8</ele>
        <time>2022-03-21T13:07:20Z</time>
      </trkpt>
      <trkpt lat="46.85391" lon="5.35033">
        <ele>198.4</ele>
        <time>2022-03-21T13:07:21Z</time>
      </trkpt>
      <trkpt lat="46.8539" lon="5.35047">
        <ele>198.4</ele>
        <time>2022-03-21T13:07:22Z</time>
      </trkpt>
      <trkpt lat="46.85389" lon="5.3506">
        <ele>198.2</ele>
        <time>2022-03-21T13:07:23Z</time>
      </trkpt>
      <trkpt lat="46.85388" lon="5.35073">
        <ele>198.2</ele>
        <time>2022-03-21T13:07:24Z</time>
      </trkpt>
      <trkpt lat="46.85387" lon="5.35087">
        <ele>197.8</ele>
        <time>2022-03-21T13:07:25Z</time>
      </trkpt>
      <trkpt lat="46.85386" lon="5.351">
        <ele>197.8</ele>
        <time>2022-03-21T13:07:26Z</time>
      </trkpt>
      <trkpt lat="46.85385" lon="5.35112">
        <ele>197.8</ele>
        <time>2022-03-21T13:07:27Z</time>
      </trkpt>
      <trkpt lat="46.85384" lon="5.35125">
        <ele>197.4</ele>
        <time>2022-03-21T13:07:28Z</time>
      </trkpt>
      <trkpt lat="46.85383" lon="5.35138">
        <ele>197.4</ele>
        <time>2022-03-21T13:07:29Z</time>
      </trkpt>
      <trkpt lat="46.85382" lon="5.3515">
        <ele>197.4</ele>
        <time>2022-03-21T13:07:30Z</time>
      </trkpt>
      <trkpt lat="46.85381" lon="5.35162">
        <ele>197.4</ele>
        <time>2022-03-21T13:07:31Z</time>
      </trkpt>
      <trkpt lat="46.85379" lon="5.35175">
        <ele>197.4</ele>
        <time>2022-03-21T13:07:32Z</time>
      </trkpt>
      <trkpt lat="46.85378" lon="5.35187">
        <ele>197.4</ele>
        <time>2022-03-21T13:07:33Z</time>
      </trkpt>
      <trkpt lat="46.85377" lon="5.35199">
        <ele>197.4</ele>
        <time>2022-03-21T13:07:34Z</time>
      </trkpt>
      <trkpt lat="46.85376" lon="5.35211">
        <ele>197.4</ele>
        <time>2022-03-21T13:07:35Z</time>
      </trkpt>
      <trkpt lat="46.85375" lon="5.35223">
        <ele>197.4</ele>
        <time>2022-03-21T13:07:36Z</time>
      </trkpt>
      <trkpt lat="46.85374" lon="5.35235">
        <ele>197.4</ele>
        <time>2022-03-21T13:07:37Z</time>
      </trkpt>
      <trkpt lat="46.85373" lon="5.35247">
        <ele>197.4</ele>
        <time>2022-03-21T13:07:38Z</time>
      </trkpt>
      <trkpt lat="46.85372" lon="5.35259">
        <ele>197.4</ele>
        <time>2022-03-21T13:07:39Z</time>
      </trkpt>
      <trkpt lat="46.85371" lon="5.35271">
        <ele>197.4</ele>
        <time>2022-03-21T13:07:40Z</time>
      </trkpt>
      <trkpt lat="46.8537" lon="5.35282">
        <ele>197.4</ele>
        <time>2022-03-21T13:07:41Z</time>
      </trkpt>
      <trkpt lat="46.85369" lon="5.35294">
        <ele>197.4</ele>
        <time>2022-03-21T13:07:42Z</time>
      </trkpt>
      <trkpt lat="46.85368" lon="5.35306">
        <ele>197.4</ele>
        <time>2022-03-21T13:07:43Z</time>
      </trkpt>
      <trkpt lat="46.85367" lon="5.35317">
        <ele>197.4</ele>
        <time>2022-03-21T13:07:44Z</time>
      </trkpt>
      <trkpt lat="46.85366" lon="5.35329">
        <ele>197.4</ele>
        <time>2022-03-21T13:07:45Z</time>
      </trkpt>
      <trkpt lat="46.85365" lon="5.3534">
        <ele>197.4</ele>
        <time>2022-03-21T13:07:46Z</time>
      </trkpt>
      <trkpt lat="46.85364" lon="5.35351">
        <ele>197.4</ele>
        <time>2022-03-21T13:07:47Z</time>
      </trkpt>
      <trkpt lat="46.85363" lon="5.35363">
        <ele>197.4</ele>
        <time>2022-03-21T13:07:48Z</time>
      </trkpt>
      <trkpt lat="46.85362" lon="5.35374">
        <ele>197.4</ele>
        <time>2022-03-21T13:07:49Z</time>
      </trkpt>
      <trkpt lat="46.85361" lon="5.35385">
        <ele>197.4</ele>
        <time>2022-03-21T13:07:50Z</time>
      </trkpt>
      <trkpt lat="46.8536" lon="5.35396">
        <ele>197.4</ele>
        <time>2022-03-21T13:07:51Z</time>
      </trkpt>
      <trkpt lat="46.85359" lon="5.35407">
        <ele>197.4</ele>
        <time>2022-03-21T13:07:52Z</time>
      </trkpt>
      <trkpt lat="46.85358" lon="5.35418">
        <ele>197.4</ele>
        <time>2022-03-21T13:07:53Z</time>
      </trkpt>
      <trkpt lat="46.85357" lon="5.35428">
        <ele>197.4</ele>
        <time>2022-03-21T13:07:54Z</time>
      </trkpt>
      <trkpt lat="46.85356" lon="5.35439">
        <ele>197.4</ele>
        <time>2022-03-21T13:07:55Z</time>
      </trkpt>
      <trkpt lat="46.85356" lon="5.3545">
        <ele>197.4</ele>
        <time>2022-03-21T13:07:56Z</time>
      </trkpt>
      <trkpt lat="46.85355" lon="5.3546">
        <ele>197.4</ele>
        <time>2022-03-21T13:07:57Z</time>
      </trkpt>
      <trkpt lat="46.85354" lon="5.35471">
        <ele>197.4</ele>
        <time>2022-03-21T13:07:58Z</time>
      </trkpt>
      <trkpt lat="46.85353" lon="5.35481">
        <ele>197.4</ele>
        <time>2022-03-21T13:07:59Z</time>
      </trkpt>
      <trkpt lat="46.85352" lon="5.35492">
        <ele>197.4</ele>
        <time>2022-03-21T13:08:00Z</time>
      </trkpt>
      <trkpt lat="46.85351" lon="5.35503">
        <ele>197.4</ele>
        <time>2022-03-21T13:08:01Z</time>
      </trkpt>
      <trkpt lat="46.85351" lon="5.35513">
        <ele>197.4</ele>
        <time>2022-03-21T13:08:02Z</time>
      </trkpt>
      <trkpt lat="46.8535" lon="5.35523">
        <ele>197.4</ele>
        <time>2022-03-21T13:08:03Z</time>
      </trkpt>
      <trkpt lat="46.85349" lon="5.35533">
        <ele>197.4</ele>
        <time>2022-03-21T13:08:04Z</time>
      </trkpt>
      <trkpt lat="46.85348" lon="5.35543">
        <ele>197.4</ele>
        <time>2022-03-21T13:08:05Z</time>
      </trkpt>
      <trkpt lat="46.85347" lon="5.35553">
        <ele>197.4</ele>
        <time>2022-03-21T13:08:06Z</time>
      </trkpt>
      <trkpt lat="46.85346" lon="5.35563">
        <ele>197.8</ele>
        <time>2022-03-21T13:08:07Z</time>
      </trkpt>
      <trkpt lat="46.85345" lon="5.35573">
        <ele>197.8</ele>
        <time>2022-03-21T13:08:08Z</time>
      </trkpt>
      <trkpt lat="46.85344" lon="5.35582">
        <ele>197.8</ele>
        <time>2022-03-21T13:08:09Z</time>
      </trkpt>
      <trkpt lat="46.85342" lon="5.35591">
        <ele>197.8</ele>
        <time>2022-03-21T13:08:10Z</time>
      </trkpt>
      <trkpt lat="46.85339" lon="5.356">
        <ele>197.8</ele>
        <time>2022-03-21T13:08:11Z</time>
      </trkpt>
      <trkpt lat="46.85335" lon="5.35607">
        <ele>197.8</ele>
        <time>2022-03-21T13:08:12Z</time>
      </trkpt>
      <trkpt lat="46.85331" lon="5.35614">
        <ele>198</ele>
        <time>2022-03-21T13:08:13Z</time>
      </trkpt>
      <trkpt lat="46.85326" lon="5.35621">
        <ele>198</ele>
        <time>2022-03-21T13:08:14Z</time>
      </trkpt>
      <trkpt lat="46.85321" lon="5.35626">
        <ele>198</ele>
        <time>2022-03-21T13:08:15Z</time>
      </trkpt>
      <trkpt lat="46.85316" lon="5.35632">
        <ele>198</ele>
        <time>2022-03-21T13:08:16Z</time>
      </trkpt>
      <trkpt lat="46.85311" lon="5.35636">
        <ele>198</ele>
        <time>2022-03-21T13:08:17Z</time>
      </trkpt>
      <trkpt lat="46.85306" lon="5.35641">
        <ele>198</ele>
        <time>2022-03-21T13:08:18Z</time>
      </trkpt>
      <trkpt lat="46.853" lon="5.35646">
        <ele>198.4</ele>
        <time>2022-03-21T13:08:19Z</time>
      </trkpt>
      <trkpt lat="46.85295" lon="5.3565">
        <ele>198.4</ele>
        <time>2022-03-21T13:08:20Z</time>
      </trkpt>
      <trkpt lat="46.85284" lon="5.35659">
        <ele>198.4</ele>
        <time>2022-03-21T13:08:21Z</time>
      </trkpt>
      <trkpt lat="46.85279" lon="5.35664">
        <ele>198.4</ele>
        <time>2022-03-21T13:08:22Z</time>
      </trkpt>
      <trkpt lat="46.85273" lon="5.35668">
        <ele>198.6</ele>
        <time>2022-03-21T13:08:23Z</time>
      </trkpt>
      <trkpt lat="46.85268" lon="5.35673">
        <ele>198.6</ele>
        <time>2022-03-21T13:08:24Z</time>
      </trkpt>
      <trkpt lat="46.85262" lon="5.35678">
        <ele>198.6</ele>
        <time>2022-03-21T13:08:25Z</time>
      </trkpt>
      <trkpt lat="46.85257" lon="5.35683">
        <ele>198.6</ele>
        <time>2022-03-21T13:08:26Z</time>
      </trkpt>
      <trkpt lat="46.85251" lon="5.35687">
        <ele>198.6</ele>
        <time>2022-03-21T13:08:27Z</time>
      </trkpt>
      <trkpt lat="46.85246" lon="5.35691">
        <ele>198.6</ele>
        <time>2022-03-21T13:08:28Z</time>
      </trkpt>
      <trkpt lat="46.8524" lon="5.35696">
        <ele>198.6</ele>
        <time>2022-03-21T13:08:29Z</time>
      </trkpt>
      <trkpt lat="46.85235" lon="5.35701">
        <ele>198.6</ele>
        <time>2022-03-21T13:08:30Z</time>
      </trkpt>
      <trkpt lat="46.85229" lon="5.35706">
        <ele>198.6</ele>
        <time>2022-03-21T13:08:31Z</time>
      </trkpt>
      <trkpt lat="46.85224" lon="5.3571">
        <ele>198.6</ele>
        <time>2022-03-21T13:08:32Z</time>
      </trkpt>
      <trkpt lat="46.85218" lon="5.35715">
        <ele>198.4</ele>
        <time>2022-03-21T13:08:33Z</time>
      </trkpt>
      <trkpt lat="46.85213" lon="5.3572">
        <ele>198.4</ele>
        <time>2022-03-21T13:08:34Z</time>
      </trkpt>
      <trkpt lat="46.85207" lon="5.35725">
        <ele>198.4</ele>
        <time>2022-03-21T13:08:35Z</time>
      </trkpt>
      <trkpt lat="46.85202" lon="5.3573">
        <ele>198.4</ele>
        <time>2022-03-21T13:08:36Z</time>
      </trkpt>
      <trkpt lat="46.85196" lon="5.35735">
        <ele>198.4</ele>
        <time>2022-03-21T13:08:37Z</time>
      </trkpt>
      <trkpt lat="46.85191" lon="5.3574">
        <ele>198.4</ele>
        <time>2022-03-21T13:08:38Z</time>
      </trkpt>
      <trkpt lat="46.85185" lon="5.35745">
        <ele>198.4</ele>
        <time>2022-03-21T13:08:39Z</time>
      </trkpt>
      <trkpt lat="46.8518" lon="5.3575">
        <ele>198.4</ele>
        <time>2022-03-21T13:08:40Z</time>
      </trkpt>
      <trkpt lat="46.85174" lon="5.35754">
        <ele>198.4</ele>
        <time>2022-03-21T13:08:41Z</time>
      </trkpt>
      <trkpt lat="46.85169" lon="5.35759">
        <ele>198.4</ele>
        <time>2022-03-21T13:08:42Z</time>
      </trkpt>
      <trkpt lat="46.85163" lon="5.35764">
        <ele>198.4</ele>
        <time>2022-03-21T13:08:43Z</time>
      </trkpt>
      <trkpt lat="46.85158" lon="5.35769">
        <ele>198.4</ele>
        <time>2022-03-21T13:08:44Z</time>
      </trkpt>
      <trkpt lat="46.85152" lon="5.35773">
        <ele>198.4</ele>
        <time>2022-03-21T13:08:45Z</time>
      </trkpt>
      <trkpt lat="46.85147" lon="5.35778">
        <ele>198.4</ele>
        <time>2022-03-21T13:08:46Z</time>
      </trkpt>
      <trkpt lat="46.85141" lon="5.35783">
        <ele>198.4</ele>
        <time>2022-03-21T13:08:47Z</time>
      </trkpt>
      <trkpt lat="46.85135" lon="5.35788">
        <ele>198.4</ele>
        <time>2022-03-21T13:08:48Z</time>
      </trkpt>
      <trkpt lat="46.8513" lon="5.35792">
        <ele>198</ele>
        <time>2022-03-21T13:08:49Z</time>
      </trkpt>
      <trkpt lat="46.85124" lon="5.35797">
        <ele>198</ele>
        <time>2022-03-21T13:08:50Z</time>
      </trkpt>
      <trkpt lat="46.85119" lon="5.35802">
        <ele>198</ele>
        <time>2022-03-21T13:08:51Z</time>
      </trkpt>
      <trkpt lat="46.85114" lon="5.35806">
        <ele>198</ele>
        <time>2022-03-21T13:08:52Z</time>
      </trkpt>
      <trkpt lat="46.85108" lon="5.35811">
        <ele>198</ele>
        <time>2022-03-21T13:08:53Z</time>
      </trkpt>
      <trkpt lat="46.85103" lon="5.35816">
        <ele>197.8</ele>
        <time>2022-03-21T13:08:54Z</time>
      </trkpt>
      <trkpt lat="46.85098" lon="5.3582">
        <ele>197.8</ele>
        <time>2022-03-21T13:08:55Z</time>
      </trkpt>
      <trkpt lat="46.85093" lon="5.35825">
        <ele>197.8</ele>
        <time>2022-03-21T13:08:56Z</time>
      </trkpt>
      <trkpt lat="46.85088" lon="5.3583">
        <ele>197.8</ele>
        <time>2022-03-21T13:08:57Z</time>
      </trkpt>
      <trkpt lat="46.85082" lon="5.35834">
        <ele>197.8</ele>
        <time>2022-03-21T13:08:58Z</time>
      </trkpt>
      <trkpt lat="46.85077" lon="5.35839">
        <ele>197.8</ele>
        <time>2022-03-21T13:08:59Z</time>
      </trkpt>
      <trkpt lat="46.85072" lon="5.35843">
        <ele>197.8</ele>
        <time>2022-03-21T13:09:00Z</time>
      </trkpt>
      <trkpt lat="46.85066" lon="5.35848">
        <ele>197.8</ele>
        <time>2022-03-21T13:09:01Z</time>
      </trkpt>
      <trkpt lat="46.85061" lon="5.35853">
        <ele>197.8</ele>
        <time>2022-03-21T13:09:02Z</time>
      </trkpt>
      <trkpt lat="46.85056" lon="5.35858">
        <ele>197.8</ele>
        <time>2022-03-21T13:09:03Z</time>
      </trkpt>
      <trkpt lat="46.8505" lon="5.35862">
        <ele>197.8</ele>
        <time>2022-03-21T13:09:04Z</time>
      </trkpt>
      <trkpt lat="46.85045" lon="5.35867">
        <ele>197.8</ele>
        <time>2022-03-21T13:09:05Z</time>
      </trkpt>
      <trkpt lat="46.8504" lon="5.35872">
        <ele>197.8</ele>
        <time>2022-03-21T13:09:06Z</time>
      </trkpt>
      <trkpt lat="46.85035" lon="5.35877">
        <ele>198.2</ele>
        <time>2022-03-21T13:09:07Z</time>
      </trkpt>
      <trkpt lat="46.85029" lon="5.35882">
        <ele>198.2</ele>
        <time>2022-03-21T13:09:08Z</time>
      </trkpt>
      <trkpt lat="46.85024" lon="5.35887">
        <ele>198.2</ele>
        <time>2022-03-21T13:09:09Z</time>
      </trkpt>
      <trkpt lat="46.85019" lon="5.35891">
        <ele>198.4</ele>
        <time>2022-03-21T13:09:10Z</time>
      </trkpt>
      <trkpt lat="46.85013" lon="5.35896">
        <ele>198.4</ele>
        <time>2022-03-21T13:09:11Z</time>
      </trkpt>
      <trkpt lat="46.85008" lon="5.359">
        <ele>198.6</ele>
        <time>2022-03-21T13:09:12Z</time>
      </trkpt>
      <trkpt lat="46.85003" lon="5.35904">
        <ele>198.6</ele>
        <time>2022-03-21T13:09:13Z</time>
      </trkpt>
      <trkpt lat="46.84998" lon="5.35909">
        <ele>198.6</ele>
        <time>2022-03-21T13:09:14Z</time>
      </trkpt>
      <trkpt lat="46.84993" lon="5.35913">
        <ele>198.8</ele>
        <time>2022-03-21T13:09:15Z</time>
      </trkpt>
      <trkpt lat="46.84988" lon="5.35918">
        <ele>198.8</ele>
        <time>2022-03-21T13:09:16Z</time>
      </trkpt>
      <trkpt lat="46.84984" lon="5.35923">
        <ele>199</ele>
        <time>2022-03-21T13:09:17Z</time>
      </trkpt>
      <trkpt lat="46.84979" lon="5.35927">
        <ele>199</ele>
        <time>2022-03-21T13:09:18Z</time>
      </trkpt>
      <trkpt lat="46.84975" lon="5.35931">
        <ele>199.4</ele>
        <time>2022-03-21T13:09:19Z</time>
      </trkpt>
      <trkpt lat="46.8497" lon="5.35935">
        <ele>199.4</ele>
        <time>2022-03-21T13:09:20Z</time>
      </trkpt>
      <trkpt lat="46.84966" lon="5.35939">
        <ele>199.6</ele>
        <time>2022-03-21T13:09:21Z</time>
      </trkpt>
      <trkpt lat="46.84961" lon="5.35943">
        <ele>199.6</ele>
        <time>2022-03-21T13:09:22Z</time>
      </trkpt>
      <trkpt lat="46.84957" lon="5.35947">
        <ele>199.6</ele>
        <time>2022-03-21T13:09:23Z</time>
      </trkpt>
      <trkpt lat="46.84952" lon="5.3595">
        <ele>200</ele>
        <time>2022-03-21T13:09:24Z</time>
      </trkpt>
      <trkpt lat="46.84948" lon="5.35954">
        <ele>200</ele>
        <time>2022-03-21T13:09:25Z</time>
      </trkpt>
      <trkpt lat="46.84944" lon="5.35958">
        <ele>200.4</ele>
        <time>2022-03-21T13:09:26Z</time>
      </trkpt>
      <trkpt lat="46.8494" lon="5.35962">
        <ele>200.6</ele>
        <time>2022-03-21T13:09:27Z</time>
      </trkpt>
      <trkpt lat="46.84936" lon="5.35966">
        <ele>201</ele>
        <time>2022-03-21T13:09:28Z</time>
      </trkpt>
      <trkpt lat="46.84932" lon="5.35969">
        <ele>201</ele>
        <time>2022-03-21T13:09:29Z</time>
      </trkpt>
      <trkpt lat="46.84928" lon="5.35973">
        <ele>201.4</ele>
        <time>2022-03-21T13:09:30Z</time>
      </trkpt>
      <trkpt lat="46.84924" lon="5.35976">
        <ele>201.4</ele>
        <time>2022-03-21T13:09:31Z</time>
      </trkpt>
      <trkpt lat="46.8492" lon="5.3598">
        <ele>201.4</ele>
        <time>2022-03-21T13:09:32Z</time>
      </trkpt>
      <trkpt lat="46.84916" lon="5.35983">
        <ele>201.6</ele>
        <time>2022-03-21T13:09:33Z</time>
      </trkpt>
      <trkpt lat="46.84912" lon="5.35987">
        <ele>201.8</ele>
        <time>2022-03-21T13:09:34Z</time>
      </trkpt>
      <trkpt lat="46.84908" lon="5.35991">
        <ele>201.8</ele>
        <time>2022-03-21T13:09:35Z</time>
      </trkpt>
      <trkpt lat="46.84904" lon="5.35994">
        <ele>202</ele>
        <time>2022-03-21T13:09:36Z</time>
      </trkpt>
      <trkpt lat="46.849" lon="5.35997">
        <ele>202</ele>
        <time>2022-03-21T13:09:37Z</time>
      </trkpt>
      <trkpt lat="46.84896" lon="5.36001">
        <ele>202.4</ele>
        <time>2022-03-21T13:09:38Z</time>
      </trkpt>
      <trkpt lat="46.84892" lon="5.36005">
        <ele>202.4</ele>
        <time>2022-03-21T13:09:39Z</time>
      </trkpt>
      <trkpt lat="46.84888" lon="5.36008">
        <ele>202.6</ele>
        <time>2022-03-21T13:09:40Z</time>
      </trkpt>
      <trkpt lat="46.84885" lon="5.36012">
        <ele>202.6</ele>
        <time>2022-03-21T13:09:41Z</time>
      </trkpt>
      <trkpt lat="46.84881" lon="5.36016">
        <ele>202.8</ele>
        <time>2022-03-21T13:09:42Z</time>
      </trkpt>
      <trkpt lat="46.84877" lon="5.36019">
        <ele>202.8</ele>
        <time>2022-03-21T13:09:43Z</time>
      </trkpt>
      <trkpt lat="46.84873" lon="5.36023">
        <ele>203.2</ele>
        <time>2022-03-21T13:09:44Z</time>
      </trkpt>
      <trkpt lat="46.84869" lon="5.36026">
        <ele>203.2</ele>
        <time>2022-03-21T13:09:45Z</time>
      </trkpt>
      <trkpt lat="46.84865" lon="5.3603">
        <ele>203.4</ele>
        <time>2022-03-21T13:09:46Z</time>
      </trkpt>
      <trkpt lat="46.84861" lon="5.36033">
        <ele>203.4</ele>
        <time>2022-03-21T13:09:47Z</time>
      </trkpt>
      <trkpt lat="46.84857" lon="5.36036">
        <ele>203.8</ele>
        <time>2022-03-21T13:09:48Z</time>
      </trkpt>
      <trkpt lat="46.84853" lon="5.3604">
        <ele>203.8</ele>
        <time>2022-03-21T13:09:49Z</time>
      </trkpt>
      <trkpt lat="46.8485" lon="5.36043">
        <ele>204</ele>
        <time>2022-03-21T13:09:50Z</time>
      </trkpt>
      <trkpt lat="46.84846" lon="5.36047">
        <ele>204</ele>
        <time>2022-03-21T13:09:51Z</time>
      </trkpt>
      <trkpt lat="46.84842" lon="5.3605">
        <ele>204.4</ele>
        <time>2022-03-21T13:09:52Z</time>
      </trkpt>
      <trkpt lat="46.84838" lon="5.36053">
        <ele>204.4</ele>
        <time>2022-03-21T13:09:53Z</time>
      </trkpt>
      <trkpt lat="46.84834" lon="5.36056">
        <ele>204.8</ele>
        <time>2022-03-21T13:09:54Z</time>
      </trkpt>
      <trkpt lat="46.84831" lon="5.3606">
        <ele>204.8</ele>
        <time>2022-03-21T13:09:55Z</time>
      </trkpt>
      <trkpt lat="46.84827" lon="5.36063">
        <ele>205.2</ele>
        <time>2022-03-21T13:09:56Z</time>
      </trkpt>
      <trkpt lat="46.84823" lon="5.36067">
        <ele>205.2</ele>
        <time>2022-03-21T13:09:57Z</time>
      </trkpt>
      <trkpt lat="46.84819" lon="5.3607">
        <ele>205.4</ele>
        <time>2022-03-21T13:09:58Z</time>
      </trkpt>
      <trkpt lat="46.84815" lon="5.36074">
        <ele>205.4</ele>
        <time>2022-03-21T13:09:59Z</time>
      </trkpt>
      <trkpt lat="46.8481" lon="5.36077">
        <ele>205.6</ele>
        <time>2022-03-21T13:10:00Z</time>
      </trkpt>
      <trkpt lat="46.84806" lon="5.36081">
        <ele>205.6</ele>
        <time>2022-03-21T13:10:01Z</time>
      </trkpt>
      <trkpt lat="46.84802" lon="5.36085">
        <ele>206</ele>
        <time>2022-03-21T13:10:02Z</time>
      </trkpt>
      <trkpt lat="46.84798" lon="5.36089">
        <ele>206.2</ele>
        <time>2022-03-21T13:10:04Z</time>
      </trkpt>
      <trkpt lat="46.84794" lon="5.36092">
        <ele>206.2</ele>
        <time>2022-03-21T13:10:05Z</time>
      </trkpt>
      <trkpt lat="46.84789" lon="5.36096">
        <ele>206.2</ele>
        <time>2022-03-21T13:10:06Z</time>
      </trkpt>
      <trkpt lat="46.84785" lon="5.361">
        <ele>206.2</ele>
        <time>2022-03-21T13:10:07Z</time>
      </trkpt>
      <trkpt lat="46.84781" lon="5.36104">
        <ele>206.4</ele>
        <time>2022-03-21T13:10:08Z</time>
      </trkpt>
      <trkpt lat="46.84777" lon="5.36107">
        <ele>206.4</ele>
        <time>2022-03-21T13:10:09Z</time>
      </trkpt>
      <trkpt lat="46.84773" lon="5.36111">
        <ele>206.4</ele>
        <time>2022-03-21T13:10:10Z</time>
      </trkpt>
      <trkpt lat="46.84768" lon="5.36114">
        <ele>206.8</ele>
        <time>2022-03-21T13:10:11Z</time>
      </trkpt>
      <trkpt lat="46.84764" lon="5.36117">
        <ele>207</ele>
        <time>2022-03-21T13:10:12Z</time>
      </trkpt>
      <trkpt lat="46.8476" lon="5.3612">
        <ele>207</ele>
        <time>2022-03-21T13:10:13Z</time>
      </trkpt>
      <trkpt lat="46.84755" lon="5.36123">
        <ele>207.2</ele>
        <time>2022-03-21T13:10:14Z</time>
      </trkpt>
      <trkpt lat="46.84751" lon="5.36125">
        <ele>207.4</ele>
        <time>2022-03-21T13:10:15Z</time>
      </trkpt>
      <trkpt lat="46.84747" lon="5.36127">
        <ele>207.4</ele>
        <time>2022-03-21T13:10:16Z</time>
      </trkpt>
      <trkpt lat="46.84742" lon="5.3613">
        <ele>207.8</ele>
        <time>2022-03-21T13:10:17Z</time>
      </trkpt>
      <trkpt lat="46.84738" lon="5.36131">
        <ele>207.8</ele>
        <time>2022-03-21T13:10:18Z</time>
      </trkpt>
      <trkpt lat="46.84733" lon="5.36132">
        <ele>208</ele>
        <time>2022-03-21T13:10:19Z</time>
      </trkpt>
      <trkpt lat="46.84728" lon="5.36134">
        <ele>208</ele>
        <time>2022-03-21T13:10:20Z</time>
      </trkpt>
      <trkpt lat="46.84723" lon="5.36135">
        <ele>208</ele>
        <time>2022-03-21T13:10:21Z</time>
      </trkpt>
      <trkpt lat="46.84718" lon="5.36136">
        <ele>208</ele>
        <time>2022-03-21T13:10:22Z</time>
      </trkpt>
      <trkpt lat="46.84712" lon="5.36136">
        <ele>208</ele>
        <time>2022-03-21T13:10:23Z</time>
      </trkpt>
      <trkpt lat="46.84707" lon="5.36137">
        <ele>208</ele>
        <time>2022-03-21T13:10:24Z</time>
      </trkpt>
      <trkpt lat="46.84701" lon="5.36137">
        <ele>208</ele>
        <time>2022-03-21T13:10:25Z</time>
      </trkpt>
      <trkpt lat="46.84695" lon="5.36137">
        <ele>208</ele>
        <time>2022-03-21T13:10:26Z</time>
      </trkpt>
      <trkpt lat="46.84689" lon="5.36138">
        <ele>208</ele>
        <time>2022-03-21T13:10:27Z</time>
      </trkpt>
      <trkpt lat="46.84683" lon="5.36138">
        <ele>207.8</ele>
        <time>2022-03-21T13:10:28Z</time>
      </trkpt>
      <trkpt lat="46.84676" lon="5.36139">
        <ele>207.8</ele>
        <time>2022-03-21T13:10:29Z</time>
      </trkpt>
      <trkpt lat="46.8467" lon="5.3614">
        <ele>207.6</ele>
        <time>2022-03-21T13:10:30Z</time>
      </trkpt>
      <trkpt lat="46.84664" lon="5.3614">
        <ele>207.6</ele>
        <time>2022-03-21T13:10:31Z</time>
      </trkpt>
      <trkpt lat="46.84657" lon="5.36141">
        <ele>207.6</ele>
        <time>2022-03-21T13:10:32Z</time>
      </trkpt>
      <trkpt lat="46.8465" lon="5.36142">
        <ele>207.2</ele>
        <time>2022-03-21T13:10:33Z</time>
      </trkpt>
      <trkpt lat="46.84644" lon="5.36142">
        <ele>207.2</ele>
        <time>2022-03-21T13:10:34Z</time>
      </trkpt>
      <trkpt lat="46.84637" lon="5.36142">
        <ele>206.8</ele>
        <time>2022-03-21T13:10:35Z</time>
      </trkpt>
      <trkpt lat="46.8463" lon="5.36143">
        <ele>206.8</ele>
        <time>2022-03-21T13:10:36Z</time>
      </trkpt>
      <trkpt lat="46.84623" lon="5.36144">
        <ele>206.4</ele>
        <time>2022-03-21T13:10:37Z</time>
      </trkpt>
      <trkpt lat="46.84616" lon="5.36145">
        <ele>206.4</ele>
        <time>2022-03-21T13:10:38Z</time>
      </trkpt>
      <trkpt lat="46.84608" lon="5.36145">
        <ele>206</ele>
        <time>2022-03-21T13:10:39Z</time>
      </trkpt>
      <trkpt lat="46.84601" lon="5.36146">
        <ele>206</ele>
        <time>2022-03-21T13:10:40Z</time>
      </trkpt>
      <trkpt lat="46.84594" lon="5.36146">
        <ele>205.8</ele>
        <time>2022-03-21T13:10:41Z</time>
      </trkpt>
      <trkpt lat="46.84586" lon="5.36147">
        <ele>205.4</ele>
        <time>2022-03-21T13:10:42Z</time>
      </trkpt>
      <trkpt lat="46.84579" lon="5.36147">
        <ele>205.4</ele>
        <time>2022-03-21T13:10:43Z</time>
      </trkpt>
      <trkpt lat="46.84572" lon="5.36148">
        <ele>205.4</ele>
        <time>2022-03-21T13:10:44Z</time>
      </trkpt>
      <trkpt lat="46.84564" lon="5.36149">
        <ele>205.2</ele>
        <time>2022-03-21T13:10:45Z</time>
      </trkpt>
      <trkpt lat="46.84557" lon="5.3615">
        <ele>205.2</ele>
        <time>2022-03-21T13:10:46Z</time>
      </trkpt>
      <trkpt lat="46.8455" lon="5.36151">
        <ele>205</ele>
        <time>2022-03-21T13:10:47Z</time>
      </trkpt>
      <trkpt lat="46.84543" lon="5.36152">
        <ele>204.6</ele>
        <time>2022-03-21T13:10:48Z</time>
      </trkpt>
      <trkpt lat="46.84535" lon="5.36153">
        <ele>204.4</ele>
        <time>2022-03-21T13:10:49Z</time>
      </trkpt>
      <trkpt lat="46.84528" lon="5.36154">
        <ele>204.2</ele>
        <time>2022-03-21T13:10:50Z</time>
      </trkpt>
      <trkpt lat="46.84521" lon="5.36154">
        <ele>203.8</ele>
        <time>2022-03-21T13:10:51Z</time>
      </trkpt>
      <trkpt lat="46.84513" lon="5.36155">
        <ele>203.6</ele>
        <time>2022-03-21T13:10:52Z</time>
      </trkpt>
      <trkpt lat="46.84505" lon="5.36156">
        <ele>203.2</ele>
        <time>2022-03-21T13:10:53Z</time>
      </trkpt>
      <trkpt lat="46.84497" lon="5.36156">
        <ele>202.8</ele>
        <time>2022-03-21T13:10:54Z</time>
      </trkpt>
      <trkpt lat="46.84489" lon="5.36157">
        <ele>202.4</ele>
        <time>2022-03-21T13:10:55Z</time>
      </trkpt>
      <trkpt lat="46.8448" lon="5.36158">
        <ele>202</ele>
        <time>2022-03-21T13:10:56Z</time>
      </trkpt>
      <trkpt lat="46.84471" lon="5.36159">
        <ele>201.6</ele>
        <time>2022-03-21T13:10:57Z</time>
      </trkpt>
      <trkpt lat="46.84462" lon="5.3616">
        <ele>201.2</ele>
        <time>2022-03-21T13:10:58Z</time>
      </trkpt>
      <trkpt lat="46.84452" lon="5.36162">
        <ele>200.6</ele>
        <time>2022-03-21T13:10:59Z</time>
      </trkpt>
      <trkpt lat="46.84442" lon="5.36162">
        <ele>200.2</ele>
        <time>2022-03-21T13:11:00Z</time>
      </trkpt>
      <trkpt lat="46.84432" lon="5.36163">
        <ele>199.6</ele>
        <time>2022-03-21T13:11:01Z</time>
      </trkpt>
      <trkpt lat="46.84421" lon="5.36163">
        <ele>199.2</ele>
        <time>2022-03-21T13:11:02Z</time>
      </trkpt>
      <trkpt lat="46.84412" lon="5.36164">
        <ele>198.8</ele>
        <time>2022-03-21T13:11:03Z</time>
      </trkpt>
      <trkpt lat="46.84402" lon="5.36164">
        <ele>198.4</ele>
        <time>2022-03-21T13:11:04Z</time>
      </trkpt>
      <trkpt lat="46.84393" lon="5.36166">
        <ele>198.2</ele>
        <time>2022-03-21T13:11:05Z</time>
      </trkpt>
      <trkpt lat="46.84385" lon="5.36168">
        <ele>198.2</ele>
        <time>2022-03-21T13:11:06Z</time>
      </trkpt>
      <trkpt lat="46.84377" lon="5.36168">
        <ele>198.2</ele>
        <time>2022-03-21T13:11:07Z</time>
      </trkpt>
      <trkpt lat="46.84369" lon="5.3617">
        <ele>198.2</ele>
        <time>2022-03-21T13:11:08Z</time>
      </trkpt>
      <trkpt lat="46.84361" lon="5.3617">
        <ele>198.2</ele>
        <time>2022-03-21T13:11:09Z</time>
      </trkpt>
      <trkpt lat="46.84353" lon="5.36171">
        <ele>198.2</ele>
        <time>2022-03-21T13:11:10Z</time>
      </trkpt>
      <trkpt lat="46.84346" lon="5.36172">
        <ele>198.2</ele>
        <time>2022-03-21T13:11:11Z</time>
      </trkpt>
      <trkpt lat="46.84339" lon="5.36172">
        <ele>198.2</ele>
        <time>2022-03-21T13:11:12Z</time>
      </trkpt>
      <trkpt lat="46.84332" lon="5.36173">
        <ele>198.2</ele>
        <time>2022-03-21T13:11:13Z</time>
      </trkpt>
      <trkpt lat="46.84324" lon="5.36174">
        <ele>198.2</ele>
        <time>2022-03-21T13:11:14Z</time>
      </trkpt>
      <trkpt lat="46.84316" lon="5.36175">
        <ele>198.2</ele>
        <time>2022-03-21T13:11:15Z</time>
      </trkpt>
      <trkpt lat="46.84308" lon="5.36175">
        <ele>197.8</ele>
        <time>2022-03-21T13:11:16Z</time>
      </trkpt>
      <trkpt lat="46.843" lon="5.36176">
        <ele>197.6</ele>
        <time>2022-03-21T13:11:17Z</time>
      </trkpt>
      <trkpt lat="46.84292" lon="5.36177">
        <ele>197.6</ele>
        <time>2022-03-21T13:11:18Z</time>
      </trkpt>
      <trkpt lat="46.84284" lon="5.36178">
        <ele>197.4</ele>
        <time>2022-03-21T13:11:19Z</time>
      </trkpt>
      <trkpt lat="46.84275" lon="5.36179">
        <ele>197.2</ele>
        <time>2022-03-21T13:11:20Z</time>
      </trkpt>
      <trkpt lat="46.84267" lon="5.3618">
        <ele>197.2</ele>
        <time>2022-03-21T13:11:21Z</time>
      </trkpt>
      <trkpt lat="46.84259" lon="5.3618">
        <ele>197.2</ele>
        <time>2022-03-21T13:11:22Z</time>
      </trkpt>
      <trkpt lat="46.84251" lon="5.36181">
        <ele>196.8</ele>
        <time>2022-03-21T13:11:23Z</time>
      </trkpt>
      <trkpt lat="46.84243" lon="5.36183">
        <ele>196.8</ele>
        <time>2022-03-21T13:11:24Z</time>
      </trkpt>
      <trkpt lat="46.84235" lon="5.36184">
        <ele>196.8</ele>
        <time>2022-03-21T13:11:25Z</time>
      </trkpt>
      <trkpt lat="46.84227" lon="5.36185">
        <ele>196.8</ele>
        <time>2022-03-21T13:11:26Z</time>
      </trkpt>
      <trkpt lat="46.8422" lon="5.36186">
        <ele>196.8</ele>
        <time>2022-03-21T13:11:27Z</time>
      </trkpt>
      <trkpt lat="46.84212" lon="5.36187">
        <ele>196.6</ele>
        <time>2022-03-21T13:11:28Z</time>
      </trkpt>
      <trkpt lat="46.84205" lon="5.36189">
        <ele>196.6</ele>
        <time>2022-03-21T13:11:29Z</time>
      </trkpt>
      <trkpt lat="46.84197" lon="5.3619">
        <ele>196.6</ele>
        <time>2022-03-21T13:11:30Z</time>
      </trkpt>
      <trkpt lat="46.8419" lon="5.36191">
        <ele>196.6</ele>
        <time>2022-03-21T13:11:31Z</time>
      </trkpt>
      <trkpt lat="46.84182" lon="5.36193">
        <ele>196.6</ele>
        <time>2022-03-21T13:11:32Z</time>
      </trkpt>
      <trkpt lat="46.84175" lon="5.36196">
        <ele>196.6</ele>
        <time>2022-03-21T13:11:33Z</time>
      </trkpt>
      <trkpt lat="46.84169" lon="5.36201">
        <ele>196.6</ele>
        <time>2022-03-21T13:11:34Z</time>
      </trkpt>
      <trkpt lat="46.84164" lon="5.36208">
        <ele>196.8</ele>
        <time>2022-03-21T13:11:35Z</time>
      </trkpt>
      <trkpt lat="46.84162" lon="5.36217">
        <ele>196.8</ele>
        <time>2022-03-21T13:11:36Z</time>
      </trkpt>
      <trkpt lat="46.8416" lon="5.36226">
        <ele>196.8</ele>
        <time>2022-03-21T13:11:37Z</time>
      </trkpt>
      <trkpt lat="46.84158" lon="5.36236">
        <ele>196.8</ele>
        <time>2022-03-21T13:11:38Z</time>
      </trkpt>
      <trkpt lat="46.84158" lon="5.36245">
        <ele>197</ele>
        <time>2022-03-21T13:11:39Z</time>
      </trkpt>
      <trkpt lat="46.84157" lon="5.36255">
        <ele>197</ele>
        <time>2022-03-21T13:11:40Z</time>
      </trkpt>
      <trkpt lat="46.84156" lon="5.36264">
        <ele>197</ele>
        <time>2022-03-21T13:11:41Z</time>
      </trkpt>
      <trkpt lat="46.84155" lon="5.36273">
        <ele>197</ele>
        <time>2022-03-21T13:11:42Z</time>
      </trkpt>
      <trkpt lat="46.84154" lon="5.36282">
        <ele>197.2</ele>
        <time>2022-03-21T13:11:43Z</time>
      </trkpt>
      <trkpt lat="46.84153" lon="5.36291">
        <ele>197.2</ele>
        <time>2022-03-21T13:11:44Z</time>
      </trkpt>
      <trkpt lat="46.84152" lon="5.363">
        <ele>197.2</ele>
        <time>2022-03-21T13:11:45Z</time>
      </trkpt>
      <trkpt lat="46.8415" lon="5.36309">
        <ele>197.2</ele>
        <time>2022-03-21T13:11:46Z</time>
      </trkpt>
      <trkpt lat="46.84149" lon="5.36318">
        <ele>197.2</ele>
        <time>2022-03-21T13:11:47Z</time>
      </trkpt>
      <trkpt lat="46.84148" lon="5.36328">
        <ele>197.2</ele>
        <time>2022-03-21T13:11:48Z</time>
      </trkpt>
      <trkpt lat="46.84147" lon="5.36337">
        <ele>197.2</ele>
        <time>2022-03-21T13:11:49Z</time>
      </trkpt>
      <trkpt lat="46.84146" lon="5.36346">
        <ele>197.2</ele>
        <time>2022-03-21T13:11:50Z</time>
      </trkpt>
      <trkpt lat="46.84145" lon="5.36356">
        <ele>197.2</ele>
        <time>2022-03-21T13:11:51Z</time>
      </trkpt>
      <trkpt lat="46.84144" lon="5.36366">
        <ele>197.2</ele>
        <time>2022-03-21T13:11:52Z</time>
      </trkpt>
      <trkpt lat="46.84142" lon="5.36376">
        <ele>197.2</ele>
        <time>2022-03-21T13:11:53Z</time>
      </trkpt>
      <trkpt lat="46.84142" lon="5.36386">
        <ele>197.2</ele>
        <time>2022-03-21T13:11:54Z</time>
      </trkpt>
      <trkpt lat="46.84141" lon="5.36396">
        <ele>197.2</ele>
        <time>2022-03-21T13:11:55Z</time>
      </trkpt>
      <trkpt lat="46.84139" lon="5.36407">
        <ele>197.2</ele>
        <time>2022-03-21T13:11:56Z</time>
      </trkpt>
      <trkpt lat="46.84138" lon="5.36417">
        <ele>197</ele>
        <time>2022-03-21T13:11:57Z</time>
      </trkpt>
      <trkpt lat="46.84137" lon="5.36427">
        <ele>197</ele>
        <time>2022-03-21T13:11:58Z</time>
      </trkpt>
      <trkpt lat="46.84136" lon="5.36438">
        <ele>197</ele>
        <time>2022-03-21T13:11:59Z</time>
      </trkpt>
      <trkpt lat="46.84135" lon="5.36448">
        <ele>197</ele>
        <time>2022-03-21T13:12:00Z</time>
      </trkpt>
      <trkpt lat="46.84134" lon="5.36468">
        <ele>197</ele>
        <time>2022-03-21T13:12:01Z</time>
      </trkpt>
      <trkpt lat="46.84134" lon="5.36478">
        <ele>197</ele>
        <time>2022-03-21T13:12:02Z</time>
      </trkpt>
      <trkpt lat="46.84135" lon="5.36488">
        <ele>197</ele>
        <time>2022-03-21T13:12:03Z</time>
      </trkpt>
      <trkpt lat="46.84135" lon="5.36498">
        <ele>197.2</ele>
        <time>2022-03-21T13:12:04Z</time>
      </trkpt>
      <trkpt lat="46.84136" lon="5.36507">
        <ele>197.2</ele>
        <time>2022-03-21T13:12:05Z</time>
      </trkpt>
      <trkpt lat="46.84136" lon="5.36517">
        <ele>197.2</ele>
        <time>2022-03-21T13:12:06Z</time>
      </trkpt>
      <trkpt lat="46.84136" lon="5.36526">
        <ele>197.6</ele>
        <time>2022-03-21T13:12:07Z</time>
      </trkpt>
      <trkpt lat="46.84136" lon="5.36535">
        <ele>197.6</ele>
        <time>2022-03-21T13:12:08Z</time>
      </trkpt>
      <trkpt lat="46.84137" lon="5.36545">
        <ele>197.6</ele>
        <time>2022-03-21T13:12:09Z</time>
      </trkpt>
      <trkpt lat="46.84137" lon="5.36555">
        <ele>197.6</ele>
        <time>2022-03-21T13:12:10Z</time>
      </trkpt>
      <trkpt lat="46.84137" lon="5.36564">
        <ele>197.6</ele>
        <time>2022-03-21T13:12:11Z</time>
      </trkpt>
      <trkpt lat="46.84137" lon="5.36574">
        <ele>197.6</ele>
        <time>2022-03-21T13:12:12Z</time>
      </trkpt>
      <trkpt lat="46.84137" lon="5.36584">
        <ele>197.6</ele>
        <time>2022-03-21T13:12:13Z</time>
      </trkpt>
      <trkpt lat="46.84137" lon="5.36594">
        <ele>197.6</ele>
        <time>2022-03-21T13:12:14Z</time>
      </trkpt>
      <trkpt lat="46.84137" lon="5.36603">
        <ele>197.6</ele>
        <time>2022-03-21T13:12:15Z</time>
      </trkpt>
      <trkpt lat="46.84137" lon="5.36613">
        <ele>197.6</ele>
        <time>2022-03-21T13:12:16Z</time>
      </trkpt>
      <trkpt lat="46.84136" lon="5.36623">
        <ele>197.6</ele>
        <time>2022-03-21T13:12:17Z</time>
      </trkpt>
      <trkpt lat="46.84136" lon="5.36633">
        <ele>197.6</ele>
        <time>2022-03-21T13:12:18Z</time>
      </trkpt>
      <trkpt lat="46.84135" lon="5.36642">
        <ele>197.6</ele>
        <time>2022-03-21T13:12:19Z</time>
      </trkpt>
      <trkpt lat="46.84135" lon="5.36652">
        <ele>197.6</ele>
        <time>2022-03-21T13:12:20Z</time>
      </trkpt>
      <trkpt lat="46.84134" lon="5.36661">
        <ele>197.6</ele>
        <time>2022-03-21T13:12:21Z</time>
      </trkpt>
      <trkpt lat="46.84134" lon="5.3667">
        <ele>197.6</ele>
        <time>2022-03-21T13:12:22Z</time>
      </trkpt>
      <trkpt lat="46.84133" lon="5.36679">
        <ele>197.8</ele>
        <time>2022-03-21T13:12:23Z</time>
      </trkpt>
      <trkpt lat="46.84132" lon="5.36687">
        <ele>197.8</ele>
        <time>2022-03-21T13:12:24Z</time>
      </trkpt>
      <trkpt lat="46.84131" lon="5.36696">
        <ele>197.8</ele>
        <time>2022-03-21T13:12:25Z</time>
      </trkpt>
      <trkpt lat="46.84129" lon="5.36705">
        <ele>197.8</ele>
        <time>2022-03-21T13:12:26Z</time>
      </trkpt>
      <trkpt lat="46.84126" lon="5.36714">
        <ele>197.8</ele>
        <time>2022-03-21T13:12:27Z</time>
      </trkpt>
      <trkpt lat="46.84123" lon="5.36721">
        <ele>197.8</ele>
        <time>2022-03-21T13:12:28Z</time>
      </trkpt>
      <trkpt lat="46.84118" lon="5.36729">
        <ele>197.8</ele>
        <time>2022-03-21T13:12:29Z</time>
      </trkpt>
      <trkpt lat="46.84113" lon="5.36735">
        <ele>197.8</ele>
        <time>2022-03-21T13:12:30Z</time>
      </trkpt>
      <trkpt lat="46.84108" lon="5.36741">
        <ele>197.8</ele>
        <time>2022-03-21T13:12:31Z</time>
      </trkpt>
      <trkpt lat="46.84103" lon="5.36746">
        <ele>197.8</ele>
        <time>2022-03-21T13:12:32Z</time>
      </trkpt>
      <trkpt lat="46.84097" lon="5.36751">
        <ele>198</ele>
        <time>2022-03-21T13:12:33Z</time>
      </trkpt>
      <trkpt lat="46.84092" lon="5.36755">
        <ele>198</ele>
        <time>2022-03-21T13:12:34Z</time>
      </trkpt>
      <trkpt lat="46.84086" lon="5.3676">
        <ele>198</ele>
        <time>2022-03-21T13:12:35Z</time>
      </trkpt>
      <trkpt lat="46.84081" lon="5.36765">
        <ele>198</ele>
        <time>2022-03-21T13:12:36Z</time>
      </trkpt>
      <trkpt lat="46.84075" lon="5.3677">
        <ele>198.4</ele>
        <time>2022-03-21T13:12:37Z</time>
      </trkpt>
      <trkpt lat="46.8407" lon="5.36774">
        <ele>198.4</ele>
        <time>2022-03-21T13:12:38Z</time>
      </trkpt>
      <trkpt lat="46.84064" lon="5.36779">
        <ele>198.4</ele>
        <time>2022-03-21T13:12:39Z</time>
      </trkpt>
      <trkpt lat="46.84058" lon="5.36784">
        <ele>198.4</ele>
        <time>2022-03-21T13:12:40Z</time>
      </trkpt>
      <trkpt lat="46.84052" lon="5.36789">
        <ele>198.4</ele>
        <time>2022-03-21T13:12:41Z</time>
      </trkpt>
      <trkpt lat="46.84046" lon="5.36794">
        <ele>198.4</ele>
        <time>2022-03-21T13:12:42Z</time>
      </trkpt>
      <trkpt lat="46.8404" lon="5.36799">
        <ele>198.4</ele>
        <time>2022-03-21T13:12:43Z</time>
      </trkpt>
      <trkpt lat="46.84034" lon="5.36804">
        <ele>198.4</ele>
        <time>2022-03-21T13:12:44Z</time>
      </trkpt>
      <trkpt lat="46.84028" lon="5.36809">
        <ele>198.4</ele>
        <time>2022-03-21T13:12:45Z</time>
      </trkpt>
      <trkpt lat="46.84022" lon="5.36815">
        <ele>198.4</ele>
        <time>2022-03-21T13:12:46Z</time>
      </trkpt>
      <trkpt lat="46.84016" lon="5.3682">
        <ele>198.4</ele>
        <time>2022-03-21T13:12:47Z</time>
      </trkpt>
      <trkpt lat="46.8401" lon="5.36825">
        <ele>198.4</ele>
        <time>2022-03-21T13:12:48Z</time>
      </trkpt>
      <trkpt lat="46.84004" lon="5.36831">
        <ele>198.4</ele>
        <time>2022-03-21T13:12:49Z</time>
      </trkpt>
      <trkpt lat="46.83998" lon="5.36836">
        <ele>198.4</ele>
        <time>2022-03-21T13:12:50Z</time>
      </trkpt>
      <trkpt lat="46.83992" lon="5.36842">
        <ele>198.4</ele>
        <time>2022-03-21T13:12:51Z</time>
      </trkpt>
      <trkpt lat="46.83986" lon="5.36847">
        <ele>198.4</ele>
        <time>2022-03-21T13:12:52Z</time>
      </trkpt>
      <trkpt lat="46.83979" lon="5.36853">
        <ele>198.4</ele>
        <time>2022-03-21T13:12:53Z</time>
      </trkpt>
      <trkpt lat="46.83973" lon="5.36858">
        <ele>198.4</ele>
        <time>2022-03-21T13:12:54Z</time>
      </trkpt>
      <trkpt lat="46.83967" lon="5.36863">
        <ele>198.4</ele>
        <time>2022-03-21T13:12:55Z</time>
      </trkpt>
      <trkpt lat="46.83961" lon="5.36869">
        <ele>198.4</ele>
        <time>2022-03-21T13:12:56Z</time>
      </trkpt>
      <trkpt lat="46.83955" lon="5.36874">
        <ele>198.4</ele>
        <time>2022-03-21T13:12:57Z</time>
      </trkpt>
      <trkpt lat="46.83948" lon="5.36879">
        <ele>198.4</ele>
        <time>2022-03-21T13:12:58Z</time>
      </trkpt>
      <trkpt lat="46.83942" lon="5.36885">
        <ele>198.4</ele>
        <time>2022-03-21T13:12:59Z</time>
      </trkpt>
      <trkpt lat="46.83936" lon="5.3689">
        <ele>198.4</ele>
        <time>2022-03-21T13:13:00Z</time>
      </trkpt>
      <trkpt lat="46.83929" lon="5.36895">
        <ele>198.4</ele>
        <time>2022-03-21T13:13:01Z</time>
      </trkpt>
      <trkpt lat="46.83923" lon="5.36901">
        <ele>198.4</ele>
        <time>2022-03-21T13:13:02Z</time>
      </trkpt>
      <trkpt lat="46.83917" lon="5.36906">
        <ele>198.4</ele>
        <time>2022-03-21T13:13:03Z</time>
      </trkpt>
      <trkpt lat="46.8391" lon="5.36912">
        <ele>198.4</ele>
        <time>2022-03-21T13:13:04Z</time>
      </trkpt>
      <trkpt lat="46.83904" lon="5.36917">
        <ele>198.4</ele>
        <time>2022-03-21T13:13:05Z</time>
      </trkpt>
      <trkpt lat="46.83898" lon="5.36923">
        <ele>198.4</ele>
        <time>2022-03-21T13:13:06Z</time>
      </trkpt>
      <trkpt lat="46.83892" lon="5.36928">
        <ele>198</ele>
        <time>2022-03-21T13:13:07Z</time>
      </trkpt>
      <trkpt lat="46.83886" lon="5.36933">
        <ele>198</ele>
        <time>2022-03-21T13:13:08Z</time>
      </trkpt>
      <trkpt lat="46.8388" lon="5.36939">
        <ele>198</ele>
        <time>2022-03-21T13:13:09Z</time>
      </trkpt>
      <trkpt lat="46.83873" lon="5.36944">
        <ele>198</ele>
        <time>2022-03-21T13:13:10Z</time>
      </trkpt>
      <trkpt lat="46.83867" lon="5.36949">
        <ele>198</ele>
        <time>2022-03-21T13:13:11Z</time>
      </trkpt>
      <trkpt lat="46.83861" lon="5.36954">
        <ele>198</ele>
        <time>2022-03-21T13:13:12Z</time>
      </trkpt>
      <trkpt lat="46.83855" lon="5.3696">
        <ele>198</ele>
        <time>2022-03-21T13:13:13Z</time>
      </trkpt>
      <trkpt lat="46.83849" lon="5.36965">
        <ele>198</ele>
        <time>2022-03-21T13:13:14Z</time>
      </trkpt>
      <trkpt lat="46.83844" lon="5.3697">
        <ele>198</ele>
        <time>2022-03-21T13:13:15Z</time>
      </trkpt>
      <trkpt lat="46.83838" lon="5.36975">
        <ele>198</ele>
        <time>2022-03-21T13:13:16Z</time>
      </trkpt>
      <trkpt lat="46.83832" lon="5.3698">
        <ele>198.4</ele>
        <time>2022-03-21T13:13:17Z</time>
      </trkpt>
      <trkpt lat="46.83826" lon="5.36985">
        <ele>198.4</ele>
        <time>2022-03-21T13:13:18Z</time>
      </trkpt>
      <trkpt lat="46.8382" lon="5.3699">
        <ele>198.4</ele>
        <time>2022-03-21T13:13:19Z</time>
      </trkpt>
      <trkpt lat="46.83814" lon="5.36995">
        <ele>198.4</ele>
        <time>2022-03-21T13:13:20Z</time>
      </trkpt>
      <trkpt lat="46.83808" lon="5.37">
        <ele>198.4</ele>
        <time>2022-03-21T13:13:21Z</time>
      </trkpt>
      <trkpt lat="46.83802" lon="5.37005">
        <ele>198.4</ele>
        <time>2022-03-21T13:13:22Z</time>
      </trkpt>
      <trkpt lat="46.83797" lon="5.3701">
        <ele>198.4</ele>
        <time>2022-03-21T13:13:23Z</time>
      </trkpt>
      <trkpt lat="46.83791" lon="5.37016">
        <ele>198.4</ele>
        <time>2022-03-21T13:13:24Z</time>
      </trkpt>
      <trkpt lat="46.83785" lon="5.37021">
        <ele>198.4</ele>
        <time>2022-03-21T13:13:25Z</time>
      </trkpt>
      <trkpt lat="46.8378" lon="5.37026">
        <ele>198.4</ele>
        <time>2022-03-21T13:13:26Z</time>
      </trkpt>
      <trkpt lat="46.83774" lon="5.37031">
        <ele>198.4</ele>
        <time>2022-03-21T13:13:27Z</time>
      </trkpt>
      <trkpt lat="46.83768" lon="5.37036">
        <ele>198.4</ele>
        <time>2022-03-21T13:13:28Z</time>
      </trkpt>
      <trkpt lat="46.83762" lon="5.37041">
        <ele>198.4</ele>
        <time>2022-03-21T13:13:29Z</time>
      </trkpt>
      <trkpt lat="46.83756" lon="5.37046">
        <ele>198.4</ele>
        <time>2022-03-21T13:13:30Z</time>
      </trkpt>
      <trkpt lat="46.8375" lon="5.37051">
        <ele>198.4</ele>
        <time>2022-03-21T13:13:31Z</time>
      </trkpt>
      <trkpt lat="46.83744" lon="5.37056">
        <ele>198.4</ele>
        <time>2022-03-21T13:13:32Z</time>
      </trkpt>
      <trkpt lat="46.83739" lon="5.37061">
        <ele>198.4</ele>
        <time>2022-03-21T13:13:33Z</time>
      </trkpt>
      <trkpt lat="46.83733" lon="5.37066">
        <ele>198.4</ele>
        <time>2022-03-21T13:13:34Z</time>
      </trkpt>
      <trkpt lat="46.83727" lon="5.37071">
        <ele>198.4</ele>
        <time>2022-03-21T13:13:35Z</time>
      </trkpt>
      <trkpt lat="46.83722" lon="5.37076">
        <ele>198.4</ele>
        <time>2022-03-21T13:13:36Z</time>
      </trkpt>
      <trkpt lat="46.83716" lon="5.37081">
        <ele>198.4</ele>
        <time>2022-03-21T13:13:37Z</time>
      </trkpt>
      <trkpt lat="46.8371" lon="5.37086">
        <ele>198.4</ele>
        <time>2022-03-21T13:13:38Z</time>
      </trkpt>
      <trkpt lat="46.83705" lon="5.37092">
        <ele>198.4</ele>
        <time>2022-03-21T13:13:39Z</time>
      </trkpt>
      <trkpt lat="46.83699" lon="5.37097">
        <ele>198.4</ele>
        <time>2022-03-21T13:13:40Z</time>
      </trkpt>
      <trkpt lat="46.83693" lon="5.37102">
        <ele>198.4</ele>
        <time>2022-03-21T13:13:41Z</time>
      </trkpt>
      <trkpt lat="46.83687" lon="5.37107">
        <ele>198.6</ele>
        <time>2022-03-21T13:13:42Z</time>
      </trkpt>
      <trkpt lat="46.83682" lon="5.37112">
        <ele>198.6</ele>
        <time>2022-03-21T13:13:43Z</time>
      </trkpt>
      <trkpt lat="46.83676" lon="5.37117">
        <ele>198.6</ele>
        <time>2022-03-21T13:13:44Z</time>
      </trkpt>
      <trkpt lat="46.8367" lon="5.37122">
        <ele>198.6</ele>
        <time>2022-03-21T13:13:45Z</time>
      </trkpt>
      <trkpt lat="46.83664" lon="5.37127">
        <ele>198.8</ele>
        <time>2022-03-21T13:13:46Z</time>
      </trkpt>
      <trkpt lat="46.83658" lon="5.37132">
        <ele>198.8</ele>
        <time>2022-03-21T13:13:47Z</time>
      </trkpt>
      <trkpt lat="46.83652" lon="5.37138">
        <ele>198.8</ele>
        <time>2022-03-21T13:13:48Z</time>
      </trkpt>
      <trkpt lat="46.83647" lon="5.37143">
        <ele>199</ele>
        <time>2022-03-21T13:13:49Z</time>
      </trkpt>
      <trkpt lat="46.83641" lon="5.37148">
        <ele>199</ele>
        <time>2022-03-21T13:13:50Z</time>
      </trkpt>
      <trkpt lat="46.83635" lon="5.37153">
        <ele>199</ele>
        <time>2022-03-21T13:13:51Z</time>
      </trkpt>
      <trkpt lat="46.83629" lon="5.37158">
        <ele>199</ele>
        <time>2022-03-21T13:13:52Z</time>
      </trkpt>
      <trkpt lat="46.83623" lon="5.37163">
        <ele>199</ele>
        <time>2022-03-21T13:13:53Z</time>
      </trkpt>
      <trkpt lat="46.83617" lon="5.37168">
        <ele>199</ele>
        <time>2022-03-21T13:13:54Z</time>
      </trkpt>
      <trkpt lat="46.83612" lon="5.37173">
        <ele>199</ele>
        <time>2022-03-21T13:13:55Z</time>
      </trkpt>
      <trkpt lat="46.83606" lon="5.37178">
        <ele>199</ele>
        <time>2022-03-21T13:13:57Z</time>
      </trkpt>
      <trkpt lat="46.836" lon="5.37184">
        <ele>199</ele>
        <time>2022-03-21T13:13:58Z</time>
      </trkpt>
      <trkpt lat="46.83594" lon="5.37189">
        <ele>199</ele>
        <time>2022-03-21T13:13:59Z</time>
      </trkpt>
      <trkpt lat="46.83589" lon="5.37194">
        <ele>199</ele>
        <time>2022-03-21T13:14:00Z</time>
      </trkpt>
      <trkpt lat="46.83583" lon="5.37199">
        <ele>199</ele>
        <time>2022-03-21T13:14:01Z</time>
      </trkpt>
      <trkpt lat="46.83577" lon="5.37204">
        <ele>199</ele>
        <time>2022-03-21T13:14:02Z</time>
      </trkpt>
      <trkpt lat="46.83571" lon="5.37209">
        <ele>199.2</ele>
        <time>2022-03-21T13:14:03Z</time>
      </trkpt>
      <trkpt lat="46.83565" lon="5.37214">
        <ele>199.2</ele>
        <time>2022-03-21T13:14:04Z</time>
      </trkpt>
      <trkpt lat="46.8356" lon="5.37219">
        <ele>199.2</ele>
        <time>2022-03-21T13:14:05Z</time>
      </trkpt>
      <trkpt lat="46.83554" lon="5.37224">
        <ele>199.2</ele>
        <time>2022-03-21T13:14:06Z</time>
      </trkpt>
      <trkpt lat="46.83548" lon="5.37229">
        <ele>199.2</ele>
        <time>2022-03-21T13:14:07Z</time>
      </trkpt>
      <trkpt lat="46.83543" lon="5.37234">
        <ele>199.2</ele>
        <time>2022-03-21T13:14:08Z</time>
      </trkpt>
      <trkpt lat="46.83537" lon="5.37239">
        <ele>199.2</ele>
        <time>2022-03-21T13:14:09Z</time>
      </trkpt>
      <trkpt lat="46.83532" lon="5.37244">
        <ele>199.2</ele>
        <time>2022-03-21T13:14:10Z</time>
      </trkpt>
      <trkpt lat="46.83526" lon="5.37249">
        <ele>199.2</ele>
        <time>2022-03-21T13:14:11Z</time>
      </trkpt>
      <trkpt lat="46.8352" lon="5.37254">
        <ele>199.4</ele>
        <time>2022-03-21T13:14:12Z</time>
      </trkpt>
      <trkpt lat="46.83515" lon="5.37259">
        <ele>199.4</ele>
        <time>2022-03-21T13:14:13Z</time>
      </trkpt>
      <trkpt lat="46.83509" lon="5.37264">
        <ele>199.4</ele>
        <time>2022-03-21T13:14:14Z</time>
      </trkpt>
      <trkpt lat="46.83504" lon="5.37269">
        <ele>199.4</ele>
        <time>2022-03-21T13:14:15Z</time>
      </trkpt>
      <trkpt lat="46.83498" lon="5.37273">
        <ele>199.6</ele>
        <time>2022-03-21T13:14:16Z</time>
      </trkpt>
      <trkpt lat="46.83492" lon="5.37279">
        <ele>199.6</ele>
        <time>2022-03-21T13:14:17Z</time>
      </trkpt>
      <trkpt lat="46.83487" lon="5.37284">
        <ele>199.6</ele>
        <time>2022-03-21T13:14:18Z</time>
      </trkpt>
      <trkpt lat="46.83481" lon="5.37289">
        <ele>199.6</ele>
        <time>2022-03-21T13:14:19Z</time>
      </trkpt>
      <trkpt lat="46.83476" lon="5.37293">
        <ele>199.6</ele>
        <time>2022-03-21T13:14:20Z</time>
      </trkpt>
      <trkpt lat="46.8347" lon="5.37298">
        <ele>199.6</ele>
        <time>2022-03-21T13:14:21Z</time>
      </trkpt>
      <trkpt lat="46.83465" lon="5.37303">
        <ele>199.6</ele>
        <time>2022-03-21T13:14:22Z</time>
      </trkpt>
      <trkpt lat="46.83459" lon="5.37308">
        <ele>199.6</ele>
        <time>2022-03-21T13:14:23Z</time>
      </trkpt>
      <trkpt lat="46.83454" lon="5.37313">
        <ele>199.6</ele>
        <time>2022-03-21T13:14:24Z</time>
      </trkpt>
      <trkpt lat="46.83449" lon="5.37318">
        <ele>199.6</ele>
        <time>2022-03-21T13:14:25Z</time>
      </trkpt>
      <trkpt lat="46.83443" lon="5.37322">
        <ele>199.6</ele>
        <time>2022-03-21T13:14:26Z</time>
      </trkpt>
      <trkpt lat="46.83437" lon="5.37327">
        <ele>199.8</ele>
        <time>2022-03-21T13:14:27Z</time>
      </trkpt>
      <trkpt lat="46.83432" lon="5.37332">
        <ele>199.8</ele>
        <time>2022-03-21T13:14:28Z</time>
      </trkpt>
      <trkpt lat="46.83426" lon="5.37337">
        <ele>199.8</ele>
        <time>2022-03-21T13:14:29Z</time>
      </trkpt>
      <trkpt lat="46.83421" lon="5.37342">
        <ele>199.8</ele>
        <time>2022-03-21T13:14:30Z</time>
      </trkpt>
      <trkpt lat="46.83415" lon="5.37347">
        <ele>200</ele>
        <time>2022-03-21T13:14:31Z</time>
      </trkpt>
      <trkpt lat="46.83409" lon="5.37352">
        <ele>200</ele>
        <time>2022-03-21T13:14:32Z</time>
      </trkpt>
      <trkpt lat="46.83404" lon="5.37357">
        <ele>200</ele>
        <time>2022-03-21T13:14:33Z</time>
      </trkpt>
      <trkpt lat="46.83398" lon="5.37362">
        <ele>200</ele>
        <time>2022-03-21T13:14:34Z</time>
      </trkpt>
      <trkpt lat="46.83392" lon="5.37367">
        <ele>200.4</ele>
        <time>2022-03-21T13:14:35Z</time>
      </trkpt>
      <trkpt lat="46.83387" lon="5.37372">
        <ele>200.4</ele>
        <time>2022-03-21T13:14:36Z</time>
      </trkpt>
      <trkpt lat="46.83381" lon="5.37377">
        <ele>200.4</ele>
        <time>2022-03-21T13:14:37Z</time>
      </trkpt>
      <trkpt lat="46.83375" lon="5.37382">
        <ele>200.4</ele>
        <time>2022-03-21T13:14:38Z</time>
      </trkpt>
      <trkpt lat="46.83369" lon="5.37387">
        <ele>200.6</ele>
        <time>2022-03-21T13:14:39Z</time>
      </trkpt>
      <trkpt lat="46.83364" lon="5.37392">
        <ele>200.6</ele>
        <time>2022-03-21T13:14:40Z</time>
      </trkpt>
      <trkpt lat="46.83358" lon="5.37396">
        <ele>200.8</ele>
        <time>2022-03-21T13:14:41Z</time>
      </trkpt>
      <trkpt lat="46.83352" lon="5.37401">
        <ele>200.8</ele>
        <time>2022-03-21T13:14:42Z</time>
      </trkpt>
      <trkpt lat="46.83346" lon="5.37406">
        <ele>200.8</ele>
        <time>2022-03-21T13:14:43Z</time>
      </trkpt>
      <trkpt lat="46.83341" lon="5.37411">
        <ele>200.8</ele>
        <time>2022-03-21T13:14:44Z</time>
      </trkpt>
      <trkpt lat="46.83335" lon="5.37416">
        <ele>201.2</ele>
        <time>2022-03-21T13:14:45Z</time>
      </trkpt>
      <trkpt lat="46.8333" lon="5.37421">
        <ele>201.2</ele>
        <time>2022-03-21T13:14:46Z</time>
      </trkpt>
      <trkpt lat="46.83324" lon="5.37425">
        <ele>201.2</ele>
        <time>2022-03-21T13:14:47Z</time>
      </trkpt>
      <trkpt lat="46.83319" lon="5.3743">
        <ele>201.2</ele>
        <time>2022-03-21T13:14:48Z</time>
      </trkpt>
      <trkpt lat="46.83314" lon="5.37435">
        <ele>201.4</ele>
        <time>2022-03-21T13:14:49Z</time>
      </trkpt>
      <trkpt lat="46.83308" lon="5.3744">
        <ele>201.4</ele>
        <time>2022-03-21T13:14:50Z</time>
      </trkpt>
      <trkpt lat="46.83303" lon="5.37444">
        <ele>201.4</ele>
        <time>2022-03-21T13:14:51Z</time>
      </trkpt>
      <trkpt lat="46.83298" lon="5.37449">
        <ele>201.6</ele>
        <time>2022-03-21T13:14:52Z</time>
      </trkpt>
      <trkpt lat="46.83293" lon="5.37454">
        <ele>201.6</ele>
        <time>2022-03-21T13:14:53Z</time>
      </trkpt>
      <trkpt lat="46.83288" lon="5.37458">
        <ele>201.6</ele>
        <time>2022-03-21T13:14:54Z</time>
      </trkpt>
      <trkpt lat="46.83283" lon="5.37462">
        <ele>201.8</ele>
        <time>2022-03-21T13:14:55Z</time>
      </trkpt>
      <trkpt lat="46.83278" lon="5.37467">
        <ele>201.8</ele>
        <time>2022-03-21T13:14:56Z</time>
      </trkpt>
      <trkpt lat="46.83273" lon="5.37471">
        <ele>201.8</ele>
        <time>2022-03-21T13:14:57Z</time>
      </trkpt>
      <trkpt lat="46.83268" lon="5.37476">
        <ele>202.2</ele>
        <time>2022-03-21T13:14:58Z</time>
      </trkpt>
      <trkpt lat="46.83263" lon="5.3748">
        <ele>202.2</ele>
        <time>2022-03-21T13:14:59Z</time>
      </trkpt>
      <trkpt lat="46.83258" lon="5.37484">
        <ele>202.4</ele>
        <time>2022-03-21T13:15:00Z</time>
      </trkpt>
      <trkpt lat="46.83253" lon="5.37488">
        <ele>202.4</ele>
        <time>2022-03-21T13:15:01Z</time>
      </trkpt>
      <trkpt lat="46.83248" lon="5.37493">
        <ele>202.6</ele>
        <time>2022-03-21T13:15:02Z</time>
      </trkpt>
      <trkpt lat="46.83243" lon="5.37497">
        <ele>202.6</ele>
        <time>2022-03-21T13:15:03Z</time>
      </trkpt>
      <trkpt lat="46.83238" lon="5.37502">
        <ele>202.6</ele>
        <time>2022-03-21T13:15:04Z</time>
      </trkpt>
      <trkpt lat="46.83233" lon="5.37506">
        <ele>202.6</ele>
        <time>2022-03-21T13:15:05Z</time>
      </trkpt>
      <trkpt lat="46.83228" lon="5.3751">
        <ele>202.8</ele>
        <time>2022-03-21T13:15:06Z</time>
      </trkpt>
      <trkpt lat="46.83223" lon="5.37515">
        <ele>202.8</ele>
        <time>2022-03-21T13:15:07Z</time>
      </trkpt>
      <trkpt lat="46.83218" lon="5.37519">
        <ele>203.2</ele>
        <time>2022-03-21T13:15:08Z</time>
      </trkpt>
      <trkpt lat="46.83213" lon="5.37524">
        <ele>203.2</ele>
        <time>2022-03-21T13:15:09Z</time>
      </trkpt>
      <trkpt lat="46.83208" lon="5.37528">
        <ele>203.2</ele>
        <time>2022-03-21T13:15:10Z</time>
      </trkpt>
      <trkpt lat="46.83203" lon="5.37532">
        <ele>203.4</ele>
        <time>2022-03-21T13:15:11Z</time>
      </trkpt>
      <trkpt lat="46.83198" lon="5.37537">
        <ele>203.4</ele>
        <time>2022-03-21T13:15:12Z</time>
      </trkpt>
      <trkpt lat="46.83193" lon="5.37541">
        <ele>203.4</ele>
        <time>2022-03-21T13:15:13Z</time>
      </trkpt>
      <trkpt lat="46.83188" lon="5.37545">
        <ele>203.6</ele>
        <time>2022-03-21T13:15:14Z</time>
      </trkpt>
      <trkpt lat="46.83183" lon="5.3755">
        <ele>203.6</ele>
        <time>2022-03-21T13:15:15Z</time>
      </trkpt>
      <trkpt lat="46.83178" lon="5.37554">
        <ele>203.6</ele>
        <time>2022-03-21T13:15:16Z</time>
      </trkpt>
      <trkpt lat="46.83173" lon="5.37558">
        <ele>203.6</ele>
        <time>2022-03-21T13:15:17Z</time>
      </trkpt>
      <trkpt lat="46.83168" lon="5.37563">
        <ele>203.8</ele>
        <time>2022-03-21T13:15:18Z</time>
      </trkpt>
      <trkpt lat="46.83163" lon="5.37568">
        <ele>203.8</ele>
        <time>2022-03-21T13:15:19Z</time>
      </trkpt>
      <trkpt lat="46.83158" lon="5.37572">
        <ele>203.8</ele>
        <time>2022-03-21T13:15:20Z</time>
      </trkpt>
      <trkpt lat="46.83152" lon="5.37576">
        <ele>203.8</ele>
        <time>2022-03-21T13:15:21Z</time>
      </trkpt>
      <trkpt lat="46.83147" lon="5.37581">
        <ele>203.8</ele>
        <time>2022-03-21T13:15:22Z</time>
      </trkpt>
      <trkpt lat="46.83142" lon="5.37586">
        <ele>203.8</ele>
        <time>2022-03-21T13:15:23Z</time>
      </trkpt>
      <trkpt lat="46.83137" lon="5.37591">
        <ele>204</ele>
        <time>2022-03-21T13:15:24Z</time>
      </trkpt>
      <trkpt lat="46.83132" lon="5.37596">
        <ele>204</ele>
        <time>2022-03-21T13:15:25Z</time>
      </trkpt>
      <trkpt lat="46.83126" lon="5.376">
        <ele>204</ele>
        <time>2022-03-21T13:15:26Z</time>
      </trkpt>
      <trkpt lat="46.83121" lon="5.37605">
        <ele>204</ele>
        <time>2022-03-21T13:15:27Z</time>
      </trkpt>
      <trkpt lat="46.83115" lon="5.37609">
        <ele>204</ele>
        <time>2022-03-21T13:15:28Z</time>
      </trkpt>
      <trkpt lat="46.8311" lon="5.37614">
        <ele>204</ele>
        <time>2022-03-21T13:15:29Z</time>
      </trkpt>
      <trkpt lat="46.83105" lon="5.37618">
        <ele>204</ele>
        <time>2022-03-21T13:15:30Z</time>
      </trkpt>
      <trkpt lat="46.83099" lon="5.37623">
        <ele>204.2</ele>
        <time>2022-03-21T13:15:31Z</time>
      </trkpt>
      <trkpt lat="46.83094" lon="5.37628">
        <ele>204.2</ele>
        <time>2022-03-21T13:15:32Z</time>
      </trkpt>
      <trkpt lat="46.83089" lon="5.37632">
        <ele>204.2</ele>
        <time>2022-03-21T13:15:33Z</time>
      </trkpt>
      <trkpt lat="46.83083" lon="5.37637">
        <ele>204.2</ele>
        <time>2022-03-21T13:15:34Z</time>
      </trkpt>
      <trkpt lat="46.83078" lon="5.37642">
        <ele>204.2</ele>
        <time>2022-03-21T13:15:35Z</time>
      </trkpt>
      <trkpt lat="46.83072" lon="5.37646">
        <ele>204.2</ele>
        <time>2022-03-21T13:15:36Z</time>
      </trkpt>
      <trkpt lat="46.83067" lon="5.37651">
        <ele>204.4</ele>
        <time>2022-03-21T13:15:37Z</time>
      </trkpt>
      <trkpt lat="46.83062" lon="5.37656">
        <ele>204.4</ele>
        <time>2022-03-21T13:15:38Z</time>
      </trkpt>
      <trkpt lat="46.83057" lon="5.37661">
        <ele>204.4</ele>
        <time>2022-03-21T13:15:39Z</time>
      </trkpt>
      <trkpt lat="46.83051" lon="5.37666">
        <ele>204.4</ele>
        <time>2022-03-21T13:15:40Z</time>
      </trkpt>
      <trkpt lat="46.83046" lon="5.3767">
        <ele>204.4</ele>
        <time>2022-03-21T13:15:41Z</time>
      </trkpt>
      <trkpt lat="46.83041" lon="5.37674">
        <ele>204.4</ele>
        <time>2022-03-21T13:15:42Z</time>
      </trkpt>
      <trkpt lat="46.83035" lon="5.37679">
        <ele>204.4</ele>
        <time>2022-03-21T13:15:43Z</time>
      </trkpt>
      <trkpt lat="46.8303" lon="5.37683">
        <ele>204.4</ele>
        <time>2022-03-21T13:15:44Z</time>
      </trkpt>
      <trkpt lat="46.83025" lon="5.37688">
        <ele>204.4</ele>
        <time>2022-03-21T13:15:45Z</time>
      </trkpt>
      <trkpt lat="46.83019" lon="5.37692">
        <ele>204.4</ele>
        <time>2022-03-21T13:15:46Z</time>
      </trkpt>
      <trkpt lat="46.83014" lon="5.37697">
        <ele>204.4</ele>
        <time>2022-03-21T13:15:47Z</time>
      </trkpt>
      <trkpt lat="46.83009" lon="5.37701">
        <ele>204.4</ele>
        <time>2022-03-21T13:15:48Z</time>
      </trkpt>
      <trkpt lat="46.83004" lon="5.37706">
        <ele>204.4</ele>
        <time>2022-03-21T13:15:49Z</time>
      </trkpt>
      <trkpt lat="46.82999" lon="5.37711">
        <ele>204.4</ele>
        <time>2022-03-21T13:15:50Z</time>
      </trkpt>
      <trkpt lat="46.82993" lon="5.37715">
        <ele>204.4</ele>
        <time>2022-03-21T13:15:51Z</time>
      </trkpt>
      <trkpt lat="46.82988" lon="5.3772">
        <ele>204.4</ele>
        <time>2022-03-21T13:15:52Z</time>
      </trkpt>
      <trkpt lat="46.82983" lon="5.37724">
        <ele>204.4</ele>
        <time>2022-03-21T13:15:53Z</time>
      </trkpt>
      <trkpt lat="46.82977" lon="5.37728">
        <ele>204.4</ele>
        <time>2022-03-21T13:15:54Z</time>
      </trkpt>
      <trkpt lat="46.82972" lon="5.37733">
        <ele>204.4</ele>
        <time>2022-03-21T13:15:55Z</time>
      </trkpt>
      <trkpt lat="46.82966" lon="5.37738">
        <ele>204.2</ele>
        <time>2022-03-21T13:15:56Z</time>
      </trkpt>
      <trkpt lat="46.8296" lon="5.37743">
        <ele>204</ele>
        <time>2022-03-21T13:15:57Z</time>
      </trkpt>
      <trkpt lat="46.82954" lon="5.37749">
        <ele>204</ele>
        <time>2022-03-21T13:15:58Z</time>
      </trkpt>
      <trkpt lat="46.82947" lon="5.37754">
        <ele>203.6</ele>
        <time>2022-03-21T13:15:59Z</time>
      </trkpt>
      <trkpt lat="46.82941" lon="5.3776">
        <ele>203.4</ele>
        <time>2022-03-21T13:16:00Z</time>
      </trkpt>
      <trkpt lat="46.82934" lon="5.37766">
        <ele>203.2</ele>
        <time>2022-03-21T13:16:01Z</time>
      </trkpt>
      <trkpt lat="46.82928" lon="5.37772">
        <ele>202.8</ele>
        <time>2022-03-21T13:16:02Z</time>
      </trkpt>
      <trkpt lat="46.82921" lon="5.37778">
        <ele>202.6</ele>
        <time>2022-03-21T13:16:03Z</time>
      </trkpt>
      <trkpt lat="46.82914" lon="5.37784">
        <ele>202.4</ele>
        <time>2022-03-21T13:16:04Z</time>
      </trkpt>
      <trkpt lat="46.82907" lon="5.3779">
        <ele>202.4</ele>
        <time>2022-03-21T13:16:05Z</time>
      </trkpt>
      <trkpt lat="46.829" lon="5.37796">
        <ele>202</ele>
        <time>2022-03-21T13:16:06Z</time>
      </trkpt>
      <trkpt lat="46.82894" lon="5.37802">
        <ele>201.8</ele>
        <time>2022-03-21T13:16:07Z</time>
      </trkpt>
      <trkpt lat="46.82887" lon="5.37808">
        <ele>201.6</ele>
        <time>2022-03-21T13:16:08Z</time>
      </trkpt>
      <trkpt lat="46.82879" lon="5.37815">
        <ele>201.2</ele>
        <time>2022-03-21T13:16:09Z</time>
      </trkpt>
      <trkpt lat="46.82872" lon="5.37821">
        <ele>201</ele>
        <time>2022-03-21T13:16:10Z</time>
      </trkpt>
      <trkpt lat="46.82865" lon="5.37827">
        <ele>200.8</ele>
        <time>2022-03-21T13:16:11Z</time>
      </trkpt>
      <trkpt lat="46.82858" lon="5.37834">
        <ele>200.8</ele>
        <time>2022-03-21T13:16:12Z</time>
      </trkpt>
      <trkpt lat="46.8285" lon="5.3784">
        <ele>200.6</ele>
        <time>2022-03-21T13:16:13Z</time>
      </trkpt>
      <trkpt lat="46.82843" lon="5.37846">
        <ele>200.6</ele>
        <time>2022-03-21T13:16:14Z</time>
      </trkpt>
      <trkpt lat="46.82836" lon="5.37853">
        <ele>200.2</ele>
        <time>2022-03-21T13:16:15Z</time>
      </trkpt>
      <trkpt lat="46.82821" lon="5.37865">
        <ele>200.2</ele>
        <time>2022-03-21T13:16:16Z</time>
      </trkpt>
      <trkpt lat="46.82815" lon="5.37871">
        <ele>200.2</ele>
        <time>2022-03-21T13:16:17Z</time>
      </trkpt>
      <trkpt lat="46.82808" lon="5.37877">
        <ele>200</ele>
        <time>2022-03-21T13:16:18Z</time>
      </trkpt>
      <trkpt lat="46.82801" lon="5.37882">
        <ele>200</ele>
        <time>2022-03-21T13:16:19Z</time>
      </trkpt>
      <trkpt lat="46.82795" lon="5.37888">
        <ele>200</ele>
        <time>2022-03-21T13:16:20Z</time>
      </trkpt>
      <trkpt lat="46.82788" lon="5.37894">
        <ele>200</ele>
        <time>2022-03-21T13:16:21Z</time>
      </trkpt>
      <trkpt lat="46.82782" lon="5.37899">
        <ele>200</ele>
        <time>2022-03-21T13:16:22Z</time>
      </trkpt>
      <trkpt lat="46.82776" lon="5.37905">
        <ele>200</ele>
        <time>2022-03-21T13:16:23Z</time>
      </trkpt>
      <trkpt lat="46.82769" lon="5.3791">
        <ele>200</ele>
        <time>2022-03-21T13:16:24Z</time>
      </trkpt>
      <trkpt lat="46.82763" lon="5.37916">
        <ele>200</ele>
        <time>2022-03-21T13:16:25Z</time>
      </trkpt>
      <trkpt lat="46.82757" lon="5.37922">
        <ele>200.2</ele>
        <time>2022-03-21T13:16:26Z</time>
      </trkpt>
      <trkpt lat="46.82751" lon="5.37927">
        <ele>200.2</ele>
        <time>2022-03-21T13:16:27Z</time>
      </trkpt>
      <trkpt lat="46.82745" lon="5.37933">
        <ele>200.2</ele>
        <time>2022-03-21T13:16:28Z</time>
      </trkpt>
      <trkpt lat="46.82739" lon="5.37938">
        <ele>200.6</ele>
        <time>2022-03-21T13:16:29Z</time>
      </trkpt>
      <trkpt lat="46.82733" lon="5.37943">
        <ele>200.6</ele>
        <time>2022-03-21T13:16:30Z</time>
      </trkpt>
      <trkpt lat="46.82727" lon="5.37948">
        <ele>201</ele>
        <time>2022-03-21T13:16:31Z</time>
      </trkpt>
      <trkpt lat="46.82721" lon="5.37953">
        <ele>201</ele>
        <time>2022-03-21T13:16:32Z</time>
      </trkpt>
      <trkpt lat="46.82716" lon="5.37958">
        <ele>201.4</ele>
        <time>2022-03-21T13:16:33Z</time>
      </trkpt>
      <trkpt lat="46.8271" lon="5.37963">
        <ele>201.6</ele>
        <time>2022-03-21T13:16:34Z</time>
      </trkpt>
      <trkpt lat="46.82705" lon="5.37967">
        <ele>201.8</ele>
        <time>2022-03-21T13:16:35Z</time>
      </trkpt>
      <trkpt lat="46.82699" lon="5.37971">
        <ele>202</ele>
        <time>2022-03-21T13:16:36Z</time>
      </trkpt>
      <trkpt lat="46.82694" lon="5.37976">
        <ele>202</ele>
        <time>2022-03-21T13:16:37Z</time>
      </trkpt>
      <trkpt lat="46.82689" lon="5.3798">
        <ele>202.4</ele>
        <time>2022-03-21T13:16:38Z</time>
      </trkpt>
      <trkpt lat="46.82683" lon="5.37985">
        <ele>202.4</ele>
        <time>2022-03-21T13:16:39Z</time>
      </trkpt>
      <trkpt lat="46.82678" lon="5.3799">
        <ele>202.8</ele>
        <time>2022-03-21T13:16:40Z</time>
      </trkpt>
      <trkpt lat="46.82673" lon="5.37994">
        <ele>202.8</ele>
        <time>2022-03-21T13:16:41Z</time>
      </trkpt>
      <trkpt lat="46.82668" lon="5.37998">
        <ele>203</ele>
        <time>2022-03-21T13:16:42Z</time>
      </trkpt>
      <trkpt lat="46.82663" lon="5.38003">
        <ele>203</ele>
        <time>2022-03-21T13:16:43Z</time>
      </trkpt>
      <trkpt lat="46.82657" lon="5.38007">
        <ele>203.4</ele>
        <time>2022-03-21T13:16:44Z</time>
      </trkpt>
      <trkpt lat="46.82652" lon="5.38012">
        <ele>203.4</ele>
        <time>2022-03-21T13:16:45Z</time>
      </trkpt>
      <trkpt lat="46.82647" lon="5.38016">
        <ele>203.4</ele>
        <time>2022-03-21T13:16:46Z</time>
      </trkpt>
      <trkpt lat="46.82642" lon="5.38021">
        <ele>203.6</ele>
        <time>2022-03-21T13:16:47Z</time>
      </trkpt>
      <trkpt lat="46.82636" lon="5.38026">
        <ele>203.6</ele>
        <time>2022-03-21T13:16:48Z</time>
      </trkpt>
      <trkpt lat="46.82631" lon="5.3803">
        <ele>203.6</ele>
        <time>2022-03-21T13:16:49Z</time>
      </trkpt>
      <trkpt lat="46.82625" lon="5.38035">
        <ele>203.6</ele>
        <time>2022-03-21T13:16:50Z</time>
      </trkpt>
      <trkpt lat="46.82619" lon="5.3804">
        <ele>203.6</ele>
        <time>2022-03-21T13:16:51Z</time>
      </trkpt>
      <trkpt lat="46.82614" lon="5.38045">
        <ele>203.6</ele>
        <time>2022-03-21T13:16:52Z</time>
      </trkpt>
      <trkpt lat="46.82608" lon="5.3805">
        <ele>203.4</ele>
        <time>2022-03-21T13:16:53Z</time>
      </trkpt>
      <trkpt lat="46.82602" lon="5.38055">
        <ele>203.4</ele>
        <time>2022-03-21T13:16:54Z</time>
      </trkpt>
      <trkpt lat="46.82596" lon="5.3806">
        <ele>203.4</ele>
        <time>2022-03-21T13:16:55Z</time>
      </trkpt>
      <trkpt lat="46.8259" lon="5.38065">
        <ele>203.4</ele>
        <time>2022-03-21T13:16:56Z</time>
      </trkpt>
      <trkpt lat="46.82585" lon="5.3807">
        <ele>203.4</ele>
        <time>2022-03-21T13:16:57Z</time>
      </trkpt>
      <trkpt lat="46.82579" lon="5.38075">
        <ele>203.4</ele>
        <time>2022-03-21T13:16:58Z</time>
      </trkpt>
      <trkpt lat="46.82573" lon="5.3808">
        <ele>203.4</ele>
        <time>2022-03-21T13:16:59Z</time>
      </trkpt>
      <trkpt lat="46.82567" lon="5.38085">
        <ele>203.4</ele>
        <time>2022-03-21T13:17:00Z</time>
      </trkpt>
      <trkpt lat="46.8256" lon="5.38091">
        <ele>203</ele>
        <time>2022-03-21T13:17:01Z</time>
      </trkpt>
      <trkpt lat="46.82554" lon="5.38096">
        <ele>203</ele>
        <time>2022-03-21T13:17:02Z</time>
      </trkpt>
      <trkpt lat="46.82548" lon="5.38101">
        <ele>203</ele>
        <time>2022-03-21T13:17:03Z</time>
      </trkpt>
      <trkpt lat="46.82542" lon="5.38107">
        <ele>203</ele>
        <time>2022-03-21T13:17:04Z</time>
      </trkpt>
      <trkpt lat="46.82536" lon="5.38112">
        <ele>203</ele>
        <time>2022-03-21T13:17:05Z</time>
      </trkpt>
      <trkpt lat="46.8253" lon="5.38118">
        <ele>202.8</ele>
        <time>2022-03-21T13:17:06Z</time>
      </trkpt>
      <trkpt lat="46.82523" lon="5.38123">
        <ele>202.8</ele>
        <time>2022-03-21T13:17:07Z</time>
      </trkpt>
      <trkpt lat="46.82517" lon="5.38129">
        <ele>202.8</ele>
        <time>2022-03-21T13:17:08Z</time>
      </trkpt>
      <trkpt lat="46.82511" lon="5.38134">
        <ele>202.8</ele>
        <time>2022-03-21T13:17:09Z</time>
      </trkpt>
      <trkpt lat="46.82505" lon="5.38139">
        <ele>202.8</ele>
        <time>2022-03-21T13:17:10Z</time>
      </trkpt>
      <trkpt lat="46.82499" lon="5.38145">
        <ele>202.8</ele>
        <time>2022-03-21T13:17:11Z</time>
      </trkpt>
      <trkpt lat="46.82493" lon="5.3815">
        <ele>202.8</ele>
        <time>2022-03-21T13:17:12Z</time>
      </trkpt>
      <trkpt lat="46.82487" lon="5.38155">
        <ele>203</ele>
        <time>2022-03-21T13:17:13Z</time>
      </trkpt>
      <trkpt lat="46.8248" lon="5.38161">
        <ele>203</ele>
        <time>2022-03-21T13:17:14Z</time>
      </trkpt>
      <trkpt lat="46.82474" lon="5.38166">
        <ele>203.4</ele>
        <time>2022-03-21T13:17:15Z</time>
      </trkpt>
      <trkpt lat="46.82468" lon="5.38171">
        <ele>203.6</ele>
        <time>2022-03-21T13:17:16Z</time>
      </trkpt>
      <trkpt lat="46.82462" lon="5.38177">
        <ele>203.6</ele>
        <time>2022-03-21T13:17:17Z</time>
      </trkpt>
      <trkpt lat="46.82455" lon="5.38182">
        <ele>203.6</ele>
        <time>2022-03-21T13:17:18Z</time>
      </trkpt>
      <trkpt lat="46.82449" lon="5.38188">
        <ele>204</ele>
        <time>2022-03-21T13:17:19Z</time>
      </trkpt>
      <trkpt lat="46.82442" lon="5.38194">
        <ele>204</ele>
        <time>2022-03-21T13:17:20Z</time>
      </trkpt>
      <trkpt lat="46.82436" lon="5.38199">
        <ele>204</ele>
        <time>2022-03-21T13:17:21Z</time>
      </trkpt>
      <trkpt lat="46.8243" lon="5.38205">
        <ele>204.2</ele>
        <time>2022-03-21T13:17:22Z</time>
      </trkpt>
      <trkpt lat="46.82423" lon="5.3821">
        <ele>204.2</ele>
        <time>2022-03-21T13:17:23Z</time>
      </trkpt>
      <trkpt lat="46.82417" lon="5.38215">
        <ele>204.2</ele>
        <time>2022-03-21T13:17:24Z</time>
      </trkpt>
      <trkpt lat="46.82411" lon="5.3822">
        <ele>204</ele>
        <time>2022-03-21T13:17:25Z</time>
      </trkpt>
      <trkpt lat="46.82406" lon="5.38226">
        <ele>204</ele>
        <time>2022-03-21T13:17:26Z</time>
      </trkpt>
      <trkpt lat="46.824" lon="5.38231">
        <ele>203.8</ele>
        <time>2022-03-21T13:17:27Z</time>
      </trkpt>
      <trkpt lat="46.82394" lon="5.38236">
        <ele>203.8</ele>
        <time>2022-03-21T13:17:28Z</time>
      </trkpt>
      <trkpt lat="46.82388" lon="5.38241">
        <ele>203.4</ele>
        <time>2022-03-21T13:17:29Z</time>
      </trkpt>
      <trkpt lat="46.82382" lon="5.38245">
        <ele>203.4</ele>
        <time>2022-03-21T13:17:30Z</time>
      </trkpt>
      <trkpt lat="46.82377" lon="5.3825">
        <ele>203.2</ele>
        <time>2022-03-21T13:17:31Z</time>
      </trkpt>
      <trkpt lat="46.82371" lon="5.38256">
        <ele>203.2</ele>
        <time>2022-03-21T13:17:32Z</time>
      </trkpt>
      <trkpt lat="46.82365" lon="5.38261">
        <ele>203.2</ele>
        <time>2022-03-21T13:17:33Z</time>
      </trkpt>
      <trkpt lat="46.8236" lon="5.38265">
        <ele>203.2</ele>
        <time>2022-03-21T13:17:34Z</time>
      </trkpt>
      <trkpt lat="46.82354" lon="5.3827">
        <ele>203.2</ele>
        <time>2022-03-21T13:17:35Z</time>
      </trkpt>
      <trkpt lat="46.82348" lon="5.38275">
        <ele>203.2</ele>
        <time>2022-03-21T13:17:36Z</time>
      </trkpt>
      <trkpt lat="46.82343" lon="5.3828">
        <ele>203.2</ele>
        <time>2022-03-21T13:17:37Z</time>
      </trkpt>
      <trkpt lat="46.82337" lon="5.38285">
        <ele>203.2</ele>
        <time>2022-03-21T13:17:38Z</time>
      </trkpt>
      <trkpt lat="46.82331" lon="5.3829">
        <ele>203.2</ele>
        <time>2022-03-21T13:17:39Z</time>
      </trkpt>
      <trkpt lat="46.82325" lon="5.38295">
        <ele>203.2</ele>
        <time>2022-03-21T13:17:40Z</time>
      </trkpt>
      <trkpt lat="46.8232" lon="5.38299">
        <ele>203.2</ele>
        <time>2022-03-21T13:17:41Z</time>
      </trkpt>
      <trkpt lat="46.82314" lon="5.38304">
        <ele>203.2</ele>
        <time>2022-03-21T13:17:42Z</time>
      </trkpt>
      <trkpt lat="46.82308" lon="5.38309">
        <ele>203.2</ele>
        <time>2022-03-21T13:17:43Z</time>
      </trkpt>
      <trkpt lat="46.82303" lon="5.38314">
        <ele>203.2</ele>
        <time>2022-03-21T13:17:44Z</time>
      </trkpt>
      <trkpt lat="46.82297" lon="5.38319">
        <ele>203.2</ele>
        <time>2022-03-21T13:17:45Z</time>
      </trkpt>
      <trkpt lat="46.82292" lon="5.38324">
        <ele>203.2</ele>
        <time>2022-03-21T13:17:46Z</time>
      </trkpt>
      <trkpt lat="46.82286" lon="5.38328">
        <ele>203.2</ele>
        <time>2022-03-21T13:17:47Z</time>
      </trkpt>
      <trkpt lat="46.82281" lon="5.38333">
        <ele>203.2</ele>
        <time>2022-03-21T13:17:48Z</time>
      </trkpt>
      <trkpt lat="46.82276" lon="5.38338">
        <ele>203.2</ele>
        <time>2022-03-21T13:17:49Z</time>
      </trkpt>
      <trkpt lat="46.8227" lon="5.38342">
        <ele>203.2</ele>
        <time>2022-03-21T13:17:50Z</time>
      </trkpt>
      <trkpt lat="46.82265" lon="5.38346">
        <ele>203.4</ele>
        <time>2022-03-21T13:17:51Z</time>
      </trkpt>
      <trkpt lat="46.8226" lon="5.38351">
        <ele>203.4</ele>
        <time>2022-03-21T13:17:52Z</time>
      </trkpt>
      <trkpt lat="46.82255" lon="5.38355">
        <ele>203.4</ele>
        <time>2022-03-21T13:17:53Z</time>
      </trkpt>
      <trkpt lat="46.8225" lon="5.38359">
        <ele>203.6</ele>
        <time>2022-03-21T13:17:54Z</time>
      </trkpt>
      <trkpt lat="46.82245" lon="5.38364">
        <ele>203.6</ele>
        <time>2022-03-21T13:17:55Z</time>
      </trkpt>
      <trkpt lat="46.8224" lon="5.38368">
        <ele>203.6</ele>
        <time>2022-03-21T13:17:56Z</time>
      </trkpt>
      <trkpt lat="46.82235" lon="5.38373">
        <ele>203.6</ele>
        <time>2022-03-21T13:17:57Z</time>
      </trkpt>
      <trkpt lat="46.8223" lon="5.38377">
        <ele>203.8</ele>
        <time>2022-03-21T13:17:58Z</time>
      </trkpt>
      <trkpt lat="46.82225" lon="5.38381">
        <ele>203.8</ele>
        <time>2022-03-21T13:17:59Z</time>
      </trkpt>
      <trkpt lat="46.8222" lon="5.38385">
        <ele>204.2</ele>
        <time>2022-03-21T13:18:00Z</time>
      </trkpt>
      <trkpt lat="46.82215" lon="5.38389">
        <ele>204.2</ele>
        <time>2022-03-21T13:18:01Z</time>
      </trkpt>
      <trkpt lat="46.8221" lon="5.38394">
        <ele>204.2</ele>
        <time>2022-03-21T13:18:02Z</time>
      </trkpt>
      <trkpt lat="46.82205" lon="5.38398">
        <ele>204.2</ele>
        <time>2022-03-21T13:18:03Z</time>
      </trkpt>
      <trkpt lat="46.822" lon="5.38402">
        <ele>204.4</ele>
        <time>2022-03-21T13:18:05Z</time>
      </trkpt>
      <trkpt lat="46.82195" lon="5.38406">
        <ele>204.4</ele>
        <time>2022-03-21T13:18:06Z</time>
      </trkpt>
      <trkpt lat="46.8219" lon="5.3841">
        <ele>204.6</ele>
        <time>2022-03-21T13:18:07Z</time>
      </trkpt>
      <trkpt lat="46.82185" lon="5.38415">
        <ele>204.6</ele>
        <time>2022-03-21T13:18:08Z</time>
      </trkpt>
      <trkpt lat="46.8218" lon="5.38419">
        <ele>204.6</ele>
        <time>2022-03-21T13:18:09Z</time>
      </trkpt>
      <trkpt lat="46.82176" lon="5.38423">
        <ele>204.8</ele>
        <time>2022-03-21T13:18:10Z</time>
      </trkpt>
      <trkpt lat="46.82171" lon="5.38427">
        <ele>204.8</ele>
        <time>2022-03-21T13:18:11Z</time>
      </trkpt>
      <trkpt lat="46.82166" lon="5.38432">
        <ele>205.2</ele>
        <time>2022-03-21T13:18:12Z</time>
      </trkpt>
      <trkpt lat="46.82161" lon="5.38436">
        <ele>205.4</ele>
        <time>2022-03-21T13:18:13Z</time>
      </trkpt>
      <trkpt lat="46.82156" lon="5.3844">
        <ele>205.4</ele>
        <time>2022-03-21T13:18:14Z</time>
      </trkpt>
      <trkpt lat="46.82151" lon="5.38444">
        <ele>205.6</ele>
        <time>2022-03-21T13:18:15Z</time>
      </trkpt>
      <trkpt lat="46.82147" lon="5.38448">
        <ele>205.6</ele>
        <time>2022-03-21T13:18:16Z</time>
      </trkpt>
      <trkpt lat="46.82142" lon="5.38452">
        <ele>205.6</ele>
        <time>2022-03-21T13:18:17Z</time>
      </trkpt>
      <trkpt lat="46.82137" lon="5.38456">
        <ele>205.6</ele>
        <time>2022-03-21T13:18:18Z</time>
      </trkpt>
      <trkpt lat="46.82133" lon="5.3846">
        <ele>206</ele>
        <time>2022-03-21T13:18:19Z</time>
      </trkpt>
      <trkpt lat="46.82128" lon="5.38464">
        <ele>206</ele>
        <time>2022-03-21T13:18:20Z</time>
      </trkpt>
      <trkpt lat="46.82124" lon="5.38468">
        <ele>206.2</ele>
        <time>2022-03-21T13:18:21Z</time>
      </trkpt>
      <trkpt lat="46.82119" lon="5.38472">
        <ele>206.2</ele>
        <time>2022-03-21T13:18:22Z</time>
      </trkpt>
      <trkpt lat="46.82115" lon="5.38476">
        <ele>206.2</ele>
        <time>2022-03-21T13:18:23Z</time>
      </trkpt>
      <trkpt lat="46.8211" lon="5.3848">
        <ele>206.4</ele>
        <time>2022-03-21T13:18:24Z</time>
      </trkpt>
      <trkpt lat="46.82106" lon="5.38483">
        <ele>206.4</ele>
        <time>2022-03-21T13:18:25Z</time>
      </trkpt>
      <trkpt lat="46.82102" lon="5.38487">
        <ele>206.4</ele>
        <time>2022-03-21T13:18:26Z</time>
      </trkpt>
      <trkpt lat="46.82098" lon="5.38491">
        <ele>206.4</ele>
        <time>2022-03-21T13:18:27Z</time>
      </trkpt>
      <trkpt lat="46.82093" lon="5.38495">
        <ele>206.4</ele>
        <time>2022-03-21T13:18:28Z</time>
      </trkpt>
      <trkpt lat="46.82089" lon="5.38499">
        <ele>206.6</ele>
        <time>2022-03-21T13:18:29Z</time>
      </trkpt>
      <trkpt lat="46.82084" lon="5.38502">
        <ele>206.6</ele>
        <time>2022-03-21T13:18:30Z</time>
      </trkpt>
      <trkpt lat="46.8208" lon="5.38506">
        <ele>206.8</ele>
        <time>2022-03-21T13:18:31Z</time>
      </trkpt>
      <trkpt lat="46.82076" lon="5.3851">
        <ele>206.8</ele>
        <time>2022-03-21T13:18:32Z</time>
      </trkpt>
      <trkpt lat="46.82072" lon="5.38514">
        <ele>207</ele>
        <time>2022-03-21T13:18:33Z</time>
      </trkpt>
      <trkpt lat="46.82067" lon="5.38517">
        <ele>207</ele>
        <time>2022-03-21T13:18:34Z</time>
      </trkpt>
      <trkpt lat="46.82063" lon="5.38521">
        <ele>207</ele>
        <time>2022-03-21T13:18:35Z</time>
      </trkpt>
      <trkpt lat="46.82059" lon="5.38525">
        <ele>207.4</ele>
        <time>2022-03-21T13:18:36Z</time>
      </trkpt>
      <trkpt lat="46.82054" lon="5.38529">
        <ele>207.4</ele>
        <time>2022-03-21T13:18:37Z</time>
      </trkpt>
      <trkpt lat="46.8205" lon="5.38533">
        <ele>207.4</ele>
        <time>2022-03-21T13:18:38Z</time>
      </trkpt>
      <trkpt lat="46.82045" lon="5.38536">
        <ele>207.6</ele>
        <time>2022-03-21T13:18:39Z</time>
      </trkpt>
      <trkpt lat="46.82041" lon="5.3854">
        <ele>207.6</ele>
        <time>2022-03-21T13:18:40Z</time>
      </trkpt>
      <trkpt lat="46.82036" lon="5.38544">
        <ele>207.6</ele>
        <time>2022-03-21T13:18:41Z</time>
      </trkpt>
      <trkpt lat="46.82032" lon="5.38547">
        <ele>207.8</ele>
        <time>2022-03-21T13:18:42Z</time>
      </trkpt>
      <trkpt lat="46.82027" lon="5.38551">
        <ele>207.8</ele>
        <time>2022-03-21T13:18:43Z</time>
      </trkpt>
      <trkpt lat="46.82023" lon="5.38555">
        <ele>208</ele>
        <time>2022-03-21T13:18:44Z</time>
      </trkpt>
      <trkpt lat="46.82018" lon="5.38559">
        <ele>208</ele>
        <time>2022-03-21T13:18:45Z</time>
      </trkpt>
      <trkpt lat="46.82014" lon="5.38563">
        <ele>208.4</ele>
        <time>2022-03-21T13:18:46Z</time>
      </trkpt>
      <trkpt lat="46.82009" lon="5.38567">
        <ele>208.4</ele>
        <time>2022-03-21T13:18:47Z</time>
      </trkpt>
      <trkpt lat="46.82004" lon="5.38571">
        <ele>208.6</ele>
        <time>2022-03-21T13:18:48Z</time>
      </trkpt>
      <trkpt lat="46.82" lon="5.38575">
        <ele>208.6</ele>
        <time>2022-03-21T13:18:49Z</time>
      </trkpt>
      <trkpt lat="46.81995" lon="5.38579">
        <ele>208.8</ele>
        <time>2022-03-21T13:18:50Z</time>
      </trkpt>
      <trkpt lat="46.81991" lon="5.38583">
        <ele>209</ele>
        <time>2022-03-21T13:18:51Z</time>
      </trkpt>
      <trkpt lat="46.81986" lon="5.38587">
        <ele>209</ele>
        <time>2022-03-21T13:18:52Z</time>
      </trkpt>
      <trkpt lat="46.81981" lon="5.38591">
        <ele>209.4</ele>
        <time>2022-03-21T13:18:53Z</time>
      </trkpt>
      <trkpt lat="46.81977" lon="5.38595">
        <ele>209.4</ele>
        <time>2022-03-21T13:18:54Z</time>
      </trkpt>
      <trkpt lat="46.81972" lon="5.38599">
        <ele>209.6</ele>
        <time>2022-03-21T13:18:55Z</time>
      </trkpt>
      <trkpt lat="46.81967" lon="5.38603">
        <ele>209.6</ele>
        <time>2022-03-21T13:18:56Z</time>
      </trkpt>
      <trkpt lat="46.81963" lon="5.38607">
        <ele>209.8</ele>
        <time>2022-03-21T13:18:57Z</time>
      </trkpt>
      <trkpt lat="46.81958" lon="5.38611">
        <ele>209.8</ele>
        <time>2022-03-21T13:18:58Z</time>
      </trkpt>
      <trkpt lat="46.81954" lon="5.38615">
        <ele>209.8</ele>
        <time>2022-03-21T13:18:59Z</time>
      </trkpt>
      <trkpt lat="46.81949" lon="5.38619">
        <ele>210.2</ele>
        <time>2022-03-21T13:19:00Z</time>
      </trkpt>
      <trkpt lat="46.81945" lon="5.38623">
        <ele>210.2</ele>
        <time>2022-03-21T13:19:01Z</time>
      </trkpt>
      <trkpt lat="46.8194" lon="5.38627">
        <ele>210.4</ele>
        <time>2022-03-21T13:19:02Z</time>
      </trkpt>
      <trkpt lat="46.81936" lon="5.38631">
        <ele>210.4</ele>
        <time>2022-03-21T13:19:03Z</time>
      </trkpt>
      <trkpt lat="46.81932" lon="5.38634">
        <ele>210.8</ele>
        <time>2022-03-21T13:19:04Z</time>
      </trkpt>
      <trkpt lat="46.81927" lon="5.38638">
        <ele>210.8</ele>
        <time>2022-03-21T13:19:05Z</time>
      </trkpt>
      <trkpt lat="46.81923" lon="5.38642">
        <ele>211.2</ele>
        <time>2022-03-21T13:19:06Z</time>
      </trkpt>
      <trkpt lat="46.81919" lon="5.38646">
        <ele>211.2</ele>
        <time>2022-03-21T13:19:07Z</time>
      </trkpt>
      <trkpt lat="46.81915" lon="5.38649">
        <ele>211.4</ele>
        <time>2022-03-21T13:19:08Z</time>
      </trkpt>
      <trkpt lat="46.81911" lon="5.38653">
        <ele>211.6</ele>
        <time>2022-03-21T13:19:09Z</time>
      </trkpt>
      <trkpt lat="46.81906" lon="5.38656">
        <ele>211.8</ele>
        <time>2022-03-21T13:19:10Z</time>
      </trkpt>
      <trkpt lat="46.81902" lon="5.3866">
        <ele>212</ele>
        <time>2022-03-21T13:19:11Z</time>
      </trkpt>
      <trkpt lat="46.81898" lon="5.38663">
        <ele>212.4</ele>
        <time>2022-03-21T13:19:12Z</time>
      </trkpt>
      <trkpt lat="46.81894" lon="5.38667">
        <ele>212.6</ele>
        <time>2022-03-21T13:19:13Z</time>
      </trkpt>
      <trkpt lat="46.8189" lon="5.3867">
        <ele>212.8</ele>
        <time>2022-03-21T13:19:14Z</time>
      </trkpt>
      <trkpt lat="46.81886" lon="5.38674">
        <ele>213.2</ele>
        <time>2022-03-21T13:19:15Z</time>
      </trkpt>
      <trkpt lat="46.81882" lon="5.38677">
        <ele>213.4</ele>
        <time>2022-03-21T13:19:16Z</time>
      </trkpt>
      <trkpt lat="46.81878" lon="5.38681">
        <ele>213.8</ele>
        <time>2022-03-21T13:19:17Z</time>
      </trkpt>
      <trkpt lat="46.81874" lon="5.38684">
        <ele>214</ele>
        <time>2022-03-21T13:19:18Z</time>
      </trkpt>
      <trkpt lat="46.8187" lon="5.38688">
        <ele>214.4</ele>
        <time>2022-03-21T13:19:19Z</time>
      </trkpt>
      <trkpt lat="46.81866" lon="5.38691">
        <ele>214.6</ele>
        <time>2022-03-21T13:19:20Z</time>
      </trkpt>
      <trkpt lat="46.81862" lon="5.38695">
        <ele>214.6</ele>
        <time>2022-03-21T13:19:21Z</time>
      </trkpt>
      <trkpt lat="46.81858" lon="5.38699">
        <ele>215.2</ele>
        <time>2022-03-21T13:19:22Z</time>
      </trkpt>
      <trkpt lat="46.81854" lon="5.38702">
        <ele>215.4</ele>
        <time>2022-03-21T13:19:23Z</time>
      </trkpt>
      <trkpt lat="46.8185" lon="5.38705">
        <ele>215.6</ele>
        <time>2022-03-21T13:19:24Z</time>
      </trkpt>
      <trkpt lat="46.81846" lon="5.38708">
        <ele>215.8</ele>
        <time>2022-03-21T13:19:25Z</time>
      </trkpt>
      <trkpt lat="46.81842" lon="5.38712">
        <ele>216</ele>
        <time>2022-03-21T13:19:26Z</time>
      </trkpt>
      <trkpt lat="46.81838" lon="5.38716">
        <ele>216.4</ele>
        <time>2022-03-21T13:19:27Z</time>
      </trkpt>
      <trkpt lat="46.81834" lon="5.3872">
        <ele>216.6</ele>
        <time>2022-03-21T13:19:28Z</time>
      </trkpt>
      <trkpt lat="46.8183" lon="5.38723">
        <ele>216.6</ele>
        <time>2022-03-21T13:19:29Z</time>
      </trkpt>
      <trkpt lat="46.81826" lon="5.38726">
        <ele>217</ele>
        <time>2022-03-21T13:19:30Z</time>
      </trkpt>
      <trkpt lat="46.81822" lon="5.38729">
        <ele>217</ele>
        <time>2022-03-21T13:19:31Z</time>
      </trkpt>
      <trkpt lat="46.81818" lon="5.38733">
        <ele>217.4</ele>
        <time>2022-03-21T13:19:32Z</time>
      </trkpt>
      <trkpt lat="46.81814" lon="5.38736">
        <ele>217.6</ele>
        <time>2022-03-21T13:19:33Z</time>
      </trkpt>
      <trkpt lat="46.8181" lon="5.38739">
        <ele>217.8</ele>
        <time>2022-03-21T13:19:34Z</time>
      </trkpt>
      <trkpt lat="46.81806" lon="5.38742">
        <ele>218.2</ele>
        <time>2022-03-21T13:19:35Z</time>
      </trkpt>
      <trkpt lat="46.81803" lon="5.38745">
        <ele>218.4</ele>
        <time>2022-03-21T13:19:36Z</time>
      </trkpt>
      <trkpt lat="46.81799" lon="5.38748">
        <ele>218.6</ele>
        <time>2022-03-21T13:19:37Z</time>
      </trkpt>
      <trkpt lat="46.81796" lon="5.38751">
        <ele>218.6</ele>
        <time>2022-03-21T13:19:38Z</time>
      </trkpt>
      <trkpt lat="46.81793" lon="5.38754">
        <ele>219</ele>
        <time>2022-03-21T13:19:39Z</time>
      </trkpt>
      <trkpt lat="46.81789" lon="5.38757">
        <ele>219</ele>
        <time>2022-03-21T13:19:40Z</time>
      </trkpt>
      <trkpt lat="46.81786" lon="5.3876">
        <ele>219.2</ele>
        <time>2022-03-21T13:19:41Z</time>
      </trkpt>
      <trkpt lat="46.81782" lon="5.38762">
        <ele>219.2</ele>
        <time>2022-03-21T13:19:42Z</time>
      </trkpt>
      <trkpt lat="46.81779" lon="5.38765">
        <ele>219.6</ele>
        <time>2022-03-21T13:19:43Z</time>
      </trkpt>
      <trkpt lat="46.81775" lon="5.38768">
        <ele>219.6</ele>
        <time>2022-03-21T13:19:44Z</time>
      </trkpt>
      <trkpt lat="46.81772" lon="5.38771">
        <ele>219.6</ele>
        <time>2022-03-21T13:19:45Z</time>
      </trkpt>
      <trkpt lat="46.81768" lon="5.38775">
        <ele>219.8</ele>
        <time>2022-03-21T13:19:46Z</time>
      </trkpt>
      <trkpt lat="46.81765" lon="5.38778">
        <ele>219.8</ele>
        <time>2022-03-21T13:19:47Z</time>
      </trkpt>
      <trkpt lat="46.81761" lon="5.38781">
        <ele>219.8</ele>
        <time>2022-03-21T13:19:48Z</time>
      </trkpt>
      <trkpt lat="46.81757" lon="5.38785">
        <ele>220</ele>
        <time>2022-03-21T13:19:49Z</time>
      </trkpt>
      <trkpt lat="46.81752" lon="5.38788">
        <ele>220</ele>
        <time>2022-03-21T13:19:50Z</time>
      </trkpt>
      <trkpt lat="46.81748" lon="5.38792">
        <ele>220</ele>
        <time>2022-03-21T13:19:51Z</time>
      </trkpt>
      <trkpt lat="46.81744" lon="5.38796">
        <ele>220</ele>
        <time>2022-03-21T13:19:52Z</time>
      </trkpt>
      <trkpt lat="46.8174" lon="5.388">
        <ele>220</ele>
        <time>2022-03-21T13:19:53Z</time>
      </trkpt>
      <trkpt lat="46.81735" lon="5.38804">
        <ele>220</ele>
        <time>2022-03-21T13:19:54Z</time>
      </trkpt>
      <trkpt lat="46.8173" lon="5.38808">
        <ele>220</ele>
        <time>2022-03-21T13:19:55Z</time>
      </trkpt>
      <trkpt lat="46.81726" lon="5.38812">
        <ele>220</ele>
        <time>2022-03-21T13:19:56Z</time>
      </trkpt>
      <trkpt lat="46.81721" lon="5.38816">
        <ele>220</ele>
        <time>2022-03-21T13:19:57Z</time>
      </trkpt>
      <trkpt lat="46.81717" lon="5.3882">
        <ele>220</ele>
        <time>2022-03-21T13:19:58Z</time>
      </trkpt>
      <trkpt lat="46.81712" lon="5.38824">
        <ele>220</ele>
        <time>2022-03-21T13:19:59Z</time>
      </trkpt>
      <trkpt lat="46.81707" lon="5.38828">
        <ele>220.2</ele>
        <time>2022-03-21T13:20:00Z</time>
      </trkpt>
      <trkpt lat="46.81697" lon="5.38836">
        <ele>220.2</ele>
        <time>2022-03-21T13:20:01Z</time>
      </trkpt>
      <trkpt lat="46.81692" lon="5.38841">
        <ele>220.2</ele>
        <time>2022-03-21T13:20:02Z</time>
      </trkpt>
      <trkpt lat="46.81688" lon="5.38845">
        <ele>220.2</ele>
        <time>2022-03-21T13:20:03Z</time>
      </trkpt>
      <trkpt lat="46.81683" lon="5.38849">
        <ele>220.2</ele>
        <time>2022-03-21T13:20:04Z</time>
      </trkpt>
      <trkpt lat="46.81678" lon="5.38854">
        <ele>220.2</ele>
        <time>2022-03-21T13:20:05Z</time>
      </trkpt>
      <trkpt lat="46.81673" lon="5.38858">
        <ele>220.2</ele>
        <time>2022-03-21T13:20:06Z</time>
      </trkpt>
      <trkpt lat="46.81668" lon="5.38862">
        <ele>220.2</ele>
        <time>2022-03-21T13:20:07Z</time>
      </trkpt>
      <trkpt lat="46.81663" lon="5.38866">
        <ele>220.2</ele>
        <time>2022-03-21T13:20:08Z</time>
      </trkpt>
      <trkpt lat="46.81658" lon="5.3887">
        <ele>220.2</ele>
        <time>2022-03-21T13:20:09Z</time>
      </trkpt>
      <trkpt lat="46.81653" lon="5.38874">
        <ele>220.4</ele>
        <time>2022-03-21T13:20:10Z</time>
      </trkpt>
      <trkpt lat="46.81648" lon="5.38878">
        <ele>220.4</ele>
        <time>2022-03-21T13:20:11Z</time>
      </trkpt>
      <trkpt lat="46.81644" lon="5.38883">
        <ele>220.4</ele>
        <time>2022-03-21T13:20:12Z</time>
      </trkpt>
      <trkpt lat="46.81639" lon="5.38887">
        <ele>220.4</ele>
        <time>2022-03-21T13:20:13Z</time>
      </trkpt>
      <trkpt lat="46.81634" lon="5.38892">
        <ele>220.4</ele>
        <time>2022-03-21T13:20:14Z</time>
      </trkpt>
      <trkpt lat="46.81629" lon="5.38896">
        <ele>220.4</ele>
        <time>2022-03-21T13:20:15Z</time>
      </trkpt>
      <trkpt lat="46.81623" lon="5.389">
        <ele>220.4</ele>
        <time>2022-03-21T13:20:16Z</time>
      </trkpt>
      <trkpt lat="46.81618" lon="5.38905">
        <ele>220.4</ele>
        <time>2022-03-21T13:20:17Z</time>
      </trkpt>
      <trkpt lat="46.81613" lon="5.38909">
        <ele>220.4</ele>
        <time>2022-03-21T13:20:18Z</time>
      </trkpt>
      <trkpt lat="46.81607" lon="5.38914">
        <ele>220.4</ele>
        <time>2022-03-21T13:20:19Z</time>
      </trkpt>
      <trkpt lat="46.81602" lon="5.38918">
        <ele>220.2</ele>
        <time>2022-03-21T13:20:20Z</time>
      </trkpt>
      <trkpt lat="46.81597" lon="5.38923">
        <ele>220.2</ele>
        <time>2022-03-21T13:20:21Z</time>
      </trkpt>
      <trkpt lat="46.81592" lon="5.38928">
        <ele>220.2</ele>
        <time>2022-03-21T13:20:22Z</time>
      </trkpt>
      <trkpt lat="46.81586" lon="5.38932">
        <ele>220.4</ele>
        <time>2022-03-21T13:20:23Z</time>
      </trkpt>
      <trkpt lat="46.81581" lon="5.38937">
        <ele>220.4</ele>
        <time>2022-03-21T13:20:24Z</time>
      </trkpt>
      <trkpt lat="46.81576" lon="5.38941">
        <ele>220.4</ele>
        <time>2022-03-21T13:20:25Z</time>
      </trkpt>
      <trkpt lat="46.8157" lon="5.38946">
        <ele>220.4</ele>
        <time>2022-03-21T13:20:26Z</time>
      </trkpt>
      <trkpt lat="46.81565" lon="5.3895">
        <ele>220.4</ele>
        <time>2022-03-21T13:20:27Z</time>
      </trkpt>
      <trkpt lat="46.8156" lon="5.38955">
        <ele>220.4</ele>
        <time>2022-03-21T13:20:28Z</time>
      </trkpt>
      <trkpt lat="46.81555" lon="5.38959">
        <ele>220.4</ele>
        <time>2022-03-21T13:20:29Z</time>
      </trkpt>
      <trkpt lat="46.8155" lon="5.38964">
        <ele>220.4</ele>
        <time>2022-03-21T13:20:30Z</time>
      </trkpt>
      <trkpt lat="46.81545" lon="5.38968">
        <ele>220.4</ele>
        <time>2022-03-21T13:20:31Z</time>
      </trkpt>
      <trkpt lat="46.8154" lon="5.38973">
        <ele>220.4</ele>
        <time>2022-03-21T13:20:32Z</time>
      </trkpt>
      <trkpt lat="46.81534" lon="5.38978">
        <ele>220.4</ele>
        <time>2022-03-21T13:20:33Z</time>
      </trkpt>
      <trkpt lat="46.81529" lon="5.38982">
        <ele>220.4</ele>
        <time>2022-03-21T13:20:34Z</time>
      </trkpt>
      <trkpt lat="46.81524" lon="5.38987">
        <ele>220.4</ele>
        <time>2022-03-21T13:20:35Z</time>
      </trkpt>
      <trkpt lat="46.81518" lon="5.38992">
        <ele>220.4</ele>
        <time>2022-03-21T13:20:36Z</time>
      </trkpt>
      <trkpt lat="46.81513" lon="5.38996">
        <ele>220.4</ele>
        <time>2022-03-21T13:20:37Z</time>
      </trkpt>
      <trkpt lat="46.81508" lon="5.39001">
        <ele>220.4</ele>
        <time>2022-03-21T13:20:38Z</time>
      </trkpt>
      <trkpt lat="46.81502" lon="5.39005">
        <ele>220.4</ele>
        <time>2022-03-21T13:20:39Z</time>
      </trkpt>
      <trkpt lat="46.81497" lon="5.3901">
        <ele>220.4</ele>
        <time>2022-03-21T13:20:40Z</time>
      </trkpt>
      <trkpt lat="46.81491" lon="5.39015">
        <ele>220.4</ele>
        <time>2022-03-21T13:20:41Z</time>
      </trkpt>
      <trkpt lat="46.81486" lon="5.39019">
        <ele>220.4</ele>
        <time>2022-03-21T13:20:42Z</time>
      </trkpt>
      <trkpt lat="46.8148" lon="5.39024">
        <ele>220.4</ele>
        <time>2022-03-21T13:20:43Z</time>
      </trkpt>
      <trkpt lat="46.81475" lon="5.39029">
        <ele>220.4</ele>
        <time>2022-03-21T13:20:44Z</time>
      </trkpt>
      <trkpt lat="46.81469" lon="5.39033">
        <ele>220.4</ele>
        <time>2022-03-21T13:20:45Z</time>
      </trkpt>
      <trkpt lat="46.81463" lon="5.39038">
        <ele>220.4</ele>
        <time>2022-03-21T13:20:46Z</time>
      </trkpt>
      <trkpt lat="46.81458" lon="5.39042">
        <ele>220.4</ele>
        <time>2022-03-21T13:20:47Z</time>
      </trkpt>
      <trkpt lat="46.81452" lon="5.39047">
        <ele>220.4</ele>
        <time>2022-03-21T13:20:48Z</time>
      </trkpt>
      <trkpt lat="46.81447" lon="5.39052">
        <ele>220.4</ele>
        <time>2022-03-21T13:20:49Z</time>
      </trkpt>
      <trkpt lat="46.81441" lon="5.39057">
        <ele>220.4</ele>
        <time>2022-03-21T13:20:50Z</time>
      </trkpt>
      <trkpt lat="46.81436" lon="5.39062">
        <ele>220.4</ele>
        <time>2022-03-21T13:20:51Z</time>
      </trkpt>
      <trkpt lat="46.81431" lon="5.39067">
        <ele>220.4</ele>
        <time>2022-03-21T13:20:52Z</time>
      </trkpt>
      <trkpt lat="46.81425" lon="5.39072">
        <ele>220.4</ele>
        <time>2022-03-21T13:20:53Z</time>
      </trkpt>
      <trkpt lat="46.8142" lon="5.39076">
        <ele>220.6</ele>
        <time>2022-03-21T13:20:54Z</time>
      </trkpt>
      <trkpt lat="46.81414" lon="5.39081">
        <ele>220.6</ele>
        <time>2022-03-21T13:20:55Z</time>
      </trkpt>
      <trkpt lat="46.81409" lon="5.39086">
        <ele>220.6</ele>
        <time>2022-03-21T13:20:56Z</time>
      </trkpt>
      <trkpt lat="46.81403" lon="5.39091">
        <ele>220.6</ele>
        <time>2022-03-21T13:20:57Z</time>
      </trkpt>
      <trkpt lat="46.81397" lon="5.39096">
        <ele>220.6</ele>
        <time>2022-03-21T13:20:58Z</time>
      </trkpt>
      <trkpt lat="46.81391" lon="5.39101">
        <ele>220.6</ele>
        <time>2022-03-21T13:20:59Z</time>
      </trkpt>
      <trkpt lat="46.81386" lon="5.39105">
        <ele>220.4</ele>
        <time>2022-03-21T13:21:00Z</time>
      </trkpt>
      <trkpt lat="46.8138" lon="5.39111">
        <ele>220.4</ele>
        <time>2022-03-21T13:21:01Z</time>
      </trkpt>
      <trkpt lat="46.81374" lon="5.39116">
        <ele>220.4</ele>
        <time>2022-03-21T13:21:02Z</time>
      </trkpt>
      <trkpt lat="46.81368" lon="5.39121">
        <ele>220.4</ele>
        <time>2022-03-21T13:21:03Z</time>
      </trkpt>
      <trkpt lat="46.81361" lon="5.39126">
        <ele>220</ele>
        <time>2022-03-21T13:21:04Z</time>
      </trkpt>
      <trkpt lat="46.81355" lon="5.39132">
        <ele>220</ele>
        <time>2022-03-21T13:21:05Z</time>
      </trkpt>
      <trkpt lat="46.81348" lon="5.39138">
        <ele>219.6</ele>
        <time>2022-03-21T13:21:06Z</time>
      </trkpt>
      <trkpt lat="46.81341" lon="5.39144">
        <ele>219.4</ele>
        <time>2022-03-21T13:21:07Z</time>
      </trkpt>
      <trkpt lat="46.81334" lon="5.3915">
        <ele>219.2</ele>
        <time>2022-03-21T13:21:08Z</time>
      </trkpt>
      <trkpt lat="46.81326" lon="5.39156">
        <ele>219</ele>
        <time>2022-03-21T13:21:09Z</time>
      </trkpt>
      <trkpt lat="46.81319" lon="5.39162">
        <ele>218.6</ele>
        <time>2022-03-21T13:21:10Z</time>
      </trkpt>
      <trkpt lat="46.81311" lon="5.39169">
        <ele>218.4</ele>
        <time>2022-03-21T13:21:11Z</time>
      </trkpt>
      <trkpt lat="46.81304" lon="5.39175">
        <ele>218</ele>
        <time>2022-03-21T13:21:12Z</time>
      </trkpt>
      <trkpt lat="46.81296" lon="5.39182">
        <ele>217.8</ele>
        <time>2022-03-21T13:21:13Z</time>
      </trkpt>
      <trkpt lat="46.81288" lon="5.39188">
        <ele>217.6</ele>
        <time>2022-03-21T13:21:14Z</time>
      </trkpt>
      <trkpt lat="46.81281" lon="5.39194">
        <ele>217.6</ele>
        <time>2022-03-21T13:21:15Z</time>
      </trkpt>
      <trkpt lat="46.81273" lon="5.39201">
        <ele>217.2</ele>
        <time>2022-03-21T13:21:16Z</time>
      </trkpt>
      <trkpt lat="46.81266" lon="5.39207">
        <ele>217.2</ele>
        <time>2022-03-21T13:21:17Z</time>
      </trkpt>
      <trkpt lat="46.81259" lon="5.39213">
        <ele>217</ele>
        <time>2022-03-21T13:21:18Z</time>
      </trkpt>
      <trkpt lat="46.81252" lon="5.3922">
        <ele>217</ele>
        <time>2022-03-21T13:21:19Z</time>
      </trkpt>
      <trkpt lat="46.81245" lon="5.39226">
        <ele>217</ele>
        <time>2022-03-21T13:21:20Z</time>
      </trkpt>
      <trkpt lat="46.81238" lon="5.39232">
        <ele>217</ele>
        <time>2022-03-21T13:21:21Z</time>
      </trkpt>
      <trkpt lat="46.81231" lon="5.39237">
        <ele>217</ele>
        <time>2022-03-21T13:21:22Z</time>
      </trkpt>
      <trkpt lat="46.81225" lon="5.39243">
        <ele>217</ele>
        <time>2022-03-21T13:21:23Z</time>
      </trkpt>
      <trkpt lat="46.81218" lon="5.39249">
        <ele>217</ele>
        <time>2022-03-21T13:21:24Z</time>
      </trkpt>
      <trkpt lat="46.81212" lon="5.39254">
        <ele>217.2</ele>
        <time>2022-03-21T13:21:25Z</time>
      </trkpt>
      <trkpt lat="46.81206" lon="5.39259">
        <ele>217.2</ele>
        <time>2022-03-21T13:21:26Z</time>
      </trkpt>
      <trkpt lat="46.812" lon="5.39264">
        <ele>217.6</ele>
        <time>2022-03-21T13:21:27Z</time>
      </trkpt>
      <trkpt lat="46.81195" lon="5.39269">
        <ele>217.8</ele>
        <time>2022-03-21T13:21:28Z</time>
      </trkpt>
      <trkpt lat="46.81189" lon="5.39273">
        <ele>218</ele>
        <time>2022-03-21T13:21:29Z</time>
      </trkpt>
      <trkpt lat="46.81184" lon="5.39278">
        <ele>218</ele>
        <time>2022-03-21T13:21:30Z</time>
      </trkpt>
      <trkpt lat="46.81178" lon="5.39282">
        <ele>218.4</ele>
        <time>2022-03-21T13:21:31Z</time>
      </trkpt>
      <trkpt lat="46.81173" lon="5.39287">
        <ele>218.4</ele>
        <time>2022-03-21T13:21:32Z</time>
      </trkpt>
      <trkpt lat="46.81168" lon="5.39291">
        <ele>218.8</ele>
        <time>2022-03-21T13:21:33Z</time>
      </trkpt>
      <trkpt lat="46.81163" lon="5.39296">
        <ele>218.8</ele>
        <time>2022-03-21T13:21:34Z</time>
      </trkpt>
      <trkpt lat="46.81158" lon="5.393">
        <ele>219.2</ele>
        <time>2022-03-21T13:21:35Z</time>
      </trkpt>
      <trkpt lat="46.81153" lon="5.39304">
        <ele>219.2</ele>
        <time>2022-03-21T13:21:36Z</time>
      </trkpt>
      <trkpt lat="46.81148" lon="5.39309">
        <ele>219.6</ele>
        <time>2022-03-21T13:21:37Z</time>
      </trkpt>
      <trkpt lat="46.81143" lon="5.39313">
        <ele>219.6</ele>
        <time>2022-03-21T13:21:38Z</time>
      </trkpt>
      <trkpt lat="46.81138" lon="5.39317">
        <ele>219.6</ele>
        <time>2022-03-21T13:21:39Z</time>
      </trkpt>
      <trkpt lat="46.81133" lon="5.39321">
        <ele>219.8</ele>
        <time>2022-03-21T13:21:40Z</time>
      </trkpt>
      <trkpt lat="46.81128" lon="5.39326">
        <ele>219.8</ele>
        <time>2022-03-21T13:21:41Z</time>
      </trkpt>
      <trkpt lat="46.81123" lon="5.3933">
        <ele>220.2</ele>
        <time>2022-03-21T13:21:42Z</time>
      </trkpt>
      <trkpt lat="46.81118" lon="5.39335">
        <ele>220.2</ele>
        <time>2022-03-21T13:21:43Z</time>
      </trkpt>
      <trkpt lat="46.81112" lon="5.3934">
        <ele>220.4</ele>
        <time>2022-03-21T13:21:44Z</time>
      </trkpt>
      <trkpt lat="46.81107" lon="5.39344">
        <ele>220.4</ele>
        <time>2022-03-21T13:21:45Z</time>
      </trkpt>
      <trkpt lat="46.81102" lon="5.39348">
        <ele>220.6</ele>
        <time>2022-03-21T13:21:46Z</time>
      </trkpt>
      <trkpt lat="46.81096" lon="5.39353">
        <ele>220.6</ele>
        <time>2022-03-21T13:21:47Z</time>
      </trkpt>
      <trkpt lat="46.81091" lon="5.39357">
        <ele>220.6</ele>
        <time>2022-03-21T13:21:48Z</time>
      </trkpt>
      <trkpt lat="46.81085" lon="5.39362">
        <ele>220.8</ele>
        <time>2022-03-21T13:21:49Z</time>
      </trkpt>
      <trkpt lat="46.8108" lon="5.39367">
        <ele>221</ele>
        <time>2022-03-21T13:21:50Z</time>
      </trkpt>
      <trkpt lat="46.81075" lon="5.39371">
        <ele>221</ele>
        <time>2022-03-21T13:21:51Z</time>
      </trkpt>
      <trkpt lat="46.81069" lon="5.39376">
        <ele>221</ele>
        <time>2022-03-21T13:21:52Z</time>
      </trkpt>
      <trkpt lat="46.81064" lon="5.39381">
        <ele>221</ele>
        <time>2022-03-21T13:21:53Z</time>
      </trkpt>
      <trkpt lat="46.81059" lon="5.39386">
        <ele>221</ele>
        <time>2022-03-21T13:21:54Z</time>
      </trkpt>
      <trkpt lat="46.81053" lon="5.3939">
        <ele>221</ele>
        <time>2022-03-21T13:21:55Z</time>
      </trkpt>
      <trkpt lat="46.81047" lon="5.39395">
        <ele>221</ele>
        <time>2022-03-21T13:21:56Z</time>
      </trkpt>
      <trkpt lat="46.81042" lon="5.39399">
        <ele>221</ele>
        <time>2022-03-21T13:21:57Z</time>
      </trkpt>
      <trkpt lat="46.81036" lon="5.39404">
        <ele>221</ele>
        <time>2022-03-21T13:21:59Z</time>
      </trkpt>
      <trkpt lat="46.81031" lon="5.39409">
        <ele>221</ele>
        <time>2022-03-21T13:22:00Z</time>
      </trkpt>
      <trkpt lat="46.81026" lon="5.39414">
        <ele>221.4</ele>
        <time>2022-03-21T13:22:01Z</time>
      </trkpt>
      <trkpt lat="46.8102" lon="5.39419">
        <ele>221.4</ele>
        <time>2022-03-21T13:22:02Z</time>
      </trkpt>
      <trkpt lat="46.81015" lon="5.39423">
        <ele>221.4</ele>
        <time>2022-03-21T13:22:03Z</time>
      </trkpt>
      <trkpt lat="46.8101" lon="5.39428">
        <ele>221.4</ele>
        <time>2022-03-21T13:22:04Z</time>
      </trkpt>
      <trkpt lat="46.81004" lon="5.39432">
        <ele>221.4</ele>
        <time>2022-03-21T13:22:05Z</time>
      </trkpt>
      <trkpt lat="46.80999" lon="5.39437">
        <ele>221.4</ele>
        <time>2022-03-21T13:22:06Z</time>
      </trkpt>
      <trkpt lat="46.80993" lon="5.39441">
        <ele>221.4</ele>
        <time>2022-03-21T13:22:07Z</time>
      </trkpt>
      <trkpt lat="46.80988" lon="5.39446">
        <ele>221.4</ele>
        <time>2022-03-21T13:22:08Z</time>
      </trkpt>
      <trkpt lat="46.80983" lon="5.3945">
        <ele>221.4</ele>
        <time>2022-03-21T13:22:09Z</time>
      </trkpt>
      <trkpt lat="46.80977" lon="5.39455">
        <ele>221.4</ele>
        <time>2022-03-21T13:22:10Z</time>
      </trkpt>
      <trkpt lat="46.80972" lon="5.3946">
        <ele>221.4</ele>
        <time>2022-03-21T13:22:11Z</time>
      </trkpt>
      <trkpt lat="46.80967" lon="5.39464">
        <ele>221.4</ele>
        <time>2022-03-21T13:22:12Z</time>
      </trkpt>
      <trkpt lat="46.80961" lon="5.39469">
        <ele>221.6</ele>
        <time>2022-03-21T13:22:13Z</time>
      </trkpt>
      <trkpt lat="46.80956" lon="5.39474">
        <ele>221.6</ele>
        <time>2022-03-21T13:22:14Z</time>
      </trkpt>
      <trkpt lat="46.80951" lon="5.39479">
        <ele>221.6</ele>
        <time>2022-03-21T13:22:15Z</time>
      </trkpt>
      <trkpt lat="46.80945" lon="5.39483">
        <ele>221.6</ele>
        <time>2022-03-21T13:22:16Z</time>
      </trkpt>
      <trkpt lat="46.80939" lon="5.39488">
        <ele>221.2</ele>
        <time>2022-03-21T13:22:17Z</time>
      </trkpt>
      <trkpt lat="46.80933" lon="5.39493">
        <ele>221</ele>
        <time>2022-03-21T13:22:18Z</time>
      </trkpt>
      <trkpt lat="46.80927" lon="5.39499">
        <ele>220.8</ele>
        <time>2022-03-21T13:22:19Z</time>
      </trkpt>
      <trkpt lat="46.8092" lon="5.39504">
        <ele>220.4</ele>
        <time>2022-03-21T13:22:20Z</time>
      </trkpt>
      <trkpt lat="46.80913" lon="5.3951">
        <ele>220.2</ele>
        <time>2022-03-21T13:22:21Z</time>
      </trkpt>
      <trkpt lat="46.80906" lon="5.39516">
        <ele>219.8</ele>
        <time>2022-03-21T13:22:22Z</time>
      </trkpt>
      <trkpt lat="46.80898" lon="5.39523">
        <ele>219.2</ele>
        <time>2022-03-21T13:22:23Z</time>
      </trkpt>
      <trkpt lat="46.8089" lon="5.39529">
        <ele>218.8</ele>
        <time>2022-03-21T13:22:24Z</time>
      </trkpt>
      <trkpt lat="46.80882" lon="5.39537">
        <ele>218</ele>
        <time>2022-03-21T13:22:25Z</time>
      </trkpt>
      <trkpt lat="46.80874" lon="5.39544">
        <ele>217.6</ele>
        <time>2022-03-21T13:22:26Z</time>
      </trkpt>
      <trkpt lat="46.80865" lon="5.39551">
        <ele>217</ele>
        <time>2022-03-21T13:22:27Z</time>
      </trkpt>
      <trkpt lat="46.80856" lon="5.39559">
        <ele>216.6</ele>
        <time>2022-03-21T13:22:28Z</time>
      </trkpt>
      <trkpt lat="46.80847" lon="5.39566">
        <ele>216</ele>
        <time>2022-03-21T13:22:29Z</time>
      </trkpt>
      <trkpt lat="46.80838" lon="5.39573">
        <ele>215.6</ele>
        <time>2022-03-21T13:22:30Z</time>
      </trkpt>
      <trkpt lat="46.80829" lon="5.3958">
        <ele>215.2</ele>
        <time>2022-03-21T13:22:31Z</time>
      </trkpt>
      <trkpt lat="46.8082" lon="5.39588">
        <ele>214.8</ele>
        <time>2022-03-21T13:22:32Z</time>
      </trkpt>
      <trkpt lat="46.80807" lon="5.39599">
        <ele>214.8</ele>
        <time>2022-03-21T13:22:33Z</time>
      </trkpt>
      <trkpt lat="46.80802" lon="5.39602">
        <ele>214.4</ele>
        <time>2022-03-21T13:22:34Z</time>
      </trkpt>
      <trkpt lat="46.80794" lon="5.39609">
        <ele>214</ele>
        <time>2022-03-21T13:22:35Z</time>
      </trkpt>
      <trkpt lat="46.80785" lon="5.39616">
        <ele>213.4</ele>
        <time>2022-03-21T13:22:36Z</time>
      </trkpt>
      <trkpt lat="46.80777" lon="5.39624">
        <ele>213</ele>
        <time>2022-03-21T13:22:37Z</time>
      </trkpt>
      <trkpt lat="46.80768" lon="5.39631">
        <ele>212.8</ele>
        <time>2022-03-21T13:22:38Z</time>
      </trkpt>
      <trkpt lat="46.80759" lon="5.39638">
        <ele>212.6</ele>
        <time>2022-03-21T13:22:39Z</time>
      </trkpt>
      <trkpt lat="46.80751" lon="5.39646">
        <ele>212.4</ele>
        <time>2022-03-21T13:22:40Z</time>
      </trkpt>
      <trkpt lat="46.80744" lon="5.39652">
        <ele>212.2</ele>
        <time>2022-03-21T13:22:41Z</time>
      </trkpt>
      <trkpt lat="46.80736" lon="5.39658">
        <ele>211.8</ele>
        <time>2022-03-21T13:22:42Z</time>
      </trkpt>
      <trkpt lat="46.80728" lon="5.39664">
        <ele>211.6</ele>
        <time>2022-03-21T13:22:43Z</time>
      </trkpt>
      <trkpt lat="46.80721" lon="5.3967">
        <ele>211.6</ele>
        <time>2022-03-21T13:22:44Z</time>
      </trkpt>
      <trkpt lat="46.80714" lon="5.39676">
        <ele>211.2</ele>
        <time>2022-03-21T13:22:45Z</time>
      </trkpt>
      <trkpt lat="46.80706" lon="5.39683">
        <ele>211.2</ele>
        <time>2022-03-21T13:22:46Z</time>
      </trkpt>
      <trkpt lat="46.80699" lon="5.39689">
        <ele>211.2</ele>
        <time>2022-03-21T13:22:47Z</time>
      </trkpt>
      <trkpt lat="46.80691" lon="5.39696">
        <ele>211</ele>
        <time>2022-03-21T13:22:48Z</time>
      </trkpt>
      <trkpt lat="46.80684" lon="5.39702">
        <ele>211</ele>
        <time>2022-03-21T13:22:49Z</time>
      </trkpt>
      <trkpt lat="46.80676" lon="5.39709">
        <ele>210.8</ele>
        <time>2022-03-21T13:22:50Z</time>
      </trkpt>
      <trkpt lat="46.80669" lon="5.39715">
        <ele>210.6</ele>
        <time>2022-03-21T13:22:51Z</time>
      </trkpt>
      <trkpt lat="46.80661" lon="5.39721">
        <ele>210.6</ele>
        <time>2022-03-21T13:22:52Z</time>
      </trkpt>
      <trkpt lat="46.80653" lon="5.39728">
        <ele>210.6</ele>
        <time>2022-03-21T13:22:53Z</time>
      </trkpt>
      <trkpt lat="46.80646" lon="5.39734">
        <ele>210.6</ele>
        <time>2022-03-21T13:22:54Z</time>
      </trkpt>
      <trkpt lat="46.80639" lon="5.3974">
        <ele>210.2</ele>
        <time>2022-03-21T13:22:55Z</time>
      </trkpt>
      <trkpt lat="46.80632" lon="5.39746">
        <ele>210.2</ele>
        <time>2022-03-21T13:22:56Z</time>
      </trkpt>
      <trkpt lat="46.80625" lon="5.39751">
        <ele>210.2</ele>
        <time>2022-03-21T13:22:57Z</time>
      </trkpt>
      <trkpt lat="46.80618" lon="5.39757">
        <ele>210.4</ele>
        <time>2022-03-21T13:22:58Z</time>
      </trkpt>
      <trkpt lat="46.80612" lon="5.39763">
        <ele>210.4</ele>
        <time>2022-03-21T13:22:59Z</time>
      </trkpt>
      <trkpt lat="46.80606" lon="5.39768">
        <ele>210.4</ele>
        <time>2022-03-21T13:23:00Z</time>
      </trkpt>
      <trkpt lat="46.806" lon="5.39773">
        <ele>210.8</ele>
        <time>2022-03-21T13:23:01Z</time>
      </trkpt>
      <trkpt lat="46.80595" lon="5.39778">
        <ele>210.8</ele>
        <time>2022-03-21T13:23:02Z</time>
      </trkpt>
      <trkpt lat="46.80589" lon="5.39782">
        <ele>211.2</ele>
        <time>2022-03-21T13:23:03Z</time>
      </trkpt>
      <trkpt lat="46.80584" lon="5.39786">
        <ele>211.2</ele>
        <time>2022-03-21T13:23:04Z</time>
      </trkpt>
      <trkpt lat="46.80579" lon="5.3979">
        <ele>211.6</ele>
        <time>2022-03-21T13:23:05Z</time>
      </trkpt>
      <trkpt lat="46.80575" lon="5.39794">
        <ele>211.6</ele>
        <time>2022-03-21T13:23:06Z</time>
      </trkpt>
      <trkpt lat="46.8057" lon="5.39798">
        <ele>211.8</ele>
        <time>2022-03-21T13:23:07Z</time>
      </trkpt>
      <trkpt lat="46.80566" lon="5.39803">
        <ele>211.8</ele>
        <time>2022-03-21T13:23:08Z</time>
      </trkpt>
      <trkpt lat="46.80562" lon="5.39807">
        <ele>212</ele>
        <time>2022-03-21T13:23:09Z</time>
      </trkpt>
      <trkpt lat="46.80557" lon="5.39811">
        <ele>212.2</ele>
        <time>2022-03-21T13:23:10Z</time>
      </trkpt>
      <trkpt lat="46.80552" lon="5.39814">
        <ele>212.2</ele>
        <time>2022-03-21T13:23:11Z</time>
      </trkpt>
      <trkpt lat="46.80548" lon="5.39818">
        <ele>212.8</ele>
        <time>2022-03-21T13:23:12Z</time>
      </trkpt>
      <trkpt lat="46.80543" lon="5.39821">
        <ele>212.8</ele>
        <time>2022-03-21T13:23:13Z</time>
      </trkpt>
      <trkpt lat="46.80539" lon="5.39825">
        <ele>213</ele>
        <time>2022-03-21T13:23:14Z</time>
      </trkpt>
      <trkpt lat="46.80534" lon="5.39828">
        <ele>213.2</ele>
        <time>2022-03-21T13:23:15Z</time>
      </trkpt>
      <trkpt lat="46.8053" lon="5.39831">
        <ele>213.6</ele>
        <time>2022-03-21T13:23:16Z</time>
      </trkpt>
      <trkpt lat="46.80525" lon="5.39835">
        <ele>213.8</ele>
        <time>2022-03-21T13:23:17Z</time>
      </trkpt>
      <trkpt lat="46.80521" lon="5.39839">
        <ele>213.8</ele>
        <time>2022-03-21T13:23:18Z</time>
      </trkpt>
      <trkpt lat="46.80517" lon="5.39842">
        <ele>214.2</ele>
        <time>2022-03-21T13:23:19Z</time>
      </trkpt>
      <trkpt lat="46.80512" lon="5.39846">
        <ele>214.4</ele>
        <time>2022-03-21T13:23:20Z</time>
      </trkpt>
      <trkpt lat="46.80507" lon="5.3985">
        <ele>214.8</ele>
        <time>2022-03-21T13:23:21Z</time>
      </trkpt>
      <trkpt lat="46.80503" lon="5.39853">
        <ele>214.8</ele>
        <time>2022-03-21T13:23:22Z</time>
      </trkpt>
      <trkpt lat="46.80498" lon="5.39857">
        <ele>215</ele>
        <time>2022-03-21T13:23:23Z</time>
      </trkpt>
      <trkpt lat="46.80494" lon="5.39861">
        <ele>215.2</ele>
        <time>2022-03-21T13:23:24Z</time>
      </trkpt>
      <trkpt lat="46.80489" lon="5.39865">
        <ele>215.4</ele>
        <time>2022-03-21T13:23:25Z</time>
      </trkpt>
      <trkpt lat="46.80485" lon="5.39869">
        <ele>215.8</ele>
        <time>2022-03-21T13:23:26Z</time>
      </trkpt>
      <trkpt lat="46.8048" lon="5.39873">
        <ele>216</ele>
        <time>2022-03-21T13:23:27Z</time>
      </trkpt>
      <trkpt lat="46.80476" lon="5.39878">
        <ele>216.2</ele>
        <time>2022-03-21T13:23:28Z</time>
      </trkpt>
      <trkpt lat="46.80471" lon="5.39882">
        <ele>216.2</ele>
        <time>2022-03-21T13:23:29Z</time>
      </trkpt>
      <trkpt lat="46.80467" lon="5.39885">
        <ele>216.6</ele>
        <time>2022-03-21T13:23:30Z</time>
      </trkpt>
      <trkpt lat="46.80462" lon="5.39889">
        <ele>216.8</ele>
        <time>2022-03-21T13:23:31Z</time>
      </trkpt>
      <trkpt lat="46.80458" lon="5.39893">
        <ele>217.2</ele>
        <time>2022-03-21T13:23:32Z</time>
      </trkpt>
      <trkpt lat="46.80453" lon="5.39897">
        <ele>217.4</ele>
        <time>2022-03-21T13:23:33Z</time>
      </trkpt>
      <trkpt lat="46.80448" lon="5.39901">
        <ele>217.4</ele>
        <time>2022-03-21T13:23:34Z</time>
      </trkpt>
      <trkpt lat="46.80444" lon="5.39904">
        <ele>217.4</ele>
        <time>2022-03-21T13:23:35Z</time>
      </trkpt>
      <trkpt lat="46.8044" lon="5.39908">
        <ele>217.8</ele>
        <time>2022-03-21T13:23:36Z</time>
      </trkpt>
      <trkpt lat="46.80435" lon="5.39911">
        <ele>217.8</ele>
        <time>2022-03-21T13:23:37Z</time>
      </trkpt>
      <trkpt lat="46.80431" lon="5.39915">
        <ele>218</ele>
        <time>2022-03-21T13:23:38Z</time>
      </trkpt>
      <trkpt lat="46.80426" lon="5.39919">
        <ele>218.4</ele>
        <time>2022-03-21T13:23:39Z</time>
      </trkpt>
      <trkpt lat="46.80422" lon="5.39923">
        <ele>218.4</ele>
        <time>2022-03-21T13:23:40Z</time>
      </trkpt>
      <trkpt lat="46.80418" lon="5.39926">
        <ele>218.6</ele>
        <time>2022-03-21T13:23:41Z</time>
      </trkpt>
      <trkpt lat="46.80414" lon="5.3993">
        <ele>218.6</ele>
        <time>2022-03-21T13:23:42Z</time>
      </trkpt>
      <trkpt lat="46.8041" lon="5.39933">
        <ele>219</ele>
        <time>2022-03-21T13:23:43Z</time>
      </trkpt>
      <trkpt lat="46.80406" lon="5.39936">
        <ele>219</ele>
        <time>2022-03-21T13:23:44Z</time>
      </trkpt>
      <trkpt lat="46.80402" lon="5.39939">
        <ele>219.4</ele>
        <time>2022-03-21T13:23:45Z</time>
      </trkpt>
      <trkpt lat="46.80398" lon="5.39942">
        <ele>219.4</ele>
        <time>2022-03-21T13:23:46Z</time>
      </trkpt>
      <trkpt lat="46.80394" lon="5.39945">
        <ele>219.8</ele>
        <time>2022-03-21T13:23:47Z</time>
      </trkpt>
      <trkpt lat="46.8039" lon="5.39949">
        <ele>219.8</ele>
        <time>2022-03-21T13:23:48Z</time>
      </trkpt>
      <trkpt lat="46.80386" lon="5.39952">
        <ele>220</ele>
        <time>2022-03-21T13:23:49Z</time>
      </trkpt>
      <trkpt lat="46.80383" lon="5.39955">
        <ele>220</ele>
        <time>2022-03-21T13:23:50Z</time>
      </trkpt>
      <trkpt lat="46.80379" lon="5.39958">
        <ele>220</ele>
        <time>2022-03-21T13:23:51Z</time>
      </trkpt>
      <trkpt lat="46.80375" lon="5.39961">
        <ele>220</ele>
        <time>2022-03-21T13:23:52Z</time>
      </trkpt>
      <trkpt lat="46.80371" lon="5.39964">
        <ele>220.2</ele>
        <time>2022-03-21T13:23:53Z</time>
      </trkpt>
      <trkpt lat="46.80367" lon="5.39968">
        <ele>220.2</ele>
        <time>2022-03-21T13:23:54Z</time>
      </trkpt>
      <trkpt lat="46.80363" lon="5.39971">
        <ele>220.2</ele>
        <time>2022-03-21T13:23:55Z</time>
      </trkpt>
      <trkpt lat="46.80359" lon="5.39975">
        <ele>220.2</ele>
        <time>2022-03-21T13:23:56Z</time>
      </trkpt>
      <trkpt lat="46.80355" lon="5.39978">
        <ele>220.2</ele>
        <time>2022-03-21T13:23:57Z</time>
      </trkpt>
      <trkpt lat="46.80351" lon="5.39982">
        <ele>220.6</ele>
        <time>2022-03-21T13:23:58Z</time>
      </trkpt>
      <trkpt lat="46.80347" lon="5.39985">
        <ele>220.6</ele>
        <time>2022-03-21T13:23:59Z</time>
      </trkpt>
      <trkpt lat="46.80342" lon="5.39989">
        <ele>220.6</ele>
        <time>2022-03-21T13:24:00Z</time>
      </trkpt>
      <trkpt lat="46.80338" lon="5.39992">
        <ele>220.6</ele>
        <time>2022-03-21T13:24:01Z</time>
      </trkpt>
      <trkpt lat="46.80334" lon="5.39996">
        <ele>220.6</ele>
        <time>2022-03-21T13:24:02Z</time>
      </trkpt>
      <trkpt lat="46.80329" lon="5.39999">
        <ele>220.6</ele>
        <time>2022-03-21T13:24:03Z</time>
      </trkpt>
      <trkpt lat="46.80325" lon="5.40003">
        <ele>220.6</ele>
        <time>2022-03-21T13:24:04Z</time>
      </trkpt>
      <trkpt lat="46.80321" lon="5.40007">
        <ele>220.8</ele>
        <time>2022-03-21T13:24:05Z</time>
      </trkpt>
      <trkpt lat="46.80316" lon="5.40011">
        <ele>220.8</ele>
        <time>2022-03-21T13:24:06Z</time>
      </trkpt>
      <trkpt lat="46.80312" lon="5.40014">
        <ele>220.8</ele>
        <time>2022-03-21T13:24:07Z</time>
      </trkpt>
      <trkpt lat="46.80307" lon="5.40018">
        <ele>220.8</ele>
        <time>2022-03-21T13:24:08Z</time>
      </trkpt>
      <trkpt lat="46.80303" lon="5.40022">
        <ele>221</ele>
        <time>2022-03-21T13:24:09Z</time>
      </trkpt>
      <trkpt lat="46.80298" lon="5.40026">
        <ele>221</ele>
        <time>2022-03-21T13:24:10Z</time>
      </trkpt>
      <trkpt lat="46.80294" lon="5.4003">
        <ele>221</ele>
        <time>2022-03-21T13:24:11Z</time>
      </trkpt>
      <trkpt lat="46.80289" lon="5.40034">
        <ele>221</ele>
        <time>2022-03-21T13:24:12Z</time>
      </trkpt>
      <trkpt lat="46.80284" lon="5.40037">
        <ele>221</ele>
        <time>2022-03-21T13:24:13Z</time>
      </trkpt>
      <trkpt lat="46.8028" lon="5.40041">
        <ele>221</ele>
        <time>2022-03-21T13:24:14Z</time>
      </trkpt>
      <trkpt lat="46.80275" lon="5.40045">
        <ele>221</ele>
        <time>2022-03-21T13:24:15Z</time>
      </trkpt>
      <trkpt lat="46.8027" lon="5.40049">
        <ele>221</ele>
        <time>2022-03-21T13:24:16Z</time>
      </trkpt>
      <trkpt lat="46.80265" lon="5.40054">
        <ele>221</ele>
        <time>2022-03-21T13:24:17Z</time>
      </trkpt>
      <trkpt lat="46.8026" lon="5.40058">
        <ele>221</ele>
        <time>2022-03-21T13:24:18Z</time>
      </trkpt>
      <trkpt lat="46.80255" lon="5.40062">
        <ele>221</ele>
        <time>2022-03-21T13:24:19Z</time>
      </trkpt>
      <trkpt lat="46.8025" lon="5.40067">
        <ele>221</ele>
        <time>2022-03-21T13:24:20Z</time>
      </trkpt>
      <trkpt lat="46.80244" lon="5.40071">
        <ele>220.6</ele>
        <time>2022-03-21T13:24:21Z</time>
      </trkpt>
      <trkpt lat="46.80239" lon="5.40076">
        <ele>220.6</ele>
        <time>2022-03-21T13:24:22Z</time>
      </trkpt>
      <trkpt lat="46.80233" lon="5.40081">
        <ele>220.4</ele>
        <time>2022-03-21T13:24:23Z</time>
      </trkpt>
      <trkpt lat="46.80227" lon="5.40087">
        <ele>220.2</ele>
        <time>2022-03-21T13:24:24Z</time>
      </trkpt>
      <trkpt lat="46.8022" lon="5.40092">
        <ele>220</ele>
        <time>2022-03-21T13:24:25Z</time>
      </trkpt>
      <trkpt lat="46.80214" lon="5.40098">
        <ele>219.8</ele>
        <time>2022-03-21T13:24:26Z</time>
      </trkpt>
      <trkpt lat="46.80207" lon="5.40103">
        <ele>219.4</ele>
        <time>2022-03-21T13:24:27Z</time>
      </trkpt>
      <trkpt lat="46.802" lon="5.40109">
        <ele>219.2</ele>
        <time>2022-03-21T13:24:28Z</time>
      </trkpt>
      <trkpt lat="46.80193" lon="5.40115">
        <ele>218.8</ele>
        <time>2022-03-21T13:24:29Z</time>
      </trkpt>
      <trkpt lat="46.80186" lon="5.40121">
        <ele>218.6</ele>
        <time>2022-03-21T13:24:30Z</time>
      </trkpt>
      <trkpt lat="46.80179" lon="5.40127">
        <ele>218.6</ele>
        <time>2022-03-21T13:24:31Z</time>
      </trkpt>
      <trkpt lat="46.80164" lon="5.40139">
        <ele>218.2</ele>
        <time>2022-03-21T13:24:32Z</time>
      </trkpt>
      <trkpt lat="46.80157" lon="5.40145">
        <ele>217.8</ele>
        <time>2022-03-21T13:24:33Z</time>
      </trkpt>
      <trkpt lat="46.8015" lon="5.40152">
        <ele>217.8</ele>
        <time>2022-03-21T13:24:34Z</time>
      </trkpt>
      <trkpt lat="46.80143" lon="5.40158">
        <ele>217.4</ele>
        <time>2022-03-21T13:24:35Z</time>
      </trkpt>
      <trkpt lat="46.80136" lon="5.40164">
        <ele>217</ele>
        <time>2022-03-21T13:24:36Z</time>
      </trkpt>
      <trkpt lat="46.80129" lon="5.4017">
        <ele>216.8</ele>
        <time>2022-03-21T13:24:37Z</time>
      </trkpt>
      <trkpt lat="46.80121" lon="5.40176">
        <ele>216.8</ele>
        <time>2022-03-21T13:24:38Z</time>
      </trkpt>
      <trkpt lat="46.80114" lon="5.40182">
        <ele>216.4</ele>
        <time>2022-03-21T13:24:39Z</time>
      </trkpt>
      <trkpt lat="46.80107" lon="5.40188">
        <ele>216.4</ele>
        <time>2022-03-21T13:24:40Z</time>
      </trkpt>
      <trkpt lat="46.80101" lon="5.40193">
        <ele>216.2</ele>
        <time>2022-03-21T13:24:41Z</time>
      </trkpt>
      <trkpt lat="46.80094" lon="5.40199">
        <ele>216.2</ele>
        <time>2022-03-21T13:24:42Z</time>
      </trkpt>
      <trkpt lat="46.80088" lon="5.40204">
        <ele>216.2</ele>
        <time>2022-03-21T13:24:43Z</time>
      </trkpt>
      <trkpt lat="46.80082" lon="5.40209">
        <ele>216.2</ele>
        <time>2022-03-21T13:24:44Z</time>
      </trkpt>
      <trkpt lat="46.80076" lon="5.40214">
        <ele>216.2</ele>
        <time>2022-03-21T13:24:45Z</time>
      </trkpt>
      <trkpt lat="46.8007" lon="5.40219">
        <ele>216.2</ele>
        <time>2022-03-21T13:24:46Z</time>
      </trkpt>
      <trkpt lat="46.80065" lon="5.40223">
        <ele>216.2</ele>
        <time>2022-03-21T13:24:47Z</time>
      </trkpt>
      <trkpt lat="46.8006" lon="5.40227">
        <ele>216.2</ele>
        <time>2022-03-21T13:24:48Z</time>
      </trkpt>
      <trkpt lat="46.80054" lon="5.40232">
        <ele>216.2</ele>
        <time>2022-03-21T13:24:49Z</time>
      </trkpt>
      <trkpt lat="46.80049" lon="5.40236">
        <ele>216.2</ele>
        <time>2022-03-21T13:24:50Z</time>
      </trkpt>
      <trkpt lat="46.80044" lon="5.4024">
        <ele>216.2</ele>
        <time>2022-03-21T13:24:51Z</time>
      </trkpt>
      <trkpt lat="46.80038" lon="5.40245">
        <ele>216.2</ele>
        <time>2022-03-21T13:24:52Z</time>
      </trkpt>
      <trkpt lat="46.80033" lon="5.4025">
        <ele>216.2</ele>
        <time>2022-03-21T13:24:53Z</time>
      </trkpt>
      <trkpt lat="46.80027" lon="5.40255">
        <ele>216.2</ele>
        <time>2022-03-21T13:24:54Z</time>
      </trkpt>
      <trkpt lat="46.80021" lon="5.4026">
        <ele>216.2</ele>
        <time>2022-03-21T13:24:55Z</time>
      </trkpt>
      <trkpt lat="46.80015" lon="5.40264">
        <ele>216</ele>
        <time>2022-03-21T13:24:56Z</time>
      </trkpt>
      <trkpt lat="46.80009" lon="5.4027">
        <ele>215.6</ele>
        <time>2022-03-21T13:24:57Z</time>
      </trkpt>
      <trkpt lat="46.80003" lon="5.40275">
        <ele>215.6</ele>
        <time>2022-03-21T13:24:58Z</time>
      </trkpt>
      <trkpt lat="46.79996" lon="5.4028">
        <ele>215.2</ele>
        <time>2022-03-21T13:24:59Z</time>
      </trkpt>
      <trkpt lat="46.7999" lon="5.40286">
        <ele>214.8</ele>
        <time>2022-03-21T13:25:00Z</time>
      </trkpt>
      <trkpt lat="46.79983" lon="5.40292">
        <ele>214.6</ele>
        <time>2022-03-21T13:25:01Z</time>
      </trkpt>
      <trkpt lat="46.79976" lon="5.40297">
        <ele>214.2</ele>
        <time>2022-03-21T13:25:02Z</time>
      </trkpt>
      <trkpt lat="46.79969" lon="5.40303">
        <ele>214</ele>
        <time>2022-03-21T13:25:03Z</time>
      </trkpt>
      <trkpt lat="46.79962" lon="5.40309">
        <ele>213.6</ele>
        <time>2022-03-21T13:25:04Z</time>
      </trkpt>
      <trkpt lat="46.79955" lon="5.40315">
        <ele>213.4</ele>
        <time>2022-03-21T13:25:05Z</time>
      </trkpt>
      <trkpt lat="46.79948" lon="5.40321">
        <ele>213.2</ele>
        <time>2022-03-21T13:25:06Z</time>
      </trkpt>
      <trkpt lat="46.79941" lon="5.40327">
        <ele>212.8</ele>
        <time>2022-03-21T13:25:07Z</time>
      </trkpt>
      <trkpt lat="46.79933" lon="5.40333">
        <ele>212.6</ele>
        <time>2022-03-21T13:25:08Z</time>
      </trkpt>
      <trkpt lat="46.79926" lon="5.40339">
        <ele>212</ele>
        <time>2022-03-21T13:25:10Z</time>
      </trkpt>
      <trkpt lat="46.79919" lon="5.40345">
        <ele>211.6</ele>
        <time>2022-03-21T13:25:11Z</time>
      </trkpt>
      <trkpt lat="46.79912" lon="5.40351">
        <ele>211.4</ele>
        <time>2022-03-21T13:25:12Z</time>
      </trkpt>
      <trkpt lat="46.79905" lon="5.40357">
        <ele>211.2</ele>
        <time>2022-03-21T13:25:13Z</time>
      </trkpt>
      <trkpt lat="46.79898" lon="5.40363">
        <ele>211.2</ele>
        <time>2022-03-21T13:25:14Z</time>
      </trkpt>
      <trkpt lat="46.79891" lon="5.40369">
        <ele>210.8</ele>
        <time>2022-03-21T13:25:15Z</time>
      </trkpt>
      <trkpt lat="46.79884" lon="5.40375">
        <ele>210.4</ele>
        <time>2022-03-21T13:25:16Z</time>
      </trkpt>
      <trkpt lat="46.79877" lon="5.40381">
        <ele>210.2</ele>
        <time>2022-03-21T13:25:17Z</time>
      </trkpt>
      <trkpt lat="46.7987" lon="5.40387">
        <ele>210</ele>
        <time>2022-03-21T13:25:18Z</time>
      </trkpt>
      <trkpt lat="46.79863" lon="5.40393">
        <ele>209.8</ele>
        <time>2022-03-21T13:25:19Z</time>
      </trkpt>
      <trkpt lat="46.79856" lon="5.404">
        <ele>209.6</ele>
        <time>2022-03-21T13:25:20Z</time>
      </trkpt>
      <trkpt lat="46.79849" lon="5.40405">
        <ele>209.4</ele>
        <time>2022-03-21T13:25:21Z</time>
      </trkpt>
      <trkpt lat="46.79842" lon="5.40411">
        <ele>209.2</ele>
        <time>2022-03-21T13:25:22Z</time>
      </trkpt>
      <trkpt lat="46.79835" lon="5.40417">
        <ele>209.2</ele>
        <time>2022-03-21T13:25:23Z</time>
      </trkpt>
      <trkpt lat="46.79828" lon="5.40423">
        <ele>209</ele>
        <time>2022-03-21T13:25:24Z</time>
      </trkpt>
      <trkpt lat="46.79821" lon="5.40428">
        <ele>209</ele>
        <time>2022-03-21T13:25:25Z</time>
      </trkpt>
      <trkpt lat="46.79814" lon="5.40434">
        <ele>208.6</ele>
        <time>2022-03-21T13:25:26Z</time>
      </trkpt>
      <trkpt lat="46.79807" lon="5.4044">
        <ele>208.6</ele>
        <time>2022-03-21T13:25:27Z</time>
      </trkpt>
      <trkpt lat="46.798" lon="5.40446">
        <ele>208.6</ele>
        <time>2022-03-21T13:25:28Z</time>
      </trkpt>
      <trkpt lat="46.79793" lon="5.40452">
        <ele>208.4</ele>
        <time>2022-03-21T13:25:29Z</time>
      </trkpt>
      <trkpt lat="46.79787" lon="5.40457">
        <ele>208.4</ele>
        <time>2022-03-21T13:25:30Z</time>
      </trkpt>
      <trkpt lat="46.79781" lon="5.40462">
        <ele>208.4</ele>
        <time>2022-03-21T13:25:31Z</time>
      </trkpt>
      <trkpt lat="46.79774" lon="5.40467">
        <ele>208.4</ele>
        <time>2022-03-21T13:25:32Z</time>
      </trkpt>
      <trkpt lat="46.79769" lon="5.40473">
        <ele>208.4</ele>
        <time>2022-03-21T13:25:33Z</time>
      </trkpt>
      <trkpt lat="46.79763" lon="5.40477">
        <ele>208.4</ele>
        <time>2022-03-21T13:25:34Z</time>
      </trkpt>
      <trkpt lat="46.79757" lon="5.40482">
        <ele>208.4</ele>
        <time>2022-03-21T13:25:35Z</time>
      </trkpt>
      <trkpt lat="46.79751" lon="5.40486">
        <ele>208.4</ele>
        <time>2022-03-21T13:25:36Z</time>
      </trkpt>
      <trkpt lat="46.79746" lon="5.40491">
        <ele>208.4</ele>
        <time>2022-03-21T13:25:37Z</time>
      </trkpt>
      <trkpt lat="46.79741" lon="5.40495">
        <ele>208.6</ele>
        <time>2022-03-21T13:25:38Z</time>
      </trkpt>
      <trkpt lat="46.79735" lon="5.40499">
        <ele>208.6</ele>
        <time>2022-03-21T13:25:39Z</time>
      </trkpt>
      <trkpt lat="46.7973" lon="5.40503">
        <ele>209.2</ele>
        <time>2022-03-21T13:25:40Z</time>
      </trkpt>
      <trkpt lat="46.79725" lon="5.40507">
        <ele>209.4</ele>
        <time>2022-03-21T13:25:41Z</time>
      </trkpt>
      <trkpt lat="46.7972" lon="5.40511">
        <ele>209.8</ele>
        <time>2022-03-21T13:25:42Z</time>
      </trkpt>
      <trkpt lat="46.79715" lon="5.40515">
        <ele>210</ele>
        <time>2022-03-21T13:25:43Z</time>
      </trkpt>
      <trkpt lat="46.7971" lon="5.40519">
        <ele>210.2</ele>
        <time>2022-03-21T13:25:44Z</time>
      </trkpt>
      <trkpt lat="46.79705" lon="5.40523">
        <ele>210.2</ele>
        <time>2022-03-21T13:25:45Z</time>
      </trkpt>
      <trkpt lat="46.797" lon="5.40528">
        <ele>210.6</ele>
        <time>2022-03-21T13:25:46Z</time>
      </trkpt>
      <trkpt lat="46.79695" lon="5.40532">
        <ele>210.8</ele>
        <time>2022-03-21T13:25:47Z</time>
      </trkpt>
      <trkpt lat="46.7969" lon="5.40536">
        <ele>210.8</ele>
        <time>2022-03-21T13:25:48Z</time>
      </trkpt>
      <trkpt lat="46.79685" lon="5.4054">
        <ele>211</ele>
        <time>2022-03-21T13:25:49Z</time>
      </trkpt>
      <trkpt lat="46.7968" lon="5.40545">
        <ele>211</ele>
        <time>2022-03-21T13:25:50Z</time>
      </trkpt>
      <trkpt lat="46.79675" lon="5.40549">
        <ele>211.4</ele>
        <time>2022-03-21T13:25:51Z</time>
      </trkpt>
      <trkpt lat="46.7967" lon="5.40553">
        <ele>211.4</ele>
        <time>2022-03-21T13:25:52Z</time>
      </trkpt>
      <trkpt lat="46.79665" lon="5.40557">
        <ele>211.6</ele>
        <time>2022-03-21T13:25:53Z</time>
      </trkpt>
      <trkpt lat="46.7966" lon="5.40561">
        <ele>211.6</ele>
        <time>2022-03-21T13:25:54Z</time>
      </trkpt>
      <trkpt lat="46.79655" lon="5.40566">
        <ele>211.8</ele>
        <time>2022-03-21T13:25:55Z</time>
      </trkpt>
      <trkpt lat="46.7965" lon="5.4057">
        <ele>211.8</ele>
        <time>2022-03-21T13:25:56Z</time>
      </trkpt>
      <trkpt lat="46.79645" lon="5.40574">
        <ele>211.8</ele>
        <time>2022-03-21T13:25:57Z</time>
      </trkpt>
      <trkpt lat="46.7964" lon="5.40578">
        <ele>211.8</ele>
        <time>2022-03-21T13:25:58Z</time>
      </trkpt>
      <trkpt lat="46.79635" lon="5.40582">
        <ele>211.8</ele>
        <time>2022-03-21T13:25:59Z</time>
      </trkpt>
      <trkpt lat="46.7963" lon="5.40587">
        <ele>211.8</ele>
        <time>2022-03-21T13:26:00Z</time>
      </trkpt>
      <trkpt lat="46.79624" lon="5.40592">
        <ele>211.8</ele>
        <time>2022-03-21T13:26:01Z</time>
      </trkpt>
      <trkpt lat="46.79619" lon="5.40596">
        <ele>211.8</ele>
        <time>2022-03-21T13:26:02Z</time>
      </trkpt>
      <trkpt lat="46.79613" lon="5.40601">
        <ele>211.8</ele>
        <time>2022-03-21T13:26:03Z</time>
      </trkpt>
      <trkpt lat="46.79608" lon="5.40605">
        <ele>211.8</ele>
        <time>2022-03-21T13:26:04Z</time>
      </trkpt>
      <trkpt lat="46.79602" lon="5.4061">
        <ele>211.8</ele>
        <time>2022-03-21T13:26:05Z</time>
      </trkpt>
      <trkpt lat="46.79597" lon="5.40615">
        <ele>211.6</ele>
        <time>2022-03-21T13:26:06Z</time>
      </trkpt>
      <trkpt lat="46.79591" lon="5.4062">
        <ele>211.2</ele>
        <time>2022-03-21T13:26:07Z</time>
      </trkpt>
      <trkpt lat="46.79585" lon="5.40625">
        <ele>211</ele>
        <time>2022-03-21T13:26:08Z</time>
      </trkpt>
      <trkpt lat="46.79579" lon="5.4063">
        <ele>211</ele>
        <time>2022-03-21T13:26:09Z</time>
      </trkpt>
      <trkpt lat="46.79573" lon="5.40635">
        <ele>210.8</ele>
        <time>2022-03-21T13:26:10Z</time>
      </trkpt>
      <trkpt lat="46.79567" lon="5.40641">
        <ele>210.8</ele>
        <time>2022-03-21T13:26:11Z</time>
      </trkpt>
      <trkpt lat="46.7956" lon="5.40646">
        <ele>210.4</ele>
        <time>2022-03-21T13:26:12Z</time>
      </trkpt>
      <trkpt lat="46.79553" lon="5.40651">
        <ele>210.4</ele>
        <time>2022-03-21T13:26:13Z</time>
      </trkpt>
      <trkpt lat="46.79546" lon="5.40657">
        <ele>210</ele>
        <time>2022-03-21T13:26:14Z</time>
      </trkpt>
      <trkpt lat="46.7954" lon="5.40664">
        <ele>209.8</ele>
        <time>2022-03-21T13:26:15Z</time>
      </trkpt>
      <trkpt lat="46.79532" lon="5.4067">
        <ele>209.4</ele>
        <time>2022-03-21T13:26:16Z</time>
      </trkpt>
      <trkpt lat="46.79525" lon="5.40676">
        <ele>209.2</ele>
        <time>2022-03-21T13:26:17Z</time>
      </trkpt>
      <trkpt lat="46.79518" lon="5.40682">
        <ele>208.8</ele>
        <time>2022-03-21T13:26:18Z</time>
      </trkpt>
      <trkpt lat="46.79511" lon="5.40688">
        <ele>208.6</ele>
        <time>2022-03-21T13:26:19Z</time>
      </trkpt>
      <trkpt lat="46.79503" lon="5.40695">
        <ele>208.4</ele>
        <time>2022-03-21T13:26:20Z</time>
      </trkpt>
      <trkpt lat="46.79496" lon="5.40701">
        <ele>208</ele>
        <time>2022-03-21T13:26:21Z</time>
      </trkpt>
      <trkpt lat="46.79488" lon="5.40708">
        <ele>208</ele>
        <time>2022-03-21T13:26:22Z</time>
      </trkpt>
      <trkpt lat="46.79481" lon="5.40714">
        <ele>207.8</ele>
        <time>2022-03-21T13:26:23Z</time>
      </trkpt>
      <trkpt lat="46.79474" lon="5.4072">
        <ele>207.8</ele>
        <time>2022-03-21T13:26:24Z</time>
      </trkpt>
      <trkpt lat="46.79467" lon="5.40725">
        <ele>207.6</ele>
        <time>2022-03-21T13:26:25Z</time>
      </trkpt>
      <trkpt lat="46.7946" lon="5.40731">
        <ele>207.6</ele>
        <time>2022-03-21T13:26:26Z</time>
      </trkpt>
      <trkpt lat="46.79453" lon="5.40737">
        <ele>207.2</ele>
        <time>2022-03-21T13:26:27Z</time>
      </trkpt>
      <trkpt lat="46.79447" lon="5.40742">
        <ele>207.2</ele>
        <time>2022-03-21T13:26:28Z</time>
      </trkpt>
      <trkpt lat="46.7944" lon="5.40747">
        <ele>207.2</ele>
        <time>2022-03-21T13:26:29Z</time>
      </trkpt>
      <trkpt lat="46.79434" lon="5.40752">
        <ele>207.2</ele>
        <time>2022-03-21T13:26:30Z</time>
      </trkpt>
      <trkpt lat="46.79428" lon="5.40758">
        <ele>207.2</ele>
        <time>2022-03-21T13:26:31Z</time>
      </trkpt>
      <trkpt lat="46.79422" lon="5.40763">
        <ele>207.6</ele>
        <time>2022-03-21T13:26:32Z</time>
      </trkpt>
      <trkpt lat="46.79416" lon="5.40768">
        <ele>207.6</ele>
        <time>2022-03-21T13:26:33Z</time>
      </trkpt>
      <trkpt lat="46.7941" lon="5.40773">
        <ele>207.8</ele>
        <time>2022-03-21T13:26:34Z</time>
      </trkpt>
      <trkpt lat="46.79404" lon="5.40777">
        <ele>207.8</ele>
        <time>2022-03-21T13:26:35Z</time>
      </trkpt>
      <trkpt lat="46.79398" lon="5.40782">
        <ele>208</ele>
        <time>2022-03-21T13:26:36Z</time>
      </trkpt>
      <trkpt lat="46.79392" lon="5.40787">
        <ele>208</ele>
        <time>2022-03-21T13:26:37Z</time>
      </trkpt>
      <trkpt lat="46.79387" lon="5.40791">
        <ele>208.2</ele>
        <time>2022-03-21T13:26:38Z</time>
      </trkpt>
      <trkpt lat="46.79381" lon="5.40796">
        <ele>208.2</ele>
        <time>2022-03-21T13:26:39Z</time>
      </trkpt>
      <trkpt lat="46.79375" lon="5.40801">
        <ele>208.2</ele>
        <time>2022-03-21T13:26:40Z</time>
      </trkpt>
      <trkpt lat="46.79369" lon="5.40805">
        <ele>208.2</ele>
        <time>2022-03-21T13:26:41Z</time>
      </trkpt>
      <trkpt lat="46.79364" lon="5.4081">
        <ele>208.2</ele>
        <time>2022-03-21T13:26:42Z</time>
      </trkpt>
      <trkpt lat="46.79358" lon="5.40815">
        <ele>208.2</ele>
        <time>2022-03-21T13:26:43Z</time>
      </trkpt>
      <trkpt lat="46.79352" lon="5.4082">
        <ele>208.2</ele>
        <time>2022-03-21T13:26:44Z</time>
      </trkpt>
      <trkpt lat="46.79347" lon="5.40825">
        <ele>208.6</ele>
        <time>2022-03-21T13:26:45Z</time>
      </trkpt>
      <trkpt lat="46.79341" lon="5.4083">
        <ele>208.6</ele>
        <time>2022-03-21T13:26:46Z</time>
      </trkpt>
      <trkpt lat="46.79335" lon="5.40835">
        <ele>208.6</ele>
        <time>2022-03-21T13:26:47Z</time>
      </trkpt>
      <trkpt lat="46.7933" lon="5.4084">
        <ele>208.6</ele>
        <time>2022-03-21T13:26:48Z</time>
      </trkpt>
      <trkpt lat="46.79324" lon="5.40844">
        <ele>208.6</ele>
        <time>2022-03-21T13:26:49Z</time>
      </trkpt>
      <trkpt lat="46.79318" lon="5.40849">
        <ele>208.6</ele>
        <time>2022-03-21T13:26:50Z</time>
      </trkpt>
      <trkpt lat="46.79312" lon="5.40854">
        <ele>208.6</ele>
        <time>2022-03-21T13:26:51Z</time>
      </trkpt>
      <trkpt lat="46.79306" lon="5.40859">
        <ele>208.6</ele>
        <time>2022-03-21T13:26:52Z</time>
      </trkpt>
      <trkpt lat="46.79301" lon="5.40864">
        <ele>208.8</ele>
        <time>2022-03-21T13:26:53Z</time>
      </trkpt>
      <trkpt lat="46.79295" lon="5.40869">
        <ele>208.8</ele>
        <time>2022-03-21T13:26:54Z</time>
      </trkpt>
      <trkpt lat="46.79289" lon="5.40874">
        <ele>208.8</ele>
        <time>2022-03-21T13:26:55Z</time>
      </trkpt>
      <trkpt lat="46.79283" lon="5.40879">
        <ele>208.8</ele>
        <time>2022-03-21T13:26:56Z</time>
      </trkpt>
      <trkpt lat="46.79277" lon="5.40884">
        <ele>209</ele>
        <time>2022-03-21T13:26:57Z</time>
      </trkpt>
      <trkpt lat="46.79271" lon="5.40889">
        <ele>209</ele>
        <time>2022-03-21T13:26:58Z</time>
      </trkpt>
      <trkpt lat="46.79266" lon="5.40893">
        <ele>209.4</ele>
        <time>2022-03-21T13:26:59Z</time>
      </trkpt>
      <trkpt lat="46.7926" lon="5.40898">
        <ele>209.4</ele>
        <time>2022-03-21T13:27:00Z</time>
      </trkpt>
      <trkpt lat="46.79255" lon="5.40903">
        <ele>209.8</ele>
        <time>2022-03-21T13:27:01Z</time>
      </trkpt>
      <trkpt lat="46.7925" lon="5.40907">
        <ele>209.8</ele>
        <time>2022-03-21T13:27:02Z</time>
      </trkpt>
      <trkpt lat="46.79244" lon="5.40911">
        <ele>210.2</ele>
        <time>2022-03-21T13:27:03Z</time>
      </trkpt>
      <trkpt lat="46.7924" lon="5.40915">
        <ele>210.2</ele>
        <time>2022-03-21T13:27:04Z</time>
      </trkpt>
      <trkpt lat="46.79235" lon="5.40919">
        <ele>210.4</ele>
        <time>2022-03-21T13:27:05Z</time>
      </trkpt>
      <trkpt lat="46.7923" lon="5.40923">
        <ele>210.4</ele>
        <time>2022-03-21T13:27:06Z</time>
      </trkpt>
      <trkpt lat="46.79225" lon="5.40927">
        <ele>210.8</ele>
        <time>2022-03-21T13:27:07Z</time>
      </trkpt>
      <trkpt lat="46.79221" lon="5.40931">
        <ele>210.8</ele>
        <time>2022-03-21T13:27:08Z</time>
      </trkpt>
      <trkpt lat="46.79217" lon="5.40935">
        <ele>211.2</ele>
        <time>2022-03-21T13:27:09Z</time>
      </trkpt>
      <trkpt lat="46.79212" lon="5.40939">
        <ele>211.2</ele>
        <time>2022-03-21T13:27:10Z</time>
      </trkpt>
      <trkpt lat="46.79208" lon="5.40942">
        <ele>211.4</ele>
        <time>2022-03-21T13:27:11Z</time>
      </trkpt>
      <trkpt lat="46.79204" lon="5.40946">
        <ele>211.4</ele>
        <time>2022-03-21T13:27:12Z</time>
      </trkpt>
      <trkpt lat="46.792" lon="5.40949">
        <ele>211.8</ele>
        <time>2022-03-21T13:27:13Z</time>
      </trkpt>
      <trkpt lat="46.79196" lon="5.40953">
        <ele>211.8</ele>
        <time>2022-03-21T13:27:14Z</time>
      </trkpt>
      <trkpt lat="46.79192" lon="5.40956">
        <ele>212.4</ele>
        <time>2022-03-21T13:27:15Z</time>
      </trkpt>
      <trkpt lat="46.79188" lon="5.40959">
        <ele>212.4</ele>
        <time>2022-03-21T13:27:16Z</time>
      </trkpt>
      <trkpt lat="46.79184" lon="5.40963">
        <ele>212.8</ele>
        <time>2022-03-21T13:27:17Z</time>
      </trkpt>
      <trkpt lat="46.7918" lon="5.40966">
        <ele>212.8</ele>
        <time>2022-03-21T13:27:18Z</time>
      </trkpt>
      <trkpt lat="46.79176" lon="5.40969">
        <ele>213.2</ele>
        <time>2022-03-21T13:27:19Z</time>
      </trkpt>
      <trkpt lat="46.79172" lon="5.40972">
        <ele>213.2</ele>
        <time>2022-03-21T13:27:20Z</time>
      </trkpt>
      <trkpt lat="46.79168" lon="5.40976">
        <ele>213.6</ele>
        <time>2022-03-21T13:27:21Z</time>
      </trkpt>
      <trkpt lat="46.79164" lon="5.40979">
        <ele>213.8</ele>
        <time>2022-03-21T13:27:22Z</time>
      </trkpt>
      <trkpt lat="46.7916" lon="5.40983">
        <ele>214.2</ele>
        <time>2022-03-21T13:27:23Z</time>
      </trkpt>
      <trkpt lat="46.79156" lon="5.40986">
        <ele>214.4</ele>
        <time>2022-03-21T13:27:24Z</time>
      </trkpt>
      <trkpt lat="46.79153" lon="5.40989">
        <ele>214.4</ele>
        <time>2022-03-21T13:27:25Z</time>
      </trkpt>
      <trkpt lat="46.79149" lon="5.40992">
        <ele>214.8</ele>
        <time>2022-03-21T13:27:26Z</time>
      </trkpt>
      <trkpt lat="46.79145" lon="5.40996">
        <ele>215</ele>
        <time>2022-03-21T13:27:27Z</time>
      </trkpt>
      <trkpt lat="46.79141" lon="5.40999">
        <ele>215.2</ele>
        <time>2022-03-21T13:27:28Z</time>
      </trkpt>
      <trkpt lat="46.79136" lon="5.41002">
        <ele>215.6</ele>
        <time>2022-03-21T13:27:29Z</time>
      </trkpt>
      <trkpt lat="46.79132" lon="5.41006">
        <ele>215.8</ele>
        <time>2022-03-21T13:27:30Z</time>
      </trkpt>
      <trkpt lat="46.79128" lon="5.41009">
        <ele>216.2</ele>
        <time>2022-03-21T13:27:31Z</time>
      </trkpt>
      <trkpt lat="46.79124" lon="5.41012">
        <ele>216.4</ele>
        <time>2022-03-21T13:27:32Z</time>
      </trkpt>
      <trkpt lat="46.79121" lon="5.41015">
        <ele>216.6</ele>
        <time>2022-03-21T13:27:33Z</time>
      </trkpt>
      <trkpt lat="46.79117" lon="5.41018">
        <ele>216.6</ele>
        <time>2022-03-21T13:27:34Z</time>
      </trkpt>
      <trkpt lat="46.79114" lon="5.41021">
        <ele>216.8</ele>
        <time>2022-03-21T13:27:35Z</time>
      </trkpt>
      <trkpt lat="46.7911" lon="5.41024">
        <ele>216.8</ele>
        <time>2022-03-21T13:27:36Z</time>
      </trkpt>
      <trkpt lat="46.79106" lon="5.41027">
        <ele>216.8</ele>
        <time>2022-03-21T13:27:37Z</time>
      </trkpt>
      <trkpt lat="46.79103" lon="5.41031">
        <ele>217.2</ele>
        <time>2022-03-21T13:27:38Z</time>
      </trkpt>
      <trkpt lat="46.79099" lon="5.41034">
        <ele>217.2</ele>
        <time>2022-03-21T13:27:39Z</time>
      </trkpt>
      <trkpt lat="46.79095" lon="5.41037">
        <ele>217.4</ele>
        <time>2022-03-21T13:27:40Z</time>
      </trkpt>
      <trkpt lat="46.79091" lon="5.4104">
        <ele>217.4</ele>
        <time>2022-03-21T13:27:41Z</time>
      </trkpt>
      <trkpt lat="46.79087" lon="5.41043">
        <ele>217.4</ele>
        <time>2022-03-21T13:27:42Z</time>
      </trkpt>
      <trkpt lat="46.79083" lon="5.41047">
        <ele>217.4</ele>
        <time>2022-03-21T13:27:43Z</time>
      </trkpt>
      <trkpt lat="46.79079" lon="5.4105">
        <ele>217.4</ele>
        <time>2022-03-21T13:27:44Z</time>
      </trkpt>
      <trkpt lat="46.79075" lon="5.41053">
        <ele>217.4</ele>
        <time>2022-03-21T13:27:45Z</time>
      </trkpt>
      <trkpt lat="46.7907" lon="5.41057">
        <ele>217.4</ele>
        <time>2022-03-21T13:27:46Z</time>
      </trkpt>
      <trkpt lat="46.79066" lon="5.41061">
        <ele>217.4</ele>
        <time>2022-03-21T13:27:47Z</time>
      </trkpt>
      <trkpt lat="46.79061" lon="5.41064">
        <ele>217.4</ele>
        <time>2022-03-21T13:27:48Z</time>
      </trkpt>
      <trkpt lat="46.79056" lon="5.41068">
        <ele>217.4</ele>
        <time>2022-03-21T13:27:49Z</time>
      </trkpt>
      <trkpt lat="46.79052" lon="5.41073">
        <ele>217.4</ele>
        <time>2022-03-21T13:27:50Z</time>
      </trkpt>
      <trkpt lat="46.79047" lon="5.41077">
        <ele>217.4</ele>
        <time>2022-03-21T13:27:51Z</time>
      </trkpt>
      <trkpt lat="46.79042" lon="5.41081">
        <ele>217.4</ele>
        <time>2022-03-21T13:27:52Z</time>
      </trkpt>
      <trkpt lat="46.79037" lon="5.41085">
        <ele>217.4</ele>
        <time>2022-03-21T13:27:53Z</time>
      </trkpt>
      <trkpt lat="46.79032" lon="5.41089">
        <ele>217.4</ele>
        <time>2022-03-21T13:27:54Z</time>
      </trkpt>
      <trkpt lat="46.79027" lon="5.41093">
        <ele>217.6</ele>
        <time>2022-03-21T13:27:55Z</time>
      </trkpt>
      <trkpt lat="46.79022" lon="5.41098">
        <ele>217.6</ele>
        <time>2022-03-21T13:27:56Z</time>
      </trkpt>
      <trkpt lat="46.79018" lon="5.41102">
        <ele>217.8</ele>
        <time>2022-03-21T13:27:57Z</time>
      </trkpt>
      <trkpt lat="46.79013" lon="5.41106">
        <ele>217.8</ele>
        <time>2022-03-21T13:27:58Z</time>
      </trkpt>
      <trkpt lat="46.79008" lon="5.4111">
        <ele>218.2</ele>
        <time>2022-03-21T13:27:59Z</time>
      </trkpt>
      <trkpt lat="46.79004" lon="5.41113">
        <ele>218.4</ele>
        <time>2022-03-21T13:28:00Z</time>
      </trkpt>
      <trkpt lat="46.79" lon="5.41117">
        <ele>218.4</ele>
        <time>2022-03-21T13:28:01Z</time>
      </trkpt>
      <trkpt lat="46.78996" lon="5.4112">
        <ele>218.8</ele>
        <time>2022-03-21T13:28:02Z</time>
      </trkpt>
      <trkpt lat="46.78992" lon="5.41124">
        <ele>219</ele>
        <time>2022-03-21T13:28:03Z</time>
      </trkpt>
      <trkpt lat="46.78988" lon="5.41127">
        <ele>219</ele>
        <time>2022-03-21T13:28:04Z</time>
      </trkpt>
      <trkpt lat="46.78984" lon="5.41131">
        <ele>219.4</ele>
        <time>2022-03-21T13:28:05Z</time>
      </trkpt>
      <trkpt lat="46.78979" lon="5.41134">
        <ele>219.4</ele>
        <time>2022-03-21T13:28:06Z</time>
      </trkpt>
      <trkpt lat="46.78975" lon="5.41137">
        <ele>219.8</ele>
        <time>2022-03-21T13:28:07Z</time>
      </trkpt>
      <trkpt lat="46.78971" lon="5.4114">
        <ele>220</ele>
        <time>2022-03-21T13:28:08Z</time>
      </trkpt>
      <trkpt lat="46.78968" lon="5.41143">
        <ele>220</ele>
        <time>2022-03-21T13:28:09Z</time>
      </trkpt>
      <trkpt lat="46.78964" lon="5.41146">
        <ele>220.4</ele>
        <time>2022-03-21T13:28:10Z</time>
      </trkpt>
      <trkpt lat="46.7896" lon="5.41149">
        <ele>220.8</ele>
        <time>2022-03-21T13:28:11Z</time>
      </trkpt>
      <trkpt lat="46.78956" lon="5.41153">
        <ele>221</ele>
        <time>2022-03-21T13:28:12Z</time>
      </trkpt>
      <trkpt lat="46.78952" lon="5.41156">
        <ele>221</ele>
        <time>2022-03-21T13:28:13Z</time>
      </trkpt>
      <trkpt lat="46.78948" lon="5.41159">
        <ele>221.2</ele>
        <time>2022-03-21T13:28:14Z</time>
      </trkpt>
      <trkpt lat="46.78944" lon="5.41162">
        <ele>221.2</ele>
        <time>2022-03-21T13:28:15Z</time>
      </trkpt>
      <trkpt lat="46.7894" lon="5.41165">
        <ele>221.6</ele>
        <time>2022-03-21T13:28:16Z</time>
      </trkpt>
      <trkpt lat="46.78936" lon="5.41169">
        <ele>221.6</ele>
        <time>2022-03-21T13:28:17Z</time>
      </trkpt>
      <trkpt lat="46.78931" lon="5.41172">
        <ele>222</ele>
        <time>2022-03-21T13:28:18Z</time>
      </trkpt>
      <trkpt lat="46.78927" lon="5.41176">
        <ele>222</ele>
        <time>2022-03-21T13:28:19Z</time>
      </trkpt>
      <trkpt lat="46.78923" lon="5.4118">
        <ele>222</ele>
        <time>2022-03-21T13:28:20Z</time>
      </trkpt>
      <trkpt lat="46.78918" lon="5.41183">
        <ele>222</ele>
        <time>2022-03-21T13:28:21Z</time>
      </trkpt>
      <trkpt lat="46.78914" lon="5.41187">
        <ele>222.2</ele>
        <time>2022-03-21T13:28:22Z</time>
      </trkpt>
      <trkpt lat="46.78909" lon="5.41191">
        <ele>222.2</ele>
        <time>2022-03-21T13:28:23Z</time>
      </trkpt>
      <trkpt lat="46.78904" lon="5.41194">
        <ele>222.2</ele>
        <time>2022-03-21T13:28:24Z</time>
      </trkpt>
      <trkpt lat="46.789" lon="5.41198">
        <ele>222.2</ele>
        <time>2022-03-21T13:28:25Z</time>
      </trkpt>
      <trkpt lat="46.78896" lon="5.41202">
        <ele>222.2</ele>
        <time>2022-03-21T13:28:26Z</time>
      </trkpt>
      <trkpt lat="46.78891" lon="5.41206">
        <ele>222.2</ele>
        <time>2022-03-21T13:28:27Z</time>
      </trkpt>
      <trkpt lat="46.78887" lon="5.41209">
        <ele>222.2</ele>
        <time>2022-03-21T13:28:28Z</time>
      </trkpt>
      <trkpt lat="46.78883" lon="5.41213">
        <ele>222.2</ele>
        <time>2022-03-21T13:28:29Z</time>
      </trkpt>
      <trkpt lat="46.78879" lon="5.41216">
        <ele>222.2</ele>
        <time>2022-03-21T13:28:30Z</time>
      </trkpt>
      <trkpt lat="46.78875" lon="5.41219">
        <ele>222.2</ele>
        <time>2022-03-21T13:28:31Z</time>
      </trkpt>
      <trkpt lat="46.78871" lon="5.41223">
        <ele>222.2</ele>
        <time>2022-03-21T13:28:32Z</time>
      </trkpt>
      <trkpt lat="46.78867" lon="5.41226">
        <ele>222.2</ele>
        <time>2022-03-21T13:28:33Z</time>
      </trkpt>
      <trkpt lat="46.78863" lon="5.4123">
        <ele>222.2</ele>
        <time>2022-03-21T13:28:34Z</time>
      </trkpt>
      <trkpt lat="46.78859" lon="5.41233">
        <ele>222.2</ele>
        <time>2022-03-21T13:28:35Z</time>
      </trkpt>
      <trkpt lat="46.78855" lon="5.41236">
        <ele>222.2</ele>
        <time>2022-03-21T13:28:36Z</time>
      </trkpt>
      <trkpt lat="46.78851" lon="5.4124">
        <ele>222.2</ele>
        <time>2022-03-21T13:28:37Z</time>
      </trkpt>
      <trkpt lat="46.78842" lon="5.41247">
        <ele>222.2</ele>
        <time>2022-03-21T13:28:38Z</time>
      </trkpt>
      <trkpt lat="46.78837" lon="5.41251">
        <ele>222.2</ele>
        <time>2022-03-21T13:28:39Z</time>
      </trkpt>
      <trkpt lat="46.78832" lon="5.41255">
        <ele>222.2</ele>
        <time>2022-03-21T13:28:40Z</time>
      </trkpt>
      <trkpt lat="46.78827" lon="5.4126">
        <ele>222.2</ele>
        <time>2022-03-21T13:28:41Z</time>
      </trkpt>
      <trkpt lat="46.78822" lon="5.41264">
        <ele>222</ele>
        <time>2022-03-21T13:28:42Z</time>
      </trkpt>
      <trkpt lat="46.78816" lon="5.41269">
        <ele>222</ele>
        <time>2022-03-21T13:28:43Z</time>
      </trkpt>
      <trkpt lat="46.7881" lon="5.41274">
        <ele>221.6</ele>
        <time>2022-03-21T13:28:44Z</time>
      </trkpt>
      <trkpt lat="46.78805" lon="5.41279">
        <ele>221.6</ele>
        <time>2022-03-21T13:28:45Z</time>
      </trkpt>
      <trkpt lat="46.78799" lon="5.41284">
        <ele>221.2</ele>
        <time>2022-03-21T13:28:46Z</time>
      </trkpt>
      <trkpt lat="46.78793" lon="5.41289">
        <ele>221.2</ele>
        <time>2022-03-21T13:28:47Z</time>
      </trkpt>
      <trkpt lat="46.78786" lon="5.41295">
        <ele>220.8</ele>
        <time>2022-03-21T13:28:48Z</time>
      </trkpt>
      <trkpt lat="46.7878" lon="5.413">
        <ele>220.8</ele>
        <time>2022-03-21T13:28:49Z</time>
      </trkpt>
      <trkpt lat="46.78773" lon="5.41306">
        <ele>220.4</ele>
        <time>2022-03-21T13:28:50Z</time>
      </trkpt>
      <trkpt lat="46.78766" lon="5.41311">
        <ele>220.2</ele>
        <time>2022-03-21T13:28:51Z</time>
      </trkpt>
      <trkpt lat="46.78759" lon="5.41317">
        <ele>220</ele>
        <time>2022-03-21T13:28:52Z</time>
      </trkpt>
      <trkpt lat="46.78752" lon="5.41323">
        <ele>219.8</ele>
        <time>2022-03-21T13:28:53Z</time>
      </trkpt>
      <trkpt lat="46.78745" lon="5.41329">
        <ele>219.8</ele>
        <time>2022-03-21T13:28:54Z</time>
      </trkpt>
      <trkpt lat="46.78738" lon="5.41335">
        <ele>219.4</ele>
        <time>2022-03-21T13:28:55Z</time>
      </trkpt>
      <trkpt lat="46.78731" lon="5.41341">
        <ele>219.2</ele>
        <time>2022-03-21T13:28:56Z</time>
      </trkpt>
      <trkpt lat="46.78724" lon="5.41347">
        <ele>219</ele>
        <time>2022-03-21T13:28:57Z</time>
      </trkpt>
      <trkpt lat="46.78717" lon="5.41353">
        <ele>218.6</ele>
        <time>2022-03-21T13:28:58Z</time>
      </trkpt>
      <trkpt lat="46.7871" lon="5.41359">
        <ele>218.4</ele>
        <time>2022-03-21T13:28:59Z</time>
      </trkpt>
      <trkpt lat="46.78702" lon="5.41365">
        <ele>218</ele>
        <time>2022-03-21T13:29:00Z</time>
      </trkpt>
      <trkpt lat="46.78695" lon="5.41371">
        <ele>217.8</ele>
        <time>2022-03-21T13:29:01Z</time>
      </trkpt>
      <trkpt lat="46.78688" lon="5.41377">
        <ele>217.6</ele>
        <time>2022-03-21T13:29:02Z</time>
      </trkpt>
      <trkpt lat="46.78681" lon="5.41384">
        <ele>217.2</ele>
        <time>2022-03-21T13:29:03Z</time>
      </trkpt>
      <trkpt lat="46.78674" lon="5.41389">
        <ele>217</ele>
        <time>2022-03-21T13:29:04Z</time>
      </trkpt>
      <trkpt lat="46.78667" lon="5.41395">
        <ele>216.8</ele>
        <time>2022-03-21T13:29:05Z</time>
      </trkpt>
      <trkpt lat="46.7866" lon="5.41401">
        <ele>216.8</ele>
        <time>2022-03-21T13:29:06Z</time>
      </trkpt>
      <trkpt lat="46.78653" lon="5.41407">
        <ele>216.4</ele>
        <time>2022-03-21T13:29:07Z</time>
      </trkpt>
      <trkpt lat="46.78646" lon="5.41413">
        <ele>216.4</ele>
        <time>2022-03-21T13:29:08Z</time>
      </trkpt>
      <trkpt lat="46.78639" lon="5.41419">
        <ele>216</ele>
        <time>2022-03-21T13:29:09Z</time>
      </trkpt>
      <trkpt lat="46.78633" lon="5.41425">
        <ele>216</ele>
        <time>2022-03-21T13:29:10Z</time>
      </trkpt>
      <trkpt lat="46.78626" lon="5.4143">
        <ele>215.8</ele>
        <time>2022-03-21T13:29:11Z</time>
      </trkpt>
      <trkpt lat="46.78619" lon="5.41436">
        <ele>215.4</ele>
        <time>2022-03-21T13:29:13Z</time>
      </trkpt>
      <trkpt lat="46.78612" lon="5.41442">
        <ele>215.4</ele>
        <time>2022-03-21T13:29:14Z</time>
      </trkpt>
      <trkpt lat="46.78605" lon="5.41448">
        <ele>215.2</ele>
        <time>2022-03-21T13:29:15Z</time>
      </trkpt>
      <trkpt lat="46.78598" lon="5.41454">
        <ele>215.2</ele>
        <time>2022-03-21T13:29:16Z</time>
      </trkpt>
      <trkpt lat="46.78592" lon="5.41459">
        <ele>215.2</ele>
        <time>2022-03-21T13:29:17Z</time>
      </trkpt>
      <trkpt lat="46.78585" lon="5.41465">
        <ele>215.2</ele>
        <time>2022-03-21T13:29:18Z</time>
      </trkpt>
      <trkpt lat="46.78578" lon="5.4147">
        <ele>215.2</ele>
        <time>2022-03-21T13:29:19Z</time>
      </trkpt>
      <trkpt lat="46.78572" lon="5.41475">
        <ele>215.2</ele>
        <time>2022-03-21T13:29:20Z</time>
      </trkpt>
      <trkpt lat="46.78566" lon="5.41481">
        <ele>215.2</ele>
        <time>2022-03-21T13:29:21Z</time>
      </trkpt>
      <trkpt lat="46.7856" lon="5.41486">
        <ele>215.2</ele>
        <time>2022-03-21T13:29:22Z</time>
      </trkpt>
      <trkpt lat="46.78553" lon="5.41491">
        <ele>215.2</ele>
        <time>2022-03-21T13:29:23Z</time>
      </trkpt>
      <trkpt lat="46.78548" lon="5.41496">
        <ele>215.2</ele>
        <time>2022-03-21T13:29:24Z</time>
      </trkpt>
      <trkpt lat="46.78542" lon="5.41501">
        <ele>215.2</ele>
        <time>2022-03-21T13:29:25Z</time>
      </trkpt>
      <trkpt lat="46.78536" lon="5.41505">
        <ele>215.2</ele>
        <time>2022-03-21T13:29:26Z</time>
      </trkpt>
      <trkpt lat="46.78531" lon="5.4151">
        <ele>215.4</ele>
        <time>2022-03-21T13:29:27Z</time>
      </trkpt>
      <trkpt lat="46.78526" lon="5.41514">
        <ele>215.4</ele>
        <time>2022-03-21T13:29:28Z</time>
      </trkpt>
      <trkpt lat="46.7852" lon="5.41519">
        <ele>215.8</ele>
        <time>2022-03-21T13:29:29Z</time>
      </trkpt>
      <trkpt lat="46.78515" lon="5.41523">
        <ele>215.8</ele>
        <time>2022-03-21T13:29:30Z</time>
      </trkpt>
      <trkpt lat="46.78511" lon="5.41528">
        <ele>216</ele>
        <time>2022-03-21T13:29:31Z</time>
      </trkpt>
      <trkpt lat="46.78506" lon="5.41532">
        <ele>216</ele>
        <time>2022-03-21T13:29:32Z</time>
      </trkpt>
      <trkpt lat="46.78501" lon="5.41536">
        <ele>216.4</ele>
        <time>2022-03-21T13:29:33Z</time>
      </trkpt>
      <trkpt lat="46.78496" lon="5.41541">
        <ele>216.4</ele>
        <time>2022-03-21T13:29:34Z</time>
      </trkpt>
      <trkpt lat="46.7849" lon="5.41545">
        <ele>216.4</ele>
        <time>2022-03-21T13:29:35Z</time>
      </trkpt>
      <trkpt lat="46.78485" lon="5.4155">
        <ele>216.4</ele>
        <time>2022-03-21T13:29:36Z</time>
      </trkpt>
      <trkpt lat="46.7848" lon="5.41554">
        <ele>216.4</ele>
        <time>2022-03-21T13:29:37Z</time>
      </trkpt>
      <trkpt lat="46.78474" lon="5.41559">
        <ele>216.4</ele>
        <time>2022-03-21T13:29:38Z</time>
      </trkpt>
      <trkpt lat="46.78468" lon="5.41564">
        <ele>216.4</ele>
        <time>2022-03-21T13:29:39Z</time>
      </trkpt>
      <trkpt lat="46.78462" lon="5.41569">
        <ele>216</ele>
        <time>2022-03-21T13:29:40Z</time>
      </trkpt>
      <trkpt lat="46.78455" lon="5.41574">
        <ele>216</ele>
        <time>2022-03-21T13:29:41Z</time>
      </trkpt>
      <trkpt lat="46.78449" lon="5.4158">
        <ele>215.6</ele>
        <time>2022-03-21T13:29:42Z</time>
      </trkpt>
      <trkpt lat="46.78443" lon="5.41585">
        <ele>215.4</ele>
        <time>2022-03-21T13:29:43Z</time>
      </trkpt>
      <trkpt lat="46.78436" lon="5.41591">
        <ele>215.4</ele>
        <time>2022-03-21T13:29:44Z</time>
      </trkpt>
      <trkpt lat="46.7843" lon="5.41597">
        <ele>215.2</ele>
        <time>2022-03-21T13:29:45Z</time>
      </trkpt>
      <trkpt lat="46.78423" lon="5.41602">
        <ele>215</ele>
        <time>2022-03-21T13:29:46Z</time>
      </trkpt>
      <trkpt lat="46.78416" lon="5.41608">
        <ele>215</ele>
        <time>2022-03-21T13:29:47Z</time>
      </trkpt>
      <trkpt lat="46.78409" lon="5.41613">
        <ele>214.6</ele>
        <time>2022-03-21T13:29:48Z</time>
      </trkpt>
      <trkpt lat="46.78403" lon="5.41619">
        <ele>214.6</ele>
        <time>2022-03-21T13:29:49Z</time>
      </trkpt>
      <trkpt lat="46.78396" lon="5.41624">
        <ele>214.6</ele>
        <time>2022-03-21T13:29:50Z</time>
      </trkpt>
      <trkpt lat="46.7839" lon="5.4163">
        <ele>214.6</ele>
        <time>2022-03-21T13:29:51Z</time>
      </trkpt>
      <trkpt lat="46.78383" lon="5.41635">
        <ele>214.4</ele>
        <time>2022-03-21T13:29:52Z</time>
      </trkpt>
      <trkpt lat="46.78377" lon="5.4164">
        <ele>214.4</ele>
        <time>2022-03-21T13:29:53Z</time>
      </trkpt>
      <trkpt lat="46.78371" lon="5.41645">
        <ele>214.4</ele>
        <time>2022-03-21T13:29:54Z</time>
      </trkpt>
      <trkpt lat="46.78365" lon="5.4165">
        <ele>214.4</ele>
        <time>2022-03-21T13:29:55Z</time>
      </trkpt>
      <trkpt lat="46.7836" lon="5.41655">
        <ele>214.4</ele>
        <time>2022-03-21T13:29:56Z</time>
      </trkpt>
      <trkpt lat="46.78354" lon="5.4166">
        <ele>214.4</ele>
        <time>2022-03-21T13:29:57Z</time>
      </trkpt>
      <trkpt lat="46.78348" lon="5.41664">
        <ele>214.4</ele>
        <time>2022-03-21T13:29:58Z</time>
      </trkpt>
      <trkpt lat="46.78343" lon="5.41669">
        <ele>214.4</ele>
        <time>2022-03-21T13:29:59Z</time>
      </trkpt>
      <trkpt lat="46.78338" lon="5.41673">
        <ele>214.8</ele>
        <time>2022-03-21T13:30:00Z</time>
      </trkpt>
      <trkpt lat="46.78333" lon="5.41677">
        <ele>214.8</ele>
        <time>2022-03-21T13:30:01Z</time>
      </trkpt>
      <trkpt lat="46.78327" lon="5.41682">
        <ele>214.8</ele>
        <time>2022-03-21T13:30:02Z</time>
      </trkpt>
      <trkpt lat="46.78322" lon="5.41686">
        <ele>214.8</ele>
        <time>2022-03-21T13:30:03Z</time>
      </trkpt>
      <trkpt lat="46.78317" lon="5.4169">
        <ele>214.8</ele>
        <time>2022-03-21T13:30:04Z</time>
      </trkpt>
      <trkpt lat="46.78312" lon="5.41694">
        <ele>214.8</ele>
        <time>2022-03-21T13:30:05Z</time>
      </trkpt>
      <trkpt lat="46.78307" lon="5.41699">
        <ele>215</ele>
        <time>2022-03-21T13:30:06Z</time>
      </trkpt>
      <trkpt lat="46.78302" lon="5.41703">
        <ele>215</ele>
        <time>2022-03-21T13:30:07Z</time>
      </trkpt>
      <trkpt lat="46.78297" lon="5.41708">
        <ele>215</ele>
        <time>2022-03-21T13:30:08Z</time>
      </trkpt>
      <trkpt lat="46.78291" lon="5.41712">
        <ele>215</ele>
        <time>2022-03-21T13:30:09Z</time>
      </trkpt>
      <trkpt lat="46.78286" lon="5.41717">
        <ele>215</ele>
        <time>2022-03-21T13:30:10Z</time>
      </trkpt>
      <trkpt lat="46.78281" lon="5.41721">
        <ele>215</ele>
        <time>2022-03-21T13:30:11Z</time>
      </trkpt>
      <trkpt lat="46.78276" lon="5.41726">
        <ele>215</ele>
        <time>2022-03-21T13:30:12Z</time>
      </trkpt>
      <trkpt lat="46.78271" lon="5.4173">
        <ele>215</ele>
        <time>2022-03-21T13:30:13Z</time>
      </trkpt>
      <trkpt lat="46.78265" lon="5.41735">
        <ele>214.8</ele>
        <time>2022-03-21T13:30:14Z</time>
      </trkpt>
      <trkpt lat="46.78259" lon="5.41739">
        <ele>214.8</ele>
        <time>2022-03-21T13:30:15Z</time>
      </trkpt>
      <trkpt lat="46.78254" lon="5.41744">
        <ele>214.8</ele>
        <time>2022-03-21T13:30:16Z</time>
      </trkpt>
      <trkpt lat="46.78248" lon="5.41749">
        <ele>214.6</ele>
        <time>2022-03-21T13:30:17Z</time>
      </trkpt>
      <trkpt lat="46.78242" lon="5.41754">
        <ele>214.6</ele>
        <time>2022-03-21T13:30:18Z</time>
      </trkpt>
      <trkpt lat="46.78236" lon="5.41759">
        <ele>214.2</ele>
        <time>2022-03-21T13:30:19Z</time>
      </trkpt>
      <trkpt lat="46.7823" lon="5.41764">
        <ele>214.2</ele>
        <time>2022-03-21T13:30:20Z</time>
      </trkpt>
      <trkpt lat="46.78224" lon="5.4177">
        <ele>213.8</ele>
        <time>2022-03-21T13:30:21Z</time>
      </trkpt>
      <trkpt lat="46.78218" lon="5.41775">
        <ele>213.6</ele>
        <time>2022-03-21T13:30:22Z</time>
      </trkpt>
      <trkpt lat="46.78212" lon="5.41781">
        <ele>213.2</ele>
        <time>2022-03-21T13:30:23Z</time>
      </trkpt>
      <trkpt lat="46.78205" lon="5.41786">
        <ele>213</ele>
        <time>2022-03-21T13:30:24Z</time>
      </trkpt>
      <trkpt lat="46.78198" lon="5.41792">
        <ele>212.6</ele>
        <time>2022-03-21T13:30:25Z</time>
      </trkpt>
      <trkpt lat="46.78192" lon="5.41797">
        <ele>212.4</ele>
        <time>2022-03-21T13:30:26Z</time>
      </trkpt>
      <trkpt lat="46.78185" lon="5.41803">
        <ele>212.4</ele>
        <time>2022-03-21T13:30:27Z</time>
      </trkpt>
      <trkpt lat="46.78179" lon="5.41809">
        <ele>212.2</ele>
        <time>2022-03-21T13:30:28Z</time>
      </trkpt>
      <trkpt lat="46.78172" lon="5.41814">
        <ele>212.2</ele>
        <time>2022-03-21T13:30:29Z</time>
      </trkpt>
      <trkpt lat="46.78166" lon="5.4182">
        <ele>211.8</ele>
        <time>2022-03-21T13:30:30Z</time>
      </trkpt>
      <trkpt lat="46.78159" lon="5.41825">
        <ele>211.8</ele>
        <time>2022-03-21T13:30:31Z</time>
      </trkpt>
      <trkpt lat="46.78153" lon="5.4183">
        <ele>211.8</ele>
        <time>2022-03-21T13:30:32Z</time>
      </trkpt>
      <trkpt lat="46.78147" lon="5.41835">
        <ele>211.8</ele>
        <time>2022-03-21T13:30:33Z</time>
      </trkpt>
      <trkpt lat="46.78141" lon="5.4184">
        <ele>211.8</ele>
        <time>2022-03-21T13:30:34Z</time>
      </trkpt>
      <trkpt lat="46.78135" lon="5.41845">
        <ele>211.8</ele>
        <time>2022-03-21T13:30:35Z</time>
      </trkpt>
      <trkpt lat="46.7813" lon="5.41849">
        <ele>211.8</ele>
        <time>2022-03-21T13:30:36Z</time>
      </trkpt>
      <trkpt lat="46.78124" lon="5.41854">
        <ele>211.8</ele>
        <time>2022-03-21T13:30:37Z</time>
      </trkpt>
      <trkpt lat="46.78119" lon="5.41858">
        <ele>212.2</ele>
        <time>2022-03-21T13:30:38Z</time>
      </trkpt>
      <trkpt lat="46.78114" lon="5.41863">
        <ele>212.2</ele>
        <time>2022-03-21T13:30:39Z</time>
      </trkpt>
      <trkpt lat="46.78104" lon="5.41871">
        <ele>212.4</ele>
        <time>2022-03-21T13:30:40Z</time>
      </trkpt>
      <trkpt lat="46.78098" lon="5.41875">
        <ele>212.6</ele>
        <time>2022-03-21T13:30:41Z</time>
      </trkpt>
      <trkpt lat="46.78093" lon="5.41879">
        <ele>212.6</ele>
        <time>2022-03-21T13:30:42Z</time>
      </trkpt>
      <trkpt lat="46.78089" lon="5.41883">
        <ele>212.6</ele>
        <time>2022-03-21T13:30:43Z</time>
      </trkpt>
      <trkpt lat="46.78084" lon="5.41888">
        <ele>213</ele>
        <time>2022-03-21T13:30:44Z</time>
      </trkpt>
      <trkpt lat="46.78079" lon="5.41892">
        <ele>213</ele>
        <time>2022-03-21T13:30:45Z</time>
      </trkpt>
      <trkpt lat="46.78074" lon="5.41896">
        <ele>213.2</ele>
        <time>2022-03-21T13:30:46Z</time>
      </trkpt>
      <trkpt lat="46.78069" lon="5.419">
        <ele>213.2</ele>
        <time>2022-03-21T13:30:47Z</time>
      </trkpt>
      <trkpt lat="46.78064" lon="5.41904">
        <ele>213.4</ele>
        <time>2022-03-21T13:30:48Z</time>
      </trkpt>
      <trkpt lat="46.78059" lon="5.41908">
        <ele>213.4</ele>
        <time>2022-03-21T13:30:49Z</time>
      </trkpt>
      <trkpt lat="46.78054" lon="5.41913">
        <ele>213.4</ele>
        <time>2022-03-21T13:30:50Z</time>
      </trkpt>
      <trkpt lat="46.78049" lon="5.41917">
        <ele>213.4</ele>
        <time>2022-03-21T13:30:51Z</time>
      </trkpt>
      <trkpt lat="46.78043" lon="5.41922">
        <ele>213.4</ele>
        <time>2022-03-21T13:30:52Z</time>
      </trkpt>
      <trkpt lat="46.78038" lon="5.41926">
        <ele>213.4</ele>
        <time>2022-03-21T13:30:53Z</time>
      </trkpt>
      <trkpt lat="46.78033" lon="5.41931">
        <ele>213.4</ele>
        <time>2022-03-21T13:30:55Z</time>
      </trkpt>
      <trkpt lat="46.78027" lon="5.41936">
        <ele>213.4</ele>
        <time>2022-03-21T13:30:56Z</time>
      </trkpt>
      <trkpt lat="46.78022" lon="5.4194">
        <ele>213.2</ele>
        <time>2022-03-21T13:30:57Z</time>
      </trkpt>
      <trkpt lat="46.78016" lon="5.41945">
        <ele>213.2</ele>
        <time>2022-03-21T13:30:58Z</time>
      </trkpt>
      <trkpt lat="46.78011" lon="5.41949">
        <ele>213.2</ele>
        <time>2022-03-21T13:30:59Z</time>
      </trkpt>
      <trkpt lat="46.78005" lon="5.41954">
        <ele>213</ele>
        <time>2022-03-21T13:31:00Z</time>
      </trkpt>
      <trkpt lat="46.78" lon="5.41958">
        <ele>213</ele>
        <time>2022-03-21T13:31:01Z</time>
      </trkpt>
      <trkpt lat="46.77994" lon="5.41963">
        <ele>213</ele>
        <time>2022-03-21T13:31:02Z</time>
      </trkpt>
      <trkpt lat="46.77989" lon="5.41968">
        <ele>212.6</ele>
        <time>2022-03-21T13:31:03Z</time>
      </trkpt>
      <trkpt lat="46.77983" lon="5.41973">
        <ele>212.6</ele>
        <time>2022-03-21T13:31:04Z</time>
      </trkpt>
      <trkpt lat="46.77972" lon="5.41982">
        <ele>212.4</ele>
        <time>2022-03-21T13:31:05Z</time>
      </trkpt>
      <trkpt lat="46.77967" lon="5.41987">
        <ele>212.2</ele>
        <time>2022-03-21T13:31:06Z</time>
      </trkpt>
      <trkpt lat="46.77961" lon="5.41992">
        <ele>212.2</ele>
        <time>2022-03-21T13:31:07Z</time>
      </trkpt>
      <trkpt lat="46.77955" lon="5.41997">
        <ele>212</ele>
        <time>2022-03-21T13:31:08Z</time>
      </trkpt>
      <trkpt lat="46.77949" lon="5.42002">
        <ele>212</ele>
        <time>2022-03-21T13:31:09Z</time>
      </trkpt>
      <trkpt lat="46.77943" lon="5.42006">
        <ele>212</ele>
        <time>2022-03-21T13:31:10Z</time>
      </trkpt>
      <trkpt lat="46.77937" lon="5.42011">
        <ele>211.8</ele>
        <time>2022-03-21T13:31:12Z</time>
      </trkpt>
      <trkpt lat="46.77931" lon="5.42017">
        <ele>211.8</ele>
        <time>2022-03-21T13:31:13Z</time>
      </trkpt>
      <trkpt lat="46.77925" lon="5.42022">
        <ele>211.6</ele>
        <time>2022-03-21T13:31:14Z</time>
      </trkpt>
      <trkpt lat="46.77919" lon="5.42027">
        <ele>211.6</ele>
        <time>2022-03-21T13:31:15Z</time>
      </trkpt>
      <trkpt lat="46.77913" lon="5.42033">
        <ele>211.2</ele>
        <time>2022-03-21T13:31:16Z</time>
      </trkpt>
      <trkpt lat="46.77907" lon="5.42038">
        <ele>211.2</ele>
        <time>2022-03-21T13:31:17Z</time>
      </trkpt>
      <trkpt lat="46.779" lon="5.42043">
        <ele>211</ele>
        <time>2022-03-21T13:31:18Z</time>
      </trkpt>
      <trkpt lat="46.77894" lon="5.42048">
        <ele>210.8</ele>
        <time>2022-03-21T13:31:19Z</time>
      </trkpt>
      <trkpt lat="46.77888" lon="5.42054">
        <ele>210.4</ele>
        <time>2022-03-21T13:31:20Z</time>
      </trkpt>
      <trkpt lat="46.77881" lon="5.42059">
        <ele>210.4</ele>
        <time>2022-03-21T13:31:21Z</time>
      </trkpt>
      <trkpt lat="46.77875" lon="5.42065">
        <ele>210.2</ele>
        <time>2022-03-21T13:31:22Z</time>
      </trkpt>
      <trkpt lat="46.77869" lon="5.4207">
        <ele>210</ele>
        <time>2022-03-21T13:31:23Z</time>
      </trkpt>
      <trkpt lat="46.77862" lon="5.42076">
        <ele>210</ele>
        <time>2022-03-21T13:31:24Z</time>
      </trkpt>
      <trkpt lat="46.77856" lon="5.42081">
        <ele>209.6</ele>
        <time>2022-03-21T13:31:25Z</time>
      </trkpt>
      <trkpt lat="46.7785" lon="5.42086">
        <ele>209.6</ele>
        <time>2022-03-21T13:31:26Z</time>
      </trkpt>
      <trkpt lat="46.77843" lon="5.42092">
        <ele>209.6</ele>
        <time>2022-03-21T13:31:27Z</time>
      </trkpt>
      <trkpt lat="46.77837" lon="5.42097">
        <ele>209.6</ele>
        <time>2022-03-21T13:31:28Z</time>
      </trkpt>
      <trkpt lat="46.77831" lon="5.42102">
        <ele>209.6</ele>
        <time>2022-03-21T13:31:29Z</time>
      </trkpt>
      <trkpt lat="46.77825" lon="5.42107">
        <ele>209.4</ele>
        <time>2022-03-21T13:31:30Z</time>
      </trkpt>
      <trkpt lat="46.77819" lon="5.42112">
        <ele>210</ele>
        <time>2022-03-21T13:31:31Z</time>
      </trkpt>
      <trkpt lat="46.77814" lon="5.42116">
        <ele>210</ele>
        <time>2022-03-21T13:31:32Z</time>
      </trkpt>
      <trkpt lat="46.77808" lon="5.42121">
        <ele>210.2</ele>
        <time>2022-03-21T13:31:33Z</time>
      </trkpt>
      <trkpt lat="46.77803" lon="5.42125">
        <ele>210.2</ele>
        <time>2022-03-21T13:31:34Z</time>
      </trkpt>
      <trkpt lat="46.77798" lon="5.42129">
        <ele>210.2</ele>
        <time>2022-03-21T13:31:35Z</time>
      </trkpt>
      <trkpt lat="46.77793" lon="5.42133">
        <ele>210.6</ele>
        <time>2022-03-21T13:31:36Z</time>
      </trkpt>
      <trkpt lat="46.77788" lon="5.42137">
        <ele>210.6</ele>
        <time>2022-03-21T13:31:37Z</time>
      </trkpt>
      <trkpt lat="46.77783" lon="5.42141">
        <ele>210.8</ele>
        <time>2022-03-21T13:31:38Z</time>
      </trkpt>
      <trkpt lat="46.77778" lon="5.42145">
        <ele>210.8</ele>
        <time>2022-03-21T13:31:39Z</time>
      </trkpt>
      <trkpt lat="46.77773" lon="5.42149">
        <ele>211.2</ele>
        <time>2022-03-21T13:31:40Z</time>
      </trkpt>
      <trkpt lat="46.77769" lon="5.42153">
        <ele>211.2</ele>
        <time>2022-03-21T13:31:41Z</time>
      </trkpt>
      <trkpt lat="46.77764" lon="5.42157">
        <ele>211.6</ele>
        <time>2022-03-21T13:31:42Z</time>
      </trkpt>
      <trkpt lat="46.7776" lon="5.4216">
        <ele>211.8</ele>
        <time>2022-03-21T13:31:43Z</time>
      </trkpt>
      <trkpt lat="46.77755" lon="5.42164">
        <ele>211.8</ele>
        <time>2022-03-21T13:31:44Z</time>
      </trkpt>
      <trkpt lat="46.77751" lon="5.42168">
        <ele>212</ele>
        <time>2022-03-21T13:31:45Z</time>
      </trkpt>
      <trkpt lat="46.77747" lon="5.42172">
        <ele>212</ele>
        <time>2022-03-21T13:31:46Z</time>
      </trkpt>
      <trkpt lat="46.77743" lon="5.42175">
        <ele>212.2</ele>
        <time>2022-03-21T13:31:47Z</time>
      </trkpt>
      <trkpt lat="46.77739" lon="5.42179">
        <ele>212.2</ele>
        <time>2022-03-21T13:31:48Z</time>
      </trkpt>
      <trkpt lat="46.77735" lon="5.42182">
        <ele>212.4</ele>
        <time>2022-03-21T13:31:49Z</time>
      </trkpt>
      <trkpt lat="46.77731" lon="5.42185">
        <ele>212.4</ele>
        <time>2022-03-21T13:31:50Z</time>
      </trkpt>
      <trkpt lat="46.77726" lon="5.42189">
        <ele>212.4</ele>
        <time>2022-03-21T13:31:51Z</time>
      </trkpt>
      <trkpt lat="46.77721" lon="5.42193">
        <ele>212.4</ele>
        <time>2022-03-21T13:31:52Z</time>
      </trkpt>
      <trkpt lat="46.77716" lon="5.42197">
        <ele>212.4</ele>
        <time>2022-03-21T13:31:53Z</time>
      </trkpt>
      <trkpt lat="46.77711" lon="5.42202">
        <ele>212.4</ele>
        <time>2022-03-21T13:31:54Z</time>
      </trkpt>
      <trkpt lat="46.77706" lon="5.42206">
        <ele>212.2</ele>
        <time>2022-03-21T13:31:55Z</time>
      </trkpt>
      <trkpt lat="46.777" lon="5.42211">
        <ele>212.2</ele>
        <time>2022-03-21T13:31:56Z</time>
      </trkpt>
      <trkpt lat="46.77695" lon="5.42216">
        <ele>212</ele>
        <time>2022-03-21T13:31:57Z</time>
      </trkpt>
      <trkpt lat="46.77689" lon="5.42221">
        <ele>212</ele>
        <time>2022-03-21T13:31:58Z</time>
      </trkpt>
      <trkpt lat="46.77683" lon="5.42225">
        <ele>211.6</ele>
        <time>2022-03-21T13:31:59Z</time>
      </trkpt>
      <trkpt lat="46.77677" lon="5.4223">
        <ele>211.6</ele>
        <time>2022-03-21T13:32:00Z</time>
      </trkpt>
      <trkpt lat="46.77671" lon="5.42236">
        <ele>211.4</ele>
        <time>2022-03-21T13:32:01Z</time>
      </trkpt>
      <trkpt lat="46.77665" lon="5.42241">
        <ele>211.4</ele>
        <time>2022-03-21T13:32:02Z</time>
      </trkpt>
      <trkpt lat="46.77658" lon="5.42246">
        <ele>211.4</ele>
        <time>2022-03-21T13:32:03Z</time>
      </trkpt>
      <trkpt lat="46.77652" lon="5.42251">
        <ele>211.2</ele>
        <time>2022-03-21T13:32:04Z</time>
      </trkpt>
      <trkpt lat="46.77646" lon="5.42256">
        <ele>211.2</ele>
        <time>2022-03-21T13:32:05Z</time>
      </trkpt>
      <trkpt lat="46.7764" lon="5.42262">
        <ele>211.2</ele>
        <time>2022-03-21T13:32:06Z</time>
      </trkpt>
      <trkpt lat="46.77633" lon="5.42267">
        <ele>211.2</ele>
        <time>2022-03-21T13:32:07Z</time>
      </trkpt>
      <trkpt lat="46.77627" lon="5.42272">
        <ele>211.2</ele>
        <time>2022-03-21T13:32:08Z</time>
      </trkpt>
      <trkpt lat="46.77621" lon="5.42277">
        <ele>211.2</ele>
        <time>2022-03-21T13:32:09Z</time>
      </trkpt>
      <trkpt lat="46.77615" lon="5.42282">
        <ele>211.2</ele>
        <time>2022-03-21T13:32:10Z</time>
      </trkpt>
      <trkpt lat="46.77609" lon="5.42287">
        <ele>211.2</ele>
        <time>2022-03-21T13:32:11Z</time>
      </trkpt>
      <trkpt lat="46.77603" lon="5.42292">
        <ele>211.4</ele>
        <time>2022-03-21T13:32:12Z</time>
      </trkpt>
      <trkpt lat="46.77598" lon="5.42296">
        <ele>211.4</ele>
        <time>2022-03-21T13:32:13Z</time>
      </trkpt>
      <trkpt lat="46.77593" lon="5.42301">
        <ele>211.6</ele>
        <time>2022-03-21T13:32:14Z</time>
      </trkpt>
      <trkpt lat="46.77587" lon="5.42306">
        <ele>211.6</ele>
        <time>2022-03-21T13:32:15Z</time>
      </trkpt>
      <trkpt lat="46.77582" lon="5.4231">
        <ele>212</ele>
        <time>2022-03-21T13:32:16Z</time>
      </trkpt>
      <trkpt lat="46.77577" lon="5.42314">
        <ele>212</ele>
        <time>2022-03-21T13:32:17Z</time>
      </trkpt>
      <trkpt lat="46.77572" lon="5.42318">
        <ele>212.2</ele>
        <time>2022-03-21T13:32:18Z</time>
      </trkpt>
      <trkpt lat="46.77567" lon="5.42322">
        <ele>212.2</ele>
        <time>2022-03-21T13:32:19Z</time>
      </trkpt>
      <trkpt lat="46.77562" lon="5.42326">
        <ele>212.6</ele>
        <time>2022-03-21T13:32:20Z</time>
      </trkpt>
      <trkpt lat="46.77558" lon="5.4233">
        <ele>212.6</ele>
        <time>2022-03-21T13:32:21Z</time>
      </trkpt>
      <trkpt lat="46.77553" lon="5.42334">
        <ele>213</ele>
        <time>2022-03-21T13:32:22Z</time>
      </trkpt>
      <trkpt lat="46.77548" lon="5.42338">
        <ele>213.2</ele>
        <time>2022-03-21T13:32:23Z</time>
      </trkpt>
      <trkpt lat="46.77543" lon="5.42342">
        <ele>213.4</ele>
        <time>2022-03-21T13:32:24Z</time>
      </trkpt>
      <trkpt lat="46.77539" lon="5.42346">
        <ele>213.8</ele>
        <time>2022-03-21T13:32:25Z</time>
      </trkpt>
      <trkpt lat="46.77534" lon="5.4235">
        <ele>214</ele>
        <time>2022-03-21T13:32:26Z</time>
      </trkpt>
      <trkpt lat="46.7753" lon="5.42354">
        <ele>214.4</ele>
        <time>2022-03-21T13:32:27Z</time>
      </trkpt>
      <trkpt lat="46.77525" lon="5.42358">
        <ele>214.6</ele>
        <time>2022-03-21T13:32:28Z</time>
      </trkpt>
      <trkpt lat="46.77521" lon="5.42361">
        <ele>214.6</ele>
        <time>2022-03-21T13:32:29Z</time>
      </trkpt>
      <trkpt lat="46.77516" lon="5.42365">
        <ele>215</ele>
        <time>2022-03-21T13:32:30Z</time>
      </trkpt>
      <trkpt lat="46.77512" lon="5.42368">
        <ele>215</ele>
        <time>2022-03-21T13:32:31Z</time>
      </trkpt>
      <trkpt lat="46.77508" lon="5.42372">
        <ele>215.4</ele>
        <time>2022-03-21T13:32:32Z</time>
      </trkpt>
      <trkpt lat="46.77504" lon="5.42375">
        <ele>215.4</ele>
        <time>2022-03-21T13:32:33Z</time>
      </trkpt>
      <trkpt lat="46.775" lon="5.42379">
        <ele>215.8</ele>
        <time>2022-03-21T13:32:34Z</time>
      </trkpt>
      <trkpt lat="46.77496" lon="5.42382">
        <ele>215.8</ele>
        <time>2022-03-21T13:32:35Z</time>
      </trkpt>
      <trkpt lat="46.77492" lon="5.42384">
        <ele>216</ele>
        <time>2022-03-21T13:32:36Z</time>
      </trkpt>
      <trkpt lat="46.77489" lon="5.42388">
        <ele>216</ele>
        <time>2022-03-21T13:32:37Z</time>
      </trkpt>
      <trkpt lat="46.77481" lon="5.42394">
        <ele>216.4</ele>
        <time>2022-03-21T13:32:38Z</time>
      </trkpt>
      <trkpt lat="46.77477" lon="5.42398">
        <ele>216.4</ele>
        <time>2022-03-21T13:32:39Z</time>
      </trkpt>
      <trkpt lat="46.77473" lon="5.42401">
        <ele>216.6</ele>
        <time>2022-03-21T13:32:40Z</time>
      </trkpt>
      <trkpt lat="46.77469" lon="5.42404">
        <ele>217</ele>
        <time>2022-03-21T13:32:41Z</time>
      </trkpt>
      <trkpt lat="46.77464" lon="5.42408">
        <ele>217.2</ele>
        <time>2022-03-21T13:32:42Z</time>
      </trkpt>
      <trkpt lat="46.7746" lon="5.42412">
        <ele>217.2</ele>
        <time>2022-03-21T13:32:43Z</time>
      </trkpt>
      <trkpt lat="46.77456" lon="5.42415">
        <ele>217.6</ele>
        <time>2022-03-21T13:32:44Z</time>
      </trkpt>
      <trkpt lat="46.77452" lon="5.42419">
        <ele>217.6</ele>
        <time>2022-03-21T13:32:45Z</time>
      </trkpt>
      <trkpt lat="46.77448" lon="5.42423">
        <ele>218</ele>
        <time>2022-03-21T13:32:46Z</time>
      </trkpt>
      <trkpt lat="46.77444" lon="5.42426">
        <ele>218.2</ele>
        <time>2022-03-21T13:32:47Z</time>
      </trkpt>
      <trkpt lat="46.7744" lon="5.4243">
        <ele>218.2</ele>
        <time>2022-03-21T13:32:48Z</time>
      </trkpt>
      <trkpt lat="46.77436" lon="5.42433">
        <ele>218.4</ele>
        <time>2022-03-21T13:32:49Z</time>
      </trkpt>
      <trkpt lat="46.77432" lon="5.42436">
        <ele>218.4</ele>
        <time>2022-03-21T13:32:50Z</time>
      </trkpt>
      <trkpt lat="46.77429" lon="5.4244">
        <ele>218.8</ele>
        <time>2022-03-21T13:32:51Z</time>
      </trkpt>
      <trkpt lat="46.77425" lon="5.42444">
        <ele>218.8</ele>
        <time>2022-03-21T13:32:52Z</time>
      </trkpt>
      <trkpt lat="46.77421" lon="5.42447">
        <ele>219</ele>
        <time>2022-03-21T13:32:53Z</time>
      </trkpt>
      <trkpt lat="46.77417" lon="5.4245">
        <ele>219</ele>
        <time>2022-03-21T13:32:54Z</time>
      </trkpt>
      <trkpt lat="46.77413" lon="5.42454">
        <ele>219.4</ele>
        <time>2022-03-21T13:32:55Z</time>
      </trkpt>
      <trkpt lat="46.77409" lon="5.42457">
        <ele>219.4</ele>
        <time>2022-03-21T13:32:56Z</time>
      </trkpt>
      <trkpt lat="46.77405" lon="5.4246">
        <ele>219.6</ele>
        <time>2022-03-21T13:32:57Z</time>
      </trkpt>
      <trkpt lat="46.77401" lon="5.42464">
        <ele>219.6</ele>
        <time>2022-03-21T13:32:58Z</time>
      </trkpt>
      <trkpt lat="46.77397" lon="5.42467">
        <ele>219.8</ele>
        <time>2022-03-21T13:32:59Z</time>
      </trkpt>
      <trkpt lat="46.77393" lon="5.4247">
        <ele>219.8</ele>
        <time>2022-03-21T13:33:00Z</time>
      </trkpt>
      <trkpt lat="46.77389" lon="5.42474">
        <ele>220.2</ele>
        <time>2022-03-21T13:33:01Z</time>
      </trkpt>
      <trkpt lat="46.77386" lon="5.42477">
        <ele>220.2</ele>
        <time>2022-03-21T13:33:02Z</time>
      </trkpt>
      <trkpt lat="46.77382" lon="5.4248">
        <ele>220.2</ele>
        <time>2022-03-21T13:33:03Z</time>
      </trkpt>
      <trkpt lat="46.77378" lon="5.42483">
        <ele>220.4</ele>
        <time>2022-03-21T13:33:04Z</time>
      </trkpt>
      <trkpt lat="46.77374" lon="5.42486">
        <ele>220.4</ele>
        <time>2022-03-21T13:33:05Z</time>
      </trkpt>
      <trkpt lat="46.77371" lon="5.4249">
        <ele>220.6</ele>
        <time>2022-03-21T13:33:06Z</time>
      </trkpt>
      <trkpt lat="46.77367" lon="5.42493">
        <ele>220.6</ele>
        <time>2022-03-21T13:33:07Z</time>
      </trkpt>
      <trkpt lat="46.77363" lon="5.42496">
        <ele>221</ele>
        <time>2022-03-21T13:33:08Z</time>
      </trkpt>
      <trkpt lat="46.7736" lon="5.42499">
        <ele>221</ele>
        <time>2022-03-21T13:33:09Z</time>
      </trkpt>
      <trkpt lat="46.77356" lon="5.42502">
        <ele>221.2</ele>
        <time>2022-03-21T13:33:10Z</time>
      </trkpt>
      <trkpt lat="46.77352" lon="5.42505">
        <ele>221.2</ele>
        <time>2022-03-21T13:33:11Z</time>
      </trkpt>
      <trkpt lat="46.77348" lon="5.42508">
        <ele>221.6</ele>
        <time>2022-03-21T13:33:12Z</time>
      </trkpt>
      <trkpt lat="46.77345" lon="5.42511">
        <ele>221.6</ele>
        <time>2022-03-21T13:33:13Z</time>
      </trkpt>
      <trkpt lat="46.77341" lon="5.42514">
        <ele>221.6</ele>
        <time>2022-03-21T13:33:14Z</time>
      </trkpt>
      <trkpt lat="46.77337" lon="5.42518">
        <ele>221.8</ele>
        <time>2022-03-21T13:33:15Z</time>
      </trkpt>
      <trkpt lat="46.77333" lon="5.42521">
        <ele>221.8</ele>
        <time>2022-03-21T13:33:16Z</time>
      </trkpt>
      <trkpt lat="46.7733" lon="5.42524">
        <ele>222.2</ele>
        <time>2022-03-21T13:33:17Z</time>
      </trkpt>
      <trkpt lat="46.77326" lon="5.42527">
        <ele>222.4</ele>
        <time>2022-03-21T13:33:18Z</time>
      </trkpt>
      <trkpt lat="46.77322" lon="5.42531">
        <ele>222.4</ele>
        <time>2022-03-21T13:33:19Z</time>
      </trkpt>
      <trkpt lat="46.77318" lon="5.42534">
        <ele>222.6</ele>
        <time>2022-03-21T13:33:20Z</time>
      </trkpt>
      <trkpt lat="46.77314" lon="5.42537">
        <ele>222.6</ele>
        <time>2022-03-21T13:33:21Z</time>
      </trkpt>
      <trkpt lat="46.7731" lon="5.4254">
        <ele>222.8</ele>
        <time>2022-03-21T13:33:22Z</time>
      </trkpt>
      <trkpt lat="46.77306" lon="5.42544">
        <ele>222.8</ele>
        <time>2022-03-21T13:33:23Z</time>
      </trkpt>
      <trkpt lat="46.77302" lon="5.42547">
        <ele>222.8</ele>
        <time>2022-03-21T13:33:24Z</time>
      </trkpt>
      <trkpt lat="46.77298" lon="5.4255">
        <ele>223</ele>
        <time>2022-03-21T13:33:25Z</time>
      </trkpt>
      <trkpt lat="46.77294" lon="5.42554">
        <ele>223</ele>
        <time>2022-03-21T13:33:26Z</time>
      </trkpt>
      <trkpt lat="46.7729" lon="5.42557">
        <ele>223.4</ele>
        <time>2022-03-21T13:33:27Z</time>
      </trkpt>
      <trkpt lat="46.77286" lon="5.42561">
        <ele>223.4</ele>
        <time>2022-03-21T13:33:28Z</time>
      </trkpt>
      <trkpt lat="46.77282" lon="5.42564">
        <ele>223.6</ele>
        <time>2022-03-21T13:33:29Z</time>
      </trkpt>
      <trkpt lat="46.77278" lon="5.42567">
        <ele>223.6</ele>
        <time>2022-03-21T13:33:30Z</time>
      </trkpt>
      <trkpt lat="46.77274" lon="5.42571">
        <ele>223.6</ele>
        <time>2022-03-21T13:33:31Z</time>
      </trkpt>
      <trkpt lat="46.7727" lon="5.42574">
        <ele>223.8</ele>
        <time>2022-03-21T13:33:32Z</time>
      </trkpt>
      <trkpt lat="46.77265" lon="5.42578">
        <ele>223.8</ele>
        <time>2022-03-21T13:33:33Z</time>
      </trkpt>
      <trkpt lat="46.77261" lon="5.42581">
        <ele>223.8</ele>
        <time>2022-03-21T13:33:34Z</time>
      </trkpt>
      <trkpt lat="46.77257" lon="5.42585">
        <ele>224</ele>
        <time>2022-03-21T13:33:35Z</time>
      </trkpt>
      <trkpt lat="46.77253" lon="5.42588">
        <ele>224</ele>
        <time>2022-03-21T13:33:36Z</time>
      </trkpt>
      <trkpt lat="46.77249" lon="5.42592">
        <ele>224</ele>
        <time>2022-03-21T13:33:37Z</time>
      </trkpt>
      <trkpt lat="46.77245" lon="5.42595">
        <ele>224</ele>
        <time>2022-03-21T13:33:38Z</time>
      </trkpt>
      <trkpt lat="46.7724" lon="5.42599">
        <ele>224</ele>
        <time>2022-03-21T13:33:39Z</time>
      </trkpt>
      <trkpt lat="46.77236" lon="5.42602">
        <ele>224</ele>
        <time>2022-03-21T13:33:40Z</time>
      </trkpt>
      <trkpt lat="46.77232" lon="5.42606">
        <ele>224.4</ele>
        <time>2022-03-21T13:33:41Z</time>
      </trkpt>
      <trkpt lat="46.77227" lon="5.4261">
        <ele>224.4</ele>
        <time>2022-03-21T13:33:42Z</time>
      </trkpt>
      <trkpt lat="46.77223" lon="5.42613">
        <ele>224.4</ele>
        <time>2022-03-21T13:33:43Z</time>
      </trkpt>
      <trkpt lat="46.77218" lon="5.42617">
        <ele>224.6</ele>
        <time>2022-03-21T13:33:44Z</time>
      </trkpt>
      <trkpt lat="46.77214" lon="5.42621">
        <ele>224.6</ele>
        <time>2022-03-21T13:33:45Z</time>
      </trkpt>
      <trkpt lat="46.77209" lon="5.42625">
        <ele>224.8</ele>
        <time>2022-03-21T13:33:46Z</time>
      </trkpt>
      <trkpt lat="46.77205" lon="5.42629">
        <ele>225</ele>
        <time>2022-03-21T13:33:47Z</time>
      </trkpt>
      <trkpt lat="46.77201" lon="5.42632">
        <ele>225</ele>
        <time>2022-03-21T13:33:48Z</time>
      </trkpt>
      <trkpt lat="46.77196" lon="5.42636">
        <ele>225.4</ele>
        <time>2022-03-21T13:33:49Z</time>
      </trkpt>
      <trkpt lat="46.77192" lon="5.4264">
        <ele>225.6</ele>
        <time>2022-03-21T13:33:50Z</time>
      </trkpt>
      <trkpt lat="46.77188" lon="5.42643">
        <ele>225.6</ele>
        <time>2022-03-21T13:33:51Z</time>
      </trkpt>
      <trkpt lat="46.77183" lon="5.42647">
        <ele>225.8</ele>
        <time>2022-03-21T13:33:52Z</time>
      </trkpt>
      <trkpt lat="46.77179" lon="5.42651">
        <ele>225.8</ele>
        <time>2022-03-21T13:33:53Z</time>
      </trkpt>
      <trkpt lat="46.77175" lon="5.42654">
        <ele>226.2</ele>
        <time>2022-03-21T13:33:54Z</time>
      </trkpt>
      <trkpt lat="46.7717" lon="5.42657">
        <ele>226.2</ele>
        <time>2022-03-21T13:33:55Z</time>
      </trkpt>
      <trkpt lat="46.77166" lon="5.42661">
        <ele>226.4</ele>
        <time>2022-03-21T13:33:56Z</time>
      </trkpt>
      <trkpt lat="46.77161" lon="5.42665">
        <ele>226.4</ele>
        <time>2022-03-21T13:33:57Z</time>
      </trkpt>
      <trkpt lat="46.77157" lon="5.42668">
        <ele>226.6</ele>
        <time>2022-03-21T13:33:58Z</time>
      </trkpt>
      <trkpt lat="46.77152" lon="5.42671">
        <ele>226.6</ele>
        <time>2022-03-21T13:33:59Z</time>
      </trkpt>
      <trkpt lat="46.77147" lon="5.42675">
        <ele>226.6</ele>
        <time>2022-03-21T13:34:00Z</time>
      </trkpt>
      <trkpt lat="46.77142" lon="5.42678">
        <ele>226.6</ele>
        <time>2022-03-21T13:34:01Z</time>
      </trkpt>
      <trkpt lat="46.77138" lon="5.42681">
        <ele>226.6</ele>
        <time>2022-03-21T13:34:02Z</time>
      </trkpt>
      <trkpt lat="46.77133" lon="5.42685">
        <ele>226.6</ele>
        <time>2022-03-21T13:34:03Z</time>
      </trkpt>
      <trkpt lat="46.77128" lon="5.42688">
        <ele>226.6</ele>
        <time>2022-03-21T13:34:04Z</time>
      </trkpt>
      <trkpt lat="46.77123" lon="5.42692">
        <ele>226.6</ele>
        <time>2022-03-21T13:34:05Z</time>
      </trkpt>
      <trkpt lat="46.77118" lon="5.42695">
        <ele>226.6</ele>
        <time>2022-03-21T13:34:06Z</time>
      </trkpt>
      <trkpt lat="46.77113" lon="5.42699">
        <ele>226.6</ele>
        <time>2022-03-21T13:34:07Z</time>
      </trkpt>
      <trkpt lat="46.77108" lon="5.42702">
        <ele>226.8</ele>
        <time>2022-03-21T13:34:08Z</time>
      </trkpt>
      <trkpt lat="46.77103" lon="5.42706">
        <ele>226.8</ele>
        <time>2022-03-21T13:34:09Z</time>
      </trkpt>
      <trkpt lat="46.77097" lon="5.4271">
        <ele>226.8</ele>
        <time>2022-03-21T13:34:10Z</time>
      </trkpt>
      <trkpt lat="46.77092" lon="5.42713">
        <ele>226.8</ele>
        <time>2022-03-21T13:34:11Z</time>
      </trkpt>
      <trkpt lat="46.77087" lon="5.42717">
        <ele>226.8</ele>
        <time>2022-03-21T13:34:12Z</time>
      </trkpt>
      <trkpt lat="46.77082" lon="5.4272">
        <ele>226.8</ele>
        <time>2022-03-21T13:34:13Z</time>
      </trkpt>
      <trkpt lat="46.77077" lon="5.42724">
        <ele>226.8</ele>
        <time>2022-03-21T13:34:14Z</time>
      </trkpt>
      <trkpt lat="46.77072" lon="5.42728">
        <ele>226.8</ele>
        <time>2022-03-21T13:34:15Z</time>
      </trkpt>
      <trkpt lat="46.77066" lon="5.42731">
        <ele>226.8</ele>
        <time>2022-03-21T13:34:16Z</time>
      </trkpt>
      <trkpt lat="46.77061" lon="5.42735">
        <ele>226.8</ele>
        <time>2022-03-21T13:34:17Z</time>
      </trkpt>
      <trkpt lat="46.77056" lon="5.42738">
        <ele>226.8</ele>
        <time>2022-03-21T13:34:19Z</time>
      </trkpt>
      <trkpt lat="46.77051" lon="5.42742">
        <ele>226.8</ele>
        <time>2022-03-21T13:34:20Z</time>
      </trkpt>
      <trkpt lat="46.77045" lon="5.42745">
        <ele>226.8</ele>
        <time>2022-03-21T13:34:21Z</time>
      </trkpt>
      <trkpt lat="46.7704" lon="5.42749">
        <ele>226.8</ele>
        <time>2022-03-21T13:34:22Z</time>
      </trkpt>
      <trkpt lat="46.77035" lon="5.42753">
        <ele>226.8</ele>
        <time>2022-03-21T13:34:23Z</time>
      </trkpt>
      <trkpt lat="46.77029" lon="5.42756">
        <ele>226.8</ele>
        <time>2022-03-21T13:34:24Z</time>
      </trkpt>
      <trkpt lat="46.77024" lon="5.4276">
        <ele>226.8</ele>
        <time>2022-03-21T13:34:25Z</time>
      </trkpt>
      <trkpt lat="46.77018" lon="5.42764">
        <ele>226.8</ele>
        <time>2022-03-21T13:34:26Z</time>
      </trkpt>
      <trkpt lat="46.77013" lon="5.42768">
        <ele>226.8</ele>
        <time>2022-03-21T13:34:27Z</time>
      </trkpt>
      <trkpt lat="46.77007" lon="5.42772">
        <ele>226.8</ele>
        <time>2022-03-21T13:34:28Z</time>
      </trkpt>
      <trkpt lat="46.77002" lon="5.42776">
        <ele>226.8</ele>
        <time>2022-03-21T13:34:29Z</time>
      </trkpt>
      <trkpt lat="46.76996" lon="5.4278">
        <ele>226.6</ele>
        <time>2022-03-21T13:34:30Z</time>
      </trkpt>
      <trkpt lat="46.7699" lon="5.42783">
        <ele>226.6</ele>
        <time>2022-03-21T13:34:31Z</time>
      </trkpt>
      <trkpt lat="46.76982" lon="5.42789">
        <ele>226.6</ele>
        <time>2022-03-21T13:34:32Z</time>
      </trkpt>
      <trkpt lat="46.76979" lon="5.42791">
        <ele>226.6</ele>
        <time>2022-03-21T13:34:33Z</time>
      </trkpt>
      <trkpt lat="46.76973" lon="5.42795">
        <ele>226.6</ele>
        <time>2022-03-21T13:34:34Z</time>
      </trkpt>
      <trkpt lat="46.76967" lon="5.42799">
        <ele>226.6</ele>
        <time>2022-03-21T13:34:35Z</time>
      </trkpt>
      <trkpt lat="46.76961" lon="5.42803">
        <ele>226.4</ele>
        <time>2022-03-21T13:34:36Z</time>
      </trkpt>
      <trkpt lat="46.76955" lon="5.42807">
        <ele>226.4</ele>
        <time>2022-03-21T13:34:37Z</time>
      </trkpt>
      <trkpt lat="46.76949" lon="5.42812">
        <ele>226.2</ele>
        <time>2022-03-21T13:34:38Z</time>
      </trkpt>
      <trkpt lat="46.76942" lon="5.42816">
        <ele>226</ele>
        <time>2022-03-21T13:34:39Z</time>
      </trkpt>
      <trkpt lat="46.76936" lon="5.42821">
        <ele>226</ele>
        <time>2022-03-21T13:34:40Z</time>
      </trkpt>
      <trkpt lat="46.76929" lon="5.42825">
        <ele>225.4</ele>
        <time>2022-03-21T13:34:41Z</time>
      </trkpt>
      <trkpt lat="46.76922" lon="5.4283">
        <ele>225.4</ele>
        <time>2022-03-21T13:34:42Z</time>
      </trkpt>
      <trkpt lat="46.76914" lon="5.42835">
        <ele>225</ele>
        <time>2022-03-21T13:34:43Z</time>
      </trkpt>
      <trkpt lat="46.76907" lon="5.4284">
        <ele>224.6</ele>
        <time>2022-03-21T13:34:44Z</time>
      </trkpt>
      <trkpt lat="46.76899" lon="5.42846">
        <ele>224.4</ele>
        <time>2022-03-21T13:34:45Z</time>
      </trkpt>
      <trkpt lat="46.76891" lon="5.42851">
        <ele>224.2</ele>
        <time>2022-03-21T13:34:46Z</time>
      </trkpt>
      <trkpt lat="46.76883" lon="5.42857">
        <ele>223.8</ele>
        <time>2022-03-21T13:34:47Z</time>
      </trkpt>
      <trkpt lat="46.76875" lon="5.42863">
        <ele>223.4</ele>
        <time>2022-03-21T13:34:48Z</time>
      </trkpt>
      <trkpt lat="46.76866" lon="5.42869">
        <ele>223</ele>
        <time>2022-03-21T13:34:49Z</time>
      </trkpt>
      <trkpt lat="46.76857" lon="5.42875">
        <ele>222.6</ele>
        <time>2022-03-21T13:34:50Z</time>
      </trkpt>
      <trkpt lat="46.76849" lon="5.42881">
        <ele>222</ele>
        <time>2022-03-21T13:34:51Z</time>
      </trkpt>
      <trkpt lat="46.7684" lon="5.42887">
        <ele>221.4</ele>
        <time>2022-03-21T13:34:52Z</time>
      </trkpt>
      <trkpt lat="46.76831" lon="5.42893">
        <ele>221.2</ele>
        <time>2022-03-21T13:34:53Z</time>
      </trkpt>
      <trkpt lat="46.76822" lon="5.42899">
        <ele>220.8</ele>
        <time>2022-03-21T13:34:54Z</time>
      </trkpt>
      <trkpt lat="46.76814" lon="5.42905">
        <ele>220.6</ele>
        <time>2022-03-21T13:34:55Z</time>
      </trkpt>
      <trkpt lat="46.76805" lon="5.42911">
        <ele>220.2</ele>
        <time>2022-03-21T13:34:56Z</time>
      </trkpt>
      <trkpt lat="46.76797" lon="5.42916">
        <ele>220</ele>
        <time>2022-03-21T13:34:57Z</time>
      </trkpt>
      <trkpt lat="46.76789" lon="5.42922">
        <ele>219.8</ele>
        <time>2022-03-21T13:34:58Z</time>
      </trkpt>
      <trkpt lat="46.76781" lon="5.42928">
        <ele>219.8</ele>
        <time>2022-03-21T13:34:59Z</time>
      </trkpt>
      <trkpt lat="46.76774" lon="5.42933">
        <ele>219.6</ele>
        <time>2022-03-21T13:35:00Z</time>
      </trkpt>
      <trkpt lat="46.76766" lon="5.42938">
        <ele>219.2</ele>
        <time>2022-03-21T13:35:01Z</time>
      </trkpt>
      <trkpt lat="46.76759" lon="5.42943">
        <ele>219.2</ele>
        <time>2022-03-21T13:35:02Z</time>
      </trkpt>
      <trkpt lat="46.76752" lon="5.42949">
        <ele>219</ele>
        <time>2022-03-21T13:35:03Z</time>
      </trkpt>
      <trkpt lat="46.76745" lon="5.42953">
        <ele>219</ele>
        <time>2022-03-21T13:35:04Z</time>
      </trkpt>
      <trkpt lat="46.76738" lon="5.42958">
        <ele>219</ele>
        <time>2022-03-21T13:35:05Z</time>
      </trkpt>
      <trkpt lat="46.76731" lon="5.42963">
        <ele>218.8</ele>
        <time>2022-03-21T13:35:06Z</time>
      </trkpt>
      <trkpt lat="46.76724" lon="5.42968">
        <ele>218.8</ele>
        <time>2022-03-21T13:35:07Z</time>
      </trkpt>
      <trkpt lat="46.76717" lon="5.42972">
        <ele>218.8</ele>
        <time>2022-03-21T13:35:08Z</time>
      </trkpt>
      <trkpt lat="46.76711" lon="5.42977">
        <ele>218.8</ele>
        <time>2022-03-21T13:35:09Z</time>
      </trkpt>
      <trkpt lat="46.76705" lon="5.42981">
        <ele>218.8</ele>
        <time>2022-03-21T13:35:10Z</time>
      </trkpt>
      <trkpt lat="46.76698" lon="5.42985">
        <ele>218.8</ele>
        <time>2022-03-21T13:35:11Z</time>
      </trkpt>
      <trkpt lat="46.76692" lon="5.42989">
        <ele>218.8</ele>
        <time>2022-03-21T13:35:12Z</time>
      </trkpt>
      <trkpt lat="46.76686" lon="5.42993">
        <ele>218.8</ele>
        <time>2022-03-21T13:35:13Z</time>
      </trkpt>
      <trkpt lat="46.7668" lon="5.42997">
        <ele>219</ele>
        <time>2022-03-21T13:35:14Z</time>
      </trkpt>
      <trkpt lat="46.76675" lon="5.43001">
        <ele>219</ele>
        <time>2022-03-21T13:35:15Z</time>
      </trkpt>
      <trkpt lat="46.76669" lon="5.43005">
        <ele>219.4</ele>
        <time>2022-03-21T13:35:16Z</time>
      </trkpt>
      <trkpt lat="46.76664" lon="5.43008">
        <ele>219.4</ele>
        <time>2022-03-21T13:35:17Z</time>
      </trkpt>
      <trkpt lat="46.76659" lon="5.43012">
        <ele>219.6</ele>
        <time>2022-03-21T13:35:18Z</time>
      </trkpt>
      <trkpt lat="46.76654" lon="5.43015">
        <ele>219.6</ele>
        <time>2022-03-21T13:35:19Z</time>
      </trkpt>
      <trkpt lat="46.76649" lon="5.43018">
        <ele>219.8</ele>
        <time>2022-03-21T13:35:20Z</time>
      </trkpt>
      <trkpt lat="46.76644" lon="5.43022">
        <ele>220.2</ele>
        <time>2022-03-21T13:35:21Z</time>
      </trkpt>
      <trkpt lat="46.76639" lon="5.43025">
        <ele>220.2</ele>
        <time>2022-03-21T13:35:22Z</time>
      </trkpt>
      <trkpt lat="46.76634" lon="5.43028">
        <ele>220.2</ele>
        <time>2022-03-21T13:35:23Z</time>
      </trkpt>
      <trkpt lat="46.7663" lon="5.43032">
        <ele>220.4</ele>
        <time>2022-03-21T13:35:24Z</time>
      </trkpt>
      <trkpt lat="46.76625" lon="5.43035">
        <ele>220.4</ele>
        <time>2022-03-21T13:35:25Z</time>
      </trkpt>
      <trkpt lat="46.7662" lon="5.43038">
        <ele>220.4</ele>
        <time>2022-03-21T13:35:26Z</time>
      </trkpt>
      <trkpt lat="46.76614" lon="5.43042">
        <ele>220.4</ele>
        <time>2022-03-21T13:35:27Z</time>
      </trkpt>
      <trkpt lat="46.76609" lon="5.43046">
        <ele>220.4</ele>
        <time>2022-03-21T13:35:28Z</time>
      </trkpt>
      <trkpt lat="46.76604" lon="5.43049">
        <ele>220.4</ele>
        <time>2022-03-21T13:35:29Z</time>
      </trkpt>
      <trkpt lat="46.76598" lon="5.43053">
        <ele>220.4</ele>
        <time>2022-03-21T13:35:30Z</time>
      </trkpt>
      <trkpt lat="46.76593" lon="5.43057">
        <ele>220.4</ele>
        <time>2022-03-21T13:35:31Z</time>
      </trkpt>
      <trkpt lat="46.76587" lon="5.43061">
        <ele>220.4</ele>
        <time>2022-03-21T13:35:32Z</time>
      </trkpt>
      <trkpt lat="46.76581" lon="5.43064">
        <ele>220.4</ele>
        <time>2022-03-21T13:35:33Z</time>
      </trkpt>
      <trkpt lat="46.76575" lon="5.43068">
        <ele>220.2</ele>
        <time>2022-03-21T13:35:34Z</time>
      </trkpt>
      <trkpt lat="46.76569" lon="5.43072">
        <ele>220.2</ele>
        <time>2022-03-21T13:35:35Z</time>
      </trkpt>
      <trkpt lat="46.76564" lon="5.43077">
        <ele>220.2</ele>
        <time>2022-03-21T13:35:36Z</time>
      </trkpt>
      <trkpt lat="46.76557" lon="5.43081">
        <ele>219.8</ele>
        <time>2022-03-21T13:35:37Z</time>
      </trkpt>
      <trkpt lat="46.76551" lon="5.43085">
        <ele>219.8</ele>
        <time>2022-03-21T13:35:38Z</time>
      </trkpt>
      <trkpt lat="46.76545" lon="5.43089">
        <ele>219.6</ele>
        <time>2022-03-21T13:35:39Z</time>
      </trkpt>
      <trkpt lat="46.76538" lon="5.43094">
        <ele>219.6</ele>
        <time>2022-03-21T13:35:40Z</time>
      </trkpt>
      <trkpt lat="46.76532" lon="5.43099">
        <ele>219.2</ele>
        <time>2022-03-21T13:35:41Z</time>
      </trkpt>
      <trkpt lat="46.76525" lon="5.43104">
        <ele>219</ele>
        <time>2022-03-21T13:35:42Z</time>
      </trkpt>
      <trkpt lat="46.76518" lon="5.43108">
        <ele>218.8</ele>
        <time>2022-03-21T13:35:43Z</time>
      </trkpt>
      <trkpt lat="46.76511" lon="5.43113">
        <ele>218.6</ele>
        <time>2022-03-21T13:35:44Z</time>
      </trkpt>
      <trkpt lat="46.76504" lon="5.43118">
        <ele>218.2</ele>
        <time>2022-03-21T13:35:45Z</time>
      </trkpt>
      <trkpt lat="46.76496" lon="5.43124">
        <ele>218</ele>
        <time>2022-03-21T13:35:46Z</time>
      </trkpt>
      <trkpt lat="46.76489" lon="5.43129">
        <ele>217.8</ele>
        <time>2022-03-21T13:35:47Z</time>
      </trkpt>
      <trkpt lat="46.76481" lon="5.43134">
        <ele>217.4</ele>
        <time>2022-03-21T13:35:48Z</time>
      </trkpt>
      <trkpt lat="46.76474" lon="5.43139">
        <ele>217.2</ele>
        <time>2022-03-21T13:35:49Z</time>
      </trkpt>
      <trkpt lat="46.76466" lon="5.43144">
        <ele>216.8</ele>
        <time>2022-03-21T13:35:50Z</time>
      </trkpt>
      <trkpt lat="46.76458" lon="5.4315">
        <ele>216.6</ele>
        <time>2022-03-21T13:35:51Z</time>
      </trkpt>
      <trkpt lat="46.7645" lon="5.43155">
        <ele>216.4</ele>
        <time>2022-03-21T13:35:53Z</time>
      </trkpt>
      <trkpt lat="46.76442" lon="5.4316">
        <ele>216.4</ele>
        <time>2022-03-21T13:35:54Z</time>
      </trkpt>
      <trkpt lat="46.76435" lon="5.43166">
        <ele>216.4</ele>
        <time>2022-03-21T13:35:55Z</time>
      </trkpt>
      <trkpt lat="46.76427" lon="5.43171">
        <ele>216.4</ele>
        <time>2022-03-21T13:35:56Z</time>
      </trkpt>
      <trkpt lat="46.7642" lon="5.43175">
        <ele>216.4</ele>
        <time>2022-03-21T13:35:57Z</time>
      </trkpt>
      <trkpt lat="46.76413" lon="5.4318">
        <ele>216.4</ele>
        <time>2022-03-21T13:35:58Z</time>
      </trkpt>
      <trkpt lat="46.76407" lon="5.43184">
        <ele>216.6</ele>
        <time>2022-03-21T13:35:59Z</time>
      </trkpt>
      <trkpt lat="46.76401" lon="5.43189">
        <ele>216.8</ele>
        <time>2022-03-21T13:36:00Z</time>
      </trkpt>
      <trkpt lat="46.76395" lon="5.43193">
        <ele>216.8</ele>
        <time>2022-03-21T13:36:01Z</time>
      </trkpt>
      <trkpt lat="46.76389" lon="5.43197">
        <ele>217.2</ele>
        <time>2022-03-21T13:36:02Z</time>
      </trkpt>
      <trkpt lat="46.76384" lon="5.43201">
        <ele>217.4</ele>
        <time>2022-03-21T13:36:03Z</time>
      </trkpt>
      <trkpt lat="46.76378" lon="5.43204">
        <ele>217.4</ele>
        <time>2022-03-21T13:36:04Z</time>
      </trkpt>
      <trkpt lat="46.76374" lon="5.43207">
        <ele>217.8</ele>
        <time>2022-03-21T13:36:05Z</time>
      </trkpt>
      <trkpt lat="46.76369" lon="5.43211">
        <ele>218</ele>
        <time>2022-03-21T13:36:06Z</time>
      </trkpt>
      <trkpt lat="46.76364" lon="5.43213">
        <ele>218.2</ele>
        <time>2022-03-21T13:36:07Z</time>
      </trkpt>
      <trkpt lat="46.76359" lon="5.43216">
        <ele>218.4</ele>
        <time>2022-03-21T13:36:08Z</time>
      </trkpt>
      <trkpt lat="46.76355" lon="5.4322">
        <ele>218.4</ele>
        <time>2022-03-21T13:36:09Z</time>
      </trkpt>
      <trkpt lat="46.76351" lon="5.43223">
        <ele>218.8</ele>
        <time>2022-03-21T13:36:10Z</time>
      </trkpt>
      <trkpt lat="46.76346" lon="5.43226">
        <ele>218.8</ele>
        <time>2022-03-21T13:36:11Z</time>
      </trkpt>
      <trkpt lat="46.76342" lon="5.43229">
        <ele>219.2</ele>
        <time>2022-03-21T13:36:12Z</time>
      </trkpt>
      <trkpt lat="46.76337" lon="5.43232">
        <ele>219.2</ele>
        <time>2022-03-21T13:36:13Z</time>
      </trkpt>
      <trkpt lat="46.76333" lon="5.43235">
        <ele>219.2</ele>
        <time>2022-03-21T13:36:14Z</time>
      </trkpt>
      <trkpt lat="46.76329" lon="5.43238">
        <ele>219.6</ele>
        <time>2022-03-21T13:36:15Z</time>
      </trkpt>
      <trkpt lat="46.76324" lon="5.43241">
        <ele>219.8</ele>
        <time>2022-03-21T13:36:16Z</time>
      </trkpt>
      <trkpt lat="46.7632" lon="5.43244">
        <ele>220</ele>
        <time>2022-03-21T13:36:17Z</time>
      </trkpt>
      <trkpt lat="46.76315" lon="5.43247">
        <ele>220</ele>
        <time>2022-03-21T13:36:18Z</time>
      </trkpt>
      <trkpt lat="46.76311" lon="5.4325">
        <ele>220.2</ele>
        <time>2022-03-21T13:36:19Z</time>
      </trkpt>
      <trkpt lat="46.76306" lon="5.43254">
        <ele>220.2</ele>
        <time>2022-03-21T13:36:20Z</time>
      </trkpt>
      <trkpt lat="46.76302" lon="5.43257">
        <ele>220.6</ele>
        <time>2022-03-21T13:36:21Z</time>
      </trkpt>
      <trkpt lat="46.76298" lon="5.4326">
        <ele>220.6</ele>
        <time>2022-03-21T13:36:22Z</time>
      </trkpt>
      <trkpt lat="46.76294" lon="5.43263">
        <ele>221</ele>
        <time>2022-03-21T13:36:23Z</time>
      </trkpt>
      <trkpt lat="46.7629" lon="5.43265">
        <ele>221.2</ele>
        <time>2022-03-21T13:36:24Z</time>
      </trkpt>
      <trkpt lat="46.76286" lon="5.43268">
        <ele>221.4</ele>
        <time>2022-03-21T13:36:25Z</time>
      </trkpt>
      <trkpt lat="46.76282" lon="5.43271">
        <ele>221.4</ele>
        <time>2022-03-21T13:36:26Z</time>
      </trkpt>
      <trkpt lat="46.76278" lon="5.43274">
        <ele>221.8</ele>
        <time>2022-03-21T13:36:27Z</time>
      </trkpt>
      <trkpt lat="46.76274" lon="5.43277">
        <ele>222</ele>
        <time>2022-03-21T13:36:28Z</time>
      </trkpt>
      <trkpt lat="46.7627" lon="5.43279">
        <ele>222</ele>
        <time>2022-03-21T13:36:29Z</time>
      </trkpt>
      <trkpt lat="46.76266" lon="5.43282">
        <ele>222.4</ele>
        <time>2022-03-21T13:36:30Z</time>
      </trkpt>
      <trkpt lat="46.76262" lon="5.43285">
        <ele>222.6</ele>
        <time>2022-03-21T13:36:31Z</time>
      </trkpt>
      <trkpt lat="46.76258" lon="5.43288">
        <ele>222.6</ele>
        <time>2022-03-21T13:36:32Z</time>
      </trkpt>
      <trkpt lat="46.76254" lon="5.4329">
        <ele>222.8</ele>
        <time>2022-03-21T13:36:33Z</time>
      </trkpt>
      <trkpt lat="46.7625" lon="5.43293">
        <ele>223</ele>
        <time>2022-03-21T13:36:34Z</time>
      </trkpt>
      <trkpt lat="46.76246" lon="5.43295">
        <ele>223.2</ele>
        <time>2022-03-21T13:36:35Z</time>
      </trkpt>
      <trkpt lat="46.76241" lon="5.43298">
        <ele>223.2</ele>
        <time>2022-03-21T13:36:36Z</time>
      </trkpt>
      <trkpt lat="46.76237" lon="5.43301">
        <ele>223.6</ele>
        <time>2022-03-21T13:36:37Z</time>
      </trkpt>
      <trkpt lat="46.76233" lon="5.43304">
        <ele>223.6</ele>
        <time>2022-03-21T13:36:38Z</time>
      </trkpt>
      <trkpt lat="46.76229" lon="5.43307">
        <ele>224</ele>
        <time>2022-03-21T13:36:39Z</time>
      </trkpt>
      <trkpt lat="46.76225" lon="5.4331">
        <ele>224.2</ele>
        <time>2022-03-21T13:36:40Z</time>
      </trkpt>
      <trkpt lat="46.76221" lon="5.43313">
        <ele>224.2</ele>
        <time>2022-03-21T13:36:41Z</time>
      </trkpt>
      <trkpt lat="46.76217" lon="5.43315">
        <ele>224.6</ele>
        <time>2022-03-21T13:36:42Z</time>
      </trkpt>
      <trkpt lat="46.76213" lon="5.43318">
        <ele>224.8</ele>
        <time>2022-03-21T13:36:43Z</time>
      </trkpt>
      <trkpt lat="46.76209" lon="5.43321">
        <ele>225</ele>
        <time>2022-03-21T13:36:44Z</time>
      </trkpt>
      <trkpt lat="46.76205" lon="5.43323">
        <ele>225.2</ele>
        <time>2022-03-21T13:36:45Z</time>
      </trkpt>
      <trkpt lat="46.76201" lon="5.43326">
        <ele>225.2</ele>
        <time>2022-03-21T13:36:46Z</time>
      </trkpt>
      <trkpt lat="46.76194" lon="5.43331">
        <ele>225.6</ele>
        <time>2022-03-21T13:36:47Z</time>
      </trkpt>
      <trkpt lat="46.7619" lon="5.43334">
        <ele>226</ele>
        <time>2022-03-21T13:36:48Z</time>
      </trkpt>
      <trkpt lat="46.76186" lon="5.43336">
        <ele>226</ele>
        <time>2022-03-21T13:36:49Z</time>
      </trkpt>
      <trkpt lat="46.76182" lon="5.43339">
        <ele>226.4</ele>
        <time>2022-03-21T13:36:50Z</time>
      </trkpt>
      <trkpt lat="46.76178" lon="5.43342">
        <ele>226.4</ele>
        <time>2022-03-21T13:36:51Z</time>
      </trkpt>
      <trkpt lat="46.76175" lon="5.43345">
        <ele>226.6</ele>
        <time>2022-03-21T13:36:52Z</time>
      </trkpt>
      <trkpt lat="46.76171" lon="5.43348">
        <ele>226.6</ele>
        <time>2022-03-21T13:36:53Z</time>
      </trkpt>
      <trkpt lat="46.76167" lon="5.43351">
        <ele>227</ele>
        <time>2022-03-21T13:36:54Z</time>
      </trkpt>
      <trkpt lat="46.76163" lon="5.43354">
        <ele>227</ele>
        <time>2022-03-21T13:36:55Z</time>
      </trkpt>
      <trkpt lat="46.76159" lon="5.43356">
        <ele>227.4</ele>
        <time>2022-03-21T13:36:56Z</time>
      </trkpt>
      <trkpt lat="46.76155" lon="5.43359">
        <ele>227.6</ele>
        <time>2022-03-21T13:36:57Z</time>
      </trkpt>
      <trkpt lat="46.76151" lon="5.43362">
        <ele>227.6</ele>
        <time>2022-03-21T13:36:58Z</time>
      </trkpt>
      <trkpt lat="46.76146" lon="5.43365">
        <ele>228</ele>
        <time>2022-03-21T13:36:59Z</time>
      </trkpt>
      <trkpt lat="46.76142" lon="5.43368">
        <ele>228</ele>
        <time>2022-03-21T13:37:00Z</time>
      </trkpt>
      <trkpt lat="46.76137" lon="5.43371">
        <ele>228.4</ele>
        <time>2022-03-21T13:37:01Z</time>
      </trkpt>
      <trkpt lat="46.76133" lon="5.43374">
        <ele>228.4</ele>
        <time>2022-03-21T13:37:02Z</time>
      </trkpt>
      <trkpt lat="46.76128" lon="5.43377">
        <ele>228.4</ele>
        <time>2022-03-21T13:37:03Z</time>
      </trkpt>
      <trkpt lat="46.76123" lon="5.4338">
        <ele>228.6</ele>
        <time>2022-03-21T13:37:04Z</time>
      </trkpt>
      <trkpt lat="46.76118" lon="5.43383">
        <ele>228.6</ele>
        <time>2022-03-21T13:37:05Z</time>
      </trkpt>
      <trkpt lat="46.76113" lon="5.43387">
        <ele>228.6</ele>
        <time>2022-03-21T13:37:06Z</time>
      </trkpt>
      <trkpt lat="46.76108" lon="5.4339">
        <ele>228.6</ele>
        <time>2022-03-21T13:37:07Z</time>
      </trkpt>
      <trkpt lat="46.76103" lon="5.43394">
        <ele>228.8</ele>
        <time>2022-03-21T13:37:08Z</time>
      </trkpt>
      <trkpt lat="46.76098" lon="5.43397">
        <ele>228.8</ele>
        <time>2022-03-21T13:37:09Z</time>
      </trkpt>
      <trkpt lat="46.76093" lon="5.43401">
        <ele>228.8</ele>
        <time>2022-03-21T13:37:10Z</time>
      </trkpt>
      <trkpt lat="46.76087" lon="5.43405">
        <ele>228.8</ele>
        <time>2022-03-21T13:37:11Z</time>
      </trkpt>
      <trkpt lat="46.76082" lon="5.43408">
        <ele>228.8</ele>
        <time>2022-03-21T13:37:12Z</time>
      </trkpt>
      <trkpt lat="46.76076" lon="5.43412">
        <ele>228.8</ele>
        <time>2022-03-21T13:37:13Z</time>
      </trkpt>
      <trkpt lat="46.7607" lon="5.43416">
        <ele>228.8</ele>
        <time>2022-03-21T13:37:14Z</time>
      </trkpt>
      <trkpt lat="46.76065" lon="5.4342">
        <ele>228.8</ele>
        <time>2022-03-21T13:37:15Z</time>
      </trkpt>
      <trkpt lat="46.76059" lon="5.43424">
        <ele>228.8</ele>
        <time>2022-03-21T13:37:16Z</time>
      </trkpt>
      <trkpt lat="46.76053" lon="5.43428">
        <ele>228.8</ele>
        <time>2022-03-21T13:37:17Z</time>
      </trkpt>
      <trkpt lat="46.76047" lon="5.43432">
        <ele>228.8</ele>
        <time>2022-03-21T13:37:18Z</time>
      </trkpt>
      <trkpt lat="46.76042" lon="5.43435">
        <ele>228.8</ele>
        <time>2022-03-21T13:37:19Z</time>
      </trkpt>
      <trkpt lat="46.76036" lon="5.43439">
        <ele>228.8</ele>
        <time>2022-03-21T13:37:20Z</time>
      </trkpt>
      <trkpt lat="46.76031" lon="5.43443">
        <ele>229</ele>
        <time>2022-03-21T13:37:21Z</time>
      </trkpt>
      <trkpt lat="46.76025" lon="5.43447">
        <ele>229</ele>
        <time>2022-03-21T13:37:22Z</time>
      </trkpt>
      <trkpt lat="46.7602" lon="5.4345">
        <ele>229</ele>
        <time>2022-03-21T13:37:23Z</time>
      </trkpt>
      <trkpt lat="46.76015" lon="5.43454">
        <ele>229</ele>
        <time>2022-03-21T13:37:24Z</time>
      </trkpt>
      <trkpt lat="46.76009" lon="5.43457">
        <ele>229</ele>
        <time>2022-03-21T13:37:25Z</time>
      </trkpt>
      <trkpt lat="46.76004" lon="5.43461">
        <ele>229</ele>
        <time>2022-03-21T13:37:26Z</time>
      </trkpt>
      <trkpt lat="46.75999" lon="5.43465">
        <ele>229</ele>
        <time>2022-03-21T13:37:27Z</time>
      </trkpt>
      <trkpt lat="46.75993" lon="5.43468">
        <ele>229</ele>
        <time>2022-03-21T13:37:28Z</time>
      </trkpt>
      <trkpt lat="46.75988" lon="5.43472">
        <ele>229</ele>
        <time>2022-03-21T13:37:29Z</time>
      </trkpt>
      <trkpt lat="46.75983" lon="5.43476">
        <ele>229</ele>
        <time>2022-03-21T13:37:30Z</time>
      </trkpt>
      <trkpt lat="46.75978" lon="5.4348">
        <ele>229</ele>
        <time>2022-03-21T13:37:31Z</time>
      </trkpt>
      <trkpt lat="46.75972" lon="5.43483">
        <ele>229</ele>
        <time>2022-03-21T13:37:32Z</time>
      </trkpt>
      <trkpt lat="46.75967" lon="5.43487">
        <ele>229</ele>
        <time>2022-03-21T13:37:33Z</time>
      </trkpt>
      <trkpt lat="46.75961" lon="5.4349">
        <ele>229.2</ele>
        <time>2022-03-21T13:37:34Z</time>
      </trkpt>
      <trkpt lat="46.75956" lon="5.43494">
        <ele>229.2</ele>
        <time>2022-03-21T13:37:35Z</time>
      </trkpt>
      <trkpt lat="46.75951" lon="5.43497">
        <ele>229.2</ele>
        <time>2022-03-21T13:37:36Z</time>
      </trkpt>
      <trkpt lat="46.75945" lon="5.43501">
        <ele>229.2</ele>
        <time>2022-03-21T13:37:37Z</time>
      </trkpt>
      <trkpt lat="46.7594" lon="5.43505">
        <ele>229.2</ele>
        <time>2022-03-21T13:37:38Z</time>
      </trkpt>
      <trkpt lat="46.75935" lon="5.43509">
        <ele>229.2</ele>
        <time>2022-03-21T13:37:39Z</time>
      </trkpt>
      <trkpt lat="46.75929" lon="5.43512">
        <ele>229</ele>
        <time>2022-03-21T13:37:40Z</time>
      </trkpt>
      <trkpt lat="46.75924" lon="5.43516">
        <ele>229</ele>
        <time>2022-03-21T13:37:41Z</time>
      </trkpt>
      <trkpt lat="46.75918" lon="5.4352">
        <ele>229</ele>
        <time>2022-03-21T13:37:42Z</time>
      </trkpt>
      <trkpt lat="46.75913" lon="5.43523">
        <ele>229</ele>
        <time>2022-03-21T13:37:43Z</time>
      </trkpt>
      <trkpt lat="46.75908" lon="5.43527">
        <ele>229</ele>
        <time>2022-03-21T13:37:44Z</time>
      </trkpt>
      <trkpt lat="46.75902" lon="5.43531">
        <ele>229</ele>
        <time>2022-03-21T13:37:45Z</time>
      </trkpt>
      <trkpt lat="46.75897" lon="5.43535">
        <ele>229</ele>
        <time>2022-03-21T13:37:46Z</time>
      </trkpt>
      <trkpt lat="46.75891" lon="5.43538">
        <ele>229</ele>
        <time>2022-03-21T13:37:47Z</time>
      </trkpt>
      <trkpt lat="46.75886" lon="5.43542">
        <ele>229</ele>
        <time>2022-03-21T13:37:48Z</time>
      </trkpt>
      <trkpt lat="46.7588" lon="5.43546">
        <ele>229</ele>
        <time>2022-03-21T13:37:49Z</time>
      </trkpt>
      <trkpt lat="46.75874" lon="5.4355">
        <ele>229</ele>
        <time>2022-03-21T13:37:50Z</time>
      </trkpt>
      <trkpt lat="46.75869" lon="5.43554">
        <ele>229</ele>
        <time>2022-03-21T13:37:51Z</time>
      </trkpt>
      <trkpt lat="46.75863" lon="5.43558">
        <ele>229</ele>
        <time>2022-03-21T13:37:52Z</time>
      </trkpt>
      <trkpt lat="46.75857" lon="5.43562">
        <ele>229.2</ele>
        <time>2022-03-21T13:37:53Z</time>
      </trkpt>
      <trkpt lat="46.75852" lon="5.43566">
        <ele>229.2</ele>
        <time>2022-03-21T13:37:54Z</time>
      </trkpt>
      <trkpt lat="46.75846" lon="5.4357">
        <ele>229.2</ele>
        <time>2022-03-21T13:37:55Z</time>
      </trkpt>
      <trkpt lat="46.75841" lon="5.43574">
        <ele>229.2</ele>
        <time>2022-03-21T13:37:56Z</time>
      </trkpt>
      <trkpt lat="46.75835" lon="5.43577">
        <ele>229.2</ele>
        <time>2022-03-21T13:37:57Z</time>
      </trkpt>
      <trkpt lat="46.75829" lon="5.43581">
        <ele>229.2</ele>
        <time>2022-03-21T13:37:58Z</time>
      </trkpt>
      <trkpt lat="46.75824" lon="5.43585">
        <ele>229.2</ele>
        <time>2022-03-21T13:37:59Z</time>
      </trkpt>
      <trkpt lat="46.75818" lon="5.43589">
        <ele>229.2</ele>
        <time>2022-03-21T13:38:00Z</time>
      </trkpt>
      <trkpt lat="46.75812" lon="5.43594">
        <ele>229.2</ele>
        <time>2022-03-21T13:38:01Z</time>
      </trkpt>
      <trkpt lat="46.75806" lon="5.43597">
        <ele>229.2</ele>
        <time>2022-03-21T13:38:02Z</time>
      </trkpt>
      <trkpt lat="46.758" lon="5.43601">
        <ele>229.2</ele>
        <time>2022-03-21T13:38:03Z</time>
      </trkpt>
      <trkpt lat="46.75795" lon="5.43605">
        <ele>229.2</ele>
        <time>2022-03-21T13:38:04Z</time>
      </trkpt>
      <trkpt lat="46.75789" lon="5.43609">
        <ele>229</ele>
        <time>2022-03-21T13:38:05Z</time>
      </trkpt>
      <trkpt lat="46.75783" lon="5.43613">
        <ele>229</ele>
        <time>2022-03-21T13:38:06Z</time>
      </trkpt>
      <trkpt lat="46.75777" lon="5.43616">
        <ele>229</ele>
        <time>2022-03-21T13:38:07Z</time>
      </trkpt>
      <trkpt lat="46.75771" lon="5.4362">
        <ele>229</ele>
        <time>2022-03-21T13:38:08Z</time>
      </trkpt>
      <trkpt lat="46.75765" lon="5.43624">
        <ele>229</ele>
        <time>2022-03-21T13:38:09Z</time>
      </trkpt>
      <trkpt lat="46.7576" lon="5.43628">
        <ele>229</ele>
        <time>2022-03-21T13:38:10Z</time>
      </trkpt>
      <trkpt lat="46.75754" lon="5.43632">
        <ele>229</ele>
        <time>2022-03-21T13:38:11Z</time>
      </trkpt>
      <trkpt lat="46.75748" lon="5.43636">
        <ele>229</ele>
        <time>2022-03-21T13:38:12Z</time>
      </trkpt>
      <trkpt lat="46.75743" lon="5.43639">
        <ele>229</ele>
        <time>2022-03-21T13:38:13Z</time>
      </trkpt>
      <trkpt lat="46.75737" lon="5.43643">
        <ele>229</ele>
        <time>2022-03-21T13:38:14Z</time>
      </trkpt>
      <trkpt lat="46.75732" lon="5.43647">
        <ele>229</ele>
        <time>2022-03-21T13:38:15Z</time>
      </trkpt>
      <trkpt lat="46.75726" lon="5.43651">
        <ele>229.2</ele>
        <time>2022-03-21T13:38:16Z</time>
      </trkpt>
      <trkpt lat="46.75721" lon="5.43655">
        <ele>229.2</ele>
        <time>2022-03-21T13:38:17Z</time>
      </trkpt>
      <trkpt lat="46.75715" lon="5.43659">
        <ele>229.2</ele>
        <time>2022-03-21T13:38:18Z</time>
      </trkpt>
      <trkpt lat="46.75709" lon="5.43663">
        <ele>229.2</ele>
        <time>2022-03-21T13:38:19Z</time>
      </trkpt>
      <trkpt lat="46.75704" lon="5.43666">
        <ele>229.2</ele>
        <time>2022-03-21T13:38:20Z</time>
      </trkpt>
      <trkpt lat="46.75698" lon="5.4367">
        <ele>229.2</ele>
        <time>2022-03-21T13:38:21Z</time>
      </trkpt>
      <trkpt lat="46.75692" lon="5.43674">
        <ele>229.2</ele>
        <time>2022-03-21T13:38:22Z</time>
      </trkpt>
      <trkpt lat="46.75687" lon="5.43678">
        <ele>229.2</ele>
        <time>2022-03-21T13:38:23Z</time>
      </trkpt>
      <trkpt lat="46.75681" lon="5.43681">
        <ele>229.2</ele>
        <time>2022-03-21T13:38:24Z</time>
      </trkpt>
      <trkpt lat="46.75675" lon="5.43685">
        <ele>229.2</ele>
        <time>2022-03-21T13:38:25Z</time>
      </trkpt>
      <trkpt lat="46.7567" lon="5.43689">
        <ele>229.2</ele>
        <time>2022-03-21T13:38:26Z</time>
      </trkpt>
      <trkpt lat="46.75664" lon="5.43694">
        <ele>229.2</ele>
        <time>2022-03-21T13:38:27Z</time>
      </trkpt>
      <trkpt lat="46.75658" lon="5.43698">
        <ele>229.2</ele>
        <time>2022-03-21T13:38:28Z</time>
      </trkpt>
      <trkpt lat="46.75652" lon="5.43702">
        <ele>229.2</ele>
        <time>2022-03-21T13:38:29Z</time>
      </trkpt>
      <trkpt lat="46.75646" lon="5.43706">
        <ele>229.2</ele>
        <time>2022-03-21T13:38:30Z</time>
      </trkpt>
      <trkpt lat="46.75641" lon="5.4371">
        <ele>229.2</ele>
        <time>2022-03-21T13:38:31Z</time>
      </trkpt>
      <trkpt lat="46.75635" lon="5.43714">
        <ele>229.2</ele>
        <time>2022-03-21T13:38:32Z</time>
      </trkpt>
      <trkpt lat="46.75629" lon="5.43718">
        <ele>229.2</ele>
        <time>2022-03-21T13:38:33Z</time>
      </trkpt>
      <trkpt lat="46.75623" lon="5.43722">
        <ele>229.2</ele>
        <time>2022-03-21T13:38:34Z</time>
      </trkpt>
      <trkpt lat="46.75617" lon="5.43726">
        <ele>229.2</ele>
        <time>2022-03-21T13:38:35Z</time>
      </trkpt>
      <trkpt lat="46.75611" lon="5.4373">
        <ele>228.8</ele>
        <time>2022-03-21T13:38:36Z</time>
      </trkpt>
      <trkpt lat="46.75605" lon="5.43734">
        <ele>228.8</ele>
        <time>2022-03-21T13:38:37Z</time>
      </trkpt>
      <trkpt lat="46.75599" lon="5.43738">
        <ele>228.8</ele>
        <time>2022-03-21T13:38:38Z</time>
      </trkpt>
      <trkpt lat="46.75593" lon="5.43743">
        <ele>228.8</ele>
        <time>2022-03-21T13:38:39Z</time>
      </trkpt>
      <trkpt lat="46.75587" lon="5.43747">
        <ele>228.8</ele>
        <time>2022-03-21T13:38:40Z</time>
      </trkpt>
      <trkpt lat="46.75581" lon="5.43751">
        <ele>228.8</ele>
        <time>2022-03-21T13:38:41Z</time>
      </trkpt>
      <trkpt lat="46.75575" lon="5.43755">
        <ele>228.8</ele>
        <time>2022-03-21T13:38:42Z</time>
      </trkpt>
      <trkpt lat="46.75569" lon="5.43759">
        <ele>228.8</ele>
        <time>2022-03-21T13:38:43Z</time>
      </trkpt>
      <trkpt lat="46.75564" lon="5.43763">
        <ele>228.8</ele>
        <time>2022-03-21T13:38:44Z</time>
      </trkpt>
      <trkpt lat="46.75558" lon="5.43767">
        <ele>228.8</ele>
        <time>2022-03-21T13:38:45Z</time>
      </trkpt>
      <trkpt lat="46.75552" lon="5.43771">
        <ele>228.8</ele>
        <time>2022-03-21T13:38:46Z</time>
      </trkpt>
      <trkpt lat="46.75547" lon="5.43775">
        <ele>228.8</ele>
        <time>2022-03-21T13:38:47Z</time>
      </trkpt>
      <trkpt lat="46.75541" lon="5.43779">
        <ele>228.8</ele>
        <time>2022-03-21T13:38:48Z</time>
      </trkpt>
      <trkpt lat="46.75535" lon="5.43783">
        <ele>228.6</ele>
        <time>2022-03-21T13:38:49Z</time>
      </trkpt>
      <trkpt lat="46.7553" lon="5.43786">
        <ele>228.6</ele>
        <time>2022-03-21T13:38:50Z</time>
      </trkpt>
      <trkpt lat="46.75524" lon="5.4379">
        <ele>228.6</ele>
        <time>2022-03-21T13:38:51Z</time>
      </trkpt>
      <trkpt lat="46.75519" lon="5.43794">
        <ele>228.6</ele>
        <time>2022-03-21T13:38:52Z</time>
      </trkpt>
      <trkpt lat="46.75514" lon="5.43798">
        <ele>228.6</ele>
        <time>2022-03-21T13:38:53Z</time>
      </trkpt>
      <trkpt lat="46.75508" lon="5.43801">
        <ele>228.6</ele>
        <time>2022-03-21T13:38:54Z</time>
      </trkpt>
      <trkpt lat="46.75503" lon="5.43805">
        <ele>228.6</ele>
        <time>2022-03-21T13:38:55Z</time>
      </trkpt>
      <trkpt lat="46.75498" lon="5.43809">
        <ele>228.6</ele>
        <time>2022-03-21T13:38:56Z</time>
      </trkpt>
      <trkpt lat="46.75492" lon="5.43813">
        <ele>228.6</ele>
        <time>2022-03-21T13:38:57Z</time>
      </trkpt>
      <trkpt lat="46.75487" lon="5.43816">
        <ele>228.8</ele>
        <time>2022-03-21T13:38:58Z</time>
      </trkpt>
      <trkpt lat="46.75481" lon="5.4382">
        <ele>228.8</ele>
        <time>2022-03-21T13:38:59Z</time>
      </trkpt>
      <trkpt lat="46.75476" lon="5.43824">
        <ele>228.8</ele>
        <time>2022-03-21T13:39:00Z</time>
      </trkpt>
      <trkpt lat="46.7547" lon="5.43828">
        <ele>228.8</ele>
        <time>2022-03-21T13:39:01Z</time>
      </trkpt>
      <trkpt lat="46.75464" lon="5.43831">
        <ele>228.8</ele>
        <time>2022-03-21T13:39:02Z</time>
      </trkpt>
      <trkpt lat="46.75458" lon="5.43835">
        <ele>228.8</ele>
        <time>2022-03-21T13:39:03Z</time>
      </trkpt>
      <trkpt lat="46.75453" lon="5.43839">
        <ele>228.8</ele>
        <time>2022-03-21T13:39:04Z</time>
      </trkpt>
      <trkpt lat="46.75447" lon="5.43844">
        <ele>228.8</ele>
        <time>2022-03-21T13:39:05Z</time>
      </trkpt>
      <trkpt lat="46.75441" lon="5.43848">
        <ele>228.8</ele>
        <time>2022-03-21T13:39:06Z</time>
      </trkpt>
      <trkpt lat="46.75435" lon="5.43852">
        <ele>228.8</ele>
        <time>2022-03-21T13:39:07Z</time>
      </trkpt>
      <trkpt lat="46.75429" lon="5.43856">
        <ele>228.4</ele>
        <time>2022-03-21T13:39:08Z</time>
      </trkpt>
      <trkpt lat="46.75423" lon="5.4386">
        <ele>228.4</ele>
        <time>2022-03-21T13:39:09Z</time>
      </trkpt>
      <trkpt lat="46.75417" lon="5.43864">
        <ele>228.4</ele>
        <time>2022-03-21T13:39:10Z</time>
      </trkpt>
      <trkpt lat="46.75411" lon="5.43869">
        <ele>228.2</ele>
        <time>2022-03-21T13:39:11Z</time>
      </trkpt>
      <trkpt lat="46.75405" lon="5.43873">
        <ele>228.2</ele>
        <time>2022-03-21T13:39:12Z</time>
      </trkpt>
      <trkpt lat="46.75398" lon="5.43877">
        <ele>228.2</ele>
        <time>2022-03-21T13:39:13Z</time>
      </trkpt>
      <trkpt lat="46.75392" lon="5.43881">
        <ele>228.2</ele>
        <time>2022-03-21T13:39:14Z</time>
      </trkpt>
      <trkpt lat="46.75386" lon="5.43885">
        <ele>228.2</ele>
        <time>2022-03-21T13:39:15Z</time>
      </trkpt>
      <trkpt lat="46.7538" lon="5.43889">
        <ele>228.2</ele>
        <time>2022-03-21T13:39:16Z</time>
      </trkpt>
      <trkpt lat="46.75374" lon="5.43893">
        <ele>228.2</ele>
        <time>2022-03-21T13:39:17Z</time>
      </trkpt>
      <trkpt lat="46.75368" lon="5.43897">
        <ele>228.2</ele>
        <time>2022-03-21T13:39:18Z</time>
      </trkpt>
      <trkpt lat="46.75362" lon="5.43901">
        <ele>228.2</ele>
        <time>2022-03-21T13:39:19Z</time>
      </trkpt>
      <trkpt lat="46.75356" lon="5.43906">
        <ele>228.2</ele>
        <time>2022-03-21T13:39:20Z</time>
      </trkpt>
      <trkpt lat="46.7535" lon="5.4391">
        <ele>228.2</ele>
        <time>2022-03-21T13:39:21Z</time>
      </trkpt>
      <trkpt lat="46.75344" lon="5.43914">
        <ele>228.2</ele>
        <time>2022-03-21T13:39:22Z</time>
      </trkpt>
      <trkpt lat="46.75338" lon="5.43918">
        <ele>228.2</ele>
        <time>2022-03-21T13:39:23Z</time>
      </trkpt>
      <trkpt lat="46.75332" lon="5.43922">
        <ele>228.2</ele>
        <time>2022-03-21T13:39:24Z</time>
      </trkpt>
      <trkpt lat="46.75326" lon="5.43926">
        <ele>228.2</ele>
        <time>2022-03-21T13:39:25Z</time>
      </trkpt>
      <trkpt lat="46.7532" lon="5.4393">
        <ele>228.2</ele>
        <time>2022-03-21T13:39:26Z</time>
      </trkpt>
      <trkpt lat="46.75314" lon="5.43935">
        <ele>228.2</ele>
        <time>2022-03-21T13:39:27Z</time>
      </trkpt>
      <trkpt lat="46.75308" lon="5.43939">
        <ele>228.2</ele>
        <time>2022-03-21T13:39:28Z</time>
      </trkpt>
      <trkpt lat="46.75302" lon="5.43943">
        <ele>228.2</ele>
        <time>2022-03-21T13:39:29Z</time>
      </trkpt>
      <trkpt lat="46.75296" lon="5.43947">
        <ele>228.2</ele>
        <time>2022-03-21T13:39:30Z</time>
      </trkpt>
      <trkpt lat="46.7529" lon="5.43952">
        <ele>228.2</ele>
        <time>2022-03-21T13:39:31Z</time>
      </trkpt>
      <trkpt lat="46.75284" lon="5.43956">
        <ele>228.2</ele>
        <time>2022-03-21T13:39:32Z</time>
      </trkpt>
      <trkpt lat="46.75278" lon="5.4396">
        <ele>228.2</ele>
        <time>2022-03-21T13:39:33Z</time>
      </trkpt>
      <trkpt lat="46.75272" lon="5.43964">
        <ele>228.2</ele>
        <time>2022-03-21T13:39:34Z</time>
      </trkpt>
      <trkpt lat="46.75266" lon="5.43968">
        <ele>228.2</ele>
        <time>2022-03-21T13:39:35Z</time>
      </trkpt>
      <trkpt lat="46.75259" lon="5.43972">
        <ele>228.2</ele>
        <time>2022-03-21T13:39:36Z</time>
      </trkpt>
      <trkpt lat="46.75253" lon="5.43977">
        <ele>228.2</ele>
        <time>2022-03-21T13:39:37Z</time>
      </trkpt>
      <trkpt lat="46.75247" lon="5.43981">
        <ele>228.2</ele>
        <time>2022-03-21T13:39:38Z</time>
      </trkpt>
      <trkpt lat="46.75241" lon="5.43985">
        <ele>228</ele>
        <time>2022-03-21T13:39:39Z</time>
      </trkpt>
      <trkpt lat="46.75234" lon="5.43989">
        <ele>228</ele>
        <time>2022-03-21T13:39:40Z</time>
      </trkpt>
      <trkpt lat="46.75227" lon="5.43994">
        <ele>227.6</ele>
        <time>2022-03-21T13:39:41Z</time>
      </trkpt>
      <trkpt lat="46.75221" lon="5.43999">
        <ele>227.6</ele>
        <time>2022-03-21T13:39:42Z</time>
      </trkpt>
      <trkpt lat="46.75214" lon="5.44004">
        <ele>227.4</ele>
        <time>2022-03-21T13:39:43Z</time>
      </trkpt>
      <trkpt lat="46.75207" lon="5.44009">
        <ele>227.4</ele>
        <time>2022-03-21T13:39:44Z</time>
      </trkpt>
      <trkpt lat="46.752" lon="5.44014">
        <ele>227</ele>
        <time>2022-03-21T13:39:45Z</time>
      </trkpt>
      <trkpt lat="46.75193" lon="5.44019">
        <ele>226.8</ele>
        <time>2022-03-21T13:39:46Z</time>
      </trkpt>
      <trkpt lat="46.75186" lon="5.44023">
        <ele>226.6</ele>
        <time>2022-03-21T13:39:47Z</time>
      </trkpt>
      <trkpt lat="46.75179" lon="5.44028">
        <ele>226.6</ele>
        <time>2022-03-21T13:39:48Z</time>
      </trkpt>
      <trkpt lat="46.75172" lon="5.44033">
        <ele>226.2</ele>
        <time>2022-03-21T13:39:49Z</time>
      </trkpt>
      <trkpt lat="46.75165" lon="5.44037">
        <ele>226</ele>
        <time>2022-03-21T13:39:50Z</time>
      </trkpt>
      <trkpt lat="46.75158" lon="5.44042">
        <ele>226</ele>
        <time>2022-03-21T13:39:51Z</time>
      </trkpt>
      <trkpt lat="46.75152" lon="5.44047">
        <ele>225.6</ele>
        <time>2022-03-21T13:39:52Z</time>
      </trkpt>
      <trkpt lat="46.75145" lon="5.44051">
        <ele>225.6</ele>
        <time>2022-03-21T13:39:53Z</time>
      </trkpt>
      <trkpt lat="46.75138" lon="5.44056">
        <ele>225.6</ele>
        <time>2022-03-21T13:39:54Z</time>
      </trkpt>
      <trkpt lat="46.75132" lon="5.4406">
        <ele>225.4</ele>
        <time>2022-03-21T13:39:55Z</time>
      </trkpt>
      <trkpt lat="46.75126" lon="5.44064">
        <ele>225.4</ele>
        <time>2022-03-21T13:39:56Z</time>
      </trkpt>
      <trkpt lat="46.7512" lon="5.44068">
        <ele>225.4</ele>
        <time>2022-03-21T13:39:57Z</time>
      </trkpt>
      <trkpt lat="46.75114" lon="5.44072">
        <ele>225.8</ele>
        <time>2022-03-21T13:39:58Z</time>
      </trkpt>
      <trkpt lat="46.75108" lon="5.44076">
        <ele>225.8</ele>
        <time>2022-03-21T13:39:59Z</time>
      </trkpt>
      <trkpt lat="46.75102" lon="5.44081">
        <ele>225.8</ele>
        <time>2022-03-21T13:40:00Z</time>
      </trkpt>
      <trkpt lat="46.75097" lon="5.44084">
        <ele>226.4</ele>
        <time>2022-03-21T13:40:02Z</time>
      </trkpt>
      <trkpt lat="46.75091" lon="5.44088">
        <ele>226.4</ele>
        <time>2022-03-21T13:40:03Z</time>
      </trkpt>
      <trkpt lat="46.75086" lon="5.44091">
        <ele>226.6</ele>
        <time>2022-03-21T13:40:04Z</time>
      </trkpt>
      <trkpt lat="46.75081" lon="5.44095">
        <ele>226.6</ele>
        <time>2022-03-21T13:40:05Z</time>
      </trkpt>
      <trkpt lat="46.75076" lon="5.44098">
        <ele>226.8</ele>
        <time>2022-03-21T13:40:06Z</time>
      </trkpt>
      <trkpt lat="46.75071" lon="5.44102">
        <ele>227</ele>
        <time>2022-03-21T13:40:07Z</time>
      </trkpt>
      <trkpt lat="46.75066" lon="5.44106">
        <ele>227</ele>
        <time>2022-03-21T13:40:08Z</time>
      </trkpt>
      <trkpt lat="46.75062" lon="5.44109">
        <ele>227.4</ele>
        <time>2022-03-21T13:40:09Z</time>
      </trkpt>
      <trkpt lat="46.75057" lon="5.44112">
        <ele>227.4</ele>
        <time>2022-03-21T13:40:10Z</time>
      </trkpt>
      <trkpt lat="46.75052" lon="5.44115">
        <ele>227.8</ele>
        <time>2022-03-21T13:40:11Z</time>
      </trkpt>
      <trkpt lat="46.75048" lon="5.44118">
        <ele>227.8</ele>
        <time>2022-03-21T13:40:12Z</time>
      </trkpt>
      <trkpt lat="46.75043" lon="5.44121">
        <ele>228</ele>
        <time>2022-03-21T13:40:13Z</time>
      </trkpt>
      <trkpt lat="46.75039" lon="5.44124">
        <ele>228</ele>
        <time>2022-03-21T13:40:14Z</time>
      </trkpt>
      <trkpt lat="46.75034" lon="5.44127">
        <ele>228.4</ele>
        <time>2022-03-21T13:40:15Z</time>
      </trkpt>
      <trkpt lat="46.7503" lon="5.4413">
        <ele>228.4</ele>
        <time>2022-03-21T13:40:16Z</time>
      </trkpt>
      <trkpt lat="46.75026" lon="5.44133">
        <ele>228.6</ele>
        <time>2022-03-21T13:40:17Z</time>
      </trkpt>
      <trkpt lat="46.75021" lon="5.44136">
        <ele>228.6</ele>
        <time>2022-03-21T13:40:18Z</time>
      </trkpt>
      <trkpt lat="46.75017" lon="5.44138">
        <ele>228.6</ele>
        <time>2022-03-21T13:40:19Z</time>
      </trkpt>
      <trkpt lat="46.75012" lon="5.44141">
        <ele>228.8</ele>
        <time>2022-03-21T13:40:20Z</time>
      </trkpt>
      <trkpt lat="46.75008" lon="5.44144">
        <ele>228.8</ele>
        <time>2022-03-21T13:40:21Z</time>
      </trkpt>
      <trkpt lat="46.75003" lon="5.44147">
        <ele>229.2</ele>
        <time>2022-03-21T13:40:22Z</time>
      </trkpt>
      <trkpt lat="46.74999" lon="5.44151">
        <ele>229.2</ele>
        <time>2022-03-21T13:40:23Z</time>
      </trkpt>
      <trkpt lat="46.74995" lon="5.44154">
        <ele>229.4</ele>
        <time>2022-03-21T13:40:24Z</time>
      </trkpt>
      <trkpt lat="46.7499" lon="5.44157">
        <ele>229.4</ele>
        <time>2022-03-21T13:40:25Z</time>
      </trkpt>
      <trkpt lat="46.74986" lon="5.4416">
        <ele>229.6</ele>
        <time>2022-03-21T13:40:26Z</time>
      </trkpt>
      <trkpt lat="46.74981" lon="5.44163">
        <ele>229.6</ele>
        <time>2022-03-21T13:40:27Z</time>
      </trkpt>
      <trkpt lat="46.74976" lon="5.44166">
        <ele>229.8</ele>
        <time>2022-03-21T13:40:28Z</time>
      </trkpt>
      <trkpt lat="46.74971" lon="5.44169">
        <ele>229.8</ele>
        <time>2022-03-21T13:40:29Z</time>
      </trkpt>
      <trkpt lat="46.74967" lon="5.44173">
        <ele>229.8</ele>
        <time>2022-03-21T13:40:30Z</time>
      </trkpt>
      <trkpt lat="46.74962" lon="5.44176">
        <ele>230.2</ele>
        <time>2022-03-21T13:40:31Z</time>
      </trkpt>
      <trkpt lat="46.74957" lon="5.4418">
        <ele>230.2</ele>
        <time>2022-03-21T13:40:32Z</time>
      </trkpt>
      <trkpt lat="46.74952" lon="5.44183">
        <ele>230.2</ele>
        <time>2022-03-21T13:40:33Z</time>
      </trkpt>
      <trkpt lat="46.74947" lon="5.44186">
        <ele>230.4</ele>
        <time>2022-03-21T13:40:34Z</time>
      </trkpt>
      <trkpt lat="46.74942" lon="5.44189">
        <ele>230.4</ele>
        <time>2022-03-21T13:40:35Z</time>
      </trkpt>
      <trkpt lat="46.74937" lon="5.44193">
        <ele>230.6</ele>
        <time>2022-03-21T13:40:36Z</time>
      </trkpt>
      <trkpt lat="46.74932" lon="5.44196">
        <ele>230.6</ele>
        <time>2022-03-21T13:40:37Z</time>
      </trkpt>
      <trkpt lat="46.74927" lon="5.442">
        <ele>230.6</ele>
        <time>2022-03-21T13:40:38Z</time>
      </trkpt>
      <trkpt lat="46.74922" lon="5.44203">
        <ele>230.6</ele>
        <time>2022-03-21T13:40:39Z</time>
      </trkpt>
      <trkpt lat="46.74917" lon="5.44206">
        <ele>230.6</ele>
        <time>2022-03-21T13:40:40Z</time>
      </trkpt>
      <trkpt lat="46.74912" lon="5.44209">
        <ele>230.6</ele>
        <time>2022-03-21T13:40:41Z</time>
      </trkpt>
      <trkpt lat="46.74906" lon="5.44213">
        <ele>230.8</ele>
        <time>2022-03-21T13:40:42Z</time>
      </trkpt>
      <trkpt lat="46.74901" lon="5.44217">
        <ele>230.8</ele>
        <time>2022-03-21T13:40:43Z</time>
      </trkpt>
      <trkpt lat="46.74896" lon="5.4422">
        <ele>230.8</ele>
        <time>2022-03-21T13:40:44Z</time>
      </trkpt>
      <trkpt lat="46.74891" lon="5.44224">
        <ele>230.8</ele>
        <time>2022-03-21T13:40:45Z</time>
      </trkpt>
      <trkpt lat="46.74886" lon="5.44227">
        <ele>230.8</ele>
        <time>2022-03-21T13:40:46Z</time>
      </trkpt>
      <trkpt lat="46.7488" lon="5.4423">
        <ele>230.8</ele>
        <time>2022-03-21T13:40:47Z</time>
      </trkpt>
      <trkpt lat="46.74875" lon="5.44234">
        <ele>230.8</ele>
        <time>2022-03-21T13:40:48Z</time>
      </trkpt>
      <trkpt lat="46.7487" lon="5.44238">
        <ele>230.8</ele>
        <time>2022-03-21T13:40:49Z</time>
      </trkpt>
      <trkpt lat="46.74864" lon="5.44241">
        <ele>230.8</ele>
        <time>2022-03-21T13:40:50Z</time>
      </trkpt>
      <trkpt lat="46.74854" lon="5.44249">
        <ele>230.8</ele>
        <time>2022-03-21T13:40:51Z</time>
      </trkpt>
      <trkpt lat="46.74849" lon="5.44253">
        <ele>230.8</ele>
        <time>2022-03-21T13:40:52Z</time>
      </trkpt>
      <trkpt lat="46.74844" lon="5.44256">
        <ele>230.8</ele>
        <time>2022-03-21T13:40:53Z</time>
      </trkpt>
      <trkpt lat="46.74838" lon="5.4426">
        <ele>230.8</ele>
        <time>2022-03-21T13:40:54Z</time>
      </trkpt>
      <trkpt lat="46.74833" lon="5.44263">
        <ele>230.6</ele>
        <time>2022-03-21T13:40:55Z</time>
      </trkpt>
      <trkpt lat="46.74827" lon="5.44267">
        <ele>230.6</ele>
        <time>2022-03-21T13:40:56Z</time>
      </trkpt>
      <trkpt lat="46.74822" lon="5.4427">
        <ele>230.4</ele>
        <time>2022-03-21T13:40:57Z</time>
      </trkpt>
      <trkpt lat="46.74817" lon="5.44274">
        <ele>230.4</ele>
        <time>2022-03-21T13:40:58Z</time>
      </trkpt>
      <trkpt lat="46.74811" lon="5.44278">
        <ele>230</ele>
        <time>2022-03-21T13:40:59Z</time>
      </trkpt>
      <trkpt lat="46.74805" lon="5.44281">
        <ele>229.8</ele>
        <time>2022-03-21T13:41:00Z</time>
      </trkpt>
      <trkpt lat="46.748" lon="5.44286">
        <ele>229.8</ele>
        <time>2022-03-21T13:41:01Z</time>
      </trkpt>
      <trkpt lat="46.74794" lon="5.4429">
        <ele>229.4</ele>
        <time>2022-03-21T13:41:02Z</time>
      </trkpt>
      <trkpt lat="46.74788" lon="5.44294">
        <ele>229.2</ele>
        <time>2022-03-21T13:41:03Z</time>
      </trkpt>
      <trkpt lat="46.74781" lon="5.44298">
        <ele>228.8</ele>
        <time>2022-03-21T13:41:04Z</time>
      </trkpt>
      <trkpt lat="46.74775" lon="5.44303">
        <ele>228.8</ele>
        <time>2022-03-21T13:41:05Z</time>
      </trkpt>
      <trkpt lat="46.74768" lon="5.44308">
        <ele>228.4</ele>
        <time>2022-03-21T13:41:06Z</time>
      </trkpt>
      <trkpt lat="46.74762" lon="5.44313">
        <ele>228.2</ele>
        <time>2022-03-21T13:41:07Z</time>
      </trkpt>
      <trkpt lat="46.74755" lon="5.44318">
        <ele>227.8</ele>
        <time>2022-03-21T13:41:08Z</time>
      </trkpt>
      <trkpt lat="46.74748" lon="5.44323">
        <ele>227.6</ele>
        <time>2022-03-21T13:41:09Z</time>
      </trkpt>
      <trkpt lat="46.74741" lon="5.44328">
        <ele>227.2</ele>
        <time>2022-03-21T13:41:10Z</time>
      </trkpt>
      <trkpt lat="46.74734" lon="5.44335">
        <ele>227</ele>
        <time>2022-03-21T13:41:11Z</time>
      </trkpt>
      <trkpt lat="46.74727" lon="5.44343">
        <ele>226.6</ele>
        <time>2022-03-21T13:41:12Z</time>
      </trkpt>
      <trkpt lat="46.74722" lon="5.44353">
        <ele>226.2</ele>
        <time>2022-03-21T13:41:13Z</time>
      </trkpt>
      <trkpt lat="46.74716" lon="5.44363">
        <ele>225.8</ele>
        <time>2022-03-21T13:41:14Z</time>
      </trkpt>
      <trkpt lat="46.74711" lon="5.44376">
        <ele>225.4</ele>
        <time>2022-03-21T13:41:15Z</time>
      </trkpt>
      <trkpt lat="46.74706" lon="5.44388">
        <ele>224.8</ele>
        <time>2022-03-21T13:41:16Z</time>
      </trkpt>
      <trkpt lat="46.747" lon="5.444">
        <ele>224.2</ele>
        <time>2022-03-21T13:41:17Z</time>
      </trkpt>
      <trkpt lat="46.74695" lon="5.44413">
        <ele>223.6</ele>
        <time>2022-03-21T13:41:18Z</time>
      </trkpt>
      <trkpt lat="46.74689" lon="5.44425">
        <ele>222.8</ele>
        <time>2022-03-21T13:41:19Z</time>
      </trkpt>
      <trkpt lat="46.74684" lon="5.44437">
        <ele>222.4</ele>
        <time>2022-03-21T13:41:20Z</time>
      </trkpt>
      <trkpt lat="46.74678" lon="5.4445">
        <ele>221.8</ele>
        <time>2022-03-21T13:41:21Z</time>
      </trkpt>
      <trkpt lat="46.74673" lon="5.44463">
        <ele>221.2</ele>
        <time>2022-03-21T13:41:22Z</time>
      </trkpt>
      <trkpt lat="46.74668" lon="5.44476">
        <ele>220.6</ele>
        <time>2022-03-21T13:41:23Z</time>
      </trkpt>
      <trkpt lat="46.74662" lon="5.4449">
        <ele>220</ele>
        <time>2022-03-21T13:41:24Z</time>
      </trkpt>
      <trkpt lat="46.74656" lon="5.44503">
        <ele>219.4</ele>
        <time>2022-03-21T13:41:25Z</time>
      </trkpt>
      <trkpt lat="46.7465" lon="5.44516">
        <ele>218.8</ele>
        <time>2022-03-21T13:41:26Z</time>
      </trkpt>
      <trkpt lat="46.74644" lon="5.44529">
        <ele>218.2</ele>
        <time>2022-03-21T13:41:27Z</time>
      </trkpt>
      <trkpt lat="46.74638" lon="5.44543">
        <ele>217.4</ele>
        <time>2022-03-21T13:41:28Z</time>
      </trkpt>
      <trkpt lat="46.74631" lon="5.44557">
        <ele>216.8</ele>
        <time>2022-03-21T13:41:29Z</time>
      </trkpt>
      <trkpt lat="46.74625" lon="5.4457">
        <ele>216.2</ele>
        <time>2022-03-21T13:41:30Z</time>
      </trkpt>
      <trkpt lat="46.74621" lon="5.44584">
        <ele>215.8</ele>
        <time>2022-03-21T13:41:31Z</time>
      </trkpt>
      <trkpt lat="46.74616" lon="5.44596">
        <ele>215.8</ele>
        <time>2022-03-21T13:41:32Z</time>
      </trkpt>
      <trkpt lat="46.74611" lon="5.44608">
        <ele>215.2</ele>
        <time>2022-03-21T13:41:33Z</time>
      </trkpt>
      <trkpt lat="46.74607" lon="5.44619">
        <ele>214.4</ele>
        <time>2022-03-21T13:41:34Z</time>
      </trkpt>
      <trkpt lat="46.74602" lon="5.44629">
        <ele>214.4</ele>
        <time>2022-03-21T13:41:35Z</time>
      </trkpt>
      <trkpt lat="46.74598" lon="5.44639">
        <ele>214</ele>
        <time>2022-03-21T13:41:36Z</time>
      </trkpt>
      <trkpt lat="46.74594" lon="5.44649">
        <ele>213.6</ele>
        <time>2022-03-21T13:41:37Z</time>
      </trkpt>
      <trkpt lat="46.7459" lon="5.44659">
        <ele>213.2</ele>
        <time>2022-03-21T13:41:38Z</time>
      </trkpt>
      <trkpt lat="46.74586" lon="5.44668">
        <ele>212.8</ele>
        <time>2022-03-21T13:41:39Z</time>
      </trkpt>
      <trkpt lat="46.74582" lon="5.44676">
        <ele>212.6</ele>
        <time>2022-03-21T13:41:40Z</time>
      </trkpt>
      <trkpt lat="46.74579" lon="5.44682">
        <ele>212.4</ele>
        <time>2022-03-21T13:41:41Z</time>
      </trkpt>
      <trkpt lat="46.74576" lon="5.44689">
        <ele>212.4</ele>
        <time>2022-03-21T13:41:42Z</time>
      </trkpt>
      <trkpt lat="46.74573" lon="5.44694">
        <ele>212.2</ele>
        <time>2022-03-21T13:41:43Z</time>
      </trkpt>
      <trkpt lat="46.74571" lon="5.44698">
        <ele>212.2</ele>
        <time>2022-03-21T13:41:44Z</time>
      </trkpt>
      <trkpt lat="46.74568" lon="5.447">
        <ele>212.2</ele>
        <time>2022-03-21T13:41:45Z</time>
      </trkpt>
      <trkpt lat="46.74565" lon="5.44701">
        <ele>211.8</ele>
        <time>2022-03-21T13:41:46Z</time>
      </trkpt>
      <trkpt lat="46.74562" lon="5.44702">
        <ele>211.8</ele>
        <time>2022-03-21T13:41:47Z</time>
      </trkpt>
      <trkpt lat="46.74559" lon="5.44703">
        <ele>211.8</ele>
        <time>2022-03-21T13:41:48Z</time>
      </trkpt>
      <trkpt lat="46.74557" lon="5.44703">
        <ele>211.6</ele>
        <time>2022-03-21T13:41:49Z</time>
      </trkpt>
      <trkpt lat="46.74555" lon="5.44703">
        <ele>211.6</ele>
        <time>2022-03-21T13:41:50Z</time>
      </trkpt>
      <trkpt lat="46.74553" lon="5.44703">
        <ele>211.6</ele>
        <time>2022-03-21T13:41:51Z</time>
      </trkpt>
      <trkpt lat="46.74551" lon="5.44704">
        <ele>211.6</ele>
        <time>2022-03-21T13:41:52Z</time>
      </trkpt>
      <trkpt lat="46.74548" lon="5.44705">
        <ele>211.6</ele>
        <time>2022-03-21T13:41:53Z</time>
      </trkpt>
      <trkpt lat="46.74545" lon="5.44707">
        <ele>211.6</ele>
        <time>2022-03-21T13:41:54Z</time>
      </trkpt>
      <trkpt lat="46.74543" lon="5.44712">
        <ele>211.4</ele>
        <time>2022-03-21T13:41:55Z</time>
      </trkpt>
      <trkpt lat="46.74542" lon="5.44718">
        <ele>211.4</ele>
        <time>2022-03-21T13:41:56Z</time>
      </trkpt>
      <trkpt lat="46.74542" lon="5.44725">
        <ele>211.4</ele>
        <time>2022-03-21T13:41:57Z</time>
      </trkpt>
      <trkpt lat="46.74543" lon="5.44732">
        <ele>211.4</ele>
        <time>2022-03-21T13:41:58Z</time>
      </trkpt>
      <trkpt lat="46.74543" lon="5.44739">
        <ele>211.4</ele>
        <time>2022-03-21T13:41:59Z</time>
      </trkpt>
      <trkpt lat="46.74543" lon="5.44747">
        <ele>211.4</ele>
        <time>2022-03-21T13:42:00Z</time>
      </trkpt>
      <trkpt lat="46.74543" lon="5.44754">
        <ele>211.4</ele>
        <time>2022-03-21T13:42:01Z</time>
      </trkpt>
      <trkpt lat="46.74543" lon="5.44762">
        <ele>211.4</ele>
        <time>2022-03-21T13:42:02Z</time>
      </trkpt>
      <trkpt lat="46.74543" lon="5.4477">
        <ele>211.6</ele>
        <time>2022-03-21T13:42:03Z</time>
      </trkpt>
      <trkpt lat="46.74543" lon="5.44778">
        <ele>211.6</ele>
        <time>2022-03-21T13:42:04Z</time>
      </trkpt>
      <trkpt lat="46.74543" lon="5.44786">
        <ele>211.6</ele>
        <time>2022-03-21T13:42:05Z</time>
      </trkpt>
      <trkpt lat="46.74543" lon="5.44795">
        <ele>211.6</ele>
        <time>2022-03-21T13:42:06Z</time>
      </trkpt>
      <trkpt lat="46.74543" lon="5.44804">
        <ele>211.6</ele>
        <time>2022-03-21T13:42:07Z</time>
      </trkpt>
      <trkpt lat="46.74543" lon="5.44812">
        <ele>211.6</ele>
        <time>2022-03-21T13:42:08Z</time>
      </trkpt>
      <trkpt lat="46.74543" lon="5.44821">
        <ele>211.6</ele>
        <time>2022-03-21T13:42:09Z</time>
      </trkpt>
      <trkpt lat="46.74543" lon="5.4483">
        <ele>211.6</ele>
        <time>2022-03-21T13:42:10Z</time>
      </trkpt>
      <trkpt lat="46.74543" lon="5.44839">
        <ele>211.8</ele>
        <time>2022-03-21T13:42:11Z</time>
      </trkpt>
      <trkpt lat="46.74543" lon="5.44847">
        <ele>211.8</ele>
        <time>2022-03-21T13:42:12Z</time>
      </trkpt>
      <trkpt lat="46.74543" lon="5.44856">
        <ele>211.8</ele>
        <time>2022-03-21T13:42:13Z</time>
      </trkpt>
      <trkpt lat="46.74543" lon="5.44865">
        <ele>211.8</ele>
        <time>2022-03-21T13:42:14Z</time>
      </trkpt>
      <trkpt lat="46.74542" lon="5.44873">
        <ele>212</ele>
        <time>2022-03-21T13:42:15Z</time>
      </trkpt>
      <trkpt lat="46.74542" lon="5.44882">
        <ele>212</ele>
        <time>2022-03-21T13:42:16Z</time>
      </trkpt>
      <trkpt lat="46.74542" lon="5.44892">
        <ele>212</ele>
        <time>2022-03-21T13:42:17Z</time>
      </trkpt>
      <trkpt lat="46.74542" lon="5.44901">
        <ele>212</ele>
        <time>2022-03-21T13:42:18Z</time>
      </trkpt>
      <trkpt lat="46.74542" lon="5.44911">
        <ele>212</ele>
        <time>2022-03-21T13:42:19Z</time>
      </trkpt>
      <trkpt lat="46.74542" lon="5.44921">
        <ele>212</ele>
        <time>2022-03-21T13:42:20Z</time>
      </trkpt>
      <trkpt lat="46.74541" lon="5.4493">
        <ele>212</ele>
        <time>2022-03-21T13:42:21Z</time>
      </trkpt>
      <trkpt lat="46.74541" lon="5.4494">
        <ele>212</ele>
        <time>2022-03-21T13:42:22Z</time>
      </trkpt>
      <trkpt lat="46.74541" lon="5.44951">
        <ele>212</ele>
        <time>2022-03-21T13:42:23Z</time>
      </trkpt>
      <trkpt lat="46.74541" lon="5.44961">
        <ele>212</ele>
        <time>2022-03-21T13:42:24Z</time>
      </trkpt>
      <trkpt lat="46.7454" lon="5.44971">
        <ele>212</ele>
        <time>2022-03-21T13:42:25Z</time>
      </trkpt>
      <trkpt lat="46.7454" lon="5.44981">
        <ele>212</ele>
        <time>2022-03-21T13:42:26Z</time>
      </trkpt>
      <trkpt lat="46.7454" lon="5.44991">
        <ele>212</ele>
        <time>2022-03-21T13:42:27Z</time>
      </trkpt>
      <trkpt lat="46.74539" lon="5.45001">
        <ele>211.8</ele>
        <time>2022-03-21T13:42:28Z</time>
      </trkpt>
      <trkpt lat="46.74539" lon="5.45011">
        <ele>211.8</ele>
        <time>2022-03-21T13:42:29Z</time>
      </trkpt>
      <trkpt lat="46.74539" lon="5.45021">
        <ele>211.8</ele>
        <time>2022-03-21T13:42:30Z</time>
      </trkpt>
      <trkpt lat="46.74539" lon="5.45031">
        <ele>211.8</ele>
        <time>2022-03-21T13:42:31Z</time>
      </trkpt>
      <trkpt lat="46.74539" lon="5.45041">
        <ele>211.8</ele>
        <time>2022-03-21T13:42:32Z</time>
      </trkpt>
      <trkpt lat="46.74539" lon="5.45051">
        <ele>211.8</ele>
        <time>2022-03-21T13:42:33Z</time>
      </trkpt>
      <trkpt lat="46.74538" lon="5.45061">
        <ele>211.8</ele>
        <time>2022-03-21T13:42:34Z</time>
      </trkpt>
      <trkpt lat="46.74539" lon="5.45071">
        <ele>211.8</ele>
        <time>2022-03-21T13:42:35Z</time>
      </trkpt>
      <trkpt lat="46.7454" lon="5.4508">
        <ele>211.8</ele>
        <time>2022-03-21T13:42:36Z</time>
      </trkpt>
      <trkpt lat="46.74541" lon="5.45089">
        <ele>211.8</ele>
        <time>2022-03-21T13:42:37Z</time>
      </trkpt>
      <trkpt lat="46.74543" lon="5.45099">
        <ele>211.8</ele>
        <time>2022-03-21T13:42:38Z</time>
      </trkpt>
      <trkpt lat="46.74545" lon="5.45108">
        <ele>211.8</ele>
        <time>2022-03-21T13:42:39Z</time>
      </trkpt>
      <trkpt lat="46.74547" lon="5.45117">
        <ele>211.8</ele>
        <time>2022-03-21T13:42:40Z</time>
      </trkpt>
      <trkpt lat="46.74549" lon="5.45126">
        <ele>211.8</ele>
        <time>2022-03-21T13:42:41Z</time>
      </trkpt>
      <trkpt lat="46.74551" lon="5.45134">
        <ele>211.8</ele>
        <time>2022-03-21T13:42:42Z</time>
      </trkpt>
      <trkpt lat="46.74553" lon="5.45143">
        <ele>211.8</ele>
        <time>2022-03-21T13:42:43Z</time>
      </trkpt>
      <trkpt lat="46.74555" lon="5.45152">
        <ele>211.8</ele>
        <time>2022-03-21T13:42:44Z</time>
      </trkpt>
      <trkpt lat="46.74557" lon="5.45161">
        <ele>211.8</ele>
        <time>2022-03-21T13:42:45Z</time>
      </trkpt>
      <trkpt lat="46.74559" lon="5.4517">
        <ele>211.4</ele>
        <time>2022-03-21T13:42:46Z</time>
      </trkpt>
      <trkpt lat="46.74561" lon="5.45179">
        <ele>211.4</ele>
        <time>2022-03-21T13:42:47Z</time>
      </trkpt>
      <trkpt lat="46.74563" lon="5.45188">
        <ele>211.4</ele>
        <time>2022-03-21T13:42:48Z</time>
      </trkpt>
      <trkpt lat="46.74565" lon="5.45198">
        <ele>211.2</ele>
        <time>2022-03-21T13:42:49Z</time>
      </trkpt>
      <trkpt lat="46.74567" lon="5.45207">
        <ele>211.2</ele>
        <time>2022-03-21T13:42:50Z</time>
      </trkpt>
      <trkpt lat="46.74569" lon="5.45216">
        <ele>211.2</ele>
        <time>2022-03-21T13:42:51Z</time>
      </trkpt>
      <trkpt lat="46.74571" lon="5.45224">
        <ele>211.2</ele>
        <time>2022-03-21T13:42:52Z</time>
      </trkpt>
      <trkpt lat="46.74573" lon="5.45233">
        <ele>211.2</ele>
        <time>2022-03-21T13:42:53Z</time>
      </trkpt>
      <trkpt lat="46.74575" lon="5.45241">
        <ele>211.2</ele>
        <time>2022-03-21T13:42:54Z</time>
      </trkpt>
      <trkpt lat="46.74577" lon="5.45249">
        <ele>211.2</ele>
        <time>2022-03-21T13:42:55Z</time>
      </trkpt>
      <trkpt lat="46.74578" lon="5.45257">
        <ele>211.2</ele>
        <time>2022-03-21T13:42:56Z</time>
      </trkpt>
      <trkpt lat="46.7458" lon="5.45266">
        <ele>211.2</ele>
        <time>2022-03-21T13:42:57Z</time>
      </trkpt>
      <trkpt lat="46.74582" lon="5.45274">
        <ele>211.2</ele>
        <time>2022-03-21T13:42:58Z</time>
      </trkpt>
      <trkpt lat="46.74583" lon="5.45282">
        <ele>211.2</ele>
        <time>2022-03-21T13:42:59Z</time>
      </trkpt>
      <trkpt lat="46.74585" lon="5.45291">
        <ele>211.2</ele>
        <time>2022-03-21T13:43:00Z</time>
      </trkpt>
      <trkpt lat="46.74587" lon="5.45299">
        <ele>211.2</ele>
        <time>2022-03-21T13:43:01Z</time>
      </trkpt>
      <trkpt lat="46.74589" lon="5.45307">
        <ele>211.2</ele>
        <time>2022-03-21T13:43:02Z</time>
      </trkpt>
      <trkpt lat="46.74591" lon="5.45316">
        <ele>211.2</ele>
        <time>2022-03-21T13:43:03Z</time>
      </trkpt>
      <trkpt lat="46.74593" lon="5.45324">
        <ele>211.2</ele>
        <time>2022-03-21T13:43:04Z</time>
      </trkpt>
      <trkpt lat="46.74595" lon="5.45333">
        <ele>211.2</ele>
        <time>2022-03-21T13:43:05Z</time>
      </trkpt>
      <trkpt lat="46.74596" lon="5.45341">
        <ele>211.2</ele>
        <time>2022-03-21T13:43:06Z</time>
      </trkpt>
      <trkpt lat="46.74598" lon="5.45349">
        <ele>211.2</ele>
        <time>2022-03-21T13:43:07Z</time>
      </trkpt>
      <trkpt lat="46.746" lon="5.45358">
        <ele>211.6</ele>
        <time>2022-03-21T13:43:08Z</time>
      </trkpt>
      <trkpt lat="46.74602" lon="5.45366">
        <ele>211.6</ele>
        <time>2022-03-21T13:43:09Z</time>
      </trkpt>
      <trkpt lat="46.74604" lon="5.45375">
        <ele>211.6</ele>
        <time>2022-03-21T13:43:10Z</time>
      </trkpt>
      <trkpt lat="46.74606" lon="5.45383">
        <ele>211.6</ele>
        <time>2022-03-21T13:43:11Z</time>
      </trkpt>
      <trkpt lat="46.74608" lon="5.45392">
        <ele>211.6</ele>
        <time>2022-03-21T13:43:12Z</time>
      </trkpt>
      <trkpt lat="46.7461" lon="5.45401">
        <ele>211.6</ele>
        <time>2022-03-21T13:43:13Z</time>
      </trkpt>
      <trkpt lat="46.74612" lon="5.45409">
        <ele>211.6</ele>
        <time>2022-03-21T13:43:14Z</time>
      </trkpt>
      <trkpt lat="46.74614" lon="5.45418">
        <ele>211.6</ele>
        <time>2022-03-21T13:43:15Z</time>
      </trkpt>
      <trkpt lat="46.74615" lon="5.45427">
        <ele>211.6</ele>
        <time>2022-03-21T13:43:16Z</time>
      </trkpt>
      <trkpt lat="46.74617" lon="5.45436">
        <ele>211.6</ele>
        <time>2022-03-21T13:43:17Z</time>
      </trkpt>
      <trkpt lat="46.7462" lon="5.45445">
        <ele>211.8</ele>
        <time>2022-03-21T13:43:18Z</time>
      </trkpt>
      <trkpt lat="46.74622" lon="5.45454">
        <ele>211.8</ele>
        <time>2022-03-21T13:43:19Z</time>
      </trkpt>
      <trkpt lat="46.74624" lon="5.45463">
        <ele>211.8</ele>
        <time>2022-03-21T13:43:20Z</time>
      </trkpt>
      <trkpt lat="46.74626" lon="5.45472">
        <ele>211.8</ele>
        <time>2022-03-21T13:43:21Z</time>
      </trkpt>
      <trkpt lat="46.74628" lon="5.45481">
        <ele>211.8</ele>
        <time>2022-03-21T13:43:22Z</time>
      </trkpt>
      <trkpt lat="46.7463" lon="5.4549">
        <ele>211.8</ele>
        <time>2022-03-21T13:43:23Z</time>
      </trkpt>
      <trkpt lat="46.74631" lon="5.45499">
        <ele>211.8</ele>
        <time>2022-03-21T13:43:24Z</time>
      </trkpt>
      <trkpt lat="46.74633" lon="5.45508">
        <ele>211.8</ele>
        <time>2022-03-21T13:43:25Z</time>
      </trkpt>
      <trkpt lat="46.74635" lon="5.45517">
        <ele>211.8</ele>
        <time>2022-03-21T13:43:26Z</time>
      </trkpt>
      <trkpt lat="46.74637" lon="5.45525">
        <ele>211.8</ele>
        <time>2022-03-21T13:43:27Z</time>
      </trkpt>
      <trkpt lat="46.74639" lon="5.45534">
        <ele>211.8</ele>
        <time>2022-03-21T13:43:28Z</time>
      </trkpt>
      <trkpt lat="46.74642" lon="5.45543">
        <ele>211.8</ele>
        <time>2022-03-21T13:43:29Z</time>
      </trkpt>
      <trkpt lat="46.74643" lon="5.45551">
        <ele>212</ele>
        <time>2022-03-21T13:43:30Z</time>
      </trkpt>
      <trkpt lat="46.74645" lon="5.4556">
        <ele>212</ele>
        <time>2022-03-21T13:43:31Z</time>
      </trkpt>
      <trkpt lat="46.74647" lon="5.45569">
        <ele>212</ele>
        <time>2022-03-21T13:43:32Z</time>
      </trkpt>
      <trkpt lat="46.74649" lon="5.45577">
        <ele>212</ele>
        <time>2022-03-21T13:43:33Z</time>
      </trkpt>
      <trkpt lat="46.74651" lon="5.45586">
        <ele>212</ele>
        <time>2022-03-21T13:43:34Z</time>
      </trkpt>
      <trkpt lat="46.74653" lon="5.45595">
        <ele>212</ele>
        <time>2022-03-21T13:43:35Z</time>
      </trkpt>
      <trkpt lat="46.74655" lon="5.45603">
        <ele>212</ele>
        <time>2022-03-21T13:43:36Z</time>
      </trkpt>
      <trkpt lat="46.74657" lon="5.45612">
        <ele>212</ele>
        <time>2022-03-21T13:43:37Z</time>
      </trkpt>
      <trkpt lat="46.74659" lon="5.4562">
        <ele>212</ele>
        <time>2022-03-21T13:43:38Z</time>
      </trkpt>
      <trkpt lat="46.74661" lon="5.45628">
        <ele>212</ele>
        <time>2022-03-21T13:43:39Z</time>
      </trkpt>
      <trkpt lat="46.74663" lon="5.45636">
        <ele>212</ele>
        <time>2022-03-21T13:43:40Z</time>
      </trkpt>
      <trkpt lat="46.74664" lon="5.45644">
        <ele>212</ele>
        <time>2022-03-21T13:43:41Z</time>
      </trkpt>
      <trkpt lat="46.74665" lon="5.45651">
        <ele>212</ele>
        <time>2022-03-21T13:43:42Z</time>
      </trkpt>
      <trkpt lat="46.74665" lon="5.45659">
        <ele>212</ele>
        <time>2022-03-21T13:43:43Z</time>
      </trkpt>
      <trkpt lat="46.74664" lon="5.45666">
        <ele>212</ele>
        <time>2022-03-21T13:43:44Z</time>
      </trkpt>
      <trkpt lat="46.74662" lon="5.45673">
        <ele>212</ele>
        <time>2022-03-21T13:43:45Z</time>
      </trkpt>
      <trkpt lat="46.74658" lon="5.45679">
        <ele>212.2</ele>
        <time>2022-03-21T13:43:46Z</time>
      </trkpt>
      <trkpt lat="46.74654" lon="5.45684">
        <ele>212.2</ele>
        <time>2022-03-21T13:43:47Z</time>
      </trkpt>
      <trkpt lat="46.74649" lon="5.45688">
        <ele>212.2</ele>
        <time>2022-03-21T13:43:49Z</time>
      </trkpt>
      <trkpt lat="46.74644" lon="5.45692">
        <ele>212.2</ele>
        <time>2022-03-21T13:43:50Z</time>
      </trkpt>
      <trkpt lat="46.74639" lon="5.45695">
        <ele>212.2</ele>
        <time>2022-03-21T13:43:51Z</time>
      </trkpt>
      <trkpt lat="46.74634" lon="5.45699">
        <ele>212.2</ele>
        <time>2022-03-21T13:43:52Z</time>
      </trkpt>
      <trkpt lat="46.74629" lon="5.45703">
        <ele>212.2</ele>
        <time>2022-03-21T13:43:53Z</time>
      </trkpt>
      <trkpt lat="46.74624" lon="5.45707">
        <ele>212.2</ele>
        <time>2022-03-21T13:43:54Z</time>
      </trkpt>
      <trkpt lat="46.74619" lon="5.4571">
        <ele>212.2</ele>
        <time>2022-03-21T13:43:55Z</time>
      </trkpt>
      <trkpt lat="46.74614" lon="5.45713">
        <ele>212.2</ele>
        <time>2022-03-21T13:43:56Z</time>
      </trkpt>
      <trkpt lat="46.7461" lon="5.45717">
        <ele>212.2</ele>
        <time>2022-03-21T13:43:57Z</time>
      </trkpt>
      <trkpt lat="46.74605" lon="5.4572">
        <ele>212.2</ele>
        <time>2022-03-21T13:43:58Z</time>
      </trkpt>
      <trkpt lat="46.74601" lon="5.45723">
        <ele>212.2</ele>
        <time>2022-03-21T13:43:59Z</time>
      </trkpt>
      <trkpt lat="46.74597" lon="5.45726">
        <ele>212.2</ele>
        <time>2022-03-21T13:44:00Z</time>
      </trkpt>
      <trkpt lat="46.74593" lon="5.45729">
        <ele>212.2</ele>
        <time>2022-03-21T13:44:01Z</time>
      </trkpt>
      <trkpt lat="46.74588" lon="5.45733">
        <ele>212.2</ele>
        <time>2022-03-21T13:44:02Z</time>
      </trkpt>
      <trkpt lat="46.74584" lon="5.45737">
        <ele>212.2</ele>
        <time>2022-03-21T13:44:03Z</time>
      </trkpt>
      <trkpt lat="46.74579" lon="5.4574">
        <ele>212.2</ele>
        <time>2022-03-21T13:44:04Z</time>
      </trkpt>
      <trkpt lat="46.74574" lon="5.45744">
        <ele>212.2</ele>
        <time>2022-03-21T13:44:05Z</time>
      </trkpt>
      <trkpt lat="46.74569" lon="5.45748">
        <ele>212.2</ele>
        <time>2022-03-21T13:44:06Z</time>
      </trkpt>
      <trkpt lat="46.74564" lon="5.45751">
        <ele>212.2</ele>
        <time>2022-03-21T13:44:07Z</time>
      </trkpt>
      <trkpt lat="46.74559" lon="5.45755">
        <ele>212.2</ele>
        <time>2022-03-21T13:44:08Z</time>
      </trkpt>
      <trkpt lat="46.74554" lon="5.4576">
        <ele>212.2</ele>
        <time>2022-03-21T13:44:09Z</time>
      </trkpt>
      <trkpt lat="46.74548" lon="5.45764">
        <ele>212.2</ele>
        <time>2022-03-21T13:44:10Z</time>
      </trkpt>
      <trkpt lat="46.74543" lon="5.45768">
        <ele>212.2</ele>
        <time>2022-03-21T13:44:11Z</time>
      </trkpt>
      <trkpt lat="46.74538" lon="5.45773">
        <ele>212.2</ele>
        <time>2022-03-21T13:44:12Z</time>
      </trkpt>
      <trkpt lat="46.74532" lon="5.45777">
        <ele>212.2</ele>
        <time>2022-03-21T13:44:13Z</time>
      </trkpt>
      <trkpt lat="46.74527" lon="5.45782">
        <ele>212.2</ele>
        <time>2022-03-21T13:44:14Z</time>
      </trkpt>
      <trkpt lat="46.74522" lon="5.45786">
        <ele>212.2</ele>
        <time>2022-03-21T13:44:15Z</time>
      </trkpt>
      <trkpt lat="46.74516" lon="5.45791">
        <ele>212.4</ele>
        <time>2022-03-21T13:44:16Z</time>
      </trkpt>
      <trkpt lat="46.74511" lon="5.45795">
        <ele>212.4</ele>
        <time>2022-03-21T13:44:17Z</time>
      </trkpt>
      <trkpt lat="46.74506" lon="5.458">
        <ele>212.4</ele>
        <time>2022-03-21T13:44:18Z</time>
      </trkpt>
      <trkpt lat="46.745" lon="5.45804">
        <ele>212.4</ele>
        <time>2022-03-21T13:44:19Z</time>
      </trkpt>
      <trkpt lat="46.74495" lon="5.45809">
        <ele>212.8</ele>
        <time>2022-03-21T13:44:20Z</time>
      </trkpt>
      <trkpt lat="46.7449" lon="5.45813">
        <ele>212.8</ele>
        <time>2022-03-21T13:44:21Z</time>
      </trkpt>
      <trkpt lat="46.74485" lon="5.45817">
        <ele>212.8</ele>
        <time>2022-03-21T13:44:22Z</time>
      </trkpt>
      <trkpt lat="46.74481" lon="5.45821">
        <ele>213.2</ele>
        <time>2022-03-21T13:44:23Z</time>
      </trkpt>
      <trkpt lat="46.74476" lon="5.45824">
        <ele>213.2</ele>
        <time>2022-03-21T13:44:24Z</time>
      </trkpt>
      <trkpt lat="46.74472" lon="5.45828">
        <ele>213.2</ele>
        <time>2022-03-21T13:44:25Z</time>
      </trkpt>
      <trkpt lat="46.74467" lon="5.45832">
        <ele>213.4</ele>
        <time>2022-03-21T13:44:26Z</time>
      </trkpt>
      <trkpt lat="46.74463" lon="5.45835">
        <ele>213.4</ele>
        <time>2022-03-21T13:44:27Z</time>
      </trkpt>
      <trkpt lat="46.74458" lon="5.45839">
        <ele>213.4</ele>
        <time>2022-03-21T13:44:28Z</time>
      </trkpt>
      <trkpt lat="46.74453" lon="5.45843">
        <ele>213.6</ele>
        <time>2022-03-21T13:44:29Z</time>
      </trkpt>
      <trkpt lat="46.74448" lon="5.45847">
        <ele>213.6</ele>
        <time>2022-03-21T13:44:30Z</time>
      </trkpt>
      <trkpt lat="46.74438" lon="5.45855">
        <ele>213.4</ele>
        <time>2022-03-21T13:44:31Z</time>
      </trkpt>
      <trkpt lat="46.74432" lon="5.45861">
        <ele>213.4</ele>
        <time>2022-03-21T13:44:32Z</time>
      </trkpt>
      <trkpt lat="46.74427" lon="5.45866">
        <ele>213.2</ele>
        <time>2022-03-21T13:44:33Z</time>
      </trkpt>
      <trkpt lat="46.74421" lon="5.45871">
        <ele>213.2</ele>
        <time>2022-03-21T13:44:34Z</time>
      </trkpt>
      <trkpt lat="46.74415" lon="5.45877">
        <ele>213</ele>
        <time>2022-03-21T13:44:35Z</time>
      </trkpt>
      <trkpt lat="46.74409" lon="5.45882">
        <ele>213</ele>
        <time>2022-03-21T13:44:36Z</time>
      </trkpt>
      <trkpt lat="46.74403" lon="5.45888">
        <ele>212.6</ele>
        <time>2022-03-21T13:44:37Z</time>
      </trkpt>
      <trkpt lat="46.74397" lon="5.45893">
        <ele>212.6</ele>
        <time>2022-03-21T13:44:38Z</time>
      </trkpt>
      <trkpt lat="46.74391" lon="5.45899">
        <ele>212.6</ele>
        <time>2022-03-21T13:44:39Z</time>
      </trkpt>
      <trkpt lat="46.74385" lon="5.45904">
        <ele>212.4</ele>
        <time>2022-03-21T13:44:40Z</time>
      </trkpt>
      <trkpt lat="46.74379" lon="5.4591">
        <ele>212.4</ele>
        <time>2022-03-21T13:44:41Z</time>
      </trkpt>
      <trkpt lat="46.74373" lon="5.45915">
        <ele>212.4</ele>
        <time>2022-03-21T13:44:42Z</time>
      </trkpt>
      <trkpt lat="46.74367" lon="5.45921">
        <ele>212.4</ele>
        <time>2022-03-21T13:44:43Z</time>
      </trkpt>
      <trkpt lat="46.74361" lon="5.45926">
        <ele>212.4</ele>
        <time>2022-03-21T13:44:44Z</time>
      </trkpt>
      <trkpt lat="46.74355" lon="5.45931">
        <ele>212.2</ele>
        <time>2022-03-21T13:44:45Z</time>
      </trkpt>
      <trkpt lat="46.74349" lon="5.45936">
        <ele>212.2</ele>
        <time>2022-03-21T13:44:46Z</time>
      </trkpt>
      <trkpt lat="46.74343" lon="5.45941">
        <ele>212.2</ele>
        <time>2022-03-21T13:44:47Z</time>
      </trkpt>
      <trkpt lat="46.74337" lon="5.45946">
        <ele>212.2</ele>
        <time>2022-03-21T13:44:48Z</time>
      </trkpt>
      <trkpt lat="46.74331" lon="5.45951">
        <ele>212.2</ele>
        <time>2022-03-21T13:44:49Z</time>
      </trkpt>
      <trkpt lat="46.74325" lon="5.45956">
        <ele>212.2</ele>
        <time>2022-03-21T13:44:50Z</time>
      </trkpt>
      <trkpt lat="46.74319" lon="5.4596">
        <ele>212.2</ele>
        <time>2022-03-21T13:44:51Z</time>
      </trkpt>
      <trkpt lat="46.74314" lon="5.45965">
        <ele>212.2</ele>
        <time>2022-03-21T13:44:52Z</time>
      </trkpt>
      <trkpt lat="46.74308" lon="5.45969">
        <ele>212.2</ele>
        <time>2022-03-21T13:44:53Z</time>
      </trkpt>
      <trkpt lat="46.74302" lon="5.45973">
        <ele>212.2</ele>
        <time>2022-03-21T13:44:54Z</time>
      </trkpt>
      <trkpt lat="46.74296" lon="5.45977">
        <ele>212.2</ele>
        <time>2022-03-21T13:44:55Z</time>
      </trkpt>
      <trkpt lat="46.7429" lon="5.45981">
        <ele>212.2</ele>
        <time>2022-03-21T13:44:56Z</time>
      </trkpt>
      <trkpt lat="46.74284" lon="5.45984">
        <ele>212.2</ele>
        <time>2022-03-21T13:44:57Z</time>
      </trkpt>
      <trkpt lat="46.74278" lon="5.45988">
        <ele>212.2</ele>
        <time>2022-03-21T13:44:58Z</time>
      </trkpt>
      <trkpt lat="46.74272" lon="5.45991">
        <ele>212.2</ele>
        <time>2022-03-21T13:44:59Z</time>
      </trkpt>
      <trkpt lat="46.74266" lon="5.45994">
        <ele>212.2</ele>
        <time>2022-03-21T13:45:00Z</time>
      </trkpt>
      <trkpt lat="46.7426" lon="5.45998">
        <ele>212.2</ele>
        <time>2022-03-21T13:45:01Z</time>
      </trkpt>
      <trkpt lat="46.74254" lon="5.46001">
        <ele>212.2</ele>
        <time>2022-03-21T13:45:02Z</time>
      </trkpt>
      <trkpt lat="46.74248" lon="5.46004">
        <ele>212.2</ele>
        <time>2022-03-21T13:45:03Z</time>
      </trkpt>
      <trkpt lat="46.74242" lon="5.46007">
        <ele>212.2</ele>
        <time>2022-03-21T13:45:04Z</time>
      </trkpt>
      <trkpt lat="46.74236" lon="5.4601">
        <ele>212.2</ele>
        <time>2022-03-21T13:45:05Z</time>
      </trkpt>
      <trkpt lat="46.74229" lon="5.46013">
        <ele>212.2</ele>
        <time>2022-03-21T13:45:06Z</time>
      </trkpt>
      <trkpt lat="46.74223" lon="5.46015">
        <ele>212.2</ele>
        <time>2022-03-21T13:45:07Z</time>
      </trkpt>
      <trkpt lat="46.74216" lon="5.46017">
        <ele>212.2</ele>
        <time>2022-03-21T13:45:08Z</time>
      </trkpt>
      <trkpt lat="46.7421" lon="5.4602">
        <ele>212.2</ele>
        <time>2022-03-21T13:45:09Z</time>
      </trkpt>
      <trkpt lat="46.74204" lon="5.46022">
        <ele>212.2</ele>
        <time>2022-03-21T13:45:10Z</time>
      </trkpt>
      <trkpt lat="46.74197" lon="5.46025">
        <ele>212.2</ele>
        <time>2022-03-21T13:45:11Z</time>
      </trkpt>
      <trkpt lat="46.74191" lon="5.46027">
        <ele>212.2</ele>
        <time>2022-03-21T13:45:12Z</time>
      </trkpt>
      <trkpt lat="46.74184" lon="5.46029">
        <ele>212.2</ele>
        <time>2022-03-21T13:45:13Z</time>
      </trkpt>
      <trkpt lat="46.74178" lon="5.46031">
        <ele>212.2</ele>
        <time>2022-03-21T13:45:14Z</time>
      </trkpt>
      <trkpt lat="46.74171" lon="5.46033">
        <ele>212.2</ele>
        <time>2022-03-21T13:45:15Z</time>
      </trkpt>
      <trkpt lat="46.74165" lon="5.46035">
        <ele>212.2</ele>
        <time>2022-03-21T13:45:16Z</time>
      </trkpt>
      <trkpt lat="46.74158" lon="5.46037">
        <ele>212.2</ele>
        <time>2022-03-21T13:45:17Z</time>
      </trkpt>
      <trkpt lat="46.74152" lon="5.46039">
        <ele>212.2</ele>
        <time>2022-03-21T13:45:18Z</time>
      </trkpt>
      <trkpt lat="46.74145" lon="5.46041">
        <ele>212.2</ele>
        <time>2022-03-21T13:45:19Z</time>
      </trkpt>
      <trkpt lat="46.74139" lon="5.46043">
        <ele>212.2</ele>
        <time>2022-03-21T13:45:20Z</time>
      </trkpt>
      <trkpt lat="46.74132" lon="5.46045">
        <ele>212.2</ele>
        <time>2022-03-21T13:45:21Z</time>
      </trkpt>
      <trkpt lat="46.74126" lon="5.46047">
        <ele>212.2</ele>
        <time>2022-03-21T13:45:22Z</time>
      </trkpt>
      <trkpt lat="46.74119" lon="5.46049">
        <ele>212.2</ele>
        <time>2022-03-21T13:45:23Z</time>
      </trkpt>
      <trkpt lat="46.74113" lon="5.46051">
        <ele>212.2</ele>
        <time>2022-03-21T13:45:24Z</time>
      </trkpt>
      <trkpt lat="46.74106" lon="5.46053">
        <ele>212.2</ele>
        <time>2022-03-21T13:45:25Z</time>
      </trkpt>
      <trkpt lat="46.741" lon="5.46055">
        <ele>212.2</ele>
        <time>2022-03-21T13:45:26Z</time>
      </trkpt>
      <trkpt lat="46.74093" lon="5.46058">
        <ele>212.2</ele>
        <time>2022-03-21T13:45:27Z</time>
      </trkpt>
      <trkpt lat="46.74087" lon="5.4606">
        <ele>212.2</ele>
        <time>2022-03-21T13:45:28Z</time>
      </trkpt>
      <trkpt lat="46.7408" lon="5.46062">
        <ele>212.2</ele>
        <time>2022-03-21T13:45:29Z</time>
      </trkpt>
      <trkpt lat="46.74073" lon="5.46064">
        <ele>212.4</ele>
        <time>2022-03-21T13:45:30Z</time>
      </trkpt>
      <trkpt lat="46.74067" lon="5.46066">
        <ele>212.4</ele>
        <time>2022-03-21T13:45:31Z</time>
      </trkpt>
      <trkpt lat="46.7406" lon="5.46069">
        <ele>212.4</ele>
        <time>2022-03-21T13:45:32Z</time>
      </trkpt>
      <trkpt lat="46.74054" lon="5.46071">
        <ele>212.4</ele>
        <time>2022-03-21T13:45:33Z</time>
      </trkpt>
      <trkpt lat="46.74047" lon="5.46074">
        <ele>212.4</ele>
        <time>2022-03-21T13:45:34Z</time>
      </trkpt>
      <trkpt lat="46.74041" lon="5.46076">
        <ele>212.4</ele>
        <time>2022-03-21T13:45:35Z</time>
      </trkpt>
      <trkpt lat="46.74034" lon="5.46079">
        <ele>212.4</ele>
        <time>2022-03-21T13:45:36Z</time>
      </trkpt>
      <trkpt lat="46.74028" lon="5.46083">
        <ele>212.4</ele>
        <time>2022-03-21T13:45:37Z</time>
      </trkpt>
      <trkpt lat="46.74022" lon="5.46087">
        <ele>212.4</ele>
        <time>2022-03-21T13:45:38Z</time>
      </trkpt>
      <trkpt lat="46.74016" lon="5.46091">
        <ele>212.4</ele>
        <time>2022-03-21T13:45:39Z</time>
      </trkpt>
      <trkpt lat="46.7401" lon="5.46096">
        <ele>212.4</ele>
        <time>2022-03-21T13:45:40Z</time>
      </trkpt>
      <trkpt lat="46.74004" lon="5.461">
        <ele>212.4</ele>
        <time>2022-03-21T13:45:41Z</time>
      </trkpt>
      <trkpt lat="46.73998" lon="5.46105">
        <ele>212.4</ele>
        <time>2022-03-21T13:45:42Z</time>
      </trkpt>
      <trkpt lat="46.73992" lon="5.4611">
        <ele>212.4</ele>
        <time>2022-03-21T13:45:43Z</time>
      </trkpt>
      <trkpt lat="46.73987" lon="5.46115">
        <ele>212.4</ele>
        <time>2022-03-21T13:45:44Z</time>
      </trkpt>
      <trkpt lat="46.73981" lon="5.46121">
        <ele>212.4</ele>
        <time>2022-03-21T13:45:45Z</time>
      </trkpt>
      <trkpt lat="46.73975" lon="5.46126">
        <ele>212.4</ele>
        <time>2022-03-21T13:45:46Z</time>
      </trkpt>
      <trkpt lat="46.7397" lon="5.46132">
        <ele>212.4</ele>
        <time>2022-03-21T13:45:47Z</time>
      </trkpt>
      <trkpt lat="46.73964" lon="5.46137">
        <ele>212.4</ele>
        <time>2022-03-21T13:45:48Z</time>
      </trkpt>
      <trkpt lat="46.73959" lon="5.46143">
        <ele>212.4</ele>
        <time>2022-03-21T13:45:49Z</time>
      </trkpt>
      <trkpt lat="46.73953" lon="5.46149">
        <ele>212.4</ele>
        <time>2022-03-21T13:45:50Z</time>
      </trkpt>
      <trkpt lat="46.73947" lon="5.46155">
        <ele>212.4</ele>
        <time>2022-03-21T13:45:51Z</time>
      </trkpt>
      <trkpt lat="46.73942" lon="5.4616">
        <ele>212.4</ele>
        <time>2022-03-21T13:45:52Z</time>
      </trkpt>
      <trkpt lat="46.73936" lon="5.46166">
        <ele>212.4</ele>
        <time>2022-03-21T13:45:53Z</time>
      </trkpt>
      <trkpt lat="46.73931" lon="5.46172">
        <ele>212.4</ele>
        <time>2022-03-21T13:45:54Z</time>
      </trkpt>
      <trkpt lat="46.73926" lon="5.46179">
        <ele>212.4</ele>
        <time>2022-03-21T13:45:55Z</time>
      </trkpt>
      <trkpt lat="46.7392" lon="5.46186">
        <ele>212.4</ele>
        <time>2022-03-21T13:45:56Z</time>
      </trkpt>
      <trkpt lat="46.73915" lon="5.46193">
        <ele>212.6</ele>
        <time>2022-03-21T13:45:57Z</time>
      </trkpt>
      <trkpt lat="46.7391" lon="5.462">
        <ele>212.6</ele>
        <time>2022-03-21T13:45:58Z</time>
      </trkpt>
      <trkpt lat="46.73905" lon="5.46207">
        <ele>212.6</ele>
        <time>2022-03-21T13:45:59Z</time>
      </trkpt>
      <trkpt lat="46.739" lon="5.46214">
        <ele>212.6</ele>
        <time>2022-03-21T13:46:00Z</time>
      </trkpt>
      <trkpt lat="46.73891" lon="5.4623">
        <ele>212.6</ele>
        <time>2022-03-21T13:46:01Z</time>
      </trkpt>
      <trkpt lat="46.73887" lon="5.46238">
        <ele>212.6</ele>
        <time>2022-03-21T13:46:02Z</time>
      </trkpt>
      <trkpt lat="46.73882" lon="5.46246">
        <ele>212.6</ele>
        <time>2022-03-21T13:46:03Z</time>
      </trkpt>
      <trkpt lat="46.73878" lon="5.46253">
        <ele>213</ele>
        <time>2022-03-21T13:46:04Z</time>
      </trkpt>
      <trkpt lat="46.73874" lon="5.46261">
        <ele>213</ele>
        <time>2022-03-21T13:46:05Z</time>
      </trkpt>
      <trkpt lat="46.7387" lon="5.46269">
        <ele>213</ele>
        <time>2022-03-21T13:46:06Z</time>
      </trkpt>
      <trkpt lat="46.73865" lon="5.46277">
        <ele>213</ele>
        <time>2022-03-21T13:46:07Z</time>
      </trkpt>
      <trkpt lat="46.73861" lon="5.46285">
        <ele>213</ele>
        <time>2022-03-21T13:46:08Z</time>
      </trkpt>
      <trkpt lat="46.73857" lon="5.46293">
        <ele>213</ele>
        <time>2022-03-21T13:46:09Z</time>
      </trkpt>
      <trkpt lat="46.73852" lon="5.463">
        <ele>213</ele>
        <time>2022-03-21T13:46:10Z</time>
      </trkpt>
      <trkpt lat="46.73846" lon="5.46306">
        <ele>213</ele>
        <time>2022-03-21T13:46:11Z</time>
      </trkpt>
      <trkpt lat="46.7384" lon="5.46311">
        <ele>213</ele>
        <time>2022-03-21T13:46:12Z</time>
      </trkpt>
      <trkpt lat="46.73834" lon="5.46314">
        <ele>213</ele>
        <time>2022-03-21T13:46:13Z</time>
      </trkpt>
      <trkpt lat="46.73828" lon="5.46317">
        <ele>213.2</ele>
        <time>2022-03-21T13:46:14Z</time>
      </trkpt>
      <trkpt lat="46.73821" lon="5.4632">
        <ele>213.2</ele>
        <time>2022-03-21T13:46:15Z</time>
      </trkpt>
      <trkpt lat="46.73815" lon="5.46322">
        <ele>213.2</ele>
        <time>2022-03-21T13:46:16Z</time>
      </trkpt>
      <trkpt lat="46.73809" lon="5.46325">
        <ele>213.2</ele>
        <time>2022-03-21T13:46:17Z</time>
      </trkpt>
      <trkpt lat="46.73802" lon="5.46327">
        <ele>213.2</ele>
        <time>2022-03-21T13:46:18Z</time>
      </trkpt>
      <trkpt lat="46.73796" lon="5.46329">
        <ele>213.2</ele>
        <time>2022-03-21T13:46:19Z</time>
      </trkpt>
      <trkpt lat="46.7379" lon="5.46331">
        <ele>213.2</ele>
        <time>2022-03-21T13:46:20Z</time>
      </trkpt>
      <trkpt lat="46.73783" lon="5.46333">
        <ele>213.2</ele>
        <time>2022-03-21T13:46:21Z</time>
      </trkpt>
      <trkpt lat="46.73777" lon="5.46335">
        <ele>213.4</ele>
        <time>2022-03-21T13:46:22Z</time>
      </trkpt>
      <trkpt lat="46.73771" lon="5.46338">
        <ele>213.4</ele>
        <time>2022-03-21T13:46:23Z</time>
      </trkpt>
      <trkpt lat="46.73765" lon="5.46341">
        <ele>213.4</ele>
        <time>2022-03-21T13:46:24Z</time>
      </trkpt>
      <trkpt lat="46.73759" lon="5.46344">
        <ele>213.6</ele>
        <time>2022-03-21T13:46:25Z</time>
      </trkpt>
      <trkpt lat="46.73754" lon="5.46349">
        <ele>213.6</ele>
        <time>2022-03-21T13:46:26Z</time>
      </trkpt>
      <trkpt lat="46.73749" lon="5.46354">
        <ele>213.6</ele>
        <time>2022-03-21T13:46:27Z</time>
      </trkpt>
      <trkpt lat="46.73744" lon="5.46359">
        <ele>213.6</ele>
        <time>2022-03-21T13:46:28Z</time>
      </trkpt>
      <trkpt lat="46.73739" lon="5.46365">
        <ele>213.6</ele>
        <time>2022-03-21T13:46:30Z</time>
      </trkpt>
      <trkpt lat="46.73734" lon="5.4637">
        <ele>213.6</ele>
        <time>2022-03-21T13:46:31Z</time>
      </trkpt>
      <trkpt lat="46.73729" lon="5.46376">
        <ele>213.6</ele>
        <time>2022-03-21T13:46:32Z</time>
      </trkpt>
      <trkpt lat="46.73724" lon="5.46381">
        <ele>213.6</ele>
        <time>2022-03-21T13:46:33Z</time>
      </trkpt>
      <trkpt lat="46.73719" lon="5.46387">
        <ele>213.6</ele>
        <time>2022-03-21T13:46:34Z</time>
      </trkpt>
      <trkpt lat="46.73714" lon="5.46393">
        <ele>213.6</ele>
        <time>2022-03-21T13:46:35Z</time>
      </trkpt>
      <trkpt lat="46.7371" lon="5.46398">
        <ele>213.6</ele>
        <time>2022-03-21T13:46:36Z</time>
      </trkpt>
      <trkpt lat="46.73705" lon="5.46404">
        <ele>213.6</ele>
        <time>2022-03-21T13:46:37Z</time>
      </trkpt>
      <trkpt lat="46.73701" lon="5.4641">
        <ele>213.6</ele>
        <time>2022-03-21T13:46:38Z</time>
      </trkpt>
      <trkpt lat="46.73697" lon="5.46417">
        <ele>213.6</ele>
        <time>2022-03-21T13:46:39Z</time>
      </trkpt>
      <trkpt lat="46.73694" lon="5.46424">
        <ele>213.4</ele>
        <time>2022-03-21T13:46:40Z</time>
      </trkpt>
      <trkpt lat="46.7369" lon="5.46431">
        <ele>213.4</ele>
        <time>2022-03-21T13:46:41Z</time>
      </trkpt>
      <trkpt lat="46.73686" lon="5.46438">
        <ele>213.4</ele>
        <time>2022-03-21T13:46:42Z</time>
      </trkpt>
      <trkpt lat="46.73682" lon="5.46446">
        <ele>213.4</ele>
        <time>2022-03-21T13:46:43Z</time>
      </trkpt>
      <trkpt lat="46.73678" lon="5.46455">
        <ele>213.4</ele>
        <time>2022-03-21T13:46:44Z</time>
      </trkpt>
      <trkpt lat="46.73675" lon="5.46463">
        <ele>213.4</ele>
        <time>2022-03-21T13:46:45Z</time>
      </trkpt>
      <trkpt lat="46.73673" lon="5.46473">
        <ele>213.4</ele>
        <time>2022-03-21T13:46:46Z</time>
      </trkpt>
      <trkpt lat="46.73672" lon="5.46482">
        <ele>213.4</ele>
        <time>2022-03-21T13:46:47Z</time>
      </trkpt>
      <trkpt lat="46.73672" lon="5.46491">
        <ele>213.6</ele>
        <time>2022-03-21T13:46:48Z</time>
      </trkpt>
      <trkpt lat="46.73672" lon="5.46501">
        <ele>213.6</ele>
        <time>2022-03-21T13:46:49Z</time>
      </trkpt>
      <trkpt lat="46.73673" lon="5.46511">
        <ele>213.6</ele>
        <time>2022-03-21T13:46:50Z</time>
      </trkpt>
      <trkpt lat="46.73674" lon="5.4652">
        <ele>213.6</ele>
        <time>2022-03-21T13:46:51Z</time>
      </trkpt>
      <trkpt lat="46.73675" lon="5.46529">
        <ele>213.6</ele>
        <time>2022-03-21T13:46:52Z</time>
      </trkpt>
      <trkpt lat="46.73677" lon="5.46539">
        <ele>213.6</ele>
        <time>2022-03-21T13:46:53Z</time>
      </trkpt>
      <trkpt lat="46.73678" lon="5.46548">
        <ele>213.6</ele>
        <time>2022-03-21T13:46:54Z</time>
      </trkpt>
      <trkpt lat="46.7368" lon="5.46557">
        <ele>213.6</ele>
        <time>2022-03-21T13:46:55Z</time>
      </trkpt>
      <trkpt lat="46.73681" lon="5.46566">
        <ele>213.6</ele>
        <time>2022-03-21T13:46:56Z</time>
      </trkpt>
      <trkpt lat="46.73683" lon="5.46575">
        <ele>213.6</ele>
        <time>2022-03-21T13:46:57Z</time>
      </trkpt>
      <trkpt lat="46.73684" lon="5.46584">
        <ele>213.6</ele>
        <time>2022-03-21T13:46:58Z</time>
      </trkpt>
      <trkpt lat="46.73685" lon="5.46593">
        <ele>213.6</ele>
        <time>2022-03-21T13:46:59Z</time>
      </trkpt>
      <trkpt lat="46.73686" lon="5.46602">
        <ele>213.6</ele>
        <time>2022-03-21T13:47:00Z</time>
      </trkpt>
      <trkpt lat="46.73687" lon="5.46611">
        <ele>213.6</ele>
        <time>2022-03-21T13:47:01Z</time>
      </trkpt>
      <trkpt lat="46.73688" lon="5.46621">
        <ele>213.6</ele>
        <time>2022-03-21T13:47:02Z</time>
      </trkpt>
      <trkpt lat="46.73689" lon="5.46631">
        <ele>213.6</ele>
        <time>2022-03-21T13:47:03Z</time>
      </trkpt>
      <trkpt lat="46.73689" lon="5.4664">
        <ele>213.8</ele>
        <time>2022-03-21T13:47:04Z</time>
      </trkpt>
      <trkpt lat="46.7369" lon="5.4665">
        <ele>213.8</ele>
        <time>2022-03-21T13:47:05Z</time>
      </trkpt>
      <trkpt lat="46.7369" lon="5.46659">
        <ele>213.8</ele>
        <time>2022-03-21T13:47:06Z</time>
      </trkpt>
      <trkpt lat="46.7369" lon="5.46669">
        <ele>213.8</ele>
        <time>2022-03-21T13:47:07Z</time>
      </trkpt>
      <trkpt lat="46.7369" lon="5.46679">
        <ele>213.8</ele>
        <time>2022-03-21T13:47:08Z</time>
      </trkpt>
      <trkpt lat="46.7369" lon="5.46688">
        <ele>213.8</ele>
        <time>2022-03-21T13:47:09Z</time>
      </trkpt>
      <trkpt lat="46.7369" lon="5.46697">
        <ele>213.8</ele>
        <time>2022-03-21T13:47:10Z</time>
      </trkpt>
      <trkpt lat="46.7369" lon="5.46707">
        <ele>213.8</ele>
        <time>2022-03-21T13:47:11Z</time>
      </trkpt>
      <trkpt lat="46.7369" lon="5.46717">
        <ele>213.8</ele>
        <time>2022-03-21T13:47:12Z</time>
      </trkpt>
      <trkpt lat="46.7369" lon="5.46726">
        <ele>213.8</ele>
        <time>2022-03-21T13:47:13Z</time>
      </trkpt>
      <trkpt lat="46.7369" lon="5.46736">
        <ele>213.8</ele>
        <time>2022-03-21T13:47:14Z</time>
      </trkpt>
      <trkpt lat="46.7369" lon="5.46746">
        <ele>213.8</ele>
        <time>2022-03-21T13:47:15Z</time>
      </trkpt>
      <trkpt lat="46.73691" lon="5.46756">
        <ele>213.8</ele>
        <time>2022-03-21T13:47:16Z</time>
      </trkpt>
      <trkpt lat="46.73691" lon="5.46765">
        <ele>213.8</ele>
        <time>2022-03-21T13:47:17Z</time>
      </trkpt>
      <trkpt lat="46.73691" lon="5.46775">
        <ele>213.8</ele>
        <time>2022-03-21T13:47:18Z</time>
      </trkpt>
      <trkpt lat="46.73691" lon="5.46785">
        <ele>213.8</ele>
        <time>2022-03-21T13:47:19Z</time>
      </trkpt>
      <trkpt lat="46.73691" lon="5.46795">
        <ele>213.8</ele>
        <time>2022-03-21T13:47:20Z</time>
      </trkpt>
      <trkpt lat="46.73691" lon="5.46804">
        <ele>213.8</ele>
        <time>2022-03-21T13:47:21Z</time>
      </trkpt>
      <trkpt lat="46.73692" lon="5.46814">
        <ele>213.8</ele>
        <time>2022-03-21T13:47:22Z</time>
      </trkpt>
      <trkpt lat="46.73692" lon="5.46824">
        <ele>213.8</ele>
        <time>2022-03-21T13:47:23Z</time>
      </trkpt>
      <trkpt lat="46.73692" lon="5.46833">
        <ele>214.2</ele>
        <time>2022-03-21T13:47:24Z</time>
      </trkpt>
      <trkpt lat="46.73692" lon="5.46842">
        <ele>214.2</ele>
        <time>2022-03-21T13:47:25Z</time>
      </trkpt>
      <trkpt lat="46.73692" lon="5.46851">
        <ele>214.2</ele>
        <time>2022-03-21T13:47:26Z</time>
      </trkpt>
      <trkpt lat="46.73692" lon="5.4686">
        <ele>214.4</ele>
        <time>2022-03-21T13:47:27Z</time>
      </trkpt>
      <trkpt lat="46.73692" lon="5.46868">
        <ele>214.4</ele>
        <time>2022-03-21T13:47:28Z</time>
      </trkpt>
      <trkpt lat="46.73692" lon="5.46877">
        <ele>214.6</ele>
        <time>2022-03-21T13:47:29Z</time>
      </trkpt>
      <trkpt lat="46.73692" lon="5.46885">
        <ele>214.6</ele>
        <time>2022-03-21T13:47:30Z</time>
      </trkpt>
      <trkpt lat="46.73692" lon="5.46893">
        <ele>215</ele>
        <time>2022-03-21T13:47:31Z</time>
      </trkpt>
      <trkpt lat="46.73692" lon="5.46901">
        <ele>215</ele>
        <time>2022-03-21T13:47:32Z</time>
      </trkpt>
      <trkpt lat="46.73692" lon="5.46908">
        <ele>215.2</ele>
        <time>2022-03-21T13:47:33Z</time>
      </trkpt>
      <trkpt lat="46.73692" lon="5.46917">
        <ele>215.2</ele>
        <time>2022-03-21T13:47:34Z</time>
      </trkpt>
      <trkpt lat="46.73691" lon="5.46925">
        <ele>215.4</ele>
        <time>2022-03-21T13:47:35Z</time>
      </trkpt>
      <trkpt lat="46.73688" lon="5.46932">
        <ele>215.4</ele>
        <time>2022-03-21T13:47:36Z</time>
      </trkpt>
      <trkpt lat="46.73685" lon="5.46939">
        <ele>215.4</ele>
        <time>2022-03-21T13:47:37Z</time>
      </trkpt>
      <trkpt lat="46.73681" lon="5.46945">
        <ele>215.4</ele>
        <time>2022-03-21T13:47:38Z</time>
      </trkpt>
      <trkpt lat="46.73676" lon="5.4695">
        <ele>215.4</ele>
        <time>2022-03-21T13:47:39Z</time>
      </trkpt>
      <trkpt lat="46.7367" lon="5.46954">
        <ele>215.4</ele>
        <time>2022-03-21T13:47:40Z</time>
      </trkpt>
      <trkpt lat="46.73664" lon="5.46957">
        <ele>215.4</ele>
        <time>2022-03-21T13:47:41Z</time>
      </trkpt>
      <trkpt lat="46.73657" lon="5.46959">
        <ele>215.2</ele>
        <time>2022-03-21T13:47:42Z</time>
      </trkpt>
      <trkpt lat="46.7365" lon="5.4696">
        <ele>215.2</ele>
        <time>2022-03-21T13:47:43Z</time>
      </trkpt>
      <trkpt lat="46.73643" lon="5.46959">
        <ele>215.2</ele>
        <time>2022-03-21T13:47:44Z</time>
      </trkpt>
      <trkpt lat="46.73636" lon="5.46958">
        <ele>215</ele>
        <time>2022-03-21T13:47:45Z</time>
      </trkpt>
      <trkpt lat="46.73629" lon="5.46958">
        <ele>215</ele>
        <time>2022-03-21T13:47:46Z</time>
      </trkpt>
      <trkpt lat="46.73622" lon="5.46958">
        <ele>215</ele>
        <time>2022-03-21T13:47:47Z</time>
      </trkpt>
      <trkpt lat="46.73615" lon="5.46958">
        <ele>215</ele>
        <time>2022-03-21T13:47:48Z</time>
      </trkpt>
      <trkpt lat="46.73608" lon="5.46958">
        <ele>215</ele>
        <time>2022-03-21T13:47:49Z</time>
      </trkpt>
      <trkpt lat="46.73601" lon="5.46958">
        <ele>215</ele>
        <time>2022-03-21T13:47:50Z</time>
      </trkpt>
      <trkpt lat="46.73594" lon="5.46958">
        <ele>215</ele>
        <time>2022-03-21T13:47:51Z</time>
      </trkpt>
      <trkpt lat="46.73587" lon="5.46959">
        <ele>215</ele>
        <time>2022-03-21T13:47:52Z</time>
      </trkpt>
      <trkpt lat="46.7358" lon="5.46959">
        <ele>215</ele>
        <time>2022-03-21T13:47:53Z</time>
      </trkpt>
      <trkpt lat="46.73574" lon="5.4696">
        <ele>215</ele>
        <time>2022-03-21T13:47:54Z</time>
      </trkpt>
      <trkpt lat="46.73567" lon="5.4696">
        <ele>214.6</ele>
        <time>2022-03-21T13:47:55Z</time>
      </trkpt>
      <trkpt lat="46.7356" lon="5.4696">
        <ele>214.6</ele>
        <time>2022-03-21T13:47:56Z</time>
      </trkpt>
      <trkpt lat="46.73553" lon="5.46961">
        <ele>214.6</ele>
        <time>2022-03-21T13:47:57Z</time>
      </trkpt>
      <trkpt lat="46.73546" lon="5.46961">
        <ele>214.6</ele>
        <time>2022-03-21T13:47:58Z</time>
      </trkpt>
      <trkpt lat="46.73539" lon="5.46961">
        <ele>214.6</ele>
        <time>2022-03-21T13:47:59Z</time>
      </trkpt>
      <trkpt lat="46.73532" lon="5.46961">
        <ele>214.6</ele>
        <time>2022-03-21T13:48:00Z</time>
      </trkpt>
      <trkpt lat="46.73525" lon="5.46962">
        <ele>214.6</ele>
        <time>2022-03-21T13:48:01Z</time>
      </trkpt>
      <trkpt lat="46.73518" lon="5.46962">
        <ele>214.6</ele>
        <time>2022-03-21T13:48:02Z</time>
      </trkpt>
      <trkpt lat="46.73511" lon="5.46962">
        <ele>214.6</ele>
        <time>2022-03-21T13:48:03Z</time>
      </trkpt>
      <trkpt lat="46.73504" lon="5.46963">
        <ele>214.6</ele>
        <time>2022-03-21T13:48:04Z</time>
      </trkpt>
      <trkpt lat="46.73497" lon="5.46963">
        <ele>214.6</ele>
        <time>2022-03-21T13:48:05Z</time>
      </trkpt>
      <trkpt lat="46.7349" lon="5.46963">
        <ele>214.6</ele>
        <time>2022-03-21T13:48:06Z</time>
      </trkpt>
      <trkpt lat="46.73482" lon="5.46963">
        <ele>214.6</ele>
        <time>2022-03-21T13:48:07Z</time>
      </trkpt>
      <trkpt lat="46.73475" lon="5.46963">
        <ele>214.6</ele>
        <time>2022-03-21T13:48:08Z</time>
      </trkpt>
      <trkpt lat="46.73468" lon="5.46964">
        <ele>214.6</ele>
        <time>2022-03-21T13:48:09Z</time>
      </trkpt>
      <trkpt lat="46.73461" lon="5.46964">
        <ele>214.6</ele>
        <time>2022-03-21T13:48:10Z</time>
      </trkpt>
      <trkpt lat="46.73454" lon="5.46964">
        <ele>214.6</ele>
        <time>2022-03-21T13:48:11Z</time>
      </trkpt>
      <trkpt lat="46.73446" lon="5.46964">
        <ele>214.8</ele>
        <time>2022-03-21T13:48:12Z</time>
      </trkpt>
      <trkpt lat="46.73439" lon="5.46964">
        <ele>214.8</ele>
        <time>2022-03-21T13:48:13Z</time>
      </trkpt>
      <trkpt lat="46.73432" lon="5.46965">
        <ele>214.8</ele>
        <time>2022-03-21T13:48:14Z</time>
      </trkpt>
      <trkpt lat="46.73425" lon="5.46965">
        <ele>214.8</ele>
        <time>2022-03-21T13:48:15Z</time>
      </trkpt>
      <trkpt lat="46.73418" lon="5.46965">
        <ele>214.8</ele>
        <time>2022-03-21T13:48:16Z</time>
      </trkpt>
      <trkpt lat="46.73411" lon="5.46965">
        <ele>214.8</ele>
        <time>2022-03-21T13:48:17Z</time>
      </trkpt>
      <trkpt lat="46.73404" lon="5.46965">
        <ele>214.8</ele>
        <time>2022-03-21T13:48:18Z</time>
      </trkpt>
      <trkpt lat="46.73397" lon="5.46965">
        <ele>214.8</ele>
        <time>2022-03-21T13:48:19Z</time>
      </trkpt>
      <trkpt lat="46.7339" lon="5.46965">
        <ele>214.8</ele>
        <time>2022-03-21T13:48:20Z</time>
      </trkpt>
      <trkpt lat="46.73382" lon="5.46965">
        <ele>214.8</ele>
        <time>2022-03-21T13:48:21Z</time>
      </trkpt>
      <trkpt lat="46.73375" lon="5.46964">
        <ele>214.8</ele>
        <time>2022-03-21T13:48:22Z</time>
      </trkpt>
      <trkpt lat="46.73368" lon="5.46963">
        <ele>214.8</ele>
        <time>2022-03-21T13:48:23Z</time>
      </trkpt>
      <trkpt lat="46.73361" lon="5.46961">
        <ele>214.8</ele>
        <time>2022-03-21T13:48:24Z</time>
      </trkpt>
      <trkpt lat="46.73353" lon="5.4696">
        <ele>214.8</ele>
        <time>2022-03-21T13:48:25Z</time>
      </trkpt>
      <trkpt lat="46.73346" lon="5.46958">
        <ele>214.8</ele>
        <time>2022-03-21T13:48:26Z</time>
      </trkpt>
      <trkpt lat="46.73339" lon="5.46956">
        <ele>214.8</ele>
        <time>2022-03-21T13:48:27Z</time>
      </trkpt>
      <trkpt lat="46.73332" lon="5.46955">
        <ele>215</ele>
        <time>2022-03-21T13:48:28Z</time>
      </trkpt>
      <trkpt lat="46.73325" lon="5.46953">
        <ele>215</ele>
        <time>2022-03-21T13:48:29Z</time>
      </trkpt>
      <trkpt lat="46.73317" lon="5.46951">
        <ele>215</ele>
        <time>2022-03-21T13:48:30Z</time>
      </trkpt>
      <trkpt lat="46.7331" lon="5.46949">
        <ele>215</ele>
        <time>2022-03-21T13:48:31Z</time>
      </trkpt>
      <trkpt lat="46.73303" lon="5.46947">
        <ele>215</ele>
        <time>2022-03-21T13:48:32Z</time>
      </trkpt>
      <trkpt lat="46.73296" lon="5.46945">
        <ele>215</ele>
        <time>2022-03-21T13:48:33Z</time>
      </trkpt>
      <trkpt lat="46.73288" lon="5.46943">
        <ele>215</ele>
        <time>2022-03-21T13:48:34Z</time>
      </trkpt>
      <trkpt lat="46.73281" lon="5.46941">
        <ele>215</ele>
        <time>2022-03-21T13:48:35Z</time>
      </trkpt>
      <trkpt lat="46.73274" lon="5.46939">
        <ele>215</ele>
        <time>2022-03-21T13:48:36Z</time>
      </trkpt>
      <trkpt lat="46.73267" lon="5.46937">
        <ele>215.2</ele>
        <time>2022-03-21T13:48:37Z</time>
      </trkpt>
      <trkpt lat="46.7326" lon="5.46935">
        <ele>215.2</ele>
        <time>2022-03-21T13:48:38Z</time>
      </trkpt>
      <trkpt lat="46.73254" lon="5.46933">
        <ele>215.2</ele>
        <time>2022-03-21T13:48:39Z</time>
      </trkpt>
      <trkpt lat="46.73247" lon="5.46931">
        <ele>215.2</ele>
        <time>2022-03-21T13:48:40Z</time>
      </trkpt>
      <trkpt lat="46.7324" lon="5.46929">
        <ele>215.2</ele>
        <time>2022-03-21T13:48:41Z</time>
      </trkpt>
      <trkpt lat="46.73234" lon="5.46927">
        <ele>215</ele>
        <time>2022-03-21T13:48:42Z</time>
      </trkpt>
      <trkpt lat="46.73227" lon="5.46926">
        <ele>215</ele>
        <time>2022-03-21T13:48:43Z</time>
      </trkpt>
      <trkpt lat="46.7322" lon="5.46924">
        <ele>215</ele>
        <time>2022-03-21T13:48:44Z</time>
      </trkpt>
      <trkpt lat="46.73214" lon="5.46922">
        <ele>215</ele>
        <time>2022-03-21T13:48:45Z</time>
      </trkpt>
      <trkpt lat="46.73207" lon="5.46921">
        <ele>215</ele>
        <time>2022-03-21T13:48:46Z</time>
      </trkpt>
      <trkpt lat="46.73201" lon="5.4692">
        <ele>215</ele>
        <time>2022-03-21T13:48:47Z</time>
      </trkpt>
      <trkpt lat="46.73194" lon="5.46919">
        <ele>215</ele>
        <time>2022-03-21T13:48:48Z</time>
      </trkpt>
      <trkpt lat="46.73187" lon="5.46918">
        <ele>215</ele>
        <time>2022-03-21T13:48:49Z</time>
      </trkpt>
      <trkpt lat="46.7318" lon="5.46917">
        <ele>214.8</ele>
        <time>2022-03-21T13:48:50Z</time>
      </trkpt>
      <trkpt lat="46.73174" lon="5.46917">
        <ele>214.8</ele>
        <time>2022-03-21T13:48:51Z</time>
      </trkpt>
      <trkpt lat="46.73167" lon="5.46917">
        <ele>214.8</ele>
        <time>2022-03-21T13:48:52Z</time>
      </trkpt>
      <trkpt lat="46.7316" lon="5.46917">
        <ele>214.8</ele>
        <time>2022-03-21T13:48:53Z</time>
      </trkpt>
      <trkpt lat="46.73154" lon="5.46917">
        <ele>214.8</ele>
        <time>2022-03-21T13:48:54Z</time>
      </trkpt>
      <trkpt lat="46.73147" lon="5.46918">
        <ele>214.8</ele>
        <time>2022-03-21T13:48:55Z</time>
      </trkpt>
      <trkpt lat="46.73133" lon="5.46922">
        <ele>214.8</ele>
        <time>2022-03-21T13:48:56Z</time>
      </trkpt>
      <trkpt lat="46.73127" lon="5.46925">
        <ele>214.8</ele>
        <time>2022-03-21T13:48:57Z</time>
      </trkpt>
      <trkpt lat="46.73121" lon="5.46929">
        <ele>214.6</ele>
        <time>2022-03-21T13:48:58Z</time>
      </trkpt>
      <trkpt lat="46.73115" lon="5.46933">
        <ele>214.6</ele>
        <time>2022-03-21T13:48:59Z</time>
      </trkpt>
      <trkpt lat="46.73109" lon="5.46937">
        <ele>214.6</ele>
        <time>2022-03-21T13:49:00Z</time>
      </trkpt>
      <trkpt lat="46.73103" lon="5.46942">
        <ele>214.6</ele>
        <time>2022-03-21T13:49:01Z</time>
      </trkpt>
      <trkpt lat="46.73097" lon="5.46948">
        <ele>214.6</ele>
        <time>2022-03-21T13:49:02Z</time>
      </trkpt>
      <trkpt lat="46.73092" lon="5.46954">
        <ele>214.6</ele>
        <time>2022-03-21T13:49:03Z</time>
      </trkpt>
      <trkpt lat="46.73087" lon="5.4696">
        <ele>214.6</ele>
        <time>2022-03-21T13:49:04Z</time>
      </trkpt>
      <trkpt lat="46.73081" lon="5.46966">
        <ele>214.6</ele>
        <time>2022-03-21T13:49:05Z</time>
      </trkpt>
      <trkpt lat="46.73076" lon="5.46972">
        <ele>214.6</ele>
        <time>2022-03-21T13:49:06Z</time>
      </trkpt>
      <trkpt lat="46.73071" lon="5.46978">
        <ele>214.4</ele>
        <time>2022-03-21T13:49:07Z</time>
      </trkpt>
      <trkpt lat="46.73065" lon="5.46985">
        <ele>214.4</ele>
        <time>2022-03-21T13:49:08Z</time>
      </trkpt>
      <trkpt lat="46.7306" lon="5.46991">
        <ele>214.4</ele>
        <time>2022-03-21T13:49:09Z</time>
      </trkpt>
      <trkpt lat="46.73055" lon="5.46998">
        <ele>214.4</ele>
        <time>2022-03-21T13:49:10Z</time>
      </trkpt>
      <trkpt lat="46.7305" lon="5.47004">
        <ele>214.4</ele>
        <time>2022-03-21T13:49:11Z</time>
      </trkpt>
      <trkpt lat="46.73045" lon="5.47011">
        <ele>214.4</ele>
        <time>2022-03-21T13:49:12Z</time>
      </trkpt>
      <trkpt lat="46.7304" lon="5.47017">
        <ele>214.4</ele>
        <time>2022-03-21T13:49:13Z</time>
      </trkpt>
      <trkpt lat="46.73035" lon="5.47024">
        <ele>214.4</ele>
        <time>2022-03-21T13:49:14Z</time>
      </trkpt>
      <trkpt lat="46.7303" lon="5.4703">
        <ele>214.4</ele>
        <time>2022-03-21T13:49:15Z</time>
      </trkpt>
      <trkpt lat="46.73024" lon="5.47036">
        <ele>214.4</ele>
        <time>2022-03-21T13:49:16Z</time>
      </trkpt>
      <trkpt lat="46.73019" lon="5.47043">
        <ele>214.4</ele>
        <time>2022-03-21T13:49:17Z</time>
      </trkpt>
      <trkpt lat="46.73014" lon="5.47049">
        <ele>214.4</ele>
        <time>2022-03-21T13:49:18Z</time>
      </trkpt>
      <trkpt lat="46.73009" lon="5.47056">
        <ele>214.4</ele>
        <time>2022-03-21T13:49:19Z</time>
      </trkpt>
      <trkpt lat="46.73004" lon="5.47062">
        <ele>214.4</ele>
        <time>2022-03-21T13:49:20Z</time>
      </trkpt>
      <trkpt lat="46.72999" lon="5.47068">
        <ele>214.4</ele>
        <time>2022-03-21T13:49:21Z</time>
      </trkpt>
      <trkpt lat="46.72994" lon="5.47075">
        <ele>214.4</ele>
        <time>2022-03-21T13:49:22Z</time>
      </trkpt>
      <trkpt lat="46.72988" lon="5.47081">
        <ele>214.4</ele>
        <time>2022-03-21T13:49:23Z</time>
      </trkpt>
      <trkpt lat="46.72983" lon="5.47087">
        <ele>214.4</ele>
        <time>2022-03-21T13:49:24Z</time>
      </trkpt>
      <trkpt lat="46.72978" lon="5.47094">
        <ele>214.4</ele>
        <time>2022-03-21T13:49:25Z</time>
      </trkpt>
      <trkpt lat="46.72973" lon="5.471">
        <ele>214.4</ele>
        <time>2022-03-21T13:49:27Z</time>
      </trkpt>
      <trkpt lat="46.72968" lon="5.47106">
        <ele>214.4</ele>
        <time>2022-03-21T13:49:28Z</time>
      </trkpt>
      <trkpt lat="46.72962" lon="5.47112">
        <ele>214.4</ele>
        <time>2022-03-21T13:49:29Z</time>
      </trkpt>
      <trkpt lat="46.72957" lon="5.47118">
        <ele>214.4</ele>
        <time>2022-03-21T13:49:30Z</time>
      </trkpt>
      <trkpt lat="46.72951" lon="5.47124">
        <ele>214.4</ele>
        <time>2022-03-21T13:49:31Z</time>
      </trkpt>
      <trkpt lat="46.72946" lon="5.47129">
        <ele>214.4</ele>
        <time>2022-03-21T13:49:32Z</time>
      </trkpt>
      <trkpt lat="46.7294" lon="5.47135">
        <ele>214.6</ele>
        <time>2022-03-21T13:49:33Z</time>
      </trkpt>
      <trkpt lat="46.72935" lon="5.4714">
        <ele>214.6</ele>
        <time>2022-03-21T13:49:34Z</time>
      </trkpt>
      <trkpt lat="46.72929" lon="5.47145">
        <ele>214.6</ele>
        <time>2022-03-21T13:49:35Z</time>
      </trkpt>
      <trkpt lat="46.72923" lon="5.47149">
        <ele>214.6</ele>
        <time>2022-03-21T13:49:36Z</time>
      </trkpt>
      <trkpt lat="46.72917" lon="5.47154">
        <ele>214.6</ele>
        <time>2022-03-21T13:49:37Z</time>
      </trkpt>
      <trkpt lat="46.72912" lon="5.47159">
        <ele>214.6</ele>
        <time>2022-03-21T13:49:38Z</time>
      </trkpt>
      <trkpt lat="46.72906" lon="5.47163">
        <ele>214.6</ele>
        <time>2022-03-21T13:49:39Z</time>
      </trkpt>
      <trkpt lat="46.729" lon="5.47167">
        <ele>214.6</ele>
        <time>2022-03-21T13:49:40Z</time>
      </trkpt>
      <trkpt lat="46.72894" lon="5.47171">
        <ele>214.6</ele>
        <time>2022-03-21T13:49:41Z</time>
      </trkpt>
      <trkpt lat="46.72888" lon="5.47175">
        <ele>214.6</ele>
        <time>2022-03-21T13:49:42Z</time>
      </trkpt>
      <trkpt lat="46.72883" lon="5.47178">
        <ele>214.4</ele>
        <time>2022-03-21T13:49:43Z</time>
      </trkpt>
      <trkpt lat="46.72877" lon="5.47181">
        <ele>214.4</ele>
        <time>2022-03-21T13:49:44Z</time>
      </trkpt>
      <trkpt lat="46.72871" lon="5.47184">
        <ele>214.4</ele>
        <time>2022-03-21T13:49:45Z</time>
      </trkpt>
      <trkpt lat="46.72866" lon="5.47187">
        <ele>214.4</ele>
        <time>2022-03-21T13:49:46Z</time>
      </trkpt>
      <trkpt lat="46.7286" lon="5.4719">
        <ele>214.4</ele>
        <time>2022-03-21T13:49:47Z</time>
      </trkpt>
      <trkpt lat="46.72854" lon="5.47192">
        <ele>214.4</ele>
        <time>2022-03-21T13:49:48Z</time>
      </trkpt>
      <trkpt lat="46.72848" lon="5.47194">
        <ele>214.4</ele>
        <time>2022-03-21T13:49:49Z</time>
      </trkpt>
      <trkpt lat="46.72842" lon="5.47196">
        <ele>214.4</ele>
        <time>2022-03-21T13:49:50Z</time>
      </trkpt>
      <trkpt lat="46.72837" lon="5.47198">
        <ele>214.4</ele>
        <time>2022-03-21T13:49:51Z</time>
      </trkpt>
      <trkpt lat="46.72831" lon="5.472">
        <ele>214.4</ele>
        <time>2022-03-21T13:49:52Z</time>
      </trkpt>
      <trkpt lat="46.72825" lon="5.47202">
        <ele>214.4</ele>
        <time>2022-03-21T13:49:53Z</time>
      </trkpt>
      <trkpt lat="46.72819" lon="5.47204">
        <ele>214.4</ele>
        <time>2022-03-21T13:49:54Z</time>
      </trkpt>
      <trkpt lat="46.72813" lon="5.47206">
        <ele>214.4</ele>
        <time>2022-03-21T13:49:55Z</time>
      </trkpt>
      <trkpt lat="46.72807" lon="5.47207">
        <ele>214.4</ele>
        <time>2022-03-21T13:49:56Z</time>
      </trkpt>
      <trkpt lat="46.72801" lon="5.47209">
        <ele>214.4</ele>
        <time>2022-03-21T13:49:57Z</time>
      </trkpt>
      <trkpt lat="46.72795" lon="5.47211">
        <ele>214</ele>
        <time>2022-03-21T13:49:58Z</time>
      </trkpt>
      <trkpt lat="46.72789" lon="5.47212">
        <ele>214.6</ele>
        <time>2022-03-21T13:49:59Z</time>
      </trkpt>
      <trkpt lat="46.72783" lon="5.47214">
        <ele>214.6</ele>
        <time>2022-03-21T13:50:00Z</time>
      </trkpt>
      <trkpt lat="46.72777" lon="5.47216">
        <ele>214.6</ele>
        <time>2022-03-21T13:50:01Z</time>
      </trkpt>
      <trkpt lat="46.72771" lon="5.47218">
        <ele>214.4</ele>
        <time>2022-03-21T13:50:02Z</time>
      </trkpt>
      <trkpt lat="46.72765" lon="5.4722">
        <ele>214.4</ele>
        <time>2022-03-21T13:50:03Z</time>
      </trkpt>
      <trkpt lat="46.72759" lon="5.47221">
        <ele>214.4</ele>
        <time>2022-03-21T13:50:04Z</time>
      </trkpt>
      <trkpt lat="46.72753" lon="5.47223">
        <ele>214.4</ele>
        <time>2022-03-21T13:50:05Z</time>
      </trkpt>
      <trkpt lat="46.72746" lon="5.47225">
        <ele>214.4</ele>
        <time>2022-03-21T13:50:06Z</time>
      </trkpt>
      <trkpt lat="46.7274" lon="5.47226">
        <ele>214.4</ele>
        <time>2022-03-21T13:50:07Z</time>
      </trkpt>
      <trkpt lat="46.72734" lon="5.47228">
        <ele>214.4</ele>
        <time>2022-03-21T13:50:08Z</time>
      </trkpt>
      <trkpt lat="46.72728" lon="5.4723">
        <ele>214.4</ele>
        <time>2022-03-21T13:50:09Z</time>
      </trkpt>
      <trkpt lat="46.72721" lon="5.47232">
        <ele>214.4</ele>
        <time>2022-03-21T13:50:10Z</time>
      </trkpt>
      <trkpt lat="46.72715" lon="5.47233">
        <ele>214.4</ele>
        <time>2022-03-21T13:50:11Z</time>
      </trkpt>
      <trkpt lat="46.72709" lon="5.47235">
        <ele>214.4</ele>
        <time>2022-03-21T13:50:12Z</time>
      </trkpt>
      <trkpt lat="46.72703" lon="5.47237">
        <ele>214.4</ele>
        <time>2022-03-21T13:50:13Z</time>
      </trkpt>
      <trkpt lat="46.72697" lon="5.47238">
        <ele>214.4</ele>
        <time>2022-03-21T13:50:14Z</time>
      </trkpt>
      <trkpt lat="46.72691" lon="5.4724">
        <ele>214.4</ele>
        <time>2022-03-21T13:50:15Z</time>
      </trkpt>
      <trkpt lat="46.72685" lon="5.47242">
        <ele>214.4</ele>
        <time>2022-03-21T13:50:16Z</time>
      </trkpt>
      <trkpt lat="46.72676" lon="5.47244">
        <ele>214.4</ele>
        <time>2022-03-21T13:50:17Z</time>
      </trkpt>
      <trkpt lat="46.72673" lon="5.47245">
        <ele>214.4</ele>
        <time>2022-03-21T13:50:18Z</time>
      </trkpt>
      <trkpt lat="46.72667" lon="5.47246">
        <ele>214.4</ele>
        <time>2022-03-21T13:50:19Z</time>
      </trkpt>
      <trkpt lat="46.72661" lon="5.47247">
        <ele>214.4</ele>
        <time>2022-03-21T13:50:20Z</time>
      </trkpt>
      <trkpt lat="46.72655" lon="5.47249">
        <ele>214.4</ele>
        <time>2022-03-21T13:50:21Z</time>
      </trkpt>
      <trkpt lat="46.72648" lon="5.4725">
        <ele>214.4</ele>
        <time>2022-03-21T13:50:22Z</time>
      </trkpt>
      <trkpt lat="46.72642" lon="5.47252">
        <ele>214.4</ele>
        <time>2022-03-21T13:50:23Z</time>
      </trkpt>
      <trkpt lat="46.72636" lon="5.47253">
        <ele>214.4</ele>
        <time>2022-03-21T13:50:24Z</time>
      </trkpt>
      <trkpt lat="46.7263" lon="5.47254">
        <ele>214.4</ele>
        <time>2022-03-21T13:50:25Z</time>
      </trkpt>
      <trkpt lat="46.72624" lon="5.47255">
        <ele>214.4</ele>
        <time>2022-03-21T13:50:26Z</time>
      </trkpt>
      <trkpt lat="46.72618" lon="5.47256">
        <ele>214.4</ele>
        <time>2022-03-21T13:50:27Z</time>
      </trkpt>
      <trkpt lat="46.72612" lon="5.47257">
        <ele>214.4</ele>
        <time>2022-03-21T13:50:28Z</time>
      </trkpt>
      <trkpt lat="46.72606" lon="5.47258">
        <ele>214.4</ele>
        <time>2022-03-21T13:50:29Z</time>
      </trkpt>
      <trkpt lat="46.726" lon="5.4726">
        <ele>214.4</ele>
        <time>2022-03-21T13:50:30Z</time>
      </trkpt>
      <trkpt lat="46.72594" lon="5.47261">
        <ele>214.4</ele>
        <time>2022-03-21T13:50:31Z</time>
      </trkpt>
      <trkpt lat="46.72588" lon="5.47262">
        <ele>214.4</ele>
        <time>2022-03-21T13:50:32Z</time>
      </trkpt>
      <trkpt lat="46.72582" lon="5.47262">
        <ele>214.4</ele>
        <time>2022-03-21T13:50:33Z</time>
      </trkpt>
      <trkpt lat="46.72576" lon="5.47264">
        <ele>214.4</ele>
        <time>2022-03-21T13:50:34Z</time>
      </trkpt>
      <trkpt lat="46.7257" lon="5.47265">
        <ele>214.4</ele>
        <time>2022-03-21T13:50:35Z</time>
      </trkpt>
      <trkpt lat="46.72564" lon="5.47266">
        <ele>214.4</ele>
        <time>2022-03-21T13:50:36Z</time>
      </trkpt>
      <trkpt lat="46.72558" lon="5.47267">
        <ele>214.4</ele>
        <time>2022-03-21T13:50:37Z</time>
      </trkpt>
      <trkpt lat="46.72552" lon="5.47268">
        <ele>214.4</ele>
        <time>2022-03-21T13:50:38Z</time>
      </trkpt>
      <trkpt lat="46.72543" lon="5.47269">
        <ele>214.4</ele>
        <time>2022-03-21T13:50:39Z</time>
      </trkpt>
      <trkpt lat="46.72541" lon="5.4727">
        <ele>214.4</ele>
        <time>2022-03-21T13:50:40Z</time>
      </trkpt>
      <trkpt lat="46.72535" lon="5.47271">
        <ele>214.4</ele>
        <time>2022-03-21T13:50:41Z</time>
      </trkpt>
      <trkpt lat="46.72529" lon="5.47272">
        <ele>214.2</ele>
        <time>2022-03-21T13:50:42Z</time>
      </trkpt>
      <trkpt lat="46.7252" lon="5.47273">
        <ele>214.2</ele>
        <time>2022-03-21T13:50:43Z</time>
      </trkpt>
      <trkpt lat="46.72517" lon="5.47274">
        <ele>214.2</ele>
        <time>2022-03-21T13:50:44Z</time>
      </trkpt>
      <trkpt lat="46.72511" lon="5.47275">
        <ele>214.2</ele>
        <time>2022-03-21T13:50:45Z</time>
      </trkpt>
      <trkpt lat="46.72505" lon="5.47276">
        <ele>214.2</ele>
        <time>2022-03-21T13:50:46Z</time>
      </trkpt>
      <trkpt lat="46.72499" lon="5.47277">
        <ele>214.2</ele>
        <time>2022-03-21T13:50:47Z</time>
      </trkpt>
      <trkpt lat="46.72493" lon="5.47278">
        <ele>214.2</ele>
        <time>2022-03-21T13:50:48Z</time>
      </trkpt>
      <trkpt lat="46.72484" lon="5.4728">
        <ele>213.8</ele>
        <time>2022-03-21T13:50:49Z</time>
      </trkpt>
      <trkpt lat="46.72481" lon="5.4728">
        <ele>213.8</ele>
        <time>2022-03-21T13:50:50Z</time>
      </trkpt>
      <trkpt lat="46.72471" lon="5.47282">
        <ele>213.8</ele>
        <time>2022-03-21T13:50:51Z</time>
      </trkpt>
      <trkpt lat="46.72468" lon="5.47283">
        <ele>214.2</ele>
        <time>2022-03-21T13:50:52Z</time>
      </trkpt>
      <trkpt lat="46.72462" lon="5.47284">
        <ele>214.2</ele>
        <time>2022-03-21T13:50:53Z</time>
      </trkpt>
      <trkpt lat="46.72456" lon="5.47285">
        <ele>214.2</ele>
        <time>2022-03-21T13:50:54Z</time>
      </trkpt>
      <trkpt lat="46.7245" lon="5.47286">
        <ele>214.2</ele>
        <time>2022-03-21T13:50:55Z</time>
      </trkpt>
      <trkpt lat="46.72444" lon="5.47287">
        <ele>214.2</ele>
        <time>2022-03-21T13:50:56Z</time>
      </trkpt>
      <trkpt lat="46.72438" lon="5.47288">
        <ele>214.2</ele>
        <time>2022-03-21T13:50:57Z</time>
      </trkpt>
      <trkpt lat="46.72432" lon="5.47289">
        <ele>214.2</ele>
        <time>2022-03-21T13:50:58Z</time>
      </trkpt>
      <trkpt lat="46.72426" lon="5.4729">
        <ele>214.4</ele>
        <time>2022-03-21T13:50:59Z</time>
      </trkpt>
      <trkpt lat="46.7242" lon="5.47291">
        <ele>214.4</ele>
        <time>2022-03-21T13:51:00Z</time>
      </trkpt>
      <trkpt lat="46.72414" lon="5.47292">
        <ele>214.4</ele>
        <time>2022-03-21T13:51:01Z</time>
      </trkpt>
      <trkpt lat="46.72408" lon="5.47293">
        <ele>214.4</ele>
        <time>2022-03-21T13:51:02Z</time>
      </trkpt>
      <trkpt lat="46.72402" lon="5.47294">
        <ele>214.4</ele>
        <time>2022-03-21T13:51:03Z</time>
      </trkpt>
      <trkpt lat="46.72396" lon="5.47295">
        <ele>214.4</ele>
        <time>2022-03-21T13:51:04Z</time>
      </trkpt>
      <trkpt lat="46.7239" lon="5.47296">
        <ele>214.4</ele>
        <time>2022-03-21T13:51:05Z</time>
      </trkpt>
      <trkpt lat="46.72385" lon="5.47297">
        <ele>214.4</ele>
        <time>2022-03-21T13:51:06Z</time>
      </trkpt>
      <trkpt lat="46.72379" lon="5.47298">
        <ele>214.4</ele>
        <time>2022-03-21T13:51:07Z</time>
      </trkpt>
      <trkpt lat="46.72373" lon="5.47299">
        <ele>214.4</ele>
        <time>2022-03-21T13:51:08Z</time>
      </trkpt>
      <trkpt lat="46.72368" lon="5.473">
        <ele>214.4</ele>
        <time>2022-03-21T13:51:09Z</time>
      </trkpt>
      <trkpt lat="46.72362" lon="5.47301">
        <ele>214.4</ele>
        <time>2022-03-21T13:51:10Z</time>
      </trkpt>
      <trkpt lat="46.72356" lon="5.47302">
        <ele>214.6</ele>
        <time>2022-03-21T13:51:11Z</time>
      </trkpt>
      <trkpt lat="46.72351" lon="5.47303">
        <ele>214.6</ele>
        <time>2022-03-21T13:51:12Z</time>
      </trkpt>
      <trkpt lat="46.72345" lon="5.47304">
        <ele>214.6</ele>
        <time>2022-03-21T13:51:13Z</time>
      </trkpt>
      <trkpt lat="46.72339" lon="5.47305">
        <ele>214.6</ele>
        <time>2022-03-21T13:51:14Z</time>
      </trkpt>
      <trkpt lat="46.72333" lon="5.47306">
        <ele>214.6</ele>
        <time>2022-03-21T13:51:15Z</time>
      </trkpt>
      <trkpt lat="46.72324" lon="5.47307">
        <ele>214.6</ele>
        <time>2022-03-21T13:51:16Z</time>
      </trkpt>
      <trkpt lat="46.72321" lon="5.47308">
        <ele>214.6</ele>
        <time>2022-03-21T13:51:17Z</time>
      </trkpt>
      <trkpt lat="46.72315" lon="5.47309">
        <ele>214.6</ele>
        <time>2022-03-21T13:51:18Z</time>
      </trkpt>
      <trkpt lat="46.7231" lon="5.4731">
        <ele>214.6</ele>
        <time>2022-03-21T13:51:19Z</time>
      </trkpt>
      <trkpt lat="46.72304" lon="5.47312">
        <ele>214.6</ele>
        <time>2022-03-21T13:51:20Z</time>
      </trkpt>
      <trkpt lat="46.72297" lon="5.47313">
        <ele>215</ele>
        <time>2022-03-21T13:51:21Z</time>
      </trkpt>
      <trkpt lat="46.72291" lon="5.47314">
        <ele>215</ele>
        <time>2022-03-21T13:51:22Z</time>
      </trkpt>
      <trkpt lat="46.72285" lon="5.47315">
        <ele>215</ele>
        <time>2022-03-21T13:51:23Z</time>
      </trkpt>
      <trkpt lat="46.72279" lon="5.47316">
        <ele>215</ele>
        <time>2022-03-21T13:51:24Z</time>
      </trkpt>
      <trkpt lat="46.72269" lon="5.47317">
        <ele>215</ele>
        <time>2022-03-21T13:51:25Z</time>
      </trkpt>
      <trkpt lat="46.72266" lon="5.47318">
        <ele>215</ele>
        <time>2022-03-21T13:51:26Z</time>
      </trkpt>
      <trkpt lat="46.72259" lon="5.47319">
        <ele>215</ele>
        <time>2022-03-21T13:51:27Z</time>
      </trkpt>
      <trkpt lat="46.72253" lon="5.4732">
        <ele>215</ele>
        <time>2022-03-21T13:51:28Z</time>
      </trkpt>
      <trkpt lat="46.72246" lon="5.47321">
        <ele>215</ele>
        <time>2022-03-21T13:51:29Z</time>
      </trkpt>
      <trkpt lat="46.7224" lon="5.47322">
        <ele>215.2</ele>
        <time>2022-03-21T13:51:30Z</time>
      </trkpt>
      <trkpt lat="46.72233" lon="5.47323">
        <ele>215.2</ele>
        <time>2022-03-21T13:51:31Z</time>
      </trkpt>
      <trkpt lat="46.72226" lon="5.47324">
        <ele>215.2</ele>
        <time>2022-03-21T13:51:32Z</time>
      </trkpt>
      <trkpt lat="46.7222" lon="5.47325">
        <ele>215.2</ele>
        <time>2022-03-21T13:51:33Z</time>
      </trkpt>
      <trkpt lat="46.72213" lon="5.47326">
        <ele>215.2</ele>
        <time>2022-03-21T13:51:34Z</time>
      </trkpt>
      <trkpt lat="46.72206" lon="5.47327">
        <ele>215.2</ele>
        <time>2022-03-21T13:51:35Z</time>
      </trkpt>
      <trkpt lat="46.72199" lon="5.47327">
        <ele>215.2</ele>
        <time>2022-03-21T13:51:36Z</time>
      </trkpt>
      <trkpt lat="46.72192" lon="5.47328">
        <ele>215.2</ele>
        <time>2022-03-21T13:51:37Z</time>
      </trkpt>
      <trkpt lat="46.72186" lon="5.47329">
        <ele>215.2</ele>
        <time>2022-03-21T13:51:38Z</time>
      </trkpt>
      <trkpt lat="46.72179" lon="5.4733">
        <ele>215.2</ele>
        <time>2022-03-21T13:51:39Z</time>
      </trkpt>
      <trkpt lat="46.72172" lon="5.47331">
        <ele>215.2</ele>
        <time>2022-03-21T13:51:40Z</time>
      </trkpt>
      <trkpt lat="46.72165" lon="5.47332">
        <ele>215.2</ele>
        <time>2022-03-21T13:51:41Z</time>
      </trkpt>
      <trkpt lat="46.72158" lon="5.47333">
        <ele>215.2</ele>
        <time>2022-03-21T13:51:42Z</time>
      </trkpt>
      <trkpt lat="46.72151" lon="5.47334">
        <ele>215.2</ele>
        <time>2022-03-21T13:51:43Z</time>
      </trkpt>
      <trkpt lat="46.72144" lon="5.47335">
        <ele>215.2</ele>
        <time>2022-03-21T13:51:44Z</time>
      </trkpt>
      <trkpt lat="46.72137" lon="5.47336">
        <ele>215.2</ele>
        <time>2022-03-21T13:51:45Z</time>
      </trkpt>
      <trkpt lat="46.7213" lon="5.47337">
        <ele>215.2</ele>
        <time>2022-03-21T13:51:46Z</time>
      </trkpt>
      <trkpt lat="46.72123" lon="5.47338">
        <ele>215.2</ele>
        <time>2022-03-21T13:51:47Z</time>
      </trkpt>
      <trkpt lat="46.72117" lon="5.47339">
        <ele>215.2</ele>
        <time>2022-03-21T13:51:48Z</time>
      </trkpt>
      <trkpt lat="46.7211" lon="5.4734">
        <ele>215.2</ele>
        <time>2022-03-21T13:51:49Z</time>
      </trkpt>
      <trkpt lat="46.72103" lon="5.47341">
        <ele>215.2</ele>
        <time>2022-03-21T13:51:50Z</time>
      </trkpt>
      <trkpt lat="46.72097" lon="5.47342">
        <ele>215.2</ele>
        <time>2022-03-21T13:51:51Z</time>
      </trkpt>
      <trkpt lat="46.72087" lon="5.47343">
        <ele>215.2</ele>
        <time>2022-03-21T13:51:52Z</time>
      </trkpt>
      <trkpt lat="46.72084" lon="5.47344">
        <ele>215.4</ele>
        <time>2022-03-21T13:51:53Z</time>
      </trkpt>
      <trkpt lat="46.72074" lon="5.47345">
        <ele>215.4</ele>
        <time>2022-03-21T13:51:54Z</time>
      </trkpt>
      <trkpt lat="46.72071" lon="5.47346">
        <ele>215.4</ele>
        <time>2022-03-21T13:51:55Z</time>
      </trkpt>
      <trkpt lat="46.72064" lon="5.47347">
        <ele>215.4</ele>
        <time>2022-03-21T13:51:56Z</time>
      </trkpt>
      <trkpt lat="46.72058" lon="5.47347">
        <ele>215.4</ele>
        <time>2022-03-21T13:51:57Z</time>
      </trkpt>
      <trkpt lat="46.72051" lon="5.47348">
        <ele>215.4</ele>
        <time>2022-03-21T13:51:58Z</time>
      </trkpt>
      <trkpt lat="46.72045" lon="5.47349">
        <ele>215.4</ele>
        <time>2022-03-21T13:51:59Z</time>
      </trkpt>
      <trkpt lat="46.72038" lon="5.4735">
        <ele>215.4</ele>
        <time>2022-03-21T13:52:00Z</time>
      </trkpt>
      <trkpt lat="46.72032" lon="5.47351">
        <ele>215.6</ele>
        <time>2022-03-21T13:52:01Z</time>
      </trkpt>
      <trkpt lat="46.72025" lon="5.47352">
        <ele>215.6</ele>
        <time>2022-03-21T13:52:02Z</time>
      </trkpt>
      <trkpt lat="46.72019" lon="5.47353">
        <ele>215.6</ele>
        <time>2022-03-21T13:52:03Z</time>
      </trkpt>
      <trkpt lat="46.72012" lon="5.47354">
        <ele>215.6</ele>
        <time>2022-03-21T13:52:04Z</time>
      </trkpt>
      <trkpt lat="46.72006" lon="5.47355">
        <ele>215.6</ele>
        <time>2022-03-21T13:52:05Z</time>
      </trkpt>
      <trkpt lat="46.71999" lon="5.47356">
        <ele>215.6</ele>
        <time>2022-03-21T13:52:06Z</time>
      </trkpt>
      <trkpt lat="46.71992" lon="5.47357">
        <ele>215.6</ele>
        <time>2022-03-21T13:52:07Z</time>
      </trkpt>
      <trkpt lat="46.71986" lon="5.47358">
        <ele>215.8</ele>
        <time>2022-03-21T13:52:08Z</time>
      </trkpt>
      <trkpt lat="46.71979" lon="5.47359">
        <ele>215.8</ele>
        <time>2022-03-21T13:52:09Z</time>
      </trkpt>
      <trkpt lat="46.71973" lon="5.4736">
        <ele>215.8</ele>
        <time>2022-03-21T13:52:10Z</time>
      </trkpt>
      <trkpt lat="46.71966" lon="5.47361">
        <ele>215.8</ele>
        <time>2022-03-21T13:52:11Z</time>
      </trkpt>
      <trkpt lat="46.71959" lon="5.47362">
        <ele>215.8</ele>
        <time>2022-03-21T13:52:12Z</time>
      </trkpt>
      <trkpt lat="46.71953" lon="5.47363">
        <ele>215.8</ele>
        <time>2022-03-21T13:52:13Z</time>
      </trkpt>
      <trkpt lat="46.71943" lon="5.47365">
        <ele>216</ele>
        <time>2022-03-21T13:52:14Z</time>
      </trkpt>
      <trkpt lat="46.7194" lon="5.47365">
        <ele>216</ele>
        <time>2022-03-21T13:52:15Z</time>
      </trkpt>
      <trkpt lat="46.71933" lon="5.47366">
        <ele>216</ele>
        <time>2022-03-21T13:52:16Z</time>
      </trkpt>
      <trkpt lat="46.71927" lon="5.47367">
        <ele>216</ele>
        <time>2022-03-21T13:52:17Z</time>
      </trkpt>
      <trkpt lat="46.7192" lon="5.47368">
        <ele>216</ele>
        <time>2022-03-21T13:52:18Z</time>
      </trkpt>
      <trkpt lat="46.71914" lon="5.47369">
        <ele>216</ele>
        <time>2022-03-21T13:52:19Z</time>
      </trkpt>
      <trkpt lat="46.71908" lon="5.47369">
        <ele>216</ele>
        <time>2022-03-21T13:52:20Z</time>
      </trkpt>
      <trkpt lat="46.71901" lon="5.4737">
        <ele>216</ele>
        <time>2022-03-21T13:52:21Z</time>
      </trkpt>
      <trkpt lat="46.71895" lon="5.47371">
        <ele>216</ele>
        <time>2022-03-21T13:52:22Z</time>
      </trkpt>
      <trkpt lat="46.71889" lon="5.47372">
        <ele>216</ele>
        <time>2022-03-21T13:52:23Z</time>
      </trkpt>
      <trkpt lat="46.71883" lon="5.47372">
        <ele>216.4</ele>
        <time>2022-03-21T13:52:24Z</time>
      </trkpt>
      <trkpt lat="46.71877" lon="5.47373">
        <ele>216.4</ele>
        <time>2022-03-21T13:52:25Z</time>
      </trkpt>
      <trkpt lat="46.71868" lon="5.47374">
        <ele>216.6</ele>
        <time>2022-03-21T13:52:26Z</time>
      </trkpt>
      <trkpt lat="46.71865" lon="5.47374">
        <ele>216.6</ele>
        <time>2022-03-21T13:52:27Z</time>
      </trkpt>
      <trkpt lat="46.7186" lon="5.47375">
        <ele>216.8</ele>
        <time>2022-03-21T13:52:28Z</time>
      </trkpt>
      <trkpt lat="46.71851" lon="5.47376">
        <ele>216.8</ele>
        <time>2022-03-21T13:52:29Z</time>
      </trkpt>
      <trkpt lat="46.71848" lon="5.47376">
        <ele>217.2</ele>
        <time>2022-03-21T13:52:30Z</time>
      </trkpt>
      <trkpt lat="46.71843" lon="5.47377">
        <ele>217.4</ele>
        <time>2022-03-21T13:52:31Z</time>
      </trkpt>
      <trkpt lat="46.71838" lon="5.47377">
        <ele>217.4</ele>
        <time>2022-03-21T13:52:32Z</time>
      </trkpt>
      <trkpt lat="46.71832" lon="5.47378">
        <ele>217.8</ele>
        <time>2022-03-21T13:52:33Z</time>
      </trkpt>
      <trkpt lat="46.71827" lon="5.47378">
        <ele>217.8</ele>
        <time>2022-03-21T13:52:34Z</time>
      </trkpt>
      <trkpt lat="46.71822" lon="5.47379">
        <ele>217.8</ele>
        <time>2022-03-21T13:52:35Z</time>
      </trkpt>
      <trkpt lat="46.71817" lon="5.4738">
        <ele>218.2</ele>
        <time>2022-03-21T13:52:37Z</time>
      </trkpt>
      <trkpt lat="46.71812" lon="5.47381">
        <ele>218.4</ele>
        <time>2022-03-21T13:52:38Z</time>
      </trkpt>
      <trkpt lat="46.71807" lon="5.47382">
        <ele>218.4</ele>
        <time>2022-03-21T13:52:39Z</time>
      </trkpt>
      <trkpt lat="46.71803" lon="5.47383">
        <ele>218.8</ele>
        <time>2022-03-21T13:52:40Z</time>
      </trkpt>
      <trkpt lat="46.71798" lon="5.47384">
        <ele>218.8</ele>
        <time>2022-03-21T13:52:41Z</time>
      </trkpt>
      <trkpt lat="46.71788" lon="5.47386">
        <ele>218.8</ele>
        <time>2022-03-21T13:52:42Z</time>
      </trkpt>
      <trkpt lat="46.71783" lon="5.47387">
        <ele>219</ele>
        <time>2022-03-21T13:52:43Z</time>
      </trkpt>
      <trkpt lat="46.71779" lon="5.47388">
        <ele>219</ele>
        <time>2022-03-21T13:52:44Z</time>
      </trkpt>
      <trkpt lat="46.71774" lon="5.47389">
        <ele>219.2</ele>
        <time>2022-03-21T13:52:45Z</time>
      </trkpt>
      <trkpt lat="46.71769" lon="5.4739">
        <ele>219.2</ele>
        <time>2022-03-21T13:52:46Z</time>
      </trkpt>
      <trkpt lat="46.71764" lon="5.47391">
        <ele>219.2</ele>
        <time>2022-03-21T13:52:47Z</time>
      </trkpt>
      <trkpt lat="46.7176" lon="5.47392">
        <ele>219.2</ele>
        <time>2022-03-21T13:52:48Z</time>
      </trkpt>
      <trkpt lat="46.71755" lon="5.47393">
        <ele>219.2</ele>
        <time>2022-03-21T13:52:49Z</time>
      </trkpt>
      <trkpt lat="46.7175" lon="5.47394">
        <ele>219.4</ele>
        <time>2022-03-21T13:52:50Z</time>
      </trkpt>
      <trkpt lat="46.71745" lon="5.47395">
        <ele>219.4</ele>
        <time>2022-03-21T13:52:51Z</time>
      </trkpt>
      <trkpt lat="46.7174" lon="5.47396">
        <ele>219.6</ele>
        <time>2022-03-21T13:52:52Z</time>
      </trkpt>
      <trkpt lat="46.71735" lon="5.47396">
        <ele>219.6</ele>
        <time>2022-03-21T13:52:53Z</time>
      </trkpt>
      <trkpt lat="46.7173" lon="5.47397">
        <ele>220</ele>
        <time>2022-03-21T13:52:54Z</time>
      </trkpt>
      <trkpt lat="46.71725" lon="5.47398">
        <ele>220</ele>
        <time>2022-03-21T13:52:55Z</time>
      </trkpt>
      <trkpt lat="46.71718" lon="5.474">
        <ele>220.2</ele>
        <time>2022-03-21T13:52:56Z</time>
      </trkpt>
      <trkpt lat="46.71715" lon="5.47401">
        <ele>220.2</ele>
        <time>2022-03-21T13:52:57Z</time>
      </trkpt>
      <trkpt lat="46.7171" lon="5.47402">
        <ele>220.2</ele>
        <time>2022-03-21T13:52:58Z</time>
      </trkpt>
      <trkpt lat="46.71702" lon="5.47403">
        <ele>220.4</ele>
        <time>2022-03-21T13:52:59Z</time>
      </trkpt>
      <trkpt lat="46.71699" lon="5.47404">
        <ele>220.4</ele>
        <time>2022-03-21T13:53:00Z</time>
      </trkpt>
      <trkpt lat="46.71694" lon="5.47406">
        <ele>220.4</ele>
        <time>2022-03-21T13:53:01Z</time>
      </trkpt>
      <trkpt lat="46.71689" lon="5.47407">
        <ele>220.6</ele>
        <time>2022-03-21T13:53:02Z</time>
      </trkpt>
      <trkpt lat="46.71684" lon="5.47409">
        <ele>220.6</ele>
        <time>2022-03-21T13:53:03Z</time>
      </trkpt>
      <trkpt lat="46.71679" lon="5.47411">
        <ele>220.6</ele>
        <time>2022-03-21T13:53:04Z</time>
      </trkpt>
      <trkpt lat="46.71674" lon="5.47413">
        <ele>220.6</ele>
        <time>2022-03-21T13:53:05Z</time>
      </trkpt>
      <trkpt lat="46.71669" lon="5.47415">
        <ele>220.6</ele>
        <time>2022-03-21T13:53:06Z</time>
      </trkpt>
      <trkpt lat="46.71664" lon="5.47417">
        <ele>220.8</ele>
        <time>2022-03-21T13:53:07Z</time>
      </trkpt>
      <trkpt lat="46.71659" lon="5.47419">
        <ele>220.8</ele>
        <time>2022-03-21T13:53:08Z</time>
      </trkpt>
      <trkpt lat="46.71654" lon="5.47421">
        <ele>220.8</ele>
        <time>2022-03-21T13:53:09Z</time>
      </trkpt>
      <trkpt lat="46.71649" lon="5.47424">
        <ele>221</ele>
        <time>2022-03-21T13:53:10Z</time>
      </trkpt>
      <trkpt lat="46.71644" lon="5.47426">
        <ele>221</ele>
        <time>2022-03-21T13:53:11Z</time>
      </trkpt>
      <trkpt lat="46.71639" lon="5.47429">
        <ele>221</ele>
        <time>2022-03-21T13:53:12Z</time>
      </trkpt>
      <trkpt lat="46.71634" lon="5.47431">
        <ele>221.4</ele>
        <time>2022-03-21T13:53:13Z</time>
      </trkpt>
      <trkpt lat="46.71629" lon="5.47434">
        <ele>221.4</ele>
        <time>2022-03-21T13:53:14Z</time>
      </trkpt>
      <trkpt lat="46.71624" lon="5.47436">
        <ele>221.4</ele>
        <time>2022-03-21T13:53:15Z</time>
      </trkpt>
      <trkpt lat="46.71619" lon="5.47439">
        <ele>221.4</ele>
        <time>2022-03-21T13:53:16Z</time>
      </trkpt>
      <trkpt lat="46.71614" lon="5.47442">
        <ele>221.4</ele>
        <time>2022-03-21T13:53:17Z</time>
      </trkpt>
      <trkpt lat="46.71609" lon="5.47445">
        <ele>221.4</ele>
        <time>2022-03-21T13:53:18Z</time>
      </trkpt>
      <trkpt lat="46.71603" lon="5.47448">
        <ele>221.6</ele>
        <time>2022-03-21T13:53:19Z</time>
      </trkpt>
      <trkpt lat="46.71598" lon="5.47451">
        <ele>221.6</ele>
        <time>2022-03-21T13:53:20Z</time>
      </trkpt>
      <trkpt lat="46.71593" lon="5.47454">
        <ele>221.6</ele>
        <time>2022-03-21T13:53:21Z</time>
      </trkpt>
      <trkpt lat="46.71588" lon="5.47457">
        <ele>221.6</ele>
        <time>2022-03-21T13:53:22Z</time>
      </trkpt>
      <trkpt lat="46.71583" lon="5.4746">
        <ele>221.6</ele>
        <time>2022-03-21T13:53:23Z</time>
      </trkpt>
      <trkpt lat="46.71578" lon="5.47464">
        <ele>221.6</ele>
        <time>2022-03-21T13:53:24Z</time>
      </trkpt>
      <trkpt lat="46.71573" lon="5.47467">
        <ele>221.6</ele>
        <time>2022-03-21T13:53:25Z</time>
      </trkpt>
      <trkpt lat="46.71568" lon="5.47471">
        <ele>221.6</ele>
        <time>2022-03-21T13:53:26Z</time>
      </trkpt>
      <trkpt lat="46.71563" lon="5.47475">
        <ele>221.6</ele>
        <time>2022-03-21T13:53:27Z</time>
      </trkpt>
      <trkpt lat="46.71559" lon="5.47479">
        <ele>221.6</ele>
        <time>2022-03-21T13:53:28Z</time>
      </trkpt>
      <trkpt lat="46.71554" lon="5.47482">
        <ele>221.8</ele>
        <time>2022-03-21T13:53:29Z</time>
      </trkpt>
      <trkpt lat="46.71549" lon="5.47486">
        <ele>221.8</ele>
        <time>2022-03-21T13:53:30Z</time>
      </trkpt>
      <trkpt lat="46.71544" lon="5.4749">
        <ele>221.8</ele>
        <time>2022-03-21T13:53:31Z</time>
      </trkpt>
      <trkpt lat="46.71537" lon="5.47496">
        <ele>221.8</ele>
        <time>2022-03-21T13:53:32Z</time>
      </trkpt>
      <trkpt lat="46.71534" lon="5.47498">
        <ele>222</ele>
        <time>2022-03-21T13:53:33Z</time>
      </trkpt>
      <trkpt lat="46.7153" lon="5.47502">
        <ele>222</ele>
        <time>2022-03-21T13:53:34Z</time>
      </trkpt>
      <trkpt lat="46.71525" lon="5.47507">
        <ele>222</ele>
        <time>2022-03-21T13:53:35Z</time>
      </trkpt>
      <trkpt lat="46.7152" lon="5.47511">
        <ele>222</ele>
        <time>2022-03-21T13:53:36Z</time>
      </trkpt>
      <trkpt lat="46.71515" lon="5.47515">
        <ele>222</ele>
        <time>2022-03-21T13:53:37Z</time>
      </trkpt>
      <trkpt lat="46.71511" lon="5.4752">
        <ele>222</ele>
        <time>2022-03-21T13:53:38Z</time>
      </trkpt>
      <trkpt lat="46.71506" lon="5.47524">
        <ele>222</ele>
        <time>2022-03-21T13:53:39Z</time>
      </trkpt>
      <trkpt lat="46.71502" lon="5.47529">
        <ele>222.4</ele>
        <time>2022-03-21T13:53:40Z</time>
      </trkpt>
      <trkpt lat="46.71497" lon="5.47534">
        <ele>222.4</ele>
        <time>2022-03-21T13:53:41Z</time>
      </trkpt>
      <trkpt lat="46.71493" lon="5.47539">
        <ele>222.4</ele>
        <time>2022-03-21T13:53:42Z</time>
      </trkpt>
      <trkpt lat="46.71488" lon="5.47544">
        <ele>222.4</ele>
        <time>2022-03-21T13:53:43Z</time>
      </trkpt>
      <trkpt lat="46.71482" lon="5.47551">
        <ele>222.6</ele>
        <time>2022-03-21T13:53:44Z</time>
      </trkpt>
      <trkpt lat="46.71479" lon="5.47554">
        <ele>222.6</ele>
        <time>2022-03-21T13:53:45Z</time>
      </trkpt>
      <trkpt lat="46.71475" lon="5.47559">
        <ele>222.6</ele>
        <time>2022-03-21T13:53:46Z</time>
      </trkpt>
      <trkpt lat="46.71471" lon="5.47564">
        <ele>222.6</ele>
        <time>2022-03-21T13:53:47Z</time>
      </trkpt>
      <trkpt lat="46.71466" lon="5.47569">
        <ele>222.6</ele>
        <time>2022-03-21T13:53:48Z</time>
      </trkpt>
      <trkpt lat="46.71462" lon="5.47574">
        <ele>222.6</ele>
        <time>2022-03-21T13:53:49Z</time>
      </trkpt>
      <trkpt lat="46.71457" lon="5.4758">
        <ele>222.8</ele>
        <time>2022-03-21T13:53:50Z</time>
      </trkpt>
      <trkpt lat="46.71453" lon="5.47585">
        <ele>222.8</ele>
        <time>2022-03-21T13:53:51Z</time>
      </trkpt>
      <trkpt lat="46.71446" lon="5.47593">
        <ele>222.8</ele>
        <time>2022-03-21T13:53:52Z</time>
      </trkpt>
      <trkpt lat="46.71444" lon="5.47596">
        <ele>222.8</ele>
        <time>2022-03-21T13:53:53Z</time>
      </trkpt>
      <trkpt lat="46.7144" lon="5.47602">
        <ele>222.8</ele>
        <time>2022-03-21T13:53:54Z</time>
      </trkpt>
      <trkpt lat="46.71436" lon="5.47608">
        <ele>222.8</ele>
        <time>2022-03-21T13:53:55Z</time>
      </trkpt>
      <trkpt lat="46.71432" lon="5.47614">
        <ele>222.8</ele>
        <time>2022-03-21T13:53:56Z</time>
      </trkpt>
      <trkpt lat="46.71428" lon="5.4762">
        <ele>222.8</ele>
        <time>2022-03-21T13:53:57Z</time>
      </trkpt>
      <trkpt lat="46.71424" lon="5.47626">
        <ele>223</ele>
        <time>2022-03-21T13:53:58Z</time>
      </trkpt>
      <trkpt lat="46.7142" lon="5.47632">
        <ele>223</ele>
        <time>2022-03-21T13:53:59Z</time>
      </trkpt>
      <trkpt lat="46.71416" lon="5.47639">
        <ele>223</ele>
        <time>2022-03-21T13:54:00Z</time>
      </trkpt>
      <trkpt lat="46.71412" lon="5.47645">
        <ele>223.2</ele>
        <time>2022-03-21T13:54:01Z</time>
      </trkpt>
      <trkpt lat="46.71406" lon="5.47655">
        <ele>223.2</ele>
        <time>2022-03-21T13:54:02Z</time>
      </trkpt>
      <trkpt lat="46.71404" lon="5.47659">
        <ele>223.2</ele>
        <time>2022-03-21T13:54:03Z</time>
      </trkpt>
      <trkpt lat="46.714" lon="5.47666">
        <ele>223.2</ele>
        <time>2022-03-21T13:54:04Z</time>
      </trkpt>
      <trkpt lat="46.71394" lon="5.47676">
        <ele>223.2</ele>
        <time>2022-03-21T13:54:05Z</time>
      </trkpt>
      <trkpt lat="46.71392" lon="5.4768">
        <ele>223.2</ele>
        <time>2022-03-21T13:54:06Z</time>
      </trkpt>
      <trkpt lat="46.71386" lon="5.4769">
        <ele>223.2</ele>
        <time>2022-03-21T13:54:07Z</time>
      </trkpt>
      <trkpt lat="46.71384" lon="5.47694">
        <ele>223.2</ele>
        <time>2022-03-21T13:54:08Z</time>
      </trkpt>
      <trkpt lat="46.7138" lon="5.477">
        <ele>223.2</ele>
        <time>2022-03-21T13:54:09Z</time>
      </trkpt>
      <trkpt lat="46.71375" lon="5.47707">
        <ele>223.2</ele>
        <time>2022-03-21T13:54:10Z</time>
      </trkpt>
      <trkpt lat="46.71371" lon="5.47713">
        <ele>223.2</ele>
        <time>2022-03-21T13:54:11Z</time>
      </trkpt>
      <trkpt lat="46.71366" lon="5.47719">
        <ele>223</ele>
        <time>2022-03-21T13:54:12Z</time>
      </trkpt>
      <trkpt lat="46.71362" lon="5.47726">
        <ele>223</ele>
        <time>2022-03-21T13:54:13Z</time>
      </trkpt>
      <trkpt lat="46.71358" lon="5.47732">
        <ele>223</ele>
        <time>2022-03-21T13:54:14Z</time>
      </trkpt>
      <trkpt lat="46.71353" lon="5.47738">
        <ele>223</ele>
        <time>2022-03-21T13:54:15Z</time>
      </trkpt>
      <trkpt lat="46.71349" lon="5.47744">
        <ele>222.8</ele>
        <time>2022-03-21T13:54:16Z</time>
      </trkpt>
      <trkpt lat="46.71344" lon="5.47751">
        <ele>222.8</ele>
        <time>2022-03-21T13:54:17Z</time>
      </trkpt>
      <trkpt lat="46.7134" lon="5.47757">
        <ele>222.8</ele>
        <time>2022-03-21T13:54:18Z</time>
      </trkpt>
      <trkpt lat="46.71335" lon="5.47763">
        <ele>222.8</ele>
        <time>2022-03-21T13:54:19Z</time>
      </trkpt>
      <trkpt lat="46.71331" lon="5.47768">
        <ele>222.8</ele>
        <time>2022-03-21T13:54:20Z</time>
      </trkpt>
      <trkpt lat="46.71326" lon="5.47774">
        <ele>222.8</ele>
        <time>2022-03-21T13:54:21Z</time>
      </trkpt>
      <trkpt lat="46.71321" lon="5.47779">
        <ele>222.8</ele>
        <time>2022-03-21T13:54:22Z</time>
      </trkpt>
      <trkpt lat="46.71316" lon="5.47784">
        <ele>222.6</ele>
        <time>2022-03-21T13:54:23Z</time>
      </trkpt>
      <trkpt lat="46.71311" lon="5.47789">
        <ele>222.6</ele>
        <time>2022-03-21T13:54:24Z</time>
      </trkpt>
      <trkpt lat="46.71306" lon="5.47795">
        <ele>222.6</ele>
        <time>2022-03-21T13:54:25Z</time>
      </trkpt>
      <trkpt lat="46.71301" lon="5.47799">
        <ele>222.6</ele>
        <time>2022-03-21T13:54:26Z</time>
      </trkpt>
      <trkpt lat="46.71296" lon="5.47804">
        <ele>222.6</ele>
        <time>2022-03-21T13:54:27Z</time>
      </trkpt>
      <trkpt lat="46.7129" lon="5.47809">
        <ele>222.6</ele>
        <time>2022-03-21T13:54:28Z</time>
      </trkpt>
      <trkpt lat="46.71285" lon="5.47813">
        <ele>222.6</ele>
        <time>2022-03-21T13:54:29Z</time>
      </trkpt>
      <trkpt lat="46.7128" lon="5.47818">
        <ele>222.6</ele>
        <time>2022-03-21T13:54:30Z</time>
      </trkpt>
      <trkpt lat="46.71274" lon="5.47822">
        <ele>222.6</ele>
        <time>2022-03-21T13:54:31Z</time>
      </trkpt>
      <trkpt lat="46.71266" lon="5.47828">
        <ele>222.6</ele>
        <time>2022-03-21T13:54:32Z</time>
      </trkpt>
      <trkpt lat="46.71264" lon="5.4783">
        <ele>222.6</ele>
        <time>2022-03-21T13:54:33Z</time>
      </trkpt>
      <trkpt lat="46.71259" lon="5.47835">
        <ele>222.6</ele>
        <time>2022-03-21T13:54:34Z</time>
      </trkpt>
      <trkpt lat="46.71253" lon="5.47839">
        <ele>222.6</ele>
        <time>2022-03-21T13:54:35Z</time>
      </trkpt>
      <trkpt lat="46.71248" lon="5.47842">
        <ele>222.6</ele>
        <time>2022-03-21T13:54:36Z</time>
      </trkpt>
      <trkpt lat="46.71242" lon="5.47846">
        <ele>222.6</ele>
        <time>2022-03-21T13:54:37Z</time>
      </trkpt>
      <trkpt lat="46.71234" lon="5.47852">
        <ele>222.6</ele>
        <time>2022-03-21T13:54:38Z</time>
      </trkpt>
      <trkpt lat="46.71232" lon="5.47854">
        <ele>222.6</ele>
        <time>2022-03-21T13:54:39Z</time>
      </trkpt>
      <trkpt lat="46.71226" lon="5.47858">
        <ele>222.6</ele>
        <time>2022-03-21T13:54:40Z</time>
      </trkpt>
      <trkpt lat="46.71221" lon="5.47861">
        <ele>222.8</ele>
        <time>2022-03-21T13:54:41Z</time>
      </trkpt>
      <trkpt lat="46.71216" lon="5.47865">
        <ele>222.8</ele>
        <time>2022-03-21T13:54:42Z</time>
      </trkpt>
      <trkpt lat="46.7121" lon="5.47869">
        <ele>222.8</ele>
        <time>2022-03-21T13:54:43Z</time>
      </trkpt>
      <trkpt lat="46.71205" lon="5.47872">
        <ele>222.8</ele>
        <time>2022-03-21T13:54:44Z</time>
      </trkpt>
      <trkpt lat="46.712" lon="5.47876">
        <ele>223</ele>
        <time>2022-03-21T13:54:45Z</time>
      </trkpt>
      <trkpt lat="46.71194" lon="5.4788">
        <ele>223</ele>
        <time>2022-03-21T13:54:46Z</time>
      </trkpt>
      <trkpt lat="46.71186" lon="5.47886">
        <ele>223</ele>
        <time>2022-03-21T13:54:47Z</time>
      </trkpt>
      <trkpt lat="46.71184" lon="5.47888">
        <ele>223.2</ele>
        <time>2022-03-21T13:54:48Z</time>
      </trkpt>
      <trkpt lat="46.71179" lon="5.47891">
        <ele>223.2</ele>
        <time>2022-03-21T13:54:49Z</time>
      </trkpt>
      <trkpt lat="46.71171" lon="5.47897">
        <ele>223.2</ele>
        <time>2022-03-21T13:54:50Z</time>
      </trkpt>
      <trkpt lat="46.71168" lon="5.47898">
        <ele>223.2</ele>
        <time>2022-03-21T13:54:51Z</time>
      </trkpt>
      <trkpt lat="46.71163" lon="5.47902">
        <ele>223.2</ele>
        <time>2022-03-21T13:54:52Z</time>
      </trkpt>
      <trkpt lat="46.71158" lon="5.47906">
        <ele>223.2</ele>
        <time>2022-03-21T13:54:53Z</time>
      </trkpt>
      <trkpt lat="46.7115" lon="5.47911">
        <ele>223.2</ele>
        <time>2022-03-21T13:54:54Z</time>
      </trkpt>
      <trkpt lat="46.71147" lon="5.47913">
        <ele>223.4</ele>
        <time>2022-03-21T13:54:55Z</time>
      </trkpt>
      <trkpt lat="46.71142" lon="5.47917">
        <ele>223.4</ele>
        <time>2022-03-21T13:54:56Z</time>
      </trkpt>
      <trkpt lat="46.71137" lon="5.4792">
        <ele>223.4</ele>
        <time>2022-03-21T13:54:57Z</time>
      </trkpt>
      <trkpt lat="46.71129" lon="5.47926">
        <ele>223.8</ele>
        <time>2022-03-21T13:54:58Z</time>
      </trkpt>
      <trkpt lat="46.71127" lon="5.47928">
        <ele>223.8</ele>
        <time>2022-03-21T13:54:59Z</time>
      </trkpt>
      <trkpt lat="46.71122" lon="5.47931">
        <ele>223.8</ele>
        <time>2022-03-21T13:55:00Z</time>
      </trkpt>
      <trkpt lat="46.71117" lon="5.47935">
        <ele>223.8</ele>
        <time>2022-03-21T13:55:01Z</time>
      </trkpt>
      <trkpt lat="46.71109" lon="5.47941">
        <ele>223.8</ele>
        <time>2022-03-21T13:55:02Z</time>
      </trkpt>
      <trkpt lat="46.71107" lon="5.47943">
        <ele>224</ele>
        <time>2022-03-21T13:55:03Z</time>
      </trkpt>
      <trkpt lat="46.71102" lon="5.47946">
        <ele>224</ele>
        <time>2022-03-21T13:55:04Z</time>
      </trkpt>
      <trkpt lat="46.71097" lon="5.47949">
        <ele>224</ele>
        <time>2022-03-21T13:55:05Z</time>
      </trkpt>
      <trkpt lat="46.71091" lon="5.47953">
        <ele>224</ele>
        <time>2022-03-21T13:55:06Z</time>
      </trkpt>
      <trkpt lat="46.71086" lon="5.47956">
        <ele>224</ele>
        <time>2022-03-21T13:55:07Z</time>
      </trkpt>
      <trkpt lat="46.71078" lon="5.47961">
        <ele>224</ele>
        <time>2022-03-21T13:55:08Z</time>
      </trkpt>
      <trkpt lat="46.71076" lon="5.47962">
        <ele>224</ele>
        <time>2022-03-21T13:55:09Z</time>
      </trkpt>
      <trkpt lat="46.7107" lon="5.47966">
        <ele>224</ele>
        <time>2022-03-21T13:55:10Z</time>
      </trkpt>
      <trkpt lat="46.71065" lon="5.47969">
        <ele>224.2</ele>
        <time>2022-03-21T13:55:11Z</time>
      </trkpt>
      <trkpt lat="46.7106" lon="5.47973">
        <ele>224.2</ele>
        <time>2022-03-21T13:55:12Z</time>
      </trkpt>
      <trkpt lat="46.71054" lon="5.47976">
        <ele>224.2</ele>
        <time>2022-03-21T13:55:13Z</time>
      </trkpt>
      <trkpt lat="46.71049" lon="5.47979">
        <ele>224.2</ele>
        <time>2022-03-21T13:55:14Z</time>
      </trkpt>
      <trkpt lat="46.71043" lon="5.47982">
        <ele>224.4</ele>
        <time>2022-03-21T13:55:15Z</time>
      </trkpt>
      <trkpt lat="46.71038" lon="5.47985">
        <ele>224.4</ele>
        <time>2022-03-21T13:55:16Z</time>
      </trkpt>
      <trkpt lat="46.71032" lon="5.47988">
        <ele>224.4</ele>
        <time>2022-03-21T13:55:17Z</time>
      </trkpt>
      <trkpt lat="46.71027" lon="5.47991">
        <ele>224.8</ele>
        <time>2022-03-21T13:55:18Z</time>
      </trkpt>
      <trkpt lat="46.71022" lon="5.47993">
        <ele>224.8</ele>
        <time>2022-03-21T13:55:19Z</time>
      </trkpt>
      <trkpt lat="46.71017" lon="5.47996">
        <ele>224.8</ele>
        <time>2022-03-21T13:55:20Z</time>
      </trkpt>
      <trkpt lat="46.71011" lon="5.47999">
        <ele>224.8</ele>
        <time>2022-03-21T13:55:21Z</time>
      </trkpt>
      <trkpt lat="46.71006" lon="5.48001">
        <ele>225</ele>
        <time>2022-03-21T13:55:22Z</time>
      </trkpt>
      <trkpt lat="46.71001" lon="5.48004">
        <ele>225</ele>
        <time>2022-03-21T13:55:23Z</time>
      </trkpt>
      <trkpt lat="46.70997" lon="5.48007">
        <ele>225.2</ele>
        <time>2022-03-21T13:55:24Z</time>
      </trkpt>
      <trkpt lat="46.70992" lon="5.4801">
        <ele>225.2</ele>
        <time>2022-03-21T13:55:25Z</time>
      </trkpt>
      <trkpt lat="46.70987" lon="5.48013">
        <ele>225.4</ele>
        <time>2022-03-21T13:55:26Z</time>
      </trkpt>
      <trkpt lat="46.70982" lon="5.48016">
        <ele>225.4</ele>
        <time>2022-03-21T13:55:27Z</time>
      </trkpt>
      <trkpt lat="46.70978" lon="5.48018">
        <ele>225.8</ele>
        <time>2022-03-21T13:55:28Z</time>
      </trkpt>
      <trkpt lat="46.70973" lon="5.48021">
        <ele>225.8</ele>
        <time>2022-03-21T13:55:29Z</time>
      </trkpt>
      <trkpt lat="46.70969" lon="5.48023">
        <ele>226</ele>
        <time>2022-03-21T13:55:30Z</time>
      </trkpt>
      <trkpt lat="46.70964" lon="5.48026">
        <ele>226</ele>
        <time>2022-03-21T13:55:31Z</time>
      </trkpt>
      <trkpt lat="46.7096" lon="5.48029">
        <ele>226.2</ele>
        <time>2022-03-21T13:55:32Z</time>
      </trkpt>
      <trkpt lat="46.70956" lon="5.48032">
        <ele>226.2</ele>
        <time>2022-03-21T13:55:33Z</time>
      </trkpt>
      <trkpt lat="46.70951" lon="5.48035">
        <ele>226.6</ele>
        <time>2022-03-21T13:55:34Z</time>
      </trkpt>
      <trkpt lat="46.70947" lon="5.48038">
        <ele>226.8</ele>
        <time>2022-03-21T13:55:35Z</time>
      </trkpt>
      <trkpt lat="46.70943" lon="5.4804">
        <ele>227</ele>
        <time>2022-03-21T13:55:36Z</time>
      </trkpt>
      <trkpt lat="46.70937" lon="5.48044">
        <ele>227.4</ele>
        <time>2022-03-21T13:55:37Z</time>
      </trkpt>
      <trkpt lat="46.70934" lon="5.48046">
        <ele>227.6</ele>
        <time>2022-03-21T13:55:38Z</time>
      </trkpt>
      <trkpt lat="46.7093" lon="5.48048">
        <ele>227.8</ele>
        <time>2022-03-21T13:55:39Z</time>
      </trkpt>
      <trkpt lat="46.70926" lon="5.4805">
        <ele>228.2</ele>
        <time>2022-03-21T13:55:40Z</time>
      </trkpt>
      <trkpt lat="46.7092" lon="5.48054">
        <ele>228.4</ele>
        <time>2022-03-21T13:55:41Z</time>
      </trkpt>
      <trkpt lat="46.70918" lon="5.48055">
        <ele>228.6</ele>
        <time>2022-03-21T13:55:42Z</time>
      </trkpt>
      <trkpt lat="46.70914" lon="5.48058">
        <ele>228.8</ele>
        <time>2022-03-21T13:55:43Z</time>
      </trkpt>
      <trkpt lat="46.70908" lon="5.48061">
        <ele>229</ele>
        <time>2022-03-21T13:55:44Z</time>
      </trkpt>
      <trkpt lat="46.70906" lon="5.48063">
        <ele>229.4</ele>
        <time>2022-03-21T13:55:45Z</time>
      </trkpt>
      <trkpt lat="46.70901" lon="5.48066">
        <ele>229.6</ele>
        <time>2022-03-21T13:55:46Z</time>
      </trkpt>
      <trkpt lat="46.70899" lon="5.48068">
        <ele>229.6</ele>
        <time>2022-03-21T13:55:47Z</time>
      </trkpt>
      <trkpt lat="46.70895" lon="5.4807">
        <ele>229.8</ele>
        <time>2022-03-21T13:55:48Z</time>
      </trkpt>
      <trkpt lat="46.70892" lon="5.48071">
        <ele>229.8</ele>
        <time>2022-03-21T13:55:49Z</time>
      </trkpt>
      <trkpt lat="46.70888" lon="5.48074">
        <ele>230.2</ele>
        <time>2022-03-21T13:55:50Z</time>
      </trkpt>
      <trkpt lat="46.70885" lon="5.48076">
        <ele>230.4</ele>
        <time>2022-03-21T13:55:51Z</time>
      </trkpt>
      <trkpt lat="46.70881" lon="5.48078">
        <ele>230.4</ele>
        <time>2022-03-21T13:55:52Z</time>
      </trkpt>
      <trkpt lat="46.70877" lon="5.4808">
        <ele>230.6</ele>
        <time>2022-03-21T13:55:53Z</time>
      </trkpt>
      <trkpt lat="46.70874" lon="5.48082">
        <ele>230.6</ele>
        <time>2022-03-21T13:55:54Z</time>
      </trkpt>
      <trkpt lat="46.7087" lon="5.48084">
        <ele>231</ele>
        <time>2022-03-21T13:55:55Z</time>
      </trkpt>
      <trkpt lat="46.70867" lon="5.48086">
        <ele>231</ele>
        <time>2022-03-21T13:55:56Z</time>
      </trkpt>
      <trkpt lat="46.70863" lon="5.48089">
        <ele>231.4</ele>
        <time>2022-03-21T13:55:57Z</time>
      </trkpt>
      <trkpt lat="46.7086" lon="5.48091">
        <ele>231.4</ele>
        <time>2022-03-21T13:55:58Z</time>
      </trkpt>
      <trkpt lat="46.70856" lon="5.48093">
        <ele>231.8</ele>
        <time>2022-03-21T13:55:59Z</time>
      </trkpt>
      <trkpt lat="46.70853" lon="5.48095">
        <ele>232</ele>
        <time>2022-03-21T13:56:00Z</time>
      </trkpt>
      <trkpt lat="46.70849" lon="5.48097">
        <ele>232.2</ele>
        <time>2022-03-21T13:56:01Z</time>
      </trkpt>
      <trkpt lat="46.70846" lon="5.48099">
        <ele>232.4</ele>
        <time>2022-03-21T13:56:02Z</time>
      </trkpt>
      <trkpt lat="46.70842" lon="5.48101">
        <ele>232.4</ele>
        <time>2022-03-21T13:56:03Z</time>
      </trkpt>
      <trkpt lat="46.70839" lon="5.48103">
        <ele>232.8</ele>
        <time>2022-03-21T13:56:04Z</time>
      </trkpt>
      <trkpt lat="46.70836" lon="5.48105">
        <ele>233</ele>
        <time>2022-03-21T13:56:05Z</time>
      </trkpt>
      <trkpt lat="46.70832" lon="5.48107">
        <ele>233</ele>
        <time>2022-03-21T13:56:06Z</time>
      </trkpt>
      <trkpt lat="46.70829" lon="5.48109">
        <ele>233.4</ele>
        <time>2022-03-21T13:56:07Z</time>
      </trkpt>
      <trkpt lat="46.70826" lon="5.48111">
        <ele>233.6</ele>
        <time>2022-03-21T13:56:08Z</time>
      </trkpt>
      <trkpt lat="46.70822" lon="5.48113">
        <ele>233.6</ele>
        <time>2022-03-21T13:56:09Z</time>
      </trkpt>
      <trkpt lat="46.70819" lon="5.48115">
        <ele>234</ele>
        <time>2022-03-21T13:56:10Z</time>
      </trkpt>
      <trkpt lat="46.70816" lon="5.48117">
        <ele>234.2</ele>
        <time>2022-03-21T13:56:11Z</time>
      </trkpt>
      <trkpt lat="46.70813" lon="5.48119">
        <ele>234.2</ele>
        <time>2022-03-21T13:56:12Z</time>
      </trkpt>
      <trkpt lat="46.70809" lon="5.48121">
        <ele>234.6</ele>
        <time>2022-03-21T13:56:13Z</time>
      </trkpt>
      <trkpt lat="46.70806" lon="5.48123">
        <ele>234.6</ele>
        <time>2022-03-21T13:56:14Z</time>
      </trkpt>
      <trkpt lat="46.70802" lon="5.48126">
        <ele>234.8</ele>
        <time>2022-03-21T13:56:15Z</time>
      </trkpt>
      <trkpt lat="46.70799" lon="5.48128">
        <ele>235.2</ele>
        <time>2022-03-21T13:56:16Z</time>
      </trkpt>
      <trkpt lat="46.70795" lon="5.4813">
        <ele>235.2</ele>
        <time>2022-03-21T13:56:17Z</time>
      </trkpt>
      <trkpt lat="46.70791" lon="5.48133">
        <ele>235.2</ele>
        <time>2022-03-21T13:56:18Z</time>
      </trkpt>
      <trkpt lat="46.70787" lon="5.48135">
        <ele>235.4</ele>
        <time>2022-03-21T13:56:19Z</time>
      </trkpt>
      <trkpt lat="46.70783" lon="5.48138">
        <ele>235.4</ele>
        <time>2022-03-21T13:56:20Z</time>
      </trkpt>
      <trkpt lat="46.70779" lon="5.4814">
        <ele>235.8</ele>
        <time>2022-03-21T13:56:21Z</time>
      </trkpt>
      <trkpt lat="46.70775" lon="5.48143">
        <ele>235.8</ele>
        <time>2022-03-21T13:56:22Z</time>
      </trkpt>
      <trkpt lat="46.70771" lon="5.48145">
        <ele>236</ele>
        <time>2022-03-21T13:56:23Z</time>
      </trkpt>
      <trkpt lat="46.70767" lon="5.48148">
        <ele>236</ele>
        <time>2022-03-21T13:56:24Z</time>
      </trkpt>
      <trkpt lat="46.70763" lon="5.4815">
        <ele>236</ele>
        <time>2022-03-21T13:56:25Z</time>
      </trkpt>
      <trkpt lat="46.70759" lon="5.48153">
        <ele>236.4</ele>
        <time>2022-03-21T13:56:26Z</time>
      </trkpt>
      <trkpt lat="46.70754" lon="5.48155">
        <ele>236.4</ele>
        <time>2022-03-21T13:56:27Z</time>
      </trkpt>
      <trkpt lat="46.7075" lon="5.48157">
        <ele>236.6</ele>
        <time>2022-03-21T13:56:28Z</time>
      </trkpt>
      <trkpt lat="46.70746" lon="5.4816">
        <ele>236.6</ele>
        <time>2022-03-21T13:56:29Z</time>
      </trkpt>
      <trkpt lat="46.70742" lon="5.48162">
        <ele>236.8</ele>
        <time>2022-03-21T13:56:30Z</time>
      </trkpt>
      <trkpt lat="46.70737" lon="5.48164">
        <ele>236.8</ele>
        <time>2022-03-21T13:56:31Z</time>
      </trkpt>
      <trkpt lat="46.70733" lon="5.48166">
        <ele>237</ele>
        <time>2022-03-21T13:56:32Z</time>
      </trkpt>
      <trkpt lat="46.70728" lon="5.48169">
        <ele>237</ele>
        <time>2022-03-21T13:56:33Z</time>
      </trkpt>
      <trkpt lat="46.70724" lon="5.48172">
        <ele>237.2</ele>
        <time>2022-03-21T13:56:34Z</time>
      </trkpt>
      <trkpt lat="46.70717" lon="5.48176">
        <ele>237.2</ele>
        <time>2022-03-21T13:56:35Z</time>
      </trkpt>
      <trkpt lat="46.70715" lon="5.48178">
        <ele>237.2</ele>
        <time>2022-03-21T13:56:36Z</time>
      </trkpt>
      <trkpt lat="46.7071" lon="5.48181">
        <ele>237.6</ele>
        <time>2022-03-21T13:56:37Z</time>
      </trkpt>
      <trkpt lat="46.70705" lon="5.48184">
        <ele>237.6</ele>
        <time>2022-03-21T13:56:38Z</time>
      </trkpt>
      <trkpt lat="46.70701" lon="5.48186">
        <ele>237.6</ele>
        <time>2022-03-21T13:56:39Z</time>
      </trkpt>
      <trkpt lat="46.70696" lon="5.48189">
        <ele>237.6</ele>
        <time>2022-03-21T13:56:40Z</time>
      </trkpt>
      <trkpt lat="46.70692" lon="5.48192">
        <ele>237.8</ele>
        <time>2022-03-21T13:56:41Z</time>
      </trkpt>
      <trkpt lat="46.70684" lon="5.48195">
        <ele>237.8</ele>
        <time>2022-03-21T13:56:42Z</time>
      </trkpt>
      <trkpt lat="46.70682" lon="5.48197">
        <ele>238</ele>
        <time>2022-03-21T13:56:43Z</time>
      </trkpt>
      <trkpt lat="46.70677" lon="5.48199">
        <ele>238</ele>
        <time>2022-03-21T13:56:44Z</time>
      </trkpt>
      <trkpt lat="46.70673" lon="5.48202">
        <ele>238</ele>
        <time>2022-03-21T13:56:45Z</time>
      </trkpt>
      <trkpt lat="46.70665" lon="5.48205">
        <ele>238</ele>
        <time>2022-03-21T13:56:46Z</time>
      </trkpt>
      <trkpt lat="46.70663" lon="5.48207">
        <ele>238.4</ele>
        <time>2022-03-21T13:56:47Z</time>
      </trkpt>
      <trkpt lat="46.70658" lon="5.48209">
        <ele>238.4</ele>
        <time>2022-03-21T13:56:48Z</time>
      </trkpt>
      <trkpt lat="46.70651" lon="5.48213">
        <ele>238.4</ele>
        <time>2022-03-21T13:56:49Z</time>
      </trkpt>
      <trkpt lat="46.70649" lon="5.48214">
        <ele>238.6</ele>
        <time>2022-03-21T13:56:50Z</time>
      </trkpt>
      <trkpt lat="46.70644" lon="5.48217">
        <ele>238.6</ele>
        <time>2022-03-21T13:56:51Z</time>
      </trkpt>
      <trkpt lat="46.70639" lon="5.4822">
        <ele>238.6</ele>
        <time>2022-03-21T13:56:52Z</time>
      </trkpt>
      <trkpt lat="46.70635" lon="5.48222">
        <ele>238.6</ele>
        <time>2022-03-21T13:56:53Z</time>
      </trkpt>
      <trkpt lat="46.70631" lon="5.48225">
        <ele>238.6</ele>
        <time>2022-03-21T13:56:54Z</time>
      </trkpt>
      <trkpt lat="46.70626" lon="5.48227">
        <ele>238.8</ele>
        <time>2022-03-21T13:56:55Z</time>
      </trkpt>
      <trkpt lat="46.70622" lon="5.4823">
        <ele>238.8</ele>
        <time>2022-03-21T13:56:57Z</time>
      </trkpt>
      <trkpt lat="46.70617" lon="5.48233">
        <ele>238.8</ele>
        <time>2022-03-21T13:56:58Z</time>
      </trkpt>
      <trkpt lat="46.70613" lon="5.48236">
        <ele>238.8</ele>
        <time>2022-03-21T13:56:59Z</time>
      </trkpt>
      <trkpt lat="46.70608" lon="5.48239">
        <ele>239</ele>
        <time>2022-03-21T13:57:00Z</time>
      </trkpt>
      <trkpt lat="46.70603" lon="5.48242">
        <ele>239</ele>
        <time>2022-03-21T13:57:01Z</time>
      </trkpt>
      <trkpt lat="46.70598" lon="5.48244">
        <ele>239</ele>
        <time>2022-03-21T13:57:02Z</time>
      </trkpt>
      <trkpt lat="46.70594" lon="5.48247">
        <ele>239.2</ele>
        <time>2022-03-21T13:57:03Z</time>
      </trkpt>
      <trkpt lat="46.70589" lon="5.4825">
        <ele>239.2</ele>
        <time>2022-03-21T13:57:04Z</time>
      </trkpt>
      <trkpt lat="46.70575" lon="5.48258">
        <ele>239.6</ele>
        <time>2022-03-21T13:57:05Z</time>
      </trkpt>
      <trkpt lat="46.7057" lon="5.48261">
        <ele>239.6</ele>
        <time>2022-03-21T13:57:06Z</time>
      </trkpt>
      <trkpt lat="46.70565" lon="5.48263">
        <ele>239.6</ele>
        <time>2022-03-21T13:57:07Z</time>
      </trkpt>
      <trkpt lat="46.7056" lon="5.48265">
        <ele>239.8</ele>
        <time>2022-03-21T13:57:08Z</time>
      </trkpt>
      <trkpt lat="46.70555" lon="5.48268">
        <ele>239.8</ele>
        <time>2022-03-21T13:57:09Z</time>
      </trkpt>
      <trkpt lat="46.7055" lon="5.4827">
        <ele>239.8</ele>
        <time>2022-03-21T13:57:10Z</time>
      </trkpt>
      <trkpt lat="46.70546" lon="5.48272">
        <ele>240</ele>
        <time>2022-03-21T13:57:11Z</time>
      </trkpt>
      <trkpt lat="46.70541" lon="5.48275">
        <ele>240</ele>
        <time>2022-03-21T13:57:12Z</time>
      </trkpt>
      <trkpt lat="46.70536" lon="5.48277">
        <ele>240</ele>
        <time>2022-03-21T13:57:13Z</time>
      </trkpt>
      <trkpt lat="46.70532" lon="5.48279">
        <ele>240</ele>
        <time>2022-03-21T13:57:14Z</time>
      </trkpt>
      <trkpt lat="46.70527" lon="5.48282">
        <ele>240.4</ele>
        <time>2022-03-21T13:57:15Z</time>
      </trkpt>
      <trkpt lat="46.70523" lon="5.48284">
        <ele>240.6</ele>
        <time>2022-03-21T13:57:16Z</time>
      </trkpt>
      <trkpt lat="46.70518" lon="5.48287">
        <ele>240.8</ele>
        <time>2022-03-21T13:57:17Z</time>
      </trkpt>
      <trkpt lat="46.70514" lon="5.48289">
        <ele>240.8</ele>
        <time>2022-03-21T13:57:18Z</time>
      </trkpt>
      <trkpt lat="46.7051" lon="5.4829">
        <ele>241</ele>
        <time>2022-03-21T13:57:19Z</time>
      </trkpt>
      <trkpt lat="46.70506" lon="5.48292">
        <ele>241</ele>
        <time>2022-03-21T13:57:20Z</time>
      </trkpt>
      <trkpt lat="46.70502" lon="5.48294">
        <ele>241.2</ele>
        <time>2022-03-21T13:57:21Z</time>
      </trkpt>
      <trkpt lat="46.70497" lon="5.48296">
        <ele>241.2</ele>
        <time>2022-03-21T13:57:22Z</time>
      </trkpt>
      <trkpt lat="46.70493" lon="5.48299">
        <ele>241.4</ele>
        <time>2022-03-21T13:57:23Z</time>
      </trkpt>
      <trkpt lat="46.70489" lon="5.48301">
        <ele>241.4</ele>
        <time>2022-03-21T13:57:24Z</time>
      </trkpt>
      <trkpt lat="46.70484" lon="5.48302">
        <ele>241.6</ele>
        <time>2022-03-21T13:57:25Z</time>
      </trkpt>
      <trkpt lat="46.7048" lon="5.48304">
        <ele>241.6</ele>
        <time>2022-03-21T13:57:26Z</time>
      </trkpt>
      <trkpt lat="46.70475" lon="5.48307">
        <ele>241.6</ele>
        <time>2022-03-21T13:57:27Z</time>
      </trkpt>
      <trkpt lat="46.70471" lon="5.48309">
        <ele>241.8</ele>
        <time>2022-03-21T13:57:28Z</time>
      </trkpt>
      <trkpt lat="46.70466" lon="5.48311">
        <ele>241.8</ele>
        <time>2022-03-21T13:57:29Z</time>
      </trkpt>
      <trkpt lat="46.70462" lon="5.48314">
        <ele>241.8</ele>
        <time>2022-03-21T13:57:30Z</time>
      </trkpt>
      <trkpt lat="46.70457" lon="5.48316">
        <ele>242.2</ele>
        <time>2022-03-21T13:57:31Z</time>
      </trkpt>
      <trkpt lat="46.70452" lon="5.48319">
        <ele>242.2</ele>
        <time>2022-03-21T13:57:32Z</time>
      </trkpt>
      <trkpt lat="46.70448" lon="5.48322">
        <ele>242.2</ele>
        <time>2022-03-21T13:57:33Z</time>
      </trkpt>
      <trkpt lat="46.70443" lon="5.48326">
        <ele>242.2</ele>
        <time>2022-03-21T13:57:34Z</time>
      </trkpt>
      <trkpt lat="46.70438" lon="5.4833">
        <ele>242.2</ele>
        <time>2022-03-21T13:57:35Z</time>
      </trkpt>
      <trkpt lat="46.70433" lon="5.48334">
        <ele>242.2</ele>
        <time>2022-03-21T13:57:36Z</time>
      </trkpt>
      <trkpt lat="46.70429" lon="5.48337">
        <ele>242.2</ele>
        <time>2022-03-21T13:57:37Z</time>
      </trkpt>
      <trkpt lat="46.70424" lon="5.48341">
        <ele>242.2</ele>
        <time>2022-03-21T13:57:38Z</time>
      </trkpt>
      <trkpt lat="46.70419" lon="5.48344">
        <ele>242.2</ele>
        <time>2022-03-21T13:57:39Z</time>
      </trkpt>
      <trkpt lat="46.70414" lon="5.48347">
        <ele>242.2</ele>
        <time>2022-03-21T13:57:40Z</time>
      </trkpt>
      <trkpt lat="46.70409" lon="5.4835">
        <ele>242.2</ele>
        <time>2022-03-21T13:57:41Z</time>
      </trkpt>
      <trkpt lat="46.70404" lon="5.48353">
        <ele>242.4</ele>
        <time>2022-03-21T13:57:42Z</time>
      </trkpt>
      <trkpt lat="46.70399" lon="5.48356">
        <ele>242.4</ele>
        <time>2022-03-21T13:57:43Z</time>
      </trkpt>
      <trkpt lat="46.70394" lon="5.48359">
        <ele>242.4</ele>
        <time>2022-03-21T13:57:44Z</time>
      </trkpt>
      <trkpt lat="46.70389" lon="5.48362">
        <ele>242.4</ele>
        <time>2022-03-21T13:57:45Z</time>
      </trkpt>
      <trkpt lat="46.70384" lon="5.48365">
        <ele>242.4</ele>
        <time>2022-03-21T13:57:46Z</time>
      </trkpt>
      <trkpt lat="46.70379" lon="5.48369">
        <ele>242.4</ele>
        <time>2022-03-21T13:57:47Z</time>
      </trkpt>
      <trkpt lat="46.70374" lon="5.48371">
        <ele>242.6</ele>
        <time>2022-03-21T13:57:48Z</time>
      </trkpt>
      <trkpt lat="46.70369" lon="5.48374">
        <ele>242.6</ele>
        <time>2022-03-21T13:57:49Z</time>
      </trkpt>
      <trkpt lat="46.70364" lon="5.48378">
        <ele>242.6</ele>
        <time>2022-03-21T13:57:50Z</time>
      </trkpt>
      <trkpt lat="46.70359" lon="5.48381">
        <ele>242.6</ele>
        <time>2022-03-21T13:57:51Z</time>
      </trkpt>
      <trkpt lat="46.70354" lon="5.48384">
        <ele>242.6</ele>
        <time>2022-03-21T13:57:52Z</time>
      </trkpt>
      <trkpt lat="46.70349" lon="5.48387">
        <ele>242.6</ele>
        <time>2022-03-21T13:57:53Z</time>
      </trkpt>
      <trkpt lat="46.70343" lon="5.48389">
        <ele>243</ele>
        <time>2022-03-21T13:57:54Z</time>
      </trkpt>
      <trkpt lat="46.70338" lon="5.48392">
        <ele>243</ele>
        <time>2022-03-21T13:57:55Z</time>
      </trkpt>
      <trkpt lat="46.70333" lon="5.48396">
        <ele>243</ele>
        <time>2022-03-21T13:57:56Z</time>
      </trkpt>
      <trkpt lat="46.70328" lon="5.484">
        <ele>243</ele>
        <time>2022-03-21T13:57:57Z</time>
      </trkpt>
      <trkpt lat="46.70322" lon="5.48403">
        <ele>243</ele>
        <time>2022-03-21T13:57:58Z</time>
      </trkpt>
      <trkpt lat="46.70317" lon="5.48406">
        <ele>243</ele>
        <time>2022-03-21T13:57:59Z</time>
      </trkpt>
      <trkpt lat="46.70312" lon="5.4841">
        <ele>243</ele>
        <time>2022-03-21T13:58:00Z</time>
      </trkpt>
      <trkpt lat="46.70307" lon="5.48413">
        <ele>243</ele>
        <time>2022-03-21T13:58:01Z</time>
      </trkpt>
      <trkpt lat="46.70301" lon="5.48416">
        <ele>243</ele>
        <time>2022-03-21T13:58:02Z</time>
      </trkpt>
      <trkpt lat="46.70296" lon="5.48418">
        <ele>243</ele>
        <time>2022-03-21T13:58:03Z</time>
      </trkpt>
      <trkpt lat="46.7029" lon="5.48421">
        <ele>243</ele>
        <time>2022-03-21T13:58:04Z</time>
      </trkpt>
      <trkpt lat="46.70285" lon="5.48424">
        <ele>243</ele>
        <time>2022-03-21T13:58:05Z</time>
      </trkpt>
      <trkpt lat="46.7028" lon="5.48426">
        <ele>243.2</ele>
        <time>2022-03-21T13:58:06Z</time>
      </trkpt>
      <trkpt lat="46.70275" lon="5.48429">
        <ele>243.2</ele>
        <time>2022-03-21T13:58:07Z</time>
      </trkpt>
      <trkpt lat="46.7027" lon="5.48432">
        <ele>243.2</ele>
        <time>2022-03-21T13:58:08Z</time>
      </trkpt>
      <trkpt lat="46.70265" lon="5.48434">
        <ele>243.2</ele>
        <time>2022-03-21T13:58:09Z</time>
      </trkpt>
      <trkpt lat="46.7026" lon="5.48437">
        <ele>243.2</ele>
        <time>2022-03-21T13:58:10Z</time>
      </trkpt>
      <trkpt lat="46.70255" lon="5.48439">
        <ele>243.2</ele>
        <time>2022-03-21T13:58:12Z</time>
      </trkpt>
      <trkpt lat="46.7025" lon="5.48441">
        <ele>243.2</ele>
        <time>2022-03-21T13:58:13Z</time>
      </trkpt>
      <trkpt lat="46.70245" lon="5.48444">
        <ele>243.2</ele>
        <time>2022-03-21T13:58:14Z</time>
      </trkpt>
      <trkpt lat="46.70239" lon="5.48447">
        <ele>243.4</ele>
        <time>2022-03-21T13:58:15Z</time>
      </trkpt>
      <trkpt lat="46.70234" lon="5.48449">
        <ele>243.4</ele>
        <time>2022-03-21T13:58:16Z</time>
      </trkpt>
      <trkpt lat="46.70229" lon="5.48453">
        <ele>243.4</ele>
        <time>2022-03-21T13:58:17Z</time>
      </trkpt>
      <trkpt lat="46.70224" lon="5.48456">
        <ele>243.6</ele>
        <time>2022-03-21T13:58:18Z</time>
      </trkpt>
      <trkpt lat="46.7022" lon="5.4846">
        <ele>243.6</ele>
        <time>2022-03-21T13:58:19Z</time>
      </trkpt>
      <trkpt lat="46.70215" lon="5.48462">
        <ele>243.6</ele>
        <time>2022-03-21T13:58:20Z</time>
      </trkpt>
      <trkpt lat="46.7021" lon="5.48465">
        <ele>243.6</ele>
        <time>2022-03-21T13:58:21Z</time>
      </trkpt>
      <trkpt lat="46.70205" lon="5.48468">
        <ele>243.6</ele>
        <time>2022-03-21T13:58:22Z</time>
      </trkpt>
      <trkpt lat="46.702" lon="5.48471">
        <ele>243.8</ele>
        <time>2022-03-21T13:58:23Z</time>
      </trkpt>
      <trkpt lat="46.70196" lon="5.48474">
        <ele>243.8</ele>
        <time>2022-03-21T13:58:24Z</time>
      </trkpt>
      <trkpt lat="46.70191" lon="5.48477">
        <ele>243.8</ele>
        <time>2022-03-21T13:58:25Z</time>
      </trkpt>
      <trkpt lat="46.70185" lon="5.4848">
        <ele>243.8</ele>
        <time>2022-03-21T13:58:26Z</time>
      </trkpt>
      <trkpt lat="46.7018" lon="5.48483">
        <ele>243.8</ele>
        <time>2022-03-21T13:58:27Z</time>
      </trkpt>
      <trkpt lat="46.70175" lon="5.48486">
        <ele>243.8</ele>
        <time>2022-03-21T13:58:28Z</time>
      </trkpt>
      <trkpt lat="46.7017" lon="5.48489">
        <ele>243.8</ele>
        <time>2022-03-21T13:58:29Z</time>
      </trkpt>
      <trkpt lat="46.70164" lon="5.48492">
        <ele>243.8</ele>
        <time>2022-03-21T13:58:30Z</time>
      </trkpt>
      <trkpt lat="46.70159" lon="5.48495">
        <ele>243.8</ele>
        <time>2022-03-21T13:58:31Z</time>
      </trkpt>
      <trkpt lat="46.70153" lon="5.48499">
        <ele>243.8</ele>
        <time>2022-03-21T13:58:32Z</time>
      </trkpt>
      <trkpt lat="46.70148" lon="5.48502">
        <ele>244</ele>
        <time>2022-03-21T13:58:33Z</time>
      </trkpt>
      <trkpt lat="46.70142" lon="5.48505">
        <ele>244</ele>
        <time>2022-03-21T13:58:34Z</time>
      </trkpt>
      <trkpt lat="46.70136" lon="5.48508">
        <ele>244</ele>
        <time>2022-03-21T13:58:35Z</time>
      </trkpt>
      <trkpt lat="46.7013" lon="5.48512">
        <ele>244</ele>
        <time>2022-03-21T13:58:36Z</time>
      </trkpt>
      <trkpt lat="46.70125" lon="5.48516">
        <ele>243.8</ele>
        <time>2022-03-21T13:58:37Z</time>
      </trkpt>
      <trkpt lat="46.7012" lon="5.48521">
        <ele>243.8</ele>
        <time>2022-03-21T13:58:38Z</time>
      </trkpt>
      <trkpt lat="46.70115" lon="5.48525">
        <ele>243.8</ele>
        <time>2022-03-21T13:58:39Z</time>
      </trkpt>
      <trkpt lat="46.7011" lon="5.48531">
        <ele>243.8</ele>
        <time>2022-03-21T13:58:40Z</time>
      </trkpt>
      <trkpt lat="46.70105" lon="5.48537">
        <ele>243.8</ele>
        <time>2022-03-21T13:58:41Z</time>
      </trkpt>
      <trkpt lat="46.70101" lon="5.48543">
        <ele>243.8</ele>
        <time>2022-03-21T13:58:42Z</time>
      </trkpt>
      <trkpt lat="46.70096" lon="5.48548">
        <ele>243.8</ele>
        <time>2022-03-21T13:58:43Z</time>
      </trkpt>
      <trkpt lat="46.70091" lon="5.48554">
        <ele>243.8</ele>
        <time>2022-03-21T13:58:44Z</time>
      </trkpt>
      <trkpt lat="46.70086" lon="5.48559">
        <ele>243.8</ele>
        <time>2022-03-21T13:58:45Z</time>
      </trkpt>
      <trkpt lat="46.70082" lon="5.48565">
        <ele>243.8</ele>
        <time>2022-03-21T13:58:46Z</time>
      </trkpt>
      <trkpt lat="46.70077" lon="5.48572">
        <ele>243.8</ele>
        <time>2022-03-21T13:58:47Z</time>
      </trkpt>
      <trkpt lat="46.70072" lon="5.48578">
        <ele>243.8</ele>
        <time>2022-03-21T13:58:48Z</time>
      </trkpt>
      <trkpt lat="46.70067" lon="5.48584">
        <ele>243.8</ele>
        <time>2022-03-21T13:58:49Z</time>
      </trkpt>
      <trkpt lat="46.70062" lon="5.4859">
        <ele>243.8</ele>
        <time>2022-03-21T13:58:50Z</time>
      </trkpt>
      <trkpt lat="46.70058" lon="5.48596">
        <ele>243.8</ele>
        <time>2022-03-21T13:58:51Z</time>
      </trkpt>
      <trkpt lat="46.70054" lon="5.48602">
        <ele>243.8</ele>
        <time>2022-03-21T13:58:52Z</time>
      </trkpt>
      <trkpt lat="46.70049" lon="5.48608">
        <ele>243.8</ele>
        <time>2022-03-21T13:58:53Z</time>
      </trkpt>
      <trkpt lat="46.70045" lon="5.48614">
        <ele>244.2</ele>
        <time>2022-03-21T13:58:54Z</time>
      </trkpt>
      <trkpt lat="46.7004" lon="5.48621">
        <ele>244.2</ele>
        <time>2022-03-21T13:58:55Z</time>
      </trkpt>
      <trkpt lat="46.70036" lon="5.48627">
        <ele>244.2</ele>
        <time>2022-03-21T13:58:56Z</time>
      </trkpt>
      <trkpt lat="46.70031" lon="5.48633">
        <ele>244.2</ele>
        <time>2022-03-21T13:58:57Z</time>
      </trkpt>
      <trkpt lat="46.70027" lon="5.48639">
        <ele>244.4</ele>
        <time>2022-03-21T13:58:58Z</time>
      </trkpt>
      <trkpt lat="46.70023" lon="5.48645">
        <ele>244.4</ele>
        <time>2022-03-21T13:58:59Z</time>
      </trkpt>
      <trkpt lat="46.70018" lon="5.48652">
        <ele>244.4</ele>
        <time>2022-03-21T13:59:00Z</time>
      </trkpt>
      <trkpt lat="46.70014" lon="5.48658">
        <ele>244.4</ele>
        <time>2022-03-21T13:59:01Z</time>
      </trkpt>
      <trkpt lat="46.70009" lon="5.48664">
        <ele>244.6</ele>
        <time>2022-03-21T13:59:02Z</time>
      </trkpt>
      <trkpt lat="46.70005" lon="5.4867">
        <ele>244.6</ele>
        <time>2022-03-21T13:59:03Z</time>
      </trkpt>
      <trkpt lat="46.70001" lon="5.48676">
        <ele>245</ele>
        <time>2022-03-21T13:59:04Z</time>
      </trkpt>
      <trkpt lat="46.69996" lon="5.48682">
        <ele>245</ele>
        <time>2022-03-21T13:59:05Z</time>
      </trkpt>
      <trkpt lat="46.69992" lon="5.48688">
        <ele>245</ele>
        <time>2022-03-21T13:59:06Z</time>
      </trkpt>
      <trkpt lat="46.69988" lon="5.48694">
        <ele>245.2</ele>
        <time>2022-03-21T13:59:07Z</time>
      </trkpt>
      <trkpt lat="46.69983" lon="5.487">
        <ele>245.2</ele>
        <time>2022-03-21T13:59:08Z</time>
      </trkpt>
      <trkpt lat="46.69979" lon="5.48706">
        <ele>245.2</ele>
        <time>2022-03-21T13:59:09Z</time>
      </trkpt>
      <trkpt lat="46.69975" lon="5.48712">
        <ele>245.2</ele>
        <time>2022-03-21T13:59:10Z</time>
      </trkpt>
      <trkpt lat="46.69971" lon="5.48718">
        <ele>245.4</ele>
        <time>2022-03-21T13:59:11Z</time>
      </trkpt>
      <trkpt lat="46.69967" lon="5.48724">
        <ele>245.4</ele>
        <time>2022-03-21T13:59:12Z</time>
      </trkpt>
      <trkpt lat="46.69963" lon="5.48729">
        <ele>245.4</ele>
        <time>2022-03-21T13:59:13Z</time>
      </trkpt>
      <trkpt lat="46.69959" lon="5.48735">
        <ele>245.4</ele>
        <time>2022-03-21T13:59:14Z</time>
      </trkpt>
      <trkpt lat="46.69954" lon="5.4874">
        <ele>246.2</ele>
        <time>2022-03-21T13:59:15Z</time>
      </trkpt>
      <trkpt lat="46.69951" lon="5.48746">
        <ele>246.2</ele>
        <time>2022-03-21T13:59:16Z</time>
      </trkpt>
      <trkpt lat="46.69947" lon="5.48751">
        <ele>246.2</ele>
        <time>2022-03-21T13:59:17Z</time>
      </trkpt>
      <trkpt lat="46.69943" lon="5.48756">
        <ele>246.2</ele>
        <time>2022-03-21T13:59:18Z</time>
      </trkpt>
      <trkpt lat="46.6994" lon="5.4876">
        <ele>246.2</ele>
        <time>2022-03-21T13:59:19Z</time>
      </trkpt>
      <trkpt lat="46.69937" lon="5.48765">
        <ele>246.2</ele>
        <time>2022-03-21T13:59:20Z</time>
      </trkpt>
      <trkpt lat="46.69933" lon="5.4877">
        <ele>246.2</ele>
        <time>2022-03-21T13:59:21Z</time>
      </trkpt>
      <trkpt lat="46.6993" lon="5.48775">
        <ele>246.2</ele>
        <time>2022-03-21T13:59:22Z</time>
      </trkpt>
      <trkpt lat="46.69926" lon="5.4878">
        <ele>246.6</ele>
        <time>2022-03-21T13:59:23Z</time>
      </trkpt>
      <trkpt lat="46.69923" lon="5.48785">
        <ele>246.6</ele>
        <time>2022-03-21T13:59:24Z</time>
      </trkpt>
      <trkpt lat="46.6992" lon="5.4879">
        <ele>246.6</ele>
        <time>2022-03-21T13:59:25Z</time>
      </trkpt>
      <trkpt lat="46.69916" lon="5.48795">
        <ele>247</ele>
        <time>2022-03-21T13:59:26Z</time>
      </trkpt>
      <trkpt lat="46.69913" lon="5.488">
        <ele>247</ele>
        <time>2022-03-21T13:59:27Z</time>
      </trkpt>
      <trkpt lat="46.6991" lon="5.48805">
        <ele>247</ele>
        <time>2022-03-21T13:59:28Z</time>
      </trkpt>
      <trkpt lat="46.69906" lon="5.4881">
        <ele>247.2</ele>
        <time>2022-03-21T13:59:29Z</time>
      </trkpt>
      <trkpt lat="46.69903" lon="5.48815">
        <ele>247.2</ele>
        <time>2022-03-21T13:59:30Z</time>
      </trkpt>
      <trkpt lat="46.69899" lon="5.4882">
        <ele>247.2</ele>
        <time>2022-03-21T13:59:31Z</time>
      </trkpt>
      <trkpt lat="46.69896" lon="5.48825">
        <ele>247.4</ele>
        <time>2022-03-21T13:59:32Z</time>
      </trkpt>
      <trkpt lat="46.69892" lon="5.4883">
        <ele>247.4</ele>
        <time>2022-03-21T13:59:33Z</time>
      </trkpt>
      <trkpt lat="46.69889" lon="5.48834">
        <ele>247.8</ele>
        <time>2022-03-21T13:59:34Z</time>
      </trkpt>
      <trkpt lat="46.69885" lon="5.48839">
        <ele>247.8</ele>
        <time>2022-03-21T13:59:35Z</time>
      </trkpt>
      <trkpt lat="46.69881" lon="5.48844">
        <ele>248</ele>
        <time>2022-03-21T13:59:36Z</time>
      </trkpt>
      <trkpt lat="46.69878" lon="5.48849">
        <ele>248</ele>
        <time>2022-03-21T13:59:37Z</time>
      </trkpt>
      <trkpt lat="46.69874" lon="5.48854">
        <ele>248.2</ele>
        <time>2022-03-21T13:59:38Z</time>
      </trkpt>
      <trkpt lat="46.6987" lon="5.48859">
        <ele>248.2</ele>
        <time>2022-03-21T13:59:39Z</time>
      </trkpt>
      <trkpt lat="46.69867" lon="5.48864">
        <ele>248.2</ele>
        <time>2022-03-21T13:59:40Z</time>
      </trkpt>
      <trkpt lat="46.69863" lon="5.48869">
        <ele>248.2</ele>
        <time>2022-03-21T13:59:41Z</time>
      </trkpt>
      <trkpt lat="46.69859" lon="5.48874">
        <ele>248.2</ele>
        <time>2022-03-21T13:59:42Z</time>
      </trkpt>
      <trkpt lat="46.69856" lon="5.48878">
        <ele>248.2</ele>
        <time>2022-03-21T13:59:43Z</time>
      </trkpt>
      <trkpt lat="46.69852" lon="5.48883">
        <ele>248.6</ele>
        <time>2022-03-21T13:59:44Z</time>
      </trkpt>
      <trkpt lat="46.69849" lon="5.48888">
        <ele>248.6</ele>
        <time>2022-03-21T13:59:45Z</time>
      </trkpt>
      <trkpt lat="46.69845" lon="5.48894">
        <ele>248.6</ele>
        <time>2022-03-21T13:59:46Z</time>
      </trkpt>
      <trkpt lat="46.69841" lon="5.48899">
        <ele>248.6</ele>
        <time>2022-03-21T13:59:47Z</time>
      </trkpt>
      <trkpt lat="46.69837" lon="5.48904">
        <ele>248.6</ele>
        <time>2022-03-21T13:59:48Z</time>
      </trkpt>
      <trkpt lat="46.69834" lon="5.48909">
        <ele>248.6</ele>
        <time>2022-03-21T13:59:49Z</time>
      </trkpt>
      <trkpt lat="46.6983" lon="5.48915">
        <ele>248.6</ele>
        <time>2022-03-21T13:59:50Z</time>
      </trkpt>
      <trkpt lat="46.69826" lon="5.4892">
        <ele>248.6</ele>
        <time>2022-03-21T13:59:51Z</time>
      </trkpt>
      <trkpt lat="46.69822" lon="5.48926">
        <ele>248.8</ele>
        <time>2022-03-21T13:59:52Z</time>
      </trkpt>
      <trkpt lat="46.69819" lon="5.48931">
        <ele>248.8</ele>
        <time>2022-03-21T13:59:53Z</time>
      </trkpt>
      <trkpt lat="46.69815" lon="5.48937">
        <ele>248.8</ele>
        <time>2022-03-21T13:59:54Z</time>
      </trkpt>
      <trkpt lat="46.69811" lon="5.48942">
        <ele>248.8</ele>
        <time>2022-03-21T13:59:55Z</time>
      </trkpt>
      <trkpt lat="46.69807" lon="5.48947">
        <ele>248.8</ele>
        <time>2022-03-21T13:59:56Z</time>
      </trkpt>
      <trkpt lat="46.69803" lon="5.48953">
        <ele>248.8</ele>
        <time>2022-03-21T13:59:57Z</time>
      </trkpt>
      <trkpt lat="46.69799" lon="5.48958">
        <ele>248.8</ele>
        <time>2022-03-21T13:59:58Z</time>
      </trkpt>
      <trkpt lat="46.69795" lon="5.48964">
        <ele>248.8</ele>
        <time>2022-03-21T13:59:59Z</time>
      </trkpt>
      <trkpt lat="46.69791" lon="5.48969">
        <ele>248.8</ele>
        <time>2022-03-21T14:00:00Z</time>
      </trkpt>
      <trkpt lat="46.69787" lon="5.48975">
        <ele>248.8</ele>
        <time>2022-03-21T14:00:01Z</time>
      </trkpt>
      <trkpt lat="46.69783" lon="5.4898">
        <ele>248.8</ele>
        <time>2022-03-21T14:00:02Z</time>
      </trkpt>
      <trkpt lat="46.69779" lon="5.48986">
        <ele>248.8</ele>
        <time>2022-03-21T14:00:03Z</time>
      </trkpt>
      <trkpt lat="46.69775" lon="5.48992">
        <ele>249</ele>
        <time>2022-03-21T14:00:04Z</time>
      </trkpt>
      <trkpt lat="46.69771" lon="5.48998">
        <ele>249</ele>
        <time>2022-03-21T14:00:05Z</time>
      </trkpt>
      <trkpt lat="46.69766" lon="5.49005">
        <ele>248.6</ele>
        <time>2022-03-21T14:00:06Z</time>
      </trkpt>
      <trkpt lat="46.69762" lon="5.49011">
        <ele>248.6</ele>
        <time>2022-03-21T14:00:07Z</time>
      </trkpt>
      <trkpt lat="46.69757" lon="5.49017">
        <ele>248.6</ele>
        <time>2022-03-21T14:00:08Z</time>
      </trkpt>
      <trkpt lat="46.69753" lon="5.49024">
        <ele>248.4</ele>
        <time>2022-03-21T14:00:09Z</time>
      </trkpt>
      <trkpt lat="46.69748" lon="5.4903">
        <ele>248.4</ele>
        <time>2022-03-21T14:00:10Z</time>
      </trkpt>
      <trkpt lat="46.69743" lon="5.49037">
        <ele>248.4</ele>
        <time>2022-03-21T14:00:11Z</time>
      </trkpt>
      <trkpt lat="46.69739" lon="5.49044">
        <ele>248.2</ele>
        <time>2022-03-21T14:00:12Z</time>
      </trkpt>
      <trkpt lat="46.69734" lon="5.49051">
        <ele>248.2</ele>
        <time>2022-03-21T14:00:13Z</time>
      </trkpt>
      <trkpt lat="46.69729" lon="5.49058">
        <ele>247.8</ele>
        <time>2022-03-21T14:00:14Z</time>
      </trkpt>
      <trkpt lat="46.69724" lon="5.49065">
        <ele>247.8</ele>
        <time>2022-03-21T14:00:15Z</time>
      </trkpt>
      <trkpt lat="46.69719" lon="5.49072">
        <ele>247.6</ele>
        <time>2022-03-21T14:00:16Z</time>
      </trkpt>
      <trkpt lat="46.69713" lon="5.4908">
        <ele>247.4</ele>
        <time>2022-03-21T14:00:17Z</time>
      </trkpt>
      <trkpt lat="46.69708" lon="5.49087">
        <ele>247.4</ele>
        <time>2022-03-21T14:00:18Z</time>
      </trkpt>
      <trkpt lat="46.69703" lon="5.49095">
        <ele>247.4</ele>
        <time>2022-03-21T14:00:19Z</time>
      </trkpt>
      <trkpt lat="46.69698" lon="5.49103">
        <ele>247</ele>
        <time>2022-03-21T14:00:20Z</time>
      </trkpt>
      <trkpt lat="46.69692" lon="5.4911">
        <ele>247</ele>
        <time>2022-03-21T14:00:21Z</time>
      </trkpt>
      <trkpt lat="46.69687" lon="5.49118">
        <ele>246.8</ele>
        <time>2022-03-21T14:00:22Z</time>
      </trkpt>
      <trkpt lat="46.69681" lon="5.49126">
        <ele>246.4</ele>
        <time>2022-03-21T14:00:23Z</time>
      </trkpt>
      <trkpt lat="46.69676" lon="5.49134">
        <ele>246.4</ele>
        <time>2022-03-21T14:00:24Z</time>
      </trkpt>
      <trkpt lat="46.69671" lon="5.49142">
        <ele>246.2</ele>
        <time>2022-03-21T14:00:25Z</time>
      </trkpt>
      <trkpt lat="46.69665" lon="5.4915">
        <ele>246</ele>
        <time>2022-03-21T14:00:26Z</time>
      </trkpt>
      <trkpt lat="46.6966" lon="5.49158">
        <ele>246</ele>
        <time>2022-03-21T14:00:27Z</time>
      </trkpt>
      <trkpt lat="46.69654" lon="5.49166">
        <ele>245.8</ele>
        <time>2022-03-21T14:00:28Z</time>
      </trkpt>
      <trkpt lat="46.69649" lon="5.49173">
        <ele>245.8</ele>
        <time>2022-03-21T14:00:29Z</time>
      </trkpt>
      <trkpt lat="46.69644" lon="5.49181">
        <ele>245.4</ele>
        <time>2022-03-21T14:00:30Z</time>
      </trkpt>
      <trkpt lat="46.69639" lon="5.49188">
        <ele>245.4</ele>
        <time>2022-03-21T14:00:31Z</time>
      </trkpt>
      <trkpt lat="46.69633" lon="5.49196">
        <ele>245.4</ele>
        <time>2022-03-21T14:00:32Z</time>
      </trkpt>
      <trkpt lat="46.69629" lon="5.49203">
        <ele>245.2</ele>
        <time>2022-03-21T14:00:33Z</time>
      </trkpt>
      <trkpt lat="46.69624" lon="5.4921">
        <ele>245.2</ele>
        <time>2022-03-21T14:00:34Z</time>
      </trkpt>
      <trkpt lat="46.69619" lon="5.49217">
        <ele>245.2</ele>
        <time>2022-03-21T14:00:35Z</time>
      </trkpt>
      <trkpt lat="46.69614" lon="5.49224">
        <ele>245.2</ele>
        <time>2022-03-21T14:00:36Z</time>
      </trkpt>
      <trkpt lat="46.6961" lon="5.49231">
        <ele>245.2</ele>
        <time>2022-03-21T14:00:37Z</time>
      </trkpt>
      <trkpt lat="46.69606" lon="5.49237">
        <ele>245.2</ele>
        <time>2022-03-21T14:00:38Z</time>
      </trkpt>
      <trkpt lat="46.69602" lon="5.49243">
        <ele>245.6</ele>
        <time>2022-03-21T14:00:39Z</time>
      </trkpt>
      <trkpt lat="46.69598" lon="5.49248">
        <ele>245.8</ele>
        <time>2022-03-21T14:00:40Z</time>
      </trkpt>
      <trkpt lat="46.69594" lon="5.49254">
        <ele>245.8</ele>
        <time>2022-03-21T14:00:41Z</time>
      </trkpt>
      <trkpt lat="46.69591" lon="5.49259">
        <ele>246.2</ele>
        <time>2022-03-21T14:00:42Z</time>
      </trkpt>
      <trkpt lat="46.69588" lon="5.49263">
        <ele>246.2</ele>
        <time>2022-03-21T14:00:43Z</time>
      </trkpt>
      <trkpt lat="46.69585" lon="5.49268">
        <ele>246.8</ele>
        <time>2022-03-21T14:00:44Z</time>
      </trkpt>
      <trkpt lat="46.69582" lon="5.49272">
        <ele>247</ele>
        <time>2022-03-21T14:00:45Z</time>
      </trkpt>
      <trkpt lat="46.69579" lon="5.49276">
        <ele>247.2</ele>
        <time>2022-03-21T14:00:46Z</time>
      </trkpt>
      <trkpt lat="46.69576" lon="5.4928">
        <ele>247.2</ele>
        <time>2022-03-21T14:00:47Z</time>
      </trkpt>
      <trkpt lat="46.69574" lon="5.49285">
        <ele>247.8</ele>
        <time>2022-03-21T14:00:48Z</time>
      </trkpt>
      <trkpt lat="46.69571" lon="5.49289">
        <ele>248.2</ele>
        <time>2022-03-21T14:00:49Z</time>
      </trkpt>
      <trkpt lat="46.69568" lon="5.49293">
        <ele>248.2</ele>
        <time>2022-03-21T14:00:50Z</time>
      </trkpt>
      <trkpt lat="46.69566" lon="5.49297">
        <ele>248.4</ele>
        <time>2022-03-21T14:00:51Z</time>
      </trkpt>
      <trkpt lat="46.69563" lon="5.49301">
        <ele>248.4</ele>
        <time>2022-03-21T14:00:52Z</time>
      </trkpt>
      <trkpt lat="46.6956" lon="5.49305">
        <ele>248.8</ele>
        <time>2022-03-21T14:00:53Z</time>
      </trkpt>
      <trkpt lat="46.69557" lon="5.49309">
        <ele>249</ele>
        <time>2022-03-21T14:00:54Z</time>
      </trkpt>
      <trkpt lat="46.69555" lon="5.49312">
        <ele>249.2</ele>
        <time>2022-03-21T14:00:55Z</time>
      </trkpt>
      <trkpt lat="46.69552" lon="5.49316">
        <ele>249.6</ele>
        <time>2022-03-21T14:00:56Z</time>
      </trkpt>
      <trkpt lat="46.6955" lon="5.4932">
        <ele>249.6</ele>
        <time>2022-03-21T14:00:57Z</time>
      </trkpt>
      <trkpt lat="46.69545" lon="5.49327">
        <ele>249.8</ele>
        <time>2022-03-21T14:00:58Z</time>
      </trkpt>
      <trkpt lat="46.69542" lon="5.49331">
        <ele>249.8</ele>
        <time>2022-03-21T14:00:59Z</time>
      </trkpt>
      <trkpt lat="46.6954" lon="5.49334">
        <ele>250.2</ele>
        <time>2022-03-21T14:01:00Z</time>
      </trkpt>
      <trkpt lat="46.69538" lon="5.49338">
        <ele>250.4</ele>
        <time>2022-03-21T14:01:01Z</time>
      </trkpt>
      <trkpt lat="46.69535" lon="5.49342">
        <ele>250.4</ele>
        <time>2022-03-21T14:01:02Z</time>
      </trkpt>
      <trkpt lat="46.69533" lon="5.49346">
        <ele>251</ele>
        <time>2022-03-21T14:01:03Z</time>
      </trkpt>
      <trkpt lat="46.6953" lon="5.49349">
        <ele>251</ele>
        <time>2022-03-21T14:01:04Z</time>
      </trkpt>
      <trkpt lat="46.69528" lon="5.49353">
        <ele>251.2</ele>
        <time>2022-03-21T14:01:05Z</time>
      </trkpt>
      <trkpt lat="46.69526" lon="5.49356">
        <ele>251.2</ele>
        <time>2022-03-21T14:01:06Z</time>
      </trkpt>
      <trkpt lat="46.69523" lon="5.4936">
        <ele>251.6</ele>
        <time>2022-03-21T14:01:07Z</time>
      </trkpt>
      <trkpt lat="46.69521" lon="5.49363">
        <ele>251.6</ele>
        <time>2022-03-21T14:01:08Z</time>
      </trkpt>
      <trkpt lat="46.69518" lon="5.49367">
        <ele>252</ele>
        <time>2022-03-21T14:01:09Z</time>
      </trkpt>
      <trkpt lat="46.69516" lon="5.4937">
        <ele>252</ele>
        <time>2022-03-21T14:01:10Z</time>
      </trkpt>
      <trkpt lat="46.69514" lon="5.49374">
        <ele>252.4</ele>
        <time>2022-03-21T14:01:11Z</time>
      </trkpt>
      <trkpt lat="46.69511" lon="5.49377">
        <ele>252.4</ele>
        <time>2022-03-21T14:01:12Z</time>
      </trkpt>
      <trkpt lat="46.69509" lon="5.49381">
        <ele>252.6</ele>
        <time>2022-03-21T14:01:13Z</time>
      </trkpt>
      <trkpt lat="46.69506" lon="5.49384">
        <ele>252.8</ele>
        <time>2022-03-21T14:01:14Z</time>
      </trkpt>
      <trkpt lat="46.69504" lon="5.49388">
        <ele>253</ele>
        <time>2022-03-21T14:01:15Z</time>
      </trkpt>
      <trkpt lat="46.69501" lon="5.49391">
        <ele>253</ele>
        <time>2022-03-21T14:01:16Z</time>
      </trkpt>
      <trkpt lat="46.69499" lon="5.49395">
        <ele>253.2</ele>
        <time>2022-03-21T14:01:17Z</time>
      </trkpt>
      <trkpt lat="46.69496" lon="5.49399">
        <ele>253.2</ele>
        <time>2022-03-21T14:01:18Z</time>
      </trkpt>
      <trkpt lat="46.69494" lon="5.49402">
        <ele>253.6</ele>
        <time>2022-03-21T14:01:19Z</time>
      </trkpt>
      <trkpt lat="46.69491" lon="5.49405">
        <ele>253.6</ele>
        <time>2022-03-21T14:01:20Z</time>
      </trkpt>
      <trkpt lat="46.69489" lon="5.49409">
        <ele>253.8</ele>
        <time>2022-03-21T14:01:21Z</time>
      </trkpt>
      <trkpt lat="46.69486" lon="5.49413">
        <ele>253.8</ele>
        <time>2022-03-21T14:01:22Z</time>
      </trkpt>
      <trkpt lat="46.69484" lon="5.49416">
        <ele>254</ele>
        <time>2022-03-21T14:01:23Z</time>
      </trkpt>
      <trkpt lat="46.69481" lon="5.49419">
        <ele>254</ele>
        <time>2022-03-21T14:01:24Z</time>
      </trkpt>
      <trkpt lat="46.69479" lon="5.49423">
        <ele>254.4</ele>
        <time>2022-03-21T14:01:25Z</time>
      </trkpt>
      <trkpt lat="46.69476" lon="5.49426">
        <ele>254.4</ele>
        <time>2022-03-21T14:01:26Z</time>
      </trkpt>
      <trkpt lat="46.69474" lon="5.4943">
        <ele>254.8</ele>
        <time>2022-03-21T14:01:27Z</time>
      </trkpt>
      <trkpt lat="46.69471" lon="5.49434">
        <ele>255</ele>
        <time>2022-03-21T14:01:28Z</time>
      </trkpt>
      <trkpt lat="46.69469" lon="5.49437">
        <ele>255</ele>
        <time>2022-03-21T14:01:29Z</time>
      </trkpt>
      <trkpt lat="46.69466" lon="5.4944">
        <ele>255.4</ele>
        <time>2022-03-21T14:01:30Z</time>
      </trkpt>
      <trkpt lat="46.69464" lon="5.49444">
        <ele>255.4</ele>
        <time>2022-03-21T14:01:31Z</time>
      </trkpt>
      <trkpt lat="46.69462" lon="5.49448">
        <ele>255.6</ele>
        <time>2022-03-21T14:01:32Z</time>
      </trkpt>
      <trkpt lat="46.6946" lon="5.49451">
        <ele>255.6</ele>
        <time>2022-03-21T14:01:33Z</time>
      </trkpt>
      <trkpt lat="46.69458" lon="5.49454">
        <ele>256</ele>
        <time>2022-03-21T14:01:34Z</time>
      </trkpt>
      <trkpt lat="46.69456" lon="5.49457">
        <ele>256.2</ele>
        <time>2022-03-21T14:01:35Z</time>
      </trkpt>
      <trkpt lat="46.69454" lon="5.4946">
        <ele>256.2</ele>
        <time>2022-03-21T14:01:36Z</time>
      </trkpt>
      <trkpt lat="46.69452" lon="5.49463">
        <ele>256.4</ele>
        <time>2022-03-21T14:01:37Z</time>
      </trkpt>
      <trkpt lat="46.6945" lon="5.49466">
        <ele>256.4</ele>
        <time>2022-03-21T14:01:38Z</time>
      </trkpt>
      <trkpt lat="46.69447" lon="5.49468">
        <ele>256.8</ele>
        <time>2022-03-21T14:01:39Z</time>
      </trkpt>
      <trkpt lat="46.69445" lon="5.49472">
        <ele>256.8</ele>
        <time>2022-03-21T14:01:40Z</time>
      </trkpt>
      <trkpt lat="46.69442" lon="5.49475">
        <ele>257.2</ele>
        <time>2022-03-21T14:01:41Z</time>
      </trkpt>
      <trkpt lat="46.6944" lon="5.49478">
        <ele>257.2</ele>
        <time>2022-03-21T14:01:42Z</time>
      </trkpt>
      <trkpt lat="46.69438" lon="5.49482">
        <ele>257.4</ele>
        <time>2022-03-21T14:01:43Z</time>
      </trkpt>
      <trkpt lat="46.69435" lon="5.49486">
        <ele>257.4</ele>
        <time>2022-03-21T14:01:44Z</time>
      </trkpt>
      <trkpt lat="46.69433" lon="5.49489">
        <ele>257.8</ele>
        <time>2022-03-21T14:01:45Z</time>
      </trkpt>
      <trkpt lat="46.69431" lon="5.49493">
        <ele>257.8</ele>
        <time>2022-03-21T14:01:46Z</time>
      </trkpt>
      <trkpt lat="46.69428" lon="5.49496">
        <ele>258</ele>
        <time>2022-03-21T14:01:47Z</time>
      </trkpt>
      <trkpt lat="46.69426" lon="5.49499">
        <ele>258.4</ele>
        <time>2022-03-21T14:01:48Z</time>
      </trkpt>
      <trkpt lat="46.69423" lon="5.49502">
        <ele>258.4</ele>
        <time>2022-03-21T14:01:49Z</time>
      </trkpt>
      <trkpt lat="46.69421" lon="5.49506">
        <ele>258.8</ele>
        <time>2022-03-21T14:01:50Z</time>
      </trkpt>
      <trkpt lat="46.69419" lon="5.49509">
        <ele>258.8</ele>
        <time>2022-03-21T14:01:51Z</time>
      </trkpt>
      <trkpt lat="46.69416" lon="5.49513">
        <ele>259</ele>
        <time>2022-03-21T14:01:52Z</time>
      </trkpt>
      <trkpt lat="46.69414" lon="5.49516">
        <ele>259</ele>
        <time>2022-03-21T14:01:53Z</time>
      </trkpt>
      <trkpt lat="46.69412" lon="5.49519">
        <ele>259.4</ele>
        <time>2022-03-21T14:01:54Z</time>
      </trkpt>
      <trkpt lat="46.69409" lon="5.49523">
        <ele>259.4</ele>
        <time>2022-03-21T14:01:55Z</time>
      </trkpt>
      <trkpt lat="46.69407" lon="5.49526">
        <ele>259.4</ele>
        <time>2022-03-21T14:01:56Z</time>
      </trkpt>
      <trkpt lat="46.69405" lon="5.49529">
        <ele>259.8</ele>
        <time>2022-03-21T14:01:57Z</time>
      </trkpt>
      <trkpt lat="46.69402" lon="5.49533">
        <ele>260</ele>
        <time>2022-03-21T14:01:58Z</time>
      </trkpt>
      <trkpt lat="46.694" lon="5.49536">
        <ele>260.2</ele>
        <time>2022-03-21T14:01:59Z</time>
      </trkpt>
      <trkpt lat="46.69398" lon="5.49539">
        <ele>260.2</ele>
        <time>2022-03-21T14:02:00Z</time>
      </trkpt>
      <trkpt lat="46.69396" lon="5.49542">
        <ele>260.6</ele>
        <time>2022-03-21T14:02:01Z</time>
      </trkpt>
      <trkpt lat="46.69394" lon="5.49545">
        <ele>261</ele>
        <time>2022-03-21T14:02:02Z</time>
      </trkpt>
      <trkpt lat="46.69391" lon="5.49548">
        <ele>261.2</ele>
        <time>2022-03-21T14:02:03Z</time>
      </trkpt>
      <trkpt lat="46.69389" lon="5.49551">
        <ele>261.2</ele>
        <time>2022-03-21T14:02:04Z</time>
      </trkpt>
      <trkpt lat="46.69387" lon="5.49554">
        <ele>261.6</ele>
        <time>2022-03-21T14:02:05Z</time>
      </trkpt>
      <trkpt lat="46.69385" lon="5.49557">
        <ele>261.6</ele>
        <time>2022-03-21T14:02:06Z</time>
      </trkpt>
      <trkpt lat="46.69383" lon="5.49561">
        <ele>262</ele>
        <time>2022-03-21T14:02:07Z</time>
      </trkpt>
      <trkpt lat="46.69381" lon="5.49564">
        <ele>262.2</ele>
        <time>2022-03-21T14:02:08Z</time>
      </trkpt>
      <trkpt lat="46.69378" lon="5.49567">
        <ele>262.4</ele>
        <time>2022-03-21T14:02:09Z</time>
      </trkpt>
      <trkpt lat="46.69376" lon="5.4957">
        <ele>262.4</ele>
        <time>2022-03-21T14:02:10Z</time>
      </trkpt>
      <trkpt lat="46.69374" lon="5.49573">
        <ele>262.6</ele>
        <time>2022-03-21T14:02:11Z</time>
      </trkpt>
      <trkpt lat="46.69372" lon="5.49576">
        <ele>262.6</ele>
        <time>2022-03-21T14:02:12Z</time>
      </trkpt>
      <trkpt lat="46.6937" lon="5.49578">
        <ele>262.8</ele>
        <time>2022-03-21T14:02:13Z</time>
      </trkpt>
      <trkpt lat="46.69368" lon="5.49581">
        <ele>263.2</ele>
        <time>2022-03-21T14:02:14Z</time>
      </trkpt>
      <trkpt lat="46.69366" lon="5.49584">
        <ele>263.2</ele>
        <time>2022-03-21T14:02:15Z</time>
      </trkpt>
      <trkpt lat="46.69364" lon="5.49587">
        <ele>263.4</ele>
        <time>2022-03-21T14:02:16Z</time>
      </trkpt>
      <trkpt lat="46.69362" lon="5.4959">
        <ele>263.6</ele>
        <time>2022-03-21T14:02:17Z</time>
      </trkpt>
      <trkpt lat="46.6936" lon="5.49593">
        <ele>263.6</ele>
        <time>2022-03-21T14:02:18Z</time>
      </trkpt>
      <trkpt lat="46.69358" lon="5.49596">
        <ele>263.8</ele>
        <time>2022-03-21T14:02:19Z</time>
      </trkpt>
      <trkpt lat="46.69356" lon="5.49599">
        <ele>263.8</ele>
        <time>2022-03-21T14:02:20Z</time>
      </trkpt>
      <trkpt lat="46.69354" lon="5.49602">
        <ele>264.2</ele>
        <time>2022-03-21T14:02:21Z</time>
      </trkpt>
      <trkpt lat="46.69352" lon="5.49605">
        <ele>264.2</ele>
        <time>2022-03-21T14:02:22Z</time>
      </trkpt>
      <trkpt lat="46.6935" lon="5.49608">
        <ele>264.4</ele>
        <time>2022-03-21T14:02:23Z</time>
      </trkpt>
      <trkpt lat="46.69348" lon="5.49611">
        <ele>264.4</ele>
        <time>2022-03-21T14:02:24Z</time>
      </trkpt>
      <trkpt lat="46.69345" lon="5.49615">
        <ele>264.8</ele>
        <time>2022-03-21T14:02:25Z</time>
      </trkpt>
      <trkpt lat="46.69343" lon="5.49618">
        <ele>264.8</ele>
        <time>2022-03-21T14:02:26Z</time>
      </trkpt>
      <trkpt lat="46.69341" lon="5.49621">
        <ele>265</ele>
        <time>2022-03-21T14:02:27Z</time>
      </trkpt>
      <trkpt lat="46.69339" lon="5.49625">
        <ele>265.6</ele>
        <time>2022-03-21T14:02:28Z</time>
      </trkpt>
      <trkpt lat="46.69336" lon="5.49628">
        <ele>265.8</ele>
        <time>2022-03-21T14:02:29Z</time>
      </trkpt>
      <trkpt lat="46.69334" lon="5.49631">
        <ele>265.8</ele>
        <time>2022-03-21T14:02:30Z</time>
      </trkpt>
      <trkpt lat="46.69331" lon="5.49634">
        <ele>265.8</ele>
        <time>2022-03-21T14:02:31Z</time>
      </trkpt>
      <trkpt lat="46.69329" lon="5.49638">
        <ele>265.8</ele>
        <time>2022-03-21T14:02:32Z</time>
      </trkpt>
      <trkpt lat="46.69327" lon="5.49642">
        <ele>266.2</ele>
        <time>2022-03-21T14:02:33Z</time>
      </trkpt>
      <trkpt lat="46.69325" lon="5.49645">
        <ele>266.2</ele>
        <time>2022-03-21T14:02:34Z</time>
      </trkpt>
      <trkpt lat="46.69322" lon="5.49649">
        <ele>266.4</ele>
        <time>2022-03-21T14:02:35Z</time>
      </trkpt>
      <trkpt lat="46.6932" lon="5.49652">
        <ele>266.4</ele>
        <time>2022-03-21T14:02:36Z</time>
      </trkpt>
      <trkpt lat="46.69317" lon="5.49655">
        <ele>266.8</ele>
        <time>2022-03-21T14:02:37Z</time>
      </trkpt>
      <trkpt lat="46.69315" lon="5.49658">
        <ele>267</ele>
        <time>2022-03-21T14:02:38Z</time>
      </trkpt>
      <trkpt lat="46.69313" lon="5.49662">
        <ele>267</ele>
        <time>2022-03-21T14:02:39Z</time>
      </trkpt>
      <trkpt lat="46.69311" lon="5.49665">
        <ele>267.4</ele>
        <time>2022-03-21T14:02:40Z</time>
      </trkpt>
      <trkpt lat="46.69308" lon="5.49667">
        <ele>267.4</ele>
        <time>2022-03-21T14:02:41Z</time>
      </trkpt>
      <trkpt lat="46.69306" lon="5.4967">
        <ele>267.6</ele>
        <time>2022-03-21T14:02:42Z</time>
      </trkpt>
      <trkpt lat="46.69303" lon="5.49674">
        <ele>267.6</ele>
        <time>2022-03-21T14:02:43Z</time>
      </trkpt>
      <trkpt lat="46.69301" lon="5.49677">
        <ele>268</ele>
        <time>2022-03-21T14:02:44Z</time>
      </trkpt>
      <trkpt lat="46.69298" lon="5.4968">
        <ele>268</ele>
        <time>2022-03-21T14:02:45Z</time>
      </trkpt>
      <trkpt lat="46.69296" lon="5.49684">
        <ele>268.2</ele>
        <time>2022-03-21T14:02:46Z</time>
      </trkpt>
      <trkpt lat="46.69293" lon="5.49687">
        <ele>268.2</ele>
        <time>2022-03-21T14:02:47Z</time>
      </trkpt>
      <trkpt lat="46.6929" lon="5.4969">
        <ele>268.4</ele>
        <time>2022-03-21T14:02:49Z</time>
      </trkpt>
      <trkpt lat="46.69288" lon="5.49694">
        <ele>268.4</ele>
        <time>2022-03-21T14:02:50Z</time>
      </trkpt>
      <trkpt lat="46.69285" lon="5.49697">
        <ele>268.8</ele>
        <time>2022-03-21T14:02:51Z</time>
      </trkpt>
      <trkpt lat="46.69283" lon="5.49701">
        <ele>268.8</ele>
        <time>2022-03-21T14:02:52Z</time>
      </trkpt>
      <trkpt lat="46.6928" lon="5.49704">
        <ele>268.8</ele>
        <time>2022-03-21T14:02:53Z</time>
      </trkpt>
      <trkpt lat="46.69278" lon="5.49708">
        <ele>268.8</ele>
        <time>2022-03-21T14:02:54Z</time>
      </trkpt>
      <trkpt lat="46.69275" lon="5.49712">
        <ele>269</ele>
        <time>2022-03-21T14:02:55Z</time>
      </trkpt>
      <trkpt lat="46.69272" lon="5.49716">
        <ele>269</ele>
        <time>2022-03-21T14:02:56Z</time>
      </trkpt>
      <trkpt lat="46.69267" lon="5.49723">
        <ele>269</ele>
        <time>2022-03-21T14:02:57Z</time>
      </trkpt>
      <trkpt lat="46.69264" lon="5.49727">
        <ele>269</ele>
        <time>2022-03-21T14:02:58Z</time>
      </trkpt>
      <trkpt lat="46.69261" lon="5.49732">
        <ele>269.2</ele>
        <time>2022-03-21T14:02:59Z</time>
      </trkpt>
      <trkpt lat="46.69258" lon="5.49736">
        <ele>269.2</ele>
        <time>2022-03-21T14:03:00Z</time>
      </trkpt>
      <trkpt lat="46.69255" lon="5.4974">
        <ele>269.2</ele>
        <time>2022-03-21T14:03:01Z</time>
      </trkpt>
      <trkpt lat="46.69252" lon="5.49744">
        <ele>269.2</ele>
        <time>2022-03-21T14:03:03Z</time>
      </trkpt>
      <trkpt lat="46.69249" lon="5.49749">
        <ele>269.4</ele>
        <time>2022-03-21T14:03:04Z</time>
      </trkpt>
      <trkpt lat="46.69246" lon="5.49753">
        <ele>269.4</ele>
        <time>2022-03-21T14:03:05Z</time>
      </trkpt>
      <trkpt lat="46.69243" lon="5.49758">
        <ele>269.4</ele>
        <time>2022-03-21T14:03:06Z</time>
      </trkpt>
      <trkpt lat="46.69239" lon="5.49762">
        <ele>269.4</ele>
        <time>2022-03-21T14:03:07Z</time>
      </trkpt>
      <trkpt lat="46.69236" lon="5.49767">
        <ele>269.4</ele>
        <time>2022-03-21T14:03:08Z</time>
      </trkpt>
      <trkpt lat="46.69233" lon="5.49772">
        <ele>269.4</ele>
        <time>2022-03-21T14:03:09Z</time>
      </trkpt>
      <trkpt lat="46.6923" lon="5.49776">
        <ele>269.4</ele>
        <time>2022-03-21T14:03:10Z</time>
      </trkpt>
      <trkpt lat="46.69227" lon="5.49781">
        <ele>269.4</ele>
        <time>2022-03-21T14:03:11Z</time>
      </trkpt>
      <trkpt lat="46.69223" lon="5.49786">
        <ele>269.4</ele>
        <time>2022-03-21T14:03:12Z</time>
      </trkpt>
      <trkpt lat="46.6922" lon="5.4979">
        <ele>269.4</ele>
        <time>2022-03-21T14:03:13Z</time>
      </trkpt>
      <trkpt lat="46.69217" lon="5.49795">
        <ele>269.6</ele>
        <time>2022-03-21T14:03:14Z</time>
      </trkpt>
      <trkpt lat="46.69213" lon="5.49799">
        <ele>269.6</ele>
        <time>2022-03-21T14:03:15Z</time>
      </trkpt>
      <trkpt lat="46.6921" lon="5.49804">
        <ele>269.6</ele>
        <time>2022-03-21T14:03:16Z</time>
      </trkpt>
      <trkpt lat="46.69207" lon="5.49809">
        <ele>269.6</ele>
        <time>2022-03-21T14:03:17Z</time>
      </trkpt>
      <trkpt lat="46.69203" lon="5.49813">
        <ele>269.6</ele>
        <time>2022-03-21T14:03:18Z</time>
      </trkpt>
      <trkpt lat="46.692" lon="5.49818">
        <ele>269.6</ele>
        <time>2022-03-21T14:03:19Z</time>
      </trkpt>
      <trkpt lat="46.69197" lon="5.49822">
        <ele>269.6</ele>
        <time>2022-03-21T14:03:20Z</time>
      </trkpt>
      <trkpt lat="46.69194" lon="5.49827">
        <ele>269.6</ele>
        <time>2022-03-21T14:03:21Z</time>
      </trkpt>
      <trkpt lat="46.69191" lon="5.49831">
        <ele>269.8</ele>
        <time>2022-03-21T14:03:22Z</time>
      </trkpt>
      <trkpt lat="46.69188" lon="5.49835">
        <ele>269.8</ele>
        <time>2022-03-21T14:03:23Z</time>
      </trkpt>
      <trkpt lat="46.69185" lon="5.4984">
        <ele>270.2</ele>
        <time>2022-03-21T14:03:24Z</time>
      </trkpt>
      <trkpt lat="46.69182" lon="5.49844">
        <ele>270.2</ele>
        <time>2022-03-21T14:03:25Z</time>
      </trkpt>
      <trkpt lat="46.69179" lon="5.49848">
        <ele>270.4</ele>
        <time>2022-03-21T14:03:26Z</time>
      </trkpt>
      <trkpt lat="46.69176" lon="5.49852">
        <ele>270.4</ele>
        <time>2022-03-21T14:03:27Z</time>
      </trkpt>
      <trkpt lat="46.69174" lon="5.49856">
        <ele>270.4</ele>
        <time>2022-03-21T14:03:28Z</time>
      </trkpt>
      <trkpt lat="46.69171" lon="5.4986">
        <ele>270.8</ele>
        <time>2022-03-21T14:03:29Z</time>
      </trkpt>
      <trkpt lat="46.69168" lon="5.49864">
        <ele>270.8</ele>
        <time>2022-03-21T14:03:30Z</time>
      </trkpt>
      <trkpt lat="46.69165" lon="5.49868">
        <ele>271</ele>
        <time>2022-03-21T14:03:31Z</time>
      </trkpt>
      <trkpt lat="46.69162" lon="5.49872">
        <ele>271</ele>
        <time>2022-03-21T14:03:32Z</time>
      </trkpt>
      <trkpt lat="46.69159" lon="5.49876">
        <ele>271.4</ele>
        <time>2022-03-21T14:03:33Z</time>
      </trkpt>
      <trkpt lat="46.69157" lon="5.4988">
        <ele>271.6</ele>
        <time>2022-03-21T14:03:34Z</time>
      </trkpt>
      <trkpt lat="46.69154" lon="5.49884">
        <ele>271.6</ele>
        <time>2022-03-21T14:03:35Z</time>
      </trkpt>
      <trkpt lat="46.69151" lon="5.49888">
        <ele>272</ele>
        <time>2022-03-21T14:03:36Z</time>
      </trkpt>
      <trkpt lat="46.69149" lon="5.49892">
        <ele>272.2</ele>
        <time>2022-03-21T14:03:37Z</time>
      </trkpt>
      <trkpt lat="46.69146" lon="5.49896">
        <ele>272.2</ele>
        <time>2022-03-21T14:03:38Z</time>
      </trkpt>
      <trkpt lat="46.69143" lon="5.49899">
        <ele>272.2</ele>
        <time>2022-03-21T14:03:39Z</time>
      </trkpt>
      <trkpt lat="46.69141" lon="5.49903">
        <ele>272.6</ele>
        <time>2022-03-21T14:03:40Z</time>
      </trkpt>
      <trkpt lat="46.69138" lon="5.49907">
        <ele>272.6</ele>
        <time>2022-03-21T14:03:41Z</time>
      </trkpt>
      <trkpt lat="46.69136" lon="5.4991">
        <ele>273</ele>
        <time>2022-03-21T14:03:42Z</time>
      </trkpt>
      <trkpt lat="46.69133" lon="5.49914">
        <ele>273.2</ele>
        <time>2022-03-21T14:03:43Z</time>
      </trkpt>
      <trkpt lat="46.6913" lon="5.49918">
        <ele>273.4</ele>
        <time>2022-03-21T14:03:44Z</time>
      </trkpt>
      <trkpt lat="46.69128" lon="5.49921">
        <ele>273.4</ele>
        <time>2022-03-21T14:03:45Z</time>
      </trkpt>
      <trkpt lat="46.69125" lon="5.49925">
        <ele>273.8</ele>
        <time>2022-03-21T14:03:46Z</time>
      </trkpt>
      <trkpt lat="46.69123" lon="5.49928">
        <ele>273.8</ele>
        <time>2022-03-21T14:03:47Z</time>
      </trkpt>
      <trkpt lat="46.6912" lon="5.49932">
        <ele>274.4</ele>
        <time>2022-03-21T14:03:48Z</time>
      </trkpt>
      <trkpt lat="46.69118" lon="5.49935">
        <ele>274.6</ele>
        <time>2022-03-21T14:03:49Z</time>
      </trkpt>
      <trkpt lat="46.69116" lon="5.49939">
        <ele>275</ele>
        <time>2022-03-21T14:03:50Z</time>
      </trkpt>
      <trkpt lat="46.69114" lon="5.49942">
        <ele>275</ele>
        <time>2022-03-21T14:03:51Z</time>
      </trkpt>
      <trkpt lat="46.69111" lon="5.49946">
        <ele>275.2</ele>
        <time>2022-03-21T14:03:52Z</time>
      </trkpt>
      <trkpt lat="46.69109" lon="5.49949">
        <ele>275.2</ele>
        <time>2022-03-21T14:03:53Z</time>
      </trkpt>
      <trkpt lat="46.69107" lon="5.49952">
        <ele>275.6</ele>
        <time>2022-03-21T14:03:54Z</time>
      </trkpt>
      <trkpt lat="46.69105" lon="5.49955">
        <ele>275.6</ele>
        <time>2022-03-21T14:03:55Z</time>
      </trkpt>
      <trkpt lat="46.69103" lon="5.49958">
        <ele>275.8</ele>
        <time>2022-03-21T14:03:56Z</time>
      </trkpt>
      <trkpt lat="46.69101" lon="5.49961">
        <ele>275.8</ele>
        <time>2022-03-21T14:03:57Z</time>
      </trkpt>
      <trkpt lat="46.69099" lon="5.49963">
        <ele>275.8</ele>
        <time>2022-03-21T14:03:58Z</time>
      </trkpt>
      <trkpt lat="46.69096" lon="5.49966">
        <ele>276.2</ele>
        <time>2022-03-21T14:03:59Z</time>
      </trkpt>
      <trkpt lat="46.69094" lon="5.49969">
        <ele>276.2</ele>
        <time>2022-03-21T14:04:00Z</time>
      </trkpt>
      <trkpt lat="46.69092" lon="5.49972">
        <ele>276.6</ele>
        <time>2022-03-21T14:04:01Z</time>
      </trkpt>
      <trkpt lat="46.6909" lon="5.49975">
        <ele>276.6</ele>
        <time>2022-03-21T14:04:02Z</time>
      </trkpt>
      <trkpt lat="46.69088" lon="5.49978">
        <ele>277.2</ele>
        <time>2022-03-21T14:04:03Z</time>
      </trkpt>
      <trkpt lat="46.69086" lon="5.49981">
        <ele>277.2</ele>
        <time>2022-03-21T14:04:04Z</time>
      </trkpt>
      <trkpt lat="46.69084" lon="5.49983">
        <ele>277.4</ele>
        <time>2022-03-21T14:04:05Z</time>
      </trkpt>
      <trkpt lat="46.69082" lon="5.49986">
        <ele>277.4</ele>
        <time>2022-03-21T14:04:06Z</time>
      </trkpt>
      <trkpt lat="46.69079" lon="5.49987">
        <ele>277.4</ele>
        <time>2022-03-21T14:04:07Z</time>
      </trkpt>
      <trkpt lat="46.69076" lon="5.49987">
        <ele>277.4</ele>
        <time>2022-03-21T14:04:08Z</time>
      </trkpt>
      <trkpt lat="46.69073" lon="5.49986">
        <ele>277.4</ele>
        <time>2022-03-21T14:04:09Z</time>
      </trkpt>
      <trkpt lat="46.6907" lon="5.49984">
        <ele>277.6</ele>
        <time>2022-03-21T14:04:10Z</time>
      </trkpt>
      <trkpt lat="46.69068" lon="5.49981">
        <ele>277.6</ele>
        <time>2022-03-21T14:04:11Z</time>
      </trkpt>
      <trkpt lat="46.69065" lon="5.49978">
        <ele>277.6</ele>
        <time>2022-03-21T14:04:12Z</time>
      </trkpt>
      <trkpt lat="46.69063" lon="5.49974">
        <ele>277.6</ele>
        <time>2022-03-21T14:04:13Z</time>
      </trkpt>
      <trkpt lat="46.6906" lon="5.49971">
        <ele>277.6</ele>
        <time>2022-03-21T14:04:14Z</time>
      </trkpt>
      <trkpt lat="46.69057" lon="5.49969">
        <ele>277.6</ele>
        <time>2022-03-21T14:04:15Z</time>
      </trkpt>
      <trkpt lat="46.69054" lon="5.49967">
        <ele>277.8</ele>
        <time>2022-03-21T14:04:16Z</time>
      </trkpt>
      <trkpt lat="46.69051" lon="5.49965">
        <ele>277.8</ele>
        <time>2022-03-21T14:04:17Z</time>
      </trkpt>
      <trkpt lat="46.69047" lon="5.49962">
        <ele>277.8</ele>
        <time>2022-03-21T14:04:18Z</time>
      </trkpt>
      <trkpt lat="46.69044" lon="5.49959">
        <ele>277.8</ele>
        <time>2022-03-21T14:04:19Z</time>
      </trkpt>
      <trkpt lat="46.6904" lon="5.49956">
        <ele>278</ele>
        <time>2022-03-21T14:04:20Z</time>
      </trkpt>
      <trkpt lat="46.69037" lon="5.49954">
        <ele>278</ele>
        <time>2022-03-21T14:04:21Z</time>
      </trkpt>
      <trkpt lat="46.69033" lon="5.49952">
        <ele>278</ele>
        <time>2022-03-21T14:04:22Z</time>
      </trkpt>
      <trkpt lat="46.69029" lon="5.4995">
        <ele>278</ele>
        <time>2022-03-21T14:04:23Z</time>
      </trkpt>
      <trkpt lat="46.69026" lon="5.49948">
        <ele>278.4</ele>
        <time>2022-03-21T14:04:24Z</time>
      </trkpt>
      <trkpt lat="46.69022" lon="5.49946">
        <ele>278.4</ele>
        <time>2022-03-21T14:04:25Z</time>
      </trkpt>
      <trkpt lat="46.69019" lon="5.49944">
        <ele>278.4</ele>
        <time>2022-03-21T14:04:26Z</time>
      </trkpt>
      <trkpt lat="46.69015" lon="5.49942">
        <ele>278.4</ele>
        <time>2022-03-21T14:04:27Z</time>
      </trkpt>
      <trkpt lat="46.69011" lon="5.4994">
        <ele>278.6</ele>
        <time>2022-03-21T14:04:28Z</time>
      </trkpt>
      <trkpt lat="46.69007" lon="5.49937">
        <ele>278.6</ele>
        <time>2022-03-21T14:04:29Z</time>
      </trkpt>
      <trkpt lat="46.69004" lon="5.49935">
        <ele>278.6</ele>
        <time>2022-03-21T14:04:30Z</time>
      </trkpt>
      <trkpt lat="46.69" lon="5.49933">
        <ele>278.6</ele>
        <time>2022-03-21T14:04:31Z</time>
      </trkpt>
      <trkpt lat="46.68996" lon="5.49931">
        <ele>278.6</ele>
        <time>2022-03-21T14:04:32Z</time>
      </trkpt>
      <trkpt lat="46.68992" lon="5.49928">
        <ele>278.6</ele>
        <time>2022-03-21T14:04:33Z</time>
      </trkpt>
      <trkpt lat="46.68988" lon="5.49926">
        <ele>278.6</ele>
        <time>2022-03-21T14:04:34Z</time>
      </trkpt>
      <trkpt lat="46.68984" lon="5.49924">
        <ele>278.6</ele>
        <time>2022-03-21T14:04:35Z</time>
      </trkpt>
      <trkpt lat="46.68979" lon="5.49922">
        <ele>278.6</ele>
        <time>2022-03-21T14:04:36Z</time>
      </trkpt>
      <trkpt lat="46.68975" lon="5.4992">
        <ele>278.6</ele>
        <time>2022-03-21T14:04:37Z</time>
      </trkpt>
      <trkpt lat="46.68971" lon="5.49917">
        <ele>278.6</ele>
        <time>2022-03-21T14:04:38Z</time>
      </trkpt>
      <trkpt lat="46.68967" lon="5.49915">
        <ele>278.6</ele>
        <time>2022-03-21T14:04:39Z</time>
      </trkpt>
      <trkpt lat="46.68963" lon="5.49914">
        <ele>278.6</ele>
        <time>2022-03-21T14:04:40Z</time>
      </trkpt>
      <trkpt lat="46.6896" lon="5.49911">
        <ele>278.6</ele>
        <time>2022-03-21T14:04:41Z</time>
      </trkpt>
      <trkpt lat="46.68956" lon="5.49909">
        <ele>278.6</ele>
        <time>2022-03-21T14:04:42Z</time>
      </trkpt>
      <trkpt lat="46.68952" lon="5.49907">
        <ele>278.6</ele>
        <time>2022-03-21T14:04:43Z</time>
      </trkpt>
      <trkpt lat="46.68949" lon="5.49905">
        <ele>278.6</ele>
        <time>2022-03-21T14:04:44Z</time>
      </trkpt>
      <trkpt lat="46.68945" lon="5.49903">
        <ele>278.6</ele>
        <time>2022-03-21T14:04:45Z</time>
      </trkpt>
      <trkpt lat="46.68941" lon="5.49901">
        <ele>278.6</ele>
        <time>2022-03-21T14:04:46Z</time>
      </trkpt>
      <trkpt lat="46.68937" lon="5.49899">
        <ele>278.6</ele>
        <time>2022-03-21T14:04:47Z</time>
      </trkpt>
      <trkpt lat="46.68933" lon="5.49896">
        <ele>278.6</ele>
        <time>2022-03-21T14:04:48Z</time>
      </trkpt>
      <trkpt lat="46.68929" lon="5.49894">
        <ele>278.6</ele>
        <time>2022-03-21T14:04:49Z</time>
      </trkpt>
      <trkpt lat="46.68924" lon="5.49892">
        <ele>278.6</ele>
        <time>2022-03-21T14:04:50Z</time>
      </trkpt>
      <trkpt lat="46.68919" lon="5.4989">
        <ele>278.4</ele>
        <time>2022-03-21T14:04:51Z</time>
      </trkpt>
      <trkpt lat="46.68915" lon="5.49887">
        <ele>278.4</ele>
        <time>2022-03-21T14:04:52Z</time>
      </trkpt>
      <trkpt lat="46.6891" lon="5.49885">
        <ele>278.4</ele>
        <time>2022-03-21T14:04:53Z</time>
      </trkpt>
      <trkpt lat="46.68905" lon="5.49882">
        <ele>278</ele>
        <time>2022-03-21T14:04:54Z</time>
      </trkpt>
      <trkpt lat="46.68901" lon="5.4988">
        <ele>278</ele>
        <time>2022-03-21T14:04:55Z</time>
      </trkpt>
      <trkpt lat="46.68896" lon="5.49877">
        <ele>278</ele>
        <time>2022-03-21T14:04:56Z</time>
      </trkpt>
      <trkpt lat="46.68891" lon="5.49874">
        <ele>277.8</ele>
        <time>2022-03-21T14:04:57Z</time>
      </trkpt>
      <trkpt lat="46.68886" lon="5.49871">
        <ele>277.8</ele>
        <time>2022-03-21T14:04:58Z</time>
      </trkpt>
      <trkpt lat="46.68881" lon="5.49869">
        <ele>277.8</ele>
        <time>2022-03-21T14:04:59Z</time>
      </trkpt>
      <trkpt lat="46.68876" lon="5.49866">
        <ele>277.4</ele>
        <time>2022-03-21T14:05:00Z</time>
      </trkpt>
      <trkpt lat="46.68872" lon="5.49864">
        <ele>277.4</ele>
        <time>2022-03-21T14:05:01Z</time>
      </trkpt>
      <trkpt lat="46.68868" lon="5.49862">
        <ele>277</ele>
        <time>2022-03-21T14:05:02Z</time>
      </trkpt>
      <trkpt lat="46.68865" lon="5.4986">
        <ele>277</ele>
        <time>2022-03-21T14:05:03Z</time>
      </trkpt>
      <trkpt lat="46.68862" lon="5.4986">
        <ele>276.8</ele>
        <time>2022-03-21T14:05:04Z</time>
      </trkpt>
      <trkpt lat="46.68859" lon="5.49861">
        <ele>276.8</ele>
        <time>2022-03-21T14:05:05Z</time>
      </trkpt>
      <trkpt lat="46.68856" lon="5.49864">
        <ele>276.6</ele>
        <time>2022-03-21T14:05:06Z</time>
      </trkpt>
      <trkpt lat="46.68854" lon="5.49869">
        <ele>276.6</ele>
        <time>2022-03-21T14:05:07Z</time>
      </trkpt>
      <trkpt lat="46.68853" lon="5.49875">
        <ele>276.6</ele>
        <time>2022-03-21T14:05:08Z</time>
      </trkpt>
      <trkpt lat="46.68851" lon="5.49881">
        <ele>276.2</ele>
        <time>2022-03-21T14:05:09Z</time>
      </trkpt>
      <trkpt lat="46.6885" lon="5.49887">
        <ele>276.2</ele>
        <time>2022-03-21T14:05:10Z</time>
      </trkpt>
      <trkpt lat="46.68849" lon="5.49893">
        <ele>276.2</ele>
        <time>2022-03-21T14:05:11Z</time>
      </trkpt>
      <trkpt lat="46.68848" lon="5.499">
        <ele>276</ele>
        <time>2022-03-21T14:05:12Z</time>
      </trkpt>
      <trkpt lat="46.68848" lon="5.49906">
        <ele>276</ele>
        <time>2022-03-21T14:05:13Z</time>
      </trkpt>
      <trkpt lat="46.68847" lon="5.49913">
        <ele>276</ele>
        <time>2022-03-21T14:05:14Z</time>
      </trkpt>
      <trkpt lat="46.68845" lon="5.4992">
        <ele>276</ele>
        <time>2022-03-21T14:05:15Z</time>
      </trkpt>
      <trkpt lat="46.68844" lon="5.49927">
        <ele>275.8</ele>
        <time>2022-03-21T14:05:16Z</time>
      </trkpt>
      <trkpt lat="46.68843" lon="5.49933">
        <ele>275.8</ele>
        <time>2022-03-21T14:05:17Z</time>
      </trkpt>
      <trkpt lat="46.68841" lon="5.4994">
        <ele>275.8</ele>
        <time>2022-03-21T14:05:18Z</time>
      </trkpt>
      <trkpt lat="46.6884" lon="5.49947">
        <ele>275.8</ele>
        <time>2022-03-21T14:05:19Z</time>
      </trkpt>
      <trkpt lat="46.68839" lon="5.49954">
        <ele>275.8</ele>
        <time>2022-03-21T14:05:20Z</time>
      </trkpt>
      <trkpt lat="46.68837" lon="5.49967">
        <ele>275.8</ele>
        <time>2022-03-21T14:05:21Z</time>
      </trkpt>
      <trkpt lat="46.68836" lon="5.49973">
        <ele>275.4</ele>
        <time>2022-03-21T14:05:22Z</time>
      </trkpt>
      <trkpt lat="46.68833" lon="5.49978">
        <ele>275.4</ele>
        <time>2022-03-21T14:05:23Z</time>
      </trkpt>
      <trkpt lat="46.68829" lon="5.49982">
        <ele>275.4</ele>
        <time>2022-03-21T14:05:24Z</time>
      </trkpt>
      <trkpt lat="46.68825" lon="5.49984">
        <ele>275.2</ele>
        <time>2022-03-21T14:05:25Z</time>
      </trkpt>
      <trkpt lat="46.68819" lon="5.49986">
        <ele>275.2</ele>
        <time>2022-03-21T14:05:26Z</time>
      </trkpt>
      <trkpt lat="46.68813" lon="5.49985">
        <ele>274.8</ele>
        <time>2022-03-21T14:05:27Z</time>
      </trkpt>
      <trkpt lat="46.68807" lon="5.49985">
        <ele>274.4</ele>
        <time>2022-03-21T14:05:28Z</time>
      </trkpt>
      <trkpt lat="46.68801" lon="5.49984">
        <ele>274.2</ele>
        <time>2022-03-21T14:05:29Z</time>
      </trkpt>
      <trkpt lat="46.68794" lon="5.49983">
        <ele>274</ele>
        <time>2022-03-21T14:05:30Z</time>
      </trkpt>
      <trkpt lat="46.68788" lon="5.49983">
        <ele>273.8</ele>
        <time>2022-03-21T14:05:31Z</time>
      </trkpt>
      <trkpt lat="46.68781" lon="5.49983">
        <ele>273.4</ele>
        <time>2022-03-21T14:05:32Z</time>
      </trkpt>
      <trkpt lat="46.68775" lon="5.49983">
        <ele>273.4</ele>
        <time>2022-03-21T14:05:33Z</time>
      </trkpt>
      <trkpt lat="46.68768" lon="5.49982">
        <ele>273.2</ele>
        <time>2022-03-21T14:05:34Z</time>
      </trkpt>
      <trkpt lat="46.68765" lon="5.49982">
        <ele>273.2</ele>
        <time>2022-03-21T14:05:35Z</time>
      </trkpt>
      <trkpt lat="46.68762" lon="5.49982">
        <ele>273.2</ele>
        <time>2022-03-21T14:05:36Z</time>
      </trkpt>
      <trkpt lat="46.68756" lon="5.49981">
        <ele>273</ele>
        <time>2022-03-21T14:05:37Z</time>
      </trkpt>
      <trkpt lat="46.68751" lon="5.49981">
        <ele>273</ele>
        <time>2022-03-21T14:05:38Z</time>
      </trkpt>
      <trkpt lat="46.68745" lon="5.49981">
        <ele>273</ele>
        <time>2022-03-21T14:05:39Z</time>
      </trkpt>
      <trkpt lat="46.6874" lon="5.49981">
        <ele>273</ele>
        <time>2022-03-21T14:05:40Z</time>
      </trkpt>
      <trkpt lat="46.68735" lon="5.4998">
        <ele>273</ele>
        <time>2022-03-21T14:05:41Z</time>
      </trkpt>
      <trkpt lat="46.6873" lon="5.4998">
        <ele>273</ele>
        <time>2022-03-21T14:05:42Z</time>
      </trkpt>
      <trkpt lat="46.6872" lon="5.49979">
        <ele>273</ele>
        <time>2022-03-21T14:05:43Z</time>
      </trkpt>
      <trkpt lat="46.68716" lon="5.49979">
        <ele>273</ele>
        <time>2022-03-21T14:05:44Z</time>
      </trkpt>
      <trkpt lat="46.68711" lon="5.49979">
        <ele>273</ele>
        <time>2022-03-21T14:05:45Z</time>
      </trkpt>
      <trkpt lat="46.68706" lon="5.49979">
        <ele>273.2</ele>
        <time>2022-03-21T14:05:46Z</time>
      </trkpt>
      <trkpt lat="46.68701" lon="5.49979">
        <ele>273.2</ele>
        <time>2022-03-21T14:05:47Z</time>
      </trkpt>
      <trkpt lat="46.68696" lon="5.49978">
        <ele>273.2</ele>
        <time>2022-03-21T14:05:48Z</time>
      </trkpt>
      <trkpt lat="46.68692" lon="5.49978">
        <ele>273.4</ele>
        <time>2022-03-21T14:05:49Z</time>
      </trkpt>
      <trkpt lat="46.68687" lon="5.49978">
        <ele>273.4</ele>
        <time>2022-03-21T14:05:50Z</time>
      </trkpt>
      <trkpt lat="46.68683" lon="5.49978">
        <ele>273.6</ele>
        <time>2022-03-21T14:05:51Z</time>
      </trkpt>
      <trkpt lat="46.68678" lon="5.49977">
        <ele>273.8</ele>
        <time>2022-03-21T14:05:52Z</time>
      </trkpt>
      <trkpt lat="46.68674" lon="5.49977">
        <ele>273.8</ele>
        <time>2022-03-21T14:05:53Z</time>
      </trkpt>
      <trkpt lat="46.6867" lon="5.49976">
        <ele>274.2</ele>
        <time>2022-03-21T14:05:54Z</time>
      </trkpt>
      <trkpt lat="46.68666" lon="5.49976">
        <ele>274.2</ele>
        <time>2022-03-21T14:05:55Z</time>
      </trkpt>
      <trkpt lat="46.68663" lon="5.49976">
        <ele>274.6</ele>
        <time>2022-03-21T14:05:56Z</time>
      </trkpt>
      <trkpt lat="46.68659" lon="5.49976">
        <ele>274.6</ele>
        <time>2022-03-21T14:05:57Z</time>
      </trkpt>
      <trkpt lat="46.68654" lon="5.49975">
        <ele>274.8</ele>
        <time>2022-03-21T14:05:58Z</time>
      </trkpt>
      <trkpt lat="46.6865" lon="5.49975">
        <ele>274.8</ele>
        <time>2022-03-21T14:05:59Z</time>
      </trkpt>
      <trkpt lat="46.68646" lon="5.49974">
        <ele>275.2</ele>
        <time>2022-03-21T14:06:00Z</time>
      </trkpt>
      <trkpt lat="46.68641" lon="5.49974">
        <ele>275.2</ele>
        <time>2022-03-21T14:06:01Z</time>
      </trkpt>
      <trkpt lat="46.68637" lon="5.49973">
        <ele>275.6</ele>
        <time>2022-03-21T14:06:02Z</time>
      </trkpt>
      <trkpt lat="46.68633" lon="5.49973">
        <ele>275.8</ele>
        <time>2022-03-21T14:06:03Z</time>
      </trkpt>
      <trkpt lat="46.68629" lon="5.49972">
        <ele>275.8</ele>
        <time>2022-03-21T14:06:04Z</time>
      </trkpt>
      <trkpt lat="46.68625" lon="5.49971">
        <ele>276.2</ele>
        <time>2022-03-21T14:06:05Z</time>
      </trkpt>
      <trkpt lat="46.68623" lon="5.49971">
        <ele>276.2</ele>
        <time>2022-03-21T14:06:06Z</time>
      </trkpt>
      <trkpt lat="46.68621" lon="5.49971">
        <ele>276.2</ele>
        <time>2022-03-21T14:06:07Z</time>
      </trkpt>
      <trkpt lat="46.68618" lon="5.4997">
        <ele>276.4</ele>
        <time>2022-03-21T14:06:08Z</time>
      </trkpt>
      <trkpt lat="46.68614" lon="5.49969">
        <ele>276.4</ele>
        <time>2022-03-21T14:06:09Z</time>
      </trkpt>
      <trkpt lat="46.6861" lon="5.49967">
        <ele>276.4</ele>
        <time>2022-03-21T14:06:10Z</time>
      </trkpt>
      <trkpt lat="46.68607" lon="5.49965">
        <ele>276.6</ele>
        <time>2022-03-21T14:06:11Z</time>
      </trkpt>
      <trkpt lat="46.68603" lon="5.49964">
        <ele>276.6</ele>
        <time>2022-03-21T14:06:12Z</time>
      </trkpt>
      <trkpt lat="46.686" lon="5.49962">
        <ele>276.8</ele>
        <time>2022-03-21T14:06:13Z</time>
      </trkpt>
      <trkpt lat="46.68596" lon="5.4996">
        <ele>276.8</ele>
        <time>2022-03-21T14:06:14Z</time>
      </trkpt>
      <trkpt lat="46.68592" lon="5.49958">
        <ele>277</ele>
        <time>2022-03-21T14:06:15Z</time>
      </trkpt>
      <trkpt lat="46.68589" lon="5.49956">
        <ele>277</ele>
        <time>2022-03-21T14:06:16Z</time>
      </trkpt>
      <trkpt lat="46.68585" lon="5.49954">
        <ele>277</ele>
        <time>2022-03-21T14:06:17Z</time>
      </trkpt>
      <trkpt lat="46.68582" lon="5.49952">
        <ele>277.4</ele>
        <time>2022-03-21T14:06:18Z</time>
      </trkpt>
      <trkpt lat="46.68578" lon="5.49949">
        <ele>277.4</ele>
        <time>2022-03-21T14:06:19Z</time>
      </trkpt>
      <trkpt lat="46.68575" lon="5.49946">
        <ele>277.4</ele>
        <time>2022-03-21T14:06:20Z</time>
      </trkpt>
      <trkpt lat="46.68571" lon="5.49942">
        <ele>277.6</ele>
        <time>2022-03-21T14:06:21Z</time>
      </trkpt>
      <trkpt lat="46.68568" lon="5.49939">
        <ele>277.6</ele>
        <time>2022-03-21T14:06:22Z</time>
      </trkpt>
      <trkpt lat="46.68564" lon="5.49935">
        <ele>277.6</ele>
        <time>2022-03-21T14:06:23Z</time>
      </trkpt>
      <trkpt lat="46.6856" lon="5.49932">
        <ele>277.6</ele>
        <time>2022-03-21T14:06:24Z</time>
      </trkpt>
      <trkpt lat="46.68556" lon="5.49928">
        <ele>277.8</ele>
        <time>2022-03-21T14:06:25Z</time>
      </trkpt>
      <trkpt lat="46.68552" lon="5.49925">
        <ele>277.8</ele>
        <time>2022-03-21T14:06:26Z</time>
      </trkpt>
      <trkpt lat="46.68548" lon="5.49922">
        <ele>277.8</ele>
        <time>2022-03-21T14:06:27Z</time>
      </trkpt>
      <trkpt lat="46.68544" lon="5.49918">
        <ele>277.8</ele>
        <time>2022-03-21T14:06:28Z</time>
      </trkpt>
      <trkpt lat="46.68539" lon="5.49915">
        <ele>277.8</ele>
        <time>2022-03-21T14:06:29Z</time>
      </trkpt>
      <trkpt lat="46.68534" lon="5.49912">
        <ele>277.8</ele>
        <time>2022-03-21T14:06:30Z</time>
      </trkpt>
      <trkpt lat="46.68529" lon="5.49909">
        <ele>277.8</ele>
        <time>2022-03-21T14:06:31Z</time>
      </trkpt>
      <trkpt lat="46.68524" lon="5.49905">
        <ele>277.8</ele>
        <time>2022-03-21T14:06:32Z</time>
      </trkpt>
      <trkpt lat="46.68519" lon="5.49902">
        <ele>277.8</ele>
        <time>2022-03-21T14:06:33Z</time>
      </trkpt>
      <trkpt lat="46.68514" lon="5.49899">
        <ele>277.8</ele>
        <time>2022-03-21T14:06:34Z</time>
      </trkpt>
      <trkpt lat="46.68509" lon="5.49896">
        <ele>277.8</ele>
        <time>2022-03-21T14:06:35Z</time>
      </trkpt>
      <trkpt lat="46.68504" lon="5.49893">
        <ele>277.6</ele>
        <time>2022-03-21T14:06:36Z</time>
      </trkpt>
      <trkpt lat="46.68498" lon="5.4989">
        <ele>277.6</ele>
        <time>2022-03-21T14:06:37Z</time>
      </trkpt>
      <trkpt lat="46.68493" lon="5.49887">
        <ele>277.6</ele>
        <time>2022-03-21T14:06:38Z</time>
      </trkpt>
      <trkpt lat="46.68487" lon="5.49884">
        <ele>277.2</ele>
        <time>2022-03-21T14:06:39Z</time>
      </trkpt>
      <trkpt lat="46.68481" lon="5.4988">
        <ele>277.2</ele>
        <time>2022-03-21T14:06:40Z</time>
      </trkpt>
      <trkpt lat="46.68476" lon="5.49877">
        <ele>277</ele>
        <time>2022-03-21T14:06:41Z</time>
      </trkpt>
      <trkpt lat="46.6847" lon="5.49874">
        <ele>277</ele>
        <time>2022-03-21T14:06:42Z</time>
      </trkpt>
      <trkpt lat="46.68464" lon="5.4987">
        <ele>277</ele>
        <time>2022-03-21T14:06:43Z</time>
      </trkpt>
      <trkpt lat="46.68458" lon="5.49866">
        <ele>276.8</ele>
        <time>2022-03-21T14:06:44Z</time>
      </trkpt>
      <trkpt lat="46.68452" lon="5.49862">
        <ele>276.8</ele>
        <time>2022-03-21T14:06:45Z</time>
      </trkpt>
      <trkpt lat="46.68446" lon="5.49857">
        <ele>276.4</ele>
        <time>2022-03-21T14:06:46Z</time>
      </trkpt>
      <trkpt lat="46.68441" lon="5.49852">
        <ele>276.4</ele>
        <time>2022-03-21T14:06:47Z</time>
      </trkpt>
      <trkpt lat="46.68436" lon="5.49846">
        <ele>276.2</ele>
        <time>2022-03-21T14:06:48Z</time>
      </trkpt>
      <trkpt lat="46.68431" lon="5.4984">
        <ele>276.2</ele>
        <time>2022-03-21T14:06:49Z</time>
      </trkpt>
      <trkpt lat="46.68427" lon="5.49834">
        <ele>276.2</ele>
        <time>2022-03-21T14:06:50Z</time>
      </trkpt>
      <trkpt lat="46.68423" lon="5.49828">
        <ele>276.2</ele>
        <time>2022-03-21T14:06:51Z</time>
      </trkpt>
      <trkpt lat="46.68419" lon="5.49821">
        <ele>276.2</ele>
        <time>2022-03-21T14:06:52Z</time>
      </trkpt>
      <trkpt lat="46.68416" lon="5.49814">
        <ele>276.2</ele>
        <time>2022-03-21T14:06:53Z</time>
      </trkpt>
      <trkpt lat="46.68414" lon="5.49807">
        <ele>276.2</ele>
        <time>2022-03-21T14:06:54Z</time>
      </trkpt>
      <trkpt lat="46.68411" lon="5.49799">
        <ele>276.2</ele>
        <time>2022-03-21T14:06:55Z</time>
      </trkpt>
      <trkpt lat="46.6841" lon="5.49792">
        <ele>276.2</ele>
        <time>2022-03-21T14:06:56Z</time>
      </trkpt>
      <trkpt lat="46.68408" lon="5.49785">
        <ele>276.2</ele>
        <time>2022-03-21T14:06:57Z</time>
      </trkpt>
      <trkpt lat="46.68407" lon="5.49779">
        <ele>276.2</ele>
        <time>2022-03-21T14:06:58Z</time>
      </trkpt>
      <trkpt lat="46.68406" lon="5.49772">
        <ele>276.2</ele>
        <time>2022-03-21T14:06:59Z</time>
      </trkpt>
      <trkpt lat="46.68406" lon="5.49765">
        <ele>276.2</ele>
        <time>2022-03-21T14:07:00Z</time>
      </trkpt>
      <trkpt lat="46.68406" lon="5.49758">
        <ele>276.4</ele>
        <time>2022-03-21T14:07:01Z</time>
      </trkpt>
      <trkpt lat="46.68405" lon="5.49751">
        <ele>276.4</ele>
        <time>2022-03-21T14:07:02Z</time>
      </trkpt>
      <trkpt lat="46.68405" lon="5.49744">
        <ele>276.4</ele>
        <time>2022-03-21T14:07:03Z</time>
      </trkpt>
      <trkpt lat="46.68405" lon="5.49737">
        <ele>276.8</ele>
        <time>2022-03-21T14:07:04Z</time>
      </trkpt>
      <trkpt lat="46.68405" lon="5.4973">
        <ele>276.8</ele>
        <time>2022-03-21T14:07:05Z</time>
      </trkpt>
      <trkpt lat="46.68405" lon="5.49723">
        <ele>276.8</ele>
        <time>2022-03-21T14:07:06Z</time>
      </trkpt>
      <trkpt lat="46.68405" lon="5.49716">
        <ele>276.8</ele>
        <time>2022-03-21T14:07:07Z</time>
      </trkpt>
      <trkpt lat="46.68405" lon="5.49709">
        <ele>276.8</ele>
        <time>2022-03-21T14:07:08Z</time>
      </trkpt>
      <trkpt lat="46.68405" lon="5.49702">
        <ele>276.8</ele>
        <time>2022-03-21T14:07:09Z</time>
      </trkpt>
      <trkpt lat="46.68405" lon="5.49695">
        <ele>276.8</ele>
        <time>2022-03-21T14:07:10Z</time>
      </trkpt>
      <trkpt lat="46.68405" lon="5.49687">
        <ele>276.8</ele>
        <time>2022-03-21T14:07:11Z</time>
      </trkpt>
      <trkpt lat="46.68405" lon="5.4968">
        <ele>277</ele>
        <time>2022-03-21T14:07:12Z</time>
      </trkpt>
      <trkpt lat="46.68404" lon="5.49665">
        <ele>277</ele>
        <time>2022-03-21T14:07:13Z</time>
      </trkpt>
      <trkpt lat="46.68403" lon="5.49658">
        <ele>277</ele>
        <time>2022-03-21T14:07:14Z</time>
      </trkpt>
      <trkpt lat="46.68401" lon="5.49651">
        <ele>277</ele>
        <time>2022-03-21T14:07:15Z</time>
      </trkpt>
      <trkpt lat="46.684" lon="5.49643">
        <ele>277</ele>
        <time>2022-03-21T14:07:16Z</time>
      </trkpt>
      <trkpt lat="46.68398" lon="5.49636">
        <ele>277</ele>
        <time>2022-03-21T14:07:17Z</time>
      </trkpt>
      <trkpt lat="46.68396" lon="5.49629">
        <ele>277</ele>
        <time>2022-03-21T14:07:18Z</time>
      </trkpt>
      <trkpt lat="46.68394" lon="5.49622">
        <ele>277</ele>
        <time>2022-03-21T14:07:19Z</time>
      </trkpt>
      <trkpt lat="46.68391" lon="5.49615">
        <ele>277</ele>
        <time>2022-03-21T14:07:20Z</time>
      </trkpt>
      <trkpt lat="46.68389" lon="5.49608">
        <ele>277</ele>
        <time>2022-03-21T14:07:21Z</time>
      </trkpt>
      <trkpt lat="46.68386" lon="5.49602">
        <ele>277</ele>
        <time>2022-03-21T14:07:22Z</time>
      </trkpt>
      <trkpt lat="46.68383" lon="5.49596">
        <ele>277</ele>
        <time>2022-03-21T14:07:23Z</time>
      </trkpt>
      <trkpt lat="46.68379" lon="5.4959">
        <ele>277</ele>
        <time>2022-03-21T14:07:24Z</time>
      </trkpt>
      <trkpt lat="46.68375" lon="5.49584">
        <ele>277</ele>
        <time>2022-03-21T14:07:26Z</time>
      </trkpt>
      <trkpt lat="46.68372" lon="5.49579">
        <ele>277</ele>
        <time>2022-03-21T14:07:27Z</time>
      </trkpt>
      <trkpt lat="46.68368" lon="5.49573">
        <ele>277</ele>
        <time>2022-03-21T14:07:28Z</time>
      </trkpt>
      <trkpt lat="46.68363" lon="5.49568">
        <ele>277</ele>
        <time>2022-03-21T14:07:29Z</time>
      </trkpt>
      <trkpt lat="46.68359" lon="5.49563">
        <ele>276.8</ele>
        <time>2022-03-21T14:07:30Z</time>
      </trkpt>
      <trkpt lat="46.68354" lon="5.49559">
        <ele>276.8</ele>
        <time>2022-03-21T14:07:31Z</time>
      </trkpt>
      <trkpt lat="46.68349" lon="5.49555">
        <ele>276.8</ele>
        <time>2022-03-21T14:07:32Z</time>
      </trkpt>
      <trkpt lat="46.68344" lon="5.49551">
        <ele>276.6</ele>
        <time>2022-03-21T14:07:33Z</time>
      </trkpt>
      <trkpt lat="46.68338" lon="5.49548">
        <ele>276.6</ele>
        <time>2022-03-21T14:07:34Z</time>
      </trkpt>
      <trkpt lat="46.68333" lon="5.49544">
        <ele>276.6</ele>
        <time>2022-03-21T14:07:35Z</time>
      </trkpt>
      <trkpt lat="46.68327" lon="5.49541">
        <ele>276.2</ele>
        <time>2022-03-21T14:07:36Z</time>
      </trkpt>
      <trkpt lat="46.68321" lon="5.49538">
        <ele>276.2</ele>
        <time>2022-03-21T14:07:37Z</time>
      </trkpt>
      <trkpt lat="46.68315" lon="5.49534">
        <ele>276.2</ele>
        <time>2022-03-21T14:07:38Z</time>
      </trkpt>
      <trkpt lat="46.68309" lon="5.49531">
        <ele>276</ele>
        <time>2022-03-21T14:07:39Z</time>
      </trkpt>
      <trkpt lat="46.68303" lon="5.49528">
        <ele>276</ele>
        <time>2022-03-21T14:07:40Z</time>
      </trkpt>
      <trkpt lat="46.68297" lon="5.49524">
        <ele>276</ele>
        <time>2022-03-21T14:07:41Z</time>
      </trkpt>
      <trkpt lat="46.6829" lon="5.49521">
        <ele>275.8</ele>
        <time>2022-03-21T14:07:42Z</time>
      </trkpt>
      <trkpt lat="46.68284" lon="5.49517">
        <ele>275.8</ele>
        <time>2022-03-21T14:07:43Z</time>
      </trkpt>
      <trkpt lat="46.68278" lon="5.49514">
        <ele>275.8</ele>
        <time>2022-03-21T14:07:44Z</time>
      </trkpt>
      <trkpt lat="46.68271" lon="5.4951">
        <ele>275.4</ele>
        <time>2022-03-21T14:07:45Z</time>
      </trkpt>
      <trkpt lat="46.68265" lon="5.49507">
        <ele>275.4</ele>
        <time>2022-03-21T14:07:46Z</time>
      </trkpt>
      <trkpt lat="46.68259" lon="5.49503">
        <ele>275.2</ele>
        <time>2022-03-21T14:07:47Z</time>
      </trkpt>
      <trkpt lat="46.68252" lon="5.49499">
        <ele>275.2</ele>
        <time>2022-03-21T14:07:48Z</time>
      </trkpt>
      <trkpt lat="46.68246" lon="5.49496">
        <ele>275.2</ele>
        <time>2022-03-21T14:07:49Z</time>
      </trkpt>
      <trkpt lat="46.68239" lon="5.49492">
        <ele>275.2</ele>
        <time>2022-03-21T14:07:50Z</time>
      </trkpt>
      <trkpt lat="46.68232" lon="5.49489">
        <ele>275</ele>
        <time>2022-03-21T14:07:51Z</time>
      </trkpt>
      <trkpt lat="46.68226" lon="5.49485">
        <ele>275</ele>
        <time>2022-03-21T14:07:52Z</time>
      </trkpt>
      <trkpt lat="46.68219" lon="5.49482">
        <ele>275</ele>
        <time>2022-03-21T14:07:53Z</time>
      </trkpt>
      <trkpt lat="46.68213" lon="5.49477">
        <ele>274.8</ele>
        <time>2022-03-21T14:07:54Z</time>
      </trkpt>
      <trkpt lat="46.68206" lon="5.49473">
        <ele>274.8</ele>
        <time>2022-03-21T14:07:55Z</time>
      </trkpt>
      <trkpt lat="46.682" lon="5.49469">
        <ele>274.8</ele>
        <time>2022-03-21T14:07:56Z</time>
      </trkpt>
      <trkpt lat="46.68194" lon="5.49464">
        <ele>274.8</ele>
        <time>2022-03-21T14:07:57Z</time>
      </trkpt>
      <trkpt lat="46.68188" lon="5.4946">
        <ele>274.6</ele>
        <time>2022-03-21T14:07:58Z</time>
      </trkpt>
      <trkpt lat="46.68183" lon="5.49454">
        <ele>274.6</ele>
        <time>2022-03-21T14:07:59Z</time>
      </trkpt>
      <trkpt lat="46.68177" lon="5.49449">
        <ele>274.6</ele>
        <time>2022-03-21T14:08:00Z</time>
      </trkpt>
      <trkpt lat="46.68172" lon="5.49443">
        <ele>274.6</ele>
        <time>2022-03-21T14:08:01Z</time>
      </trkpt>
      <trkpt lat="46.68167" lon="5.49437">
        <ele>274.6</ele>
        <time>2022-03-21T14:08:02Z</time>
      </trkpt>
      <trkpt lat="46.68162" lon="5.49431">
        <ele>274.6</ele>
        <time>2022-03-21T14:08:03Z</time>
      </trkpt>
      <trkpt lat="46.68157" lon="5.49426">
        <ele>274.8</ele>
        <time>2022-03-21T14:08:04Z</time>
      </trkpt>
      <trkpt lat="46.68152" lon="5.49421">
        <ele>274.8</ele>
        <time>2022-03-21T14:08:05Z</time>
      </trkpt>
      <trkpt lat="46.68147" lon="5.49416">
        <ele>275</ele>
        <time>2022-03-21T14:08:06Z</time>
      </trkpt>
      <trkpt lat="46.68142" lon="5.49411">
        <ele>275</ele>
        <time>2022-03-21T14:08:07Z</time>
      </trkpt>
      <trkpt lat="46.68136" lon="5.49407">
        <ele>275</ele>
        <time>2022-03-21T14:08:08Z</time>
      </trkpt>
      <trkpt lat="46.68131" lon="5.49404">
        <ele>275</ele>
        <time>2022-03-21T14:08:09Z</time>
      </trkpt>
      <trkpt lat="46.68125" lon="5.49402">
        <ele>275</ele>
        <time>2022-03-21T14:08:10Z</time>
      </trkpt>
      <trkpt lat="46.68119" lon="5.494">
        <ele>275</ele>
        <time>2022-03-21T14:08:11Z</time>
      </trkpt>
      <trkpt lat="46.68113" lon="5.49399">
        <ele>275.2</ele>
        <time>2022-03-21T14:08:12Z</time>
      </trkpt>
      <trkpt lat="46.68107" lon="5.49399">
        <ele>275.2</ele>
        <time>2022-03-21T14:08:13Z</time>
      </trkpt>
      <trkpt lat="46.68101" lon="5.49398">
        <ele>275.4</ele>
        <time>2022-03-21T14:08:14Z</time>
      </trkpt>
      <trkpt lat="46.68095" lon="5.49398">
        <ele>275.4</ele>
        <time>2022-03-21T14:08:15Z</time>
      </trkpt>
      <trkpt lat="46.68089" lon="5.49397">
        <ele>275.4</ele>
        <time>2022-03-21T14:08:16Z</time>
      </trkpt>
      <trkpt lat="46.68083" lon="5.49397">
        <ele>275.4</ele>
        <time>2022-03-21T14:08:17Z</time>
      </trkpt>
      <trkpt lat="46.68077" lon="5.49397">
        <ele>275.4</ele>
        <time>2022-03-21T14:08:18Z</time>
      </trkpt>
      <trkpt lat="46.68071" lon="5.49397">
        <ele>275.4</ele>
        <time>2022-03-21T14:08:19Z</time>
      </trkpt>
      <trkpt lat="46.68065" lon="5.49397">
        <ele>275.6</ele>
        <time>2022-03-21T14:08:20Z</time>
      </trkpt>
      <trkpt lat="46.68059" lon="5.49397">
        <ele>275.6</ele>
        <time>2022-03-21T14:08:21Z</time>
      </trkpt>
      <trkpt lat="46.68053" lon="5.49397">
        <ele>275.6</ele>
        <time>2022-03-21T14:08:22Z</time>
      </trkpt>
      <trkpt lat="46.68047" lon="5.49397">
        <ele>275.6</ele>
        <time>2022-03-21T14:08:23Z</time>
      </trkpt>
      <trkpt lat="46.68041" lon="5.49397">
        <ele>275.6</ele>
        <time>2022-03-21T14:08:24Z</time>
      </trkpt>
      <trkpt lat="46.68035" lon="5.49397">
        <ele>275.6</ele>
        <time>2022-03-21T14:08:25Z</time>
      </trkpt>
      <trkpt lat="46.68029" lon="5.49397">
        <ele>275.6</ele>
        <time>2022-03-21T14:08:26Z</time>
      </trkpt>
      <trkpt lat="46.68024" lon="5.49397">
        <ele>275.6</ele>
        <time>2022-03-21T14:08:27Z</time>
      </trkpt>
      <trkpt lat="46.68018" lon="5.49397">
        <ele>275.6</ele>
        <time>2022-03-21T14:08:28Z</time>
      </trkpt>
      <trkpt lat="46.68012" lon="5.49397">
        <ele>275.6</ele>
        <time>2022-03-21T14:08:29Z</time>
      </trkpt>
      <trkpt lat="46.68006" lon="5.49397">
        <ele>275.6</ele>
        <time>2022-03-21T14:08:30Z</time>
      </trkpt>
      <trkpt lat="46.68" lon="5.49397">
        <ele>275.6</ele>
        <time>2022-03-21T14:08:31Z</time>
      </trkpt>
      <trkpt lat="46.67994" lon="5.49396">
        <ele>275.6</ele>
        <time>2022-03-21T14:08:32Z</time>
      </trkpt>
      <trkpt lat="46.67985" lon="5.49395">
        <ele>275.6</ele>
        <time>2022-03-21T14:08:33Z</time>
      </trkpt>
      <trkpt lat="46.67982" lon="5.49395">
        <ele>275.6</ele>
        <time>2022-03-21T14:08:34Z</time>
      </trkpt>
      <trkpt lat="46.67976" lon="5.49395">
        <ele>275.6</ele>
        <time>2022-03-21T14:08:35Z</time>
      </trkpt>
      <trkpt lat="46.6797" lon="5.49396">
        <ele>275.6</ele>
        <time>2022-03-21T14:08:36Z</time>
      </trkpt>
      <trkpt lat="46.67965" lon="5.49397">
        <ele>275.4</ele>
        <time>2022-03-21T14:08:37Z</time>
      </trkpt>
      <trkpt lat="46.67959" lon="5.49397">
        <ele>275.4</ele>
        <time>2022-03-21T14:08:38Z</time>
      </trkpt>
      <trkpt lat="46.67953" lon="5.49397">
        <ele>275.4</ele>
        <time>2022-03-21T14:08:39Z</time>
      </trkpt>
      <trkpt lat="46.67947" lon="5.49396">
        <ele>275.4</ele>
        <time>2022-03-21T14:08:40Z</time>
      </trkpt>
      <trkpt lat="46.67941" lon="5.49396">
        <ele>275.4</ele>
        <time>2022-03-21T14:08:41Z</time>
      </trkpt>
      <trkpt lat="46.67934" lon="5.49396">
        <ele>275.4</ele>
        <time>2022-03-21T14:08:42Z</time>
      </trkpt>
      <trkpt lat="46.67928" lon="5.49395">
        <ele>275.2</ele>
        <time>2022-03-21T14:08:43Z</time>
      </trkpt>
      <trkpt lat="46.67922" lon="5.49395">
        <ele>275.2</ele>
        <time>2022-03-21T14:08:44Z</time>
      </trkpt>
      <trkpt lat="46.67915" lon="5.49395">
        <ele>275.2</ele>
        <time>2022-03-21T14:08:45Z</time>
      </trkpt>
      <trkpt lat="46.67908" lon="5.49395">
        <ele>275.2</ele>
        <time>2022-03-21T14:08:46Z</time>
      </trkpt>
      <trkpt lat="46.67902" lon="5.49394">
        <ele>275</ele>
        <time>2022-03-21T14:08:47Z</time>
      </trkpt>
      <trkpt lat="46.67895" lon="5.49394">
        <ele>275</ele>
        <time>2022-03-21T14:08:48Z</time>
      </trkpt>
      <trkpt lat="46.67884" lon="5.49394">
        <ele>274.8</ele>
        <time>2022-03-21T14:08:49Z</time>
      </trkpt>
      <trkpt lat="46.67881" lon="5.49394">
        <ele>274.8</ele>
        <time>2022-03-21T14:08:50Z</time>
      </trkpt>
      <trkpt lat="46.67874" lon="5.49394">
        <ele>274.4</ele>
        <time>2022-03-21T14:08:51Z</time>
      </trkpt>
      <trkpt lat="46.67868" lon="5.49394">
        <ele>274.4</ele>
        <time>2022-03-21T14:08:52Z</time>
      </trkpt>
      <trkpt lat="46.67861" lon="5.49393">
        <ele>274.2</ele>
        <time>2022-03-21T14:08:53Z</time>
      </trkpt>
      <trkpt lat="46.67854" lon="5.49393">
        <ele>274</ele>
        <time>2022-03-21T14:08:54Z</time>
      </trkpt>
      <trkpt lat="46.67847" lon="5.49393">
        <ele>273.8</ele>
        <time>2022-03-21T14:08:55Z</time>
      </trkpt>
      <trkpt lat="46.6784" lon="5.49393">
        <ele>273.4</ele>
        <time>2022-03-21T14:08:56Z</time>
      </trkpt>
      <trkpt lat="46.67833" lon="5.49394">
        <ele>273.2</ele>
        <time>2022-03-21T14:08:57Z</time>
      </trkpt>
      <trkpt lat="46.67825" lon="5.49395">
        <ele>273</ele>
        <time>2022-03-21T14:08:58Z</time>
      </trkpt>
      <trkpt lat="46.67818" lon="5.49396">
        <ele>272.6</ele>
        <time>2022-03-21T14:08:59Z</time>
      </trkpt>
      <trkpt lat="46.67811" lon="5.49398">
        <ele>272.4</ele>
        <time>2022-03-21T14:09:00Z</time>
      </trkpt>
      <trkpt lat="46.678" lon="5.49402">
        <ele>272.2</ele>
        <time>2022-03-21T14:09:01Z</time>
      </trkpt>
      <trkpt lat="46.67796" lon="5.49404">
        <ele>271.8</ele>
        <time>2022-03-21T14:09:02Z</time>
      </trkpt>
      <trkpt lat="46.67789" lon="5.49408">
        <ele>271.6</ele>
        <time>2022-03-21T14:09:03Z</time>
      </trkpt>
      <trkpt lat="46.67781" lon="5.49411">
        <ele>271.2</ele>
        <time>2022-03-21T14:09:04Z</time>
      </trkpt>
      <trkpt lat="46.67774" lon="5.49415">
        <ele>271</ele>
        <time>2022-03-21T14:09:05Z</time>
      </trkpt>
      <trkpt lat="46.67766" lon="5.49419">
        <ele>270.6</ele>
        <time>2022-03-21T14:09:06Z</time>
      </trkpt>
      <trkpt lat="46.67759" lon="5.49424">
        <ele>270.4</ele>
        <time>2022-03-21T14:09:07Z</time>
      </trkpt>
      <trkpt lat="46.67751" lon="5.49428">
        <ele>270</ele>
        <time>2022-03-21T14:09:08Z</time>
      </trkpt>
      <trkpt lat="46.67743" lon="5.49433">
        <ele>269.6</ele>
        <time>2022-03-21T14:09:09Z</time>
      </trkpt>
      <trkpt lat="46.67735" lon="5.49437">
        <ele>269.4</ele>
        <time>2022-03-21T14:09:10Z</time>
      </trkpt>
      <trkpt lat="46.67727" lon="5.4944">
        <ele>269</ele>
        <time>2022-03-21T14:09:11Z</time>
      </trkpt>
      <trkpt lat="46.67719" lon="5.49444">
        <ele>268.6</ele>
        <time>2022-03-21T14:09:12Z</time>
      </trkpt>
      <trkpt lat="46.6771" lon="5.49446">
        <ele>268</ele>
        <time>2022-03-21T14:09:13Z</time>
      </trkpt>
      <trkpt lat="46.67702" lon="5.49449">
        <ele>267.4</ele>
        <time>2022-03-21T14:09:14Z</time>
      </trkpt>
      <trkpt lat="46.67694" lon="5.4945">
        <ele>267</ele>
        <time>2022-03-21T14:09:15Z</time>
      </trkpt>
      <trkpt lat="46.67685" lon="5.49451">
        <ele>266.4</ele>
        <time>2022-03-21T14:09:16Z</time>
      </trkpt>
      <trkpt lat="46.67677" lon="5.49453">
        <ele>265.8</ele>
        <time>2022-03-21T14:09:17Z</time>
      </trkpt>
      <trkpt lat="46.67668" lon="5.49454">
        <ele>265</ele>
        <time>2022-03-21T14:09:18Z</time>
      </trkpt>
      <trkpt lat="46.6766" lon="5.49456">
        <ele>264.4</ele>
        <time>2022-03-21T14:09:20Z</time>
      </trkpt>
      <trkpt lat="46.67651" lon="5.49457">
        <ele>263.6</ele>
        <time>2022-03-21T14:09:21Z</time>
      </trkpt>
      <trkpt lat="46.67631" lon="5.49459">
        <ele>262.8</ele>
        <time>2022-03-21T14:09:22Z</time>
      </trkpt>
      <trkpt lat="46.67628" lon="5.4946">
        <ele>262</ele>
        <time>2022-03-21T14:09:23Z</time>
      </trkpt>
      <trkpt lat="46.6762" lon="5.49462">
        <ele>261.2</ele>
        <time>2022-03-21T14:09:24Z</time>
      </trkpt>
      <trkpt lat="46.67614" lon="5.49465">
        <ele>260.6</ele>
        <time>2022-03-21T14:09:25Z</time>
      </trkpt>
      <trkpt lat="46.67604" lon="5.49469">
        <ele>259.8</ele>
        <time>2022-03-21T14:09:26Z</time>
      </trkpt>
      <trkpt lat="46.67602" lon="5.4947">
        <ele>259.2</ele>
        <time>2022-03-21T14:09:27Z</time>
      </trkpt>
      <trkpt lat="46.67596" lon="5.49471">
        <ele>258.6</ele>
        <time>2022-03-21T14:09:28Z</time>
      </trkpt>
      <trkpt lat="46.67592" lon="5.49473">
        <ele>258</ele>
        <time>2022-03-21T14:09:29Z</time>
      </trkpt>
      <trkpt lat="46.67588" lon="5.49474">
        <ele>257.4</ele>
        <time>2022-03-21T14:09:30Z</time>
      </trkpt>
      <trkpt lat="46.67584" lon="5.49476">
        <ele>257</ele>
        <time>2022-03-21T14:09:31Z</time>
      </trkpt>
      <trkpt lat="46.67581" lon="5.49477">
        <ele>256.4</ele>
        <time>2022-03-21T14:09:32Z</time>
      </trkpt>
      <trkpt lat="46.67577" lon="5.49478">
        <ele>256</ele>
        <time>2022-03-21T14:09:33Z</time>
      </trkpt>
      <trkpt lat="46.67574" lon="5.4948">
        <ele>255.6</ele>
        <time>2022-03-21T14:09:34Z</time>
      </trkpt>
      <trkpt lat="46.67572" lon="5.49481">
        <ele>255.2</ele>
        <time>2022-03-21T14:09:35Z</time>
      </trkpt>
      <trkpt lat="46.67569" lon="5.49484">
        <ele>255</ele>
        <time>2022-03-21T14:09:36Z</time>
      </trkpt>
      <trkpt lat="46.67568" lon="5.49485">
        <ele>254.6</ele>
        <time>2022-03-21T14:09:37Z</time>
      </trkpt>
      <trkpt lat="46.67567" lon="5.49485">
        <ele>254.6</ele>
        <time>2022-03-21T14:09:38Z</time>
      </trkpt>
      <trkpt lat="46.67566" lon="5.49486">
        <ele>254.4</ele>
        <time>2022-03-21T14:09:39Z</time>
      </trkpt>
      <trkpt lat="46.67565" lon="5.49487">
        <ele>254.4</ele>
        <time>2022-03-21T14:09:40Z</time>
      </trkpt>
      <trkpt lat="46.67564" lon="5.49487">
        <ele>254</ele>
        <time>2022-03-21T14:09:41Z</time>
      </trkpt>
      <trkpt lat="46.67563" lon="5.49488">
        <ele>254</ele>
        <time>2022-03-21T14:09:42Z</time>
      </trkpt>
      <trkpt lat="46.67562" lon="5.49489">
        <ele>254</ele>
        <time>2022-03-21T14:09:43Z</time>
      </trkpt>
      <trkpt lat="46.67558" lon="5.4949">
        <ele>253.8</ele>
        <time>2022-03-21T14:09:44Z</time>
      </trkpt>
      <trkpt lat="46.67555" lon="5.49492">
        <ele>253.8</ele>
        <time>2022-03-21T14:09:45Z</time>
      </trkpt>
      <trkpt lat="46.67552" lon="5.49495">
        <ele>253.6</ele>
        <time>2022-03-21T14:09:46Z</time>
      </trkpt>
      <trkpt lat="46.67549" lon="5.49497">
        <ele>253.6</ele>
        <time>2022-03-21T14:09:47Z</time>
      </trkpt>
      <trkpt lat="46.67546" lon="5.49499">
        <ele>253.6</ele>
        <time>2022-03-21T14:09:48Z</time>
      </trkpt>
      <trkpt lat="46.67543" lon="5.49501">
        <ele>253.2</ele>
        <time>2022-03-21T14:09:49Z</time>
      </trkpt>
      <trkpt lat="46.67539" lon="5.49503">
        <ele>253.2</ele>
        <time>2022-03-21T14:09:50Z</time>
      </trkpt>
      <trkpt lat="46.67535" lon="5.49506">
        <ele>253</ele>
        <time>2022-03-21T14:09:51Z</time>
      </trkpt>
      <trkpt lat="46.6753" lon="5.49509">
        <ele>252.8</ele>
        <time>2022-03-21T14:09:52Z</time>
      </trkpt>
      <trkpt lat="46.67525" lon="5.49512">
        <ele>252.8</ele>
        <time>2022-03-21T14:09:53Z</time>
      </trkpt>
      <trkpt lat="46.6752" lon="5.49515">
        <ele>252.4</ele>
        <time>2022-03-21T14:09:54Z</time>
      </trkpt>
      <trkpt lat="46.67514" lon="5.49518">
        <ele>252.4</ele>
        <time>2022-03-21T14:09:55Z</time>
      </trkpt>
      <trkpt lat="46.67509" lon="5.4952">
        <ele>252.2</ele>
        <time>2022-03-21T14:09:56Z</time>
      </trkpt>
      <trkpt lat="46.67503" lon="5.49521">
        <ele>252.2</ele>
        <time>2022-03-21T14:09:57Z</time>
      </trkpt>
      <trkpt lat="46.67497" lon="5.4952">
        <ele>251.8</ele>
        <time>2022-03-21T14:09:58Z</time>
      </trkpt>
      <trkpt lat="46.67492" lon="5.49518">
        <ele>251.8</ele>
        <time>2022-03-21T14:09:59Z</time>
      </trkpt>
      <trkpt lat="46.67486" lon="5.49516">
        <ele>251.8</ele>
        <time>2022-03-21T14:10:00Z</time>
      </trkpt>
      <trkpt lat="46.67481" lon="5.49514">
        <ele>251.6</ele>
        <time>2022-03-21T14:10:01Z</time>
      </trkpt>
      <trkpt lat="46.67477" lon="5.49513">
        <ele>251.6</ele>
        <time>2022-03-21T14:10:02Z</time>
      </trkpt>
      <trkpt lat="46.67472" lon="5.49511">
        <ele>251.6</ele>
        <time>2022-03-21T14:10:03Z</time>
      </trkpt>
      <trkpt lat="46.67467" lon="5.49509">
        <ele>251.6</ele>
        <time>2022-03-21T14:10:04Z</time>
      </trkpt>
      <trkpt lat="46.67463" lon="5.49508">
        <ele>251.8</ele>
        <time>2022-03-21T14:10:05Z</time>
      </trkpt>
      <trkpt lat="46.67458" lon="5.49507">
        <ele>251.8</ele>
        <time>2022-03-21T14:10:06Z</time>
      </trkpt>
      <trkpt lat="46.67454" lon="5.49506">
        <ele>252</ele>
        <time>2022-03-21T14:10:07Z</time>
      </trkpt>
      <trkpt lat="46.6745" lon="5.49507">
        <ele>252</ele>
        <time>2022-03-21T14:10:08Z</time>
      </trkpt>
      <trkpt lat="46.67445" lon="5.49509">
        <ele>252</ele>
        <time>2022-03-21T14:10:09Z</time>
      </trkpt>
      <trkpt lat="46.67441" lon="5.49513">
        <ele>252</ele>
        <time>2022-03-21T14:10:10Z</time>
      </trkpt>
      <trkpt lat="46.67437" lon="5.49518">
        <ele>252</ele>
        <time>2022-03-21T14:10:11Z</time>
      </trkpt>
      <trkpt lat="46.67435" lon="5.49525">
        <ele>252</ele>
        <time>2022-03-21T14:10:12Z</time>
      </trkpt>
      <trkpt lat="46.67436" lon="5.49534">
        <ele>251.8</ele>
        <time>2022-03-21T14:10:13Z</time>
      </trkpt>
      <trkpt lat="46.67436" lon="5.49543">
        <ele>251.8</ele>
        <time>2022-03-21T14:10:14Z</time>
      </trkpt>
      <trkpt lat="46.67436" lon="5.49552">
        <ele>251.6</ele>
        <time>2022-03-21T14:10:15Z</time>
      </trkpt>
      <trkpt lat="46.67436" lon="5.49561">
        <ele>251.6</ele>
        <time>2022-03-21T14:10:16Z</time>
      </trkpt>
      <trkpt lat="46.67436" lon="5.49571">
        <ele>251.2</ele>
        <time>2022-03-21T14:10:17Z</time>
      </trkpt>
      <trkpt lat="46.67436" lon="5.49581">
        <ele>251.2</ele>
        <time>2022-03-21T14:10:18Z</time>
      </trkpt>
      <trkpt lat="46.67436" lon="5.4959">
        <ele>251</ele>
        <time>2022-03-21T14:10:19Z</time>
      </trkpt>
      <trkpt lat="46.67435" lon="5.49599">
        <ele>251</ele>
        <time>2022-03-21T14:10:20Z</time>
      </trkpt>
      <trkpt lat="46.67432" lon="5.49608">
        <ele>250.6</ele>
        <time>2022-03-21T14:10:21Z</time>
      </trkpt>
      <trkpt lat="46.67428" lon="5.49615">
        <ele>250.4</ele>
        <time>2022-03-21T14:10:22Z</time>
      </trkpt>
      <trkpt lat="46.67423" lon="5.49621">
        <ele>250.4</ele>
        <time>2022-03-21T14:10:23Z</time>
      </trkpt>
      <trkpt lat="46.67417" lon="5.49625">
        <ele>250.2</ele>
        <time>2022-03-21T14:10:24Z</time>
      </trkpt>
      <trkpt lat="46.67411" lon="5.49628">
        <ele>250.2</ele>
        <time>2022-03-21T14:10:25Z</time>
      </trkpt>
      <trkpt lat="46.67405" lon="5.49629">
        <ele>250.2</ele>
        <time>2022-03-21T14:10:26Z</time>
      </trkpt>
      <trkpt lat="46.67399" lon="5.4963">
        <ele>250</ele>
        <time>2022-03-21T14:10:27Z</time>
      </trkpt>
      <trkpt lat="46.67393" lon="5.49631">
        <ele>250</ele>
        <time>2022-03-21T14:10:28Z</time>
      </trkpt>
      <trkpt lat="46.67387" lon="5.49632">
        <ele>250</ele>
        <time>2022-03-21T14:10:29Z</time>
      </trkpt>
      <trkpt lat="46.67381" lon="5.49633">
        <ele>249.8</ele>
        <time>2022-03-21T14:10:30Z</time>
      </trkpt>
      <trkpt lat="46.67375" lon="5.49634">
        <ele>249.8</ele>
        <time>2022-03-21T14:10:31Z</time>
      </trkpt>
      <trkpt lat="46.67369" lon="5.49635">
        <ele>249.8</ele>
        <time>2022-03-21T14:10:32Z</time>
      </trkpt>
      <trkpt lat="46.67363" lon="5.49636">
        <ele>249.8</ele>
        <time>2022-03-21T14:10:33Z</time>
      </trkpt>
      <trkpt lat="46.67357" lon="5.49637">
        <ele>249.8</ele>
        <time>2022-03-21T14:10:34Z</time>
      </trkpt>
      <trkpt lat="46.67352" lon="5.49638">
        <ele>249.8</ele>
        <time>2022-03-21T14:10:35Z</time>
      </trkpt>
      <trkpt lat="46.67346" lon="5.49639">
        <ele>249.4</ele>
        <time>2022-03-21T14:10:36Z</time>
      </trkpt>
      <trkpt lat="46.6734" lon="5.49641">
        <ele>249.4</ele>
        <time>2022-03-21T14:10:37Z</time>
      </trkpt>
      <trkpt lat="46.67335" lon="5.49642">
        <ele>249.4</ele>
        <time>2022-03-21T14:10:38Z</time>
      </trkpt>
      <trkpt lat="46.67329" lon="5.49644">
        <ele>249.4</ele>
        <time>2022-03-21T14:10:39Z</time>
      </trkpt>
      <trkpt lat="46.67323" lon="5.49645">
        <ele>249.4</ele>
        <time>2022-03-21T14:10:40Z</time>
      </trkpt>
      <trkpt lat="46.67318" lon="5.49647">
        <ele>249.4</ele>
        <time>2022-03-21T14:10:41Z</time>
      </trkpt>
      <trkpt lat="46.67312" lon="5.49648">
        <ele>249.4</ele>
        <time>2022-03-21T14:10:42Z</time>
      </trkpt>
      <trkpt lat="46.67306" lon="5.4965">
        <ele>249.4</ele>
        <time>2022-03-21T14:10:43Z</time>
      </trkpt>
      <trkpt lat="46.67301" lon="5.49652">
        <ele>249.4</ele>
        <time>2022-03-21T14:10:44Z</time>
      </trkpt>
      <trkpt lat="46.67296" lon="5.49654">
        <ele>249.4</ele>
        <time>2022-03-21T14:10:45Z</time>
      </trkpt>
      <trkpt lat="46.67291" lon="5.49657">
        <ele>249.4</ele>
        <time>2022-03-21T14:10:46Z</time>
      </trkpt>
      <trkpt lat="46.67286" lon="5.49659">
        <ele>249.4</ele>
        <time>2022-03-21T14:10:47Z</time>
      </trkpt>
      <trkpt lat="46.67281" lon="5.49662">
        <ele>249.4</ele>
        <time>2022-03-21T14:10:48Z</time>
      </trkpt>
      <trkpt lat="46.67276" lon="5.49664">
        <ele>249.4</ele>
        <time>2022-03-21T14:10:49Z</time>
      </trkpt>
      <trkpt lat="46.67272" lon="5.49667">
        <ele>249.4</ele>
        <time>2022-03-21T14:10:50Z</time>
      </trkpt>
      <trkpt lat="46.67268" lon="5.4967">
        <ele>249.4</ele>
        <time>2022-03-21T14:10:51Z</time>
      </trkpt>
      <trkpt lat="46.67264" lon="5.49673">
        <ele>249.4</ele>
        <time>2022-03-21T14:10:52Z</time>
      </trkpt>
      <trkpt lat="46.6726" lon="5.49675">
        <ele>249.4</ele>
        <time>2022-03-21T14:10:53Z</time>
      </trkpt>
      <trkpt lat="46.67255" lon="5.49678">
        <ele>249.2</ele>
        <time>2022-03-21T14:10:54Z</time>
      </trkpt>
      <trkpt lat="46.67251" lon="5.49681">
        <ele>249.2</ele>
        <time>2022-03-21T14:10:55Z</time>
      </trkpt>
      <trkpt lat="46.67247" lon="5.49684">
        <ele>249.2</ele>
        <time>2022-03-21T14:10:56Z</time>
      </trkpt>
      <trkpt lat="46.67242" lon="5.49687">
        <ele>249</ele>
        <time>2022-03-21T14:10:57Z</time>
      </trkpt>
      <trkpt lat="46.67238" lon="5.4969">
        <ele>249</ele>
        <time>2022-03-21T14:10:58Z</time>
      </trkpt>
      <trkpt lat="46.67234" lon="5.49694">
        <ele>249</ele>
        <time>2022-03-21T14:10:59Z</time>
      </trkpt>
      <trkpt lat="46.6723" lon="5.49698">
        <ele>249</ele>
        <time>2022-03-21T14:11:00Z</time>
      </trkpt>
      <trkpt lat="46.67226" lon="5.49702">
        <ele>248.6</ele>
        <time>2022-03-21T14:11:01Z</time>
      </trkpt>
      <trkpt lat="46.67221" lon="5.49705">
        <ele>248.6</ele>
        <time>2022-03-21T14:11:02Z</time>
      </trkpt>
      <trkpt lat="46.67216" lon="5.49707">
        <ele>248.4</ele>
        <time>2022-03-21T14:11:03Z</time>
      </trkpt>
      <trkpt lat="46.6721" lon="5.49708">
        <ele>248</ele>
        <time>2022-03-21T14:11:04Z</time>
      </trkpt>
      <trkpt lat="46.67205" lon="5.49707">
        <ele>247.8</ele>
        <time>2022-03-21T14:11:05Z</time>
      </trkpt>
      <trkpt lat="46.67199" lon="5.49706">
        <ele>247.4</ele>
        <time>2022-03-21T14:11:06Z</time>
      </trkpt>
      <trkpt lat="46.67193" lon="5.49705">
        <ele>247</ele>
        <time>2022-03-21T14:11:07Z</time>
      </trkpt>
      <trkpt lat="46.67186" lon="5.49704">
        <ele>246.6</ele>
        <time>2022-03-21T14:11:08Z</time>
      </trkpt>
      <trkpt lat="46.6718" lon="5.49702">
        <ele>246.2</ele>
        <time>2022-03-21T14:11:09Z</time>
      </trkpt>
      <trkpt lat="46.67173" lon="5.497">
        <ele>245.8</ele>
        <time>2022-03-21T14:11:10Z</time>
      </trkpt>
      <trkpt lat="46.67167" lon="5.49699">
        <ele>245.2</ele>
        <time>2022-03-21T14:11:11Z</time>
      </trkpt>
      <trkpt lat="46.67161" lon="5.49697">
        <ele>244.6</ele>
        <time>2022-03-21T14:11:12Z</time>
      </trkpt>
      <trkpt lat="46.67156" lon="5.49696">
        <ele>244.2</ele>
        <time>2022-03-21T14:11:13Z</time>
      </trkpt>
      <trkpt lat="46.67151" lon="5.49695">
        <ele>243.8</ele>
        <time>2022-03-21T14:11:14Z</time>
      </trkpt>
      <trkpt lat="46.67146" lon="5.49694">
        <ele>243.4</ele>
        <time>2022-03-21T14:11:15Z</time>
      </trkpt>
      <trkpt lat="46.67142" lon="5.49693">
        <ele>243</ele>
        <time>2022-03-21T14:11:16Z</time>
      </trkpt>
      <trkpt lat="46.67138" lon="5.49692">
        <ele>242.8</ele>
        <time>2022-03-21T14:11:17Z</time>
      </trkpt>
      <trkpt lat="46.67134" lon="5.49691">
        <ele>242.4</ele>
        <time>2022-03-21T14:11:18Z</time>
      </trkpt>
      <trkpt lat="46.67129" lon="5.49689">
        <ele>242.2</ele>
        <time>2022-03-21T14:11:19Z</time>
      </trkpt>
      <trkpt lat="46.67125" lon="5.49686">
        <ele>242</ele>
        <time>2022-03-21T14:11:20Z</time>
      </trkpt>
      <trkpt lat="46.67121" lon="5.49683">
        <ele>241.6</ele>
        <time>2022-03-21T14:11:21Z</time>
      </trkpt>
      <trkpt lat="46.67117" lon="5.4968">
        <ele>241.4</ele>
        <time>2022-03-21T14:11:22Z</time>
      </trkpt>
      <trkpt lat="46.67113" lon="5.49678">
        <ele>241</ele>
        <time>2022-03-21T14:11:23Z</time>
      </trkpt>
      <trkpt lat="46.6711" lon="5.49676">
        <ele>240.8</ele>
        <time>2022-03-21T14:11:24Z</time>
      </trkpt>
      <trkpt lat="46.67107" lon="5.49674">
        <ele>240.6</ele>
        <time>2022-03-21T14:11:25Z</time>
      </trkpt>
      <trkpt lat="46.67105" lon="5.49671">
        <ele>240.6</ele>
        <time>2022-03-21T14:11:26Z</time>
      </trkpt>
      <trkpt lat="46.67103" lon="5.49669">
        <ele>240.4</ele>
        <time>2022-03-21T14:11:27Z</time>
      </trkpt>
      <trkpt lat="46.67101" lon="5.49668">
        <ele>240.4</ele>
        <time>2022-03-21T14:11:28Z</time>
      </trkpt>
      <trkpt lat="46.67098" lon="5.49666">
        <ele>240.2</ele>
        <time>2022-03-21T14:11:29Z</time>
      </trkpt>
      <trkpt lat="46.67096" lon="5.49665">
        <ele>240.2</ele>
        <time>2022-03-21T14:11:30Z</time>
      </trkpt>
      <trkpt lat="46.67094" lon="5.49664">
        <ele>240.2</ele>
        <time>2022-03-21T14:11:31Z</time>
      </trkpt>
      <trkpt lat="46.67091" lon="5.49663">
        <ele>239.8</ele>
        <time>2022-03-21T14:11:32Z</time>
      </trkpt>
      <trkpt lat="46.67089" lon="5.49663">
        <ele>239.8</ele>
        <time>2022-03-21T14:11:33Z</time>
      </trkpt>
      <trkpt lat="46.67087" lon="5.49662">
        <ele>239.8</ele>
        <time>2022-03-21T14:11:35Z</time>
      </trkpt>
      <trkpt lat="46.67085" lon="5.49661">
        <ele>239.8</ele>
        <time>2022-03-21T14:11:36Z</time>
      </trkpt>
      <trkpt lat="46.67083" lon="5.4966">
        <ele>239.8</ele>
        <time>2022-03-21T14:11:37Z</time>
      </trkpt>
      <trkpt lat="46.67081" lon="5.49659">
        <ele>239.8</ele>
        <time>2022-03-21T14:11:39Z</time>
      </trkpt>
      <trkpt lat="46.67079" lon="5.49659">
        <ele>239.8</ele>
        <time>2022-03-21T14:11:40Z</time>
      </trkpt>
      <trkpt lat="46.67077" lon="5.49658">
        <ele>239.8</ele>
        <time>2022-03-21T14:11:41Z</time>
      </trkpt>
      <trkpt lat="46.67074" lon="5.49657">
        <ele>239.8</ele>
        <time>2022-03-21T14:11:42Z</time>
      </trkpt>
      <trkpt lat="46.67072" lon="5.49656">
        <ele>239.8</ele>
        <time>2022-03-21T14:26:35Z</time>
      </trkpt>
      <trkpt lat="46.6707" lon="5.49656">
        <ele>239.6</ele>
        <time>2022-03-21T14:26:36Z</time>
      </trkpt>
      <trkpt lat="46.67063" lon="5.49654">
        <ele>239.6</ele>
        <time>2022-03-21T14:26:37Z</time>
      </trkpt>
      <trkpt lat="46.67061" lon="5.49654">
        <ele>239.2</ele>
        <time>2022-03-21T14:26:38Z</time>
      </trkpt>
      <trkpt lat="46.67056" lon="5.49655">
        <ele>238.8</ele>
        <time>2022-03-21T14:26:39Z</time>
      </trkpt>
      <trkpt lat="46.67051" lon="5.49657">
        <ele>238.6</ele>
        <time>2022-03-21T14:26:40Z</time>
      </trkpt>
      <trkpt lat="46.67046" lon="5.4966">
        <ele>238.2</ele>
        <time>2022-03-21T14:26:41Z</time>
      </trkpt>
      <trkpt lat="46.67041" lon="5.49664">
        <ele>238</ele>
        <time>2022-03-21T14:26:42Z</time>
      </trkpt>
      <trkpt lat="46.67036" lon="5.49668">
        <ele>238</ele>
        <time>2022-03-21T14:26:43Z</time>
      </trkpt>
      <trkpt lat="46.67031" lon="5.49672">
        <ele>237.8</ele>
        <time>2022-03-21T14:26:44Z</time>
      </trkpt>
      <trkpt lat="46.67026" lon="5.49675">
        <ele>237.8</ele>
        <time>2022-03-21T14:26:45Z</time>
      </trkpt>
      <trkpt lat="46.67021" lon="5.49679">
        <ele>237.8</ele>
        <time>2022-03-21T14:26:46Z</time>
      </trkpt>
      <trkpt lat="46.67017" lon="5.49682">
        <ele>237.8</ele>
        <time>2022-03-21T14:26:47Z</time>
      </trkpt>
      <trkpt lat="46.67012" lon="5.49686">
        <ele>237.8</ele>
        <time>2022-03-21T14:26:48Z</time>
      </trkpt>
      <trkpt lat="46.67008" lon="5.4969">
        <ele>237.8</ele>
        <time>2022-03-21T14:26:49Z</time>
      </trkpt>
      <trkpt lat="46.67003" lon="5.49693">
        <ele>237.8</ele>
        <time>2022-03-21T14:26:50Z</time>
      </trkpt>
      <trkpt lat="46.66999" lon="5.49696">
        <ele>237.8</ele>
        <time>2022-03-21T14:26:51Z</time>
      </trkpt>
      <trkpt lat="46.66996" lon="5.497">
        <ele>237.8</ele>
        <time>2022-03-21T14:26:52Z</time>
      </trkpt>
      <trkpt lat="46.66994" lon="5.49704">
        <ele>237.8</ele>
        <time>2022-03-21T14:26:53Z</time>
      </trkpt>
      <trkpt lat="46.66992" lon="5.49708">
        <ele>237.8</ele>
        <time>2022-03-21T14:26:54Z</time>
      </trkpt>
      <trkpt lat="46.66991" lon="5.49712">
        <ele>237.8</ele>
        <time>2022-03-21T14:26:55Z</time>
      </trkpt>
      <trkpt lat="46.66989" lon="5.49715">
        <ele>237.8</ele>
        <time>2022-03-21T14:26:56Z</time>
      </trkpt>
      <trkpt lat="46.66987" lon="5.49718">
        <ele>237.8</ele>
        <time>2022-03-21T14:26:57Z</time>
      </trkpt>
      <trkpt lat="46.66985" lon="5.49723">
        <ele>237.8</ele>
        <time>2022-03-21T14:26:58Z</time>
      </trkpt>
      <trkpt lat="46.66983" lon="5.49729">
        <ele>237.8</ele>
        <time>2022-03-21T14:26:59Z</time>
      </trkpt>
      <trkpt lat="46.66981" lon="5.49735">
        <ele>237.8</ele>
        <time>2022-03-21T14:27:00Z</time>
      </trkpt>
      <trkpt lat="46.6698" lon="5.49742">
        <ele>237.8</ele>
        <time>2022-03-21T14:27:01Z</time>
      </trkpt>
      <trkpt lat="46.66978" lon="5.49749">
        <ele>237.8</ele>
        <time>2022-03-21T14:27:02Z</time>
      </trkpt>
      <trkpt lat="46.66976" lon="5.49756">
        <ele>237.8</ele>
        <time>2022-03-21T14:27:03Z</time>
      </trkpt>
      <trkpt lat="46.66974" lon="5.49764">
        <ele>237.8</ele>
        <time>2022-03-21T14:27:04Z</time>
      </trkpt>
      <trkpt lat="46.66972" lon="5.49771">
        <ele>237.8</ele>
        <time>2022-03-21T14:27:05Z</time>
      </trkpt>
      <trkpt lat="46.66971" lon="5.49779">
        <ele>237.8</ele>
        <time>2022-03-21T14:27:06Z</time>
      </trkpt>
      <trkpt lat="46.66969" lon="5.49785">
        <ele>237.8</ele>
        <time>2022-03-21T14:27:07Z</time>
      </trkpt>
      <trkpt lat="46.66967" lon="5.49792">
        <ele>237.8</ele>
        <time>2022-03-21T14:27:08Z</time>
      </trkpt>
      <trkpt lat="46.66964" lon="5.49798">
        <ele>238</ele>
        <time>2022-03-21T14:27:09Z</time>
      </trkpt>
      <trkpt lat="46.66962" lon="5.49803">
        <ele>238</ele>
        <time>2022-03-21T14:27:10Z</time>
      </trkpt>
      <trkpt lat="46.66959" lon="5.49808">
        <ele>238.4</ele>
        <time>2022-03-21T14:27:11Z</time>
      </trkpt>
      <trkpt lat="46.66955" lon="5.49812">
        <ele>238.4</ele>
        <time>2022-03-21T14:27:12Z</time>
      </trkpt>
      <trkpt lat="46.66951" lon="5.49816">
        <ele>238.8</ele>
        <time>2022-03-21T14:27:13Z</time>
      </trkpt>
      <trkpt lat="46.66947" lon="5.4982">
        <ele>239</ele>
        <time>2022-03-21T14:27:14Z</time>
      </trkpt>
      <trkpt lat="46.66943" lon="5.49824">
        <ele>239.2</ele>
        <time>2022-03-21T14:27:15Z</time>
      </trkpt>
      <trkpt lat="46.66939" lon="5.49826">
        <ele>239.4</ele>
        <time>2022-03-21T14:27:16Z</time>
      </trkpt>
      <trkpt lat="46.66935" lon="5.49828">
        <ele>239.6</ele>
        <time>2022-03-21T14:27:17Z</time>
      </trkpt>
      <trkpt lat="46.66932" lon="5.4983">
        <ele>239.8</ele>
        <time>2022-03-21T14:27:18Z</time>
      </trkpt>
      <trkpt lat="46.66929" lon="5.49832">
        <ele>240</ele>
        <time>2022-03-21T14:27:19Z</time>
      </trkpt>
      <trkpt lat="46.66925" lon="5.49833">
        <ele>240</ele>
        <time>2022-03-21T14:27:20Z</time>
      </trkpt>
      <trkpt lat="46.66921" lon="5.49835">
        <ele>240.4</ele>
        <time>2022-03-21T14:27:21Z</time>
      </trkpt>
      <trkpt lat="46.66917" lon="5.49837">
        <ele>240.4</ele>
        <time>2022-03-21T14:27:22Z</time>
      </trkpt>
      <trkpt lat="46.66913" lon="5.49838">
        <ele>240.8</ele>
        <time>2022-03-21T14:27:23Z</time>
      </trkpt>
      <trkpt lat="46.66909" lon="5.49839">
        <ele>241</ele>
        <time>2022-03-21T14:27:24Z</time>
      </trkpt>
      <trkpt lat="46.66906" lon="5.4984">
        <ele>241.2</ele>
        <time>2022-03-21T14:27:25Z</time>
      </trkpt>
      <trkpt lat="46.66902" lon="5.49841">
        <ele>241.4</ele>
        <time>2022-03-21T14:27:26Z</time>
      </trkpt>
      <trkpt lat="46.66898" lon="5.49843">
        <ele>241.4</ele>
        <time>2022-03-21T14:27:27Z</time>
      </trkpt>
      <trkpt lat="46.66895" lon="5.49844">
        <ele>242</ele>
        <time>2022-03-21T14:27:28Z</time>
      </trkpt>
      <trkpt lat="46.66892" lon="5.49846">
        <ele>242.2</ele>
        <time>2022-03-21T14:27:29Z</time>
      </trkpt>
      <trkpt lat="46.66888" lon="5.49847">
        <ele>242.4</ele>
        <time>2022-03-21T14:27:30Z</time>
      </trkpt>
      <trkpt lat="46.66885" lon="5.49848">
        <ele>242.8</ele>
        <time>2022-03-21T14:27:31Z</time>
      </trkpt>
      <trkpt lat="46.66882" lon="5.49849">
        <ele>243</ele>
        <time>2022-03-21T14:27:32Z</time>
      </trkpt>
      <trkpt lat="46.66878" lon="5.49849">
        <ele>243.4</ele>
        <time>2022-03-21T14:27:33Z</time>
      </trkpt>
      <trkpt lat="46.66875" lon="5.49849">
        <ele>243.6</ele>
        <time>2022-03-21T14:27:34Z</time>
      </trkpt>
      <trkpt lat="46.66871" lon="5.4985">
        <ele>244.2</ele>
        <time>2022-03-21T14:27:35Z</time>
      </trkpt>
      <trkpt lat="46.66868" lon="5.49851">
        <ele>244.6</ele>
        <time>2022-03-21T14:27:36Z</time>
      </trkpt>
      <trkpt lat="46.66864" lon="5.49853">
        <ele>244.8</ele>
        <time>2022-03-21T14:27:37Z</time>
      </trkpt>
      <trkpt lat="46.66861" lon="5.49853">
        <ele>245.2</ele>
        <time>2022-03-21T14:27:38Z</time>
      </trkpt>
      <trkpt lat="46.66858" lon="5.49854">
        <ele>245.4</ele>
        <time>2022-03-21T14:27:39Z</time>
      </trkpt>
      <trkpt lat="46.66856" lon="5.49854">
        <ele>245.4</ele>
        <time>2022-03-21T14:27:40Z</time>
      </trkpt>
      <trkpt lat="46.66853" lon="5.49854">
        <ele>245.8</ele>
        <time>2022-03-21T14:27:41Z</time>
      </trkpt>
      <trkpt lat="46.6685" lon="5.49856">
        <ele>245.8</ele>
        <time>2022-03-21T14:27:42Z</time>
      </trkpt>
      <trkpt lat="46.66847" lon="5.49858">
        <ele>246.2</ele>
        <time>2022-03-21T14:27:43Z</time>
      </trkpt>
      <trkpt lat="46.66844" lon="5.49859">
        <ele>246.2</ele>
        <time>2022-03-21T14:27:44Z</time>
      </trkpt>
      <trkpt lat="46.66842" lon="5.49859">
        <ele>246.6</ele>
        <time>2022-03-21T14:27:45Z</time>
      </trkpt>
      <trkpt lat="46.66839" lon="5.49861">
        <ele>246.6</ele>
        <time>2022-03-21T14:27:46Z</time>
      </trkpt>
      <trkpt lat="46.66836" lon="5.49862">
        <ele>247</ele>
        <time>2022-03-21T14:27:47Z</time>
      </trkpt>
      <trkpt lat="46.66834" lon="5.49863">
        <ele>247</ele>
        <time>2022-03-21T14:27:48Z</time>
      </trkpt>
      <trkpt lat="46.66831" lon="5.49863">
        <ele>247.4</ele>
        <time>2022-03-21T14:27:49Z</time>
      </trkpt>
      <trkpt lat="46.66828" lon="5.49864">
        <ele>247.4</ele>
        <time>2022-03-21T14:27:50Z</time>
      </trkpt>
      <trkpt lat="46.66826" lon="5.49864">
        <ele>247.6</ele>
        <time>2022-03-21T14:27:51Z</time>
      </trkpt>
      <trkpt lat="46.66824" lon="5.49865">
        <ele>247.8</ele>
        <time>2022-03-21T14:27:52Z</time>
      </trkpt>
      <trkpt lat="46.66822" lon="5.49865">
        <ele>247.8</ele>
        <time>2022-03-21T14:27:53Z</time>
      </trkpt>
      <trkpt lat="46.6682" lon="5.49866">
        <ele>248.4</ele>
        <time>2022-03-21T14:27:54Z</time>
      </trkpt>
      <trkpt lat="46.66817" lon="5.49866">
        <ele>248.4</ele>
        <time>2022-03-21T14:27:55Z</time>
      </trkpt>
      <trkpt lat="46.66815" lon="5.49866">
        <ele>248.6</ele>
        <time>2022-03-21T14:27:56Z</time>
      </trkpt>
      <trkpt lat="46.66813" lon="5.49867">
        <ele>248.6</ele>
        <time>2022-03-21T14:27:57Z</time>
      </trkpt>
      <trkpt lat="46.66811" lon="5.49867">
        <ele>249</ele>
        <time>2022-03-21T14:27:58Z</time>
      </trkpt>
      <trkpt lat="46.66806" lon="5.49867">
        <ele>249.2</ele>
        <time>2022-03-21T14:27:59Z</time>
      </trkpt>
      <trkpt lat="46.66803" lon="5.49867">
        <ele>249.2</ele>
        <time>2022-03-21T14:28:00Z</time>
      </trkpt>
      <trkpt lat="46.66801" lon="5.49867">
        <ele>249.6</ele>
        <time>2022-03-21T14:28:01Z</time>
      </trkpt>
      <trkpt lat="46.66799" lon="5.49867">
        <ele>249.6</ele>
        <time>2022-03-21T14:28:02Z</time>
      </trkpt>
      <trkpt lat="46.66797" lon="5.49867">
        <ele>250</ele>
        <time>2022-03-21T14:28:03Z</time>
      </trkpt>
      <trkpt lat="46.66795" lon="5.49867">
        <ele>250</ele>
        <time>2022-03-21T14:28:04Z</time>
      </trkpt>
      <trkpt lat="46.66792" lon="5.49867">
        <ele>250.2</ele>
        <time>2022-03-21T14:28:05Z</time>
      </trkpt>
      <trkpt lat="46.6679" lon="5.49867">
        <ele>250.2</ele>
        <time>2022-03-21T14:28:06Z</time>
      </trkpt>
      <trkpt lat="46.66788" lon="5.49867">
        <ele>250.6</ele>
        <time>2022-03-21T14:28:07Z</time>
      </trkpt>
      <trkpt lat="46.66786" lon="5.49866">
        <ele>250.6</ele>
        <time>2022-03-21T14:28:08Z</time>
      </trkpt>
      <trkpt lat="46.66783" lon="5.49866">
        <ele>251</ele>
        <time>2022-03-21T14:28:09Z</time>
      </trkpt>
      <trkpt lat="46.6678" lon="5.49866">
        <ele>251</ele>
        <time>2022-03-21T14:28:10Z</time>
      </trkpt>
      <trkpt lat="46.66777" lon="5.49865">
        <ele>251.4</ele>
        <time>2022-03-21T14:28:11Z</time>
      </trkpt>
      <trkpt lat="46.66775" lon="5.49865">
        <ele>251.4</ele>
        <time>2022-03-21T14:28:12Z</time>
      </trkpt>
      <trkpt lat="46.66772" lon="5.49864">
        <ele>251.8</ele>
        <time>2022-03-21T14:28:13Z</time>
      </trkpt>
      <trkpt lat="46.6677" lon="5.49864">
        <ele>252</ele>
        <time>2022-03-21T14:28:14Z</time>
      </trkpt>
      <trkpt lat="46.66767" lon="5.49864">
        <ele>252</ele>
        <time>2022-03-21T14:28:15Z</time>
      </trkpt>
      <trkpt lat="46.66765" lon="5.49864">
        <ele>252.2</ele>
        <time>2022-03-21T14:28:16Z</time>
      </trkpt>
      <trkpt lat="46.66762" lon="5.49865">
        <ele>252.2</ele>
        <time>2022-03-21T14:28:17Z</time>
      </trkpt>
      <trkpt lat="46.6676" lon="5.49865">
        <ele>252.6</ele>
        <time>2022-03-21T14:28:18Z</time>
      </trkpt>
      <trkpt lat="46.66758" lon="5.49866">
        <ele>252.6</ele>
        <time>2022-03-21T14:28:19Z</time>
      </trkpt>
      <trkpt lat="46.66756" lon="5.49867">
        <ele>253</ele>
        <time>2022-03-21T14:28:20Z</time>
      </trkpt>
      <trkpt lat="46.66753" lon="5.49868">
        <ele>253</ele>
        <time>2022-03-21T14:28:21Z</time>
      </trkpt>
      <trkpt lat="46.6675" lon="5.49868">
        <ele>253.4</ele>
        <time>2022-03-21T14:28:22Z</time>
      </trkpt>
      <trkpt lat="46.66747" lon="5.49869">
        <ele>253.4</ele>
        <time>2022-03-21T14:28:23Z</time>
      </trkpt>
      <trkpt lat="46.66744" lon="5.49871">
        <ele>253.8</ele>
        <time>2022-03-21T14:28:24Z</time>
      </trkpt>
      <trkpt lat="46.66742" lon="5.49872">
        <ele>254</ele>
        <time>2022-03-21T14:28:25Z</time>
      </trkpt>
      <trkpt lat="46.6674" lon="5.49874">
        <ele>254.2</ele>
        <time>2022-03-21T14:28:27Z</time>
      </trkpt>
      <trkpt lat="46.66737" lon="5.49875">
        <ele>254.6</ele>
        <time>2022-03-21T14:28:28Z</time>
      </trkpt>
      <trkpt lat="46.66735" lon="5.49877">
        <ele>254.8</ele>
        <time>2022-03-21T14:28:29Z</time>
      </trkpt>
      <trkpt lat="46.66733" lon="5.49878">
        <ele>255</ele>
        <time>2022-03-21T14:28:30Z</time>
      </trkpt>
      <trkpt lat="46.6673" lon="5.49879">
        <ele>255</ele>
        <time>2022-03-21T14:28:31Z</time>
      </trkpt>
      <trkpt lat="46.66728" lon="5.49882">
        <ele>255.4</ele>
        <time>2022-03-21T14:28:32Z</time>
      </trkpt>
      <trkpt lat="46.66725" lon="5.49883">
        <ele>255.8</ele>
        <time>2022-03-21T14:28:33Z</time>
      </trkpt>
      <trkpt lat="46.66722" lon="5.49886">
        <ele>256</ele>
        <time>2022-03-21T14:28:34Z</time>
      </trkpt>
      <trkpt lat="46.66718" lon="5.49888">
        <ele>256.2</ele>
        <time>2022-03-21T14:28:35Z</time>
      </trkpt>
      <trkpt lat="46.66716" lon="5.4989">
        <ele>256.4</ele>
        <time>2022-03-21T14:28:36Z</time>
      </trkpt>
      <trkpt lat="46.66713" lon="5.49893">
        <ele>256.6</ele>
        <time>2022-03-21T14:28:37Z</time>
      </trkpt>
      <trkpt lat="46.66711" lon="5.49895">
        <ele>256.8</ele>
        <time>2022-03-21T14:28:38Z</time>
      </trkpt>
      <trkpt lat="46.66708" lon="5.49897">
        <ele>256.8</ele>
        <time>2022-03-21T14:28:39Z</time>
      </trkpt>
      <trkpt lat="46.66705" lon="5.49899">
        <ele>257.4</ele>
        <time>2022-03-21T14:28:40Z</time>
      </trkpt>
      <trkpt lat="46.66703" lon="5.49901">
        <ele>257.6</ele>
        <time>2022-03-21T14:28:41Z</time>
      </trkpt>
      <trkpt lat="46.667" lon="5.49902">
        <ele>257.6</ele>
        <time>2022-03-21T14:28:42Z</time>
      </trkpt>
      <trkpt lat="46.66697" lon="5.49904">
        <ele>258</ele>
        <time>2022-03-21T14:28:43Z</time>
      </trkpt>
      <trkpt lat="46.66694" lon="5.49905">
        <ele>258</ele>
        <time>2022-03-21T14:28:44Z</time>
      </trkpt>
      <trkpt lat="46.66691" lon="5.49906">
        <ele>258.2</ele>
        <time>2022-03-21T14:28:45Z</time>
      </trkpt>
      <trkpt lat="46.66688" lon="5.49907">
        <ele>258.2</ele>
        <time>2022-03-21T14:28:46Z</time>
      </trkpt>
      <trkpt lat="46.66685" lon="5.49908">
        <ele>258.6</ele>
        <time>2022-03-21T14:28:47Z</time>
      </trkpt>
      <trkpt lat="46.66682" lon="5.49908">
        <ele>258.6</ele>
        <time>2022-03-21T14:28:48Z</time>
      </trkpt>
      <trkpt lat="46.66679" lon="5.49909">
        <ele>258.8</ele>
        <time>2022-03-21T14:28:49Z</time>
      </trkpt>
      <trkpt lat="46.66676" lon="5.49909">
        <ele>258.8</ele>
        <time>2022-03-21T14:28:50Z</time>
      </trkpt>
      <trkpt lat="46.66672" lon="5.49909">
        <ele>259.2</ele>
        <time>2022-03-21T14:28:51Z</time>
      </trkpt>
      <trkpt lat="46.66668" lon="5.49908">
        <ele>259.2</ele>
        <time>2022-03-21T14:28:52Z</time>
      </trkpt>
      <trkpt lat="46.66664" lon="5.49907">
        <ele>259.4</ele>
        <time>2022-03-21T14:28:53Z</time>
      </trkpt>
      <trkpt lat="46.6666" lon="5.49905">
        <ele>259.4</ele>
        <time>2022-03-21T14:28:54Z</time>
      </trkpt>
      <trkpt lat="46.66657" lon="5.49904">
        <ele>259.6</ele>
        <time>2022-03-21T14:28:55Z</time>
      </trkpt>
      <trkpt lat="46.66653" lon="5.49904">
        <ele>259.6</ele>
        <time>2022-03-21T14:28:56Z</time>
      </trkpt>
      <trkpt lat="46.66649" lon="5.49905">
        <ele>259.6</ele>
        <time>2022-03-21T14:28:57Z</time>
      </trkpt>
      <trkpt lat="46.66645" lon="5.49905">
        <ele>259.8</ele>
        <time>2022-03-21T14:28:58Z</time>
      </trkpt>
      <trkpt lat="46.66641" lon="5.49906">
        <ele>259.8</ele>
        <time>2022-03-21T14:28:59Z</time>
      </trkpt>
      <trkpt lat="46.66637" lon="5.49906">
        <ele>259.8</ele>
        <time>2022-03-21T14:29:00Z</time>
      </trkpt>
      <trkpt lat="46.66632" lon="5.49907">
        <ele>259.8</ele>
        <time>2022-03-21T14:29:01Z</time>
      </trkpt>
      <trkpt lat="46.66628" lon="5.49907">
        <ele>259.8</ele>
        <time>2022-03-21T14:29:02Z</time>
      </trkpt>
      <trkpt lat="46.66624" lon="5.49907">
        <ele>260.2</ele>
        <time>2022-03-21T14:29:03Z</time>
      </trkpt>
      <trkpt lat="46.6662" lon="5.49906">
        <ele>260.2</ele>
        <time>2022-03-21T14:29:04Z</time>
      </trkpt>
      <trkpt lat="46.66615" lon="5.49906">
        <ele>260.2</ele>
        <time>2022-03-21T14:29:05Z</time>
      </trkpt>
      <trkpt lat="46.66611" lon="5.49906">
        <ele>260.2</ele>
        <time>2022-03-21T14:29:06Z</time>
      </trkpt>
      <trkpt lat="46.66607" lon="5.49906">
        <ele>260.4</ele>
        <time>2022-03-21T14:29:07Z</time>
      </trkpt>
      <trkpt lat="46.66603" lon="5.49906">
        <ele>260.4</ele>
        <time>2022-03-21T14:29:08Z</time>
      </trkpt>
      <trkpt lat="46.66598" lon="5.49906">
        <ele>260.4</ele>
        <time>2022-03-21T14:29:09Z</time>
      </trkpt>
      <trkpt lat="46.66594" lon="5.49906">
        <ele>260.4</ele>
        <time>2022-03-21T14:29:10Z</time>
      </trkpt>
      <trkpt lat="46.6659" lon="5.49906">
        <ele>260.4</ele>
        <time>2022-03-21T14:29:11Z</time>
      </trkpt>
      <trkpt lat="46.66585" lon="5.49906">
        <ele>260.4</ele>
        <time>2022-03-21T14:29:12Z</time>
      </trkpt>
      <trkpt lat="46.6658" lon="5.49906">
        <ele>260.4</ele>
        <time>2022-03-21T14:29:13Z</time>
      </trkpt>
      <trkpt lat="46.66575" lon="5.49905">
        <ele>260.4</ele>
        <time>2022-03-21T14:29:14Z</time>
      </trkpt>
      <trkpt lat="46.66569" lon="5.49904">
        <ele>260.2</ele>
        <time>2022-03-21T14:29:15Z</time>
      </trkpt>
      <trkpt lat="46.66564" lon="5.49903">
        <ele>260.2</ele>
        <time>2022-03-21T14:29:16Z</time>
      </trkpt>
      <trkpt lat="46.66558" lon="5.49902">
        <ele>259.8</ele>
        <time>2022-03-21T14:29:17Z</time>
      </trkpt>
      <trkpt lat="46.66553" lon="5.49901">
        <ele>259.8</ele>
        <time>2022-03-21T14:29:18Z</time>
      </trkpt>
      <trkpt lat="46.66547" lon="5.499">
        <ele>259.6</ele>
        <time>2022-03-21T14:29:19Z</time>
      </trkpt>
      <trkpt lat="46.66541" lon="5.49898">
        <ele>259.6</ele>
        <time>2022-03-21T14:29:20Z</time>
      </trkpt>
      <trkpt lat="46.66534" lon="5.49897">
        <ele>259.2</ele>
        <time>2022-03-21T14:29:21Z</time>
      </trkpt>
      <trkpt lat="46.66528" lon="5.49895">
        <ele>259</ele>
        <time>2022-03-21T14:29:22Z</time>
      </trkpt>
      <trkpt lat="46.66521" lon="5.49892">
        <ele>258.8</ele>
        <time>2022-03-21T14:29:23Z</time>
      </trkpt>
      <trkpt lat="46.66514" lon="5.4989">
        <ele>258.8</ele>
        <time>2022-03-21T14:29:24Z</time>
      </trkpt>
      <trkpt lat="46.66507" lon="5.49888">
        <ele>258.4</ele>
        <time>2022-03-21T14:29:25Z</time>
      </trkpt>
      <trkpt lat="46.66499" lon="5.49886">
        <ele>258</ele>
        <time>2022-03-21T14:29:26Z</time>
      </trkpt>
      <trkpt lat="46.66492" lon="5.49883">
        <ele>257.6</ele>
        <time>2022-03-21T14:29:27Z</time>
      </trkpt>
      <trkpt lat="46.66484" lon="5.49881">
        <ele>257.2</ele>
        <time>2022-03-21T14:29:28Z</time>
      </trkpt>
      <trkpt lat="46.66477" lon="5.49878">
        <ele>257</ele>
        <time>2022-03-21T14:29:29Z</time>
      </trkpt>
      <trkpt lat="46.66469" lon="5.49875">
        <ele>256.8</ele>
        <time>2022-03-21T14:29:30Z</time>
      </trkpt>
      <trkpt lat="46.66461" lon="5.49872">
        <ele>256.4</ele>
        <time>2022-03-21T14:29:31Z</time>
      </trkpt>
      <trkpt lat="46.66453" lon="5.4987">
        <ele>256</ele>
        <time>2022-03-21T14:29:32Z</time>
      </trkpt>
      <trkpt lat="46.66446" lon="5.49867">
        <ele>255.8</ele>
        <time>2022-03-21T14:29:33Z</time>
      </trkpt>
      <trkpt lat="46.66438" lon="5.49865">
        <ele>255.6</ele>
        <time>2022-03-21T14:29:34Z</time>
      </trkpt>
      <trkpt lat="46.6643" lon="5.49863">
        <ele>255.6</ele>
        <time>2022-03-21T14:29:35Z</time>
      </trkpt>
      <trkpt lat="46.66423" lon="5.49861">
        <ele>255.2</ele>
        <time>2022-03-21T14:29:36Z</time>
      </trkpt>
      <trkpt lat="46.66415" lon="5.49859">
        <ele>255.2</ele>
        <time>2022-03-21T14:29:37Z</time>
      </trkpt>
      <trkpt lat="46.66407" lon="5.49857">
        <ele>255</ele>
        <time>2022-03-21T14:29:38Z</time>
      </trkpt>
      <trkpt lat="46.664" lon="5.49856">
        <ele>255</ele>
        <time>2022-03-21T14:29:39Z</time>
      </trkpt>
      <trkpt lat="46.66392" lon="5.49855">
        <ele>255</ele>
        <time>2022-03-21T14:29:40Z</time>
      </trkpt>
      <trkpt lat="46.66385" lon="5.49853">
        <ele>255</ele>
        <time>2022-03-21T14:29:41Z</time>
      </trkpt>
      <trkpt lat="46.66377" lon="5.49852">
        <ele>254.6</ele>
        <time>2022-03-21T14:29:42Z</time>
      </trkpt>
      <trkpt lat="46.6637" lon="5.49851">
        <ele>254.6</ele>
        <time>2022-03-21T14:29:43Z</time>
      </trkpt>
      <trkpt lat="46.66363" lon="5.4985">
        <ele>254.4</ele>
        <time>2022-03-21T14:29:44Z</time>
      </trkpt>
      <trkpt lat="46.66355" lon="5.49849">
        <ele>254.4</ele>
        <time>2022-03-21T14:29:45Z</time>
      </trkpt>
      <trkpt lat="46.66341" lon="5.49848">
        <ele>254.4</ele>
        <time>2022-03-21T14:29:46Z</time>
      </trkpt>
      <trkpt lat="46.66334" lon="5.49847">
        <ele>254.4</ele>
        <time>2022-03-21T14:29:47Z</time>
      </trkpt>
      <trkpt lat="46.66327" lon="5.49847">
        <ele>254.4</ele>
        <time>2022-03-21T14:29:48Z</time>
      </trkpt>
      <trkpt lat="46.6632" lon="5.49846">
        <ele>254.2</ele>
        <time>2022-03-21T14:29:49Z</time>
      </trkpt>
      <trkpt lat="46.66313" lon="5.49845">
        <ele>254.2</ele>
        <time>2022-03-21T14:29:50Z</time>
      </trkpt>
      <trkpt lat="46.66306" lon="5.49845">
        <ele>254.2</ele>
        <time>2022-03-21T14:29:51Z</time>
      </trkpt>
      <trkpt lat="46.663" lon="5.49844">
        <ele>254.2</ele>
        <time>2022-03-21T14:29:52Z</time>
      </trkpt>
      <trkpt lat="46.66293" lon="5.49844">
        <ele>254.2</ele>
        <time>2022-03-21T14:29:53Z</time>
      </trkpt>
      <trkpt lat="46.66287" lon="5.49844">
        <ele>254.2</ele>
        <time>2022-03-21T14:29:54Z</time>
      </trkpt>
      <trkpt lat="46.6628" lon="5.49843">
        <ele>254.2</ele>
        <time>2022-03-21T14:29:55Z</time>
      </trkpt>
      <trkpt lat="46.66274" lon="5.49843">
        <ele>254.2</ele>
        <time>2022-03-21T14:29:56Z</time>
      </trkpt>
      <trkpt lat="46.66268" lon="5.49843">
        <ele>254.2</ele>
        <time>2022-03-21T14:29:57Z</time>
      </trkpt>
      <trkpt lat="46.66261" lon="5.49842">
        <ele>254.2</ele>
        <time>2022-03-21T14:29:58Z</time>
      </trkpt>
      <trkpt lat="46.66255" lon="5.49842">
        <ele>254.2</ele>
        <time>2022-03-21T14:29:59Z</time>
      </trkpt>
      <trkpt lat="46.66249" lon="5.49842">
        <ele>254.2</ele>
        <time>2022-03-21T14:30:00Z</time>
      </trkpt>
      <trkpt lat="46.66243" lon="5.49842">
        <ele>254.2</ele>
        <time>2022-03-21T14:30:01Z</time>
      </trkpt>
      <trkpt lat="46.66237" lon="5.49841">
        <ele>254.2</ele>
        <time>2022-03-21T14:30:02Z</time>
      </trkpt>
      <trkpt lat="46.66231" lon="5.49841">
        <ele>254.2</ele>
        <time>2022-03-21T14:30:03Z</time>
      </trkpt>
      <trkpt lat="46.66226" lon="5.49841">
        <ele>254.4</ele>
        <time>2022-03-21T14:30:04Z</time>
      </trkpt>
      <trkpt lat="46.6622" lon="5.4984">
        <ele>254.4</ele>
        <time>2022-03-21T14:30:05Z</time>
      </trkpt>
      <trkpt lat="46.66214" lon="5.4984">
        <ele>254.4</ele>
        <time>2022-03-21T14:30:06Z</time>
      </trkpt>
      <trkpt lat="46.66208" lon="5.4984">
        <ele>254.6</ele>
        <time>2022-03-21T14:30:07Z</time>
      </trkpt>
      <trkpt lat="46.66202" lon="5.4984">
        <ele>254.6</ele>
        <time>2022-03-21T14:30:08Z</time>
      </trkpt>
      <trkpt lat="46.66196" lon="5.4984">
        <ele>254.6</ele>
        <time>2022-03-21T14:30:09Z</time>
      </trkpt>
      <trkpt lat="46.66191" lon="5.4984">
        <ele>255</ele>
        <time>2022-03-21T14:30:10Z</time>
      </trkpt>
      <trkpt lat="46.66185" lon="5.4984">
        <ele>255</ele>
        <time>2022-03-21T14:30:11Z</time>
      </trkpt>
      <trkpt lat="46.6618" lon="5.49841">
        <ele>255.2</ele>
        <time>2022-03-21T14:30:12Z</time>
      </trkpt>
      <trkpt lat="46.66174" lon="5.4984">
        <ele>255.2</ele>
        <time>2022-03-21T14:30:13Z</time>
      </trkpt>
      <trkpt lat="46.66168" lon="5.4984">
        <ele>255.2</ele>
        <time>2022-03-21T14:30:14Z</time>
      </trkpt>
      <trkpt lat="46.66162" lon="5.49841">
        <ele>255.2</ele>
        <time>2022-03-21T14:30:15Z</time>
      </trkpt>
      <trkpt lat="46.66156" lon="5.49841">
        <ele>255.2</ele>
        <time>2022-03-21T14:30:16Z</time>
      </trkpt>
      <trkpt lat="46.6615" lon="5.49842">
        <ele>255.2</ele>
        <time>2022-03-21T14:30:17Z</time>
      </trkpt>
      <trkpt lat="46.66144" lon="5.49842">
        <ele>255.2</ele>
        <time>2022-03-21T14:30:18Z</time>
      </trkpt>
      <trkpt lat="46.66138" lon="5.49843">
        <ele>255.2</ele>
        <time>2022-03-21T14:30:19Z</time>
      </trkpt>
      <trkpt lat="46.66131" lon="5.49843">
        <ele>255.2</ele>
        <time>2022-03-21T14:30:20Z</time>
      </trkpt>
      <trkpt lat="46.66125" lon="5.49844">
        <ele>255</ele>
        <time>2022-03-21T14:30:21Z</time>
      </trkpt>
      <trkpt lat="46.66119" lon="5.49845">
        <ele>255</ele>
        <time>2022-03-21T14:30:22Z</time>
      </trkpt>
      <trkpt lat="46.66112" lon="5.49846">
        <ele>255</ele>
        <time>2022-03-21T14:30:23Z</time>
      </trkpt>
      <trkpt lat="46.66106" lon="5.49848">
        <ele>255</ele>
        <time>2022-03-21T14:30:24Z</time>
      </trkpt>
      <trkpt lat="46.66099" lon="5.49849">
        <ele>255</ele>
        <time>2022-03-21T14:30:25Z</time>
      </trkpt>
      <trkpt lat="46.66093" lon="5.4985">
        <ele>255</ele>
        <time>2022-03-21T14:30:26Z</time>
      </trkpt>
      <trkpt lat="46.66086" lon="5.49852">
        <ele>255</ele>
        <time>2022-03-21T14:30:27Z</time>
      </trkpt>
      <trkpt lat="46.6608" lon="5.49853">
        <ele>255</ele>
        <time>2022-03-21T14:30:28Z</time>
      </trkpt>
      <trkpt lat="46.66074" lon="5.49855">
        <ele>255</ele>
        <time>2022-03-21T14:30:29Z</time>
      </trkpt>
      <trkpt lat="46.66068" lon="5.49857">
        <ele>254.8</ele>
        <time>2022-03-21T14:30:30Z</time>
      </trkpt>
      <trkpt lat="46.66062" lon="5.49859">
        <ele>254.8</ele>
        <time>2022-03-21T14:30:31Z</time>
      </trkpt>
      <trkpt lat="46.66055" lon="5.49861">
        <ele>254.8</ele>
        <time>2022-03-21T14:30:32Z</time>
      </trkpt>
      <trkpt lat="46.66049" lon="5.49864">
        <ele>254.8</ele>
        <time>2022-03-21T14:30:33Z</time>
      </trkpt>
      <trkpt lat="46.66043" lon="5.49866">
        <ele>254.8</ele>
        <time>2022-03-21T14:30:34Z</time>
      </trkpt>
      <trkpt lat="46.66037" lon="5.49867">
        <ele>254.8</ele>
        <time>2022-03-21T14:30:35Z</time>
      </trkpt>
      <trkpt lat="46.66031" lon="5.49869">
        <ele>254.8</ele>
        <time>2022-03-21T14:30:36Z</time>
      </trkpt>
      <trkpt lat="46.66026" lon="5.49871">
        <ele>254.8</ele>
        <time>2022-03-21T14:30:37Z</time>
      </trkpt>
      <trkpt lat="46.6602" lon="5.49873">
        <ele>254.8</ele>
        <time>2022-03-21T14:30:38Z</time>
      </trkpt>
      <trkpt lat="46.66014" lon="5.49875">
        <ele>254.8</ele>
        <time>2022-03-21T14:30:39Z</time>
      </trkpt>
      <trkpt lat="46.66008" lon="5.49877">
        <ele>254.8</ele>
        <time>2022-03-21T14:30:40Z</time>
      </trkpt>
      <trkpt lat="46.66003" lon="5.49879">
        <ele>254.8</ele>
        <time>2022-03-21T14:30:41Z</time>
      </trkpt>
      <trkpt lat="46.65997" lon="5.49881">
        <ele>254.8</ele>
        <time>2022-03-21T14:30:42Z</time>
      </trkpt>
      <trkpt lat="46.65992" lon="5.49883">
        <ele>254.8</ele>
        <time>2022-03-21T14:30:43Z</time>
      </trkpt>
      <trkpt lat="46.65987" lon="5.49884">
        <ele>254.8</ele>
        <time>2022-03-21T14:30:44Z</time>
      </trkpt>
      <trkpt lat="46.65981" lon="5.49886">
        <ele>254.8</ele>
        <time>2022-03-21T14:30:45Z</time>
      </trkpt>
      <trkpt lat="46.65976" lon="5.49889">
        <ele>254.8</ele>
        <time>2022-03-21T14:30:46Z</time>
      </trkpt>
      <trkpt lat="46.65971" lon="5.4989">
        <ele>254.8</ele>
        <time>2022-03-21T14:30:47Z</time>
      </trkpt>
      <trkpt lat="46.65966" lon="5.49891">
        <ele>254.8</ele>
        <time>2022-03-21T14:30:48Z</time>
      </trkpt>
      <trkpt lat="46.65961" lon="5.49892">
        <ele>254.8</ele>
        <time>2022-03-21T14:30:49Z</time>
      </trkpt>
      <trkpt lat="46.65956" lon="5.49893">
        <ele>254.6</ele>
        <time>2022-03-21T14:30:50Z</time>
      </trkpt>
      <trkpt lat="46.65951" lon="5.49894">
        <ele>254.6</ele>
        <time>2022-03-21T14:30:51Z</time>
      </trkpt>
      <trkpt lat="46.65946" lon="5.49895">
        <ele>254.6</ele>
        <time>2022-03-21T14:30:52Z</time>
      </trkpt>
      <trkpt lat="46.65942" lon="5.49897">
        <ele>254.6</ele>
        <time>2022-03-21T14:30:53Z</time>
      </trkpt>
      <trkpt lat="46.65938" lon="5.49898">
        <ele>254.6</ele>
        <time>2022-03-21T14:30:54Z</time>
      </trkpt>
      <trkpt lat="46.65934" lon="5.49898">
        <ele>254.2</ele>
        <time>2022-03-21T14:30:55Z</time>
      </trkpt>
      <trkpt lat="46.6593" lon="5.49899">
        <ele>254.2</ele>
        <time>2022-03-21T14:30:56Z</time>
      </trkpt>
      <trkpt lat="46.65927" lon="5.499">
        <ele>254.2</ele>
        <time>2022-03-21T14:30:57Z</time>
      </trkpt>
      <trkpt lat="46.65923" lon="5.49901">
        <ele>254.2</ele>
        <time>2022-03-21T14:30:58Z</time>
      </trkpt>
      <trkpt lat="46.65921" lon="5.49902">
        <ele>254.2</ele>
        <time>2022-03-21T14:30:59Z</time>
      </trkpt>
      <trkpt lat="46.65918" lon="5.49903">
        <ele>254.2</ele>
        <time>2022-03-21T14:31:00Z</time>
      </trkpt>
      <trkpt lat="46.65915" lon="5.49903">
        <ele>254</ele>
        <time>2022-03-21T14:31:01Z</time>
      </trkpt>
      <trkpt lat="46.65913" lon="5.49903">
        <ele>254</ele>
        <time>2022-03-21T14:31:02Z</time>
      </trkpt>
      <trkpt lat="46.65911" lon="5.49902">
        <ele>254</ele>
        <time>2022-03-21T14:31:03Z</time>
      </trkpt>
      <trkpt lat="46.65908" lon="5.49901">
        <ele>254</ele>
        <time>2022-03-21T14:31:04Z</time>
      </trkpt>
      <trkpt lat="46.65905" lon="5.499">
        <ele>254</ele>
        <time>2022-03-21T14:31:05Z</time>
      </trkpt>
      <trkpt lat="46.65902" lon="5.49901">
        <ele>254</ele>
        <time>2022-03-21T14:31:06Z</time>
      </trkpt>
      <trkpt lat="46.65898" lon="5.49903">
        <ele>254</ele>
        <time>2022-03-21T14:31:07Z</time>
      </trkpt>
      <trkpt lat="46.65894" lon="5.49905">
        <ele>254</ele>
        <time>2022-03-21T14:31:08Z</time>
      </trkpt>
      <trkpt lat="46.6589" lon="5.49908">
        <ele>254</ele>
        <time>2022-03-21T14:31:09Z</time>
      </trkpt>
      <trkpt lat="46.65886" lon="5.4991">
        <ele>254</ele>
        <time>2022-03-21T14:31:10Z</time>
      </trkpt>
      <trkpt lat="46.65881" lon="5.49913">
        <ele>254</ele>
        <time>2022-03-21T14:31:11Z</time>
      </trkpt>
      <trkpt lat="46.65877" lon="5.49915">
        <ele>254</ele>
        <time>2022-03-21T14:31:12Z</time>
      </trkpt>
      <trkpt lat="46.65872" lon="5.49918">
        <ele>254</ele>
        <time>2022-03-21T14:31:13Z</time>
      </trkpt>
      <trkpt lat="46.65868" lon="5.4992">
        <ele>254</ele>
        <time>2022-03-21T14:31:14Z</time>
      </trkpt>
      <trkpt lat="46.65863" lon="5.49923">
        <ele>254</ele>
        <time>2022-03-21T14:31:15Z</time>
      </trkpt>
      <trkpt lat="46.65859" lon="5.49925">
        <ele>254</ele>
        <time>2022-03-21T14:31:16Z</time>
      </trkpt>
      <trkpt lat="46.65855" lon="5.49928">
        <ele>254</ele>
        <time>2022-03-21T14:31:17Z</time>
      </trkpt>
      <trkpt lat="46.6585" lon="5.4993">
        <ele>254</ele>
        <time>2022-03-21T14:31:18Z</time>
      </trkpt>
      <trkpt lat="46.65845" lon="5.49933">
        <ele>254</ele>
        <time>2022-03-21T14:31:19Z</time>
      </trkpt>
      <trkpt lat="46.65841" lon="5.49935">
        <ele>254</ele>
        <time>2022-03-21T14:31:20Z</time>
      </trkpt>
      <trkpt lat="46.65836" lon="5.49938">
        <ele>254.2</ele>
        <time>2022-03-21T14:31:21Z</time>
      </trkpt>
      <trkpt lat="46.65832" lon="5.4994">
        <ele>254.2</ele>
        <time>2022-03-21T14:31:22Z</time>
      </trkpt>
      <trkpt lat="46.65827" lon="5.49943">
        <ele>254.2</ele>
        <time>2022-03-21T14:31:23Z</time>
      </trkpt>
      <trkpt lat="46.65823" lon="5.49946">
        <ele>254.2</ele>
        <time>2022-03-21T14:31:24Z</time>
      </trkpt>
      <trkpt lat="46.65819" lon="5.49949">
        <ele>254.2</ele>
        <time>2022-03-21T14:31:25Z</time>
      </trkpt>
      <trkpt lat="46.65815" lon="5.49951">
        <ele>254.2</ele>
        <time>2022-03-21T14:31:26Z</time>
      </trkpt>
      <trkpt lat="46.65811" lon="5.49953">
        <ele>254.2</ele>
        <time>2022-03-21T14:31:27Z</time>
      </trkpt>
      <trkpt lat="46.65807" lon="5.49956">
        <ele>254.2</ele>
        <time>2022-03-21T14:31:28Z</time>
      </trkpt>
      <trkpt lat="46.65803" lon="5.49958">
        <ele>254.2</ele>
        <time>2022-03-21T14:31:29Z</time>
      </trkpt>
      <trkpt lat="46.65799" lon="5.49961">
        <ele>254.2</ele>
        <time>2022-03-21T14:31:30Z</time>
      </trkpt>
      <trkpt lat="46.65795" lon="5.49964">
        <ele>254.2</ele>
        <time>2022-03-21T14:31:31Z</time>
      </trkpt>
      <trkpt lat="46.65791" lon="5.49967">
        <ele>254.2</ele>
        <time>2022-03-21T14:31:32Z</time>
      </trkpt>
      <trkpt lat="46.65786" lon="5.49969">
        <ele>254.2</ele>
        <time>2022-03-21T14:31:33Z</time>
      </trkpt>
      <trkpt lat="46.65782" lon="5.49971">
        <ele>254</ele>
        <time>2022-03-21T14:31:34Z</time>
      </trkpt>
      <trkpt lat="46.65778" lon="5.49973">
        <ele>254</ele>
        <time>2022-03-21T14:31:35Z</time>
      </trkpt>
      <trkpt lat="46.65774" lon="5.49975">
        <ele>254</ele>
        <time>2022-03-21T14:31:36Z</time>
      </trkpt>
      <trkpt lat="46.6577" lon="5.49978">
        <ele>254</ele>
        <time>2022-03-21T14:31:38Z</time>
      </trkpt>
      <trkpt lat="46.65766" lon="5.49981">
        <ele>254</ele>
        <time>2022-03-21T14:31:39Z</time>
      </trkpt>
      <trkpt lat="46.65762" lon="5.49984">
        <ele>253.8</ele>
        <time>2022-03-21T14:31:40Z</time>
      </trkpt>
      <trkpt lat="46.65758" lon="5.49986">
        <ele>253.8</ele>
        <time>2022-03-21T14:31:41Z</time>
      </trkpt>
      <trkpt lat="46.65753" lon="5.49989">
        <ele>253.6</ele>
        <time>2022-03-21T14:31:42Z</time>
      </trkpt>
      <trkpt lat="46.65749" lon="5.49992">
        <ele>253.6</ele>
        <time>2022-03-21T14:31:43Z</time>
      </trkpt>
      <trkpt lat="46.65744" lon="5.49995">
        <ele>253.2</ele>
        <time>2022-03-21T14:31:44Z</time>
      </trkpt>
      <trkpt lat="46.65739" lon="5.49998">
        <ele>253.2</ele>
        <time>2022-03-21T14:31:45Z</time>
      </trkpt>
      <trkpt lat="46.65734" lon="5.50001">
        <ele>253</ele>
        <time>2022-03-21T14:31:46Z</time>
      </trkpt>
      <trkpt lat="46.65729" lon="5.50005">
        <ele>252.6</ele>
        <time>2022-03-21T14:31:47Z</time>
      </trkpt>
      <trkpt lat="46.65723" lon="5.5001">
        <ele>252.2</ele>
        <time>2022-03-21T14:31:48Z</time>
      </trkpt>
      <trkpt lat="46.65717" lon="5.50015">
        <ele>251.8</ele>
        <time>2022-03-21T14:31:49Z</time>
      </trkpt>
      <trkpt lat="46.6571" lon="5.5002">
        <ele>251.4</ele>
        <time>2022-03-21T14:31:50Z</time>
      </trkpt>
      <trkpt lat="46.65704" lon="5.50026">
        <ele>251</ele>
        <time>2022-03-21T14:31:51Z</time>
      </trkpt>
      <trkpt lat="46.65698" lon="5.50032">
        <ele>250.4</ele>
        <time>2022-03-21T14:31:52Z</time>
      </trkpt>
      <trkpt lat="46.65692" lon="5.50039">
        <ele>250</ele>
        <time>2022-03-21T14:31:53Z</time>
      </trkpt>
      <trkpt lat="46.65687" lon="5.50047">
        <ele>249.4</ele>
        <time>2022-03-21T14:31:54Z</time>
      </trkpt>
      <trkpt lat="46.65682" lon="5.50057">
        <ele>249</ele>
        <time>2022-03-21T14:31:55Z</time>
      </trkpt>
      <trkpt lat="46.65678" lon="5.50068">
        <ele>248.4</ele>
        <time>2022-03-21T14:31:56Z</time>
      </trkpt>
      <trkpt lat="46.65674" lon="5.50079">
        <ele>248.2</ele>
        <time>2022-03-21T14:31:57Z</time>
      </trkpt>
      <trkpt lat="46.65671" lon="5.5009">
        <ele>248</ele>
        <time>2022-03-21T14:31:58Z</time>
      </trkpt>
      <trkpt lat="46.65668" lon="5.50101">
        <ele>247.6</ele>
        <time>2022-03-21T14:31:59Z</time>
      </trkpt>
      <trkpt lat="46.65664" lon="5.50111">
        <ele>247.6</ele>
        <time>2022-03-21T14:32:00Z</time>
      </trkpt>
      <trkpt lat="46.65662" lon="5.50122">
        <ele>247.6</ele>
        <time>2022-03-21T14:32:01Z</time>
      </trkpt>
      <trkpt lat="46.65661" lon="5.50132">
        <ele>247.4</ele>
        <time>2022-03-21T14:32:02Z</time>
      </trkpt>
      <trkpt lat="46.65662" lon="5.50143">
        <ele>247</ele>
        <time>2022-03-21T14:32:03Z</time>
      </trkpt>
      <trkpt lat="46.65664" lon="5.50154">
        <ele>246.8</ele>
        <time>2022-03-21T14:32:04Z</time>
      </trkpt>
      <trkpt lat="46.65667" lon="5.50165">
        <ele>246.4</ele>
        <time>2022-03-21T14:32:05Z</time>
      </trkpt>
      <trkpt lat="46.65669" lon="5.50175">
        <ele>246</ele>
        <time>2022-03-21T14:32:06Z</time>
      </trkpt>
      <trkpt lat="46.65672" lon="5.50186">
        <ele>245.8</ele>
        <time>2022-03-21T14:32:07Z</time>
      </trkpt>
      <trkpt lat="46.65674" lon="5.50196">
        <ele>245.8</ele>
        <time>2022-03-21T14:32:08Z</time>
      </trkpt>
      <trkpt lat="46.65677" lon="5.50207">
        <ele>245.4</ele>
        <time>2022-03-21T14:32:09Z</time>
      </trkpt>
      <trkpt lat="46.65679" lon="5.50217">
        <ele>245.4</ele>
        <time>2022-03-21T14:32:10Z</time>
      </trkpt>
      <trkpt lat="46.65681" lon="5.50228">
        <ele>245.2</ele>
        <time>2022-03-21T14:32:11Z</time>
      </trkpt>
      <trkpt lat="46.65684" lon="5.50238">
        <ele>245.2</ele>
        <time>2022-03-21T14:32:12Z</time>
      </trkpt>
      <trkpt lat="46.65686" lon="5.50249">
        <ele>245.2</ele>
        <time>2022-03-21T14:32:13Z</time>
      </trkpt>
      <trkpt lat="46.65688" lon="5.5026">
        <ele>244.8</ele>
        <time>2022-03-21T14:32:14Z</time>
      </trkpt>
      <trkpt lat="46.6569" lon="5.50271">
        <ele>244.8</ele>
        <time>2022-03-21T14:32:15Z</time>
      </trkpt>
      <trkpt lat="46.65691" lon="5.50281">
        <ele>244.8</ele>
        <time>2022-03-21T14:32:16Z</time>
      </trkpt>
      <trkpt lat="46.65692" lon="5.50292">
        <ele>244.8</ele>
        <time>2022-03-21T14:32:17Z</time>
      </trkpt>
      <trkpt lat="46.65694" lon="5.50302">
        <ele>244.8</ele>
        <time>2022-03-21T14:32:18Z</time>
      </trkpt>
      <trkpt lat="46.65695" lon="5.50312">
        <ele>244.6</ele>
        <time>2022-03-21T14:32:19Z</time>
      </trkpt>
      <trkpt lat="46.65696" lon="5.50322">
        <ele>244.6</ele>
        <time>2022-03-21T14:32:20Z</time>
      </trkpt>
      <trkpt lat="46.65696" lon="5.50332">
        <ele>244.6</ele>
        <time>2022-03-21T14:32:21Z</time>
      </trkpt>
      <trkpt lat="46.65697" lon="5.50342">
        <ele>244.6</ele>
        <time>2022-03-21T14:32:22Z</time>
      </trkpt>
      <trkpt lat="46.65698" lon="5.50352">
        <ele>244.6</ele>
        <time>2022-03-21T14:32:23Z</time>
      </trkpt>
      <trkpt lat="46.65699" lon="5.50362">
        <ele>244.6</ele>
        <time>2022-03-21T14:32:24Z</time>
      </trkpt>
      <trkpt lat="46.65699" lon="5.50372">
        <ele>244.6</ele>
        <time>2022-03-21T14:32:25Z</time>
      </trkpt>
      <trkpt lat="46.65699" lon="5.50381">
        <ele>244.6</ele>
        <time>2022-03-21T14:32:26Z</time>
      </trkpt>
      <trkpt lat="46.65699" lon="5.50391">
        <ele>244.6</ele>
        <time>2022-03-21T14:32:27Z</time>
      </trkpt>
      <trkpt lat="46.657" lon="5.50401">
        <ele>244.6</ele>
        <time>2022-03-21T14:32:28Z</time>
      </trkpt>
      <trkpt lat="46.657" lon="5.5041">
        <ele>244.6</ele>
        <time>2022-03-21T14:32:29Z</time>
      </trkpt>
      <trkpt lat="46.657" lon="5.5042">
        <ele>244.6</ele>
        <time>2022-03-21T14:32:30Z</time>
      </trkpt>
      <trkpt lat="46.65699" lon="5.50429">
        <ele>244.8</ele>
        <time>2022-03-21T14:32:31Z</time>
      </trkpt>
      <trkpt lat="46.65699" lon="5.50438">
        <ele>244.8</ele>
        <time>2022-03-21T14:32:32Z</time>
      </trkpt>
      <trkpt lat="46.65699" lon="5.50447">
        <ele>244.8</ele>
        <time>2022-03-21T14:32:33Z</time>
      </trkpt>
      <trkpt lat="46.657" lon="5.50456">
        <ele>244.8</ele>
        <time>2022-03-21T14:32:34Z</time>
      </trkpt>
      <trkpt lat="46.657" lon="5.50465">
        <ele>245</ele>
        <time>2022-03-21T14:32:35Z</time>
      </trkpt>
      <trkpt lat="46.65701" lon="5.50474">
        <ele>245</ele>
        <time>2022-03-21T14:32:36Z</time>
      </trkpt>
      <trkpt lat="46.65701" lon="5.50483">
        <ele>245</ele>
        <time>2022-03-21T14:32:37Z</time>
      </trkpt>
      <trkpt lat="46.65702" lon="5.50492">
        <ele>245.2</ele>
        <time>2022-03-21T14:32:38Z</time>
      </trkpt>
      <trkpt lat="46.65702" lon="5.50501">
        <ele>245.2</ele>
        <time>2022-03-21T14:32:39Z</time>
      </trkpt>
      <trkpt lat="46.65703" lon="5.5051">
        <ele>245.2</ele>
        <time>2022-03-21T14:32:40Z</time>
      </trkpt>
      <trkpt lat="46.65704" lon="5.50519">
        <ele>245.2</ele>
        <time>2022-03-21T14:32:41Z</time>
      </trkpt>
      <trkpt lat="46.65705" lon="5.50527">
        <ele>245.6</ele>
        <time>2022-03-21T14:32:42Z</time>
      </trkpt>
      <trkpt lat="46.65707" lon="5.50536">
        <ele>245.6</ele>
        <time>2022-03-21T14:32:43Z</time>
      </trkpt>
      <trkpt lat="46.65709" lon="5.50544">
        <ele>245.6</ele>
        <time>2022-03-21T14:32:44Z</time>
      </trkpt>
      <trkpt lat="46.65712" lon="5.50552">
        <ele>245.6</ele>
        <time>2022-03-21T14:32:45Z</time>
      </trkpt>
      <trkpt lat="46.65714" lon="5.5056">
        <ele>245.6</ele>
        <time>2022-03-21T14:32:46Z</time>
      </trkpt>
      <trkpt lat="46.65717" lon="5.50568">
        <ele>245.6</ele>
        <time>2022-03-21T14:32:47Z</time>
      </trkpt>
      <trkpt lat="46.65719" lon="5.50576">
        <ele>245.8</ele>
        <time>2022-03-21T14:32:48Z</time>
      </trkpt>
      <trkpt lat="46.65721" lon="5.50584">
        <ele>245.8</ele>
        <time>2022-03-21T14:32:49Z</time>
      </trkpt>
      <trkpt lat="46.65723" lon="5.50593">
        <ele>245.8</ele>
        <time>2022-03-21T14:32:50Z</time>
      </trkpt>
      <trkpt lat="46.65723" lon="5.50601">
        <ele>245.8</ele>
        <time>2022-03-21T14:32:51Z</time>
      </trkpt>
      <trkpt lat="46.65723" lon="5.50609">
        <ele>245.8</ele>
        <time>2022-03-21T14:32:52Z</time>
      </trkpt>
      <trkpt lat="46.65723" lon="5.50618">
        <ele>246</ele>
        <time>2022-03-21T14:32:53Z</time>
      </trkpt>
      <trkpt lat="46.65722" lon="5.50626">
        <ele>246</ele>
        <time>2022-03-21T14:32:54Z</time>
      </trkpt>
      <trkpt lat="46.65721" lon="5.50635">
        <ele>246</ele>
        <time>2022-03-21T14:32:55Z</time>
      </trkpt>
      <trkpt lat="46.65719" lon="5.50643">
        <ele>246</ele>
        <time>2022-03-21T14:32:56Z</time>
      </trkpt>
      <trkpt lat="46.65716" lon="5.5065">
        <ele>246</ele>
        <time>2022-03-21T14:32:57Z</time>
      </trkpt>
      <trkpt lat="46.65714" lon="5.50658">
        <ele>246.2</ele>
        <time>2022-03-21T14:32:58Z</time>
      </trkpt>
      <trkpt lat="46.65711" lon="5.50666">
        <ele>246.2</ele>
        <time>2022-03-21T14:32:59Z</time>
      </trkpt>
      <trkpt lat="46.65709" lon="5.50673">
        <ele>246.2</ele>
        <time>2022-03-21T14:33:00Z</time>
      </trkpt>
      <trkpt lat="46.65706" lon="5.50681">
        <ele>246.6</ele>
        <time>2022-03-21T14:33:01Z</time>
      </trkpt>
      <trkpt lat="46.65704" lon="5.50688">
        <ele>246.6</ele>
        <time>2022-03-21T14:33:02Z</time>
      </trkpt>
      <trkpt lat="46.65702" lon="5.50696">
        <ele>246.6</ele>
        <time>2022-03-21T14:33:03Z</time>
      </trkpt>
      <trkpt lat="46.65699" lon="5.50704">
        <ele>246.8</ele>
        <time>2022-03-21T14:33:04Z</time>
      </trkpt>
      <trkpt lat="46.65697" lon="5.50711">
        <ele>246.8</ele>
        <time>2022-03-21T14:33:05Z</time>
      </trkpt>
      <trkpt lat="46.65695" lon="5.50719">
        <ele>246.8</ele>
        <time>2022-03-21T14:33:06Z</time>
      </trkpt>
      <trkpt lat="46.65694" lon="5.50727">
        <ele>247</ele>
        <time>2022-03-21T14:33:07Z</time>
      </trkpt>
      <trkpt lat="46.65693" lon="5.50736">
        <ele>247</ele>
        <time>2022-03-21T14:33:08Z</time>
      </trkpt>
      <trkpt lat="46.65692" lon="5.50744">
        <ele>247</ele>
        <time>2022-03-21T14:33:09Z</time>
      </trkpt>
      <trkpt lat="46.65692" lon="5.50753">
        <ele>247</ele>
        <time>2022-03-21T14:33:10Z</time>
      </trkpt>
      <trkpt lat="46.65692" lon="5.50761">
        <ele>247.2</ele>
        <time>2022-03-21T14:33:11Z</time>
      </trkpt>
      <trkpt lat="46.65691" lon="5.50769">
        <ele>247.2</ele>
        <time>2022-03-21T14:33:12Z</time>
      </trkpt>
      <trkpt lat="46.65691" lon="5.50777">
        <ele>247.6</ele>
        <time>2022-03-21T14:33:13Z</time>
      </trkpt>
      <trkpt lat="46.65692" lon="5.50783">
        <ele>248</ele>
        <time>2022-03-21T14:33:14Z</time>
      </trkpt>
      <trkpt lat="46.65693" lon="5.5079">
        <ele>248.2</ele>
        <time>2022-03-21T14:33:15Z</time>
      </trkpt>
      <trkpt lat="46.65693" lon="5.50797">
        <ele>248.4</ele>
        <time>2022-03-21T14:33:16Z</time>
      </trkpt>
      <trkpt lat="46.65694" lon="5.50804">
        <ele>248.6</ele>
        <time>2022-03-21T14:33:17Z</time>
      </trkpt>
      <trkpt lat="46.65694" lon="5.5081">
        <ele>248.8</ele>
        <time>2022-03-21T14:33:18Z</time>
      </trkpt>
      <trkpt lat="46.65695" lon="5.50816">
        <ele>249.2</ele>
        <time>2022-03-21T14:33:19Z</time>
      </trkpt>
      <trkpt lat="46.65696" lon="5.5082">
        <ele>249.4</ele>
        <time>2022-03-21T14:33:20Z</time>
      </trkpt>
      <trkpt lat="46.65698" lon="5.50825">
        <ele>249.8</ele>
        <time>2022-03-21T14:33:21Z</time>
      </trkpt>
      <trkpt lat="46.65699" lon="5.50829">
        <ele>250</ele>
        <time>2022-03-21T14:33:22Z</time>
      </trkpt>
      <trkpt lat="46.65701" lon="5.50833">
        <ele>250.2</ele>
        <time>2022-03-21T14:33:23Z</time>
      </trkpt>
      <trkpt lat="46.65704" lon="5.50837">
        <ele>250.6</ele>
        <time>2022-03-21T14:33:24Z</time>
      </trkpt>
      <trkpt lat="46.65706" lon="5.5084">
        <ele>250.8</ele>
        <time>2022-03-21T14:33:25Z</time>
      </trkpt>
      <trkpt lat="46.65708" lon="5.50844">
        <ele>251</ele>
        <time>2022-03-21T14:33:26Z</time>
      </trkpt>
      <trkpt lat="46.6571" lon="5.50847">
        <ele>251.4</ele>
        <time>2022-03-21T14:33:27Z</time>
      </trkpt>
      <trkpt lat="46.65713" lon="5.5085">
        <ele>251.6</ele>
        <time>2022-03-21T14:33:28Z</time>
      </trkpt>
      <trkpt lat="46.65716" lon="5.50853">
        <ele>251.8</ele>
        <time>2022-03-21T14:33:29Z</time>
      </trkpt>
      <trkpt lat="46.65718" lon="5.50856">
        <ele>252</ele>
        <time>2022-03-21T14:33:30Z</time>
      </trkpt>
      <trkpt lat="46.65724" lon="5.5086">
        <ele>252.2</ele>
        <time>2022-03-21T14:33:31Z</time>
      </trkpt>
      <trkpt lat="46.65727" lon="5.50862">
        <ele>252.2</ele>
        <time>2022-03-21T14:33:32Z</time>
      </trkpt>
      <trkpt lat="46.6573" lon="5.50863">
        <ele>252.6</ele>
        <time>2022-03-21T14:33:33Z</time>
      </trkpt>
      <trkpt lat="46.65733" lon="5.50864">
        <ele>252.8</ele>
        <time>2022-03-21T14:33:34Z</time>
      </trkpt>
      <trkpt lat="46.65736" lon="5.50866">
        <ele>252.8</ele>
        <time>2022-03-21T14:33:35Z</time>
      </trkpt>
      <trkpt lat="46.65739" lon="5.50868">
        <ele>253.2</ele>
        <time>2022-03-21T14:33:36Z</time>
      </trkpt>
      <trkpt lat="46.65742" lon="5.50871">
        <ele>253.4</ele>
        <time>2022-03-21T14:33:37Z</time>
      </trkpt>
      <trkpt lat="46.65745" lon="5.50873">
        <ele>253.8</ele>
        <time>2022-03-21T14:33:38Z</time>
      </trkpt>
      <trkpt lat="46.65748" lon="5.50875">
        <ele>254</ele>
        <time>2022-03-21T14:33:39Z</time>
      </trkpt>
      <trkpt lat="46.65751" lon="5.50878">
        <ele>254.4</ele>
        <time>2022-03-21T14:33:40Z</time>
      </trkpt>
      <trkpt lat="46.65754" lon="5.5088">
        <ele>254.6</ele>
        <time>2022-03-21T14:33:41Z</time>
      </trkpt>
      <trkpt lat="46.65757" lon="5.50883">
        <ele>254.8</ele>
        <time>2022-03-21T14:33:42Z</time>
      </trkpt>
      <trkpt lat="46.65759" lon="5.50886">
        <ele>255.2</ele>
        <time>2022-03-21T14:33:43Z</time>
      </trkpt>
      <trkpt lat="46.65762" lon="5.50889">
        <ele>255.4</ele>
        <time>2022-03-21T14:33:44Z</time>
      </trkpt>
      <trkpt lat="46.65764" lon="5.50892">
        <ele>255.6</ele>
        <time>2022-03-21T14:33:45Z</time>
      </trkpt>
      <trkpt lat="46.65767" lon="5.50896">
        <ele>255.8</ele>
        <time>2022-03-21T14:33:46Z</time>
      </trkpt>
      <trkpt lat="46.65769" lon="5.50899">
        <ele>256.2</ele>
        <time>2022-03-21T14:33:47Z</time>
      </trkpt>
      <trkpt lat="46.6577" lon="5.50903">
        <ele>256.4</ele>
        <time>2022-03-21T14:33:48Z</time>
      </trkpt>
      <trkpt lat="46.65772" lon="5.50907">
        <ele>256.6</ele>
        <time>2022-03-21T14:33:49Z</time>
      </trkpt>
      <trkpt lat="46.65773" lon="5.50911">
        <ele>256.8</ele>
        <time>2022-03-21T14:33:50Z</time>
      </trkpt>
      <trkpt lat="46.65774" lon="5.50916">
        <ele>256.8</ele>
        <time>2022-03-21T14:33:51Z</time>
      </trkpt>
      <trkpt lat="46.65775" lon="5.5092">
        <ele>257.2</ele>
        <time>2022-03-21T14:33:52Z</time>
      </trkpt>
      <trkpt lat="46.65775" lon="5.50924">
        <ele>257.2</ele>
        <time>2022-03-21T14:33:53Z</time>
      </trkpt>
      <trkpt lat="46.65775" lon="5.50928">
        <ele>257.6</ele>
        <time>2022-03-21T14:33:54Z</time>
      </trkpt>
      <trkpt lat="46.65775" lon="5.50933">
        <ele>257.8</ele>
        <time>2022-03-21T14:33:55Z</time>
      </trkpt>
      <trkpt lat="46.65775" lon="5.50937">
        <ele>258</ele>
        <time>2022-03-21T14:33:56Z</time>
      </trkpt>
      <trkpt lat="46.65775" lon="5.50941">
        <ele>258.2</ele>
        <time>2022-03-21T14:33:57Z</time>
      </trkpt>
      <trkpt lat="46.65775" lon="5.50945">
        <ele>258.2</ele>
        <time>2022-03-21T14:33:58Z</time>
      </trkpt>
      <trkpt lat="46.65775" lon="5.5095">
        <ele>258.6</ele>
        <time>2022-03-21T14:33:59Z</time>
      </trkpt>
      <trkpt lat="46.65775" lon="5.50954">
        <ele>258.6</ele>
        <time>2022-03-21T14:34:00Z</time>
      </trkpt>
      <trkpt lat="46.65775" lon="5.50958">
        <ele>259</ele>
        <time>2022-03-21T14:34:01Z</time>
      </trkpt>
      <trkpt lat="46.65775" lon="5.50962">
        <ele>259.2</ele>
        <time>2022-03-21T14:34:02Z</time>
      </trkpt>
      <trkpt lat="46.65775" lon="5.50967">
        <ele>259.2</ele>
        <time>2022-03-21T14:34:03Z</time>
      </trkpt>
      <trkpt lat="46.65774" lon="5.50971">
        <ele>259.4</ele>
        <time>2022-03-21T14:34:04Z</time>
      </trkpt>
      <trkpt lat="46.65774" lon="5.50975">
        <ele>259.8</ele>
        <time>2022-03-21T14:34:05Z</time>
      </trkpt>
      <trkpt lat="46.65773" lon="5.50979">
        <ele>259.8</ele>
        <time>2022-03-21T14:34:06Z</time>
      </trkpt>
      <trkpt lat="46.65773" lon="5.50983">
        <ele>260</ele>
        <time>2022-03-21T14:34:07Z</time>
      </trkpt>
      <trkpt lat="46.65772" lon="5.50988">
        <ele>260</ele>
        <time>2022-03-21T14:34:08Z</time>
      </trkpt>
      <trkpt lat="46.65772" lon="5.50992">
        <ele>260.4</ele>
        <time>2022-03-21T14:34:09Z</time>
      </trkpt>
      <trkpt lat="46.65772" lon="5.50996">
        <ele>260.6</ele>
        <time>2022-03-21T14:34:10Z</time>
      </trkpt>
      <trkpt lat="46.65772" lon="5.51001">
        <ele>260.6</ele>
        <time>2022-03-21T14:34:11Z</time>
      </trkpt>
      <trkpt lat="46.65772" lon="5.51005">
        <ele>261</ele>
        <time>2022-03-21T14:34:12Z</time>
      </trkpt>
      <trkpt lat="46.65772" lon="5.5101">
        <ele>261</ele>
        <time>2022-03-21T14:34:13Z</time>
      </trkpt>
      <trkpt lat="46.65772" lon="5.51014">
        <ele>261.2</ele>
        <time>2022-03-21T14:34:14Z</time>
      </trkpt>
      <trkpt lat="46.65773" lon="5.51019">
        <ele>261.2</ele>
        <time>2022-03-21T14:34:15Z</time>
      </trkpt>
      <trkpt lat="46.65772" lon="5.51024">
        <ele>261.2</ele>
        <time>2022-03-21T14:34:16Z</time>
      </trkpt>
      <trkpt lat="46.65772" lon="5.51029">
        <ele>261.6</ele>
        <time>2022-03-21T14:34:17Z</time>
      </trkpt>
      <trkpt lat="46.65773" lon="5.51033">
        <ele>261.6</ele>
        <time>2022-03-21T14:34:18Z</time>
      </trkpt>
      <trkpt lat="46.65773" lon="5.51038">
        <ele>262</ele>
        <time>2022-03-21T14:34:19Z</time>
      </trkpt>
      <trkpt lat="46.65773" lon="5.51043">
        <ele>262.2</ele>
        <time>2022-03-21T14:34:20Z</time>
      </trkpt>
      <trkpt lat="46.65773" lon="5.51048">
        <ele>262.2</ele>
        <time>2022-03-21T14:34:21Z</time>
      </trkpt>
      <trkpt lat="46.65773" lon="5.51052">
        <ele>262.6</ele>
        <time>2022-03-21T14:34:22Z</time>
      </trkpt>
      <trkpt lat="46.65773" lon="5.51057">
        <ele>262.6</ele>
        <time>2022-03-21T14:34:23Z</time>
      </trkpt>
      <trkpt lat="46.65774" lon="5.51062">
        <ele>262.8</ele>
        <time>2022-03-21T14:34:24Z</time>
      </trkpt>
      <trkpt lat="46.65774" lon="5.51067">
        <ele>262.8</ele>
        <time>2022-03-21T14:34:25Z</time>
      </trkpt>
      <trkpt lat="46.65774" lon="5.51072">
        <ele>263.2</ele>
        <time>2022-03-21T14:34:26Z</time>
      </trkpt>
      <trkpt lat="46.65774" lon="5.51078">
        <ele>263.2</ele>
        <time>2022-03-21T14:34:27Z</time>
      </trkpt>
      <trkpt lat="46.65774" lon="5.51083">
        <ele>263.2</ele>
        <time>2022-03-21T14:34:28Z</time>
      </trkpt>
      <trkpt lat="46.65774" lon="5.51089">
        <ele>263.4</ele>
        <time>2022-03-21T14:34:29Z</time>
      </trkpt>
      <trkpt lat="46.65774" lon="5.51095">
        <ele>263.4</ele>
        <time>2022-03-21T14:34:30Z</time>
      </trkpt>
      <trkpt lat="46.65775" lon="5.511">
        <ele>263.4</ele>
        <time>2022-03-21T14:34:31Z</time>
      </trkpt>
      <trkpt lat="46.65775" lon="5.51106">
        <ele>263.4</ele>
        <time>2022-03-21T14:34:32Z</time>
      </trkpt>
      <trkpt lat="46.65775" lon="5.51112">
        <ele>263.6</ele>
        <time>2022-03-21T14:34:33Z</time>
      </trkpt>
      <trkpt lat="46.65775" lon="5.51118">
        <ele>263.6</ele>
        <time>2022-03-21T14:34:34Z</time>
      </trkpt>
      <trkpt lat="46.65776" lon="5.51123">
        <ele>263.8</ele>
        <time>2022-03-21T14:34:35Z</time>
      </trkpt>
      <trkpt lat="46.65776" lon="5.51129">
        <ele>263.8</ele>
        <time>2022-03-21T14:34:36Z</time>
      </trkpt>
      <trkpt lat="46.65776" lon="5.51134">
        <ele>263.8</ele>
        <time>2022-03-21T14:34:37Z</time>
      </trkpt>
      <trkpt lat="46.65777" lon="5.51139">
        <ele>264</ele>
        <time>2022-03-21T14:34:38Z</time>
      </trkpt>
      <trkpt lat="46.65777" lon="5.51144">
        <ele>264</ele>
        <time>2022-03-21T14:34:39Z</time>
      </trkpt>
      <trkpt lat="46.65777" lon="5.5115">
        <ele>264</ele>
        <time>2022-03-21T14:34:40Z</time>
      </trkpt>
      <trkpt lat="46.65777" lon="5.51156">
        <ele>264</ele>
        <time>2022-03-21T14:34:41Z</time>
      </trkpt>
      <trkpt lat="46.65778" lon="5.51162">
        <ele>264.4</ele>
        <time>2022-03-21T14:34:42Z</time>
      </trkpt>
      <trkpt lat="46.65778" lon="5.51168">
        <ele>264.4</ele>
        <time>2022-03-21T14:34:43Z</time>
      </trkpt>
      <trkpt lat="46.65778" lon="5.51174">
        <ele>264.4</ele>
        <time>2022-03-21T14:34:44Z</time>
      </trkpt>
      <trkpt lat="46.65779" lon="5.51181">
        <ele>264.6</ele>
        <time>2022-03-21T14:34:45Z</time>
      </trkpt>
      <trkpt lat="46.65779" lon="5.51187">
        <ele>264.6</ele>
        <time>2022-03-21T14:34:46Z</time>
      </trkpt>
      <trkpt lat="46.65779" lon="5.51194">
        <ele>264.6</ele>
        <time>2022-03-21T14:34:47Z</time>
      </trkpt>
      <trkpt lat="46.65779" lon="5.51201">
        <ele>264.6</ele>
        <time>2022-03-21T14:34:48Z</time>
      </trkpt>
      <trkpt lat="46.65779" lon="5.51208">
        <ele>264.8</ele>
        <time>2022-03-21T14:34:49Z</time>
      </trkpt>
      <trkpt lat="46.65779" lon="5.51215">
        <ele>264.8</ele>
        <time>2022-03-21T14:34:50Z</time>
      </trkpt>
      <trkpt lat="46.65779" lon="5.51222">
        <ele>264.8</ele>
        <time>2022-03-21T14:34:51Z</time>
      </trkpt>
      <trkpt lat="46.65779" lon="5.51229">
        <ele>264.8</ele>
        <time>2022-03-21T14:34:52Z</time>
      </trkpt>
      <trkpt lat="46.65779" lon="5.51236">
        <ele>265</ele>
        <time>2022-03-21T14:34:53Z</time>
      </trkpt>
      <trkpt lat="46.6578" lon="5.51243">
        <ele>265</ele>
        <time>2022-03-21T14:34:54Z</time>
      </trkpt>
      <trkpt lat="46.6578" lon="5.5125">
        <ele>265</ele>
        <time>2022-03-21T14:34:55Z</time>
      </trkpt>
      <trkpt lat="46.6578" lon="5.51257">
        <ele>265</ele>
        <time>2022-03-21T14:34:56Z</time>
      </trkpt>
      <trkpt lat="46.6578" lon="5.51265">
        <ele>265.2</ele>
        <time>2022-03-21T14:34:57Z</time>
      </trkpt>
      <trkpt lat="46.65781" lon="5.51272">
        <ele>265.2</ele>
        <time>2022-03-21T14:34:58Z</time>
      </trkpt>
      <trkpt lat="46.65781" lon="5.51279">
        <ele>265.2</ele>
        <time>2022-03-21T14:34:59Z</time>
      </trkpt>
      <trkpt lat="46.65781" lon="5.51287">
        <ele>265.6</ele>
        <time>2022-03-21T14:35:00Z</time>
      </trkpt>
      <trkpt lat="46.65781" lon="5.51294">
        <ele>265.6</ele>
        <time>2022-03-21T14:35:01Z</time>
      </trkpt>
      <trkpt lat="46.65781" lon="5.51301">
        <ele>265.6</ele>
        <time>2022-03-21T14:35:02Z</time>
      </trkpt>
      <trkpt lat="46.65781" lon="5.51309">
        <ele>265.6</ele>
        <time>2022-03-21T14:35:03Z</time>
      </trkpt>
      <trkpt lat="46.65781" lon="5.51317">
        <ele>265.8</ele>
        <time>2022-03-21T14:35:05Z</time>
      </trkpt>
      <trkpt lat="46.65782" lon="5.51324">
        <ele>265.8</ele>
        <time>2022-03-21T14:35:06Z</time>
      </trkpt>
      <trkpt lat="46.65782" lon="5.51332">
        <ele>266</ele>
        <time>2022-03-21T14:35:07Z</time>
      </trkpt>
      <trkpt lat="46.65783" lon="5.5134">
        <ele>266</ele>
        <time>2022-03-21T14:35:08Z</time>
      </trkpt>
      <trkpt lat="46.65783" lon="5.51347">
        <ele>266</ele>
        <time>2022-03-21T14:35:09Z</time>
      </trkpt>
      <trkpt lat="46.65783" lon="5.51355">
        <ele>266</ele>
        <time>2022-03-21T14:35:10Z</time>
      </trkpt>
      <trkpt lat="46.65783" lon="5.51363">
        <ele>266.2</ele>
        <time>2022-03-21T14:35:11Z</time>
      </trkpt>
      <trkpt lat="46.65784" lon="5.5137">
        <ele>266.2</ele>
        <time>2022-03-21T14:35:12Z</time>
      </trkpt>
      <trkpt lat="46.65784" lon="5.51378">
        <ele>266.2</ele>
        <time>2022-03-21T14:35:13Z</time>
      </trkpt>
      <trkpt lat="46.65784" lon="5.51386">
        <ele>266.2</ele>
        <time>2022-03-21T14:35:14Z</time>
      </trkpt>
      <trkpt lat="46.65784" lon="5.51393">
        <ele>266.6</ele>
        <time>2022-03-21T14:35:15Z</time>
      </trkpt>
      <trkpt lat="46.65784" lon="5.51401">
        <ele>266.6</ele>
        <time>2022-03-21T14:35:16Z</time>
      </trkpt>
      <trkpt lat="46.65784" lon="5.51408">
        <ele>266.6</ele>
        <time>2022-03-21T14:35:17Z</time>
      </trkpt>
      <trkpt lat="46.65784" lon="5.51416">
        <ele>266.8</ele>
        <time>2022-03-21T14:35:18Z</time>
      </trkpt>
      <trkpt lat="46.65785" lon="5.51424">
        <ele>266.8</ele>
        <time>2022-03-21T14:35:19Z</time>
      </trkpt>
      <trkpt lat="46.65785" lon="5.51431">
        <ele>267</ele>
        <time>2022-03-21T14:35:20Z</time>
      </trkpt>
      <trkpt lat="46.65785" lon="5.51439">
        <ele>267</ele>
        <time>2022-03-21T14:35:21Z</time>
      </trkpt>
      <trkpt lat="46.65785" lon="5.51446">
        <ele>267</ele>
        <time>2022-03-21T14:35:22Z</time>
      </trkpt>
      <trkpt lat="46.65785" lon="5.51453">
        <ele>267.2</ele>
        <time>2022-03-21T14:35:23Z</time>
      </trkpt>
      <trkpt lat="46.65785" lon="5.51459">
        <ele>267.2</ele>
        <time>2022-03-21T14:35:24Z</time>
      </trkpt>
      <trkpt lat="46.65785" lon="5.51466">
        <ele>267.2</ele>
        <time>2022-03-21T14:35:25Z</time>
      </trkpt>
      <trkpt lat="46.65783" lon="5.51473">
        <ele>267.2</ele>
        <time>2022-03-21T14:35:26Z</time>
      </trkpt>
      <trkpt lat="46.6578" lon="5.51479">
        <ele>267.2</ele>
        <time>2022-03-21T14:35:27Z</time>
      </trkpt>
      <trkpt lat="46.65777" lon="5.51484">
        <ele>267.6</ele>
        <time>2022-03-21T14:35:28Z</time>
      </trkpt>
      <trkpt lat="46.65773" lon="5.51489">
        <ele>267.6</ele>
        <time>2022-03-21T14:35:29Z</time>
      </trkpt>
      <trkpt lat="46.65771" lon="5.51495">
        <ele>267.6</ele>
        <time>2022-03-21T14:35:30Z</time>
      </trkpt>
      <trkpt lat="46.6577" lon="5.51502">
        <ele>267.8</ele>
        <time>2022-03-21T14:35:31Z</time>
      </trkpt>
      <trkpt lat="46.65771" lon="5.51508">
        <ele>267.8</ele>
        <time>2022-03-21T14:35:32Z</time>
      </trkpt>
      <trkpt lat="46.65774" lon="5.51515">
        <ele>267.8</ele>
        <time>2022-03-21T14:35:33Z</time>
      </trkpt>
      <trkpt lat="46.65777" lon="5.51521">
        <ele>267.8</ele>
        <time>2022-03-21T14:35:34Z</time>
      </trkpt>
      <trkpt lat="46.65781" lon="5.51527">
        <ele>267.8</ele>
        <time>2022-03-21T14:35:35Z</time>
      </trkpt>
      <trkpt lat="46.65785" lon="5.51533">
        <ele>267.8</ele>
        <time>2022-03-21T14:35:36Z</time>
      </trkpt>
      <trkpt lat="46.65787" lon="5.51541">
        <ele>268</ele>
        <time>2022-03-21T14:35:37Z</time>
      </trkpt>
      <trkpt lat="46.65789" lon="5.51549">
        <ele>268</ele>
        <time>2022-03-21T14:35:38Z</time>
      </trkpt>
      <trkpt lat="46.6579" lon="5.51558">
        <ele>268</ele>
        <time>2022-03-21T14:35:39Z</time>
      </trkpt>
      <trkpt lat="46.65791" lon="5.51566">
        <ele>268</ele>
        <time>2022-03-21T14:35:40Z</time>
      </trkpt>
      <trkpt lat="46.65793" lon="5.51574">
        <ele>268</ele>
        <time>2022-03-21T14:35:41Z</time>
      </trkpt>
      <trkpt lat="46.65794" lon="5.51582">
        <ele>268.4</ele>
        <time>2022-03-21T14:35:42Z</time>
      </trkpt>
      <trkpt lat="46.65796" lon="5.5159">
        <ele>268.4</ele>
        <time>2022-03-21T14:35:43Z</time>
      </trkpt>
      <trkpt lat="46.65798" lon="5.51597">
        <ele>268.4</ele>
        <time>2022-03-21T14:35:44Z</time>
      </trkpt>
      <trkpt lat="46.658" lon="5.51605">
        <ele>268.4</ele>
        <time>2022-03-21T14:35:45Z</time>
      </trkpt>
      <trkpt lat="46.65802" lon="5.51612">
        <ele>268.6</ele>
        <time>2022-03-21T14:35:46Z</time>
      </trkpt>
      <trkpt lat="46.65804" lon="5.5162">
        <ele>268.6</ele>
        <time>2022-03-21T14:35:47Z</time>
      </trkpt>
      <trkpt lat="46.65806" lon="5.51628">
        <ele>268.6</ele>
        <time>2022-03-21T14:35:48Z</time>
      </trkpt>
      <trkpt lat="46.65807" lon="5.51635">
        <ele>268.6</ele>
        <time>2022-03-21T14:35:49Z</time>
      </trkpt>
      <trkpt lat="46.65809" lon="5.51643">
        <ele>268.8</ele>
        <time>2022-03-21T14:35:50Z</time>
      </trkpt>
      <trkpt lat="46.6581" lon="5.51651">
        <ele>268.8</ele>
        <time>2022-03-21T14:35:51Z</time>
      </trkpt>
      <trkpt lat="46.65812" lon="5.51659">
        <ele>268.8</ele>
        <time>2022-03-21T14:35:52Z</time>
      </trkpt>
      <trkpt lat="46.65813" lon="5.51666">
        <ele>268.8</ele>
        <time>2022-03-21T14:35:53Z</time>
      </trkpt>
      <trkpt lat="46.65813" lon="5.51675">
        <ele>268.8</ele>
        <time>2022-03-21T14:35:54Z</time>
      </trkpt>
      <trkpt lat="46.65814" lon="5.51683">
        <ele>268.8</ele>
        <time>2022-03-21T14:35:55Z</time>
      </trkpt>
      <trkpt lat="46.65816" lon="5.51691">
        <ele>268.8</ele>
        <time>2022-03-21T14:35:56Z</time>
      </trkpt>
      <trkpt lat="46.65817" lon="5.51699">
        <ele>268.8</ele>
        <time>2022-03-21T14:35:57Z</time>
      </trkpt>
      <trkpt lat="46.65817" lon="5.51707">
        <ele>268.8</ele>
        <time>2022-03-21T14:35:58Z</time>
      </trkpt>
      <trkpt lat="46.65818" lon="5.51716">
        <ele>268.8</ele>
        <time>2022-03-21T14:35:59Z</time>
      </trkpt>
      <trkpt lat="46.65819" lon="5.51724">
        <ele>269</ele>
        <time>2022-03-21T14:36:00Z</time>
      </trkpt>
      <trkpt lat="46.6582" lon="5.51733">
        <ele>269</ele>
        <time>2022-03-21T14:36:01Z</time>
      </trkpt>
      <trkpt lat="46.65821" lon="5.51741">
        <ele>269</ele>
        <time>2022-03-21T14:36:02Z</time>
      </trkpt>
      <trkpt lat="46.65823" lon="5.51749">
        <ele>269</ele>
        <time>2022-03-21T14:36:03Z</time>
      </trkpt>
      <trkpt lat="46.65824" lon="5.51757">
        <ele>269.4</ele>
        <time>2022-03-21T14:36:04Z</time>
      </trkpt>
      <trkpt lat="46.65825" lon="5.51766">
        <ele>269.4</ele>
        <time>2022-03-21T14:36:05Z</time>
      </trkpt>
      <trkpt lat="46.65826" lon="5.51774">
        <ele>269.4</ele>
        <time>2022-03-21T14:36:06Z</time>
      </trkpt>
      <trkpt lat="46.65827" lon="5.51782">
        <ele>269.6</ele>
        <time>2022-03-21T14:36:07Z</time>
      </trkpt>
      <trkpt lat="46.65828" lon="5.5179">
        <ele>269.6</ele>
        <time>2022-03-21T14:36:08Z</time>
      </trkpt>
      <trkpt lat="46.65829" lon="5.51798">
        <ele>269.6</ele>
        <time>2022-03-21T14:36:09Z</time>
      </trkpt>
      <trkpt lat="46.6583" lon="5.51807">
        <ele>269.8</ele>
        <time>2022-03-21T14:36:10Z</time>
      </trkpt>
      <trkpt lat="46.65832" lon="5.51815">
        <ele>269.8</ele>
        <time>2022-03-21T14:36:11Z</time>
      </trkpt>
      <trkpt lat="46.65833" lon="5.51823">
        <ele>270</ele>
        <time>2022-03-21T14:36:12Z</time>
      </trkpt>
      <trkpt lat="46.65834" lon="5.51831">
        <ele>270</ele>
        <time>2022-03-21T14:36:13Z</time>
      </trkpt>
      <trkpt lat="46.65835" lon="5.51839">
        <ele>270</ele>
        <time>2022-03-21T14:36:14Z</time>
      </trkpt>
      <trkpt lat="46.65837" lon="5.51847">
        <ele>270.4</ele>
        <time>2022-03-21T14:36:15Z</time>
      </trkpt>
      <trkpt lat="46.65838" lon="5.51855">
        <ele>270.4</ele>
        <time>2022-03-21T14:36:16Z</time>
      </trkpt>
      <trkpt lat="46.65839" lon="5.51863">
        <ele>270.4</ele>
        <time>2022-03-21T14:36:17Z</time>
      </trkpt>
      <trkpt lat="46.65841" lon="5.51871">
        <ele>270.6</ele>
        <time>2022-03-21T14:36:18Z</time>
      </trkpt>
      <trkpt lat="46.65842" lon="5.51879">
        <ele>270.6</ele>
        <time>2022-03-21T14:36:19Z</time>
      </trkpt>
      <trkpt lat="46.65843" lon="5.51887">
        <ele>270.8</ele>
        <time>2022-03-21T14:36:20Z</time>
      </trkpt>
      <trkpt lat="46.65845" lon="5.51895">
        <ele>270.8</ele>
        <time>2022-03-21T14:36:21Z</time>
      </trkpt>
      <trkpt lat="46.65846" lon="5.51903">
        <ele>270.8</ele>
        <time>2022-03-21T14:36:22Z</time>
      </trkpt>
      <trkpt lat="46.65848" lon="5.51911">
        <ele>270.8</ele>
        <time>2022-03-21T14:36:23Z</time>
      </trkpt>
      <trkpt lat="46.6585" lon="5.51919">
        <ele>270.8</ele>
        <time>2022-03-21T14:36:24Z</time>
      </trkpt>
      <trkpt lat="46.65851" lon="5.51927">
        <ele>271</ele>
        <time>2022-03-21T14:36:25Z</time>
      </trkpt>
      <trkpt lat="46.65853" lon="5.51936">
        <ele>271</ele>
        <time>2022-03-21T14:36:26Z</time>
      </trkpt>
      <trkpt lat="46.65854" lon="5.51944">
        <ele>271</ele>
        <time>2022-03-21T14:36:27Z</time>
      </trkpt>
      <trkpt lat="46.65856" lon="5.51952">
        <ele>271</ele>
        <time>2022-03-21T14:36:28Z</time>
      </trkpt>
      <trkpt lat="46.65857" lon="5.5196">
        <ele>271</ele>
        <time>2022-03-21T14:36:29Z</time>
      </trkpt>
      <trkpt lat="46.65859" lon="5.51968">
        <ele>271</ele>
        <time>2022-03-21T14:36:30Z</time>
      </trkpt>
      <trkpt lat="46.6586" lon="5.51976">
        <ele>271.2</ele>
        <time>2022-03-21T14:36:31Z</time>
      </trkpt>
      <trkpt lat="46.65862" lon="5.51984">
        <ele>271.2</ele>
        <time>2022-03-21T14:36:32Z</time>
      </trkpt>
      <trkpt lat="46.65864" lon="5.51993">
        <ele>271.2</ele>
        <time>2022-03-21T14:36:33Z</time>
      </trkpt>
      <trkpt lat="46.65865" lon="5.52001">
        <ele>271.2</ele>
        <time>2022-03-21T14:36:34Z</time>
      </trkpt>
      <trkpt lat="46.65867" lon="5.52009">
        <ele>271.2</ele>
        <time>2022-03-21T14:36:35Z</time>
      </trkpt>
      <trkpt lat="46.65869" lon="5.52018">
        <ele>271.2</ele>
        <time>2022-03-21T14:36:36Z</time>
      </trkpt>
      <trkpt lat="46.6587" lon="5.52026">
        <ele>271.2</ele>
        <time>2022-03-21T14:36:37Z</time>
      </trkpt>
      <trkpt lat="46.65871" lon="5.52035">
        <ele>271</ele>
        <time>2022-03-21T14:36:38Z</time>
      </trkpt>
      <trkpt lat="46.65872" lon="5.52044">
        <ele>271</ele>
        <time>2022-03-21T14:36:39Z</time>
      </trkpt>
      <trkpt lat="46.65871" lon="5.52053">
        <ele>270.8</ele>
        <time>2022-03-21T14:36:40Z</time>
      </trkpt>
      <trkpt lat="46.65868" lon="5.52061">
        <ele>270.8</ele>
        <time>2022-03-21T14:36:41Z</time>
      </trkpt>
      <trkpt lat="46.65864" lon="5.52069">
        <ele>270.6</ele>
        <time>2022-03-21T14:36:42Z</time>
      </trkpt>
      <trkpt lat="46.65859" lon="5.52076">
        <ele>270.6</ele>
        <time>2022-03-21T14:36:43Z</time>
      </trkpt>
      <trkpt lat="46.65853" lon="5.52082">
        <ele>270.6</ele>
        <time>2022-03-21T14:36:44Z</time>
      </trkpt>
      <trkpt lat="46.65847" lon="5.52087">
        <ele>270.6</ele>
        <time>2022-03-21T14:36:45Z</time>
      </trkpt>
      <trkpt lat="46.65842" lon="5.52093">
        <ele>270.6</ele>
        <time>2022-03-21T14:36:46Z</time>
      </trkpt>
      <trkpt lat="46.65838" lon="5.52098">
        <ele>270.6</ele>
        <time>2022-03-21T14:36:47Z</time>
      </trkpt>
      <trkpt lat="46.65833" lon="5.52104">
        <ele>270.6</ele>
        <time>2022-03-21T14:36:48Z</time>
      </trkpt>
      <trkpt lat="46.65828" lon="5.52109">
        <ele>270.6</ele>
        <time>2022-03-21T14:36:49Z</time>
      </trkpt>
      <trkpt lat="46.65824" lon="5.52115">
        <ele>270.6</ele>
        <time>2022-03-21T14:36:50Z</time>
      </trkpt>
      <trkpt lat="46.65819" lon="5.5212">
        <ele>270.6</ele>
        <time>2022-03-21T14:36:51Z</time>
      </trkpt>
      <trkpt lat="46.65815" lon="5.52126">
        <ele>270.6</ele>
        <time>2022-03-21T14:36:52Z</time>
      </trkpt>
      <trkpt lat="46.6581" lon="5.52132">
        <ele>270.6</ele>
        <time>2022-03-21T14:36:53Z</time>
      </trkpt>
      <trkpt lat="46.65806" lon="5.52137">
        <ele>270.6</ele>
        <time>2022-03-21T14:36:54Z</time>
      </trkpt>
      <trkpt lat="46.65801" lon="5.52142">
        <ele>270.6</ele>
        <time>2022-03-21T14:36:55Z</time>
      </trkpt>
      <trkpt lat="46.65797" lon="5.52148">
        <ele>270.6</ele>
        <time>2022-03-21T14:36:56Z</time>
      </trkpt>
      <trkpt lat="46.65793" lon="5.52154">
        <ele>270.6</ele>
        <time>2022-03-21T14:36:57Z</time>
      </trkpt>
      <trkpt lat="46.65789" lon="5.5216">
        <ele>270.6</ele>
        <time>2022-03-21T14:36:58Z</time>
      </trkpt>
      <trkpt lat="46.65785" lon="5.52166">
        <ele>270.6</ele>
        <time>2022-03-21T14:36:59Z</time>
      </trkpt>
      <trkpt lat="46.65781" lon="5.52173">
        <ele>270.2</ele>
        <time>2022-03-21T14:37:00Z</time>
      </trkpt>
      <trkpt lat="46.65777" lon="5.52181">
        <ele>270</ele>
        <time>2022-03-21T14:37:01Z</time>
      </trkpt>
      <trkpt lat="46.65773" lon="5.5219">
        <ele>270</ele>
        <time>2022-03-21T14:37:02Z</time>
      </trkpt>
      <trkpt lat="46.65769" lon="5.52198">
        <ele>269.6</ele>
        <time>2022-03-21T14:37:03Z</time>
      </trkpt>
      <trkpt lat="46.65765" lon="5.52208">
        <ele>269.4</ele>
        <time>2022-03-21T14:37:04Z</time>
      </trkpt>
      <trkpt lat="46.6576" lon="5.52217">
        <ele>269.2</ele>
        <time>2022-03-21T14:37:05Z</time>
      </trkpt>
      <trkpt lat="46.65755" lon="5.52226">
        <ele>269</ele>
        <time>2022-03-21T14:37:06Z</time>
      </trkpt>
      <trkpt lat="46.6575" lon="5.52234">
        <ele>268.6</ele>
        <time>2022-03-21T14:37:07Z</time>
      </trkpt>
      <trkpt lat="46.65743" lon="5.52243">
        <ele>268.2</ele>
        <time>2022-03-21T14:37:08Z</time>
      </trkpt>
      <trkpt lat="46.65737" lon="5.52251">
        <ele>268</ele>
        <time>2022-03-21T14:37:09Z</time>
      </trkpt>
      <trkpt lat="46.6573" lon="5.52259">
        <ele>267.6</ele>
        <time>2022-03-21T14:37:10Z</time>
      </trkpt>
      <trkpt lat="46.65723" lon="5.52266">
        <ele>267.2</ele>
        <time>2022-03-21T14:37:11Z</time>
      </trkpt>
      <trkpt lat="46.65708" lon="5.52279">
        <ele>266.8</ele>
        <time>2022-03-21T14:37:12Z</time>
      </trkpt>
      <trkpt lat="46.657" lon="5.52285">
        <ele>266.4</ele>
        <time>2022-03-21T14:37:13Z</time>
      </trkpt>
      <trkpt lat="46.65692" lon="5.5229">
        <ele>266</ele>
        <time>2022-03-21T14:37:14Z</time>
      </trkpt>
      <trkpt lat="46.65683" lon="5.52295">
        <ele>265.6</ele>
        <time>2022-03-21T14:37:15Z</time>
      </trkpt>
      <trkpt lat="46.65674" lon="5.523">
        <ele>265.4</ele>
        <time>2022-03-21T14:37:16Z</time>
      </trkpt>
      <trkpt lat="46.65666" lon="5.52307">
        <ele>265</ele>
        <time>2022-03-21T14:37:17Z</time>
      </trkpt>
      <trkpt lat="46.65658" lon="5.52313">
        <ele>265</ele>
        <time>2022-03-21T14:37:18Z</time>
      </trkpt>
      <trkpt lat="46.6565" lon="5.52319">
        <ele>264.6</ele>
        <time>2022-03-21T14:37:19Z</time>
      </trkpt>
      <trkpt lat="46.65642" lon="5.52324">
        <ele>264.6</ele>
        <time>2022-03-21T14:37:20Z</time>
      </trkpt>
      <trkpt lat="46.65634" lon="5.52328">
        <ele>264.6</ele>
        <time>2022-03-21T14:37:21Z</time>
      </trkpt>
      <trkpt lat="46.65627" lon="5.52333">
        <ele>264.2</ele>
        <time>2022-03-21T14:37:22Z</time>
      </trkpt>
      <trkpt lat="46.65619" lon="5.52337">
        <ele>264.2</ele>
        <time>2022-03-21T14:37:23Z</time>
      </trkpt>
      <trkpt lat="46.65612" lon="5.52342">
        <ele>264.2</ele>
        <time>2022-03-21T14:37:24Z</time>
      </trkpt>
      <trkpt lat="46.65605" lon="5.52346">
        <ele>264</ele>
        <time>2022-03-21T14:37:25Z</time>
      </trkpt>
      <trkpt lat="46.65598" lon="5.5235">
        <ele>264</ele>
        <time>2022-03-21T14:37:26Z</time>
      </trkpt>
      <trkpt lat="46.65591" lon="5.52355">
        <ele>264</ele>
        <time>2022-03-21T14:37:27Z</time>
      </trkpt>
      <trkpt lat="46.65584" lon="5.5236">
        <ele>264</ele>
        <time>2022-03-21T14:37:28Z</time>
      </trkpt>
      <trkpt lat="46.65577" lon="5.52365">
        <ele>264</ele>
        <time>2022-03-21T14:37:29Z</time>
      </trkpt>
      <trkpt lat="46.65571" lon="5.5237">
        <ele>263.8</ele>
        <time>2022-03-21T14:37:30Z</time>
      </trkpt>
      <trkpt lat="46.65564" lon="5.52375">
        <ele>263.8</ele>
        <time>2022-03-21T14:37:31Z</time>
      </trkpt>
      <trkpt lat="46.65558" lon="5.5238">
        <ele>263.8</ele>
        <time>2022-03-21T14:37:32Z</time>
      </trkpt>
      <trkpt lat="46.65551" lon="5.52385">
        <ele>263.8</ele>
        <time>2022-03-21T14:37:33Z</time>
      </trkpt>
      <trkpt lat="46.65545" lon="5.52391">
        <ele>263.8</ele>
        <time>2022-03-21T14:37:34Z</time>
      </trkpt>
      <trkpt lat="46.65539" lon="5.52396">
        <ele>263.8</ele>
        <time>2022-03-21T14:37:35Z</time>
      </trkpt>
      <trkpt lat="46.65533" lon="5.52401">
        <ele>263.8</ele>
        <time>2022-03-21T14:37:36Z</time>
      </trkpt>
      <trkpt lat="46.65527" lon="5.52406">
        <ele>263.8</ele>
        <time>2022-03-21T14:37:37Z</time>
      </trkpt>
      <trkpt lat="46.65521" lon="5.52411">
        <ele>263.8</ele>
        <time>2022-03-21T14:37:38Z</time>
      </trkpt>
      <trkpt lat="46.65515" lon="5.52417">
        <ele>263.8</ele>
        <time>2022-03-21T14:37:39Z</time>
      </trkpt>
      <trkpt lat="46.65509" lon="5.52422">
        <ele>263.8</ele>
        <time>2022-03-21T14:37:40Z</time>
      </trkpt>
      <trkpt lat="46.65504" lon="5.52427">
        <ele>263.8</ele>
        <time>2022-03-21T14:37:41Z</time>
      </trkpt>
      <trkpt lat="46.65498" lon="5.52432">
        <ele>263.8</ele>
        <time>2022-03-21T14:37:42Z</time>
      </trkpt>
      <trkpt lat="46.65492" lon="5.52437">
        <ele>263.8</ele>
        <time>2022-03-21T14:37:43Z</time>
      </trkpt>
      <trkpt lat="46.65486" lon="5.52442">
        <ele>263.8</ele>
        <time>2022-03-21T14:37:44Z</time>
      </trkpt>
      <trkpt lat="46.6548" lon="5.52447">
        <ele>263.8</ele>
        <time>2022-03-21T14:37:45Z</time>
      </trkpt>
      <trkpt lat="46.65475" lon="5.52452">
        <ele>263.8</ele>
        <time>2022-03-21T14:37:46Z</time>
      </trkpt>
      <trkpt lat="46.65469" lon="5.52457">
        <ele>264</ele>
        <time>2022-03-21T14:37:47Z</time>
      </trkpt>
      <trkpt lat="46.65464" lon="5.52462">
        <ele>264</ele>
        <time>2022-03-21T14:37:48Z</time>
      </trkpt>
      <trkpt lat="46.65458" lon="5.52467">
        <ele>264</ele>
        <time>2022-03-21T14:37:49Z</time>
      </trkpt>
      <trkpt lat="46.65453" lon="5.52472">
        <ele>264</ele>
        <time>2022-03-21T14:37:50Z</time>
      </trkpt>
      <trkpt lat="46.65447" lon="5.52477">
        <ele>264</ele>
        <time>2022-03-21T14:37:51Z</time>
      </trkpt>
      <trkpt lat="46.65442" lon="5.52482">
        <ele>264</ele>
        <time>2022-03-21T14:37:52Z</time>
      </trkpt>
      <trkpt lat="46.65436" lon="5.52487">
        <ele>264.2</ele>
        <time>2022-03-21T14:37:53Z</time>
      </trkpt>
      <trkpt lat="46.65431" lon="5.52492">
        <ele>264.2</ele>
        <time>2022-03-21T14:37:54Z</time>
      </trkpt>
      <trkpt lat="46.65426" lon="5.52498">
        <ele>264.2</ele>
        <time>2022-03-21T14:37:55Z</time>
      </trkpt>
      <trkpt lat="46.65421" lon="5.52504">
        <ele>264.6</ele>
        <time>2022-03-21T14:37:56Z</time>
      </trkpt>
      <trkpt lat="46.65416" lon="5.5251">
        <ele>264.6</ele>
        <time>2022-03-21T14:37:57Z</time>
      </trkpt>
      <trkpt lat="46.65412" lon="5.52516">
        <ele>264.6</ele>
        <time>2022-03-21T14:37:58Z</time>
      </trkpt>
      <trkpt lat="46.65408" lon="5.52523">
        <ele>264.6</ele>
        <time>2022-03-21T14:37:59Z</time>
      </trkpt>
      <trkpt lat="46.65404" lon="5.52531">
        <ele>264.8</ele>
        <time>2022-03-21T14:38:00Z</time>
      </trkpt>
      <trkpt lat="46.65401" lon="5.52539">
        <ele>264.8</ele>
        <time>2022-03-21T14:38:01Z</time>
      </trkpt>
      <trkpt lat="46.65398" lon="5.52547">
        <ele>264.8</ele>
        <time>2022-03-21T14:38:02Z</time>
      </trkpt>
      <trkpt lat="46.65396" lon="5.52555">
        <ele>264.8</ele>
        <time>2022-03-21T14:38:03Z</time>
      </trkpt>
      <trkpt lat="46.65393" lon="5.52563">
        <ele>265</ele>
        <time>2022-03-21T14:38:04Z</time>
      </trkpt>
      <trkpt lat="46.65391" lon="5.52571">
        <ele>265</ele>
        <time>2022-03-21T14:38:05Z</time>
      </trkpt>
      <trkpt lat="46.6539" lon="5.52579">
        <ele>265</ele>
        <time>2022-03-21T14:38:06Z</time>
      </trkpt>
      <trkpt lat="46.65388" lon="5.52588">
        <ele>265.2</ele>
        <time>2022-03-21T14:38:07Z</time>
      </trkpt>
      <trkpt lat="46.65386" lon="5.52596">
        <ele>265.2</ele>
        <time>2022-03-21T14:38:08Z</time>
      </trkpt>
      <trkpt lat="46.65383" lon="5.52604">
        <ele>265.2</ele>
        <time>2022-03-21T14:38:09Z</time>
      </trkpt>
      <trkpt lat="46.65381" lon="5.52613">
        <ele>265.2</ele>
        <time>2022-03-21T14:38:10Z</time>
      </trkpt>
      <trkpt lat="46.65378" lon="5.52621">
        <ele>265.2</ele>
        <time>2022-03-21T14:38:11Z</time>
      </trkpt>
      <trkpt lat="46.65375" lon="5.52629">
        <ele>265.2</ele>
        <time>2022-03-21T14:38:12Z</time>
      </trkpt>
      <trkpt lat="46.65372" lon="5.52637">
        <ele>265.4</ele>
        <time>2022-03-21T14:38:13Z</time>
      </trkpt>
      <trkpt lat="46.65369" lon="5.52644">
        <ele>265.4</ele>
        <time>2022-03-21T14:38:14Z</time>
      </trkpt>
      <trkpt lat="46.65366" lon="5.52652">
        <ele>265.4</ele>
        <time>2022-03-21T14:38:15Z</time>
      </trkpt>
      <trkpt lat="46.65362" lon="5.52659">
        <ele>265.8</ele>
        <time>2022-03-21T14:38:16Z</time>
      </trkpt>
      <trkpt lat="46.65358" lon="5.52666">
        <ele>265.8</ele>
        <time>2022-03-21T14:38:17Z</time>
      </trkpt>
      <trkpt lat="46.65354" lon="5.52673">
        <ele>265.8</ele>
        <time>2022-03-21T14:38:18Z</time>
      </trkpt>
      <trkpt lat="46.65349" lon="5.52679">
        <ele>266</ele>
        <time>2022-03-21T14:38:19Z</time>
      </trkpt>
      <trkpt lat="46.65345" lon="5.52685">
        <ele>266</ele>
        <time>2022-03-21T14:38:20Z</time>
      </trkpt>
      <trkpt lat="46.6534" lon="5.52691">
        <ele>266</ele>
        <time>2022-03-21T14:38:21Z</time>
      </trkpt>
      <trkpt lat="46.65336" lon="5.52697">
        <ele>266.2</ele>
        <time>2022-03-21T14:38:22Z</time>
      </trkpt>
      <trkpt lat="46.65331" lon="5.52702">
        <ele>266.2</ele>
        <time>2022-03-21T14:38:23Z</time>
      </trkpt>
      <trkpt lat="46.65326" lon="5.52707">
        <ele>266.2</ele>
        <time>2022-03-21T14:38:24Z</time>
      </trkpt>
      <trkpt lat="46.65322" lon="5.52712">
        <ele>266.2</ele>
        <time>2022-03-21T14:38:25Z</time>
      </trkpt>
      <trkpt lat="46.65317" lon="5.52716">
        <ele>266.6</ele>
        <time>2022-03-21T14:38:26Z</time>
      </trkpt>
      <trkpt lat="46.65313" lon="5.52721">
        <ele>266.6</ele>
        <time>2022-03-21T14:38:27Z</time>
      </trkpt>
      <trkpt lat="46.65309" lon="5.52724">
        <ele>266.8</ele>
        <time>2022-03-21T14:38:28Z</time>
      </trkpt>
      <trkpt lat="46.65305" lon="5.52728">
        <ele>266.8</ele>
        <time>2022-03-21T14:38:29Z</time>
      </trkpt>
      <trkpt lat="46.65301" lon="5.52733">
        <ele>267.2</ele>
        <time>2022-03-21T14:38:30Z</time>
      </trkpt>
      <trkpt lat="46.65297" lon="5.52737">
        <ele>267.2</ele>
        <time>2022-03-21T14:38:31Z</time>
      </trkpt>
      <trkpt lat="46.65292" lon="5.52741">
        <ele>267.4</ele>
        <time>2022-03-21T14:38:32Z</time>
      </trkpt>
      <trkpt lat="46.65288" lon="5.52745">
        <ele>267.4</ele>
        <time>2022-03-21T14:38:33Z</time>
      </trkpt>
      <trkpt lat="46.65284" lon="5.52749">
        <ele>267.4</ele>
        <time>2022-03-21T14:38:34Z</time>
      </trkpt>
      <trkpt lat="46.65279" lon="5.52753">
        <ele>267.6</ele>
        <time>2022-03-21T14:38:35Z</time>
      </trkpt>
      <trkpt lat="46.65275" lon="5.52757">
        <ele>267.6</ele>
        <time>2022-03-21T14:38:36Z</time>
      </trkpt>
      <trkpt lat="46.65271" lon="5.52761">
        <ele>268</ele>
        <time>2022-03-21T14:38:37Z</time>
      </trkpt>
      <trkpt lat="46.65267" lon="5.52765">
        <ele>268</ele>
        <time>2022-03-21T14:38:38Z</time>
      </trkpt>
      <trkpt lat="46.65263" lon="5.52769">
        <ele>268.2</ele>
        <time>2022-03-21T14:38:39Z</time>
      </trkpt>
      <trkpt lat="46.65259" lon="5.52773">
        <ele>268.2</ele>
        <time>2022-03-21T14:38:40Z</time>
      </trkpt>
      <trkpt lat="46.65256" lon="5.52776">
        <ele>268.6</ele>
        <time>2022-03-21T14:38:41Z</time>
      </trkpt>
      <trkpt lat="46.65252" lon="5.5278">
        <ele>268.6</ele>
        <time>2022-03-21T14:38:42Z</time>
      </trkpt>
      <trkpt lat="46.65249" lon="5.52782">
        <ele>268.8</ele>
        <time>2022-03-21T14:38:43Z</time>
      </trkpt>
      <trkpt lat="46.65245" lon="5.52784">
        <ele>268.8</ele>
        <time>2022-03-21T14:38:44Z</time>
      </trkpt>
      <trkpt lat="46.65241" lon="5.52785">
        <ele>269.2</ele>
        <time>2022-03-21T14:38:45Z</time>
      </trkpt>
      <trkpt lat="46.65237" lon="5.52786">
        <ele>269.2</ele>
        <time>2022-03-21T14:38:46Z</time>
      </trkpt>
      <trkpt lat="46.65233" lon="5.52786">
        <ele>269.4</ele>
        <time>2022-03-21T14:38:47Z</time>
      </trkpt>
      <trkpt lat="46.65229" lon="5.52785">
        <ele>269.4</ele>
        <time>2022-03-21T14:38:48Z</time>
      </trkpt>
      <trkpt lat="46.65225" lon="5.52785">
        <ele>269.8</ele>
        <time>2022-03-21T14:38:49Z</time>
      </trkpt>
      <trkpt lat="46.65221" lon="5.52786">
        <ele>269.8</ele>
        <time>2022-03-21T14:38:50Z</time>
      </trkpt>
      <trkpt lat="46.65216" lon="5.52787">
        <ele>270</ele>
        <time>2022-03-21T14:38:51Z</time>
      </trkpt>
      <trkpt lat="46.65212" lon="5.52789">
        <ele>270.2</ele>
        <time>2022-03-21T14:38:52Z</time>
      </trkpt>
      <trkpt lat="46.65207" lon="5.52793">
        <ele>270.2</ele>
        <time>2022-03-21T14:38:53Z</time>
      </trkpt>
      <trkpt lat="46.65204" lon="5.52796">
        <ele>270.6</ele>
        <time>2022-03-21T14:38:54Z</time>
      </trkpt>
      <trkpt lat="46.65201" lon="5.52801">
        <ele>270.8</ele>
        <time>2022-03-21T14:38:55Z</time>
      </trkpt>
      <trkpt lat="46.65199" lon="5.52807">
        <ele>271</ele>
        <time>2022-03-21T14:38:56Z</time>
      </trkpt>
      <trkpt lat="46.65198" lon="5.52813">
        <ele>271.2</ele>
        <time>2022-03-21T14:38:57Z</time>
      </trkpt>
      <trkpt lat="46.65197" lon="5.52819">
        <ele>271.2</ele>
        <time>2022-03-21T14:38:58Z</time>
      </trkpt>
      <trkpt lat="46.65197" lon="5.52826">
        <ele>271.6</ele>
        <time>2022-03-21T14:38:59Z</time>
      </trkpt>
      <trkpt lat="46.65196" lon="5.52832">
        <ele>271.6</ele>
        <time>2022-03-21T14:39:00Z</time>
      </trkpt>
      <trkpt lat="46.65195" lon="5.52839">
        <ele>271.6</ele>
        <time>2022-03-21T14:39:01Z</time>
      </trkpt>
      <trkpt lat="46.65195" lon="5.52847">
        <ele>271.6</ele>
        <time>2022-03-21T14:39:02Z</time>
      </trkpt>
      <trkpt lat="46.65194" lon="5.52855">
        <ele>271.6</ele>
        <time>2022-03-21T14:39:03Z</time>
      </trkpt>
      <trkpt lat="46.65192" lon="5.52863">
        <ele>271.6</ele>
        <time>2022-03-21T14:39:04Z</time>
      </trkpt>
      <trkpt lat="46.65189" lon="5.5287">
        <ele>271.4</ele>
        <time>2022-03-21T14:39:05Z</time>
      </trkpt>
      <trkpt lat="46.65186" lon="5.52877">
        <ele>271.4</ele>
        <time>2022-03-21T14:39:06Z</time>
      </trkpt>
      <trkpt lat="46.65182" lon="5.52884">
        <ele>271</ele>
        <time>2022-03-21T14:39:08Z</time>
      </trkpt>
      <trkpt lat="46.65178" lon="5.52891">
        <ele>271</ele>
        <time>2022-03-21T14:39:09Z</time>
      </trkpt>
      <trkpt lat="46.65174" lon="5.52898">
        <ele>271</ele>
        <time>2022-03-21T14:39:10Z</time>
      </trkpt>
      <trkpt lat="46.6517" lon="5.52905">
        <ele>270.8</ele>
        <time>2022-03-21T14:39:11Z</time>
      </trkpt>
      <trkpt lat="46.65166" lon="5.52912">
        <ele>270.8</ele>
        <time>2022-03-21T14:39:12Z</time>
      </trkpt>
      <trkpt lat="46.65162" lon="5.52919">
        <ele>270.8</ele>
        <time>2022-03-21T14:39:13Z</time>
      </trkpt>
      <trkpt lat="46.65158" lon="5.52926">
        <ele>270.6</ele>
        <time>2022-03-21T14:39:14Z</time>
      </trkpt>
      <trkpt lat="46.65153" lon="5.52934">
        <ele>270.6</ele>
        <time>2022-03-21T14:39:15Z</time>
      </trkpt>
      <trkpt lat="46.65149" lon="5.52942">
        <ele>270.6</ele>
        <time>2022-03-21T14:39:16Z</time>
      </trkpt>
      <trkpt lat="46.65145" lon="5.5295">
        <ele>270.6</ele>
        <time>2022-03-21T14:39:17Z</time>
      </trkpt>
      <trkpt lat="46.65141" lon="5.52958">
        <ele>270.6</ele>
        <time>2022-03-21T14:39:18Z</time>
      </trkpt>
      <trkpt lat="46.65138" lon="5.52965">
        <ele>270.6</ele>
        <time>2022-03-21T14:39:19Z</time>
      </trkpt>
      <trkpt lat="46.65134" lon="5.52973">
        <ele>270.6</ele>
        <time>2022-03-21T14:39:20Z</time>
      </trkpt>
      <trkpt lat="46.65131" lon="5.5298">
        <ele>270.6</ele>
        <time>2022-03-21T14:39:21Z</time>
      </trkpt>
      <trkpt lat="46.65127" lon="5.52988">
        <ele>270.8</ele>
        <time>2022-03-21T14:39:22Z</time>
      </trkpt>
      <trkpt lat="46.65124" lon="5.52995">
        <ele>270.8</ele>
        <time>2022-03-21T14:39:23Z</time>
      </trkpt>
      <trkpt lat="46.65121" lon="5.53002">
        <ele>271.2</ele>
        <time>2022-03-21T14:39:24Z</time>
      </trkpt>
      <trkpt lat="46.65118" lon="5.53009">
        <ele>271.2</ele>
        <time>2022-03-21T14:39:25Z</time>
      </trkpt>
      <trkpt lat="46.65115" lon="5.53017">
        <ele>271.4</ele>
        <time>2022-03-21T14:39:26Z</time>
      </trkpt>
      <trkpt lat="46.65112" lon="5.53024">
        <ele>271.4</ele>
        <time>2022-03-21T14:39:27Z</time>
      </trkpt>
      <trkpt lat="46.65109" lon="5.53031">
        <ele>271.4</ele>
        <time>2022-03-21T14:39:28Z</time>
      </trkpt>
      <trkpt lat="46.65106" lon="5.53037">
        <ele>271.6</ele>
        <time>2022-03-21T14:39:29Z</time>
      </trkpt>
      <trkpt lat="46.65103" lon="5.53045">
        <ele>271.6</ele>
        <time>2022-03-21T14:39:30Z</time>
      </trkpt>
      <trkpt lat="46.651" lon="5.53052">
        <ele>271.6</ele>
        <time>2022-03-21T14:39:31Z</time>
      </trkpt>
      <trkpt lat="46.65097" lon="5.53059">
        <ele>271.8</ele>
        <time>2022-03-21T14:39:32Z</time>
      </trkpt>
      <trkpt lat="46.65094" lon="5.53066">
        <ele>271.8</ele>
        <time>2022-03-21T14:39:33Z</time>
      </trkpt>
      <trkpt lat="46.6509" lon="5.53074">
        <ele>271.8</ele>
        <time>2022-03-21T14:39:34Z</time>
      </trkpt>
      <trkpt lat="46.65087" lon="5.53081">
        <ele>272</ele>
        <time>2022-03-21T14:39:35Z</time>
      </trkpt>
      <trkpt lat="46.65083" lon="5.53088">
        <ele>272</ele>
        <time>2022-03-21T14:39:36Z</time>
      </trkpt>
      <trkpt lat="46.65079" lon="5.53095">
        <ele>272</ele>
        <time>2022-03-21T14:39:37Z</time>
      </trkpt>
      <trkpt lat="46.65075" lon="5.53102">
        <ele>272</ele>
        <time>2022-03-21T14:39:38Z</time>
      </trkpt>
      <trkpt lat="46.65071" lon="5.53108">
        <ele>272</ele>
        <time>2022-03-21T14:39:39Z</time>
      </trkpt>
      <trkpt lat="46.65067" lon="5.53115">
        <ele>272</ele>
        <time>2022-03-21T14:39:40Z</time>
      </trkpt>
      <trkpt lat="46.65063" lon="5.53122">
        <ele>272</ele>
        <time>2022-03-21T14:39:41Z</time>
      </trkpt>
      <trkpt lat="46.6506" lon="5.53128">
        <ele>272</ele>
        <time>2022-03-21T14:39:42Z</time>
      </trkpt>
      <trkpt lat="46.65056" lon="5.53135">
        <ele>272.2</ele>
        <time>2022-03-21T14:39:43Z</time>
      </trkpt>
      <trkpt lat="46.65052" lon="5.53141">
        <ele>272.2</ele>
        <time>2022-03-21T14:39:44Z</time>
      </trkpt>
      <trkpt lat="46.65049" lon="5.53148">
        <ele>272.2</ele>
        <time>2022-03-21T14:39:45Z</time>
      </trkpt>
      <trkpt lat="46.65046" lon="5.53155">
        <ele>272.2</ele>
        <time>2022-03-21T14:39:46Z</time>
      </trkpt>
      <trkpt lat="46.65043" lon="5.53162">
        <ele>272.2</ele>
        <time>2022-03-21T14:39:47Z</time>
      </trkpt>
      <trkpt lat="46.65039" lon="5.53169">
        <ele>272.6</ele>
        <time>2022-03-21T14:39:48Z</time>
      </trkpt>
      <trkpt lat="46.65036" lon="5.53176">
        <ele>272.6</ele>
        <time>2022-03-21T14:39:49Z</time>
      </trkpt>
      <trkpt lat="46.65034" lon="5.53183">
        <ele>272.6</ele>
        <time>2022-03-21T14:39:50Z</time>
      </trkpt>
      <trkpt lat="46.65031" lon="5.5319">
        <ele>272.6</ele>
        <time>2022-03-21T14:39:51Z</time>
      </trkpt>
      <trkpt lat="46.65029" lon="5.53198">
        <ele>272.8</ele>
        <time>2022-03-21T14:39:52Z</time>
      </trkpt>
      <trkpt lat="46.65026" lon="5.53205">
        <ele>272.8</ele>
        <time>2022-03-21T14:39:53Z</time>
      </trkpt>
      <trkpt lat="46.65024" lon="5.53212">
        <ele>272.8</ele>
        <time>2022-03-21T14:39:54Z</time>
      </trkpt>
      <trkpt lat="46.65022" lon="5.53219">
        <ele>273.2</ele>
        <time>2022-03-21T14:39:55Z</time>
      </trkpt>
      <trkpt lat="46.6502" lon="5.53225">
        <ele>273.2</ele>
        <time>2022-03-21T14:39:56Z</time>
      </trkpt>
      <trkpt lat="46.65018" lon="5.53232">
        <ele>273.2</ele>
        <time>2022-03-21T14:39:57Z</time>
      </trkpt>
      <trkpt lat="46.65015" lon="5.53239">
        <ele>273.2</ele>
        <time>2022-03-21T14:39:58Z</time>
      </trkpt>
      <trkpt lat="46.65011" lon="5.53245">
        <ele>273.4</ele>
        <time>2022-03-21T14:39:59Z</time>
      </trkpt>
      <trkpt lat="46.65008" lon="5.53251">
        <ele>273.4</ele>
        <time>2022-03-21T14:40:00Z</time>
      </trkpt>
      <trkpt lat="46.65005" lon="5.53257">
        <ele>273.4</ele>
        <time>2022-03-21T14:40:01Z</time>
      </trkpt>
      <trkpt lat="46.65002" lon="5.53264">
        <ele>273.6</ele>
        <time>2022-03-21T14:40:02Z</time>
      </trkpt>
      <trkpt lat="46.64999" lon="5.5327">
        <ele>273.6</ele>
        <time>2022-03-21T14:40:03Z</time>
      </trkpt>
      <trkpt lat="46.64995" lon="5.53277">
        <ele>273.8</ele>
        <time>2022-03-21T14:40:04Z</time>
      </trkpt>
      <trkpt lat="46.64991" lon="5.53283">
        <ele>273.8</ele>
        <time>2022-03-21T14:40:05Z</time>
      </trkpt>
      <trkpt lat="46.64988" lon="5.53289">
        <ele>274</ele>
        <time>2022-03-21T14:40:06Z</time>
      </trkpt>
      <trkpt lat="46.64985" lon="5.53296">
        <ele>274</ele>
        <time>2022-03-21T14:40:07Z</time>
      </trkpt>
      <trkpt lat="46.64982" lon="5.53303">
        <ele>274</ele>
        <time>2022-03-21T14:40:08Z</time>
      </trkpt>
      <trkpt lat="46.64979" lon="5.53309">
        <ele>274.4</ele>
        <time>2022-03-21T14:40:09Z</time>
      </trkpt>
      <trkpt lat="46.64976" lon="5.53315">
        <ele>274.4</ele>
        <time>2022-03-21T14:40:10Z</time>
      </trkpt>
      <trkpt lat="46.64972" lon="5.53322">
        <ele>274.6</ele>
        <time>2022-03-21T14:40:11Z</time>
      </trkpt>
      <trkpt lat="46.64969" lon="5.53328">
        <ele>274.6</ele>
        <time>2022-03-21T14:40:12Z</time>
      </trkpt>
      <trkpt lat="46.64966" lon="5.53334">
        <ele>274.6</ele>
        <time>2022-03-21T14:40:13Z</time>
      </trkpt>
      <trkpt lat="46.64962" lon="5.53341">
        <ele>275</ele>
        <time>2022-03-21T14:40:14Z</time>
      </trkpt>
      <trkpt lat="46.64959" lon="5.53348">
        <ele>275</ele>
        <time>2022-03-21T14:40:15Z</time>
      </trkpt>
      <trkpt lat="46.64957" lon="5.53354">
        <ele>275</ele>
        <time>2022-03-21T14:40:16Z</time>
      </trkpt>
      <trkpt lat="46.64954" lon="5.53361">
        <ele>275.2</ele>
        <time>2022-03-21T14:40:17Z</time>
      </trkpt>
      <trkpt lat="46.64951" lon="5.53368">
        <ele>275.2</ele>
        <time>2022-03-21T14:40:18Z</time>
      </trkpt>
      <trkpt lat="46.64949" lon="5.53375">
        <ele>275.4</ele>
        <time>2022-03-21T14:40:19Z</time>
      </trkpt>
      <trkpt lat="46.64946" lon="5.53382">
        <ele>275.4</ele>
        <time>2022-03-21T14:40:20Z</time>
      </trkpt>
      <trkpt lat="46.64943" lon="5.53389">
        <ele>275.8</ele>
        <time>2022-03-21T14:40:21Z</time>
      </trkpt>
      <trkpt lat="46.6494" lon="5.53396">
        <ele>275.8</ele>
        <time>2022-03-21T14:40:22Z</time>
      </trkpt>
      <trkpt lat="46.64937" lon="5.53403">
        <ele>276</ele>
        <time>2022-03-21T14:40:23Z</time>
      </trkpt>
      <trkpt lat="46.64934" lon="5.5341">
        <ele>276</ele>
        <time>2022-03-21T14:40:24Z</time>
      </trkpt>
      <trkpt lat="46.64931" lon="5.53417">
        <ele>276</ele>
        <time>2022-03-21T14:40:25Z</time>
      </trkpt>
      <trkpt lat="46.64929" lon="5.53424">
        <ele>276.2</ele>
        <time>2022-03-21T14:40:26Z</time>
      </trkpt>
      <trkpt lat="46.64926" lon="5.53431">
        <ele>276.2</ele>
        <time>2022-03-21T14:40:27Z</time>
      </trkpt>
      <trkpt lat="46.64923" lon="5.53438">
        <ele>276.2</ele>
        <time>2022-03-21T14:40:28Z</time>
      </trkpt>
      <trkpt lat="46.64919" lon="5.53444">
        <ele>276.2</ele>
        <time>2022-03-21T14:40:29Z</time>
      </trkpt>
      <trkpt lat="46.64916" lon="5.53451">
        <ele>276.4</ele>
        <time>2022-03-21T14:40:30Z</time>
      </trkpt>
      <trkpt lat="46.64913" lon="5.53458">
        <ele>276.4</ele>
        <time>2022-03-21T14:40:31Z</time>
      </trkpt>
      <trkpt lat="46.6491" lon="5.53465">
        <ele>276.4</ele>
        <time>2022-03-21T14:40:32Z</time>
      </trkpt>
      <trkpt lat="46.64907" lon="5.53472">
        <ele>276.6</ele>
        <time>2022-03-21T14:40:33Z</time>
      </trkpt>
      <trkpt lat="46.64904" lon="5.53479">
        <ele>276.6</ele>
        <time>2022-03-21T14:40:34Z</time>
      </trkpt>
      <trkpt lat="46.64901" lon="5.53486">
        <ele>276.6</ele>
        <time>2022-03-21T14:40:35Z</time>
      </trkpt>
      <trkpt lat="46.64898" lon="5.53493">
        <ele>276.8</ele>
        <time>2022-03-21T14:40:36Z</time>
      </trkpt>
      <trkpt lat="46.64895" lon="5.535">
        <ele>276.8</ele>
        <time>2022-03-21T14:40:37Z</time>
      </trkpt>
      <trkpt lat="46.64893" lon="5.53507">
        <ele>276.8</ele>
        <time>2022-03-21T14:40:38Z</time>
      </trkpt>
      <trkpt lat="46.6489" lon="5.53514">
        <ele>277.2</ele>
        <time>2022-03-21T14:40:39Z</time>
      </trkpt>
      <trkpt lat="46.64888" lon="5.53521">
        <ele>277.2</ele>
        <time>2022-03-21T14:40:40Z</time>
      </trkpt>
      <trkpt lat="46.64885" lon="5.53528">
        <ele>277.2</ele>
        <time>2022-03-21T14:40:41Z</time>
      </trkpt>
      <trkpt lat="46.64882" lon="5.53535">
        <ele>277.4</ele>
        <time>2022-03-21T14:40:42Z</time>
      </trkpt>
      <trkpt lat="46.64879" lon="5.53542">
        <ele>277.4</ele>
        <time>2022-03-21T14:40:43Z</time>
      </trkpt>
      <trkpt lat="46.64876" lon="5.53549">
        <ele>277.4</ele>
        <time>2022-03-21T14:40:44Z</time>
      </trkpt>
      <trkpt lat="46.64873" lon="5.53556">
        <ele>277.6</ele>
        <time>2022-03-21T14:40:45Z</time>
      </trkpt>
      <trkpt lat="46.64871" lon="5.53563">
        <ele>277.6</ele>
        <time>2022-03-21T14:40:46Z</time>
      </trkpt>
      <trkpt lat="46.64868" lon="5.5357">
        <ele>277.8</ele>
        <time>2022-03-21T14:40:47Z</time>
      </trkpt>
      <trkpt lat="46.64865" lon="5.53577">
        <ele>277.8</ele>
        <time>2022-03-21T14:40:48Z</time>
      </trkpt>
      <trkpt lat="46.64863" lon="5.53583">
        <ele>277.8</ele>
        <time>2022-03-21T14:40:49Z</time>
      </trkpt>
      <trkpt lat="46.6486" lon="5.5359">
        <ele>277.8</ele>
        <time>2022-03-21T14:40:50Z</time>
      </trkpt>
      <trkpt lat="46.64858" lon="5.53597">
        <ele>277.8</ele>
        <time>2022-03-21T14:40:51Z</time>
      </trkpt>
      <trkpt lat="46.64856" lon="5.53603">
        <ele>278.2</ele>
        <time>2022-03-21T14:40:52Z</time>
      </trkpt>
      <trkpt lat="46.64853" lon="5.5361">
        <ele>278.2</ele>
        <time>2022-03-21T14:40:53Z</time>
      </trkpt>
      <trkpt lat="46.6485" lon="5.53617">
        <ele>278.2</ele>
        <time>2022-03-21T14:40:54Z</time>
      </trkpt>
      <trkpt lat="46.64848" lon="5.53624">
        <ele>278.4</ele>
        <time>2022-03-21T14:40:55Z</time>
      </trkpt>
      <trkpt lat="46.64845" lon="5.53631">
        <ele>278.4</ele>
        <time>2022-03-21T14:40:56Z</time>
      </trkpt>
      <trkpt lat="46.64842" lon="5.53637">
        <ele>278.4</ele>
        <time>2022-03-21T14:40:57Z</time>
      </trkpt>
      <trkpt lat="46.6484" lon="5.53644">
        <ele>278.6</ele>
        <time>2022-03-21T14:40:58Z</time>
      </trkpt>
      <trkpt lat="46.64837" lon="5.53651">
        <ele>278.6</ele>
        <time>2022-03-21T14:40:59Z</time>
      </trkpt>
      <trkpt lat="46.64834" lon="5.53658">
        <ele>278.6</ele>
        <time>2022-03-21T14:41:00Z</time>
      </trkpt>
      <trkpt lat="46.64832" lon="5.53665">
        <ele>279</ele>
        <time>2022-03-21T14:41:01Z</time>
      </trkpt>
      <trkpt lat="46.64829" lon="5.53672">
        <ele>279</ele>
        <time>2022-03-21T14:41:02Z</time>
      </trkpt>
      <trkpt lat="46.64827" lon="5.53679">
        <ele>279</ele>
        <time>2022-03-21T14:41:03Z</time>
      </trkpt>
      <trkpt lat="46.64824" lon="5.53686">
        <ele>279</ele>
        <time>2022-03-21T14:41:04Z</time>
      </trkpt>
      <trkpt lat="46.64822" lon="5.53693">
        <ele>279.4</ele>
        <time>2022-03-21T14:41:05Z</time>
      </trkpt>
      <trkpt lat="46.6482" lon="5.537">
        <ele>279.4</ele>
        <time>2022-03-21T14:41:06Z</time>
      </trkpt>
      <trkpt lat="46.64817" lon="5.53707">
        <ele>279.4</ele>
        <time>2022-03-21T14:41:07Z</time>
      </trkpt>
      <trkpt lat="46.64815" lon="5.53714">
        <ele>279.4</ele>
        <time>2022-03-21T14:41:08Z</time>
      </trkpt>
      <trkpt lat="46.64812" lon="5.53721">
        <ele>279.6</ele>
        <time>2022-03-21T14:41:09Z</time>
      </trkpt>
      <trkpt lat="46.6481" lon="5.53728">
        <ele>279.6</ele>
        <time>2022-03-21T14:41:10Z</time>
      </trkpt>
      <trkpt lat="46.64808" lon="5.53735">
        <ele>279.6</ele>
        <time>2022-03-21T14:41:11Z</time>
      </trkpt>
      <trkpt lat="46.64805" lon="5.53742">
        <ele>279.6</ele>
        <time>2022-03-21T14:41:12Z</time>
      </trkpt>
      <trkpt lat="46.64803" lon="5.53749">
        <ele>279.8</ele>
        <time>2022-03-21T14:41:13Z</time>
      </trkpt>
      <trkpt lat="46.648" lon="5.53756">
        <ele>279.8</ele>
        <time>2022-03-21T14:41:14Z</time>
      </trkpt>
      <trkpt lat="46.64797" lon="5.53763">
        <ele>279.8</ele>
        <time>2022-03-21T14:41:15Z</time>
      </trkpt>
      <trkpt lat="46.64795" lon="5.53771">
        <ele>280</ele>
        <time>2022-03-21T14:41:16Z</time>
      </trkpt>
      <trkpt lat="46.64792" lon="5.53778">
        <ele>280</ele>
        <time>2022-03-21T14:41:17Z</time>
      </trkpt>
      <trkpt lat="46.64789" lon="5.53785">
        <ele>280</ele>
        <time>2022-03-21T14:41:18Z</time>
      </trkpt>
      <trkpt lat="46.64786" lon="5.53792">
        <ele>280</ele>
        <time>2022-03-21T14:41:19Z</time>
      </trkpt>
      <trkpt lat="46.64783" lon="5.53799">
        <ele>280</ele>
        <time>2022-03-21T14:41:20Z</time>
      </trkpt>
      <trkpt lat="46.6478" lon="5.53806">
        <ele>280</ele>
        <time>2022-03-21T14:41:21Z</time>
      </trkpt>
      <trkpt lat="46.64774" lon="5.5382">
        <ele>280</ele>
        <time>2022-03-21T14:41:22Z</time>
      </trkpt>
      <trkpt lat="46.64771" lon="5.53826">
        <ele>280.2</ele>
        <time>2022-03-21T14:41:23Z</time>
      </trkpt>
      <trkpt lat="46.64767" lon="5.53833">
        <ele>280.2</ele>
        <time>2022-03-21T14:41:24Z</time>
      </trkpt>
      <trkpt lat="46.64763" lon="5.53839">
        <ele>280.2</ele>
        <time>2022-03-21T14:41:25Z</time>
      </trkpt>
      <trkpt lat="46.64759" lon="5.53844">
        <ele>280.2</ele>
        <time>2022-03-21T14:41:26Z</time>
      </trkpt>
      <trkpt lat="46.64755" lon="5.5385">
        <ele>280.4</ele>
        <time>2022-03-21T14:41:27Z</time>
      </trkpt>
      <trkpt lat="46.64751" lon="5.53855">
        <ele>280.4</ele>
        <time>2022-03-21T14:41:28Z</time>
      </trkpt>
      <trkpt lat="46.64746" lon="5.53859">
        <ele>280.4</ele>
        <time>2022-03-21T14:41:29Z</time>
      </trkpt>
      <trkpt lat="46.64741" lon="5.53863">
        <ele>280.4</ele>
        <time>2022-03-21T14:41:30Z</time>
      </trkpt>
      <trkpt lat="46.64736" lon="5.53867">
        <ele>280.6</ele>
        <time>2022-03-21T14:41:31Z</time>
      </trkpt>
      <trkpt lat="46.64731" lon="5.5387">
        <ele>280.6</ele>
        <time>2022-03-21T14:41:32Z</time>
      </trkpt>
      <trkpt lat="46.64726" lon="5.53872">
        <ele>280.6</ele>
        <time>2022-03-21T14:41:33Z</time>
      </trkpt>
      <trkpt lat="46.64721" lon="5.53875">
        <ele>280.6</ele>
        <time>2022-03-21T14:41:34Z</time>
      </trkpt>
      <trkpt lat="46.64716" lon="5.53877">
        <ele>281</ele>
        <time>2022-03-21T14:41:35Z</time>
      </trkpt>
      <trkpt lat="46.64711" lon="5.53879">
        <ele>281</ele>
        <time>2022-03-21T14:41:36Z</time>
      </trkpt>
      <trkpt lat="46.64706" lon="5.53881">
        <ele>281</ele>
        <time>2022-03-21T14:41:37Z</time>
      </trkpt>
      <trkpt lat="46.64701" lon="5.53882">
        <ele>281.2</ele>
        <time>2022-03-21T14:41:38Z</time>
      </trkpt>
      <trkpt lat="46.64696" lon="5.53883">
        <ele>281.2</ele>
        <time>2022-03-21T14:41:39Z</time>
      </trkpt>
      <trkpt lat="46.64691" lon="5.53883">
        <ele>281.4</ele>
        <time>2022-03-21T14:41:40Z</time>
      </trkpt>
      <trkpt lat="46.64687" lon="5.53884">
        <ele>281.4</ele>
        <time>2022-03-21T14:41:41Z</time>
      </trkpt>
      <trkpt lat="46.64682" lon="5.53884">
        <ele>281.6</ele>
        <time>2022-03-21T14:41:42Z</time>
      </trkpt>
      <trkpt lat="46.64678" lon="5.53885">
        <ele>281.6</ele>
        <time>2022-03-21T14:41:43Z</time>
      </trkpt>
      <trkpt lat="46.64674" lon="5.53886">
        <ele>282</ele>
        <time>2022-03-21T14:41:44Z</time>
      </trkpt>
      <trkpt lat="46.6467" lon="5.53888">
        <ele>282</ele>
        <time>2022-03-21T14:41:45Z</time>
      </trkpt>
      <trkpt lat="46.64666" lon="5.53891">
        <ele>282.2</ele>
        <time>2022-03-21T14:41:46Z</time>
      </trkpt>
      <trkpt lat="46.64663" lon="5.53894">
        <ele>282.2</ele>
        <time>2022-03-21T14:41:47Z</time>
      </trkpt>
      <trkpt lat="46.64659" lon="5.53897">
        <ele>282.2</ele>
        <time>2022-03-21T14:41:48Z</time>
      </trkpt>
      <trkpt lat="46.64655" lon="5.539">
        <ele>282.2</ele>
        <time>2022-03-21T14:41:49Z</time>
      </trkpt>
      <trkpt lat="46.6465" lon="5.53902">
        <ele>282.4</ele>
        <time>2022-03-21T14:41:50Z</time>
      </trkpt>
      <trkpt lat="46.64645" lon="5.53903">
        <ele>282.4</ele>
        <time>2022-03-21T14:41:51Z</time>
      </trkpt>
      <trkpt lat="46.64641" lon="5.53905">
        <ele>282.4</ele>
        <time>2022-03-21T14:41:52Z</time>
      </trkpt>
      <trkpt lat="46.64636" lon="5.53907">
        <ele>282.8</ele>
        <time>2022-03-21T14:41:53Z</time>
      </trkpt>
      <trkpt lat="46.64632" lon="5.5391">
        <ele>282.8</ele>
        <time>2022-03-21T14:41:54Z</time>
      </trkpt>
      <trkpt lat="46.64627" lon="5.53913">
        <ele>282.8</ele>
        <time>2022-03-21T14:41:55Z</time>
      </trkpt>
      <trkpt lat="46.64623" lon="5.53916">
        <ele>282.8</ele>
        <time>2022-03-21T14:41:56Z</time>
      </trkpt>
      <trkpt lat="46.64618" lon="5.53919">
        <ele>282.8</ele>
        <time>2022-03-21T14:41:57Z</time>
      </trkpt>
      <trkpt lat="46.64614" lon="5.53921">
        <ele>283</ele>
        <time>2022-03-21T14:41:58Z</time>
      </trkpt>
      <trkpt lat="46.64609" lon="5.53925">
        <ele>283</ele>
        <time>2022-03-21T14:41:59Z</time>
      </trkpt>
      <trkpt lat="46.64604" lon="5.53928">
        <ele>283</ele>
        <time>2022-03-21T14:42:00Z</time>
      </trkpt>
      <trkpt lat="46.646" lon="5.5393">
        <ele>283</ele>
        <time>2022-03-21T14:42:01Z</time>
      </trkpt>
      <trkpt lat="46.64595" lon="5.53933">
        <ele>283</ele>
        <time>2022-03-21T14:42:02Z</time>
      </trkpt>
      <trkpt lat="46.6459" lon="5.53936">
        <ele>283.4</ele>
        <time>2022-03-21T14:42:03Z</time>
      </trkpt>
      <trkpt lat="46.64586" lon="5.5394">
        <ele>283.4</ele>
        <time>2022-03-21T14:42:04Z</time>
      </trkpt>
      <trkpt lat="46.64581" lon="5.53943">
        <ele>283.4</ele>
        <time>2022-03-21T14:42:05Z</time>
      </trkpt>
      <trkpt lat="46.64577" lon="5.53946">
        <ele>283.6</ele>
        <time>2022-03-21T14:42:06Z</time>
      </trkpt>
      <trkpt lat="46.64572" lon="5.53949">
        <ele>283.6</ele>
        <time>2022-03-21T14:42:07Z</time>
      </trkpt>
      <trkpt lat="46.64568" lon="5.53953">
        <ele>283.6</ele>
        <time>2022-03-21T14:42:08Z</time>
      </trkpt>
      <trkpt lat="46.64563" lon="5.53956">
        <ele>283.6</ele>
        <time>2022-03-21T14:42:09Z</time>
      </trkpt>
      <trkpt lat="46.64558" lon="5.5396">
        <ele>283.8</ele>
        <time>2022-03-21T14:42:10Z</time>
      </trkpt>
      <trkpt lat="46.64554" lon="5.53963">
        <ele>283.8</ele>
        <time>2022-03-21T14:42:11Z</time>
      </trkpt>
      <trkpt lat="46.64549" lon="5.53967">
        <ele>283.8</ele>
        <time>2022-03-21T14:42:12Z</time>
      </trkpt>
      <trkpt lat="46.64545" lon="5.53971">
        <ele>284</ele>
        <time>2022-03-21T14:42:13Z</time>
      </trkpt>
      <trkpt lat="46.6454" lon="5.53975">
        <ele>284</ele>
        <time>2022-03-21T14:42:14Z</time>
      </trkpt>
      <trkpt lat="46.64535" lon="5.53979">
        <ele>284</ele>
        <time>2022-03-21T14:42:15Z</time>
      </trkpt>
      <trkpt lat="46.64531" lon="5.53982">
        <ele>284</ele>
        <time>2022-03-21T14:42:16Z</time>
      </trkpt>
      <trkpt lat="46.64526" lon="5.53985">
        <ele>284</ele>
        <time>2022-03-21T14:42:17Z</time>
      </trkpt>
      <trkpt lat="46.6452" lon="5.53988">
        <ele>284</ele>
        <time>2022-03-21T14:42:18Z</time>
      </trkpt>
      <trkpt lat="46.64515" lon="5.53991">
        <ele>284.2</ele>
        <time>2022-03-21T14:42:19Z</time>
      </trkpt>
      <trkpt lat="46.6451" lon="5.53993">
        <ele>284.2</ele>
        <time>2022-03-21T14:42:20Z</time>
      </trkpt>
      <trkpt lat="46.64505" lon="5.53995">
        <ele>284.2</ele>
        <time>2022-03-21T14:42:21Z</time>
      </trkpt>
      <trkpt lat="46.645" lon="5.53996">
        <ele>284.4</ele>
        <time>2022-03-21T14:42:22Z</time>
      </trkpt>
      <trkpt lat="46.64494" lon="5.53996">
        <ele>284.4</ele>
        <time>2022-03-21T14:42:23Z</time>
      </trkpt>
      <trkpt lat="46.64489" lon="5.53996">
        <ele>284.4</ele>
        <time>2022-03-21T14:42:24Z</time>
      </trkpt>
      <trkpt lat="46.64484" lon="5.53997">
        <ele>284.4</ele>
        <time>2022-03-21T14:42:25Z</time>
      </trkpt>
      <trkpt lat="46.64478" lon="5.53997">
        <ele>284.8</ele>
        <time>2022-03-21T14:42:26Z</time>
      </trkpt>
      <trkpt lat="46.64473" lon="5.53998">
        <ele>284.8</ele>
        <time>2022-03-21T14:42:27Z</time>
      </trkpt>
      <trkpt lat="46.64468" lon="5.53999">
        <ele>285</ele>
        <time>2022-03-21T14:42:28Z</time>
      </trkpt>
      <trkpt lat="46.64464" lon="5.54">
        <ele>285.4</ele>
        <time>2022-03-21T14:42:29Z</time>
      </trkpt>
      <trkpt lat="46.64459" lon="5.54001">
        <ele>285.4</ele>
        <time>2022-03-21T14:42:30Z</time>
      </trkpt>
      <trkpt lat="46.64455" lon="5.54004">
        <ele>285.6</ele>
        <time>2022-03-21T14:42:31Z</time>
      </trkpt>
      <trkpt lat="46.64451" lon="5.54007">
        <ele>285.6</ele>
        <time>2022-03-21T14:42:32Z</time>
      </trkpt>
      <trkpt lat="46.64447" lon="5.5401">
        <ele>285.8</ele>
        <time>2022-03-21T14:42:33Z</time>
      </trkpt>
      <trkpt lat="46.64444" lon="5.54013">
        <ele>285.8</ele>
        <time>2022-03-21T14:42:34Z</time>
      </trkpt>
      <trkpt lat="46.6444" lon="5.54017">
        <ele>286</ele>
        <time>2022-03-21T14:42:35Z</time>
      </trkpt>
      <trkpt lat="46.64438" lon="5.5402">
        <ele>286</ele>
        <time>2022-03-21T14:42:36Z</time>
      </trkpt>
      <trkpt lat="46.64435" lon="5.54024">
        <ele>286.4</ele>
        <time>2022-03-21T14:42:37Z</time>
      </trkpt>
      <trkpt lat="46.64432" lon="5.54027">
        <ele>286.4</ele>
        <time>2022-03-21T14:42:38Z</time>
      </trkpt>
      <trkpt lat="46.6443" lon="5.54028">
        <ele>286.8</ele>
        <time>2022-03-21T14:42:39Z</time>
      </trkpt>
      <trkpt lat="46.64428" lon="5.54029">
        <ele>286.8</ele>
        <time>2022-03-21T14:42:40Z</time>
      </trkpt>
      <trkpt lat="46.64425" lon="5.54029">
        <ele>287.2</ele>
        <time>2022-03-21T14:42:41Z</time>
      </trkpt>
      <trkpt lat="46.64423" lon="5.54028">
        <ele>287.4</ele>
        <time>2022-03-21T14:42:42Z</time>
      </trkpt>
      <trkpt lat="46.64421" lon="5.54025">
        <ele>287.6</ele>
        <time>2022-03-21T14:42:43Z</time>
      </trkpt>
      <trkpt lat="46.6442" lon="5.54022">
        <ele>287.8</ele>
        <time>2022-03-21T14:42:44Z</time>
      </trkpt>
      <trkpt lat="46.64418" lon="5.54019">
        <ele>288.2</ele>
        <time>2022-03-21T14:42:45Z</time>
      </trkpt>
      <trkpt lat="46.64417" lon="5.54015">
        <ele>288.4</ele>
        <time>2022-03-21T14:42:46Z</time>
      </trkpt>
      <trkpt lat="46.64416" lon="5.54011">
        <ele>288.6</ele>
        <time>2022-03-21T14:42:47Z</time>
      </trkpt>
      <trkpt lat="46.64415" lon="5.54007">
        <ele>288.6</ele>
        <time>2022-03-21T14:42:48Z</time>
      </trkpt>
      <trkpt lat="46.64414" lon="5.54004">
        <ele>289</ele>
        <time>2022-03-21T14:42:49Z</time>
      </trkpt>
      <trkpt lat="46.64413" lon="5.54">
        <ele>289</ele>
        <time>2022-03-21T14:42:50Z</time>
      </trkpt>
      <trkpt lat="46.64412" lon="5.53996">
        <ele>289.2</ele>
        <time>2022-03-21T14:42:51Z</time>
      </trkpt>
      <trkpt lat="46.6441" lon="5.53991">
        <ele>289.2</ele>
        <time>2022-03-21T14:42:52Z</time>
      </trkpt>
      <trkpt lat="46.64409" lon="5.53987">
        <ele>289.6</ele>
        <time>2022-03-21T14:42:53Z</time>
      </trkpt>
      <trkpt lat="46.64408" lon="5.53983">
        <ele>289.8</ele>
        <time>2022-03-21T14:42:54Z</time>
      </trkpt>
      <trkpt lat="46.64406" lon="5.53979">
        <ele>289.8</ele>
        <time>2022-03-21T14:42:55Z</time>
      </trkpt>
      <trkpt lat="46.64404" lon="5.53976">
        <ele>290.2</ele>
        <time>2022-03-21T14:42:56Z</time>
      </trkpt>
      <trkpt lat="46.64401" lon="5.53974">
        <ele>290.2</ele>
        <time>2022-03-21T14:42:57Z</time>
      </trkpt>
      <trkpt lat="46.64397" lon="5.53972">
        <ele>290.6</ele>
        <time>2022-03-21T14:42:58Z</time>
      </trkpt>
      <trkpt lat="46.64394" lon="5.53971">
        <ele>290.8</ele>
        <time>2022-03-21T14:42:59Z</time>
      </trkpt>
      <trkpt lat="46.64391" lon="5.53969">
        <ele>291.2</ele>
        <time>2022-03-21T14:43:00Z</time>
      </trkpt>
      <trkpt lat="46.64388" lon="5.53968">
        <ele>291.4</ele>
        <time>2022-03-21T14:43:01Z</time>
      </trkpt>
      <trkpt lat="46.64385" lon="5.53967">
        <ele>291.6</ele>
        <time>2022-03-21T14:43:02Z</time>
      </trkpt>
      <trkpt lat="46.64382" lon="5.53966">
        <ele>291.6</ele>
        <time>2022-03-21T14:43:03Z</time>
      </trkpt>
      <trkpt lat="46.64379" lon="5.53965">
        <ele>292</ele>
        <time>2022-03-21T14:43:04Z</time>
      </trkpt>
      <trkpt lat="46.64376" lon="5.53965">
        <ele>292.2</ele>
        <time>2022-03-21T14:43:05Z</time>
      </trkpt>
      <trkpt lat="46.64373" lon="5.53964">
        <ele>292.4</ele>
        <time>2022-03-21T14:43:06Z</time>
      </trkpt>
      <trkpt lat="46.6437" lon="5.53964">
        <ele>292.4</ele>
        <time>2022-03-21T14:43:07Z</time>
      </trkpt>
      <trkpt lat="46.64367" lon="5.53964">
        <ele>292.8</ele>
        <time>2022-03-21T14:43:08Z</time>
      </trkpt>
      <trkpt lat="46.64364" lon="5.53963">
        <ele>292.8</ele>
        <time>2022-03-21T14:43:09Z</time>
      </trkpt>
      <trkpt lat="46.64361" lon="5.53963">
        <ele>293.2</ele>
        <time>2022-03-21T14:43:10Z</time>
      </trkpt>
      <trkpt lat="46.64358" lon="5.53963">
        <ele>293.4</ele>
        <time>2022-03-21T14:43:11Z</time>
      </trkpt>
      <trkpt lat="46.64355" lon="5.53963">
        <ele>293.4</ele>
        <time>2022-03-21T14:43:12Z</time>
      </trkpt>
      <trkpt lat="46.64352" lon="5.53962">
        <ele>293.6</ele>
        <time>2022-03-21T14:43:13Z</time>
      </trkpt>
      <trkpt lat="46.64349" lon="5.53962">
        <ele>293.6</ele>
        <time>2022-03-21T14:43:14Z</time>
      </trkpt>
      <trkpt lat="46.64346" lon="5.53962">
        <ele>294</ele>
        <time>2022-03-21T14:43:15Z</time>
      </trkpt>
      <trkpt lat="46.64344" lon="5.53962">
        <ele>294.2</ele>
        <time>2022-03-21T14:43:16Z</time>
      </trkpt>
      <trkpt lat="46.64341" lon="5.53962">
        <ele>294.4</ele>
        <time>2022-03-21T14:43:17Z</time>
      </trkpt>
      <trkpt lat="46.64338" lon="5.53962">
        <ele>294.4</ele>
        <time>2022-03-21T14:43:18Z</time>
      </trkpt>
      <trkpt lat="46.64335" lon="5.53963">
        <ele>294.8</ele>
        <time>2022-03-21T14:43:19Z</time>
      </trkpt>
      <trkpt lat="46.64332" lon="5.53963">
        <ele>294.8</ele>
        <time>2022-03-21T14:43:20Z</time>
      </trkpt>
      <trkpt lat="46.64329" lon="5.53963">
        <ele>295</ele>
        <time>2022-03-21T14:43:21Z</time>
      </trkpt>
      <trkpt lat="46.64326" lon="5.53963">
        <ele>295.2</ele>
        <time>2022-03-21T14:43:22Z</time>
      </trkpt>
      <trkpt lat="46.64323" lon="5.53963">
        <ele>295.2</ele>
        <time>2022-03-21T14:43:23Z</time>
      </trkpt>
      <trkpt lat="46.6432" lon="5.53963">
        <ele>295.6</ele>
        <time>2022-03-21T14:43:24Z</time>
      </trkpt>
      <trkpt lat="46.64317" lon="5.53963">
        <ele>295.6</ele>
        <time>2022-03-21T14:43:25Z</time>
      </trkpt>
      <trkpt lat="46.64314" lon="5.53964">
        <ele>296</ele>
        <time>2022-03-21T14:43:26Z</time>
      </trkpt>
      <trkpt lat="46.64311" lon="5.53964">
        <ele>296</ele>
        <time>2022-03-21T14:43:27Z</time>
      </trkpt>
      <trkpt lat="46.64308" lon="5.53964">
        <ele>296.4</ele>
        <time>2022-03-21T14:43:28Z</time>
      </trkpt>
      <trkpt lat="46.64305" lon="5.53965">
        <ele>296.6</ele>
        <time>2022-03-21T14:43:29Z</time>
      </trkpt>
      <trkpt lat="46.64302" lon="5.53965">
        <ele>297</ele>
        <time>2022-03-21T14:43:31Z</time>
      </trkpt>
      <trkpt lat="46.64299" lon="5.53965">
        <ele>297</ele>
        <time>2022-03-21T14:43:32Z</time>
      </trkpt>
      <trkpt lat="46.64296" lon="5.53965">
        <ele>297.4</ele>
        <time>2022-03-21T14:43:33Z</time>
      </trkpt>
      <trkpt lat="46.64293" lon="5.53965">
        <ele>297.6</ele>
        <time>2022-03-21T14:43:34Z</time>
      </trkpt>
      <trkpt lat="46.6429" lon="5.53965">
        <ele>297.6</ele>
        <time>2022-03-21T14:43:35Z</time>
      </trkpt>
      <trkpt lat="46.64287" lon="5.53966">
        <ele>298</ele>
        <time>2022-03-21T14:43:36Z</time>
      </trkpt>
      <trkpt lat="46.64284" lon="5.53966">
        <ele>298</ele>
        <time>2022-03-21T14:43:37Z</time>
      </trkpt>
      <trkpt lat="46.64281" lon="5.53966">
        <ele>298.4</ele>
        <time>2022-03-21T14:43:38Z</time>
      </trkpt>
      <trkpt lat="46.64279" lon="5.53966">
        <ele>298.4</ele>
        <time>2022-03-21T14:43:39Z</time>
      </trkpt>
      <trkpt lat="46.64276" lon="5.53965">
        <ele>298.6</ele>
        <time>2022-03-21T14:43:40Z</time>
      </trkpt>
      <trkpt lat="46.64273" lon="5.53965">
        <ele>299</ele>
        <time>2022-03-21T14:43:41Z</time>
      </trkpt>
      <trkpt lat="46.6427" lon="5.53965">
        <ele>299.2</ele>
        <time>2022-03-21T14:43:42Z</time>
      </trkpt>
      <trkpt lat="46.64268" lon="5.53965">
        <ele>299.4</ele>
        <time>2022-03-21T14:43:43Z</time>
      </trkpt>
      <trkpt lat="46.64265" lon="5.53965">
        <ele>299.6</ele>
        <time>2022-03-21T14:43:44Z</time>
      </trkpt>
      <trkpt lat="46.64262" lon="5.53964">
        <ele>299.6</ele>
        <time>2022-03-21T14:43:45Z</time>
      </trkpt>
      <trkpt lat="46.6426" lon="5.53964">
        <ele>300</ele>
        <time>2022-03-21T14:43:46Z</time>
      </trkpt>
      <trkpt lat="46.64257" lon="5.53963">
        <ele>300.2</ele>
        <time>2022-03-21T14:43:47Z</time>
      </trkpt>
      <trkpt lat="46.64255" lon="5.53963">
        <ele>300.2</ele>
        <time>2022-03-21T14:43:48Z</time>
      </trkpt>
      <trkpt lat="46.64252" lon="5.53963">
        <ele>300.4</ele>
        <time>2022-03-21T14:43:49Z</time>
      </trkpt>
      <trkpt lat="46.64249" lon="5.53963">
        <ele>300.4</ele>
        <time>2022-03-21T14:43:50Z</time>
      </trkpt>
      <trkpt lat="46.64247" lon="5.53963">
        <ele>300.8</ele>
        <time>2022-03-21T14:43:51Z</time>
      </trkpt>
      <trkpt lat="46.64244" lon="5.53963">
        <ele>301</ele>
        <time>2022-03-21T14:43:52Z</time>
      </trkpt>
      <trkpt lat="46.64242" lon="5.53962">
        <ele>301</ele>
        <time>2022-03-21T14:43:53Z</time>
      </trkpt>
      <trkpt lat="46.64239" lon="5.53962">
        <ele>301.4</ele>
        <time>2022-03-21T14:43:54Z</time>
      </trkpt>
      <trkpt lat="46.64236" lon="5.53962">
        <ele>301.8</ele>
        <time>2022-03-21T14:43:55Z</time>
      </trkpt>
      <trkpt lat="46.64234" lon="5.53962">
        <ele>301.8</ele>
        <time>2022-03-21T14:43:56Z</time>
      </trkpt>
      <trkpt lat="46.64231" lon="5.53962">
        <ele>302.2</ele>
        <time>2022-03-21T14:43:57Z</time>
      </trkpt>
      <trkpt lat="46.64229" lon="5.53962">
        <ele>302.2</ele>
        <time>2022-03-21T14:43:58Z</time>
      </trkpt>
      <trkpt lat="46.64226" lon="5.53962">
        <ele>302.4</ele>
        <time>2022-03-21T14:43:59Z</time>
      </trkpt>
      <trkpt lat="46.64224" lon="5.53962">
        <ele>302.4</ele>
        <time>2022-03-21T14:44:00Z</time>
      </trkpt>
      <trkpt lat="46.64221" lon="5.53962">
        <ele>302.8</ele>
        <time>2022-03-21T14:44:01Z</time>
      </trkpt>
      <trkpt lat="46.64218" lon="5.53963">
        <ele>303</ele>
        <time>2022-03-21T14:44:02Z</time>
      </trkpt>
      <trkpt lat="46.64216" lon="5.53963">
        <ele>303.2</ele>
        <time>2022-03-21T14:44:03Z</time>
      </trkpt>
      <trkpt lat="46.64213" lon="5.53964">
        <ele>303.4</ele>
        <time>2022-03-21T14:44:04Z</time>
      </trkpt>
      <trkpt lat="46.64211" lon="5.53964">
        <ele>303.8</ele>
        <time>2022-03-21T14:44:05Z</time>
      </trkpt>
      <trkpt lat="46.64208" lon="5.53965">
        <ele>303.8</ele>
        <time>2022-03-21T14:44:06Z</time>
      </trkpt>
      <trkpt lat="46.64205" lon="5.53965">
        <ele>304.2</ele>
        <time>2022-03-21T14:44:07Z</time>
      </trkpt>
      <trkpt lat="46.64203" lon="5.53966">
        <ele>304.2</ele>
        <time>2022-03-21T14:44:08Z</time>
      </trkpt>
      <trkpt lat="46.642" lon="5.53967">
        <ele>304.6</ele>
        <time>2022-03-21T14:44:09Z</time>
      </trkpt>
      <trkpt lat="46.64198" lon="5.53968">
        <ele>304.6</ele>
        <time>2022-03-21T14:44:10Z</time>
      </trkpt>
      <trkpt lat="46.64195" lon="5.5397">
        <ele>305</ele>
        <time>2022-03-21T14:44:11Z</time>
      </trkpt>
      <trkpt lat="46.64192" lon="5.53971">
        <ele>305.2</ele>
        <time>2022-03-21T14:44:12Z</time>
      </trkpt>
      <trkpt lat="46.6419" lon="5.53972">
        <ele>305.2</ele>
        <time>2022-03-21T14:44:13Z</time>
      </trkpt>
      <trkpt lat="46.64187" lon="5.53974">
        <ele>305.4</ele>
        <time>2022-03-21T14:44:14Z</time>
      </trkpt>
      <trkpt lat="46.64185" lon="5.53975">
        <ele>305.4</ele>
        <time>2022-03-21T14:44:15Z</time>
      </trkpt>
      <trkpt lat="46.64183" lon="5.53976">
        <ele>305.8</ele>
        <time>2022-03-21T14:44:16Z</time>
      </trkpt>
      <trkpt lat="46.64181" lon="5.53978">
        <ele>305.8</ele>
        <time>2022-03-21T14:44:17Z</time>
      </trkpt>
      <trkpt lat="46.64179" lon="5.53979">
        <ele>306</ele>
        <time>2022-03-21T14:44:18Z</time>
      </trkpt>
      <trkpt lat="46.64176" lon="5.5398">
        <ele>306</ele>
        <time>2022-03-21T14:44:19Z</time>
      </trkpt>
      <trkpt lat="46.64174" lon="5.53982">
        <ele>306.4</ele>
        <time>2022-03-21T14:44:20Z</time>
      </trkpt>
      <trkpt lat="46.64172" lon="5.53983">
        <ele>306.4</ele>
        <time>2022-03-21T14:44:21Z</time>
      </trkpt>
      <trkpt lat="46.6417" lon="5.53984">
        <ele>306.6</ele>
        <time>2022-03-21T14:44:22Z</time>
      </trkpt>
      <trkpt lat="46.6417" lon="5.53984">
        <ele>306.6</ele>
        <time>2022-03-21T14:44:23Z</time>
      </trkpt>
      <trkpt lat="46.64169" lon="5.53984">
        <ele>306.6</ele>
        <time>2022-03-21T14:44:24Z</time>
      </trkpt>
      <trkpt lat="46.64169" lon="5.53984">
        <ele>307</ele>
        <time>2022-03-21T14:44:25Z</time>
      </trkpt>
      <trkpt lat="46.64169" lon="5.53984">
        <ele>307</ele>
        <time>2022-03-21T14:44:26Z</time>
      </trkpt>
      <trkpt lat="46.64169" lon="5.53984">
        <ele>307</ele>
        <time>2022-03-21T14:44:28Z</time>
      </trkpt>
      <trkpt lat="46.64169" lon="5.53985">
        <ele>307</ele>
        <time>2022-03-21T14:44:29Z</time>
      </trkpt>
      <trkpt lat="46.64169" lon="5.53985">
        <ele>307</ele>
        <time>2022-03-21T14:44:30Z</time>
      </trkpt>
      <trkpt lat="46.64168" lon="5.53985">
        <ele>307</ele>
        <time>2022-03-21T14:44:32Z</time>
      </trkpt>
      <trkpt lat="46.64168" lon="5.53985">
        <ele>307</ele>
        <time>2022-03-21T14:44:33Z</time>
      </trkpt>
      <trkpt lat="46.64168" lon="5.53985">
        <ele>307</ele>
        <time>2022-03-21T14:44:34Z</time>
      </trkpt>
      <trkpt lat="46.64168" lon="5.53985">
        <ele>307</ele>
        <time>2022-03-21T14:44:37Z</time>
      </trkpt>
      <trkpt lat="46.64168" lon="5.53986">
        <ele>307.2</ele>
        <time>2022-03-21T14:44:38Z</time>
      </trkpt>
      <trkpt lat="46.64167" lon="5.53986">
        <ele>307.2</ele>
        <time>2022-03-21T14:44:39Z</time>
      </trkpt>
      <trkpt lat="46.64167" lon="5.53986">
        <ele>307.2</ele>
        <time>2022-03-21T14:44:40Z</time>
      </trkpt>
      <trkpt lat="46.64167" lon="5.53986">
        <ele>307.2</ele>
        <time>2022-03-21T14:44:41Z</time>
      </trkpt>
      <trkpt lat="46.64167" lon="5.53986">
        <ele>307.2</ele>
        <time>2022-03-21T14:44:42Z</time>
      </trkpt>
      <trkpt lat="46.64167" lon="5.53986">
        <ele>307</ele>
        <time>2022-03-21T14:46:21Z</time>
      </trkpt>
      <trkpt lat="46.64167" lon="5.53987">
        <ele>307</ele>
        <time>2022-03-21T14:46:22Z</time>
      </trkpt>
      <trkpt lat="46.64166" lon="5.53987">
        <ele>307</ele>
        <time>2022-03-21T14:46:23Z</time>
      </trkpt>
      <trkpt lat="46.64166" lon="5.53987">
        <ele>307</ele>
        <time>2022-03-21T14:46:24Z</time>
      </trkpt>
      <trkpt lat="46.64166" lon="5.53987">
        <ele>307</ele>
        <time>2022-03-21T14:46:25Z</time>
      </trkpt>
      <trkpt lat="46.64166" lon="5.53987">
        <ele>307.2</ele>
        <time>2022-03-21T14:46:26Z</time>
      </trkpt>
      <trkpt lat="46.64166" lon="5.53987">
        <ele>307.2</ele>
        <time>2022-03-21T14:46:27Z</time>
      </trkpt>
      <trkpt lat="46.64166" lon="5.53988">
        <ele>307.2</ele>
        <time>2022-03-21T14:46:28Z</time>
      </trkpt>
      <trkpt lat="46.64165" lon="5.53988">
        <ele>307.2</ele>
        <time>2022-03-21T14:46:29Z</time>
      </trkpt>
      <trkpt lat="46.64165" lon="5.53988">
        <ele>307.2</ele>
        <time>2022-03-21T14:46:30Z</time>
      </trkpt>
      <trkpt lat="46.64165" lon="5.53988">
        <ele>307.2</ele>
        <time>2022-03-21T14:46:32Z</time>
      </trkpt>
      <trkpt lat="46.64165" lon="5.53988">
        <ele>307.2</ele>
        <time>2022-03-21T14:46:33Z</time>
      </trkpt>
      <trkpt lat="46.64165" lon="5.53988">
        <ele>307.6</ele>
        <time>2022-03-21T14:46:34Z</time>
      </trkpt>
      <trkpt lat="46.64165" lon="5.53989">
        <ele>307.6</ele>
        <time>2022-03-21T14:46:35Z</time>
      </trkpt>
      <trkpt lat="46.64163" lon="5.5399">
        <ele>307.6</ele>
        <time>2022-03-21T14:46:36Z</time>
      </trkpt>
      <trkpt lat="46.64162" lon="5.53991">
        <ele>307.6</ele>
        <time>2022-03-21T14:46:37Z</time>
      </trkpt>
      <trkpt lat="46.6416" lon="5.53992">
        <ele>307.6</ele>
        <time>2022-03-21T14:46:38Z</time>
      </trkpt>
      <trkpt lat="46.64159" lon="5.53993">
        <ele>307.6</ele>
        <time>2022-03-21T14:46:39Z</time>
      </trkpt>
      <trkpt lat="46.64157" lon="5.53995">
        <ele>307.8</ele>
        <time>2022-03-21T14:46:40Z</time>
      </trkpt>
      <trkpt lat="46.64155" lon="5.53996">
        <ele>307.8</ele>
        <time>2022-03-21T14:46:41Z</time>
      </trkpt>
      <trkpt lat="46.64153" lon="5.53998">
        <ele>307.8</ele>
        <time>2022-03-21T14:46:42Z</time>
      </trkpt>
      <trkpt lat="46.64151" lon="5.53999">
        <ele>308</ele>
        <time>2022-03-21T14:46:43Z</time>
      </trkpt>
      <trkpt lat="46.64149" lon="5.54001">
        <ele>308</ele>
        <time>2022-03-21T14:46:44Z</time>
      </trkpt>
      <trkpt lat="46.64147" lon="5.54003">
        <ele>308.2</ele>
        <time>2022-03-21T14:46:45Z</time>
      </trkpt>
      <trkpt lat="46.64144" lon="5.54004">
        <ele>308.2</ele>
        <time>2022-03-21T14:46:46Z</time>
      </trkpt>
      <trkpt lat="46.64142" lon="5.54006">
        <ele>308.6</ele>
        <time>2022-03-21T14:46:47Z</time>
      </trkpt>
      <trkpt lat="46.6414" lon="5.54008">
        <ele>308.8</ele>
        <time>2022-03-21T14:46:48Z</time>
      </trkpt>
      <trkpt lat="46.64137" lon="5.5401">
        <ele>308.8</ele>
        <time>2022-03-21T14:46:49Z</time>
      </trkpt>
      <trkpt lat="46.64135" lon="5.54011">
        <ele>309.2</ele>
        <time>2022-03-21T14:46:50Z</time>
      </trkpt>
      <trkpt lat="46.64132" lon="5.54013">
        <ele>309.4</ele>
        <time>2022-03-21T14:46:51Z</time>
      </trkpt>
      <trkpt lat="46.64129" lon="5.54014">
        <ele>309.4</ele>
        <time>2022-03-21T14:46:52Z</time>
      </trkpt>
      <trkpt lat="46.64127" lon="5.54016">
        <ele>309.8</ele>
        <time>2022-03-21T14:46:53Z</time>
      </trkpt>
      <trkpt lat="46.64124" lon="5.54017">
        <ele>310</ele>
        <time>2022-03-21T14:46:54Z</time>
      </trkpt>
      <trkpt lat="46.64121" lon="5.54019">
        <ele>310</ele>
        <time>2022-03-21T14:46:55Z</time>
      </trkpt>
      <trkpt lat="46.64118" lon="5.5402">
        <ele>310.4</ele>
        <time>2022-03-21T14:46:56Z</time>
      </trkpt>
      <trkpt lat="46.64115" lon="5.54021">
        <ele>310.6</ele>
        <time>2022-03-21T14:46:57Z</time>
      </trkpt>
      <trkpt lat="46.64112" lon="5.54022">
        <ele>310.6</ele>
        <time>2022-03-21T14:46:58Z</time>
      </trkpt>
      <trkpt lat="46.64109" lon="5.54024">
        <ele>311</ele>
        <time>2022-03-21T14:46:59Z</time>
      </trkpt>
      <trkpt lat="46.64106" lon="5.54025">
        <ele>311</ele>
        <time>2022-03-21T14:47:00Z</time>
      </trkpt>
      <trkpt lat="46.64103" lon="5.54026">
        <ele>311.2</ele>
        <time>2022-03-21T14:47:01Z</time>
      </trkpt>
      <trkpt lat="46.641" lon="5.54027">
        <ele>311.4</ele>
        <time>2022-03-21T14:47:02Z</time>
      </trkpt>
      <trkpt lat="46.64097" lon="5.54028">
        <ele>311.4</ele>
        <time>2022-03-21T14:47:03Z</time>
      </trkpt>
      <trkpt lat="46.64094" lon="5.54029">
        <ele>312</ele>
        <time>2022-03-21T14:47:04Z</time>
      </trkpt>
      <trkpt lat="46.64092" lon="5.5403">
        <ele>312.2</ele>
        <time>2022-03-21T14:47:05Z</time>
      </trkpt>
      <trkpt lat="46.64089" lon="5.54031">
        <ele>312.6</ele>
        <time>2022-03-21T14:47:06Z</time>
      </trkpt>
      <trkpt lat="46.64086" lon="5.54032">
        <ele>312.8</ele>
        <time>2022-03-21T14:47:07Z</time>
      </trkpt>
      <trkpt lat="46.64083" lon="5.54033">
        <ele>313.2</ele>
        <time>2022-03-21T14:47:08Z</time>
      </trkpt>
      <trkpt lat="46.64081" lon="5.54033">
        <ele>313.2</ele>
        <time>2022-03-21T14:47:09Z</time>
      </trkpt>
      <trkpt lat="46.64078" lon="5.54034">
        <ele>313.4</ele>
        <time>2022-03-21T14:47:10Z</time>
      </trkpt>
      <trkpt lat="46.64075" lon="5.54035">
        <ele>313.4</ele>
        <time>2022-03-21T14:47:11Z</time>
      </trkpt>
      <trkpt lat="46.64072" lon="5.54036">
        <ele>313.8</ele>
        <time>2022-03-21T14:47:12Z</time>
      </trkpt>
      <trkpt lat="46.64069" lon="5.54037">
        <ele>314</ele>
        <time>2022-03-21T14:47:13Z</time>
      </trkpt>
      <trkpt lat="46.64066" lon="5.54038">
        <ele>314</ele>
        <time>2022-03-21T14:47:14Z</time>
      </trkpt>
      <trkpt lat="46.64063" lon="5.54039">
        <ele>314.4</ele>
        <time>2022-03-21T14:47:15Z</time>
      </trkpt>
      <trkpt lat="46.6406" lon="5.54039">
        <ele>314.6</ele>
        <time>2022-03-21T14:47:16Z</time>
      </trkpt>
      <trkpt lat="46.64058" lon="5.5404">
        <ele>315</ele>
        <time>2022-03-21T14:47:17Z</time>
      </trkpt>
      <trkpt lat="46.64055" lon="5.54041">
        <ele>315.2</ele>
        <time>2022-03-21T14:47:18Z</time>
      </trkpt>
      <trkpt lat="46.64052" lon="5.54041">
        <ele>315.2</ele>
        <time>2022-03-21T14:47:19Z</time>
      </trkpt>
      <trkpt lat="46.64049" lon="5.54042">
        <ele>315.4</ele>
        <time>2022-03-21T14:47:20Z</time>
      </trkpt>
      <trkpt lat="46.64046" lon="5.54042">
        <ele>315.6</ele>
        <time>2022-03-21T14:47:21Z</time>
      </trkpt>
      <trkpt lat="46.64043" lon="5.54043">
        <ele>315.6</ele>
        <time>2022-03-21T14:47:22Z</time>
      </trkpt>
      <trkpt lat="46.64039" lon="5.54043">
        <ele>316</ele>
        <time>2022-03-21T14:47:23Z</time>
      </trkpt>
      <trkpt lat="46.64036" lon="5.54044">
        <ele>316.4</ele>
        <time>2022-03-21T14:47:24Z</time>
      </trkpt>
      <trkpt lat="46.64033" lon="5.54044">
        <ele>316.8</ele>
        <time>2022-03-21T14:47:25Z</time>
      </trkpt>
      <trkpt lat="46.64031" lon="5.54045">
        <ele>317</ele>
        <time>2022-03-21T14:47:26Z</time>
      </trkpt>
      <trkpt lat="46.64028" lon="5.54045">
        <ele>317.2</ele>
        <time>2022-03-21T14:47:27Z</time>
      </trkpt>
      <trkpt lat="46.64025" lon="5.54045">
        <ele>317.2</ele>
        <time>2022-03-21T14:47:28Z</time>
      </trkpt>
      <trkpt lat="46.64022" lon="5.54046">
        <ele>317.6</ele>
        <time>2022-03-21T14:47:29Z</time>
      </trkpt>
      <trkpt lat="46.64019" lon="5.54046">
        <ele>317.6</ele>
        <time>2022-03-21T14:47:30Z</time>
      </trkpt>
      <trkpt lat="46.64016" lon="5.54046">
        <ele>318</ele>
        <time>2022-03-21T14:47:31Z</time>
      </trkpt>
      <trkpt lat="46.64013" lon="5.54046">
        <ele>318.2</ele>
        <time>2022-03-21T14:47:32Z</time>
      </trkpt>
      <trkpt lat="46.6401" lon="5.54046">
        <ele>318.4</ele>
        <time>2022-03-21T14:47:33Z</time>
      </trkpt>
      <trkpt lat="46.64007" lon="5.54046">
        <ele>318.6</ele>
        <time>2022-03-21T14:47:34Z</time>
      </trkpt>
      <trkpt lat="46.64004" lon="5.54046">
        <ele>318.8</ele>
        <time>2022-03-21T14:47:35Z</time>
      </trkpt>
      <trkpt lat="46.64" lon="5.54047">
        <ele>318.8</ele>
        <time>2022-03-21T14:47:36Z</time>
      </trkpt>
      <trkpt lat="46.63997" lon="5.54047">
        <ele>319.2</ele>
        <time>2022-03-21T14:47:37Z</time>
      </trkpt>
      <trkpt lat="46.63994" lon="5.54047">
        <ele>319.2</ele>
        <time>2022-03-21T14:47:38Z</time>
      </trkpt>
      <trkpt lat="46.63991" lon="5.54047">
        <ele>319.6</ele>
        <time>2022-03-21T14:47:39Z</time>
      </trkpt>
      <trkpt lat="46.63988" lon="5.54047">
        <ele>319.6</ele>
        <time>2022-03-21T14:47:40Z</time>
      </trkpt>
      <trkpt lat="46.63985" lon="5.54047">
        <ele>319.8</ele>
        <time>2022-03-21T14:47:41Z</time>
      </trkpt>
      <trkpt lat="46.63982" lon="5.54047">
        <ele>319.8</ele>
        <time>2022-03-21T14:47:42Z</time>
      </trkpt>
      <trkpt lat="46.63979" lon="5.54047">
        <ele>320.2</ele>
        <time>2022-03-21T14:47:43Z</time>
      </trkpt>
      <trkpt lat="46.63975" lon="5.54047">
        <ele>320.2</ele>
        <time>2022-03-21T14:47:44Z</time>
      </trkpt>
      <trkpt lat="46.63972" lon="5.54047">
        <ele>320.6</ele>
        <time>2022-03-21T14:47:45Z</time>
      </trkpt>
      <trkpt lat="46.63969" lon="5.54047">
        <ele>320.8</ele>
        <time>2022-03-21T14:47:46Z</time>
      </trkpt>
      <trkpt lat="46.63966" lon="5.54047">
        <ele>320.8</ele>
        <time>2022-03-21T14:47:47Z</time>
      </trkpt>
      <trkpt lat="46.63963" lon="5.54047">
        <ele>321.2</ele>
        <time>2022-03-21T14:47:48Z</time>
      </trkpt>
      <trkpt lat="46.63961" lon="5.54047">
        <ele>321.2</ele>
        <time>2022-03-21T14:47:49Z</time>
      </trkpt>
      <trkpt lat="46.63958" lon="5.54047">
        <ele>321.6</ele>
        <time>2022-03-21T14:47:50Z</time>
      </trkpt>
      <trkpt lat="46.63955" lon="5.54047">
        <ele>321.8</ele>
        <time>2022-03-21T14:47:51Z</time>
      </trkpt>
      <trkpt lat="46.63952" lon="5.54047">
        <ele>322</ele>
        <time>2022-03-21T14:47:52Z</time>
      </trkpt>
      <trkpt lat="46.6395" lon="5.54047">
        <ele>322</ele>
        <time>2022-03-21T14:47:53Z</time>
      </trkpt>
      <trkpt lat="46.63947" lon="5.54047">
        <ele>322.4</ele>
        <time>2022-03-21T14:47:54Z</time>
      </trkpt>
      <trkpt lat="46.63944" lon="5.54047">
        <ele>322.4</ele>
        <time>2022-03-21T14:47:55Z</time>
      </trkpt>
      <trkpt lat="46.63942" lon="5.54047">
        <ele>322.6</ele>
        <time>2022-03-21T14:47:56Z</time>
      </trkpt>
      <trkpt lat="46.63939" lon="5.54047">
        <ele>322.8</ele>
        <time>2022-03-21T14:47:57Z</time>
      </trkpt>
      <trkpt lat="46.63936" lon="5.54048">
        <ele>322.8</ele>
        <time>2022-03-21T14:47:58Z</time>
      </trkpt>
      <trkpt lat="46.63934" lon="5.54048">
        <ele>323.2</ele>
        <time>2022-03-21T14:47:59Z</time>
      </trkpt>
      <trkpt lat="46.63931" lon="5.54048">
        <ele>323.4</ele>
        <time>2022-03-21T14:48:00Z</time>
      </trkpt>
      <trkpt lat="46.63929" lon="5.54048">
        <ele>323.6</ele>
        <time>2022-03-21T14:48:01Z</time>
      </trkpt>
      <trkpt lat="46.63926" lon="5.54049">
        <ele>324</ele>
        <time>2022-03-21T14:48:02Z</time>
      </trkpt>
      <trkpt lat="46.63923" lon="5.54049">
        <ele>324</ele>
        <time>2022-03-21T14:48:03Z</time>
      </trkpt>
      <trkpt lat="46.63921" lon="5.54049">
        <ele>324.2</ele>
        <time>2022-03-21T14:48:04Z</time>
      </trkpt>
      <trkpt lat="46.63918" lon="5.54049">
        <ele>324.4</ele>
        <time>2022-03-21T14:48:05Z</time>
      </trkpt>
      <trkpt lat="46.63915" lon="5.54049">
        <ele>324.4</ele>
        <time>2022-03-21T14:48:06Z</time>
      </trkpt>
      <trkpt lat="46.63913" lon="5.54049">
        <ele>324.8</ele>
        <time>2022-03-21T14:48:07Z</time>
      </trkpt>
      <trkpt lat="46.6391" lon="5.5405">
        <ele>325</ele>
        <time>2022-03-21T14:48:08Z</time>
      </trkpt>
      <trkpt lat="46.63908" lon="5.5405">
        <ele>325</ele>
        <time>2022-03-21T14:48:09Z</time>
      </trkpt>
      <trkpt lat="46.63905" lon="5.54051">
        <ele>325.6</ele>
        <time>2022-03-21T14:48:11Z</time>
      </trkpt>
      <trkpt lat="46.63903" lon="5.54052">
        <ele>325.8</ele>
        <time>2022-03-21T14:48:12Z</time>
      </trkpt>
      <trkpt lat="46.639" lon="5.54053">
        <ele>326</ele>
        <time>2022-03-21T14:48:13Z</time>
      </trkpt>
      <trkpt lat="46.63897" lon="5.54054">
        <ele>326.4</ele>
        <time>2022-03-21T14:48:14Z</time>
      </trkpt>
      <trkpt lat="46.63894" lon="5.54055">
        <ele>326.6</ele>
        <time>2022-03-21T14:48:15Z</time>
      </trkpt>
      <trkpt lat="46.63892" lon="5.54056">
        <ele>326.6</ele>
        <time>2022-03-21T14:48:16Z</time>
      </trkpt>
      <trkpt lat="46.63889" lon="5.54057">
        <ele>327</ele>
        <time>2022-03-21T14:48:17Z</time>
      </trkpt>
      <trkpt lat="46.63887" lon="5.54057">
        <ele>327</ele>
        <time>2022-03-21T14:48:18Z</time>
      </trkpt>
      <trkpt lat="46.63884" lon="5.54058">
        <ele>327.2</ele>
        <time>2022-03-21T14:48:19Z</time>
      </trkpt>
      <trkpt lat="46.63882" lon="5.54059">
        <ele>327.2</ele>
        <time>2022-03-21T14:48:20Z</time>
      </trkpt>
      <trkpt lat="46.6388" lon="5.54059">
        <ele>327.6</ele>
        <time>2022-03-21T14:48:21Z</time>
      </trkpt>
      <trkpt lat="46.63877" lon="5.5406">
        <ele>327.8</ele>
        <time>2022-03-21T14:48:22Z</time>
      </trkpt>
      <trkpt lat="46.63875" lon="5.54061">
        <ele>328</ele>
        <time>2022-03-21T14:48:23Z</time>
      </trkpt>
      <trkpt lat="46.63872" lon="5.54062">
        <ele>328</ele>
        <time>2022-03-21T14:48:24Z</time>
      </trkpt>
      <trkpt lat="46.6387" lon="5.54063">
        <ele>328.4</ele>
        <time>2022-03-21T14:48:25Z</time>
      </trkpt>
      <trkpt lat="46.63867" lon="5.54064">
        <ele>328.4</ele>
        <time>2022-03-21T14:48:26Z</time>
      </trkpt>
      <trkpt lat="46.63864" lon="5.54065">
        <ele>328.8</ele>
        <time>2022-03-21T14:48:27Z</time>
      </trkpt>
      <trkpt lat="46.63862" lon="5.54067">
        <ele>328.8</ele>
        <time>2022-03-21T14:48:28Z</time>
      </trkpt>
      <trkpt lat="46.63859" lon="5.54068">
        <ele>329.2</ele>
        <time>2022-03-21T14:48:29Z</time>
      </trkpt>
      <trkpt lat="46.63857" lon="5.5407">
        <ele>329.4</ele>
        <time>2022-03-21T14:48:30Z</time>
      </trkpt>
      <trkpt lat="46.63854" lon="5.54071">
        <ele>329.6</ele>
        <time>2022-03-21T14:48:31Z</time>
      </trkpt>
      <trkpt lat="46.63851" lon="5.54073">
        <ele>329.6</ele>
        <time>2022-03-21T14:48:32Z</time>
      </trkpt>
      <trkpt lat="46.63849" lon="5.54074">
        <ele>330</ele>
        <time>2022-03-21T14:48:33Z</time>
      </trkpt>
      <trkpt lat="46.63846" lon="5.54075">
        <ele>330</ele>
        <time>2022-03-21T14:48:34Z</time>
      </trkpt>
      <trkpt lat="46.63843" lon="5.54076">
        <ele>330.2</ele>
        <time>2022-03-21T14:48:35Z</time>
      </trkpt>
      <trkpt lat="46.6384" lon="5.54076">
        <ele>330.2</ele>
        <time>2022-03-21T14:48:36Z</time>
      </trkpt>
      <trkpt lat="46.63837" lon="5.54077">
        <ele>330.4</ele>
        <time>2022-03-21T14:48:37Z</time>
      </trkpt>
      <trkpt lat="46.63835" lon="5.54078">
        <ele>330.4</ele>
        <time>2022-03-21T14:48:38Z</time>
      </trkpt>
      <trkpt lat="46.63832" lon="5.54079">
        <ele>330.8</ele>
        <time>2022-03-21T14:48:39Z</time>
      </trkpt>
      <trkpt lat="46.63829" lon="5.54079">
        <ele>331</ele>
        <time>2022-03-21T14:48:40Z</time>
      </trkpt>
      <trkpt lat="46.63827" lon="5.54081">
        <ele>331</ele>
        <time>2022-03-21T14:48:41Z</time>
      </trkpt>
      <trkpt lat="46.63824" lon="5.54082">
        <ele>331.2</ele>
        <time>2022-03-21T14:48:42Z</time>
      </trkpt>
      <trkpt lat="46.63821" lon="5.54082">
        <ele>331.2</ele>
        <time>2022-03-21T14:48:43Z</time>
      </trkpt>
      <trkpt lat="46.63818" lon="5.54083">
        <ele>331.8</ele>
        <time>2022-03-21T14:48:44Z</time>
      </trkpt>
      <trkpt lat="46.63815" lon="5.54084">
        <ele>332</ele>
        <time>2022-03-21T14:48:45Z</time>
      </trkpt>
      <trkpt lat="46.63812" lon="5.54086">
        <ele>332.2</ele>
        <time>2022-03-21T14:48:46Z</time>
      </trkpt>
      <trkpt lat="46.63809" lon="5.54087">
        <ele>332.2</ele>
        <time>2022-03-21T14:48:47Z</time>
      </trkpt>
      <trkpt lat="46.63807" lon="5.54088">
        <ele>332.6</ele>
        <time>2022-03-21T14:48:48Z</time>
      </trkpt>
      <trkpt lat="46.63804" lon="5.5409">
        <ele>332.6</ele>
        <time>2022-03-21T14:48:49Z</time>
      </trkpt>
      <trkpt lat="46.63801" lon="5.54091">
        <ele>333</ele>
        <time>2022-03-21T14:48:50Z</time>
      </trkpt>
      <trkpt lat="46.63798" lon="5.54093">
        <ele>333</ele>
        <time>2022-03-21T14:48:51Z</time>
      </trkpt>
      <trkpt lat="46.63796" lon="5.54095">
        <ele>333.2</ele>
        <time>2022-03-21T14:48:52Z</time>
      </trkpt>
      <trkpt lat="46.63793" lon="5.54097">
        <ele>333.6</ele>
        <time>2022-03-21T14:48:53Z</time>
      </trkpt>
      <trkpt lat="46.6379" lon="5.54099">
        <ele>333.8</ele>
        <time>2022-03-21T14:48:54Z</time>
      </trkpt>
      <trkpt lat="46.63787" lon="5.541">
        <ele>333.8</ele>
        <time>2022-03-21T14:48:55Z</time>
      </trkpt>
      <trkpt lat="46.63785" lon="5.54102">
        <ele>334</ele>
        <time>2022-03-21T14:48:56Z</time>
      </trkpt>
      <trkpt lat="46.63782" lon="5.54103">
        <ele>334</ele>
        <time>2022-03-21T14:48:57Z</time>
      </trkpt>
      <trkpt lat="46.63779" lon="5.54105">
        <ele>334.4</ele>
        <time>2022-03-21T14:48:58Z</time>
      </trkpt>
      <trkpt lat="46.63777" lon="5.54107">
        <ele>334.4</ele>
        <time>2022-03-21T14:48:59Z</time>
      </trkpt>
      <trkpt lat="46.63774" lon="5.54109">
        <ele>334.8</ele>
        <time>2022-03-21T14:49:00Z</time>
      </trkpt>
      <trkpt lat="46.63772" lon="5.54111">
        <ele>335</ele>
        <time>2022-03-21T14:49:01Z</time>
      </trkpt>
      <trkpt lat="46.63769" lon="5.54113">
        <ele>335.2</ele>
        <time>2022-03-21T14:49:02Z</time>
      </trkpt>
      <trkpt lat="46.63766" lon="5.54116">
        <ele>335.4</ele>
        <time>2022-03-21T14:49:03Z</time>
      </trkpt>
      <trkpt lat="46.63763" lon="5.54118">
        <ele>335.4</ele>
        <time>2022-03-21T14:49:04Z</time>
      </trkpt>
      <trkpt lat="46.63761" lon="5.5412">
        <ele>335.8</ele>
        <time>2022-03-21T14:49:05Z</time>
      </trkpt>
      <trkpt lat="46.63758" lon="5.54123">
        <ele>336</ele>
        <time>2022-03-21T14:49:06Z</time>
      </trkpt>
      <trkpt lat="46.63756" lon="5.54125">
        <ele>336</ele>
        <time>2022-03-21T14:49:07Z</time>
      </trkpt>
      <trkpt lat="46.63753" lon="5.54127">
        <ele>336.4</ele>
        <time>2022-03-21T14:49:08Z</time>
      </trkpt>
      <trkpt lat="46.6375" lon="5.54129">
        <ele>336.4</ele>
        <time>2022-03-21T14:49:09Z</time>
      </trkpt>
      <trkpt lat="46.63747" lon="5.54132">
        <ele>336.8</ele>
        <time>2022-03-21T14:49:10Z</time>
      </trkpt>
      <trkpt lat="46.63745" lon="5.54134">
        <ele>337.2</ele>
        <time>2022-03-21T14:49:11Z</time>
      </trkpt>
      <trkpt lat="46.63742" lon="5.54137">
        <ele>337.2</ele>
        <time>2022-03-21T14:49:12Z</time>
      </trkpt>
      <trkpt lat="46.6374" lon="5.54139">
        <ele>337.4</ele>
        <time>2022-03-21T14:49:13Z</time>
      </trkpt>
      <trkpt lat="46.63737" lon="5.54141">
        <ele>337.4</ele>
        <time>2022-03-21T14:49:14Z</time>
      </trkpt>
      <trkpt lat="46.63734" lon="5.54143">
        <ele>337.6</ele>
        <time>2022-03-21T14:49:15Z</time>
      </trkpt>
      <trkpt lat="46.63732" lon="5.54145">
        <ele>338</ele>
        <time>2022-03-21T14:49:16Z</time>
      </trkpt>
      <trkpt lat="46.63729" lon="5.54146">
        <ele>338.2</ele>
        <time>2022-03-21T14:49:17Z</time>
      </trkpt>
      <trkpt lat="46.63727" lon="5.54147">
        <ele>338.2</ele>
        <time>2022-03-21T14:49:18Z</time>
      </trkpt>
      <trkpt lat="46.63724" lon="5.54148">
        <ele>338.4</ele>
        <time>2022-03-21T14:49:19Z</time>
      </trkpt>
      <trkpt lat="46.63722" lon="5.54148">
        <ele>338.8</ele>
        <time>2022-03-21T14:49:20Z</time>
      </trkpt>
      <trkpt lat="46.63719" lon="5.54149">
        <ele>339</ele>
        <time>2022-03-21T14:49:21Z</time>
      </trkpt>
      <trkpt lat="46.63717" lon="5.5415">
        <ele>339</ele>
        <time>2022-03-21T14:49:22Z</time>
      </trkpt>
      <trkpt lat="46.63714" lon="5.54151">
        <ele>339.4</ele>
        <time>2022-03-21T14:49:23Z</time>
      </trkpt>
      <trkpt lat="46.63712" lon="5.54151">
        <ele>339.4</ele>
        <time>2022-03-21T14:49:24Z</time>
      </trkpt>
      <trkpt lat="46.63709" lon="5.54152">
        <ele>339.8</ele>
        <time>2022-03-21T14:49:25Z</time>
      </trkpt>
      <trkpt lat="46.63706" lon="5.54152">
        <ele>339.8</ele>
        <time>2022-03-21T14:49:26Z</time>
      </trkpt>
      <trkpt lat="46.63704" lon="5.54152">
        <ele>340.2</ele>
        <time>2022-03-21T14:49:27Z</time>
      </trkpt>
      <trkpt lat="46.63701" lon="5.54152">
        <ele>340.4</ele>
        <time>2022-03-21T14:49:28Z</time>
      </trkpt>
      <trkpt lat="46.63698" lon="5.54151">
        <ele>340.6</ele>
        <time>2022-03-21T14:49:29Z</time>
      </trkpt>
      <trkpt lat="46.63695" lon="5.54151">
        <ele>340.8</ele>
        <time>2022-03-21T14:49:30Z</time>
      </trkpt>
      <trkpt lat="46.63693" lon="5.5415">
        <ele>340.8</ele>
        <time>2022-03-21T14:49:31Z</time>
      </trkpt>
      <trkpt lat="46.6369" lon="5.54148">
        <ele>341</ele>
        <time>2022-03-21T14:49:32Z</time>
      </trkpt>
      <trkpt lat="46.63688" lon="5.54146">
        <ele>341</ele>
        <time>2022-03-21T14:49:33Z</time>
      </trkpt>
      <trkpt lat="46.63685" lon="5.54145">
        <ele>341.4</ele>
        <time>2022-03-21T14:49:34Z</time>
      </trkpt>
      <trkpt lat="46.63682" lon="5.54145">
        <ele>341.6</ele>
        <time>2022-03-21T14:49:35Z</time>
      </trkpt>
      <trkpt lat="46.63679" lon="5.54145">
        <ele>341.8</ele>
        <time>2022-03-21T14:49:36Z</time>
      </trkpt>
      <trkpt lat="46.63676" lon="5.54144">
        <ele>342.2</ele>
        <time>2022-03-21T14:49:37Z</time>
      </trkpt>
      <trkpt lat="46.63673" lon="5.54144">
        <ele>342.4</ele>
        <time>2022-03-21T14:49:38Z</time>
      </trkpt>
      <trkpt lat="46.6367" lon="5.54143">
        <ele>342.4</ele>
        <time>2022-03-21T14:49:39Z</time>
      </trkpt>
      <trkpt lat="46.63668" lon="5.54141">
        <ele>342.8</ele>
        <time>2022-03-21T14:49:40Z</time>
      </trkpt>
      <trkpt lat="46.63666" lon="5.5414">
        <ele>343</ele>
        <time>2022-03-21T14:49:41Z</time>
      </trkpt>
      <trkpt lat="46.63663" lon="5.5414">
        <ele>343</ele>
        <time>2022-03-21T14:49:42Z</time>
      </trkpt>
      <trkpt lat="46.6366" lon="5.5414">
        <ele>343.4</ele>
        <time>2022-03-21T14:49:43Z</time>
      </trkpt>
      <trkpt lat="46.63658" lon="5.54141">
        <ele>343.6</ele>
        <time>2022-03-21T14:49:44Z</time>
      </trkpt>
      <trkpt lat="46.63655" lon="5.54141">
        <ele>343.8</ele>
        <time>2022-03-21T14:49:45Z</time>
      </trkpt>
      <trkpt lat="46.63652" lon="5.54141">
        <ele>344</ele>
        <time>2022-03-21T14:49:46Z</time>
      </trkpt>
      <trkpt lat="46.63649" lon="5.54142">
        <ele>344.4</ele>
        <time>2022-03-21T14:49:47Z</time>
      </trkpt>
      <trkpt lat="46.63646" lon="5.54142">
        <ele>344.6</ele>
        <time>2022-03-21T14:49:48Z</time>
      </trkpt>
      <trkpt lat="46.63644" lon="5.54143">
        <ele>344.6</ele>
        <time>2022-03-21T14:49:49Z</time>
      </trkpt>
      <trkpt lat="46.63641" lon="5.54144">
        <ele>345</ele>
        <time>2022-03-21T14:49:50Z</time>
      </trkpt>
      <trkpt lat="46.63638" lon="5.54144">
        <ele>345</ele>
        <time>2022-03-21T14:49:51Z</time>
      </trkpt>
      <trkpt lat="46.63636" lon="5.54145">
        <ele>345.4</ele>
        <time>2022-03-21T14:49:52Z</time>
      </trkpt>
      <trkpt lat="46.63633" lon="5.54145">
        <ele>345.4</ele>
        <time>2022-03-21T14:49:53Z</time>
      </trkpt>
      <trkpt lat="46.63631" lon="5.54146">
        <ele>345.6</ele>
        <time>2022-03-21T14:49:54Z</time>
      </trkpt>
      <trkpt lat="46.63628" lon="5.54148">
        <ele>345.6</ele>
        <time>2022-03-21T14:49:55Z</time>
      </trkpt>
      <trkpt lat="46.63626" lon="5.5415">
        <ele>345.8</ele>
        <time>2022-03-21T14:49:56Z</time>
      </trkpt>
      <trkpt lat="46.63623" lon="5.54152">
        <ele>345.8</ele>
        <time>2022-03-21T14:49:57Z</time>
      </trkpt>
      <trkpt lat="46.63621" lon="5.54154">
        <ele>346.2</ele>
        <time>2022-03-21T14:49:58Z</time>
      </trkpt>
      <trkpt lat="46.63618" lon="5.54157">
        <ele>346.2</ele>
        <time>2022-03-21T14:49:59Z</time>
      </trkpt>
      <trkpt lat="46.63615" lon="5.5416">
        <ele>346.4</ele>
        <time>2022-03-21T14:50:00Z</time>
      </trkpt>
      <trkpt lat="46.63613" lon="5.54163">
        <ele>346.6</ele>
        <time>2022-03-21T14:50:01Z</time>
      </trkpt>
      <trkpt lat="46.6361" lon="5.54165">
        <ele>346.6</ele>
        <time>2022-03-21T14:50:02Z</time>
      </trkpt>
      <trkpt lat="46.63607" lon="5.54166">
        <ele>347</ele>
        <time>2022-03-21T14:50:03Z</time>
      </trkpt>
      <trkpt lat="46.63604" lon="5.54169">
        <ele>347.2</ele>
        <time>2022-03-21T14:50:04Z</time>
      </trkpt>
      <trkpt lat="46.63602" lon="5.54171">
        <ele>347.2</ele>
        <time>2022-03-21T14:50:05Z</time>
      </trkpt>
      <trkpt lat="46.63599" lon="5.54172">
        <ele>347.6</ele>
        <time>2022-03-21T14:50:06Z</time>
      </trkpt>
      <trkpt lat="46.63597" lon="5.54173">
        <ele>347.8</ele>
        <time>2022-03-21T14:50:07Z</time>
      </trkpt>
      <trkpt lat="46.63594" lon="5.54174">
        <ele>347.8</ele>
        <time>2022-03-21T14:50:08Z</time>
      </trkpt>
      <trkpt lat="46.63591" lon="5.54174">
        <ele>348</ele>
        <time>2022-03-21T14:50:09Z</time>
      </trkpt>
      <trkpt lat="46.63588" lon="5.54175">
        <ele>348.2</ele>
        <time>2022-03-21T14:50:10Z</time>
      </trkpt>
      <trkpt lat="46.63585" lon="5.54176">
        <ele>348.6</ele>
        <time>2022-03-21T14:50:11Z</time>
      </trkpt>
      <trkpt lat="46.63582" lon="5.54177">
        <ele>348.8</ele>
        <time>2022-03-21T14:50:12Z</time>
      </trkpt>
      <trkpt lat="46.6358" lon="5.54178">
        <ele>348.8</ele>
        <time>2022-03-21T14:50:13Z</time>
      </trkpt>
      <trkpt lat="46.63577" lon="5.54179">
        <ele>349.2</ele>
        <time>2022-03-21T14:50:14Z</time>
      </trkpt>
      <trkpt lat="46.63574" lon="5.5418">
        <ele>349.4</ele>
        <time>2022-03-21T14:50:15Z</time>
      </trkpt>
      <trkpt lat="46.63572" lon="5.54181">
        <ele>349.6</ele>
        <time>2022-03-21T14:50:16Z</time>
      </trkpt>
      <trkpt lat="46.63569" lon="5.54182">
        <ele>349.8</ele>
        <time>2022-03-21T14:50:17Z</time>
      </trkpt>
      <trkpt lat="46.63566" lon="5.54183">
        <ele>350.2</ele>
        <time>2022-03-21T14:50:18Z</time>
      </trkpt>
      <trkpt lat="46.63564" lon="5.54183">
        <ele>350.4</ele>
        <time>2022-03-21T14:50:19Z</time>
      </trkpt>
      <trkpt lat="46.63561" lon="5.54183">
        <ele>350.6</ele>
        <time>2022-03-21T14:50:20Z</time>
      </trkpt>
      <trkpt lat="46.63556" lon="5.54185">
        <ele>350.8</ele>
        <time>2022-03-21T14:50:21Z</time>
      </trkpt>
      <trkpt lat="46.63553" lon="5.54186">
        <ele>351</ele>
        <time>2022-03-21T14:50:22Z</time>
      </trkpt>
      <trkpt lat="46.6355" lon="5.54186">
        <ele>351</ele>
        <time>2022-03-21T14:50:23Z</time>
      </trkpt>
      <trkpt lat="46.63547" lon="5.54186">
        <ele>351.4</ele>
        <time>2022-03-21T14:50:24Z</time>
      </trkpt>
      <trkpt lat="46.63545" lon="5.54187">
        <ele>351.4</ele>
        <time>2022-03-21T14:50:25Z</time>
      </trkpt>
      <trkpt lat="46.63542" lon="5.54187">
        <ele>351.8</ele>
        <time>2022-03-21T14:50:26Z</time>
      </trkpt>
      <trkpt lat="46.63539" lon="5.54186">
        <ele>352</ele>
        <time>2022-03-21T14:50:27Z</time>
      </trkpt>
      <trkpt lat="46.63537" lon="5.54186">
        <ele>352</ele>
        <time>2022-03-21T14:50:28Z</time>
      </trkpt>
      <trkpt lat="46.63534" lon="5.54186">
        <ele>352.2</ele>
        <time>2022-03-21T14:50:29Z</time>
      </trkpt>
      <trkpt lat="46.63531" lon="5.54187">
        <ele>352.2</ele>
        <time>2022-03-21T14:50:30Z</time>
      </trkpt>
      <trkpt lat="46.63528" lon="5.54188">
        <ele>352.6</ele>
        <time>2022-03-21T14:50:31Z</time>
      </trkpt>
      <trkpt lat="46.63525" lon="5.54188">
        <ele>352.6</ele>
        <time>2022-03-21T14:50:32Z</time>
      </trkpt>
      <trkpt lat="46.63522" lon="5.5419">
        <ele>353</ele>
        <time>2022-03-21T14:50:33Z</time>
      </trkpt>
      <trkpt lat="46.63519" lon="5.54191">
        <ele>353</ele>
        <time>2022-03-21T14:50:34Z</time>
      </trkpt>
      <trkpt lat="46.63516" lon="5.54192">
        <ele>353.4</ele>
        <time>2022-03-21T14:50:35Z</time>
      </trkpt>
      <trkpt lat="46.63513" lon="5.54192">
        <ele>353.6</ele>
        <time>2022-03-21T14:50:36Z</time>
      </trkpt>
      <trkpt lat="46.63511" lon="5.54193">
        <ele>353.6</ele>
        <time>2022-03-21T14:50:37Z</time>
      </trkpt>
      <trkpt lat="46.63508" lon="5.54194">
        <ele>353.8</ele>
        <time>2022-03-21T14:50:38Z</time>
      </trkpt>
      <trkpt lat="46.63505" lon="5.54196">
        <ele>354.2</ele>
        <time>2022-03-21T14:50:39Z</time>
      </trkpt>
      <trkpt lat="46.63502" lon="5.54197">
        <ele>354.4</ele>
        <time>2022-03-21T14:50:40Z</time>
      </trkpt>
      <trkpt lat="46.635" lon="5.54199">
        <ele>354.4</ele>
        <time>2022-03-21T14:50:41Z</time>
      </trkpt>
      <trkpt lat="46.63497" lon="5.542">
        <ele>354.6</ele>
        <time>2022-03-21T14:50:42Z</time>
      </trkpt>
      <trkpt lat="46.63494" lon="5.54201">
        <ele>354.6</ele>
        <time>2022-03-21T14:50:43Z</time>
      </trkpt>
      <trkpt lat="46.63491" lon="5.54202">
        <ele>355</ele>
        <time>2022-03-21T14:50:44Z</time>
      </trkpt>
      <trkpt lat="46.63489" lon="5.54203">
        <ele>355</ele>
        <time>2022-03-21T14:50:45Z</time>
      </trkpt>
      <trkpt lat="46.63486" lon="5.54204">
        <ele>355.4</ele>
        <time>2022-03-21T14:50:46Z</time>
      </trkpt>
      <trkpt lat="46.63483" lon="5.54206">
        <ele>355.4</ele>
        <time>2022-03-21T14:50:47Z</time>
      </trkpt>
      <trkpt lat="46.6348" lon="5.54207">
        <ele>355.6</ele>
        <time>2022-03-21T14:50:48Z</time>
      </trkpt>
      <trkpt lat="46.63478" lon="5.54208">
        <ele>356</ele>
        <time>2022-03-21T14:50:49Z</time>
      </trkpt>
      <trkpt lat="46.63475" lon="5.5421">
        <ele>356</ele>
        <time>2022-03-21T14:50:50Z</time>
      </trkpt>
      <trkpt lat="46.63473" lon="5.54212">
        <ele>356.2</ele>
        <time>2022-03-21T14:50:51Z</time>
      </trkpt>
      <trkpt lat="46.6347" lon="5.54213">
        <ele>356.2</ele>
        <time>2022-03-21T14:50:52Z</time>
      </trkpt>
      <trkpt lat="46.63467" lon="5.54215">
        <ele>356.6</ele>
        <time>2022-03-21T14:50:53Z</time>
      </trkpt>
      <trkpt lat="46.63464" lon="5.54217">
        <ele>356.6</ele>
        <time>2022-03-21T14:50:54Z</time>
      </trkpt>
      <trkpt lat="46.63461" lon="5.54218">
        <ele>357</ele>
        <time>2022-03-21T14:50:55Z</time>
      </trkpt>
      <trkpt lat="46.63458" lon="5.5422">
        <ele>357</ele>
        <time>2022-03-21T14:50:56Z</time>
      </trkpt>
      <trkpt lat="46.63455" lon="5.54222">
        <ele>357.2</ele>
        <time>2022-03-21T14:50:57Z</time>
      </trkpt>
      <trkpt lat="46.63452" lon="5.54224">
        <ele>357.2</ele>
        <time>2022-03-21T14:50:58Z</time>
      </trkpt>
      <trkpt lat="46.63449" lon="5.54225">
        <ele>357.6</ele>
        <time>2022-03-21T14:50:59Z</time>
      </trkpt>
      <trkpt lat="46.63446" lon="5.54227">
        <ele>357.6</ele>
        <time>2022-03-21T14:51:00Z</time>
      </trkpt>
      <trkpt lat="46.63443" lon="5.54228">
        <ele>358</ele>
        <time>2022-03-21T14:51:01Z</time>
      </trkpt>
      <trkpt lat="46.6344" lon="5.54229">
        <ele>358</ele>
        <time>2022-03-21T14:51:02Z</time>
      </trkpt>
      <trkpt lat="46.63437" lon="5.5423">
        <ele>358.4</ele>
        <time>2022-03-21T14:51:03Z</time>
      </trkpt>
      <trkpt lat="46.63434" lon="5.54232">
        <ele>358.6</ele>
        <time>2022-03-21T14:51:04Z</time>
      </trkpt>
      <trkpt lat="46.63431" lon="5.54233">
        <ele>358.6</ele>
        <time>2022-03-21T14:51:05Z</time>
      </trkpt>
      <trkpt lat="46.63428" lon="5.54233">
        <ele>359</ele>
        <time>2022-03-21T14:51:06Z</time>
      </trkpt>
      <trkpt lat="46.63425" lon="5.54235">
        <ele>359</ele>
        <time>2022-03-21T14:51:07Z</time>
      </trkpt>
      <trkpt lat="46.63422" lon="5.54236">
        <ele>359.4</ele>
        <time>2022-03-21T14:51:08Z</time>
      </trkpt>
      <trkpt lat="46.63419" lon="5.54236">
        <ele>359.4</ele>
        <time>2022-03-21T14:51:09Z</time>
      </trkpt>
      <trkpt lat="46.63416" lon="5.54237">
        <ele>359.8</ele>
        <time>2022-03-21T14:51:10Z</time>
      </trkpt>
      <trkpt lat="46.63413" lon="5.54237">
        <ele>359.8</ele>
        <time>2022-03-21T14:51:11Z</time>
      </trkpt>
      <trkpt lat="46.6341" lon="5.54238">
        <ele>360</ele>
        <time>2022-03-21T14:51:12Z</time>
      </trkpt>
      <trkpt lat="46.63407" lon="5.54239">
        <ele>360.2</ele>
        <time>2022-03-21T14:51:13Z</time>
      </trkpt>
      <trkpt lat="46.63404" lon="5.54239">
        <ele>360.2</ele>
        <time>2022-03-21T14:51:14Z</time>
      </trkpt>
      <trkpt lat="46.63402" lon="5.54239">
        <ele>360.6</ele>
        <time>2022-03-21T14:51:15Z</time>
      </trkpt>
      <trkpt lat="46.63399" lon="5.54239">
        <ele>360.6</ele>
        <time>2022-03-21T14:51:16Z</time>
      </trkpt>
      <trkpt lat="46.63396" lon="5.54239">
        <ele>361</ele>
        <time>2022-03-21T14:51:17Z</time>
      </trkpt>
      <trkpt lat="46.63393" lon="5.5424">
        <ele>361</ele>
        <time>2022-03-21T14:51:18Z</time>
      </trkpt>
      <trkpt lat="46.6339" lon="5.54239">
        <ele>361.4</ele>
        <time>2022-03-21T14:51:19Z</time>
      </trkpt>
      <trkpt lat="46.63387" lon="5.5424">
        <ele>361.4</ele>
        <time>2022-03-21T14:51:20Z</time>
      </trkpt>
      <trkpt lat="46.63385" lon="5.5424">
        <ele>361.8</ele>
        <time>2022-03-21T14:51:21Z</time>
      </trkpt>
      <trkpt lat="46.63382" lon="5.5424">
        <ele>361.8</ele>
        <time>2022-03-21T14:51:22Z</time>
      </trkpt>
      <trkpt lat="46.63379" lon="5.5424">
        <ele>362.2</ele>
        <time>2022-03-21T14:51:23Z</time>
      </trkpt>
      <trkpt lat="46.63376" lon="5.5424">
        <ele>362.2</ele>
        <time>2022-03-21T14:51:24Z</time>
      </trkpt>
      <trkpt lat="46.63373" lon="5.54239">
        <ele>362.6</ele>
        <time>2022-03-21T14:51:25Z</time>
      </trkpt>
      <trkpt lat="46.6337" lon="5.54239">
        <ele>362.6</ele>
        <time>2022-03-21T14:51:26Z</time>
      </trkpt>
      <trkpt lat="46.63367" lon="5.54238">
        <ele>363</ele>
        <time>2022-03-21T14:51:27Z</time>
      </trkpt>
      <trkpt lat="46.63364" lon="5.54238">
        <ele>363</ele>
        <time>2022-03-21T14:51:28Z</time>
      </trkpt>
      <trkpt lat="46.63361" lon="5.54237">
        <ele>363.4</ele>
        <time>2022-03-21T14:51:29Z</time>
      </trkpt>
      <trkpt lat="46.63358" lon="5.54236">
        <ele>363.4</ele>
        <time>2022-03-21T14:51:30Z</time>
      </trkpt>
      <trkpt lat="46.63355" lon="5.54236">
        <ele>363.8</ele>
        <time>2022-03-21T14:51:31Z</time>
      </trkpt>
      <trkpt lat="46.63353" lon="5.54236">
        <ele>364</ele>
        <time>2022-03-21T14:51:32Z</time>
      </trkpt>
      <trkpt lat="46.6335" lon="5.54236">
        <ele>364</ele>
        <time>2022-03-21T14:51:33Z</time>
      </trkpt>
      <trkpt lat="46.63346" lon="5.54236">
        <ele>364.6</ele>
        <time>2022-03-21T14:51:34Z</time>
      </trkpt>
      <trkpt lat="46.63343" lon="5.54236">
        <ele>364.6</ele>
        <time>2022-03-21T14:51:35Z</time>
      </trkpt>
      <trkpt lat="46.6334" lon="5.54236">
        <ele>364.8</ele>
        <time>2022-03-21T14:51:36Z</time>
      </trkpt>
      <trkpt lat="46.63338" lon="5.54235">
        <ele>365.2</ele>
        <time>2022-03-21T14:51:37Z</time>
      </trkpt>
      <trkpt lat="46.63335" lon="5.54235">
        <ele>365.4</ele>
        <time>2022-03-21T14:51:38Z</time>
      </trkpt>
      <trkpt lat="46.63333" lon="5.54235">
        <ele>365.4</ele>
        <time>2022-03-21T14:51:39Z</time>
      </trkpt>
      <trkpt lat="46.6333" lon="5.54234">
        <ele>365.6</ele>
        <time>2022-03-21T14:51:40Z</time>
      </trkpt>
      <trkpt lat="46.63327" lon="5.54234">
        <ele>365.8</ele>
        <time>2022-03-21T14:51:41Z</time>
      </trkpt>
      <trkpt lat="46.63325" lon="5.54233">
        <ele>366</ele>
        <time>2022-03-21T14:51:42Z</time>
      </trkpt>
      <trkpt lat="46.63322" lon="5.54233">
        <ele>366</ele>
        <time>2022-03-21T14:51:43Z</time>
      </trkpt>
      <trkpt lat="46.63319" lon="5.54233">
        <ele>366.2</ele>
        <time>2022-03-21T14:51:44Z</time>
      </trkpt>
      <trkpt lat="46.63317" lon="5.54232">
        <ele>366.2</ele>
        <time>2022-03-21T14:51:45Z</time>
      </trkpt>
      <trkpt lat="46.63314" lon="5.54231">
        <ele>366.6</ele>
        <time>2022-03-21T14:51:46Z</time>
      </trkpt>
      <trkpt lat="46.63311" lon="5.54231">
        <ele>366.6</ele>
        <time>2022-03-21T14:51:47Z</time>
      </trkpt>
      <trkpt lat="46.63308" lon="5.5423">
        <ele>367</ele>
        <time>2022-03-21T14:51:48Z</time>
      </trkpt>
      <trkpt lat="46.63305" lon="5.5423">
        <ele>367</ele>
        <time>2022-03-21T14:51:49Z</time>
      </trkpt>
      <trkpt lat="46.63302" lon="5.5423">
        <ele>367.2</ele>
        <time>2022-03-21T14:51:50Z</time>
      </trkpt>
      <trkpt lat="46.63299" lon="5.54231">
        <ele>367.2</ele>
        <time>2022-03-21T14:51:51Z</time>
      </trkpt>
      <trkpt lat="46.63297" lon="5.54231">
        <ele>367.8</ele>
        <time>2022-03-21T14:51:52Z</time>
      </trkpt>
      <trkpt lat="46.63294" lon="5.54234">
        <ele>367.8</ele>
        <time>2022-03-21T14:51:53Z</time>
      </trkpt>
      <trkpt lat="46.6329" lon="5.54235">
        <ele>368.2</ele>
        <time>2022-03-21T14:51:54Z</time>
      </trkpt>
      <trkpt lat="46.63288" lon="5.54237">
        <ele>368.4</ele>
        <time>2022-03-21T14:51:55Z</time>
      </trkpt>
      <trkpt lat="46.63285" lon="5.54237">
        <ele>368.6</ele>
        <time>2022-03-21T14:51:56Z</time>
      </trkpt>
      <trkpt lat="46.63282" lon="5.54238">
        <ele>368.8</ele>
        <time>2022-03-21T14:51:57Z</time>
      </trkpt>
      <trkpt lat="46.63279" lon="5.54239">
        <ele>369</ele>
        <time>2022-03-21T14:51:58Z</time>
      </trkpt>
      <trkpt lat="46.63276" lon="5.54239">
        <ele>369.4</ele>
        <time>2022-03-21T14:51:59Z</time>
      </trkpt>
      <trkpt lat="46.63273" lon="5.5424">
        <ele>369.6</ele>
        <time>2022-03-21T14:52:00Z</time>
      </trkpt>
      <trkpt lat="46.6327" lon="5.5424">
        <ele>369.8</ele>
        <time>2022-03-21T14:52:01Z</time>
      </trkpt>
      <trkpt lat="46.63268" lon="5.54241">
        <ele>370</ele>
        <time>2022-03-21T14:52:02Z</time>
      </trkpt>
      <trkpt lat="46.63265" lon="5.54242">
        <ele>370.2</ele>
        <time>2022-03-21T14:52:03Z</time>
      </trkpt>
      <trkpt lat="46.63262" lon="5.54243">
        <ele>370.4</ele>
        <time>2022-03-21T14:52:04Z</time>
      </trkpt>
      <trkpt lat="46.63259" lon="5.54243">
        <ele>370.4</ele>
        <time>2022-03-21T14:52:05Z</time>
      </trkpt>
      <trkpt lat="46.63256" lon="5.54243">
        <ele>370.8</ele>
        <time>2022-03-21T14:52:06Z</time>
      </trkpt>
      <trkpt lat="46.63254" lon="5.54242">
        <ele>370.8</ele>
        <time>2022-03-21T14:52:07Z</time>
      </trkpt>
      <trkpt lat="46.63251" lon="5.54242">
        <ele>371</ele>
        <time>2022-03-21T14:52:08Z</time>
      </trkpt>
      <trkpt lat="46.63248" lon="5.5424">
        <ele>371.4</ele>
        <time>2022-03-21T14:52:09Z</time>
      </trkpt>
      <trkpt lat="46.63246" lon="5.54239">
        <ele>371.6</ele>
        <time>2022-03-21T14:52:10Z</time>
      </trkpt>
      <trkpt lat="46.63244" lon="5.54237">
        <ele>371.8</ele>
        <time>2022-03-21T14:52:11Z</time>
      </trkpt>
      <trkpt lat="46.63243" lon="5.54234">
        <ele>371.8</ele>
        <time>2022-03-21T14:52:12Z</time>
      </trkpt>
      <trkpt lat="46.63242" lon="5.54231">
        <ele>372.2</ele>
        <time>2022-03-21T14:52:13Z</time>
      </trkpt>
      <trkpt lat="46.63243" lon="5.54227">
        <ele>372.4</ele>
        <time>2022-03-21T14:52:14Z</time>
      </trkpt>
      <trkpt lat="46.63244" lon="5.54223">
        <ele>372.8</ele>
        <time>2022-03-21T14:52:15Z</time>
      </trkpt>
      <trkpt lat="46.63246" lon="5.54221">
        <ele>373</ele>
        <time>2022-03-21T14:52:16Z</time>
      </trkpt>
      <trkpt lat="46.63249" lon="5.54218">
        <ele>373.2</ele>
        <time>2022-03-21T14:52:17Z</time>
      </trkpt>
      <trkpt lat="46.63251" lon="5.54216">
        <ele>373.8</ele>
        <time>2022-03-21T14:52:18Z</time>
      </trkpt>
      <trkpt lat="46.63253" lon="5.54215">
        <ele>373.8</ele>
        <time>2022-03-21T14:52:19Z</time>
      </trkpt>
      <trkpt lat="46.63256" lon="5.54214">
        <ele>374.2</ele>
        <time>2022-03-21T14:52:20Z</time>
      </trkpt>
      <trkpt lat="46.63259" lon="5.54214">
        <ele>374.4</ele>
        <time>2022-03-21T14:52:21Z</time>
      </trkpt>
      <trkpt lat="46.63261" lon="5.54214">
        <ele>374.4</ele>
        <time>2022-03-21T14:52:22Z</time>
      </trkpt>
      <trkpt lat="46.63264" lon="5.54214">
        <ele>374.8</ele>
        <time>2022-03-21T14:52:23Z</time>
      </trkpt>
      <trkpt lat="46.63267" lon="5.54214">
        <ele>375</ele>
        <time>2022-03-21T14:52:24Z</time>
      </trkpt>
      <trkpt lat="46.6327" lon="5.54213">
        <ele>375</ele>
        <time>2022-03-21T14:52:25Z</time>
      </trkpt>
      <trkpt lat="46.63273" lon="5.54213">
        <ele>375.4</ele>
        <time>2022-03-21T14:52:26Z</time>
      </trkpt>
      <trkpt lat="46.63276" lon="5.54213">
        <ele>375.4</ele>
        <time>2022-03-21T14:52:27Z</time>
      </trkpt>
      <trkpt lat="46.63279" lon="5.54213">
        <ele>375.6</ele>
        <time>2022-03-21T14:52:28Z</time>
      </trkpt>
      <trkpt lat="46.63281" lon="5.54213">
        <ele>375.8</ele>
        <time>2022-03-21T14:52:29Z</time>
      </trkpt>
      <trkpt lat="46.63284" lon="5.54213">
        <ele>375.8</ele>
        <time>2022-03-21T14:52:30Z</time>
      </trkpt>
      <trkpt lat="46.63286" lon="5.54213">
        <ele>376.2</ele>
        <time>2022-03-21T14:52:31Z</time>
      </trkpt>
      <trkpt lat="46.63289" lon="5.54213">
        <ele>376.4</ele>
        <time>2022-03-21T14:52:32Z</time>
      </trkpt>
      <trkpt lat="46.63292" lon="5.54213">
        <ele>376.4</ele>
        <time>2022-03-21T14:52:33Z</time>
      </trkpt>
      <trkpt lat="46.63295" lon="5.54213">
        <ele>376.8</ele>
        <time>2022-03-21T14:52:34Z</time>
      </trkpt>
      <trkpt lat="46.63298" lon="5.54214">
        <ele>376.8</ele>
        <time>2022-03-21T14:52:35Z</time>
      </trkpt>
      <trkpt lat="46.63301" lon="5.54214">
        <ele>377.2</ele>
        <time>2022-03-21T14:52:36Z</time>
      </trkpt>
      <trkpt lat="46.63304" lon="5.54214">
        <ele>377.2</ele>
        <time>2022-03-21T14:52:37Z</time>
      </trkpt>
      <trkpt lat="46.63307" lon="5.54214">
        <ele>377.4</ele>
        <time>2022-03-21T14:52:38Z</time>
      </trkpt>
      <trkpt lat="46.6331" lon="5.54214">
        <ele>377.8</ele>
        <time>2022-03-21T14:52:39Z</time>
      </trkpt>
      <trkpt lat="46.63313" lon="5.54214">
        <ele>377.8</ele>
        <time>2022-03-21T14:52:40Z</time>
      </trkpt>
      <trkpt lat="46.63316" lon="5.54213">
        <ele>378</ele>
        <time>2022-03-21T14:52:41Z</time>
      </trkpt>
      <trkpt lat="46.63318" lon="5.54213">
        <ele>378</ele>
        <time>2022-03-21T14:52:42Z</time>
      </trkpt>
      <trkpt lat="46.63321" lon="5.54213">
        <ele>378.4</ele>
        <time>2022-03-21T14:52:43Z</time>
      </trkpt>
      <trkpt lat="46.63324" lon="5.54213">
        <ele>378.4</ele>
        <time>2022-03-21T14:52:44Z</time>
      </trkpt>
      <trkpt lat="46.63326" lon="5.54213">
        <ele>378.8</ele>
        <time>2022-03-21T14:52:45Z</time>
      </trkpt>
      <trkpt lat="46.63329" lon="5.54212">
        <ele>378.8</ele>
        <time>2022-03-21T14:52:46Z</time>
      </trkpt>
      <trkpt lat="46.63331" lon="5.54212">
        <ele>379</ele>
        <time>2022-03-21T14:52:48Z</time>
      </trkpt>
      <trkpt lat="46.63334" lon="5.54212">
        <ele>379.4</ele>
        <time>2022-03-21T14:52:49Z</time>
      </trkpt>
      <trkpt lat="46.63336" lon="5.54213">
        <ele>379.4</ele>
        <time>2022-03-21T14:52:50Z</time>
      </trkpt>
      <trkpt lat="46.63339" lon="5.54213">
        <ele>379.8</ele>
        <time>2022-03-21T14:52:51Z</time>
      </trkpt>
      <trkpt lat="46.63342" lon="5.54213">
        <ele>379.8</ele>
        <time>2022-03-21T14:52:52Z</time>
      </trkpt>
      <trkpt lat="46.63345" lon="5.54212">
        <ele>380</ele>
        <time>2022-03-21T14:52:53Z</time>
      </trkpt>
      <trkpt lat="46.63347" lon="5.54212">
        <ele>380</ele>
        <time>2022-03-21T14:52:54Z</time>
      </trkpt>
      <trkpt lat="46.6335" lon="5.54211">
        <ele>380.4</ele>
        <time>2022-03-21T14:52:55Z</time>
      </trkpt>
      <trkpt lat="46.63352" lon="5.5421">
        <ele>380.4</ele>
        <time>2022-03-21T14:52:56Z</time>
      </trkpt>
      <trkpt lat="46.63355" lon="5.5421">
        <ele>380.8</ele>
        <time>2022-03-21T14:52:57Z</time>
      </trkpt>
      <trkpt lat="46.63358" lon="5.54209">
        <ele>381</ele>
        <time>2022-03-21T14:52:58Z</time>
      </trkpt>
      <trkpt lat="46.63361" lon="5.54208">
        <ele>381.2</ele>
        <time>2022-03-21T14:52:59Z</time>
      </trkpt>
      <trkpt lat="46.63364" lon="5.54207">
        <ele>381.4</ele>
        <time>2022-03-21T14:53:00Z</time>
      </trkpt>
      <trkpt lat="46.63366" lon="5.54206">
        <ele>381.6</ele>
        <time>2022-03-21T14:53:01Z</time>
      </trkpt>
      <trkpt lat="46.63368" lon="5.54205">
        <ele>381.8</ele>
        <time>2022-03-21T14:53:02Z</time>
      </trkpt>
      <trkpt lat="46.63371" lon="5.54204">
        <ele>382.2</ele>
        <time>2022-03-21T14:53:03Z</time>
      </trkpt>
      <trkpt lat="46.63373" lon="5.54202">
        <ele>382.4</ele>
        <time>2022-03-21T14:53:04Z</time>
      </trkpt>
      <trkpt lat="46.63376" lon="5.54201">
        <ele>382.4</ele>
        <time>2022-03-21T14:53:05Z</time>
      </trkpt>
      <trkpt lat="46.63378" lon="5.542">
        <ele>382.8</ele>
        <time>2022-03-21T14:53:06Z</time>
      </trkpt>
      <trkpt lat="46.6338" lon="5.54199">
        <ele>383</ele>
        <time>2022-03-21T14:53:07Z</time>
      </trkpt>
      <trkpt lat="46.63382" lon="5.54197">
        <ele>383</ele>
        <time>2022-03-21T14:53:08Z</time>
      </trkpt>
      <trkpt lat="46.63385" lon="5.54196">
        <ele>383.4</ele>
        <time>2022-03-21T14:53:09Z</time>
      </trkpt>
      <trkpt lat="46.63387" lon="5.54194">
        <ele>383.4</ele>
        <time>2022-03-21T14:53:10Z</time>
      </trkpt>
      <trkpt lat="46.63389" lon="5.54192">
        <ele>383.8</ele>
        <time>2022-03-21T14:53:11Z</time>
      </trkpt>
      <trkpt lat="46.63392" lon="5.5419">
        <ele>383.8</ele>
        <time>2022-03-21T14:53:12Z</time>
      </trkpt>
      <trkpt lat="46.63395" lon="5.54187">
        <ele>384.2</ele>
        <time>2022-03-21T14:53:13Z</time>
      </trkpt>
      <trkpt lat="46.63398" lon="5.54185">
        <ele>384.2</ele>
        <time>2022-03-21T14:53:14Z</time>
      </trkpt>
      <trkpt lat="46.634" lon="5.54183">
        <ele>384.4</ele>
        <time>2022-03-21T14:53:15Z</time>
      </trkpt>
      <trkpt lat="46.63403" lon="5.54181">
        <ele>384.4</ele>
        <time>2022-03-21T14:53:16Z</time>
      </trkpt>
      <trkpt lat="46.63405" lon="5.54179">
        <ele>384.8</ele>
        <time>2022-03-21T14:53:17Z</time>
      </trkpt>
      <trkpt lat="46.63408" lon="5.54177">
        <ele>384.8</ele>
        <time>2022-03-21T14:53:18Z</time>
      </trkpt>
      <trkpt lat="46.63409" lon="5.54176">
        <ele>385.2</ele>
        <time>2022-03-21T14:53:19Z</time>
      </trkpt>
      <trkpt lat="46.63412" lon="5.54174">
        <ele>385.2</ele>
        <time>2022-03-21T14:53:20Z</time>
      </trkpt>
      <trkpt lat="46.63413" lon="5.54172">
        <ele>385.6</ele>
        <time>2022-03-21T14:53:21Z</time>
      </trkpt>
      <trkpt lat="46.63415" lon="5.5417">
        <ele>385.6</ele>
        <time>2022-03-21T14:53:22Z</time>
      </trkpt>
      <trkpt lat="46.63417" lon="5.54168">
        <ele>385.8</ele>
        <time>2022-03-21T14:53:23Z</time>
      </trkpt>
      <trkpt lat="46.63419" lon="5.54166">
        <ele>385.8</ele>
        <time>2022-03-21T14:53:24Z</time>
      </trkpt>
      <trkpt lat="46.63421" lon="5.54163">
        <ele>386.2</ele>
        <time>2022-03-21T14:53:25Z</time>
      </trkpt>
      <trkpt lat="46.63424" lon="5.54161">
        <ele>386.2</ele>
        <time>2022-03-21T14:53:26Z</time>
      </trkpt>
      <trkpt lat="46.63427" lon="5.54159">
        <ele>386.6</ele>
        <time>2022-03-21T14:53:27Z</time>
      </trkpt>
      <trkpt lat="46.63429" lon="5.54157">
        <ele>386.8</ele>
        <time>2022-03-21T14:53:28Z</time>
      </trkpt>
      <trkpt lat="46.63432" lon="5.54155">
        <ele>386.8</ele>
        <time>2022-03-21T14:53:29Z</time>
      </trkpt>
      <trkpt lat="46.63434" lon="5.54153">
        <ele>387.2</ele>
        <time>2022-03-21T14:53:30Z</time>
      </trkpt>
      <trkpt lat="46.63437" lon="5.54151">
        <ele>387.4</ele>
        <time>2022-03-21T14:53:31Z</time>
      </trkpt>
      <trkpt lat="46.6344" lon="5.54148">
        <ele>387.4</ele>
        <time>2022-03-21T14:53:32Z</time>
      </trkpt>
      <trkpt lat="46.63442" lon="5.54146">
        <ele>387.8</ele>
        <time>2022-03-21T14:53:33Z</time>
      </trkpt>
      <trkpt lat="46.63445" lon="5.54144">
        <ele>388</ele>
        <time>2022-03-21T14:53:34Z</time>
      </trkpt>
      <trkpt lat="46.63447" lon="5.54142">
        <ele>388</ele>
        <time>2022-03-21T14:53:35Z</time>
      </trkpt>
      <trkpt lat="46.63451" lon="5.5414">
        <ele>388.4</ele>
        <time>2022-03-21T14:53:36Z</time>
      </trkpt>
      <trkpt lat="46.63453" lon="5.54139">
        <ele>388.4</ele>
        <time>2022-03-21T14:53:37Z</time>
      </trkpt>
      <trkpt lat="46.63455" lon="5.54137">
        <ele>388.8</ele>
        <time>2022-03-21T14:53:38Z</time>
      </trkpt>
      <trkpt lat="46.63457" lon="5.54135">
        <ele>389</ele>
        <time>2022-03-21T14:53:39Z</time>
      </trkpt>
      <trkpt lat="46.6346" lon="5.54133">
        <ele>389</ele>
        <time>2022-03-21T14:53:40Z</time>
      </trkpt>
      <trkpt lat="46.63462" lon="5.54131">
        <ele>389.4</ele>
        <time>2022-03-21T14:53:41Z</time>
      </trkpt>
      <trkpt lat="46.63464" lon="5.54129">
        <ele>389.6</ele>
        <time>2022-03-21T14:53:42Z</time>
      </trkpt>
      <trkpt lat="46.63466" lon="5.54127">
        <ele>389.8</ele>
        <time>2022-03-21T14:53:43Z</time>
      </trkpt>
      <trkpt lat="46.63468" lon="5.54124">
        <ele>389.8</ele>
        <time>2022-03-21T14:53:44Z</time>
      </trkpt>
      <trkpt lat="46.6347" lon="5.54122">
        <ele>390.2</ele>
        <time>2022-03-21T14:53:45Z</time>
      </trkpt>
      <trkpt lat="46.63472" lon="5.5412">
        <ele>390.2</ele>
        <time>2022-03-21T14:53:46Z</time>
      </trkpt>
      <trkpt lat="46.63474" lon="5.54118">
        <ele>390.4</ele>
        <time>2022-03-21T14:53:47Z</time>
      </trkpt>
      <trkpt lat="46.63476" lon="5.54116">
        <ele>390.4</ele>
        <time>2022-03-21T14:53:48Z</time>
      </trkpt>
      <trkpt lat="46.63479" lon="5.54114">
        <ele>390.8</ele>
        <time>2022-03-21T14:53:49Z</time>
      </trkpt>
      <trkpt lat="46.63481" lon="5.54112">
        <ele>390.8</ele>
        <time>2022-03-21T14:53:50Z</time>
      </trkpt>
      <trkpt lat="46.63483" lon="5.5411">
        <ele>391.2</ele>
        <time>2022-03-21T14:53:51Z</time>
      </trkpt>
      <trkpt lat="46.63484" lon="5.54107">
        <ele>391.2</ele>
        <time>2022-03-21T14:53:52Z</time>
      </trkpt>
      <trkpt lat="46.63487" lon="5.54106">
        <ele>391.4</ele>
        <time>2022-03-21T14:53:53Z</time>
      </trkpt>
      <trkpt lat="46.63489" lon="5.54104">
        <ele>391.4</ele>
        <time>2022-03-21T14:53:54Z</time>
      </trkpt>
      <trkpt lat="46.63491" lon="5.54103">
        <ele>391.8</ele>
        <time>2022-03-21T14:53:55Z</time>
      </trkpt>
      <trkpt lat="46.63494" lon="5.54102">
        <ele>391.8</ele>
        <time>2022-03-21T14:53:56Z</time>
      </trkpt>
      <trkpt lat="46.63496" lon="5.541">
        <ele>392.2</ele>
        <time>2022-03-21T14:53:57Z</time>
      </trkpt>
      <trkpt lat="46.63498" lon="5.54099">
        <ele>392.2</ele>
        <time>2022-03-21T14:53:58Z</time>
      </trkpt>
      <trkpt lat="46.635" lon="5.54097">
        <ele>392.4</ele>
        <time>2022-03-21T14:53:59Z</time>
      </trkpt>
      <trkpt lat="46.63502" lon="5.54095">
        <ele>392.4</ele>
        <time>2022-03-21T14:54:00Z</time>
      </trkpt>
      <trkpt lat="46.63504" lon="5.54094">
        <ele>392.8</ele>
        <time>2022-03-21T14:54:01Z</time>
      </trkpt>
      <trkpt lat="46.63507" lon="5.54093">
        <ele>393</ele>
        <time>2022-03-21T14:54:02Z</time>
      </trkpt>
      <trkpt lat="46.63509" lon="5.54091">
        <ele>393.4</ele>
        <time>2022-03-21T14:54:03Z</time>
      </trkpt>
      <trkpt lat="46.63511" lon="5.5409">
        <ele>393.4</ele>
        <time>2022-03-21T14:54:04Z</time>
      </trkpt>
      <trkpt lat="46.63516" lon="5.54088">
        <ele>393.6</ele>
        <time>2022-03-21T14:54:05Z</time>
      </trkpt>
      <trkpt lat="46.63518" lon="5.54087">
        <ele>393.8</ele>
        <time>2022-03-21T14:54:06Z</time>
      </trkpt>
      <trkpt lat="46.63521" lon="5.54086">
        <ele>394</ele>
        <time>2022-03-21T14:54:07Z</time>
      </trkpt>
      <trkpt lat="46.63524" lon="5.54085">
        <ele>394.4</ele>
        <time>2022-03-21T14:54:08Z</time>
      </trkpt>
      <trkpt lat="46.63529" lon="5.54083">
        <ele>394.6</ele>
        <time>2022-03-21T14:54:09Z</time>
      </trkpt>
      <trkpt lat="46.63531" lon="5.54082">
        <ele>394.6</ele>
        <time>2022-03-21T14:54:10Z</time>
      </trkpt>
      <trkpt lat="46.63534" lon="5.5408">
        <ele>395</ele>
        <time>2022-03-21T14:54:11Z</time>
      </trkpt>
      <trkpt lat="46.63539" lon="5.5408">
        <ele>395.2</ele>
        <time>2022-03-21T14:54:12Z</time>
      </trkpt>
      <trkpt lat="46.63542" lon="5.54079">
        <ele>395.2</ele>
        <time>2022-03-21T14:54:13Z</time>
      </trkpt>
      <trkpt lat="46.63545" lon="5.54078">
        <ele>395.4</ele>
        <time>2022-03-21T14:54:14Z</time>
      </trkpt>
      <trkpt lat="46.63547" lon="5.54077">
        <ele>395.4</ele>
        <time>2022-03-21T14:54:15Z</time>
      </trkpt>
      <trkpt lat="46.63549" lon="5.54076">
        <ele>395.8</ele>
        <time>2022-03-21T14:54:16Z</time>
      </trkpt>
      <trkpt lat="46.63551" lon="5.54075">
        <ele>396.2</ele>
        <time>2022-03-21T14:54:17Z</time>
      </trkpt>
      <trkpt lat="46.63555" lon="5.54074">
        <ele>396.2</ele>
        <time>2022-03-21T14:54:18Z</time>
      </trkpt>
      <trkpt lat="46.63559" lon="5.54074">
        <ele>396.6</ele>
        <time>2022-03-21T14:54:19Z</time>
      </trkpt>
      <trkpt lat="46.63561" lon="5.54072">
        <ele>396.6</ele>
        <time>2022-03-21T14:54:20Z</time>
      </trkpt>
      <trkpt lat="46.63564" lon="5.54071">
        <ele>396.8</ele>
        <time>2022-03-21T14:54:21Z</time>
      </trkpt>
      <trkpt lat="46.6357" lon="5.5407">
        <ele>396.8</ele>
        <time>2022-03-21T14:54:22Z</time>
      </trkpt>
      <trkpt lat="46.63573" lon="5.54069">
        <ele>397.2</ele>
        <time>2022-03-21T14:54:23Z</time>
      </trkpt>
      <trkpt lat="46.63577" lon="5.54069">
        <ele>397.6</ele>
        <time>2022-03-21T14:54:24Z</time>
      </trkpt>
      <trkpt lat="46.63579" lon="5.54068">
        <ele>397.6</ele>
        <time>2022-03-21T14:54:25Z</time>
      </trkpt>
      <trkpt lat="46.63582" lon="5.54067">
        <ele>398</ele>
        <time>2022-03-21T14:54:26Z</time>
      </trkpt>
      <trkpt lat="46.63585" lon="5.54066">
        <ele>398</ele>
        <time>2022-03-21T14:54:27Z</time>
      </trkpt>
      <trkpt lat="46.63588" lon="5.54065">
        <ele>398.2</ele>
        <time>2022-03-21T14:54:28Z</time>
      </trkpt>
      <trkpt lat="46.6359" lon="5.54063">
        <ele>398.2</ele>
        <time>2022-03-21T14:54:29Z</time>
      </trkpt>
      <trkpt lat="46.63593" lon="5.54062">
        <ele>398.4</ele>
        <time>2022-03-21T14:54:30Z</time>
      </trkpt>
      <trkpt lat="46.63596" lon="5.54061">
        <ele>398.4</ele>
        <time>2022-03-21T14:54:31Z</time>
      </trkpt>
      <trkpt lat="46.636" lon="5.5406">
        <ele>398.8</ele>
        <time>2022-03-21T14:54:32Z</time>
      </trkpt>
      <trkpt lat="46.63603" lon="5.5406">
        <ele>398.8</ele>
        <time>2022-03-21T14:54:33Z</time>
      </trkpt>
      <trkpt lat="46.63606" lon="5.54059">
        <ele>399.2</ele>
        <time>2022-03-21T14:54:34Z</time>
      </trkpt>
      <trkpt lat="46.63608" lon="5.54058">
        <ele>399.4</ele>
        <time>2022-03-21T14:54:35Z</time>
      </trkpt>
      <trkpt lat="46.6361" lon="5.54057">
        <ele>399.4</ele>
        <time>2022-03-21T14:54:36Z</time>
      </trkpt>
      <trkpt lat="46.63613" lon="5.54055">
        <ele>399.8</ele>
        <time>2022-03-21T14:54:37Z</time>
      </trkpt>
      <trkpt lat="46.63616" lon="5.54054">
        <ele>399.8</ele>
        <time>2022-03-21T14:54:38Z</time>
      </trkpt>
      <trkpt lat="46.63619" lon="5.54053">
        <ele>400</ele>
        <time>2022-03-21T14:54:39Z</time>
      </trkpt>
      <trkpt lat="46.63621" lon="5.54051">
        <ele>400</ele>
        <time>2022-03-21T14:54:40Z</time>
      </trkpt>
      <trkpt lat="46.63625" lon="5.5405">
        <ele>400.2</ele>
        <time>2022-03-21T14:54:41Z</time>
      </trkpt>
      <trkpt lat="46.63627" lon="5.54048">
        <ele>400.2</ele>
        <time>2022-03-21T14:54:42Z</time>
      </trkpt>
      <trkpt lat="46.6363" lon="5.54047">
        <ele>400.6</ele>
        <time>2022-03-21T14:54:43Z</time>
      </trkpt>
      <trkpt lat="46.63633" lon="5.54046">
        <ele>400.8</ele>
        <time>2022-03-21T14:54:44Z</time>
      </trkpt>
      <trkpt lat="46.63636" lon="5.54045">
        <ele>400.8</ele>
        <time>2022-03-21T14:54:45Z</time>
      </trkpt>
      <trkpt lat="46.63638" lon="5.54044">
        <ele>401.2</ele>
        <time>2022-03-21T14:54:46Z</time>
      </trkpt>
      <trkpt lat="46.63642" lon="5.54042">
        <ele>401.4</ele>
        <time>2022-03-21T14:54:47Z</time>
      </trkpt>
      <trkpt lat="46.63645" lon="5.54041">
        <ele>401.4</ele>
        <time>2022-03-21T14:54:48Z</time>
      </trkpt>
      <trkpt lat="46.63648" lon="5.54039">
        <ele>401.6</ele>
        <time>2022-03-21T14:54:49Z</time>
      </trkpt>
      <trkpt lat="46.63651" lon="5.54038">
        <ele>401.8</ele>
        <time>2022-03-21T14:54:50Z</time>
      </trkpt>
      <trkpt lat="46.63654" lon="5.54036">
        <ele>401.8</ele>
        <time>2022-03-21T14:54:51Z</time>
      </trkpt>
      <trkpt lat="46.63656" lon="5.54034">
        <ele>402</ele>
        <time>2022-03-21T14:54:52Z</time>
      </trkpt>
      <trkpt lat="46.63658" lon="5.54031">
        <ele>402</ele>
        <time>2022-03-21T14:54:53Z</time>
      </trkpt>
      <trkpt lat="46.6366" lon="5.54028">
        <ele>402.2</ele>
        <time>2022-03-21T14:54:54Z</time>
      </trkpt>
      <trkpt lat="46.63662" lon="5.54025">
        <ele>402.2</ele>
        <time>2022-03-21T14:54:55Z</time>
      </trkpt>
      <trkpt lat="46.63664" lon="5.54021">
        <ele>402.2</ele>
        <time>2022-03-21T14:54:56Z</time>
      </trkpt>
      <trkpt lat="46.63664" lon="5.54016">
        <ele>402.2</ele>
        <time>2022-03-21T14:54:57Z</time>
      </trkpt>
      <trkpt lat="46.63665" lon="5.5401">
        <ele>402.6</ele>
        <time>2022-03-21T14:54:58Z</time>
      </trkpt>
      <trkpt lat="46.63665" lon="5.54005">
        <ele>402.6</ele>
        <time>2022-03-21T14:54:59Z</time>
      </trkpt>
      <trkpt lat="46.63664" lon="5.54001">
        <ele>402.6</ele>
        <time>2022-03-21T14:55:00Z</time>
      </trkpt>
      <trkpt lat="46.63662" lon="5.53996">
        <ele>402.8</ele>
        <time>2022-03-21T14:55:01Z</time>
      </trkpt>
      <trkpt lat="46.63661" lon="5.53991">
        <ele>402.8</ele>
        <time>2022-03-21T14:55:02Z</time>
      </trkpt>
      <trkpt lat="46.63659" lon="5.53987">
        <ele>402.8</ele>
        <time>2022-03-21T14:55:03Z</time>
      </trkpt>
      <trkpt lat="46.63657" lon="5.53984">
        <ele>402.8</ele>
        <time>2022-03-21T14:55:04Z</time>
      </trkpt>
      <trkpt lat="46.63654" lon="5.5398">
        <ele>403</ele>
        <time>2022-03-21T14:55:05Z</time>
      </trkpt>
      <trkpt lat="46.63652" lon="5.53977">
        <ele>403</ele>
        <time>2022-03-21T14:55:06Z</time>
      </trkpt>
      <trkpt lat="46.63649" lon="5.53973">
        <ele>403.2</ele>
        <time>2022-03-21T14:55:07Z</time>
      </trkpt>
      <trkpt lat="46.63647" lon="5.5397">
        <ele>403.2</ele>
        <time>2022-03-21T14:55:08Z</time>
      </trkpt>
      <trkpt lat="46.63645" lon="5.53966">
        <ele>403.4</ele>
        <time>2022-03-21T14:55:09Z</time>
      </trkpt>
      <trkpt lat="46.63642" lon="5.53962">
        <ele>403.4</ele>
        <time>2022-03-21T14:55:10Z</time>
      </trkpt>
      <trkpt lat="46.6364" lon="5.53959">
        <ele>403.8</ele>
        <time>2022-03-21T14:55:11Z</time>
      </trkpt>
      <trkpt lat="46.63637" lon="5.53955">
        <ele>403.8</ele>
        <time>2022-03-21T14:55:12Z</time>
      </trkpt>
      <trkpt lat="46.63635" lon="5.53952">
        <ele>403.8</ele>
        <time>2022-03-21T14:55:13Z</time>
      </trkpt>
      <trkpt lat="46.63632" lon="5.53948">
        <ele>404</ele>
        <time>2022-03-21T14:55:14Z</time>
      </trkpt>
      <trkpt lat="46.63629" lon="5.53945">
        <ele>404.2</ele>
        <time>2022-03-21T14:55:15Z</time>
      </trkpt>
      <trkpt lat="46.63627" lon="5.53941">
        <ele>404.2</ele>
        <time>2022-03-21T14:55:16Z</time>
      </trkpt>
      <trkpt lat="46.63624" lon="5.53937">
        <ele>404.2</ele>
        <time>2022-03-21T14:55:17Z</time>
      </trkpt>
      <trkpt lat="46.63622" lon="5.53933">
        <ele>404.2</ele>
        <time>2022-03-21T14:55:18Z</time>
      </trkpt>
      <trkpt lat="46.63619" lon="5.53929">
        <ele>404.4</ele>
        <time>2022-03-21T14:55:19Z</time>
      </trkpt>
      <trkpt lat="46.63616" lon="5.53925">
        <ele>404.4</ele>
        <time>2022-03-21T14:55:20Z</time>
      </trkpt>
      <trkpt lat="46.63614" lon="5.53921">
        <ele>404.8</ele>
        <time>2022-03-21T14:55:21Z</time>
      </trkpt>
      <trkpt lat="46.63611" lon="5.53917">
        <ele>404.8</ele>
        <time>2022-03-21T14:55:22Z</time>
      </trkpt>
      <trkpt lat="46.63608" lon="5.53913">
        <ele>405</ele>
        <time>2022-03-21T14:55:23Z</time>
      </trkpt>
      <trkpt lat="46.63605" lon="5.53909">
        <ele>405</ele>
        <time>2022-03-21T14:55:24Z</time>
      </trkpt>
      <trkpt lat="46.63603" lon="5.53905">
        <ele>405.2</ele>
        <time>2022-03-21T14:55:25Z</time>
      </trkpt>
      <trkpt lat="46.636" lon="5.539">
        <ele>405.2</ele>
        <time>2022-03-21T14:55:26Z</time>
      </trkpt>
      <trkpt lat="46.63597" lon="5.53896">
        <ele>405.2</ele>
        <time>2022-03-21T14:55:27Z</time>
      </trkpt>
      <trkpt lat="46.63594" lon="5.53891">
        <ele>405.2</ele>
        <time>2022-03-21T14:55:28Z</time>
      </trkpt>
      <trkpt lat="46.63591" lon="5.53887">
        <ele>405.4</ele>
        <time>2022-03-21T14:55:29Z</time>
      </trkpt>
      <trkpt lat="46.63589" lon="5.53883">
        <ele>405.4</ele>
        <time>2022-03-21T14:55:30Z</time>
      </trkpt>
      <trkpt lat="46.63586" lon="5.53878">
        <ele>405.6</ele>
        <time>2022-03-21T14:55:31Z</time>
      </trkpt>
      <trkpt lat="46.63583" lon="5.53874">
        <ele>405.6</ele>
        <time>2022-03-21T14:55:32Z</time>
      </trkpt>
      <trkpt lat="46.63581" lon="5.5387">
        <ele>406</ele>
        <time>2022-03-21T14:55:33Z</time>
      </trkpt>
      <trkpt lat="46.63578" lon="5.53865">
        <ele>406</ele>
        <time>2022-03-21T14:55:34Z</time>
      </trkpt>
      <trkpt lat="46.63575" lon="5.53861">
        <ele>406.2</ele>
        <time>2022-03-21T14:55:35Z</time>
      </trkpt>
      <trkpt lat="46.63572" lon="5.53857">
        <ele>406.2</ele>
        <time>2022-03-21T14:55:36Z</time>
      </trkpt>
      <trkpt lat="46.63569" lon="5.53853">
        <ele>406.6</ele>
        <time>2022-03-21T14:55:37Z</time>
      </trkpt>
      <trkpt lat="46.63566" lon="5.53848">
        <ele>406.6</ele>
        <time>2022-03-21T14:55:38Z</time>
      </trkpt>
      <trkpt lat="46.63563" lon="5.53844">
        <ele>406.8</ele>
        <time>2022-03-21T14:55:39Z</time>
      </trkpt>
      <trkpt lat="46.6356" lon="5.5384">
        <ele>406.8</ele>
        <time>2022-03-21T14:55:40Z</time>
      </trkpt>
      <trkpt lat="46.63557" lon="5.53836">
        <ele>407</ele>
        <time>2022-03-21T14:55:41Z</time>
      </trkpt>
      <trkpt lat="46.63554" lon="5.53832">
        <ele>407</ele>
        <time>2022-03-21T14:55:42Z</time>
      </trkpt>
      <trkpt lat="46.63551" lon="5.53828">
        <ele>407.4</ele>
        <time>2022-03-21T14:55:43Z</time>
      </trkpt>
      <trkpt lat="46.63548" lon="5.53824">
        <ele>407.4</ele>
        <time>2022-03-21T14:55:44Z</time>
      </trkpt>
      <trkpt lat="46.63545" lon="5.53821">
        <ele>407.6</ele>
        <time>2022-03-21T14:55:45Z</time>
      </trkpt>
      <trkpt lat="46.63542" lon="5.53818">
        <ele>407.6</ele>
        <time>2022-03-21T14:55:46Z</time>
      </trkpt>
      <trkpt lat="46.63538" lon="5.53814">
        <ele>407.8</ele>
        <time>2022-03-21T14:55:47Z</time>
      </trkpt>
      <trkpt lat="46.63535" lon="5.53811">
        <ele>407.8</ele>
        <time>2022-03-21T14:55:48Z</time>
      </trkpt>
      <trkpt lat="46.63532" lon="5.53808">
        <ele>407.8</ele>
        <time>2022-03-21T14:55:49Z</time>
      </trkpt>
      <trkpt lat="46.63528" lon="5.53805">
        <ele>408.2</ele>
        <time>2022-03-21T14:55:50Z</time>
      </trkpt>
      <trkpt lat="46.63525" lon="5.53802">
        <ele>408.2</ele>
        <time>2022-03-21T14:55:51Z</time>
      </trkpt>
      <trkpt lat="46.63522" lon="5.538">
        <ele>408.6</ele>
        <time>2022-03-21T14:55:52Z</time>
      </trkpt>
      <trkpt lat="46.63518" lon="5.53798">
        <ele>408.6</ele>
        <time>2022-03-21T14:55:53Z</time>
      </trkpt>
      <trkpt lat="46.63515" lon="5.53796">
        <ele>408.8</ele>
        <time>2022-03-21T14:55:54Z</time>
      </trkpt>
      <trkpt lat="46.63512" lon="5.53794">
        <ele>408.8</ele>
        <time>2022-03-21T14:55:55Z</time>
      </trkpt>
      <trkpt lat="46.63509" lon="5.53792">
        <ele>409.2</ele>
        <time>2022-03-21T14:55:56Z</time>
      </trkpt>
      <trkpt lat="46.63505" lon="5.5379">
        <ele>409.6</ele>
        <time>2022-03-21T14:55:57Z</time>
      </trkpt>
      <trkpt lat="46.63502" lon="5.53788">
        <ele>409.6</ele>
        <time>2022-03-21T14:55:58Z</time>
      </trkpt>
      <trkpt lat="46.63499" lon="5.53786">
        <ele>410</ele>
        <time>2022-03-21T14:55:59Z</time>
      </trkpt>
      <trkpt lat="46.63495" lon="5.53784">
        <ele>410.2</ele>
        <time>2022-03-21T14:56:00Z</time>
      </trkpt>
      <trkpt lat="46.63492" lon="5.53782">
        <ele>410.2</ele>
        <time>2022-03-21T14:56:01Z</time>
      </trkpt>
      <trkpt lat="46.63489" lon="5.5378">
        <ele>410.4</ele>
        <time>2022-03-21T14:56:02Z</time>
      </trkpt>
      <trkpt lat="46.63485" lon="5.53778">
        <ele>410.4</ele>
        <time>2022-03-21T14:56:03Z</time>
      </trkpt>
      <trkpt lat="46.63482" lon="5.53776">
        <ele>410.8</ele>
        <time>2022-03-21T14:56:04Z</time>
      </trkpt>
      <trkpt lat="46.63479" lon="5.53774">
        <ele>410.8</ele>
        <time>2022-03-21T14:56:05Z</time>
      </trkpt>
      <trkpt lat="46.63476" lon="5.53772">
        <ele>411.2</ele>
        <time>2022-03-21T14:56:06Z</time>
      </trkpt>
      <trkpt lat="46.63472" lon="5.53769">
        <ele>411.4</ele>
        <time>2022-03-21T14:56:07Z</time>
      </trkpt>
      <trkpt lat="46.63469" lon="5.53767">
        <ele>411.8</ele>
        <time>2022-03-21T14:56:08Z</time>
      </trkpt>
      <trkpt lat="46.63466" lon="5.53765">
        <ele>412</ele>
        <time>2022-03-21T14:56:09Z</time>
      </trkpt>
      <trkpt lat="46.63463" lon="5.53763">
        <ele>412.2</ele>
        <time>2022-03-21T14:56:10Z</time>
      </trkpt>
      <trkpt lat="46.63459" lon="5.53761">
        <ele>412.4</ele>
        <time>2022-03-21T14:56:11Z</time>
      </trkpt>
      <trkpt lat="46.63456" lon="5.53759">
        <ele>412.6</ele>
        <time>2022-03-21T14:56:12Z</time>
      </trkpt>
      <trkpt lat="46.63453" lon="5.53757">
        <ele>412.8</ele>
        <time>2022-03-21T14:56:13Z</time>
      </trkpt>
      <trkpt lat="46.6345" lon="5.53755">
        <ele>413.2</ele>
        <time>2022-03-21T14:56:15Z</time>
      </trkpt>
      <trkpt lat="46.63446" lon="5.53753">
        <ele>413.2</ele>
        <time>2022-03-21T14:56:16Z</time>
      </trkpt>
      <trkpt lat="46.63443" lon="5.5375">
        <ele>413.4</ele>
        <time>2022-03-21T14:56:17Z</time>
      </trkpt>
      <trkpt lat="46.63439" lon="5.53748">
        <ele>413.8</ele>
        <time>2022-03-21T14:56:18Z</time>
      </trkpt>
      <trkpt lat="46.63436" lon="5.53746">
        <ele>414</ele>
        <time>2022-03-21T14:56:19Z</time>
      </trkpt>
      <trkpt lat="46.63433" lon="5.53744">
        <ele>414</ele>
        <time>2022-03-21T14:56:20Z</time>
      </trkpt>
      <trkpt lat="46.6343" lon="5.53741">
        <ele>414.2</ele>
        <time>2022-03-21T14:56:21Z</time>
      </trkpt>
      <trkpt lat="46.63427" lon="5.53739">
        <ele>414.4</ele>
        <time>2022-03-21T14:56:22Z</time>
      </trkpt>
      <trkpt lat="46.63424" lon="5.53737">
        <ele>414.4</ele>
        <time>2022-03-21T14:56:23Z</time>
      </trkpt>
      <trkpt lat="46.6342" lon="5.53734">
        <ele>414.8</ele>
        <time>2022-03-21T14:56:24Z</time>
      </trkpt>
      <trkpt lat="46.63417" lon="5.53732">
        <ele>414.8</ele>
        <time>2022-03-21T14:56:25Z</time>
      </trkpt>
      <trkpt lat="46.63414" lon="5.5373">
        <ele>415.2</ele>
        <time>2022-03-21T14:56:26Z</time>
      </trkpt>
      <trkpt lat="46.63411" lon="5.53728">
        <ele>415.2</ele>
        <time>2022-03-21T14:56:27Z</time>
      </trkpt>
      <trkpt lat="46.63408" lon="5.53725">
        <ele>415.6</ele>
        <time>2022-03-21T14:56:28Z</time>
      </trkpt>
      <trkpt lat="46.63405" lon="5.53723">
        <ele>415.6</ele>
        <time>2022-03-21T14:56:29Z</time>
      </trkpt>
      <trkpt lat="46.63402" lon="5.5372">
        <ele>415.8</ele>
        <time>2022-03-21T14:56:30Z</time>
      </trkpt>
      <trkpt lat="46.63399" lon="5.53717">
        <ele>415.8</ele>
        <time>2022-03-21T14:56:31Z</time>
      </trkpt>
      <trkpt lat="46.63396" lon="5.53715">
        <ele>416.2</ele>
        <time>2022-03-21T14:56:32Z</time>
      </trkpt>
      <trkpt lat="46.63393" lon="5.53712">
        <ele>416.2</ele>
        <time>2022-03-21T14:56:33Z</time>
      </trkpt>
      <trkpt lat="46.6339" lon="5.5371">
        <ele>416.6</ele>
        <time>2022-03-21T14:56:34Z</time>
      </trkpt>
      <trkpt lat="46.63387" lon="5.53707">
        <ele>416.8</ele>
        <time>2022-03-21T14:56:35Z</time>
      </trkpt>
      <trkpt lat="46.63384" lon="5.53704">
        <ele>417</ele>
        <time>2022-03-21T14:56:36Z</time>
      </trkpt>
      <trkpt lat="46.63381" lon="5.53702">
        <ele>417</ele>
        <time>2022-03-21T14:56:37Z</time>
      </trkpt>
      <trkpt lat="46.63379" lon="5.53699">
        <ele>417.4</ele>
        <time>2022-03-21T14:56:38Z</time>
      </trkpt>
      <trkpt lat="46.63376" lon="5.53696">
        <ele>417.4</ele>
        <time>2022-03-21T14:56:39Z</time>
      </trkpt>
      <trkpt lat="46.63373" lon="5.53693">
        <ele>417.6</ele>
        <time>2022-03-21T14:56:40Z</time>
      </trkpt>
      <trkpt lat="46.6337" lon="5.5369">
        <ele>417.6</ele>
        <time>2022-03-21T14:56:41Z</time>
      </trkpt>
      <trkpt lat="46.63367" lon="5.53687">
        <ele>418</ele>
        <time>2022-03-21T14:56:42Z</time>
      </trkpt>
      <trkpt lat="46.63364" lon="5.53684">
        <ele>418.2</ele>
        <time>2022-03-21T14:56:43Z</time>
      </trkpt>
      <trkpt lat="46.63361" lon="5.53681">
        <ele>418.4</ele>
        <time>2022-03-21T14:56:44Z</time>
      </trkpt>
      <trkpt lat="46.63358" lon="5.53678">
        <ele>418.4</ele>
        <time>2022-03-21T14:56:45Z</time>
      </trkpt>
      <trkpt lat="46.63355" lon="5.53675">
        <ele>418.8</ele>
        <time>2022-03-21T14:56:46Z</time>
      </trkpt>
      <trkpt lat="46.63352" lon="5.53673">
        <ele>418.8</ele>
        <time>2022-03-21T14:56:47Z</time>
      </trkpt>
      <trkpt lat="46.63349" lon="5.5367">
        <ele>419.2</ele>
        <time>2022-03-21T14:56:48Z</time>
      </trkpt>
      <trkpt lat="46.63347" lon="5.53667">
        <ele>419.2</ele>
        <time>2022-03-21T14:56:49Z</time>
      </trkpt>
      <trkpt lat="46.63344" lon="5.53665">
        <ele>419.6</ele>
        <time>2022-03-21T14:56:50Z</time>
      </trkpt>
      <trkpt lat="46.63342" lon="5.53662">
        <ele>419.8</ele>
        <time>2022-03-21T14:56:51Z</time>
      </trkpt>
      <trkpt lat="46.63339" lon="5.53659">
        <ele>419.8</ele>
        <time>2022-03-21T14:56:52Z</time>
      </trkpt>
      <trkpt lat="46.63337" lon="5.53656">
        <ele>420.2</ele>
        <time>2022-03-21T14:56:53Z</time>
      </trkpt>
      <trkpt lat="46.63334" lon="5.53654">
        <ele>420.2</ele>
        <time>2022-03-21T14:56:54Z</time>
      </trkpt>
      <trkpt lat="46.63331" lon="5.53651">
        <ele>420.4</ele>
        <time>2022-03-21T14:56:55Z</time>
      </trkpt>
      <trkpt lat="46.63328" lon="5.53648">
        <ele>420.6</ele>
        <time>2022-03-21T14:56:56Z</time>
      </trkpt>
      <trkpt lat="46.63326" lon="5.53645">
        <ele>421</ele>
        <time>2022-03-21T14:56:57Z</time>
      </trkpt>
      <trkpt lat="46.63323" lon="5.53643">
        <ele>421</ele>
        <time>2022-03-21T14:56:58Z</time>
      </trkpt>
      <trkpt lat="46.63321" lon="5.5364">
        <ele>421.4</ele>
        <time>2022-03-21T14:56:59Z</time>
      </trkpt>
      <trkpt lat="46.63318" lon="5.53637">
        <ele>421.4</ele>
        <time>2022-03-21T14:57:00Z</time>
      </trkpt>
      <trkpt lat="46.63316" lon="5.53635">
        <ele>421.6</ele>
        <time>2022-03-21T14:57:01Z</time>
      </trkpt>
      <trkpt lat="46.63313" lon="5.53632">
        <ele>421.6</ele>
        <time>2022-03-21T14:57:02Z</time>
      </trkpt>
      <trkpt lat="46.6331" lon="5.53629">
        <ele>422</ele>
        <time>2022-03-21T14:57:03Z</time>
      </trkpt>
      <trkpt lat="46.63308" lon="5.53627">
        <ele>422.2</ele>
        <time>2022-03-21T14:57:04Z</time>
      </trkpt>
      <trkpt lat="46.63306" lon="5.53624">
        <ele>422.2</ele>
        <time>2022-03-21T14:57:05Z</time>
      </trkpt>
      <trkpt lat="46.63303" lon="5.53622">
        <ele>422.6</ele>
        <time>2022-03-21T14:57:06Z</time>
      </trkpt>
      <trkpt lat="46.633" lon="5.53619">
        <ele>422.6</ele>
        <time>2022-03-21T14:57:07Z</time>
      </trkpt>
      <trkpt lat="46.63298" lon="5.53616">
        <ele>423</ele>
        <time>2022-03-21T14:57:08Z</time>
      </trkpt>
      <trkpt lat="46.63295" lon="5.53613">
        <ele>423</ele>
        <time>2022-03-21T14:57:09Z</time>
      </trkpt>
      <trkpt lat="46.63293" lon="5.53611">
        <ele>423.2</ele>
        <time>2022-03-21T14:57:10Z</time>
      </trkpt>
      <trkpt lat="46.6329" lon="5.53608">
        <ele>423.2</ele>
        <time>2022-03-21T14:57:11Z</time>
      </trkpt>
      <trkpt lat="46.63288" lon="5.53606">
        <ele>423.6</ele>
        <time>2022-03-21T14:57:12Z</time>
      </trkpt>
      <trkpt lat="46.63285" lon="5.53603">
        <ele>423.6</ele>
        <time>2022-03-21T14:57:13Z</time>
      </trkpt>
      <trkpt lat="46.63283" lon="5.53601">
        <ele>423.6</ele>
        <time>2022-03-21T14:57:14Z</time>
      </trkpt>
      <trkpt lat="46.63281" lon="5.53598">
        <ele>424</ele>
        <time>2022-03-21T14:57:15Z</time>
      </trkpt>
      <trkpt lat="46.63278" lon="5.53594">
        <ele>424.2</ele>
        <time>2022-03-21T14:57:16Z</time>
      </trkpt>
      <trkpt lat="46.63275" lon="5.53591">
        <ele>424.2</ele>
        <time>2022-03-21T14:57:17Z</time>
      </trkpt>
      <trkpt lat="46.63273" lon="5.53588">
        <ele>424.6</ele>
        <time>2022-03-21T14:57:18Z</time>
      </trkpt>
      <trkpt lat="46.6327" lon="5.53586">
        <ele>424.6</ele>
        <time>2022-03-21T14:57:19Z</time>
      </trkpt>
      <trkpt lat="46.63267" lon="5.53583">
        <ele>425</ele>
        <time>2022-03-21T14:57:20Z</time>
      </trkpt>
      <trkpt lat="46.63264" lon="5.53581">
        <ele>425.2</ele>
        <time>2022-03-21T14:57:21Z</time>
      </trkpt>
      <trkpt lat="46.63261" lon="5.53578">
        <ele>425.4</ele>
        <time>2022-03-21T14:57:22Z</time>
      </trkpt>
      <trkpt lat="46.63259" lon="5.53575">
        <ele>425.6</ele>
        <time>2022-03-21T14:57:23Z</time>
      </trkpt>
      <trkpt lat="46.63256" lon="5.53573">
        <ele>425.8</ele>
        <time>2022-03-21T14:57:24Z</time>
      </trkpt>
      <trkpt lat="46.63253" lon="5.5357">
        <ele>425.8</ele>
        <time>2022-03-21T14:57:25Z</time>
      </trkpt>
      <trkpt lat="46.63251" lon="5.53567">
        <ele>426.2</ele>
        <time>2022-03-21T14:57:26Z</time>
      </trkpt>
      <trkpt lat="46.63248" lon="5.53564">
        <ele>426.2</ele>
        <time>2022-03-21T14:57:27Z</time>
      </trkpt>
      <trkpt lat="46.63245" lon="5.53562">
        <ele>426.6</ele>
        <time>2022-03-21T14:57:28Z</time>
      </trkpt>
      <trkpt lat="46.63242" lon="5.53559">
        <ele>426.6</ele>
        <time>2022-03-21T14:57:29Z</time>
      </trkpt>
      <trkpt lat="46.63239" lon="5.53557">
        <ele>426.8</ele>
        <time>2022-03-21T14:57:30Z</time>
      </trkpt>
      <trkpt lat="46.63236" lon="5.53554">
        <ele>426.8</ele>
        <time>2022-03-21T14:57:31Z</time>
      </trkpt>
      <trkpt lat="46.63233" lon="5.53551">
        <ele>427.2</ele>
        <time>2022-03-21T14:57:32Z</time>
      </trkpt>
      <trkpt lat="46.6323" lon="5.53548">
        <ele>427.2</ele>
        <time>2022-03-21T14:57:33Z</time>
      </trkpt>
      <trkpt lat="46.63227" lon="5.53545">
        <ele>427.6</ele>
        <time>2022-03-21T14:57:34Z</time>
      </trkpt>
      <trkpt lat="46.63225" lon="5.53542">
        <ele>427.6</ele>
        <time>2022-03-21T14:57:35Z</time>
      </trkpt>
      <trkpt lat="46.63222" lon="5.53538">
        <ele>428</ele>
        <time>2022-03-21T14:57:36Z</time>
      </trkpt>
      <trkpt lat="46.63219" lon="5.53536">
        <ele>428</ele>
        <time>2022-03-21T14:57:37Z</time>
      </trkpt>
      <trkpt lat="46.63216" lon="5.53533">
        <ele>428.4</ele>
        <time>2022-03-21T14:57:38Z</time>
      </trkpt>
      <trkpt lat="46.63213" lon="5.53531">
        <ele>428.4</ele>
        <time>2022-03-21T14:57:39Z</time>
      </trkpt>
      <trkpt lat="46.63211" lon="5.53528">
        <ele>428.8</ele>
        <time>2022-03-21T14:57:40Z</time>
      </trkpt>
      <trkpt lat="46.63208" lon="5.53526">
        <ele>428.8</ele>
        <time>2022-03-21T14:57:41Z</time>
      </trkpt>
      <trkpt lat="46.63205" lon="5.53524">
        <ele>429.2</ele>
        <time>2022-03-21T14:57:42Z</time>
      </trkpt>
      <trkpt lat="46.63203" lon="5.53522">
        <ele>429.2</ele>
        <time>2022-03-21T14:57:43Z</time>
      </trkpt>
      <trkpt lat="46.632" lon="5.53521">
        <ele>429.6</ele>
        <time>2022-03-21T14:57:44Z</time>
      </trkpt>
      <trkpt lat="46.63197" lon="5.53519">
        <ele>430</ele>
        <time>2022-03-21T14:57:45Z</time>
      </trkpt>
      <trkpt lat="46.63195" lon="5.53517">
        <ele>430.2</ele>
        <time>2022-03-21T14:57:46Z</time>
      </trkpt>
      <trkpt lat="46.63192" lon="5.53516">
        <ele>430.2</ele>
        <time>2022-03-21T14:57:47Z</time>
      </trkpt>
      <trkpt lat="46.6319" lon="5.53514">
        <ele>430.6</ele>
        <time>2022-03-21T14:57:48Z</time>
      </trkpt>
      <trkpt lat="46.63184" lon="5.53512">
        <ele>430.8</ele>
        <time>2022-03-21T14:57:49Z</time>
      </trkpt>
      <trkpt lat="46.63182" lon="5.53512">
        <ele>430.8</ele>
        <time>2022-03-21T14:57:50Z</time>
      </trkpt>
      <trkpt lat="46.63179" lon="5.53511">
        <ele>431</ele>
        <time>2022-03-21T14:57:51Z</time>
      </trkpt>
      <trkpt lat="46.63177" lon="5.5351">
        <ele>431.4</ele>
        <time>2022-03-21T14:57:52Z</time>
      </trkpt>
      <trkpt lat="46.63174" lon="5.53509">
        <ele>431.4</ele>
        <time>2022-03-21T14:57:53Z</time>
      </trkpt>
      <trkpt lat="46.63171" lon="5.53509">
        <ele>431.8</ele>
        <time>2022-03-21T14:57:54Z</time>
      </trkpt>
      <trkpt lat="46.63168" lon="5.53508">
        <ele>431.8</ele>
        <time>2022-03-21T14:57:55Z</time>
      </trkpt>
      <trkpt lat="46.63166" lon="5.53508">
        <ele>432.2</ele>
        <time>2022-03-21T14:57:56Z</time>
      </trkpt>
      <trkpt lat="46.63163" lon="5.53508">
        <ele>432.2</ele>
        <time>2022-03-21T14:57:57Z</time>
      </trkpt>
      <trkpt lat="46.6316" lon="5.53507">
        <ele>432.4</ele>
        <time>2022-03-21T14:57:58Z</time>
      </trkpt>
      <trkpt lat="46.63157" lon="5.53507">
        <ele>432.4</ele>
        <time>2022-03-21T14:57:59Z</time>
      </trkpt>
      <trkpt lat="46.63154" lon="5.53506">
        <ele>432.6</ele>
        <time>2022-03-21T14:58:00Z</time>
      </trkpt>
      <trkpt lat="46.63151" lon="5.53506">
        <ele>433</ele>
        <time>2022-03-21T14:58:01Z</time>
      </trkpt>
      <trkpt lat="46.63148" lon="5.53506">
        <ele>433.2</ele>
        <time>2022-03-21T14:58:02Z</time>
      </trkpt>
      <trkpt lat="46.63145" lon="5.53506">
        <ele>433.2</ele>
        <time>2022-03-21T14:58:03Z</time>
      </trkpt>
      <trkpt lat="46.63142" lon="5.53506">
        <ele>433.4</ele>
        <time>2022-03-21T14:58:04Z</time>
      </trkpt>
      <trkpt lat="46.6314" lon="5.53507">
        <ele>433.4</ele>
        <time>2022-03-21T14:58:05Z</time>
      </trkpt>
      <trkpt lat="46.63136" lon="5.53507">
        <ele>433.8</ele>
        <time>2022-03-21T14:58:06Z</time>
      </trkpt>
      <trkpt lat="46.63133" lon="5.53507">
        <ele>433.8</ele>
        <time>2022-03-21T14:58:07Z</time>
      </trkpt>
      <trkpt lat="46.6313" lon="5.53507">
        <ele>434</ele>
        <time>2022-03-21T14:58:08Z</time>
      </trkpt>
      <trkpt lat="46.63127" lon="5.53507">
        <ele>434.2</ele>
        <time>2022-03-21T14:58:09Z</time>
      </trkpt>
      <trkpt lat="46.63124" lon="5.53507">
        <ele>434.2</ele>
        <time>2022-03-21T14:58:10Z</time>
      </trkpt>
      <trkpt lat="46.63121" lon="5.53507">
        <ele>434.6</ele>
        <time>2022-03-21T14:58:11Z</time>
      </trkpt>
      <trkpt lat="46.63118" lon="5.53506">
        <ele>434.6</ele>
        <time>2022-03-21T14:58:12Z</time>
      </trkpt>
      <trkpt lat="46.63115" lon="5.53506">
        <ele>434.8</ele>
        <time>2022-03-21T14:58:13Z</time>
      </trkpt>
      <trkpt lat="46.63112" lon="5.53506">
        <ele>434.8</ele>
        <time>2022-03-21T14:58:14Z</time>
      </trkpt>
      <trkpt lat="46.63109" lon="5.53506">
        <ele>435</ele>
        <time>2022-03-21T14:58:15Z</time>
      </trkpt>
      <trkpt lat="46.63107" lon="5.53506">
        <ele>435</ele>
        <time>2022-03-21T14:58:16Z</time>
      </trkpt>
      <trkpt lat="46.63104" lon="5.53506">
        <ele>435.4</ele>
        <time>2022-03-21T14:58:17Z</time>
      </trkpt>
      <trkpt lat="46.63101" lon="5.53506">
        <ele>435.6</ele>
        <time>2022-03-21T14:58:18Z</time>
      </trkpt>
      <trkpt lat="46.63098" lon="5.53505">
        <ele>435.6</ele>
        <time>2022-03-21T14:58:19Z</time>
      </trkpt>
      <trkpt lat="46.63096" lon="5.53505">
        <ele>435.8</ele>
        <time>2022-03-21T14:58:20Z</time>
      </trkpt>
      <trkpt lat="46.63093" lon="5.53504">
        <ele>435.8</ele>
        <time>2022-03-21T14:58:21Z</time>
      </trkpt>
      <trkpt lat="46.6309" lon="5.53504">
        <ele>436</ele>
        <time>2022-03-21T14:58:22Z</time>
      </trkpt>
      <trkpt lat="46.63087" lon="5.53503">
        <ele>436</ele>
        <time>2022-03-21T14:58:23Z</time>
      </trkpt>
      <trkpt lat="46.63084" lon="5.53502">
        <ele>436.4</ele>
        <time>2022-03-21T14:58:24Z</time>
      </trkpt>
      <trkpt lat="46.63081" lon="5.53502">
        <ele>436.6</ele>
        <time>2022-03-21T14:58:25Z</time>
      </trkpt>
      <trkpt lat="46.63079" lon="5.53501">
        <ele>436.6</ele>
        <time>2022-03-21T14:58:26Z</time>
      </trkpt>
      <trkpt lat="46.63076" lon="5.535">
        <ele>436.8</ele>
        <time>2022-03-21T14:58:27Z</time>
      </trkpt>
      <trkpt lat="46.63073" lon="5.53499">
        <ele>436.8</ele>
        <time>2022-03-21T14:58:28Z</time>
      </trkpt>
      <trkpt lat="46.63071" lon="5.53498">
        <ele>437.2</ele>
        <time>2022-03-21T14:58:29Z</time>
      </trkpt>
      <trkpt lat="46.63068" lon="5.53497">
        <ele>437.2</ele>
        <time>2022-03-21T14:58:30Z</time>
      </trkpt>
      <trkpt lat="46.63065" lon="5.53496">
        <ele>437.4</ele>
        <time>2022-03-21T14:58:31Z</time>
      </trkpt>
      <trkpt lat="46.63063" lon="5.53495">
        <ele>437.6</ele>
        <time>2022-03-21T14:58:32Z</time>
      </trkpt>
      <trkpt lat="46.63061" lon="5.53495">
        <ele>437.6</ele>
        <time>2022-03-21T14:58:33Z</time>
      </trkpt>
      <trkpt lat="46.63059" lon="5.53495">
        <ele>438</ele>
        <time>2022-03-21T14:58:34Z</time>
      </trkpt>
      <trkpt lat="46.63057" lon="5.53494">
        <ele>438</ele>
        <time>2022-03-21T14:58:35Z</time>
      </trkpt>
      <trkpt lat="46.63055" lon="5.53493">
        <ele>438.2</ele>
        <time>2022-03-21T14:58:36Z</time>
      </trkpt>
      <trkpt lat="46.63053" lon="5.53493">
        <ele>438.2</ele>
        <time>2022-03-21T14:58:37Z</time>
      </trkpt>
      <trkpt lat="46.63051" lon="5.53492">
        <ele>438.6</ele>
        <time>2022-03-21T14:58:38Z</time>
      </trkpt>
      <trkpt lat="46.63048" lon="5.53492">
        <ele>438.8</ele>
        <time>2022-03-21T14:58:39Z</time>
      </trkpt>
      <trkpt lat="46.63045" lon="5.53491">
        <ele>438.8</ele>
        <time>2022-03-21T14:58:40Z</time>
      </trkpt>
      <trkpt lat="46.63043" lon="5.5349">
        <ele>439</ele>
        <time>2022-03-21T14:58:41Z</time>
      </trkpt>
      <trkpt lat="46.6304" lon="5.53488">
        <ele>439</ele>
        <time>2022-03-21T14:58:42Z</time>
      </trkpt>
      <trkpt lat="46.63037" lon="5.53487">
        <ele>439.6</ele>
        <time>2022-03-21T14:58:43Z</time>
      </trkpt>
      <trkpt lat="46.63034" lon="5.53485">
        <ele>439.8</ele>
        <time>2022-03-21T14:58:44Z</time>
      </trkpt>
      <trkpt lat="46.63031" lon="5.53483">
        <ele>439.8</ele>
        <time>2022-03-21T14:58:45Z</time>
      </trkpt>
      <trkpt lat="46.63028" lon="5.53481">
        <ele>440</ele>
        <time>2022-03-21T14:58:46Z</time>
      </trkpt>
      <trkpt lat="46.63025" lon="5.5348">
        <ele>440</ele>
        <time>2022-03-21T14:58:47Z</time>
      </trkpt>
      <trkpt lat="46.63022" lon="5.53478">
        <ele>440.4</ele>
        <time>2022-03-21T14:58:48Z</time>
      </trkpt>
      <trkpt lat="46.63019" lon="5.53476">
        <ele>440.6</ele>
        <time>2022-03-21T14:58:49Z</time>
      </trkpt>
      <trkpt lat="46.63016" lon="5.53474">
        <ele>440.6</ele>
        <time>2022-03-21T14:58:50Z</time>
      </trkpt>
      <trkpt lat="46.63012" lon="5.53472">
        <ele>441</ele>
        <time>2022-03-21T14:58:51Z</time>
      </trkpt>
      <trkpt lat="46.63009" lon="5.5347">
        <ele>441.4</ele>
        <time>2022-03-21T14:58:52Z</time>
      </trkpt>
      <trkpt lat="46.63006" lon="5.53469">
        <ele>441.6</ele>
        <time>2022-03-21T14:58:53Z</time>
      </trkpt>
      <trkpt lat="46.63003" lon="5.53467">
        <ele>441.6</ele>
        <time>2022-03-21T14:58:54Z</time>
      </trkpt>
      <trkpt lat="46.63" lon="5.53465">
        <ele>442</ele>
        <time>2022-03-21T14:58:55Z</time>
      </trkpt>
      <trkpt lat="46.62997" lon="5.53463">
        <ele>442.2</ele>
        <time>2022-03-21T14:58:56Z</time>
      </trkpt>
      <trkpt lat="46.62994" lon="5.53462">
        <ele>442.4</ele>
        <time>2022-03-21T14:58:57Z</time>
      </trkpt>
      <trkpt lat="46.62991" lon="5.5346">
        <ele>442.4</ele>
        <time>2022-03-21T14:58:58Z</time>
      </trkpt>
      <trkpt lat="46.62988" lon="5.53459">
        <ele>442.8</ele>
        <time>2022-03-21T14:58:59Z</time>
      </trkpt>
      <trkpt lat="46.62985" lon="5.53457">
        <ele>442.8</ele>
        <time>2022-03-21T14:59:00Z</time>
      </trkpt>
      <trkpt lat="46.62982" lon="5.53456">
        <ele>443</ele>
        <time>2022-03-21T14:59:01Z</time>
      </trkpt>
      <trkpt lat="46.62978" lon="5.53455">
        <ele>443</ele>
        <time>2022-03-21T14:59:02Z</time>
      </trkpt>
      <trkpt lat="46.62975" lon="5.53453">
        <ele>443.4</ele>
        <time>2022-03-21T14:59:03Z</time>
      </trkpt>
      <trkpt lat="46.62972" lon="5.53451">
        <ele>443.4</ele>
        <time>2022-03-21T14:59:04Z</time>
      </trkpt>
      <trkpt lat="46.62969" lon="5.53449">
        <ele>443.6</ele>
        <time>2022-03-21T14:59:05Z</time>
      </trkpt>
      <trkpt lat="46.62965" lon="5.53447">
        <ele>443.6</ele>
        <time>2022-03-21T14:59:06Z</time>
      </trkpt>
      <trkpt lat="46.62962" lon="5.53445">
        <ele>444</ele>
        <time>2022-03-21T14:59:07Z</time>
      </trkpt>
      <trkpt lat="46.62959" lon="5.53443">
        <ele>444</ele>
        <time>2022-03-21T14:59:08Z</time>
      </trkpt>
      <trkpt lat="46.62956" lon="5.53441">
        <ele>444.2</ele>
        <time>2022-03-21T14:59:09Z</time>
      </trkpt>
      <trkpt lat="46.62953" lon="5.53438">
        <ele>444.2</ele>
        <time>2022-03-21T14:59:10Z</time>
      </trkpt>
      <trkpt lat="46.6295" lon="5.53436">
        <ele>444.4</ele>
        <time>2022-03-21T14:59:11Z</time>
      </trkpt>
      <trkpt lat="46.62947" lon="5.53432">
        <ele>444.4</ele>
        <time>2022-03-21T14:59:12Z</time>
      </trkpt>
      <trkpt lat="46.62944" lon="5.53429">
        <ele>444.8</ele>
        <time>2022-03-21T14:59:13Z</time>
      </trkpt>
      <trkpt lat="46.62941" lon="5.53425">
        <ele>444.8</ele>
        <time>2022-03-21T14:59:14Z</time>
      </trkpt>
      <trkpt lat="46.62938" lon="5.53421">
        <ele>445</ele>
        <time>2022-03-21T14:59:15Z</time>
      </trkpt>
      <trkpt lat="46.62935" lon="5.53417">
        <ele>445</ele>
        <time>2022-03-21T14:59:16Z</time>
      </trkpt>
      <trkpt lat="46.62932" lon="5.53413">
        <ele>445</ele>
        <time>2022-03-21T14:59:17Z</time>
      </trkpt>
      <trkpt lat="46.62929" lon="5.53408">
        <ele>445</ele>
        <time>2022-03-21T14:59:18Z</time>
      </trkpt>
      <trkpt lat="46.62927" lon="5.53403">
        <ele>445.2</ele>
        <time>2022-03-21T14:59:19Z</time>
      </trkpt>
      <trkpt lat="46.62924" lon="5.53398">
        <ele>445.2</ele>
        <time>2022-03-21T14:59:20Z</time>
      </trkpt>
      <trkpt lat="46.62921" lon="5.53392">
        <ele>445.2</ele>
        <time>2022-03-21T14:59:21Z</time>
      </trkpt>
      <trkpt lat="46.62918" lon="5.53386">
        <ele>445.2</ele>
        <time>2022-03-21T14:59:22Z</time>
      </trkpt>
      <trkpt lat="46.62915" lon="5.53381">
        <ele>445.2</ele>
        <time>2022-03-21T14:59:23Z</time>
      </trkpt>
      <trkpt lat="46.62912" lon="5.53375">
        <ele>445.2</ele>
        <time>2022-03-21T14:59:24Z</time>
      </trkpt>
      <trkpt lat="46.62908" lon="5.53368">
        <ele>445.4</ele>
        <time>2022-03-21T14:59:25Z</time>
      </trkpt>
      <trkpt lat="46.62906" lon="5.53362">
        <ele>445.4</ele>
        <time>2022-03-21T14:59:26Z</time>
      </trkpt>
      <trkpt lat="46.62903" lon="5.53355">
        <ele>445.4</ele>
        <time>2022-03-21T14:59:27Z</time>
      </trkpt>
      <trkpt lat="46.62901" lon="5.53348">
        <ele>445.4</ele>
        <time>2022-03-21T14:59:28Z</time>
      </trkpt>
      <trkpt lat="46.62899" lon="5.53341">
        <ele>445.4</ele>
        <time>2022-03-21T14:59:29Z</time>
      </trkpt>
      <trkpt lat="46.62896" lon="5.53333">
        <ele>445.4</ele>
        <time>2022-03-21T14:59:30Z</time>
      </trkpt>
      <trkpt lat="46.62894" lon="5.53325">
        <ele>445.4</ele>
        <time>2022-03-21T14:59:31Z</time>
      </trkpt>
      <trkpt lat="46.62892" lon="5.53317">
        <ele>445.2</ele>
        <time>2022-03-21T14:59:32Z</time>
      </trkpt>
      <trkpt lat="46.62889" lon="5.53309">
        <ele>445.2</ele>
        <time>2022-03-21T14:59:33Z</time>
      </trkpt>
      <trkpt lat="46.62887" lon="5.53301">
        <ele>445.2</ele>
        <time>2022-03-21T14:59:34Z</time>
      </trkpt>
      <trkpt lat="46.62885" lon="5.53293">
        <ele>445.2</ele>
        <time>2022-03-21T14:59:35Z</time>
      </trkpt>
      <trkpt lat="46.62883" lon="5.53284">
        <ele>445.2</ele>
        <time>2022-03-21T14:59:36Z</time>
      </trkpt>
      <trkpt lat="46.62881" lon="5.53276">
        <ele>444.8</ele>
        <time>2022-03-21T14:59:37Z</time>
      </trkpt>
      <trkpt lat="46.62878" lon="5.53267">
        <ele>444.8</ele>
        <time>2022-03-21T14:59:38Z</time>
      </trkpt>
      <trkpt lat="46.62876" lon="5.53259">
        <ele>444.8</ele>
        <time>2022-03-21T14:59:40Z</time>
      </trkpt>
      <trkpt lat="46.62874" lon="5.5325">
        <ele>444.8</ele>
        <time>2022-03-21T14:59:41Z</time>
      </trkpt>
      <trkpt lat="46.62872" lon="5.53241">
        <ele>444.6</ele>
        <time>2022-03-21T14:59:42Z</time>
      </trkpt>
      <trkpt lat="46.62869" lon="5.53232">
        <ele>444.6</ele>
        <time>2022-03-21T14:59:43Z</time>
      </trkpt>
      <trkpt lat="46.62867" lon="5.53224">
        <ele>444.6</ele>
        <time>2022-03-21T14:59:44Z</time>
      </trkpt>
      <trkpt lat="46.62864" lon="5.53215">
        <ele>444.6</ele>
        <time>2022-03-21T14:59:45Z</time>
      </trkpt>
      <trkpt lat="46.62862" lon="5.53207">
        <ele>444.6</ele>
        <time>2022-03-21T14:59:46Z</time>
      </trkpt>
      <trkpt lat="46.62859" lon="5.53199">
        <ele>444.4</ele>
        <time>2022-03-21T14:59:47Z</time>
      </trkpt>
      <trkpt lat="46.62857" lon="5.53192">
        <ele>444.4</ele>
        <time>2022-03-21T14:59:48Z</time>
      </trkpt>
      <trkpt lat="46.62855" lon="5.53184">
        <ele>444</ele>
        <time>2022-03-21T14:59:49Z</time>
      </trkpt>
      <trkpt lat="46.62853" lon="5.53176">
        <ele>444</ele>
        <time>2022-03-21T14:59:50Z</time>
      </trkpt>
      <trkpt lat="46.62851" lon="5.53169">
        <ele>444</ele>
        <time>2022-03-21T14:59:51Z</time>
      </trkpt>
      <trkpt lat="46.62849" lon="5.53163">
        <ele>444.2</ele>
        <time>2022-03-21T14:59:52Z</time>
      </trkpt>
      <trkpt lat="46.62847" lon="5.53157">
        <ele>444.2</ele>
        <time>2022-03-21T14:59:53Z</time>
      </trkpt>
      <trkpt lat="46.62845" lon="5.53151">
        <ele>444.2</ele>
        <time>2022-03-21T14:59:54Z</time>
      </trkpt>
      <trkpt lat="46.62844" lon="5.53146">
        <ele>444.6</ele>
        <time>2022-03-21T14:59:55Z</time>
      </trkpt>
      <trkpt lat="46.62842" lon="5.53141">
        <ele>444.6</ele>
        <time>2022-03-21T14:59:56Z</time>
      </trkpt>
      <trkpt lat="46.62841" lon="5.53136">
        <ele>445</ele>
        <time>2022-03-21T14:59:57Z</time>
      </trkpt>
      <trkpt lat="46.62839" lon="5.53132">
        <ele>445</ele>
        <time>2022-03-21T14:59:58Z</time>
      </trkpt>
      <trkpt lat="46.62837" lon="5.53127">
        <ele>445.4</ele>
        <time>2022-03-21T14:59:59Z</time>
      </trkpt>
      <trkpt lat="46.62836" lon="5.53123">
        <ele>445.4</ele>
        <time>2022-03-21T15:00:00Z</time>
      </trkpt>
      <trkpt lat="46.62834" lon="5.53118">
        <ele>445.6</ele>
        <time>2022-03-21T15:00:01Z</time>
      </trkpt>
      <trkpt lat="46.62833" lon="5.53114">
        <ele>445.6</ele>
        <time>2022-03-21T15:00:02Z</time>
      </trkpt>
      <trkpt lat="46.62831" lon="5.5311">
        <ele>446</ele>
        <time>2022-03-21T15:00:03Z</time>
      </trkpt>
      <trkpt lat="46.6283" lon="5.53105">
        <ele>446</ele>
        <time>2022-03-21T15:00:04Z</time>
      </trkpt>
      <trkpt lat="46.62828" lon="5.53102">
        <ele>446.2</ele>
        <time>2022-03-21T15:00:05Z</time>
      </trkpt>
      <trkpt lat="46.62826" lon="5.53098">
        <ele>446.2</ele>
        <time>2022-03-21T15:00:06Z</time>
      </trkpt>
      <trkpt lat="46.62825" lon="5.53094">
        <ele>446.6</ele>
        <time>2022-03-21T15:00:07Z</time>
      </trkpt>
      <trkpt lat="46.62823" lon="5.5309">
        <ele>446.6</ele>
        <time>2022-03-21T15:00:08Z</time>
      </trkpt>
      <trkpt lat="46.62822" lon="5.53086">
        <ele>447</ele>
        <time>2022-03-21T15:00:09Z</time>
      </trkpt>
      <trkpt lat="46.6282" lon="5.53083">
        <ele>447</ele>
        <time>2022-03-21T15:00:10Z</time>
      </trkpt>
      <trkpt lat="46.62818" lon="5.53079">
        <ele>447.4</ele>
        <time>2022-03-21T15:00:11Z</time>
      </trkpt>
      <trkpt lat="46.62817" lon="5.53075">
        <ele>447.4</ele>
        <time>2022-03-21T15:00:12Z</time>
      </trkpt>
      <trkpt lat="46.62815" lon="5.53072">
        <ele>447.6</ele>
        <time>2022-03-21T15:00:13Z</time>
      </trkpt>
      <trkpt lat="46.62813" lon="5.53068">
        <ele>447.6</ele>
        <time>2022-03-21T15:00:14Z</time>
      </trkpt>
      <trkpt lat="46.62811" lon="5.53064">
        <ele>448</ele>
        <time>2022-03-21T15:00:15Z</time>
      </trkpt>
      <trkpt lat="46.62809" lon="5.5306">
        <ele>448</ele>
        <time>2022-03-21T15:00:16Z</time>
      </trkpt>
      <trkpt lat="46.62807" lon="5.53057">
        <ele>448.4</ele>
        <time>2022-03-21T15:00:17Z</time>
      </trkpt>
      <trkpt lat="46.62805" lon="5.53053">
        <ele>448.4</ele>
        <time>2022-03-21T15:00:18Z</time>
      </trkpt>
      <trkpt lat="46.62803" lon="5.53049">
        <ele>448.6</ele>
        <time>2022-03-21T15:00:19Z</time>
      </trkpt>
      <trkpt lat="46.62801" lon="5.53045">
        <ele>448.6</ele>
        <time>2022-03-21T15:00:20Z</time>
      </trkpt>
      <trkpt lat="46.62798" lon="5.53041">
        <ele>448.8</ele>
        <time>2022-03-21T15:00:21Z</time>
      </trkpt>
      <trkpt lat="46.62796" lon="5.53038">
        <ele>448.8</ele>
        <time>2022-03-21T15:00:22Z</time>
      </trkpt>
      <trkpt lat="46.62793" lon="5.53034">
        <ele>449.2</ele>
        <time>2022-03-21T15:00:23Z</time>
      </trkpt>
      <trkpt lat="46.6279" lon="5.53031">
        <ele>449.2</ele>
        <time>2022-03-21T15:00:24Z</time>
      </trkpt>
      <trkpt lat="46.62787" lon="5.53028">
        <ele>449.4</ele>
        <time>2022-03-21T15:00:25Z</time>
      </trkpt>
      <trkpt lat="46.62784" lon="5.53025">
        <ele>449.4</ele>
        <time>2022-03-21T15:00:26Z</time>
      </trkpt>
      <trkpt lat="46.62781" lon="5.53022">
        <ele>449.8</ele>
        <time>2022-03-21T15:00:27Z</time>
      </trkpt>
      <trkpt lat="46.62777" lon="5.5302">
        <ele>450</ele>
        <time>2022-03-21T15:00:28Z</time>
      </trkpt>
      <trkpt lat="46.62774" lon="5.53018">
        <ele>450</ele>
        <time>2022-03-21T15:00:29Z</time>
      </trkpt>
      <trkpt lat="46.62771" lon="5.53015">
        <ele>450.4</ele>
        <time>2022-03-21T15:00:30Z</time>
      </trkpt>
      <trkpt lat="46.62767" lon="5.53014">
        <ele>450.8</ele>
        <time>2022-03-21T15:00:31Z</time>
      </trkpt>
      <trkpt lat="46.62764" lon="5.53012">
        <ele>451</ele>
        <time>2022-03-21T15:00:32Z</time>
      </trkpt>
      <trkpt lat="46.62761" lon="5.53011">
        <ele>451.2</ele>
        <time>2022-03-21T15:00:33Z</time>
      </trkpt>
      <trkpt lat="46.62758" lon="5.53009">
        <ele>451.4</ele>
        <time>2022-03-21T15:00:34Z</time>
      </trkpt>
      <trkpt lat="46.62755" lon="5.53007">
        <ele>451.6</ele>
        <time>2022-03-21T15:00:35Z</time>
      </trkpt>
      <trkpt lat="46.62751" lon="5.53005">
        <ele>452</ele>
        <time>2022-03-21T15:00:36Z</time>
      </trkpt>
      <trkpt lat="46.62748" lon="5.53004">
        <ele>452.2</ele>
        <time>2022-03-21T15:00:37Z</time>
      </trkpt>
      <trkpt lat="46.62745" lon="5.53003">
        <ele>452.2</ele>
        <time>2022-03-21T15:00:38Z</time>
      </trkpt>
      <trkpt lat="46.62741" lon="5.53001">
        <ele>452.6</ele>
        <time>2022-03-21T15:00:39Z</time>
      </trkpt>
      <trkpt lat="46.62738" lon="5.53">
        <ele>452.8</ele>
        <time>2022-03-21T15:00:40Z</time>
      </trkpt>
      <trkpt lat="46.62735" lon="5.52999">
        <ele>452.8</ele>
        <time>2022-03-21T15:00:41Z</time>
      </trkpt>
      <trkpt lat="46.62731" lon="5.52997">
        <ele>453</ele>
        <time>2022-03-21T15:00:42Z</time>
      </trkpt>
      <trkpt lat="46.62728" lon="5.52996">
        <ele>453.2</ele>
        <time>2022-03-21T15:00:43Z</time>
      </trkpt>
      <trkpt lat="46.62725" lon="5.52995">
        <ele>453.2</ele>
        <time>2022-03-21T15:00:44Z</time>
      </trkpt>
      <trkpt lat="46.62722" lon="5.52993">
        <ele>453.6</ele>
        <time>2022-03-21T15:00:45Z</time>
      </trkpt>
      <trkpt lat="46.62719" lon="5.52992">
        <ele>453.6</ele>
        <time>2022-03-21T15:00:46Z</time>
      </trkpt>
      <trkpt lat="46.62716" lon="5.52991">
        <ele>453.8</ele>
        <time>2022-03-21T15:00:47Z</time>
      </trkpt>
      <trkpt lat="46.62713" lon="5.5299">
        <ele>454</ele>
        <time>2022-03-21T15:00:48Z</time>
      </trkpt>
      <trkpt lat="46.6271" lon="5.52989">
        <ele>454</ele>
        <time>2022-03-21T15:00:49Z</time>
      </trkpt>
      <trkpt lat="46.62707" lon="5.52989">
        <ele>454.4</ele>
        <time>2022-03-21T15:00:50Z</time>
      </trkpt>
      <trkpt lat="46.62704" lon="5.52988">
        <ele>454.6</ele>
        <time>2022-03-21T15:00:51Z</time>
      </trkpt>
      <trkpt lat="46.627" lon="5.52987">
        <ele>455</ele>
        <time>2022-03-21T15:00:52Z</time>
      </trkpt>
      <trkpt lat="46.62697" lon="5.52986">
        <ele>455.2</ele>
        <time>2022-03-21T15:00:53Z</time>
      </trkpt>
      <trkpt lat="46.62693" lon="5.52985">
        <ele>455.4</ele>
        <time>2022-03-21T15:00:54Z</time>
      </trkpt>
      <trkpt lat="46.62689" lon="5.52984">
        <ele>455.4</ele>
        <time>2022-03-21T15:00:55Z</time>
      </trkpt>
      <trkpt lat="46.62686" lon="5.52983">
        <ele>455.8</ele>
        <time>2022-03-21T15:00:56Z</time>
      </trkpt>
      <trkpt lat="46.62683" lon="5.52982">
        <ele>456</ele>
        <time>2022-03-21T15:00:57Z</time>
      </trkpt>
      <trkpt lat="46.62679" lon="5.52981">
        <ele>456.4</ele>
        <time>2022-03-21T15:00:58Z</time>
      </trkpt>
      <trkpt lat="46.62676" lon="5.5298">
        <ele>456.6</ele>
        <time>2022-03-21T15:00:59Z</time>
      </trkpt>
      <trkpt lat="46.62672" lon="5.52979">
        <ele>456.6</ele>
        <time>2022-03-21T15:01:00Z</time>
      </trkpt>
      <trkpt lat="46.62669" lon="5.52978">
        <ele>457</ele>
        <time>2022-03-21T15:01:01Z</time>
      </trkpt>
      <trkpt lat="46.62666" lon="5.52977">
        <ele>457</ele>
        <time>2022-03-21T15:01:02Z</time>
      </trkpt>
      <trkpt lat="46.62662" lon="5.52976">
        <ele>457.2</ele>
        <time>2022-03-21T15:01:03Z</time>
      </trkpt>
      <trkpt lat="46.62659" lon="5.52975">
        <ele>457.2</ele>
        <time>2022-03-21T15:01:04Z</time>
      </trkpt>
      <trkpt lat="46.62655" lon="5.52974">
        <ele>457.6</ele>
        <time>2022-03-21T15:01:05Z</time>
      </trkpt>
      <trkpt lat="46.62652" lon="5.52973">
        <ele>457.6</ele>
        <time>2022-03-21T15:01:06Z</time>
      </trkpt>
      <trkpt lat="46.62648" lon="5.52972">
        <ele>457.6</ele>
        <time>2022-03-21T15:01:07Z</time>
      </trkpt>
      <trkpt lat="46.62644" lon="5.52971">
        <ele>457.8</ele>
        <time>2022-03-21T15:01:08Z</time>
      </trkpt>
      <trkpt lat="46.6264" lon="5.5297">
        <ele>457.8</ele>
        <time>2022-03-21T15:01:09Z</time>
      </trkpt>
      <trkpt lat="46.62636" lon="5.52969">
        <ele>457.8</ele>
        <time>2022-03-21T15:01:10Z</time>
      </trkpt>
      <trkpt lat="46.62632" lon="5.52967">
        <ele>458</ele>
        <time>2022-03-21T15:01:11Z</time>
      </trkpt>
      <trkpt lat="46.62628" lon="5.52966">
        <ele>458</ele>
        <time>2022-03-21T15:01:12Z</time>
      </trkpt>
      <trkpt lat="46.62623" lon="5.52964">
        <ele>458</ele>
        <time>2022-03-21T15:01:13Z</time>
      </trkpt>
      <trkpt lat="46.62619" lon="5.52963">
        <ele>458</ele>
        <time>2022-03-21T15:01:14Z</time>
      </trkpt>
      <trkpt lat="46.62614" lon="5.52962">
        <ele>458</ele>
        <time>2022-03-21T15:01:15Z</time>
      </trkpt>
      <trkpt lat="46.6261" lon="5.5296">
        <ele>458.2</ele>
        <time>2022-03-21T15:01:16Z</time>
      </trkpt>
      <trkpt lat="46.62605" lon="5.52959">
        <ele>458.2</ele>
        <time>2022-03-21T15:01:17Z</time>
      </trkpt>
      <trkpt lat="46.626" lon="5.52958">
        <ele>458.2</ele>
        <time>2022-03-21T15:01:19Z</time>
      </trkpt>
      <trkpt lat="46.62596" lon="5.52956">
        <ele>458.2</ele>
        <time>2022-03-21T15:01:20Z</time>
      </trkpt>
      <trkpt lat="46.62591" lon="5.52955">
        <ele>458.2</ele>
        <time>2022-03-21T15:01:21Z</time>
      </trkpt>
      <trkpt lat="46.62586" lon="5.52954">
        <ele>458.2</ele>
        <time>2022-03-21T15:01:22Z</time>
      </trkpt>
      <trkpt lat="46.62581" lon="5.52952">
        <ele>458.2</ele>
        <time>2022-03-21T15:01:23Z</time>
      </trkpt>
      <trkpt lat="46.62577" lon="5.52951">
        <ele>458.2</ele>
        <time>2022-03-21T15:01:24Z</time>
      </trkpt>
      <trkpt lat="46.62572" lon="5.5295">
        <ele>458</ele>
        <time>2022-03-21T15:01:25Z</time>
      </trkpt>
      <trkpt lat="46.62567" lon="5.52948">
        <ele>458</ele>
        <time>2022-03-21T15:01:26Z</time>
      </trkpt>
      <trkpt lat="46.62561" lon="5.52946">
        <ele>457.8</ele>
        <time>2022-03-21T15:01:27Z</time>
      </trkpt>
      <trkpt lat="46.62555" lon="5.52944">
        <ele>457.8</ele>
        <time>2022-03-21T15:01:28Z</time>
      </trkpt>
      <trkpt lat="46.62549" lon="5.52943">
        <ele>457.8</ele>
        <time>2022-03-21T15:01:29Z</time>
      </trkpt>
      <trkpt lat="46.62543" lon="5.52941">
        <ele>457.4</ele>
        <time>2022-03-21T15:01:30Z</time>
      </trkpt>
      <trkpt lat="46.62537" lon="5.52939">
        <ele>457.4</ele>
        <time>2022-03-21T15:01:31Z</time>
      </trkpt>
      <trkpt lat="46.6253" lon="5.52937">
        <ele>457.2</ele>
        <time>2022-03-21T15:01:32Z</time>
      </trkpt>
      <trkpt lat="46.6251" lon="5.5293">
        <ele>456.8</ele>
        <time>2022-03-21T15:01:33Z</time>
      </trkpt>
      <trkpt lat="46.62503" lon="5.52927">
        <ele>456.6</ele>
        <time>2022-03-21T15:01:34Z</time>
      </trkpt>
      <trkpt lat="46.62497" lon="5.52924">
        <ele>456.6</ele>
        <time>2022-03-21T15:01:35Z</time>
      </trkpt>
      <trkpt lat="46.62489" lon="5.52921">
        <ele>456.2</ele>
        <time>2022-03-21T15:01:36Z</time>
      </trkpt>
      <trkpt lat="46.62482" lon="5.52918">
        <ele>456</ele>
        <time>2022-03-21T15:01:37Z</time>
      </trkpt>
      <trkpt lat="46.62475" lon="5.52914">
        <ele>455.8</ele>
        <time>2022-03-21T15:01:38Z</time>
      </trkpt>
      <trkpt lat="46.62468" lon="5.5291">
        <ele>455.4</ele>
        <time>2022-03-21T15:01:39Z</time>
      </trkpt>
      <trkpt lat="46.6246" lon="5.52906">
        <ele>455.2</ele>
        <time>2022-03-21T15:01:40Z</time>
      </trkpt>
      <trkpt lat="46.62453" lon="5.52902">
        <ele>455</ele>
        <time>2022-03-21T15:01:41Z</time>
      </trkpt>
      <trkpt lat="46.62445" lon="5.52898">
        <ele>455</ele>
        <time>2022-03-21T15:01:42Z</time>
      </trkpt>
      <trkpt lat="46.62438" lon="5.52893">
        <ele>454.6</ele>
        <time>2022-03-21T15:01:43Z</time>
      </trkpt>
      <trkpt lat="46.6243" lon="5.52889">
        <ele>454.6</ele>
        <time>2022-03-21T15:01:44Z</time>
      </trkpt>
      <trkpt lat="46.62423" lon="5.52884">
        <ele>454</ele>
        <time>2022-03-21T15:01:45Z</time>
      </trkpt>
      <trkpt lat="46.62415" lon="5.52879">
        <ele>454</ele>
        <time>2022-03-21T15:01:46Z</time>
      </trkpt>
      <trkpt lat="46.62407" lon="5.52875">
        <ele>453.8</ele>
        <time>2022-03-21T15:01:47Z</time>
      </trkpt>
      <trkpt lat="46.624" lon="5.5287">
        <ele>453.8</ele>
        <time>2022-03-21T15:01:48Z</time>
      </trkpt>
      <trkpt lat="46.62392" lon="5.52866">
        <ele>453.8</ele>
        <time>2022-03-21T15:01:49Z</time>
      </trkpt>
      <trkpt lat="46.62385" lon="5.52861">
        <ele>453.6</ele>
        <time>2022-03-21T15:01:50Z</time>
      </trkpt>
      <trkpt lat="46.62377" lon="5.52857">
        <ele>453.6</ele>
        <time>2022-03-21T15:01:51Z</time>
      </trkpt>
      <trkpt lat="46.6237" lon="5.52852">
        <ele>453.2</ele>
        <time>2022-03-21T15:01:52Z</time>
      </trkpt>
      <trkpt lat="46.62363" lon="5.52848">
        <ele>453.2</ele>
        <time>2022-03-21T15:01:53Z</time>
      </trkpt>
      <trkpt lat="46.62355" lon="5.52844">
        <ele>453.2</ele>
        <time>2022-03-21T15:01:54Z</time>
      </trkpt>
      <trkpt lat="46.62349" lon="5.52841">
        <ele>453</ele>
        <time>2022-03-21T15:01:55Z</time>
      </trkpt>
      <trkpt lat="46.62342" lon="5.52837">
        <ele>453</ele>
        <time>2022-03-21T15:01:56Z</time>
      </trkpt>
      <trkpt lat="46.62335" lon="5.52834">
        <ele>453</ele>
        <time>2022-03-21T15:01:57Z</time>
      </trkpt>
      <trkpt lat="46.62328" lon="5.52831">
        <ele>453</ele>
        <time>2022-03-21T15:01:58Z</time>
      </trkpt>
      <trkpt lat="46.62322" lon="5.52828">
        <ele>453</ele>
        <time>2022-03-21T15:01:59Z</time>
      </trkpt>
      <trkpt lat="46.62316" lon="5.52825">
        <ele>453</ele>
        <time>2022-03-21T15:02:00Z</time>
      </trkpt>
      <trkpt lat="46.62309" lon="5.52822">
        <ele>453.4</ele>
        <time>2022-03-21T15:02:01Z</time>
      </trkpt>
      <trkpt lat="46.62303" lon="5.5282">
        <ele>453.4</ele>
        <time>2022-03-21T15:02:02Z</time>
      </trkpt>
      <trkpt lat="46.62297" lon="5.52818">
        <ele>453.6</ele>
        <time>2022-03-21T15:02:03Z</time>
      </trkpt>
      <trkpt lat="46.62291" lon="5.52816">
        <ele>453.6</ele>
        <time>2022-03-21T15:02:04Z</time>
      </trkpt>
      <trkpt lat="46.62285" lon="5.52814">
        <ele>453.8</ele>
        <time>2022-03-21T15:02:05Z</time>
      </trkpt>
      <trkpt lat="46.62279" lon="5.52812">
        <ele>453.8</ele>
        <time>2022-03-21T15:02:06Z</time>
      </trkpt>
      <trkpt lat="46.62274" lon="5.5281">
        <ele>453.8</ele>
        <time>2022-03-21T15:02:07Z</time>
      </trkpt>
      <trkpt lat="46.62269" lon="5.52809">
        <ele>453.8</ele>
        <time>2022-03-21T15:02:08Z</time>
      </trkpt>
      <trkpt lat="46.62263" lon="5.52808">
        <ele>454.2</ele>
        <time>2022-03-21T15:02:09Z</time>
      </trkpt>
      <trkpt lat="46.62257" lon="5.52807">
        <ele>454.4</ele>
        <time>2022-03-21T15:02:10Z</time>
      </trkpt>
      <trkpt lat="46.62252" lon="5.52806">
        <ele>454.4</ele>
        <time>2022-03-21T15:02:11Z</time>
      </trkpt>
      <trkpt lat="46.62246" lon="5.52805">
        <ele>454.4</ele>
        <time>2022-03-21T15:02:12Z</time>
      </trkpt>
      <trkpt lat="46.6224" lon="5.52805">
        <ele>454.6</ele>
        <time>2022-03-21T15:02:13Z</time>
      </trkpt>
      <trkpt lat="46.62234" lon="5.52804">
        <ele>454.8</ele>
        <time>2022-03-21T15:02:14Z</time>
      </trkpt>
      <trkpt lat="46.62228" lon="5.52804">
        <ele>455</ele>
        <time>2022-03-21T15:02:15Z</time>
      </trkpt>
      <trkpt lat="46.62222" lon="5.52804">
        <ele>455.2</ele>
        <time>2022-03-21T15:02:16Z</time>
      </trkpt>
      <trkpt lat="46.62217" lon="5.52803">
        <ele>455.6</ele>
        <time>2022-03-21T15:02:17Z</time>
      </trkpt>
      <trkpt lat="46.62211" lon="5.52802">
        <ele>455.6</ele>
        <time>2022-03-21T15:02:18Z</time>
      </trkpt>
      <trkpt lat="46.62206" lon="5.52802">
        <ele>455.8</ele>
        <time>2022-03-21T15:02:19Z</time>
      </trkpt>
      <trkpt lat="46.622" lon="5.52802">
        <ele>456</ele>
        <time>2022-03-21T15:02:20Z</time>
      </trkpt>
      <trkpt lat="46.62195" lon="5.52802">
        <ele>456</ele>
        <time>2022-03-21T15:02:21Z</time>
      </trkpt>
      <trkpt lat="46.6219" lon="5.52802">
        <ele>456.4</ele>
        <time>2022-03-21T15:02:22Z</time>
      </trkpt>
      <trkpt lat="46.62184" lon="5.52803">
        <ele>456.4</ele>
        <time>2022-03-21T15:02:23Z</time>
      </trkpt>
      <trkpt lat="46.62179" lon="5.52803">
        <ele>456.6</ele>
        <time>2022-03-21T15:02:24Z</time>
      </trkpt>
      <trkpt lat="46.62174" lon="5.52803">
        <ele>456.6</ele>
        <time>2022-03-21T15:02:25Z</time>
      </trkpt>
      <trkpt lat="46.62169" lon="5.52802">
        <ele>457</ele>
        <time>2022-03-21T15:02:26Z</time>
      </trkpt>
      <trkpt lat="46.62164" lon="5.52802">
        <ele>457</ele>
        <time>2022-03-21T15:02:27Z</time>
      </trkpt>
      <trkpt lat="46.62159" lon="5.52802">
        <ele>457</ele>
        <time>2022-03-21T15:02:28Z</time>
      </trkpt>
      <trkpt lat="46.62154" lon="5.52801">
        <ele>457.2</ele>
        <time>2022-03-21T15:02:29Z</time>
      </trkpt>
      <trkpt lat="46.62149" lon="5.52801">
        <ele>457.2</ele>
        <time>2022-03-21T15:02:30Z</time>
      </trkpt>
      <trkpt lat="46.62145" lon="5.52801">
        <ele>457.6</ele>
        <time>2022-03-21T15:02:31Z</time>
      </trkpt>
      <trkpt lat="46.6214" lon="5.52801">
        <ele>457.6</ele>
        <time>2022-03-21T15:02:32Z</time>
      </trkpt>
      <trkpt lat="46.62135" lon="5.52802">
        <ele>457.8</ele>
        <time>2022-03-21T15:02:33Z</time>
      </trkpt>
      <trkpt lat="46.6213" lon="5.52802">
        <ele>457.8</ele>
        <time>2022-03-21T15:02:34Z</time>
      </trkpt>
      <trkpt lat="46.62125" lon="5.52802">
        <ele>458</ele>
        <time>2022-03-21T15:02:35Z</time>
      </trkpt>
      <trkpt lat="46.6212" lon="5.52802">
        <ele>458</ele>
        <time>2022-03-21T15:02:36Z</time>
      </trkpt>
      <trkpt lat="46.62115" lon="5.52802">
        <ele>458</ele>
        <time>2022-03-21T15:02:37Z</time>
      </trkpt>
      <trkpt lat="46.6211" lon="5.52802">
        <ele>458.2</ele>
        <time>2022-03-21T15:02:38Z</time>
      </trkpt>
      <trkpt lat="46.62106" lon="5.52802">
        <ele>458.2</ele>
        <time>2022-03-21T15:02:39Z</time>
      </trkpt>
      <trkpt lat="46.62101" lon="5.52802">
        <ele>458.2</ele>
        <time>2022-03-21T15:02:40Z</time>
      </trkpt>
      <trkpt lat="46.62096" lon="5.52802">
        <ele>458.2</ele>
        <time>2022-03-21T15:02:41Z</time>
      </trkpt>
      <trkpt lat="46.6209" lon="5.52802">
        <ele>458.2</ele>
        <time>2022-03-21T15:02:42Z</time>
      </trkpt>
      <trkpt lat="46.62085" lon="5.52802">
        <ele>458.6</ele>
        <time>2022-03-21T15:02:43Z</time>
      </trkpt>
      <trkpt lat="46.6208" lon="5.52803">
        <ele>458.6</ele>
        <time>2022-03-21T15:02:44Z</time>
      </trkpt>
      <trkpt lat="46.62075" lon="5.52803">
        <ele>458.6</ele>
        <time>2022-03-21T15:02:45Z</time>
      </trkpt>
      <trkpt lat="46.6207" lon="5.52803">
        <ele>458.6</ele>
        <time>2022-03-21T15:02:46Z</time>
      </trkpt>
      <trkpt lat="46.62064" lon="5.52803">
        <ele>458.8</ele>
        <time>2022-03-21T15:02:47Z</time>
      </trkpt>
      <trkpt lat="46.62059" lon="5.52804">
        <ele>458.8</ele>
        <time>2022-03-21T15:02:48Z</time>
      </trkpt>
      <trkpt lat="46.62053" lon="5.52804">
        <ele>458.8</ele>
        <time>2022-03-21T15:02:49Z</time>
      </trkpt>
      <trkpt lat="46.62048" lon="5.52804">
        <ele>458.8</ele>
        <time>2022-03-21T15:02:50Z</time>
      </trkpt>
      <trkpt lat="46.62042" lon="5.52804">
        <ele>459</ele>
        <time>2022-03-21T15:02:51Z</time>
      </trkpt>
      <trkpt lat="46.62036" lon="5.52804">
        <ele>459</ele>
        <time>2022-03-21T15:02:52Z</time>
      </trkpt>
      <trkpt lat="46.62031" lon="5.52804">
        <ele>459</ele>
        <time>2022-03-21T15:02:53Z</time>
      </trkpt>
      <trkpt lat="46.62025" lon="5.52805">
        <ele>459</ele>
        <time>2022-03-21T15:02:54Z</time>
      </trkpt>
      <trkpt lat="46.62019" lon="5.52805">
        <ele>459</ele>
        <time>2022-03-21T15:02:55Z</time>
      </trkpt>
      <trkpt lat="46.62013" lon="5.52805">
        <ele>459</ele>
        <time>2022-03-21T15:02:56Z</time>
      </trkpt>
      <trkpt lat="46.62006" lon="5.52805">
        <ele>459</ele>
        <time>2022-03-21T15:02:57Z</time>
      </trkpt>
      <trkpt lat="46.62" lon="5.52805">
        <ele>459</ele>
        <time>2022-03-21T15:02:58Z</time>
      </trkpt>
      <trkpt lat="46.61994" lon="5.52805">
        <ele>459</ele>
        <time>2022-03-21T15:02:59Z</time>
      </trkpt>
      <trkpt lat="46.61988" lon="5.52805">
        <ele>459.2</ele>
        <time>2022-03-21T15:03:00Z</time>
      </trkpt>
      <trkpt lat="46.61982" lon="5.52805">
        <ele>459.2</ele>
        <time>2022-03-21T15:03:01Z</time>
      </trkpt>
      <trkpt lat="46.61975" lon="5.52805">
        <ele>459.2</ele>
        <time>2022-03-21T15:03:02Z</time>
      </trkpt>
      <trkpt lat="46.61969" lon="5.52806">
        <ele>459.2</ele>
        <time>2022-03-21T15:03:03Z</time>
      </trkpt>
      <trkpt lat="46.61963" lon="5.52806">
        <ele>459.2</ele>
        <time>2022-03-21T15:03:04Z</time>
      </trkpt>
      <trkpt lat="46.61957" lon="5.52806">
        <ele>459.4</ele>
        <time>2022-03-21T15:03:05Z</time>
      </trkpt>
      <trkpt lat="46.61951" lon="5.52807">
        <ele>459.4</ele>
        <time>2022-03-21T15:03:06Z</time>
      </trkpt>
      <trkpt lat="46.61945" lon="5.52807">
        <ele>459.4</ele>
        <time>2022-03-21T15:03:07Z</time>
      </trkpt>
      <trkpt lat="46.61938" lon="5.52808">
        <ele>459.4</ele>
        <time>2022-03-21T15:03:08Z</time>
      </trkpt>
      <trkpt lat="46.61932" lon="5.52809">
        <ele>459.4</ele>
        <time>2022-03-21T15:03:09Z</time>
      </trkpt>
      <trkpt lat="46.61925" lon="5.5281">
        <ele>459.4</ele>
        <time>2022-03-21T15:03:10Z</time>
      </trkpt>
      <trkpt lat="46.61919" lon="5.52811">
        <ele>459.4</ele>
        <time>2022-03-21T15:03:11Z</time>
      </trkpt>
      <trkpt lat="46.61912" lon="5.52812">
        <ele>459.4</ele>
        <time>2022-03-21T15:03:12Z</time>
      </trkpt>
      <trkpt lat="46.61905" lon="5.52813">
        <ele>459.4</ele>
        <time>2022-03-21T15:03:13Z</time>
      </trkpt>
      <trkpt lat="46.61898" lon="5.52814">
        <ele>459.2</ele>
        <time>2022-03-21T15:03:14Z</time>
      </trkpt>
      <trkpt lat="46.61892" lon="5.52815">
        <ele>459.2</ele>
        <time>2022-03-21T15:03:15Z</time>
      </trkpt>
      <trkpt lat="46.61885" lon="5.52816">
        <ele>459.2</ele>
        <time>2022-03-21T15:03:16Z</time>
      </trkpt>
      <trkpt lat="46.61878" lon="5.52818">
        <ele>459</ele>
        <time>2022-03-21T15:03:17Z</time>
      </trkpt>
      <trkpt lat="46.61871" lon="5.52819">
        <ele>459</ele>
        <time>2022-03-21T15:03:18Z</time>
      </trkpt>
      <trkpt lat="46.61864" lon="5.5282">
        <ele>459</ele>
        <time>2022-03-21T15:03:19Z</time>
      </trkpt>
      <trkpt lat="46.61857" lon="5.52821">
        <ele>459</ele>
        <time>2022-03-21T15:03:20Z</time>
      </trkpt>
      <trkpt lat="46.6185" lon="5.52822">
        <ele>458.8</ele>
        <time>2022-03-21T15:03:21Z</time>
      </trkpt>
      <trkpt lat="46.61844" lon="5.52824">
        <ele>458.8</ele>
        <time>2022-03-21T15:03:22Z</time>
      </trkpt>
      <trkpt lat="46.61837" lon="5.52825">
        <ele>458.8</ele>
        <time>2022-03-21T15:03:23Z</time>
      </trkpt>
      <trkpt lat="46.6183" lon="5.52826">
        <ele>458.8</ele>
        <time>2022-03-21T15:03:24Z</time>
      </trkpt>
      <trkpt lat="46.61824" lon="5.52826">
        <ele>458.8</ele>
        <time>2022-03-21T15:03:25Z</time>
      </trkpt>
      <trkpt lat="46.61817" lon="5.52827">
        <ele>458.8</ele>
        <time>2022-03-21T15:03:26Z</time>
      </trkpt>
      <trkpt lat="46.61811" lon="5.52828">
        <ele>458.8</ele>
        <time>2022-03-21T15:03:27Z</time>
      </trkpt>
      <trkpt lat="46.61805" lon="5.52829">
        <ele>459</ele>
        <time>2022-03-21T15:03:28Z</time>
      </trkpt>
      <trkpt lat="46.61799" lon="5.5283">
        <ele>459</ele>
        <time>2022-03-21T15:03:29Z</time>
      </trkpt>
      <trkpt lat="46.61793" lon="5.52831">
        <ele>459</ele>
        <time>2022-03-21T15:03:30Z</time>
      </trkpt>
      <trkpt lat="46.61787" lon="5.52833">
        <ele>459.2</ele>
        <time>2022-03-21T15:03:31Z</time>
      </trkpt>
      <trkpt lat="46.61781" lon="5.52834">
        <ele>459.2</ele>
        <time>2022-03-21T15:03:32Z</time>
      </trkpt>
      <trkpt lat="46.61776" lon="5.52835">
        <ele>459.6</ele>
        <time>2022-03-21T15:03:33Z</time>
      </trkpt>
      <trkpt lat="46.6177" lon="5.52836">
        <ele>459.6</ele>
        <time>2022-03-21T15:03:34Z</time>
      </trkpt>
      <trkpt lat="46.61764" lon="5.52837">
        <ele>459.6</ele>
        <time>2022-03-21T15:03:35Z</time>
      </trkpt>
      <trkpt lat="46.61759" lon="5.52837">
        <ele>459.8</ele>
        <time>2022-03-21T15:03:36Z</time>
      </trkpt>
      <trkpt lat="46.61753" lon="5.52838">
        <ele>459.8</ele>
        <time>2022-03-21T15:03:37Z</time>
      </trkpt>
      <trkpt lat="46.61748" lon="5.52839">
        <ele>460</ele>
        <time>2022-03-21T15:03:38Z</time>
      </trkpt>
      <trkpt lat="46.61743" lon="5.5284">
        <ele>460</ele>
        <time>2022-03-21T15:03:39Z</time>
      </trkpt>
      <trkpt lat="46.61738" lon="5.52841">
        <ele>460</ele>
        <time>2022-03-21T15:03:40Z</time>
      </trkpt>
      <trkpt lat="46.61732" lon="5.52842">
        <ele>460</ele>
        <time>2022-03-21T15:03:41Z</time>
      </trkpt>
      <trkpt lat="46.61727" lon="5.52843">
        <ele>460</ele>
        <time>2022-03-21T15:03:42Z</time>
      </trkpt>
      <trkpt lat="46.61722" lon="5.52843">
        <ele>460.2</ele>
        <time>2022-03-21T15:03:43Z</time>
      </trkpt>
      <trkpt lat="46.61717" lon="5.52844">
        <ele>460.2</ele>
        <time>2022-03-21T15:03:44Z</time>
      </trkpt>
      <trkpt lat="46.61712" lon="5.52845">
        <ele>460.2</ele>
        <time>2022-03-21T15:03:45Z</time>
      </trkpt>
      <trkpt lat="46.61706" lon="5.52845">
        <ele>460.4</ele>
        <time>2022-03-21T15:03:46Z</time>
      </trkpt>
      <trkpt lat="46.617" lon="5.52845">
        <ele>460.4</ele>
        <time>2022-03-21T15:03:47Z</time>
      </trkpt>
      <trkpt lat="46.61694" lon="5.52844">
        <ele>460.4</ele>
        <time>2022-03-21T15:03:48Z</time>
      </trkpt>
      <trkpt lat="46.61688" lon="5.52844">
        <ele>460.4</ele>
        <time>2022-03-21T15:03:49Z</time>
      </trkpt>
      <trkpt lat="46.61683" lon="5.52844">
        <ele>460.4</ele>
        <time>2022-03-21T15:03:50Z</time>
      </trkpt>
      <trkpt lat="46.61677" lon="5.52843">
        <ele>460.4</ele>
        <time>2022-03-21T15:03:51Z</time>
      </trkpt>
      <trkpt lat="46.61671" lon="5.52843">
        <ele>460.4</ele>
        <time>2022-03-21T15:03:52Z</time>
      </trkpt>
      <trkpt lat="46.61665" lon="5.52843">
        <ele>460.4</ele>
        <time>2022-03-21T15:03:53Z</time>
      </trkpt>
      <trkpt lat="46.61659" lon="5.52843">
        <ele>460.4</ele>
        <time>2022-03-21T15:03:54Z</time>
      </trkpt>
      <trkpt lat="46.61653" lon="5.52842">
        <ele>460.4</ele>
        <time>2022-03-21T15:03:55Z</time>
      </trkpt>
      <trkpt lat="46.61646" lon="5.52841">
        <ele>460.4</ele>
        <time>2022-03-21T15:03:56Z</time>
      </trkpt>
      <trkpt lat="46.6164" lon="5.5284">
        <ele>460.4</ele>
        <time>2022-03-21T15:03:57Z</time>
      </trkpt>
      <trkpt lat="46.61634" lon="5.52839">
        <ele>460.4</ele>
        <time>2022-03-21T15:03:58Z</time>
      </trkpt>
      <trkpt lat="46.61628" lon="5.52838">
        <ele>460.4</ele>
        <time>2022-03-21T15:03:59Z</time>
      </trkpt>
      <trkpt lat="46.61622" lon="5.52838">
        <ele>460.4</ele>
        <time>2022-03-21T15:04:00Z</time>
      </trkpt>
      <trkpt lat="46.61617" lon="5.52837">
        <ele>460.4</ele>
        <time>2022-03-21T15:04:01Z</time>
      </trkpt>
      <trkpt lat="46.61611" lon="5.52836">
        <ele>460.4</ele>
        <time>2022-03-21T15:04:02Z</time>
      </trkpt>
      <trkpt lat="46.61606" lon="5.52836">
        <ele>460.8</ele>
        <time>2022-03-21T15:04:03Z</time>
      </trkpt>
      <trkpt lat="46.61601" lon="5.52835">
        <ele>460.8</ele>
        <time>2022-03-21T15:04:04Z</time>
      </trkpt>
      <trkpt lat="46.61595" lon="5.52835">
        <ele>461</ele>
        <time>2022-03-21T15:04:05Z</time>
      </trkpt>
      <trkpt lat="46.6159" lon="5.52834">
        <ele>461</ele>
        <time>2022-03-21T15:04:06Z</time>
      </trkpt>
      <trkpt lat="46.61585" lon="5.52833">
        <ele>461.2</ele>
        <time>2022-03-21T15:04:07Z</time>
      </trkpt>
      <trkpt lat="46.6158" lon="5.52832">
        <ele>461.2</ele>
        <time>2022-03-21T15:04:08Z</time>
      </trkpt>
      <trkpt lat="46.61575" lon="5.52832">
        <ele>461.6</ele>
        <time>2022-03-21T15:04:09Z</time>
      </trkpt>
      <trkpt lat="46.6157" lon="5.52831">
        <ele>461.6</ele>
        <time>2022-03-21T15:04:10Z</time>
      </trkpt>
      <trkpt lat="46.61565" lon="5.5283">
        <ele>461.6</ele>
        <time>2022-03-21T15:04:11Z</time>
      </trkpt>
      <trkpt lat="46.6156" lon="5.52829">
        <ele>461.8</ele>
        <time>2022-03-21T15:04:12Z</time>
      </trkpt>
      <trkpt lat="46.61555" lon="5.52829">
        <ele>461.8</ele>
        <time>2022-03-21T15:04:13Z</time>
      </trkpt>
      <trkpt lat="46.6155" lon="5.52828">
        <ele>462.2</ele>
        <time>2022-03-21T15:04:14Z</time>
      </trkpt>
      <trkpt lat="46.61545" lon="5.52827">
        <ele>462.4</ele>
        <time>2022-03-21T15:04:16Z</time>
      </trkpt>
      <trkpt lat="46.6154" lon="5.52826">
        <ele>462.4</ele>
        <time>2022-03-21T15:04:17Z</time>
      </trkpt>
      <trkpt lat="46.61536" lon="5.52825">
        <ele>462.8</ele>
        <time>2022-03-21T15:04:18Z</time>
      </trkpt>
      <trkpt lat="46.61531" lon="5.52825">
        <ele>462.8</ele>
        <time>2022-03-21T15:04:19Z</time>
      </trkpt>
      <trkpt lat="46.61526" lon="5.52824">
        <ele>462.8</ele>
        <time>2022-03-21T15:04:20Z</time>
      </trkpt>
      <trkpt lat="46.61521" lon="5.52822">
        <ele>462.8</ele>
        <time>2022-03-21T15:04:21Z</time>
      </trkpt>
      <trkpt lat="46.61516" lon="5.52821">
        <ele>463</ele>
        <time>2022-03-21T15:04:22Z</time>
      </trkpt>
      <trkpt lat="46.61511" lon="5.52819">
        <ele>463</ele>
        <time>2022-03-21T15:04:23Z</time>
      </trkpt>
      <trkpt lat="46.61506" lon="5.52818">
        <ele>463</ele>
        <time>2022-03-21T15:04:24Z</time>
      </trkpt>
      <trkpt lat="46.61501" lon="5.52816">
        <ele>463</ele>
        <time>2022-03-21T15:04:25Z</time>
      </trkpt>
      <trkpt lat="46.61495" lon="5.52815">
        <ele>463</ele>
        <time>2022-03-21T15:04:26Z</time>
      </trkpt>
      <trkpt lat="46.6149" lon="5.52813">
        <ele>463</ele>
        <time>2022-03-21T15:04:27Z</time>
      </trkpt>
      <trkpt lat="46.61484" lon="5.52811">
        <ele>463</ele>
        <time>2022-03-21T15:04:28Z</time>
      </trkpt>
      <trkpt lat="46.61479" lon="5.5281">
        <ele>463</ele>
        <time>2022-03-21T15:04:29Z</time>
      </trkpt>
      <trkpt lat="46.61473" lon="5.52808">
        <ele>463</ele>
        <time>2022-03-21T15:04:30Z</time>
      </trkpt>
      <trkpt lat="46.61468" lon="5.52806">
        <ele>463</ele>
        <time>2022-03-21T15:04:31Z</time>
      </trkpt>
      <trkpt lat="46.61462" lon="5.52804">
        <ele>463</ele>
        <time>2022-03-21T15:04:32Z</time>
      </trkpt>
      <trkpt lat="46.61456" lon="5.52803">
        <ele>463</ele>
        <time>2022-03-21T15:04:33Z</time>
      </trkpt>
      <trkpt lat="46.6145" lon="5.52801">
        <ele>463</ele>
        <time>2022-03-21T15:04:34Z</time>
      </trkpt>
      <trkpt lat="46.61444" lon="5.52799">
        <ele>463</ele>
        <time>2022-03-21T15:04:35Z</time>
      </trkpt>
      <trkpt lat="46.61439" lon="5.52797">
        <ele>463</ele>
        <time>2022-03-21T15:04:36Z</time>
      </trkpt>
      <trkpt lat="46.61433" lon="5.52795">
        <ele>463</ele>
        <time>2022-03-21T15:04:37Z</time>
      </trkpt>
      <trkpt lat="46.61427" lon="5.52793">
        <ele>463</ele>
        <time>2022-03-21T15:04:38Z</time>
      </trkpt>
      <trkpt lat="46.61421" lon="5.52791">
        <ele>462.6</ele>
        <time>2022-03-21T15:04:39Z</time>
      </trkpt>
      <trkpt lat="46.61415" lon="5.52789">
        <ele>462.6</ele>
        <time>2022-03-21T15:04:40Z</time>
      </trkpt>
      <trkpt lat="46.61409" lon="5.52786">
        <ele>462.4</ele>
        <time>2022-03-21T15:04:41Z</time>
      </trkpt>
      <trkpt lat="46.61403" lon="5.52784">
        <ele>462.4</ele>
        <time>2022-03-21T15:04:42Z</time>
      </trkpt>
      <trkpt lat="46.61398" lon="5.52781">
        <ele>462.4</ele>
        <time>2022-03-21T15:04:43Z</time>
      </trkpt>
      <trkpt lat="46.61392" lon="5.52779">
        <ele>462.2</ele>
        <time>2022-03-21T15:04:44Z</time>
      </trkpt>
      <trkpt lat="46.61386" lon="5.52776">
        <ele>462.2</ele>
        <time>2022-03-21T15:04:45Z</time>
      </trkpt>
      <trkpt lat="46.61381" lon="5.52772">
        <ele>462.2</ele>
        <time>2022-03-21T15:04:46Z</time>
      </trkpt>
      <trkpt lat="46.61376" lon="5.52769">
        <ele>462.2</ele>
        <time>2022-03-21T15:04:47Z</time>
      </trkpt>
      <trkpt lat="46.61371" lon="5.52765">
        <ele>462.2</ele>
        <time>2022-03-21T15:04:48Z</time>
      </trkpt>
      <trkpt lat="46.61367" lon="5.52761">
        <ele>462.2</ele>
        <time>2022-03-21T15:04:49Z</time>
      </trkpt>
      <trkpt lat="46.61362" lon="5.52758">
        <ele>462.2</ele>
        <time>2022-03-21T15:04:50Z</time>
      </trkpt>
      <trkpt lat="46.61358" lon="5.52754">
        <ele>462.6</ele>
        <time>2022-03-21T15:04:51Z</time>
      </trkpt>
      <trkpt lat="46.61353" lon="5.52751">
        <ele>462.8</ele>
        <time>2022-03-21T15:04:52Z</time>
      </trkpt>
      <trkpt lat="46.61349" lon="5.52747">
        <ele>462.8</ele>
        <time>2022-03-21T15:04:53Z</time>
      </trkpt>
      <trkpt lat="46.61345" lon="5.52744">
        <ele>463.2</ele>
        <time>2022-03-21T15:04:54Z</time>
      </trkpt>
      <trkpt lat="46.61341" lon="5.5274">
        <ele>463.2</ele>
        <time>2022-03-21T15:04:55Z</time>
      </trkpt>
      <trkpt lat="46.61337" lon="5.52737">
        <ele>463.4</ele>
        <time>2022-03-21T15:04:56Z</time>
      </trkpt>
      <trkpt lat="46.61333" lon="5.52733">
        <ele>463.4</ele>
        <time>2022-03-21T15:04:57Z</time>
      </trkpt>
      <trkpt lat="46.6133" lon="5.52729">
        <ele>463.6</ele>
        <time>2022-03-21T15:04:58Z</time>
      </trkpt>
      <trkpt lat="46.61326" lon="5.52726">
        <ele>463.6</ele>
        <time>2022-03-21T15:04:59Z</time>
      </trkpt>
      <trkpt lat="46.61322" lon="5.52722">
        <ele>463.8</ele>
        <time>2022-03-21T15:05:00Z</time>
      </trkpt>
      <trkpt lat="46.61318" lon="5.52718">
        <ele>463.8</ele>
        <time>2022-03-21T15:05:01Z</time>
      </trkpt>
      <trkpt lat="46.61314" lon="5.52715">
        <ele>464.2</ele>
        <time>2022-03-21T15:05:02Z</time>
      </trkpt>
      <trkpt lat="46.61311" lon="5.52711">
        <ele>464.2</ele>
        <time>2022-03-21T15:05:03Z</time>
      </trkpt>
      <trkpt lat="46.61307" lon="5.52708">
        <ele>464.4</ele>
        <time>2022-03-21T15:05:04Z</time>
      </trkpt>
      <trkpt lat="46.61304" lon="5.52704">
        <ele>464.4</ele>
        <time>2022-03-21T15:05:05Z</time>
      </trkpt>
      <trkpt lat="46.613" lon="5.52701">
        <ele>464.6</ele>
        <time>2022-03-21T15:05:06Z</time>
      </trkpt>
      <trkpt lat="46.61296" lon="5.52697">
        <ele>464.6</ele>
        <time>2022-03-21T15:05:07Z</time>
      </trkpt>
      <trkpt lat="46.61293" lon="5.52694">
        <ele>464.6</ele>
        <time>2022-03-21T15:05:08Z</time>
      </trkpt>
      <trkpt lat="46.61289" lon="5.5269">
        <ele>465</ele>
        <time>2022-03-21T15:05:09Z</time>
      </trkpt>
      <trkpt lat="46.61286" lon="5.52687">
        <ele>465</ele>
        <time>2022-03-21T15:05:10Z</time>
      </trkpt>
      <trkpt lat="46.61282" lon="5.52683">
        <ele>465.2</ele>
        <time>2022-03-21T15:05:11Z</time>
      </trkpt>
      <trkpt lat="46.61278" lon="5.5268">
        <ele>465.2</ele>
        <time>2022-03-21T15:05:12Z</time>
      </trkpt>
      <trkpt lat="46.61275" lon="5.52676">
        <ele>465.6</ele>
        <time>2022-03-21T15:05:13Z</time>
      </trkpt>
      <trkpt lat="46.61271" lon="5.52673">
        <ele>465.6</ele>
        <time>2022-03-21T15:05:14Z</time>
      </trkpt>
      <trkpt lat="46.61268" lon="5.5267">
        <ele>465.8</ele>
        <time>2022-03-21T15:05:15Z</time>
      </trkpt>
      <trkpt lat="46.61264" lon="5.52666">
        <ele>465.8</ele>
        <time>2022-03-21T15:05:16Z</time>
      </trkpt>
      <trkpt lat="46.61261" lon="5.52663">
        <ele>466</ele>
        <time>2022-03-21T15:05:17Z</time>
      </trkpt>
      <trkpt lat="46.61257" lon="5.52659">
        <ele>466</ele>
        <time>2022-03-21T15:05:18Z</time>
      </trkpt>
      <trkpt lat="46.61254" lon="5.52656">
        <ele>466.4</ele>
        <time>2022-03-21T15:05:19Z</time>
      </trkpt>
      <trkpt lat="46.6125" lon="5.52652">
        <ele>466.4</ele>
        <time>2022-03-21T15:05:20Z</time>
      </trkpt>
      <trkpt lat="46.61246" lon="5.52649">
        <ele>466.6</ele>
        <time>2022-03-21T15:05:21Z</time>
      </trkpt>
      <trkpt lat="46.61243" lon="5.52645">
        <ele>466.6</ele>
        <time>2022-03-21T15:05:22Z</time>
      </trkpt>
      <trkpt lat="46.61239" lon="5.52642">
        <ele>467</ele>
        <time>2022-03-21T15:05:23Z</time>
      </trkpt>
      <trkpt lat="46.61236" lon="5.52639">
        <ele>467</ele>
        <time>2022-03-21T15:05:24Z</time>
      </trkpt>
      <trkpt lat="46.61232" lon="5.52635">
        <ele>467.4</ele>
        <time>2022-03-21T15:05:25Z</time>
      </trkpt>
      <trkpt lat="46.61229" lon="5.52632">
        <ele>467.4</ele>
        <time>2022-03-21T15:05:26Z</time>
      </trkpt>
      <trkpt lat="46.61225" lon="5.52629">
        <ele>467.6</ele>
        <time>2022-03-21T15:05:27Z</time>
      </trkpt>
      <trkpt lat="46.61222" lon="5.52626">
        <ele>467.6</ele>
        <time>2022-03-21T15:05:28Z</time>
      </trkpt>
      <trkpt lat="46.61219" lon="5.52623">
        <ele>468</ele>
        <time>2022-03-21T15:05:29Z</time>
      </trkpt>
      <trkpt lat="46.61215" lon="5.52621">
        <ele>468</ele>
        <time>2022-03-21T15:05:30Z</time>
      </trkpt>
      <trkpt lat="46.61212" lon="5.52618">
        <ele>468.4</ele>
        <time>2022-03-21T15:05:31Z</time>
      </trkpt>
      <trkpt lat="46.61209" lon="5.52616">
        <ele>468.4</ele>
        <time>2022-03-21T15:05:32Z</time>
      </trkpt>
      <trkpt lat="46.61203" lon="5.5261">
        <ele>468.8</ele>
        <time>2022-03-21T15:05:33Z</time>
      </trkpt>
      <trkpt lat="46.612" lon="5.52608">
        <ele>468.8</ele>
        <time>2022-03-21T15:05:34Z</time>
      </trkpt>
      <trkpt lat="46.61197" lon="5.52605">
        <ele>469</ele>
        <time>2022-03-21T15:05:35Z</time>
      </trkpt>
      <trkpt lat="46.61194" lon="5.52603">
        <ele>469</ele>
        <time>2022-03-21T15:05:36Z</time>
      </trkpt>
      <trkpt lat="46.61191" lon="5.52601">
        <ele>469.4</ele>
        <time>2022-03-21T15:05:37Z</time>
      </trkpt>
      <trkpt lat="46.61187" lon="5.52599">
        <ele>469.4</ele>
        <time>2022-03-21T15:05:38Z</time>
      </trkpt>
      <trkpt lat="46.61184" lon="5.52597">
        <ele>469.4</ele>
        <time>2022-03-21T15:05:39Z</time>
      </trkpt>
      <trkpt lat="46.6118" lon="5.52595">
        <ele>469.6</ele>
        <time>2022-03-21T15:05:40Z</time>
      </trkpt>
      <trkpt lat="46.61176" lon="5.52593">
        <ele>469.6</ele>
        <time>2022-03-21T15:05:41Z</time>
      </trkpt>
      <trkpt lat="46.61173" lon="5.52591">
        <ele>469.6</ele>
        <time>2022-03-21T15:05:42Z</time>
      </trkpt>
      <trkpt lat="46.61169" lon="5.52589">
        <ele>469.8</ele>
        <time>2022-03-21T15:05:43Z</time>
      </trkpt>
      <trkpt lat="46.61165" lon="5.52587">
        <ele>469.8</ele>
        <time>2022-03-21T15:05:44Z</time>
      </trkpt>
      <trkpt lat="46.61161" lon="5.52585">
        <ele>470</ele>
        <time>2022-03-21T15:05:45Z</time>
      </trkpt>
      <trkpt lat="46.61157" lon="5.52582">
        <ele>470</ele>
        <time>2022-03-21T15:05:46Z</time>
      </trkpt>
      <trkpt lat="46.61152" lon="5.5258">
        <ele>470</ele>
        <time>2022-03-21T15:05:47Z</time>
      </trkpt>
      <trkpt lat="46.61148" lon="5.52578">
        <ele>470</ele>
        <time>2022-03-21T15:05:48Z</time>
      </trkpt>
      <trkpt lat="46.61144" lon="5.52576">
        <ele>470</ele>
        <time>2022-03-21T15:05:49Z</time>
      </trkpt>
      <trkpt lat="46.61139" lon="5.52574">
        <ele>470</ele>
        <time>2022-03-21T15:05:50Z</time>
      </trkpt>
      <trkpt lat="46.61134" lon="5.52571">
        <ele>470</ele>
        <time>2022-03-21T15:05:51Z</time>
      </trkpt>
      <trkpt lat="46.61129" lon="5.52569">
        <ele>470</ele>
        <time>2022-03-21T15:05:52Z</time>
      </trkpt>
      <trkpt lat="46.61124" lon="5.52566">
        <ele>470</ele>
        <time>2022-03-21T15:05:53Z</time>
      </trkpt>
      <trkpt lat="46.61118" lon="5.52563">
        <ele>470</ele>
        <time>2022-03-21T15:05:54Z</time>
      </trkpt>
      <trkpt lat="46.61113" lon="5.52561">
        <ele>470</ele>
        <time>2022-03-21T15:05:55Z</time>
      </trkpt>
      <trkpt lat="46.61107" lon="5.52558">
        <ele>469.8</ele>
        <time>2022-03-21T15:05:56Z</time>
      </trkpt>
      <trkpt lat="46.61102" lon="5.52556">
        <ele>469.8</ele>
        <time>2022-03-21T15:05:57Z</time>
      </trkpt>
      <trkpt lat="46.61096" lon="5.52553">
        <ele>469.8</ele>
        <time>2022-03-21T15:05:58Z</time>
      </trkpt>
      <trkpt lat="46.6109" lon="5.5255">
        <ele>469.4</ele>
        <time>2022-03-21T15:05:59Z</time>
      </trkpt>
      <trkpt lat="46.61084" lon="5.52547">
        <ele>469.4</ele>
        <time>2022-03-21T15:06:00Z</time>
      </trkpt>
      <trkpt lat="46.61079" lon="5.52544">
        <ele>469.4</ele>
        <time>2022-03-21T15:06:01Z</time>
      </trkpt>
      <trkpt lat="46.61073" lon="5.52542">
        <ele>469.2</ele>
        <time>2022-03-21T15:06:02Z</time>
      </trkpt>
      <trkpt lat="46.61067" lon="5.52539">
        <ele>469.2</ele>
        <time>2022-03-21T15:06:03Z</time>
      </trkpt>
      <trkpt lat="46.61061" lon="5.52536">
        <ele>469.2</ele>
        <time>2022-03-21T15:06:04Z</time>
      </trkpt>
      <trkpt lat="46.61055" lon="5.52533">
        <ele>469.2</ele>
        <time>2022-03-21T15:06:05Z</time>
      </trkpt>
      <trkpt lat="46.61049" lon="5.5253">
        <ele>469.2</ele>
        <time>2022-03-21T15:06:06Z</time>
      </trkpt>
      <trkpt lat="46.61044" lon="5.52527">
        <ele>469.2</ele>
        <time>2022-03-21T15:06:07Z</time>
      </trkpt>
      <trkpt lat="46.61038" lon="5.52525">
        <ele>469.2</ele>
        <time>2022-03-21T15:06:08Z</time>
      </trkpt>
      <trkpt lat="46.61033" lon="5.52522">
        <ele>469.2</ele>
        <time>2022-03-21T15:06:09Z</time>
      </trkpt>
      <trkpt lat="46.61027" lon="5.52519">
        <ele>469.4</ele>
        <time>2022-03-21T15:06:10Z</time>
      </trkpt>
      <trkpt lat="46.61022" lon="5.52517">
        <ele>469.4</ele>
        <time>2022-03-21T15:06:11Z</time>
      </trkpt>
      <trkpt lat="46.61017" lon="5.52515">
        <ele>469.4</ele>
        <time>2022-03-21T15:06:12Z</time>
      </trkpt>
      <trkpt lat="46.61011" lon="5.52512">
        <ele>469.6</ele>
        <time>2022-03-21T15:06:13Z</time>
      </trkpt>
      <trkpt lat="46.61006" lon="5.52509">
        <ele>469.6</ele>
        <time>2022-03-21T15:06:14Z</time>
      </trkpt>
      <trkpt lat="46.61002" lon="5.52507">
        <ele>469.6</ele>
        <time>2022-03-21T15:06:15Z</time>
      </trkpt>
      <trkpt lat="46.60997" lon="5.52504">
        <ele>470</ele>
        <time>2022-03-21T15:06:16Z</time>
      </trkpt>
      <trkpt lat="46.60992" lon="5.52502">
        <ele>470</ele>
        <time>2022-03-21T15:06:17Z</time>
      </trkpt>
      <trkpt lat="46.60988" lon="5.525">
        <ele>470.2</ele>
        <time>2022-03-21T15:06:18Z</time>
      </trkpt>
      <trkpt lat="46.60984" lon="5.52498">
        <ele>470.2</ele>
        <time>2022-03-21T15:06:19Z</time>
      </trkpt>
      <trkpt lat="46.6098" lon="5.52496">
        <ele>470.6</ele>
        <time>2022-03-21T15:06:20Z</time>
      </trkpt>
      <trkpt lat="46.60975" lon="5.52494">
        <ele>470.6</ele>
        <time>2022-03-21T15:06:21Z</time>
      </trkpt>
      <trkpt lat="46.60971" lon="5.52492">
        <ele>470.8</ele>
        <time>2022-03-21T15:06:22Z</time>
      </trkpt>
      <trkpt lat="46.60967" lon="5.5249">
        <ele>470.8</ele>
        <time>2022-03-21T15:06:23Z</time>
      </trkpt>
      <trkpt lat="46.60963" lon="5.52487">
        <ele>471.2</ele>
        <time>2022-03-21T15:06:24Z</time>
      </trkpt>
      <trkpt lat="46.60959" lon="5.52485">
        <ele>471.2</ele>
        <time>2022-03-21T15:06:25Z</time>
      </trkpt>
      <trkpt lat="46.60956" lon="5.52483">
        <ele>471.4</ele>
        <time>2022-03-21T15:06:26Z</time>
      </trkpt>
      <trkpt lat="46.60952" lon="5.5248">
        <ele>471.4</ele>
        <time>2022-03-21T15:06:27Z</time>
      </trkpt>
      <trkpt lat="46.60948" lon="5.52478">
        <ele>471.8</ele>
        <time>2022-03-21T15:06:28Z</time>
      </trkpt>
      <trkpt lat="46.60944" lon="5.52475">
        <ele>471.8</ele>
        <time>2022-03-21T15:06:29Z</time>
      </trkpt>
      <trkpt lat="46.6094" lon="5.52472">
        <ele>471.8</ele>
        <time>2022-03-21T15:06:30Z</time>
      </trkpt>
      <trkpt lat="46.60936" lon="5.5247">
        <ele>472</ele>
        <time>2022-03-21T15:06:31Z</time>
      </trkpt>
      <trkpt lat="46.60931" lon="5.52467">
        <ele>472</ele>
        <time>2022-03-21T15:06:32Z</time>
      </trkpt>
      <trkpt lat="46.60927" lon="5.52464">
        <ele>472</ele>
        <time>2022-03-21T15:06:33Z</time>
      </trkpt>
      <trkpt lat="46.60923" lon="5.52462">
        <ele>472.2</ele>
        <time>2022-03-21T15:06:34Z</time>
      </trkpt>
      <trkpt lat="46.60918" lon="5.52459">
        <ele>472.2</ele>
        <time>2022-03-21T15:06:35Z</time>
      </trkpt>
      <trkpt lat="46.60914" lon="5.52456">
        <ele>472.2</ele>
        <time>2022-03-21T15:06:36Z</time>
      </trkpt>
      <trkpt lat="46.60909" lon="5.52452">
        <ele>472.2</ele>
        <time>2022-03-21T15:06:37Z</time>
      </trkpt>
      <trkpt lat="46.60905" lon="5.52449">
        <ele>472.2</ele>
        <time>2022-03-21T15:06:38Z</time>
      </trkpt>
      <trkpt lat="46.609" lon="5.52446">
        <ele>472.2</ele>
        <time>2022-03-21T15:06:39Z</time>
      </trkpt>
      <trkpt lat="46.60896" lon="5.52443">
        <ele>472.4</ele>
        <time>2022-03-21T15:06:40Z</time>
      </trkpt>
      <trkpt lat="46.60891" lon="5.5244">
        <ele>472.4</ele>
        <time>2022-03-21T15:06:41Z</time>
      </trkpt>
      <trkpt lat="46.60887" lon="5.52437">
        <ele>472.4</ele>
        <time>2022-03-21T15:06:42Z</time>
      </trkpt>
      <trkpt lat="46.60882" lon="5.52434">
        <ele>472.4</ele>
        <time>2022-03-21T15:06:43Z</time>
      </trkpt>
      <trkpt lat="46.60877" lon="5.5243">
        <ele>472.8</ele>
        <time>2022-03-21T15:06:44Z</time>
      </trkpt>
      <trkpt lat="46.60873" lon="5.52427">
        <ele>472.8</ele>
        <time>2022-03-21T15:06:45Z</time>
      </trkpt>
      <trkpt lat="46.60868" lon="5.52424">
        <ele>472.8</ele>
        <time>2022-03-21T15:06:46Z</time>
      </trkpt>
      <trkpt lat="46.60863" lon="5.52421">
        <ele>472.8</ele>
        <time>2022-03-21T15:06:47Z</time>
      </trkpt>
      <trkpt lat="46.60859" lon="5.52418">
        <ele>473</ele>
        <time>2022-03-21T15:06:48Z</time>
      </trkpt>
      <trkpt lat="46.60854" lon="5.52415">
        <ele>473</ele>
        <time>2022-03-21T15:06:49Z</time>
      </trkpt>
      <trkpt lat="46.6085" lon="5.52411">
        <ele>473</ele>
        <time>2022-03-21T15:06:50Z</time>
      </trkpt>
      <trkpt lat="46.60845" lon="5.52408">
        <ele>473.2</ele>
        <time>2022-03-21T15:06:51Z</time>
      </trkpt>
      <trkpt lat="46.60841" lon="5.52405">
        <ele>473.2</ele>
        <time>2022-03-21T15:06:52Z</time>
      </trkpt>
      <trkpt lat="46.60837" lon="5.52402">
        <ele>473.2</ele>
        <time>2022-03-21T15:06:53Z</time>
      </trkpt>
      <trkpt lat="46.60833" lon="5.52399">
        <ele>473.2</ele>
        <time>2022-03-21T15:06:54Z</time>
      </trkpt>
      <trkpt lat="46.60829" lon="5.52395">
        <ele>473.6</ele>
        <time>2022-03-21T15:06:55Z</time>
      </trkpt>
      <trkpt lat="46.60825" lon="5.52392">
        <ele>473.6</ele>
        <time>2022-03-21T15:06:56Z</time>
      </trkpt>
      <trkpt lat="46.60821" lon="5.52388">
        <ele>473.8</ele>
        <time>2022-03-21T15:06:57Z</time>
      </trkpt>
      <trkpt lat="46.60817" lon="5.52385">
        <ele>473.8</ele>
        <time>2022-03-21T15:06:58Z</time>
      </trkpt>
      <trkpt lat="46.60813" lon="5.52381">
        <ele>474.2</ele>
        <time>2022-03-21T15:06:59Z</time>
      </trkpt>
      <trkpt lat="46.6081" lon="5.52378">
        <ele>474.2</ele>
        <time>2022-03-21T15:07:00Z</time>
      </trkpt>
      <trkpt lat="46.60806" lon="5.52374">
        <ele>474.6</ele>
        <time>2022-03-21T15:07:01Z</time>
      </trkpt>
      <trkpt lat="46.60802" lon="5.52371">
        <ele>474.6</ele>
        <time>2022-03-21T15:07:02Z</time>
      </trkpt>
      <trkpt lat="46.60799" lon="5.52367">
        <ele>474.8</ele>
        <time>2022-03-21T15:07:03Z</time>
      </trkpt>
      <trkpt lat="46.60795" lon="5.52364">
        <ele>474.8</ele>
        <time>2022-03-21T15:07:04Z</time>
      </trkpt>
      <trkpt lat="46.60792" lon="5.5236">
        <ele>475.2</ele>
        <time>2022-03-21T15:07:05Z</time>
      </trkpt>
      <trkpt lat="46.60788" lon="5.52356">
        <ele>475.4</ele>
        <time>2022-03-21T15:07:06Z</time>
      </trkpt>
      <trkpt lat="46.60785" lon="5.52352">
        <ele>475.6</ele>
        <time>2022-03-21T15:07:07Z</time>
      </trkpt>
      <trkpt lat="46.60781" lon="5.52348">
        <ele>475.6</ele>
        <time>2022-03-21T15:07:08Z</time>
      </trkpt>
      <trkpt lat="46.60777" lon="5.52344">
        <ele>476</ele>
        <time>2022-03-21T15:07:09Z</time>
      </trkpt>
      <trkpt lat="46.60773" lon="5.5234">
        <ele>476.2</ele>
        <time>2022-03-21T15:07:10Z</time>
      </trkpt>
      <trkpt lat="46.60769" lon="5.52336">
        <ele>476.4</ele>
        <time>2022-03-21T15:07:11Z</time>
      </trkpt>
      <trkpt lat="46.60765" lon="5.52332">
        <ele>476.6</ele>
        <time>2022-03-21T15:07:12Z</time>
      </trkpt>
      <trkpt lat="46.60762" lon="5.52328">
        <ele>476.6</ele>
        <time>2022-03-21T15:07:13Z</time>
      </trkpt>
      <trkpt lat="46.60758" lon="5.52323">
        <ele>477</ele>
        <time>2022-03-21T15:07:14Z</time>
      </trkpt>
      <trkpt lat="46.60754" lon="5.52319">
        <ele>477</ele>
        <time>2022-03-21T15:07:15Z</time>
      </trkpt>
      <trkpt lat="46.6075" lon="5.52315">
        <ele>477.4</ele>
        <time>2022-03-21T15:07:16Z</time>
      </trkpt>
      <trkpt lat="46.60747" lon="5.5231">
        <ele>477.4</ele>
        <time>2022-03-21T15:07:17Z</time>
      </trkpt>
      <trkpt lat="46.60743" lon="5.52306">
        <ele>477.6</ele>
        <time>2022-03-21T15:07:18Z</time>
      </trkpt>
      <trkpt lat="46.60739" lon="5.52302">
        <ele>477.6</ele>
        <time>2022-03-21T15:07:19Z</time>
      </trkpt>
      <trkpt lat="46.60735" lon="5.52297">
        <ele>478</ele>
        <time>2022-03-21T15:07:20Z</time>
      </trkpt>
      <trkpt lat="46.60731" lon="5.52293">
        <ele>478</ele>
        <time>2022-03-21T15:07:21Z</time>
      </trkpt>
      <trkpt lat="46.60727" lon="5.52289">
        <ele>478</ele>
        <time>2022-03-21T15:07:22Z</time>
      </trkpt>
      <trkpt lat="46.60723" lon="5.52285">
        <ele>478.2</ele>
        <time>2022-03-21T15:07:23Z</time>
      </trkpt>
      <trkpt lat="46.60719" lon="5.52281">
        <ele>478.4</ele>
        <time>2022-03-21T15:07:24Z</time>
      </trkpt>
      <trkpt lat="46.60714" lon="5.52276">
        <ele>478.4</ele>
        <time>2022-03-21T15:07:25Z</time>
      </trkpt>
      <trkpt lat="46.6071" lon="5.52273">
        <ele>478.4</ele>
        <time>2022-03-21T15:07:26Z</time>
      </trkpt>
      <trkpt lat="46.60706" lon="5.52269">
        <ele>478.8</ele>
        <time>2022-03-21T15:07:27Z</time>
      </trkpt>
      <trkpt lat="46.60701" lon="5.52265">
        <ele>478.8</ele>
        <time>2022-03-21T15:07:28Z</time>
      </trkpt>
      <trkpt lat="46.60697" lon="5.52262">
        <ele>479</ele>
        <time>2022-03-21T15:07:29Z</time>
      </trkpt>
      <trkpt lat="46.60692" lon="5.52258">
        <ele>479</ele>
        <time>2022-03-21T15:07:30Z</time>
      </trkpt>
      <trkpt lat="46.60688" lon="5.52255">
        <ele>479</ele>
        <time>2022-03-21T15:07:31Z</time>
      </trkpt>
      <trkpt lat="46.60683" lon="5.52253">
        <ele>479.2</ele>
        <time>2022-03-21T15:07:32Z</time>
      </trkpt>
      <trkpt lat="46.60678" lon="5.52251">
        <ele>479.2</ele>
        <time>2022-03-21T15:07:33Z</time>
      </trkpt>
      <trkpt lat="46.60673" lon="5.52249">
        <ele>479.6</ele>
        <time>2022-03-21T15:07:34Z</time>
      </trkpt>
      <trkpt lat="46.60668" lon="5.52247">
        <ele>479.6</ele>
        <time>2022-03-21T15:07:35Z</time>
      </trkpt>
      <trkpt lat="46.60663" lon="5.52246">
        <ele>479.6</ele>
        <time>2022-03-21T15:07:36Z</time>
      </trkpt>
      <trkpt lat="46.60659" lon="5.52245">
        <ele>479.8</ele>
        <time>2022-03-21T15:07:37Z</time>
      </trkpt>
      <trkpt lat="46.60654" lon="5.52244">
        <ele>479.8</ele>
        <time>2022-03-21T15:07:38Z</time>
      </trkpt>
      <trkpt lat="46.60649" lon="5.52243">
        <ele>480.2</ele>
        <time>2022-03-21T15:07:39Z</time>
      </trkpt>
      <trkpt lat="46.60644" lon="5.52242">
        <ele>480.2</ele>
        <time>2022-03-21T15:07:40Z</time>
      </trkpt>
      <trkpt lat="46.6064" lon="5.52241">
        <ele>480.4</ele>
        <time>2022-03-21T15:07:41Z</time>
      </trkpt>
      <trkpt lat="46.60635" lon="5.52241">
        <ele>480.6</ele>
        <time>2022-03-21T15:07:42Z</time>
      </trkpt>
      <trkpt lat="46.60631" lon="5.52241">
        <ele>480.6</ele>
        <time>2022-03-21T15:07:43Z</time>
      </trkpt>
      <trkpt lat="46.60626" lon="5.52241">
        <ele>481</ele>
        <time>2022-03-21T15:07:44Z</time>
      </trkpt>
      <trkpt lat="46.60622" lon="5.52241">
        <ele>481</ele>
        <time>2022-03-21T15:07:45Z</time>
      </trkpt>
      <trkpt lat="46.60618" lon="5.52241">
        <ele>481.2</ele>
        <time>2022-03-21T15:07:46Z</time>
      </trkpt>
      <trkpt lat="46.60614" lon="5.52241">
        <ele>481.2</ele>
        <time>2022-03-21T15:07:47Z</time>
      </trkpt>
      <trkpt lat="46.6061" lon="5.52241">
        <ele>481.4</ele>
        <time>2022-03-21T15:07:48Z</time>
      </trkpt>
      <trkpt lat="46.60607" lon="5.52241">
        <ele>481.4</ele>
        <time>2022-03-21T15:07:49Z</time>
      </trkpt>
      <trkpt lat="46.60603" lon="5.52241">
        <ele>481.8</ele>
        <time>2022-03-21T15:07:50Z</time>
      </trkpt>
      <trkpt lat="46.606" lon="5.52241">
        <ele>481.8</ele>
        <time>2022-03-21T15:07:51Z</time>
      </trkpt>
      <trkpt lat="46.60596" lon="5.52241">
        <ele>482.2</ele>
        <time>2022-03-21T15:07:52Z</time>
      </trkpt>
      <trkpt lat="46.60593" lon="5.52241">
        <ele>482.2</ele>
        <time>2022-03-21T15:07:53Z</time>
      </trkpt>
      <trkpt lat="46.6059" lon="5.5224">
        <ele>482.4</ele>
        <time>2022-03-21T15:07:54Z</time>
      </trkpt>
      <trkpt lat="46.60587" lon="5.5224">
        <ele>482.8</ele>
        <time>2022-03-21T15:07:55Z</time>
      </trkpt>
      <trkpt lat="46.60583" lon="5.52239">
        <ele>482.8</ele>
        <time>2022-03-21T15:07:56Z</time>
      </trkpt>
      <trkpt lat="46.6058" lon="5.52238">
        <ele>483</ele>
        <time>2022-03-21T15:07:57Z</time>
      </trkpt>
      <trkpt lat="46.60577" lon="5.52238">
        <ele>483</ele>
        <time>2022-03-21T15:07:58Z</time>
      </trkpt>
      <trkpt lat="46.60574" lon="5.52237">
        <ele>483.2</ele>
        <time>2022-03-21T15:07:59Z</time>
      </trkpt>
      <trkpt lat="46.60571" lon="5.52237">
        <ele>483.2</ele>
        <time>2022-03-21T15:08:00Z</time>
      </trkpt>
      <trkpt lat="46.60567" lon="5.52236">
        <ele>483.6</ele>
        <time>2022-03-21T15:08:01Z</time>
      </trkpt>
      <trkpt lat="46.60564" lon="5.52234">
        <ele>483.6</ele>
        <time>2022-03-21T15:08:02Z</time>
      </trkpt>
      <trkpt lat="46.60561" lon="5.52233">
        <ele>483.8</ele>
        <time>2022-03-21T15:08:03Z</time>
      </trkpt>
      <trkpt lat="46.60559" lon="5.52231">
        <ele>483.8</ele>
        <time>2022-03-21T15:08:04Z</time>
      </trkpt>
      <trkpt lat="46.60556" lon="5.5223">
        <ele>484.2</ele>
        <time>2022-03-21T15:08:05Z</time>
      </trkpt>
      <trkpt lat="46.60553" lon="5.52228">
        <ele>484.2</ele>
        <time>2022-03-21T15:08:06Z</time>
      </trkpt>
      <trkpt lat="46.60551" lon="5.52227">
        <ele>484.6</ele>
        <time>2022-03-21T15:08:07Z</time>
      </trkpt>
      <trkpt lat="46.60548" lon="5.52225">
        <ele>484.6</ele>
        <time>2022-03-21T15:08:08Z</time>
      </trkpt>
      <trkpt lat="46.60545" lon="5.52224">
        <ele>485</ele>
        <time>2022-03-21T15:08:09Z</time>
      </trkpt>
      <trkpt lat="46.60543" lon="5.52222">
        <ele>485.2</ele>
        <time>2022-03-21T15:08:10Z</time>
      </trkpt>
      <trkpt lat="46.6054" lon="5.5222">
        <ele>485.2</ele>
        <time>2022-03-21T15:08:11Z</time>
      </trkpt>
      <trkpt lat="46.60537" lon="5.52218">
        <ele>485.4</ele>
        <time>2022-03-21T15:08:12Z</time>
      </trkpt>
      <trkpt lat="46.60535" lon="5.52216">
        <ele>485.4</ele>
        <time>2022-03-21T15:08:13Z</time>
      </trkpt>
      <trkpt lat="46.60532" lon="5.52214">
        <ele>485.8</ele>
        <time>2022-03-21T15:08:14Z</time>
      </trkpt>
      <trkpt lat="46.6053" lon="5.52212">
        <ele>485.8</ele>
        <time>2022-03-21T15:08:15Z</time>
      </trkpt>
      <trkpt lat="46.60527" lon="5.52209">
        <ele>486</ele>
        <time>2022-03-21T15:08:16Z</time>
      </trkpt>
      <trkpt lat="46.60524" lon="5.52207">
        <ele>486</ele>
        <time>2022-03-21T15:08:17Z</time>
      </trkpt>
      <trkpt lat="46.60521" lon="5.52205">
        <ele>486.2</ele>
        <time>2022-03-21T15:08:18Z</time>
      </trkpt>
      <trkpt lat="46.60519" lon="5.52203">
        <ele>486.2</ele>
        <time>2022-03-21T15:08:19Z</time>
      </trkpt>
      <trkpt lat="46.60516" lon="5.522">
        <ele>486.6</ele>
        <time>2022-03-21T15:08:20Z</time>
      </trkpt>
      <trkpt lat="46.60513" lon="5.52198">
        <ele>486.6</ele>
        <time>2022-03-21T15:08:21Z</time>
      </trkpt>
      <trkpt lat="46.6051" lon="5.52195">
        <ele>486.8</ele>
        <time>2022-03-21T15:08:22Z</time>
      </trkpt>
      <trkpt lat="46.60507" lon="5.52193">
        <ele>486.8</ele>
        <time>2022-03-21T15:08:23Z</time>
      </trkpt>
      <trkpt lat="46.60504" lon="5.5219">
        <ele>487.2</ele>
        <time>2022-03-21T15:08:24Z</time>
      </trkpt>
      <trkpt lat="46.60501" lon="5.52187">
        <ele>487.2</ele>
        <time>2022-03-21T15:08:25Z</time>
      </trkpt>
      <trkpt lat="46.60499" lon="5.52185">
        <ele>487.4</ele>
        <time>2022-03-21T15:08:26Z</time>
      </trkpt>
      <trkpt lat="46.60496" lon="5.52182">
        <ele>487.6</ele>
        <time>2022-03-21T15:08:27Z</time>
      </trkpt>
      <trkpt lat="46.60493" lon="5.52179">
        <ele>487.6</ele>
        <time>2022-03-21T15:08:28Z</time>
      </trkpt>
      <trkpt lat="46.6049" lon="5.52176">
        <ele>488</ele>
        <time>2022-03-21T15:08:29Z</time>
      </trkpt>
      <trkpt lat="46.60488" lon="5.52173">
        <ele>488.2</ele>
        <time>2022-03-21T15:08:31Z</time>
      </trkpt>
      <trkpt lat="46.60485" lon="5.5217">
        <ele>488.4</ele>
        <time>2022-03-21T15:08:32Z</time>
      </trkpt>
      <trkpt lat="46.60482" lon="5.52166">
        <ele>488.4</ele>
        <time>2022-03-21T15:08:33Z</time>
      </trkpt>
      <trkpt lat="46.6048" lon="5.52163">
        <ele>488.8</ele>
        <time>2022-03-21T15:08:34Z</time>
      </trkpt>
      <trkpt lat="46.60477" lon="5.52159">
        <ele>488.8</ele>
        <time>2022-03-21T15:08:35Z</time>
      </trkpt>
      <trkpt lat="46.60475" lon="5.52156">
        <ele>489</ele>
        <time>2022-03-21T15:08:36Z</time>
      </trkpt>
      <trkpt lat="46.60472" lon="5.52153">
        <ele>489</ele>
        <time>2022-03-21T15:08:37Z</time>
      </trkpt>
      <trkpt lat="46.6047" lon="5.52149">
        <ele>489.4</ele>
        <time>2022-03-21T15:08:38Z</time>
      </trkpt>
      <trkpt lat="46.60467" lon="5.52146">
        <ele>489.4</ele>
        <time>2022-03-21T15:08:39Z</time>
      </trkpt>
      <trkpt lat="46.60464" lon="5.52143">
        <ele>489.8</ele>
        <time>2022-03-21T15:08:40Z</time>
      </trkpt>
      <trkpt lat="46.60462" lon="5.5214">
        <ele>490</ele>
        <time>2022-03-21T15:08:41Z</time>
      </trkpt>
      <trkpt lat="46.60459" lon="5.52137">
        <ele>490</ele>
        <time>2022-03-21T15:08:42Z</time>
      </trkpt>
      <trkpt lat="46.60456" lon="5.52134">
        <ele>490</ele>
        <time>2022-03-21T15:08:43Z</time>
      </trkpt>
      <trkpt lat="46.60453" lon="5.52131">
        <ele>490.2</ele>
        <time>2022-03-21T15:08:44Z</time>
      </trkpt>
      <trkpt lat="46.6045" lon="5.52128">
        <ele>490.2</ele>
        <time>2022-03-21T15:08:45Z</time>
      </trkpt>
      <trkpt lat="46.60447" lon="5.52126">
        <ele>490.6</ele>
        <time>2022-03-21T15:08:46Z</time>
      </trkpt>
      <trkpt lat="46.60445" lon="5.52123">
        <ele>490.6</ele>
        <time>2022-03-21T15:08:47Z</time>
      </trkpt>
      <trkpt lat="46.60442" lon="5.5212">
        <ele>491</ele>
        <time>2022-03-21T15:08:48Z</time>
      </trkpt>
      <trkpt lat="46.60439" lon="5.52117">
        <ele>491</ele>
        <time>2022-03-21T15:08:49Z</time>
      </trkpt>
      <trkpt lat="46.60436" lon="5.52114">
        <ele>491.2</ele>
        <time>2022-03-21T15:08:50Z</time>
      </trkpt>
      <trkpt lat="46.60433" lon="5.52112">
        <ele>491.2</ele>
        <time>2022-03-21T15:08:51Z</time>
      </trkpt>
      <trkpt lat="46.6043" lon="5.52109">
        <ele>491.2</ele>
        <time>2022-03-21T15:08:52Z</time>
      </trkpt>
      <trkpt lat="46.60427" lon="5.52107">
        <ele>491.6</ele>
        <time>2022-03-21T15:08:53Z</time>
      </trkpt>
      <trkpt lat="46.60424" lon="5.52104">
        <ele>491.6</ele>
        <time>2022-03-21T15:08:54Z</time>
      </trkpt>
      <trkpt lat="46.60421" lon="5.52102">
        <ele>491.6</ele>
        <time>2022-03-21T15:08:55Z</time>
      </trkpt>
      <trkpt lat="46.60417" lon="5.521">
        <ele>491.8</ele>
        <time>2022-03-21T15:08:56Z</time>
      </trkpt>
      <trkpt lat="46.60414" lon="5.52098">
        <ele>492.2</ele>
        <time>2022-03-21T15:08:57Z</time>
      </trkpt>
      <trkpt lat="46.60411" lon="5.52096">
        <ele>492.2</ele>
        <time>2022-03-21T15:08:58Z</time>
      </trkpt>
      <trkpt lat="46.60408" lon="5.52094">
        <ele>492.6</ele>
        <time>2022-03-21T15:08:59Z</time>
      </trkpt>
      <trkpt lat="46.60405" lon="5.52092">
        <ele>492.6</ele>
        <time>2022-03-21T15:09:00Z</time>
      </trkpt>
      <trkpt lat="46.60401" lon="5.5209">
        <ele>492.8</ele>
        <time>2022-03-21T15:09:01Z</time>
      </trkpt>
      <trkpt lat="46.60398" lon="5.52088">
        <ele>492.8</ele>
        <time>2022-03-21T15:09:02Z</time>
      </trkpt>
      <trkpt lat="46.60395" lon="5.52086">
        <ele>492.8</ele>
        <time>2022-03-21T15:09:03Z</time>
      </trkpt>
      <trkpt lat="46.60392" lon="5.52085">
        <ele>493.2</ele>
        <time>2022-03-21T15:09:04Z</time>
      </trkpt>
      <trkpt lat="46.60389" lon="5.52083">
        <ele>493.2</ele>
        <time>2022-03-21T15:09:05Z</time>
      </trkpt>
      <trkpt lat="46.60385" lon="5.52081">
        <ele>493.2</ele>
        <time>2022-03-21T15:09:06Z</time>
      </trkpt>
      <trkpt lat="46.60382" lon="5.52079">
        <ele>493.4</ele>
        <time>2022-03-21T15:09:07Z</time>
      </trkpt>
      <trkpt lat="46.60378" lon="5.52077">
        <ele>493.4</ele>
        <time>2022-03-21T15:09:08Z</time>
      </trkpt>
      <trkpt lat="46.60375" lon="5.52075">
        <ele>493.6</ele>
        <time>2022-03-21T15:09:09Z</time>
      </trkpt>
      <trkpt lat="46.60372" lon="5.52074">
        <ele>493.6</ele>
        <time>2022-03-21T15:09:10Z</time>
      </trkpt>
      <trkpt lat="46.60368" lon="5.52072">
        <ele>493.6</ele>
        <time>2022-03-21T15:09:11Z</time>
      </trkpt>
      <trkpt lat="46.60365" lon="5.5207">
        <ele>493.8</ele>
        <time>2022-03-21T15:09:12Z</time>
      </trkpt>
      <trkpt lat="46.60362" lon="5.52069">
        <ele>493.8</ele>
        <time>2022-03-21T15:09:13Z</time>
      </trkpt>
      <trkpt lat="46.60358" lon="5.52067">
        <ele>493.8</ele>
        <time>2022-03-21T15:09:14Z</time>
      </trkpt>
      <trkpt lat="46.60355" lon="5.52066">
        <ele>494.2</ele>
        <time>2022-03-21T15:09:15Z</time>
      </trkpt>
      <trkpt lat="46.60352" lon="5.52064">
        <ele>494.2</ele>
        <time>2022-03-21T15:09:16Z</time>
      </trkpt>
      <trkpt lat="46.60348" lon="5.52062">
        <ele>494.2</ele>
        <time>2022-03-21T15:09:17Z</time>
      </trkpt>
      <trkpt lat="46.60345" lon="5.5206">
        <ele>494.2</ele>
        <time>2022-03-21T15:09:18Z</time>
      </trkpt>
      <trkpt lat="46.60341" lon="5.52058">
        <ele>494.4</ele>
        <time>2022-03-21T15:09:19Z</time>
      </trkpt>
      <trkpt lat="46.60338" lon="5.52056">
        <ele>494.4</ele>
        <time>2022-03-21T15:09:20Z</time>
      </trkpt>
      <trkpt lat="46.60334" lon="5.52054">
        <ele>494.8</ele>
        <time>2022-03-21T15:09:21Z</time>
      </trkpt>
      <trkpt lat="46.6033" lon="5.52052">
        <ele>494.8</ele>
        <time>2022-03-21T15:09:22Z</time>
      </trkpt>
      <trkpt lat="46.60327" lon="5.5205">
        <ele>494.8</ele>
        <time>2022-03-21T15:09:23Z</time>
      </trkpt>
      <trkpt lat="46.60323" lon="5.52048">
        <ele>494.8</ele>
        <time>2022-03-21T15:09:24Z</time>
      </trkpt>
      <trkpt lat="46.60319" lon="5.52046">
        <ele>495</ele>
        <time>2022-03-21T15:09:25Z</time>
      </trkpt>
      <trkpt lat="46.60315" lon="5.52044">
        <ele>495</ele>
        <time>2022-03-21T15:09:26Z</time>
      </trkpt>
      <trkpt lat="46.60311" lon="5.52042">
        <ele>495</ele>
        <time>2022-03-21T15:09:27Z</time>
      </trkpt>
      <trkpt lat="46.60308" lon="5.5204">
        <ele>495.2</ele>
        <time>2022-03-21T15:09:28Z</time>
      </trkpt>
      <trkpt lat="46.60304" lon="5.52038">
        <ele>495.2</ele>
        <time>2022-03-21T15:09:29Z</time>
      </trkpt>
      <trkpt lat="46.603" lon="5.52036">
        <ele>495.4</ele>
        <time>2022-03-21T15:09:30Z</time>
      </trkpt>
      <trkpt lat="46.60296" lon="5.52034">
        <ele>495.4</ele>
        <time>2022-03-21T15:09:31Z</time>
      </trkpt>
      <trkpt lat="46.60292" lon="5.52032">
        <ele>495.4</ele>
        <time>2022-03-21T15:09:32Z</time>
      </trkpt>
      <trkpt lat="46.60288" lon="5.5203">
        <ele>495.6</ele>
        <time>2022-03-21T15:09:33Z</time>
      </trkpt>
      <trkpt lat="46.60284" lon="5.52028">
        <ele>495.6</ele>
        <time>2022-03-21T15:09:34Z</time>
      </trkpt>
      <trkpt lat="46.6028" lon="5.52026">
        <ele>495.6</ele>
        <time>2022-03-21T15:09:35Z</time>
      </trkpt>
      <trkpt lat="46.60276" lon="5.52025">
        <ele>495.6</ele>
        <time>2022-03-21T15:09:36Z</time>
      </trkpt>
      <trkpt lat="46.60271" lon="5.52023">
        <ele>495.6</ele>
        <time>2022-03-21T15:09:37Z</time>
      </trkpt>
      <trkpt lat="46.60267" lon="5.52021">
        <ele>495.6</ele>
        <time>2022-03-21T15:09:38Z</time>
      </trkpt>
      <trkpt lat="46.60263" lon="5.5202">
        <ele>495.6</ele>
        <time>2022-03-21T15:09:39Z</time>
      </trkpt>
      <trkpt lat="46.60259" lon="5.52018">
        <ele>495.8</ele>
        <time>2022-03-21T15:09:40Z</time>
      </trkpt>
      <trkpt lat="46.60254" lon="5.52017">
        <ele>495.8</ele>
        <time>2022-03-21T15:09:41Z</time>
      </trkpt>
      <trkpt lat="46.6025" lon="5.52015">
        <ele>495.8</ele>
        <time>2022-03-21T15:09:42Z</time>
      </trkpt>
      <trkpt lat="46.60245" lon="5.52014">
        <ele>496.2</ele>
        <time>2022-03-21T15:09:43Z</time>
      </trkpt>
      <trkpt lat="46.6024" lon="5.52012">
        <ele>496.2</ele>
        <time>2022-03-21T15:09:44Z</time>
      </trkpt>
      <trkpt lat="46.60236" lon="5.52011">
        <ele>496.2</ele>
        <time>2022-03-21T15:09:45Z</time>
      </trkpt>
      <trkpt lat="46.60231" lon="5.5201">
        <ele>496.2</ele>
        <time>2022-03-21T15:09:46Z</time>
      </trkpt>
      <trkpt lat="46.60226" lon="5.52009">
        <ele>496.2</ele>
        <time>2022-03-21T15:09:47Z</time>
      </trkpt>
      <trkpt lat="46.60222" lon="5.52008">
        <ele>496.2</ele>
        <time>2022-03-21T15:09:48Z</time>
      </trkpt>
      <trkpt lat="46.60217" lon="5.52007">
        <ele>496.4</ele>
        <time>2022-03-21T15:09:49Z</time>
      </trkpt>
      <trkpt lat="46.60213" lon="5.52007">
        <ele>496.4</ele>
        <time>2022-03-21T15:09:50Z</time>
      </trkpt>
      <trkpt lat="46.60208" lon="5.52007">
        <ele>496.6</ele>
        <time>2022-03-21T15:09:51Z</time>
      </trkpt>
      <trkpt lat="46.60204" lon="5.52007">
        <ele>496.6</ele>
        <time>2022-03-21T15:09:52Z</time>
      </trkpt>
      <trkpt lat="46.602" lon="5.52007">
        <ele>496.8</ele>
        <time>2022-03-21T15:09:53Z</time>
      </trkpt>
      <trkpt lat="46.60196" lon="5.52007">
        <ele>496.8</ele>
        <time>2022-03-21T15:09:54Z</time>
      </trkpt>
      <trkpt lat="46.60192" lon="5.52007">
        <ele>497.2</ele>
        <time>2022-03-21T15:09:55Z</time>
      </trkpt>
      <trkpt lat="46.60184" lon="5.52006">
        <ele>497.2</ele>
        <time>2022-03-21T15:09:56Z</time>
      </trkpt>
      <trkpt lat="46.6018" lon="5.52006">
        <ele>497.2</ele>
        <time>2022-03-21T15:09:57Z</time>
      </trkpt>
      <trkpt lat="46.60176" lon="5.52007">
        <ele>497.4</ele>
        <time>2022-03-21T15:09:58Z</time>
      </trkpt>
      <trkpt lat="46.60172" lon="5.52007">
        <ele>497.4</ele>
        <time>2022-03-21T15:09:59Z</time>
      </trkpt>
      <trkpt lat="46.60169" lon="5.52007">
        <ele>497.8</ele>
        <time>2022-03-21T15:10:00Z</time>
      </trkpt>
      <trkpt lat="46.60165" lon="5.52007">
        <ele>498</ele>
        <time>2022-03-21T15:10:01Z</time>
      </trkpt>
      <trkpt lat="46.60161" lon="5.52007">
        <ele>498.2</ele>
        <time>2022-03-21T15:10:02Z</time>
      </trkpt>
      <trkpt lat="46.60157" lon="5.52007">
        <ele>498.2</ele>
        <time>2022-03-21T15:10:03Z</time>
      </trkpt>
      <trkpt lat="46.60154" lon="5.52007">
        <ele>498.6</ele>
        <time>2022-03-21T15:10:04Z</time>
      </trkpt>
      <trkpt lat="46.6015" lon="5.52007">
        <ele>498.6</ele>
        <time>2022-03-21T15:10:05Z</time>
      </trkpt>
      <trkpt lat="46.60147" lon="5.52007">
        <ele>498.8</ele>
        <time>2022-03-21T15:10:06Z</time>
      </trkpt>
      <trkpt lat="46.60143" lon="5.52006">
        <ele>498.8</ele>
        <time>2022-03-21T15:10:07Z</time>
      </trkpt>
      <trkpt lat="46.6014" lon="5.52006">
        <ele>498.8</ele>
        <time>2022-03-21T15:10:08Z</time>
      </trkpt>
      <trkpt lat="46.60136" lon="5.52006">
        <ele>499</ele>
        <time>2022-03-21T15:10:09Z</time>
      </trkpt>
      <trkpt lat="46.60133" lon="5.52005">
        <ele>499.2</ele>
        <time>2022-03-21T15:10:10Z</time>
      </trkpt>
      <trkpt lat="46.60129" lon="5.52005">
        <ele>499.4</ele>
        <time>2022-03-21T15:10:11Z</time>
      </trkpt>
      <trkpt lat="46.60126" lon="5.52004">
        <ele>499.4</ele>
        <time>2022-03-21T15:10:12Z</time>
      </trkpt>
      <trkpt lat="46.60122" lon="5.52003">
        <ele>499.8</ele>
        <time>2022-03-21T15:10:13Z</time>
      </trkpt>
      <trkpt lat="46.60119" lon="5.52003">
        <ele>499.8</ele>
        <time>2022-03-21T15:10:14Z</time>
      </trkpt>
      <trkpt lat="46.60115" lon="5.52002">
        <ele>500.2</ele>
        <time>2022-03-21T15:10:15Z</time>
      </trkpt>
      <trkpt lat="46.60112" lon="5.52002">
        <ele>500.2</ele>
        <time>2022-03-21T15:10:16Z</time>
      </trkpt>
      <trkpt lat="46.60108" lon="5.52001">
        <ele>500.4</ele>
        <time>2022-03-21T15:10:17Z</time>
      </trkpt>
      <trkpt lat="46.60105" lon="5.52">
        <ele>500.4</ele>
        <time>2022-03-21T15:10:18Z</time>
      </trkpt>
      <trkpt lat="46.60101" lon="5.52">
        <ele>501</ele>
        <time>2022-03-21T15:10:19Z</time>
      </trkpt>
      <trkpt lat="46.60098" lon="5.51999">
        <ele>501</ele>
        <time>2022-03-21T15:10:20Z</time>
      </trkpt>
      <trkpt lat="46.60094" lon="5.51999">
        <ele>501.2</ele>
        <time>2022-03-21T15:10:21Z</time>
      </trkpt>
      <trkpt lat="46.60091" lon="5.51998">
        <ele>501.4</ele>
        <time>2022-03-21T15:10:22Z</time>
      </trkpt>
      <trkpt lat="46.60087" lon="5.51997">
        <ele>501.4</ele>
        <time>2022-03-21T15:10:23Z</time>
      </trkpt>
      <trkpt lat="46.60084" lon="5.51996">
        <ele>501.4</ele>
        <time>2022-03-21T15:10:24Z</time>
      </trkpt>
      <trkpt lat="46.6008" lon="5.51995">
        <ele>501.8</ele>
        <time>2022-03-21T15:10:25Z</time>
      </trkpt>
      <trkpt lat="46.60077" lon="5.51994">
        <ele>501.8</ele>
        <time>2022-03-21T15:10:26Z</time>
      </trkpt>
      <trkpt lat="46.60073" lon="5.51993">
        <ele>501.8</ele>
        <time>2022-03-21T15:10:27Z</time>
      </trkpt>
      <trkpt lat="46.6007" lon="5.51993">
        <ele>502</ele>
        <time>2022-03-21T15:10:28Z</time>
      </trkpt>
      <trkpt lat="46.60066" lon="5.51992">
        <ele>502</ele>
        <time>2022-03-21T15:10:29Z</time>
      </trkpt>
      <trkpt lat="46.60063" lon="5.51991">
        <ele>502.4</ele>
        <time>2022-03-21T15:10:30Z</time>
      </trkpt>
      <trkpt lat="46.60059" lon="5.5199">
        <ele>502.4</ele>
        <time>2022-03-21T15:10:31Z</time>
      </trkpt>
      <trkpt lat="46.60056" lon="5.51989">
        <ele>502.8</ele>
        <time>2022-03-21T15:10:32Z</time>
      </trkpt>
      <trkpt lat="46.60053" lon="5.51988">
        <ele>502.8</ele>
        <time>2022-03-21T15:10:33Z</time>
      </trkpt>
      <trkpt lat="46.60049" lon="5.51986">
        <ele>503</ele>
        <time>2022-03-21T15:10:34Z</time>
      </trkpt>
      <trkpt lat="46.60046" lon="5.51985">
        <ele>503</ele>
        <time>2022-03-21T15:10:35Z</time>
      </trkpt>
      <trkpt lat="46.60042" lon="5.51984">
        <ele>503</ele>
        <time>2022-03-21T15:10:36Z</time>
      </trkpt>
      <trkpt lat="46.60038" lon="5.51983">
        <ele>503.2</ele>
        <time>2022-03-21T15:10:37Z</time>
      </trkpt>
      <trkpt lat="46.60035" lon="5.51983">
        <ele>503.2</ele>
        <time>2022-03-21T15:10:38Z</time>
      </trkpt>
      <trkpt lat="46.60031" lon="5.51981">
        <ele>503.4</ele>
        <time>2022-03-21T15:10:39Z</time>
      </trkpt>
      <trkpt lat="46.60027" lon="5.5198">
        <ele>503.4</ele>
        <time>2022-03-21T15:10:40Z</time>
      </trkpt>
      <trkpt lat="46.60023" lon="5.51979">
        <ele>503.4</ele>
        <time>2022-03-21T15:10:41Z</time>
      </trkpt>
      <trkpt lat="46.60019" lon="5.51978">
        <ele>503.6</ele>
        <time>2022-03-21T15:10:42Z</time>
      </trkpt>
      <trkpt lat="46.60015" lon="5.51977">
        <ele>503.6</ele>
        <time>2022-03-21T15:10:43Z</time>
      </trkpt>
      <trkpt lat="46.6001" lon="5.51976">
        <ele>503.6</ele>
        <time>2022-03-21T15:10:44Z</time>
      </trkpt>
      <trkpt lat="46.60006" lon="5.51975">
        <ele>503.6</ele>
        <time>2022-03-21T15:10:45Z</time>
      </trkpt>
      <trkpt lat="46.60002" lon="5.51974">
        <ele>503.6</ele>
        <time>2022-03-21T15:10:46Z</time>
      </trkpt>
      <trkpt lat="46.59998" lon="5.51972">
        <ele>503.8</ele>
        <time>2022-03-21T15:10:47Z</time>
      </trkpt>
      <trkpt lat="46.59993" lon="5.51971">
        <ele>503.8</ele>
        <time>2022-03-21T15:10:48Z</time>
      </trkpt>
      <trkpt lat="46.59989" lon="5.51971">
        <ele>503.8</ele>
        <time>2022-03-21T15:10:49Z</time>
      </trkpt>
      <trkpt lat="46.59985" lon="5.51969">
        <ele>503.8</ele>
        <time>2022-03-21T15:10:50Z</time>
      </trkpt>
      <trkpt lat="46.59981" lon="5.51968">
        <ele>504</ele>
        <time>2022-03-21T15:10:51Z</time>
      </trkpt>
      <trkpt lat="46.59977" lon="5.51967">
        <ele>504</ele>
        <time>2022-03-21T15:10:52Z</time>
      </trkpt>
      <trkpt lat="46.59973" lon="5.51966">
        <ele>504</ele>
        <time>2022-03-21T15:10:53Z</time>
      </trkpt>
      <trkpt lat="46.59969" lon="5.51965">
        <ele>504.4</ele>
        <time>2022-03-21T15:10:54Z</time>
      </trkpt>
      <trkpt lat="46.59965" lon="5.51964">
        <ele>504.4</ele>
        <time>2022-03-21T15:10:55Z</time>
      </trkpt>
      <trkpt lat="46.59961" lon="5.51963">
        <ele>504.4</ele>
        <time>2022-03-21T15:10:56Z</time>
      </trkpt>
      <trkpt lat="46.59957" lon="5.51962">
        <ele>504.4</ele>
        <time>2022-03-21T15:10:57Z</time>
      </trkpt>
      <trkpt lat="46.59953" lon="5.51961">
        <ele>504.6</ele>
        <time>2022-03-21T15:10:58Z</time>
      </trkpt>
      <trkpt lat="46.59948" lon="5.5196">
        <ele>504.6</ele>
        <time>2022-03-21T15:10:59Z</time>
      </trkpt>
      <trkpt lat="46.59944" lon="5.51959">
        <ele>504.6</ele>
        <time>2022-03-21T15:11:00Z</time>
      </trkpt>
      <trkpt lat="46.5994" lon="5.51958">
        <ele>504.6</ele>
        <time>2022-03-21T15:11:01Z</time>
      </trkpt>
      <trkpt lat="46.59935" lon="5.51957">
        <ele>504.6</ele>
        <time>2022-03-21T15:11:02Z</time>
      </trkpt>
      <trkpt lat="46.5993" lon="5.51956">
        <ele>504.6</ele>
        <time>2022-03-21T15:11:03Z</time>
      </trkpt>
      <trkpt lat="46.59926" lon="5.51955">
        <ele>504.6</ele>
        <time>2022-03-21T15:11:04Z</time>
      </trkpt>
      <trkpt lat="46.59921" lon="5.51955">
        <ele>504.6</ele>
        <time>2022-03-21T15:11:05Z</time>
      </trkpt>
      <trkpt lat="46.59917" lon="5.51954">
        <ele>504.6</ele>
        <time>2022-03-21T15:11:06Z</time>
      </trkpt>
      <trkpt lat="46.59912" lon="5.51953">
        <ele>504.6</ele>
        <time>2022-03-21T15:11:07Z</time>
      </trkpt>
      <trkpt lat="46.59907" lon="5.51953">
        <ele>504.6</ele>
        <time>2022-03-21T15:11:08Z</time>
      </trkpt>
      <trkpt lat="46.59902" lon="5.51953">
        <ele>504.4</ele>
        <time>2022-03-21T15:11:09Z</time>
      </trkpt>
      <trkpt lat="46.59896" lon="5.51953">
        <ele>504.4</ele>
        <time>2022-03-21T15:11:10Z</time>
      </trkpt>
      <trkpt lat="46.5989" lon="5.51952">
        <ele>504.2</ele>
        <time>2022-03-21T15:11:11Z</time>
      </trkpt>
      <trkpt lat="46.59884" lon="5.51952">
        <ele>504.2</ele>
        <time>2022-03-21T15:11:12Z</time>
      </trkpt>
      <trkpt lat="46.59877" lon="5.51951">
        <ele>503.8</ele>
        <time>2022-03-21T15:11:13Z</time>
      </trkpt>
      <trkpt lat="46.5987" lon="5.51951">
        <ele>503.8</ele>
        <time>2022-03-21T15:11:14Z</time>
      </trkpt>
      <trkpt lat="46.59864" lon="5.51951">
        <ele>503.4</ele>
        <time>2022-03-21T15:11:15Z</time>
      </trkpt>
      <trkpt lat="46.59857" lon="5.51951">
        <ele>503.4</ele>
        <time>2022-03-21T15:11:16Z</time>
      </trkpt>
      <trkpt lat="46.5985" lon="5.51951">
        <ele>503</ele>
        <time>2022-03-21T15:11:17Z</time>
      </trkpt>
      <trkpt lat="46.59843" lon="5.51952">
        <ele>502.6</ele>
        <time>2022-03-21T15:11:18Z</time>
      </trkpt>
      <trkpt lat="46.59836" lon="5.51952">
        <ele>502.4</ele>
        <time>2022-03-21T15:11:19Z</time>
      </trkpt>
      <trkpt lat="46.59828" lon="5.51952">
        <ele>502.2</ele>
        <time>2022-03-21T15:11:20Z</time>
      </trkpt>
      <trkpt lat="46.59821" lon="5.51952">
        <ele>502.2</ele>
        <time>2022-03-21T15:11:21Z</time>
      </trkpt>
      <trkpt lat="46.59814" lon="5.51953">
        <ele>501.8</ele>
        <time>2022-03-21T15:11:22Z</time>
      </trkpt>
      <trkpt lat="46.59807" lon="5.51954">
        <ele>501.8</ele>
        <time>2022-03-21T15:11:23Z</time>
      </trkpt>
      <trkpt lat="46.598" lon="5.51955">
        <ele>501.6</ele>
        <time>2022-03-21T15:11:24Z</time>
      </trkpt>
      <trkpt lat="46.59792" lon="5.51955">
        <ele>501.4</ele>
        <time>2022-03-21T15:11:25Z</time>
      </trkpt>
      <trkpt lat="46.59785" lon="5.51956">
        <ele>501.4</ele>
        <time>2022-03-21T15:11:26Z</time>
      </trkpt>
      <trkpt lat="46.59778" lon="5.51956">
        <ele>501</ele>
        <time>2022-03-21T15:11:27Z</time>
      </trkpt>
      <trkpt lat="46.5977" lon="5.51957">
        <ele>500.8</ele>
        <time>2022-03-21T15:11:28Z</time>
      </trkpt>
      <trkpt lat="46.59762" lon="5.51959">
        <ele>500.6</ele>
        <time>2022-03-21T15:11:29Z</time>
      </trkpt>
      <trkpt lat="46.59754" lon="5.5196">
        <ele>500.2</ele>
        <time>2022-03-21T15:11:30Z</time>
      </trkpt>
      <trkpt lat="46.59745" lon="5.51961">
        <ele>500</ele>
        <time>2022-03-21T15:11:31Z</time>
      </trkpt>
      <trkpt lat="46.59737" lon="5.51963">
        <ele>499.8</ele>
        <time>2022-03-21T15:11:32Z</time>
      </trkpt>
      <trkpt lat="46.59728" lon="5.51964">
        <ele>499.6</ele>
        <time>2022-03-21T15:11:33Z</time>
      </trkpt>
      <trkpt lat="46.59718" lon="5.51966">
        <ele>499.6</ele>
        <time>2022-03-21T15:11:34Z</time>
      </trkpt>
      <trkpt lat="46.59708" lon="5.51967">
        <ele>499</ele>
        <time>2022-03-21T15:11:35Z</time>
      </trkpt>
      <trkpt lat="46.59699" lon="5.51967">
        <ele>498.8</ele>
        <time>2022-03-21T15:11:36Z</time>
      </trkpt>
      <trkpt lat="46.5969" lon="5.51967">
        <ele>498.6</ele>
        <time>2022-03-21T15:11:37Z</time>
      </trkpt>
      <trkpt lat="46.59679" lon="5.51967">
        <ele>498.2</ele>
        <time>2022-03-21T15:11:38Z</time>
      </trkpt>
      <trkpt lat="46.5967" lon="5.51968">
        <ele>497.8</ele>
        <time>2022-03-21T15:11:39Z</time>
      </trkpt>
      <trkpt lat="46.59661" lon="5.51969">
        <ele>497.4</ele>
        <time>2022-03-21T15:11:40Z</time>
      </trkpt>
      <trkpt lat="46.5965" lon="5.5197">
        <ele>497</ele>
        <time>2022-03-21T15:11:41Z</time>
      </trkpt>
      <trkpt lat="46.59641" lon="5.5197">
        <ele>496.6</ele>
        <time>2022-03-21T15:11:42Z</time>
      </trkpt>
      <trkpt lat="46.59632" lon="5.5197">
        <ele>496.2</ele>
        <time>2022-03-21T15:11:43Z</time>
      </trkpt>
      <trkpt lat="46.59623" lon="5.51971">
        <ele>495.8</ele>
        <time>2022-03-21T15:11:44Z</time>
      </trkpt>
      <trkpt lat="46.59614" lon="5.51972">
        <ele>495.6</ele>
        <time>2022-03-21T15:11:45Z</time>
      </trkpt>
      <trkpt lat="46.59605" lon="5.51973">
        <ele>495.2</ele>
        <time>2022-03-21T15:11:46Z</time>
      </trkpt>
      <trkpt lat="46.59595" lon="5.51973">
        <ele>494.8</ele>
        <time>2022-03-21T15:11:47Z</time>
      </trkpt>
      <trkpt lat="46.59585" lon="5.51974">
        <ele>494.6</ele>
        <time>2022-03-21T15:11:48Z</time>
      </trkpt>
      <trkpt lat="46.59576" lon="5.51974">
        <ele>494.2</ele>
        <time>2022-03-21T15:11:49Z</time>
      </trkpt>
      <trkpt lat="46.59566" lon="5.51974">
        <ele>494</ele>
        <time>2022-03-21T15:11:50Z</time>
      </trkpt>
      <trkpt lat="46.59557" lon="5.51975">
        <ele>493.6</ele>
        <time>2022-03-21T15:11:51Z</time>
      </trkpt>
      <trkpt lat="46.59548" lon="5.51977">
        <ele>493.4</ele>
        <time>2022-03-21T15:11:52Z</time>
      </trkpt>
      <trkpt lat="46.59538" lon="5.51978">
        <ele>493</ele>
        <time>2022-03-21T15:11:53Z</time>
      </trkpt>
      <trkpt lat="46.59528" lon="5.5198">
        <ele>493</ele>
        <time>2022-03-21T15:11:54Z</time>
      </trkpt>
      <trkpt lat="46.59519" lon="5.51981">
        <ele>492.6</ele>
        <time>2022-03-21T15:11:55Z</time>
      </trkpt>
      <trkpt lat="46.59509" lon="5.51983">
        <ele>492.4</ele>
        <time>2022-03-21T15:11:56Z</time>
      </trkpt>
      <trkpt lat="46.59499" lon="5.51984">
        <ele>492</ele>
        <time>2022-03-21T15:11:57Z</time>
      </trkpt>
      <trkpt lat="46.59491" lon="5.51985">
        <ele>491.8</ele>
        <time>2022-03-21T15:11:58Z</time>
      </trkpt>
      <trkpt lat="46.59481" lon="5.51986">
        <ele>491.4</ele>
        <time>2022-03-21T15:11:59Z</time>
      </trkpt>
      <trkpt lat="46.5947" lon="5.51986">
        <ele>491</ele>
        <time>2022-03-21T15:12:00Z</time>
      </trkpt>
      <trkpt lat="46.59459" lon="5.51987">
        <ele>490.8</ele>
        <time>2022-03-21T15:12:01Z</time>
      </trkpt>
      <trkpt lat="46.59449" lon="5.51987">
        <ele>490.4</ele>
        <time>2022-03-21T15:12:02Z</time>
      </trkpt>
      <trkpt lat="46.59438" lon="5.51989">
        <ele>490</ele>
        <time>2022-03-21T15:12:03Z</time>
      </trkpt>
      <trkpt lat="46.59429" lon="5.5199">
        <ele>489.8</ele>
        <time>2022-03-21T15:12:04Z</time>
      </trkpt>
      <trkpt lat="46.59419" lon="5.51992">
        <ele>489.4</ele>
        <time>2022-03-21T15:12:05Z</time>
      </trkpt>
      <trkpt lat="46.59408" lon="5.51992">
        <ele>489.4</ele>
        <time>2022-03-21T15:12:06Z</time>
      </trkpt>
      <trkpt lat="46.59397" lon="5.51992">
        <ele>489.2</ele>
        <time>2022-03-21T15:12:07Z</time>
      </trkpt>
      <trkpt lat="46.59389" lon="5.51992">
        <ele>489.2</ele>
        <time>2022-03-21T15:12:08Z</time>
      </trkpt>
      <trkpt lat="46.5938" lon="5.51991">
        <ele>488.8</ele>
        <time>2022-03-21T15:12:09Z</time>
      </trkpt>
      <trkpt lat="46.59371" lon="5.51991">
        <ele>488.8</ele>
        <time>2022-03-21T15:12:10Z</time>
      </trkpt>
      <trkpt lat="46.59363" lon="5.51991">
        <ele>488.6</ele>
        <time>2022-03-21T15:12:11Z</time>
      </trkpt>
      <trkpt lat="46.59354" lon="5.5199">
        <ele>488.6</ele>
        <time>2022-03-21T15:12:12Z</time>
      </trkpt>
      <trkpt lat="46.59346" lon="5.5199">
        <ele>488.6</ele>
        <time>2022-03-21T15:12:13Z</time>
      </trkpt>
      <trkpt lat="46.59338" lon="5.5199">
        <ele>488.6</ele>
        <time>2022-03-21T15:12:14Z</time>
      </trkpt>
      <trkpt lat="46.5933" lon="5.5199">
        <ele>488.6</ele>
        <time>2022-03-21T15:12:15Z</time>
      </trkpt>
      <trkpt lat="46.59322" lon="5.5199">
        <ele>488.6</ele>
        <time>2022-03-21T15:12:16Z</time>
      </trkpt>
      <trkpt lat="46.59314" lon="5.5199">
        <ele>488.6</ele>
        <time>2022-03-21T15:12:17Z</time>
      </trkpt>
      <trkpt lat="46.59306" lon="5.5199">
        <ele>488.6</ele>
        <time>2022-03-21T15:12:18Z</time>
      </trkpt>
      <trkpt lat="46.59298" lon="5.51989">
        <ele>488.4</ele>
        <time>2022-03-21T15:12:19Z</time>
      </trkpt>
      <trkpt lat="46.59291" lon="5.51989">
        <ele>488.4</ele>
        <time>2022-03-21T15:12:20Z</time>
      </trkpt>
      <trkpt lat="46.59283" lon="5.51988">
        <ele>488.4</ele>
        <time>2022-03-21T15:12:21Z</time>
      </trkpt>
      <trkpt lat="46.59276" lon="5.51987">
        <ele>488.4</ele>
        <time>2022-03-21T15:12:22Z</time>
      </trkpt>
      <trkpt lat="46.59269" lon="5.51986">
        <ele>488.4</ele>
        <time>2022-03-21T15:12:23Z</time>
      </trkpt>
      <trkpt lat="46.59262" lon="5.51985">
        <ele>488.4</ele>
        <time>2022-03-21T15:12:24Z</time>
      </trkpt>
      <trkpt lat="46.59255" lon="5.51984">
        <ele>488.4</ele>
        <time>2022-03-21T15:12:25Z</time>
      </trkpt>
      <trkpt lat="46.59248" lon="5.51984">
        <ele>488.4</ele>
        <time>2022-03-21T15:12:26Z</time>
      </trkpt>
      <trkpt lat="46.59241" lon="5.51982">
        <ele>488.4</ele>
        <time>2022-03-21T15:12:27Z</time>
      </trkpt>
      <trkpt lat="46.59235" lon="5.51981">
        <ele>488.4</ele>
        <time>2022-03-21T15:12:28Z</time>
      </trkpt>
      <trkpt lat="46.59228" lon="5.5198">
        <ele>488.4</ele>
        <time>2022-03-21T15:12:29Z</time>
      </trkpt>
      <trkpt lat="46.59222" lon="5.51979">
        <ele>488.6</ele>
        <time>2022-03-21T15:12:30Z</time>
      </trkpt>
      <trkpt lat="46.59216" lon="5.51978">
        <ele>488.6</ele>
        <time>2022-03-21T15:12:31Z</time>
      </trkpt>
      <trkpt lat="46.59209" lon="5.51977">
        <ele>488.8</ele>
        <time>2022-03-21T15:12:32Z</time>
      </trkpt>
      <trkpt lat="46.59203" lon="5.51976">
        <ele>488.8</ele>
        <time>2022-03-21T15:12:33Z</time>
      </trkpt>
      <trkpt lat="46.59197" lon="5.51975">
        <ele>489.2</ele>
        <time>2022-03-21T15:12:34Z</time>
      </trkpt>
      <trkpt lat="46.5919" lon="5.51973">
        <ele>489.4</ele>
        <time>2022-03-21T15:12:35Z</time>
      </trkpt>
      <trkpt lat="46.59184" lon="5.51972">
        <ele>489.4</ele>
        <time>2022-03-21T15:12:36Z</time>
      </trkpt>
      <trkpt lat="46.59178" lon="5.51971">
        <ele>489.6</ele>
        <time>2022-03-21T15:12:37Z</time>
      </trkpt>
      <trkpt lat="46.59172" lon="5.5197">
        <ele>489.6</ele>
        <time>2022-03-21T15:12:38Z</time>
      </trkpt>
      <trkpt lat="46.59166" lon="5.51969">
        <ele>490</ele>
        <time>2022-03-21T15:12:39Z</time>
      </trkpt>
      <trkpt lat="46.5916" lon="5.51967">
        <ele>490</ele>
        <time>2022-03-21T15:12:40Z</time>
      </trkpt>
      <trkpt lat="46.59154" lon="5.51966">
        <ele>490.2</ele>
        <time>2022-03-21T15:12:41Z</time>
      </trkpt>
      <trkpt lat="46.59148" lon="5.51965">
        <ele>490.2</ele>
        <time>2022-03-21T15:12:42Z</time>
      </trkpt>
      <trkpt lat="46.59141" lon="5.51964">
        <ele>490.2</ele>
        <time>2022-03-21T15:12:43Z</time>
      </trkpt>
      <trkpt lat="46.59135" lon="5.51962">
        <ele>490.2</ele>
        <time>2022-03-21T15:12:44Z</time>
      </trkpt>
      <trkpt lat="46.59129" lon="5.51961">
        <ele>490.2</ele>
        <time>2022-03-21T15:12:45Z</time>
      </trkpt>
      <trkpt lat="46.59123" lon="5.5196">
        <ele>490.4</ele>
        <time>2022-03-21T15:12:46Z</time>
      </trkpt>
      <trkpt lat="46.59116" lon="5.51958">
        <ele>490.4</ele>
        <time>2022-03-21T15:12:47Z</time>
      </trkpt>
      <trkpt lat="46.5911" lon="5.51957">
        <ele>490.4</ele>
        <time>2022-03-21T15:12:48Z</time>
      </trkpt>
      <trkpt lat="46.59103" lon="5.51956">
        <ele>490.4</ele>
        <time>2022-03-21T15:12:49Z</time>
      </trkpt>
      <trkpt lat="46.59097" lon="5.51955">
        <ele>490.4</ele>
        <time>2022-03-21T15:12:50Z</time>
      </trkpt>
      <trkpt lat="46.59091" lon="5.51954">
        <ele>490.8</ele>
        <time>2022-03-21T15:12:51Z</time>
      </trkpt>
      <trkpt lat="46.59084" lon="5.51952">
        <ele>490.8</ele>
        <time>2022-03-21T15:12:52Z</time>
      </trkpt>
      <trkpt lat="46.59078" lon="5.51951">
        <ele>490.8</ele>
        <time>2022-03-21T15:12:53Z</time>
      </trkpt>
      <trkpt lat="46.59071" lon="5.51949">
        <ele>490.8</ele>
        <time>2022-03-21T15:12:54Z</time>
      </trkpt>
      <trkpt lat="46.59065" lon="5.51948">
        <ele>491</ele>
        <time>2022-03-21T15:12:55Z</time>
      </trkpt>
      <trkpt lat="46.59059" lon="5.51947">
        <ele>491</ele>
        <time>2022-03-21T15:12:56Z</time>
      </trkpt>
      <trkpt lat="46.59052" lon="5.51946">
        <ele>491</ele>
        <time>2022-03-21T15:12:57Z</time>
      </trkpt>
      <trkpt lat="46.59046" lon="5.51946">
        <ele>491</ele>
        <time>2022-03-21T15:12:58Z</time>
      </trkpt>
      <trkpt lat="46.59039" lon="5.51945">
        <ele>491</ele>
        <time>2022-03-21T15:12:59Z</time>
      </trkpt>
      <trkpt lat="46.59033" lon="5.51945">
        <ele>491.2</ele>
        <time>2022-03-21T15:13:00Z</time>
      </trkpt>
      <trkpt lat="46.59027" lon="5.51945">
        <ele>491.2</ele>
        <time>2022-03-21T15:13:01Z</time>
      </trkpt>
      <trkpt lat="46.59021" lon="5.51945">
        <ele>491.2</ele>
        <time>2022-03-21T15:13:02Z</time>
      </trkpt>
      <trkpt lat="46.59015" lon="5.51945">
        <ele>491.4</ele>
        <time>2022-03-21T15:13:03Z</time>
      </trkpt>
      <trkpt lat="46.59008" lon="5.51945">
        <ele>491.4</ele>
        <time>2022-03-21T15:13:04Z</time>
      </trkpt>
      <trkpt lat="46.59002" lon="5.51945">
        <ele>491.4</ele>
        <time>2022-03-21T15:13:05Z</time>
      </trkpt>
      <trkpt lat="46.58996" lon="5.51945">
        <ele>491.4</ele>
        <time>2022-03-21T15:13:07Z</time>
      </trkpt>
      <trkpt lat="46.5899" lon="5.51946">
        <ele>491.4</ele>
        <time>2022-03-21T15:13:08Z</time>
      </trkpt>
      <trkpt lat="46.58984" lon="5.51946">
        <ele>491.4</ele>
        <time>2022-03-21T15:13:09Z</time>
      </trkpt>
      <trkpt lat="46.58978" lon="5.51945">
        <ele>491.4</ele>
        <time>2022-03-21T15:13:10Z</time>
      </trkpt>
      <trkpt lat="46.58971" lon="5.51945">
        <ele>491.4</ele>
        <time>2022-03-21T15:13:11Z</time>
      </trkpt>
      <trkpt lat="46.58964" lon="5.51945">
        <ele>491.4</ele>
        <time>2022-03-21T15:13:12Z</time>
      </trkpt>
      <trkpt lat="46.58957" lon="5.51945">
        <ele>491</ele>
        <time>2022-03-21T15:13:13Z</time>
      </trkpt>
      <trkpt lat="46.5895" lon="5.51944">
        <ele>491</ele>
        <time>2022-03-21T15:13:14Z</time>
      </trkpt>
      <trkpt lat="46.58943" lon="5.51943">
        <ele>491</ele>
        <time>2022-03-21T15:13:15Z</time>
      </trkpt>
      <trkpt lat="46.58936" lon="5.51942">
        <ele>491</ele>
        <time>2022-03-21T15:13:16Z</time>
      </trkpt>
      <trkpt lat="46.58929" lon="5.51941">
        <ele>491</ele>
        <time>2022-03-21T15:13:17Z</time>
      </trkpt>
      <trkpt lat="46.58922" lon="5.51939">
        <ele>491</ele>
        <time>2022-03-21T15:13:18Z</time>
      </trkpt>
      <trkpt lat="46.58916" lon="5.51938">
        <ele>491</ele>
        <time>2022-03-21T15:13:19Z</time>
      </trkpt>
      <trkpt lat="46.58909" lon="5.51937">
        <ele>491</ele>
        <time>2022-03-21T15:13:20Z</time>
      </trkpt>
      <trkpt lat="46.58903" lon="5.51936">
        <ele>491</ele>
        <time>2022-03-21T15:13:21Z</time>
      </trkpt>
      <trkpt lat="46.58896" lon="5.51934">
        <ele>491</ele>
        <time>2022-03-21T15:13:22Z</time>
      </trkpt>
      <trkpt lat="46.5889" lon="5.51932">
        <ele>491</ele>
        <time>2022-03-21T15:13:23Z</time>
      </trkpt>
      <trkpt lat="46.58884" lon="5.51931">
        <ele>491</ele>
        <time>2022-03-21T15:13:24Z</time>
      </trkpt>
      <trkpt lat="46.58878" lon="5.51929">
        <ele>491</ele>
        <time>2022-03-21T15:13:25Z</time>
      </trkpt>
      <trkpt lat="46.58872" lon="5.51928">
        <ele>491</ele>
        <time>2022-03-21T15:13:26Z</time>
      </trkpt>
      <trkpt lat="46.58866" lon="5.51927">
        <ele>491.4</ele>
        <time>2022-03-21T15:13:27Z</time>
      </trkpt>
      <trkpt lat="46.5886" lon="5.51926">
        <ele>491.4</ele>
        <time>2022-03-21T15:13:28Z</time>
      </trkpt>
      <trkpt lat="46.58854" lon="5.51925">
        <ele>491.6</ele>
        <time>2022-03-21T15:13:29Z</time>
      </trkpt>
      <trkpt lat="46.58847" lon="5.51924">
        <ele>491.6</ele>
        <time>2022-03-21T15:13:30Z</time>
      </trkpt>
      <trkpt lat="46.58841" lon="5.51923">
        <ele>491.8</ele>
        <time>2022-03-21T15:13:31Z</time>
      </trkpt>
      <trkpt lat="46.58836" lon="5.51923">
        <ele>491.8</ele>
        <time>2022-03-21T15:13:32Z</time>
      </trkpt>
      <trkpt lat="46.5883" lon="5.51923">
        <ele>492.2</ele>
        <time>2022-03-21T15:13:33Z</time>
      </trkpt>
      <trkpt lat="46.58824" lon="5.51923">
        <ele>492.2</ele>
        <time>2022-03-21T15:13:34Z</time>
      </trkpt>
      <trkpt lat="46.58818" lon="5.51923">
        <ele>492.2</ele>
        <time>2022-03-21T15:13:35Z</time>
      </trkpt>
      <trkpt lat="46.58812" lon="5.51923">
        <ele>492.2</ele>
        <time>2022-03-21T15:13:36Z</time>
      </trkpt>
      <trkpt lat="46.58807" lon="5.51923">
        <ele>492.4</ele>
        <time>2022-03-21T15:13:37Z</time>
      </trkpt>
      <trkpt lat="46.58801" lon="5.51922">
        <ele>492.4</ele>
        <time>2022-03-21T15:13:38Z</time>
      </trkpt>
      <trkpt lat="46.58795" lon="5.51922">
        <ele>492.4</ele>
        <time>2022-03-21T15:13:39Z</time>
      </trkpt>
      <trkpt lat="46.58789" lon="5.51922">
        <ele>492.4</ele>
        <time>2022-03-21T15:13:40Z</time>
      </trkpt>
      <trkpt lat="46.58783" lon="5.51922">
        <ele>492.4</ele>
        <time>2022-03-21T15:13:41Z</time>
      </trkpt>
      <trkpt lat="46.58776" lon="5.51922">
        <ele>492.4</ele>
        <time>2022-03-21T15:13:42Z</time>
      </trkpt>
      <trkpt lat="46.5877" lon="5.51922">
        <ele>492.4</ele>
        <time>2022-03-21T15:13:43Z</time>
      </trkpt>
      <trkpt lat="46.58764" lon="5.51922">
        <ele>492.4</ele>
        <time>2022-03-21T15:13:44Z</time>
      </trkpt>
      <trkpt lat="46.58758" lon="5.51921">
        <ele>492.4</ele>
        <time>2022-03-21T15:13:45Z</time>
      </trkpt>
      <trkpt lat="46.58752" lon="5.51919">
        <ele>492.4</ele>
        <time>2022-03-21T15:13:46Z</time>
      </trkpt>
      <trkpt lat="46.58746" lon="5.51918">
        <ele>492.4</ele>
        <time>2022-03-21T15:13:47Z</time>
      </trkpt>
      <trkpt lat="46.58739" lon="5.51916">
        <ele>492.4</ele>
        <time>2022-03-21T15:13:48Z</time>
      </trkpt>
      <trkpt lat="46.58732" lon="5.51914">
        <ele>492.2</ele>
        <time>2022-03-21T15:13:49Z</time>
      </trkpt>
      <trkpt lat="46.58726" lon="5.51912">
        <ele>492.2</ele>
        <time>2022-03-21T15:13:50Z</time>
      </trkpt>
      <trkpt lat="46.58719" lon="5.51909">
        <ele>492</ele>
        <time>2022-03-21T15:13:51Z</time>
      </trkpt>
      <trkpt lat="46.58713" lon="5.51907">
        <ele>492</ele>
        <time>2022-03-21T15:13:52Z</time>
      </trkpt>
      <trkpt lat="46.58706" lon="5.51903">
        <ele>492</ele>
        <time>2022-03-21T15:13:53Z</time>
      </trkpt>
      <trkpt lat="46.58698" lon="5.51899">
        <ele>491.6</ele>
        <time>2022-03-21T15:13:54Z</time>
      </trkpt>
      <trkpt lat="46.58692" lon="5.51895">
        <ele>491.6</ele>
        <time>2022-03-21T15:13:55Z</time>
      </trkpt>
      <trkpt lat="46.58685" lon="5.51891">
        <ele>491.6</ele>
        <time>2022-03-21T15:13:56Z</time>
      </trkpt>
      <trkpt lat="46.58678" lon="5.51886">
        <ele>491.4</ele>
        <time>2022-03-21T15:13:57Z</time>
      </trkpt>
      <trkpt lat="46.58672" lon="5.51882">
        <ele>491.4</ele>
        <time>2022-03-21T15:13:58Z</time>
      </trkpt>
      <trkpt lat="46.58666" lon="5.51877">
        <ele>491.4</ele>
        <time>2022-03-21T15:13:59Z</time>
      </trkpt>
      <trkpt lat="46.58659" lon="5.51872">
        <ele>491.2</ele>
        <time>2022-03-21T15:14:00Z</time>
      </trkpt>
      <trkpt lat="46.58653" lon="5.51867">
        <ele>491.2</ele>
        <time>2022-03-21T15:14:01Z</time>
      </trkpt>
      <trkpt lat="46.58646" lon="5.51863">
        <ele>490.8</ele>
        <time>2022-03-21T15:14:02Z</time>
      </trkpt>
      <trkpt lat="46.58639" lon="5.51859">
        <ele>490.8</ele>
        <time>2022-03-21T15:14:03Z</time>
      </trkpt>
      <trkpt lat="46.58632" lon="5.51854">
        <ele>490.8</ele>
        <time>2022-03-21T15:14:04Z</time>
      </trkpt>
      <trkpt lat="46.58625" lon="5.5185">
        <ele>490.6</ele>
        <time>2022-03-21T15:14:05Z</time>
      </trkpt>
      <trkpt lat="46.58618" lon="5.51846">
        <ele>490.6</ele>
        <time>2022-03-21T15:14:06Z</time>
      </trkpt>
      <trkpt lat="46.5861" lon="5.51843">
        <ele>490.2</ele>
        <time>2022-03-21T15:14:07Z</time>
      </trkpt>
      <trkpt lat="46.58602" lon="5.5184">
        <ele>490.2</ele>
        <time>2022-03-21T15:14:08Z</time>
      </trkpt>
      <trkpt lat="46.58595" lon="5.51836">
        <ele>490</ele>
        <time>2022-03-21T15:14:09Z</time>
      </trkpt>
      <trkpt lat="46.58587" lon="5.51833">
        <ele>489.6</ele>
        <time>2022-03-21T15:14:10Z</time>
      </trkpt>
      <trkpt lat="46.58578" lon="5.5183">
        <ele>489.4</ele>
        <time>2022-03-21T15:14:11Z</time>
      </trkpt>
      <trkpt lat="46.5857" lon="5.51827">
        <ele>489.2</ele>
        <time>2022-03-21T15:14:12Z</time>
      </trkpt>
      <trkpt lat="46.58562" lon="5.51824">
        <ele>488.8</ele>
        <time>2022-03-21T15:14:13Z</time>
      </trkpt>
      <trkpt lat="46.58553" lon="5.51821">
        <ele>488.6</ele>
        <time>2022-03-21T15:14:14Z</time>
      </trkpt>
      <trkpt lat="46.58545" lon="5.51818">
        <ele>488.4</ele>
        <time>2022-03-21T15:14:15Z</time>
      </trkpt>
      <trkpt lat="46.58536" lon="5.51814">
        <ele>488.2</ele>
        <time>2022-03-21T15:14:16Z</time>
      </trkpt>
      <trkpt lat="46.58519" lon="5.51808">
        <ele>488</ele>
        <time>2022-03-21T15:14:17Z</time>
      </trkpt>
      <trkpt lat="46.58511" lon="5.51805">
        <ele>487.6</ele>
        <time>2022-03-21T15:14:18Z</time>
      </trkpt>
      <trkpt lat="46.58502" lon="5.51802">
        <ele>487.4</ele>
        <time>2022-03-21T15:14:19Z</time>
      </trkpt>
      <trkpt lat="46.58494" lon="5.51799">
        <ele>487.2</ele>
        <time>2022-03-21T15:14:20Z</time>
      </trkpt>
      <trkpt lat="46.58485" lon="5.51795">
        <ele>487</ele>
        <time>2022-03-21T15:14:21Z</time>
      </trkpt>
      <trkpt lat="46.58477" lon="5.51792">
        <ele>486.6</ele>
        <time>2022-03-21T15:14:22Z</time>
      </trkpt>
      <trkpt lat="46.58468" lon="5.5179">
        <ele>486.4</ele>
        <time>2022-03-21T15:14:23Z</time>
      </trkpt>
      <trkpt lat="46.58459" lon="5.51787">
        <ele>486</ele>
        <time>2022-03-21T15:14:24Z</time>
      </trkpt>
      <trkpt lat="46.5845" lon="5.51784">
        <ele>485.8</ele>
        <time>2022-03-21T15:14:25Z</time>
      </trkpt>
      <trkpt lat="46.58441" lon="5.51782">
        <ele>485.2</ele>
        <time>2022-03-21T15:14:26Z</time>
      </trkpt>
      <trkpt lat="46.58432" lon="5.5178">
        <ele>485</ele>
        <time>2022-03-21T15:14:27Z</time>
      </trkpt>
      <trkpt lat="46.58422" lon="5.51777">
        <ele>485</ele>
        <time>2022-03-21T15:14:28Z</time>
      </trkpt>
      <trkpt lat="46.58412" lon="5.51775">
        <ele>484.4</ele>
        <time>2022-03-21T15:14:29Z</time>
      </trkpt>
      <trkpt lat="46.58402" lon="5.51772">
        <ele>484</ele>
        <time>2022-03-21T15:14:30Z</time>
      </trkpt>
      <trkpt lat="46.58393" lon="5.51769">
        <ele>483.6</ele>
        <time>2022-03-21T15:14:31Z</time>
      </trkpt>
      <trkpt lat="46.58383" lon="5.51766">
        <ele>483.4</ele>
        <time>2022-03-21T15:14:32Z</time>
      </trkpt>
      <trkpt lat="46.58373" lon="5.51763">
        <ele>483</ele>
        <time>2022-03-21T15:14:33Z</time>
      </trkpt>
      <trkpt lat="46.58363" lon="5.51759">
        <ele>482.8</ele>
        <time>2022-03-21T15:14:34Z</time>
      </trkpt>
      <trkpt lat="46.58353" lon="5.51756">
        <ele>482.4</ele>
        <time>2022-03-21T15:14:35Z</time>
      </trkpt>
      <trkpt lat="46.58344" lon="5.51752">
        <ele>482</ele>
        <time>2022-03-21T15:14:36Z</time>
      </trkpt>
      <trkpt lat="46.58336" lon="5.51746">
        <ele>481.8</ele>
        <time>2022-03-21T15:14:37Z</time>
      </trkpt>
      <trkpt lat="46.58328" lon="5.5174">
        <ele>481.4</ele>
        <time>2022-03-21T15:14:38Z</time>
      </trkpt>
      <trkpt lat="46.58319" lon="5.51734">
        <ele>481.2</ele>
        <time>2022-03-21T15:14:39Z</time>
      </trkpt>
      <trkpt lat="46.58311" lon="5.51727">
        <ele>481.2</ele>
        <time>2022-03-21T15:14:40Z</time>
      </trkpt>
      <trkpt lat="46.58303" lon="5.51721">
        <ele>481</ele>
        <time>2022-03-21T15:14:41Z</time>
      </trkpt>
      <trkpt lat="46.58295" lon="5.51714">
        <ele>481</ele>
        <time>2022-03-21T15:14:42Z</time>
      </trkpt>
      <trkpt lat="46.58287" lon="5.51708">
        <ele>480.8</ele>
        <time>2022-03-21T15:14:43Z</time>
      </trkpt>
      <trkpt lat="46.5828" lon="5.51701">
        <ele>480.8</ele>
        <time>2022-03-21T15:14:44Z</time>
      </trkpt>
      <trkpt lat="46.58272" lon="5.51695">
        <ele>480.8</ele>
        <time>2022-03-21T15:14:45Z</time>
      </trkpt>
      <trkpt lat="46.58266" lon="5.51689">
        <ele>480.6</ele>
        <time>2022-03-21T15:14:46Z</time>
      </trkpt>
      <trkpt lat="46.58258" lon="5.51683">
        <ele>480.6</ele>
        <time>2022-03-21T15:14:47Z</time>
      </trkpt>
      <trkpt lat="46.58251" lon="5.51677">
        <ele>480.6</ele>
        <time>2022-03-21T15:14:48Z</time>
      </trkpt>
      <trkpt lat="46.58244" lon="5.51672">
        <ele>480.6</ele>
        <time>2022-03-21T15:14:49Z</time>
      </trkpt>
      <trkpt lat="46.58236" lon="5.51667">
        <ele>480.2</ele>
        <time>2022-03-21T15:14:50Z</time>
      </trkpt>
      <trkpt lat="46.58228" lon="5.51662">
        <ele>480.2</ele>
        <time>2022-03-21T15:14:51Z</time>
      </trkpt>
      <trkpt lat="46.58221" lon="5.51658">
        <ele>480</ele>
        <time>2022-03-21T15:14:52Z</time>
      </trkpt>
      <trkpt lat="46.58213" lon="5.51654">
        <ele>480</ele>
        <time>2022-03-21T15:14:53Z</time>
      </trkpt>
      <trkpt lat="46.58205" lon="5.5165">
        <ele>479.6</ele>
        <time>2022-03-21T15:14:54Z</time>
      </trkpt>
      <trkpt lat="46.58197" lon="5.51647">
        <ele>479.6</ele>
        <time>2022-03-21T15:14:55Z</time>
      </trkpt>
      <trkpt lat="46.58188" lon="5.51644">
        <ele>479.2</ele>
        <time>2022-03-21T15:14:56Z</time>
      </trkpt>
      <trkpt lat="46.5818" lon="5.51641">
        <ele>479.2</ele>
        <time>2022-03-21T15:14:57Z</time>
      </trkpt>
      <trkpt lat="46.58171" lon="5.51639">
        <ele>479</ele>
        <time>2022-03-21T15:14:58Z</time>
      </trkpt>
      <trkpt lat="46.58162" lon="5.51636">
        <ele>479</ele>
        <time>2022-03-21T15:14:59Z</time>
      </trkpt>
      <trkpt lat="46.58153" lon="5.51634">
        <ele>478.6</ele>
        <time>2022-03-21T15:15:00Z</time>
      </trkpt>
      <trkpt lat="46.58145" lon="5.51632">
        <ele>478.4</ele>
        <time>2022-03-21T15:15:01Z</time>
      </trkpt>
      <trkpt lat="46.58136" lon="5.5163">
        <ele>478.4</ele>
        <time>2022-03-21T15:15:02Z</time>
      </trkpt>
      <trkpt lat="46.58127" lon="5.51628">
        <ele>478</ele>
        <time>2022-03-21T15:15:03Z</time>
      </trkpt>
      <trkpt lat="46.58119" lon="5.51626">
        <ele>477.8</ele>
        <time>2022-03-21T15:15:04Z</time>
      </trkpt>
      <trkpt lat="46.5811" lon="5.51623">
        <ele>477.4</ele>
        <time>2022-03-21T15:15:05Z</time>
      </trkpt>
      <trkpt lat="46.58101" lon="5.51621">
        <ele>477.2</ele>
        <time>2022-03-21T15:15:06Z</time>
      </trkpt>
      <trkpt lat="46.58092" lon="5.51618">
        <ele>477</ele>
        <time>2022-03-21T15:15:07Z</time>
      </trkpt>
      <trkpt lat="46.58082" lon="5.51616">
        <ele>476.6</ele>
        <time>2022-03-21T15:15:08Z</time>
      </trkpt>
      <trkpt lat="46.58073" lon="5.51614">
        <ele>476.4</ele>
        <time>2022-03-21T15:15:09Z</time>
      </trkpt>
      <trkpt lat="46.58064" lon="5.51612">
        <ele>476</ele>
        <time>2022-03-21T15:15:10Z</time>
      </trkpt>
      <trkpt lat="46.58054" lon="5.51611">
        <ele>475.6</ele>
        <time>2022-03-21T15:15:11Z</time>
      </trkpt>
      <trkpt lat="46.58045" lon="5.51609">
        <ele>475.2</ele>
        <time>2022-03-21T15:15:12Z</time>
      </trkpt>
      <trkpt lat="46.58035" lon="5.51608">
        <ele>475</ele>
        <time>2022-03-21T15:15:13Z</time>
      </trkpt>
      <trkpt lat="46.58025" lon="5.51605">
        <ele>474.8</ele>
        <time>2022-03-21T15:15:14Z</time>
      </trkpt>
      <trkpt lat="46.58015" lon="5.51603">
        <ele>474.4</ele>
        <time>2022-03-21T15:15:15Z</time>
      </trkpt>
      <trkpt lat="46.58006" lon="5.516">
        <ele>474.2</ele>
        <time>2022-03-21T15:15:16Z</time>
      </trkpt>
      <trkpt lat="46.57997" lon="5.51598">
        <ele>474.2</ele>
        <time>2022-03-21T15:15:17Z</time>
      </trkpt>
      <trkpt lat="46.57988" lon="5.51595">
        <ele>473.8</ele>
        <time>2022-03-21T15:15:18Z</time>
      </trkpt>
      <trkpt lat="46.57979" lon="5.51592">
        <ele>473.6</ele>
        <time>2022-03-21T15:15:19Z</time>
      </trkpt>
      <trkpt lat="46.5797" lon="5.51589">
        <ele>473.2</ele>
        <time>2022-03-21T15:15:20Z</time>
      </trkpt>
      <trkpt lat="46.57962" lon="5.51585">
        <ele>472.8</ele>
        <time>2022-03-21T15:15:21Z</time>
      </trkpt>
      <trkpt lat="46.57953" lon="5.51581">
        <ele>472.8</ele>
        <time>2022-03-21T15:15:22Z</time>
      </trkpt>
      <trkpt lat="46.57944" lon="5.51577">
        <ele>472.4</ele>
        <time>2022-03-21T15:15:23Z</time>
      </trkpt>
      <trkpt lat="46.57935" lon="5.51575">
        <ele>472</ele>
        <time>2022-03-21T15:15:24Z</time>
      </trkpt>
      <trkpt lat="46.57925" lon="5.51572">
        <ele>471.6</ele>
        <time>2022-03-21T15:15:25Z</time>
      </trkpt>
      <trkpt lat="46.57916" lon="5.51569">
        <ele>471.2</ele>
        <time>2022-03-21T15:15:26Z</time>
      </trkpt>
      <trkpt lat="46.57906" lon="5.51565">
        <ele>470.8</ele>
        <time>2022-03-21T15:15:27Z</time>
      </trkpt>
      <trkpt lat="46.57897" lon="5.51562">
        <ele>470.2</ele>
        <time>2022-03-21T15:15:28Z</time>
      </trkpt>
      <trkpt lat="46.57887" lon="5.51559">
        <ele>469.8</ele>
        <time>2022-03-21T15:15:29Z</time>
      </trkpt>
      <trkpt lat="46.57878" lon="5.51556">
        <ele>469.4</ele>
        <time>2022-03-21T15:15:30Z</time>
      </trkpt>
      <trkpt lat="46.5787" lon="5.51552">
        <ele>468.8</ele>
        <time>2022-03-21T15:15:31Z</time>
      </trkpt>
      <trkpt lat="46.5786" lon="5.51548">
        <ele>468.4</ele>
        <time>2022-03-21T15:15:32Z</time>
      </trkpt>
      <trkpt lat="46.57852" lon="5.51544">
        <ele>467.8</ele>
        <time>2022-03-21T15:15:33Z</time>
      </trkpt>
      <trkpt lat="46.57843" lon="5.51541">
        <ele>467.2</ele>
        <time>2022-03-21T15:15:34Z</time>
      </trkpt>
      <trkpt lat="46.57834" lon="5.51538">
        <ele>466.8</ele>
        <time>2022-03-21T15:15:35Z</time>
      </trkpt>
      <trkpt lat="46.57825" lon="5.51535">
        <ele>466.4</ele>
        <time>2022-03-21T15:15:36Z</time>
      </trkpt>
      <trkpt lat="46.57816" lon="5.51531">
        <ele>465.8</ele>
        <time>2022-03-21T15:15:37Z</time>
      </trkpt>
      <trkpt lat="46.57806" lon="5.51528">
        <ele>465.4</ele>
        <time>2022-03-21T15:15:38Z</time>
      </trkpt>
      <trkpt lat="46.57796" lon="5.51524">
        <ele>465</ele>
        <time>2022-03-21T15:15:39Z</time>
      </trkpt>
      <trkpt lat="46.57786" lon="5.51521">
        <ele>464.4</ele>
        <time>2022-03-21T15:15:40Z</time>
      </trkpt>
      <trkpt lat="46.57776" lon="5.51518">
        <ele>464</ele>
        <time>2022-03-21T15:15:41Z</time>
      </trkpt>
      <trkpt lat="46.57767" lon="5.51514">
        <ele>463.6</ele>
        <time>2022-03-21T15:15:42Z</time>
      </trkpt>
      <trkpt lat="46.57757" lon="5.51511">
        <ele>463.2</ele>
        <time>2022-03-21T15:15:43Z</time>
      </trkpt>
      <trkpt lat="46.57747" lon="5.51508">
        <ele>462.8</ele>
        <time>2022-03-21T15:15:44Z</time>
      </trkpt>
      <trkpt lat="46.57739" lon="5.51504">
        <ele>462.4</ele>
        <time>2022-03-21T15:15:45Z</time>
      </trkpt>
      <trkpt lat="46.57729" lon="5.515">
        <ele>462</ele>
        <time>2022-03-21T15:15:46Z</time>
      </trkpt>
      <trkpt lat="46.5772" lon="5.51495">
        <ele>461.8</ele>
        <time>2022-03-21T15:15:47Z</time>
      </trkpt>
      <trkpt lat="46.57711" lon="5.51491">
        <ele>461.4</ele>
        <time>2022-03-21T15:15:48Z</time>
      </trkpt>
      <trkpt lat="46.57702" lon="5.51488">
        <ele>460.8</ele>
        <time>2022-03-21T15:15:49Z</time>
      </trkpt>
      <trkpt lat="46.57692" lon="5.51484">
        <ele>460.4</ele>
        <time>2022-03-21T15:15:50Z</time>
      </trkpt>
      <trkpt lat="46.57682" lon="5.51479">
        <ele>460</ele>
        <time>2022-03-21T15:15:51Z</time>
      </trkpt>
      <trkpt lat="46.57672" lon="5.51473">
        <ele>459.6</ele>
        <time>2022-03-21T15:15:52Z</time>
      </trkpt>
      <trkpt lat="46.57662" lon="5.51466">
        <ele>459.4</ele>
        <time>2022-03-21T15:15:53Z</time>
      </trkpt>
      <trkpt lat="46.57654" lon="5.51459">
        <ele>459.4</ele>
        <time>2022-03-21T15:15:54Z</time>
      </trkpt>
      <trkpt lat="46.57645" lon="5.51451">
        <ele>459.2</ele>
        <time>2022-03-21T15:15:55Z</time>
      </trkpt>
      <trkpt lat="46.57638" lon="5.51443">
        <ele>459.2</ele>
        <time>2022-03-21T15:15:56Z</time>
      </trkpt>
      <trkpt lat="46.57631" lon="5.51434">
        <ele>459.2</ele>
        <time>2022-03-21T15:15:57Z</time>
      </trkpt>
      <trkpt lat="46.57625" lon="5.51425">
        <ele>459.2</ele>
        <time>2022-03-21T15:15:58Z</time>
      </trkpt>
      <trkpt lat="46.57619" lon="5.51416">
        <ele>459.2</ele>
        <time>2022-03-21T15:15:59Z</time>
      </trkpt>
      <trkpt lat="46.57614" lon="5.51407">
        <ele>459.4</ele>
        <time>2022-03-21T15:16:00Z</time>
      </trkpt>
      <trkpt lat="46.57609" lon="5.51399">
        <ele>459.4</ele>
        <time>2022-03-21T15:16:01Z</time>
      </trkpt>
      <trkpt lat="46.57603" lon="5.51391">
        <ele>459.4</ele>
        <time>2022-03-21T15:16:02Z</time>
      </trkpt>
      <trkpt lat="46.57599" lon="5.51384">
        <ele>459.6</ele>
        <time>2022-03-21T15:16:03Z</time>
      </trkpt>
      <trkpt lat="46.57594" lon="5.51376">
        <ele>459.6</ele>
        <time>2022-03-21T15:16:04Z</time>
      </trkpt>
      <trkpt lat="46.5759" lon="5.5137">
        <ele>460</ele>
        <time>2022-03-21T15:16:05Z</time>
      </trkpt>
      <trkpt lat="46.57586" lon="5.51363">
        <ele>460.2</ele>
        <time>2022-03-21T15:16:06Z</time>
      </trkpt>
      <trkpt lat="46.57582" lon="5.51357">
        <ele>460.2</ele>
        <time>2022-03-21T15:16:07Z</time>
      </trkpt>
      <trkpt lat="46.57579" lon="5.51351">
        <ele>460.8</ele>
        <time>2022-03-21T15:16:08Z</time>
      </trkpt>
      <trkpt lat="46.57575" lon="5.51346">
        <ele>461</ele>
        <time>2022-03-21T15:16:09Z</time>
      </trkpt>
      <trkpt lat="46.57572" lon="5.51341">
        <ele>461.2</ele>
        <time>2022-03-21T15:16:10Z</time>
      </trkpt>
      <trkpt lat="46.57569" lon="5.51336">
        <ele>461.4</ele>
        <time>2022-03-21T15:16:11Z</time>
      </trkpt>
      <trkpt lat="46.57566" lon="5.51331">
        <ele>461.8</ele>
        <time>2022-03-21T15:16:12Z</time>
      </trkpt>
      <trkpt lat="46.57562" lon="5.51326">
        <ele>462</ele>
        <time>2022-03-21T15:16:13Z</time>
      </trkpt>
      <trkpt lat="46.5756" lon="5.51322">
        <ele>462.2</ele>
        <time>2022-03-21T15:16:14Z</time>
      </trkpt>
      <trkpt lat="46.57557" lon="5.51318">
        <ele>462.4</ele>
        <time>2022-03-21T15:16:15Z</time>
      </trkpt>
      <trkpt lat="46.57554" lon="5.51313">
        <ele>462.6</ele>
        <time>2022-03-21T15:16:16Z</time>
      </trkpt>
      <trkpt lat="46.57551" lon="5.51309">
        <ele>462.6</ele>
        <time>2022-03-21T15:16:17Z</time>
      </trkpt>
      <trkpt lat="46.57548" lon="5.51305">
        <ele>463</ele>
        <time>2022-03-21T15:16:18Z</time>
      </trkpt>
      <trkpt lat="46.57545" lon="5.51301">
        <ele>463</ele>
        <time>2022-03-21T15:16:19Z</time>
      </trkpt>
      <trkpt lat="46.57542" lon="5.51298">
        <ele>463.4</ele>
        <time>2022-03-21T15:16:20Z</time>
      </trkpt>
      <trkpt lat="46.5754" lon="5.51294">
        <ele>463.4</ele>
        <time>2022-03-21T15:16:21Z</time>
      </trkpt>
      <trkpt lat="46.57537" lon="5.5129">
        <ele>463.8</ele>
        <time>2022-03-21T15:16:22Z</time>
      </trkpt>
      <trkpt lat="46.57534" lon="5.51287">
        <ele>463.8</ele>
        <time>2022-03-21T15:16:23Z</time>
      </trkpt>
      <trkpt lat="46.5753" lon="5.51283">
        <ele>464.2</ele>
        <time>2022-03-21T15:16:24Z</time>
      </trkpt>
      <trkpt lat="46.57527" lon="5.51279">
        <ele>464.2</ele>
        <time>2022-03-21T15:16:25Z</time>
      </trkpt>
      <trkpt lat="46.57524" lon="5.51275">
        <ele>464.4</ele>
        <time>2022-03-21T15:16:26Z</time>
      </trkpt>
      <trkpt lat="46.5752" lon="5.51272">
        <ele>464.4</ele>
        <time>2022-03-21T15:16:27Z</time>
      </trkpt>
      <trkpt lat="46.57517" lon="5.51269">
        <ele>464.8</ele>
        <time>2022-03-21T15:16:28Z</time>
      </trkpt>
      <trkpt lat="46.57514" lon="5.51266">
        <ele>464.8</ele>
        <time>2022-03-21T15:16:29Z</time>
      </trkpt>
      <trkpt lat="46.5751" lon="5.51263">
        <ele>465.2</ele>
        <time>2022-03-21T15:16:30Z</time>
      </trkpt>
      <trkpt lat="46.57507" lon="5.5126">
        <ele>465.4</ele>
        <time>2022-03-21T15:16:31Z</time>
      </trkpt>
      <trkpt lat="46.57504" lon="5.51258">
        <ele>465.4</ele>
        <time>2022-03-21T15:16:32Z</time>
      </trkpt>
      <trkpt lat="46.575" lon="5.51256">
        <ele>465.6</ele>
        <time>2022-03-21T15:16:33Z</time>
      </trkpt>
      <trkpt lat="46.57497" lon="5.51254">
        <ele>465.6</ele>
        <time>2022-03-21T15:16:34Z</time>
      </trkpt>
      <trkpt lat="46.57494" lon="5.51251">
        <ele>466</ele>
        <time>2022-03-21T15:16:35Z</time>
      </trkpt>
      <trkpt lat="46.5749" lon="5.51249">
        <ele>466</ele>
        <time>2022-03-21T15:16:36Z</time>
      </trkpt>
      <trkpt lat="46.57487" lon="5.51248">
        <ele>466.2</ele>
        <time>2022-03-21T15:16:37Z</time>
      </trkpt>
      <trkpt lat="46.57484" lon="5.51246">
        <ele>466.2</ele>
        <time>2022-03-21T15:16:38Z</time>
      </trkpt>
      <trkpt lat="46.57481" lon="5.51243">
        <ele>466.6</ele>
        <time>2022-03-21T15:16:39Z</time>
      </trkpt>
      <trkpt lat="46.57478" lon="5.51241">
        <ele>466.6</ele>
        <time>2022-03-21T15:16:40Z</time>
      </trkpt>
      <trkpt lat="46.57474" lon="5.51239">
        <ele>467</ele>
        <time>2022-03-21T15:16:41Z</time>
      </trkpt>
      <trkpt lat="46.57471" lon="5.51237">
        <ele>467.2</ele>
        <time>2022-03-21T15:16:42Z</time>
      </trkpt>
      <trkpt lat="46.57467" lon="5.51235">
        <ele>467.2</ele>
        <time>2022-03-21T15:16:43Z</time>
      </trkpt>
      <trkpt lat="46.57464" lon="5.51232">
        <ele>467.6</ele>
        <time>2022-03-21T15:16:44Z</time>
      </trkpt>
      <trkpt lat="46.5746" lon="5.5123">
        <ele>467.6</ele>
        <time>2022-03-21T15:16:45Z</time>
      </trkpt>
      <trkpt lat="46.57457" lon="5.51228">
        <ele>467.8</ele>
        <time>2022-03-21T15:16:46Z</time>
      </trkpt>
      <trkpt lat="46.57453" lon="5.51226">
        <ele>467.8</ele>
        <time>2022-03-21T15:16:47Z</time>
      </trkpt>
      <trkpt lat="46.5745" lon="5.51224">
        <ele>468.2</ele>
        <time>2022-03-21T15:16:48Z</time>
      </trkpt>
      <trkpt lat="46.57446" lon="5.51222">
        <ele>468.2</ele>
        <time>2022-03-21T15:16:49Z</time>
      </trkpt>
      <trkpt lat="46.57443" lon="5.5122">
        <ele>468.4</ele>
        <time>2022-03-21T15:16:50Z</time>
      </trkpt>
      <trkpt lat="46.5744" lon="5.51218">
        <ele>468.4</ele>
        <time>2022-03-21T15:16:51Z</time>
      </trkpt>
      <trkpt lat="46.57437" lon="5.51216">
        <ele>468.8</ele>
        <time>2022-03-21T15:16:52Z</time>
      </trkpt>
      <trkpt lat="46.57433" lon="5.51214">
        <ele>468.8</ele>
        <time>2022-03-21T15:16:53Z</time>
      </trkpt>
      <trkpt lat="46.5743" lon="5.51212">
        <ele>469.2</ele>
        <time>2022-03-21T15:16:54Z</time>
      </trkpt>
      <trkpt lat="46.57427" lon="5.51209">
        <ele>469.2</ele>
        <time>2022-03-21T15:16:55Z</time>
      </trkpt>
      <trkpt lat="46.57424" lon="5.51207">
        <ele>469.4</ele>
        <time>2022-03-21T15:16:56Z</time>
      </trkpt>
      <trkpt lat="46.57421" lon="5.51205">
        <ele>469.4</ele>
        <time>2022-03-21T15:16:57Z</time>
      </trkpt>
      <trkpt lat="46.57417" lon="5.51203">
        <ele>469.8</ele>
        <time>2022-03-21T15:16:58Z</time>
      </trkpt>
      <trkpt lat="46.57414" lon="5.51201">
        <ele>469.8</ele>
        <time>2022-03-21T15:16:59Z</time>
      </trkpt>
      <trkpt lat="46.57411" lon="5.51199">
        <ele>470.2</ele>
        <time>2022-03-21T15:17:00Z</time>
      </trkpt>
      <trkpt lat="46.57408" lon="5.51197">
        <ele>470.4</ele>
        <time>2022-03-21T15:17:01Z</time>
      </trkpt>
      <trkpt lat="46.57405" lon="5.51195">
        <ele>470.4</ele>
        <time>2022-03-21T15:17:02Z</time>
      </trkpt>
      <trkpt lat="46.57401" lon="5.51193">
        <ele>470.8</ele>
        <time>2022-03-21T15:17:03Z</time>
      </trkpt>
      <trkpt lat="46.57398" lon="5.51191">
        <ele>470.8</ele>
        <time>2022-03-21T15:17:04Z</time>
      </trkpt>
      <trkpt lat="46.57395" lon="5.51189">
        <ele>471.2</ele>
        <time>2022-03-21T15:17:05Z</time>
      </trkpt>
      <trkpt lat="46.57392" lon="5.51187">
        <ele>471.2</ele>
        <time>2022-03-21T15:17:06Z</time>
      </trkpt>
      <trkpt lat="46.57389" lon="5.51185">
        <ele>471.4</ele>
        <time>2022-03-21T15:17:07Z</time>
      </trkpt>
      <trkpt lat="46.57386" lon="5.51183">
        <ele>471.4</ele>
        <time>2022-03-21T15:17:08Z</time>
      </trkpt>
      <trkpt lat="46.57383" lon="5.51181">
        <ele>471.8</ele>
        <time>2022-03-21T15:17:09Z</time>
      </trkpt>
      <trkpt lat="46.5738" lon="5.51179">
        <ele>471.8</ele>
        <time>2022-03-21T15:17:10Z</time>
      </trkpt>
      <trkpt lat="46.57378" lon="5.51177">
        <ele>472.2</ele>
        <time>2022-03-21T15:17:11Z</time>
      </trkpt>
      <trkpt lat="46.57375" lon="5.51176">
        <ele>472.2</ele>
        <time>2022-03-21T15:17:12Z</time>
      </trkpt>
      <trkpt lat="46.57372" lon="5.51174">
        <ele>472.6</ele>
        <time>2022-03-21T15:17:13Z</time>
      </trkpt>
      <trkpt lat="46.57368" lon="5.51172">
        <ele>472.6</ele>
        <time>2022-03-21T15:17:14Z</time>
      </trkpt>
      <trkpt lat="46.57365" lon="5.5117">
        <ele>472.8</ele>
        <time>2022-03-21T15:17:15Z</time>
      </trkpt>
      <trkpt lat="46.57362" lon="5.51168">
        <ele>472.8</ele>
        <time>2022-03-21T15:17:16Z</time>
      </trkpt>
      <trkpt lat="46.57358" lon="5.51167">
        <ele>473.2</ele>
        <time>2022-03-21T15:17:17Z</time>
      </trkpt>
      <trkpt lat="46.57355" lon="5.51165">
        <ele>473.6</ele>
        <time>2022-03-21T15:17:19Z</time>
      </trkpt>
      <trkpt lat="46.57352" lon="5.51163">
        <ele>473.6</ele>
        <time>2022-03-21T15:17:20Z</time>
      </trkpt>
      <trkpt lat="46.57348" lon="5.51161">
        <ele>474</ele>
        <time>2022-03-21T15:17:21Z</time>
      </trkpt>
      <trkpt lat="46.57345" lon="5.51159">
        <ele>474</ele>
        <time>2022-03-21T15:17:22Z</time>
      </trkpt>
      <trkpt lat="46.57342" lon="5.51157">
        <ele>474.2</ele>
        <time>2022-03-21T15:17:23Z</time>
      </trkpt>
      <trkpt lat="46.57339" lon="5.51155">
        <ele>474.2</ele>
        <time>2022-03-21T15:17:24Z</time>
      </trkpt>
      <trkpt lat="46.57336" lon="5.51153">
        <ele>474.4</ele>
        <time>2022-03-21T15:17:25Z</time>
      </trkpt>
      <trkpt lat="46.57333" lon="5.51151">
        <ele>474.4</ele>
        <time>2022-03-21T15:17:26Z</time>
      </trkpt>
      <trkpt lat="46.57329" lon="5.5115">
        <ele>474.8</ele>
        <time>2022-03-21T15:17:27Z</time>
      </trkpt>
      <trkpt lat="46.57326" lon="5.51148">
        <ele>474.8</ele>
        <time>2022-03-21T15:17:28Z</time>
      </trkpt>
      <trkpt lat="46.57323" lon="5.51146">
        <ele>475.2</ele>
        <time>2022-03-21T15:17:29Z</time>
      </trkpt>
      <trkpt lat="46.5732" lon="5.51145">
        <ele>475.4</ele>
        <time>2022-03-21T15:17:30Z</time>
      </trkpt>
      <trkpt lat="46.57317" lon="5.51144">
        <ele>475.4</ele>
        <time>2022-03-21T15:17:31Z</time>
      </trkpt>
      <trkpt lat="46.57314" lon="5.51143">
        <ele>475.6</ele>
        <time>2022-03-21T15:17:32Z</time>
      </trkpt>
      <trkpt lat="46.57311" lon="5.51142">
        <ele>475.6</ele>
        <time>2022-03-21T15:17:33Z</time>
      </trkpt>
      <trkpt lat="46.57308" lon="5.51142">
        <ele>476</ele>
        <time>2022-03-21T15:17:34Z</time>
      </trkpt>
      <trkpt lat="46.57305" lon="5.51141">
        <ele>476</ele>
        <time>2022-03-21T15:17:35Z</time>
      </trkpt>
      <trkpt lat="46.57301" lon="5.51141">
        <ele>476.2</ele>
        <time>2022-03-21T15:17:36Z</time>
      </trkpt>
      <trkpt lat="46.57298" lon="5.5114">
        <ele>476.2</ele>
        <time>2022-03-21T15:17:37Z</time>
      </trkpt>
      <trkpt lat="46.57294" lon="5.51139">
        <ele>476.6</ele>
        <time>2022-03-21T15:17:38Z</time>
      </trkpt>
      <trkpt lat="46.57291" lon="5.51138">
        <ele>476.8</ele>
        <time>2022-03-21T15:17:39Z</time>
      </trkpt>
      <trkpt lat="46.57287" lon="5.51137">
        <ele>476.8</ele>
        <time>2022-03-21T15:17:40Z</time>
      </trkpt>
      <trkpt lat="46.57284" lon="5.51137">
        <ele>477.2</ele>
        <time>2022-03-21T15:17:41Z</time>
      </trkpt>
      <trkpt lat="46.5728" lon="5.51136">
        <ele>477.2</ele>
        <time>2022-03-21T15:17:42Z</time>
      </trkpt>
      <trkpt lat="46.57277" lon="5.51135">
        <ele>477.4</ele>
        <time>2022-03-21T15:17:43Z</time>
      </trkpt>
      <trkpt lat="46.57275" lon="5.51133">
        <ele>477.4</ele>
        <time>2022-03-21T15:17:44Z</time>
      </trkpt>
      <trkpt lat="46.57272" lon="5.51132">
        <ele>477.8</ele>
        <time>2022-03-21T15:17:45Z</time>
      </trkpt>
      <trkpt lat="46.57269" lon="5.5113">
        <ele>478</ele>
        <time>2022-03-21T15:17:46Z</time>
      </trkpt>
      <trkpt lat="46.57266" lon="5.51129">
        <ele>478.2</ele>
        <time>2022-03-21T15:17:47Z</time>
      </trkpt>
      <trkpt lat="46.57262" lon="5.51128">
        <ele>478.2</ele>
        <time>2022-03-21T15:17:48Z</time>
      </trkpt>
      <trkpt lat="46.57259" lon="5.51126">
        <ele>478.6</ele>
        <time>2022-03-21T15:17:49Z</time>
      </trkpt>
      <trkpt lat="46.57255" lon="5.51125">
        <ele>478.6</ele>
        <time>2022-03-21T15:17:50Z</time>
      </trkpt>
      <trkpt lat="46.57252" lon="5.51123">
        <ele>478.8</ele>
        <time>2022-03-21T15:17:51Z</time>
      </trkpt>
      <trkpt lat="46.57249" lon="5.51121">
        <ele>478.8</ele>
        <time>2022-03-21T15:17:52Z</time>
      </trkpt>
      <trkpt lat="46.57245" lon="5.51119">
        <ele>479.2</ele>
        <time>2022-03-21T15:17:53Z</time>
      </trkpt>
      <trkpt lat="46.57242" lon="5.51118">
        <ele>479.2</ele>
        <time>2022-03-21T15:17:54Z</time>
      </trkpt>
      <trkpt lat="46.57239" lon="5.51116">
        <ele>479.6</ele>
        <time>2022-03-21T15:17:55Z</time>
      </trkpt>
      <trkpt lat="46.57235" lon="5.51113">
        <ele>479.8</ele>
        <time>2022-03-21T15:17:56Z</time>
      </trkpt>
      <trkpt lat="46.57232" lon="5.5111">
        <ele>479.8</ele>
        <time>2022-03-21T15:17:57Z</time>
      </trkpt>
      <trkpt lat="46.5723" lon="5.51107">
        <ele>480</ele>
        <time>2022-03-21T15:17:58Z</time>
      </trkpt>
      <trkpt lat="46.57227" lon="5.51104">
        <ele>480</ele>
        <time>2022-03-21T15:17:59Z</time>
      </trkpt>
      <trkpt lat="46.57224" lon="5.51101">
        <ele>480.2</ele>
        <time>2022-03-21T15:18:00Z</time>
      </trkpt>
      <trkpt lat="46.57222" lon="5.51098">
        <ele>480.2</ele>
        <time>2022-03-21T15:18:01Z</time>
      </trkpt>
      <trkpt lat="46.57219" lon="5.51094">
        <ele>480.6</ele>
        <time>2022-03-21T15:18:02Z</time>
      </trkpt>
      <trkpt lat="46.57216" lon="5.51091">
        <ele>480.6</ele>
        <time>2022-03-21T15:18:03Z</time>
      </trkpt>
      <trkpt lat="46.57214" lon="5.51088">
        <ele>480.8</ele>
        <time>2022-03-21T15:18:04Z</time>
      </trkpt>
      <trkpt lat="46.57212" lon="5.51084">
        <ele>480.8</ele>
        <time>2022-03-21T15:18:05Z</time>
      </trkpt>
      <trkpt lat="46.57209" lon="5.51081">
        <ele>481.2</ele>
        <time>2022-03-21T15:18:06Z</time>
      </trkpt>
      <trkpt lat="46.57206" lon="5.51077">
        <ele>481.2</ele>
        <time>2022-03-21T15:18:07Z</time>
      </trkpt>
      <trkpt lat="46.57203" lon="5.51074">
        <ele>481.6</ele>
        <time>2022-03-21T15:18:08Z</time>
      </trkpt>
      <trkpt lat="46.57201" lon="5.5107">
        <ele>481.8</ele>
        <time>2022-03-21T15:18:09Z</time>
      </trkpt>
      <trkpt lat="46.57198" lon="5.51067">
        <ele>482</ele>
        <time>2022-03-21T15:18:10Z</time>
      </trkpt>
      <trkpt lat="46.57196" lon="5.51063">
        <ele>482</ele>
        <time>2022-03-21T15:18:11Z</time>
      </trkpt>
      <trkpt lat="46.57193" lon="5.5106">
        <ele>482.4</ele>
        <time>2022-03-21T15:18:12Z</time>
      </trkpt>
      <trkpt lat="46.57191" lon="5.51057">
        <ele>482.6</ele>
        <time>2022-03-21T15:18:13Z</time>
      </trkpt>
      <trkpt lat="46.57188" lon="5.51053">
        <ele>482.6</ele>
        <time>2022-03-21T15:18:14Z</time>
      </trkpt>
      <trkpt lat="46.57186" lon="5.5105">
        <ele>483</ele>
        <time>2022-03-21T15:18:15Z</time>
      </trkpt>
      <trkpt lat="46.57183" lon="5.51047">
        <ele>483</ele>
        <time>2022-03-21T15:18:16Z</time>
      </trkpt>
      <trkpt lat="46.5718" lon="5.51044">
        <ele>483.4</ele>
        <time>2022-03-21T15:18:17Z</time>
      </trkpt>
      <trkpt lat="46.57177" lon="5.51041">
        <ele>483.4</ele>
        <time>2022-03-21T15:18:18Z</time>
      </trkpt>
      <trkpt lat="46.57175" lon="5.51038">
        <ele>483.6</ele>
        <time>2022-03-21T15:18:19Z</time>
      </trkpt>
      <trkpt lat="46.57172" lon="5.51036">
        <ele>483.6</ele>
        <time>2022-03-21T15:18:20Z</time>
      </trkpt>
      <trkpt lat="46.57169" lon="5.51033">
        <ele>484</ele>
        <time>2022-03-21T15:18:21Z</time>
      </trkpt>
      <trkpt lat="46.57166" lon="5.5103">
        <ele>484</ele>
        <time>2022-03-21T15:18:22Z</time>
      </trkpt>
      <trkpt lat="46.57163" lon="5.51027">
        <ele>484.4</ele>
        <time>2022-03-21T15:18:23Z</time>
      </trkpt>
      <trkpt lat="46.5716" lon="5.51025">
        <ele>484.4</ele>
        <time>2022-03-21T15:18:24Z</time>
      </trkpt>
      <trkpt lat="46.57157" lon="5.51023">
        <ele>484.8</ele>
        <time>2022-03-21T15:18:25Z</time>
      </trkpt>
      <trkpt lat="46.57154" lon="5.5102">
        <ele>484.8</ele>
        <time>2022-03-21T15:18:26Z</time>
      </trkpt>
      <trkpt lat="46.57151" lon="5.51018">
        <ele>485</ele>
        <time>2022-03-21T15:18:27Z</time>
      </trkpt>
      <trkpt lat="46.57148" lon="5.51016">
        <ele>485</ele>
        <time>2022-03-21T15:18:28Z</time>
      </trkpt>
      <trkpt lat="46.57145" lon="5.51014">
        <ele>485.4</ele>
        <time>2022-03-21T15:18:29Z</time>
      </trkpt>
      <trkpt lat="46.57141" lon="5.51012">
        <ele>485.4</ele>
        <time>2022-03-21T15:18:30Z</time>
      </trkpt>
      <trkpt lat="46.57138" lon="5.5101">
        <ele>485.8</ele>
        <time>2022-03-21T15:18:31Z</time>
      </trkpt>
      <trkpt lat="46.57134" lon="5.51009">
        <ele>486</ele>
        <time>2022-03-21T15:18:32Z</time>
      </trkpt>
      <trkpt lat="46.5713" lon="5.51007">
        <ele>486</ele>
        <time>2022-03-21T15:18:33Z</time>
      </trkpt>
      <trkpt lat="46.57124" lon="5.51004">
        <ele>486.4</ele>
        <time>2022-03-21T15:18:34Z</time>
      </trkpt>
      <trkpt lat="46.57121" lon="5.51002">
        <ele>486.4</ele>
        <time>2022-03-21T15:18:35Z</time>
      </trkpt>
      <trkpt lat="46.57117" lon="5.51001">
        <ele>486.8</ele>
        <time>2022-03-21T15:18:36Z</time>
      </trkpt>
      <trkpt lat="46.57114" lon="5.51">
        <ele>487</ele>
        <time>2022-03-21T15:18:37Z</time>
      </trkpt>
      <trkpt lat="46.5711" lon="5.50998">
        <ele>487</ele>
        <time>2022-03-21T15:18:38Z</time>
      </trkpt>
      <trkpt lat="46.57107" lon="5.50997">
        <ele>487.4</ele>
        <time>2022-03-21T15:18:39Z</time>
      </trkpt>
      <trkpt lat="46.57103" lon="5.50996">
        <ele>487.4</ele>
        <time>2022-03-21T15:18:40Z</time>
      </trkpt>
      <trkpt lat="46.57099" lon="5.50994">
        <ele>487.6</ele>
        <time>2022-03-21T15:18:41Z</time>
      </trkpt>
      <trkpt lat="46.57096" lon="5.50993">
        <ele>487.6</ele>
        <time>2022-03-21T15:18:42Z</time>
      </trkpt>
      <trkpt lat="46.57092" lon="5.50991">
        <ele>487.8</ele>
        <time>2022-03-21T15:18:43Z</time>
      </trkpt>
      <trkpt lat="46.57089" lon="5.5099">
        <ele>487.8</ele>
        <time>2022-03-21T15:18:44Z</time>
      </trkpt>
      <trkpt lat="46.57085" lon="5.50989">
        <ele>488</ele>
        <time>2022-03-21T15:18:45Z</time>
      </trkpt>
      <trkpt lat="46.57082" lon="5.50988">
        <ele>488</ele>
        <time>2022-03-21T15:18:46Z</time>
      </trkpt>
      <trkpt lat="46.57079" lon="5.50986">
        <ele>488</ele>
        <time>2022-03-21T15:18:47Z</time>
      </trkpt>
      <trkpt lat="46.57075" lon="5.50985">
        <ele>488.4</ele>
        <time>2022-03-21T15:18:48Z</time>
      </trkpt>
      <trkpt lat="46.57072" lon="5.50983">
        <ele>488.4</ele>
        <time>2022-03-21T15:18:49Z</time>
      </trkpt>
      <trkpt lat="46.57068" lon="5.50981">
        <ele>488.6</ele>
        <time>2022-03-21T15:18:50Z</time>
      </trkpt>
      <trkpt lat="46.57065" lon="5.50979">
        <ele>488.6</ele>
        <time>2022-03-21T15:18:51Z</time>
      </trkpt>
      <trkpt lat="46.57062" lon="5.50976">
        <ele>489</ele>
        <time>2022-03-21T15:18:52Z</time>
      </trkpt>
      <trkpt lat="46.57059" lon="5.50974">
        <ele>489</ele>
        <time>2022-03-21T15:18:53Z</time>
      </trkpt>
      <trkpt lat="46.57055" lon="5.50972">
        <ele>489.2</ele>
        <time>2022-03-21T15:18:54Z</time>
      </trkpt>
      <trkpt lat="46.57052" lon="5.50969">
        <ele>489.2</ele>
        <time>2022-03-21T15:18:55Z</time>
      </trkpt>
      <trkpt lat="46.5705" lon="5.50966">
        <ele>489.6</ele>
        <time>2022-03-21T15:18:56Z</time>
      </trkpt>
      <trkpt lat="46.57046" lon="5.50964">
        <ele>489.6</ele>
        <time>2022-03-21T15:18:57Z</time>
      </trkpt>
      <trkpt lat="46.57043" lon="5.50961">
        <ele>489.8</ele>
        <time>2022-03-21T15:18:58Z</time>
      </trkpt>
      <trkpt lat="46.5704" lon="5.50958">
        <ele>489.8</ele>
        <time>2022-03-21T15:18:59Z</time>
      </trkpt>
      <trkpt lat="46.57037" lon="5.50956">
        <ele>489.8</ele>
        <time>2022-03-21T15:19:00Z</time>
      </trkpt>
      <trkpt lat="46.57035" lon="5.50953">
        <ele>490</ele>
        <time>2022-03-21T15:19:01Z</time>
      </trkpt>
      <trkpt lat="46.57032" lon="5.5095">
        <ele>490.2</ele>
        <time>2022-03-21T15:19:02Z</time>
      </trkpt>
      <trkpt lat="46.5703" lon="5.50946">
        <ele>490.2</ele>
        <time>2022-03-21T15:19:03Z</time>
      </trkpt>
      <trkpt lat="46.57027" lon="5.50943">
        <ele>490.4</ele>
        <time>2022-03-21T15:19:04Z</time>
      </trkpt>
      <trkpt lat="46.57025" lon="5.5094">
        <ele>490.4</ele>
        <time>2022-03-21T15:19:05Z</time>
      </trkpt>
      <trkpt lat="46.57023" lon="5.50937">
        <ele>490.8</ele>
        <time>2022-03-21T15:19:06Z</time>
      </trkpt>
      <trkpt lat="46.5702" lon="5.50934">
        <ele>490.8</ele>
        <time>2022-03-21T15:19:07Z</time>
      </trkpt>
      <trkpt lat="46.57018" lon="5.50931">
        <ele>491.2</ele>
        <time>2022-03-21T15:19:08Z</time>
      </trkpt>
      <trkpt lat="46.57016" lon="5.50928">
        <ele>491.2</ele>
        <time>2022-03-21T15:19:09Z</time>
      </trkpt>
      <trkpt lat="46.57014" lon="5.50925">
        <ele>491.4</ele>
        <time>2022-03-21T15:19:10Z</time>
      </trkpt>
      <trkpt lat="46.57012" lon="5.50922">
        <ele>491.4</ele>
        <time>2022-03-21T15:19:11Z</time>
      </trkpt>
      <trkpt lat="46.57009" lon="5.50919">
        <ele>491.8</ele>
        <time>2022-03-21T15:19:12Z</time>
      </trkpt>
      <trkpt lat="46.57007" lon="5.50916">
        <ele>491.8</ele>
        <time>2022-03-21T15:19:13Z</time>
      </trkpt>
      <trkpt lat="46.57004" lon="5.50913">
        <ele>492</ele>
        <time>2022-03-21T15:19:14Z</time>
      </trkpt>
      <trkpt lat="46.57002" lon="5.50909">
        <ele>492</ele>
        <time>2022-03-21T15:19:15Z</time>
      </trkpt>
      <trkpt lat="46.57" lon="5.50906">
        <ele>492.2</ele>
        <time>2022-03-21T15:19:16Z</time>
      </trkpt>
      <trkpt lat="46.56999" lon="5.50902">
        <ele>492.6</ele>
        <time>2022-03-21T15:19:17Z</time>
      </trkpt>
      <trkpt lat="46.56997" lon="5.50899">
        <ele>492.6</ele>
        <time>2022-03-21T15:19:18Z</time>
      </trkpt>
      <trkpt lat="46.56996" lon="5.50896">
        <ele>492.8</ele>
        <time>2022-03-21T15:19:19Z</time>
      </trkpt>
      <trkpt lat="46.56994" lon="5.50893">
        <ele>492.8</ele>
        <time>2022-03-21T15:19:20Z</time>
      </trkpt>
      <trkpt lat="46.56993" lon="5.5089">
        <ele>493.2</ele>
        <time>2022-03-21T15:19:21Z</time>
      </trkpt>
      <trkpt lat="46.56991" lon="5.50887">
        <ele>493.2</ele>
        <time>2022-03-21T15:19:22Z</time>
      </trkpt>
      <trkpt lat="46.5699" lon="5.50884">
        <ele>493.4</ele>
        <time>2022-03-21T15:19:23Z</time>
      </trkpt>
      <trkpt lat="46.56989" lon="5.5088">
        <ele>493.4</ele>
        <time>2022-03-21T15:19:24Z</time>
      </trkpt>
      <trkpt lat="46.56988" lon="5.50877">
        <ele>493.6</ele>
        <time>2022-03-21T15:19:25Z</time>
      </trkpt>
      <trkpt lat="46.56987" lon="5.50874">
        <ele>493.6</ele>
        <time>2022-03-21T15:19:26Z</time>
      </trkpt>
      <trkpt lat="46.56986" lon="5.5087">
        <ele>494</ele>
        <time>2022-03-21T15:19:27Z</time>
      </trkpt>
      <trkpt lat="46.56985" lon="5.50867">
        <ele>494</ele>
        <time>2022-03-21T15:19:28Z</time>
      </trkpt>
      <trkpt lat="46.56984" lon="5.50863">
        <ele>494.2</ele>
        <time>2022-03-21T15:19:29Z</time>
      </trkpt>
      <trkpt lat="46.56983" lon="5.50859">
        <ele>494.2</ele>
        <time>2022-03-21T15:19:30Z</time>
      </trkpt>
      <trkpt lat="46.56982" lon="5.50856">
        <ele>494.4</ele>
        <time>2022-03-21T15:19:31Z</time>
      </trkpt>
      <trkpt lat="46.56981" lon="5.50852">
        <ele>494.4</ele>
        <time>2022-03-21T15:19:32Z</time>
      </trkpt>
      <trkpt lat="46.5698" lon="5.50849">
        <ele>494.4</ele>
        <time>2022-03-21T15:19:33Z</time>
      </trkpt>
      <trkpt lat="46.56979" lon="5.50845">
        <ele>494.8</ele>
        <time>2022-03-21T15:19:34Z</time>
      </trkpt>
      <trkpt lat="46.56977" lon="5.50842">
        <ele>494.8</ele>
        <time>2022-03-21T15:19:35Z</time>
      </trkpt>
      <trkpt lat="46.56976" lon="5.50838">
        <ele>495</ele>
        <time>2022-03-21T15:19:36Z</time>
      </trkpt>
      <trkpt lat="46.56976" lon="5.50834">
        <ele>495</ele>
        <time>2022-03-21T15:19:37Z</time>
      </trkpt>
      <trkpt lat="46.56975" lon="5.50831">
        <ele>495.4</ele>
        <time>2022-03-21T15:19:38Z</time>
      </trkpt>
      <trkpt lat="46.56974" lon="5.50827">
        <ele>495.4</ele>
        <time>2022-03-21T15:19:39Z</time>
      </trkpt>
      <trkpt lat="46.56973" lon="5.50823">
        <ele>495.6</ele>
        <time>2022-03-21T15:19:40Z</time>
      </trkpt>
      <trkpt lat="46.56972" lon="5.50819">
        <ele>495.6</ele>
        <time>2022-03-21T15:19:41Z</time>
      </trkpt>
      <trkpt lat="46.56972" lon="5.50815">
        <ele>496</ele>
        <time>2022-03-21T15:19:42Z</time>
      </trkpt>
      <trkpt lat="46.56971" lon="5.50811">
        <ele>496.2</ele>
        <time>2022-03-21T15:19:43Z</time>
      </trkpt>
      <trkpt lat="46.5697" lon="5.50807">
        <ele>496.4</ele>
        <time>2022-03-21T15:19:44Z</time>
      </trkpt>
      <trkpt lat="46.56969" lon="5.50802">
        <ele>496.4</ele>
        <time>2022-03-21T15:19:45Z</time>
      </trkpt>
      <trkpt lat="46.56968" lon="5.50798">
        <ele>496.6</ele>
        <time>2022-03-21T15:19:46Z</time>
      </trkpt>
      <trkpt lat="46.56968" lon="5.50793">
        <ele>496.6</ele>
        <time>2022-03-21T15:19:47Z</time>
      </trkpt>
      <trkpt lat="46.56967" lon="5.50788">
        <ele>497</ele>
        <time>2022-03-21T15:19:48Z</time>
      </trkpt>
      <trkpt lat="46.56965" lon="5.50784">
        <ele>497</ele>
        <time>2022-03-21T15:19:49Z</time>
      </trkpt>
      <trkpt lat="46.56964" lon="5.5078">
        <ele>497.2</ele>
        <time>2022-03-21T15:19:50Z</time>
      </trkpt>
      <trkpt lat="46.56963" lon="5.50776">
        <ele>497.2</ele>
        <time>2022-03-21T15:19:51Z</time>
      </trkpt>
      <trkpt lat="46.56961" lon="5.50771">
        <ele>497.4</ele>
        <time>2022-03-21T15:19:52Z</time>
      </trkpt>
      <trkpt lat="46.5696" lon="5.50767">
        <ele>497.4</ele>
        <time>2022-03-21T15:19:53Z</time>
      </trkpt>
      <trkpt lat="46.56958" lon="5.50762">
        <ele>497.8</ele>
        <time>2022-03-21T15:19:54Z</time>
      </trkpt>
      <trkpt lat="46.56957" lon="5.50758">
        <ele>497.8</ele>
        <time>2022-03-21T15:19:55Z</time>
      </trkpt>
      <trkpt lat="46.56957" lon="5.50753">
        <ele>498</ele>
        <time>2022-03-21T15:19:56Z</time>
      </trkpt>
      <trkpt lat="46.56956" lon="5.50749">
        <ele>498.2</ele>
        <time>2022-03-21T15:19:57Z</time>
      </trkpt>
      <trkpt lat="46.56955" lon="5.50744">
        <ele>498.2</ele>
        <time>2022-03-21T15:19:58Z</time>
      </trkpt>
      <trkpt lat="46.56953" lon="5.5074">
        <ele>498.6</ele>
        <time>2022-03-21T15:19:59Z</time>
      </trkpt>
      <trkpt lat="46.56952" lon="5.50735">
        <ele>498.6</ele>
        <time>2022-03-21T15:20:00Z</time>
      </trkpt>
      <trkpt lat="46.56951" lon="5.50731">
        <ele>498.8</ele>
        <time>2022-03-21T15:20:01Z</time>
      </trkpt>
      <trkpt lat="46.56949" lon="5.50727">
        <ele>498.8</ele>
        <time>2022-03-21T15:20:02Z</time>
      </trkpt>
      <trkpt lat="46.56948" lon="5.50723">
        <ele>499</ele>
        <time>2022-03-21T15:20:03Z</time>
      </trkpt>
      <trkpt lat="46.56947" lon="5.50718">
        <ele>499</ele>
        <time>2022-03-21T15:20:04Z</time>
      </trkpt>
      <trkpt lat="46.56945" lon="5.50714">
        <ele>499.2</ele>
        <time>2022-03-21T15:20:05Z</time>
      </trkpt>
      <trkpt lat="46.56944" lon="5.5071">
        <ele>499.2</ele>
        <time>2022-03-21T15:20:06Z</time>
      </trkpt>
      <trkpt lat="46.56943" lon="5.50706">
        <ele>499.6</ele>
        <time>2022-03-21T15:20:07Z</time>
      </trkpt>
      <trkpt lat="46.56941" lon="5.50701">
        <ele>499.6</ele>
        <time>2022-03-21T15:20:08Z</time>
      </trkpt>
      <trkpt lat="46.5694" lon="5.50697">
        <ele>500</ele>
        <time>2022-03-21T15:20:09Z</time>
      </trkpt>
      <trkpt lat="46.56938" lon="5.50693">
        <ele>500</ele>
        <time>2022-03-21T15:20:10Z</time>
      </trkpt>
      <trkpt lat="46.56936" lon="5.50689">
        <ele>500.2</ele>
        <time>2022-03-21T15:20:11Z</time>
      </trkpt>
      <trkpt lat="46.56934" lon="5.50686">
        <ele>500.4</ele>
        <time>2022-03-21T15:20:12Z</time>
      </trkpt>
      <trkpt lat="46.56932" lon="5.50682">
        <ele>500.4</ele>
        <time>2022-03-21T15:20:13Z</time>
      </trkpt>
      <trkpt lat="46.5693" lon="5.50678">
        <ele>500.8</ele>
        <time>2022-03-21T15:20:14Z</time>
      </trkpt>
      <trkpt lat="46.56928" lon="5.50674">
        <ele>500.8</ele>
        <time>2022-03-21T15:20:15Z</time>
      </trkpt>
      <trkpt lat="46.56926" lon="5.5067">
        <ele>501.2</ele>
        <time>2022-03-21T15:20:16Z</time>
      </trkpt>
      <trkpt lat="46.56924" lon="5.50666">
        <ele>501.2</ele>
        <time>2022-03-21T15:20:17Z</time>
      </trkpt>
      <trkpt lat="46.56922" lon="5.50663">
        <ele>501.6</ele>
        <time>2022-03-21T15:20:18Z</time>
      </trkpt>
      <trkpt lat="46.5692" lon="5.50659">
        <ele>501.6</ele>
        <time>2022-03-21T15:20:19Z</time>
      </trkpt>
      <trkpt lat="46.56917" lon="5.50656">
        <ele>501.8</ele>
        <time>2022-03-21T15:20:20Z</time>
      </trkpt>
      <trkpt lat="46.56915" lon="5.50652">
        <ele>502</ele>
        <time>2022-03-21T15:20:21Z</time>
      </trkpt>
      <trkpt lat="46.56913" lon="5.50648">
        <ele>502</ele>
        <time>2022-03-21T15:20:22Z</time>
      </trkpt>
      <trkpt lat="46.56911" lon="5.50645">
        <ele>502.4</ele>
        <time>2022-03-21T15:20:23Z</time>
      </trkpt>
      <trkpt lat="46.56908" lon="5.50642">
        <ele>502.4</ele>
        <time>2022-03-21T15:20:24Z</time>
      </trkpt>
      <trkpt lat="46.56906" lon="5.50638">
        <ele>502.4</ele>
        <time>2022-03-21T15:20:25Z</time>
      </trkpt>
      <trkpt lat="46.56903" lon="5.50635">
        <ele>502.6</ele>
        <time>2022-03-21T15:20:26Z</time>
      </trkpt>
      <trkpt lat="46.569" lon="5.50632">
        <ele>502.6</ele>
        <time>2022-03-21T15:20:27Z</time>
      </trkpt>
      <trkpt lat="46.56898" lon="5.50628">
        <ele>502.6</ele>
        <time>2022-03-21T15:20:28Z</time>
      </trkpt>
      <trkpt lat="46.56895" lon="5.50625">
        <ele>502.8</ele>
        <time>2022-03-21T15:20:29Z</time>
      </trkpt>
      <trkpt lat="46.56892" lon="5.50622">
        <ele>502.8</ele>
        <time>2022-03-21T15:20:30Z</time>
      </trkpt>
      <trkpt lat="46.56889" lon="5.50619">
        <ele>503</ele>
        <time>2022-03-21T15:20:31Z</time>
      </trkpt>
      <trkpt lat="46.56886" lon="5.50616">
        <ele>503.4</ele>
        <time>2022-03-21T15:20:32Z</time>
      </trkpt>
      <trkpt lat="46.56883" lon="5.50613">
        <ele>503.4</ele>
        <time>2022-03-21T15:20:33Z</time>
      </trkpt>
      <trkpt lat="46.56879" lon="5.50611">
        <ele>503.6</ele>
        <time>2022-03-21T15:20:34Z</time>
      </trkpt>
      <trkpt lat="46.56876" lon="5.50609">
        <ele>503.6</ele>
        <time>2022-03-21T15:20:35Z</time>
      </trkpt>
      <trkpt lat="46.56872" lon="5.50606">
        <ele>503.6</ele>
        <time>2022-03-21T15:20:36Z</time>
      </trkpt>
      <trkpt lat="46.56869" lon="5.50604">
        <ele>504</ele>
        <time>2022-03-21T15:20:37Z</time>
      </trkpt>
      <trkpt lat="46.56865" lon="5.50601">
        <ele>504</ele>
        <time>2022-03-21T15:20:38Z</time>
      </trkpt>
      <trkpt lat="46.56862" lon="5.50599">
        <ele>504</ele>
        <time>2022-03-21T15:20:39Z</time>
      </trkpt>
      <trkpt lat="46.56858" lon="5.50597">
        <ele>504.2</ele>
        <time>2022-03-21T15:20:40Z</time>
      </trkpt>
      <trkpt lat="46.56854" lon="5.50594">
        <ele>504.2</ele>
        <time>2022-03-21T15:20:41Z</time>
      </trkpt>
      <trkpt lat="46.5685" lon="5.50592">
        <ele>504.2</ele>
        <time>2022-03-21T15:20:42Z</time>
      </trkpt>
      <trkpt lat="46.56846" lon="5.5059">
        <ele>504.4</ele>
        <time>2022-03-21T15:20:43Z</time>
      </trkpt>
      <trkpt lat="46.56842" lon="5.50588">
        <ele>504.4</ele>
        <time>2022-03-21T15:20:44Z</time>
      </trkpt>
      <trkpt lat="46.56838" lon="5.50586">
        <ele>504.6</ele>
        <time>2022-03-21T15:20:45Z</time>
      </trkpt>
      <trkpt lat="46.56834" lon="5.50584">
        <ele>504.6</ele>
        <time>2022-03-21T15:20:46Z</time>
      </trkpt>
      <trkpt lat="46.5683" lon="5.50582">
        <ele>504.8</ele>
        <time>2022-03-21T15:20:47Z</time>
      </trkpt>
      <trkpt lat="46.56826" lon="5.5058">
        <ele>504.8</ele>
        <time>2022-03-21T15:20:48Z</time>
      </trkpt>
      <trkpt lat="46.56822" lon="5.50579">
        <ele>504.8</ele>
        <time>2022-03-21T15:20:49Z</time>
      </trkpt>
      <trkpt lat="46.56818" lon="5.50577">
        <ele>504.8</ele>
        <time>2022-03-21T15:20:50Z</time>
      </trkpt>
      <trkpt lat="46.56814" lon="5.50575">
        <ele>504.8</ele>
        <time>2022-03-21T15:20:51Z</time>
      </trkpt>
      <trkpt lat="46.5681" lon="5.50573">
        <ele>504.8</ele>
        <time>2022-03-21T15:20:52Z</time>
      </trkpt>
      <trkpt lat="46.56805" lon="5.50571">
        <ele>504.8</ele>
        <time>2022-03-21T15:20:53Z</time>
      </trkpt>
      <trkpt lat="46.56801" lon="5.5057">
        <ele>504.8</ele>
        <time>2022-03-21T15:20:54Z</time>
      </trkpt>
      <trkpt lat="46.56796" lon="5.50568">
        <ele>504.8</ele>
        <time>2022-03-21T15:20:55Z</time>
      </trkpt>
      <trkpt lat="46.56791" lon="5.50566">
        <ele>504.8</ele>
        <time>2022-03-21T15:20:56Z</time>
      </trkpt>
      <trkpt lat="46.56787" lon="5.50564">
        <ele>505</ele>
        <time>2022-03-21T15:20:57Z</time>
      </trkpt>
      <trkpt lat="46.56782" lon="5.50561">
        <ele>505</ele>
        <time>2022-03-21T15:20:58Z</time>
      </trkpt>
      <trkpt lat="46.56778" lon="5.50559">
        <ele>505</ele>
        <time>2022-03-21T15:20:59Z</time>
      </trkpt>
      <trkpt lat="46.56773" lon="5.50557">
        <ele>505</ele>
        <time>2022-03-21T15:21:00Z</time>
      </trkpt>
      <trkpt lat="46.56768" lon="5.50556">
        <ele>505</ele>
        <time>2022-03-21T15:21:01Z</time>
      </trkpt>
      <trkpt lat="46.56764" lon="5.50555">
        <ele>505</ele>
        <time>2022-03-21T15:21:02Z</time>
      </trkpt>
      <trkpt lat="46.56759" lon="5.50552">
        <ele>505.4</ele>
        <time>2022-03-21T15:21:03Z</time>
      </trkpt>
      <trkpt lat="46.56755" lon="5.5055">
        <ele>505.4</ele>
        <time>2022-03-21T15:21:04Z</time>
      </trkpt>
      <trkpt lat="46.5675" lon="5.50548">
        <ele>505.4</ele>
        <time>2022-03-21T15:21:05Z</time>
      </trkpt>
      <trkpt lat="46.56745" lon="5.50545">
        <ele>505.4</ele>
        <time>2022-03-21T15:21:07Z</time>
      </trkpt>
      <trkpt lat="46.5674" lon="5.50543">
        <ele>505.4</ele>
        <time>2022-03-21T15:21:08Z</time>
      </trkpt>
      <trkpt lat="46.56735" lon="5.50541">
        <ele>505.4</ele>
        <time>2022-03-21T15:21:09Z</time>
      </trkpt>
      <trkpt lat="46.56729" lon="5.50539">
        <ele>505.4</ele>
        <time>2022-03-21T15:21:10Z</time>
      </trkpt>
      <trkpt lat="46.56724" lon="5.50536">
        <ele>505.4</ele>
        <time>2022-03-21T15:21:11Z</time>
      </trkpt>
      <trkpt lat="46.56718" lon="5.50534">
        <ele>505.4</ele>
        <time>2022-03-21T15:21:12Z</time>
      </trkpt>
      <trkpt lat="46.56713" lon="5.50531">
        <ele>505.4</ele>
        <time>2022-03-21T15:21:13Z</time>
      </trkpt>
      <trkpt lat="46.56707" lon="5.50529">
        <ele>505.4</ele>
        <time>2022-03-21T15:21:14Z</time>
      </trkpt>
      <trkpt lat="46.56701" lon="5.50526">
        <ele>505.6</ele>
        <time>2022-03-21T15:21:15Z</time>
      </trkpt>
      <trkpt lat="46.56696" lon="5.50524">
        <ele>505.6</ele>
        <time>2022-03-21T15:21:16Z</time>
      </trkpt>
      <trkpt lat="46.5669" lon="5.50521">
        <ele>505.6</ele>
        <time>2022-03-21T15:21:17Z</time>
      </trkpt>
      <trkpt lat="46.56684" lon="5.50519">
        <ele>505.6</ele>
        <time>2022-03-21T15:21:18Z</time>
      </trkpt>
      <trkpt lat="46.56678" lon="5.50517">
        <ele>505.6</ele>
        <time>2022-03-21T15:21:19Z</time>
      </trkpt>
      <trkpt lat="46.56673" lon="5.50515">
        <ele>505.6</ele>
        <time>2022-03-21T15:21:20Z</time>
      </trkpt>
      <trkpt lat="46.56668" lon="5.50513">
        <ele>505.6</ele>
        <time>2022-03-21T15:21:21Z</time>
      </trkpt>
      <trkpt lat="46.56662" lon="5.5051">
        <ele>505.6</ele>
        <time>2022-03-21T15:21:22Z</time>
      </trkpt>
      <trkpt lat="46.56657" lon="5.50508">
        <ele>505.6</ele>
        <time>2022-03-21T15:21:23Z</time>
      </trkpt>
      <trkpt lat="46.56652" lon="5.50506">
        <ele>505.6</ele>
        <time>2022-03-21T15:21:24Z</time>
      </trkpt>
      <trkpt lat="46.56648" lon="5.50504">
        <ele>505.6</ele>
        <time>2022-03-21T15:21:25Z</time>
      </trkpt>
      <trkpt lat="46.56643" lon="5.50502">
        <ele>505.6</ele>
        <time>2022-03-21T15:21:26Z</time>
      </trkpt>
      <trkpt lat="46.56638" lon="5.505">
        <ele>505.6</ele>
        <time>2022-03-21T15:21:27Z</time>
      </trkpt>
      <trkpt lat="46.56634" lon="5.50498">
        <ele>505.6</ele>
        <time>2022-03-21T15:21:28Z</time>
      </trkpt>
      <trkpt lat="46.56629" lon="5.50497">
        <ele>505.6</ele>
        <time>2022-03-21T15:21:29Z</time>
      </trkpt>
      <trkpt lat="46.56625" lon="5.50496">
        <ele>505.6</ele>
        <time>2022-03-21T15:21:30Z</time>
      </trkpt>
      <trkpt lat="46.5662" lon="5.50494">
        <ele>505.6</ele>
        <time>2022-03-21T15:21:31Z</time>
      </trkpt>
      <trkpt lat="46.56615" lon="5.50492">
        <ele>505.6</ele>
        <time>2022-03-21T15:21:32Z</time>
      </trkpt>
      <trkpt lat="46.56611" lon="5.5049">
        <ele>505.8</ele>
        <time>2022-03-21T15:21:33Z</time>
      </trkpt>
      <trkpt lat="46.56606" lon="5.50488">
        <ele>505.8</ele>
        <time>2022-03-21T15:21:34Z</time>
      </trkpt>
      <trkpt lat="46.56601" lon="5.50486">
        <ele>505.8</ele>
        <time>2022-03-21T15:21:35Z</time>
      </trkpt>
      <trkpt lat="46.56596" lon="5.50483">
        <ele>505.8</ele>
        <time>2022-03-21T15:21:36Z</time>
      </trkpt>
      <trkpt lat="46.56592" lon="5.50481">
        <ele>506.2</ele>
        <time>2022-03-21T15:21:37Z</time>
      </trkpt>
      <trkpt lat="46.56587" lon="5.50479">
        <ele>506.2</ele>
        <time>2022-03-21T15:21:38Z</time>
      </trkpt>
      <trkpt lat="46.56582" lon="5.50477">
        <ele>506.4</ele>
        <time>2022-03-21T15:21:39Z</time>
      </trkpt>
      <trkpt lat="46.56577" lon="5.50475">
        <ele>506.4</ele>
        <time>2022-03-21T15:21:40Z</time>
      </trkpt>
      <trkpt lat="46.56572" lon="5.50474">
        <ele>506.4</ele>
        <time>2022-03-21T15:21:41Z</time>
      </trkpt>
      <trkpt lat="46.56567" lon="5.50472">
        <ele>506.4</ele>
        <time>2022-03-21T15:21:42Z</time>
      </trkpt>
      <trkpt lat="46.56563" lon="5.5047">
        <ele>506.6</ele>
        <time>2022-03-21T15:21:43Z</time>
      </trkpt>
      <trkpt lat="46.56558" lon="5.50468">
        <ele>506.6</ele>
        <time>2022-03-21T15:21:44Z</time>
      </trkpt>
      <trkpt lat="46.56553" lon="5.50466">
        <ele>506.6</ele>
        <time>2022-03-21T15:21:45Z</time>
      </trkpt>
      <trkpt lat="46.56548" lon="5.50464">
        <ele>506.6</ele>
        <time>2022-03-21T15:21:46Z</time>
      </trkpt>
      <trkpt lat="46.56543" lon="5.50462">
        <ele>506.6</ele>
        <time>2022-03-21T15:21:47Z</time>
      </trkpt>
      <trkpt lat="46.56538" lon="5.5046">
        <ele>506.6</ele>
        <time>2022-03-21T15:21:48Z</time>
      </trkpt>
      <trkpt lat="46.56533" lon="5.50458">
        <ele>506.6</ele>
        <time>2022-03-21T15:21:49Z</time>
      </trkpt>
      <trkpt lat="46.56528" lon="5.50455">
        <ele>506.8</ele>
        <time>2022-03-21T15:21:50Z</time>
      </trkpt>
      <trkpt lat="46.56523" lon="5.50453">
        <ele>506.8</ele>
        <time>2022-03-21T15:21:51Z</time>
      </trkpt>
      <trkpt lat="46.56518" lon="5.50451">
        <ele>506.8</ele>
        <time>2022-03-21T15:21:52Z</time>
      </trkpt>
      <trkpt lat="46.56512" lon="5.50449">
        <ele>506.8</ele>
        <time>2022-03-21T15:21:53Z</time>
      </trkpt>
      <trkpt lat="46.56507" lon="5.50446">
        <ele>506.8</ele>
        <time>2022-03-21T15:21:54Z</time>
      </trkpt>
      <trkpt lat="46.56502" lon="5.50443">
        <ele>506.8</ele>
        <time>2022-03-21T15:21:55Z</time>
      </trkpt>
      <trkpt lat="46.56497" lon="5.50441">
        <ele>506.8</ele>
        <time>2022-03-21T15:21:56Z</time>
      </trkpt>
      <trkpt lat="46.56492" lon="5.50438">
        <ele>506.8</ele>
        <time>2022-03-21T15:21:57Z</time>
      </trkpt>
      <trkpt lat="46.56487" lon="5.50435">
        <ele>506.8</ele>
        <time>2022-03-21T15:21:58Z</time>
      </trkpt>
      <trkpt lat="46.56481" lon="5.50431">
        <ele>506.8</ele>
        <time>2022-03-21T15:21:59Z</time>
      </trkpt>
      <trkpt lat="46.56476" lon="5.50428">
        <ele>506.6</ele>
        <time>2022-03-21T15:22:00Z</time>
      </trkpt>
      <trkpt lat="46.5647" lon="5.50425">
        <ele>506.6</ele>
        <time>2022-03-21T15:22:01Z</time>
      </trkpt>
      <trkpt lat="46.56464" lon="5.50421">
        <ele>506.4</ele>
        <time>2022-03-21T15:22:02Z</time>
      </trkpt>
      <trkpt lat="46.56459" lon="5.50417">
        <ele>506.4</ele>
        <time>2022-03-21T15:22:03Z</time>
      </trkpt>
      <trkpt lat="46.56453" lon="5.50413">
        <ele>506.4</ele>
        <time>2022-03-21T15:22:04Z</time>
      </trkpt>
      <trkpt lat="46.56447" lon="5.50408">
        <ele>506</ele>
        <time>2022-03-21T15:22:05Z</time>
      </trkpt>
      <trkpt lat="46.56441" lon="5.50404">
        <ele>506</ele>
        <time>2022-03-21T15:22:06Z</time>
      </trkpt>
      <trkpt lat="46.56435" lon="5.50399">
        <ele>505.6</ele>
        <time>2022-03-21T15:22:07Z</time>
      </trkpt>
      <trkpt lat="46.56429" lon="5.50394">
        <ele>505.2</ele>
        <time>2022-03-21T15:22:08Z</time>
      </trkpt>
      <trkpt lat="46.56422" lon="5.50388">
        <ele>505</ele>
        <time>2022-03-21T15:22:09Z</time>
      </trkpt>
      <trkpt lat="46.56416" lon="5.50382">
        <ele>504.6</ele>
        <time>2022-03-21T15:22:10Z</time>
      </trkpt>
      <trkpt lat="46.5641" lon="5.50377">
        <ele>504.4</ele>
        <time>2022-03-21T15:22:11Z</time>
      </trkpt>
      <trkpt lat="46.56403" lon="5.50371">
        <ele>504</ele>
        <time>2022-03-21T15:22:12Z</time>
      </trkpt>
      <trkpt lat="46.56397" lon="5.50365">
        <ele>503.8</ele>
        <time>2022-03-21T15:22:13Z</time>
      </trkpt>
      <trkpt lat="46.5639" lon="5.50359">
        <ele>503.4</ele>
        <time>2022-03-21T15:22:14Z</time>
      </trkpt>
      <trkpt lat="46.56383" lon="5.50354">
        <ele>503</ele>
        <time>2022-03-21T15:22:15Z</time>
      </trkpt>
      <trkpt lat="46.56376" lon="5.50348">
        <ele>502.6</ele>
        <time>2022-03-21T15:22:16Z</time>
      </trkpt>
      <trkpt lat="46.56369" lon="5.50342">
        <ele>502.4</ele>
        <time>2022-03-21T15:22:17Z</time>
      </trkpt>
      <trkpt lat="46.56363" lon="5.50336">
        <ele>502.4</ele>
        <time>2022-03-21T15:22:18Z</time>
      </trkpt>
      <trkpt lat="46.56356" lon="5.5033">
        <ele>502</ele>
        <time>2022-03-21T15:22:19Z</time>
      </trkpt>
      <trkpt lat="46.56349" lon="5.50324">
        <ele>502</ele>
        <time>2022-03-21T15:22:20Z</time>
      </trkpt>
      <trkpt lat="46.56343" lon="5.50319">
        <ele>501.8</ele>
        <time>2022-03-21T15:22:21Z</time>
      </trkpt>
      <trkpt lat="46.56336" lon="5.50313">
        <ele>501.4</ele>
        <time>2022-03-21T15:22:22Z</time>
      </trkpt>
      <trkpt lat="46.56329" lon="5.50307">
        <ele>501.4</ele>
        <time>2022-03-21T15:22:23Z</time>
      </trkpt>
      <trkpt lat="46.56322" lon="5.50301">
        <ele>501</ele>
        <time>2022-03-21T15:22:24Z</time>
      </trkpt>
      <trkpt lat="46.56309" lon="5.50288">
        <ele>500.8</ele>
        <time>2022-03-21T15:22:25Z</time>
      </trkpt>
      <trkpt lat="46.56302" lon="5.50282">
        <ele>500.6</ele>
        <time>2022-03-21T15:22:26Z</time>
      </trkpt>
      <trkpt lat="46.56295" lon="5.50276">
        <ele>500.2</ele>
        <time>2022-03-21T15:22:27Z</time>
      </trkpt>
      <trkpt lat="46.56289" lon="5.5027">
        <ele>499.8</ele>
        <time>2022-03-21T15:22:28Z</time>
      </trkpt>
      <trkpt lat="46.56282" lon="5.50264">
        <ele>499.4</ele>
        <time>2022-03-21T15:22:29Z</time>
      </trkpt>
      <trkpt lat="46.56275" lon="5.50258">
        <ele>499.2</ele>
        <time>2022-03-21T15:22:30Z</time>
      </trkpt>
      <trkpt lat="46.56268" lon="5.50251">
        <ele>498.8</ele>
        <time>2022-03-21T15:22:31Z</time>
      </trkpt>
      <trkpt lat="46.56261" lon="5.50245">
        <ele>498.6</ele>
        <time>2022-03-21T15:22:32Z</time>
      </trkpt>
      <trkpt lat="46.56254" lon="5.50239">
        <ele>498.2</ele>
        <time>2022-03-21T15:22:33Z</time>
      </trkpt>
      <trkpt lat="46.56247" lon="5.50233">
        <ele>497.8</ele>
        <time>2022-03-21T15:22:34Z</time>
      </trkpt>
      <trkpt lat="46.5624" lon="5.50227">
        <ele>497.4</ele>
        <time>2022-03-21T15:22:35Z</time>
      </trkpt>
      <trkpt lat="46.56233" lon="5.50221">
        <ele>497</ele>
        <time>2022-03-21T15:22:36Z</time>
      </trkpt>
      <trkpt lat="46.56226" lon="5.50215">
        <ele>496.8</ele>
        <time>2022-03-21T15:22:37Z</time>
      </trkpt>
      <trkpt lat="46.56219" lon="5.50209">
        <ele>496.4</ele>
        <time>2022-03-21T15:22:38Z</time>
      </trkpt>
      <trkpt lat="46.56212" lon="5.50203">
        <ele>496</ele>
        <time>2022-03-21T15:22:39Z</time>
      </trkpt>
      <trkpt lat="46.56205" lon="5.50197">
        <ele>495.8</ele>
        <time>2022-03-21T15:22:40Z</time>
      </trkpt>
      <trkpt lat="46.56198" lon="5.50191">
        <ele>495.6</ele>
        <time>2022-03-21T15:22:41Z</time>
      </trkpt>
      <trkpt lat="46.56191" lon="5.50185">
        <ele>495.6</ele>
        <time>2022-03-21T15:22:42Z</time>
      </trkpt>
      <trkpt lat="46.56184" lon="5.5018">
        <ele>495.2</ele>
        <time>2022-03-21T15:22:43Z</time>
      </trkpt>
      <trkpt lat="46.56177" lon="5.50174">
        <ele>495.2</ele>
        <time>2022-03-21T15:22:44Z</time>
      </trkpt>
      <trkpt lat="46.56169" lon="5.50169">
        <ele>494.8</ele>
        <time>2022-03-21T15:22:45Z</time>
      </trkpt>
      <trkpt lat="46.56162" lon="5.50164">
        <ele>494.6</ele>
        <time>2022-03-21T15:22:46Z</time>
      </trkpt>
      <trkpt lat="46.56154" lon="5.50159">
        <ele>494.6</ele>
        <time>2022-03-21T15:22:47Z</time>
      </trkpt>
      <trkpt lat="46.56147" lon="5.50154">
        <ele>494.4</ele>
        <time>2022-03-21T15:22:48Z</time>
      </trkpt>
      <trkpt lat="46.5614" lon="5.50149">
        <ele>494.4</ele>
        <time>2022-03-21T15:22:49Z</time>
      </trkpt>
      <trkpt lat="46.56132" lon="5.50145">
        <ele>494.4</ele>
        <time>2022-03-21T15:22:50Z</time>
      </trkpt>
      <trkpt lat="46.56125" lon="5.50141">
        <ele>494</ele>
        <time>2022-03-21T15:22:51Z</time>
      </trkpt>
      <trkpt lat="46.56118" lon="5.50137">
        <ele>494</ele>
        <time>2022-03-21T15:22:52Z</time>
      </trkpt>
      <trkpt lat="46.5611" lon="5.50132">
        <ele>493.8</ele>
        <time>2022-03-21T15:22:53Z</time>
      </trkpt>
      <trkpt lat="46.56103" lon="5.50128">
        <ele>493.8</ele>
        <time>2022-03-21T15:22:54Z</time>
      </trkpt>
      <trkpt lat="46.56096" lon="5.50124">
        <ele>493.8</ele>
        <time>2022-03-21T15:22:55Z</time>
      </trkpt>
      <trkpt lat="46.56088" lon="5.5012">
        <ele>493.8</ele>
        <time>2022-03-21T15:22:56Z</time>
      </trkpt>
      <trkpt lat="46.56081" lon="5.50117">
        <ele>493.8</ele>
        <time>2022-03-21T15:22:57Z</time>
      </trkpt>
      <trkpt lat="46.56074" lon="5.50113">
        <ele>493.8</ele>
        <time>2022-03-21T15:22:58Z</time>
      </trkpt>
      <trkpt lat="46.56067" lon="5.50109">
        <ele>493.8</ele>
        <time>2022-03-21T15:22:59Z</time>
      </trkpt>
      <trkpt lat="46.5606" lon="5.50106">
        <ele>493.8</ele>
        <time>2022-03-21T15:23:00Z</time>
      </trkpt>
      <trkpt lat="46.56053" lon="5.50102">
        <ele>493.8</ele>
        <time>2022-03-21T15:23:01Z</time>
      </trkpt>
      <trkpt lat="46.56046" lon="5.50098">
        <ele>493.8</ele>
        <time>2022-03-21T15:23:02Z</time>
      </trkpt>
      <trkpt lat="46.5604" lon="5.50095">
        <ele>493.8</ele>
        <time>2022-03-21T15:23:03Z</time>
      </trkpt>
      <trkpt lat="46.56034" lon="5.50091">
        <ele>493.8</ele>
        <time>2022-03-21T15:23:04Z</time>
      </trkpt>
      <trkpt lat="46.56027" lon="5.50088">
        <ele>493.8</ele>
        <time>2022-03-21T15:23:05Z</time>
      </trkpt>
      <trkpt lat="46.56021" lon="5.50085">
        <ele>493.8</ele>
        <time>2022-03-21T15:23:06Z</time>
      </trkpt>
      <trkpt lat="46.56014" lon="5.50081">
        <ele>493.8</ele>
        <time>2022-03-21T15:23:07Z</time>
      </trkpt>
      <trkpt lat="46.56008" lon="5.50079">
        <ele>493.8</ele>
        <time>2022-03-21T15:23:08Z</time>
      </trkpt>
      <trkpt lat="46.56001" lon="5.50076">
        <ele>493.8</ele>
        <time>2022-03-21T15:23:09Z</time>
      </trkpt>
      <trkpt lat="46.55995" lon="5.50073">
        <ele>493.8</ele>
        <time>2022-03-21T15:23:10Z</time>
      </trkpt>
      <trkpt lat="46.55989" lon="5.5007">
        <ele>493.8</ele>
        <time>2022-03-21T15:23:11Z</time>
      </trkpt>
      <trkpt lat="46.55983" lon="5.50067">
        <ele>493.8</ele>
        <time>2022-03-21T15:23:12Z</time>
      </trkpt>
      <trkpt lat="46.55976" lon="5.50065">
        <ele>493.8</ele>
        <time>2022-03-21T15:23:13Z</time>
      </trkpt>
      <trkpt lat="46.5597" lon="5.50062">
        <ele>493.8</ele>
        <time>2022-03-21T15:23:14Z</time>
      </trkpt>
      <trkpt lat="46.55964" lon="5.5006">
        <ele>493.8</ele>
        <time>2022-03-21T15:23:15Z</time>
      </trkpt>
      <trkpt lat="46.55957" lon="5.50057">
        <ele>493.8</ele>
        <time>2022-03-21T15:23:16Z</time>
      </trkpt>
      <trkpt lat="46.55951" lon="5.50055">
        <ele>493.8</ele>
        <time>2022-03-21T15:23:17Z</time>
      </trkpt>
      <trkpt lat="46.55944" lon="5.50053">
        <ele>493.8</ele>
        <time>2022-03-21T15:23:18Z</time>
      </trkpt>
      <trkpt lat="46.55938" lon="5.5005">
        <ele>493.8</ele>
        <time>2022-03-21T15:23:19Z</time>
      </trkpt>
      <trkpt lat="46.55931" lon="5.50048">
        <ele>493.8</ele>
        <time>2022-03-21T15:23:20Z</time>
      </trkpt>
      <trkpt lat="46.55925" lon="5.50045">
        <ele>493.8</ele>
        <time>2022-03-21T15:23:21Z</time>
      </trkpt>
      <trkpt lat="46.55919" lon="5.50042">
        <ele>493.8</ele>
        <time>2022-03-21T15:23:22Z</time>
      </trkpt>
      <trkpt lat="46.55913" lon="5.50039">
        <ele>493.8</ele>
        <time>2022-03-21T15:23:23Z</time>
      </trkpt>
      <trkpt lat="46.55907" lon="5.50035">
        <ele>493.8</ele>
        <time>2022-03-21T15:23:24Z</time>
      </trkpt>
      <trkpt lat="46.55901" lon="5.5003">
        <ele>493.8</ele>
        <time>2022-03-21T15:23:25Z</time>
      </trkpt>
      <trkpt lat="46.55896" lon="5.50025">
        <ele>493.8</ele>
        <time>2022-03-21T15:23:26Z</time>
      </trkpt>
      <trkpt lat="46.5589" lon="5.5002">
        <ele>493.8</ele>
        <time>2022-03-21T15:23:27Z</time>
      </trkpt>
      <trkpt lat="46.55885" lon="5.50015">
        <ele>493.8</ele>
        <time>2022-03-21T15:23:28Z</time>
      </trkpt>
      <trkpt lat="46.5588" lon="5.5001">
        <ele>493.8</ele>
        <time>2022-03-21T15:23:29Z</time>
      </trkpt>
      <trkpt lat="46.55875" lon="5.50004">
        <ele>493.8</ele>
        <time>2022-03-21T15:23:30Z</time>
      </trkpt>
      <trkpt lat="46.55871" lon="5.49999">
        <ele>493.8</ele>
        <time>2022-03-21T15:23:31Z</time>
      </trkpt>
      <trkpt lat="46.55866" lon="5.49994">
        <ele>493.8</ele>
        <time>2022-03-21T15:23:32Z</time>
      </trkpt>
      <trkpt lat="46.55861" lon="5.49988">
        <ele>493.8</ele>
        <time>2022-03-21T15:23:33Z</time>
      </trkpt>
      <trkpt lat="46.55856" lon="5.49983">
        <ele>493.8</ele>
        <time>2022-03-21T15:23:34Z</time>
      </trkpt>
      <trkpt lat="46.55852" lon="5.49978">
        <ele>493.8</ele>
        <time>2022-03-21T15:23:35Z</time>
      </trkpt>
      <trkpt lat="46.55847" lon="5.49973">
        <ele>493.8</ele>
        <time>2022-03-21T15:23:36Z</time>
      </trkpt>
      <trkpt lat="46.55843" lon="5.49968">
        <ele>493.8</ele>
        <time>2022-03-21T15:23:37Z</time>
      </trkpt>
      <trkpt lat="46.55838" lon="5.49963">
        <ele>493.8</ele>
        <time>2022-03-21T15:23:38Z</time>
      </trkpt>
      <trkpt lat="46.55833" lon="5.49958">
        <ele>493.8</ele>
        <time>2022-03-21T15:23:39Z</time>
      </trkpt>
      <trkpt lat="46.55828" lon="5.49952">
        <ele>493.8</ele>
        <time>2022-03-21T15:23:40Z</time>
      </trkpt>
      <trkpt lat="46.55824" lon="5.49947">
        <ele>493.8</ele>
        <time>2022-03-21T15:23:41Z</time>
      </trkpt>
      <trkpt lat="46.55819" lon="5.49942">
        <ele>493.8</ele>
        <time>2022-03-21T15:23:42Z</time>
      </trkpt>
      <trkpt lat="46.55814" lon="5.49937">
        <ele>493.8</ele>
        <time>2022-03-21T15:23:43Z</time>
      </trkpt>
      <trkpt lat="46.55809" lon="5.49932">
        <ele>493.8</ele>
        <time>2022-03-21T15:23:44Z</time>
      </trkpt>
      <trkpt lat="46.55804" lon="5.49926">
        <ele>493.8</ele>
        <time>2022-03-21T15:23:45Z</time>
      </trkpt>
      <trkpt lat="46.558" lon="5.49921">
        <ele>493.8</ele>
        <time>2022-03-21T15:23:46Z</time>
      </trkpt>
      <trkpt lat="46.55795" lon="5.49916">
        <ele>493.8</ele>
        <time>2022-03-21T15:23:47Z</time>
      </trkpt>
      <trkpt lat="46.5579" lon="5.4991">
        <ele>493.8</ele>
        <time>2022-03-21T15:23:48Z</time>
      </trkpt>
      <trkpt lat="46.55785" lon="5.49905">
        <ele>494</ele>
        <time>2022-03-21T15:23:49Z</time>
      </trkpt>
      <trkpt lat="46.55781" lon="5.499">
        <ele>494</ele>
        <time>2022-03-21T15:23:50Z</time>
      </trkpt>
      <trkpt lat="46.55776" lon="5.49894">
        <ele>494</ele>
        <time>2022-03-21T15:23:51Z</time>
      </trkpt>
      <trkpt lat="46.55772" lon="5.49889">
        <ele>494.4</ele>
        <time>2022-03-21T15:23:52Z</time>
      </trkpt>
      <trkpt lat="46.55767" lon="5.49883">
        <ele>494.4</ele>
        <time>2022-03-21T15:23:53Z</time>
      </trkpt>
      <trkpt lat="46.55763" lon="5.49878">
        <ele>494.4</ele>
        <time>2022-03-21T15:23:54Z</time>
      </trkpt>
      <trkpt lat="46.55759" lon="5.49873">
        <ele>494.4</ele>
        <time>2022-03-21T15:23:55Z</time>
      </trkpt>
      <trkpt lat="46.55755" lon="5.49867">
        <ele>494.6</ele>
        <time>2022-03-21T15:23:56Z</time>
      </trkpt>
      <trkpt lat="46.55751" lon="5.49862">
        <ele>494.6</ele>
        <time>2022-03-21T15:23:57Z</time>
      </trkpt>
      <trkpt lat="46.55748" lon="5.49856">
        <ele>494.6</ele>
        <time>2022-03-21T15:23:58Z</time>
      </trkpt>
      <trkpt lat="46.55744" lon="5.49851">
        <ele>494.8</ele>
        <time>2022-03-21T15:23:59Z</time>
      </trkpt>
      <trkpt lat="46.55741" lon="5.49845">
        <ele>494.8</ele>
        <time>2022-03-21T15:24:00Z</time>
      </trkpt>
      <trkpt lat="46.55737" lon="5.4984">
        <ele>494.8</ele>
        <time>2022-03-21T15:24:01Z</time>
      </trkpt>
      <trkpt lat="46.55734" lon="5.49835">
        <ele>495.2</ele>
        <time>2022-03-21T15:24:02Z</time>
      </trkpt>
      <trkpt lat="46.55731" lon="5.49829">
        <ele>495.2</ele>
        <time>2022-03-21T15:24:03Z</time>
      </trkpt>
      <trkpt lat="46.55727" lon="5.49824">
        <ele>495.2</ele>
        <time>2022-03-21T15:24:04Z</time>
      </trkpt>
      <trkpt lat="46.55724" lon="5.49818">
        <ele>495.2</ele>
        <time>2022-03-21T15:24:05Z</time>
      </trkpt>
      <trkpt lat="46.55721" lon="5.49813">
        <ele>495.2</ele>
        <time>2022-03-21T15:24:06Z</time>
      </trkpt>
      <trkpt lat="46.55718" lon="5.49807">
        <ele>495.4</ele>
        <time>2022-03-21T15:24:07Z</time>
      </trkpt>
      <trkpt lat="46.55714" lon="5.49802">
        <ele>495.4</ele>
        <time>2022-03-21T15:24:08Z</time>
      </trkpt>
      <trkpt lat="46.55711" lon="5.49796">
        <ele>495.4</ele>
        <time>2022-03-21T15:24:09Z</time>
      </trkpt>
      <trkpt lat="46.55708" lon="5.4979">
        <ele>495.4</ele>
        <time>2022-03-21T15:24:10Z</time>
      </trkpt>
      <trkpt lat="46.55704" lon="5.49785">
        <ele>495.6</ele>
        <time>2022-03-21T15:24:11Z</time>
      </trkpt>
      <trkpt lat="46.55701" lon="5.49779">
        <ele>495.6</ele>
        <time>2022-03-21T15:24:12Z</time>
      </trkpt>
      <trkpt lat="46.55698" lon="5.49773">
        <ele>495.6</ele>
        <time>2022-03-21T15:24:13Z</time>
      </trkpt>
      <trkpt lat="46.55694" lon="5.49768">
        <ele>496</ele>
        <time>2022-03-21T15:24:14Z</time>
      </trkpt>
      <trkpt lat="46.55691" lon="5.49762">
        <ele>496</ele>
        <time>2022-03-21T15:24:15Z</time>
      </trkpt>
      <trkpt lat="46.55688" lon="5.49756">
        <ele>496</ele>
        <time>2022-03-21T15:24:16Z</time>
      </trkpt>
      <trkpt lat="46.55684" lon="5.49751">
        <ele>496.2</ele>
        <time>2022-03-21T15:24:17Z</time>
      </trkpt>
      <trkpt lat="46.55681" lon="5.49745">
        <ele>496.2</ele>
        <time>2022-03-21T15:24:18Z</time>
      </trkpt>
      <trkpt lat="46.55677" lon="5.49739">
        <ele>496.2</ele>
        <time>2022-03-21T15:24:19Z</time>
      </trkpt>
      <trkpt lat="46.55674" lon="5.49734">
        <ele>496.2</ele>
        <time>2022-03-21T15:24:20Z</time>
      </trkpt>
      <trkpt lat="46.5567" lon="5.49728">
        <ele>496.2</ele>
        <time>2022-03-21T15:24:21Z</time>
      </trkpt>
      <trkpt lat="46.55666" lon="5.49723">
        <ele>496.4</ele>
        <time>2022-03-21T15:24:22Z</time>
      </trkpt>
      <trkpt lat="46.55663" lon="5.49717">
        <ele>496.4</ele>
        <time>2022-03-21T15:24:23Z</time>
      </trkpt>
      <trkpt lat="46.55659" lon="5.49711">
        <ele>496.4</ele>
        <time>2022-03-21T15:24:24Z</time>
      </trkpt>
      <trkpt lat="46.55656" lon="5.49706">
        <ele>496.4</ele>
        <time>2022-03-21T15:24:25Z</time>
      </trkpt>
      <trkpt lat="46.55652" lon="5.497">
        <ele>496.4</ele>
        <time>2022-03-21T15:24:26Z</time>
      </trkpt>
      <trkpt lat="46.55648" lon="5.49694">
        <ele>496.8</ele>
        <time>2022-03-21T15:24:27Z</time>
      </trkpt>
      <trkpt lat="46.55644" lon="5.49689">
        <ele>496.8</ele>
        <time>2022-03-21T15:24:28Z</time>
      </trkpt>
      <trkpt lat="46.5564" lon="5.49684">
        <ele>496.8</ele>
        <time>2022-03-21T15:24:29Z</time>
      </trkpt>
      <trkpt lat="46.55636" lon="5.49678">
        <ele>496.8</ele>
        <time>2022-03-21T15:24:30Z</time>
      </trkpt>
      <trkpt lat="46.55632" lon="5.49673">
        <ele>496.8</ele>
        <time>2022-03-21T15:24:31Z</time>
      </trkpt>
      <trkpt lat="46.55628" lon="5.49667">
        <ele>496.8</ele>
        <time>2022-03-21T15:24:32Z</time>
      </trkpt>
      <trkpt lat="46.55624" lon="5.49662">
        <ele>496.8</ele>
        <time>2022-03-21T15:24:33Z</time>
      </trkpt>
      <trkpt lat="46.5562" lon="5.49656">
        <ele>496.8</ele>
        <time>2022-03-21T15:24:34Z</time>
      </trkpt>
      <trkpt lat="46.55617" lon="5.4965">
        <ele>496.8</ele>
        <time>2022-03-21T15:24:35Z</time>
      </trkpt>
      <trkpt lat="46.55613" lon="5.49645">
        <ele>496.8</ele>
        <time>2022-03-21T15:24:36Z</time>
      </trkpt>
      <trkpt lat="46.55609" lon="5.49639">
        <ele>496.8</ele>
        <time>2022-03-21T15:24:37Z</time>
      </trkpt>
      <trkpt lat="46.55605" lon="5.49634">
        <ele>496.8</ele>
        <time>2022-03-21T15:24:38Z</time>
      </trkpt>
      <trkpt lat="46.556" lon="5.49629">
        <ele>496.8</ele>
        <time>2022-03-21T15:24:39Z</time>
      </trkpt>
      <trkpt lat="46.55596" lon="5.49623">
        <ele>496.8</ele>
        <time>2022-03-21T15:24:40Z</time>
      </trkpt>
      <trkpt lat="46.55592" lon="5.49618">
        <ele>496.8</ele>
        <time>2022-03-21T15:24:41Z</time>
      </trkpt>
      <trkpt lat="46.55589" lon="5.49612">
        <ele>496.8</ele>
        <time>2022-03-21T15:24:42Z</time>
      </trkpt>
      <trkpt lat="46.55585" lon="5.49607">
        <ele>496.8</ele>
        <time>2022-03-21T15:24:43Z</time>
      </trkpt>
      <trkpt lat="46.55581" lon="5.49602">
        <ele>496.8</ele>
        <time>2022-03-21T15:24:44Z</time>
      </trkpt>
      <trkpt lat="46.55577" lon="5.49597">
        <ele>496.8</ele>
        <time>2022-03-21T15:24:45Z</time>
      </trkpt>
      <trkpt lat="46.55573" lon="5.49592">
        <ele>496.8</ele>
        <time>2022-03-21T15:24:46Z</time>
      </trkpt>
      <trkpt lat="46.55569" lon="5.49587">
        <ele>496.8</ele>
        <time>2022-03-21T15:24:47Z</time>
      </trkpt>
      <trkpt lat="46.55566" lon="5.49582">
        <ele>496.8</ele>
        <time>2022-03-21T15:24:48Z</time>
      </trkpt>
      <trkpt lat="46.55562" lon="5.49577">
        <ele>497</ele>
        <time>2022-03-21T15:24:49Z</time>
      </trkpt>
      <trkpt lat="46.55558" lon="5.49572">
        <ele>497</ele>
        <time>2022-03-21T15:24:50Z</time>
      </trkpt>
      <trkpt lat="46.55554" lon="5.49567">
        <ele>497.2</ele>
        <time>2022-03-21T15:24:51Z</time>
      </trkpt>
      <trkpt lat="46.5555" lon="5.49562">
        <ele>497.2</ele>
        <time>2022-03-21T15:24:52Z</time>
      </trkpt>
      <trkpt lat="46.55547" lon="5.49557">
        <ele>497.2</ele>
        <time>2022-03-21T15:24:53Z</time>
      </trkpt>
      <trkpt lat="46.55543" lon="5.49552">
        <ele>497.4</ele>
        <time>2022-03-21T15:24:54Z</time>
      </trkpt>
      <trkpt lat="46.55539" lon="5.49547">
        <ele>497.4</ele>
        <time>2022-03-21T15:24:55Z</time>
      </trkpt>
      <trkpt lat="46.55535" lon="5.49542">
        <ele>497.4</ele>
        <time>2022-03-21T15:24:56Z</time>
      </trkpt>
      <trkpt lat="46.55531" lon="5.49537">
        <ele>497.6</ele>
        <time>2022-03-21T15:24:57Z</time>
      </trkpt>
      <trkpt lat="46.55527" lon="5.49532">
        <ele>497.6</ele>
        <time>2022-03-21T15:24:58Z</time>
      </trkpt>
      <trkpt lat="46.55524" lon="5.49527">
        <ele>497.6</ele>
        <time>2022-03-21T15:24:59Z</time>
      </trkpt>
      <trkpt lat="46.5552" lon="5.49522">
        <ele>497.6</ele>
        <time>2022-03-21T15:25:00Z</time>
      </trkpt>
      <trkpt lat="46.55516" lon="5.49517">
        <ele>497.6</ele>
        <time>2022-03-21T15:25:01Z</time>
      </trkpt>
      <trkpt lat="46.55513" lon="5.49513">
        <ele>498</ele>
        <time>2022-03-21T15:25:02Z</time>
      </trkpt>
      <trkpt lat="46.55509" lon="5.49508">
        <ele>498</ele>
        <time>2022-03-21T15:25:03Z</time>
      </trkpt>
      <trkpt lat="46.55505" lon="5.49504">
        <ele>498</ele>
        <time>2022-03-21T15:25:04Z</time>
      </trkpt>
      <trkpt lat="46.55502" lon="5.495">
        <ele>498</ele>
        <time>2022-03-21T15:25:05Z</time>
      </trkpt>
      <trkpt lat="46.55498" lon="5.49495">
        <ele>498.2</ele>
        <time>2022-03-21T15:25:06Z</time>
      </trkpt>
      <trkpt lat="46.55494" lon="5.4949">
        <ele>498.2</ele>
        <time>2022-03-21T15:25:07Z</time>
      </trkpt>
      <trkpt lat="46.55491" lon="5.49486">
        <ele>498.4</ele>
        <time>2022-03-21T15:25:08Z</time>
      </trkpt>
      <trkpt lat="46.55487" lon="5.49481">
        <ele>498.4</ele>
        <time>2022-03-21T15:25:09Z</time>
      </trkpt>
      <trkpt lat="46.55483" lon="5.49477">
        <ele>498.4</ele>
        <time>2022-03-21T15:25:10Z</time>
      </trkpt>
      <trkpt lat="46.55479" lon="5.49473">
        <ele>498.6</ele>
        <time>2022-03-21T15:25:11Z</time>
      </trkpt>
      <trkpt lat="46.55476" lon="5.49468">
        <ele>498.6</ele>
        <time>2022-03-21T15:25:12Z</time>
      </trkpt>
      <trkpt lat="46.55472" lon="5.49464">
        <ele>498.6</ele>
        <time>2022-03-21T15:25:13Z</time>
      </trkpt>
      <trkpt lat="46.55469" lon="5.49459">
        <ele>499</ele>
        <time>2022-03-21T15:25:14Z</time>
      </trkpt>
      <trkpt lat="46.55465" lon="5.49454">
        <ele>499</ele>
        <time>2022-03-21T15:25:15Z</time>
      </trkpt>
      <trkpt lat="46.55462" lon="5.4945">
        <ele>499.2</ele>
        <time>2022-03-21T15:25:16Z</time>
      </trkpt>
      <trkpt lat="46.55459" lon="5.49446">
        <ele>499.4</ele>
        <time>2022-03-21T15:25:17Z</time>
      </trkpt>
      <trkpt lat="46.55455" lon="5.49442">
        <ele>499.6</ele>
        <time>2022-03-21T15:25:18Z</time>
      </trkpt>
      <trkpt lat="46.55452" lon="5.49438">
        <ele>499.6</ele>
        <time>2022-03-21T15:25:19Z</time>
      </trkpt>
      <trkpt lat="46.55449" lon="5.49434">
        <ele>500</ele>
        <time>2022-03-21T15:25:20Z</time>
      </trkpt>
      <trkpt lat="46.55446" lon="5.4943">
        <ele>500</ele>
        <time>2022-03-21T15:25:21Z</time>
      </trkpt>
      <trkpt lat="46.55442" lon="5.49426">
        <ele>500.2</ele>
        <time>2022-03-21T15:25:22Z</time>
      </trkpt>
      <trkpt lat="46.55439" lon="5.49422">
        <ele>500.6</ele>
        <time>2022-03-21T15:25:23Z</time>
      </trkpt>
      <trkpt lat="46.55436" lon="5.49418">
        <ele>500.8</ele>
        <time>2022-03-21T15:25:24Z</time>
      </trkpt>
      <trkpt lat="46.55433" lon="5.49414">
        <ele>501</ele>
        <time>2022-03-21T15:25:25Z</time>
      </trkpt>
      <trkpt lat="46.5543" lon="5.4941">
        <ele>501.2</ele>
        <time>2022-03-21T15:25:26Z</time>
      </trkpt>
      <trkpt lat="46.55426" lon="5.49406">
        <ele>501.4</ele>
        <time>2022-03-21T15:25:27Z</time>
      </trkpt>
      <trkpt lat="46.55423" lon="5.49403">
        <ele>501.8</ele>
        <time>2022-03-21T15:25:28Z</time>
      </trkpt>
      <trkpt lat="46.5542" lon="5.49399">
        <ele>502</ele>
        <time>2022-03-21T15:25:29Z</time>
      </trkpt>
      <trkpt lat="46.55417" lon="5.49396">
        <ele>502</ele>
        <time>2022-03-21T15:25:30Z</time>
      </trkpt>
      <trkpt lat="46.55414" lon="5.49393">
        <ele>502.2</ele>
        <time>2022-03-21T15:25:31Z</time>
      </trkpt>
      <trkpt lat="46.55411" lon="5.4939">
        <ele>502.2</ele>
        <time>2022-03-21T15:25:32Z</time>
      </trkpt>
      <trkpt lat="46.55407" lon="5.49388">
        <ele>502.6</ele>
        <time>2022-03-21T15:25:33Z</time>
      </trkpt>
      <trkpt lat="46.55404" lon="5.49384">
        <ele>502.6</ele>
        <time>2022-03-21T15:25:34Z</time>
      </trkpt>
      <trkpt lat="46.55401" lon="5.49381">
        <ele>502.8</ele>
        <time>2022-03-21T15:25:35Z</time>
      </trkpt>
      <trkpt lat="46.55397" lon="5.49378">
        <ele>502.8</ele>
        <time>2022-03-21T15:25:36Z</time>
      </trkpt>
      <trkpt lat="46.55393" lon="5.49375">
        <ele>502.8</ele>
        <time>2022-03-21T15:25:37Z</time>
      </trkpt>
      <trkpt lat="46.5539" lon="5.49372">
        <ele>503</ele>
        <time>2022-03-21T15:25:38Z</time>
      </trkpt>
      <trkpt lat="46.55386" lon="5.49369">
        <ele>503</ele>
        <time>2022-03-21T15:25:39Z</time>
      </trkpt>
      <trkpt lat="46.55382" lon="5.49366">
        <ele>503</ele>
        <time>2022-03-21T15:25:40Z</time>
      </trkpt>
      <trkpt lat="46.55377" lon="5.49364">
        <ele>503</ele>
        <time>2022-03-21T15:25:41Z</time>
      </trkpt>
      <trkpt lat="46.55373" lon="5.49361">
        <ele>503</ele>
        <time>2022-03-21T15:25:42Z</time>
      </trkpt>
      <trkpt lat="46.55369" lon="5.49358">
        <ele>503</ele>
        <time>2022-03-21T15:25:43Z</time>
      </trkpt>
      <trkpt lat="46.55365" lon="5.49356">
        <ele>503.4</ele>
        <time>2022-03-21T15:25:44Z</time>
      </trkpt>
      <trkpt lat="46.55361" lon="5.49354">
        <ele>503.4</ele>
        <time>2022-03-21T15:25:45Z</time>
      </trkpt>
      <trkpt lat="46.55357" lon="5.49352">
        <ele>503.4</ele>
        <time>2022-03-21T15:25:46Z</time>
      </trkpt>
      <trkpt lat="46.55354" lon="5.4935">
        <ele>503.6</ele>
        <time>2022-03-21T15:25:48Z</time>
      </trkpt>
      <trkpt lat="46.55351" lon="5.49348">
        <ele>503.6</ele>
        <time>2022-03-21T15:25:49Z</time>
      </trkpt>
      <trkpt lat="46.55347" lon="5.49347">
        <ele>503.6</ele>
        <time>2022-03-21T15:25:50Z</time>
      </trkpt>
      <trkpt lat="46.55343" lon="5.49346">
        <ele>503.6</ele>
        <time>2022-03-21T15:25:51Z</time>
      </trkpt>
      <trkpt lat="46.55339" lon="5.49345">
        <ele>503.8</ele>
        <time>2022-03-21T15:25:52Z</time>
      </trkpt>
      <trkpt lat="46.55335" lon="5.49344">
        <ele>503.8</ele>
        <time>2022-03-21T15:25:53Z</time>
      </trkpt>
      <trkpt lat="46.55331" lon="5.49344">
        <ele>503.8</ele>
        <time>2022-03-21T15:25:54Z</time>
      </trkpt>
      <trkpt lat="46.55328" lon="5.49345">
        <ele>503.8</ele>
        <time>2022-03-21T15:25:55Z</time>
      </trkpt>
      <trkpt lat="46.55325" lon="5.49348">
        <ele>503.8</ele>
        <time>2022-03-21T15:25:56Z</time>
      </trkpt>
      <trkpt lat="46.55323" lon="5.49352">
        <ele>503.8</ele>
        <time>2022-03-21T15:25:57Z</time>
      </trkpt>
      <trkpt lat="46.55322" lon="5.49357">
        <ele>503.8</ele>
        <time>2022-03-21T15:25:58Z</time>
      </trkpt>
      <trkpt lat="46.55321" lon="5.49362">
        <ele>504.2</ele>
        <time>2022-03-21T15:25:59Z</time>
      </trkpt>
      <trkpt lat="46.55321" lon="5.49367">
        <ele>504.2</ele>
        <time>2022-03-21T15:26:00Z</time>
      </trkpt>
      <trkpt lat="46.55321" lon="5.49372">
        <ele>504.4</ele>
        <time>2022-03-21T15:26:01Z</time>
      </trkpt>
      <trkpt lat="46.5532" lon="5.49376">
        <ele>504.4</ele>
        <time>2022-03-21T15:26:02Z</time>
      </trkpt>
      <trkpt lat="46.55319" lon="5.4938">
        <ele>504.8</ele>
        <time>2022-03-21T15:26:03Z</time>
      </trkpt>
      <trkpt lat="46.55318" lon="5.49384">
        <ele>504.8</ele>
        <time>2022-03-21T15:26:04Z</time>
      </trkpt>
      <trkpt lat="46.55318" lon="5.49388">
        <ele>505.2</ele>
        <time>2022-03-21T15:26:05Z</time>
      </trkpt>
      <trkpt lat="46.55318" lon="5.49393">
        <ele>505.4</ele>
        <time>2022-03-21T15:26:06Z</time>
      </trkpt>
      <trkpt lat="46.55317" lon="5.49397">
        <ele>505.4</ele>
        <time>2022-03-21T15:26:07Z</time>
      </trkpt>
      <trkpt lat="46.55317" lon="5.49401">
        <ele>505.8</ele>
        <time>2022-03-21T15:26:08Z</time>
      </trkpt>
      <trkpt lat="46.55316" lon="5.49405">
        <ele>506</ele>
        <time>2022-03-21T15:26:09Z</time>
      </trkpt>
      <trkpt lat="46.55316" lon="5.49409">
        <ele>506</ele>
        <time>2022-03-21T15:26:10Z</time>
      </trkpt>
      <trkpt lat="46.55316" lon="5.49414">
        <ele>506.4</ele>
        <time>2022-03-21T15:26:11Z</time>
      </trkpt>
      <trkpt lat="46.55316" lon="5.49419">
        <ele>506.8</ele>
        <time>2022-03-21T15:26:12Z</time>
      </trkpt>
      <trkpt lat="46.55315" lon="5.49424">
        <ele>507.2</ele>
        <time>2022-03-21T15:26:13Z</time>
      </trkpt>
      <trkpt lat="46.55315" lon="5.49429">
        <ele>507.4</ele>
        <time>2022-03-21T15:26:14Z</time>
      </trkpt>
      <trkpt lat="46.55314" lon="5.49433">
        <ele>507.6</ele>
        <time>2022-03-21T15:26:15Z</time>
      </trkpt>
      <trkpt lat="46.55314" lon="5.49438">
        <ele>507.6</ele>
        <time>2022-03-21T15:26:16Z</time>
      </trkpt>
      <trkpt lat="46.55314" lon="5.49442">
        <ele>508</ele>
        <time>2022-03-21T15:26:17Z</time>
      </trkpt>
      <trkpt lat="46.55314" lon="5.49446">
        <ele>508</ele>
        <time>2022-03-21T15:26:18Z</time>
      </trkpt>
      <trkpt lat="46.55314" lon="5.4945">
        <ele>508.2</ele>
        <time>2022-03-21T15:26:19Z</time>
      </trkpt>
      <trkpt lat="46.55313" lon="5.49454">
        <ele>508.4</ele>
        <time>2022-03-21T15:26:20Z</time>
      </trkpt>
      <trkpt lat="46.55313" lon="5.49458">
        <ele>508.4</ele>
        <time>2022-03-21T15:26:21Z</time>
      </trkpt>
      <trkpt lat="46.55312" lon="5.49462">
        <ele>508.8</ele>
        <time>2022-03-21T15:26:22Z</time>
      </trkpt>
      <trkpt lat="46.55312" lon="5.49466">
        <ele>509</ele>
        <time>2022-03-21T15:26:23Z</time>
      </trkpt>
      <trkpt lat="46.55311" lon="5.49469">
        <ele>509.2</ele>
        <time>2022-03-21T15:26:24Z</time>
      </trkpt>
      <trkpt lat="46.55311" lon="5.49473">
        <ele>509.2</ele>
        <time>2022-03-21T15:26:25Z</time>
      </trkpt>
      <trkpt lat="46.5531" lon="5.49476">
        <ele>509.8</ele>
        <time>2022-03-21T15:26:26Z</time>
      </trkpt>
      <trkpt lat="46.55309" lon="5.4948">
        <ele>510</ele>
        <time>2022-03-21T15:26:27Z</time>
      </trkpt>
      <trkpt lat="46.55309" lon="5.49483">
        <ele>510.2</ele>
        <time>2022-03-21T15:26:28Z</time>
      </trkpt>
      <trkpt lat="46.55308" lon="5.49487">
        <ele>510.4</ele>
        <time>2022-03-21T15:26:29Z</time>
      </trkpt>
      <trkpt lat="46.55307" lon="5.4949">
        <ele>510.6</ele>
        <time>2022-03-21T15:26:30Z</time>
      </trkpt>
      <trkpt lat="46.55306" lon="5.49494">
        <ele>510.8</ele>
        <time>2022-03-21T15:26:31Z</time>
      </trkpt>
      <trkpt lat="46.55305" lon="5.49498">
        <ele>510.8</ele>
        <time>2022-03-21T15:26:32Z</time>
      </trkpt>
      <trkpt lat="46.55305" lon="5.49502">
        <ele>511.2</ele>
        <time>2022-03-21T15:26:33Z</time>
      </trkpt>
      <trkpt lat="46.55304" lon="5.49505">
        <ele>511.2</ele>
        <time>2022-03-21T15:26:34Z</time>
      </trkpt>
      <trkpt lat="46.55304" lon="5.49509">
        <ele>511.2</ele>
        <time>2022-03-21T15:26:35Z</time>
      </trkpt>
      <trkpt lat="46.55303" lon="5.49513">
        <ele>511.6</ele>
        <time>2022-03-21T15:26:36Z</time>
      </trkpt>
      <trkpt lat="46.55302" lon="5.49516">
        <ele>511.8</ele>
        <time>2022-03-21T15:26:37Z</time>
      </trkpt>
      <trkpt lat="46.55301" lon="5.4952">
        <ele>512</ele>
        <time>2022-03-21T15:26:38Z</time>
      </trkpt>
      <trkpt lat="46.553" lon="5.49524">
        <ele>512.4</ele>
        <time>2022-03-21T15:26:39Z</time>
      </trkpt>
      <trkpt lat="46.55299" lon="5.49528">
        <ele>512.4</ele>
        <time>2022-03-21T15:26:40Z</time>
      </trkpt>
      <trkpt lat="46.55298" lon="5.49531">
        <ele>512.6</ele>
        <time>2022-03-21T15:26:41Z</time>
      </trkpt>
      <trkpt lat="46.55298" lon="5.49535">
        <ele>512.8</ele>
        <time>2022-03-21T15:26:42Z</time>
      </trkpt>
      <trkpt lat="46.55297" lon="5.49539">
        <ele>513</ele>
        <time>2022-03-21T15:26:43Z</time>
      </trkpt>
      <trkpt lat="46.55297" lon="5.49542">
        <ele>513.4</ele>
        <time>2022-03-21T15:26:44Z</time>
      </trkpt>
      <trkpt lat="46.55296" lon="5.49546">
        <ele>513.6</ele>
        <time>2022-03-21T15:26:45Z</time>
      </trkpt>
      <trkpt lat="46.55296" lon="5.4955">
        <ele>513.8</ele>
        <time>2022-03-21T15:26:46Z</time>
      </trkpt>
      <trkpt lat="46.55296" lon="5.49554">
        <ele>513.8</ele>
        <time>2022-03-21T15:26:47Z</time>
      </trkpt>
      <trkpt lat="46.55296" lon="5.49558">
        <ele>514.2</ele>
        <time>2022-03-21T15:26:48Z</time>
      </trkpt>
      <trkpt lat="46.55296" lon="5.49562">
        <ele>514.4</ele>
        <time>2022-03-21T15:26:49Z</time>
      </trkpt>
      <trkpt lat="46.55296" lon="5.49565">
        <ele>514.4</ele>
        <time>2022-03-21T15:26:50Z</time>
      </trkpt>
      <trkpt lat="46.55297" lon="5.49569">
        <ele>514.8</ele>
        <time>2022-03-21T15:26:51Z</time>
      </trkpt>
      <trkpt lat="46.55297" lon="5.49573">
        <ele>514.8</ele>
        <time>2022-03-21T15:26:52Z</time>
      </trkpt>
      <trkpt lat="46.55298" lon="5.49577">
        <ele>515.4</ele>
        <time>2022-03-21T15:26:53Z</time>
      </trkpt>
      <trkpt lat="46.55299" lon="5.49581">
        <ele>515.6</ele>
        <time>2022-03-21T15:26:54Z</time>
      </trkpt>
      <trkpt lat="46.553" lon="5.49584">
        <ele>515.8</ele>
        <time>2022-03-21T15:26:55Z</time>
      </trkpt>
      <trkpt lat="46.55301" lon="5.49587">
        <ele>516</ele>
        <time>2022-03-21T15:26:56Z</time>
      </trkpt>
      <trkpt lat="46.55303" lon="5.49593">
        <ele>516.2</ele>
        <time>2022-03-21T15:26:57Z</time>
      </trkpt>
      <trkpt lat="46.55304" lon="5.49596">
        <ele>516.2</ele>
        <time>2022-03-21T15:26:58Z</time>
      </trkpt>
      <trkpt lat="46.55306" lon="5.49598">
        <ele>516.6</ele>
        <time>2022-03-21T15:26:59Z</time>
      </trkpt>
      <trkpt lat="46.55307" lon="5.49601">
        <ele>517</ele>
        <time>2022-03-21T15:27:00Z</time>
      </trkpt>
      <trkpt lat="46.55309" lon="5.49604">
        <ele>517.2</ele>
        <time>2022-03-21T15:27:01Z</time>
      </trkpt>
      <trkpt lat="46.5531" lon="5.49606">
        <ele>517.6</ele>
        <time>2022-03-21T15:27:02Z</time>
      </trkpt>
      <trkpt lat="46.55312" lon="5.49609">
        <ele>517.8</ele>
        <time>2022-03-21T15:27:03Z</time>
      </trkpt>
      <trkpt lat="46.55313" lon="5.49612">
        <ele>518</ele>
        <time>2022-03-21T15:27:04Z</time>
      </trkpt>
      <trkpt lat="46.55315" lon="5.49615">
        <ele>518.2</ele>
        <time>2022-03-21T15:27:05Z</time>
      </trkpt>
      <trkpt lat="46.55317" lon="5.49618">
        <ele>518.4</ele>
        <time>2022-03-21T15:27:06Z</time>
      </trkpt>
      <trkpt lat="46.55318" lon="5.49621">
        <ele>518.6</ele>
        <time>2022-03-21T15:27:07Z</time>
      </trkpt>
      <trkpt lat="46.5532" lon="5.49624">
        <ele>519</ele>
        <time>2022-03-21T15:27:08Z</time>
      </trkpt>
      <trkpt lat="46.55321" lon="5.49627">
        <ele>519.2</ele>
        <time>2022-03-21T15:27:09Z</time>
      </trkpt>
      <trkpt lat="46.55323" lon="5.49629">
        <ele>519.4</ele>
        <time>2022-03-21T15:27:10Z</time>
      </trkpt>
      <trkpt lat="46.55324" lon="5.49632">
        <ele>519.8</ele>
        <time>2022-03-21T15:27:11Z</time>
      </trkpt>
      <trkpt lat="46.55326" lon="5.49635">
        <ele>520.2</ele>
        <time>2022-03-21T15:27:12Z</time>
      </trkpt>
      <trkpt lat="46.55327" lon="5.49637">
        <ele>520.4</ele>
        <time>2022-03-21T15:27:13Z</time>
      </trkpt>
      <trkpt lat="46.55329" lon="5.4964">
        <ele>520.6</ele>
        <time>2022-03-21T15:27:14Z</time>
      </trkpt>
      <trkpt lat="46.5533" lon="5.49642">
        <ele>520.8</ele>
        <time>2022-03-21T15:27:15Z</time>
      </trkpt>
      <trkpt lat="46.55332" lon="5.49644">
        <ele>521.2</ele>
        <time>2022-03-21T15:27:16Z</time>
      </trkpt>
      <trkpt lat="46.55333" lon="5.49646">
        <ele>521.4</ele>
        <time>2022-03-21T15:27:17Z</time>
      </trkpt>
      <trkpt lat="46.55334" lon="5.49648">
        <ele>521.8</ele>
        <time>2022-03-21T15:27:18Z</time>
      </trkpt>
      <trkpt lat="46.55336" lon="5.49651">
        <ele>522</ele>
        <time>2022-03-21T15:27:19Z</time>
      </trkpt>
      <trkpt lat="46.55337" lon="5.49653">
        <ele>522.4</ele>
        <time>2022-03-21T15:27:20Z</time>
      </trkpt>
      <trkpt lat="46.55339" lon="5.49656">
        <ele>522.6</ele>
        <time>2022-03-21T15:27:21Z</time>
      </trkpt>
      <trkpt lat="46.5534" lon="5.49658">
        <ele>522.6</ele>
        <time>2022-03-21T15:27:22Z</time>
      </trkpt>
      <trkpt lat="46.55341" lon="5.49661">
        <ele>523</ele>
        <time>2022-03-21T15:27:23Z</time>
      </trkpt>
      <trkpt lat="46.55342" lon="5.49663">
        <ele>523</ele>
        <time>2022-03-21T15:27:24Z</time>
      </trkpt>
      <trkpt lat="46.55343" lon="5.49665">
        <ele>523.4</ele>
        <time>2022-03-21T15:27:25Z</time>
      </trkpt>
      <trkpt lat="46.55344" lon="5.49668">
        <ele>523.6</ele>
        <time>2022-03-21T15:27:26Z</time>
      </trkpt>
      <trkpt lat="46.55346" lon="5.4967">
        <ele>523.6</ele>
        <time>2022-03-21T15:27:27Z</time>
      </trkpt>
      <trkpt lat="46.55347" lon="5.49672">
        <ele>523.8</ele>
        <time>2022-03-21T15:27:28Z</time>
      </trkpt>
      <trkpt lat="46.55349" lon="5.49675">
        <ele>523.8</ele>
        <time>2022-03-21T15:27:29Z</time>
      </trkpt>
      <trkpt lat="46.5535" lon="5.49677">
        <ele>524.2</ele>
        <time>2022-03-21T15:27:30Z</time>
      </trkpt>
      <trkpt lat="46.55352" lon="5.49679">
        <ele>524.2</ele>
        <time>2022-03-21T15:27:31Z</time>
      </trkpt>
      <trkpt lat="46.55354" lon="5.49681">
        <ele>524.6</ele>
        <time>2022-03-21T15:27:32Z</time>
      </trkpt>
      <trkpt lat="46.55355" lon="5.49683">
        <ele>524.6</ele>
        <time>2022-03-21T15:27:33Z</time>
      </trkpt>
      <trkpt lat="46.55357" lon="5.49685">
        <ele>525</ele>
        <time>2022-03-21T15:27:34Z</time>
      </trkpt>
      <trkpt lat="46.55358" lon="5.49687">
        <ele>525.2</ele>
        <time>2022-03-21T15:27:35Z</time>
      </trkpt>
      <trkpt lat="46.5536" lon="5.49689">
        <ele>525.2</ele>
        <time>2022-03-21T15:27:36Z</time>
      </trkpt>
      <trkpt lat="46.55361" lon="5.49691">
        <ele>525.4</ele>
        <time>2022-03-21T15:27:37Z</time>
      </trkpt>
      <trkpt lat="46.55362" lon="5.49693">
        <ele>525.4</ele>
        <time>2022-03-21T15:27:38Z</time>
      </trkpt>
      <trkpt lat="46.55364" lon="5.49696">
        <ele>525.8</ele>
        <time>2022-03-21T15:27:39Z</time>
      </trkpt>
      <trkpt lat="46.55365" lon="5.49699">
        <ele>525.8</ele>
        <time>2022-03-21T15:27:40Z</time>
      </trkpt>
      <trkpt lat="46.55366" lon="5.49701">
        <ele>526</ele>
        <time>2022-03-21T15:27:41Z</time>
      </trkpt>
      <trkpt lat="46.55368" lon="5.49703">
        <ele>526</ele>
        <time>2022-03-21T15:27:42Z</time>
      </trkpt>
      <trkpt lat="46.5537" lon="5.49706">
        <ele>526.2</ele>
        <time>2022-03-21T15:27:43Z</time>
      </trkpt>
      <trkpt lat="46.55371" lon="5.49708">
        <ele>526.2</ele>
        <time>2022-03-21T15:27:44Z</time>
      </trkpt>
      <trkpt lat="46.55373" lon="5.4971">
        <ele>526.6</ele>
        <time>2022-03-21T15:27:45Z</time>
      </trkpt>
      <trkpt lat="46.55375" lon="5.49712">
        <ele>526.6</ele>
        <time>2022-03-21T15:27:46Z</time>
      </trkpt>
      <trkpt lat="46.55377" lon="5.49715">
        <ele>526.8</ele>
        <time>2022-03-21T15:27:47Z</time>
      </trkpt>
      <trkpt lat="46.55378" lon="5.49718">
        <ele>526.8</ele>
        <time>2022-03-21T15:27:48Z</time>
      </trkpt>
      <trkpt lat="46.5538" lon="5.4972">
        <ele>527</ele>
        <time>2022-03-21T15:27:49Z</time>
      </trkpt>
      <trkpt lat="46.55381" lon="5.49722">
        <ele>527</ele>
        <time>2022-03-21T15:27:50Z</time>
      </trkpt>
      <trkpt lat="46.55383" lon="5.49725">
        <ele>527.4</ele>
        <time>2022-03-21T15:27:51Z</time>
      </trkpt>
      <trkpt lat="46.55385" lon="5.49727">
        <ele>527.6</ele>
        <time>2022-03-21T15:27:52Z</time>
      </trkpt>
      <trkpt lat="46.55386" lon="5.4973">
        <ele>527.6</ele>
        <time>2022-03-21T15:27:53Z</time>
      </trkpt>
      <trkpt lat="46.55388" lon="5.49732">
        <ele>527.8</ele>
        <time>2022-03-21T15:27:54Z</time>
      </trkpt>
      <trkpt lat="46.5539" lon="5.49735">
        <ele>528</ele>
        <time>2022-03-21T15:27:55Z</time>
      </trkpt>
      <trkpt lat="46.55391" lon="5.49737">
        <ele>528</ele>
        <time>2022-03-21T15:27:56Z</time>
      </trkpt>
      <trkpt lat="46.55392" lon="5.4974">
        <ele>528.4</ele>
        <time>2022-03-21T15:27:57Z</time>
      </trkpt>
      <trkpt lat="46.55392" lon="5.49743">
        <ele>528.4</ele>
        <time>2022-03-21T15:27:58Z</time>
      </trkpt>
      <trkpt lat="46.55393" lon="5.49747">
        <ele>528.8</ele>
        <time>2022-03-21T15:27:59Z</time>
      </trkpt>
      <trkpt lat="46.55393" lon="5.4975">
        <ele>528.8</ele>
        <time>2022-03-21T15:28:00Z</time>
      </trkpt>
      <trkpt lat="46.55393" lon="5.49754">
        <ele>529.2</ele>
        <time>2022-03-21T15:28:01Z</time>
      </trkpt>
      <trkpt lat="46.55393" lon="5.49757">
        <ele>529.2</ele>
        <time>2022-03-21T15:28:02Z</time>
      </trkpt>
      <trkpt lat="46.55393" lon="5.49761">
        <ele>529.4</ele>
        <time>2022-03-21T15:28:03Z</time>
      </trkpt>
      <trkpt lat="46.55392" lon="5.49765">
        <ele>529.4</ele>
        <time>2022-03-21T15:28:04Z</time>
      </trkpt>
      <trkpt lat="46.55392" lon="5.49769">
        <ele>529.6</ele>
        <time>2022-03-21T15:28:05Z</time>
      </trkpt>
      <trkpt lat="46.55391" lon="5.49772">
        <ele>529.6</ele>
        <time>2022-03-21T15:28:06Z</time>
      </trkpt>
      <trkpt lat="46.5539" lon="5.49776">
        <ele>529.6</ele>
        <time>2022-03-21T15:28:07Z</time>
      </trkpt>
      <trkpt lat="46.55388" lon="5.49779">
        <ele>529.8</ele>
        <time>2022-03-21T15:28:08Z</time>
      </trkpt>
      <trkpt lat="46.55387" lon="5.49783">
        <ele>529.8</ele>
        <time>2022-03-21T15:28:09Z</time>
      </trkpt>
      <trkpt lat="46.55385" lon="5.49787">
        <ele>530</ele>
        <time>2022-03-21T15:28:10Z</time>
      </trkpt>
      <trkpt lat="46.55384" lon="5.49792">
        <ele>530</ele>
        <time>2022-03-21T15:28:11Z</time>
      </trkpt>
      <trkpt lat="46.55382" lon="5.49797">
        <ele>530</ele>
        <time>2022-03-21T15:28:12Z</time>
      </trkpt>
      <trkpt lat="46.55381" lon="5.49803">
        <ele>530</ele>
        <time>2022-03-21T15:28:13Z</time>
      </trkpt>
      <trkpt lat="46.5538" lon="5.49809">
        <ele>530</ele>
        <time>2022-03-21T15:28:14Z</time>
      </trkpt>
      <trkpt lat="46.55378" lon="5.49815">
        <ele>530</ele>
        <time>2022-03-21T15:28:15Z</time>
      </trkpt>
      <trkpt lat="46.55376" lon="5.49821">
        <ele>529.8</ele>
        <time>2022-03-21T15:28:16Z</time>
      </trkpt>
      <trkpt lat="46.55374" lon="5.49828">
        <ele>529.8</ele>
        <time>2022-03-21T15:28:17Z</time>
      </trkpt>
      <trkpt lat="46.55373" lon="5.49835">
        <ele>529.8</ele>
        <time>2022-03-21T15:28:18Z</time>
      </trkpt>
      <trkpt lat="46.55371" lon="5.49842">
        <ele>529.8</ele>
        <time>2022-03-21T15:28:19Z</time>
      </trkpt>
      <trkpt lat="46.5537" lon="5.49848">
        <ele>529.8</ele>
        <time>2022-03-21T15:28:20Z</time>
      </trkpt>
      <trkpt lat="46.55369" lon="5.49855">
        <ele>529.8</ele>
        <time>2022-03-21T15:28:21Z</time>
      </trkpt>
      <trkpt lat="46.55368" lon="5.49861">
        <ele>530</ele>
        <time>2022-03-21T15:28:22Z</time>
      </trkpt>
      <trkpt lat="46.55367" lon="5.49867">
        <ele>530</ele>
        <time>2022-03-21T15:28:23Z</time>
      </trkpt>
      <trkpt lat="46.55367" lon="5.49873">
        <ele>530</ele>
        <time>2022-03-21T15:28:24Z</time>
      </trkpt>
      <trkpt lat="46.55367" lon="5.49878">
        <ele>530.4</ele>
        <time>2022-03-21T15:28:25Z</time>
      </trkpt>
      <trkpt lat="46.55368" lon="5.49884">
        <ele>530.4</ele>
        <time>2022-03-21T15:28:26Z</time>
      </trkpt>
      <trkpt lat="46.55368" lon="5.49889">
        <ele>530.6</ele>
        <time>2022-03-21T15:28:27Z</time>
      </trkpt>
      <trkpt lat="46.5537" lon="5.49895">
        <ele>530.6</ele>
        <time>2022-03-21T15:28:28Z</time>
      </trkpt>
      <trkpt lat="46.55371" lon="5.49901">
        <ele>530.6</ele>
        <time>2022-03-21T15:28:29Z</time>
      </trkpt>
      <trkpt lat="46.55372" lon="5.49906">
        <ele>530.6</ele>
        <time>2022-03-21T15:28:30Z</time>
      </trkpt>
      <trkpt lat="46.55374" lon="5.49912">
        <ele>530.6</ele>
        <time>2022-03-21T15:28:31Z</time>
      </trkpt>
      <trkpt lat="46.55376" lon="5.49917">
        <ele>530.6</ele>
        <time>2022-03-21T15:28:32Z</time>
      </trkpt>
      <trkpt lat="46.55378" lon="5.49923">
        <ele>530.6</ele>
        <time>2022-03-21T15:28:33Z</time>
      </trkpt>
      <trkpt lat="46.5538" lon="5.49928">
        <ele>530.6</ele>
        <time>2022-03-21T15:28:34Z</time>
      </trkpt>
      <trkpt lat="46.55382" lon="5.49934">
        <ele>530.6</ele>
        <time>2022-03-21T15:28:35Z</time>
      </trkpt>
      <trkpt lat="46.55384" lon="5.4994">
        <ele>530.6</ele>
        <time>2022-03-21T15:28:36Z</time>
      </trkpt>
      <trkpt lat="46.55386" lon="5.49947">
        <ele>530.6</ele>
        <time>2022-03-21T15:28:37Z</time>
      </trkpt>
      <trkpt lat="46.55387" lon="5.49954">
        <ele>530.4</ele>
        <time>2022-03-21T15:28:38Z</time>
      </trkpt>
      <trkpt lat="46.55389" lon="5.49962">
        <ele>530</ele>
        <time>2022-03-21T15:28:39Z</time>
      </trkpt>
      <trkpt lat="46.55391" lon="5.4997">
        <ele>530</ele>
        <time>2022-03-21T15:28:40Z</time>
      </trkpt>
      <trkpt lat="46.55392" lon="5.4998">
        <ele>529.6</ele>
        <time>2022-03-21T15:28:41Z</time>
      </trkpt>
      <trkpt lat="46.55392" lon="5.4999">
        <ele>529.2</ele>
        <time>2022-03-21T15:28:42Z</time>
      </trkpt>
      <trkpt lat="46.55391" lon="5.5">
        <ele>528.8</ele>
        <time>2022-03-21T15:28:43Z</time>
      </trkpt>
      <trkpt lat="46.55388" lon="5.50011">
        <ele>528.4</ele>
        <time>2022-03-21T15:28:44Z</time>
      </trkpt>
      <trkpt lat="46.55385" lon="5.50022">
        <ele>528</ele>
        <time>2022-03-21T15:28:45Z</time>
      </trkpt>
      <trkpt lat="46.5538" lon="5.50032">
        <ele>527.6</ele>
        <time>2022-03-21T15:28:46Z</time>
      </trkpt>
      <trkpt lat="46.55375" lon="5.50042">
        <ele>527.2</ele>
        <time>2022-03-21T15:28:47Z</time>
      </trkpt>
      <trkpt lat="46.55369" lon="5.50051">
        <ele>526.8</ele>
        <time>2022-03-21T15:28:48Z</time>
      </trkpt>
      <trkpt lat="46.55362" lon="5.50059">
        <ele>526.2</ele>
        <time>2022-03-21T15:28:49Z</time>
      </trkpt>
      <trkpt lat="46.55355" lon="5.50067">
        <ele>525.6</ele>
        <time>2022-03-21T15:28:50Z</time>
      </trkpt>
      <trkpt lat="46.55348" lon="5.50075">
        <ele>525.2</ele>
        <time>2022-03-21T15:28:51Z</time>
      </trkpt>
      <trkpt lat="46.55341" lon="5.50082">
        <ele>524.6</ele>
        <time>2022-03-21T15:28:52Z</time>
      </trkpt>
      <trkpt lat="46.55333" lon="5.50091">
        <ele>524.2</ele>
        <time>2022-03-21T15:28:53Z</time>
      </trkpt>
      <trkpt lat="46.55326" lon="5.50098">
        <ele>523.8</ele>
        <time>2022-03-21T15:28:54Z</time>
      </trkpt>
      <trkpt lat="46.55317" lon="5.50106">
        <ele>523.4</ele>
        <time>2022-03-21T15:28:55Z</time>
      </trkpt>
      <trkpt lat="46.55308" lon="5.50113">
        <ele>523</ele>
        <time>2022-03-21T15:28:56Z</time>
      </trkpt>
      <trkpt lat="46.553" lon="5.5012">
        <ele>522.6</ele>
        <time>2022-03-21T15:28:57Z</time>
      </trkpt>
      <trkpt lat="46.55291" lon="5.50128">
        <ele>522.2</ele>
        <time>2022-03-21T15:28:58Z</time>
      </trkpt>
      <trkpt lat="46.55281" lon="5.50134">
        <ele>521.6</ele>
        <time>2022-03-21T15:28:59Z</time>
      </trkpt>
      <trkpt lat="46.55272" lon="5.5014">
        <ele>521</ele>
        <time>2022-03-21T15:29:00Z</time>
      </trkpt>
      <trkpt lat="46.55263" lon="5.50146">
        <ele>520.6</ele>
        <time>2022-03-21T15:29:01Z</time>
      </trkpt>
      <trkpt lat="46.55253" lon="5.50151">
        <ele>520</ele>
        <time>2022-03-21T15:29:02Z</time>
      </trkpt>
      <trkpt lat="46.55244" lon="5.50157">
        <ele>519.4</ele>
        <time>2022-03-21T15:29:03Z</time>
      </trkpt>
      <trkpt lat="46.55234" lon="5.50164">
        <ele>518.8</ele>
        <time>2022-03-21T15:29:04Z</time>
      </trkpt>
      <trkpt lat="46.55225" lon="5.5017">
        <ele>518.4</ele>
        <time>2022-03-21T15:29:05Z</time>
      </trkpt>
      <trkpt lat="46.55215" lon="5.50177">
        <ele>517.8</ele>
        <time>2022-03-21T15:29:06Z</time>
      </trkpt>
      <trkpt lat="46.55205" lon="5.50183">
        <ele>517.2</ele>
        <time>2022-03-21T15:29:07Z</time>
      </trkpt>
      <trkpt lat="46.55196" lon="5.50189">
        <ele>516.8</ele>
        <time>2022-03-21T15:29:08Z</time>
      </trkpt>
      <trkpt lat="46.55187" lon="5.50196">
        <ele>516.2</ele>
        <time>2022-03-21T15:29:09Z</time>
      </trkpt>
      <trkpt lat="46.55177" lon="5.50203">
        <ele>515.6</ele>
        <time>2022-03-21T15:29:10Z</time>
      </trkpt>
      <trkpt lat="46.55166" lon="5.50209">
        <ele>515</ele>
        <time>2022-03-21T15:29:11Z</time>
      </trkpt>
      <trkpt lat="46.55155" lon="5.50215">
        <ele>514.4</ele>
        <time>2022-03-21T15:29:12Z</time>
      </trkpt>
      <trkpt lat="46.55145" lon="5.50223">
        <ele>513.8</ele>
        <time>2022-03-21T15:29:13Z</time>
      </trkpt>
      <trkpt lat="46.55135" lon="5.50232">
        <ele>513.2</ele>
        <time>2022-03-21T15:29:14Z</time>
      </trkpt>
      <trkpt lat="46.55126" lon="5.5024">
        <ele>512.6</ele>
        <time>2022-03-21T15:29:15Z</time>
      </trkpt>
      <trkpt lat="46.55116" lon="5.50249">
        <ele>511.8</ele>
        <time>2022-03-21T15:29:16Z</time>
      </trkpt>
      <trkpt lat="46.55106" lon="5.50258">
        <ele>511.4</ele>
        <time>2022-03-21T15:29:17Z</time>
      </trkpt>
      <trkpt lat="46.55096" lon="5.50266">
        <ele>510.8</ele>
        <time>2022-03-21T15:29:18Z</time>
      </trkpt>
      <trkpt lat="46.55086" lon="5.50275">
        <ele>510.2</ele>
        <time>2022-03-21T15:29:19Z</time>
      </trkpt>
      <trkpt lat="46.55076" lon="5.50284">
        <ele>509.6</ele>
        <time>2022-03-21T15:29:20Z</time>
      </trkpt>
      <trkpt lat="46.55066" lon="5.50293">
        <ele>508.8</ele>
        <time>2022-03-21T15:29:21Z</time>
      </trkpt>
      <trkpt lat="46.55056" lon="5.50302">
        <ele>507.6</ele>
        <time>2022-03-21T15:29:23Z</time>
      </trkpt>
      <trkpt lat="46.55047" lon="5.5031">
        <ele>506.8</ele>
        <time>2022-03-21T15:29:24Z</time>
      </trkpt>
      <trkpt lat="46.55036" lon="5.50317">
        <ele>506.2</ele>
        <time>2022-03-21T15:29:25Z</time>
      </trkpt>
      <trkpt lat="46.55026" lon="5.50324">
        <ele>505.6</ele>
        <time>2022-03-21T15:29:26Z</time>
      </trkpt>
      <trkpt lat="46.55016" lon="5.5033">
        <ele>504.8</ele>
        <time>2022-03-21T15:29:27Z</time>
      </trkpt>
      <trkpt lat="46.55005" lon="5.50336">
        <ele>504</ele>
        <time>2022-03-21T15:29:28Z</time>
      </trkpt>
      <trkpt lat="46.54994" lon="5.50341">
        <ele>503.2</ele>
        <time>2022-03-21T15:29:29Z</time>
      </trkpt>
      <trkpt lat="46.54982" lon="5.50348">
        <ele>502.6</ele>
        <time>2022-03-21T15:29:30Z</time>
      </trkpt>
      <trkpt lat="46.54972" lon="5.50355">
        <ele>502</ele>
        <time>2022-03-21T15:29:31Z</time>
      </trkpt>
      <trkpt lat="46.54962" lon="5.50364">
        <ele>501.4</ele>
        <time>2022-03-21T15:29:32Z</time>
      </trkpt>
      <trkpt lat="46.54954" lon="5.50375">
        <ele>500.8</ele>
        <time>2022-03-21T15:29:33Z</time>
      </trkpt>
      <trkpt lat="46.54945" lon="5.50387">
        <ele>500.2</ele>
        <time>2022-03-21T15:29:34Z</time>
      </trkpt>
      <trkpt lat="46.54935" lon="5.50397">
        <ele>499.8</ele>
        <time>2022-03-21T15:29:35Z</time>
      </trkpt>
      <trkpt lat="46.54926" lon="5.50407">
        <ele>499.2</ele>
        <time>2022-03-21T15:29:36Z</time>
      </trkpt>
      <trkpt lat="46.54918" lon="5.50421">
        <ele>498.6</ele>
        <time>2022-03-21T15:29:37Z</time>
      </trkpt>
      <trkpt lat="46.54911" lon="5.50435">
        <ele>498.2</ele>
        <time>2022-03-21T15:29:38Z</time>
      </trkpt>
      <trkpt lat="46.54907" lon="5.50449">
        <ele>498</ele>
        <time>2022-03-21T15:29:39Z</time>
      </trkpt>
      <trkpt lat="46.54903" lon="5.50463">
        <ele>498</ele>
        <time>2022-03-21T15:29:40Z</time>
      </trkpt>
      <trkpt lat="46.549" lon="5.50478">
        <ele>497.6</ele>
        <time>2022-03-21T15:29:41Z</time>
      </trkpt>
      <trkpt lat="46.54895" lon="5.50491">
        <ele>497.6</ele>
        <time>2022-03-21T15:29:42Z</time>
      </trkpt>
      <trkpt lat="46.5489" lon="5.50502">
        <ele>497.6</ele>
        <time>2022-03-21T15:29:43Z</time>
      </trkpt>
      <trkpt lat="46.54883" lon="5.5051">
        <ele>498</ele>
        <time>2022-03-21T15:29:44Z</time>
      </trkpt>
      <trkpt lat="46.54875" lon="5.50515">
        <ele>498.2</ele>
        <time>2022-03-21T15:29:45Z</time>
      </trkpt>
      <trkpt lat="46.54868" lon="5.50518">
        <ele>498.6</ele>
        <time>2022-03-21T15:29:46Z</time>
      </trkpt>
      <trkpt lat="46.54862" lon="5.5052">
        <ele>499</ele>
        <time>2022-03-21T15:29:47Z</time>
      </trkpt>
      <trkpt lat="46.54855" lon="5.5052">
        <ele>499.6</ele>
        <time>2022-03-21T15:29:48Z</time>
      </trkpt>
      <trkpt lat="46.5485" lon="5.5052">
        <ele>500</ele>
        <time>2022-03-21T15:29:49Z</time>
      </trkpt>
      <trkpt lat="46.54846" lon="5.50519">
        <ele>500.2</ele>
        <time>2022-03-21T15:29:50Z</time>
      </trkpt>
      <trkpt lat="46.54842" lon="5.50519">
        <ele>500.6</ele>
        <time>2022-03-21T15:29:51Z</time>
      </trkpt>
      <trkpt lat="46.54838" lon="5.50519">
        <ele>501</ele>
        <time>2022-03-21T15:29:52Z</time>
      </trkpt>
      <trkpt lat="46.54835" lon="5.50518">
        <ele>501.4</ele>
        <time>2022-03-21T15:29:53Z</time>
      </trkpt>
      <trkpt lat="46.54832" lon="5.50518">
        <ele>501.8</ele>
        <time>2022-03-21T15:29:54Z</time>
      </trkpt>
      <trkpt lat="46.54829" lon="5.50518">
        <ele>502.2</ele>
        <time>2022-03-21T15:29:55Z</time>
      </trkpt>
      <trkpt lat="46.54826" lon="5.50518">
        <ele>502.4</ele>
        <time>2022-03-21T15:29:56Z</time>
      </trkpt>
      <trkpt lat="46.54824" lon="5.50518">
        <ele>502.8</ele>
        <time>2022-03-21T15:29:57Z</time>
      </trkpt>
      <trkpt lat="46.54822" lon="5.50518">
        <ele>503.2</ele>
        <time>2022-03-21T15:29:58Z</time>
      </trkpt>
      <trkpt lat="46.54819" lon="5.50518">
        <ele>503.4</ele>
        <time>2022-03-21T15:29:59Z</time>
      </trkpt>
      <trkpt lat="46.54817" lon="5.50517">
        <ele>503.6</ele>
        <time>2022-03-21T15:30:00Z</time>
      </trkpt>
      <trkpt lat="46.54814" lon="5.50517">
        <ele>504</ele>
        <time>2022-03-21T15:30:01Z</time>
      </trkpt>
      <trkpt lat="46.54811" lon="5.50517">
        <ele>504.2</ele>
        <time>2022-03-21T15:30:02Z</time>
      </trkpt>
      <trkpt lat="46.54808" lon="5.50517">
        <ele>504.4</ele>
        <time>2022-03-21T15:30:03Z</time>
      </trkpt>
      <trkpt lat="46.54806" lon="5.50517">
        <ele>504.6</ele>
        <time>2022-03-21T15:30:04Z</time>
      </trkpt>
      <trkpt lat="46.54803" lon="5.50517">
        <ele>505</ele>
        <time>2022-03-21T15:30:05Z</time>
      </trkpt>
      <trkpt lat="46.548" lon="5.50517">
        <ele>505.2</ele>
        <time>2022-03-21T15:30:06Z</time>
      </trkpt>
      <trkpt lat="46.54797" lon="5.50517">
        <ele>505.4</ele>
        <time>2022-03-21T15:30:07Z</time>
      </trkpt>
      <trkpt lat="46.54794" lon="5.50518">
        <ele>505.6</ele>
        <time>2022-03-21T15:30:08Z</time>
      </trkpt>
      <trkpt lat="46.54791" lon="5.50518">
        <ele>505.6</ele>
        <time>2022-03-21T15:30:09Z</time>
      </trkpt>
      <trkpt lat="46.54788" lon="5.50519">
        <ele>506</ele>
        <time>2022-03-21T15:30:10Z</time>
      </trkpt>
      <trkpt lat="46.54785" lon="5.50519">
        <ele>506</ele>
        <time>2022-03-21T15:30:11Z</time>
      </trkpt>
      <trkpt lat="46.54782" lon="5.5052">
        <ele>506.4</ele>
        <time>2022-03-21T15:30:12Z</time>
      </trkpt>
      <trkpt lat="46.54779" lon="5.5052">
        <ele>506.6</ele>
        <time>2022-03-21T15:30:13Z</time>
      </trkpt>
      <trkpt lat="46.54776" lon="5.5052">
        <ele>506.8</ele>
        <time>2022-03-21T15:30:14Z</time>
      </trkpt>
      <trkpt lat="46.54772" lon="5.50521">
        <ele>506.8</ele>
        <time>2022-03-21T15:30:15Z</time>
      </trkpt>
      <trkpt lat="46.54769" lon="5.50522">
        <ele>507.2</ele>
        <time>2022-03-21T15:30:16Z</time>
      </trkpt>
      <trkpt lat="46.54766" lon="5.50522">
        <ele>507.6</ele>
        <time>2022-03-21T15:30:17Z</time>
      </trkpt>
      <trkpt lat="46.54764" lon="5.50523">
        <ele>507.6</ele>
        <time>2022-03-21T15:30:18Z</time>
      </trkpt>
      <trkpt lat="46.54761" lon="5.50524">
        <ele>507.8</ele>
        <time>2022-03-21T15:30:19Z</time>
      </trkpt>
      <trkpt lat="46.54758" lon="5.50524">
        <ele>507.8</ele>
        <time>2022-03-21T15:30:20Z</time>
      </trkpt>
      <trkpt lat="46.54756" lon="5.50524">
        <ele>508.2</ele>
        <time>2022-03-21T15:30:21Z</time>
      </trkpt>
      <trkpt lat="46.54753" lon="5.50524">
        <ele>508.2</ele>
        <time>2022-03-21T15:30:22Z</time>
      </trkpt>
      <trkpt lat="46.5475" lon="5.50524">
        <ele>508.6</ele>
        <time>2022-03-21T15:30:23Z</time>
      </trkpt>
      <trkpt lat="46.54747" lon="5.50525">
        <ele>508.6</ele>
        <time>2022-03-21T15:30:24Z</time>
      </trkpt>
      <trkpt lat="46.54744" lon="5.50526">
        <ele>508.8</ele>
        <time>2022-03-21T15:30:25Z</time>
      </trkpt>
      <trkpt lat="46.54742" lon="5.50526">
        <ele>508.8</ele>
        <time>2022-03-21T15:30:26Z</time>
      </trkpt>
      <trkpt lat="46.54739" lon="5.50526">
        <ele>509</ele>
        <time>2022-03-21T15:30:27Z</time>
      </trkpt>
      <trkpt lat="46.54736" lon="5.50526">
        <ele>509</ele>
        <time>2022-03-21T15:30:28Z</time>
      </trkpt>
      <trkpt lat="46.54733" lon="5.50525">
        <ele>509.4</ele>
        <time>2022-03-21T15:30:29Z</time>
      </trkpt>
      <trkpt lat="46.5473" lon="5.50525">
        <ele>509.4</ele>
        <time>2022-03-21T15:30:30Z</time>
      </trkpt>
      <trkpt lat="46.54728" lon="5.50525">
        <ele>509.6</ele>
        <time>2022-03-21T15:30:31Z</time>
      </trkpt>
      <trkpt lat="46.54725" lon="5.50524">
        <ele>510</ele>
        <time>2022-03-21T15:30:32Z</time>
      </trkpt>
      <trkpt lat="46.54722" lon="5.50524">
        <ele>510.2</ele>
        <time>2022-03-21T15:30:33Z</time>
      </trkpt>
      <trkpt lat="46.54719" lon="5.50523">
        <ele>510.4</ele>
        <time>2022-03-21T15:30:34Z</time>
      </trkpt>
      <trkpt lat="46.54716" lon="5.50523">
        <ele>510.4</ele>
        <time>2022-03-21T15:30:35Z</time>
      </trkpt>
      <trkpt lat="46.54714" lon="5.50522">
        <ele>510.8</ele>
        <time>2022-03-21T15:30:36Z</time>
      </trkpt>
      <trkpt lat="46.54711" lon="5.50522">
        <ele>510.8</ele>
        <time>2022-03-21T15:30:37Z</time>
      </trkpt>
      <trkpt lat="46.54708" lon="5.50522">
        <ele>511.2</ele>
        <time>2022-03-21T15:30:38Z</time>
      </trkpt>
      <trkpt lat="46.54703" lon="5.50521">
        <ele>511.2</ele>
        <time>2022-03-21T15:30:39Z</time>
      </trkpt>
      <trkpt lat="46.547" lon="5.50521">
        <ele>511.6</ele>
        <time>2022-03-21T15:30:40Z</time>
      </trkpt>
      <trkpt lat="46.54697" lon="5.50521">
        <ele>511.8</ele>
        <time>2022-03-21T15:30:41Z</time>
      </trkpt>
      <trkpt lat="46.54694" lon="5.5052">
        <ele>512</ele>
        <time>2022-03-21T15:30:42Z</time>
      </trkpt>
      <trkpt lat="46.54692" lon="5.5052">
        <ele>512.2</ele>
        <time>2022-03-21T15:30:43Z</time>
      </trkpt>
      <trkpt lat="46.54689" lon="5.50519">
        <ele>512.4</ele>
        <time>2022-03-21T15:30:44Z</time>
      </trkpt>
      <trkpt lat="46.54686" lon="5.50518">
        <ele>512.4</ele>
        <time>2022-03-21T15:30:45Z</time>
      </trkpt>
      <trkpt lat="46.54683" lon="5.50518">
        <ele>512.8</ele>
        <time>2022-03-21T15:30:46Z</time>
      </trkpt>
      <trkpt lat="46.5468" lon="5.50517">
        <ele>513</ele>
        <time>2022-03-21T15:30:47Z</time>
      </trkpt>
      <trkpt lat="46.54677" lon="5.50516">
        <ele>513.2</ele>
        <time>2022-03-21T15:30:48Z</time>
      </trkpt>
      <trkpt lat="46.54675" lon="5.50515">
        <ele>513.2</ele>
        <time>2022-03-21T15:30:49Z</time>
      </trkpt>
      <trkpt lat="46.54672" lon="5.50515">
        <ele>513.6</ele>
        <time>2022-03-21T15:30:50Z</time>
      </trkpt>
      <trkpt lat="46.54669" lon="5.50514">
        <ele>513.6</ele>
        <time>2022-03-21T15:30:51Z</time>
      </trkpt>
      <trkpt lat="46.54667" lon="5.50513">
        <ele>514</ele>
        <time>2022-03-21T15:30:52Z</time>
      </trkpt>
      <trkpt lat="46.54664" lon="5.50512">
        <ele>514</ele>
        <time>2022-03-21T15:30:53Z</time>
      </trkpt>
      <trkpt lat="46.54661" lon="5.50512">
        <ele>514.2</ele>
        <time>2022-03-21T15:30:54Z</time>
      </trkpt>
      <trkpt lat="46.54658" lon="5.50511">
        <ele>514.2</ele>
        <time>2022-03-21T15:30:55Z</time>
      </trkpt>
      <trkpt lat="46.54655" lon="5.50511">
        <ele>514.4</ele>
        <time>2022-03-21T15:30:56Z</time>
      </trkpt>
      <trkpt lat="46.54653" lon="5.5051">
        <ele>514.4</ele>
        <time>2022-03-21T15:30:57Z</time>
      </trkpt>
      <trkpt lat="46.5465" lon="5.5051">
        <ele>514.6</ele>
        <time>2022-03-21T15:30:58Z</time>
      </trkpt>
      <trkpt lat="46.54647" lon="5.5051">
        <ele>514.6</ele>
        <time>2022-03-21T15:30:59Z</time>
      </trkpt>
      <trkpt lat="46.54644" lon="5.5051">
        <ele>515</ele>
        <time>2022-03-21T15:31:00Z</time>
      </trkpt>
      <trkpt lat="46.54641" lon="5.50511">
        <ele>515</ele>
        <time>2022-03-21T15:31:01Z</time>
      </trkpt>
      <trkpt lat="46.54639" lon="5.50513">
        <ele>515.4</ele>
        <time>2022-03-21T15:31:02Z</time>
      </trkpt>
      <trkpt lat="46.54637" lon="5.50515">
        <ele>515.4</ele>
        <time>2022-03-21T15:31:03Z</time>
      </trkpt>
      <trkpt lat="46.54635" lon="5.50518">
        <ele>515.6</ele>
        <time>2022-03-21T15:31:04Z</time>
      </trkpt>
      <trkpt lat="46.54634" lon="5.50521">
        <ele>515.6</ele>
        <time>2022-03-21T15:31:05Z</time>
      </trkpt>
      <trkpt lat="46.54633" lon="5.50525">
        <ele>515.8</ele>
        <time>2022-03-21T15:31:06Z</time>
      </trkpt>
      <trkpt lat="46.54633" lon="5.50528">
        <ele>516</ele>
        <time>2022-03-21T15:31:07Z</time>
      </trkpt>
      <trkpt lat="46.54634" lon="5.50532">
        <ele>516</ele>
        <time>2022-03-21T15:31:08Z</time>
      </trkpt>
      <trkpt lat="46.54636" lon="5.50534">
        <ele>516.4</ele>
        <time>2022-03-21T15:31:09Z</time>
      </trkpt>
      <trkpt lat="46.54639" lon="5.50537">
        <ele>516.6</ele>
        <time>2022-03-21T15:31:10Z</time>
      </trkpt>
      <trkpt lat="46.54641" lon="5.50539">
        <ele>516.8</ele>
        <time>2022-03-21T15:31:11Z</time>
      </trkpt>
      <trkpt lat="46.54643" lon="5.50541">
        <ele>516.8</ele>
        <time>2022-03-21T15:31:12Z</time>
      </trkpt>
      <trkpt lat="46.54646" lon="5.50542">
        <ele>517.2</ele>
        <time>2022-03-21T15:31:13Z</time>
      </trkpt>
      <trkpt lat="46.54648" lon="5.50544">
        <ele>517.2</ele>
        <time>2022-03-21T15:31:14Z</time>
      </trkpt>
      <trkpt lat="46.5465" lon="5.50546">
        <ele>517.6</ele>
        <time>2022-03-21T15:31:15Z</time>
      </trkpt>
      <trkpt lat="46.54653" lon="5.50547">
        <ele>517.6</ele>
        <time>2022-03-21T15:31:16Z</time>
      </trkpt>
      <trkpt lat="46.54655" lon="5.50549">
        <ele>517.8</ele>
        <time>2022-03-21T15:31:17Z</time>
      </trkpt>
      <trkpt lat="46.54658" lon="5.5055">
        <ele>517.8</ele>
        <time>2022-03-21T15:31:18Z</time>
      </trkpt>
      <trkpt lat="46.54661" lon="5.50552">
        <ele>518</ele>
        <time>2022-03-21T15:31:19Z</time>
      </trkpt>
      <trkpt lat="46.54663" lon="5.50554">
        <ele>518</ele>
        <time>2022-03-21T15:31:20Z</time>
      </trkpt>
      <trkpt lat="46.54665" lon="5.50556">
        <ele>518.4</ele>
        <time>2022-03-21T15:31:21Z</time>
      </trkpt>
      <trkpt lat="46.54668" lon="5.50558">
        <ele>518.4</ele>
        <time>2022-03-21T15:31:22Z</time>
      </trkpt>
      <trkpt lat="46.5467" lon="5.5056">
        <ele>518.8</ele>
        <time>2022-03-21T15:31:23Z</time>
      </trkpt>
      <trkpt lat="46.54673" lon="5.50561">
        <ele>519</ele>
        <time>2022-03-21T15:31:24Z</time>
      </trkpt>
      <trkpt lat="46.54675" lon="5.50563">
        <ele>519</ele>
        <time>2022-03-21T15:31:25Z</time>
      </trkpt>
      <trkpt lat="46.54678" lon="5.50564">
        <ele>519.4</ele>
        <time>2022-03-21T15:31:26Z</time>
      </trkpt>
      <trkpt lat="46.54681" lon="5.50566">
        <ele>519.4</ele>
        <time>2022-03-21T15:31:27Z</time>
      </trkpt>
      <trkpt lat="46.54683" lon="5.50568">
        <ele>519.8</ele>
        <time>2022-03-21T15:31:28Z</time>
      </trkpt>
      <trkpt lat="46.54686" lon="5.5057">
        <ele>519.8</ele>
        <time>2022-03-21T15:31:29Z</time>
      </trkpt>
      <trkpt lat="46.54688" lon="5.50572">
        <ele>520</ele>
        <time>2022-03-21T15:31:30Z</time>
      </trkpt>
      <trkpt lat="46.54691" lon="5.50574">
        <ele>520</ele>
        <time>2022-03-21T15:31:31Z</time>
      </trkpt>
      <trkpt lat="46.54693" lon="5.50575">
        <ele>520.4</ele>
        <time>2022-03-21T15:31:32Z</time>
      </trkpt>
      <trkpt lat="46.54696" lon="5.50578">
        <ele>520.4</ele>
        <time>2022-03-21T15:31:33Z</time>
      </trkpt>
      <trkpt lat="46.54698" lon="5.5058">
        <ele>520.6</ele>
        <time>2022-03-21T15:31:34Z</time>
      </trkpt>
      <trkpt lat="46.54701" lon="5.50581">
        <ele>520.6</ele>
        <time>2022-03-21T15:31:35Z</time>
      </trkpt>
      <trkpt lat="46.54703" lon="5.50583">
        <ele>521</ele>
        <time>2022-03-21T15:31:36Z</time>
      </trkpt>
      <trkpt lat="46.54706" lon="5.50585">
        <ele>521.2</ele>
        <time>2022-03-21T15:31:37Z</time>
      </trkpt>
      <trkpt lat="46.54708" lon="5.50587">
        <ele>521.2</ele>
        <time>2022-03-21T15:31:38Z</time>
      </trkpt>
      <trkpt lat="46.54711" lon="5.5059">
        <ele>521.6</ele>
        <time>2022-03-21T15:31:39Z</time>
      </trkpt>
      <trkpt lat="46.54713" lon="5.50592">
        <ele>521.8</ele>
        <time>2022-03-21T15:31:40Z</time>
      </trkpt>
      <trkpt lat="46.54715" lon="5.50594">
        <ele>521.8</ele>
        <time>2022-03-21T15:31:41Z</time>
      </trkpt>
      <trkpt lat="46.54718" lon="5.50596">
        <ele>522</ele>
        <time>2022-03-21T15:31:42Z</time>
      </trkpt>
      <trkpt lat="46.5472" lon="5.50599">
        <ele>522.2</ele>
        <time>2022-03-21T15:31:43Z</time>
      </trkpt>
      <trkpt lat="46.54723" lon="5.50601">
        <ele>522.2</ele>
        <time>2022-03-21T15:31:44Z</time>
      </trkpt>
      <trkpt lat="46.54725" lon="5.50603">
        <ele>522.6</ele>
        <time>2022-03-21T15:31:45Z</time>
      </trkpt>
      <trkpt lat="46.54728" lon="5.50605">
        <ele>522.6</ele>
        <time>2022-03-21T15:31:46Z</time>
      </trkpt>
      <trkpt lat="46.5473" lon="5.50607">
        <ele>523</ele>
        <time>2022-03-21T15:31:47Z</time>
      </trkpt>
      <trkpt lat="46.54733" lon="5.5061">
        <ele>523</ele>
        <time>2022-03-21T15:31:48Z</time>
      </trkpt>
      <trkpt lat="46.54735" lon="5.50612">
        <ele>523.2</ele>
        <time>2022-03-21T15:31:49Z</time>
      </trkpt>
      <trkpt lat="46.54737" lon="5.50614">
        <ele>523.2</ele>
        <time>2022-03-21T15:31:50Z</time>
      </trkpt>
      <trkpt lat="46.5474" lon="5.50616">
        <ele>523.6</ele>
        <time>2022-03-21T15:31:51Z</time>
      </trkpt>
      <trkpt lat="46.54743" lon="5.50619">
        <ele>523.6</ele>
        <time>2022-03-21T15:31:52Z</time>
      </trkpt>
      <trkpt lat="46.54745" lon="5.50621">
        <ele>524</ele>
        <time>2022-03-21T15:31:53Z</time>
      </trkpt>
      <trkpt lat="46.54747" lon="5.50623">
        <ele>524</ele>
        <time>2022-03-21T15:31:54Z</time>
      </trkpt>
      <trkpt lat="46.5475" lon="5.50625">
        <ele>524.2</ele>
        <time>2022-03-21T15:31:55Z</time>
      </trkpt>
      <trkpt lat="46.54752" lon="5.50628">
        <ele>524.4</ele>
        <time>2022-03-21T15:31:56Z</time>
      </trkpt>
      <trkpt lat="46.54754" lon="5.5063">
        <ele>524.4</ele>
        <time>2022-03-21T15:31:57Z</time>
      </trkpt>
      <trkpt lat="46.54757" lon="5.50633">
        <ele>524.8</ele>
        <time>2022-03-21T15:31:58Z</time>
      </trkpt>
      <trkpt lat="46.54759" lon="5.50635">
        <ele>525</ele>
        <time>2022-03-21T15:31:59Z</time>
      </trkpt>
      <trkpt lat="46.54761" lon="5.50637">
        <ele>525</ele>
        <time>2022-03-21T15:32:00Z</time>
      </trkpt>
      <trkpt lat="46.54763" lon="5.5064">
        <ele>525.4</ele>
        <time>2022-03-21T15:32:01Z</time>
      </trkpt>
      <trkpt lat="46.54765" lon="5.50642">
        <ele>525.4</ele>
        <time>2022-03-21T15:32:02Z</time>
      </trkpt>
      <trkpt lat="46.54767" lon="5.50645">
        <ele>525.8</ele>
        <time>2022-03-21T15:32:03Z</time>
      </trkpt>
      <trkpt lat="46.54769" lon="5.50648">
        <ele>525.8</ele>
        <time>2022-03-21T15:32:04Z</time>
      </trkpt>
      <trkpt lat="46.5477" lon="5.50651">
        <ele>526</ele>
        <time>2022-03-21T15:32:05Z</time>
      </trkpt>
      <trkpt lat="46.54772" lon="5.50653">
        <ele>526</ele>
        <time>2022-03-21T15:32:06Z</time>
      </trkpt>
      <trkpt lat="46.54774" lon="5.50656">
        <ele>526.4</ele>
        <time>2022-03-21T15:32:07Z</time>
      </trkpt>
      <trkpt lat="46.54776" lon="5.5066">
        <ele>526.6</ele>
        <time>2022-03-21T15:32:08Z</time>
      </trkpt>
      <trkpt lat="46.54778" lon="5.50663">
        <ele>526.6</ele>
        <time>2022-03-21T15:32:09Z</time>
      </trkpt>
      <trkpt lat="46.5478" lon="5.50666">
        <ele>527</ele>
        <time>2022-03-21T15:32:10Z</time>
      </trkpt>
      <trkpt lat="46.54781" lon="5.50669">
        <ele>527</ele>
        <time>2022-03-21T15:32:11Z</time>
      </trkpt>
      <trkpt lat="46.54783" lon="5.50673">
        <ele>527.2</ele>
        <time>2022-03-21T15:32:12Z</time>
      </trkpt>
      <trkpt lat="46.54784" lon="5.50677">
        <ele>527.2</ele>
        <time>2022-03-21T15:32:13Z</time>
      </trkpt>
      <trkpt lat="46.54786" lon="5.50681">
        <ele>527.6</ele>
        <time>2022-03-21T15:32:14Z</time>
      </trkpt>
      <trkpt lat="46.54787" lon="5.50684">
        <ele>527.6</ele>
        <time>2022-03-21T15:32:15Z</time>
      </trkpt>
      <trkpt lat="46.54788" lon="5.50688">
        <ele>527.6</ele>
        <time>2022-03-21T15:32:16Z</time>
      </trkpt>
      <trkpt lat="46.54789" lon="5.50692">
        <ele>527.8</ele>
        <time>2022-03-21T15:32:17Z</time>
      </trkpt>
      <trkpt lat="46.5479" lon="5.50696">
        <ele>527.8</ele>
        <time>2022-03-21T15:32:18Z</time>
      </trkpt>
      <trkpt lat="46.5479" lon="5.507">
        <ele>528.2</ele>
        <time>2022-03-21T15:32:19Z</time>
      </trkpt>
      <trkpt lat="46.5479" lon="5.50704">
        <ele>528.4</ele>
        <time>2022-03-21T15:32:20Z</time>
      </trkpt>
      <trkpt lat="46.5479" lon="5.50708">
        <ele>528.4</ele>
        <time>2022-03-21T15:32:21Z</time>
      </trkpt>
      <trkpt lat="46.5479" lon="5.50712">
        <ele>528.8</ele>
        <time>2022-03-21T15:32:22Z</time>
      </trkpt>
      <trkpt lat="46.54789" lon="5.50716">
        <ele>528.8</ele>
        <time>2022-03-21T15:32:23Z</time>
      </trkpt>
      <trkpt lat="46.54788" lon="5.50719">
        <ele>529.2</ele>
        <time>2022-03-21T15:32:24Z</time>
      </trkpt>
      <trkpt lat="46.54787" lon="5.50723">
        <ele>529.2</ele>
        <time>2022-03-21T15:32:25Z</time>
      </trkpt>
      <trkpt lat="46.54787" lon="5.50726">
        <ele>529.6</ele>
        <time>2022-03-21T15:32:26Z</time>
      </trkpt>
      <trkpt lat="46.54785" lon="5.50729">
        <ele>529.8</ele>
        <time>2022-03-21T15:32:27Z</time>
      </trkpt>
      <trkpt lat="46.54784" lon="5.50733">
        <ele>530</ele>
        <time>2022-03-21T15:32:28Z</time>
      </trkpt>
      <trkpt lat="46.54782" lon="5.50736">
        <ele>530.2</ele>
        <time>2022-03-21T15:32:29Z</time>
      </trkpt>
      <trkpt lat="46.54779" lon="5.5074">
        <ele>530.4</ele>
        <time>2022-03-21T15:32:30Z</time>
      </trkpt>
      <trkpt lat="46.54777" lon="5.50743">
        <ele>530.8</ele>
        <time>2022-03-21T15:32:31Z</time>
      </trkpt>
      <trkpt lat="46.54774" lon="5.50746">
        <ele>531</ele>
        <time>2022-03-21T15:32:32Z</time>
      </trkpt>
      <trkpt lat="46.54772" lon="5.50748">
        <ele>531.2</ele>
        <time>2022-03-21T15:32:33Z</time>
      </trkpt>
      <trkpt lat="46.5477" lon="5.50751">
        <ele>531.2</ele>
        <time>2022-03-21T15:32:34Z</time>
      </trkpt>
      <trkpt lat="46.54768" lon="5.50753">
        <ele>531.6</ele>
        <time>2022-03-21T15:32:35Z</time>
      </trkpt>
      <trkpt lat="46.54765" lon="5.50755">
        <ele>531.8</ele>
        <time>2022-03-21T15:32:36Z</time>
      </trkpt>
      <trkpt lat="46.54763" lon="5.50757">
        <ele>532.2</ele>
        <time>2022-03-21T15:32:37Z</time>
      </trkpt>
      <trkpt lat="46.54761" lon="5.50759">
        <ele>532.4</ele>
        <time>2022-03-21T15:32:38Z</time>
      </trkpt>
      <trkpt lat="46.54758" lon="5.5076">
        <ele>532.6</ele>
        <time>2022-03-21T15:32:39Z</time>
      </trkpt>
      <trkpt lat="46.54756" lon="5.50762">
        <ele>532.8</ele>
        <time>2022-03-21T15:32:40Z</time>
      </trkpt>
      <trkpt lat="46.54754" lon="5.50763">
        <ele>533</ele>
        <time>2022-03-21T15:32:41Z</time>
      </trkpt>
      <trkpt lat="46.54752" lon="5.50764">
        <ele>533</ele>
        <time>2022-03-21T15:32:42Z</time>
      </trkpt>
      <trkpt lat="46.5475" lon="5.50765">
        <ele>533.4</ele>
        <time>2022-03-21T15:32:43Z</time>
      </trkpt>
      <trkpt lat="46.54748" lon="5.50766">
        <ele>533.4</ele>
        <time>2022-03-21T15:32:44Z</time>
      </trkpt>
      <trkpt lat="46.54745" lon="5.50767">
        <ele>533.6</ele>
        <time>2022-03-21T15:32:45Z</time>
      </trkpt>
      <trkpt lat="46.54743" lon="5.50768">
        <ele>533.8</ele>
        <time>2022-03-21T15:32:46Z</time>
      </trkpt>
      <trkpt lat="46.54741" lon="5.50769">
        <ele>533.8</ele>
        <time>2022-03-21T15:32:47Z</time>
      </trkpt>
      <trkpt lat="46.54739" lon="5.5077">
        <ele>534.2</ele>
        <time>2022-03-21T15:32:48Z</time>
      </trkpt>
      <trkpt lat="46.54737" lon="5.50771">
        <ele>534.2</ele>
        <time>2022-03-21T15:32:49Z</time>
      </trkpt>
      <trkpt lat="46.54735" lon="5.50771">
        <ele>534.6</ele>
        <time>2022-03-21T15:32:50Z</time>
      </trkpt>
      <trkpt lat="46.54733" lon="5.50772">
        <ele>534.6</ele>
        <time>2022-03-21T15:32:51Z</time>
      </trkpt>
      <trkpt lat="46.54731" lon="5.50772">
        <ele>534.8</ele>
        <time>2022-03-21T15:32:52Z</time>
      </trkpt>
      <trkpt lat="46.54729" lon="5.50772">
        <ele>534.8</ele>
        <time>2022-03-21T15:32:53Z</time>
      </trkpt>
      <trkpt lat="46.54727" lon="5.50772">
        <ele>535.2</ele>
        <time>2022-03-21T15:32:54Z</time>
      </trkpt>
      <trkpt lat="46.54725" lon="5.50773">
        <ele>535.2</ele>
        <time>2022-03-21T15:32:55Z</time>
      </trkpt>
      <trkpt lat="46.54722" lon="5.50773">
        <ele>535.2</ele>
        <time>2022-03-21T15:32:56Z</time>
      </trkpt>
      <trkpt lat="46.5472" lon="5.50774">
        <ele>535.4</ele>
        <time>2022-03-21T15:32:57Z</time>
      </trkpt>
      <trkpt lat="46.54718" lon="5.50774">
        <ele>535.4</ele>
        <time>2022-03-21T15:32:58Z</time>
      </trkpt>
      <trkpt lat="46.54715" lon="5.50775">
        <ele>535.8</ele>
        <time>2022-03-21T15:32:59Z</time>
      </trkpt>
      <trkpt lat="46.54713" lon="5.50776">
        <ele>535.8</ele>
        <time>2022-03-21T15:33:01Z</time>
      </trkpt>
      <trkpt lat="46.54711" lon="5.50777">
        <ele>535.8</ele>
        <time>2022-03-21T15:33:02Z</time>
      </trkpt>
      <trkpt lat="46.54708" lon="5.50779">
        <ele>536</ele>
        <time>2022-03-21T15:33:03Z</time>
      </trkpt>
      <trkpt lat="46.54705" lon="5.5078">
        <ele>536</ele>
        <time>2022-03-21T15:33:04Z</time>
      </trkpt>
      <trkpt lat="46.54702" lon="5.50783">
        <ele>536</ele>
        <time>2022-03-21T15:33:05Z</time>
      </trkpt>
      <trkpt lat="46.54699" lon="5.50785">
        <ele>536.2</ele>
        <time>2022-03-21T15:33:06Z</time>
      </trkpt>
      <trkpt lat="46.54696" lon="5.50787">
        <ele>536.2</ele>
        <time>2022-03-21T15:33:07Z</time>
      </trkpt>
      <trkpt lat="46.54692" lon="5.50788">
        <ele>536.4</ele>
        <time>2022-03-21T15:33:08Z</time>
      </trkpt>
      <trkpt lat="46.54689" lon="5.50789">
        <ele>536.4</ele>
        <time>2022-03-21T15:33:09Z</time>
      </trkpt>
      <trkpt lat="46.54686" lon="5.50791">
        <ele>536.8</ele>
        <time>2022-03-21T15:33:10Z</time>
      </trkpt>
      <trkpt lat="46.54682" lon="5.50792">
        <ele>536.8</ele>
        <time>2022-03-21T15:33:11Z</time>
      </trkpt>
      <trkpt lat="46.54679" lon="5.50793">
        <ele>537</ele>
        <time>2022-03-21T15:33:12Z</time>
      </trkpt>
      <trkpt lat="46.54675" lon="5.50795">
        <ele>537</ele>
        <time>2022-03-21T15:33:13Z</time>
      </trkpt>
      <trkpt lat="46.54672" lon="5.50796">
        <ele>537.2</ele>
        <time>2022-03-21T15:33:14Z</time>
      </trkpt>
      <trkpt lat="46.54668" lon="5.50798">
        <ele>537.2</ele>
        <time>2022-03-21T15:33:15Z</time>
      </trkpt>
      <trkpt lat="46.54665" lon="5.508">
        <ele>537.4</ele>
        <time>2022-03-21T15:33:16Z</time>
      </trkpt>
      <trkpt lat="46.54662" lon="5.50802">
        <ele>537.4</ele>
        <time>2022-03-21T15:33:17Z</time>
      </trkpt>
      <trkpt lat="46.54658" lon="5.50804">
        <ele>537.6</ele>
        <time>2022-03-21T15:33:18Z</time>
      </trkpt>
      <trkpt lat="46.54655" lon="5.50806">
        <ele>537.6</ele>
        <time>2022-03-21T15:33:19Z</time>
      </trkpt>
      <trkpt lat="46.54652" lon="5.50809">
        <ele>537.6</ele>
        <time>2022-03-21T15:33:20Z</time>
      </trkpt>
      <trkpt lat="46.54648" lon="5.50812">
        <ele>537.8</ele>
        <time>2022-03-21T15:33:21Z</time>
      </trkpt>
      <trkpt lat="46.54645" lon="5.50814">
        <ele>537.8</ele>
        <time>2022-03-21T15:33:22Z</time>
      </trkpt>
      <trkpt lat="46.54642" lon="5.50817">
        <ele>538.2</ele>
        <time>2022-03-21T15:33:23Z</time>
      </trkpt>
      <trkpt lat="46.54638" lon="5.5082">
        <ele>538.2</ele>
        <time>2022-03-21T15:33:24Z</time>
      </trkpt>
      <trkpt lat="46.54635" lon="5.50823">
        <ele>538.2</ele>
        <time>2022-03-21T15:33:25Z</time>
      </trkpt>
      <trkpt lat="46.54631" lon="5.50827">
        <ele>538.4</ele>
        <time>2022-03-21T15:33:26Z</time>
      </trkpt>
      <trkpt lat="46.54628" lon="5.50831">
        <ele>538.4</ele>
        <time>2022-03-21T15:33:27Z</time>
      </trkpt>
      <trkpt lat="46.54624" lon="5.50834">
        <ele>538.4</ele>
        <time>2022-03-21T15:33:28Z</time>
      </trkpt>
      <trkpt lat="46.54621" lon="5.50838">
        <ele>538.8</ele>
        <time>2022-03-21T15:33:29Z</time>
      </trkpt>
      <trkpt lat="46.54617" lon="5.50841">
        <ele>538.8</ele>
        <time>2022-03-21T15:33:30Z</time>
      </trkpt>
      <trkpt lat="46.54613" lon="5.50845">
        <ele>539</ele>
        <time>2022-03-21T15:33:31Z</time>
      </trkpt>
      <trkpt lat="46.5461" lon="5.50849">
        <ele>539</ele>
        <time>2022-03-21T15:33:32Z</time>
      </trkpt>
      <trkpt lat="46.54607" lon="5.50852">
        <ele>539</ele>
        <time>2022-03-21T15:33:33Z</time>
      </trkpt>
      <trkpt lat="46.54604" lon="5.50856">
        <ele>539</ele>
        <time>2022-03-21T15:33:34Z</time>
      </trkpt>
      <trkpt lat="46.546" lon="5.50859">
        <ele>539.2</ele>
        <time>2022-03-21T15:33:35Z</time>
      </trkpt>
      <trkpt lat="46.54597" lon="5.50863">
        <ele>539.2</ele>
        <time>2022-03-21T15:33:36Z</time>
      </trkpt>
      <trkpt lat="46.54594" lon="5.50867">
        <ele>539.2</ele>
        <time>2022-03-21T15:33:37Z</time>
      </trkpt>
      <trkpt lat="46.5459" lon="5.5087">
        <ele>539.4</ele>
        <time>2022-03-21T15:33:38Z</time>
      </trkpt>
      <trkpt lat="46.54587" lon="5.50874">
        <ele>539.6</ele>
        <time>2022-03-21T15:33:39Z</time>
      </trkpt>
      <trkpt lat="46.54584" lon="5.50877">
        <ele>539.6</ele>
        <time>2022-03-21T15:33:40Z</time>
      </trkpt>
      <trkpt lat="46.54581" lon="5.50881">
        <ele>539.8</ele>
        <time>2022-03-21T15:33:41Z</time>
      </trkpt>
      <trkpt lat="46.54577" lon="5.50884">
        <ele>539.8</ele>
        <time>2022-03-21T15:33:42Z</time>
      </trkpt>
      <trkpt lat="46.54574" lon="5.50887">
        <ele>540.2</ele>
        <time>2022-03-21T15:33:43Z</time>
      </trkpt>
      <trkpt lat="46.54571" lon="5.5089">
        <ele>540.2</ele>
        <time>2022-03-21T15:33:44Z</time>
      </trkpt>
      <trkpt lat="46.54568" lon="5.50893">
        <ele>540.6</ele>
        <time>2022-03-21T15:33:45Z</time>
      </trkpt>
      <trkpt lat="46.54566" lon="5.50896">
        <ele>540.6</ele>
        <time>2022-03-21T15:33:46Z</time>
      </trkpt>
      <trkpt lat="46.54563" lon="5.50899">
        <ele>540.8</ele>
        <time>2022-03-21T15:33:47Z</time>
      </trkpt>
      <trkpt lat="46.5456" lon="5.50902">
        <ele>540.8</ele>
        <time>2022-03-21T15:33:48Z</time>
      </trkpt>
      <trkpt lat="46.54557" lon="5.50904">
        <ele>541.2</ele>
        <time>2022-03-21T15:33:49Z</time>
      </trkpt>
      <trkpt lat="46.54554" lon="5.50907">
        <ele>541.2</ele>
        <time>2022-03-21T15:33:50Z</time>
      </trkpt>
      <trkpt lat="46.54551" lon="5.5091">
        <ele>541.2</ele>
        <time>2022-03-21T15:33:51Z</time>
      </trkpt>
      <trkpt lat="46.54548" lon="5.50913">
        <ele>541.4</ele>
        <time>2022-03-21T15:33:52Z</time>
      </trkpt>
      <trkpt lat="46.54545" lon="5.50916">
        <ele>541.4</ele>
        <time>2022-03-21T15:33:53Z</time>
      </trkpt>
      <trkpt lat="46.54542" lon="5.50919">
        <ele>541.4</ele>
        <time>2022-03-21T15:33:54Z</time>
      </trkpt>
      <trkpt lat="46.54539" lon="5.50922">
        <ele>541.4</ele>
        <time>2022-03-21T15:33:55Z</time>
      </trkpt>
      <trkpt lat="46.54536" lon="5.50926">
        <ele>541.6</ele>
        <time>2022-03-21T15:33:56Z</time>
      </trkpt>
      <trkpt lat="46.54533" lon="5.50929">
        <ele>541.6</ele>
        <time>2022-03-21T15:33:57Z</time>
      </trkpt>
      <trkpt lat="46.5453" lon="5.50932">
        <ele>542</ele>
        <time>2022-03-21T15:33:58Z</time>
      </trkpt>
      <trkpt lat="46.54527" lon="5.50936">
        <ele>542</ele>
        <time>2022-03-21T15:33:59Z</time>
      </trkpt>
      <trkpt lat="46.54523" lon="5.50939">
        <ele>542.4</ele>
        <time>2022-03-21T15:34:00Z</time>
      </trkpt>
      <trkpt lat="46.5452" lon="5.50941">
        <ele>542.4</ele>
        <time>2022-03-21T15:34:01Z</time>
      </trkpt>
      <trkpt lat="46.54517" lon="5.50944">
        <ele>542.6</ele>
        <time>2022-03-21T15:34:02Z</time>
      </trkpt>
      <trkpt lat="46.54514" lon="5.50947">
        <ele>542.6</ele>
        <time>2022-03-21T15:34:03Z</time>
      </trkpt>
      <trkpt lat="46.54511" lon="5.50949">
        <ele>542.6</ele>
        <time>2022-03-21T15:34:04Z</time>
      </trkpt>
      <trkpt lat="46.54507" lon="5.50952">
        <ele>542.8</ele>
        <time>2022-03-21T15:34:05Z</time>
      </trkpt>
      <trkpt lat="46.54504" lon="5.50955">
        <ele>542.8</ele>
        <time>2022-03-21T15:34:06Z</time>
      </trkpt>
      <trkpt lat="46.54501" lon="5.50958">
        <ele>542.8</ele>
        <time>2022-03-21T15:34:07Z</time>
      </trkpt>
      <trkpt lat="46.54497" lon="5.50961">
        <ele>543.2</ele>
        <time>2022-03-21T15:34:08Z</time>
      </trkpt>
      <trkpt lat="46.54494" lon="5.50964">
        <ele>543.2</ele>
        <time>2022-03-21T15:34:09Z</time>
      </trkpt>
      <trkpt lat="46.5449" lon="5.50967">
        <ele>543.4</ele>
        <time>2022-03-21T15:34:10Z</time>
      </trkpt>
      <trkpt lat="46.54487" lon="5.50969">
        <ele>543.4</ele>
        <time>2022-03-21T15:34:11Z</time>
      </trkpt>
      <trkpt lat="46.54484" lon="5.50971">
        <ele>543.6</ele>
        <time>2022-03-21T15:34:12Z</time>
      </trkpt>
      <trkpt lat="46.5448" lon="5.50974">
        <ele>543.6</ele>
        <time>2022-03-21T15:34:13Z</time>
      </trkpt>
      <trkpt lat="46.54477" lon="5.50976">
        <ele>543.8</ele>
        <time>2022-03-21T15:34:14Z</time>
      </trkpt>
      <trkpt lat="46.54473" lon="5.50978">
        <ele>543.8</ele>
        <time>2022-03-21T15:34:15Z</time>
      </trkpt>
      <trkpt lat="46.5447" lon="5.5098">
        <ele>544.2</ele>
        <time>2022-03-21T15:34:16Z</time>
      </trkpt>
      <trkpt lat="46.54463" lon="5.50985">
        <ele>544.2</ele>
        <time>2022-03-21T15:34:17Z</time>
      </trkpt>
      <trkpt lat="46.5446" lon="5.50987">
        <ele>544.2</ele>
        <time>2022-03-21T15:34:18Z</time>
      </trkpt>
      <trkpt lat="46.54457" lon="5.5099">
        <ele>544.4</ele>
        <time>2022-03-21T15:34:19Z</time>
      </trkpt>
      <trkpt lat="46.54454" lon="5.50992">
        <ele>544.4</ele>
        <time>2022-03-21T15:34:20Z</time>
      </trkpt>
      <trkpt lat="46.54451" lon="5.50995">
        <ele>544.8</ele>
        <time>2022-03-21T15:34:21Z</time>
      </trkpt>
      <trkpt lat="46.54447" lon="5.50997">
        <ele>544.8</ele>
        <time>2022-03-21T15:34:22Z</time>
      </trkpt>
      <trkpt lat="46.54444" lon="5.50999">
        <ele>545</ele>
        <time>2022-03-21T15:34:23Z</time>
      </trkpt>
      <trkpt lat="46.54441" lon="5.51001">
        <ele>545</ele>
        <time>2022-03-21T15:34:24Z</time>
      </trkpt>
      <trkpt lat="46.54438" lon="5.51003">
        <ele>545.4</ele>
        <time>2022-03-21T15:34:25Z</time>
      </trkpt>
      <trkpt lat="46.54434" lon="5.51005">
        <ele>545.6</ele>
        <time>2022-03-21T15:34:26Z</time>
      </trkpt>
      <trkpt lat="46.54431" lon="5.51007">
        <ele>545.6</ele>
        <time>2022-03-21T15:34:27Z</time>
      </trkpt>
      <trkpt lat="46.54428" lon="5.5101">
        <ele>545.8</ele>
        <time>2022-03-21T15:34:28Z</time>
      </trkpt>
      <trkpt lat="46.54425" lon="5.51012">
        <ele>545.8</ele>
        <time>2022-03-21T15:34:29Z</time>
      </trkpt>
      <trkpt lat="46.54422" lon="5.51014">
        <ele>546.2</ele>
        <time>2022-03-21T15:34:30Z</time>
      </trkpt>
      <trkpt lat="46.54419" lon="5.51017">
        <ele>546.2</ele>
        <time>2022-03-21T15:34:31Z</time>
      </trkpt>
      <trkpt lat="46.54416" lon="5.51019">
        <ele>546.6</ele>
        <time>2022-03-21T15:34:32Z</time>
      </trkpt>
      <trkpt lat="46.54413" lon="5.51021">
        <ele>546.6</ele>
        <time>2022-03-21T15:34:33Z</time>
      </trkpt>
      <trkpt lat="46.54409" lon="5.51023">
        <ele>546.8</ele>
        <time>2022-03-21T15:34:34Z</time>
      </trkpt>
      <trkpt lat="46.54406" lon="5.51026">
        <ele>546.8</ele>
        <time>2022-03-21T15:34:35Z</time>
      </trkpt>
      <trkpt lat="46.54403" lon="5.51028">
        <ele>547.2</ele>
        <time>2022-03-21T15:34:36Z</time>
      </trkpt>
      <trkpt lat="46.544" lon="5.5103">
        <ele>547.2</ele>
        <time>2022-03-21T15:34:37Z</time>
      </trkpt>
      <trkpt lat="46.54396" lon="5.51033">
        <ele>547.4</ele>
        <time>2022-03-21T15:34:38Z</time>
      </trkpt>
      <trkpt lat="46.54393" lon="5.51035">
        <ele>547.4</ele>
        <time>2022-03-21T15:34:39Z</time>
      </trkpt>
      <trkpt lat="46.5439" lon="5.51038">
        <ele>547.8</ele>
        <time>2022-03-21T15:34:40Z</time>
      </trkpt>
      <trkpt lat="46.54387" lon="5.5104">
        <ele>547.8</ele>
        <time>2022-03-21T15:34:41Z</time>
      </trkpt>
      <trkpt lat="46.54384" lon="5.51042">
        <ele>548</ele>
        <time>2022-03-21T15:34:42Z</time>
      </trkpt>
      <trkpt lat="46.54381" lon="5.51045">
        <ele>548</ele>
        <time>2022-03-21T15:34:43Z</time>
      </trkpt>
      <trkpt lat="46.54378" lon="5.51048">
        <ele>548.2</ele>
        <time>2022-03-21T15:34:44Z</time>
      </trkpt>
      <trkpt lat="46.54375" lon="5.51051">
        <ele>548.2</ele>
        <time>2022-03-21T15:34:45Z</time>
      </trkpt>
      <trkpt lat="46.54372" lon="5.51054">
        <ele>548.6</ele>
        <time>2022-03-21T15:34:46Z</time>
      </trkpt>
      <trkpt lat="46.54369" lon="5.51057">
        <ele>548.6</ele>
        <time>2022-03-21T15:34:47Z</time>
      </trkpt>
      <trkpt lat="46.54367" lon="5.5106">
        <ele>548.8</ele>
        <time>2022-03-21T15:34:48Z</time>
      </trkpt>
      <trkpt lat="46.54364" lon="5.51063">
        <ele>548.8</ele>
        <time>2022-03-21T15:34:49Z</time>
      </trkpt>
      <trkpt lat="46.54361" lon="5.51067">
        <ele>548.8</ele>
        <time>2022-03-21T15:34:50Z</time>
      </trkpt>
      <trkpt lat="46.54359" lon="5.5107">
        <ele>548.8</ele>
        <time>2022-03-21T15:34:51Z</time>
      </trkpt>
      <trkpt lat="46.54356" lon="5.51074">
        <ele>549.2</ele>
        <time>2022-03-21T15:34:52Z</time>
      </trkpt>
      <trkpt lat="46.54353" lon="5.51078">
        <ele>549.2</ele>
        <time>2022-03-21T15:34:53Z</time>
      </trkpt>
      <trkpt lat="46.5435" lon="5.51082">
        <ele>549.2</ele>
        <time>2022-03-21T15:34:54Z</time>
      </trkpt>
      <trkpt lat="46.54347" lon="5.51086">
        <ele>549.4</ele>
        <time>2022-03-21T15:34:55Z</time>
      </trkpt>
      <trkpt lat="46.54345" lon="5.51091">
        <ele>549.4</ele>
        <time>2022-03-21T15:34:56Z</time>
      </trkpt>
      <trkpt lat="46.54342" lon="5.51096">
        <ele>549.4</ele>
        <time>2022-03-21T15:34:57Z</time>
      </trkpt>
      <trkpt lat="46.54339" lon="5.511">
        <ele>549.6</ele>
        <time>2022-03-21T15:34:58Z</time>
      </trkpt>
      <trkpt lat="46.54337" lon="5.51105">
        <ele>549.6</ele>
        <time>2022-03-21T15:34:59Z</time>
      </trkpt>
      <trkpt lat="46.54335" lon="5.5111">
        <ele>549.6</ele>
        <time>2022-03-21T15:35:00Z</time>
      </trkpt>
      <trkpt lat="46.54332" lon="5.51115">
        <ele>549.8</ele>
        <time>2022-03-21T15:35:01Z</time>
      </trkpt>
      <trkpt lat="46.5433" lon="5.51121">
        <ele>549.8</ele>
        <time>2022-03-21T15:35:02Z</time>
      </trkpt>
      <trkpt lat="46.54328" lon="5.51126">
        <ele>550</ele>
        <time>2022-03-21T15:35:03Z</time>
      </trkpt>
      <trkpt lat="46.54327" lon="5.51132">
        <ele>550</ele>
        <time>2022-03-21T15:35:04Z</time>
      </trkpt>
      <trkpt lat="46.54325" lon="5.51138">
        <ele>550</ele>
        <time>2022-03-21T15:35:05Z</time>
      </trkpt>
      <trkpt lat="46.54324" lon="5.51144">
        <ele>550.4</ele>
        <time>2022-03-21T15:35:06Z</time>
      </trkpt>
      <trkpt lat="46.54323" lon="5.5115">
        <ele>550.4</ele>
        <time>2022-03-21T15:35:07Z</time>
      </trkpt>
      <trkpt lat="46.54322" lon="5.51156">
        <ele>550.4</ele>
        <time>2022-03-21T15:35:08Z</time>
      </trkpt>
      <trkpt lat="46.54321" lon="5.51163">
        <ele>550.6</ele>
        <time>2022-03-21T15:35:09Z</time>
      </trkpt>
      <trkpt lat="46.54321" lon="5.51169">
        <ele>550.6</ele>
        <time>2022-03-21T15:35:10Z</time>
      </trkpt>
      <trkpt lat="46.54321" lon="5.51175">
        <ele>550.8</ele>
        <time>2022-03-21T15:35:11Z</time>
      </trkpt>
      <trkpt lat="46.54321" lon="5.51181">
        <ele>550.8</ele>
        <time>2022-03-21T15:35:12Z</time>
      </trkpt>
      <trkpt lat="46.5432" lon="5.51187">
        <ele>550.8</ele>
        <time>2022-03-21T15:35:13Z</time>
      </trkpt>
      <trkpt lat="46.54319" lon="5.51193">
        <ele>550.8</ele>
        <time>2022-03-21T15:35:14Z</time>
      </trkpt>
      <trkpt lat="46.54318" lon="5.51199">
        <ele>551</ele>
        <time>2022-03-21T15:35:15Z</time>
      </trkpt>
      <trkpt lat="46.54315" lon="5.51205">
        <ele>551</ele>
        <time>2022-03-21T15:35:16Z</time>
      </trkpt>
      <trkpt lat="46.54312" lon="5.51211">
        <ele>551</ele>
        <time>2022-03-21T15:35:17Z</time>
      </trkpt>
      <trkpt lat="46.54309" lon="5.51217">
        <ele>551</ele>
        <time>2022-03-21T15:35:18Z</time>
      </trkpt>
      <trkpt lat="46.54305" lon="5.51222">
        <ele>551.2</ele>
        <time>2022-03-21T15:35:19Z</time>
      </trkpt>
      <trkpt lat="46.543" lon="5.51227">
        <ele>551.2</ele>
        <time>2022-03-21T15:35:20Z</time>
      </trkpt>
      <trkpt lat="46.54296" lon="5.51231">
        <ele>551.6</ele>
        <time>2022-03-21T15:35:21Z</time>
      </trkpt>
      <trkpt lat="46.54291" lon="5.51235">
        <ele>551.6</ele>
        <time>2022-03-21T15:35:22Z</time>
      </trkpt>
      <trkpt lat="46.54287" lon="5.51239">
        <ele>551.8</ele>
        <time>2022-03-21T15:35:23Z</time>
      </trkpt>
      <trkpt lat="46.54282" lon="5.51243">
        <ele>551.8</ele>
        <time>2022-03-21T15:35:24Z</time>
      </trkpt>
      <trkpt lat="46.54278" lon="5.51246">
        <ele>551.8</ele>
        <time>2022-03-21T15:35:25Z</time>
      </trkpt>
      <trkpt lat="46.54273" lon="5.5125">
        <ele>552</ele>
        <time>2022-03-21T15:35:26Z</time>
      </trkpt>
      <trkpt lat="46.54269" lon="5.51254">
        <ele>552</ele>
        <time>2022-03-21T15:35:27Z</time>
      </trkpt>
      <trkpt lat="46.54265" lon="5.51258">
        <ele>552</ele>
        <time>2022-03-21T15:35:28Z</time>
      </trkpt>
      <trkpt lat="46.54261" lon="5.51262">
        <ele>552.4</ele>
        <time>2022-03-21T15:35:29Z</time>
      </trkpt>
      <trkpt lat="46.54256" lon="5.51265">
        <ele>552.4</ele>
        <time>2022-03-21T15:35:30Z</time>
      </trkpt>
      <trkpt lat="46.54252" lon="5.51269">
        <ele>552.6</ele>
        <time>2022-03-21T15:35:31Z</time>
      </trkpt>
      <trkpt lat="46.54248" lon="5.51274">
        <ele>552.6</ele>
        <time>2022-03-21T15:35:32Z</time>
      </trkpt>
      <trkpt lat="46.54244" lon="5.51279">
        <ele>552.6</ele>
        <time>2022-03-21T15:35:33Z</time>
      </trkpt>
      <trkpt lat="46.54241" lon="5.51285">
        <ele>552.6</ele>
        <time>2022-03-21T15:35:34Z</time>
      </trkpt>
      <trkpt lat="46.54238" lon="5.51292">
        <ele>552.6</ele>
        <time>2022-03-21T15:35:35Z</time>
      </trkpt>
      <trkpt lat="46.54237" lon="5.513">
        <ele>552.6</ele>
        <time>2022-03-21T15:35:36Z</time>
      </trkpt>
      <trkpt lat="46.54236" lon="5.51309">
        <ele>552.4</ele>
        <time>2022-03-21T15:35:37Z</time>
      </trkpt>
      <trkpt lat="46.54235" lon="5.51318">
        <ele>552.4</ele>
        <time>2022-03-21T15:35:38Z</time>
      </trkpt>
      <trkpt lat="46.54234" lon="5.51328">
        <ele>552</ele>
        <time>2022-03-21T15:35:39Z</time>
      </trkpt>
      <trkpt lat="46.54234" lon="5.51339">
        <ele>551.8</ele>
        <time>2022-03-21T15:35:40Z</time>
      </trkpt>
      <trkpt lat="46.54233" lon="5.51349">
        <ele>551.6</ele>
        <time>2022-03-21T15:35:41Z</time>
      </trkpt>
      <trkpt lat="46.54233" lon="5.5136">
        <ele>551.2</ele>
        <time>2022-03-21T15:35:42Z</time>
      </trkpt>
      <trkpt lat="46.54232" lon="5.51371">
        <ele>551</ele>
        <time>2022-03-21T15:35:43Z</time>
      </trkpt>
      <trkpt lat="46.54231" lon="5.51382">
        <ele>550.8</ele>
        <time>2022-03-21T15:35:44Z</time>
      </trkpt>
      <trkpt lat="46.54229" lon="5.51394">
        <ele>550.6</ele>
        <time>2022-03-21T15:35:45Z</time>
      </trkpt>
      <trkpt lat="46.54227" lon="5.51405">
        <ele>550.2</ele>
        <time>2022-03-21T15:35:46Z</time>
      </trkpt>
      <trkpt lat="46.54223" lon="5.51417">
        <ele>549.8</ele>
        <time>2022-03-21T15:35:47Z</time>
      </trkpt>
      <trkpt lat="46.5422" lon="5.51428">
        <ele>549.4</ele>
        <time>2022-03-21T15:35:48Z</time>
      </trkpt>
      <trkpt lat="46.54216" lon="5.51439">
        <ele>548.8</ele>
        <time>2022-03-21T15:35:49Z</time>
      </trkpt>
      <trkpt lat="46.54211" lon="5.51451">
        <ele>548.4</ele>
        <time>2022-03-21T15:35:50Z</time>
      </trkpt>
      <trkpt lat="46.54205" lon="5.51462">
        <ele>547.6</ele>
        <time>2022-03-21T15:35:51Z</time>
      </trkpt>
      <trkpt lat="46.54199" lon="5.51474">
        <ele>547</ele>
        <time>2022-03-21T15:35:52Z</time>
      </trkpt>
      <trkpt lat="46.54192" lon="5.51485">
        <ele>546.2</ele>
        <time>2022-03-21T15:35:53Z</time>
      </trkpt>
      <trkpt lat="46.54185" lon="5.51497">
        <ele>545.8</ele>
        <time>2022-03-21T15:35:54Z</time>
      </trkpt>
      <trkpt lat="46.54179" lon="5.5151">
        <ele>545.2</ele>
        <time>2022-03-21T15:35:55Z</time>
      </trkpt>
      <trkpt lat="46.54174" lon="5.51523">
        <ele>544.8</ele>
        <time>2022-03-21T15:35:56Z</time>
      </trkpt>
      <trkpt lat="46.54171" lon="5.51537">
        <ele>544.4</ele>
        <time>2022-03-21T15:35:57Z</time>
      </trkpt>
      <trkpt lat="46.54168" lon="5.51551">
        <ele>544</ele>
        <time>2022-03-21T15:35:58Z</time>
      </trkpt>
      <trkpt lat="46.54167" lon="5.51566">
        <ele>543.8</ele>
        <time>2022-03-21T15:35:59Z</time>
      </trkpt>
      <trkpt lat="46.54167" lon="5.51579">
        <ele>543.6</ele>
        <time>2022-03-21T15:36:00Z</time>
      </trkpt>
      <trkpt lat="46.54168" lon="5.51592">
        <ele>543.4</ele>
        <time>2022-03-21T15:36:01Z</time>
      </trkpt>
      <trkpt lat="46.54169" lon="5.51604">
        <ele>543</ele>
        <time>2022-03-21T15:36:02Z</time>
      </trkpt>
      <trkpt lat="46.5417" lon="5.51614">
        <ele>543</ele>
        <time>2022-03-21T15:36:03Z</time>
      </trkpt>
      <trkpt lat="46.54171" lon="5.51623">
        <ele>542.8</ele>
        <time>2022-03-21T15:36:04Z</time>
      </trkpt>
      <trkpt lat="46.54173" lon="5.5163">
        <ele>542.8</ele>
        <time>2022-03-21T15:36:05Z</time>
      </trkpt>
      <trkpt lat="46.54174" lon="5.51637">
        <ele>542.4</ele>
        <time>2022-03-21T15:36:06Z</time>
      </trkpt>
      <trkpt lat="46.54175" lon="5.51643">
        <ele>542.4</ele>
        <time>2022-03-21T15:36:07Z</time>
      </trkpt>
      <trkpt lat="46.54175" lon="5.5165">
        <ele>542.2</ele>
        <time>2022-03-21T15:36:08Z</time>
      </trkpt>
      <trkpt lat="46.54176" lon="5.51656">
        <ele>542.2</ele>
        <time>2022-03-21T15:36:09Z</time>
      </trkpt>
      <trkpt lat="46.54178" lon="5.51662">
        <ele>541.8</ele>
        <time>2022-03-21T15:36:10Z</time>
      </trkpt>
      <trkpt lat="46.5418" lon="5.51669">
        <ele>541.8</ele>
        <time>2022-03-21T15:36:11Z</time>
      </trkpt>
      <trkpt lat="46.54183" lon="5.51676">
        <ele>541.4</ele>
        <time>2022-03-21T15:36:12Z</time>
      </trkpt>
      <trkpt lat="46.54186" lon="5.51682">
        <ele>541.4</ele>
        <time>2022-03-21T15:36:13Z</time>
      </trkpt>
      <trkpt lat="46.54191" lon="5.51688">
        <ele>541.2</ele>
        <time>2022-03-21T15:36:14Z</time>
      </trkpt>
      <trkpt lat="46.54195" lon="5.51693">
        <ele>541.2</ele>
        <time>2022-03-21T15:36:15Z</time>
      </trkpt>
      <trkpt lat="46.542" lon="5.51699">
        <ele>541.2</ele>
        <time>2022-03-21T15:36:16Z</time>
      </trkpt>
      <trkpt lat="46.54205" lon="5.51704">
        <ele>541.2</ele>
        <time>2022-03-21T15:36:17Z</time>
      </trkpt>
      <trkpt lat="46.5421" lon="5.5171">
        <ele>541</ele>
        <time>2022-03-21T15:36:18Z</time>
      </trkpt>
      <trkpt lat="46.54215" lon="5.51715">
        <ele>541</ele>
        <time>2022-03-21T15:36:19Z</time>
      </trkpt>
      <trkpt lat="46.5422" lon="5.51721">
        <ele>541</ele>
        <time>2022-03-21T15:36:20Z</time>
      </trkpt>
      <trkpt lat="46.54225" lon="5.51726">
        <ele>541</ele>
        <time>2022-03-21T15:36:21Z</time>
      </trkpt>
      <trkpt lat="46.5423" lon="5.51731">
        <ele>541</ele>
        <time>2022-03-21T15:36:22Z</time>
      </trkpt>
      <trkpt lat="46.54235" lon="5.51736">
        <ele>541</ele>
        <time>2022-03-21T15:36:23Z</time>
      </trkpt>
      <trkpt lat="46.54241" lon="5.51741">
        <ele>541</ele>
        <time>2022-03-21T15:36:24Z</time>
      </trkpt>
      <trkpt lat="46.54247" lon="5.51746">
        <ele>540.6</ele>
        <time>2022-03-21T15:36:25Z</time>
      </trkpt>
      <trkpt lat="46.54253" lon="5.5175">
        <ele>540.6</ele>
        <time>2022-03-21T15:36:26Z</time>
      </trkpt>
      <trkpt lat="46.5426" lon="5.51754">
        <ele>540.6</ele>
        <time>2022-03-21T15:36:27Z</time>
      </trkpt>
      <trkpt lat="46.54267" lon="5.51757">
        <ele>540.4</ele>
        <time>2022-03-21T15:36:28Z</time>
      </trkpt>
      <trkpt lat="46.54274" lon="5.5176">
        <ele>540</ele>
        <time>2022-03-21T15:36:30Z</time>
      </trkpt>
      <trkpt lat="46.54281" lon="5.51763">
        <ele>539.8</ele>
        <time>2022-03-21T15:36:31Z</time>
      </trkpt>
      <trkpt lat="46.54288" lon="5.51766">
        <ele>539.6</ele>
        <time>2022-03-21T15:36:32Z</time>
      </trkpt>
      <trkpt lat="46.54296" lon="5.51768">
        <ele>539.2</ele>
        <time>2022-03-21T15:36:33Z</time>
      </trkpt>
      <trkpt lat="46.54304" lon="5.51771">
        <ele>539</ele>
        <time>2022-03-21T15:36:34Z</time>
      </trkpt>
      <trkpt lat="46.54312" lon="5.51773">
        <ele>538.8</ele>
        <time>2022-03-21T15:36:35Z</time>
      </trkpt>
      <trkpt lat="46.5432" lon="5.51777">
        <ele>538.8</ele>
        <time>2022-03-21T15:36:36Z</time>
      </trkpt>
      <trkpt lat="46.54328" lon="5.51781">
        <ele>538.4</ele>
        <time>2022-03-21T15:36:37Z</time>
      </trkpt>
      <trkpt lat="46.54336" lon="5.51785">
        <ele>538</ele>
        <time>2022-03-21T15:36:38Z</time>
      </trkpt>
      <trkpt lat="46.54344" lon="5.5179">
        <ele>537.8</ele>
        <time>2022-03-21T15:36:39Z</time>
      </trkpt>
      <trkpt lat="46.54352" lon="5.51797">
        <ele>537.4</ele>
        <time>2022-03-21T15:36:40Z</time>
      </trkpt>
      <trkpt lat="46.5436" lon="5.51804">
        <ele>537</ele>
        <time>2022-03-21T15:36:41Z</time>
      </trkpt>
      <trkpt lat="46.54368" lon="5.51812">
        <ele>536.8</ele>
        <time>2022-03-21T15:36:42Z</time>
      </trkpt>
      <trkpt lat="46.54376" lon="5.5182">
        <ele>536.2</ele>
        <time>2022-03-21T15:36:43Z</time>
      </trkpt>
      <trkpt lat="46.54384" lon="5.51828">
        <ele>535.8</ele>
        <time>2022-03-21T15:36:44Z</time>
      </trkpt>
      <trkpt lat="46.54392" lon="5.51836">
        <ele>535.4</ele>
        <time>2022-03-21T15:36:45Z</time>
      </trkpt>
      <trkpt lat="46.54399" lon="5.51844">
        <ele>535.2</ele>
        <time>2022-03-21T15:36:46Z</time>
      </trkpt>
      <trkpt lat="46.54406" lon="5.51853">
        <ele>534.8</ele>
        <time>2022-03-21T15:36:47Z</time>
      </trkpt>
      <trkpt lat="46.54413" lon="5.51861">
        <ele>534.4</ele>
        <time>2022-03-21T15:36:48Z</time>
      </trkpt>
      <trkpt lat="46.54421" lon="5.51869">
        <ele>534</ele>
        <time>2022-03-21T15:36:49Z</time>
      </trkpt>
      <trkpt lat="46.54429" lon="5.51877">
        <ele>533.6</ele>
        <time>2022-03-21T15:36:50Z</time>
      </trkpt>
      <trkpt lat="46.54437" lon="5.51885">
        <ele>533.4</ele>
        <time>2022-03-21T15:36:51Z</time>
      </trkpt>
      <trkpt lat="46.54445" lon="5.51894">
        <ele>533.2</ele>
        <time>2022-03-21T15:36:52Z</time>
      </trkpt>
      <trkpt lat="46.54453" lon="5.51902">
        <ele>532.8</ele>
        <time>2022-03-21T15:36:53Z</time>
      </trkpt>
      <trkpt lat="46.5446" lon="5.51911">
        <ele>532.8</ele>
        <time>2022-03-21T15:36:54Z</time>
      </trkpt>
      <trkpt lat="46.54467" lon="5.51919">
        <ele>532.6</ele>
        <time>2022-03-21T15:36:55Z</time>
      </trkpt>
      <trkpt lat="46.54474" lon="5.51926">
        <ele>532.6</ele>
        <time>2022-03-21T15:36:56Z</time>
      </trkpt>
      <trkpt lat="46.5448" lon="5.51934">
        <ele>532.4</ele>
        <time>2022-03-21T15:36:57Z</time>
      </trkpt>
      <trkpt lat="46.54487" lon="5.51941">
        <ele>532.4</ele>
        <time>2022-03-21T15:36:58Z</time>
      </trkpt>
      <trkpt lat="46.54494" lon="5.51948">
        <ele>532.4</ele>
        <time>2022-03-21T15:36:59Z</time>
      </trkpt>
      <trkpt lat="46.54501" lon="5.51955">
        <ele>532.4</ele>
        <time>2022-03-21T15:37:00Z</time>
      </trkpt>
      <trkpt lat="46.54507" lon="5.51962">
        <ele>532.4</ele>
        <time>2022-03-21T15:37:01Z</time>
      </trkpt>
      <trkpt lat="46.54513" lon="5.51968">
        <ele>532.6</ele>
        <time>2022-03-21T15:37:02Z</time>
      </trkpt>
      <trkpt lat="46.54518" lon="5.51975">
        <ele>532.6</ele>
        <time>2022-03-21T15:37:03Z</time>
      </trkpt>
      <trkpt lat="46.54523" lon="5.51981">
        <ele>532.6</ele>
        <time>2022-03-21T15:37:04Z</time>
      </trkpt>
      <trkpt lat="46.54529" lon="5.51987">
        <ele>532.8</ele>
        <time>2022-03-21T15:37:05Z</time>
      </trkpt>
      <trkpt lat="46.54534" lon="5.51994">
        <ele>532.8</ele>
        <time>2022-03-21T15:37:06Z</time>
      </trkpt>
      <trkpt lat="46.54539" lon="5.52">
        <ele>533.2</ele>
        <time>2022-03-21T15:37:07Z</time>
      </trkpt>
      <trkpt lat="46.54544" lon="5.52006">
        <ele>533.2</ele>
        <time>2022-03-21T15:37:08Z</time>
      </trkpt>
      <trkpt lat="46.54549" lon="5.52011">
        <ele>533.2</ele>
        <time>2022-03-21T15:37:09Z</time>
      </trkpt>
      <trkpt lat="46.54555" lon="5.52018">
        <ele>533.2</ele>
        <time>2022-03-21T15:37:10Z</time>
      </trkpt>
      <trkpt lat="46.5456" lon="5.52024">
        <ele>533.2</ele>
        <time>2022-03-21T15:37:11Z</time>
      </trkpt>
      <trkpt lat="46.54566" lon="5.5203">
        <ele>533.2</ele>
        <time>2022-03-21T15:37:12Z</time>
      </trkpt>
      <trkpt lat="46.54571" lon="5.52036">
        <ele>533.2</ele>
        <time>2022-03-21T15:37:13Z</time>
      </trkpt>
      <trkpt lat="46.54576" lon="5.52042">
        <ele>533.2</ele>
        <time>2022-03-21T15:37:14Z</time>
      </trkpt>
      <trkpt lat="46.54582" lon="5.52048">
        <ele>533.2</ele>
        <time>2022-03-21T15:37:15Z</time>
      </trkpt>
      <trkpt lat="46.54588" lon="5.52054">
        <ele>533.2</ele>
        <time>2022-03-21T15:37:16Z</time>
      </trkpt>
      <trkpt lat="46.54593" lon="5.52061">
        <ele>533.2</ele>
        <time>2022-03-21T15:37:17Z</time>
      </trkpt>
      <trkpt lat="46.54599" lon="5.52067">
        <ele>533.2</ele>
        <time>2022-03-21T15:37:18Z</time>
      </trkpt>
      <trkpt lat="46.54605" lon="5.52074">
        <ele>532.8</ele>
        <time>2022-03-21T15:37:19Z</time>
      </trkpt>
      <trkpt lat="46.54611" lon="5.5208">
        <ele>532.8</ele>
        <time>2022-03-21T15:37:20Z</time>
      </trkpt>
      <trkpt lat="46.54617" lon="5.52086">
        <ele>532.6</ele>
        <time>2022-03-21T15:37:21Z</time>
      </trkpt>
      <trkpt lat="46.54623" lon="5.52093">
        <ele>532.6</ele>
        <time>2022-03-21T15:37:22Z</time>
      </trkpt>
      <trkpt lat="46.5463" lon="5.52099">
        <ele>532.2</ele>
        <time>2022-03-21T15:37:23Z</time>
      </trkpt>
      <trkpt lat="46.54637" lon="5.52105">
        <ele>532</ele>
        <time>2022-03-21T15:37:24Z</time>
      </trkpt>
      <trkpt lat="46.54644" lon="5.52111">
        <ele>531.6</ele>
        <time>2022-03-21T15:37:25Z</time>
      </trkpt>
      <trkpt lat="46.54652" lon="5.52116">
        <ele>531.2</ele>
        <time>2022-03-21T15:37:26Z</time>
      </trkpt>
      <trkpt lat="46.54661" lon="5.52121">
        <ele>530.8</ele>
        <time>2022-03-21T15:37:27Z</time>
      </trkpt>
      <trkpt lat="46.54669" lon="5.52127">
        <ele>530.4</ele>
        <time>2022-03-21T15:37:28Z</time>
      </trkpt>
      <trkpt lat="46.54679" lon="5.52131">
        <ele>530</ele>
        <time>2022-03-21T15:37:29Z</time>
      </trkpt>
      <trkpt lat="46.54688" lon="5.52135">
        <ele>529.6</ele>
        <time>2022-03-21T15:37:30Z</time>
      </trkpt>
      <trkpt lat="46.54697" lon="5.52139">
        <ele>529</ele>
        <time>2022-03-21T15:37:31Z</time>
      </trkpt>
      <trkpt lat="46.54708" lon="5.52142">
        <ele>528.4</ele>
        <time>2022-03-21T15:37:32Z</time>
      </trkpt>
      <trkpt lat="46.54718" lon="5.52144">
        <ele>528</ele>
        <time>2022-03-21T15:37:33Z</time>
      </trkpt>
      <trkpt lat="46.54728" lon="5.52147">
        <ele>527.4</ele>
        <time>2022-03-21T15:37:34Z</time>
      </trkpt>
      <trkpt lat="46.54737" lon="5.5215">
        <ele>527</ele>
        <time>2022-03-21T15:37:35Z</time>
      </trkpt>
      <trkpt lat="46.54747" lon="5.52155">
        <ele>526.4</ele>
        <time>2022-03-21T15:37:36Z</time>
      </trkpt>
      <trkpt lat="46.54758" lon="5.5216">
        <ele>525.8</ele>
        <time>2022-03-21T15:37:37Z</time>
      </trkpt>
      <trkpt lat="46.54767" lon="5.52167">
        <ele>525.2</ele>
        <time>2022-03-21T15:37:38Z</time>
      </trkpt>
      <trkpt lat="46.54786" lon="5.52182">
        <ele>524.4</ele>
        <time>2022-03-21T15:37:39Z</time>
      </trkpt>
      <trkpt lat="46.54794" lon="5.5219">
        <ele>523.6</ele>
        <time>2022-03-21T15:37:40Z</time>
      </trkpt>
      <trkpt lat="46.54803" lon="5.52197">
        <ele>523</ele>
        <time>2022-03-21T15:37:41Z</time>
      </trkpt>
      <trkpt lat="46.54812" lon="5.52205">
        <ele>522.2</ele>
        <time>2022-03-21T15:37:42Z</time>
      </trkpt>
      <trkpt lat="46.54822" lon="5.52212">
        <ele>521.6</ele>
        <time>2022-03-21T15:37:43Z</time>
      </trkpt>
      <trkpt lat="46.54832" lon="5.52219">
        <ele>520.8</ele>
        <time>2022-03-21T15:37:44Z</time>
      </trkpt>
      <trkpt lat="46.54842" lon="5.52225">
        <ele>520.2</ele>
        <time>2022-03-21T15:37:45Z</time>
      </trkpt>
      <trkpt lat="46.54853" lon="5.52231">
        <ele>519.6</ele>
        <time>2022-03-21T15:37:46Z</time>
      </trkpt>
      <trkpt lat="46.54863" lon="5.52235">
        <ele>519</ele>
        <time>2022-03-21T15:37:47Z</time>
      </trkpt>
      <trkpt lat="46.54875" lon="5.52239">
        <ele>518.4</ele>
        <time>2022-03-21T15:37:48Z</time>
      </trkpt>
      <trkpt lat="46.54885" lon="5.52243">
        <ele>517.8</ele>
        <time>2022-03-21T15:37:49Z</time>
      </trkpt>
      <trkpt lat="46.54895" lon="5.52247">
        <ele>517.2</ele>
        <time>2022-03-21T15:37:50Z</time>
      </trkpt>
      <trkpt lat="46.54906" lon="5.5225">
        <ele>516.6</ele>
        <time>2022-03-21T15:37:51Z</time>
      </trkpt>
      <trkpt lat="46.54918" lon="5.52254">
        <ele>516</ele>
        <time>2022-03-21T15:37:52Z</time>
      </trkpt>
      <trkpt lat="46.54929" lon="5.52258">
        <ele>515.2</ele>
        <time>2022-03-21T15:37:53Z</time>
      </trkpt>
      <trkpt lat="46.5494" lon="5.52263">
        <ele>514</ele>
        <time>2022-03-21T15:37:54Z</time>
      </trkpt>
      <trkpt lat="46.54952" lon="5.52269">
        <ele>513.4</ele>
        <time>2022-03-21T15:37:55Z</time>
      </trkpt>
      <trkpt lat="46.54963" lon="5.52276">
        <ele>512.6</ele>
        <time>2022-03-21T15:37:56Z</time>
      </trkpt>
      <trkpt lat="46.54974" lon="5.52284">
        <ele>512</ele>
        <time>2022-03-21T15:37:57Z</time>
      </trkpt>
      <trkpt lat="46.54985" lon="5.52293">
        <ele>511.4</ele>
        <time>2022-03-21T15:37:58Z</time>
      </trkpt>
      <trkpt lat="46.54995" lon="5.52305">
        <ele>510.8</ele>
        <time>2022-03-21T15:37:59Z</time>
      </trkpt>
      <trkpt lat="46.55003" lon="5.52318">
        <ele>510</ele>
        <time>2022-03-21T15:38:00Z</time>
      </trkpt>
      <trkpt lat="46.55011" lon="5.52332">
        <ele>509.4</ele>
        <time>2022-03-21T15:38:01Z</time>
      </trkpt>
      <trkpt lat="46.55016" lon="5.52347">
        <ele>508.6</ele>
        <time>2022-03-21T15:38:02Z</time>
      </trkpt>
      <trkpt lat="46.5502" lon="5.52362">
        <ele>507.8</ele>
        <time>2022-03-21T15:38:03Z</time>
      </trkpt>
      <trkpt lat="46.55025" lon="5.52377">
        <ele>507.2</ele>
        <time>2022-03-21T15:38:04Z</time>
      </trkpt>
      <trkpt lat="46.55031" lon="5.52393">
        <ele>506.6</ele>
        <time>2022-03-21T15:38:05Z</time>
      </trkpt>
      <trkpt lat="46.55036" lon="5.52409">
        <ele>505.8</ele>
        <time>2022-03-21T15:38:06Z</time>
      </trkpt>
      <trkpt lat="46.5504" lon="5.52425">
        <ele>505.2</ele>
        <time>2022-03-21T15:38:07Z</time>
      </trkpt>
      <trkpt lat="46.55045" lon="5.52441">
        <ele>504.6</ele>
        <time>2022-03-21T15:38:08Z</time>
      </trkpt>
      <trkpt lat="46.5505" lon="5.52457">
        <ele>503.8</ele>
        <time>2022-03-21T15:38:09Z</time>
      </trkpt>
      <trkpt lat="46.55056" lon="5.52472">
        <ele>503.2</ele>
        <time>2022-03-21T15:38:10Z</time>
      </trkpt>
      <trkpt lat="46.55061" lon="5.52488">
        <ele>502.6</ele>
        <time>2022-03-21T15:38:11Z</time>
      </trkpt>
      <trkpt lat="46.55066" lon="5.52503">
        <ele>502</ele>
        <time>2022-03-21T15:38:12Z</time>
      </trkpt>
      <trkpt lat="46.55072" lon="5.52518">
        <ele>501.4</ele>
        <time>2022-03-21T15:38:13Z</time>
      </trkpt>
      <trkpt lat="46.55076" lon="5.52532">
        <ele>500.6</ele>
        <time>2022-03-21T15:38:14Z</time>
      </trkpt>
      <trkpt lat="46.55081" lon="5.52547">
        <ele>500.6</ele>
        <time>2022-03-21T15:38:15Z</time>
      </trkpt>
      <trkpt lat="46.55086" lon="5.5256">
        <ele>500</ele>
        <time>2022-03-21T15:38:16Z</time>
      </trkpt>
      <trkpt lat="46.55089" lon="5.52573">
        <ele>499.4</ele>
        <time>2022-03-21T15:38:17Z</time>
      </trkpt>
      <trkpt lat="46.55094" lon="5.52586">
        <ele>498.8</ele>
        <time>2022-03-21T15:38:18Z</time>
      </trkpt>
      <trkpt lat="46.55099" lon="5.52598">
        <ele>498.2</ele>
        <time>2022-03-21T15:38:19Z</time>
      </trkpt>
      <trkpt lat="46.55105" lon="5.52608">
        <ele>497.4</ele>
        <time>2022-03-21T15:38:20Z</time>
      </trkpt>
      <trkpt lat="46.55113" lon="5.52617">
        <ele>497</ele>
        <time>2022-03-21T15:38:21Z</time>
      </trkpt>
      <trkpt lat="46.55121" lon="5.52626">
        <ele>496.4</ele>
        <time>2022-03-21T15:38:22Z</time>
      </trkpt>
      <trkpt lat="46.5513" lon="5.52633">
        <ele>495.8</ele>
        <time>2022-03-21T15:38:23Z</time>
      </trkpt>
      <trkpt lat="46.55139" lon="5.52639">
        <ele>495.4</ele>
        <time>2022-03-21T15:38:24Z</time>
      </trkpt>
      <trkpt lat="46.55148" lon="5.52645">
        <ele>495.2</ele>
        <time>2022-03-21T15:38:25Z</time>
      </trkpt>
      <trkpt lat="46.55157" lon="5.5265">
        <ele>494.8</ele>
        <time>2022-03-21T15:38:26Z</time>
      </trkpt>
      <trkpt lat="46.55165" lon="5.52657">
        <ele>494.6</ele>
        <time>2022-03-21T15:38:27Z</time>
      </trkpt>
      <trkpt lat="46.55174" lon="5.52662">
        <ele>494.6</ele>
        <time>2022-03-21T15:38:28Z</time>
      </trkpt>
      <trkpt lat="46.55183" lon="5.52667">
        <ele>494.4</ele>
        <time>2022-03-21T15:38:29Z</time>
      </trkpt>
      <trkpt lat="46.55192" lon="5.52672">
        <ele>494.4</ele>
        <time>2022-03-21T15:38:30Z</time>
      </trkpt>
      <trkpt lat="46.552" lon="5.52676">
        <ele>494.4</ele>
        <time>2022-03-21T15:38:31Z</time>
      </trkpt>
      <trkpt lat="46.55209" lon="5.5268">
        <ele>494</ele>
        <time>2022-03-21T15:38:32Z</time>
      </trkpt>
      <trkpt lat="46.55218" lon="5.52684">
        <ele>494</ele>
        <time>2022-03-21T15:38:33Z</time>
      </trkpt>
      <trkpt lat="46.55226" lon="5.52689">
        <ele>494</ele>
        <time>2022-03-21T15:38:34Z</time>
      </trkpt>
      <trkpt lat="46.55235" lon="5.52693">
        <ele>493.8</ele>
        <time>2022-03-21T15:38:35Z</time>
      </trkpt>
      <trkpt lat="46.55243" lon="5.52697">
        <ele>493.8</ele>
        <time>2022-03-21T15:38:36Z</time>
      </trkpt>
      <trkpt lat="46.55252" lon="5.52701">
        <ele>493.6</ele>
        <time>2022-03-21T15:38:37Z</time>
      </trkpt>
      <trkpt lat="46.55261" lon="5.52705">
        <ele>493.6</ele>
        <time>2022-03-21T15:38:38Z</time>
      </trkpt>
      <trkpt lat="46.55269" lon="5.52709">
        <ele>493.2</ele>
        <time>2022-03-21T15:38:39Z</time>
      </trkpt>
      <trkpt lat="46.55278" lon="5.52715">
        <ele>493.2</ele>
        <time>2022-03-21T15:38:40Z</time>
      </trkpt>
      <trkpt lat="46.55286" lon="5.52719">
        <ele>493.2</ele>
        <time>2022-03-21T15:38:41Z</time>
      </trkpt>
      <trkpt lat="46.55294" lon="5.52723">
        <ele>493</ele>
        <time>2022-03-21T15:38:42Z</time>
      </trkpt>
      <trkpt lat="46.55302" lon="5.52727">
        <ele>493</ele>
        <time>2022-03-21T15:38:43Z</time>
      </trkpt>
      <trkpt lat="46.5531" lon="5.52731">
        <ele>493</ele>
        <time>2022-03-21T15:38:44Z</time>
      </trkpt>
      <trkpt lat="46.55317" lon="5.52735">
        <ele>492.8</ele>
        <time>2022-03-21T15:38:45Z</time>
      </trkpt>
      <trkpt lat="46.55325" lon="5.52739">
        <ele>492.8</ele>
        <time>2022-03-21T15:38:46Z</time>
      </trkpt>
      <trkpt lat="46.55333" lon="5.52742">
        <ele>492.6</ele>
        <time>2022-03-21T15:38:47Z</time>
      </trkpt>
      <trkpt lat="46.5534" lon="5.52744">
        <ele>492.6</ele>
        <time>2022-03-21T15:38:48Z</time>
      </trkpt>
      <trkpt lat="46.55348" lon="5.52747">
        <ele>492.6</ele>
        <time>2022-03-21T15:38:49Z</time>
      </trkpt>
      <trkpt lat="46.55355" lon="5.52749">
        <ele>492.6</ele>
        <time>2022-03-21T15:38:50Z</time>
      </trkpt>
      <trkpt lat="46.55362" lon="5.52751">
        <ele>492.6</ele>
        <time>2022-03-21T15:38:51Z</time>
      </trkpt>
      <trkpt lat="46.55369" lon="5.52753">
        <ele>492.6</ele>
        <time>2022-03-21T15:38:52Z</time>
      </trkpt>
      <trkpt lat="46.55376" lon="5.52755">
        <ele>492.6</ele>
        <time>2022-03-21T15:38:53Z</time>
      </trkpt>
      <trkpt lat="46.55383" lon="5.52757">
        <ele>492.6</ele>
        <time>2022-03-21T15:38:54Z</time>
      </trkpt>
      <trkpt lat="46.55389" lon="5.52759">
        <ele>492.8</ele>
        <time>2022-03-21T15:38:55Z</time>
      </trkpt>
      <trkpt lat="46.55395" lon="5.5276">
        <ele>492.8</ele>
        <time>2022-03-21T15:38:56Z</time>
      </trkpt>
      <trkpt lat="46.55401" lon="5.52762">
        <ele>493</ele>
        <time>2022-03-21T15:38:57Z</time>
      </trkpt>
      <trkpt lat="46.55407" lon="5.52763">
        <ele>493</ele>
        <time>2022-03-21T15:38:58Z</time>
      </trkpt>
      <trkpt lat="46.55413" lon="5.52765">
        <ele>493</ele>
        <time>2022-03-21T15:38:59Z</time>
      </trkpt>
      <trkpt lat="46.55418" lon="5.52766">
        <ele>493.6</ele>
        <time>2022-03-21T15:39:00Z</time>
      </trkpt>
      <trkpt lat="46.55424" lon="5.52767">
        <ele>493.8</ele>
        <time>2022-03-21T15:39:01Z</time>
      </trkpt>
      <trkpt lat="46.55429" lon="5.52767">
        <ele>494.2</ele>
        <time>2022-03-21T15:39:02Z</time>
      </trkpt>
      <trkpt lat="46.55434" lon="5.52766">
        <ele>494.6</ele>
        <time>2022-03-21T15:39:03Z</time>
      </trkpt>
      <trkpt lat="46.55439" lon="5.52766">
        <ele>494.8</ele>
        <time>2022-03-21T15:39:04Z</time>
      </trkpt>
      <trkpt lat="46.55444" lon="5.52765">
        <ele>495.2</ele>
        <time>2022-03-21T15:39:05Z</time>
      </trkpt>
      <trkpt lat="46.55449" lon="5.52763">
        <ele>495.6</ele>
        <time>2022-03-21T15:39:06Z</time>
      </trkpt>
      <trkpt lat="46.55454" lon="5.52762">
        <ele>495.6</ele>
        <time>2022-03-21T15:39:07Z</time>
      </trkpt>
      <trkpt lat="46.5546" lon="5.5276">
        <ele>495.8</ele>
        <time>2022-03-21T15:39:08Z</time>
      </trkpt>
      <trkpt lat="46.55465" lon="5.52759">
        <ele>495.8</ele>
        <time>2022-03-21T15:39:09Z</time>
      </trkpt>
      <trkpt lat="46.5547" lon="5.52758">
        <ele>496</ele>
        <time>2022-03-21T15:39:10Z</time>
      </trkpt>
      <trkpt lat="46.55476" lon="5.52758">
        <ele>496</ele>
        <time>2022-03-21T15:39:11Z</time>
      </trkpt>
      <trkpt lat="46.55481" lon="5.52757">
        <ele>496</ele>
        <time>2022-03-21T15:39:12Z</time>
      </trkpt>
      <trkpt lat="46.55486" lon="5.52757">
        <ele>496</ele>
        <time>2022-03-21T15:39:13Z</time>
      </trkpt>
      <trkpt lat="46.55492" lon="5.52756">
        <ele>496</ele>
        <time>2022-03-21T15:39:14Z</time>
      </trkpt>
      <trkpt lat="46.55498" lon="5.52756">
        <ele>496</ele>
        <time>2022-03-21T15:39:15Z</time>
      </trkpt>
      <trkpt lat="46.55504" lon="5.52756">
        <ele>496</ele>
        <time>2022-03-21T15:39:16Z</time>
      </trkpt>
      <trkpt lat="46.5551" lon="5.52757">
        <ele>496</ele>
        <time>2022-03-21T15:39:17Z</time>
      </trkpt>
      <trkpt lat="46.55516" lon="5.52757">
        <ele>496</ele>
        <time>2022-03-21T15:39:18Z</time>
      </trkpt>
      <trkpt lat="46.55522" lon="5.52758">
        <ele>496</ele>
        <time>2022-03-21T15:39:19Z</time>
      </trkpt>
      <trkpt lat="46.55528" lon="5.52758">
        <ele>496</ele>
        <time>2022-03-21T15:39:20Z</time>
      </trkpt>
      <trkpt lat="46.55533" lon="5.5276">
        <ele>496</ele>
        <time>2022-03-21T15:39:21Z</time>
      </trkpt>
      <trkpt lat="46.55539" lon="5.52761">
        <ele>496</ele>
        <time>2022-03-21T15:39:22Z</time>
      </trkpt>
      <trkpt lat="46.55545" lon="5.52764">
        <ele>496.2</ele>
        <time>2022-03-21T15:39:23Z</time>
      </trkpt>
      <trkpt lat="46.5555" lon="5.52767">
        <ele>496.2</ele>
        <time>2022-03-21T15:39:24Z</time>
      </trkpt>
      <trkpt lat="46.55556" lon="5.5277">
        <ele>496.2</ele>
        <time>2022-03-21T15:39:25Z</time>
      </trkpt>
      <trkpt lat="46.55561" lon="5.52775">
        <ele>496.2</ele>
        <time>2022-03-21T15:39:26Z</time>
      </trkpt>
      <trkpt lat="46.55567" lon="5.5278">
        <ele>496</ele>
        <time>2022-03-21T15:39:27Z</time>
      </trkpt>
      <trkpt lat="46.55572" lon="5.52785">
        <ele>495.8</ele>
        <time>2022-03-21T15:39:28Z</time>
      </trkpt>
      <trkpt lat="46.55577" lon="5.52791">
        <ele>495.8</ele>
        <time>2022-03-21T15:39:29Z</time>
      </trkpt>
      <trkpt lat="46.55582" lon="5.52798">
        <ele>495.4</ele>
        <time>2022-03-21T15:39:30Z</time>
      </trkpt>
      <trkpt lat="46.55588" lon="5.52804">
        <ele>495.2</ele>
        <time>2022-03-21T15:39:31Z</time>
      </trkpt>
      <trkpt lat="46.55594" lon="5.52809">
        <ele>495.2</ele>
        <time>2022-03-21T15:39:32Z</time>
      </trkpt>
      <trkpt lat="46.556" lon="5.52814">
        <ele>494.8</ele>
        <time>2022-03-21T15:39:33Z</time>
      </trkpt>
      <trkpt lat="46.55607" lon="5.52818">
        <ele>494.8</ele>
        <time>2022-03-21T15:39:34Z</time>
      </trkpt>
      <trkpt lat="46.55614" lon="5.52821">
        <ele>494.6</ele>
        <time>2022-03-21T15:39:35Z</time>
      </trkpt>
      <trkpt lat="46.55621" lon="5.52823">
        <ele>494.4</ele>
        <time>2022-03-21T15:39:36Z</time>
      </trkpt>
      <trkpt lat="46.55628" lon="5.52824">
        <ele>494.4</ele>
        <time>2022-03-21T15:39:37Z</time>
      </trkpt>
      <trkpt lat="46.55635" lon="5.52825">
        <ele>494.2</ele>
        <time>2022-03-21T15:39:38Z</time>
      </trkpt>
      <trkpt lat="46.55642" lon="5.52826">
        <ele>494.2</ele>
        <time>2022-03-21T15:39:39Z</time>
      </trkpt>
      <trkpt lat="46.55649" lon="5.52826">
        <ele>494.2</ele>
        <time>2022-03-21T15:39:40Z</time>
      </trkpt>
      <trkpt lat="46.55656" lon="5.52826">
        <ele>494.2</ele>
        <time>2022-03-21T15:39:41Z</time>
      </trkpt>
      <trkpt lat="46.55663" lon="5.52826">
        <ele>494.2</ele>
        <time>2022-03-21T15:39:42Z</time>
      </trkpt>
      <trkpt lat="46.55669" lon="5.52826">
        <ele>494.2</ele>
        <time>2022-03-21T15:39:43Z</time>
      </trkpt>
      <trkpt lat="46.55676" lon="5.52826">
        <ele>494.2</ele>
        <time>2022-03-21T15:39:44Z</time>
      </trkpt>
      <trkpt lat="46.55683" lon="5.52826">
        <ele>494.2</ele>
        <time>2022-03-21T15:39:45Z</time>
      </trkpt>
      <trkpt lat="46.5569" lon="5.52826">
        <ele>494</ele>
        <time>2022-03-21T15:39:46Z</time>
      </trkpt>
      <trkpt lat="46.55697" lon="5.52826">
        <ele>494</ele>
        <time>2022-03-21T15:39:47Z</time>
      </trkpt>
      <trkpt lat="46.55705" lon="5.52827">
        <ele>493.8</ele>
        <time>2022-03-21T15:39:48Z</time>
      </trkpt>
      <trkpt lat="46.55712" lon="5.52827">
        <ele>493.8</ele>
        <time>2022-03-21T15:39:49Z</time>
      </trkpt>
      <trkpt lat="46.5572" lon="5.52827">
        <ele>493.8</ele>
        <time>2022-03-21T15:39:50Z</time>
      </trkpt>
      <trkpt lat="46.55727" lon="5.52827">
        <ele>493.6</ele>
        <time>2022-03-21T15:39:51Z</time>
      </trkpt>
      <trkpt lat="46.55735" lon="5.52828">
        <ele>493.6</ele>
        <time>2022-03-21T15:39:52Z</time>
      </trkpt>
      <trkpt lat="46.55742" lon="5.52828">
        <ele>493.6</ele>
        <time>2022-03-21T15:39:53Z</time>
      </trkpt>
      <trkpt lat="46.55749" lon="5.52828">
        <ele>493.6</ele>
        <time>2022-03-21T15:39:54Z</time>
      </trkpt>
      <trkpt lat="46.55756" lon="5.52829">
        <ele>493.2</ele>
        <time>2022-03-21T15:39:55Z</time>
      </trkpt>
      <trkpt lat="46.55763" lon="5.52829">
        <ele>493.2</ele>
        <time>2022-03-21T15:39:56Z</time>
      </trkpt>
      <trkpt lat="46.5577" lon="5.52828">
        <ele>493.2</ele>
        <time>2022-03-21T15:39:57Z</time>
      </trkpt>
      <trkpt lat="46.55777" lon="5.52828">
        <ele>493.2</ele>
        <time>2022-03-21T15:39:58Z</time>
      </trkpt>
      <trkpt lat="46.55783" lon="5.52828">
        <ele>493.2</ele>
        <time>2022-03-21T15:39:59Z</time>
      </trkpt>
      <trkpt lat="46.55789" lon="5.52828">
        <ele>493.2</ele>
        <time>2022-03-21T15:40:00Z</time>
      </trkpt>
      <trkpt lat="46.55795" lon="5.52828">
        <ele>493.2</ele>
        <time>2022-03-21T15:40:01Z</time>
      </trkpt>
      <trkpt lat="46.55802" lon="5.52828">
        <ele>493.2</ele>
        <time>2022-03-21T15:40:02Z</time>
      </trkpt>
      <trkpt lat="46.55808" lon="5.52828">
        <ele>493.2</ele>
        <time>2022-03-21T15:40:03Z</time>
      </trkpt>
      <trkpt lat="46.55813" lon="5.52829">
        <ele>493.2</ele>
        <time>2022-03-21T15:40:04Z</time>
      </trkpt>
      <trkpt lat="46.55819" lon="5.52829">
        <ele>493.2</ele>
        <time>2022-03-21T15:40:05Z</time>
      </trkpt>
      <trkpt lat="46.55825" lon="5.52829">
        <ele>493.2</ele>
        <time>2022-03-21T15:40:06Z</time>
      </trkpt>
      <trkpt lat="46.55831" lon="5.52829">
        <ele>493.2</ele>
        <time>2022-03-21T15:40:07Z</time>
      </trkpt>
      <trkpt lat="46.55837" lon="5.52829">
        <ele>493.2</ele>
        <time>2022-03-21T15:40:08Z</time>
      </trkpt>
      <trkpt lat="46.55843" lon="5.5283">
        <ele>493.2</ele>
        <time>2022-03-21T15:40:09Z</time>
      </trkpt>
      <trkpt lat="46.55849" lon="5.5283">
        <ele>493.2</ele>
        <time>2022-03-21T15:40:10Z</time>
      </trkpt>
      <trkpt lat="46.55856" lon="5.5283">
        <ele>493</ele>
        <time>2022-03-21T15:40:12Z</time>
      </trkpt>
      <trkpt lat="46.55862" lon="5.5283">
        <ele>492.8</ele>
        <time>2022-03-21T15:40:13Z</time>
      </trkpt>
      <trkpt lat="46.55869" lon="5.5283">
        <ele>492.8</ele>
        <time>2022-03-21T15:40:14Z</time>
      </trkpt>
      <trkpt lat="46.55876" lon="5.5283">
        <ele>492.4</ele>
        <time>2022-03-21T15:40:15Z</time>
      </trkpt>
      <trkpt lat="46.55883" lon="5.5283">
        <ele>492.2</ele>
        <time>2022-03-21T15:40:16Z</time>
      </trkpt>
      <trkpt lat="46.5589" lon="5.5283">
        <ele>492.2</ele>
        <time>2022-03-21T15:40:17Z</time>
      </trkpt>
      <trkpt lat="46.55897" lon="5.5283">
        <ele>492</ele>
        <time>2022-03-21T15:40:18Z</time>
      </trkpt>
      <trkpt lat="46.55904" lon="5.5283">
        <ele>491.6</ele>
        <time>2022-03-21T15:40:19Z</time>
      </trkpt>
      <trkpt lat="46.55912" lon="5.5283">
        <ele>491.6</ele>
        <time>2022-03-21T15:40:20Z</time>
      </trkpt>
      <trkpt lat="46.55919" lon="5.5283">
        <ele>491.4</ele>
        <time>2022-03-21T15:40:21Z</time>
      </trkpt>
      <trkpt lat="46.55927" lon="5.5283">
        <ele>491.4</ele>
        <time>2022-03-21T15:40:22Z</time>
      </trkpt>
      <trkpt lat="46.55934" lon="5.5283">
        <ele>491.4</ele>
        <time>2022-03-21T15:40:23Z</time>
      </trkpt>
      <trkpt lat="46.55942" lon="5.5283">
        <ele>491.4</ele>
        <time>2022-03-21T15:40:24Z</time>
      </trkpt>
      <trkpt lat="46.55949" lon="5.5283">
        <ele>491.2</ele>
        <time>2022-03-21T15:40:25Z</time>
      </trkpt>
      <trkpt lat="46.55956" lon="5.5283">
        <ele>491.2</ele>
        <time>2022-03-21T15:40:26Z</time>
      </trkpt>
      <trkpt lat="46.55963" lon="5.5283">
        <ele>491.2</ele>
        <time>2022-03-21T15:40:27Z</time>
      </trkpt>
      <trkpt lat="46.5597" lon="5.5283">
        <ele>491.2</ele>
        <time>2022-03-21T15:40:28Z</time>
      </trkpt>
      <trkpt lat="46.55976" lon="5.5283">
        <ele>491.2</ele>
        <time>2022-03-21T15:40:29Z</time>
      </trkpt>
      <trkpt lat="46.55983" lon="5.5283">
        <ele>491.2</ele>
        <time>2022-03-21T15:40:30Z</time>
      </trkpt>
      <trkpt lat="46.55989" lon="5.5283">
        <ele>491.2</ele>
        <time>2022-03-21T15:40:31Z</time>
      </trkpt>
      <trkpt lat="46.55995" lon="5.5283">
        <ele>491.2</ele>
        <time>2022-03-21T15:40:32Z</time>
      </trkpt>
      <trkpt lat="46.56001" lon="5.5283">
        <ele>491.2</ele>
        <time>2022-03-21T15:40:33Z</time>
      </trkpt>
      <trkpt lat="46.56007" lon="5.52831">
        <ele>491.2</ele>
        <time>2022-03-21T15:40:34Z</time>
      </trkpt>
      <trkpt lat="46.56013" lon="5.52831">
        <ele>491.4</ele>
        <time>2022-03-21T15:40:35Z</time>
      </trkpt>
      <trkpt lat="46.56019" lon="5.52831">
        <ele>491.4</ele>
        <time>2022-03-21T15:40:36Z</time>
      </trkpt>
      <trkpt lat="46.56024" lon="5.52831">
        <ele>491.4</ele>
        <time>2022-03-21T15:40:37Z</time>
      </trkpt>
      <trkpt lat="46.5603" lon="5.5283">
        <ele>491.4</ele>
        <time>2022-03-21T15:40:38Z</time>
      </trkpt>
      <trkpt lat="46.56035" lon="5.5283">
        <ele>491.4</ele>
        <time>2022-03-21T15:40:39Z</time>
      </trkpt>
      <trkpt lat="46.5604" lon="5.5283">
        <ele>491.4</ele>
        <time>2022-03-21T15:40:40Z</time>
      </trkpt>
      <trkpt lat="46.56046" lon="5.5283">
        <ele>491.6</ele>
        <time>2022-03-21T15:40:41Z</time>
      </trkpt>
      <trkpt lat="46.56051" lon="5.5283">
        <ele>491.6</ele>
        <time>2022-03-21T15:40:42Z</time>
      </trkpt>
      <trkpt lat="46.56056" lon="5.5283">
        <ele>491.6</ele>
        <time>2022-03-21T15:40:43Z</time>
      </trkpt>
      <trkpt lat="46.56061" lon="5.5283">
        <ele>491.6</ele>
        <time>2022-03-21T15:40:44Z</time>
      </trkpt>
      <trkpt lat="46.56066" lon="5.5283">
        <ele>491.6</ele>
        <time>2022-03-21T15:40:45Z</time>
      </trkpt>
      <trkpt lat="46.56071" lon="5.5283">
        <ele>491.6</ele>
        <time>2022-03-21T15:40:46Z</time>
      </trkpt>
      <trkpt lat="46.56077" lon="5.5283">
        <ele>491.6</ele>
        <time>2022-03-21T15:40:47Z</time>
      </trkpt>
      <trkpt lat="46.56082" lon="5.5283">
        <ele>491.6</ele>
        <time>2022-03-21T15:40:48Z</time>
      </trkpt>
      <trkpt lat="46.56087" lon="5.5283">
        <ele>491.6</ele>
        <time>2022-03-21T15:40:49Z</time>
      </trkpt>
      <trkpt lat="46.56093" lon="5.5283">
        <ele>491.6</ele>
        <time>2022-03-21T15:40:50Z</time>
      </trkpt>
      <trkpt lat="46.56099" lon="5.5283">
        <ele>491.6</ele>
        <time>2022-03-21T15:40:51Z</time>
      </trkpt>
      <trkpt lat="46.56104" lon="5.5283">
        <ele>491.6</ele>
        <time>2022-03-21T15:40:52Z</time>
      </trkpt>
      <trkpt lat="46.5611" lon="5.5283">
        <ele>491.6</ele>
        <time>2022-03-21T15:40:53Z</time>
      </trkpt>
      <trkpt lat="46.56116" lon="5.5283">
        <ele>491.4</ele>
        <time>2022-03-21T15:40:54Z</time>
      </trkpt>
      <trkpt lat="46.56122" lon="5.5283">
        <ele>491.4</ele>
        <time>2022-03-21T15:40:55Z</time>
      </trkpt>
      <trkpt lat="46.56128" lon="5.5283">
        <ele>491.4</ele>
        <time>2022-03-21T15:40:56Z</time>
      </trkpt>
      <trkpt lat="46.56134" lon="5.5283">
        <ele>491.4</ele>
        <time>2022-03-21T15:40:57Z</time>
      </trkpt>
      <trkpt lat="46.56141" lon="5.5283">
        <ele>491</ele>
        <time>2022-03-21T15:40:58Z</time>
      </trkpt>
      <trkpt lat="46.56147" lon="5.5283">
        <ele>491</ele>
        <time>2022-03-21T15:40:59Z</time>
      </trkpt>
      <trkpt lat="46.56154" lon="5.5283">
        <ele>490.8</ele>
        <time>2022-03-21T15:41:00Z</time>
      </trkpt>
      <trkpt lat="46.5616" lon="5.5283">
        <ele>490.8</ele>
        <time>2022-03-21T15:41:01Z</time>
      </trkpt>
      <trkpt lat="46.56167" lon="5.52831">
        <ele>490.6</ele>
        <time>2022-03-21T15:41:02Z</time>
      </trkpt>
      <trkpt lat="46.56173" lon="5.52831">
        <ele>490.6</ele>
        <time>2022-03-21T15:41:03Z</time>
      </trkpt>
      <trkpt lat="46.5618" lon="5.52831">
        <ele>490.4</ele>
        <time>2022-03-21T15:41:04Z</time>
      </trkpt>
      <trkpt lat="46.56187" lon="5.52832">
        <ele>490.4</ele>
        <time>2022-03-21T15:41:05Z</time>
      </trkpt>
      <trkpt lat="46.56193" lon="5.52832">
        <ele>490.4</ele>
        <time>2022-03-21T15:41:06Z</time>
      </trkpt>
      <trkpt lat="46.562" lon="5.52832">
        <ele>490.4</ele>
        <time>2022-03-21T15:41:07Z</time>
      </trkpt>
      <trkpt lat="46.56207" lon="5.52832">
        <ele>490</ele>
        <time>2022-03-21T15:41:08Z</time>
      </trkpt>
      <trkpt lat="46.56214" lon="5.52832">
        <ele>490</ele>
        <time>2022-03-21T15:41:09Z</time>
      </trkpt>
      <trkpt lat="46.5622" lon="5.52832">
        <ele>490</ele>
        <time>2022-03-21T15:41:10Z</time>
      </trkpt>
      <trkpt lat="46.56226" lon="5.52832">
        <ele>490</ele>
        <time>2022-03-21T15:41:11Z</time>
      </trkpt>
      <trkpt lat="46.56233" lon="5.52832">
        <ele>490</ele>
        <time>2022-03-21T15:41:12Z</time>
      </trkpt>
      <trkpt lat="46.56239" lon="5.52832">
        <ele>490</ele>
        <time>2022-03-21T15:41:13Z</time>
      </trkpt>
      <trkpt lat="46.56245" lon="5.52832">
        <ele>489.8</ele>
        <time>2022-03-21T15:41:14Z</time>
      </trkpt>
      <trkpt lat="46.56251" lon="5.52832">
        <ele>489.8</ele>
        <time>2022-03-21T15:41:15Z</time>
      </trkpt>
      <trkpt lat="46.56258" lon="5.52832">
        <ele>489.6</ele>
        <time>2022-03-21T15:41:16Z</time>
      </trkpt>
      <trkpt lat="46.56264" lon="5.52833">
        <ele>489.6</ele>
        <time>2022-03-21T15:41:17Z</time>
      </trkpt>
      <trkpt lat="46.56271" lon="5.52833">
        <ele>489.2</ele>
        <time>2022-03-21T15:41:18Z</time>
      </trkpt>
      <trkpt lat="46.56278" lon="5.52833">
        <ele>489.2</ele>
        <time>2022-03-21T15:41:19Z</time>
      </trkpt>
      <trkpt lat="46.56284" lon="5.52833">
        <ele>489.2</ele>
        <time>2022-03-21T15:41:20Z</time>
      </trkpt>
      <trkpt lat="46.56291" lon="5.52833">
        <ele>488.8</ele>
        <time>2022-03-21T15:41:21Z</time>
      </trkpt>
      <trkpt lat="46.56298" lon="5.52834">
        <ele>488.8</ele>
        <time>2022-03-21T15:41:22Z</time>
      </trkpt>
      <trkpt lat="46.56305" lon="5.52834">
        <ele>488.6</ele>
        <time>2022-03-21T15:41:23Z</time>
      </trkpt>
      <trkpt lat="46.56311" lon="5.52833">
        <ele>488.6</ele>
        <time>2022-03-21T15:41:24Z</time>
      </trkpt>
      <trkpt lat="46.56318" lon="5.52833">
        <ele>488.6</ele>
        <time>2022-03-21T15:41:25Z</time>
      </trkpt>
      <trkpt lat="46.56325" lon="5.52833">
        <ele>488.6</ele>
        <time>2022-03-21T15:41:26Z</time>
      </trkpt>
      <trkpt lat="46.56332" lon="5.52833">
        <ele>488.4</ele>
        <time>2022-03-21T15:41:27Z</time>
      </trkpt>
      <trkpt lat="46.56339" lon="5.52833">
        <ele>488.4</ele>
        <time>2022-03-21T15:41:28Z</time>
      </trkpt>
      <trkpt lat="46.56345" lon="5.52833">
        <ele>488.4</ele>
        <time>2022-03-21T15:41:29Z</time>
      </trkpt>
      <trkpt lat="46.56352" lon="5.52833">
        <ele>488.4</ele>
        <time>2022-03-21T15:41:30Z</time>
      </trkpt>
      <trkpt lat="46.56365" lon="5.52833">
        <ele>488.2</ele>
        <time>2022-03-21T15:41:31Z</time>
      </trkpt>
      <trkpt lat="46.56372" lon="5.52833">
        <ele>488.2</ele>
        <time>2022-03-21T15:41:32Z</time>
      </trkpt>
      <trkpt lat="46.56378" lon="5.52833">
        <ele>488.2</ele>
        <time>2022-03-21T15:41:33Z</time>
      </trkpt>
      <trkpt lat="46.56385" lon="5.52833">
        <ele>488.2</ele>
        <time>2022-03-21T15:41:34Z</time>
      </trkpt>
      <trkpt lat="46.56392" lon="5.52833">
        <ele>488.2</ele>
        <time>2022-03-21T15:41:35Z</time>
      </trkpt>
      <trkpt lat="46.56398" lon="5.52834">
        <ele>488.2</ele>
        <time>2022-03-21T15:41:36Z</time>
      </trkpt>
      <trkpt lat="46.56404" lon="5.52834">
        <ele>488.2</ele>
        <time>2022-03-21T15:41:37Z</time>
      </trkpt>
      <trkpt lat="46.56411" lon="5.52834">
        <ele>488.2</ele>
        <time>2022-03-21T15:41:38Z</time>
      </trkpt>
      <trkpt lat="46.56417" lon="5.52834">
        <ele>488.2</ele>
        <time>2022-03-21T15:41:39Z</time>
      </trkpt>
      <trkpt lat="46.56423" lon="5.52834">
        <ele>488</ele>
        <time>2022-03-21T15:41:40Z</time>
      </trkpt>
      <trkpt lat="46.56429" lon="5.52835">
        <ele>488</ele>
        <time>2022-03-21T15:41:41Z</time>
      </trkpt>
      <trkpt lat="46.56435" lon="5.52835">
        <ele>488</ele>
        <time>2022-03-21T15:41:42Z</time>
      </trkpt>
      <trkpt lat="46.56441" lon="5.52835">
        <ele>488</ele>
        <time>2022-03-21T15:41:43Z</time>
      </trkpt>
      <trkpt lat="46.56447" lon="5.52835">
        <ele>488</ele>
        <time>2022-03-21T15:41:44Z</time>
      </trkpt>
      <trkpt lat="46.56453" lon="5.52834">
        <ele>488</ele>
        <time>2022-03-21T15:41:45Z</time>
      </trkpt>
      <trkpt lat="46.56459" lon="5.52833">
        <ele>488</ele>
        <time>2022-03-21T15:41:46Z</time>
      </trkpt>
      <trkpt lat="46.56464" lon="5.52831">
        <ele>488</ele>
        <time>2022-03-21T15:41:47Z</time>
      </trkpt>
      <trkpt lat="46.5647" lon="5.52828">
        <ele>488</ele>
        <time>2022-03-21T15:41:48Z</time>
      </trkpt>
      <trkpt lat="46.56475" lon="5.52825">
        <ele>488</ele>
        <time>2022-03-21T15:41:49Z</time>
      </trkpt>
      <trkpt lat="46.5648" lon="5.52821">
        <ele>488.2</ele>
        <time>2022-03-21T15:41:50Z</time>
      </trkpt>
      <trkpt lat="46.56485" lon="5.52817">
        <ele>488.2</ele>
        <time>2022-03-21T15:41:51Z</time>
      </trkpt>
      <trkpt lat="46.56491" lon="5.52813">
        <ele>488.2</ele>
        <time>2022-03-21T15:41:52Z</time>
      </trkpt>
      <trkpt lat="46.56496" lon="5.52809">
        <ele>488.2</ele>
        <time>2022-03-21T15:41:53Z</time>
      </trkpt>
      <trkpt lat="46.56501" lon="5.52805">
        <ele>488.2</ele>
        <time>2022-03-21T15:41:54Z</time>
      </trkpt>
      <trkpt lat="46.56507" lon="5.52801">
        <ele>488.2</ele>
        <time>2022-03-21T15:41:55Z</time>
      </trkpt>
      <trkpt lat="46.56512" lon="5.52796">
        <ele>488.2</ele>
        <time>2022-03-21T15:41:56Z</time>
      </trkpt>
      <trkpt lat="46.56517" lon="5.52792">
        <ele>488</ele>
        <time>2022-03-21T15:41:57Z</time>
      </trkpt>
      <trkpt lat="46.56522" lon="5.52788">
        <ele>488</ele>
        <time>2022-03-21T15:41:58Z</time>
      </trkpt>
      <trkpt lat="46.56528" lon="5.52784">
        <ele>488</ele>
        <time>2022-03-21T15:41:59Z</time>
      </trkpt>
      <trkpt lat="46.56533" lon="5.5278">
        <ele>488</ele>
        <time>2022-03-21T15:42:00Z</time>
      </trkpt>
      <trkpt lat="46.56538" lon="5.52775">
        <ele>488</ele>
        <time>2022-03-21T15:42:01Z</time>
      </trkpt>
      <trkpt lat="46.56543" lon="5.52771">
        <ele>488</ele>
        <time>2022-03-21T15:42:02Z</time>
      </trkpt>
      <trkpt lat="46.56548" lon="5.52766">
        <ele>488</ele>
        <time>2022-03-21T15:42:03Z</time>
      </trkpt>
      <trkpt lat="46.56553" lon="5.52761">
        <ele>488</ele>
        <time>2022-03-21T15:42:04Z</time>
      </trkpt>
      <trkpt lat="46.56558" lon="5.52757">
        <ele>488</ele>
        <time>2022-03-21T15:42:05Z</time>
      </trkpt>
      <trkpt lat="46.56563" lon="5.52753">
        <ele>488</ele>
        <time>2022-03-21T15:42:06Z</time>
      </trkpt>
      <trkpt lat="46.56568" lon="5.52748">
        <ele>488</ele>
        <time>2022-03-21T15:42:07Z</time>
      </trkpt>
      <trkpt lat="46.56572" lon="5.52744">
        <ele>488</ele>
        <time>2022-03-21T15:42:08Z</time>
      </trkpt>
      <trkpt lat="46.56577" lon="5.5274">
        <ele>488</ele>
        <time>2022-03-21T15:42:09Z</time>
      </trkpt>
      <trkpt lat="46.56581" lon="5.52736">
        <ele>488.2</ele>
        <time>2022-03-21T15:42:10Z</time>
      </trkpt>
      <trkpt lat="46.56585" lon="5.52732">
        <ele>488.2</ele>
        <time>2022-03-21T15:42:11Z</time>
      </trkpt>
      <trkpt lat="46.56589" lon="5.52728">
        <ele>488.4</ele>
        <time>2022-03-21T15:42:12Z</time>
      </trkpt>
      <trkpt lat="46.56593" lon="5.52724">
        <ele>488.4</ele>
        <time>2022-03-21T15:42:13Z</time>
      </trkpt>
      <trkpt lat="46.56596" lon="5.5272">
        <ele>488.8</ele>
        <time>2022-03-21T15:42:14Z</time>
      </trkpt>
      <trkpt lat="46.566" lon="5.52717">
        <ele>488.8</ele>
        <time>2022-03-21T15:42:15Z</time>
      </trkpt>
      <trkpt lat="46.56603" lon="5.52713">
        <ele>489.2</ele>
        <time>2022-03-21T15:42:16Z</time>
      </trkpt>
      <trkpt lat="46.56607" lon="5.5271">
        <ele>489.2</ele>
        <time>2022-03-21T15:42:17Z</time>
      </trkpt>
      <trkpt lat="46.56611" lon="5.52706">
        <ele>489.4</ele>
        <time>2022-03-21T15:42:18Z</time>
      </trkpt>
      <trkpt lat="46.56614" lon="5.52703">
        <ele>489.6</ele>
        <time>2022-03-21T15:42:19Z</time>
      </trkpt>
      <trkpt lat="46.56618" lon="5.52699">
        <ele>489.6</ele>
        <time>2022-03-21T15:42:20Z</time>
      </trkpt>
      <trkpt lat="46.56621" lon="5.52696">
        <ele>490</ele>
        <time>2022-03-21T15:42:21Z</time>
      </trkpt>
      <trkpt lat="46.56624" lon="5.52692">
        <ele>490</ele>
        <time>2022-03-21T15:42:22Z</time>
      </trkpt>
      <trkpt lat="46.56627" lon="5.52689">
        <ele>490.2</ele>
        <time>2022-03-21T15:42:23Z</time>
      </trkpt>
      <trkpt lat="46.56631" lon="5.52685">
        <ele>490.2</ele>
        <time>2022-03-21T15:42:24Z</time>
      </trkpt>
      <trkpt lat="46.56634" lon="5.52681">
        <ele>490.2</ele>
        <time>2022-03-21T15:42:25Z</time>
      </trkpt>
      <trkpt lat="46.56638" lon="5.52678">
        <ele>490.2</ele>
        <time>2022-03-21T15:42:26Z</time>
      </trkpt>
      <trkpt lat="46.56641" lon="5.52674">
        <ele>490.4</ele>
        <time>2022-03-21T15:42:27Z</time>
      </trkpt>
      <trkpt lat="46.56645" lon="5.5267">
        <ele>490.4</ele>
        <time>2022-03-21T15:42:28Z</time>
      </trkpt>
      <trkpt lat="46.56649" lon="5.52666">
        <ele>490.4</ele>
        <time>2022-03-21T15:42:29Z</time>
      </trkpt>
      <trkpt lat="46.56654" lon="5.52662">
        <ele>490.4</ele>
        <time>2022-03-21T15:42:30Z</time>
      </trkpt>
      <trkpt lat="46.56658" lon="5.52658">
        <ele>490.4</ele>
        <time>2022-03-21T15:42:31Z</time>
      </trkpt>
      <trkpt lat="46.56663" lon="5.52655">
        <ele>490.2</ele>
        <time>2022-03-21T15:42:32Z</time>
      </trkpt>
      <trkpt lat="46.56668" lon="5.52652">
        <ele>490.2</ele>
        <time>2022-03-21T15:42:33Z</time>
      </trkpt>
      <trkpt lat="46.56673" lon="5.5265">
        <ele>490.2</ele>
        <time>2022-03-21T15:42:34Z</time>
      </trkpt>
      <trkpt lat="46.56678" lon="5.52648">
        <ele>490.2</ele>
        <time>2022-03-21T15:42:35Z</time>
      </trkpt>
      <trkpt lat="46.56683" lon="5.52647">
        <ele>490.2</ele>
        <time>2022-03-21T15:42:36Z</time>
      </trkpt>
      <trkpt lat="46.56688" lon="5.52645">
        <ele>490.4</ele>
        <time>2022-03-21T15:42:37Z</time>
      </trkpt>
      <trkpt lat="46.56693" lon="5.52644">
        <ele>490.4</ele>
        <time>2022-03-21T15:42:38Z</time>
      </trkpt>
      <trkpt lat="46.56698" lon="5.52643">
        <ele>490.8</ele>
        <time>2022-03-21T15:42:39Z</time>
      </trkpt>
      <trkpt lat="46.56703" lon="5.52642">
        <ele>490.8</ele>
        <time>2022-03-21T15:42:40Z</time>
      </trkpt>
      <trkpt lat="46.56707" lon="5.52641">
        <ele>491</ele>
        <time>2022-03-21T15:42:41Z</time>
      </trkpt>
      <trkpt lat="46.56712" lon="5.5264">
        <ele>491</ele>
        <time>2022-03-21T15:42:42Z</time>
      </trkpt>
      <trkpt lat="46.56717" lon="5.52639">
        <ele>491.2</ele>
        <time>2022-03-21T15:42:43Z</time>
      </trkpt>
      <trkpt lat="46.56721" lon="5.52639">
        <ele>491.2</ele>
        <time>2022-03-21T15:42:44Z</time>
      </trkpt>
      <trkpt lat="46.56726" lon="5.52638">
        <ele>491.2</ele>
        <time>2022-03-21T15:42:45Z</time>
      </trkpt>
      <trkpt lat="46.56731" lon="5.52638">
        <ele>491.6</ele>
        <time>2022-03-21T15:42:46Z</time>
      </trkpt>
      <trkpt lat="46.56735" lon="5.52637">
        <ele>491.6</ele>
        <time>2022-03-21T15:42:47Z</time>
      </trkpt>
      <trkpt lat="46.5674" lon="5.52636">
        <ele>491.6</ele>
        <time>2022-03-21T15:42:48Z</time>
      </trkpt>
      <trkpt lat="46.56744" lon="5.52635">
        <ele>491.8</ele>
        <time>2022-03-21T15:42:49Z</time>
      </trkpt>
      <trkpt lat="46.56749" lon="5.52635">
        <ele>491.8</ele>
        <time>2022-03-21T15:42:50Z</time>
      </trkpt>
      <trkpt lat="46.56753" lon="5.52634">
        <ele>491.8</ele>
        <time>2022-03-21T15:42:51Z</time>
      </trkpt>
      <trkpt lat="46.56757" lon="5.52633">
        <ele>492.2</ele>
        <time>2022-03-21T15:42:52Z</time>
      </trkpt>
      <trkpt lat="46.56762" lon="5.52632">
        <ele>492.2</ele>
        <time>2022-03-21T15:42:53Z</time>
      </trkpt>
      <trkpt lat="46.56766" lon="5.52632">
        <ele>492.2</ele>
        <time>2022-03-21T15:42:54Z</time>
      </trkpt>
      <trkpt lat="46.56771" lon="5.52631">
        <ele>492.4</ele>
        <time>2022-03-21T15:42:55Z</time>
      </trkpt>
      <trkpt lat="46.56775" lon="5.5263">
        <ele>492.4</ele>
        <time>2022-03-21T15:42:56Z</time>
      </trkpt>
      <trkpt lat="46.56779" lon="5.52628">
        <ele>492.8</ele>
        <time>2022-03-21T15:42:57Z</time>
      </trkpt>
      <trkpt lat="46.56783" lon="5.52627">
        <ele>492.8</ele>
        <time>2022-03-21T15:42:58Z</time>
      </trkpt>
      <trkpt lat="46.56787" lon="5.52625">
        <ele>492.8</ele>
        <time>2022-03-21T15:42:59Z</time>
      </trkpt>
      <trkpt lat="46.56791" lon="5.52624">
        <ele>493</ele>
        <time>2022-03-21T15:43:00Z</time>
      </trkpt>
      <trkpt lat="46.56795" lon="5.52622">
        <ele>493</ele>
        <time>2022-03-21T15:43:01Z</time>
      </trkpt>
      <trkpt lat="46.56799" lon="5.52621">
        <ele>493.2</ele>
        <time>2022-03-21T15:43:02Z</time>
      </trkpt>
      <trkpt lat="46.56803" lon="5.52621">
        <ele>493.2</ele>
        <time>2022-03-21T15:43:03Z</time>
      </trkpt>
      <trkpt lat="46.56807" lon="5.5262">
        <ele>493.2</ele>
        <time>2022-03-21T15:43:04Z</time>
      </trkpt>
      <trkpt lat="46.56812" lon="5.5262">
        <ele>493.6</ele>
        <time>2022-03-21T15:43:05Z</time>
      </trkpt>
      <trkpt lat="46.56816" lon="5.5262">
        <ele>493.6</ele>
        <time>2022-03-21T15:43:06Z</time>
      </trkpt>
      <trkpt lat="46.56821" lon="5.5262">
        <ele>493.6</ele>
        <time>2022-03-21T15:43:07Z</time>
      </trkpt>
      <trkpt lat="46.56826" lon="5.5262">
        <ele>493.6</ele>
        <time>2022-03-21T15:43:08Z</time>
      </trkpt>
      <trkpt lat="46.56831" lon="5.52619">
        <ele>493.6</ele>
        <time>2022-03-21T15:43:09Z</time>
      </trkpt>
      <trkpt lat="46.56836" lon="5.5262">
        <ele>493.6</ele>
        <time>2022-03-21T15:43:10Z</time>
      </trkpt>
      <trkpt lat="46.56841" lon="5.5262">
        <ele>493.6</ele>
        <time>2022-03-21T15:43:11Z</time>
      </trkpt>
      <trkpt lat="46.56846" lon="5.5262">
        <ele>493.6</ele>
        <time>2022-03-21T15:43:12Z</time>
      </trkpt>
      <trkpt lat="46.56852" lon="5.5262">
        <ele>493.6</ele>
        <time>2022-03-21T15:43:13Z</time>
      </trkpt>
      <trkpt lat="46.56857" lon="5.52619">
        <ele>493.6</ele>
        <time>2022-03-21T15:43:14Z</time>
      </trkpt>
      <trkpt lat="46.56862" lon="5.52619">
        <ele>493.6</ele>
        <time>2022-03-21T15:43:15Z</time>
      </trkpt>
      <trkpt lat="46.56868" lon="5.52619">
        <ele>493.6</ele>
        <time>2022-03-21T15:43:16Z</time>
      </trkpt>
      <trkpt lat="46.56873" lon="5.52618">
        <ele>493.6</ele>
        <time>2022-03-21T15:43:17Z</time>
      </trkpt>
      <trkpt lat="46.56878" lon="5.52617">
        <ele>493.6</ele>
        <time>2022-03-21T15:43:18Z</time>
      </trkpt>
      <trkpt lat="46.56883" lon="5.52616">
        <ele>493.6</ele>
        <time>2022-03-21T15:43:19Z</time>
      </trkpt>
      <trkpt lat="46.56888" lon="5.52615">
        <ele>493.8</ele>
        <time>2022-03-21T15:43:20Z</time>
      </trkpt>
      <trkpt lat="46.56893" lon="5.52613">
        <ele>493.8</ele>
        <time>2022-03-21T15:43:21Z</time>
      </trkpt>
      <trkpt lat="46.56897" lon="5.52612">
        <ele>494</ele>
        <time>2022-03-21T15:43:22Z</time>
      </trkpt>
      <trkpt lat="46.56902" lon="5.5261">
        <ele>494</ele>
        <time>2022-03-21T15:43:23Z</time>
      </trkpt>
      <trkpt lat="46.56906" lon="5.52608">
        <ele>494</ele>
        <time>2022-03-21T15:43:24Z</time>
      </trkpt>
      <trkpt lat="46.5691" lon="5.52606">
        <ele>494.4</ele>
        <time>2022-03-21T15:43:25Z</time>
      </trkpt>
      <trkpt lat="46.56915" lon="5.52604">
        <ele>494.4</ele>
        <time>2022-03-21T15:43:26Z</time>
      </trkpt>
      <trkpt lat="46.56919" lon="5.52602">
        <ele>494.4</ele>
        <time>2022-03-21T15:43:27Z</time>
      </trkpt>
      <trkpt lat="46.56924" lon="5.526">
        <ele>494.4</ele>
        <time>2022-03-21T15:43:28Z</time>
      </trkpt>
      <trkpt lat="46.56928" lon="5.52598">
        <ele>494.4</ele>
        <time>2022-03-21T15:43:29Z</time>
      </trkpt>
      <trkpt lat="46.56933" lon="5.52597">
        <ele>494.4</ele>
        <time>2022-03-21T15:43:30Z</time>
      </trkpt>
      <trkpt lat="46.56939" lon="5.52595">
        <ele>494</ele>
        <time>2022-03-21T15:43:31Z</time>
      </trkpt>
      <trkpt lat="46.56944" lon="5.52592">
        <ele>494</ele>
        <time>2022-03-21T15:43:32Z</time>
      </trkpt>
      <trkpt lat="46.5695" lon="5.5259">
        <ele>493.8</ele>
        <time>2022-03-21T15:43:33Z</time>
      </trkpt>
      <trkpt lat="46.56956" lon="5.52587">
        <ele>493.8</ele>
        <time>2022-03-21T15:43:34Z</time>
      </trkpt>
      <trkpt lat="46.56962" lon="5.52584">
        <ele>493.4</ele>
        <time>2022-03-21T15:43:35Z</time>
      </trkpt>
      <trkpt lat="46.56968" lon="5.52581">
        <ele>493.2</ele>
        <time>2022-03-21T15:43:36Z</time>
      </trkpt>
      <trkpt lat="46.56974" lon="5.52578">
        <ele>493</ele>
        <time>2022-03-21T15:43:37Z</time>
      </trkpt>
      <trkpt lat="46.56981" lon="5.52576">
        <ele>492.6</ele>
        <time>2022-03-21T15:43:38Z</time>
      </trkpt>
      <trkpt lat="46.56989" lon="5.52575">
        <ele>492.4</ele>
        <time>2022-03-21T15:43:39Z</time>
      </trkpt>
      <trkpt lat="46.56996" lon="5.52575">
        <ele>492.4</ele>
        <time>2022-03-21T15:43:40Z</time>
      </trkpt>
      <trkpt lat="46.57004" lon="5.52576">
        <ele>492</ele>
        <time>2022-03-21T15:43:41Z</time>
      </trkpt>
      <trkpt lat="46.57011" lon="5.52577">
        <ele>492</ele>
        <time>2022-03-21T15:43:42Z</time>
      </trkpt>
      <trkpt lat="46.57018" lon="5.52579">
        <ele>491.8</ele>
        <time>2022-03-21T15:43:43Z</time>
      </trkpt>
      <trkpt lat="46.57025" lon="5.52582">
        <ele>491.8</ele>
        <time>2022-03-21T15:43:44Z</time>
      </trkpt>
      <trkpt lat="46.57031" lon="5.52585">
        <ele>491.8</ele>
        <time>2022-03-21T15:43:45Z</time>
      </trkpt>
      <trkpt lat="46.57037" lon="5.52587">
        <ele>491.8</ele>
        <time>2022-03-21T15:43:46Z</time>
      </trkpt>
      <trkpt lat="46.57043" lon="5.52588">
        <ele>491.8</ele>
        <time>2022-03-21T15:43:47Z</time>
      </trkpt>
      <trkpt lat="46.57049" lon="5.52588">
        <ele>491.8</ele>
        <time>2022-03-21T15:43:48Z</time>
      </trkpt>
      <trkpt lat="46.57055" lon="5.52586">
        <ele>492</ele>
        <time>2022-03-21T15:43:49Z</time>
      </trkpt>
      <trkpt lat="46.5706" lon="5.52583">
        <ele>492</ele>
        <time>2022-03-21T15:43:50Z</time>
      </trkpt>
      <trkpt lat="46.57066" lon="5.5258">
        <ele>492.4</ele>
        <time>2022-03-21T15:43:52Z</time>
      </trkpt>
      <trkpt lat="46.57071" lon="5.52578">
        <ele>492.4</ele>
        <time>2022-03-21T15:43:53Z</time>
      </trkpt>
      <trkpt lat="46.57077" lon="5.52575">
        <ele>492.4</ele>
        <time>2022-03-21T15:43:54Z</time>
      </trkpt>
      <trkpt lat="46.57081" lon="5.52572">
        <ele>492.6</ele>
        <time>2022-03-21T15:43:55Z</time>
      </trkpt>
      <trkpt lat="46.57086" lon="5.5257">
        <ele>492.6</ele>
        <time>2022-03-21T15:43:56Z</time>
      </trkpt>
      <trkpt lat="46.5709" lon="5.52568">
        <ele>492.8</ele>
        <time>2022-03-21T15:43:57Z</time>
      </trkpt>
      <trkpt lat="46.57094" lon="5.52566">
        <ele>492.8</ele>
        <time>2022-03-21T15:43:58Z</time>
      </trkpt>
      <trkpt lat="46.57098" lon="5.52564">
        <ele>493</ele>
        <time>2022-03-21T15:43:59Z</time>
      </trkpt>
      <trkpt lat="46.57101" lon="5.52563">
        <ele>493</ele>
        <time>2022-03-21T15:44:00Z</time>
      </trkpt>
      <trkpt lat="46.57104" lon="5.52562">
        <ele>493.4</ele>
        <time>2022-03-21T15:44:01Z</time>
      </trkpt>
      <trkpt lat="46.57106" lon="5.52562">
        <ele>493.4</ele>
        <time>2022-03-21T15:44:02Z</time>
      </trkpt>
      <trkpt lat="46.57109" lon="5.52562">
        <ele>493.6</ele>
        <time>2022-03-21T15:44:03Z</time>
      </trkpt>
      <trkpt lat="46.57109" lon="5.52562">
        <ele>493.6</ele>
        <time>2022-03-21T15:44:04Z</time>
      </trkpt>
      <trkpt lat="46.57109" lon="5.52562">
        <ele>493.6</ele>
        <time>2022-03-21T15:44:05Z</time>
      </trkpt>
      <trkpt lat="46.5711" lon="5.52562">
        <ele>494</ele>
        <time>2022-03-21T15:44:12Z</time>
      </trkpt>
      <trkpt lat="46.5711" lon="5.52561">
        <ele>494</ele>
        <time>2022-03-21T15:44:13Z</time>
      </trkpt>
      <trkpt lat="46.5711" lon="5.52561">
        <ele>494</ele>
        <time>2022-03-21T15:44:14Z</time>
      </trkpt>
      <trkpt lat="46.5711" lon="5.52561">
        <ele>494.2</ele>
        <time>2022-03-21T15:44:16Z</time>
      </trkpt>
      <trkpt lat="46.5711" lon="5.52561">
        <ele>494.2</ele>
        <time>2022-03-21T15:44:17Z</time>
      </trkpt>
      <trkpt lat="46.57111" lon="5.52561">
        <ele>494.2</ele>
        <time>2022-03-21T15:44:18Z</time>
      </trkpt>
      <trkpt lat="46.57111" lon="5.52561">
        <ele>494.2</ele>
        <time>2022-03-21T15:44:19Z</time>
      </trkpt>
      <trkpt lat="46.57111" lon="5.52561">
        <ele>494.2</ele>
        <time>2022-03-21T15:44:20Z</time>
      </trkpt>
      <trkpt lat="46.57111" lon="5.52561">
        <ele>494.2</ele>
        <time>2022-03-21T15:44:21Z</time>
      </trkpt>
      <trkpt lat="46.57112" lon="5.5256">
        <ele>494.6</ele>
        <time>2022-03-21T15:52:25Z</time>
      </trkpt>
      <trkpt lat="46.57112" lon="5.5256">
        <ele>494.6</ele>
        <time>2022-03-21T15:52:26Z</time>
      </trkpt>
      <trkpt lat="46.57112" lon="5.5256">
        <ele>494.6</ele>
        <time>2022-03-21T15:52:27Z</time>
      </trkpt>
      <trkpt lat="46.57112" lon="5.5256">
        <ele>494.6</ele>
        <time>2022-03-21T15:52:28Z</time>
      </trkpt>
      <trkpt lat="46.57113" lon="5.5256">
        <ele>494.6</ele>
        <time>2022-03-21T15:52:29Z</time>
      </trkpt>
      <trkpt lat="46.57113" lon="5.5256">
        <ele>494.6</ele>
        <time>2022-03-21T15:52:30Z</time>
      </trkpt>
      <trkpt lat="46.57113" lon="5.5256">
        <ele>494.6</ele>
        <time>2022-03-21T15:52:31Z</time>
      </trkpt>
      <trkpt lat="46.57113" lon="5.5256">
        <ele>494.6</ele>
        <time>2022-03-21T15:52:32Z</time>
      </trkpt>
      <trkpt lat="46.57114" lon="5.5256">
        <ele>494.6</ele>
        <time>2022-03-21T15:52:33Z</time>
      </trkpt>
      <trkpt lat="46.57114" lon="5.52559">
        <ele>494.6</ele>
        <time>2022-03-21T15:52:34Z</time>
      </trkpt>
      <trkpt lat="46.57114" lon="5.52558">
        <ele>494.6</ele>
        <time>2022-03-21T15:52:35Z</time>
      </trkpt>
      <trkpt lat="46.57115" lon="5.52558">
        <ele>494.6</ele>
        <time>2022-03-21T15:52:36Z</time>
      </trkpt>
      <trkpt lat="46.57115" lon="5.52558">
        <ele>494.6</ele>
        <time>2022-03-21T15:52:37Z</time>
      </trkpt>
      <trkpt lat="46.57118" lon="5.52555">
        <ele>494.8</ele>
        <time>2022-03-21T15:52:46Z</time>
      </trkpt>
      <trkpt lat="46.57119" lon="5.52554">
        <ele>494.8</ele>
        <time>2022-03-21T15:52:47Z</time>
      </trkpt>
      <trkpt lat="46.5712" lon="5.52553">
        <ele>494.8</ele>
        <time>2022-03-21T15:52:48Z</time>
      </trkpt>
      <trkpt lat="46.57121" lon="5.52551">
        <ele>495.2</ele>
        <time>2022-03-21T15:52:49Z</time>
      </trkpt>
      <trkpt lat="46.57123" lon="5.52551">
        <ele>495.2</ele>
        <time>2022-03-21T15:52:50Z</time>
      </trkpt>
      <trkpt lat="46.57125" lon="5.5255">
        <ele>495.2</ele>
        <time>2022-03-21T15:52:51Z</time>
      </trkpt>
      <trkpt lat="46.57127" lon="5.5255">
        <ele>495.4</ele>
        <time>2022-03-21T15:52:52Z</time>
      </trkpt>
      <trkpt lat="46.57129" lon="5.52549">
        <ele>495.4</ele>
        <time>2022-03-21T15:52:53Z</time>
      </trkpt>
      <trkpt lat="46.57131" lon="5.52548">
        <ele>495.4</ele>
        <time>2022-03-21T15:52:54Z</time>
      </trkpt>
      <trkpt lat="46.57133" lon="5.52547">
        <ele>495.6</ele>
        <time>2022-03-21T15:52:55Z</time>
      </trkpt>
      <trkpt lat="46.57135" lon="5.52546">
        <ele>496</ele>
        <time>2022-03-21T15:52:56Z</time>
      </trkpt>
      <trkpt lat="46.57137" lon="5.52545">
        <ele>496</ele>
        <time>2022-03-21T15:52:57Z</time>
      </trkpt>
      <trkpt lat="46.57139" lon="5.52544">
        <ele>496.2</ele>
        <time>2022-03-21T15:52:58Z</time>
      </trkpt>
      <trkpt lat="46.57141" lon="5.52544">
        <ele>496.2</ele>
        <time>2022-03-21T15:52:59Z</time>
      </trkpt>
      <trkpt lat="46.57144" lon="5.52543">
        <ele>496.4</ele>
        <time>2022-03-21T15:53:00Z</time>
      </trkpt>
      <trkpt lat="46.57146" lon="5.52542">
        <ele>496.6</ele>
        <time>2022-03-21T15:53:01Z</time>
      </trkpt>
      <trkpt lat="46.57148" lon="5.5254">
        <ele>496.6</ele>
        <time>2022-03-21T15:53:02Z</time>
      </trkpt>
      <trkpt lat="46.57151" lon="5.52539">
        <ele>496.8</ele>
        <time>2022-03-21T15:53:03Z</time>
      </trkpt>
      <trkpt lat="46.57153" lon="5.52537">
        <ele>497.2</ele>
        <time>2022-03-21T15:53:04Z</time>
      </trkpt>
      <trkpt lat="46.57155" lon="5.52536">
        <ele>497.2</ele>
        <time>2022-03-21T15:53:05Z</time>
      </trkpt>
      <trkpt lat="46.57157" lon="5.52534">
        <ele>497.4</ele>
        <time>2022-03-21T15:53:06Z</time>
      </trkpt>
      <trkpt lat="46.5716" lon="5.52533">
        <ele>497.4</ele>
        <time>2022-03-21T15:53:07Z</time>
      </trkpt>
      <trkpt lat="46.57162" lon="5.52532">
        <ele>497.8</ele>
        <time>2022-03-21T15:53:08Z</time>
      </trkpt>
      <trkpt lat="46.57163" lon="5.52531">
        <ele>497.8</ele>
        <time>2022-03-21T15:53:09Z</time>
      </trkpt>
      <trkpt lat="46.57165" lon="5.52531">
        <ele>498</ele>
        <time>2022-03-21T15:53:10Z</time>
      </trkpt>
      <trkpt lat="46.57167" lon="5.5253">
        <ele>498</ele>
        <time>2022-03-21T15:53:11Z</time>
      </trkpt>
      <trkpt lat="46.57169" lon="5.52529">
        <ele>498.4</ele>
        <time>2022-03-21T15:53:12Z</time>
      </trkpt>
      <trkpt lat="46.57171" lon="5.52528">
        <ele>498.6</ele>
        <time>2022-03-21T15:53:13Z</time>
      </trkpt>
      <trkpt lat="46.57173" lon="5.52528">
        <ele>498.8</ele>
        <time>2022-03-21T15:53:14Z</time>
      </trkpt>
      <trkpt lat="46.57175" lon="5.52527">
        <ele>499</ele>
        <time>2022-03-21T15:53:15Z</time>
      </trkpt>
      <trkpt lat="46.57177" lon="5.52526">
        <ele>499.2</ele>
        <time>2022-03-21T15:53:16Z</time>
      </trkpt>
      <trkpt lat="46.57179" lon="5.52525">
        <ele>499.2</ele>
        <time>2022-03-21T15:53:17Z</time>
      </trkpt>
      <trkpt lat="46.57181" lon="5.52525">
        <ele>499.6</ele>
        <time>2022-03-21T15:53:18Z</time>
      </trkpt>
      <trkpt lat="46.57183" lon="5.52524">
        <ele>499.6</ele>
        <time>2022-03-21T15:53:19Z</time>
      </trkpt>
      <trkpt lat="46.57185" lon="5.52523">
        <ele>499.8</ele>
        <time>2022-03-21T15:53:20Z</time>
      </trkpt>
      <trkpt lat="46.57187" lon="5.52522">
        <ele>499.8</ele>
        <time>2022-03-21T15:53:21Z</time>
      </trkpt>
      <trkpt lat="46.57189" lon="5.5252">
        <ele>500.2</ele>
        <time>2022-03-21T15:53:22Z</time>
      </trkpt>
      <trkpt lat="46.5719" lon="5.52519">
        <ele>500.2</ele>
        <time>2022-03-21T15:53:23Z</time>
      </trkpt>
      <trkpt lat="46.57192" lon="5.52518">
        <ele>500.4</ele>
        <time>2022-03-21T15:53:24Z</time>
      </trkpt>
      <trkpt lat="46.57194" lon="5.52517">
        <ele>500.6</ele>
        <time>2022-03-21T15:53:25Z</time>
      </trkpt>
      <trkpt lat="46.57197" lon="5.52516">
        <ele>501</ele>
        <time>2022-03-21T15:53:26Z</time>
      </trkpt>
      <trkpt lat="46.57199" lon="5.52515">
        <ele>501.2</ele>
        <time>2022-03-21T15:53:27Z</time>
      </trkpt>
      <trkpt lat="46.57201" lon="5.52513">
        <ele>501.2</ele>
        <time>2022-03-21T15:53:28Z</time>
      </trkpt>
      <trkpt lat="46.57203" lon="5.52512">
        <ele>501.4</ele>
        <time>2022-03-21T15:53:29Z</time>
      </trkpt>
      <trkpt lat="46.57205" lon="5.52511">
        <ele>501.4</ele>
        <time>2022-03-21T15:53:30Z</time>
      </trkpt>
      <trkpt lat="46.57207" lon="5.5251">
        <ele>501.8</ele>
        <time>2022-03-21T15:53:31Z</time>
      </trkpt>
      <trkpt lat="46.57209" lon="5.52508">
        <ele>501.8</ele>
        <time>2022-03-21T15:53:32Z</time>
      </trkpt>
      <trkpt lat="46.57212" lon="5.52507">
        <ele>502</ele>
        <time>2022-03-21T15:53:33Z</time>
      </trkpt>
      <trkpt lat="46.57214" lon="5.52506">
        <ele>502</ele>
        <time>2022-03-21T15:53:34Z</time>
      </trkpt>
      <trkpt lat="46.57216" lon="5.52505">
        <ele>502.4</ele>
        <time>2022-03-21T15:53:35Z</time>
      </trkpt>
      <trkpt lat="46.57218" lon="5.52504">
        <ele>502.4</ele>
        <time>2022-03-21T15:53:36Z</time>
      </trkpt>
      <trkpt lat="46.57221" lon="5.52503">
        <ele>502.6</ele>
        <time>2022-03-21T15:53:37Z</time>
      </trkpt>
      <trkpt lat="46.57223" lon="5.52502">
        <ele>502.6</ele>
        <time>2022-03-21T15:53:38Z</time>
      </trkpt>
      <trkpt lat="46.57225" lon="5.525">
        <ele>502.8</ele>
        <time>2022-03-21T15:53:39Z</time>
      </trkpt>
      <trkpt lat="46.57228" lon="5.525">
        <ele>502.8</ele>
        <time>2022-03-21T15:53:40Z</time>
      </trkpt>
      <trkpt lat="46.5723" lon="5.52499">
        <ele>503.2</ele>
        <time>2022-03-21T15:53:41Z</time>
      </trkpt>
      <trkpt lat="46.57233" lon="5.52499">
        <ele>503.6</ele>
        <time>2022-03-21T15:53:42Z</time>
      </trkpt>
      <trkpt lat="46.57235" lon="5.52498">
        <ele>503.6</ele>
        <time>2022-03-21T15:53:43Z</time>
      </trkpt>
      <trkpt lat="46.57238" lon="5.52498">
        <ele>504</ele>
        <time>2022-03-21T15:53:44Z</time>
      </trkpt>
      <trkpt lat="46.5724" lon="5.52498">
        <ele>504</ele>
        <time>2022-03-21T15:53:45Z</time>
      </trkpt>
      <trkpt lat="46.57243" lon="5.52498">
        <ele>504.2</ele>
        <time>2022-03-21T15:53:46Z</time>
      </trkpt>
      <trkpt lat="46.57246" lon="5.52499">
        <ele>504.2</ele>
        <time>2022-03-21T15:53:47Z</time>
      </trkpt>
      <trkpt lat="46.57249" lon="5.525">
        <ele>504.4</ele>
        <time>2022-03-21T15:53:48Z</time>
      </trkpt>
      <trkpt lat="46.57251" lon="5.52501">
        <ele>504.4</ele>
        <time>2022-03-21T15:53:49Z</time>
      </trkpt>
      <trkpt lat="46.57254" lon="5.52501">
        <ele>504.4</ele>
        <time>2022-03-21T15:53:50Z</time>
      </trkpt>
      <trkpt lat="46.57257" lon="5.52502">
        <ele>504.8</ele>
        <time>2022-03-21T15:53:51Z</time>
      </trkpt>
      <trkpt lat="46.5726" lon="5.52502">
        <ele>504.8</ele>
        <time>2022-03-21T15:53:52Z</time>
      </trkpt>
      <trkpt lat="46.57262" lon="5.52503">
        <ele>505.2</ele>
        <time>2022-03-21T15:53:53Z</time>
      </trkpt>
      <trkpt lat="46.57265" lon="5.52504">
        <ele>505.2</ele>
        <time>2022-03-21T15:53:54Z</time>
      </trkpt>
      <trkpt lat="46.57268" lon="5.52505">
        <ele>505.4</ele>
        <time>2022-03-21T15:53:55Z</time>
      </trkpt>
      <trkpt lat="46.5727" lon="5.52506">
        <ele>505.4</ele>
        <time>2022-03-21T15:53:56Z</time>
      </trkpt>
      <trkpt lat="46.57273" lon="5.52507">
        <ele>505.8</ele>
        <time>2022-03-21T15:53:57Z</time>
      </trkpt>
      <trkpt lat="46.57275" lon="5.52508">
        <ele>505.8</ele>
        <time>2022-03-21T15:53:58Z</time>
      </trkpt>
      <trkpt lat="46.57278" lon="5.5251">
        <ele>505.8</ele>
        <time>2022-03-21T15:53:59Z</time>
      </trkpt>
      <trkpt lat="46.57281" lon="5.52512">
        <ele>506.2</ele>
        <time>2022-03-21T15:54:00Z</time>
      </trkpt>
      <trkpt lat="46.57283" lon="5.52513">
        <ele>506.2</ele>
        <time>2022-03-21T15:54:01Z</time>
      </trkpt>
      <trkpt lat="46.57286" lon="5.52515">
        <ele>506.4</ele>
        <time>2022-03-21T15:54:02Z</time>
      </trkpt>
      <trkpt lat="46.57288" lon="5.52517">
        <ele>506.4</ele>
        <time>2022-03-21T15:54:03Z</time>
      </trkpt>
      <trkpt lat="46.57291" lon="5.52518">
        <ele>506.8</ele>
        <time>2022-03-21T15:54:04Z</time>
      </trkpt>
      <trkpt lat="46.57293" lon="5.5252">
        <ele>507</ele>
        <time>2022-03-21T15:54:05Z</time>
      </trkpt>
      <trkpt lat="46.57296" lon="5.52521">
        <ele>507</ele>
        <time>2022-03-21T15:54:06Z</time>
      </trkpt>
      <trkpt lat="46.57298" lon="5.52523">
        <ele>507.4</ele>
        <time>2022-03-21T15:54:07Z</time>
      </trkpt>
      <trkpt lat="46.57301" lon="5.52524">
        <ele>507.4</ele>
        <time>2022-03-21T15:54:08Z</time>
      </trkpt>
      <trkpt lat="46.57303" lon="5.52526">
        <ele>507.6</ele>
        <time>2022-03-21T15:54:09Z</time>
      </trkpt>
      <trkpt lat="46.57306" lon="5.52527">
        <ele>507.6</ele>
        <time>2022-03-21T15:54:10Z</time>
      </trkpt>
      <trkpt lat="46.57309" lon="5.52528">
        <ele>508</ele>
        <time>2022-03-21T15:54:11Z</time>
      </trkpt>
      <trkpt lat="46.57312" lon="5.52529">
        <ele>508</ele>
        <time>2022-03-21T15:54:12Z</time>
      </trkpt>
      <trkpt lat="46.57314" lon="5.52531">
        <ele>508.2</ele>
        <time>2022-03-21T15:54:13Z</time>
      </trkpt>
      <trkpt lat="46.57317" lon="5.52533">
        <ele>508.2</ele>
        <time>2022-03-21T15:54:14Z</time>
      </trkpt>
      <trkpt lat="46.5732" lon="5.52535">
        <ele>508.6</ele>
        <time>2022-03-21T15:54:15Z</time>
      </trkpt>
      <trkpt lat="46.57322" lon="5.52536">
        <ele>508.6</ele>
        <time>2022-03-21T15:54:16Z</time>
      </trkpt>
      <trkpt lat="46.57325" lon="5.52538">
        <ele>509</ele>
        <time>2022-03-21T15:54:17Z</time>
      </trkpt>
      <trkpt lat="46.57328" lon="5.5254">
        <ele>509</ele>
        <time>2022-03-21T15:54:18Z</time>
      </trkpt>
      <trkpt lat="46.5733" lon="5.52541">
        <ele>509.2</ele>
        <time>2022-03-21T15:54:19Z</time>
      </trkpt>
      <trkpt lat="46.57333" lon="5.52543">
        <ele>509.6</ele>
        <time>2022-03-21T15:54:20Z</time>
      </trkpt>
      <trkpt lat="46.57336" lon="5.52544">
        <ele>509.6</ele>
        <time>2022-03-21T15:54:21Z</time>
      </trkpt>
      <trkpt lat="46.57339" lon="5.52545">
        <ele>509.8</ele>
        <time>2022-03-21T15:54:22Z</time>
      </trkpt>
      <trkpt lat="46.57342" lon="5.52547">
        <ele>509.8</ele>
        <time>2022-03-21T15:54:23Z</time>
      </trkpt>
      <trkpt lat="46.57345" lon="5.52548">
        <ele>510.2</ele>
        <time>2022-03-21T15:54:24Z</time>
      </trkpt>
      <trkpt lat="46.57348" lon="5.52549">
        <ele>510.2</ele>
        <time>2022-03-21T15:54:25Z</time>
      </trkpt>
      <trkpt lat="46.57352" lon="5.52551">
        <ele>510.4</ele>
        <time>2022-03-21T15:54:26Z</time>
      </trkpt>
      <trkpt lat="46.57355" lon="5.52552">
        <ele>510.4</ele>
        <time>2022-03-21T15:54:27Z</time>
      </trkpt>
      <trkpt lat="46.57358" lon="5.52554">
        <ele>510.6</ele>
        <time>2022-03-21T15:54:28Z</time>
      </trkpt>
      <trkpt lat="46.57362" lon="5.52555">
        <ele>510.6</ele>
        <time>2022-03-21T15:54:29Z</time>
      </trkpt>
      <trkpt lat="46.57365" lon="5.52557">
        <ele>511</ele>
        <time>2022-03-21T15:54:30Z</time>
      </trkpt>
      <trkpt lat="46.57368" lon="5.52559">
        <ele>511</ele>
        <time>2022-03-21T15:54:31Z</time>
      </trkpt>
      <trkpt lat="46.57371" lon="5.5256">
        <ele>511.2</ele>
        <time>2022-03-21T15:54:32Z</time>
      </trkpt>
      <trkpt lat="46.57374" lon="5.52562">
        <ele>511.2</ele>
        <time>2022-03-21T15:54:33Z</time>
      </trkpt>
      <trkpt lat="46.57378" lon="5.52563">
        <ele>511.4</ele>
        <time>2022-03-21T15:54:34Z</time>
      </trkpt>
      <trkpt lat="46.57381" lon="5.52565">
        <ele>511.4</ele>
        <time>2022-03-21T15:54:35Z</time>
      </trkpt>
      <trkpt lat="46.57384" lon="5.52566">
        <ele>511.6</ele>
        <time>2022-03-21T15:54:36Z</time>
      </trkpt>
      <trkpt lat="46.57387" lon="5.52568">
        <ele>511.6</ele>
        <time>2022-03-21T15:54:37Z</time>
      </trkpt>
      <trkpt lat="46.5739" lon="5.5257">
        <ele>512</ele>
        <time>2022-03-21T15:54:38Z</time>
      </trkpt>
      <trkpt lat="46.57393" lon="5.52572">
        <ele>512</ele>
        <time>2022-03-21T15:54:39Z</time>
      </trkpt>
      <trkpt lat="46.57396" lon="5.52574">
        <ele>512.2</ele>
        <time>2022-03-21T15:54:40Z</time>
      </trkpt>
      <trkpt lat="46.57399" lon="5.52576">
        <ele>512.2</ele>
        <time>2022-03-21T15:54:41Z</time>
      </trkpt>
      <trkpt lat="46.57402" lon="5.52578">
        <ele>512.6</ele>
        <time>2022-03-21T15:54:42Z</time>
      </trkpt>
      <trkpt lat="46.57406" lon="5.5258">
        <ele>512.6</ele>
        <time>2022-03-21T15:54:43Z</time>
      </trkpt>
      <trkpt lat="46.57409" lon="5.52582">
        <ele>513</ele>
        <time>2022-03-21T15:54:44Z</time>
      </trkpt>
      <trkpt lat="46.57412" lon="5.52583">
        <ele>513</ele>
        <time>2022-03-21T15:54:45Z</time>
      </trkpt>
      <trkpt lat="46.57416" lon="5.52585">
        <ele>513.2</ele>
        <time>2022-03-21T15:54:46Z</time>
      </trkpt>
      <trkpt lat="46.57419" lon="5.52588">
        <ele>513.2</ele>
        <time>2022-03-21T15:54:47Z</time>
      </trkpt>
      <trkpt lat="46.57422" lon="5.5259">
        <ele>513.6</ele>
        <time>2022-03-21T15:54:48Z</time>
      </trkpt>
      <trkpt lat="46.57426" lon="5.52592">
        <ele>513.6</ele>
        <time>2022-03-21T15:54:49Z</time>
      </trkpt>
      <trkpt lat="46.57429" lon="5.52594">
        <ele>514</ele>
        <time>2022-03-21T15:54:50Z</time>
      </trkpt>
      <trkpt lat="46.57433" lon="5.52596">
        <ele>514</ele>
        <time>2022-03-21T15:54:51Z</time>
      </trkpt>
      <trkpt lat="46.57436" lon="5.52599">
        <ele>514.2</ele>
        <time>2022-03-21T15:54:52Z</time>
      </trkpt>
      <trkpt lat="46.5744" lon="5.52602">
        <ele>514.2</ele>
        <time>2022-03-21T15:54:53Z</time>
      </trkpt>
      <trkpt lat="46.57443" lon="5.52605">
        <ele>514.2</ele>
        <time>2022-03-21T15:54:54Z</time>
      </trkpt>
      <trkpt lat="46.57447" lon="5.52607">
        <ele>514.4</ele>
        <time>2022-03-21T15:54:55Z</time>
      </trkpt>
      <trkpt lat="46.5745" lon="5.5261">
        <ele>514.4</ele>
        <time>2022-03-21T15:54:56Z</time>
      </trkpt>
      <trkpt lat="46.57453" lon="5.52612">
        <ele>514.8</ele>
        <time>2022-03-21T15:54:57Z</time>
      </trkpt>
      <trkpt lat="46.57456" lon="5.52614">
        <ele>514.8</ele>
        <time>2022-03-21T15:54:58Z</time>
      </trkpt>
      <trkpt lat="46.57459" lon="5.52617">
        <ele>515</ele>
        <time>2022-03-21T15:54:59Z</time>
      </trkpt>
      <trkpt lat="46.57462" lon="5.5262">
        <ele>515.2</ele>
        <time>2022-03-21T15:55:01Z</time>
      </trkpt>
      <trkpt lat="46.57465" lon="5.52622">
        <ele>515.2</ele>
        <time>2022-03-21T15:55:02Z</time>
      </trkpt>
      <trkpt lat="46.57468" lon="5.52624">
        <ele>515.6</ele>
        <time>2022-03-21T15:55:03Z</time>
      </trkpt>
      <trkpt lat="46.57471" lon="5.52627">
        <ele>515.6</ele>
        <time>2022-03-21T15:55:04Z</time>
      </trkpt>
      <trkpt lat="46.57474" lon="5.52629">
        <ele>515.8</ele>
        <time>2022-03-21T15:55:05Z</time>
      </trkpt>
      <trkpt lat="46.57477" lon="5.52632">
        <ele>515.8</ele>
        <time>2022-03-21T15:55:06Z</time>
      </trkpt>
      <trkpt lat="46.5748" lon="5.52634">
        <ele>516.2</ele>
        <time>2022-03-21T15:55:07Z</time>
      </trkpt>
      <trkpt lat="46.57483" lon="5.52636">
        <ele>516.2</ele>
        <time>2022-03-21T15:55:08Z</time>
      </trkpt>
      <trkpt lat="46.57487" lon="5.52639">
        <ele>516.4</ele>
        <time>2022-03-21T15:55:09Z</time>
      </trkpt>
      <trkpt lat="46.5749" lon="5.52641">
        <ele>516.4</ele>
        <time>2022-03-21T15:55:10Z</time>
      </trkpt>
      <trkpt lat="46.57493" lon="5.52644">
        <ele>516.6</ele>
        <time>2022-03-21T15:55:11Z</time>
      </trkpt>
      <trkpt lat="46.57496" lon="5.52646">
        <ele>516.6</ele>
        <time>2022-03-21T15:55:12Z</time>
      </trkpt>
      <trkpt lat="46.575" lon="5.52649">
        <ele>516.8</ele>
        <time>2022-03-21T15:55:13Z</time>
      </trkpt>
      <trkpt lat="46.57503" lon="5.52652">
        <ele>516.8</ele>
        <time>2022-03-21T15:55:14Z</time>
      </trkpt>
      <trkpt lat="46.57507" lon="5.52654">
        <ele>516.8</ele>
        <time>2022-03-21T15:55:15Z</time>
      </trkpt>
      <trkpt lat="46.5751" lon="5.52657">
        <ele>517</ele>
        <time>2022-03-21T15:55:16Z</time>
      </trkpt>
      <trkpt lat="46.57514" lon="5.5266">
        <ele>517</ele>
        <time>2022-03-21T15:55:17Z</time>
      </trkpt>
      <trkpt lat="46.57517" lon="5.52663">
        <ele>517</ele>
        <time>2022-03-21T15:55:18Z</time>
      </trkpt>
      <trkpt lat="46.57521" lon="5.52665">
        <ele>517.4</ele>
        <time>2022-03-21T15:55:19Z</time>
      </trkpt>
      <trkpt lat="46.57524" lon="5.52668">
        <ele>517.4</ele>
        <time>2022-03-21T15:55:20Z</time>
      </trkpt>
      <trkpt lat="46.57528" lon="5.52671">
        <ele>517.6</ele>
        <time>2022-03-21T15:55:21Z</time>
      </trkpt>
      <trkpt lat="46.57531" lon="5.52674">
        <ele>517.6</ele>
        <time>2022-03-21T15:55:22Z</time>
      </trkpt>
      <trkpt lat="46.57534" lon="5.52676">
        <ele>517.6</ele>
        <time>2022-03-21T15:55:23Z</time>
      </trkpt>
      <trkpt lat="46.57538" lon="5.52678">
        <ele>517.6</ele>
        <time>2022-03-21T15:55:24Z</time>
      </trkpt>
      <trkpt lat="46.57542" lon="5.5268">
        <ele>517.8</ele>
        <time>2022-03-21T15:55:25Z</time>
      </trkpt>
      <trkpt lat="46.57545" lon="5.52682">
        <ele>517.8</ele>
        <time>2022-03-21T15:55:26Z</time>
      </trkpt>
      <trkpt lat="46.57549" lon="5.52684">
        <ele>518</ele>
        <time>2022-03-21T15:55:27Z</time>
      </trkpt>
      <trkpt lat="46.57553" lon="5.52686">
        <ele>518</ele>
        <time>2022-03-21T15:55:28Z</time>
      </trkpt>
      <trkpt lat="46.57557" lon="5.52688">
        <ele>518</ele>
        <time>2022-03-21T15:55:29Z</time>
      </trkpt>
      <trkpt lat="46.57561" lon="5.5269">
        <ele>518</ele>
        <time>2022-03-21T15:55:30Z</time>
      </trkpt>
      <trkpt lat="46.57565" lon="5.52693">
        <ele>518.2</ele>
        <time>2022-03-21T15:55:31Z</time>
      </trkpt>
      <trkpt lat="46.57569" lon="5.52695">
        <ele>518.2</ele>
        <time>2022-03-21T15:55:32Z</time>
      </trkpt>
      <trkpt lat="46.57573" lon="5.52697">
        <ele>518.2</ele>
        <time>2022-03-21T15:55:33Z</time>
      </trkpt>
      <trkpt lat="46.57578" lon="5.52698">
        <ele>518.4</ele>
        <time>2022-03-21T15:55:34Z</time>
      </trkpt>
      <trkpt lat="46.57582" lon="5.527">
        <ele>518.4</ele>
        <time>2022-03-21T15:55:35Z</time>
      </trkpt>
      <trkpt lat="46.57586" lon="5.52702">
        <ele>518.4</ele>
        <time>2022-03-21T15:55:36Z</time>
      </trkpt>
      <trkpt lat="46.57591" lon="5.52703">
        <ele>518.4</ele>
        <time>2022-03-21T15:55:37Z</time>
      </trkpt>
      <trkpt lat="46.57595" lon="5.52704">
        <ele>518.6</ele>
        <time>2022-03-21T15:55:38Z</time>
      </trkpt>
      <trkpt lat="46.57599" lon="5.52706">
        <ele>518.6</ele>
        <time>2022-03-21T15:55:39Z</time>
      </trkpt>
      <trkpt lat="46.57604" lon="5.52707">
        <ele>518.6</ele>
        <time>2022-03-21T15:55:40Z</time>
      </trkpt>
      <trkpt lat="46.57608" lon="5.52708">
        <ele>518.6</ele>
        <time>2022-03-21T15:55:41Z</time>
      </trkpt>
      <trkpt lat="46.57612" lon="5.5271">
        <ele>518.6</ele>
        <time>2022-03-21T15:55:42Z</time>
      </trkpt>
      <trkpt lat="46.57617" lon="5.52711">
        <ele>519</ele>
        <time>2022-03-21T15:55:43Z</time>
      </trkpt>
      <trkpt lat="46.57621" lon="5.52712">
        <ele>519</ele>
        <time>2022-03-21T15:55:44Z</time>
      </trkpt>
      <trkpt lat="46.57625" lon="5.52713">
        <ele>519</ele>
        <time>2022-03-21T15:55:45Z</time>
      </trkpt>
      <trkpt lat="46.57629" lon="5.52714">
        <ele>519</ele>
        <time>2022-03-21T15:55:46Z</time>
      </trkpt>
      <trkpt lat="46.57634" lon="5.52715">
        <ele>519.2</ele>
        <time>2022-03-21T15:55:47Z</time>
      </trkpt>
      <trkpt lat="46.57639" lon="5.52716">
        <ele>519.2</ele>
        <time>2022-03-21T15:55:48Z</time>
      </trkpt>
      <trkpt lat="46.57643" lon="5.52716">
        <ele>519.2</ele>
        <time>2022-03-21T15:55:49Z</time>
      </trkpt>
      <trkpt lat="46.57648" lon="5.52717">
        <ele>519.2</ele>
        <time>2022-03-21T15:55:50Z</time>
      </trkpt>
      <trkpt lat="46.57653" lon="5.52717">
        <ele>519.4</ele>
        <time>2022-03-21T15:55:51Z</time>
      </trkpt>
      <trkpt lat="46.57657" lon="5.52717">
        <ele>519.4</ele>
        <time>2022-03-21T15:55:52Z</time>
      </trkpt>
      <trkpt lat="46.57662" lon="5.52716">
        <ele>519.4</ele>
        <time>2022-03-21T15:55:53Z</time>
      </trkpt>
      <trkpt lat="46.57667" lon="5.52715">
        <ele>519.4</ele>
        <time>2022-03-21T15:55:54Z</time>
      </trkpt>
      <trkpt lat="46.57672" lon="5.52714">
        <ele>519.2</ele>
        <time>2022-03-21T15:55:55Z</time>
      </trkpt>
      <trkpt lat="46.57677" lon="5.52712">
        <ele>519.2</ele>
        <time>2022-03-21T15:55:56Z</time>
      </trkpt>
      <trkpt lat="46.57683" lon="5.5271">
        <ele>518.8</ele>
        <time>2022-03-21T15:55:57Z</time>
      </trkpt>
      <trkpt lat="46.57689" lon="5.52709">
        <ele>518.8</ele>
        <time>2022-03-21T15:55:58Z</time>
      </trkpt>
      <trkpt lat="46.57696" lon="5.52708">
        <ele>518.6</ele>
        <time>2022-03-21T15:55:59Z</time>
      </trkpt>
      <trkpt lat="46.57702" lon="5.52708">
        <ele>518.6</ele>
        <time>2022-03-21T15:56:00Z</time>
      </trkpt>
      <trkpt lat="46.57709" lon="5.52708">
        <ele>518.4</ele>
        <time>2022-03-21T15:56:01Z</time>
      </trkpt>
      <trkpt lat="46.57715" lon="5.52708">
        <ele>518.4</ele>
        <time>2022-03-21T15:56:02Z</time>
      </trkpt>
      <trkpt lat="46.57721" lon="5.5271">
        <ele>518.4</ele>
        <time>2022-03-21T15:56:03Z</time>
      </trkpt>
      <trkpt lat="46.57727" lon="5.52711">
        <ele>518.4</ele>
        <time>2022-03-21T15:56:04Z</time>
      </trkpt>
      <trkpt lat="46.57733" lon="5.52713">
        <ele>518.4</ele>
        <time>2022-03-21T15:56:05Z</time>
      </trkpt>
      <trkpt lat="46.57738" lon="5.52716">
        <ele>518.4</ele>
        <time>2022-03-21T15:56:06Z</time>
      </trkpt>
      <trkpt lat="46.57744" lon="5.52718">
        <ele>518.4</ele>
        <time>2022-03-21T15:56:07Z</time>
      </trkpt>
      <trkpt lat="46.5775" lon="5.52721">
        <ele>518.4</ele>
        <time>2022-03-21T15:56:08Z</time>
      </trkpt>
      <trkpt lat="46.57755" lon="5.52724">
        <ele>518.4</ele>
        <time>2022-03-21T15:56:09Z</time>
      </trkpt>
      <trkpt lat="46.57761" lon="5.52727">
        <ele>518.4</ele>
        <time>2022-03-21T15:56:10Z</time>
      </trkpt>
      <trkpt lat="46.57767" lon="5.5273">
        <ele>518.2</ele>
        <time>2022-03-21T15:56:11Z</time>
      </trkpt>
      <trkpt lat="46.57773" lon="5.52733">
        <ele>518.2</ele>
        <time>2022-03-21T15:56:12Z</time>
      </trkpt>
      <trkpt lat="46.5778" lon="5.52736">
        <ele>518.2</ele>
        <time>2022-03-21T15:56:13Z</time>
      </trkpt>
      <trkpt lat="46.57786" lon="5.52738">
        <ele>518.2</ele>
        <time>2022-03-21T15:56:14Z</time>
      </trkpt>
      <trkpt lat="46.57793" lon="5.52742">
        <ele>517.8</ele>
        <time>2022-03-21T15:56:15Z</time>
      </trkpt>
      <trkpt lat="46.57799" lon="5.52745">
        <ele>517.8</ele>
        <time>2022-03-21T15:56:16Z</time>
      </trkpt>
      <trkpt lat="46.57806" lon="5.52747">
        <ele>517.8</ele>
        <time>2022-03-21T15:56:17Z</time>
      </trkpt>
      <trkpt lat="46.57812" lon="5.5275">
        <ele>517.8</ele>
        <time>2022-03-21T15:56:18Z</time>
      </trkpt>
      <trkpt lat="46.57819" lon="5.52752">
        <ele>517.6</ele>
        <time>2022-03-21T15:56:19Z</time>
      </trkpt>
      <trkpt lat="46.57825" lon="5.52754">
        <ele>517.6</ele>
        <time>2022-03-21T15:56:20Z</time>
      </trkpt>
      <trkpt lat="46.57832" lon="5.52755">
        <ele>517.4</ele>
        <time>2022-03-21T15:56:21Z</time>
      </trkpt>
      <trkpt lat="46.57838" lon="5.52757">
        <ele>517.4</ele>
        <time>2022-03-21T15:56:22Z</time>
      </trkpt>
      <trkpt lat="46.57845" lon="5.52758">
        <ele>517</ele>
        <time>2022-03-21T15:56:23Z</time>
      </trkpt>
      <trkpt lat="46.57852" lon="5.52759">
        <ele>517</ele>
        <time>2022-03-21T15:56:24Z</time>
      </trkpt>
      <trkpt lat="46.57859" lon="5.52761">
        <ele>516.8</ele>
        <time>2022-03-21T15:56:25Z</time>
      </trkpt>
      <trkpt lat="46.57866" lon="5.52764">
        <ele>516.8</ele>
        <time>2022-03-21T15:56:26Z</time>
      </trkpt>
      <trkpt lat="46.57877" lon="5.52772">
        <ele>516.8</ele>
        <time>2022-03-21T15:56:27Z</time>
      </trkpt>
      <trkpt lat="46.57883" lon="5.52776">
        <ele>516.8</ele>
        <time>2022-03-21T15:56:28Z</time>
      </trkpt>
      <trkpt lat="46.57888" lon="5.5278">
        <ele>517</ele>
        <time>2022-03-21T15:56:29Z</time>
      </trkpt>
      <trkpt lat="46.57893" lon="5.52783">
        <ele>517</ele>
        <time>2022-03-21T15:56:30Z</time>
      </trkpt>
      <trkpt lat="46.57897" lon="5.52787">
        <ele>517.2</ele>
        <time>2022-03-21T15:56:31Z</time>
      </trkpt>
      <trkpt lat="46.57902" lon="5.52791">
        <ele>517.2</ele>
        <time>2022-03-21T15:56:32Z</time>
      </trkpt>
      <trkpt lat="46.57906" lon="5.52795">
        <ele>517.6</ele>
        <time>2022-03-21T15:56:33Z</time>
      </trkpt>
      <trkpt lat="46.57911" lon="5.52799">
        <ele>517.6</ele>
        <time>2022-03-21T15:56:34Z</time>
      </trkpt>
      <trkpt lat="46.57916" lon="5.52803">
        <ele>517.6</ele>
        <time>2022-03-21T15:56:35Z</time>
      </trkpt>
      <trkpt lat="46.57921" lon="5.52806">
        <ele>517.6</ele>
        <time>2022-03-21T15:56:36Z</time>
      </trkpt>
      <trkpt lat="46.57927" lon="5.5281">
        <ele>517.6</ele>
        <time>2022-03-21T15:56:37Z</time>
      </trkpt>
      <trkpt lat="46.57933" lon="5.52813">
        <ele>517.6</ele>
        <time>2022-03-21T15:56:38Z</time>
      </trkpt>
      <trkpt lat="46.57939" lon="5.52817">
        <ele>517.6</ele>
        <time>2022-03-21T15:56:39Z</time>
      </trkpt>
      <trkpt lat="46.57945" lon="5.5282">
        <ele>517.6</ele>
        <time>2022-03-21T15:56:40Z</time>
      </trkpt>
      <trkpt lat="46.57951" lon="5.52824">
        <ele>517.4</ele>
        <time>2022-03-21T15:56:41Z</time>
      </trkpt>
      <trkpt lat="46.57957" lon="5.52828">
        <ele>517.4</ele>
        <time>2022-03-21T15:56:42Z</time>
      </trkpt>
      <trkpt lat="46.57963" lon="5.52832">
        <ele>517.4</ele>
        <time>2022-03-21T15:56:43Z</time>
      </trkpt>
      <trkpt lat="46.57969" lon="5.52836">
        <ele>517.4</ele>
        <time>2022-03-21T15:56:44Z</time>
      </trkpt>
      <trkpt lat="46.57975" lon="5.52841">
        <ele>517</ele>
        <time>2022-03-21T15:56:45Z</time>
      </trkpt>
      <trkpt lat="46.5798" lon="5.52845">
        <ele>517</ele>
        <time>2022-03-21T15:56:46Z</time>
      </trkpt>
      <trkpt lat="46.57986" lon="5.52849">
        <ele>517</ele>
        <time>2022-03-21T15:56:47Z</time>
      </trkpt>
      <trkpt lat="46.57991" lon="5.52853">
        <ele>517</ele>
        <time>2022-03-21T15:56:48Z</time>
      </trkpt>
      <trkpt lat="46.57996" lon="5.52856">
        <ele>517</ele>
        <time>2022-03-21T15:56:49Z</time>
      </trkpt>
      <trkpt lat="46.58001" lon="5.5286">
        <ele>517</ele>
        <time>2022-03-21T15:56:50Z</time>
      </trkpt>
      <trkpt lat="46.58006" lon="5.52864">
        <ele>517.4</ele>
        <time>2022-03-21T15:56:51Z</time>
      </trkpt>
      <trkpt lat="46.58012" lon="5.52868">
        <ele>517.4</ele>
        <time>2022-03-21T15:56:52Z</time>
      </trkpt>
      <trkpt lat="46.58017" lon="5.52872">
        <ele>517.4</ele>
        <time>2022-03-21T15:56:53Z</time>
      </trkpt>
      <trkpt lat="46.58022" lon="5.52876">
        <ele>517.4</ele>
        <time>2022-03-21T15:56:54Z</time>
      </trkpt>
      <trkpt lat="46.58027" lon="5.5288">
        <ele>517.4</ele>
        <time>2022-03-21T15:56:55Z</time>
      </trkpt>
      <trkpt lat="46.58032" lon="5.52884">
        <ele>517.4</ele>
        <time>2022-03-21T15:56:56Z</time>
      </trkpt>
      <trkpt lat="46.58038" lon="5.52888">
        <ele>517.6</ele>
        <time>2022-03-21T15:56:57Z</time>
      </trkpt>
      <trkpt lat="46.58043" lon="5.52891">
        <ele>517.6</ele>
        <time>2022-03-21T15:56:58Z</time>
      </trkpt>
      <trkpt lat="46.58048" lon="5.52895">
        <ele>517.6</ele>
        <time>2022-03-21T15:56:59Z</time>
      </trkpt>
      <trkpt lat="46.58053" lon="5.52899">
        <ele>517.6</ele>
        <time>2022-03-21T15:57:00Z</time>
      </trkpt>
      <trkpt lat="46.58058" lon="5.52903">
        <ele>517.6</ele>
        <time>2022-03-21T15:57:01Z</time>
      </trkpt>
      <trkpt lat="46.58063" lon="5.52906">
        <ele>517.8</ele>
        <time>2022-03-21T15:57:02Z</time>
      </trkpt>
      <trkpt lat="46.58069" lon="5.5291">
        <ele>517.8</ele>
        <time>2022-03-21T15:57:03Z</time>
      </trkpt>
      <trkpt lat="46.58074" lon="5.52914">
        <ele>517.8</ele>
        <time>2022-03-21T15:57:04Z</time>
      </trkpt>
      <trkpt lat="46.58079" lon="5.52919">
        <ele>517.8</ele>
        <time>2022-03-21T15:57:05Z</time>
      </trkpt>
      <trkpt lat="46.58084" lon="5.52923">
        <ele>517.8</ele>
        <time>2022-03-21T15:57:06Z</time>
      </trkpt>
      <trkpt lat="46.58089" lon="5.52927">
        <ele>517.8</ele>
        <time>2022-03-21T15:57:07Z</time>
      </trkpt>
      <trkpt lat="46.58094" lon="5.5293">
        <ele>517.8</ele>
        <time>2022-03-21T15:57:08Z</time>
      </trkpt>
      <trkpt lat="46.58099" lon="5.52934">
        <ele>517.8</ele>
        <time>2022-03-21T15:57:09Z</time>
      </trkpt>
      <trkpt lat="46.58104" lon="5.52938">
        <ele>518.2</ele>
        <time>2022-03-21T15:57:10Z</time>
      </trkpt>
      <trkpt lat="46.58109" lon="5.52941">
        <ele>518.2</ele>
        <time>2022-03-21T15:57:11Z</time>
      </trkpt>
      <trkpt lat="46.58114" lon="5.52945">
        <ele>518.4</ele>
        <time>2022-03-21T15:57:12Z</time>
      </trkpt>
      <trkpt lat="46.5812" lon="5.52948">
        <ele>518.4</ele>
        <time>2022-03-21T15:57:13Z</time>
      </trkpt>
      <trkpt lat="46.58125" lon="5.52951">
        <ele>518.4</ele>
        <time>2022-03-21T15:57:14Z</time>
      </trkpt>
      <trkpt lat="46.5813" lon="5.52954">
        <ele>518.6</ele>
        <time>2022-03-21T15:57:15Z</time>
      </trkpt>
      <trkpt lat="46.58135" lon="5.52957">
        <ele>518.6</ele>
        <time>2022-03-21T15:57:16Z</time>
      </trkpt>
      <trkpt lat="46.58141" lon="5.5296">
        <ele>518.6</ele>
        <time>2022-03-21T15:57:17Z</time>
      </trkpt>
      <trkpt lat="46.58147" lon="5.52962">
        <ele>518.6</ele>
        <time>2022-03-21T15:57:18Z</time>
      </trkpt>
      <trkpt lat="46.58153" lon="5.52964">
        <ele>518.6</ele>
        <time>2022-03-21T15:57:19Z</time>
      </trkpt>
      <trkpt lat="46.58159" lon="5.52966">
        <ele>518.6</ele>
        <time>2022-03-21T15:57:20Z</time>
      </trkpt>
      <trkpt lat="46.58165" lon="5.52967">
        <ele>518.8</ele>
        <time>2022-03-21T15:57:21Z</time>
      </trkpt>
      <trkpt lat="46.58171" lon="5.52968">
        <ele>518.8</ele>
        <time>2022-03-21T15:57:22Z</time>
      </trkpt>
      <trkpt lat="46.58177" lon="5.52968">
        <ele>518.8</ele>
        <time>2022-03-21T15:57:23Z</time>
      </trkpt>
      <trkpt lat="46.58184" lon="5.52968">
        <ele>518.6</ele>
        <time>2022-03-21T15:57:24Z</time>
      </trkpt>
      <trkpt lat="46.5819" lon="5.52967">
        <ele>518.6</ele>
        <time>2022-03-21T15:57:25Z</time>
      </trkpt>
      <trkpt lat="46.58197" lon="5.52968">
        <ele>518.6</ele>
        <time>2022-03-21T15:57:26Z</time>
      </trkpt>
      <trkpt lat="46.58204" lon="5.52969">
        <ele>518.4</ele>
        <time>2022-03-21T15:57:27Z</time>
      </trkpt>
      <trkpt lat="46.5821" lon="5.5297">
        <ele>518.4</ele>
        <time>2022-03-21T15:57:28Z</time>
      </trkpt>
      <trkpt lat="46.58217" lon="5.52971">
        <ele>518.4</ele>
        <time>2022-03-21T15:57:29Z</time>
      </trkpt>
      <trkpt lat="46.58223" lon="5.52972">
        <ele>518.4</ele>
        <time>2022-03-21T15:57:30Z</time>
      </trkpt>
      <trkpt lat="46.58229" lon="5.52974">
        <ele>518.4</ele>
        <time>2022-03-21T15:57:31Z</time>
      </trkpt>
      <trkpt lat="46.58235" lon="5.52975">
        <ele>518.6</ele>
        <time>2022-03-21T15:57:32Z</time>
      </trkpt>
      <trkpt lat="46.58241" lon="5.52976">
        <ele>518.6</ele>
        <time>2022-03-21T15:57:33Z</time>
      </trkpt>
      <trkpt lat="46.58246" lon="5.52977">
        <ele>518.6</ele>
        <time>2022-03-21T15:57:34Z</time>
      </trkpt>
      <trkpt lat="46.58252" lon="5.52979">
        <ele>518.8</ele>
        <time>2022-03-21T15:57:35Z</time>
      </trkpt>
      <trkpt lat="46.58257" lon="5.52981">
        <ele>518.8</ele>
        <time>2022-03-21T15:57:36Z</time>
      </trkpt>
      <trkpt lat="46.58263" lon="5.52983">
        <ele>518.8</ele>
        <time>2022-03-21T15:57:37Z</time>
      </trkpt>
      <trkpt lat="46.58268" lon="5.52984">
        <ele>519</ele>
        <time>2022-03-21T15:57:38Z</time>
      </trkpt>
      <trkpt lat="46.58274" lon="5.52986">
        <ele>519</ele>
        <time>2022-03-21T15:57:39Z</time>
      </trkpt>
      <trkpt lat="46.58279" lon="5.52987">
        <ele>519</ele>
        <time>2022-03-21T15:57:40Z</time>
      </trkpt>
      <trkpt lat="46.58285" lon="5.52988">
        <ele>519.4</ele>
        <time>2022-03-21T15:57:41Z</time>
      </trkpt>
      <trkpt lat="46.5829" lon="5.52989">
        <ele>519.4</ele>
        <time>2022-03-21T15:57:42Z</time>
      </trkpt>
      <trkpt lat="46.58296" lon="5.5299">
        <ele>519.4</ele>
        <time>2022-03-21T15:57:43Z</time>
      </trkpt>
      <trkpt lat="46.58301" lon="5.5299">
        <ele>519.4</ele>
        <time>2022-03-21T15:57:44Z</time>
      </trkpt>
      <trkpt lat="46.58307" lon="5.52989">
        <ele>519.4</ele>
        <time>2022-03-21T15:57:45Z</time>
      </trkpt>
      <trkpt lat="46.58313" lon="5.52988">
        <ele>519.4</ele>
        <time>2022-03-21T15:57:46Z</time>
      </trkpt>
      <trkpt lat="46.58319" lon="5.52986">
        <ele>519.4</ele>
        <time>2022-03-21T15:57:47Z</time>
      </trkpt>
      <trkpt lat="46.58324" lon="5.52984">
        <ele>519.4</ele>
        <time>2022-03-21T15:57:48Z</time>
      </trkpt>
      <trkpt lat="46.5833" lon="5.52981">
        <ele>519.4</ele>
        <time>2022-03-21T15:57:49Z</time>
      </trkpt>
      <trkpt lat="46.58336" lon="5.52977">
        <ele>519.4</ele>
        <time>2022-03-21T15:57:50Z</time>
      </trkpt>
      <trkpt lat="46.58341" lon="5.52974">
        <ele>519</ele>
        <time>2022-03-21T15:57:51Z</time>
      </trkpt>
      <trkpt lat="46.58347" lon="5.5297">
        <ele>519</ele>
        <time>2022-03-21T15:57:52Z</time>
      </trkpt>
      <trkpt lat="46.58353" lon="5.52966">
        <ele>518.6</ele>
        <time>2022-03-21T15:57:53Z</time>
      </trkpt>
      <trkpt lat="46.5836" lon="5.52963">
        <ele>518.4</ele>
        <time>2022-03-21T15:57:54Z</time>
      </trkpt>
      <trkpt lat="46.58367" lon="5.5296">
        <ele>518</ele>
        <time>2022-03-21T15:57:55Z</time>
      </trkpt>
      <trkpt lat="46.58375" lon="5.52958">
        <ele>517.8</ele>
        <time>2022-03-21T15:57:56Z</time>
      </trkpt>
      <trkpt lat="46.58383" lon="5.52958">
        <ele>517.4</ele>
        <time>2022-03-21T15:57:57Z</time>
      </trkpt>
      <trkpt lat="46.58391" lon="5.52958">
        <ele>517</ele>
        <time>2022-03-21T15:57:58Z</time>
      </trkpt>
      <trkpt lat="46.58399" lon="5.5296">
        <ele>516.6</ele>
        <time>2022-03-21T15:57:59Z</time>
      </trkpt>
      <trkpt lat="46.58406" lon="5.52961">
        <ele>516.6</ele>
        <time>2022-03-21T15:58:00Z</time>
      </trkpt>
      <trkpt lat="46.58414" lon="5.52963">
        <ele>516.4</ele>
        <time>2022-03-21T15:58:01Z</time>
      </trkpt>
      <trkpt lat="46.58421" lon="5.52964">
        <ele>516.4</ele>
        <time>2022-03-21T15:58:02Z</time>
      </trkpt>
      <trkpt lat="46.58428" lon="5.52966">
        <ele>516.4</ele>
        <time>2022-03-21T15:58:03Z</time>
      </trkpt>
      <trkpt lat="46.58435" lon="5.52969">
        <ele>516</ele>
        <time>2022-03-21T15:58:04Z</time>
      </trkpt>
      <trkpt lat="46.58442" lon="5.52972">
        <ele>516</ele>
        <time>2022-03-21T15:58:05Z</time>
      </trkpt>
      <trkpt lat="46.58449" lon="5.52974">
        <ele>516</ele>
        <time>2022-03-21T15:58:06Z</time>
      </trkpt>
      <trkpt lat="46.58456" lon="5.52977">
        <ele>516</ele>
        <time>2022-03-21T15:58:07Z</time>
      </trkpt>
      <trkpt lat="46.58463" lon="5.52979">
        <ele>515.8</ele>
        <time>2022-03-21T15:58:08Z</time>
      </trkpt>
      <trkpt lat="46.5847" lon="5.5298">
        <ele>515.8</ele>
        <time>2022-03-21T15:58:09Z</time>
      </trkpt>
      <trkpt lat="46.58476" lon="5.52982">
        <ele>515.8</ele>
        <time>2022-03-21T15:58:10Z</time>
      </trkpt>
      <trkpt lat="46.58483" lon="5.52983">
        <ele>516</ele>
        <time>2022-03-21T15:58:11Z</time>
      </trkpt>
      <trkpt lat="46.58489" lon="5.52984">
        <ele>516</ele>
        <time>2022-03-21T15:58:12Z</time>
      </trkpt>
      <trkpt lat="46.58495" lon="5.52985">
        <ele>516</ele>
        <time>2022-03-21T15:58:13Z</time>
      </trkpt>
      <trkpt lat="46.58501" lon="5.52986">
        <ele>516</ele>
        <time>2022-03-21T15:58:14Z</time>
      </trkpt>
      <trkpt lat="46.58507" lon="5.52987">
        <ele>516</ele>
        <time>2022-03-21T15:58:15Z</time>
      </trkpt>
      <trkpt lat="46.58513" lon="5.52989">
        <ele>516</ele>
        <time>2022-03-21T15:58:16Z</time>
      </trkpt>
      <trkpt lat="46.5852" lon="5.52991">
        <ele>515.6</ele>
        <time>2022-03-21T15:58:17Z</time>
      </trkpt>
      <trkpt lat="46.58526" lon="5.52992">
        <ele>515.6</ele>
        <time>2022-03-21T15:58:18Z</time>
      </trkpt>
      <trkpt lat="46.58534" lon="5.52994">
        <ele>515.2</ele>
        <time>2022-03-21T15:58:19Z</time>
      </trkpt>
      <trkpt lat="46.58541" lon="5.52996">
        <ele>514.8</ele>
        <time>2022-03-21T15:58:20Z</time>
      </trkpt>
      <trkpt lat="46.58549" lon="5.52998">
        <ele>514.6</ele>
        <time>2022-03-21T15:58:21Z</time>
      </trkpt>
      <trkpt lat="46.58557" lon="5.53">
        <ele>514</ele>
        <time>2022-03-21T15:58:22Z</time>
      </trkpt>
      <trkpt lat="46.58565" lon="5.53003">
        <ele>513.8</ele>
        <time>2022-03-21T15:58:23Z</time>
      </trkpt>
      <trkpt lat="46.58573" lon="5.53007">
        <ele>513.4</ele>
        <time>2022-03-21T15:58:24Z</time>
      </trkpt>
      <trkpt lat="46.58581" lon="5.53011">
        <ele>513</ele>
        <time>2022-03-21T15:58:25Z</time>
      </trkpt>
      <trkpt lat="46.58588" lon="5.53016">
        <ele>512.8</ele>
        <time>2022-03-21T15:58:26Z</time>
      </trkpt>
      <trkpt lat="46.58596" lon="5.53021">
        <ele>512.4</ele>
        <time>2022-03-21T15:58:27Z</time>
      </trkpt>
      <trkpt lat="46.58604" lon="5.53026">
        <ele>512</ele>
        <time>2022-03-21T15:58:28Z</time>
      </trkpt>
      <trkpt lat="46.58612" lon="5.53031">
        <ele>511.8</ele>
        <time>2022-03-21T15:58:29Z</time>
      </trkpt>
      <trkpt lat="46.5862" lon="5.53037">
        <ele>511.4</ele>
        <time>2022-03-21T15:58:30Z</time>
      </trkpt>
      <trkpt lat="46.58628" lon="5.53042">
        <ele>511</ele>
        <time>2022-03-21T15:58:31Z</time>
      </trkpt>
      <trkpt lat="46.58636" lon="5.53047">
        <ele>510.8</ele>
        <time>2022-03-21T15:58:32Z</time>
      </trkpt>
      <trkpt lat="46.58644" lon="5.53051">
        <ele>510.4</ele>
        <time>2022-03-21T15:58:33Z</time>
      </trkpt>
      <trkpt lat="46.58652" lon="5.53056">
        <ele>510.4</ele>
        <time>2022-03-21T15:58:34Z</time>
      </trkpt>
      <trkpt lat="46.58659" lon="5.53061">
        <ele>510.2</ele>
        <time>2022-03-21T15:58:35Z</time>
      </trkpt>
      <trkpt lat="46.58666" lon="5.53066">
        <ele>510.2</ele>
        <time>2022-03-21T15:58:36Z</time>
      </trkpt>
      <trkpt lat="46.58673" lon="5.53071">
        <ele>509.8</ele>
        <time>2022-03-21T15:58:37Z</time>
      </trkpt>
      <trkpt lat="46.5868" lon="5.53076">
        <ele>509.8</ele>
        <time>2022-03-21T15:58:38Z</time>
      </trkpt>
      <trkpt lat="46.58686" lon="5.53081">
        <ele>509.8</ele>
        <time>2022-03-21T15:58:39Z</time>
      </trkpt>
      <trkpt lat="46.58693" lon="5.53085">
        <ele>509.8</ele>
        <time>2022-03-21T15:58:40Z</time>
      </trkpt>
      <trkpt lat="46.587" lon="5.53088">
        <ele>509.8</ele>
        <time>2022-03-21T15:58:41Z</time>
      </trkpt>
      <trkpt lat="46.58706" lon="5.53092">
        <ele>509.8</ele>
        <time>2022-03-21T15:58:42Z</time>
      </trkpt>
      <trkpt lat="46.58713" lon="5.53094">
        <ele>509.8</ele>
        <time>2022-03-21T15:58:43Z</time>
      </trkpt>
      <trkpt lat="46.5872" lon="5.53096">
        <ele>509.8</ele>
        <time>2022-03-21T15:58:44Z</time>
      </trkpt>
      <trkpt lat="46.58726" lon="5.53097">
        <ele>509.8</ele>
        <time>2022-03-21T15:58:45Z</time>
      </trkpt>
      <trkpt lat="46.58733" lon="5.53099">
        <ele>509.8</ele>
        <time>2022-03-21T15:58:46Z</time>
      </trkpt>
      <trkpt lat="46.58739" lon="5.53099">
        <ele>509.8</ele>
        <time>2022-03-21T15:58:47Z</time>
      </trkpt>
      <trkpt lat="46.58745" lon="5.531">
        <ele>509.8</ele>
        <time>2022-03-21T15:58:48Z</time>
      </trkpt>
      <trkpt lat="46.58752" lon="5.531">
        <ele>509.8</ele>
        <time>2022-03-21T15:58:49Z</time>
      </trkpt>
      <trkpt lat="46.58758" lon="5.53101">
        <ele>509.8</ele>
        <time>2022-03-21T15:58:50Z</time>
      </trkpt>
      <trkpt lat="46.58764" lon="5.53102">
        <ele>510</ele>
        <time>2022-03-21T15:58:51Z</time>
      </trkpt>
      <trkpt lat="46.5877" lon="5.53103">
        <ele>510</ele>
        <time>2022-03-21T15:58:52Z</time>
      </trkpt>
      <trkpt lat="46.58776" lon="5.53104">
        <ele>510.2</ele>
        <time>2022-03-21T15:58:53Z</time>
      </trkpt>
      <trkpt lat="46.58781" lon="5.53104">
        <ele>510.2</ele>
        <time>2022-03-21T15:58:54Z</time>
      </trkpt>
      <trkpt lat="46.58787" lon="5.53104">
        <ele>510.4</ele>
        <time>2022-03-21T15:58:56Z</time>
      </trkpt>
      <trkpt lat="46.58792" lon="5.53104">
        <ele>510.4</ele>
        <time>2022-03-21T15:58:57Z</time>
      </trkpt>
      <trkpt lat="46.58798" lon="5.53105">
        <ele>510.4</ele>
        <time>2022-03-21T15:58:58Z</time>
      </trkpt>
      <trkpt lat="46.58803" lon="5.53106">
        <ele>510.4</ele>
        <time>2022-03-21T15:58:59Z</time>
      </trkpt>
      <trkpt lat="46.58808" lon="5.53106">
        <ele>510.8</ele>
        <time>2022-03-21T15:59:00Z</time>
      </trkpt>
      <trkpt lat="46.58813" lon="5.53107">
        <ele>510.8</ele>
        <time>2022-03-21T15:59:01Z</time>
      </trkpt>
      <trkpt lat="46.58818" lon="5.53108">
        <ele>510.8</ele>
        <time>2022-03-21T15:59:02Z</time>
      </trkpt>
      <trkpt lat="46.58824" lon="5.5311">
        <ele>510.8</ele>
        <time>2022-03-21T15:59:03Z</time>
      </trkpt>
      <trkpt lat="46.5883" lon="5.53112">
        <ele>510.4</ele>
        <time>2022-03-21T15:59:04Z</time>
      </trkpt>
      <trkpt lat="46.58836" lon="5.53114">
        <ele>510.4</ele>
        <time>2022-03-21T15:59:05Z</time>
      </trkpt>
      <trkpt lat="46.58843" lon="5.53117">
        <ele>510</ele>
        <time>2022-03-21T15:59:06Z</time>
      </trkpt>
      <trkpt lat="46.58849" lon="5.5312">
        <ele>509.8</ele>
        <time>2022-03-21T15:59:07Z</time>
      </trkpt>
      <trkpt lat="46.58856" lon="5.53124">
        <ele>509.4</ele>
        <time>2022-03-21T15:59:08Z</time>
      </trkpt>
      <trkpt lat="46.58863" lon="5.53129">
        <ele>509</ele>
        <time>2022-03-21T15:59:09Z</time>
      </trkpt>
      <trkpt lat="46.5887" lon="5.53134">
        <ele>508.8</ele>
        <time>2022-03-21T15:59:10Z</time>
      </trkpt>
      <trkpt lat="46.58877" lon="5.5314">
        <ele>508.4</ele>
        <time>2022-03-21T15:59:11Z</time>
      </trkpt>
      <trkpt lat="46.58884" lon="5.53146">
        <ele>508.2</ele>
        <time>2022-03-21T15:59:12Z</time>
      </trkpt>
      <trkpt lat="46.58892" lon="5.53152">
        <ele>507.8</ele>
        <time>2022-03-21T15:59:13Z</time>
      </trkpt>
      <trkpt lat="46.58899" lon="5.53158">
        <ele>507.6</ele>
        <time>2022-03-21T15:59:14Z</time>
      </trkpt>
      <trkpt lat="46.58906" lon="5.53166">
        <ele>507.2</ele>
        <time>2022-03-21T15:59:15Z</time>
      </trkpt>
      <trkpt lat="46.58913" lon="5.53173">
        <ele>506.8</ele>
        <time>2022-03-21T15:59:16Z</time>
      </trkpt>
      <trkpt lat="46.5892" lon="5.5318">
        <ele>506.2</ele>
        <time>2022-03-21T15:59:17Z</time>
      </trkpt>
      <trkpt lat="46.58927" lon="5.53188">
        <ele>505.8</ele>
        <time>2022-03-21T15:59:18Z</time>
      </trkpt>
      <trkpt lat="46.58935" lon="5.53198">
        <ele>505.4</ele>
        <time>2022-03-21T15:59:19Z</time>
      </trkpt>
      <trkpt lat="46.58942" lon="5.53207">
        <ele>505</ele>
        <time>2022-03-21T15:59:20Z</time>
      </trkpt>
      <trkpt lat="46.5895" lon="5.53216">
        <ele>504.6</ele>
        <time>2022-03-21T15:59:21Z</time>
      </trkpt>
      <trkpt lat="46.58958" lon="5.53223">
        <ele>504.2</ele>
        <time>2022-03-21T15:59:22Z</time>
      </trkpt>
      <trkpt lat="46.58967" lon="5.53231">
        <ele>503.8</ele>
        <time>2022-03-21T15:59:23Z</time>
      </trkpt>
      <trkpt lat="46.58976" lon="5.53239">
        <ele>503.6</ele>
        <time>2022-03-21T15:59:24Z</time>
      </trkpt>
      <trkpt lat="46.58982" lon="5.53248">
        <ele>503.2</ele>
        <time>2022-03-21T15:59:25Z</time>
      </trkpt>
      <trkpt lat="46.5899" lon="5.53256">
        <ele>503</ele>
        <time>2022-03-21T15:59:26Z</time>
      </trkpt>
      <trkpt lat="46.58996" lon="5.53263">
        <ele>503</ele>
        <time>2022-03-21T15:59:27Z</time>
      </trkpt>
      <trkpt lat="46.59003" lon="5.53271">
        <ele>502.6</ele>
        <time>2022-03-21T15:59:28Z</time>
      </trkpt>
      <trkpt lat="46.59009" lon="5.53278">
        <ele>502.6</ele>
        <time>2022-03-21T15:59:29Z</time>
      </trkpt>
      <trkpt lat="46.59015" lon="5.53286">
        <ele>502.4</ele>
        <time>2022-03-21T15:59:30Z</time>
      </trkpt>
      <trkpt lat="46.59021" lon="5.53293">
        <ele>502.4</ele>
        <time>2022-03-21T15:59:31Z</time>
      </trkpt>
      <trkpt lat="46.59027" lon="5.533">
        <ele>502</ele>
        <time>2022-03-21T15:59:32Z</time>
      </trkpt>
      <trkpt lat="46.59033" lon="5.53308">
        <ele>502</ele>
        <time>2022-03-21T15:59:33Z</time>
      </trkpt>
      <trkpt lat="46.59039" lon="5.53315">
        <ele>501.8</ele>
        <time>2022-03-21T15:59:34Z</time>
      </trkpt>
      <trkpt lat="46.59045" lon="5.53321">
        <ele>501.8</ele>
        <time>2022-03-21T15:59:35Z</time>
      </trkpt>
      <trkpt lat="46.59052" lon="5.53327">
        <ele>501.6</ele>
        <time>2022-03-21T15:59:36Z</time>
      </trkpt>
      <trkpt lat="46.59058" lon="5.53333">
        <ele>501.6</ele>
        <time>2022-03-21T15:59:37Z</time>
      </trkpt>
      <trkpt lat="46.59064" lon="5.53337">
        <ele>501.6</ele>
        <time>2022-03-21T15:59:38Z</time>
      </trkpt>
      <trkpt lat="46.5907" lon="5.53342">
        <ele>501.6</ele>
        <time>2022-03-21T15:59:39Z</time>
      </trkpt>
      <trkpt lat="46.59076" lon="5.53346">
        <ele>501.6</ele>
        <time>2022-03-21T15:59:40Z</time>
      </trkpt>
      <trkpt lat="46.59081" lon="5.53351">
        <ele>501.8</ele>
        <time>2022-03-21T15:59:41Z</time>
      </trkpt>
      <trkpt lat="46.59084" lon="5.53357">
        <ele>501.8</ele>
        <time>2022-03-21T15:59:42Z</time>
      </trkpt>
      <trkpt lat="46.59086" lon="5.53363">
        <ele>501.8</ele>
        <time>2022-03-21T15:59:43Z</time>
      </trkpt>
      <trkpt lat="46.59086" lon="5.5337">
        <ele>502</ele>
        <time>2022-03-21T15:59:44Z</time>
      </trkpt>
      <trkpt lat="46.59084" lon="5.53377">
        <ele>502</ele>
        <time>2022-03-21T15:59:45Z</time>
      </trkpt>
      <trkpt lat="46.59082" lon="5.53383">
        <ele>502</ele>
        <time>2022-03-21T15:59:46Z</time>
      </trkpt>
      <trkpt lat="46.59078" lon="5.53389">
        <ele>502</ele>
        <time>2022-03-21T15:59:47Z</time>
      </trkpt>
      <trkpt lat="46.59075" lon="5.53395">
        <ele>502</ele>
        <time>2022-03-21T15:59:48Z</time>
      </trkpt>
      <trkpt lat="46.5907" lon="5.534">
        <ele>502</ele>
        <time>2022-03-21T15:59:49Z</time>
      </trkpt>
      <trkpt lat="46.59065" lon="5.53405">
        <ele>502</ele>
        <time>2022-03-21T15:59:50Z</time>
      </trkpt>
      <trkpt lat="46.5906" lon="5.53411">
        <ele>501.8</ele>
        <time>2022-03-21T15:59:51Z</time>
      </trkpt>
      <trkpt lat="46.59054" lon="5.53417">
        <ele>501.8</ele>
        <time>2022-03-21T15:59:52Z</time>
      </trkpt>
      <trkpt lat="46.59048" lon="5.53422">
        <ele>501.8</ele>
        <time>2022-03-21T15:59:53Z</time>
      </trkpt>
      <trkpt lat="46.59043" lon="5.53428">
        <ele>501.8</ele>
        <time>2022-03-21T15:59:54Z</time>
      </trkpt>
      <trkpt lat="46.59037" lon="5.53434">
        <ele>501.8</ele>
        <time>2022-03-21T15:59:55Z</time>
      </trkpt>
      <trkpt lat="46.59031" lon="5.53439">
        <ele>501.4</ele>
        <time>2022-03-21T15:59:56Z</time>
      </trkpt>
      <trkpt lat="46.59026" lon="5.53444">
        <ele>501.4</ele>
        <time>2022-03-21T15:59:57Z</time>
      </trkpt>
      <trkpt lat="46.5902" lon="5.5345">
        <ele>501.2</ele>
        <time>2022-03-21T15:59:58Z</time>
      </trkpt>
      <trkpt lat="46.59014" lon="5.53457">
        <ele>501.2</ele>
        <time>2022-03-21T15:59:59Z</time>
      </trkpt>
      <trkpt lat="46.59008" lon="5.53464">
        <ele>500.8</ele>
        <time>2022-03-21T16:00:00Z</time>
      </trkpt>
      <trkpt lat="46.59002" lon="5.53471">
        <ele>500.8</ele>
        <time>2022-03-21T16:00:01Z</time>
      </trkpt>
      <trkpt lat="46.58997" lon="5.53479">
        <ele>500.4</ele>
        <time>2022-03-21T16:00:02Z</time>
      </trkpt>
      <trkpt lat="46.58991" lon="5.53488">
        <ele>500.4</ele>
        <time>2022-03-21T16:00:03Z</time>
      </trkpt>
      <trkpt lat="46.58986" lon="5.53498">
        <ele>500</ele>
        <time>2022-03-21T16:00:04Z</time>
      </trkpt>
      <trkpt lat="46.58982" lon="5.53508">
        <ele>499.8</ele>
        <time>2022-03-21T16:00:05Z</time>
      </trkpt>
      <trkpt lat="46.58978" lon="5.5352">
        <ele>499.4</ele>
        <time>2022-03-21T16:00:06Z</time>
      </trkpt>
      <trkpt lat="46.58974" lon="5.53532">
        <ele>499.2</ele>
        <time>2022-03-21T16:00:07Z</time>
      </trkpt>
      <trkpt lat="46.58971" lon="5.53544">
        <ele>499</ele>
        <time>2022-03-21T16:00:08Z</time>
      </trkpt>
      <trkpt lat="46.58968" lon="5.53557">
        <ele>499</ele>
        <time>2022-03-21T16:00:09Z</time>
      </trkpt>
      <trkpt lat="46.58965" lon="5.5357">
        <ele>498.4</ele>
        <time>2022-03-21T16:00:10Z</time>
      </trkpt>
      <trkpt lat="46.58962" lon="5.53584">
        <ele>498</ele>
        <time>2022-03-21T16:00:11Z</time>
      </trkpt>
      <trkpt lat="46.58958" lon="5.53597">
        <ele>497.4</ele>
        <time>2022-03-21T16:00:12Z</time>
      </trkpt>
      <trkpt lat="46.58953" lon="5.53626">
        <ele>497</ele>
        <time>2022-03-21T16:00:13Z</time>
      </trkpt>
      <trkpt lat="46.5895" lon="5.5364">
        <ele>496.4</ele>
        <time>2022-03-21T16:00:14Z</time>
      </trkpt>
      <trkpt lat="46.58947" lon="5.53655">
        <ele>495.8</ele>
        <time>2022-03-21T16:00:15Z</time>
      </trkpt>
      <trkpt lat="46.58941" lon="5.5367">
        <ele>495</ele>
        <time>2022-03-21T16:00:16Z</time>
      </trkpt>
      <trkpt lat="46.58936" lon="5.53685">
        <ele>494.4</ele>
        <time>2022-03-21T16:00:17Z</time>
      </trkpt>
      <trkpt lat="46.58932" lon="5.53702">
        <ele>493.8</ele>
        <time>2022-03-21T16:00:18Z</time>
      </trkpt>
      <trkpt lat="46.58927" lon="5.53718">
        <ele>493</ele>
        <time>2022-03-21T16:00:19Z</time>
      </trkpt>
      <trkpt lat="46.58922" lon="5.53732">
        <ele>492.2</ele>
        <time>2022-03-21T16:00:20Z</time>
      </trkpt>
      <trkpt lat="46.58917" lon="5.53749">
        <ele>491.4</ele>
        <time>2022-03-21T16:00:21Z</time>
      </trkpt>
      <trkpt lat="46.58912" lon="5.53766">
        <ele>490.6</ele>
        <time>2022-03-21T16:00:22Z</time>
      </trkpt>
      <trkpt lat="46.58907" lon="5.53783">
        <ele>489.8</ele>
        <time>2022-03-21T16:00:23Z</time>
      </trkpt>
      <trkpt lat="46.58902" lon="5.53799">
        <ele>489</ele>
        <time>2022-03-21T16:00:24Z</time>
      </trkpt>
      <trkpt lat="46.58896" lon="5.53816">
        <ele>488.4</ele>
        <time>2022-03-21T16:00:25Z</time>
      </trkpt>
      <trkpt lat="46.5889" lon="5.53833">
        <ele>487.6</ele>
        <time>2022-03-21T16:00:26Z</time>
      </trkpt>
      <trkpt lat="46.58885" lon="5.5385">
        <ele>486.8</ele>
        <time>2022-03-21T16:00:27Z</time>
      </trkpt>
      <trkpt lat="46.58881" lon="5.53868">
        <ele>485.8</ele>
        <time>2022-03-21T16:00:28Z</time>
      </trkpt>
      <trkpt lat="46.58875" lon="5.53885">
        <ele>485.2</ele>
        <time>2022-03-21T16:00:29Z</time>
      </trkpt>
      <trkpt lat="46.5887" lon="5.53901">
        <ele>484.6</ele>
        <time>2022-03-21T16:00:30Z</time>
      </trkpt>
      <trkpt lat="46.58865" lon="5.53918">
        <ele>484.2</ele>
        <time>2022-03-21T16:00:31Z</time>
      </trkpt>
      <trkpt lat="46.5886" lon="5.53934">
        <ele>483.8</ele>
        <time>2022-03-21T16:00:32Z</time>
      </trkpt>
      <trkpt lat="46.58855" lon="5.53951">
        <ele>483.4</ele>
        <time>2022-03-21T16:00:33Z</time>
      </trkpt>
      <trkpt lat="46.5885" lon="5.53966">
        <ele>483</ele>
        <time>2022-03-21T16:00:34Z</time>
      </trkpt>
      <trkpt lat="46.58845" lon="5.53981">
        <ele>482.8</ele>
        <time>2022-03-21T16:00:35Z</time>
      </trkpt>
      <trkpt lat="46.58841" lon="5.53997">
        <ele>482.4</ele>
        <time>2022-03-21T16:00:36Z</time>
      </trkpt>
      <trkpt lat="46.58836" lon="5.54011">
        <ele>482</ele>
        <time>2022-03-21T16:00:37Z</time>
      </trkpt>
      <trkpt lat="46.58832" lon="5.54025">
        <ele>482</ele>
        <time>2022-03-21T16:00:38Z</time>
      </trkpt>
      <trkpt lat="46.58829" lon="5.54039">
        <ele>481.6</ele>
        <time>2022-03-21T16:00:39Z</time>
      </trkpt>
      <trkpt lat="46.58825" lon="5.54052">
        <ele>481.6</ele>
        <time>2022-03-21T16:00:40Z</time>
      </trkpt>
      <trkpt lat="46.58823" lon="5.54065">
        <ele>481.4</ele>
        <time>2022-03-21T16:00:41Z</time>
      </trkpt>
      <trkpt lat="46.58822" lon="5.54079">
        <ele>481.4</ele>
        <time>2022-03-21T16:00:42Z</time>
      </trkpt>
      <trkpt lat="46.58819" lon="5.54094">
        <ele>481</ele>
        <time>2022-03-21T16:00:43Z</time>
      </trkpt>
      <trkpt lat="46.58817" lon="5.54108">
        <ele>480.8</ele>
        <time>2022-03-21T16:00:44Z</time>
      </trkpt>
      <trkpt lat="46.58814" lon="5.54122">
        <ele>480.4</ele>
        <time>2022-03-21T16:00:45Z</time>
      </trkpt>
      <trkpt lat="46.58811" lon="5.54137">
        <ele>480</ele>
        <time>2022-03-21T16:00:46Z</time>
      </trkpt>
      <trkpt lat="46.58808" lon="5.54152">
        <ele>479.8</ele>
        <time>2022-03-21T16:00:47Z</time>
      </trkpt>
      <trkpt lat="46.58806" lon="5.54167">
        <ele>479.4</ele>
        <time>2022-03-21T16:00:48Z</time>
      </trkpt>
      <trkpt lat="46.58803" lon="5.54182">
        <ele>479.2</ele>
        <time>2022-03-21T16:00:49Z</time>
      </trkpt>
      <trkpt lat="46.58801" lon="5.54196">
        <ele>479.2</ele>
        <time>2022-03-21T16:00:50Z</time>
      </trkpt>
      <trkpt lat="46.58798" lon="5.5421">
        <ele>479</ele>
        <time>2022-03-21T16:00:51Z</time>
      </trkpt>
      <trkpt lat="46.58795" lon="5.54224">
        <ele>479</ele>
        <time>2022-03-21T16:00:52Z</time>
      </trkpt>
      <trkpt lat="46.58793" lon="5.54237">
        <ele>479</ele>
        <time>2022-03-21T16:00:53Z</time>
      </trkpt>
      <trkpt lat="46.58791" lon="5.5425">
        <ele>479</ele>
        <time>2022-03-21T16:00:54Z</time>
      </trkpt>
      <trkpt lat="46.58788" lon="5.54262">
        <ele>479</ele>
        <time>2022-03-21T16:00:55Z</time>
      </trkpt>
      <trkpt lat="46.58785" lon="5.54274">
        <ele>479</ele>
        <time>2022-03-21T16:00:56Z</time>
      </trkpt>
      <trkpt lat="46.58782" lon="5.54285">
        <ele>479.2</ele>
        <time>2022-03-21T16:00:57Z</time>
      </trkpt>
      <trkpt lat="46.58779" lon="5.54296">
        <ele>479.2</ele>
        <time>2022-03-21T16:00:58Z</time>
      </trkpt>
      <trkpt lat="46.58775" lon="5.54306">
        <ele>479.6</ele>
        <time>2022-03-21T16:00:59Z</time>
      </trkpt>
      <trkpt lat="46.58773" lon="5.54316">
        <ele>479.6</ele>
        <time>2022-03-21T16:01:00Z</time>
      </trkpt>
      <trkpt lat="46.5877" lon="5.54326">
        <ele>480</ele>
        <time>2022-03-21T16:01:01Z</time>
      </trkpt>
      <trkpt lat="46.58767" lon="5.54335">
        <ele>480.2</ele>
        <time>2022-03-21T16:01:02Z</time>
      </trkpt>
      <trkpt lat="46.58764" lon="5.54345">
        <ele>480.4</ele>
        <time>2022-03-21T16:01:03Z</time>
      </trkpt>
      <trkpt lat="46.58761" lon="5.54354">
        <ele>480.6</ele>
        <time>2022-03-21T16:01:04Z</time>
      </trkpt>
      <trkpt lat="46.58758" lon="5.54362">
        <ele>481</ele>
        <time>2022-03-21T16:01:05Z</time>
      </trkpt>
      <trkpt lat="46.58756" lon="5.54371">
        <ele>481.2</ele>
        <time>2022-03-21T16:01:06Z</time>
      </trkpt>
      <trkpt lat="46.58753" lon="5.54379">
        <ele>481.4</ele>
        <time>2022-03-21T16:01:07Z</time>
      </trkpt>
      <trkpt lat="46.58751" lon="5.54386">
        <ele>481.6</ele>
        <time>2022-03-21T16:01:08Z</time>
      </trkpt>
      <trkpt lat="46.58749" lon="5.54394">
        <ele>481.8</ele>
        <time>2022-03-21T16:01:09Z</time>
      </trkpt>
      <trkpt lat="46.58747" lon="5.54401">
        <ele>482.2</ele>
        <time>2022-03-21T16:01:10Z</time>
      </trkpt>
      <trkpt lat="46.58745" lon="5.54407">
        <ele>482.2</ele>
        <time>2022-03-21T16:01:11Z</time>
      </trkpt>
      <trkpt lat="46.58743" lon="5.54414">
        <ele>482.6</ele>
        <time>2022-03-21T16:01:12Z</time>
      </trkpt>
      <trkpt lat="46.58742" lon="5.5442">
        <ele>483</ele>
        <time>2022-03-21T16:01:13Z</time>
      </trkpt>
      <trkpt lat="46.5874" lon="5.54426">
        <ele>483.2</ele>
        <time>2022-03-21T16:01:14Z</time>
      </trkpt>
      <trkpt lat="46.58738" lon="5.54432">
        <ele>483.4</ele>
        <time>2022-03-21T16:01:15Z</time>
      </trkpt>
      <trkpt lat="46.58737" lon="5.54438">
        <ele>483.6</ele>
        <time>2022-03-21T16:01:16Z</time>
      </trkpt>
      <trkpt lat="46.58735" lon="5.54444">
        <ele>483.6</ele>
        <time>2022-03-21T16:01:17Z</time>
      </trkpt>
      <trkpt lat="46.58734" lon="5.54449">
        <ele>484</ele>
        <time>2022-03-21T16:01:18Z</time>
      </trkpt>
      <trkpt lat="46.58733" lon="5.54455">
        <ele>484.2</ele>
        <time>2022-03-21T16:01:19Z</time>
      </trkpt>
      <trkpt lat="46.58731" lon="5.5446">
        <ele>484.2</ele>
        <time>2022-03-21T16:01:20Z</time>
      </trkpt>
      <trkpt lat="46.5873" lon="5.54465">
        <ele>484.8</ele>
        <time>2022-03-21T16:01:21Z</time>
      </trkpt>
      <trkpt lat="46.58729" lon="5.5447">
        <ele>485</ele>
        <time>2022-03-21T16:01:22Z</time>
      </trkpt>
      <trkpt lat="46.58728" lon="5.54475">
        <ele>485.2</ele>
        <time>2022-03-21T16:01:23Z</time>
      </trkpt>
      <trkpt lat="46.58726" lon="5.5448">
        <ele>485.4</ele>
        <time>2022-03-21T16:01:24Z</time>
      </trkpt>
      <trkpt lat="46.58725" lon="5.54485">
        <ele>485.4</ele>
        <time>2022-03-21T16:01:25Z</time>
      </trkpt>
      <trkpt lat="46.58724" lon="5.54489">
        <ele>485.8</ele>
        <time>2022-03-21T16:01:26Z</time>
      </trkpt>
      <trkpt lat="46.58723" lon="5.54494">
        <ele>486</ele>
        <time>2022-03-21T16:01:27Z</time>
      </trkpt>
      <trkpt lat="46.58722" lon="5.54498">
        <ele>486</ele>
        <time>2022-03-21T16:01:28Z</time>
      </trkpt>
      <trkpt lat="46.58721" lon="5.54503">
        <ele>486.4</ele>
        <time>2022-03-21T16:01:29Z</time>
      </trkpt>
      <trkpt lat="46.58719" lon="5.54508">
        <ele>486.4</ele>
        <time>2022-03-21T16:01:30Z</time>
      </trkpt>
      <trkpt lat="46.58718" lon="5.54512">
        <ele>486.6</ele>
        <time>2022-03-21T16:01:31Z</time>
      </trkpt>
      <trkpt lat="46.58717" lon="5.54517">
        <ele>486.6</ele>
        <time>2022-03-21T16:01:32Z</time>
      </trkpt>
      <trkpt lat="46.58716" lon="5.54521">
        <ele>487</ele>
        <time>2022-03-21T16:01:33Z</time>
      </trkpt>
      <trkpt lat="46.58715" lon="5.54525">
        <ele>487</ele>
        <time>2022-03-21T16:01:34Z</time>
      </trkpt>
      <trkpt lat="46.58713" lon="5.54529">
        <ele>487.4</ele>
        <time>2022-03-21T16:01:35Z</time>
      </trkpt>
      <trkpt lat="46.58712" lon="5.54534">
        <ele>487.4</ele>
        <time>2022-03-21T16:01:36Z</time>
      </trkpt>
      <trkpt lat="46.58711" lon="5.54539">
        <ele>487.6</ele>
        <time>2022-03-21T16:01:37Z</time>
      </trkpt>
      <trkpt lat="46.58709" lon="5.54543">
        <ele>487.6</ele>
        <time>2022-03-21T16:01:38Z</time>
      </trkpt>
      <trkpt lat="46.58708" lon="5.54548">
        <ele>487.8</ele>
        <time>2022-03-21T16:01:39Z</time>
      </trkpt>
      <trkpt lat="46.58707" lon="5.54553">
        <ele>487.8</ele>
        <time>2022-03-21T16:01:40Z</time>
      </trkpt>
      <trkpt lat="46.58705" lon="5.54558">
        <ele>488.2</ele>
        <time>2022-03-21T16:01:41Z</time>
      </trkpt>
      <trkpt lat="46.58703" lon="5.54563">
        <ele>488.2</ele>
        <time>2022-03-21T16:01:42Z</time>
      </trkpt>
      <trkpt lat="46.58702" lon="5.54568">
        <ele>488.4</ele>
        <time>2022-03-21T16:01:43Z</time>
      </trkpt>
      <trkpt lat="46.587" lon="5.54573">
        <ele>488.4</ele>
        <time>2022-03-21T16:01:44Z</time>
      </trkpt>
      <trkpt lat="46.58697" lon="5.54578">
        <ele>488.6</ele>
        <time>2022-03-21T16:01:45Z</time>
      </trkpt>
      <trkpt lat="46.58695" lon="5.54583">
        <ele>488.6</ele>
        <time>2022-03-21T16:01:46Z</time>
      </trkpt>
      <trkpt lat="46.58693" lon="5.54588">
        <ele>488.8</ele>
        <time>2022-03-21T16:01:47Z</time>
      </trkpt>
      <trkpt lat="46.5869" lon="5.54593">
        <ele>488.8</ele>
        <time>2022-03-21T16:01:48Z</time>
      </trkpt>
      <trkpt lat="46.58688" lon="5.54597">
        <ele>489.2</ele>
        <time>2022-03-21T16:01:49Z</time>
      </trkpt>
      <trkpt lat="46.58686" lon="5.54602">
        <ele>489.4</ele>
        <time>2022-03-21T16:01:50Z</time>
      </trkpt>
      <trkpt lat="46.58684" lon="5.54606">
        <ele>489.6</ele>
        <time>2022-03-21T16:01:51Z</time>
      </trkpt>
      <trkpt lat="46.58682" lon="5.5461">
        <ele>489.8</ele>
        <time>2022-03-21T16:01:52Z</time>
      </trkpt>
      <trkpt lat="46.5868" lon="5.54614">
        <ele>489.8</ele>
        <time>2022-03-21T16:01:53Z</time>
      </trkpt>
      <trkpt lat="46.58678" lon="5.54618">
        <ele>490</ele>
        <time>2022-03-21T16:01:54Z</time>
      </trkpt>
      <trkpt lat="46.58676" lon="5.54623">
        <ele>490</ele>
        <time>2022-03-21T16:01:55Z</time>
      </trkpt>
      <trkpt lat="46.58674" lon="5.54628">
        <ele>490.4</ele>
        <time>2022-03-21T16:01:56Z</time>
      </trkpt>
      <trkpt lat="46.58672" lon="5.54633">
        <ele>490.4</ele>
        <time>2022-03-21T16:01:57Z</time>
      </trkpt>
      <trkpt lat="46.5867" lon="5.54638">
        <ele>490.6</ele>
        <time>2022-03-21T16:01:58Z</time>
      </trkpt>
      <trkpt lat="46.58668" lon="5.54643">
        <ele>490.6</ele>
        <time>2022-03-21T16:01:59Z</time>
      </trkpt>
      <trkpt lat="46.58666" lon="5.54648">
        <ele>490.8</ele>
        <time>2022-03-21T16:02:00Z</time>
      </trkpt>
      <trkpt lat="46.58665" lon="5.54653">
        <ele>490.8</ele>
        <time>2022-03-21T16:02:01Z</time>
      </trkpt>
      <trkpt lat="46.58663" lon="5.54659">
        <ele>491</ele>
        <time>2022-03-21T16:02:02Z</time>
      </trkpt>
      <trkpt lat="46.58661" lon="5.54664">
        <ele>491</ele>
        <time>2022-03-21T16:02:03Z</time>
      </trkpt>
      <trkpt lat="46.5866" lon="5.5467">
        <ele>491</ele>
        <time>2022-03-21T16:02:04Z</time>
      </trkpt>
      <trkpt lat="46.58658" lon="5.54675">
        <ele>491</ele>
        <time>2022-03-21T16:02:05Z</time>
      </trkpt>
      <trkpt lat="46.58656" lon="5.54681">
        <ele>491</ele>
        <time>2022-03-21T16:02:06Z</time>
      </trkpt>
      <trkpt lat="46.58654" lon="5.54686">
        <ele>491.4</ele>
        <time>2022-03-21T16:02:07Z</time>
      </trkpt>
      <trkpt lat="46.58653" lon="5.54691">
        <ele>491.4</ele>
        <time>2022-03-21T16:02:08Z</time>
      </trkpt>
      <trkpt lat="46.58651" lon="5.54696">
        <ele>491.4</ele>
        <time>2022-03-21T16:02:09Z</time>
      </trkpt>
      <trkpt lat="46.5865" lon="5.54701">
        <ele>491.6</ele>
        <time>2022-03-21T16:02:10Z</time>
      </trkpt>
      <trkpt lat="46.58648" lon="5.54706">
        <ele>491.8</ele>
        <time>2022-03-21T16:02:11Z</time>
      </trkpt>
      <trkpt lat="46.58646" lon="5.54711">
        <ele>491.8</ele>
        <time>2022-03-21T16:02:12Z</time>
      </trkpt>
      <trkpt lat="46.58645" lon="5.54716">
        <ele>492.2</ele>
        <time>2022-03-21T16:02:13Z</time>
      </trkpt>
      <trkpt lat="46.58643" lon="5.54721">
        <ele>492.2</ele>
        <time>2022-03-21T16:02:14Z</time>
      </trkpt>
      <trkpt lat="46.58642" lon="5.54726">
        <ele>492.4</ele>
        <time>2022-03-21T16:02:15Z</time>
      </trkpt>
      <trkpt lat="46.5864" lon="5.54731">
        <ele>492.4</ele>
        <time>2022-03-21T16:02:16Z</time>
      </trkpt>
      <trkpt lat="46.58639" lon="5.54736">
        <ele>492.8</ele>
        <time>2022-03-21T16:02:17Z</time>
      </trkpt>
      <trkpt lat="46.58638" lon="5.54741">
        <ele>492.8</ele>
        <time>2022-03-21T16:02:18Z</time>
      </trkpt>
      <trkpt lat="46.58637" lon="5.54745">
        <ele>493</ele>
        <time>2022-03-21T16:02:19Z</time>
      </trkpt>
      <trkpt lat="46.58635" lon="5.5475">
        <ele>493</ele>
        <time>2022-03-21T16:02:20Z</time>
      </trkpt>
      <trkpt lat="46.58634" lon="5.54755">
        <ele>493.4</ele>
        <time>2022-03-21T16:02:21Z</time>
      </trkpt>
      <trkpt lat="46.58632" lon="5.54759">
        <ele>493.6</ele>
        <time>2022-03-21T16:02:22Z</time>
      </trkpt>
      <trkpt lat="46.5863" lon="5.54764">
        <ele>493.6</ele>
        <time>2022-03-21T16:02:23Z</time>
      </trkpt>
      <trkpt lat="46.58628" lon="5.54768">
        <ele>493.8</ele>
        <time>2022-03-21T16:02:24Z</time>
      </trkpt>
      <trkpt lat="46.58625" lon="5.54772">
        <ele>493.8</ele>
        <time>2022-03-21T16:02:25Z</time>
      </trkpt>
      <trkpt lat="46.58623" lon="5.54776">
        <ele>494</ele>
        <time>2022-03-21T16:02:26Z</time>
      </trkpt>
      <trkpt lat="46.5862" lon="5.5478">
        <ele>494</ele>
        <time>2022-03-21T16:02:27Z</time>
      </trkpt>
      <trkpt lat="46.58618" lon="5.54785">
        <ele>494.4</ele>
        <time>2022-03-21T16:02:28Z</time>
      </trkpt>
      <trkpt lat="46.58615" lon="5.54789">
        <ele>494.4</ele>
        <time>2022-03-21T16:02:29Z</time>
      </trkpt>
      <trkpt lat="46.58613" lon="5.54794">
        <ele>494.4</ele>
        <time>2022-03-21T16:02:30Z</time>
      </trkpt>
      <trkpt lat="46.5861" lon="5.54799">
        <ele>494.4</ele>
        <time>2022-03-21T16:02:31Z</time>
      </trkpt>
      <trkpt lat="46.58608" lon="5.54804">
        <ele>494.6</ele>
        <time>2022-03-21T16:02:32Z</time>
      </trkpt>
      <trkpt lat="46.58607" lon="5.54808">
        <ele>494.6</ele>
        <time>2022-03-21T16:02:33Z</time>
      </trkpt>
      <trkpt lat="46.58605" lon="5.54813">
        <ele>494.8</ele>
        <time>2022-03-21T16:02:34Z</time>
      </trkpt>
      <trkpt lat="46.58603" lon="5.54818">
        <ele>494.8</ele>
        <time>2022-03-21T16:02:35Z</time>
      </trkpt>
      <trkpt lat="46.58601" lon="5.54822">
        <ele>495.2</ele>
        <time>2022-03-21T16:02:36Z</time>
      </trkpt>
      <trkpt lat="46.58599" lon="5.54827">
        <ele>495.2</ele>
        <time>2022-03-21T16:02:37Z</time>
      </trkpt>
      <trkpt lat="46.58597" lon="5.54832">
        <ele>495.4</ele>
        <time>2022-03-21T16:02:38Z</time>
      </trkpt>
      <trkpt lat="46.58595" lon="5.54836">
        <ele>495.4</ele>
        <time>2022-03-21T16:02:39Z</time>
      </trkpt>
      <trkpt lat="46.58593" lon="5.54841">
        <ele>495.8</ele>
        <time>2022-03-21T16:02:40Z</time>
      </trkpt>
      <trkpt lat="46.58592" lon="5.54845">
        <ele>495.8</ele>
        <time>2022-03-21T16:02:41Z</time>
      </trkpt>
      <trkpt lat="46.5859" lon="5.5485">
        <ele>496</ele>
        <time>2022-03-21T16:02:42Z</time>
      </trkpt>
      <trkpt lat="46.58588" lon="5.54855">
        <ele>496</ele>
        <time>2022-03-21T16:02:43Z</time>
      </trkpt>
      <trkpt lat="46.58587" lon="5.54859">
        <ele>496.4</ele>
        <time>2022-03-21T16:02:44Z</time>
      </trkpt>
      <trkpt lat="46.58585" lon="5.54864">
        <ele>496.4</ele>
        <time>2022-03-21T16:02:45Z</time>
      </trkpt>
      <trkpt lat="46.58584" lon="5.54869">
        <ele>496.6</ele>
        <time>2022-03-21T16:02:46Z</time>
      </trkpt>
      <trkpt lat="46.58582" lon="5.54873">
        <ele>496.6</ele>
        <time>2022-03-21T16:02:47Z</time>
      </trkpt>
      <trkpt lat="46.5858" lon="5.54879">
        <ele>497</ele>
        <time>2022-03-21T16:02:48Z</time>
      </trkpt>
      <trkpt lat="46.58579" lon="5.54884">
        <ele>497</ele>
        <time>2022-03-21T16:02:49Z</time>
      </trkpt>
      <trkpt lat="46.58577" lon="5.54889">
        <ele>497.2</ele>
        <time>2022-03-21T16:02:50Z</time>
      </trkpt>
      <trkpt lat="46.58576" lon="5.54895">
        <ele>497.2</ele>
        <time>2022-03-21T16:02:51Z</time>
      </trkpt>
      <trkpt lat="46.58576" lon="5.549">
        <ele>497.4</ele>
        <time>2022-03-21T16:02:52Z</time>
      </trkpt>
      <trkpt lat="46.58575" lon="5.54906">
        <ele>497.4</ele>
        <time>2022-03-21T16:02:53Z</time>
      </trkpt>
      <trkpt lat="46.58574" lon="5.54911">
        <ele>497.4</ele>
        <time>2022-03-21T16:02:54Z</time>
      </trkpt>
      <trkpt lat="46.58574" lon="5.54917">
        <ele>497.6</ele>
        <time>2022-03-21T16:02:55Z</time>
      </trkpt>
      <trkpt lat="46.58573" lon="5.54923">
        <ele>497.6</ele>
        <time>2022-03-21T16:02:56Z</time>
      </trkpt>
      <trkpt lat="46.58573" lon="5.54928">
        <ele>498</ele>
        <time>2022-03-21T16:02:57Z</time>
      </trkpt>
      <trkpt lat="46.58572" lon="5.54933">
        <ele>498</ele>
        <time>2022-03-21T16:02:58Z</time>
      </trkpt>
      <trkpt lat="46.58572" lon="5.54939">
        <ele>498.2</ele>
        <time>2022-03-21T16:02:59Z</time>
      </trkpt>
      <trkpt lat="46.58571" lon="5.54944">
        <ele>498.2</ele>
        <time>2022-03-21T16:03:00Z</time>
      </trkpt>
      <trkpt lat="46.58569" lon="5.54949">
        <ele>498.2</ele>
        <time>2022-03-21T16:03:01Z</time>
      </trkpt>
      <trkpt lat="46.58568" lon="5.54953">
        <ele>498.6</ele>
        <time>2022-03-21T16:03:03Z</time>
      </trkpt>
      <trkpt lat="46.58567" lon="5.54957">
        <ele>499</ele>
        <time>2022-03-21T16:03:04Z</time>
      </trkpt>
      <trkpt lat="46.58565" lon="5.54962">
        <ele>499</ele>
        <time>2022-03-21T16:03:05Z</time>
      </trkpt>
      <trkpt lat="46.58563" lon="5.54965">
        <ele>499.4</ele>
        <time>2022-03-21T16:03:06Z</time>
      </trkpt>
      <trkpt lat="46.58561" lon="5.54969">
        <ele>499.4</ele>
        <time>2022-03-21T16:03:07Z</time>
      </trkpt>
      <trkpt lat="46.5856" lon="5.54972">
        <ele>499.6</ele>
        <time>2022-03-21T16:03:08Z</time>
      </trkpt>
      <trkpt lat="46.58558" lon="5.54976">
        <ele>499.8</ele>
        <time>2022-03-21T16:03:09Z</time>
      </trkpt>
      <trkpt lat="46.58556" lon="5.5498">
        <ele>499.8</ele>
        <time>2022-03-21T16:03:10Z</time>
      </trkpt>
      <trkpt lat="46.58554" lon="5.54983">
        <ele>500</ele>
        <time>2022-03-21T16:03:11Z</time>
      </trkpt>
      <trkpt lat="46.58552" lon="5.54987">
        <ele>500</ele>
        <time>2022-03-21T16:03:12Z</time>
      </trkpt>
      <trkpt lat="46.5855" lon="5.54991">
        <ele>500.2</ele>
        <time>2022-03-21T16:03:13Z</time>
      </trkpt>
      <trkpt lat="46.58548" lon="5.54994">
        <ele>500.2</ele>
        <time>2022-03-21T16:03:14Z</time>
      </trkpt>
      <trkpt lat="46.58546" lon="5.54998">
        <ele>500.2</ele>
        <time>2022-03-21T16:03:15Z</time>
      </trkpt>
      <trkpt lat="46.58544" lon="5.55002">
        <ele>500.6</ele>
        <time>2022-03-21T16:03:16Z</time>
      </trkpt>
      <trkpt lat="46.58541" lon="5.55005">
        <ele>500.6</ele>
        <time>2022-03-21T16:03:17Z</time>
      </trkpt>
      <trkpt lat="46.58539" lon="5.55009">
        <ele>500.8</ele>
        <time>2022-03-21T16:03:18Z</time>
      </trkpt>
      <trkpt lat="46.58536" lon="5.55011">
        <ele>500.8</ele>
        <time>2022-03-21T16:03:19Z</time>
      </trkpt>
      <trkpt lat="46.58534" lon="5.55014">
        <ele>501</ele>
        <time>2022-03-21T16:03:20Z</time>
      </trkpt>
      <trkpt lat="46.58531" lon="5.55017">
        <ele>501</ele>
        <time>2022-03-21T16:03:21Z</time>
      </trkpt>
      <trkpt lat="46.58528" lon="5.55018">
        <ele>501.2</ele>
        <time>2022-03-21T16:03:22Z</time>
      </trkpt>
      <trkpt lat="46.58526" lon="5.55019">
        <ele>501.2</ele>
        <time>2022-03-21T16:03:23Z</time>
      </trkpt>
      <trkpt lat="46.58524" lon="5.5502">
        <ele>501.4</ele>
        <time>2022-03-21T16:03:24Z</time>
      </trkpt>
      <trkpt lat="46.58522" lon="5.55022">
        <ele>501.4</ele>
        <time>2022-03-21T16:03:25Z</time>
      </trkpt>
      <trkpt lat="46.5852" lon="5.55024">
        <ele>501.4</ele>
        <time>2022-03-21T16:03:26Z</time>
      </trkpt>
      <trkpt lat="46.58519" lon="5.55025">
        <ele>501.8</ele>
        <time>2022-03-21T16:03:27Z</time>
      </trkpt>
      <trkpt lat="46.58517" lon="5.55026">
        <ele>501.8</ele>
        <time>2022-03-21T16:03:28Z</time>
      </trkpt>
      <trkpt lat="46.58516" lon="5.55028">
        <ele>501.8</ele>
        <time>2022-03-21T16:03:29Z</time>
      </trkpt>
      <trkpt lat="46.58514" lon="5.55029">
        <ele>501.8</ele>
        <time>2022-03-21T16:03:30Z</time>
      </trkpt>
      <trkpt lat="46.58513" lon="5.5503">
        <ele>501.8</ele>
        <time>2022-03-21T16:03:31Z</time>
      </trkpt>
      <trkpt lat="46.58514" lon="5.55031">
        <ele>501.8</ele>
        <time>2022-03-21T16:03:32Z</time>
      </trkpt>
      <trkpt lat="46.58515" lon="5.55031">
        <ele>501.8</ele>
        <time>2022-03-21T16:03:33Z</time>
      </trkpt>
      <trkpt lat="46.58517" lon="5.5503">
        <ele>502</ele>
        <time>2022-03-21T16:03:34Z</time>
      </trkpt>
      <trkpt lat="46.58518" lon="5.5503">
        <ele>502</ele>
        <time>2022-03-21T16:03:35Z</time>
      </trkpt>
      <trkpt lat="46.5852" lon="5.55028">
        <ele>502</ele>
        <time>2022-03-21T16:03:36Z</time>
      </trkpt>
      <trkpt lat="46.58522" lon="5.55026">
        <ele>502</ele>
        <time>2022-03-21T16:03:37Z</time>
      </trkpt>
      <trkpt lat="46.58524" lon="5.55025">
        <ele>502</ele>
        <time>2022-03-21T16:03:38Z</time>
      </trkpt>
      <trkpt lat="46.58526" lon="5.55023">
        <ele>502</ele>
        <time>2022-03-21T16:03:39Z</time>
      </trkpt>
      <trkpt lat="46.58529" lon="5.5502">
        <ele>502</ele>
        <time>2022-03-21T16:03:40Z</time>
      </trkpt>
      <trkpt lat="46.58531" lon="5.55017">
        <ele>502</ele>
        <time>2022-03-21T16:03:41Z</time>
      </trkpt>
      <trkpt lat="46.58534" lon="5.55013">
        <ele>501.6</ele>
        <time>2022-03-21T16:03:42Z</time>
      </trkpt>
      <trkpt lat="46.58537" lon="5.5501">
        <ele>501.6</ele>
        <time>2022-03-21T16:03:43Z</time>
      </trkpt>
      <trkpt lat="46.5854" lon="5.55006">
        <ele>501.4</ele>
        <time>2022-03-21T16:03:44Z</time>
      </trkpt>
      <trkpt lat="46.58543" lon="5.55002">
        <ele>501.2</ele>
        <time>2022-03-21T16:03:45Z</time>
      </trkpt>
      <trkpt lat="46.58547" lon="5.54997">
        <ele>501.2</ele>
        <time>2022-03-21T16:03:46Z</time>
      </trkpt>
      <trkpt lat="46.58549" lon="5.54993">
        <ele>501.2</ele>
        <time>2022-03-21T16:03:47Z</time>
      </trkpt>
      <trkpt lat="46.58552" lon="5.54989">
        <ele>500.8</ele>
        <time>2022-03-21T16:03:48Z</time>
      </trkpt>
      <trkpt lat="46.58555" lon="5.54986">
        <ele>500.8</ele>
        <time>2022-03-21T16:03:49Z</time>
      </trkpt>
      <trkpt lat="46.58557" lon="5.54985">
        <ele>500.8</ele>
        <time>2022-03-21T16:03:50Z</time>
      </trkpt>
      <trkpt lat="46.5856" lon="5.54985">
        <ele>500.8</ele>
        <time>2022-03-21T16:03:51Z</time>
      </trkpt>
      <trkpt lat="46.58562" lon="5.54987">
        <ele>500.8</ele>
        <time>2022-03-21T16:03:52Z</time>
      </trkpt>
      <trkpt lat="46.58564" lon="5.54989">
        <ele>500.8</ele>
        <time>2022-03-21T16:03:53Z</time>
      </trkpt>
      <trkpt lat="46.58567" lon="5.54992">
        <ele>500.8</ele>
        <time>2022-03-21T16:03:54Z</time>
      </trkpt>
      <trkpt lat="46.58569" lon="5.54995">
        <ele>501.2</ele>
        <time>2022-03-21T16:03:55Z</time>
      </trkpt>
      <trkpt lat="46.58571" lon="5.54998">
        <ele>501.2</ele>
        <time>2022-03-21T16:03:56Z</time>
      </trkpt>
      <trkpt lat="46.58572" lon="5.55002">
        <ele>501.6</ele>
        <time>2022-03-21T16:03:57Z</time>
      </trkpt>
      <trkpt lat="46.58574" lon="5.55006">
        <ele>501.6</ele>
        <time>2022-03-21T16:03:58Z</time>
      </trkpt>
      <trkpt lat="46.58576" lon="5.5501">
        <ele>501.8</ele>
        <time>2022-03-21T16:03:59Z</time>
      </trkpt>
      <trkpt lat="46.58578" lon="5.55014">
        <ele>501.8</ele>
        <time>2022-03-21T16:04:00Z</time>
      </trkpt>
      <trkpt lat="46.5858" lon="5.55018">
        <ele>501.8</ele>
        <time>2022-03-21T16:04:01Z</time>
      </trkpt>
      <trkpt lat="46.58583" lon="5.55022">
        <ele>502.2</ele>
        <time>2022-03-21T16:04:02Z</time>
      </trkpt>
      <trkpt lat="46.58585" lon="5.55025">
        <ele>502.2</ele>
        <time>2022-03-21T16:04:03Z</time>
      </trkpt>
      <trkpt lat="46.58587" lon="5.55029">
        <ele>502.2</ele>
        <time>2022-03-21T16:04:04Z</time>
      </trkpt>
      <trkpt lat="46.58589" lon="5.55033">
        <ele>502.4</ele>
        <time>2022-03-21T16:04:05Z</time>
      </trkpt>
      <trkpt lat="46.58592" lon="5.55037">
        <ele>502.4</ele>
        <time>2022-03-21T16:04:06Z</time>
      </trkpt>
      <trkpt lat="46.58594" lon="5.5504">
        <ele>502.6</ele>
        <time>2022-03-21T16:04:07Z</time>
      </trkpt>
      <trkpt lat="46.58597" lon="5.55043">
        <ele>502.6</ele>
        <time>2022-03-21T16:04:08Z</time>
      </trkpt>
      <trkpt lat="46.586" lon="5.55045">
        <ele>502.6</ele>
        <time>2022-03-21T16:04:09Z</time>
      </trkpt>
      <trkpt lat="46.58602" lon="5.55048">
        <ele>503</ele>
        <time>2022-03-21T16:04:10Z</time>
      </trkpt>
      <trkpt lat="46.58605" lon="5.5505">
        <ele>503.2</ele>
        <time>2022-03-21T16:04:11Z</time>
      </trkpt>
      <trkpt lat="46.58607" lon="5.55052">
        <ele>503.4</ele>
        <time>2022-03-21T16:04:12Z</time>
      </trkpt>
      <trkpt lat="46.58609" lon="5.55054">
        <ele>503.6</ele>
        <time>2022-03-21T16:04:13Z</time>
      </trkpt>
      <trkpt lat="46.58611" lon="5.55056">
        <ele>503.8</ele>
        <time>2022-03-21T16:04:14Z</time>
      </trkpt>
      <trkpt lat="46.58613" lon="5.55057">
        <ele>504.2</ele>
        <time>2022-03-21T16:04:15Z</time>
      </trkpt>
      <trkpt lat="46.58615" lon="5.55058">
        <ele>504.4</ele>
        <time>2022-03-21T16:04:16Z</time>
      </trkpt>
      <trkpt lat="46.58617" lon="5.55059">
        <ele>504.4</ele>
        <time>2022-03-21T16:04:17Z</time>
      </trkpt>
      <trkpt lat="46.58619" lon="5.55059">
        <ele>504.8</ele>
        <time>2022-03-21T16:04:18Z</time>
      </trkpt>
      <trkpt lat="46.58621" lon="5.55061">
        <ele>505</ele>
        <time>2022-03-21T16:04:19Z</time>
      </trkpt>
      <trkpt lat="46.58623" lon="5.55062">
        <ele>505.4</ele>
        <time>2022-03-21T16:04:20Z</time>
      </trkpt>
      <trkpt lat="46.58626" lon="5.55063">
        <ele>505.6</ele>
        <time>2022-03-21T16:04:21Z</time>
      </trkpt>
      <trkpt lat="46.58628" lon="5.55065">
        <ele>505.6</ele>
        <time>2022-03-21T16:04:22Z</time>
      </trkpt>
      <trkpt lat="46.5863" lon="5.55066">
        <ele>505.8</ele>
        <time>2022-03-21T16:04:23Z</time>
      </trkpt>
      <trkpt lat="46.58634" lon="5.55069">
        <ele>506.2</ele>
        <time>2022-03-21T16:04:24Z</time>
      </trkpt>
      <trkpt lat="46.58636" lon="5.5507">
        <ele>506.4</ele>
        <time>2022-03-21T16:04:25Z</time>
      </trkpt>
      <trkpt lat="46.58638" lon="5.55071">
        <ele>506.4</ele>
        <time>2022-03-21T16:04:26Z</time>
      </trkpt>
      <trkpt lat="46.5864" lon="5.55071">
        <ele>506.8</ele>
        <time>2022-03-21T16:04:27Z</time>
      </trkpt>
      <trkpt lat="46.58643" lon="5.55072">
        <ele>506.8</ele>
        <time>2022-03-21T16:04:28Z</time>
      </trkpt>
      <trkpt lat="46.58645" lon="5.55074">
        <ele>507.2</ele>
        <time>2022-03-21T16:04:29Z</time>
      </trkpt>
      <trkpt lat="46.58647" lon="5.55075">
        <ele>507.4</ele>
        <time>2022-03-21T16:04:30Z</time>
      </trkpt>
      <trkpt lat="46.58649" lon="5.55076">
        <ele>507.4</ele>
        <time>2022-03-21T16:04:31Z</time>
      </trkpt>
      <trkpt lat="46.58652" lon="5.55077">
        <ele>507.6</ele>
        <time>2022-03-21T16:04:32Z</time>
      </trkpt>
      <trkpt lat="46.58654" lon="5.55078">
        <ele>507.6</ele>
        <time>2022-03-21T16:04:33Z</time>
      </trkpt>
      <trkpt lat="46.58656" lon="5.55079">
        <ele>508</ele>
        <time>2022-03-21T16:04:34Z</time>
      </trkpt>
      <trkpt lat="46.58658" lon="5.5508">
        <ele>508</ele>
        <time>2022-03-21T16:04:35Z</time>
      </trkpt>
      <trkpt lat="46.5866" lon="5.55081">
        <ele>508.2</ele>
        <time>2022-03-21T16:04:36Z</time>
      </trkpt>
      <trkpt lat="46.58662" lon="5.55082">
        <ele>508.2</ele>
        <time>2022-03-21T16:04:37Z</time>
      </trkpt>
      <trkpt lat="46.58665" lon="5.55084">
        <ele>508.8</ele>
        <time>2022-03-21T16:04:38Z</time>
      </trkpt>
      <trkpt lat="46.58667" lon="5.55085">
        <ele>509</ele>
        <time>2022-03-21T16:04:39Z</time>
      </trkpt>
      <trkpt lat="46.58669" lon="5.55087">
        <ele>509</ele>
        <time>2022-03-21T16:04:40Z</time>
      </trkpt>
      <trkpt lat="46.5867" lon="5.55088">
        <ele>509.4</ele>
        <time>2022-03-21T16:04:41Z</time>
      </trkpt>
      <trkpt lat="46.58671" lon="5.5509">
        <ele>509.8</ele>
        <time>2022-03-21T16:04:42Z</time>
      </trkpt>
      <trkpt lat="46.58671" lon="5.55092">
        <ele>510</ele>
        <time>2022-03-21T16:04:43Z</time>
      </trkpt>
      <trkpt lat="46.58672" lon="5.55095">
        <ele>510.4</ele>
        <time>2022-03-21T16:04:44Z</time>
      </trkpt>
      <trkpt lat="46.58672" lon="5.55097">
        <ele>510.6</ele>
        <time>2022-03-21T16:04:45Z</time>
      </trkpt>
      <trkpt lat="46.58673" lon="5.551">
        <ele>511</ele>
        <time>2022-03-21T16:04:46Z</time>
      </trkpt>
      <trkpt lat="46.58672" lon="5.55102">
        <ele>511.2</ele>
        <time>2022-03-21T16:04:47Z</time>
      </trkpt>
      <trkpt lat="46.58671" lon="5.55105">
        <ele>511.4</ele>
        <time>2022-03-21T16:04:48Z</time>
      </trkpt>
      <trkpt lat="46.5867" lon="5.55106">
        <ele>511.6</ele>
        <time>2022-03-21T16:04:49Z</time>
      </trkpt>
      <trkpt lat="46.58668" lon="5.55107">
        <ele>511.6</ele>
        <time>2022-03-21T16:04:50Z</time>
      </trkpt>
      <trkpt lat="46.58667" lon="5.55107">
        <ele>512</ele>
        <time>2022-03-21T16:04:51Z</time>
      </trkpt>
      <trkpt lat="46.58665" lon="5.55107">
        <ele>512</ele>
        <time>2022-03-21T16:04:52Z</time>
      </trkpt>
      <trkpt lat="46.58663" lon="5.55108">
        <ele>512.4</ele>
        <time>2022-03-21T16:04:53Z</time>
      </trkpt>
      <trkpt lat="46.58661" lon="5.55109">
        <ele>512.4</ele>
        <time>2022-03-21T16:04:54Z</time>
      </trkpt>
      <trkpt lat="46.58659" lon="5.55109">
        <ele>512.6</ele>
        <time>2022-03-21T16:04:55Z</time>
      </trkpt>
      <trkpt lat="46.58657" lon="5.5511">
        <ele>512.6</ele>
        <time>2022-03-21T16:04:56Z</time>
      </trkpt>
      <trkpt lat="46.58655" lon="5.55111">
        <ele>513</ele>
        <time>2022-03-21T16:04:57Z</time>
      </trkpt>
      <trkpt lat="46.58653" lon="5.55112">
        <ele>513.2</ele>
        <time>2022-03-21T16:04:58Z</time>
      </trkpt>
      <trkpt lat="46.58651" lon="5.55113">
        <ele>513.4</ele>
        <time>2022-03-21T16:04:59Z</time>
      </trkpt>
      <trkpt lat="46.58649" lon="5.55113">
        <ele>513.4</ele>
        <time>2022-03-21T16:05:00Z</time>
      </trkpt>
      <trkpt lat="46.58647" lon="5.55114">
        <ele>513.8</ele>
        <time>2022-03-21T16:05:01Z</time>
      </trkpt>
      <trkpt lat="46.58645" lon="5.55115">
        <ele>514</ele>
        <time>2022-03-21T16:05:02Z</time>
      </trkpt>
      <trkpt lat="46.58643" lon="5.55116">
        <ele>514.2</ele>
        <time>2022-03-21T16:05:03Z</time>
      </trkpt>
      <trkpt lat="46.58642" lon="5.55118">
        <ele>514.6</ele>
        <time>2022-03-21T16:05:04Z</time>
      </trkpt>
      <trkpt lat="46.5864" lon="5.5512">
        <ele>514.8</ele>
        <time>2022-03-21T16:05:05Z</time>
      </trkpt>
      <trkpt lat="46.58638" lon="5.55122">
        <ele>515</ele>
        <time>2022-03-21T16:05:06Z</time>
      </trkpt>
      <trkpt lat="46.58637" lon="5.55124">
        <ele>515.4</ele>
        <time>2022-03-21T16:05:07Z</time>
      </trkpt>
      <trkpt lat="46.58635" lon="5.55125">
        <ele>515.6</ele>
        <time>2022-03-21T16:05:08Z</time>
      </trkpt>
      <trkpt lat="46.58634" lon="5.55127">
        <ele>515.8</ele>
        <time>2022-03-21T16:05:09Z</time>
      </trkpt>
      <trkpt lat="46.58632" lon="5.55129">
        <ele>516</ele>
        <time>2022-03-21T16:05:10Z</time>
      </trkpt>
      <trkpt lat="46.58631" lon="5.55131">
        <ele>516</ele>
        <time>2022-03-21T16:05:11Z</time>
      </trkpt>
      <trkpt lat="46.58629" lon="5.55133">
        <ele>516.4</ele>
        <time>2022-03-21T16:05:12Z</time>
      </trkpt>
      <trkpt lat="46.58628" lon="5.55135">
        <ele>516.4</ele>
        <time>2022-03-21T16:05:13Z</time>
      </trkpt>
      <trkpt lat="46.58626" lon="5.55137">
        <ele>516.8</ele>
        <time>2022-03-21T16:05:14Z</time>
      </trkpt>
      <trkpt lat="46.58625" lon="5.55139">
        <ele>516.8</ele>
        <time>2022-03-21T16:05:15Z</time>
      </trkpt>
      <trkpt lat="46.58623" lon="5.55141">
        <ele>517</ele>
        <time>2022-03-21T16:05:16Z</time>
      </trkpt>
      <trkpt lat="46.58622" lon="5.55143">
        <ele>517</ele>
        <time>2022-03-21T16:05:17Z</time>
      </trkpt>
      <trkpt lat="46.58621" lon="5.55144">
        <ele>517.4</ele>
        <time>2022-03-21T16:05:18Z</time>
      </trkpt>
      <trkpt lat="46.5862" lon="5.55146">
        <ele>517.4</ele>
        <time>2022-03-21T16:05:19Z</time>
      </trkpt>
      <trkpt lat="46.58619" lon="5.55148">
        <ele>517.8</ele>
        <time>2022-03-21T16:05:20Z</time>
      </trkpt>
      <trkpt lat="46.58617" lon="5.5515">
        <ele>517.8</ele>
        <time>2022-03-21T16:05:21Z</time>
      </trkpt>
      <trkpt lat="46.58616" lon="5.55151">
        <ele>518</ele>
        <time>2022-03-21T16:05:22Z</time>
      </trkpt>
      <trkpt lat="46.58614" lon="5.55153">
        <ele>518.4</ele>
        <time>2022-03-21T16:05:23Z</time>
      </trkpt>
      <trkpt lat="46.58612" lon="5.55155">
        <ele>518.4</ele>
        <time>2022-03-21T16:05:24Z</time>
      </trkpt>
      <trkpt lat="46.58611" lon="5.55158">
        <ele>518.6</ele>
        <time>2022-03-21T16:05:25Z</time>
      </trkpt>
      <trkpt lat="46.5861" lon="5.5516">
        <ele>518.8</ele>
        <time>2022-03-21T16:05:26Z</time>
      </trkpt>
      <trkpt lat="46.58609" lon="5.55162">
        <ele>518.8</ele>
        <time>2022-03-21T16:05:27Z</time>
      </trkpt>
      <trkpt lat="46.58608" lon="5.55164">
        <ele>519.2</ele>
        <time>2022-03-21T16:05:28Z</time>
      </trkpt>
      <trkpt lat="46.58606" lon="5.55166">
        <ele>519.2</ele>
        <time>2022-03-21T16:05:29Z</time>
      </trkpt>
      <trkpt lat="46.58605" lon="5.55168">
        <ele>519.6</ele>
        <time>2022-03-21T16:05:30Z</time>
      </trkpt>
      <trkpt lat="46.58604" lon="5.5517">
        <ele>519.8</ele>
        <time>2022-03-21T16:05:31Z</time>
      </trkpt>
      <trkpt lat="46.58602" lon="5.55172">
        <ele>520.2</ele>
        <time>2022-03-21T16:05:32Z</time>
      </trkpt>
      <trkpt lat="46.58601" lon="5.55175">
        <ele>520.4</ele>
        <time>2022-03-21T16:05:33Z</time>
      </trkpt>
      <trkpt lat="46.586" lon="5.55178">
        <ele>520.4</ele>
        <time>2022-03-21T16:05:34Z</time>
      </trkpt>
      <trkpt lat="46.58598" lon="5.5518">
        <ele>520.8</ele>
        <time>2022-03-21T16:05:35Z</time>
      </trkpt>
      <trkpt lat="46.58597" lon="5.55182">
        <ele>521</ele>
        <time>2022-03-21T16:05:36Z</time>
      </trkpt>
      <trkpt lat="46.58596" lon="5.55185">
        <ele>521</ele>
        <time>2022-03-21T16:05:37Z</time>
      </trkpt>
      <trkpt lat="46.58595" lon="5.55187">
        <ele>521.4</ele>
        <time>2022-03-21T16:05:38Z</time>
      </trkpt>
      <trkpt lat="46.58593" lon="5.5519">
        <ele>521.6</ele>
        <time>2022-03-21T16:05:39Z</time>
      </trkpt>
      <trkpt lat="46.58592" lon="5.55192">
        <ele>521.6</ele>
        <time>2022-03-21T16:05:40Z</time>
      </trkpt>
      <trkpt lat="46.58591" lon="5.55195">
        <ele>522</ele>
        <time>2022-03-21T16:05:41Z</time>
      </trkpt>
      <trkpt lat="46.58589" lon="5.55198">
        <ele>522</ele>
        <time>2022-03-21T16:05:42Z</time>
      </trkpt>
      <trkpt lat="46.58588" lon="5.552">
        <ele>522.4</ele>
        <time>2022-03-21T16:05:43Z</time>
      </trkpt>
      <trkpt lat="46.58587" lon="5.55203">
        <ele>522.6</ele>
        <time>2022-03-21T16:05:44Z</time>
      </trkpt>
      <trkpt lat="46.58585" lon="5.55205">
        <ele>522.6</ele>
        <time>2022-03-21T16:05:45Z</time>
      </trkpt>
      <trkpt lat="46.58584" lon="5.55208">
        <ele>522.8</ele>
        <time>2022-03-21T16:05:46Z</time>
      </trkpt>
      <trkpt lat="46.58582" lon="5.5521">
        <ele>522.8</ele>
        <time>2022-03-21T16:05:47Z</time>
      </trkpt>
      <trkpt lat="46.58581" lon="5.55213">
        <ele>523</ele>
        <time>2022-03-21T16:05:48Z</time>
      </trkpt>
      <trkpt lat="46.5858" lon="5.55216">
        <ele>523</ele>
        <time>2022-03-21T16:05:49Z</time>
      </trkpt>
      <trkpt lat="46.58579" lon="5.55219">
        <ele>523.4</ele>
        <time>2022-03-21T16:05:50Z</time>
      </trkpt>
      <trkpt lat="46.58577" lon="5.55222">
        <ele>523.4</ele>
        <time>2022-03-21T16:05:51Z</time>
      </trkpt>
      <trkpt lat="46.58575" lon="5.55225">
        <ele>523.6</ele>
        <time>2022-03-21T16:05:52Z</time>
      </trkpt>
      <trkpt lat="46.58574" lon="5.55228">
        <ele>523.8</ele>
        <time>2022-03-21T16:05:53Z</time>
      </trkpt>
      <trkpt lat="46.58572" lon="5.5523">
        <ele>523.8</ele>
        <time>2022-03-21T16:05:54Z</time>
      </trkpt>
      <trkpt lat="46.58571" lon="5.55233">
        <ele>524.2</ele>
        <time>2022-03-21T16:05:55Z</time>
      </trkpt>
      <trkpt lat="46.58569" lon="5.55235">
        <ele>524.2</ele>
        <time>2022-03-21T16:05:56Z</time>
      </trkpt>
      <trkpt lat="46.58568" lon="5.55238">
        <ele>524.4</ele>
        <time>2022-03-21T16:05:57Z</time>
      </trkpt>
      <trkpt lat="46.58566" lon="5.55241">
        <ele>524.4</ele>
        <time>2022-03-21T16:05:58Z</time>
      </trkpt>
      <trkpt lat="46.58565" lon="5.55243">
        <ele>524.8</ele>
        <time>2022-03-21T16:05:59Z</time>
      </trkpt>
      <trkpt lat="46.58563" lon="5.55246">
        <ele>524.8</ele>
        <time>2022-03-21T16:06:00Z</time>
      </trkpt>
      <trkpt lat="46.58562" lon="5.55248">
        <ele>525</ele>
        <time>2022-03-21T16:06:01Z</time>
      </trkpt>
      <trkpt lat="46.58561" lon="5.55251">
        <ele>525</ele>
        <time>2022-03-21T16:06:02Z</time>
      </trkpt>
      <trkpt lat="46.5856" lon="5.55254">
        <ele>525.2</ele>
        <time>2022-03-21T16:06:03Z</time>
      </trkpt>
      <trkpt lat="46.58559" lon="5.55257">
        <ele>525.4</ele>
        <time>2022-03-21T16:06:04Z</time>
      </trkpt>
      <trkpt lat="46.58558" lon="5.5526">
        <ele>525.8</ele>
        <time>2022-03-21T16:06:05Z</time>
      </trkpt>
      <trkpt lat="46.58557" lon="5.55262">
        <ele>525.8</ele>
        <time>2022-03-21T16:06:06Z</time>
      </trkpt>
      <trkpt lat="46.58556" lon="5.55265">
        <ele>526.2</ele>
        <time>2022-03-21T16:06:07Z</time>
      </trkpt>
      <trkpt lat="46.58555" lon="5.55267">
        <ele>526.2</ele>
        <time>2022-03-21T16:06:08Z</time>
      </trkpt>
      <trkpt lat="46.58554" lon="5.5527">
        <ele>526.6</ele>
        <time>2022-03-21T16:06:09Z</time>
      </trkpt>
      <trkpt lat="46.58552" lon="5.55272">
        <ele>526.6</ele>
        <time>2022-03-21T16:06:10Z</time>
      </trkpt>
      <trkpt lat="46.58551" lon="5.55275">
        <ele>526.8</ele>
        <time>2022-03-21T16:06:11Z</time>
      </trkpt>
      <trkpt lat="46.5855" lon="5.55277">
        <ele>527.2</ele>
        <time>2022-03-21T16:06:12Z</time>
      </trkpt>
      <trkpt lat="46.58549" lon="5.55279">
        <ele>527.4</ele>
        <time>2022-03-21T16:06:13Z</time>
      </trkpt>
      <trkpt lat="46.58548" lon="5.55282">
        <ele>527.4</ele>
        <time>2022-03-21T16:06:14Z</time>
      </trkpt>
      <trkpt lat="46.58546" lon="5.55284">
        <ele>527.8</ele>
        <time>2022-03-21T16:06:15Z</time>
      </trkpt>
      <trkpt lat="46.58545" lon="5.55287">
        <ele>528</ele>
        <time>2022-03-21T16:06:16Z</time>
      </trkpt>
      <trkpt lat="46.58544" lon="5.5529">
        <ele>528</ele>
        <time>2022-03-21T16:06:17Z</time>
      </trkpt>
      <trkpt lat="46.58544" lon="5.55293">
        <ele>528.4</ele>
        <time>2022-03-21T16:06:18Z</time>
      </trkpt>
      <trkpt lat="46.58543" lon="5.55296">
        <ele>528.6</ele>
        <time>2022-03-21T16:06:19Z</time>
      </trkpt>
      <trkpt lat="46.58542" lon="5.55298">
        <ele>529</ele>
        <time>2022-03-21T16:06:20Z</time>
      </trkpt>
      <trkpt lat="46.58541" lon="5.55301">
        <ele>529</ele>
        <time>2022-03-21T16:06:21Z</time>
      </trkpt>
      <trkpt lat="46.5854" lon="5.55304">
        <ele>529.4</ele>
        <time>2022-03-21T16:06:22Z</time>
      </trkpt>
      <trkpt lat="46.58539" lon="5.55307">
        <ele>529.6</ele>
        <time>2022-03-21T16:06:23Z</time>
      </trkpt>
      <trkpt lat="46.58538" lon="5.55309">
        <ele>529.8</ele>
        <time>2022-03-21T16:06:24Z</time>
      </trkpt>
      <trkpt lat="46.58537" lon="5.55312">
        <ele>530.2</ele>
        <time>2022-03-21T16:06:25Z</time>
      </trkpt>
      <trkpt lat="46.58536" lon="5.55315">
        <ele>530.4</ele>
        <time>2022-03-21T16:06:26Z</time>
      </trkpt>
      <trkpt lat="46.58535" lon="5.55318">
        <ele>530.8</ele>
        <time>2022-03-21T16:06:27Z</time>
      </trkpt>
      <trkpt lat="46.58534" lon="5.55321">
        <ele>531</ele>
        <time>2022-03-21T16:06:28Z</time>
      </trkpt>
      <trkpt lat="46.58532" lon="5.55324">
        <ele>531.4</ele>
        <time>2022-03-21T16:06:29Z</time>
      </trkpt>
      <trkpt lat="46.5853" lon="5.55327">
        <ele>531.8</ele>
        <time>2022-03-21T16:06:30Z</time>
      </trkpt>
      <trkpt lat="46.58529" lon="5.5533">
        <ele>532</ele>
        <time>2022-03-21T16:06:31Z</time>
      </trkpt>
      <trkpt lat="46.58528" lon="5.55333">
        <ele>532.2</ele>
        <time>2022-03-21T16:06:32Z</time>
      </trkpt>
      <trkpt lat="46.58527" lon="5.55337">
        <ele>532.6</ele>
        <time>2022-03-21T16:06:33Z</time>
      </trkpt>
      <trkpt lat="46.58526" lon="5.5534">
        <ele>532.8</ele>
        <time>2022-03-21T16:06:34Z</time>
      </trkpt>
      <trkpt lat="46.58525" lon="5.55342">
        <ele>533</ele>
        <time>2022-03-21T16:06:35Z</time>
      </trkpt>
      <trkpt lat="46.58524" lon="5.55345">
        <ele>533.4</ele>
        <time>2022-03-21T16:06:36Z</time>
      </trkpt>
      <trkpt lat="46.58523" lon="5.55347">
        <ele>533.6</ele>
        <time>2022-03-21T16:06:37Z</time>
      </trkpt>
      <trkpt lat="46.58521" lon="5.5535">
        <ele>534</ele>
        <time>2022-03-21T16:06:38Z</time>
      </trkpt>
      <trkpt lat="46.5852" lon="5.55353">
        <ele>534.2</ele>
        <time>2022-03-21T16:06:39Z</time>
      </trkpt>
      <trkpt lat="46.58519" lon="5.55355">
        <ele>534.4</ele>
        <time>2022-03-21T16:06:40Z</time>
      </trkpt>
      <trkpt lat="46.58518" lon="5.55358">
        <ele>534.8</ele>
        <time>2022-03-21T16:06:41Z</time>
      </trkpt>
      <trkpt lat="46.58517" lon="5.55361">
        <ele>535</ele>
        <time>2022-03-21T16:06:42Z</time>
      </trkpt>
      <trkpt lat="46.58516" lon="5.55365">
        <ele>535.2</ele>
        <time>2022-03-21T16:06:43Z</time>
      </trkpt>
      <trkpt lat="46.58515" lon="5.55367">
        <ele>535.4</ele>
        <time>2022-03-21T16:06:44Z</time>
      </trkpt>
      <trkpt lat="46.58515" lon="5.5537">
        <ele>535.8</ele>
        <time>2022-03-21T16:06:45Z</time>
      </trkpt>
      <trkpt lat="46.58514" lon="5.55373">
        <ele>536</ele>
        <time>2022-03-21T16:06:46Z</time>
      </trkpt>
      <trkpt lat="46.58514" lon="5.55377">
        <ele>536.2</ele>
        <time>2022-03-21T16:06:47Z</time>
      </trkpt>
      <trkpt lat="46.58513" lon="5.55381">
        <ele>536.2</ele>
        <time>2022-03-21T16:06:48Z</time>
      </trkpt>
      <trkpt lat="46.58512" lon="5.55384">
        <ele>536.6</ele>
        <time>2022-03-21T16:06:49Z</time>
      </trkpt>
      <trkpt lat="46.58512" lon="5.55388">
        <ele>536.6</ele>
        <time>2022-03-21T16:06:50Z</time>
      </trkpt>
      <trkpt lat="46.58512" lon="5.55391">
        <ele>537</ele>
        <time>2022-03-21T16:06:51Z</time>
      </trkpt>
      <trkpt lat="46.58512" lon="5.55395">
        <ele>537.2</ele>
        <time>2022-03-21T16:06:52Z</time>
      </trkpt>
      <trkpt lat="46.58512" lon="5.55399">
        <ele>537.2</ele>
        <time>2022-03-21T16:06:53Z</time>
      </trkpt>
      <trkpt lat="46.58512" lon="5.55402">
        <ele>537.4</ele>
        <time>2022-03-21T16:06:54Z</time>
      </trkpt>
      <trkpt lat="46.58512" lon="5.55406">
        <ele>537.8</ele>
        <time>2022-03-21T16:06:55Z</time>
      </trkpt>
      <trkpt lat="46.58512" lon="5.5541">
        <ele>538</ele>
        <time>2022-03-21T16:06:56Z</time>
      </trkpt>
      <trkpt lat="46.58512" lon="5.55413">
        <ele>538</ele>
        <time>2022-03-21T16:06:57Z</time>
      </trkpt>
      <trkpt lat="46.58513" lon="5.55417">
        <ele>538.4</ele>
        <time>2022-03-21T16:06:58Z</time>
      </trkpt>
      <trkpt lat="46.58513" lon="5.55421">
        <ele>538.6</ele>
        <time>2022-03-21T16:06:59Z</time>
      </trkpt>
      <trkpt lat="46.58514" lon="5.55424">
        <ele>538.8</ele>
        <time>2022-03-21T16:07:00Z</time>
      </trkpt>
      <trkpt lat="46.58515" lon="5.55427">
        <ele>539.2</ele>
        <time>2022-03-21T16:07:01Z</time>
      </trkpt>
      <trkpt lat="46.58515" lon="5.55431">
        <ele>539.6</ele>
        <time>2022-03-21T16:07:03Z</time>
      </trkpt>
      <trkpt lat="46.58516" lon="5.55434">
        <ele>539.6</ele>
        <time>2022-03-21T16:07:04Z</time>
      </trkpt>
      <trkpt lat="46.58516" lon="5.55437">
        <ele>540</ele>
        <time>2022-03-21T16:07:05Z</time>
      </trkpt>
      <trkpt lat="46.58517" lon="5.55441">
        <ele>540</ele>
        <time>2022-03-21T16:07:06Z</time>
      </trkpt>
      <trkpt lat="46.58517" lon="5.55444">
        <ele>540.2</ele>
        <time>2022-03-21T16:07:07Z</time>
      </trkpt>
      <trkpt lat="46.58517" lon="5.55447">
        <ele>540.6</ele>
        <time>2022-03-21T16:07:08Z</time>
      </trkpt>
      <trkpt lat="46.58518" lon="5.5545">
        <ele>540.8</ele>
        <time>2022-03-21T16:07:09Z</time>
      </trkpt>
      <trkpt lat="46.58518" lon="5.55453">
        <ele>540.8</ele>
        <time>2022-03-21T16:07:10Z</time>
      </trkpt>
      <trkpt lat="46.58519" lon="5.55456">
        <ele>541</ele>
        <time>2022-03-21T16:07:11Z</time>
      </trkpt>
      <trkpt lat="46.58519" lon="5.55459">
        <ele>541.4</ele>
        <time>2022-03-21T16:07:12Z</time>
      </trkpt>
      <trkpt lat="46.5852" lon="5.55462">
        <ele>541.4</ele>
        <time>2022-03-21T16:07:13Z</time>
      </trkpt>
      <trkpt lat="46.58521" lon="5.55464">
        <ele>541.6</ele>
        <time>2022-03-21T16:07:14Z</time>
      </trkpt>
      <trkpt lat="46.58521" lon="5.55467">
        <ele>541.6</ele>
        <time>2022-03-21T16:07:15Z</time>
      </trkpt>
      <trkpt lat="46.58522" lon="5.5547">
        <ele>541.8</ele>
        <time>2022-03-21T16:07:16Z</time>
      </trkpt>
      <trkpt lat="46.58523" lon="5.55473">
        <ele>541.8</ele>
        <time>2022-03-21T16:07:17Z</time>
      </trkpt>
      <trkpt lat="46.58524" lon="5.55476">
        <ele>542.2</ele>
        <time>2022-03-21T16:07:18Z</time>
      </trkpt>
      <trkpt lat="46.58524" lon="5.55479">
        <ele>542.2</ele>
        <time>2022-03-21T16:07:19Z</time>
      </trkpt>
      <trkpt lat="46.58525" lon="5.55482">
        <ele>542.6</ele>
        <time>2022-03-21T16:07:20Z</time>
      </trkpt>
      <trkpt lat="46.58525" lon="5.55485">
        <ele>542.6</ele>
        <time>2022-03-21T16:07:21Z</time>
      </trkpt>
      <trkpt lat="46.58525" lon="5.55489">
        <ele>542.8</ele>
        <time>2022-03-21T16:07:22Z</time>
      </trkpt>
      <trkpt lat="46.58525" lon="5.55492">
        <ele>542.8</ele>
        <time>2022-03-21T16:07:23Z</time>
      </trkpt>
      <trkpt lat="46.58526" lon="5.55495">
        <ele>543</ele>
        <time>2022-03-21T16:07:24Z</time>
      </trkpt>
      <trkpt lat="46.58527" lon="5.55498">
        <ele>543</ele>
        <time>2022-03-21T16:07:25Z</time>
      </trkpt>
      <trkpt lat="46.58528" lon="5.555">
        <ele>543.4</ele>
        <time>2022-03-21T16:07:26Z</time>
      </trkpt>
      <trkpt lat="46.58528" lon="5.55503">
        <ele>543.4</ele>
        <time>2022-03-21T16:07:27Z</time>
      </trkpt>
      <trkpt lat="46.58529" lon="5.55506">
        <ele>543.6</ele>
        <time>2022-03-21T16:07:28Z</time>
      </trkpt>
      <trkpt lat="46.5853" lon="5.55508">
        <ele>544</ele>
        <time>2022-03-21T16:07:29Z</time>
      </trkpt>
      <trkpt lat="46.5853" lon="5.55511">
        <ele>544</ele>
        <time>2022-03-21T16:07:30Z</time>
      </trkpt>
      <trkpt lat="46.58531" lon="5.55514">
        <ele>544.4</ele>
        <time>2022-03-21T16:07:31Z</time>
      </trkpt>
      <trkpt lat="46.58531" lon="5.55517">
        <ele>544.4</ele>
        <time>2022-03-21T16:07:32Z</time>
      </trkpt>
      <trkpt lat="46.58531" lon="5.5552">
        <ele>544.6</ele>
        <time>2022-03-21T16:07:33Z</time>
      </trkpt>
      <trkpt lat="46.58532" lon="5.55523">
        <ele>544.6</ele>
        <time>2022-03-21T16:07:34Z</time>
      </trkpt>
      <trkpt lat="46.58532" lon="5.55526">
        <ele>544.6</ele>
        <time>2022-03-21T16:07:35Z</time>
      </trkpt>
      <trkpt lat="46.58533" lon="5.55529">
        <ele>545</ele>
        <time>2022-03-21T16:07:36Z</time>
      </trkpt>
      <trkpt lat="46.58533" lon="5.55531">
        <ele>545</ele>
        <time>2022-03-21T16:07:37Z</time>
      </trkpt>
      <trkpt lat="46.58534" lon="5.55534">
        <ele>545.2</ele>
        <time>2022-03-21T16:07:38Z</time>
      </trkpt>
      <trkpt lat="46.58534" lon="5.55537">
        <ele>545.2</ele>
        <time>2022-03-21T16:07:39Z</time>
      </trkpt>
      <trkpt lat="46.58535" lon="5.5554">
        <ele>545.6</ele>
        <time>2022-03-21T16:07:40Z</time>
      </trkpt>
      <trkpt lat="46.58536" lon="5.55543">
        <ele>545.6</ele>
        <time>2022-03-21T16:07:41Z</time>
      </trkpt>
      <trkpt lat="46.58537" lon="5.55546">
        <ele>545.8</ele>
        <time>2022-03-21T16:07:42Z</time>
      </trkpt>
      <trkpt lat="46.58538" lon="5.55549">
        <ele>546.2</ele>
        <time>2022-03-21T16:07:43Z</time>
      </trkpt>
      <trkpt lat="46.58538" lon="5.55552">
        <ele>546.2</ele>
        <time>2022-03-21T16:07:44Z</time>
      </trkpt>
      <trkpt lat="46.58539" lon="5.55555">
        <ele>546.4</ele>
        <time>2022-03-21T16:07:45Z</time>
      </trkpt>
      <trkpt lat="46.58539" lon="5.55558">
        <ele>546.4</ele>
        <time>2022-03-21T16:07:46Z</time>
      </trkpt>
      <trkpt lat="46.5854" lon="5.55561">
        <ele>546.4</ele>
        <time>2022-03-21T16:07:47Z</time>
      </trkpt>
      <trkpt lat="46.58541" lon="5.55563">
        <ele>546.8</ele>
        <time>2022-03-21T16:07:48Z</time>
      </trkpt>
      <trkpt lat="46.58541" lon="5.55566">
        <ele>547</ele>
        <time>2022-03-21T16:07:49Z</time>
      </trkpt>
      <trkpt lat="46.58542" lon="5.55569">
        <ele>547</ele>
        <time>2022-03-21T16:07:50Z</time>
      </trkpt>
      <trkpt lat="46.58543" lon="5.55571">
        <ele>547.2</ele>
        <time>2022-03-21T16:07:51Z</time>
      </trkpt>
      <trkpt lat="46.58544" lon="5.55574">
        <ele>547.2</ele>
        <time>2022-03-21T16:07:52Z</time>
      </trkpt>
      <trkpt lat="46.58545" lon="5.55577">
        <ele>547.6</ele>
        <time>2022-03-21T16:07:53Z</time>
      </trkpt>
      <trkpt lat="46.58545" lon="5.55579">
        <ele>547.8</ele>
        <time>2022-03-21T16:07:54Z</time>
      </trkpt>
      <trkpt lat="46.58546" lon="5.55582">
        <ele>547.8</ele>
        <time>2022-03-21T16:07:55Z</time>
      </trkpt>
      <trkpt lat="46.58547" lon="5.55584">
        <ele>548.4</ele>
        <time>2022-03-21T16:07:56Z</time>
      </trkpt>
      <trkpt lat="46.58548" lon="5.55587">
        <ele>548.6</ele>
        <time>2022-03-21T16:07:57Z</time>
      </trkpt>
      <trkpt lat="46.58549" lon="5.55589">
        <ele>548.8</ele>
        <time>2022-03-21T16:07:58Z</time>
      </trkpt>
      <trkpt lat="46.5855" lon="5.55592">
        <ele>548.8</ele>
        <time>2022-03-21T16:07:59Z</time>
      </trkpt>
      <trkpt lat="46.58551" lon="5.55595">
        <ele>549.2</ele>
        <time>2022-03-21T16:08:00Z</time>
      </trkpt>
      <trkpt lat="46.58552" lon="5.55597">
        <ele>549.4</ele>
        <time>2022-03-21T16:08:01Z</time>
      </trkpt>
      <trkpt lat="46.58553" lon="5.55599">
        <ele>549.4</ele>
        <time>2022-03-21T16:08:02Z</time>
      </trkpt>
      <trkpt lat="46.58554" lon="5.55602">
        <ele>549.8</ele>
        <time>2022-03-21T16:08:03Z</time>
      </trkpt>
      <trkpt lat="46.58554" lon="5.55604">
        <ele>550</ele>
        <time>2022-03-21T16:08:04Z</time>
      </trkpt>
      <trkpt lat="46.58555" lon="5.55606">
        <ele>550</ele>
        <time>2022-03-21T16:08:05Z</time>
      </trkpt>
      <trkpt lat="46.58555" lon="5.55608">
        <ele>550.2</ele>
        <time>2022-03-21T16:08:06Z</time>
      </trkpt>
      <trkpt lat="46.58556" lon="5.5561">
        <ele>550.6</ele>
        <time>2022-03-21T16:08:07Z</time>
      </trkpt>
      <trkpt lat="46.58557" lon="5.55613">
        <ele>550.6</ele>
        <time>2022-03-21T16:08:08Z</time>
      </trkpt>
      <trkpt lat="46.58558" lon="5.55615">
        <ele>550.8</ele>
        <time>2022-03-21T16:08:09Z</time>
      </trkpt>
      <trkpt lat="46.58559" lon="5.55617">
        <ele>551</ele>
        <time>2022-03-21T16:08:10Z</time>
      </trkpt>
      <trkpt lat="46.5856" lon="5.55619">
        <ele>551</ele>
        <time>2022-03-21T16:08:11Z</time>
      </trkpt>
      <trkpt lat="46.58561" lon="5.5562">
        <ele>551.4</ele>
        <time>2022-03-21T16:08:12Z</time>
      </trkpt>
      <trkpt lat="46.58563" lon="5.55622">
        <ele>551.4</ele>
        <time>2022-03-21T16:08:13Z</time>
      </trkpt>
      <trkpt lat="46.58564" lon="5.55623">
        <ele>551.8</ele>
        <time>2022-03-21T16:08:14Z</time>
      </trkpt>
      <trkpt lat="46.58565" lon="5.55625">
        <ele>552</ele>
        <time>2022-03-21T16:08:15Z</time>
      </trkpt>
      <trkpt lat="46.58567" lon="5.55626">
        <ele>552.2</ele>
        <time>2022-03-21T16:08:16Z</time>
      </trkpt>
      <trkpt lat="46.58568" lon="5.55628">
        <ele>552.4</ele>
        <time>2022-03-21T16:08:17Z</time>
      </trkpt>
      <trkpt lat="46.5857" lon="5.55631">
        <ele>552.4</ele>
        <time>2022-03-21T16:08:18Z</time>
      </trkpt>
      <trkpt lat="46.5857" lon="5.55633">
        <ele>552.8</ele>
        <time>2022-03-21T16:08:19Z</time>
      </trkpt>
      <trkpt lat="46.58571" lon="5.55635">
        <ele>553</ele>
        <time>2022-03-21T16:08:20Z</time>
      </trkpt>
      <trkpt lat="46.58572" lon="5.55637">
        <ele>553.4</ele>
        <time>2022-03-21T16:08:21Z</time>
      </trkpt>
      <trkpt lat="46.58573" lon="5.55638">
        <ele>553.4</ele>
        <time>2022-03-21T16:08:22Z</time>
      </trkpt>
      <trkpt lat="46.58574" lon="5.5564">
        <ele>553.6</ele>
        <time>2022-03-21T16:08:23Z</time>
      </trkpt>
      <trkpt lat="46.58575" lon="5.55641">
        <ele>553.6</ele>
        <time>2022-03-21T16:08:24Z</time>
      </trkpt>
      <trkpt lat="46.58577" lon="5.55642">
        <ele>554</ele>
        <time>2022-03-21T16:08:25Z</time>
      </trkpt>
      <trkpt lat="46.58578" lon="5.55643">
        <ele>554</ele>
        <time>2022-03-21T16:08:26Z</time>
      </trkpt>
      <trkpt lat="46.58579" lon="5.55644">
        <ele>554.2</ele>
        <time>2022-03-21T16:08:27Z</time>
      </trkpt>
      <trkpt lat="46.58581" lon="5.55645">
        <ele>554.4</ele>
        <time>2022-03-21T16:08:28Z</time>
      </trkpt>
      <trkpt lat="46.58583" lon="5.55647">
        <ele>554.4</ele>
        <time>2022-03-21T16:08:29Z</time>
      </trkpt>
      <trkpt lat="46.58584" lon="5.55648">
        <ele>554.8</ele>
        <time>2022-03-21T16:08:30Z</time>
      </trkpt>
      <trkpt lat="46.58585" lon="5.5565">
        <ele>554.8</ele>
        <time>2022-03-21T16:08:31Z</time>
      </trkpt>
      <trkpt lat="46.58587" lon="5.55652">
        <ele>555.2</ele>
        <time>2022-03-21T16:08:32Z</time>
      </trkpt>
      <trkpt lat="46.58588" lon="5.55653">
        <ele>555.2</ele>
        <time>2022-03-21T16:08:33Z</time>
      </trkpt>
      <trkpt lat="46.58589" lon="5.55654">
        <ele>555.4</ele>
        <time>2022-03-21T16:08:34Z</time>
      </trkpt>
      <trkpt lat="46.5859" lon="5.55656">
        <ele>555.8</ele>
        <time>2022-03-21T16:08:35Z</time>
      </trkpt>
      <trkpt lat="46.58591" lon="5.55658">
        <ele>555.8</ele>
        <time>2022-03-21T16:08:36Z</time>
      </trkpt>
      <trkpt lat="46.58592" lon="5.5566">
        <ele>556</ele>
        <time>2022-03-21T16:08:37Z</time>
      </trkpt>
      <trkpt lat="46.58593" lon="5.55662">
        <ele>556</ele>
        <time>2022-03-21T16:08:38Z</time>
      </trkpt>
      <trkpt lat="46.58595" lon="5.55663">
        <ele>556.2</ele>
        <time>2022-03-21T16:08:39Z</time>
      </trkpt>
      <trkpt lat="46.58596" lon="5.55665">
        <ele>556.2</ele>
        <time>2022-03-21T16:08:40Z</time>
      </trkpt>
      <trkpt lat="46.58598" lon="5.55667">
        <ele>556.6</ele>
        <time>2022-03-21T16:08:41Z</time>
      </trkpt>
      <trkpt lat="46.586" lon="5.55669">
        <ele>556.6</ele>
        <time>2022-03-21T16:08:42Z</time>
      </trkpt>
      <trkpt lat="46.58601" lon="5.55671">
        <ele>557</ele>
        <time>2022-03-21T16:08:43Z</time>
      </trkpt>
      <trkpt lat="46.58603" lon="5.55673">
        <ele>557.2</ele>
        <time>2022-03-21T16:08:44Z</time>
      </trkpt>
      <trkpt lat="46.58604" lon="5.55675">
        <ele>557.2</ele>
        <time>2022-03-21T16:08:45Z</time>
      </trkpt>
      <trkpt lat="46.58606" lon="5.55677">
        <ele>557.6</ele>
        <time>2022-03-21T16:08:46Z</time>
      </trkpt>
      <trkpt lat="46.58607" lon="5.55679">
        <ele>557.8</ele>
        <time>2022-03-21T16:08:47Z</time>
      </trkpt>
      <trkpt lat="46.58608" lon="5.55681">
        <ele>557.8</ele>
        <time>2022-03-21T16:08:48Z</time>
      </trkpt>
      <trkpt lat="46.5861" lon="5.55682">
        <ele>558</ele>
        <time>2022-03-21T16:08:49Z</time>
      </trkpt>
      <trkpt lat="46.58611" lon="5.55684">
        <ele>558</ele>
        <time>2022-03-21T16:08:50Z</time>
      </trkpt>
      <trkpt lat="46.58613" lon="5.55686">
        <ele>558.2</ele>
        <time>2022-03-21T16:08:51Z</time>
      </trkpt>
      <trkpt lat="46.58614" lon="5.55688">
        <ele>558.2</ele>
        <time>2022-03-21T16:08:52Z</time>
      </trkpt>
      <trkpt lat="46.58616" lon="5.55691">
        <ele>558.4</ele>
        <time>2022-03-21T16:08:53Z</time>
      </trkpt>
      <trkpt lat="46.58617" lon="5.55693">
        <ele>558.4</ele>
        <time>2022-03-21T16:08:54Z</time>
      </trkpt>
      <trkpt lat="46.58619" lon="5.55694">
        <ele>558.8</ele>
        <time>2022-03-21T16:08:55Z</time>
      </trkpt>
      <trkpt lat="46.5862" lon="5.55696">
        <ele>559</ele>
        <time>2022-03-21T16:08:56Z</time>
      </trkpt>
      <trkpt lat="46.58622" lon="5.55698">
        <ele>559</ele>
        <time>2022-03-21T16:08:57Z</time>
      </trkpt>
      <trkpt lat="46.58624" lon="5.557">
        <ele>559.2</ele>
        <time>2022-03-21T16:08:58Z</time>
      </trkpt>
      <trkpt lat="46.58625" lon="5.55702">
        <ele>559.6</ele>
        <time>2022-03-21T16:08:59Z</time>
      </trkpt>
      <trkpt lat="46.58627" lon="5.55704">
        <ele>559.8</ele>
        <time>2022-03-21T16:09:00Z</time>
      </trkpt>
      <trkpt lat="46.58628" lon="5.55705">
        <ele>559.8</ele>
        <time>2022-03-21T16:09:01Z</time>
      </trkpt>
      <trkpt lat="46.58629" lon="5.55707">
        <ele>560.2</ele>
        <time>2022-03-21T16:09:02Z</time>
      </trkpt>
      <trkpt lat="46.58631" lon="5.55709">
        <ele>560.2</ele>
        <time>2022-03-21T16:09:03Z</time>
      </trkpt>
      <trkpt lat="46.58633" lon="5.55711">
        <ele>560.4</ele>
        <time>2022-03-21T16:09:04Z</time>
      </trkpt>
      <trkpt lat="46.58634" lon="5.55713">
        <ele>560.4</ele>
        <time>2022-03-21T16:09:05Z</time>
      </trkpt>
      <trkpt lat="46.58636" lon="5.55715">
        <ele>560.8</ele>
        <time>2022-03-21T16:09:06Z</time>
      </trkpt>
      <trkpt lat="46.58637" lon="5.55717">
        <ele>560.8</ele>
        <time>2022-03-21T16:09:07Z</time>
      </trkpt>
      <trkpt lat="46.58638" lon="5.55718">
        <ele>561.2</ele>
        <time>2022-03-21T16:09:08Z</time>
      </trkpt>
      <trkpt lat="46.5864" lon="5.5572">
        <ele>561.2</ele>
        <time>2022-03-21T16:09:09Z</time>
      </trkpt>
      <trkpt lat="46.58642" lon="5.55722">
        <ele>561.4</ele>
        <time>2022-03-21T16:09:10Z</time>
      </trkpt>
      <trkpt lat="46.58644" lon="5.55724">
        <ele>561.4</ele>
        <time>2022-03-21T16:09:11Z</time>
      </trkpt>
      <trkpt lat="46.58646" lon="5.55726">
        <ele>561.8</ele>
        <time>2022-03-21T16:09:12Z</time>
      </trkpt>
      <trkpt lat="46.58648" lon="5.55728">
        <ele>561.8</ele>
        <time>2022-03-21T16:09:13Z</time>
      </trkpt>
      <trkpt lat="46.5865" lon="5.55729">
        <ele>562.4</ele>
        <time>2022-03-21T16:09:14Z</time>
      </trkpt>
      <trkpt lat="46.58652" lon="5.55731">
        <ele>562.6</ele>
        <time>2022-03-21T16:09:15Z</time>
      </trkpt>
      <trkpt lat="46.58654" lon="5.55733">
        <ele>562.6</ele>
        <time>2022-03-21T16:09:16Z</time>
      </trkpt>
      <trkpt lat="46.58656" lon="5.55735">
        <ele>563</ele>
        <time>2022-03-21T16:09:17Z</time>
      </trkpt>
      <trkpt lat="46.58658" lon="5.55737">
        <ele>563.2</ele>
        <time>2022-03-21T16:09:18Z</time>
      </trkpt>
      <trkpt lat="46.5866" lon="5.55739">
        <ele>563.4</ele>
        <time>2022-03-21T16:09:19Z</time>
      </trkpt>
      <trkpt lat="46.58662" lon="5.55741">
        <ele>563.6</ele>
        <time>2022-03-21T16:09:20Z</time>
      </trkpt>
      <trkpt lat="46.58664" lon="5.55743">
        <ele>563.6</ele>
        <time>2022-03-21T16:09:21Z</time>
      </trkpt>
      <trkpt lat="46.58666" lon="5.55745">
        <ele>564</ele>
        <time>2022-03-21T16:09:22Z</time>
      </trkpt>
      <trkpt lat="46.58668" lon="5.55747">
        <ele>564.2</ele>
        <time>2022-03-21T16:09:23Z</time>
      </trkpt>
      <trkpt lat="46.5867" lon="5.55748">
        <ele>564.2</ele>
        <time>2022-03-21T16:09:24Z</time>
      </trkpt>
      <trkpt lat="46.58672" lon="5.5575">
        <ele>564.6</ele>
        <time>2022-03-21T16:09:25Z</time>
      </trkpt>
      <trkpt lat="46.58674" lon="5.55752">
        <ele>564.8</ele>
        <time>2022-03-21T16:09:26Z</time>
      </trkpt>
      <trkpt lat="46.58676" lon="5.55753">
        <ele>565</ele>
        <time>2022-03-21T16:09:27Z</time>
      </trkpt>
      <trkpt lat="46.58678" lon="5.55754">
        <ele>565</ele>
        <time>2022-03-21T16:09:28Z</time>
      </trkpt>
      <trkpt lat="46.58681" lon="5.55756">
        <ele>565.4</ele>
        <time>2022-03-21T16:09:29Z</time>
      </trkpt>
      <trkpt lat="46.58683" lon="5.55757">
        <ele>565.4</ele>
        <time>2022-03-21T16:09:30Z</time>
      </trkpt>
      <trkpt lat="46.58685" lon="5.55758">
        <ele>565.8</ele>
        <time>2022-03-21T16:09:31Z</time>
      </trkpt>
      <trkpt lat="46.58688" lon="5.55759">
        <ele>565.8</ele>
        <time>2022-03-21T16:09:32Z</time>
      </trkpt>
      <trkpt lat="46.5869" lon="5.55761">
        <ele>566.2</ele>
        <time>2022-03-21T16:09:33Z</time>
      </trkpt>
      <trkpt lat="46.58692" lon="5.55762">
        <ele>566.4</ele>
        <time>2022-03-21T16:09:34Z</time>
      </trkpt>
      <trkpt lat="46.58694" lon="5.55764">
        <ele>566.4</ele>
        <time>2022-03-21T16:09:35Z</time>
      </trkpt>
      <trkpt lat="46.58697" lon="5.55765">
        <ele>566.8</ele>
        <time>2022-03-21T16:09:36Z</time>
      </trkpt>
      <trkpt lat="46.58699" lon="5.55766">
        <ele>567.2</ele>
        <time>2022-03-21T16:09:37Z</time>
      </trkpt>
      <trkpt lat="46.58701" lon="5.55768">
        <ele>567.4</ele>
        <time>2022-03-21T16:09:38Z</time>
      </trkpt>
      <trkpt lat="46.58704" lon="5.5577">
        <ele>567.6</ele>
        <time>2022-03-21T16:09:39Z</time>
      </trkpt>
      <trkpt lat="46.58706" lon="5.55771">
        <ele>567.6</ele>
        <time>2022-03-21T16:09:40Z</time>
      </trkpt>
      <trkpt lat="46.58709" lon="5.55773">
        <ele>567.8</ele>
        <time>2022-03-21T16:09:41Z</time>
      </trkpt>
      <trkpt lat="46.58711" lon="5.55775">
        <ele>568</ele>
        <time>2022-03-21T16:09:42Z</time>
      </trkpt>
      <trkpt lat="46.58714" lon="5.55776">
        <ele>568</ele>
        <time>2022-03-21T16:09:43Z</time>
      </trkpt>
      <trkpt lat="46.58717" lon="5.55778">
        <ele>568.2</ele>
        <time>2022-03-21T16:09:44Z</time>
      </trkpt>
      <trkpt lat="46.5872" lon="5.55781">
        <ele>568.2</ele>
        <time>2022-03-21T16:09:45Z</time>
      </trkpt>
      <trkpt lat="46.58722" lon="5.55782">
        <ele>568.4</ele>
        <time>2022-03-21T16:09:46Z</time>
      </trkpt>
      <trkpt lat="46.58725" lon="5.55784">
        <ele>568.4</ele>
        <time>2022-03-21T16:09:47Z</time>
      </trkpt>
      <trkpt lat="46.58727" lon="5.55786">
        <ele>568.8</ele>
        <time>2022-03-21T16:09:48Z</time>
      </trkpt>
      <trkpt lat="46.58731" lon="5.55788">
        <ele>568.8</ele>
        <time>2022-03-21T16:09:49Z</time>
      </trkpt>
      <trkpt lat="46.58733" lon="5.5579">
        <ele>569.2</ele>
        <time>2022-03-21T16:09:50Z</time>
      </trkpt>
      <trkpt lat="46.58736" lon="5.55791">
        <ele>569.2</ele>
        <time>2022-03-21T16:09:51Z</time>
      </trkpt>
      <trkpt lat="46.58739" lon="5.55793">
        <ele>569.2</ele>
        <time>2022-03-21T16:09:52Z</time>
      </trkpt>
      <trkpt lat="46.58742" lon="5.55794">
        <ele>569.6</ele>
        <time>2022-03-21T16:09:53Z</time>
      </trkpt>
      <trkpt lat="46.58745" lon="5.55796">
        <ele>569.6</ele>
        <time>2022-03-21T16:09:54Z</time>
      </trkpt>
      <trkpt lat="46.58747" lon="5.55798">
        <ele>569.8</ele>
        <time>2022-03-21T16:09:55Z</time>
      </trkpt>
      <trkpt lat="46.5875" lon="5.55801">
        <ele>569.8</ele>
        <time>2022-03-21T16:09:56Z</time>
      </trkpt>
      <trkpt lat="46.58752" lon="5.55803">
        <ele>570.2</ele>
        <time>2022-03-21T16:09:57Z</time>
      </trkpt>
      <trkpt lat="46.58754" lon="5.55805">
        <ele>570.2</ele>
        <time>2022-03-21T16:09:58Z</time>
      </trkpt>
      <trkpt lat="46.58757" lon="5.55808">
        <ele>570.4</ele>
        <time>2022-03-21T16:09:59Z</time>
      </trkpt>
      <trkpt lat="46.58759" lon="5.55811">
        <ele>570.4</ele>
        <time>2022-03-21T16:10:00Z</time>
      </trkpt>
      <trkpt lat="46.58761" lon="5.55814">
        <ele>570.8</ele>
        <time>2022-03-21T16:10:01Z</time>
      </trkpt>
      <trkpt lat="46.58763" lon="5.55817">
        <ele>570.8</ele>
        <time>2022-03-21T16:10:02Z</time>
      </trkpt>
      <trkpt lat="46.58765" lon="5.5582">
        <ele>571</ele>
        <time>2022-03-21T16:10:03Z</time>
      </trkpt>
      <trkpt lat="46.58766" lon="5.55822">
        <ele>571</ele>
        <time>2022-03-21T16:10:04Z</time>
      </trkpt>
      <trkpt lat="46.58768" lon="5.55825">
        <ele>571</ele>
        <time>2022-03-21T16:10:05Z</time>
      </trkpt>
      <trkpt lat="46.5877" lon="5.55829">
        <ele>571.4</ele>
        <time>2022-03-21T16:10:06Z</time>
      </trkpt>
      <trkpt lat="46.58771" lon="5.55832">
        <ele>571.4</ele>
        <time>2022-03-21T16:10:07Z</time>
      </trkpt>
      <trkpt lat="46.58773" lon="5.55835">
        <ele>571.8</ele>
        <time>2022-03-21T16:10:08Z</time>
      </trkpt>
      <trkpt lat="46.58774" lon="5.55838">
        <ele>571.8</ele>
        <time>2022-03-21T16:10:09Z</time>
      </trkpt>
      <trkpt lat="46.58775" lon="5.55842">
        <ele>571.8</ele>
        <time>2022-03-21T16:10:10Z</time>
      </trkpt>
      <trkpt lat="46.58776" lon="5.55845">
        <ele>572</ele>
        <time>2022-03-21T16:10:11Z</time>
      </trkpt>
      <trkpt lat="46.58777" lon="5.55849">
        <ele>572</ele>
        <time>2022-03-21T16:10:12Z</time>
      </trkpt>
      <trkpt lat="46.58778" lon="5.55853">
        <ele>572.4</ele>
        <time>2022-03-21T16:10:13Z</time>
      </trkpt>
      <trkpt lat="46.58778" lon="5.55856">
        <ele>572.4</ele>
        <time>2022-03-21T16:10:14Z</time>
      </trkpt>
      <trkpt lat="46.58779" lon="5.5586">
        <ele>572.6</ele>
        <time>2022-03-21T16:10:15Z</time>
      </trkpt>
      <trkpt lat="46.5878" lon="5.55863">
        <ele>572.6</ele>
        <time>2022-03-21T16:10:16Z</time>
      </trkpt>
      <trkpt lat="46.58782" lon="5.55866">
        <ele>573</ele>
        <time>2022-03-21T16:10:17Z</time>
      </trkpt>
      <trkpt lat="46.58783" lon="5.55869">
        <ele>573</ele>
        <time>2022-03-21T16:10:18Z</time>
      </trkpt>
      <trkpt lat="46.58784" lon="5.55873">
        <ele>573.2</ele>
        <time>2022-03-21T16:10:19Z</time>
      </trkpt>
      <trkpt lat="46.58785" lon="5.55876">
        <ele>573.2</ele>
        <time>2022-03-21T16:10:20Z</time>
      </trkpt>
      <trkpt lat="46.58786" lon="5.55879">
        <ele>573.6</ele>
        <time>2022-03-21T16:10:21Z</time>
      </trkpt>
      <trkpt lat="46.58787" lon="5.55883">
        <ele>573.6</ele>
        <time>2022-03-21T16:10:22Z</time>
      </trkpt>
      <trkpt lat="46.58788" lon="5.55886">
        <ele>573.8</ele>
        <time>2022-03-21T16:10:23Z</time>
      </trkpt>
      <trkpt lat="46.58788" lon="5.55889">
        <ele>573.8</ele>
        <time>2022-03-21T16:10:24Z</time>
      </trkpt>
      <trkpt lat="46.5879" lon="5.55893">
        <ele>574</ele>
        <time>2022-03-21T16:10:25Z</time>
      </trkpt>
      <trkpt lat="46.58791" lon="5.55896">
        <ele>574</ele>
        <time>2022-03-21T16:10:26Z</time>
      </trkpt>
      <trkpt lat="46.58792" lon="5.55899">
        <ele>574.4</ele>
        <time>2022-03-21T16:10:27Z</time>
      </trkpt>
      <trkpt lat="46.58794" lon="5.55902">
        <ele>574.6</ele>
        <time>2022-03-21T16:10:28Z</time>
      </trkpt>
      <trkpt lat="46.58795" lon="5.55905">
        <ele>574.6</ele>
        <time>2022-03-21T16:10:29Z</time>
      </trkpt>
      <trkpt lat="46.58796" lon="5.55909">
        <ele>574.8</ele>
        <time>2022-03-21T16:10:30Z</time>
      </trkpt>
      <trkpt lat="46.58797" lon="5.55912">
        <ele>574.8</ele>
        <time>2022-03-21T16:10:31Z</time>
      </trkpt>
      <trkpt lat="46.58798" lon="5.55916">
        <ele>575.2</ele>
        <time>2022-03-21T16:10:32Z</time>
      </trkpt>
      <trkpt lat="46.58799" lon="5.55919">
        <ele>575.2</ele>
        <time>2022-03-21T16:10:33Z</time>
      </trkpt>
      <trkpt lat="46.58801" lon="5.55922">
        <ele>575.4</ele>
        <time>2022-03-21T16:10:34Z</time>
      </trkpt>
      <trkpt lat="46.58802" lon="5.55925">
        <ele>575.4</ele>
        <time>2022-03-21T16:10:35Z</time>
      </trkpt>
      <trkpt lat="46.58803" lon="5.55929">
        <ele>575.8</ele>
        <time>2022-03-21T16:10:36Z</time>
      </trkpt>
      <trkpt lat="46.58804" lon="5.55932">
        <ele>575.8</ele>
        <time>2022-03-21T16:10:37Z</time>
      </trkpt>
      <trkpt lat="46.58804" lon="5.55936">
        <ele>576.2</ele>
        <time>2022-03-21T16:10:38Z</time>
      </trkpt>
      <trkpt lat="46.58805" lon="5.55939">
        <ele>576.2</ele>
        <time>2022-03-21T16:10:39Z</time>
      </trkpt>
      <trkpt lat="46.58806" lon="5.55943">
        <ele>576.4</ele>
        <time>2022-03-21T16:10:40Z</time>
      </trkpt>
      <trkpt lat="46.58807" lon="5.55946">
        <ele>576.4</ele>
        <time>2022-03-21T16:10:41Z</time>
      </trkpt>
      <trkpt lat="46.58809" lon="5.5595">
        <ele>576.6</ele>
        <time>2022-03-21T16:10:42Z</time>
      </trkpt>
      <trkpt lat="46.5881" lon="5.55954">
        <ele>576.6</ele>
        <time>2022-03-21T16:10:43Z</time>
      </trkpt>
      <trkpt lat="46.58812" lon="5.55957">
        <ele>576.6</ele>
        <time>2022-03-21T16:10:44Z</time>
      </trkpt>
      <trkpt lat="46.58814" lon="5.5596">
        <ele>577</ele>
        <time>2022-03-21T16:10:45Z</time>
      </trkpt>
      <trkpt lat="46.58816" lon="5.55963">
        <ele>577</ele>
        <time>2022-03-21T16:10:46Z</time>
      </trkpt>
      <trkpt lat="46.58817" lon="5.55966">
        <ele>577.4</ele>
        <time>2022-03-21T16:10:47Z</time>
      </trkpt>
      <trkpt lat="46.58819" lon="5.55969">
        <ele>577.4</ele>
        <time>2022-03-21T16:10:48Z</time>
      </trkpt>
      <trkpt lat="46.5882" lon="5.55972">
        <ele>577.6</ele>
        <time>2022-03-21T16:10:49Z</time>
      </trkpt>
      <trkpt lat="46.58822" lon="5.55976">
        <ele>577.6</ele>
        <time>2022-03-21T16:10:50Z</time>
      </trkpt>
      <trkpt lat="46.58823" lon="5.55978">
        <ele>577.8</ele>
        <time>2022-03-21T16:10:51Z</time>
      </trkpt>
      <trkpt lat="46.58825" lon="5.55981">
        <ele>578</ele>
        <time>2022-03-21T16:10:52Z</time>
      </trkpt>
      <trkpt lat="46.58826" lon="5.55984">
        <ele>578</ele>
        <time>2022-03-21T16:10:53Z</time>
      </trkpt>
      <trkpt lat="46.58828" lon="5.55986">
        <ele>578.4</ele>
        <time>2022-03-21T16:10:54Z</time>
      </trkpt>
      <trkpt lat="46.5883" lon="5.55989">
        <ele>578.4</ele>
        <time>2022-03-21T16:10:55Z</time>
      </trkpt>
      <trkpt lat="46.58831" lon="5.55992">
        <ele>578.8</ele>
        <time>2022-03-21T16:10:57Z</time>
      </trkpt>
      <trkpt lat="46.58833" lon="5.55994">
        <ele>579</ele>
        <time>2022-03-21T16:10:58Z</time>
      </trkpt>
      <trkpt lat="46.58835" lon="5.55997">
        <ele>579</ele>
        <time>2022-03-21T16:10:59Z</time>
      </trkpt>
      <trkpt lat="46.58837" lon="5.55999">
        <ele>579.2</ele>
        <time>2022-03-21T16:11:00Z</time>
      </trkpt>
      <trkpt lat="46.58839" lon="5.56001">
        <ele>579.2</ele>
        <time>2022-03-21T16:11:01Z</time>
      </trkpt>
      <trkpt lat="46.58841" lon="5.56003">
        <ele>579.6</ele>
        <time>2022-03-21T16:11:02Z</time>
      </trkpt>
      <trkpt lat="46.58844" lon="5.56005">
        <ele>579.6</ele>
        <time>2022-03-21T16:11:03Z</time>
      </trkpt>
      <trkpt lat="46.58846" lon="5.56008">
        <ele>579.8</ele>
        <time>2022-03-21T16:11:04Z</time>
      </trkpt>
      <trkpt lat="46.58848" lon="5.5601">
        <ele>579.8</ele>
        <time>2022-03-21T16:11:05Z</time>
      </trkpt>
      <trkpt lat="46.5885" lon="5.56012">
        <ele>580</ele>
        <time>2022-03-21T16:11:06Z</time>
      </trkpt>
      <trkpt lat="46.58852" lon="5.56014">
        <ele>580</ele>
        <time>2022-03-21T16:11:07Z</time>
      </trkpt>
      <trkpt lat="46.58855" lon="5.56016">
        <ele>580.4</ele>
        <time>2022-03-21T16:11:08Z</time>
      </trkpt>
      <trkpt lat="46.58857" lon="5.56018">
        <ele>580.4</ele>
        <time>2022-03-21T16:11:09Z</time>
      </trkpt>
      <trkpt lat="46.58859" lon="5.5602">
        <ele>580.6</ele>
        <time>2022-03-21T16:11:10Z</time>
      </trkpt>
      <trkpt lat="46.58861" lon="5.56022">
        <ele>580.6</ele>
        <time>2022-03-21T16:11:11Z</time>
      </trkpt>
      <trkpt lat="46.58864" lon="5.56024">
        <ele>581</ele>
        <time>2022-03-21T16:11:12Z</time>
      </trkpt>
      <trkpt lat="46.58866" lon="5.56026">
        <ele>581</ele>
        <time>2022-03-21T16:11:13Z</time>
      </trkpt>
      <trkpt lat="46.58868" lon="5.56027">
        <ele>581.2</ele>
        <time>2022-03-21T16:11:14Z</time>
      </trkpt>
      <trkpt lat="46.58871" lon="5.56028">
        <ele>581.2</ele>
        <time>2022-03-21T16:11:15Z</time>
      </trkpt>
      <trkpt lat="46.58873" lon="5.5603">
        <ele>581.6</ele>
        <time>2022-03-21T16:11:16Z</time>
      </trkpt>
      <trkpt lat="46.58876" lon="5.56031">
        <ele>581.6</ele>
        <time>2022-03-21T16:11:17Z</time>
      </trkpt>
      <trkpt lat="46.58879" lon="5.56032">
        <ele>581.8</ele>
        <time>2022-03-21T16:11:18Z</time>
      </trkpt>
      <trkpt lat="46.58881" lon="5.56033">
        <ele>582</ele>
        <time>2022-03-21T16:11:19Z</time>
      </trkpt>
      <trkpt lat="46.58884" lon="5.56034">
        <ele>582.2</ele>
        <time>2022-03-21T16:11:20Z</time>
      </trkpt>
      <trkpt lat="46.58886" lon="5.56036">
        <ele>582.2</ele>
        <time>2022-03-21T16:11:21Z</time>
      </trkpt>
      <trkpt lat="46.58889" lon="5.56037">
        <ele>582.6</ele>
        <time>2022-03-21T16:11:22Z</time>
      </trkpt>
      <trkpt lat="46.58891" lon="5.56038">
        <ele>582.6</ele>
        <time>2022-03-21T16:11:23Z</time>
      </trkpt>
      <trkpt lat="46.58894" lon="5.56039">
        <ele>583</ele>
        <time>2022-03-21T16:11:24Z</time>
      </trkpt>
      <trkpt lat="46.58897" lon="5.56041">
        <ele>583</ele>
        <time>2022-03-21T16:11:25Z</time>
      </trkpt>
      <trkpt lat="46.58899" lon="5.56042">
        <ele>583.2</ele>
        <time>2022-03-21T16:11:26Z</time>
      </trkpt>
      <trkpt lat="46.58902" lon="5.56043">
        <ele>583.2</ele>
        <time>2022-03-21T16:11:27Z</time>
      </trkpt>
      <trkpt lat="46.58905" lon="5.56045">
        <ele>583.6</ele>
        <time>2022-03-21T16:11:28Z</time>
      </trkpt>
      <trkpt lat="46.58907" lon="5.56046">
        <ele>583.6</ele>
        <time>2022-03-21T16:11:29Z</time>
      </trkpt>
      <trkpt lat="46.5891" lon="5.56047">
        <ele>583.8</ele>
        <time>2022-03-21T16:11:30Z</time>
      </trkpt>
      <trkpt lat="46.58912" lon="5.56048">
        <ele>584</ele>
        <time>2022-03-21T16:11:31Z</time>
      </trkpt>
      <trkpt lat="46.58915" lon="5.5605">
        <ele>584</ele>
        <time>2022-03-21T16:11:32Z</time>
      </trkpt>
      <trkpt lat="46.58917" lon="5.56052">
        <ele>584.4</ele>
        <time>2022-03-21T16:11:33Z</time>
      </trkpt>
      <trkpt lat="46.5892" lon="5.56054">
        <ele>584.4</ele>
        <time>2022-03-21T16:11:34Z</time>
      </trkpt>
      <trkpt lat="46.58922" lon="5.56056">
        <ele>584.8</ele>
        <time>2022-03-21T16:11:35Z</time>
      </trkpt>
      <trkpt lat="46.58924" lon="5.56058">
        <ele>584.8</ele>
        <time>2022-03-21T16:11:36Z</time>
      </trkpt>
      <trkpt lat="46.58926" lon="5.5606">
        <ele>585</ele>
        <time>2022-03-21T16:11:37Z</time>
      </trkpt>
      <trkpt lat="46.58929" lon="5.56061">
        <ele>585</ele>
        <time>2022-03-21T16:11:38Z</time>
      </trkpt>
      <trkpt lat="46.58931" lon="5.56063">
        <ele>585.2</ele>
        <time>2022-03-21T16:11:39Z</time>
      </trkpt>
      <trkpt lat="46.58933" lon="5.56064">
        <ele>585.2</ele>
        <time>2022-03-21T16:11:40Z</time>
      </trkpt>
      <trkpt lat="46.58936" lon="5.56066">
        <ele>585.6</ele>
        <time>2022-03-21T16:11:41Z</time>
      </trkpt>
      <trkpt lat="46.58938" lon="5.56068">
        <ele>585.6</ele>
        <time>2022-03-21T16:11:42Z</time>
      </trkpt>
      <trkpt lat="46.5894" lon="5.5607">
        <ele>586</ele>
        <time>2022-03-21T16:11:43Z</time>
      </trkpt>
      <trkpt lat="46.58942" lon="5.56072">
        <ele>586</ele>
        <time>2022-03-21T16:11:44Z</time>
      </trkpt>
      <trkpt lat="46.58945" lon="5.56073">
        <ele>586.2</ele>
        <time>2022-03-21T16:11:45Z</time>
      </trkpt>
      <trkpt lat="46.58947" lon="5.56074">
        <ele>586.2</ele>
        <time>2022-03-21T16:11:46Z</time>
      </trkpt>
      <trkpt lat="46.58949" lon="5.56075">
        <ele>586.6</ele>
        <time>2022-03-21T16:11:47Z</time>
      </trkpt>
      <trkpt lat="46.58952" lon="5.56076">
        <ele>586.6</ele>
        <time>2022-03-21T16:11:48Z</time>
      </trkpt>
      <trkpt lat="46.58954" lon="5.56077">
        <ele>586.8</ele>
        <time>2022-03-21T16:11:49Z</time>
      </trkpt>
      <trkpt lat="46.58956" lon="5.56079">
        <ele>586.8</ele>
        <time>2022-03-21T16:11:50Z</time>
      </trkpt>
      <trkpt lat="46.58958" lon="5.56081">
        <ele>587</ele>
        <time>2022-03-21T16:11:51Z</time>
      </trkpt>
      <trkpt lat="46.58961" lon="5.56083">
        <ele>587</ele>
        <time>2022-03-21T16:11:52Z</time>
      </trkpt>
      <trkpt lat="46.58963" lon="5.56084">
        <ele>587.6</ele>
        <time>2022-03-21T16:11:53Z</time>
      </trkpt>
      <trkpt lat="46.58965" lon="5.56086">
        <ele>587.6</ele>
        <time>2022-03-21T16:11:54Z</time>
      </trkpt>
      <trkpt lat="46.58967" lon="5.56088">
        <ele>587.8</ele>
        <time>2022-03-21T16:11:55Z</time>
      </trkpt>
      <trkpt lat="46.58969" lon="5.5609">
        <ele>587.8</ele>
        <time>2022-03-21T16:11:56Z</time>
      </trkpt>
      <trkpt lat="46.5897" lon="5.56092">
        <ele>588.2</ele>
        <time>2022-03-21T16:11:57Z</time>
      </trkpt>
      <trkpt lat="46.58972" lon="5.56094">
        <ele>588.4</ele>
        <time>2022-03-21T16:11:58Z</time>
      </trkpt>
      <trkpt lat="46.58974" lon="5.56096">
        <ele>588.4</ele>
        <time>2022-03-21T16:11:59Z</time>
      </trkpt>
      <trkpt lat="46.58975" lon="5.56099">
        <ele>588.8</ele>
        <time>2022-03-21T16:12:00Z</time>
      </trkpt>
      <trkpt lat="46.58976" lon="5.56102">
        <ele>589.2</ele>
        <time>2022-03-21T16:12:01Z</time>
      </trkpt>
      <trkpt lat="46.58976" lon="5.56104">
        <ele>589.2</ele>
        <time>2022-03-21T16:12:02Z</time>
      </trkpt>
      <trkpt lat="46.58976" lon="5.56108">
        <ele>589.6</ele>
        <time>2022-03-21T16:12:03Z</time>
      </trkpt>
      <trkpt lat="46.58975" lon="5.56111">
        <ele>589.8</ele>
        <time>2022-03-21T16:12:04Z</time>
      </trkpt>
      <trkpt lat="46.58975" lon="5.56113">
        <ele>590.2</ele>
        <time>2022-03-21T16:12:05Z</time>
      </trkpt>
      <trkpt lat="46.58974" lon="5.56115">
        <ele>590.4</ele>
        <time>2022-03-21T16:12:06Z</time>
      </trkpt>
      <trkpt lat="46.58973" lon="5.56116">
        <ele>590.6</ele>
        <time>2022-03-21T16:12:07Z</time>
      </trkpt>
      <trkpt lat="46.58973" lon="5.56118">
        <ele>590.6</ele>
        <time>2022-03-21T16:12:08Z</time>
      </trkpt>
      <trkpt lat="46.58972" lon="5.56119">
        <ele>591.2</ele>
        <time>2022-03-21T16:12:09Z</time>
      </trkpt>
      <trkpt lat="46.58971" lon="5.5612">
        <ele>591.4</ele>
        <time>2022-03-21T16:12:10Z</time>
      </trkpt>
      <trkpt lat="46.58969" lon="5.5612">
        <ele>591.6</ele>
        <time>2022-03-21T16:12:11Z</time>
      </trkpt>
      <trkpt lat="46.58968" lon="5.56121">
        <ele>591.6</ele>
        <time>2022-03-21T16:12:12Z</time>
      </trkpt>
      <trkpt lat="46.58965" lon="5.56121">
        <ele>591.8</ele>
        <time>2022-03-21T16:12:13Z</time>
      </trkpt>
      <trkpt lat="46.58963" lon="5.5612">
        <ele>591.8</ele>
        <time>2022-03-21T16:12:14Z</time>
      </trkpt>
      <trkpt lat="46.58961" lon="5.5612">
        <ele>592.2</ele>
        <time>2022-03-21T16:12:15Z</time>
      </trkpt>
      <trkpt lat="46.58958" lon="5.5612">
        <ele>592.4</ele>
        <time>2022-03-21T16:12:16Z</time>
      </trkpt>
      <trkpt lat="46.58953" lon="5.5612">
        <ele>592.4</ele>
        <time>2022-03-21T16:12:17Z</time>
      </trkpt>
      <trkpt lat="46.5895" lon="5.5612">
        <ele>593</ele>
        <time>2022-03-21T16:12:18Z</time>
      </trkpt>
      <trkpt lat="46.58948" lon="5.5612">
        <ele>593.2</ele>
        <time>2022-03-21T16:12:19Z</time>
      </trkpt>
      <trkpt lat="46.58946" lon="5.5612">
        <ele>593.2</ele>
        <time>2022-03-21T16:12:20Z</time>
      </trkpt>
      <trkpt lat="46.58944" lon="5.5612">
        <ele>593.6</ele>
        <time>2022-03-21T16:12:21Z</time>
      </trkpt>
      <trkpt lat="46.58942" lon="5.56121">
        <ele>593.8</ele>
        <time>2022-03-21T16:12:22Z</time>
      </trkpt>
      <trkpt lat="46.58939" lon="5.56121">
        <ele>593.8</ele>
        <time>2022-03-21T16:12:23Z</time>
      </trkpt>
      <trkpt lat="46.58937" lon="5.56121">
        <ele>594.2</ele>
        <time>2022-03-21T16:12:24Z</time>
      </trkpt>
      <trkpt lat="46.58936" lon="5.56121">
        <ele>594.2</ele>
        <time>2022-03-21T16:12:25Z</time>
      </trkpt>
      <trkpt lat="46.58933" lon="5.56121">
        <ele>594.4</ele>
        <time>2022-03-21T16:12:26Z</time>
      </trkpt>
      <trkpt lat="46.58931" lon="5.56121">
        <ele>594.4</ele>
        <time>2022-03-21T16:12:27Z</time>
      </trkpt>
      <trkpt lat="46.58929" lon="5.56122">
        <ele>594.8</ele>
        <time>2022-03-21T16:12:28Z</time>
      </trkpt>
      <trkpt lat="46.58926" lon="5.56122">
        <ele>594.8</ele>
        <time>2022-03-21T16:12:29Z</time>
      </trkpt>
      <trkpt lat="46.58924" lon="5.56122">
        <ele>595</ele>
        <time>2022-03-21T16:12:30Z</time>
      </trkpt>
      <trkpt lat="46.58922" lon="5.56122">
        <ele>595</ele>
        <time>2022-03-21T16:12:31Z</time>
      </trkpt>
      <trkpt lat="46.58921" lon="5.56122">
        <ele>595.2</ele>
        <time>2022-03-21T16:12:32Z</time>
      </trkpt>
      <trkpt lat="46.58918" lon="5.56122">
        <ele>595.2</ele>
        <time>2022-03-21T16:12:33Z</time>
      </trkpt>
      <trkpt lat="46.58916" lon="5.56123">
        <ele>595.6</ele>
        <time>2022-03-21T16:12:34Z</time>
      </trkpt>
      <trkpt lat="46.58914" lon="5.56123">
        <ele>595.6</ele>
        <time>2022-03-21T16:12:35Z</time>
      </trkpt>
      <trkpt lat="46.58912" lon="5.56122">
        <ele>596</ele>
        <time>2022-03-21T16:12:36Z</time>
      </trkpt>
      <trkpt lat="46.5891" lon="5.56122">
        <ele>596</ele>
        <time>2022-03-21T16:12:37Z</time>
      </trkpt>
      <trkpt lat="46.58908" lon="5.56123">
        <ele>596.2</ele>
        <time>2022-03-21T16:12:38Z</time>
      </trkpt>
      <trkpt lat="46.58906" lon="5.56123">
        <ele>596.2</ele>
        <time>2022-03-21T16:12:39Z</time>
      </trkpt>
      <trkpt lat="46.58904" lon="5.56123">
        <ele>596.4</ele>
        <time>2022-03-21T16:12:40Z</time>
      </trkpt>
      <trkpt lat="46.58902" lon="5.56123">
        <ele>596.4</ele>
        <time>2022-03-21T16:12:41Z</time>
      </trkpt>
      <trkpt lat="46.589" lon="5.56123">
        <ele>596.8</ele>
        <time>2022-03-21T16:12:42Z</time>
      </trkpt>
      <trkpt lat="46.58897" lon="5.56123">
        <ele>596.8</ele>
        <time>2022-03-21T16:12:43Z</time>
      </trkpt>
      <trkpt lat="46.58896" lon="5.56123">
        <ele>597</ele>
        <time>2022-03-21T16:12:44Z</time>
      </trkpt>
      <trkpt lat="46.58894" lon="5.56124">
        <ele>597</ele>
        <time>2022-03-21T16:12:45Z</time>
      </trkpt>
      <trkpt lat="46.58892" lon="5.56124">
        <ele>597.2</ele>
        <time>2022-03-21T16:12:46Z</time>
      </trkpt>
      <trkpt lat="46.5889" lon="5.56124">
        <ele>597.2</ele>
        <time>2022-03-21T16:12:47Z</time>
      </trkpt>
      <trkpt lat="46.58888" lon="5.56124">
        <ele>597.6</ele>
        <time>2022-03-21T16:12:48Z</time>
      </trkpt>
      <trkpt lat="46.58885" lon="5.56125">
        <ele>597.6</ele>
        <time>2022-03-21T16:12:49Z</time>
      </trkpt>
      <trkpt lat="46.58883" lon="5.56125">
        <ele>597.8</ele>
        <time>2022-03-21T16:12:50Z</time>
      </trkpt>
      <trkpt lat="46.58881" lon="5.56126">
        <ele>597.8</ele>
        <time>2022-03-21T16:12:51Z</time>
      </trkpt>
      <trkpt lat="46.58879" lon="5.56127">
        <ele>598.2</ele>
        <time>2022-03-21T16:12:52Z</time>
      </trkpt>
      <trkpt lat="46.58877" lon="5.56127">
        <ele>598.2</ele>
        <time>2022-03-21T16:12:53Z</time>
      </trkpt>
      <trkpt lat="46.58874" lon="5.56127">
        <ele>598.4</ele>
        <time>2022-03-21T16:12:54Z</time>
      </trkpt>
      <trkpt lat="46.58872" lon="5.56128">
        <ele>598.4</ele>
        <time>2022-03-21T16:12:55Z</time>
      </trkpt>
      <trkpt lat="46.5887" lon="5.56128">
        <ele>598.6</ele>
        <time>2022-03-21T16:12:56Z</time>
      </trkpt>
      <trkpt lat="46.58868" lon="5.56129">
        <ele>598.6</ele>
        <time>2022-03-21T16:12:57Z</time>
      </trkpt>
      <trkpt lat="46.58865" lon="5.5613">
        <ele>599</ele>
        <time>2022-03-21T16:12:58Z</time>
      </trkpt>
      <trkpt lat="46.58863" lon="5.5613">
        <ele>599</ele>
        <time>2022-03-21T16:12:59Z</time>
      </trkpt>
      <trkpt lat="46.58861" lon="5.5613">
        <ele>599.4</ele>
        <time>2022-03-21T16:13:00Z</time>
      </trkpt>
      <trkpt lat="46.58858" lon="5.56131">
        <ele>599.6</ele>
        <time>2022-03-21T16:13:01Z</time>
      </trkpt>
      <trkpt lat="46.58856" lon="5.56131">
        <ele>599.6</ele>
        <time>2022-03-21T16:13:02Z</time>
      </trkpt>
      <trkpt lat="46.58854" lon="5.56131">
        <ele>599.8</ele>
        <time>2022-03-21T16:13:03Z</time>
      </trkpt>
      <trkpt lat="46.58852" lon="5.56131">
        <ele>599.8</ele>
        <time>2022-03-21T16:13:04Z</time>
      </trkpt>
      <trkpt lat="46.58851" lon="5.56131">
        <ele>600.2</ele>
        <time>2022-03-21T16:13:05Z</time>
      </trkpt>
      <trkpt lat="46.58849" lon="5.56132">
        <ele>600.2</ele>
        <time>2022-03-21T16:13:06Z</time>
      </trkpt>
      <trkpt lat="46.58847" lon="5.56133">
        <ele>600.6</ele>
        <time>2022-03-21T16:13:07Z</time>
      </trkpt>
      <trkpt lat="46.58845" lon="5.56133">
        <ele>600.6</ele>
        <time>2022-03-21T16:13:08Z</time>
      </trkpt>
      <trkpt lat="46.58843" lon="5.56134">
        <ele>600.8</ele>
        <time>2022-03-21T16:13:09Z</time>
      </trkpt>
      <trkpt lat="46.5884" lon="5.56134">
        <ele>600.8</ele>
        <time>2022-03-21T16:13:10Z</time>
      </trkpt>
      <trkpt lat="46.58838" lon="5.56135">
        <ele>601.2</ele>
        <time>2022-03-21T16:13:11Z</time>
      </trkpt>
      <trkpt lat="46.58836" lon="5.56136">
        <ele>601.2</ele>
        <time>2022-03-21T16:13:12Z</time>
      </trkpt>
      <trkpt lat="46.58834" lon="5.56136">
        <ele>601.4</ele>
        <time>2022-03-21T16:13:13Z</time>
      </trkpt>
      <trkpt lat="46.58832" lon="5.56137">
        <ele>601.4</ele>
        <time>2022-03-21T16:13:14Z</time>
      </trkpt>
      <trkpt lat="46.5883" lon="5.56139">
        <ele>601.6</ele>
        <time>2022-03-21T16:13:15Z</time>
      </trkpt>
      <trkpt lat="46.58828" lon="5.5614">
        <ele>602</ele>
        <time>2022-03-21T16:13:16Z</time>
      </trkpt>
      <trkpt lat="46.58826" lon="5.56142">
        <ele>602</ele>
        <time>2022-03-21T16:13:17Z</time>
      </trkpt>
      <trkpt lat="46.58824" lon="5.56143">
        <ele>602</ele>
        <time>2022-03-21T16:13:18Z</time>
      </trkpt>
      <trkpt lat="46.58822" lon="5.56145">
        <ele>602</ele>
        <time>2022-03-21T16:13:19Z</time>
      </trkpt>
      <trkpt lat="46.5882" lon="5.56145">
        <ele>602</ele>
        <time>2022-03-21T16:13:20Z</time>
      </trkpt>
      <trkpt lat="46.58817" lon="5.56146">
        <ele>602.2</ele>
        <time>2022-03-21T16:13:21Z</time>
      </trkpt>
      <trkpt lat="46.58814" lon="5.56147">
        <ele>602.2</ele>
        <time>2022-03-21T16:13:22Z</time>
      </trkpt>
      <trkpt lat="46.58811" lon="5.56149">
        <ele>602.4</ele>
        <time>2022-03-21T16:13:23Z</time>
      </trkpt>
      <trkpt lat="46.58809" lon="5.56151">
        <ele>602.4</ele>
        <time>2022-03-21T16:13:24Z</time>
      </trkpt>
      <trkpt lat="46.58808" lon="5.56153">
        <ele>602.6</ele>
        <time>2022-03-21T16:13:25Z</time>
      </trkpt>
      <trkpt lat="46.58806" lon="5.56155">
        <ele>602.6</ele>
        <time>2022-03-21T16:13:26Z</time>
      </trkpt>
      <trkpt lat="46.58805" lon="5.56158">
        <ele>602.8</ele>
        <time>2022-03-21T16:13:27Z</time>
      </trkpt>
      <trkpt lat="46.58803" lon="5.5616">
        <ele>602.8</ele>
        <time>2022-03-21T16:13:28Z</time>
      </trkpt>
      <trkpt lat="46.58801" lon="5.56162">
        <ele>603.2</ele>
        <time>2022-03-21T16:13:29Z</time>
      </trkpt>
      <trkpt lat="46.58799" lon="5.56164">
        <ele>603.2</ele>
        <time>2022-03-21T16:13:30Z</time>
      </trkpt>
      <trkpt lat="46.58798" lon="5.56166">
        <ele>603.4</ele>
        <time>2022-03-21T16:13:31Z</time>
      </trkpt>
      <trkpt lat="46.58796" lon="5.56169">
        <ele>603.4</ele>
        <time>2022-03-21T16:13:32Z</time>
      </trkpt>
      <trkpt lat="46.58795" lon="5.56172">
        <ele>603.6</ele>
        <time>2022-03-21T16:13:33Z</time>
      </trkpt>
      <trkpt lat="46.58794" lon="5.56176">
        <ele>603.6</ele>
        <time>2022-03-21T16:13:34Z</time>
      </trkpt>
      <trkpt lat="46.58793" lon="5.56179">
        <ele>603.6</ele>
        <time>2022-03-21T16:13:35Z</time>
      </trkpt>
      <trkpt lat="46.58793" lon="5.56183">
        <ele>603.6</ele>
        <time>2022-03-21T16:13:36Z</time>
      </trkpt>
      <trkpt lat="46.58791" lon="5.56186">
        <ele>603.6</ele>
        <time>2022-03-21T16:13:37Z</time>
      </trkpt>
      <trkpt lat="46.5879" lon="5.56189">
        <ele>603.6</ele>
        <time>2022-03-21T16:13:38Z</time>
      </trkpt>
      <trkpt lat="46.58788" lon="5.56192">
        <ele>603.6</ele>
        <time>2022-03-21T16:13:39Z</time>
      </trkpt>
      <trkpt lat="46.58785" lon="5.56195">
        <ele>603.6</ele>
        <time>2022-03-21T16:13:40Z</time>
      </trkpt>
      <trkpt lat="46.58782" lon="5.56198">
        <ele>603.4</ele>
        <time>2022-03-21T16:13:41Z</time>
      </trkpt>
      <trkpt lat="46.58779" lon="5.56202">
        <ele>603</ele>
        <time>2022-03-21T16:13:42Z</time>
      </trkpt>
      <trkpt lat="46.58774" lon="5.56205">
        <ele>602.8</ele>
        <time>2022-03-21T16:13:43Z</time>
      </trkpt>
      <trkpt lat="46.5877" lon="5.56208">
        <ele>602.8</ele>
        <time>2022-03-21T16:13:44Z</time>
      </trkpt>
      <trkpt lat="46.58766" lon="5.56213">
        <ele>602.4</ele>
        <time>2022-03-21T16:13:45Z</time>
      </trkpt>
      <trkpt lat="46.58762" lon="5.56219">
        <ele>602.2</ele>
        <time>2022-03-21T16:13:46Z</time>
      </trkpt>
      <trkpt lat="46.58758" lon="5.56225">
        <ele>602.2</ele>
        <time>2022-03-21T16:13:47Z</time>
      </trkpt>
      <trkpt lat="46.58754" lon="5.56232">
        <ele>601.6</ele>
        <time>2022-03-21T16:13:49Z</time>
      </trkpt>
      <trkpt lat="46.5875" lon="5.56239">
        <ele>601.4</ele>
        <time>2022-03-21T16:13:50Z</time>
      </trkpt>
      <trkpt lat="46.58746" lon="5.56246">
        <ele>601.2</ele>
        <time>2022-03-21T16:13:51Z</time>
      </trkpt>
      <trkpt lat="46.58742" lon="5.56253">
        <ele>601</ele>
        <time>2022-03-21T16:13:52Z</time>
      </trkpt>
      <trkpt lat="46.58738" lon="5.5626">
        <ele>600.8</ele>
        <time>2022-03-21T16:13:53Z</time>
      </trkpt>
      <trkpt lat="46.58734" lon="5.56267">
        <ele>600.4</ele>
        <time>2022-03-21T16:13:54Z</time>
      </trkpt>
      <trkpt lat="46.58729" lon="5.56273">
        <ele>600.2</ele>
        <time>2022-03-21T16:13:55Z</time>
      </trkpt>
      <trkpt lat="46.58723" lon="5.56279">
        <ele>600</ele>
        <time>2022-03-21T16:13:56Z</time>
      </trkpt>
      <trkpt lat="46.58716" lon="5.56283">
        <ele>599.6</ele>
        <time>2022-03-21T16:13:57Z</time>
      </trkpt>
      <trkpt lat="46.58709" lon="5.56286">
        <ele>599.2</ele>
        <time>2022-03-21T16:13:58Z</time>
      </trkpt>
      <trkpt lat="46.58702" lon="5.56287">
        <ele>598.8</ele>
        <time>2022-03-21T16:13:59Z</time>
      </trkpt>
      <trkpt lat="46.58695" lon="5.56287">
        <ele>598.2</ele>
        <time>2022-03-21T16:14:00Z</time>
      </trkpt>
      <trkpt lat="46.58687" lon="5.56286">
        <ele>597.8</ele>
        <time>2022-03-21T16:14:01Z</time>
      </trkpt>
      <trkpt lat="46.58679" lon="5.56284">
        <ele>597.2</ele>
        <time>2022-03-21T16:14:02Z</time>
      </trkpt>
      <trkpt lat="46.5867" lon="5.56282">
        <ele>596.6</ele>
        <time>2022-03-21T16:14:03Z</time>
      </trkpt>
      <trkpt lat="46.5866" lon="5.56279">
        <ele>596</ele>
        <time>2022-03-21T16:14:04Z</time>
      </trkpt>
      <trkpt lat="46.58651" lon="5.56277">
        <ele>595.4</ele>
        <time>2022-03-21T16:14:05Z</time>
      </trkpt>
      <trkpt lat="46.58642" lon="5.56274">
        <ele>594.6</ele>
        <time>2022-03-21T16:14:06Z</time>
      </trkpt>
      <trkpt lat="46.58632" lon="5.56271">
        <ele>594</ele>
        <time>2022-03-21T16:14:07Z</time>
      </trkpt>
      <trkpt lat="46.58622" lon="5.56269">
        <ele>593.2</ele>
        <time>2022-03-21T16:14:08Z</time>
      </trkpt>
      <trkpt lat="46.58612" lon="5.56265">
        <ele>592.4</ele>
        <time>2022-03-21T16:14:09Z</time>
      </trkpt>
      <trkpt lat="46.58602" lon="5.56262">
        <ele>591.8</ele>
        <time>2022-03-21T16:14:10Z</time>
      </trkpt>
      <trkpt lat="46.58594" lon="5.56256">
        <ele>591.2</ele>
        <time>2022-03-21T16:14:11Z</time>
      </trkpt>
      <trkpt lat="46.58587" lon="5.56251">
        <ele>590.6</ele>
        <time>2022-03-21T16:14:12Z</time>
      </trkpt>
      <trkpt lat="46.58581" lon="5.56248">
        <ele>590.2</ele>
        <time>2022-03-21T16:14:13Z</time>
      </trkpt>
      <trkpt lat="46.58575" lon="5.56248">
        <ele>589.6</ele>
        <time>2022-03-21T16:14:14Z</time>
      </trkpt>
      <trkpt lat="46.58569" lon="5.56253">
        <ele>589.2</ele>
        <time>2022-03-21T16:14:15Z</time>
      </trkpt>
      <trkpt lat="46.58564" lon="5.56258">
        <ele>588.8</ele>
        <time>2022-03-21T16:14:16Z</time>
      </trkpt>
      <trkpt lat="46.58559" lon="5.56264">
        <ele>588.6</ele>
        <time>2022-03-21T16:14:17Z</time>
      </trkpt>
      <trkpt lat="46.58557" lon="5.56271">
        <ele>588</ele>
        <time>2022-03-21T16:14:18Z</time>
      </trkpt>
      <trkpt lat="46.58557" lon="5.56278">
        <ele>587.6</ele>
        <time>2022-03-21T16:14:19Z</time>
      </trkpt>
      <trkpt lat="46.58559" lon="5.56283">
        <ele>587</ele>
        <time>2022-03-21T16:14:20Z</time>
      </trkpt>
      <trkpt lat="46.58562" lon="5.56287">
        <ele>586.4</ele>
        <time>2022-03-21T16:14:21Z</time>
      </trkpt>
      <trkpt lat="46.58572" lon="5.56288">
        <ele>586</ele>
        <time>2022-03-21T16:14:22Z</time>
      </trkpt>
      <trkpt lat="46.58581" lon="5.56292">
        <ele>585.4</ele>
        <time>2022-03-21T16:14:23Z</time>
      </trkpt>
      <trkpt lat="46.58588" lon="5.56297">
        <ele>585</ele>
        <time>2022-03-21T16:14:24Z</time>
      </trkpt>
      <trkpt lat="46.58595" lon="5.56305">
        <ele>584.4</ele>
        <time>2022-03-21T16:14:25Z</time>
      </trkpt>
      <trkpt lat="46.58601" lon="5.56315">
        <ele>583.8</ele>
        <time>2022-03-21T16:14:26Z</time>
      </trkpt>
      <trkpt lat="46.58607" lon="5.56325">
        <ele>583.2</ele>
        <time>2022-03-21T16:14:27Z</time>
      </trkpt>
      <trkpt lat="46.58613" lon="5.56335">
        <ele>582.6</ele>
        <time>2022-03-21T16:14:28Z</time>
      </trkpt>
      <trkpt lat="46.5862" lon="5.56347">
        <ele>582</ele>
        <time>2022-03-21T16:14:29Z</time>
      </trkpt>
      <trkpt lat="46.58628" lon="5.56358">
        <ele>581.6</ele>
        <time>2022-03-21T16:14:30Z</time>
      </trkpt>
      <trkpt lat="46.58637" lon="5.56368">
        <ele>580.8</ele>
        <time>2022-03-21T16:14:31Z</time>
      </trkpt>
      <trkpt lat="46.58645" lon="5.56377">
        <ele>580.2</ele>
        <time>2022-03-21T16:14:32Z</time>
      </trkpt>
      <trkpt lat="46.58655" lon="5.56384">
        <ele>579.6</ele>
        <time>2022-03-21T16:14:33Z</time>
      </trkpt>
      <trkpt lat="46.58665" lon="5.56389">
        <ele>579</ele>
        <time>2022-03-21T16:14:34Z</time>
      </trkpt>
      <trkpt lat="46.58675" lon="5.56393">
        <ele>578.4</ele>
        <time>2022-03-21T16:14:35Z</time>
      </trkpt>
      <trkpt lat="46.58685" lon="5.56396">
        <ele>577.8</ele>
        <time>2022-03-21T16:14:36Z</time>
      </trkpt>
      <trkpt lat="46.58695" lon="5.56397">
        <ele>577.2</ele>
        <time>2022-03-21T16:14:37Z</time>
      </trkpt>
      <trkpt lat="46.58704" lon="5.56397">
        <ele>576.6</ele>
        <time>2022-03-21T16:14:38Z</time>
      </trkpt>
      <trkpt lat="46.58712" lon="5.56396">
        <ele>576</ele>
        <time>2022-03-21T16:14:39Z</time>
      </trkpt>
      <trkpt lat="46.58719" lon="5.56396">
        <ele>575.2</ele>
        <time>2022-03-21T16:14:40Z</time>
      </trkpt>
      <trkpt lat="46.58727" lon="5.56398">
        <ele>574.6</ele>
        <time>2022-03-21T16:14:41Z</time>
      </trkpt>
      <trkpt lat="46.58734" lon="5.56402">
        <ele>574.2</ele>
        <time>2022-03-21T16:14:42Z</time>
      </trkpt>
      <trkpt lat="46.5874" lon="5.56409">
        <ele>573.6</ele>
        <time>2022-03-21T16:14:43Z</time>
      </trkpt>
      <trkpt lat="46.58746" lon="5.56418">
        <ele>573</ele>
        <time>2022-03-21T16:14:44Z</time>
      </trkpt>
      <trkpt lat="46.58752" lon="5.56428">
        <ele>572.6</ele>
        <time>2022-03-21T16:14:45Z</time>
      </trkpt>
      <trkpt lat="46.58758" lon="5.56438">
        <ele>572</ele>
        <time>2022-03-21T16:14:46Z</time>
      </trkpt>
      <trkpt lat="46.58765" lon="5.56448">
        <ele>571.4</ele>
        <time>2022-03-21T16:14:47Z</time>
      </trkpt>
      <trkpt lat="46.58772" lon="5.56456">
        <ele>570.8</ele>
        <time>2022-03-21T16:14:48Z</time>
      </trkpt>
      <trkpt lat="46.58779" lon="5.56464">
        <ele>570.2</ele>
        <time>2022-03-21T16:14:49Z</time>
      </trkpt>
      <trkpt lat="46.58787" lon="5.56472">
        <ele>569.6</ele>
        <time>2022-03-21T16:14:50Z</time>
      </trkpt>
      <trkpt lat="46.58795" lon="5.5648">
        <ele>569</ele>
        <time>2022-03-21T16:14:51Z</time>
      </trkpt>
      <trkpt lat="46.58802" lon="5.56491">
        <ele>568.2</ele>
        <time>2022-03-21T16:14:52Z</time>
      </trkpt>
      <trkpt lat="46.58811" lon="5.56502">
        <ele>567.6</ele>
        <time>2022-03-21T16:14:53Z</time>
      </trkpt>
      <trkpt lat="46.58819" lon="5.56514">
        <ele>566.8</ele>
        <time>2022-03-21T16:14:54Z</time>
      </trkpt>
      <trkpt lat="46.58827" lon="5.56527">
        <ele>566.2</ele>
        <time>2022-03-21T16:14:55Z</time>
      </trkpt>
      <trkpt lat="46.58835" lon="5.56539">
        <ele>565.6</ele>
        <time>2022-03-21T16:14:56Z</time>
      </trkpt>
      <trkpt lat="46.58841" lon="5.56551">
        <ele>565</ele>
        <time>2022-03-21T16:14:57Z</time>
      </trkpt>
      <trkpt lat="46.58846" lon="5.56562">
        <ele>564.4</ele>
        <time>2022-03-21T16:14:58Z</time>
      </trkpt>
      <trkpt lat="46.5885" lon="5.56574">
        <ele>564</ele>
        <time>2022-03-21T16:14:59Z</time>
      </trkpt>
      <trkpt lat="46.58853" lon="5.56587">
        <ele>563.4</ele>
        <time>2022-03-21T16:15:00Z</time>
      </trkpt>
      <trkpt lat="46.58854" lon="5.566">
        <ele>563</ele>
        <time>2022-03-21T16:15:01Z</time>
      </trkpt>
      <trkpt lat="46.58856" lon="5.56612">
        <ele>562.8</ele>
        <time>2022-03-21T16:15:02Z</time>
      </trkpt>
      <trkpt lat="46.58857" lon="5.56625">
        <ele>562.4</ele>
        <time>2022-03-21T16:15:03Z</time>
      </trkpt>
      <trkpt lat="46.58859" lon="5.56637">
        <ele>562.4</ele>
        <time>2022-03-21T16:15:04Z</time>
      </trkpt>
      <trkpt lat="46.58863" lon="5.56647">
        <ele>562.4</ele>
        <time>2022-03-21T16:15:05Z</time>
      </trkpt>
      <trkpt lat="46.58867" lon="5.56656">
        <ele>562.4</ele>
        <time>2022-03-21T16:15:06Z</time>
      </trkpt>
      <trkpt lat="46.58872" lon="5.56664">
        <ele>562.4</ele>
        <time>2022-03-21T16:15:07Z</time>
      </trkpt>
      <trkpt lat="46.58878" lon="5.5667">
        <ele>562.4</ele>
        <time>2022-03-21T16:15:08Z</time>
      </trkpt>
      <trkpt lat="46.58883" lon="5.56677">
        <ele>562.8</ele>
        <time>2022-03-21T16:15:09Z</time>
      </trkpt>
      <trkpt lat="46.58888" lon="5.56683">
        <ele>563</ele>
        <time>2022-03-21T16:15:10Z</time>
      </trkpt>
      <trkpt lat="46.58892" lon="5.56689">
        <ele>563.4</ele>
        <time>2022-03-21T16:15:11Z</time>
      </trkpt>
      <trkpt lat="46.58896" lon="5.56695">
        <ele>563.6</ele>
        <time>2022-03-21T16:15:12Z</time>
      </trkpt>
      <trkpt lat="46.589" lon="5.567">
        <ele>563.8</ele>
        <time>2022-03-21T16:15:13Z</time>
      </trkpt>
      <trkpt lat="46.58904" lon="5.56706">
        <ele>564</ele>
        <time>2022-03-21T16:15:14Z</time>
      </trkpt>
      <trkpt lat="46.58907" lon="5.56711">
        <ele>564</ele>
        <time>2022-03-21T16:15:15Z</time>
      </trkpt>
      <trkpt lat="46.5891" lon="5.56716">
        <ele>564.4</ele>
        <time>2022-03-21T16:15:16Z</time>
      </trkpt>
      <trkpt lat="46.58913" lon="5.56721">
        <ele>564.6</ele>
        <time>2022-03-21T16:15:17Z</time>
      </trkpt>
      <trkpt lat="46.58915" lon="5.56726">
        <ele>564.8</ele>
        <time>2022-03-21T16:15:18Z</time>
      </trkpt>
      <trkpt lat="46.58918" lon="5.56731">
        <ele>564.8</ele>
        <time>2022-03-21T16:15:19Z</time>
      </trkpt>
      <trkpt lat="46.5892" lon="5.56735">
        <ele>565.2</ele>
        <time>2022-03-21T16:15:20Z</time>
      </trkpt>
      <trkpt lat="46.58922" lon="5.5674">
        <ele>565.2</ele>
        <time>2022-03-21T16:15:21Z</time>
      </trkpt>
      <trkpt lat="46.58924" lon="5.56744">
        <ele>565.6</ele>
        <time>2022-03-21T16:15:22Z</time>
      </trkpt>
      <trkpt lat="46.58926" lon="5.56749">
        <ele>565.8</ele>
        <time>2022-03-21T16:15:23Z</time>
      </trkpt>
      <trkpt lat="46.58928" lon="5.56753">
        <ele>565.8</ele>
        <time>2022-03-21T16:15:24Z</time>
      </trkpt>
      <trkpt lat="46.5893" lon="5.56757">
        <ele>566.2</ele>
        <time>2022-03-21T16:15:25Z</time>
      </trkpt>
      <trkpt lat="46.58931" lon="5.56761">
        <ele>566.2</ele>
        <time>2022-03-21T16:15:26Z</time>
      </trkpt>
      <trkpt lat="46.58932" lon="5.56765">
        <ele>566.6</ele>
        <time>2022-03-21T16:15:27Z</time>
      </trkpt>
      <trkpt lat="46.58933" lon="5.56769">
        <ele>566.8</ele>
        <time>2022-03-21T16:15:28Z</time>
      </trkpt>
      <trkpt lat="46.58935" lon="5.56773">
        <ele>566.8</ele>
        <time>2022-03-21T16:15:29Z</time>
      </trkpt>
      <trkpt lat="46.58936" lon="5.56777">
        <ele>567</ele>
        <time>2022-03-21T16:15:30Z</time>
      </trkpt>
      <trkpt lat="46.58937" lon="5.56781">
        <ele>567</ele>
        <time>2022-03-21T16:15:31Z</time>
      </trkpt>
      <trkpt lat="46.58938" lon="5.56785">
        <ele>567.4</ele>
        <time>2022-03-21T16:15:32Z</time>
      </trkpt>
      <trkpt lat="46.58939" lon="5.56789">
        <ele>567.4</ele>
        <time>2022-03-21T16:15:33Z</time>
      </trkpt>
      <trkpt lat="46.58939" lon="5.56793">
        <ele>567.6</ele>
        <time>2022-03-21T16:15:34Z</time>
      </trkpt>
      <trkpt lat="46.5894" lon="5.56797">
        <ele>567.8</ele>
        <time>2022-03-21T16:15:35Z</time>
      </trkpt>
      <trkpt lat="46.58941" lon="5.568">
        <ele>568</ele>
        <time>2022-03-21T16:15:36Z</time>
      </trkpt>
      <trkpt lat="46.58942" lon="5.56804">
        <ele>568.2</ele>
        <time>2022-03-21T16:15:37Z</time>
      </trkpt>
      <trkpt lat="46.58943" lon="5.56808">
        <ele>568.2</ele>
        <time>2022-03-21T16:15:38Z</time>
      </trkpt>
      <trkpt lat="46.58943" lon="5.56812">
        <ele>568.6</ele>
        <time>2022-03-21T16:15:39Z</time>
      </trkpt>
      <trkpt lat="46.58944" lon="5.56816">
        <ele>568.8</ele>
        <time>2022-03-21T16:15:40Z</time>
      </trkpt>
      <trkpt lat="46.58944" lon="5.56819">
        <ele>568.8</ele>
        <time>2022-03-21T16:15:41Z</time>
      </trkpt>
      <trkpt lat="46.58945" lon="5.56823">
        <ele>569.2</ele>
        <time>2022-03-21T16:15:42Z</time>
      </trkpt>
      <trkpt lat="46.58945" lon="5.56827">
        <ele>569.2</ele>
        <time>2022-03-21T16:15:43Z</time>
      </trkpt>
      <trkpt lat="46.58946" lon="5.56831">
        <ele>569.4</ele>
        <time>2022-03-21T16:15:44Z</time>
      </trkpt>
      <trkpt lat="46.58946" lon="5.56834">
        <ele>569.4</ele>
        <time>2022-03-21T16:15:45Z</time>
      </trkpt>
      <trkpt lat="46.58947" lon="5.56838">
        <ele>569.8</ele>
        <time>2022-03-21T16:15:46Z</time>
      </trkpt>
      <trkpt lat="46.58947" lon="5.56842">
        <ele>569.8</ele>
        <time>2022-03-21T16:15:47Z</time>
      </trkpt>
      <trkpt lat="46.58948" lon="5.56845">
        <ele>570.2</ele>
        <time>2022-03-21T16:15:48Z</time>
      </trkpt>
      <trkpt lat="46.58948" lon="5.56849">
        <ele>570.2</ele>
        <time>2022-03-21T16:15:49Z</time>
      </trkpt>
      <trkpt lat="46.58949" lon="5.56852">
        <ele>570.4</ele>
        <time>2022-03-21T16:15:50Z</time>
      </trkpt>
      <trkpt lat="46.58949" lon="5.56856">
        <ele>570.4</ele>
        <time>2022-03-21T16:15:51Z</time>
      </trkpt>
      <trkpt lat="46.5895" lon="5.56859">
        <ele>570.6</ele>
        <time>2022-03-21T16:15:52Z</time>
      </trkpt>
      <trkpt lat="46.5895" lon="5.56863">
        <ele>570.8</ele>
        <time>2022-03-21T16:15:53Z</time>
      </trkpt>
      <trkpt lat="46.5895" lon="5.56866">
        <ele>570.8</ele>
        <time>2022-03-21T16:15:54Z</time>
      </trkpt>
      <trkpt lat="46.58951" lon="5.5687">
        <ele>571.2</ele>
        <time>2022-03-21T16:15:55Z</time>
      </trkpt>
      <trkpt lat="46.58951" lon="5.56873">
        <ele>571.2</ele>
        <time>2022-03-21T16:15:56Z</time>
      </trkpt>
      <trkpt lat="46.58952" lon="5.56877">
        <ele>571.6</ele>
        <time>2022-03-21T16:15:57Z</time>
      </trkpt>
      <trkpt lat="46.58952" lon="5.5688">
        <ele>571.6</ele>
        <time>2022-03-21T16:15:58Z</time>
      </trkpt>
      <trkpt lat="46.58953" lon="5.56883">
        <ele>572</ele>
        <time>2022-03-21T16:15:59Z</time>
      </trkpt>
      <trkpt lat="46.58954" lon="5.56887">
        <ele>572</ele>
        <time>2022-03-21T16:16:00Z</time>
      </trkpt>
      <trkpt lat="46.58955" lon="5.5689">
        <ele>572.2</ele>
        <time>2022-03-21T16:16:01Z</time>
      </trkpt>
      <trkpt lat="46.58955" lon="5.56893">
        <ele>572.2</ele>
        <time>2022-03-21T16:16:02Z</time>
      </trkpt>
      <trkpt lat="46.58956" lon="5.56896">
        <ele>572.6</ele>
        <time>2022-03-21T16:16:03Z</time>
      </trkpt>
      <trkpt lat="46.58956" lon="5.569">
        <ele>572.6</ele>
        <time>2022-03-21T16:16:04Z</time>
      </trkpt>
      <trkpt lat="46.58957" lon="5.56903">
        <ele>572.8</ele>
        <time>2022-03-21T16:16:05Z</time>
      </trkpt>
      <trkpt lat="46.58957" lon="5.56907">
        <ele>573</ele>
        <time>2022-03-21T16:16:06Z</time>
      </trkpt>
      <trkpt lat="46.58958" lon="5.56911">
        <ele>573</ele>
        <time>2022-03-21T16:16:07Z</time>
      </trkpt>
      <trkpt lat="46.58958" lon="5.56914">
        <ele>573.4</ele>
        <time>2022-03-21T16:16:08Z</time>
      </trkpt>
      <trkpt lat="46.58959" lon="5.56918">
        <ele>573.4</ele>
        <time>2022-03-21T16:16:09Z</time>
      </trkpt>
      <trkpt lat="46.58959" lon="5.56922">
        <ele>573.6</ele>
        <time>2022-03-21T16:16:10Z</time>
      </trkpt>
      <trkpt lat="46.5896" lon="5.56927">
        <ele>573.6</ele>
        <time>2022-03-21T16:16:11Z</time>
      </trkpt>
      <trkpt lat="46.5896" lon="5.56931">
        <ele>574</ele>
        <time>2022-03-21T16:16:12Z</time>
      </trkpt>
      <trkpt lat="46.58961" lon="5.56935">
        <ele>574</ele>
        <time>2022-03-21T16:16:13Z</time>
      </trkpt>
      <trkpt lat="46.58962" lon="5.5694">
        <ele>574.2</ele>
        <time>2022-03-21T16:16:14Z</time>
      </trkpt>
      <trkpt lat="46.58963" lon="5.56944">
        <ele>574.2</ele>
        <time>2022-03-21T16:16:15Z</time>
      </trkpt>
      <trkpt lat="46.58964" lon="5.56949">
        <ele>574.4</ele>
        <time>2022-03-21T16:16:16Z</time>
      </trkpt>
      <trkpt lat="46.58965" lon="5.56953">
        <ele>574.4</ele>
        <time>2022-03-21T16:16:17Z</time>
      </trkpt>
      <trkpt lat="46.58966" lon="5.56958">
        <ele>574.4</ele>
        <time>2022-03-21T16:16:18Z</time>
      </trkpt>
      <trkpt lat="46.58967" lon="5.56963">
        <ele>574.4</ele>
        <time>2022-03-21T16:16:19Z</time>
      </trkpt>
      <trkpt lat="46.58968" lon="5.56967">
        <ele>574.6</ele>
        <time>2022-03-21T16:16:20Z</time>
      </trkpt>
      <trkpt lat="46.58969" lon="5.56972">
        <ele>574.6</ele>
        <time>2022-03-21T16:16:21Z</time>
      </trkpt>
      <trkpt lat="46.5897" lon="5.56976">
        <ele>574.8</ele>
        <time>2022-03-21T16:16:22Z</time>
      </trkpt>
      <trkpt lat="46.58971" lon="5.56981">
        <ele>574.8</ele>
        <time>2022-03-21T16:16:23Z</time>
      </trkpt>
      <trkpt lat="46.58972" lon="5.56985">
        <ele>575.2</ele>
        <time>2022-03-21T16:16:24Z</time>
      </trkpt>
      <trkpt lat="46.58973" lon="5.56989">
        <ele>575.2</ele>
        <time>2022-03-21T16:16:25Z</time>
      </trkpt>
      <trkpt lat="46.58974" lon="5.56993">
        <ele>575.4</ele>
        <time>2022-03-21T16:16:26Z</time>
      </trkpt>
      <trkpt lat="46.58976" lon="5.56997">
        <ele>575.4</ele>
        <time>2022-03-21T16:16:27Z</time>
      </trkpt>
      <trkpt lat="46.58977" lon="5.57001">
        <ele>575.8</ele>
        <time>2022-03-21T16:16:28Z</time>
      </trkpt>
      <trkpt lat="46.58978" lon="5.57005">
        <ele>575.8</ele>
        <time>2022-03-21T16:16:29Z</time>
      </trkpt>
      <trkpt lat="46.58979" lon="5.57009">
        <ele>576</ele>
        <time>2022-03-21T16:16:30Z</time>
      </trkpt>
      <trkpt lat="46.5898" lon="5.57013">
        <ele>576</ele>
        <time>2022-03-21T16:16:31Z</time>
      </trkpt>
      <trkpt lat="46.58981" lon="5.57018">
        <ele>576.2</ele>
        <time>2022-03-21T16:16:32Z</time>
      </trkpt>
      <trkpt lat="46.58983" lon="5.57026">
        <ele>576.2</ele>
        <time>2022-03-21T16:16:33Z</time>
      </trkpt>
      <trkpt lat="46.58984" lon="5.57031">
        <ele>576.2</ele>
        <time>2022-03-21T16:16:34Z</time>
      </trkpt>
      <trkpt lat="46.58985" lon="5.57035">
        <ele>576.4</ele>
        <time>2022-03-21T16:16:35Z</time>
      </trkpt>
      <trkpt lat="46.58986" lon="5.57039">
        <ele>576.4</ele>
        <time>2022-03-21T16:16:36Z</time>
      </trkpt>
      <trkpt lat="46.58987" lon="5.57043">
        <ele>576.4</ele>
        <time>2022-03-21T16:16:37Z</time>
      </trkpt>
      <trkpt lat="46.58988" lon="5.57047">
        <ele>576.8</ele>
        <time>2022-03-21T16:16:38Z</time>
      </trkpt>
      <trkpt lat="46.58989" lon="5.57051">
        <ele>576.8</ele>
        <time>2022-03-21T16:16:39Z</time>
      </trkpt>
      <trkpt lat="46.5899" lon="5.57055">
        <ele>577.2</ele>
        <time>2022-03-21T16:16:40Z</time>
      </trkpt>
      <trkpt lat="46.5899" lon="5.57059">
        <ele>577.2</ele>
        <time>2022-03-21T16:16:41Z</time>
      </trkpt>
      <trkpt lat="46.58991" lon="5.57063">
        <ele>577.2</ele>
        <time>2022-03-21T16:16:42Z</time>
      </trkpt>
      <trkpt lat="46.58992" lon="5.57067">
        <ele>577.4</ele>
        <time>2022-03-21T16:16:43Z</time>
      </trkpt>
      <trkpt lat="46.58993" lon="5.57071">
        <ele>577.4</ele>
        <time>2022-03-21T16:16:44Z</time>
      </trkpt>
      <trkpt lat="46.58994" lon="5.57075">
        <ele>577.8</ele>
        <time>2022-03-21T16:16:45Z</time>
      </trkpt>
      <trkpt lat="46.58995" lon="5.57078">
        <ele>577.8</ele>
        <time>2022-03-21T16:16:46Z</time>
      </trkpt>
      <trkpt lat="46.58995" lon="5.57082">
        <ele>578.2</ele>
        <time>2022-03-21T16:16:47Z</time>
      </trkpt>
      <trkpt lat="46.58996" lon="5.57085">
        <ele>578.4</ele>
        <time>2022-03-21T16:16:48Z</time>
      </trkpt>
      <trkpt lat="46.58997" lon="5.57089">
        <ele>578.6</ele>
        <time>2022-03-21T16:16:49Z</time>
      </trkpt>
      <trkpt lat="46.58997" lon="5.57092">
        <ele>578.6</ele>
        <time>2022-03-21T16:16:50Z</time>
      </trkpt>
      <trkpt lat="46.58998" lon="5.57095">
        <ele>579</ele>
        <time>2022-03-21T16:16:51Z</time>
      </trkpt>
      <trkpt lat="46.58998" lon="5.57099">
        <ele>579.2</ele>
        <time>2022-03-21T16:16:52Z</time>
      </trkpt>
      <trkpt lat="46.58998" lon="5.57103">
        <ele>579.2</ele>
        <time>2022-03-21T16:16:53Z</time>
      </trkpt>
      <trkpt lat="46.58998" lon="5.57106">
        <ele>579.6</ele>
        <time>2022-03-21T16:16:54Z</time>
      </trkpt>
      <trkpt lat="46.58998" lon="5.5711">
        <ele>579.6</ele>
        <time>2022-03-21T16:16:55Z</time>
      </trkpt>
      <trkpt lat="46.58997" lon="5.57113">
        <ele>580</ele>
        <time>2022-03-21T16:16:56Z</time>
      </trkpt>
      <trkpt lat="46.58996" lon="5.57117">
        <ele>580.4</ele>
        <time>2022-03-21T16:16:57Z</time>
      </trkpt>
      <trkpt lat="46.58995" lon="5.5712">
        <ele>580.6</ele>
        <time>2022-03-21T16:16:58Z</time>
      </trkpt>
      <trkpt lat="46.58994" lon="5.57123">
        <ele>580.8</ele>
        <time>2022-03-21T16:16:59Z</time>
      </trkpt>
      <trkpt lat="46.58992" lon="5.57125">
        <ele>581</ele>
        <time>2022-03-21T16:17:00Z</time>
      </trkpt>
      <trkpt lat="46.58991" lon="5.57128">
        <ele>581.2</ele>
        <time>2022-03-21T16:17:01Z</time>
      </trkpt>
      <trkpt lat="46.58989" lon="5.5713">
        <ele>581.4</ele>
        <time>2022-03-21T16:17:02Z</time>
      </trkpt>
      <trkpt lat="46.58988" lon="5.57133">
        <ele>581.8</ele>
        <time>2022-03-21T16:17:03Z</time>
      </trkpt>
      <trkpt lat="46.58987" lon="5.57136">
        <ele>582</ele>
        <time>2022-03-21T16:17:04Z</time>
      </trkpt>
      <trkpt lat="46.58986" lon="5.57138">
        <ele>582.4</ele>
        <time>2022-03-21T16:17:05Z</time>
      </trkpt>
      <trkpt lat="46.58985" lon="5.57141">
        <ele>582.6</ele>
        <time>2022-03-21T16:17:06Z</time>
      </trkpt>
      <trkpt lat="46.58984" lon="5.57143">
        <ele>582.8</ele>
        <time>2022-03-21T16:17:07Z</time>
      </trkpt>
      <trkpt lat="46.58983" lon="5.57146">
        <ele>583</ele>
        <time>2022-03-21T16:17:08Z</time>
      </trkpt>
      <trkpt lat="46.58981" lon="5.57149">
        <ele>583.2</ele>
        <time>2022-03-21T16:17:09Z</time>
      </trkpt>
      <trkpt lat="46.5898" lon="5.57151">
        <ele>583.6</ele>
        <time>2022-03-21T16:17:10Z</time>
      </trkpt>
      <trkpt lat="46.58978" lon="5.57154">
        <ele>583.8</ele>
        <time>2022-03-21T16:17:11Z</time>
      </trkpt>
      <trkpt lat="46.58977" lon="5.57157">
        <ele>583.8</ele>
        <time>2022-03-21T16:17:12Z</time>
      </trkpt>
      <trkpt lat="46.58976" lon="5.57159">
        <ele>584.2</ele>
        <time>2022-03-21T16:17:13Z</time>
      </trkpt>
      <trkpt lat="46.58975" lon="5.57162">
        <ele>584.6</ele>
        <time>2022-03-21T16:17:14Z</time>
      </trkpt>
      <trkpt lat="46.58974" lon="5.57164">
        <ele>584.8</ele>
        <time>2022-03-21T16:17:15Z</time>
      </trkpt>
      <trkpt lat="46.58972" lon="5.57167">
        <ele>585.2</ele>
        <time>2022-03-21T16:17:16Z</time>
      </trkpt>
      <trkpt lat="46.58971" lon="5.57169">
        <ele>585.6</ele>
        <time>2022-03-21T16:17:17Z</time>
      </trkpt>
      <trkpt lat="46.5897" lon="5.57171">
        <ele>585.8</ele>
        <time>2022-03-21T16:17:18Z</time>
      </trkpt>
      <trkpt lat="46.58969" lon="5.57174">
        <ele>586.2</ele>
        <time>2022-03-21T16:17:19Z</time>
      </trkpt>
      <trkpt lat="46.58968" lon="5.57176">
        <ele>586.4</ele>
        <time>2022-03-21T16:17:20Z</time>
      </trkpt>
      <trkpt lat="46.58967" lon="5.57178">
        <ele>587</ele>
        <time>2022-03-21T16:17:22Z</time>
      </trkpt>
      <trkpt lat="46.58966" lon="5.5718">
        <ele>587.2</ele>
        <time>2022-03-21T16:17:23Z</time>
      </trkpt>
      <trkpt lat="46.58965" lon="5.57183">
        <ele>587.2</ele>
        <time>2022-03-21T16:17:24Z</time>
      </trkpt>
      <trkpt lat="46.58964" lon="5.57185">
        <ele>587.8</ele>
        <time>2022-03-21T16:17:25Z</time>
      </trkpt>
      <trkpt lat="46.58963" lon="5.57188">
        <ele>587.8</ele>
        <time>2022-03-21T16:17:26Z</time>
      </trkpt>
      <trkpt lat="46.58961" lon="5.5719">
        <ele>588.2</ele>
        <time>2022-03-21T16:17:27Z</time>
      </trkpt>
      <trkpt lat="46.5896" lon="5.57192">
        <ele>588.4</ele>
        <time>2022-03-21T16:17:28Z</time>
      </trkpt>
      <trkpt lat="46.58959" lon="5.57194">
        <ele>588.4</ele>
        <time>2022-03-21T16:17:29Z</time>
      </trkpt>
      <trkpt lat="46.58957" lon="5.57195">
        <ele>588.8</ele>
        <time>2022-03-21T16:17:30Z</time>
      </trkpt>
      <trkpt lat="46.58956" lon="5.57197">
        <ele>589.2</ele>
        <time>2022-03-21T16:17:31Z</time>
      </trkpt>
      <trkpt lat="46.58955" lon="5.57199">
        <ele>589.4</ele>
        <time>2022-03-21T16:17:32Z</time>
      </trkpt>
      <trkpt lat="46.58954" lon="5.57202">
        <ele>589.4</ele>
        <time>2022-03-21T16:17:33Z</time>
      </trkpt>
      <trkpt lat="46.58953" lon="5.57204">
        <ele>589.8</ele>
        <time>2022-03-21T16:17:34Z</time>
      </trkpt>
      <trkpt lat="46.58952" lon="5.57207">
        <ele>589.8</ele>
        <time>2022-03-21T16:17:35Z</time>
      </trkpt>
      <trkpt lat="46.58951" lon="5.57209">
        <ele>590</ele>
        <time>2022-03-21T16:17:36Z</time>
      </trkpt>
      <trkpt lat="46.58949" lon="5.57211">
        <ele>590</ele>
        <time>2022-03-21T16:17:37Z</time>
      </trkpt>
      <trkpt lat="46.58948" lon="5.57213">
        <ele>590</ele>
        <time>2022-03-21T16:17:38Z</time>
      </trkpt>
      <trkpt lat="46.58947" lon="5.57215">
        <ele>590.4</ele>
        <time>2022-03-21T16:17:39Z</time>
      </trkpt>
      <trkpt lat="46.58945" lon="5.57217">
        <ele>590.4</ele>
        <time>2022-03-21T16:17:40Z</time>
      </trkpt>
      <trkpt lat="46.58944" lon="5.57219">
        <ele>590.8</ele>
        <time>2022-03-21T16:17:41Z</time>
      </trkpt>
      <trkpt lat="46.58943" lon="5.57222">
        <ele>590.8</ele>
        <time>2022-03-21T16:17:42Z</time>
      </trkpt>
      <trkpt lat="46.58942" lon="5.57224">
        <ele>591.2</ele>
        <time>2022-03-21T16:17:43Z</time>
      </trkpt>
      <trkpt lat="46.5894" lon="5.57226">
        <ele>591.2</ele>
        <time>2022-03-21T16:17:44Z</time>
      </trkpt>
      <trkpt lat="46.58939" lon="5.57228">
        <ele>591.4</ele>
        <time>2022-03-21T16:17:45Z</time>
      </trkpt>
      <trkpt lat="46.58938" lon="5.57231">
        <ele>591.8</ele>
        <time>2022-03-21T16:17:46Z</time>
      </trkpt>
      <trkpt lat="46.58937" lon="5.57233">
        <ele>592</ele>
        <time>2022-03-21T16:17:47Z</time>
      </trkpt>
      <trkpt lat="46.58936" lon="5.57235">
        <ele>592</ele>
        <time>2022-03-21T16:17:48Z</time>
      </trkpt>
      <trkpt lat="46.58935" lon="5.57237">
        <ele>592.4</ele>
        <time>2022-03-21T16:17:49Z</time>
      </trkpt>
      <trkpt lat="46.58934" lon="5.5724">
        <ele>592.4</ele>
        <time>2022-03-21T16:17:50Z</time>
      </trkpt>
      <trkpt lat="46.58933" lon="5.57242">
        <ele>592.6</ele>
        <time>2022-03-21T16:17:51Z</time>
      </trkpt>
      <trkpt lat="46.58932" lon="5.57245">
        <ele>592.6</ele>
        <time>2022-03-21T16:17:52Z</time>
      </trkpt>
      <trkpt lat="46.58931" lon="5.57247">
        <ele>593</ele>
        <time>2022-03-21T16:17:53Z</time>
      </trkpt>
      <trkpt lat="46.58929" lon="5.57249">
        <ele>593</ele>
        <time>2022-03-21T16:17:54Z</time>
      </trkpt>
      <trkpt lat="46.58927" lon="5.5725">
        <ele>593.2</ele>
        <time>2022-03-21T16:17:55Z</time>
      </trkpt>
      <trkpt lat="46.58926" lon="5.57252">
        <ele>593.2</ele>
        <time>2022-03-21T16:17:56Z</time>
      </trkpt>
      <trkpt lat="46.58924" lon="5.57254">
        <ele>593.2</ele>
        <time>2022-03-21T16:17:57Z</time>
      </trkpt>
      <trkpt lat="46.58923" lon="5.57256">
        <ele>593.4</ele>
        <time>2022-03-21T16:17:58Z</time>
      </trkpt>
      <trkpt lat="46.58921" lon="5.57258">
        <ele>593.6</ele>
        <time>2022-03-21T16:17:59Z</time>
      </trkpt>
      <trkpt lat="46.5892" lon="5.5726">
        <ele>593.6</ele>
        <time>2022-03-21T16:18:00Z</time>
      </trkpt>
      <trkpt lat="46.58919" lon="5.57263">
        <ele>594</ele>
        <time>2022-03-21T16:18:01Z</time>
      </trkpt>
      <trkpt lat="46.58918" lon="5.57265">
        <ele>594</ele>
        <time>2022-03-21T16:18:02Z</time>
      </trkpt>
      <trkpt lat="46.58917" lon="5.57267">
        <ele>594.2</ele>
        <time>2022-03-21T16:18:03Z</time>
      </trkpt>
      <trkpt lat="46.58916" lon="5.57269">
        <ele>594.2</ele>
        <time>2022-03-21T16:18:04Z</time>
      </trkpt>
      <trkpt lat="46.58914" lon="5.57271">
        <ele>594.6</ele>
        <time>2022-03-21T16:18:05Z</time>
      </trkpt>
      <trkpt lat="46.58913" lon="5.57273">
        <ele>594.6</ele>
        <time>2022-03-21T16:18:06Z</time>
      </trkpt>
      <trkpt lat="46.58911" lon="5.57275">
        <ele>595</ele>
        <time>2022-03-21T16:18:07Z</time>
      </trkpt>
      <trkpt lat="46.5891" lon="5.57277">
        <ele>595</ele>
        <time>2022-03-21T16:18:08Z</time>
      </trkpt>
      <trkpt lat="46.58909" lon="5.5728">
        <ele>595.2</ele>
        <time>2022-03-21T16:18:09Z</time>
      </trkpt>
      <trkpt lat="46.58907" lon="5.57282">
        <ele>595.4</ele>
        <time>2022-03-21T16:18:10Z</time>
      </trkpt>
      <trkpt lat="46.58906" lon="5.57285">
        <ele>595.8</ele>
        <time>2022-03-21T16:18:11Z</time>
      </trkpt>
      <trkpt lat="46.58905" lon="5.57287">
        <ele>595.8</ele>
        <time>2022-03-21T16:18:12Z</time>
      </trkpt>
      <trkpt lat="46.58904" lon="5.5729">
        <ele>596</ele>
        <time>2022-03-21T16:18:13Z</time>
      </trkpt>
      <trkpt lat="46.58903" lon="5.57292">
        <ele>596</ele>
        <time>2022-03-21T16:18:14Z</time>
      </trkpt>
      <trkpt lat="46.58902" lon="5.57295">
        <ele>596.4</ele>
        <time>2022-03-21T16:18:15Z</time>
      </trkpt>
      <trkpt lat="46.589" lon="5.57297">
        <ele>596.4</ele>
        <time>2022-03-21T16:18:16Z</time>
      </trkpt>
      <trkpt lat="46.58899" lon="5.573">
        <ele>596.6</ele>
        <time>2022-03-21T16:18:17Z</time>
      </trkpt>
      <trkpt lat="46.58898" lon="5.57302">
        <ele>596.6</ele>
        <time>2022-03-21T16:18:18Z</time>
      </trkpt>
      <trkpt lat="46.58897" lon="5.57305">
        <ele>596.8</ele>
        <time>2022-03-21T16:18:19Z</time>
      </trkpt>
      <trkpt lat="46.58895" lon="5.57308">
        <ele>597</ele>
        <time>2022-03-21T16:18:20Z</time>
      </trkpt>
      <trkpt lat="46.58894" lon="5.5731">
        <ele>597</ele>
        <time>2022-03-21T16:18:21Z</time>
      </trkpt>
      <trkpt lat="46.58893" lon="5.57313">
        <ele>597.4</ele>
        <time>2022-03-21T16:18:22Z</time>
      </trkpt>
      <trkpt lat="46.58892" lon="5.57316">
        <ele>597.4</ele>
        <time>2022-03-21T16:18:23Z</time>
      </trkpt>
      <trkpt lat="46.5889" lon="5.57318">
        <ele>597.8</ele>
        <time>2022-03-21T16:18:24Z</time>
      </trkpt>
      <trkpt lat="46.5889" lon="5.57321">
        <ele>598</ele>
        <time>2022-03-21T16:18:25Z</time>
      </trkpt>
      <trkpt lat="46.58889" lon="5.57324">
        <ele>598</ele>
        <time>2022-03-21T16:18:26Z</time>
      </trkpt>
      <trkpt lat="46.58888" lon="5.57327">
        <ele>598.4</ele>
        <time>2022-03-21T16:18:27Z</time>
      </trkpt>
      <trkpt lat="46.58887" lon="5.5733">
        <ele>598.6</ele>
        <time>2022-03-21T16:18:28Z</time>
      </trkpt>
      <trkpt lat="46.58886" lon="5.57333">
        <ele>598.6</ele>
        <time>2022-03-21T16:18:29Z</time>
      </trkpt>
      <trkpt lat="46.58885" lon="5.57335">
        <ele>599</ele>
        <time>2022-03-21T16:18:30Z</time>
      </trkpt>
      <trkpt lat="46.58884" lon="5.57338">
        <ele>599</ele>
        <time>2022-03-21T16:18:31Z</time>
      </trkpt>
      <trkpt lat="46.58883" lon="5.57341">
        <ele>599.2</ele>
        <time>2022-03-21T16:18:32Z</time>
      </trkpt>
      <trkpt lat="46.58882" lon="5.57343">
        <ele>599.2</ele>
        <time>2022-03-21T16:18:33Z</time>
      </trkpt>
      <trkpt lat="46.58881" lon="5.57346">
        <ele>599.6</ele>
        <time>2022-03-21T16:18:34Z</time>
      </trkpt>
      <trkpt lat="46.5888" lon="5.57348">
        <ele>599.8</ele>
        <time>2022-03-21T16:18:35Z</time>
      </trkpt>
      <trkpt lat="46.58879" lon="5.57351">
        <ele>600.2</ele>
        <time>2022-03-21T16:18:36Z</time>
      </trkpt>
      <trkpt lat="46.58879" lon="5.57354">
        <ele>600.4</ele>
        <time>2022-03-21T16:18:37Z</time>
      </trkpt>
      <trkpt lat="46.58878" lon="5.57356">
        <ele>600.4</ele>
        <time>2022-03-21T16:18:38Z</time>
      </trkpt>
      <trkpt lat="46.58877" lon="5.57358">
        <ele>600.8</ele>
        <time>2022-03-21T16:18:39Z</time>
      </trkpt>
      <trkpt lat="46.58877" lon="5.57361">
        <ele>600.8</ele>
        <time>2022-03-21T16:18:40Z</time>
      </trkpt>
      <trkpt lat="46.58876" lon="5.57364">
        <ele>601.2</ele>
        <time>2022-03-21T16:18:41Z</time>
      </trkpt>
      <trkpt lat="46.58875" lon="5.57366">
        <ele>601.4</ele>
        <time>2022-03-21T16:18:42Z</time>
      </trkpt>
      <trkpt lat="46.58874" lon="5.57368">
        <ele>601.6</ele>
        <time>2022-03-21T16:18:43Z</time>
      </trkpt>
      <trkpt lat="46.58872" lon="5.5737">
        <ele>601.6</ele>
        <time>2022-03-21T16:18:44Z</time>
      </trkpt>
      <trkpt lat="46.58871" lon="5.57372">
        <ele>602</ele>
        <time>2022-03-21T16:18:45Z</time>
      </trkpt>
      <trkpt lat="46.5887" lon="5.57374">
        <ele>602</ele>
        <time>2022-03-21T16:18:46Z</time>
      </trkpt>
      <trkpt lat="46.58868" lon="5.57376">
        <ele>602.4</ele>
        <time>2022-03-21T16:18:47Z</time>
      </trkpt>
      <trkpt lat="46.58867" lon="5.57378">
        <ele>602.4</ele>
        <time>2022-03-21T16:18:48Z</time>
      </trkpt>
      <trkpt lat="46.58866" lon="5.5738">
        <ele>602.8</ele>
        <time>2022-03-21T16:18:49Z</time>
      </trkpt>
      <trkpt lat="46.58865" lon="5.57383">
        <ele>602.8</ele>
        <time>2022-03-21T16:18:50Z</time>
      </trkpt>
      <trkpt lat="46.58864" lon="5.57385">
        <ele>603.2</ele>
        <time>2022-03-21T16:18:51Z</time>
      </trkpt>
      <trkpt lat="46.58862" lon="5.57387">
        <ele>603.2</ele>
        <time>2022-03-21T16:18:52Z</time>
      </trkpt>
      <trkpt lat="46.58861" lon="5.57389">
        <ele>603.6</ele>
        <time>2022-03-21T16:18:53Z</time>
      </trkpt>
      <trkpt lat="46.5886" lon="5.57391">
        <ele>603.8</ele>
        <time>2022-03-21T16:18:54Z</time>
      </trkpt>
      <trkpt lat="46.58859" lon="5.57393">
        <ele>604</ele>
        <time>2022-03-21T16:18:55Z</time>
      </trkpt>
      <trkpt lat="46.58858" lon="5.57396">
        <ele>604.2</ele>
        <time>2022-03-21T16:18:56Z</time>
      </trkpt>
      <trkpt lat="46.58857" lon="5.57399">
        <ele>604.4</ele>
        <time>2022-03-21T16:18:57Z</time>
      </trkpt>
      <trkpt lat="46.58856" lon="5.57401">
        <ele>604.8</ele>
        <time>2022-03-21T16:18:58Z</time>
      </trkpt>
      <trkpt lat="46.58855" lon="5.57403">
        <ele>605</ele>
        <time>2022-03-21T16:18:59Z</time>
      </trkpt>
      <trkpt lat="46.58854" lon="5.57405">
        <ele>605.2</ele>
        <time>2022-03-21T16:19:00Z</time>
      </trkpt>
      <trkpt lat="46.58853" lon="5.57407">
        <ele>605.2</ele>
        <time>2022-03-21T16:19:01Z</time>
      </trkpt>
      <trkpt lat="46.58852" lon="5.57409">
        <ele>605.6</ele>
        <time>2022-03-21T16:19:02Z</time>
      </trkpt>
      <trkpt lat="46.58851" lon="5.57412">
        <ele>605.6</ele>
        <time>2022-03-21T16:19:03Z</time>
      </trkpt>
      <trkpt lat="46.5885" lon="5.57414">
        <ele>605.8</ele>
        <time>2022-03-21T16:19:04Z</time>
      </trkpt>
      <trkpt lat="46.58849" lon="5.57417">
        <ele>606</ele>
        <time>2022-03-21T16:19:05Z</time>
      </trkpt>
      <trkpt lat="46.58849" lon="5.5742">
        <ele>606.2</ele>
        <time>2022-03-21T16:19:06Z</time>
      </trkpt>
      <trkpt lat="46.58848" lon="5.57422">
        <ele>606.4</ele>
        <time>2022-03-21T16:19:07Z</time>
      </trkpt>
      <trkpt lat="46.58848" lon="5.57425">
        <ele>606.4</ele>
        <time>2022-03-21T16:19:08Z</time>
      </trkpt>
      <trkpt lat="46.58847" lon="5.57427">
        <ele>606.8</ele>
        <time>2022-03-21T16:19:09Z</time>
      </trkpt>
      <trkpt lat="46.58846" lon="5.57429">
        <ele>606.8</ele>
        <time>2022-03-21T16:19:10Z</time>
      </trkpt>
      <trkpt lat="46.58846" lon="5.57432">
        <ele>607.2</ele>
        <time>2022-03-21T16:19:11Z</time>
      </trkpt>
      <trkpt lat="46.58845" lon="5.57434">
        <ele>607.2</ele>
        <time>2022-03-21T16:19:12Z</time>
      </trkpt>
      <trkpt lat="46.58844" lon="5.57437">
        <ele>607.4</ele>
        <time>2022-03-21T16:19:13Z</time>
      </trkpt>
      <trkpt lat="46.58844" lon="5.57439">
        <ele>607.6</ele>
        <time>2022-03-21T16:19:14Z</time>
      </trkpt>
      <trkpt lat="46.58843" lon="5.57442">
        <ele>608</ele>
        <time>2022-03-21T16:19:15Z</time>
      </trkpt>
      <trkpt lat="46.58843" lon="5.57444">
        <ele>608.2</ele>
        <time>2022-03-21T16:19:16Z</time>
      </trkpt>
      <trkpt lat="46.58843" lon="5.57447">
        <ele>608.4</ele>
        <time>2022-03-21T16:19:17Z</time>
      </trkpt>
      <trkpt lat="46.58843" lon="5.5745">
        <ele>608.4</ele>
        <time>2022-03-21T16:19:18Z</time>
      </trkpt>
      <trkpt lat="46.58843" lon="5.57453">
        <ele>608.6</ele>
        <time>2022-03-21T16:19:19Z</time>
      </trkpt>
      <trkpt lat="46.58843" lon="5.57456">
        <ele>608.8</ele>
        <time>2022-03-21T16:19:20Z</time>
      </trkpt>
      <trkpt lat="46.58843" lon="5.57459">
        <ele>608.8</ele>
        <time>2022-03-21T16:19:21Z</time>
      </trkpt>
      <trkpt lat="46.58842" lon="5.57462">
        <ele>609.2</ele>
        <time>2022-03-21T16:19:22Z</time>
      </trkpt>
      <trkpt lat="46.58842" lon="5.57465">
        <ele>609.2</ele>
        <time>2022-03-21T16:19:23Z</time>
      </trkpt>
      <trkpt lat="46.58842" lon="5.57468">
        <ele>609.6</ele>
        <time>2022-03-21T16:19:24Z</time>
      </trkpt>
      <trkpt lat="46.58841" lon="5.57471">
        <ele>609.6</ele>
        <time>2022-03-21T16:19:25Z</time>
      </trkpt>
      <trkpt lat="46.58841" lon="5.57475">
        <ele>609.8</ele>
        <time>2022-03-21T16:19:26Z</time>
      </trkpt>
      <trkpt lat="46.58841" lon="5.57478">
        <ele>609.8</ele>
        <time>2022-03-21T16:19:27Z</time>
      </trkpt>
      <trkpt lat="46.58841" lon="5.57482">
        <ele>610.2</ele>
        <time>2022-03-21T16:19:28Z</time>
      </trkpt>
      <trkpt lat="46.58841" lon="5.57486">
        <ele>610.2</ele>
        <time>2022-03-21T16:19:29Z</time>
      </trkpt>
      <trkpt lat="46.58841" lon="5.5749">
        <ele>610.4</ele>
        <time>2022-03-21T16:19:30Z</time>
      </trkpt>
      <trkpt lat="46.58841" lon="5.57494">
        <ele>610.4</ele>
        <time>2022-03-21T16:19:31Z</time>
      </trkpt>
      <trkpt lat="46.58841" lon="5.57498">
        <ele>610.8</ele>
        <time>2022-03-21T16:19:32Z</time>
      </trkpt>
      <trkpt lat="46.58841" lon="5.57501">
        <ele>611</ele>
        <time>2022-03-21T16:19:33Z</time>
      </trkpt>
      <trkpt lat="46.58842" lon="5.57505">
        <ele>611</ele>
        <time>2022-03-21T16:19:34Z</time>
      </trkpt>
      <trkpt lat="46.58842" lon="5.57509">
        <ele>611.4</ele>
        <time>2022-03-21T16:19:35Z</time>
      </trkpt>
      <trkpt lat="46.58842" lon="5.57513">
        <ele>611.4</ele>
        <time>2022-03-21T16:19:36Z</time>
      </trkpt>
      <trkpt lat="46.58843" lon="5.57517">
        <ele>611.6</ele>
        <time>2022-03-21T16:19:37Z</time>
      </trkpt>
      <trkpt lat="46.58843" lon="5.57521">
        <ele>611.6</ele>
        <time>2022-03-21T16:19:38Z</time>
      </trkpt>
      <trkpt lat="46.58843" lon="5.57524">
        <ele>611.6</ele>
        <time>2022-03-21T16:19:39Z</time>
      </trkpt>
      <trkpt lat="46.58843" lon="5.57528">
        <ele>611.8</ele>
        <time>2022-03-21T16:19:40Z</time>
      </trkpt>
      <trkpt lat="46.58843" lon="5.57533">
        <ele>611.8</ele>
        <time>2022-03-21T16:19:41Z</time>
      </trkpt>
      <trkpt lat="46.58843" lon="5.57537">
        <ele>611.8</ele>
        <time>2022-03-21T16:19:42Z</time>
      </trkpt>
      <trkpt lat="46.58842" lon="5.57541">
        <ele>612.2</ele>
        <time>2022-03-21T16:19:43Z</time>
      </trkpt>
      <trkpt lat="46.58842" lon="5.57545">
        <ele>612.2</ele>
        <time>2022-03-21T16:19:44Z</time>
      </trkpt>
      <trkpt lat="46.58842" lon="5.5755">
        <ele>612.6</ele>
        <time>2022-03-21T16:19:45Z</time>
      </trkpt>
      <trkpt lat="46.58841" lon="5.57554">
        <ele>612.6</ele>
        <time>2022-03-21T16:19:46Z</time>
      </trkpt>
      <trkpt lat="46.58841" lon="5.57558">
        <ele>612.8</ele>
        <time>2022-03-21T16:19:47Z</time>
      </trkpt>
      <trkpt lat="46.5884" lon="5.57562">
        <ele>612.8</ele>
        <time>2022-03-21T16:19:48Z</time>
      </trkpt>
      <trkpt lat="46.5884" lon="5.57566">
        <ele>613</ele>
        <time>2022-03-21T16:19:49Z</time>
      </trkpt>
      <trkpt lat="46.58839" lon="5.5757">
        <ele>613</ele>
        <time>2022-03-21T16:19:50Z</time>
      </trkpt>
      <trkpt lat="46.58838" lon="5.57574">
        <ele>613.4</ele>
        <time>2022-03-21T16:19:51Z</time>
      </trkpt>
      <trkpt lat="46.58836" lon="5.57582">
        <ele>613.4</ele>
        <time>2022-03-21T16:19:52Z</time>
      </trkpt>
      <trkpt lat="46.58835" lon="5.57585">
        <ele>613.8</ele>
        <time>2022-03-21T16:19:53Z</time>
      </trkpt>
      <trkpt lat="46.58835" lon="5.57589">
        <ele>614</ele>
        <time>2022-03-21T16:19:54Z</time>
      </trkpt>
      <trkpt lat="46.58834" lon="5.57593">
        <ele>614</ele>
        <time>2022-03-21T16:19:55Z</time>
      </trkpt>
      <trkpt lat="46.58834" lon="5.57596">
        <ele>614.2</ele>
        <time>2022-03-21T16:19:56Z</time>
      </trkpt>
      <trkpt lat="46.58834" lon="5.576">
        <ele>614.2</ele>
        <time>2022-03-21T16:19:57Z</time>
      </trkpt>
      <trkpt lat="46.58833" lon="5.57603">
        <ele>614.6</ele>
        <time>2022-03-21T16:19:58Z</time>
      </trkpt>
      <trkpt lat="46.58833" lon="5.57607">
        <ele>614.6</ele>
        <time>2022-03-21T16:19:59Z</time>
      </trkpt>
      <trkpt lat="46.58832" lon="5.57611">
        <ele>615</ele>
        <time>2022-03-21T16:20:00Z</time>
      </trkpt>
      <trkpt lat="46.58831" lon="5.57615">
        <ele>615</ele>
        <time>2022-03-21T16:20:01Z</time>
      </trkpt>
      <trkpt lat="46.5883" lon="5.57619">
        <ele>615.4</ele>
        <time>2022-03-21T16:20:02Z</time>
      </trkpt>
      <trkpt lat="46.58829" lon="5.57623">
        <ele>615.4</ele>
        <time>2022-03-21T16:20:03Z</time>
      </trkpt>
      <trkpt lat="46.58828" lon="5.57628">
        <ele>615.4</ele>
        <time>2022-03-21T16:20:04Z</time>
      </trkpt>
      <trkpt lat="46.58827" lon="5.57633">
        <ele>615.6</ele>
        <time>2022-03-21T16:20:05Z</time>
      </trkpt>
      <trkpt lat="46.58826" lon="5.57638">
        <ele>615.6</ele>
        <time>2022-03-21T16:20:06Z</time>
      </trkpt>
      <trkpt lat="46.58825" lon="5.57643">
        <ele>615.6</ele>
        <time>2022-03-21T16:20:07Z</time>
      </trkpt>
      <trkpt lat="46.58824" lon="5.57649">
        <ele>615.6</ele>
        <time>2022-03-21T16:20:08Z</time>
      </trkpt>
      <trkpt lat="46.58822" lon="5.57653">
        <ele>615.6</ele>
        <time>2022-03-21T16:20:09Z</time>
      </trkpt>
      <trkpt lat="46.58819" lon="5.57657">
        <ele>615.6</ele>
        <time>2022-03-21T16:20:10Z</time>
      </trkpt>
      <trkpt lat="46.58815" lon="5.57658">
        <ele>615.6</ele>
        <time>2022-03-21T16:20:11Z</time>
      </trkpt>
      <trkpt lat="46.5881" lon="5.57658">
        <ele>615.6</ele>
        <time>2022-03-21T16:20:12Z</time>
      </trkpt>
      <trkpt lat="46.58806" lon="5.57657">
        <ele>615.6</ele>
        <time>2022-03-21T16:20:13Z</time>
      </trkpt>
      <trkpt lat="46.58801" lon="5.57655">
        <ele>615.6</ele>
        <time>2022-03-21T16:20:14Z</time>
      </trkpt>
      <trkpt lat="46.58797" lon="5.57653">
        <ele>615.4</ele>
        <time>2022-03-21T16:20:15Z</time>
      </trkpt>
      <trkpt lat="46.58792" lon="5.57652">
        <ele>615.4</ele>
        <time>2022-03-21T16:20:16Z</time>
      </trkpt>
      <trkpt lat="46.58787" lon="5.57652">
        <ele>615.4</ele>
        <time>2022-03-21T16:20:17Z</time>
      </trkpt>
      <trkpt lat="46.58782" lon="5.57651">
        <ele>615</ele>
        <time>2022-03-21T16:20:18Z</time>
      </trkpt>
      <trkpt lat="46.58776" lon="5.5765">
        <ele>615</ele>
        <time>2022-03-21T16:20:19Z</time>
      </trkpt>
      <trkpt lat="46.58771" lon="5.5765">
        <ele>614.8</ele>
        <time>2022-03-21T16:20:20Z</time>
      </trkpt>
      <trkpt lat="46.58765" lon="5.5765">
        <ele>614.4</ele>
        <time>2022-03-21T16:20:21Z</time>
      </trkpt>
      <trkpt lat="46.58759" lon="5.5765">
        <ele>614.2</ele>
        <time>2022-03-21T16:20:22Z</time>
      </trkpt>
      <trkpt lat="46.58753" lon="5.5765">
        <ele>613.8</ele>
        <time>2022-03-21T16:20:23Z</time>
      </trkpt>
      <trkpt lat="46.58746" lon="5.57649">
        <ele>613.6</ele>
        <time>2022-03-21T16:20:24Z</time>
      </trkpt>
      <trkpt lat="46.58739" lon="5.57649">
        <ele>613.4</ele>
        <time>2022-03-21T16:20:25Z</time>
      </trkpt>
      <trkpt lat="46.58732" lon="5.57649">
        <ele>613</ele>
        <time>2022-03-21T16:20:26Z</time>
      </trkpt>
      <trkpt lat="46.58725" lon="5.5765">
        <ele>612.8</ele>
        <time>2022-03-21T16:20:27Z</time>
      </trkpt>
      <trkpt lat="46.58718" lon="5.5765">
        <ele>612.8</ele>
        <time>2022-03-21T16:20:28Z</time>
      </trkpt>
      <trkpt lat="46.58712" lon="5.5765">
        <ele>612.6</ele>
        <time>2022-03-21T16:20:29Z</time>
      </trkpt>
      <trkpt lat="46.58705" lon="5.5765">
        <ele>612.6</ele>
        <time>2022-03-21T16:20:30Z</time>
      </trkpt>
      <trkpt lat="46.58698" lon="5.57651">
        <ele>612.2</ele>
        <time>2022-03-21T16:20:31Z</time>
      </trkpt>
      <trkpt lat="46.58692" lon="5.57651">
        <ele>612.2</ele>
        <time>2022-03-21T16:20:32Z</time>
      </trkpt>
      <trkpt lat="46.58685" lon="5.57652">
        <ele>612.2</ele>
        <time>2022-03-21T16:20:33Z</time>
      </trkpt>
      <trkpt lat="46.58678" lon="5.57652">
        <ele>612</ele>
        <time>2022-03-21T16:20:34Z</time>
      </trkpt>
      <trkpt lat="46.58672" lon="5.57653">
        <ele>612</ele>
        <time>2022-03-21T16:20:35Z</time>
      </trkpt>
      <trkpt lat="46.58666" lon="5.57654">
        <ele>612</ele>
        <time>2022-03-21T16:20:36Z</time>
      </trkpt>
      <trkpt lat="46.5866" lon="5.57656">
        <ele>612</ele>
        <time>2022-03-21T16:20:37Z</time>
      </trkpt>
      <trkpt lat="46.58654" lon="5.57659">
        <ele>612</ele>
        <time>2022-03-21T16:20:38Z</time>
      </trkpt>
      <trkpt lat="46.58648" lon="5.57662">
        <ele>611.8</ele>
        <time>2022-03-21T16:20:39Z</time>
      </trkpt>
      <trkpt lat="46.58642" lon="5.57665">
        <ele>611.8</ele>
        <time>2022-03-21T16:20:40Z</time>
      </trkpt>
      <trkpt lat="46.58636" lon="5.57669">
        <ele>611.6</ele>
        <time>2022-03-21T16:20:41Z</time>
      </trkpt>
      <trkpt lat="46.5863" lon="5.57672">
        <ele>611.4</ele>
        <time>2022-03-21T16:20:42Z</time>
      </trkpt>
      <trkpt lat="46.58624" lon="5.57676">
        <ele>611.2</ele>
        <time>2022-03-21T16:20:43Z</time>
      </trkpt>
      <trkpt lat="46.58617" lon="5.5768">
        <ele>610.8</ele>
        <time>2022-03-21T16:20:44Z</time>
      </trkpt>
      <trkpt lat="46.5861" lon="5.57684">
        <ele>610.4</ele>
        <time>2022-03-21T16:20:45Z</time>
      </trkpt>
      <trkpt lat="46.58602" lon="5.57687">
        <ele>609.8</ele>
        <time>2022-03-21T16:20:46Z</time>
      </trkpt>
      <trkpt lat="46.58595" lon="5.57692">
        <ele>609.4</ele>
        <time>2022-03-21T16:20:47Z</time>
      </trkpt>
      <trkpt lat="46.58589" lon="5.57698">
        <ele>608.8</ele>
        <time>2022-03-21T16:20:48Z</time>
      </trkpt>
      <trkpt lat="46.58584" lon="5.57706">
        <ele>608.2</ele>
        <time>2022-03-21T16:20:49Z</time>
      </trkpt>
      <trkpt lat="46.58579" lon="5.57715">
        <ele>607.8</ele>
        <time>2022-03-21T16:20:50Z</time>
      </trkpt>
      <trkpt lat="46.58575" lon="5.57726">
        <ele>607.4</ele>
        <time>2022-03-21T16:20:51Z</time>
      </trkpt>
      <trkpt lat="46.58572" lon="5.57737">
        <ele>606.8</ele>
        <time>2022-03-21T16:20:52Z</time>
      </trkpt>
      <trkpt lat="46.58569" lon="5.57749">
        <ele>606.4</ele>
        <time>2022-03-21T16:20:53Z</time>
      </trkpt>
      <trkpt lat="46.58567" lon="5.57761">
        <ele>606</ele>
        <time>2022-03-21T16:20:54Z</time>
      </trkpt>
      <trkpt lat="46.58565" lon="5.57773">
        <ele>605.4</ele>
        <time>2022-03-21T16:20:55Z</time>
      </trkpt>
      <trkpt lat="46.58562" lon="5.57786">
        <ele>605</ele>
        <time>2022-03-21T16:20:56Z</time>
      </trkpt>
      <trkpt lat="46.5856" lon="5.57801">
        <ele>604.4</ele>
        <time>2022-03-21T16:20:57Z</time>
      </trkpt>
      <trkpt lat="46.58556" lon="5.57815">
        <ele>604</ele>
        <time>2022-03-21T16:20:58Z</time>
      </trkpt>
      <trkpt lat="46.58552" lon="5.57828">
        <ele>603.4</ele>
        <time>2022-03-21T16:20:59Z</time>
      </trkpt>
      <trkpt lat="46.58548" lon="5.57841">
        <ele>603</ele>
        <time>2022-03-21T16:21:00Z</time>
      </trkpt>
      <trkpt lat="46.58543" lon="5.57854">
        <ele>602.4</ele>
        <time>2022-03-21T16:21:01Z</time>
      </trkpt>
      <trkpt lat="46.5854" lon="5.57868">
        <ele>601.8</ele>
        <time>2022-03-21T16:21:02Z</time>
      </trkpt>
      <trkpt lat="46.58536" lon="5.57882">
        <ele>601</ele>
        <time>2022-03-21T16:21:03Z</time>
      </trkpt>
      <trkpt lat="46.58532" lon="5.57896">
        <ele>600.4</ele>
        <time>2022-03-21T16:21:04Z</time>
      </trkpt>
      <trkpt lat="46.58529" lon="5.57909">
        <ele>599.4</ele>
        <time>2022-03-21T16:21:05Z</time>
      </trkpt>
      <trkpt lat="46.58523" lon="5.57923">
        <ele>598.6</ele>
        <time>2022-03-21T16:21:06Z</time>
      </trkpt>
      <trkpt lat="46.58515" lon="5.57935">
        <ele>597.8</ele>
        <time>2022-03-21T16:21:07Z</time>
      </trkpt>
      <trkpt lat="46.58506" lon="5.57948">
        <ele>597</ele>
        <time>2022-03-21T16:21:08Z</time>
      </trkpt>
      <trkpt lat="46.58496" lon="5.57959">
        <ele>596</ele>
        <time>2022-03-21T16:21:09Z</time>
      </trkpt>
      <trkpt lat="46.58485" lon="5.57968">
        <ele>595.2</ele>
        <time>2022-03-21T16:21:10Z</time>
      </trkpt>
      <trkpt lat="46.58474" lon="5.57976">
        <ele>594.4</ele>
        <time>2022-03-21T16:21:11Z</time>
      </trkpt>
      <trkpt lat="46.58462" lon="5.57983">
        <ele>593.6</ele>
        <time>2022-03-21T16:21:12Z</time>
      </trkpt>
      <trkpt lat="46.5845" lon="5.57987">
        <ele>592.8</ele>
        <time>2022-03-21T16:21:13Z</time>
      </trkpt>
      <trkpt lat="46.58438" lon="5.57992">
        <ele>592.2</ele>
        <time>2022-03-21T16:21:14Z</time>
      </trkpt>
      <trkpt lat="46.58428" lon="5.57998">
        <ele>591.4</ele>
        <time>2022-03-21T16:21:15Z</time>
      </trkpt>
      <trkpt lat="46.58419" lon="5.58006">
        <ele>590.8</ele>
        <time>2022-03-21T16:21:16Z</time>
      </trkpt>
      <trkpt lat="46.58411" lon="5.58016">
        <ele>590.2</ele>
        <time>2022-03-21T16:21:17Z</time>
      </trkpt>
      <trkpt lat="46.58403" lon="5.58029">
        <ele>589.6</ele>
        <time>2022-03-21T16:21:18Z</time>
      </trkpt>
      <trkpt lat="46.58396" lon="5.58041">
        <ele>589</ele>
        <time>2022-03-21T16:21:19Z</time>
      </trkpt>
      <trkpt lat="46.58389" lon="5.58054">
        <ele>588.4</ele>
        <time>2022-03-21T16:21:20Z</time>
      </trkpt>
      <trkpt lat="46.58383" lon="5.58067">
        <ele>588</ele>
        <time>2022-03-21T16:21:21Z</time>
      </trkpt>
      <trkpt lat="46.58378" lon="5.58082">
        <ele>587.4</ele>
        <time>2022-03-21T16:21:22Z</time>
      </trkpt>
      <trkpt lat="46.58372" lon="5.58097">
        <ele>586.8</ele>
        <time>2022-03-21T16:21:23Z</time>
      </trkpt>
      <trkpt lat="46.58367" lon="5.58111">
        <ele>586.4</ele>
        <time>2022-03-21T16:21:24Z</time>
      </trkpt>
      <trkpt lat="46.58363" lon="5.58124">
        <ele>585.8</ele>
        <time>2022-03-21T16:21:25Z</time>
      </trkpt>
      <trkpt lat="46.58357" lon="5.58137">
        <ele>585.4</ele>
        <time>2022-03-21T16:21:26Z</time>
      </trkpt>
      <trkpt lat="46.58351" lon="5.58151">
        <ele>584.8</ele>
        <time>2022-03-21T16:21:27Z</time>
      </trkpt>
      <trkpt lat="46.58345" lon="5.58165">
        <ele>584.4</ele>
        <time>2022-03-21T16:21:28Z</time>
      </trkpt>
      <trkpt lat="46.58339" lon="5.58178">
        <ele>584</ele>
        <time>2022-03-21T16:21:29Z</time>
      </trkpt>
      <trkpt lat="46.58332" lon="5.58191">
        <ele>583.6</ele>
        <time>2022-03-21T16:21:30Z</time>
      </trkpt>
      <trkpt lat="46.58326" lon="5.58205">
        <ele>583.2</ele>
        <time>2022-03-21T16:21:31Z</time>
      </trkpt>
      <trkpt lat="46.58321" lon="5.58219">
        <ele>582.8</ele>
        <time>2022-03-21T16:21:32Z</time>
      </trkpt>
      <trkpt lat="46.58317" lon="5.58232">
        <ele>582.2</ele>
        <time>2022-03-21T16:21:33Z</time>
      </trkpt>
      <trkpt lat="46.58312" lon="5.58247">
        <ele>581.8</ele>
        <time>2022-03-21T16:21:34Z</time>
      </trkpt>
      <trkpt lat="46.58307" lon="5.58261">
        <ele>580.8</ele>
        <time>2022-03-21T16:21:36Z</time>
      </trkpt>
      <trkpt lat="46.58302" lon="5.58275">
        <ele>580.4</ele>
        <time>2022-03-21T16:21:37Z</time>
      </trkpt>
      <trkpt lat="46.58298" lon="5.58289">
        <ele>580</ele>
        <time>2022-03-21T16:21:38Z</time>
      </trkpt>
      <trkpt lat="46.58296" lon="5.58304">
        <ele>579.6</ele>
        <time>2022-03-21T16:21:39Z</time>
      </trkpt>
      <trkpt lat="46.58293" lon="5.58319">
        <ele>579</ele>
        <time>2022-03-21T16:21:40Z</time>
      </trkpt>
      <trkpt lat="46.58291" lon="5.58333">
        <ele>578.6</ele>
        <time>2022-03-21T16:21:41Z</time>
      </trkpt>
      <trkpt lat="46.58289" lon="5.58347">
        <ele>578</ele>
        <time>2022-03-21T16:21:42Z</time>
      </trkpt>
      <trkpt lat="46.58286" lon="5.5836">
        <ele>577.6</ele>
        <time>2022-03-21T16:21:43Z</time>
      </trkpt>
      <trkpt lat="46.58282" lon="5.58374">
        <ele>577</ele>
        <time>2022-03-21T16:21:44Z</time>
      </trkpt>
      <trkpt lat="46.58277" lon="5.58388">
        <ele>576.4</ele>
        <time>2022-03-21T16:21:45Z</time>
      </trkpt>
      <trkpt lat="46.58272" lon="5.58402">
        <ele>575.6</ele>
        <time>2022-03-21T16:21:46Z</time>
      </trkpt>
      <trkpt lat="46.58266" lon="5.58415">
        <ele>575</ele>
        <time>2022-03-21T16:21:47Z</time>
      </trkpt>
      <trkpt lat="46.58259" lon="5.5843">
        <ele>574.2</ele>
        <time>2022-03-21T16:21:48Z</time>
      </trkpt>
      <trkpt lat="46.58254" lon="5.58444">
        <ele>573.6</ele>
        <time>2022-03-21T16:21:49Z</time>
      </trkpt>
      <trkpt lat="46.58245" lon="5.58466">
        <ele>573.6</ele>
        <time>2022-03-21T16:21:50Z</time>
      </trkpt>
      <trkpt lat="46.58241" lon="5.58473">
        <ele>573</ele>
        <time>2022-03-21T16:21:51Z</time>
      </trkpt>
      <trkpt lat="46.58235" lon="5.58487">
        <ele>572.2</ele>
        <time>2022-03-21T16:21:52Z</time>
      </trkpt>
      <trkpt lat="46.58228" lon="5.585">
        <ele>571.6</ele>
        <time>2022-03-21T16:21:53Z</time>
      </trkpt>
      <trkpt lat="46.58221" lon="5.58512">
        <ele>570.8</ele>
        <time>2022-03-21T16:21:54Z</time>
      </trkpt>
      <trkpt lat="46.58215" lon="5.58524">
        <ele>570.2</ele>
        <time>2022-03-21T16:21:55Z</time>
      </trkpt>
      <trkpt lat="46.58209" lon="5.58536">
        <ele>569.6</ele>
        <time>2022-03-21T16:21:56Z</time>
      </trkpt>
      <trkpt lat="46.58204" lon="5.58547">
        <ele>569.2</ele>
        <time>2022-03-21T16:21:57Z</time>
      </trkpt>
      <trkpt lat="46.58201" lon="5.58556">
        <ele>568.6</ele>
        <time>2022-03-21T16:21:58Z</time>
      </trkpt>
      <trkpt lat="46.58198" lon="5.58565">
        <ele>568.2</ele>
        <time>2022-03-21T16:21:59Z</time>
      </trkpt>
      <trkpt lat="46.58196" lon="5.58572">
        <ele>567.8</ele>
        <time>2022-03-21T16:22:00Z</time>
      </trkpt>
      <trkpt lat="46.58193" lon="5.58578">
        <ele>567.6</ele>
        <time>2022-03-21T16:22:01Z</time>
      </trkpt>
      <trkpt lat="46.5819" lon="5.58583">
        <ele>567.2</ele>
        <time>2022-03-21T16:22:02Z</time>
      </trkpt>
      <trkpt lat="46.58186" lon="5.58586">
        <ele>567</ele>
        <time>2022-03-21T16:22:03Z</time>
      </trkpt>
      <trkpt lat="46.58181" lon="5.58588">
        <ele>566.6</ele>
        <time>2022-03-21T16:22:04Z</time>
      </trkpt>
      <trkpt lat="46.58175" lon="5.58588">
        <ele>566.4</ele>
        <time>2022-03-21T16:22:05Z</time>
      </trkpt>
      <trkpt lat="46.5817" lon="5.58587">
        <ele>566.4</ele>
        <time>2022-03-21T16:22:06Z</time>
      </trkpt>
      <trkpt lat="46.58165" lon="5.58585">
        <ele>566.4</ele>
        <time>2022-03-21T16:22:07Z</time>
      </trkpt>
      <trkpt lat="46.5816" lon="5.58583">
        <ele>566.2</ele>
        <time>2022-03-21T16:22:08Z</time>
      </trkpt>
      <trkpt lat="46.58154" lon="5.58582">
        <ele>566.2</ele>
        <time>2022-03-21T16:22:09Z</time>
      </trkpt>
      <trkpt lat="46.58149" lon="5.58582">
        <ele>566.2</ele>
        <time>2022-03-21T16:22:10Z</time>
      </trkpt>
      <trkpt lat="46.58144" lon="5.58582">
        <ele>566.2</ele>
        <time>2022-03-21T16:22:11Z</time>
      </trkpt>
      <trkpt lat="46.58139" lon="5.58583">
        <ele>566.2</ele>
        <time>2022-03-21T16:22:12Z</time>
      </trkpt>
      <trkpt lat="46.58134" lon="5.58584">
        <ele>566.2</ele>
        <time>2022-03-21T16:22:13Z</time>
      </trkpt>
      <trkpt lat="46.5813" lon="5.58586">
        <ele>566.2</ele>
        <time>2022-03-21T16:22:14Z</time>
      </trkpt>
      <trkpt lat="46.58126" lon="5.58588">
        <ele>566.2</ele>
        <time>2022-03-21T16:22:15Z</time>
      </trkpt>
      <trkpt lat="46.58122" lon="5.5859">
        <ele>566.2</ele>
        <time>2022-03-21T16:22:16Z</time>
      </trkpt>
      <trkpt lat="46.58118" lon="5.58592">
        <ele>566.2</ele>
        <time>2022-03-21T16:22:17Z</time>
      </trkpt>
      <trkpt lat="46.58114" lon="5.58594">
        <ele>566.2</ele>
        <time>2022-03-21T16:22:18Z</time>
      </trkpt>
      <trkpt lat="46.5811" lon="5.58596">
        <ele>566.2</ele>
        <time>2022-03-21T16:22:19Z</time>
      </trkpt>
      <trkpt lat="46.58106" lon="5.58598">
        <ele>566.2</ele>
        <time>2022-03-21T16:22:20Z</time>
      </trkpt>
      <trkpt lat="46.58102" lon="5.58601">
        <ele>566.2</ele>
        <time>2022-03-21T16:22:21Z</time>
      </trkpt>
      <trkpt lat="46.58099" lon="5.58604">
        <ele>566.2</ele>
        <time>2022-03-21T16:22:22Z</time>
      </trkpt>
      <trkpt lat="46.58095" lon="5.58608">
        <ele>566.2</ele>
        <time>2022-03-21T16:22:23Z</time>
      </trkpt>
      <trkpt lat="46.58091" lon="5.58612">
        <ele>566.2</ele>
        <time>2022-03-21T16:22:24Z</time>
      </trkpt>
      <trkpt lat="46.58087" lon="5.58617">
        <ele>566.2</ele>
        <time>2022-03-21T16:22:25Z</time>
      </trkpt>
      <trkpt lat="46.58083" lon="5.58622">
        <ele>566</ele>
        <time>2022-03-21T16:22:26Z</time>
      </trkpt>
      <trkpt lat="46.5808" lon="5.58627">
        <ele>566</ele>
        <time>2022-03-21T16:22:27Z</time>
      </trkpt>
      <trkpt lat="46.58076" lon="5.58631">
        <ele>566</ele>
        <time>2022-03-21T16:22:28Z</time>
      </trkpt>
      <trkpt lat="46.58072" lon="5.58636">
        <ele>566</ele>
        <time>2022-03-21T16:22:29Z</time>
      </trkpt>
      <trkpt lat="46.58067" lon="5.5864">
        <ele>566</ele>
        <time>2022-03-21T16:22:30Z</time>
      </trkpt>
      <trkpt lat="46.58063" lon="5.58642">
        <ele>566</ele>
        <time>2022-03-21T16:22:31Z</time>
      </trkpt>
      <trkpt lat="46.58058" lon="5.58642">
        <ele>566</ele>
        <time>2022-03-21T16:22:32Z</time>
      </trkpt>
      <trkpt lat="46.58054" lon="5.58641">
        <ele>566</ele>
        <time>2022-03-21T16:22:33Z</time>
      </trkpt>
      <trkpt lat="46.5805" lon="5.58638">
        <ele>566</ele>
        <time>2022-03-21T16:22:34Z</time>
      </trkpt>
      <trkpt lat="46.58046" lon="5.58635">
        <ele>566</ele>
        <time>2022-03-21T16:22:35Z</time>
      </trkpt>
      <trkpt lat="46.58043" lon="5.58631">
        <ele>566</ele>
        <time>2022-03-21T16:22:36Z</time>
      </trkpt>
      <trkpt lat="46.5804" lon="5.58627">
        <ele>566</ele>
        <time>2022-03-21T16:22:37Z</time>
      </trkpt>
      <trkpt lat="46.58038" lon="5.58622">
        <ele>566</ele>
        <time>2022-03-21T16:22:38Z</time>
      </trkpt>
      <trkpt lat="46.58035" lon="5.58617">
        <ele>566.4</ele>
        <time>2022-03-21T16:22:39Z</time>
      </trkpt>
      <trkpt lat="46.58033" lon="5.58612">
        <ele>566.4</ele>
        <time>2022-03-21T16:22:40Z</time>
      </trkpt>
      <trkpt lat="46.58031" lon="5.58607">
        <ele>566.6</ele>
        <time>2022-03-21T16:22:41Z</time>
      </trkpt>
      <trkpt lat="46.58028" lon="5.58603">
        <ele>566.6</ele>
        <time>2022-03-21T16:22:42Z</time>
      </trkpt>
      <trkpt lat="46.58025" lon="5.58599">
        <ele>566.8</ele>
        <time>2022-03-21T16:22:43Z</time>
      </trkpt>
      <trkpt lat="46.58023" lon="5.58596">
        <ele>566.8</ele>
        <time>2022-03-21T16:22:44Z</time>
      </trkpt>
      <trkpt lat="46.5802" lon="5.58593">
        <ele>567.2</ele>
        <time>2022-03-21T16:22:45Z</time>
      </trkpt>
      <trkpt lat="46.58016" lon="5.58589">
        <ele>567.2</ele>
        <time>2022-03-21T16:22:46Z</time>
      </trkpt>
      <trkpt lat="46.58013" lon="5.58586">
        <ele>567.4</ele>
        <time>2022-03-21T16:22:47Z</time>
      </trkpt>
      <trkpt lat="46.5801" lon="5.58583">
        <ele>567.4</ele>
        <time>2022-03-21T16:22:48Z</time>
      </trkpt>
      <trkpt lat="46.58007" lon="5.5858">
        <ele>567.6</ele>
        <time>2022-03-21T16:22:49Z</time>
      </trkpt>
      <trkpt lat="46.58004" lon="5.58576">
        <ele>567.6</ele>
        <time>2022-03-21T16:22:50Z</time>
      </trkpt>
      <trkpt lat="46.58" lon="5.58573">
        <ele>567.6</ele>
        <time>2022-03-21T16:22:51Z</time>
      </trkpt>
      <trkpt lat="46.57997" lon="5.5857">
        <ele>568</ele>
        <time>2022-03-21T16:22:52Z</time>
      </trkpt>
      <trkpt lat="46.57994" lon="5.58566">
        <ele>568</ele>
        <time>2022-03-21T16:22:53Z</time>
      </trkpt>
      <trkpt lat="46.57991" lon="5.58564">
        <ele>568</ele>
        <time>2022-03-21T16:22:54Z</time>
      </trkpt>
      <trkpt lat="46.57987" lon="5.58562">
        <ele>568.2</ele>
        <time>2022-03-21T16:22:55Z</time>
      </trkpt>
      <trkpt lat="46.57984" lon="5.5856">
        <ele>568.2</ele>
        <time>2022-03-21T16:22:56Z</time>
      </trkpt>
      <trkpt lat="46.57981" lon="5.58559">
        <ele>568.4</ele>
        <time>2022-03-21T16:22:57Z</time>
      </trkpt>
      <trkpt lat="46.57977" lon="5.58558">
        <ele>568.4</ele>
        <time>2022-03-21T16:22:58Z</time>
      </trkpt>
      <trkpt lat="46.57973" lon="5.58558">
        <ele>568.8</ele>
        <time>2022-03-21T16:22:59Z</time>
      </trkpt>
      <trkpt lat="46.57969" lon="5.58557">
        <ele>568.8</ele>
        <time>2022-03-21T16:23:00Z</time>
      </trkpt>
      <trkpt lat="46.57965" lon="5.58557">
        <ele>569.2</ele>
        <time>2022-03-21T16:23:01Z</time>
      </trkpt>
      <trkpt lat="46.57961" lon="5.58556">
        <ele>569.2</ele>
        <time>2022-03-21T16:23:02Z</time>
      </trkpt>
      <trkpt lat="46.57957" lon="5.58554">
        <ele>569.4</ele>
        <time>2022-03-21T16:23:03Z</time>
      </trkpt>
      <trkpt lat="46.57954" lon="5.58552">
        <ele>569.4</ele>
        <time>2022-03-21T16:23:04Z</time>
      </trkpt>
      <trkpt lat="46.57951" lon="5.5855">
        <ele>569.8</ele>
        <time>2022-03-21T16:23:05Z</time>
      </trkpt>
      <trkpt lat="46.57948" lon="5.58548">
        <ele>569.8</ele>
        <time>2022-03-21T16:23:06Z</time>
      </trkpt>
      <trkpt lat="46.57946" lon="5.58546">
        <ele>570.2</ele>
        <time>2022-03-21T16:23:07Z</time>
      </trkpt>
      <trkpt lat="46.57944" lon="5.58543">
        <ele>570.4</ele>
        <time>2022-03-21T16:23:08Z</time>
      </trkpt>
      <trkpt lat="46.57941" lon="5.58541">
        <ele>570.6</ele>
        <time>2022-03-21T16:23:09Z</time>
      </trkpt>
      <trkpt lat="46.57939" lon="5.58539">
        <ele>570.8</ele>
        <time>2022-03-21T16:23:10Z</time>
      </trkpt>
      <trkpt lat="46.57937" lon="5.58537">
        <ele>571.2</ele>
        <time>2022-03-21T16:23:11Z</time>
      </trkpt>
      <trkpt lat="46.57935" lon="5.58534">
        <ele>571.4</ele>
        <time>2022-03-21T16:23:12Z</time>
      </trkpt>
      <trkpt lat="46.57932" lon="5.58533">
        <ele>571.6</ele>
        <time>2022-03-21T16:23:13Z</time>
      </trkpt>
      <trkpt lat="46.5793" lon="5.58532">
        <ele>571.8</ele>
        <time>2022-03-21T16:23:14Z</time>
      </trkpt>
      <trkpt lat="46.57928" lon="5.58531">
        <ele>572</ele>
        <time>2022-03-21T16:23:15Z</time>
      </trkpt>
      <trkpt lat="46.57926" lon="5.5853">
        <ele>572</ele>
        <time>2022-03-21T16:23:16Z</time>
      </trkpt>
      <trkpt lat="46.57923" lon="5.58529">
        <ele>572.4</ele>
        <time>2022-03-21T16:23:17Z</time>
      </trkpt>
      <trkpt lat="46.5792" lon="5.58528">
        <ele>572.6</ele>
        <time>2022-03-21T16:23:18Z</time>
      </trkpt>
      <trkpt lat="46.57917" lon="5.58528">
        <ele>572.6</ele>
        <time>2022-03-21T16:23:19Z</time>
      </trkpt>
      <trkpt lat="46.57914" lon="5.58527">
        <ele>573</ele>
        <time>2022-03-21T16:23:20Z</time>
      </trkpt>
      <trkpt lat="46.57911" lon="5.58526">
        <ele>573.2</ele>
        <time>2022-03-21T16:23:21Z</time>
      </trkpt>
      <trkpt lat="46.57908" lon="5.58525">
        <ele>573.2</ele>
        <time>2022-03-21T16:23:22Z</time>
      </trkpt>
      <trkpt lat="46.57905" lon="5.58524">
        <ele>573.4</ele>
        <time>2022-03-21T16:23:23Z</time>
      </trkpt>
      <trkpt lat="46.57902" lon="5.58523">
        <ele>573.4</ele>
        <time>2022-03-21T16:23:24Z</time>
      </trkpt>
      <trkpt lat="46.57899" lon="5.58522">
        <ele>573.8</ele>
        <time>2022-03-21T16:23:25Z</time>
      </trkpt>
      <trkpt lat="46.57896" lon="5.5852">
        <ele>573.8</ele>
        <time>2022-03-21T16:23:26Z</time>
      </trkpt>
      <trkpt lat="46.57893" lon="5.58517">
        <ele>574</ele>
        <time>2022-03-21T16:23:27Z</time>
      </trkpt>
      <trkpt lat="46.57891" lon="5.58514">
        <ele>574</ele>
        <time>2022-03-21T16:23:28Z</time>
      </trkpt>
      <trkpt lat="46.57888" lon="5.58511">
        <ele>574.4</ele>
        <time>2022-03-21T16:23:29Z</time>
      </trkpt>
      <trkpt lat="46.57886" lon="5.58508">
        <ele>574.4</ele>
        <time>2022-03-21T16:23:30Z</time>
      </trkpt>
      <trkpt lat="46.57884" lon="5.58504">
        <ele>574.6</ele>
        <time>2022-03-21T16:23:31Z</time>
      </trkpt>
      <trkpt lat="46.57882" lon="5.58501">
        <ele>574.8</ele>
        <time>2022-03-21T16:23:32Z</time>
      </trkpt>
      <trkpt lat="46.5788" lon="5.58497">
        <ele>575</ele>
        <time>2022-03-21T16:23:33Z</time>
      </trkpt>
      <trkpt lat="46.57878" lon="5.58495">
        <ele>575</ele>
        <time>2022-03-21T16:23:34Z</time>
      </trkpt>
      <trkpt lat="46.57876" lon="5.58492">
        <ele>575.4</ele>
        <time>2022-03-21T16:23:35Z</time>
      </trkpt>
      <trkpt lat="46.57873" lon="5.58491">
        <ele>575.4</ele>
        <time>2022-03-21T16:23:36Z</time>
      </trkpt>
      <trkpt lat="46.5787" lon="5.58489">
        <ele>575.8</ele>
        <time>2022-03-21T16:23:37Z</time>
      </trkpt>
      <trkpt lat="46.57866" lon="5.58488">
        <ele>575.8</ele>
        <time>2022-03-21T16:23:38Z</time>
      </trkpt>
      <trkpt lat="46.57862" lon="5.58488">
        <ele>576</ele>
        <time>2022-03-21T16:23:39Z</time>
      </trkpt>
      <trkpt lat="46.57859" lon="5.58488">
        <ele>576</ele>
        <time>2022-03-21T16:23:40Z</time>
      </trkpt>
      <trkpt lat="46.57856" lon="5.5849">
        <ele>576.4</ele>
        <time>2022-03-21T16:23:41Z</time>
      </trkpt>
      <trkpt lat="46.57853" lon="5.58491">
        <ele>576.6</ele>
        <time>2022-03-21T16:23:42Z</time>
      </trkpt>
      <trkpt lat="46.5785" lon="5.58491">
        <ele>576.6</ele>
        <time>2022-03-21T16:23:43Z</time>
      </trkpt>
      <trkpt lat="46.57847" lon="5.58491">
        <ele>577</ele>
        <time>2022-03-21T16:23:44Z</time>
      </trkpt>
      <trkpt lat="46.57844" lon="5.58493">
        <ele>577.4</ele>
        <time>2022-03-21T16:23:45Z</time>
      </trkpt>
      <trkpt lat="46.57842" lon="5.58495">
        <ele>577.4</ele>
        <time>2022-03-21T16:23:46Z</time>
      </trkpt>
      <trkpt lat="46.57841" lon="5.58498">
        <ele>577.6</ele>
        <time>2022-03-21T16:23:47Z</time>
      </trkpt>
      <trkpt lat="46.5784" lon="5.58502">
        <ele>577.6</ele>
        <time>2022-03-21T16:23:48Z</time>
      </trkpt>
      <trkpt lat="46.57838" lon="5.58506">
        <ele>577.6</ele>
        <time>2022-03-21T16:23:49Z</time>
      </trkpt>
      <trkpt lat="46.57837" lon="5.5851">
        <ele>577.6</ele>
        <time>2022-03-21T16:23:50Z</time>
      </trkpt>
      <trkpt lat="46.57837" lon="5.58515">
        <ele>577.6</ele>
        <time>2022-03-21T16:23:51Z</time>
      </trkpt>
      <trkpt lat="46.57836" lon="5.58519">
        <ele>577.6</ele>
        <time>2022-03-21T16:23:52Z</time>
      </trkpt>
      <trkpt lat="46.57836" lon="5.58525">
        <ele>577.6</ele>
        <time>2022-03-21T16:23:53Z</time>
      </trkpt>
      <trkpt lat="46.57836" lon="5.58532">
        <ele>577.6</ele>
        <time>2022-03-21T16:23:54Z</time>
      </trkpt>
      <trkpt lat="46.57835" lon="5.58539">
        <ele>577.4</ele>
        <time>2022-03-21T16:23:55Z</time>
      </trkpt>
      <trkpt lat="46.57834" lon="5.58548">
        <ele>577.4</ele>
        <time>2022-03-21T16:23:56Z</time>
      </trkpt>
      <trkpt lat="46.57832" lon="5.58556">
        <ele>576.6</ele>
        <time>2022-03-21T16:23:58Z</time>
      </trkpt>
      <trkpt lat="46.57829" lon="5.58565">
        <ele>576.2</ele>
        <time>2022-03-21T16:23:59Z</time>
      </trkpt>
      <trkpt lat="46.57825" lon="5.58573">
        <ele>575.8</ele>
        <time>2022-03-21T16:24:00Z</time>
      </trkpt>
      <trkpt lat="46.57821" lon="5.5858">
        <ele>575.4</ele>
        <time>2022-03-21T16:24:01Z</time>
      </trkpt>
      <trkpt lat="46.57816" lon="5.58587">
        <ele>575</ele>
        <time>2022-03-21T16:24:02Z</time>
      </trkpt>
      <trkpt lat="46.5781" lon="5.58595">
        <ele>574.8</ele>
        <time>2022-03-21T16:24:03Z</time>
      </trkpt>
      <trkpt lat="46.57804" lon="5.58602">
        <ele>574.6</ele>
        <time>2022-03-21T16:24:04Z</time>
      </trkpt>
      <trkpt lat="46.57798" lon="5.5861">
        <ele>574.2</ele>
        <time>2022-03-21T16:24:05Z</time>
      </trkpt>
      <trkpt lat="46.57793" lon="5.58617">
        <ele>574</ele>
        <time>2022-03-21T16:24:06Z</time>
      </trkpt>
      <trkpt lat="46.57787" lon="5.58625">
        <ele>573.8</ele>
        <time>2022-03-21T16:24:07Z</time>
      </trkpt>
      <trkpt lat="46.57781" lon="5.58632">
        <ele>573.4</ele>
        <time>2022-03-21T16:24:08Z</time>
      </trkpt>
      <trkpt lat="46.57775" lon="5.58639">
        <ele>573.2</ele>
        <time>2022-03-21T16:24:09Z</time>
      </trkpt>
      <trkpt lat="46.57769" lon="5.58646">
        <ele>573.2</ele>
        <time>2022-03-21T16:24:10Z</time>
      </trkpt>
      <trkpt lat="46.57763" lon="5.58652">
        <ele>573</ele>
        <time>2022-03-21T16:24:11Z</time>
      </trkpt>
      <trkpt lat="46.57757" lon="5.58658">
        <ele>573</ele>
        <time>2022-03-21T16:24:12Z</time>
      </trkpt>
      <trkpt lat="46.57751" lon="5.58663">
        <ele>573</ele>
        <time>2022-03-21T16:24:13Z</time>
      </trkpt>
      <trkpt lat="46.57745" lon="5.58667">
        <ele>573</ele>
        <time>2022-03-21T16:24:14Z</time>
      </trkpt>
      <trkpt lat="46.57739" lon="5.58671">
        <ele>573</ele>
        <time>2022-03-21T16:24:15Z</time>
      </trkpt>
      <trkpt lat="46.57733" lon="5.58674">
        <ele>573</ele>
        <time>2022-03-21T16:24:16Z</time>
      </trkpt>
      <trkpt lat="46.57726" lon="5.58676">
        <ele>573</ele>
        <time>2022-03-21T16:24:17Z</time>
      </trkpt>
      <trkpt lat="46.5772" lon="5.58678">
        <ele>573</ele>
        <time>2022-03-21T16:24:18Z</time>
      </trkpt>
      <trkpt lat="46.57713" lon="5.58681">
        <ele>573</ele>
        <time>2022-03-21T16:24:19Z</time>
      </trkpt>
      <trkpt lat="46.57707" lon="5.58684">
        <ele>573</ele>
        <time>2022-03-21T16:24:20Z</time>
      </trkpt>
      <trkpt lat="46.57701" lon="5.58687">
        <ele>573</ele>
        <time>2022-03-21T16:24:21Z</time>
      </trkpt>
      <trkpt lat="46.57689" lon="5.58694">
        <ele>573</ele>
        <time>2022-03-21T16:24:22Z</time>
      </trkpt>
      <trkpt lat="46.57684" lon="5.58698">
        <ele>573</ele>
        <time>2022-03-21T16:24:23Z</time>
      </trkpt>
      <trkpt lat="46.57678" lon="5.58702">
        <ele>573.2</ele>
        <time>2022-03-21T16:24:24Z</time>
      </trkpt>
      <trkpt lat="46.57673" lon="5.58706">
        <ele>573.2</ele>
        <time>2022-03-21T16:24:25Z</time>
      </trkpt>
      <trkpt lat="46.57669" lon="5.5871">
        <ele>573.6</ele>
        <time>2022-03-21T16:24:26Z</time>
      </trkpt>
      <trkpt lat="46.57664" lon="5.58712">
        <ele>573.6</ele>
        <time>2022-03-21T16:24:27Z</time>
      </trkpt>
      <trkpt lat="46.5766" lon="5.58715">
        <ele>573.8</ele>
        <time>2022-03-21T16:24:28Z</time>
      </trkpt>
      <trkpt lat="46.57654" lon="5.58717">
        <ele>573.8</ele>
        <time>2022-03-21T16:24:29Z</time>
      </trkpt>
      <trkpt lat="46.57649" lon="5.58719">
        <ele>573.8</ele>
        <time>2022-03-21T16:24:30Z</time>
      </trkpt>
      <trkpt lat="46.57643" lon="5.5872">
        <ele>573.8</ele>
        <time>2022-03-21T16:24:31Z</time>
      </trkpt>
      <trkpt lat="46.57637" lon="5.58722">
        <ele>573.8</ele>
        <time>2022-03-21T16:24:32Z</time>
      </trkpt>
      <trkpt lat="46.57631" lon="5.58723">
        <ele>573.6</ele>
        <time>2022-03-21T16:24:33Z</time>
      </trkpt>
      <trkpt lat="46.57625" lon="5.58724">
        <ele>573.6</ele>
        <time>2022-03-21T16:24:34Z</time>
      </trkpt>
      <trkpt lat="46.57618" lon="5.58724">
        <ele>573.6</ele>
        <time>2022-03-21T16:24:35Z</time>
      </trkpt>
      <trkpt lat="46.57613" lon="5.58724">
        <ele>573.6</ele>
        <time>2022-03-21T16:24:36Z</time>
      </trkpt>
      <trkpt lat="46.57607" lon="5.58725">
        <ele>573.6</ele>
        <time>2022-03-21T16:24:37Z</time>
      </trkpt>
      <trkpt lat="46.57601" lon="5.58725">
        <ele>573.6</ele>
        <time>2022-03-21T16:24:38Z</time>
      </trkpt>
      <trkpt lat="46.57595" lon="5.58726">
        <ele>573.6</ele>
        <time>2022-03-21T16:24:39Z</time>
      </trkpt>
      <trkpt lat="46.57589" lon="5.58727">
        <ele>573.2</ele>
        <time>2022-03-21T16:24:40Z</time>
      </trkpt>
      <trkpt lat="46.57582" lon="5.58727">
        <ele>573.2</ele>
        <time>2022-03-21T16:24:41Z</time>
      </trkpt>
      <trkpt lat="46.57576" lon="5.58728">
        <ele>573</ele>
        <time>2022-03-21T16:24:42Z</time>
      </trkpt>
      <trkpt lat="46.5757" lon="5.58729">
        <ele>573</ele>
        <time>2022-03-21T16:24:43Z</time>
      </trkpt>
      <trkpt lat="46.57564" lon="5.5873">
        <ele>573</ele>
        <time>2022-03-21T16:24:44Z</time>
      </trkpt>
      <trkpt lat="46.57558" lon="5.58732">
        <ele>572.6</ele>
        <time>2022-03-21T16:24:45Z</time>
      </trkpt>
      <trkpt lat="46.57552" lon="5.58735">
        <ele>572.4</ele>
        <time>2022-03-21T16:24:46Z</time>
      </trkpt>
      <trkpt lat="46.57545" lon="5.58738">
        <ele>572</ele>
        <time>2022-03-21T16:24:47Z</time>
      </trkpt>
      <trkpt lat="46.57539" lon="5.58743">
        <ele>571.6</ele>
        <time>2022-03-21T16:24:48Z</time>
      </trkpt>
      <trkpt lat="46.57532" lon="5.58747">
        <ele>571.4</ele>
        <time>2022-03-21T16:24:49Z</time>
      </trkpt>
      <trkpt lat="46.57525" lon="5.58752">
        <ele>571.2</ele>
        <time>2022-03-21T16:24:50Z</time>
      </trkpt>
      <trkpt lat="46.57518" lon="5.58758">
        <ele>570.8</ele>
        <time>2022-03-21T16:24:51Z</time>
      </trkpt>
      <trkpt lat="46.57511" lon="5.58763">
        <ele>570.6</ele>
        <time>2022-03-21T16:24:52Z</time>
      </trkpt>
      <trkpt lat="46.57504" lon="5.58768">
        <ele>570.4</ele>
        <time>2022-03-21T16:24:53Z</time>
      </trkpt>
      <trkpt lat="46.57498" lon="5.58773">
        <ele>570</ele>
        <time>2022-03-21T16:24:54Z</time>
      </trkpt>
      <trkpt lat="46.57491" lon="5.58777">
        <ele>569.8</ele>
        <time>2022-03-21T16:24:55Z</time>
      </trkpt>
      <trkpt lat="46.57485" lon="5.58782">
        <ele>569.6</ele>
        <time>2022-03-21T16:24:56Z</time>
      </trkpt>
      <trkpt lat="46.57479" lon="5.58786">
        <ele>569.2</ele>
        <time>2022-03-21T16:24:57Z</time>
      </trkpt>
      <trkpt lat="46.57473" lon="5.58789">
        <ele>569</ele>
        <time>2022-03-21T16:24:58Z</time>
      </trkpt>
      <trkpt lat="46.57469" lon="5.58793">
        <ele>568.6</ele>
        <time>2022-03-21T16:24:59Z</time>
      </trkpt>
      <trkpt lat="46.57464" lon="5.58797">
        <ele>568.4</ele>
        <time>2022-03-21T16:25:00Z</time>
      </trkpt>
      <trkpt lat="46.57459" lon="5.588">
        <ele>568</ele>
        <time>2022-03-21T16:25:01Z</time>
      </trkpt>
      <trkpt lat="46.57455" lon="5.58803">
        <ele>567.8</ele>
        <time>2022-03-21T16:25:02Z</time>
      </trkpt>
      <trkpt lat="46.57449" lon="5.58806">
        <ele>567.2</ele>
        <time>2022-03-21T16:25:03Z</time>
      </trkpt>
      <trkpt lat="46.57443" lon="5.58808">
        <ele>566.8</ele>
        <time>2022-03-21T16:25:04Z</time>
      </trkpt>
      <trkpt lat="46.57437" lon="5.5881">
        <ele>566.4</ele>
        <time>2022-03-21T16:25:05Z</time>
      </trkpt>
      <trkpt lat="46.57431" lon="5.58813">
        <ele>566</ele>
        <time>2022-03-21T16:25:06Z</time>
      </trkpt>
      <trkpt lat="46.57423" lon="5.58815">
        <ele>565.6</ele>
        <time>2022-03-21T16:25:07Z</time>
      </trkpt>
      <trkpt lat="46.57416" lon="5.58817">
        <ele>565.4</ele>
        <time>2022-03-21T16:25:08Z</time>
      </trkpt>
      <trkpt lat="46.57408" lon="5.58819">
        <ele>565</ele>
        <time>2022-03-21T16:25:09Z</time>
      </trkpt>
      <trkpt lat="46.57401" lon="5.5882">
        <ele>565</ele>
        <time>2022-03-21T16:25:10Z</time>
      </trkpt>
      <trkpt lat="46.57393" lon="5.58821">
        <ele>564.8</ele>
        <time>2022-03-21T16:25:11Z</time>
      </trkpt>
      <trkpt lat="46.57386" lon="5.58822">
        <ele>564.8</ele>
        <time>2022-03-21T16:25:12Z</time>
      </trkpt>
      <trkpt lat="46.57379" lon="5.58824">
        <ele>564.6</ele>
        <time>2022-03-21T16:25:13Z</time>
      </trkpt>
      <trkpt lat="46.57373" lon="5.58825">
        <ele>564.6</ele>
        <time>2022-03-21T16:25:14Z</time>
      </trkpt>
      <trkpt lat="46.57366" lon="5.58826">
        <ele>564.6</ele>
        <time>2022-03-21T16:25:15Z</time>
      </trkpt>
      <trkpt lat="46.5736" lon="5.58828">
        <ele>564.6</ele>
        <time>2022-03-21T16:25:16Z</time>
      </trkpt>
      <trkpt lat="46.57354" lon="5.58829">
        <ele>564.6</ele>
        <time>2022-03-21T16:25:17Z</time>
      </trkpt>
      <trkpt lat="46.57348" lon="5.5883">
        <ele>564.6</ele>
        <time>2022-03-21T16:25:18Z</time>
      </trkpt>
      <trkpt lat="46.57343" lon="5.58831">
        <ele>564.8</ele>
        <time>2022-03-21T16:25:19Z</time>
      </trkpt>
      <trkpt lat="46.57337" lon="5.58833">
        <ele>564.8</ele>
        <time>2022-03-21T16:25:20Z</time>
      </trkpt>
      <trkpt lat="46.57332" lon="5.58834">
        <ele>564.8</ele>
        <time>2022-03-21T16:25:21Z</time>
      </trkpt>
      <trkpt lat="46.57326" lon="5.58834">
        <ele>564.8</ele>
        <time>2022-03-21T16:25:22Z</time>
      </trkpt>
      <trkpt lat="46.57321" lon="5.58835">
        <ele>564.8</ele>
        <time>2022-03-21T16:25:23Z</time>
      </trkpt>
      <trkpt lat="46.57314" lon="5.58836">
        <ele>564.6</ele>
        <time>2022-03-21T16:25:24Z</time>
      </trkpt>
      <trkpt lat="46.57307" lon="5.58836">
        <ele>564.6</ele>
        <time>2022-03-21T16:25:25Z</time>
      </trkpt>
      <trkpt lat="46.57301" lon="5.58837">
        <ele>564.2</ele>
        <time>2022-03-21T16:25:26Z</time>
      </trkpt>
      <trkpt lat="46.57294" lon="5.58837">
        <ele>564.2</ele>
        <time>2022-03-21T16:25:27Z</time>
      </trkpt>
      <trkpt lat="46.57286" lon="5.58838">
        <ele>563.8</ele>
        <time>2022-03-21T16:25:28Z</time>
      </trkpt>
      <trkpt lat="46.57279" lon="5.58839">
        <ele>563.6</ele>
        <time>2022-03-21T16:25:29Z</time>
      </trkpt>
      <trkpt lat="46.57272" lon="5.5884">
        <ele>563.2</ele>
        <time>2022-03-21T16:25:30Z</time>
      </trkpt>
      <trkpt lat="46.57265" lon="5.5884">
        <ele>563</ele>
        <time>2022-03-21T16:25:31Z</time>
      </trkpt>
      <trkpt lat="46.57257" lon="5.5884">
        <ele>562.6</ele>
        <time>2022-03-21T16:25:32Z</time>
      </trkpt>
      <trkpt lat="46.57249" lon="5.5884">
        <ele>562.2</ele>
        <time>2022-03-21T16:25:33Z</time>
      </trkpt>
      <trkpt lat="46.57241" lon="5.58841">
        <ele>561.8</ele>
        <time>2022-03-21T16:25:34Z</time>
      </trkpt>
      <trkpt lat="46.57232" lon="5.58841">
        <ele>561.4</ele>
        <time>2022-03-21T16:25:35Z</time>
      </trkpt>
      <trkpt lat="46.57224" lon="5.58841">
        <ele>561.2</ele>
        <time>2022-03-21T16:25:36Z</time>
      </trkpt>
      <trkpt lat="46.57216" lon="5.58841">
        <ele>561.2</ele>
        <time>2022-03-21T16:25:37Z</time>
      </trkpt>
      <trkpt lat="46.57208" lon="5.58841">
        <ele>560.8</ele>
        <time>2022-03-21T16:25:38Z</time>
      </trkpt>
      <trkpt lat="46.572" lon="5.58841">
        <ele>560.8</ele>
        <time>2022-03-21T16:25:39Z</time>
      </trkpt>
      <trkpt lat="46.57192" lon="5.5884">
        <ele>560.6</ele>
        <time>2022-03-21T16:25:40Z</time>
      </trkpt>
      <trkpt lat="46.57184" lon="5.5884">
        <ele>560.6</ele>
        <time>2022-03-21T16:25:41Z</time>
      </trkpt>
      <trkpt lat="46.57177" lon="5.5884">
        <ele>560.2</ele>
        <time>2022-03-21T16:25:42Z</time>
      </trkpt>
      <trkpt lat="46.57169" lon="5.58839">
        <ele>560.2</ele>
        <time>2022-03-21T16:25:43Z</time>
      </trkpt>
      <trkpt lat="46.57162" lon="5.58839">
        <ele>560</ele>
        <time>2022-03-21T16:25:44Z</time>
      </trkpt>
      <trkpt lat="46.57155" lon="5.58838">
        <ele>560</ele>
        <time>2022-03-21T16:25:45Z</time>
      </trkpt>
      <trkpt lat="46.57147" lon="5.58837">
        <ele>559.8</ele>
        <time>2022-03-21T16:25:46Z</time>
      </trkpt>
      <trkpt lat="46.5714" lon="5.58836">
        <ele>559.8</ele>
        <time>2022-03-21T16:25:47Z</time>
      </trkpt>
      <trkpt lat="46.57133" lon="5.58835">
        <ele>559.4</ele>
        <time>2022-03-21T16:25:48Z</time>
      </trkpt>
      <trkpt lat="46.57125" lon="5.58835">
        <ele>559.4</ele>
        <time>2022-03-21T16:25:49Z</time>
      </trkpt>
      <trkpt lat="46.57118" lon="5.58834">
        <ele>559.2</ele>
        <time>2022-03-21T16:25:50Z</time>
      </trkpt>
      <trkpt lat="46.5711" lon="5.58835">
        <ele>559</ele>
        <time>2022-03-21T16:25:51Z</time>
      </trkpt>
      <trkpt lat="46.57103" lon="5.58836">
        <ele>559</ele>
        <time>2022-03-21T16:25:52Z</time>
      </trkpt>
      <trkpt lat="46.57095" lon="5.58838">
        <ele>558.4</ele>
        <time>2022-03-21T16:25:53Z</time>
      </trkpt>
      <trkpt lat="46.57087" lon="5.5884">
        <ele>558.2</ele>
        <time>2022-03-21T16:25:54Z</time>
      </trkpt>
      <trkpt lat="46.57078" lon="5.58841">
        <ele>557.8</ele>
        <time>2022-03-21T16:25:55Z</time>
      </trkpt>
      <trkpt lat="46.5707" lon="5.58841">
        <ele>557.2</ele>
        <time>2022-03-21T16:25:56Z</time>
      </trkpt>
      <trkpt lat="46.57061" lon="5.5884">
        <ele>556.8</ele>
        <time>2022-03-21T16:25:57Z</time>
      </trkpt>
      <trkpt lat="46.57051" lon="5.58839">
        <ele>556.2</ele>
        <time>2022-03-21T16:25:58Z</time>
      </trkpt>
      <trkpt lat="46.57041" lon="5.58839">
        <ele>555.8</ele>
        <time>2022-03-21T16:25:59Z</time>
      </trkpt>
      <trkpt lat="46.57031" lon="5.58838">
        <ele>555.4</ele>
        <time>2022-03-21T16:26:00Z</time>
      </trkpt>
      <trkpt lat="46.57021" lon="5.58838">
        <ele>555</ele>
        <time>2022-03-21T16:26:01Z</time>
      </trkpt>
      <trkpt lat="46.57012" lon="5.58837">
        <ele>554.6</ele>
        <time>2022-03-21T16:26:02Z</time>
      </trkpt>
      <trkpt lat="46.57002" lon="5.58836">
        <ele>554.4</ele>
        <time>2022-03-21T16:26:03Z</time>
      </trkpt>
      <trkpt lat="46.56993" lon="5.58836">
        <ele>554.2</ele>
        <time>2022-03-21T16:26:04Z</time>
      </trkpt>
      <trkpt lat="46.56984" lon="5.58836">
        <ele>554</ele>
        <time>2022-03-21T16:26:05Z</time>
      </trkpt>
      <trkpt lat="46.56975" lon="5.58834">
        <ele>554</ele>
        <time>2022-03-21T16:26:06Z</time>
      </trkpt>
      <trkpt lat="46.56966" lon="5.58833">
        <ele>554</ele>
        <time>2022-03-21T16:26:07Z</time>
      </trkpt>
      <trkpt lat="46.56957" lon="5.58833">
        <ele>553.6</ele>
        <time>2022-03-21T16:26:08Z</time>
      </trkpt>
      <trkpt lat="46.56949" lon="5.58833">
        <ele>553.6</ele>
        <time>2022-03-21T16:26:09Z</time>
      </trkpt>
      <trkpt lat="46.5694" lon="5.58833">
        <ele>553.6</ele>
        <time>2022-03-21T16:26:10Z</time>
      </trkpt>
      <trkpt lat="46.56932" lon="5.58834">
        <ele>553.4</ele>
        <time>2022-03-21T16:26:11Z</time>
      </trkpt>
      <trkpt lat="46.56924" lon="5.58835">
        <ele>553.4</ele>
        <time>2022-03-21T16:26:12Z</time>
      </trkpt>
      <trkpt lat="46.56916" lon="5.58838">
        <ele>553.4</ele>
        <time>2022-03-21T16:26:13Z</time>
      </trkpt>
      <trkpt lat="46.56908" lon="5.5884">
        <ele>553.4</ele>
        <time>2022-03-21T16:26:14Z</time>
      </trkpt>
      <trkpt lat="46.56901" lon="5.58842">
        <ele>553.4</ele>
        <time>2022-03-21T16:26:15Z</time>
      </trkpt>
      <trkpt lat="46.56893" lon="5.58844">
        <ele>553.4</ele>
        <time>2022-03-21T16:26:16Z</time>
      </trkpt>
      <trkpt lat="46.56886" lon="5.58844">
        <ele>553.4</ele>
        <time>2022-03-21T16:26:17Z</time>
      </trkpt>
      <trkpt lat="46.56878" lon="5.58845">
        <ele>553.4</ele>
        <time>2022-03-21T16:26:18Z</time>
      </trkpt>
      <trkpt lat="46.56871" lon="5.58846">
        <ele>553.4</ele>
        <time>2022-03-21T16:26:19Z</time>
      </trkpt>
      <trkpt lat="46.56863" lon="5.58846">
        <ele>553.4</ele>
        <time>2022-03-21T16:26:20Z</time>
      </trkpt>
      <trkpt lat="46.56855" lon="5.58846">
        <ele>553</ele>
        <time>2022-03-21T16:26:21Z</time>
      </trkpt>
      <trkpt lat="46.56848" lon="5.58846">
        <ele>552.8</ele>
        <time>2022-03-21T16:26:22Z</time>
      </trkpt>
      <trkpt lat="46.5684" lon="5.58846">
        <ele>552.6</ele>
        <time>2022-03-21T16:26:23Z</time>
      </trkpt>
      <trkpt lat="46.56832" lon="5.58846">
        <ele>552.2</ele>
        <time>2022-03-21T16:26:24Z</time>
      </trkpt>
      <trkpt lat="46.56824" lon="5.58846">
        <ele>552</ele>
        <time>2022-03-21T16:26:25Z</time>
      </trkpt>
      <trkpt lat="46.56815" lon="5.58846">
        <ele>551.8</ele>
        <time>2022-03-21T16:26:26Z</time>
      </trkpt>
      <trkpt lat="46.56807" lon="5.58845">
        <ele>551.4</ele>
        <time>2022-03-21T16:26:27Z</time>
      </trkpt>
      <trkpt lat="46.56799" lon="5.58846">
        <ele>551.2</ele>
        <time>2022-03-21T16:26:28Z</time>
      </trkpt>
      <trkpt lat="46.56791" lon="5.58846">
        <ele>550.8</ele>
        <time>2022-03-21T16:26:29Z</time>
      </trkpt>
      <trkpt lat="46.56782" lon="5.58848">
        <ele>550.6</ele>
        <time>2022-03-21T16:26:30Z</time>
      </trkpt>
      <trkpt lat="46.56774" lon="5.5885">
        <ele>550.4</ele>
        <time>2022-03-21T16:26:31Z</time>
      </trkpt>
      <trkpt lat="46.56766" lon="5.58855">
        <ele>550</ele>
        <time>2022-03-21T16:26:32Z</time>
      </trkpt>
      <trkpt lat="46.56759" lon="5.58861">
        <ele>549.8</ele>
        <time>2022-03-21T16:26:33Z</time>
      </trkpt>
      <trkpt lat="46.56752" lon="5.58868">
        <ele>549.4</ele>
        <time>2022-03-21T16:26:34Z</time>
      </trkpt>
      <trkpt lat="46.56745" lon="5.58876">
        <ele>549</ele>
        <time>2022-03-21T16:26:35Z</time>
      </trkpt>
      <trkpt lat="46.56738" lon="5.58884">
        <ele>548.8</ele>
        <time>2022-03-21T16:26:36Z</time>
      </trkpt>
      <trkpt lat="46.56732" lon="5.58895">
        <ele>548.4</ele>
        <time>2022-03-21T16:26:37Z</time>
      </trkpt>
      <trkpt lat="46.56725" lon="5.58905">
        <ele>548</ele>
        <time>2022-03-21T16:26:38Z</time>
      </trkpt>
      <trkpt lat="46.5672" lon="5.58915">
        <ele>547.8</ele>
        <time>2022-03-21T16:26:39Z</time>
      </trkpt>
      <trkpt lat="46.56714" lon="5.58926">
        <ele>547.4</ele>
        <time>2022-03-21T16:26:40Z</time>
      </trkpt>
      <trkpt lat="46.56709" lon="5.58939">
        <ele>547</ele>
        <time>2022-03-21T16:26:41Z</time>
      </trkpt>
      <trkpt lat="46.56703" lon="5.58949">
        <ele>546.4</ele>
        <time>2022-03-21T16:26:42Z</time>
      </trkpt>
      <trkpt lat="46.56697" lon="5.5896">
        <ele>545.8</ele>
        <time>2022-03-21T16:26:43Z</time>
      </trkpt>
      <trkpt lat="46.56689" lon="5.5897">
        <ele>545</ele>
        <time>2022-03-21T16:26:44Z</time>
      </trkpt>
      <trkpt lat="46.5668" lon="5.58977">
        <ele>544.4</ele>
        <time>2022-03-21T16:26:45Z</time>
      </trkpt>
      <trkpt lat="46.56669" lon="5.58981">
        <ele>543.8</ele>
        <time>2022-03-21T16:26:46Z</time>
      </trkpt>
      <trkpt lat="46.56659" lon="5.58983">
        <ele>543.4</ele>
        <time>2022-03-21T16:26:47Z</time>
      </trkpt>
      <trkpt lat="46.56649" lon="5.58984">
        <ele>543</ele>
        <time>2022-03-21T16:26:48Z</time>
      </trkpt>
      <trkpt lat="46.5664" lon="5.58986">
        <ele>542.6</ele>
        <time>2022-03-21T16:26:49Z</time>
      </trkpt>
      <trkpt lat="46.56631" lon="5.58989">
        <ele>542.4</ele>
        <time>2022-03-21T16:26:50Z</time>
      </trkpt>
      <trkpt lat="46.56622" lon="5.58993">
        <ele>542.4</ele>
        <time>2022-03-21T16:26:51Z</time>
      </trkpt>
      <trkpt lat="46.56614" lon="5.58998">
        <ele>542</ele>
        <time>2022-03-21T16:26:52Z</time>
      </trkpt>
      <trkpt lat="46.56605" lon="5.59002">
        <ele>542</ele>
        <time>2022-03-21T16:26:53Z</time>
      </trkpt>
      <trkpt lat="46.56596" lon="5.59006">
        <ele>541.8</ele>
        <time>2022-03-21T16:26:54Z</time>
      </trkpt>
      <trkpt lat="46.56588" lon="5.5901">
        <ele>541.6</ele>
        <time>2022-03-21T16:26:55Z</time>
      </trkpt>
      <trkpt lat="46.56579" lon="5.59015">
        <ele>541.2</ele>
        <time>2022-03-21T16:26:56Z</time>
      </trkpt>
      <trkpt lat="46.5657" lon="5.59019">
        <ele>541</ele>
        <time>2022-03-21T16:26:57Z</time>
      </trkpt>
      <trkpt lat="46.56561" lon="5.59024">
        <ele>540.6</ele>
        <time>2022-03-21T16:26:58Z</time>
      </trkpt>
      <trkpt lat="46.56552" lon="5.59028">
        <ele>540.4</ele>
        <time>2022-03-21T16:26:59Z</time>
      </trkpt>
      <trkpt lat="46.56543" lon="5.59032">
        <ele>540</ele>
        <time>2022-03-21T16:27:00Z</time>
      </trkpt>
      <trkpt lat="46.56535" lon="5.59035">
        <ele>539.8</ele>
        <time>2022-03-21T16:27:01Z</time>
      </trkpt>
      <trkpt lat="46.56526" lon="5.59038">
        <ele>539.8</ele>
        <time>2022-03-21T16:27:02Z</time>
      </trkpt>
      <trkpt lat="46.56517" lon="5.59039">
        <ele>539.4</ele>
        <time>2022-03-21T16:27:03Z</time>
      </trkpt>
      <trkpt lat="46.56509" lon="5.5904">
        <ele>539.4</ele>
        <time>2022-03-21T16:27:04Z</time>
      </trkpt>
      <trkpt lat="46.565" lon="5.5904">
        <ele>539.2</ele>
        <time>2022-03-21T16:27:05Z</time>
      </trkpt>
      <trkpt lat="46.56492" lon="5.5904">
        <ele>539.2</ele>
        <time>2022-03-21T16:27:06Z</time>
      </trkpt>
      <trkpt lat="46.56483" lon="5.5904">
        <ele>539.2</ele>
        <time>2022-03-21T16:27:07Z</time>
      </trkpt>
      <trkpt lat="46.56475" lon="5.59039">
        <ele>538.8</ele>
        <time>2022-03-21T16:27:08Z</time>
      </trkpt>
      <trkpt lat="46.56467" lon="5.59039">
        <ele>538.6</ele>
        <time>2022-03-21T16:27:09Z</time>
      </trkpt>
      <trkpt lat="46.56458" lon="5.59038">
        <ele>538.6</ele>
        <time>2022-03-21T16:27:10Z</time>
      </trkpt>
      <trkpt lat="46.5645" lon="5.59038">
        <ele>538.6</ele>
        <time>2022-03-21T16:27:11Z</time>
      </trkpt>
      <trkpt lat="46.56442" lon="5.59037">
        <ele>538.6</ele>
        <time>2022-03-21T16:27:12Z</time>
      </trkpt>
      <trkpt lat="46.56434" lon="5.59037">
        <ele>538.2</ele>
        <time>2022-03-21T16:27:13Z</time>
      </trkpt>
      <trkpt lat="46.56426" lon="5.59037">
        <ele>538.2</ele>
        <time>2022-03-21T16:27:14Z</time>
      </trkpt>
      <trkpt lat="46.56418" lon="5.59036">
        <ele>538.2</ele>
        <time>2022-03-21T16:27:15Z</time>
      </trkpt>
      <trkpt lat="46.56411" lon="5.59036">
        <ele>538.2</ele>
        <time>2022-03-21T16:27:16Z</time>
      </trkpt>
      <trkpt lat="46.56404" lon="5.59035">
        <ele>538.2</ele>
        <time>2022-03-21T16:27:17Z</time>
      </trkpt>
      <trkpt lat="46.56396" lon="5.59035">
        <ele>538.2</ele>
        <time>2022-03-21T16:27:18Z</time>
      </trkpt>
      <trkpt lat="46.56389" lon="5.59034">
        <ele>538.4</ele>
        <time>2022-03-21T16:27:19Z</time>
      </trkpt>
      <trkpt lat="46.56382" lon="5.59033">
        <ele>538.4</ele>
        <time>2022-03-21T16:27:20Z</time>
      </trkpt>
      <trkpt lat="46.56375" lon="5.59032">
        <ele>538.4</ele>
        <time>2022-03-21T16:27:21Z</time>
      </trkpt>
      <trkpt lat="46.56368" lon="5.5903">
        <ele>538.4</ele>
        <time>2022-03-21T16:27:22Z</time>
      </trkpt>
      <trkpt lat="46.56361" lon="5.59028">
        <ele>538.4</ele>
        <time>2022-03-21T16:27:23Z</time>
      </trkpt>
      <trkpt lat="46.56354" lon="5.59026">
        <ele>538.2</ele>
        <time>2022-03-21T16:27:25Z</time>
      </trkpt>
      <trkpt lat="46.56347" lon="5.59023">
        <ele>537.8</ele>
        <time>2022-03-21T16:27:26Z</time>
      </trkpt>
      <trkpt lat="46.56339" lon="5.59021">
        <ele>537.6</ele>
        <time>2022-03-21T16:27:27Z</time>
      </trkpt>
      <trkpt lat="46.56332" lon="5.59018">
        <ele>537.2</ele>
        <time>2022-03-21T16:27:28Z</time>
      </trkpt>
      <trkpt lat="46.56324" lon="5.59016">
        <ele>537</ele>
        <time>2022-03-21T16:27:29Z</time>
      </trkpt>
      <trkpt lat="46.56316" lon="5.59013">
        <ele>536.8</ele>
        <time>2022-03-21T16:27:30Z</time>
      </trkpt>
      <trkpt lat="46.56308" lon="5.5901">
        <ele>536.8</ele>
        <time>2022-03-21T16:27:31Z</time>
      </trkpt>
      <trkpt lat="46.563" lon="5.59007">
        <ele>536.4</ele>
        <time>2022-03-21T16:27:32Z</time>
      </trkpt>
      <trkpt lat="46.56292" lon="5.59005">
        <ele>536.4</ele>
        <time>2022-03-21T16:27:33Z</time>
      </trkpt>
      <trkpt lat="46.56284" lon="5.59002">
        <ele>536.2</ele>
        <time>2022-03-21T16:27:34Z</time>
      </trkpt>
      <trkpt lat="46.56276" lon="5.58999">
        <ele>536.2</ele>
        <time>2022-03-21T16:27:35Z</time>
      </trkpt>
      <trkpt lat="46.56269" lon="5.58997">
        <ele>536.2</ele>
        <time>2022-03-21T16:27:36Z</time>
      </trkpt>
      <trkpt lat="46.56261" lon="5.58996">
        <ele>536</ele>
        <time>2022-03-21T16:27:37Z</time>
      </trkpt>
      <trkpt lat="46.56254" lon="5.58995">
        <ele>536</ele>
        <time>2022-03-21T16:27:38Z</time>
      </trkpt>
      <trkpt lat="46.56238" lon="5.58994">
        <ele>536</ele>
        <time>2022-03-21T16:27:39Z</time>
      </trkpt>
      <trkpt lat="46.56231" lon="5.58994">
        <ele>535.8</ele>
        <time>2022-03-21T16:27:40Z</time>
      </trkpt>
      <trkpt lat="46.56223" lon="5.58994">
        <ele>535.8</ele>
        <time>2022-03-21T16:27:41Z</time>
      </trkpt>
      <trkpt lat="46.56215" lon="5.58994">
        <ele>535.6</ele>
        <time>2022-03-21T16:27:42Z</time>
      </trkpt>
      <trkpt lat="46.56208" lon="5.58995">
        <ele>535.6</ele>
        <time>2022-03-21T16:27:43Z</time>
      </trkpt>
      <trkpt lat="46.562" lon="5.58996">
        <ele>535.6</ele>
        <time>2022-03-21T16:27:44Z</time>
      </trkpt>
      <trkpt lat="46.56193" lon="5.58998">
        <ele>535.4</ele>
        <time>2022-03-21T16:27:45Z</time>
      </trkpt>
      <trkpt lat="46.56186" lon="5.59">
        <ele>535.4</ele>
        <time>2022-03-21T16:27:46Z</time>
      </trkpt>
      <trkpt lat="46.56179" lon="5.59003">
        <ele>535.4</ele>
        <time>2022-03-21T16:27:47Z</time>
      </trkpt>
      <trkpt lat="46.56172" lon="5.59006">
        <ele>535.4</ele>
        <time>2022-03-21T16:27:48Z</time>
      </trkpt>
      <trkpt lat="46.56166" lon="5.5901">
        <ele>535.4</ele>
        <time>2022-03-21T16:27:49Z</time>
      </trkpt>
      <trkpt lat="46.56159" lon="5.59013">
        <ele>535.4</ele>
        <time>2022-03-21T16:27:50Z</time>
      </trkpt>
      <trkpt lat="46.56153" lon="5.59016">
        <ele>535.6</ele>
        <time>2022-03-21T16:27:51Z</time>
      </trkpt>
      <trkpt lat="46.56147" lon="5.59019">
        <ele>535.6</ele>
        <time>2022-03-21T16:27:52Z</time>
      </trkpt>
      <trkpt lat="46.56142" lon="5.59022">
        <ele>535.8</ele>
        <time>2022-03-21T16:27:53Z</time>
      </trkpt>
      <trkpt lat="46.56136" lon="5.59025">
        <ele>535.8</ele>
        <time>2022-03-21T16:27:54Z</time>
      </trkpt>
      <trkpt lat="46.56129" lon="5.59027">
        <ele>535.8</ele>
        <time>2022-03-21T16:27:55Z</time>
      </trkpt>
      <trkpt lat="46.56123" lon="5.5903">
        <ele>535.8</ele>
        <time>2022-03-21T16:27:56Z</time>
      </trkpt>
      <trkpt lat="46.56116" lon="5.59031">
        <ele>535.8</ele>
        <time>2022-03-21T16:27:57Z</time>
      </trkpt>
      <trkpt lat="46.56109" lon="5.59032">
        <ele>535.8</ele>
        <time>2022-03-21T16:27:58Z</time>
      </trkpt>
      <trkpt lat="46.56102" lon="5.59032">
        <ele>535.6</ele>
        <time>2022-03-21T16:27:59Z</time>
      </trkpt>
      <trkpt lat="46.56094" lon="5.59031">
        <ele>535.2</ele>
        <time>2022-03-21T16:28:00Z</time>
      </trkpt>
      <trkpt lat="46.56086" lon="5.5903">
        <ele>535</ele>
        <time>2022-03-21T16:28:01Z</time>
      </trkpt>
      <trkpt lat="46.56078" lon="5.59029">
        <ele>534.6</ele>
        <time>2022-03-21T16:28:02Z</time>
      </trkpt>
      <trkpt lat="46.56069" lon="5.59028">
        <ele>534.2</ele>
        <time>2022-03-21T16:28:03Z</time>
      </trkpt>
      <trkpt lat="46.5606" lon="5.59026">
        <ele>533.6</ele>
        <time>2022-03-21T16:28:04Z</time>
      </trkpt>
      <trkpt lat="46.56051" lon="5.59025">
        <ele>533</ele>
        <time>2022-03-21T16:28:05Z</time>
      </trkpt>
      <trkpt lat="46.56041" lon="5.59024">
        <ele>532.6</ele>
        <time>2022-03-21T16:28:06Z</time>
      </trkpt>
      <trkpt lat="46.56032" lon="5.59022">
        <ele>532.4</ele>
        <time>2022-03-21T16:28:07Z</time>
      </trkpt>
      <trkpt lat="46.56022" lon="5.59021">
        <ele>532</ele>
        <time>2022-03-21T16:28:08Z</time>
      </trkpt>
      <trkpt lat="46.56013" lon="5.5902">
        <ele>531.6</ele>
        <time>2022-03-21T16:28:09Z</time>
      </trkpt>
      <trkpt lat="46.56004" lon="5.59019">
        <ele>531.2</ele>
        <time>2022-03-21T16:28:10Z</time>
      </trkpt>
      <trkpt lat="46.55995" lon="5.59017">
        <ele>531</ele>
        <time>2022-03-21T16:28:11Z</time>
      </trkpt>
      <trkpt lat="46.55986" lon="5.59018">
        <ele>530.8</ele>
        <time>2022-03-21T16:28:12Z</time>
      </trkpt>
      <trkpt lat="46.55977" lon="5.59019">
        <ele>530.6</ele>
        <time>2022-03-21T16:28:13Z</time>
      </trkpt>
      <trkpt lat="46.55968" lon="5.59021">
        <ele>530.6</ele>
        <time>2022-03-21T16:28:14Z</time>
      </trkpt>
      <trkpt lat="46.55959" lon="5.59023">
        <ele>530.2</ele>
        <time>2022-03-21T16:28:15Z</time>
      </trkpt>
      <trkpt lat="46.5595" lon="5.59025">
        <ele>530</ele>
        <time>2022-03-21T16:28:16Z</time>
      </trkpt>
      <trkpt lat="46.55942" lon="5.59027">
        <ele>530</ele>
        <time>2022-03-21T16:28:17Z</time>
      </trkpt>
      <trkpt lat="46.55934" lon="5.59029">
        <ele>529.6</ele>
        <time>2022-03-21T16:28:18Z</time>
      </trkpt>
      <trkpt lat="46.55925" lon="5.59031">
        <ele>529.6</ele>
        <time>2022-03-21T16:28:19Z</time>
      </trkpt>
      <trkpt lat="46.55917" lon="5.59032">
        <ele>529.4</ele>
        <time>2022-03-21T16:28:20Z</time>
      </trkpt>
      <trkpt lat="46.55909" lon="5.59033">
        <ele>529.4</ele>
        <time>2022-03-21T16:28:21Z</time>
      </trkpt>
      <trkpt lat="46.55901" lon="5.59033">
        <ele>529.4</ele>
        <time>2022-03-21T16:28:22Z</time>
      </trkpt>
      <trkpt lat="46.55893" lon="5.59034">
        <ele>529.4</ele>
        <time>2022-03-21T16:28:23Z</time>
      </trkpt>
      <trkpt lat="46.55885" lon="5.59034">
        <ele>529.4</ele>
        <time>2022-03-21T16:28:24Z</time>
      </trkpt>
      <trkpt lat="46.55878" lon="5.59033">
        <ele>529</ele>
        <time>2022-03-21T16:28:25Z</time>
      </trkpt>
      <trkpt lat="46.5587" lon="5.59032">
        <ele>529</ele>
        <time>2022-03-21T16:28:26Z</time>
      </trkpt>
      <trkpt lat="46.55863" lon="5.59029">
        <ele>529</ele>
        <time>2022-03-21T16:28:27Z</time>
      </trkpt>
      <trkpt lat="46.55857" lon="5.59025">
        <ele>529</ele>
        <time>2022-03-21T16:28:28Z</time>
      </trkpt>
      <trkpt lat="46.55851" lon="5.5902">
        <ele>529</ele>
        <time>2022-03-21T16:28:29Z</time>
      </trkpt>
      <trkpt lat="46.55845" lon="5.59014">
        <ele>529</ele>
        <time>2022-03-21T16:28:30Z</time>
      </trkpt>
      <trkpt lat="46.55841" lon="5.59007">
        <ele>529</ele>
        <time>2022-03-21T16:28:31Z</time>
      </trkpt>
      <trkpt lat="46.55837" lon="5.59001">
        <ele>529.4</ele>
        <time>2022-03-21T16:28:32Z</time>
      </trkpt>
      <trkpt lat="46.55833" lon="5.58994">
        <ele>529.4</ele>
        <time>2022-03-21T16:28:33Z</time>
      </trkpt>
      <trkpt lat="46.5583" lon="5.58988">
        <ele>529.8</ele>
        <time>2022-03-21T16:28:34Z</time>
      </trkpt>
      <trkpt lat="46.55827" lon="5.58981">
        <ele>529.8</ele>
        <time>2022-03-21T16:28:35Z</time>
      </trkpt>
      <trkpt lat="46.55824" lon="5.58976">
        <ele>530.2</ele>
        <time>2022-03-21T16:28:36Z</time>
      </trkpt>
      <trkpt lat="46.55821" lon="5.5897">
        <ele>530.4</ele>
        <time>2022-03-21T16:28:37Z</time>
      </trkpt>
      <trkpt lat="46.55818" lon="5.58965">
        <ele>530.8</ele>
        <time>2022-03-21T16:28:38Z</time>
      </trkpt>
      <trkpt lat="46.55815" lon="5.58959">
        <ele>531</ele>
        <time>2022-03-21T16:28:39Z</time>
      </trkpt>
      <trkpt lat="46.55813" lon="5.58954">
        <ele>531.4</ele>
        <time>2022-03-21T16:28:40Z</time>
      </trkpt>
      <trkpt lat="46.5581" lon="5.58949">
        <ele>531.8</ele>
        <time>2022-03-21T16:28:41Z</time>
      </trkpt>
      <trkpt lat="46.55807" lon="5.58945">
        <ele>532</ele>
        <time>2022-03-21T16:28:42Z</time>
      </trkpt>
      <trkpt lat="46.55804" lon="5.5894">
        <ele>532.2</ele>
        <time>2022-03-21T16:28:43Z</time>
      </trkpt>
      <trkpt lat="46.55801" lon="5.58936">
        <ele>532.6</ele>
        <time>2022-03-21T16:28:44Z</time>
      </trkpt>
      <trkpt lat="46.55799" lon="5.58932">
        <ele>532.8</ele>
        <time>2022-03-21T16:28:45Z</time>
      </trkpt>
      <trkpt lat="46.55797" lon="5.58927">
        <ele>533</ele>
        <time>2022-03-21T16:28:46Z</time>
      </trkpt>
      <trkpt lat="46.55794" lon="5.58923">
        <ele>533.2</ele>
        <time>2022-03-21T16:28:47Z</time>
      </trkpt>
      <trkpt lat="46.55792" lon="5.58919">
        <ele>533.6</ele>
        <time>2022-03-21T16:28:48Z</time>
      </trkpt>
      <trkpt lat="46.5579" lon="5.58915">
        <ele>533.8</ele>
        <time>2022-03-21T16:28:49Z</time>
      </trkpt>
      <trkpt lat="46.55788" lon="5.58911">
        <ele>534</ele>
        <time>2022-03-21T16:28:50Z</time>
      </trkpt>
      <trkpt lat="46.55786" lon="5.58908">
        <ele>534</ele>
        <time>2022-03-21T16:28:51Z</time>
      </trkpt>
      <trkpt lat="46.55783" lon="5.58904">
        <ele>534.2</ele>
        <time>2022-03-21T16:28:52Z</time>
      </trkpt>
      <trkpt lat="46.55781" lon="5.589">
        <ele>534.2</ele>
        <time>2022-03-21T16:28:53Z</time>
      </trkpt>
      <trkpt lat="46.55778" lon="5.58897">
        <ele>534.6</ele>
        <time>2022-03-21T16:28:54Z</time>
      </trkpt>
      <trkpt lat="46.55776" lon="5.58893">
        <ele>534.6</ele>
        <time>2022-03-21T16:28:55Z</time>
      </trkpt>
      <trkpt lat="46.55773" lon="5.58889">
        <ele>534.6</ele>
        <time>2022-03-21T16:28:56Z</time>
      </trkpt>
      <trkpt lat="46.5577" lon="5.58885">
        <ele>534.6</ele>
        <time>2022-03-21T16:28:57Z</time>
      </trkpt>
      <trkpt lat="46.55766" lon="5.5888">
        <ele>534.6</ele>
        <time>2022-03-21T16:28:58Z</time>
      </trkpt>
      <trkpt lat="46.55763" lon="5.58876">
        <ele>534.6</ele>
        <time>2022-03-21T16:28:59Z</time>
      </trkpt>
      <trkpt lat="46.55759" lon="5.58871">
        <ele>534.2</ele>
        <time>2022-03-21T16:29:00Z</time>
      </trkpt>
      <trkpt lat="46.55755" lon="5.58867">
        <ele>534.2</ele>
        <time>2022-03-21T16:29:01Z</time>
      </trkpt>
      <trkpt lat="46.55752" lon="5.58863">
        <ele>533.8</ele>
        <time>2022-03-21T16:29:02Z</time>
      </trkpt>
      <trkpt lat="46.5575" lon="5.5886">
        <ele>533.4</ele>
        <time>2022-03-21T16:29:03Z</time>
      </trkpt>
      <trkpt lat="46.55747" lon="5.58858">
        <ele>533.2</ele>
        <time>2022-03-21T16:29:04Z</time>
      </trkpt>
      <trkpt lat="46.55745" lon="5.58857">
        <ele>533.2</ele>
        <time>2022-03-21T16:29:05Z</time>
      </trkpt>
      <trkpt lat="46.55743" lon="5.58857">
        <ele>533</ele>
        <time>2022-03-21T16:29:06Z</time>
      </trkpt>
      <trkpt lat="46.55741" lon="5.58857">
        <ele>533</ele>
        <time>2022-03-21T16:29:07Z</time>
      </trkpt>
      <trkpt lat="46.55739" lon="5.58858">
        <ele>532.8</ele>
        <time>2022-03-21T16:29:08Z</time>
      </trkpt>
      <trkpt lat="46.55737" lon="5.5886">
        <ele>532.8</ele>
        <time>2022-03-21T16:29:09Z</time>
      </trkpt>
      <trkpt lat="46.55735" lon="5.58862">
        <ele>532.8</ele>
        <time>2022-03-21T16:29:10Z</time>
      </trkpt>
      <trkpt lat="46.55734" lon="5.58866">
        <ele>532.8</ele>
        <time>2022-03-21T16:29:11Z</time>
      </trkpt>
      <trkpt lat="46.55733" lon="5.5887">
        <ele>532.8</ele>
        <time>2022-03-21T16:29:12Z</time>
      </trkpt>
      <trkpt lat="46.55733" lon="5.58875">
        <ele>532.8</ele>
        <time>2022-03-21T16:29:13Z</time>
      </trkpt>
      <trkpt lat="46.55732" lon="5.5888">
        <ele>532.8</ele>
        <time>2022-03-21T16:29:14Z</time>
      </trkpt>
      <trkpt lat="46.55731" lon="5.58886">
        <ele>532.8</ele>
        <time>2022-03-21T16:29:15Z</time>
      </trkpt>
      <trkpt lat="46.55731" lon="5.58891">
        <ele>532.8</ele>
        <time>2022-03-21T16:29:16Z</time>
      </trkpt>
      <trkpt lat="46.5573" lon="5.58897">
        <ele>532.8</ele>
        <time>2022-03-21T16:29:17Z</time>
      </trkpt>
      <trkpt lat="46.55731" lon="5.58904">
        <ele>532.8</ele>
        <time>2022-03-21T16:29:18Z</time>
      </trkpt>
      <trkpt lat="46.5573" lon="5.5891">
        <ele>532.8</ele>
        <time>2022-03-21T16:29:19Z</time>
      </trkpt>
      <trkpt lat="46.5573" lon="5.58916">
        <ele>532.8</ele>
        <time>2022-03-21T16:29:20Z</time>
      </trkpt>
      <trkpt lat="46.5573" lon="5.58923">
        <ele>532.8</ele>
        <time>2022-03-21T16:29:21Z</time>
      </trkpt>
      <trkpt lat="46.55729" lon="5.5893">
        <ele>532.8</ele>
        <time>2022-03-21T16:29:22Z</time>
      </trkpt>
      <trkpt lat="46.55729" lon="5.58937">
        <ele>532.8</ele>
        <time>2022-03-21T16:29:23Z</time>
      </trkpt>
      <trkpt lat="46.55728" lon="5.58944">
        <ele>532.8</ele>
        <time>2022-03-21T16:29:24Z</time>
      </trkpt>
      <trkpt lat="46.55728" lon="5.58951">
        <ele>532.8</ele>
        <time>2022-03-21T16:29:25Z</time>
      </trkpt>
      <trkpt lat="46.55728" lon="5.58958">
        <ele>532.8</ele>
        <time>2022-03-21T16:29:26Z</time>
      </trkpt>
      <trkpt lat="46.55728" lon="5.58966">
        <ele>532.8</ele>
        <time>2022-03-21T16:29:27Z</time>
      </trkpt>
      <trkpt lat="46.55728" lon="5.58973">
        <ele>532.8</ele>
        <time>2022-03-21T16:29:28Z</time>
      </trkpt>
      <trkpt lat="46.55728" lon="5.5898">
        <ele>532.8</ele>
        <time>2022-03-21T16:29:29Z</time>
      </trkpt>
      <trkpt lat="46.55728" lon="5.58988">
        <ele>532.8</ele>
        <time>2022-03-21T16:29:30Z</time>
      </trkpt>
      <trkpt lat="46.55728" lon="5.58995">
        <ele>532.8</ele>
        <time>2022-03-21T16:29:31Z</time>
      </trkpt>
      <trkpt lat="46.55729" lon="5.59002">
        <ele>532.8</ele>
        <time>2022-03-21T16:29:32Z</time>
      </trkpt>
      <trkpt lat="46.5573" lon="5.5901">
        <ele>532.8</ele>
        <time>2022-03-21T16:29:33Z</time>
      </trkpt>
      <trkpt lat="46.55731" lon="5.59017">
        <ele>533</ele>
        <time>2022-03-21T16:29:34Z</time>
      </trkpt>
      <trkpt lat="46.55733" lon="5.59024">
        <ele>533</ele>
        <time>2022-03-21T16:29:35Z</time>
      </trkpt>
      <trkpt lat="46.55734" lon="5.59031">
        <ele>533</ele>
        <time>2022-03-21T16:29:36Z</time>
      </trkpt>
      <trkpt lat="46.55737" lon="5.59039">
        <ele>533</ele>
        <time>2022-03-21T16:29:37Z</time>
      </trkpt>
      <trkpt lat="46.55739" lon="5.59047">
        <ele>533</ele>
        <time>2022-03-21T16:29:38Z</time>
      </trkpt>
      <trkpt lat="46.55742" lon="5.59055">
        <ele>532.8</ele>
        <time>2022-03-21T16:29:39Z</time>
      </trkpt>
      <trkpt lat="46.55746" lon="5.59063">
        <ele>532.8</ele>
        <time>2022-03-21T16:29:40Z</time>
      </trkpt>
      <trkpt lat="46.55749" lon="5.59071">
        <ele>532.4</ele>
        <time>2022-03-21T16:29:41Z</time>
      </trkpt>
      <trkpt lat="46.55753" lon="5.5908">
        <ele>532.2</ele>
        <time>2022-03-21T16:29:42Z</time>
      </trkpt>
      <trkpt lat="46.55757" lon="5.59089">
        <ele>531.8</ele>
        <time>2022-03-21T16:29:43Z</time>
      </trkpt>
      <trkpt lat="46.55761" lon="5.59098">
        <ele>531.6</ele>
        <time>2022-03-21T16:29:44Z</time>
      </trkpt>
      <trkpt lat="46.55765" lon="5.59109">
        <ele>531.2</ele>
        <time>2022-03-21T16:29:45Z</time>
      </trkpt>
      <trkpt lat="46.55768" lon="5.59119">
        <ele>531.2</ele>
        <time>2022-03-21T16:29:46Z</time>
      </trkpt>
      <trkpt lat="46.55771" lon="5.5913">
        <ele>530.8</ele>
        <time>2022-03-21T16:29:47Z</time>
      </trkpt>
      <trkpt lat="46.55774" lon="5.5914">
        <ele>530.8</ele>
        <time>2022-03-21T16:29:48Z</time>
      </trkpt>
      <trkpt lat="46.55777" lon="5.59151">
        <ele>530.8</ele>
        <time>2022-03-21T16:29:49Z</time>
      </trkpt>
      <trkpt lat="46.55779" lon="5.59161">
        <ele>530.8</ele>
        <time>2022-03-21T16:29:50Z</time>
      </trkpt>
      <trkpt lat="46.55781" lon="5.5917">
        <ele>530.8</ele>
        <time>2022-03-21T16:29:51Z</time>
      </trkpt>
      <trkpt lat="46.55782" lon="5.59179">
        <ele>531.2</ele>
        <time>2022-03-21T16:29:52Z</time>
      </trkpt>
      <trkpt lat="46.55784" lon="5.59187">
        <ele>531.4</ele>
        <time>2022-03-21T16:29:53Z</time>
      </trkpt>
      <trkpt lat="46.55786" lon="5.59195">
        <ele>531.6</ele>
        <time>2022-03-21T16:29:54Z</time>
      </trkpt>
      <trkpt lat="46.55787" lon="5.59202">
        <ele>532</ele>
        <time>2022-03-21T16:29:55Z</time>
      </trkpt>
      <trkpt lat="46.55788" lon="5.59209">
        <ele>532.2</ele>
        <time>2022-03-21T16:29:56Z</time>
      </trkpt>
      <trkpt lat="46.5579" lon="5.59216">
        <ele>532.4</ele>
        <time>2022-03-21T16:29:57Z</time>
      </trkpt>
      <trkpt lat="46.55791" lon="5.59223">
        <ele>532.6</ele>
        <time>2022-03-21T16:29:58Z</time>
      </trkpt>
      <trkpt lat="46.55793" lon="5.59229">
        <ele>532.8</ele>
        <time>2022-03-21T16:29:59Z</time>
      </trkpt>
      <trkpt lat="46.55794" lon="5.59235">
        <ele>533.2</ele>
        <time>2022-03-21T16:30:00Z</time>
      </trkpt>
      <trkpt lat="46.55795" lon="5.59242">
        <ele>533.2</ele>
        <time>2022-03-21T16:30:01Z</time>
      </trkpt>
      <trkpt lat="46.55796" lon="5.59248">
        <ele>533.6</ele>
        <time>2022-03-21T16:30:02Z</time>
      </trkpt>
      <trkpt lat="46.55797" lon="5.59254">
        <ele>533.8</ele>
        <time>2022-03-21T16:30:03Z</time>
      </trkpt>
      <trkpt lat="46.55798" lon="5.5926">
        <ele>534.4</ele>
        <time>2022-03-21T16:30:04Z</time>
      </trkpt>
      <trkpt lat="46.55799" lon="5.59266">
        <ele>534.8</ele>
        <time>2022-03-21T16:30:05Z</time>
      </trkpt>
      <trkpt lat="46.558" lon="5.59271">
        <ele>535</ele>
        <time>2022-03-21T16:30:06Z</time>
      </trkpt>
      <trkpt lat="46.55801" lon="5.59277">
        <ele>535.2</ele>
        <time>2022-03-21T16:30:07Z</time>
      </trkpt>
      <trkpt lat="46.55803" lon="5.59282">
        <ele>535.6</ele>
        <time>2022-03-21T16:30:08Z</time>
      </trkpt>
      <trkpt lat="46.55804" lon="5.59288">
        <ele>535.8</ele>
        <time>2022-03-21T16:30:09Z</time>
      </trkpt>
      <trkpt lat="46.55805" lon="5.59293">
        <ele>536</ele>
        <time>2022-03-21T16:30:10Z</time>
      </trkpt>
      <trkpt lat="46.55806" lon="5.59299">
        <ele>536.2</ele>
        <time>2022-03-21T16:30:11Z</time>
      </trkpt>
      <trkpt lat="46.55807" lon="5.59304">
        <ele>536.6</ele>
        <time>2022-03-21T16:30:12Z</time>
      </trkpt>
      <trkpt lat="46.55808" lon="5.59309">
        <ele>536.8</ele>
        <time>2022-03-21T16:30:13Z</time>
      </trkpt>
      <trkpt lat="46.55809" lon="5.59314">
        <ele>536.8</ele>
        <time>2022-03-21T16:30:14Z</time>
      </trkpt>
      <trkpt lat="46.5581" lon="5.59318">
        <ele>537</ele>
        <time>2022-03-21T16:30:15Z</time>
      </trkpt>
      <trkpt lat="46.55811" lon="5.59323">
        <ele>537</ele>
        <time>2022-03-21T16:30:16Z</time>
      </trkpt>
      <trkpt lat="46.55813" lon="5.59327">
        <ele>537.4</ele>
        <time>2022-03-21T16:30:17Z</time>
      </trkpt>
      <trkpt lat="46.55814" lon="5.59332">
        <ele>537.4</ele>
        <time>2022-03-21T16:30:18Z</time>
      </trkpt>
      <trkpt lat="46.55815" lon="5.59337">
        <ele>537.4</ele>
        <time>2022-03-21T16:30:19Z</time>
      </trkpt>
      <trkpt lat="46.55816" lon="5.59341">
        <ele>537.6</ele>
        <time>2022-03-21T16:30:20Z</time>
      </trkpt>
      <trkpt lat="46.55818" lon="5.59346">
        <ele>537.6</ele>
        <time>2022-03-21T16:30:21Z</time>
      </trkpt>
      <trkpt lat="46.55819" lon="5.59351">
        <ele>538</ele>
        <time>2022-03-21T16:30:22Z</time>
      </trkpt>
      <trkpt lat="46.55821" lon="5.59356">
        <ele>538.2</ele>
        <time>2022-03-21T16:30:23Z</time>
      </trkpt>
      <trkpt lat="46.55823" lon="5.5936">
        <ele>538.2</ele>
        <time>2022-03-21T16:30:24Z</time>
      </trkpt>
      <trkpt lat="46.55824" lon="5.59365">
        <ele>538.4</ele>
        <time>2022-03-21T16:30:25Z</time>
      </trkpt>
      <trkpt lat="46.55826" lon="5.5937">
        <ele>538.4</ele>
        <time>2022-03-21T16:30:26Z</time>
      </trkpt>
      <trkpt lat="46.55828" lon="5.59374">
        <ele>538.6</ele>
        <time>2022-03-21T16:30:27Z</time>
      </trkpt>
      <trkpt lat="46.5583" lon="5.59379">
        <ele>538.6</ele>
        <time>2022-03-21T16:30:28Z</time>
      </trkpt>
      <trkpt lat="46.55832" lon="5.59384">
        <ele>538.6</ele>
        <time>2022-03-21T16:30:29Z</time>
      </trkpt>
      <trkpt lat="46.55833" lon="5.59389">
        <ele>539</ele>
        <time>2022-03-21T16:30:30Z</time>
      </trkpt>
      <trkpt lat="46.55835" lon="5.59395">
        <ele>539</ele>
        <time>2022-03-21T16:30:31Z</time>
      </trkpt>
      <trkpt lat="46.55836" lon="5.594">
        <ele>539</ele>
        <time>2022-03-21T16:30:32Z</time>
      </trkpt>
      <trkpt lat="46.55838" lon="5.59406">
        <ele>539.2</ele>
        <time>2022-03-21T16:30:33Z</time>
      </trkpt>
      <trkpt lat="46.5584" lon="5.59411">
        <ele>539.2</ele>
        <time>2022-03-21T16:30:34Z</time>
      </trkpt>
      <trkpt lat="46.55842" lon="5.59417">
        <ele>539.4</ele>
        <time>2022-03-21T16:30:35Z</time>
      </trkpt>
      <trkpt lat="46.55844" lon="5.59422">
        <ele>539.4</ele>
        <time>2022-03-21T16:30:36Z</time>
      </trkpt>
      <trkpt lat="46.55846" lon="5.59428">
        <ele>539.4</ele>
        <time>2022-03-21T16:30:37Z</time>
      </trkpt>
      <trkpt lat="46.55848" lon="5.59433">
        <ele>539.8</ele>
        <time>2022-03-21T16:30:38Z</time>
      </trkpt>
      <trkpt lat="46.5585" lon="5.59439">
        <ele>539.8</ele>
        <time>2022-03-21T16:30:39Z</time>
      </trkpt>
      <trkpt lat="46.55852" lon="5.59445">
        <ele>539.8</ele>
        <time>2022-03-21T16:30:40Z</time>
      </trkpt>
      <trkpt lat="46.55853" lon="5.5945">
        <ele>539.8</ele>
        <time>2022-03-21T16:30:41Z</time>
      </trkpt>
      <trkpt lat="46.55856" lon="5.59456">
        <ele>539.8</ele>
        <time>2022-03-21T16:30:42Z</time>
      </trkpt>
      <trkpt lat="46.55858" lon="5.59462">
        <ele>539.8</ele>
        <time>2022-03-21T16:30:43Z</time>
      </trkpt>
      <trkpt lat="46.5586" lon="5.59468">
        <ele>539.8</ele>
        <time>2022-03-21T16:30:44Z</time>
      </trkpt>
      <trkpt lat="46.55862" lon="5.59475">
        <ele>539.8</ele>
        <time>2022-03-21T16:30:45Z</time>
      </trkpt>
      <trkpt lat="46.55864" lon="5.59481">
        <ele>540</ele>
        <time>2022-03-21T16:30:46Z</time>
      </trkpt>
      <trkpt lat="46.55865" lon="5.59487">
        <ele>540</ele>
        <time>2022-03-21T16:30:47Z</time>
      </trkpt>
      <trkpt lat="46.55867" lon="5.59493">
        <ele>540</ele>
        <time>2022-03-21T16:30:48Z</time>
      </trkpt>
      <trkpt lat="46.55869" lon="5.59499">
        <ele>540.2</ele>
        <time>2022-03-21T16:30:49Z</time>
      </trkpt>
      <trkpt lat="46.55871" lon="5.59504">
        <ele>540.2</ele>
        <time>2022-03-21T16:30:50Z</time>
      </trkpt>
      <trkpt lat="46.55873" lon="5.59509">
        <ele>540.6</ele>
        <time>2022-03-21T16:30:51Z</time>
      </trkpt>
      <trkpt lat="46.55875" lon="5.59513">
        <ele>540.6</ele>
        <time>2022-03-21T16:30:52Z</time>
      </trkpt>
      <trkpt lat="46.55877" lon="5.59517">
        <ele>541</ele>
        <time>2022-03-21T16:30:53Z</time>
      </trkpt>
      <trkpt lat="46.55879" lon="5.59522">
        <ele>541.2</ele>
        <time>2022-03-21T16:30:54Z</time>
      </trkpt>
      <trkpt lat="46.55881" lon="5.59527">
        <ele>541.2</ele>
        <time>2022-03-21T16:30:55Z</time>
      </trkpt>
      <trkpt lat="46.55883" lon="5.59531">
        <ele>541.4</ele>
        <time>2022-03-21T16:30:56Z</time>
      </trkpt>
      <trkpt lat="46.55884" lon="5.59536">
        <ele>541.4</ele>
        <time>2022-03-21T16:30:57Z</time>
      </trkpt>
      <trkpt lat="46.55886" lon="5.59541">
        <ele>541.8</ele>
        <time>2022-03-21T16:30:58Z</time>
      </trkpt>
      <trkpt lat="46.55888" lon="5.59546">
        <ele>541.8</ele>
        <time>2022-03-21T16:30:59Z</time>
      </trkpt>
      <trkpt lat="46.5589" lon="5.5955">
        <ele>542.4</ele>
        <time>2022-03-21T16:31:00Z</time>
      </trkpt>
      <trkpt lat="46.55891" lon="5.59556">
        <ele>542.6</ele>
        <time>2022-03-21T16:31:01Z</time>
      </trkpt>
      <trkpt lat="46.55893" lon="5.59561">
        <ele>542.8</ele>
        <time>2022-03-21T16:31:02Z</time>
      </trkpt>
      <trkpt lat="46.55894" lon="5.59566">
        <ele>543</ele>
        <time>2022-03-21T16:31:03Z</time>
      </trkpt>
      <trkpt lat="46.55894" lon="5.59572">
        <ele>543.4</ele>
        <time>2022-03-21T16:31:04Z</time>
      </trkpt>
      <trkpt lat="46.55894" lon="5.59578">
        <ele>543.6</ele>
        <time>2022-03-21T16:31:05Z</time>
      </trkpt>
      <trkpt lat="46.55894" lon="5.59585">
        <ele>543.6</ele>
        <time>2022-03-21T16:31:06Z</time>
      </trkpt>
      <trkpt lat="46.55894" lon="5.59591">
        <ele>543.8</ele>
        <time>2022-03-21T16:31:07Z</time>
      </trkpt>
      <trkpt lat="46.55894" lon="5.59597">
        <ele>543.8</ele>
        <time>2022-03-21T16:31:08Z</time>
      </trkpt>
      <trkpt lat="46.55895" lon="5.59604">
        <ele>543.8</ele>
        <time>2022-03-21T16:31:09Z</time>
      </trkpt>
      <trkpt lat="46.55896" lon="5.59611">
        <ele>544</ele>
        <time>2022-03-21T16:31:10Z</time>
      </trkpt>
      <trkpt lat="46.55898" lon="5.59617">
        <ele>544</ele>
        <time>2022-03-21T16:31:11Z</time>
      </trkpt>
      <trkpt lat="46.55901" lon="5.59622">
        <ele>544.4</ele>
        <time>2022-03-21T16:31:12Z</time>
      </trkpt>
      <trkpt lat="46.55904" lon="5.59627">
        <ele>544.4</ele>
        <time>2022-03-21T16:31:13Z</time>
      </trkpt>
      <trkpt lat="46.55907" lon="5.59631">
        <ele>544.6</ele>
        <time>2022-03-21T16:31:14Z</time>
      </trkpt>
      <trkpt lat="46.55911" lon="5.59635">
        <ele>544.6</ele>
        <time>2022-03-21T16:31:15Z</time>
      </trkpt>
      <trkpt lat="46.55914" lon="5.59638">
        <ele>544.6</ele>
        <time>2022-03-21T16:31:16Z</time>
      </trkpt>
      <trkpt lat="46.55918" lon="5.59641">
        <ele>545</ele>
        <time>2022-03-21T16:31:17Z</time>
      </trkpt>
      <trkpt lat="46.55921" lon="5.59645">
        <ele>545</ele>
        <time>2022-03-21T16:31:18Z</time>
      </trkpt>
      <trkpt lat="46.55924" lon="5.59648">
        <ele>545.2</ele>
        <time>2022-03-21T16:31:19Z</time>
      </trkpt>
      <trkpt lat="46.55926" lon="5.59652">
        <ele>545.2</ele>
        <time>2022-03-21T16:31:20Z</time>
      </trkpt>
      <trkpt lat="46.55928" lon="5.59656">
        <ele>545.6</ele>
        <time>2022-03-21T16:31:21Z</time>
      </trkpt>
      <trkpt lat="46.5593" lon="5.59661">
        <ele>545.6</ele>
        <time>2022-03-21T16:31:22Z</time>
      </trkpt>
      <trkpt lat="46.55932" lon="5.59665">
        <ele>545.8</ele>
        <time>2022-03-21T16:31:23Z</time>
      </trkpt>
      <trkpt lat="46.55933" lon="5.5967">
        <ele>545.8</ele>
        <time>2022-03-21T16:31:24Z</time>
      </trkpt>
      <trkpt lat="46.55934" lon="5.59674">
        <ele>546</ele>
        <time>2022-03-21T16:31:25Z</time>
      </trkpt>
      <trkpt lat="46.55935" lon="5.59679">
        <ele>546</ele>
        <time>2022-03-21T16:31:26Z</time>
      </trkpt>
      <trkpt lat="46.55936" lon="5.59683">
        <ele>546.4</ele>
        <time>2022-03-21T16:31:27Z</time>
      </trkpt>
      <trkpt lat="46.55938" lon="5.59688">
        <ele>546.4</ele>
        <time>2022-03-21T16:31:28Z</time>
      </trkpt>
      <trkpt lat="46.55939" lon="5.59693">
        <ele>546.4</ele>
        <time>2022-03-21T16:31:29Z</time>
      </trkpt>
      <trkpt lat="46.5594" lon="5.59697">
        <ele>546.6</ele>
        <time>2022-03-21T16:31:31Z</time>
      </trkpt>
      <trkpt lat="46.55941" lon="5.59702">
        <ele>547</ele>
        <time>2022-03-21T16:31:32Z</time>
      </trkpt>
      <trkpt lat="46.55942" lon="5.59707">
        <ele>547</ele>
        <time>2022-03-21T16:31:33Z</time>
      </trkpt>
      <trkpt lat="46.55943" lon="5.59712">
        <ele>547.2</ele>
        <time>2022-03-21T16:31:34Z</time>
      </trkpt>
      <trkpt lat="46.55944" lon="5.59717">
        <ele>547.2</ele>
        <time>2022-03-21T16:31:35Z</time>
      </trkpt>
      <trkpt lat="46.55944" lon="5.59722">
        <ele>547.2</ele>
        <time>2022-03-21T16:31:36Z</time>
      </trkpt>
      <trkpt lat="46.55945" lon="5.59728">
        <ele>547.2</ele>
        <time>2022-03-21T16:31:37Z</time>
      </trkpt>
      <trkpt lat="46.55946" lon="5.59733">
        <ele>547.2</ele>
        <time>2022-03-21T16:31:38Z</time>
      </trkpt>
      <trkpt lat="46.55948" lon="5.59739">
        <ele>547.2</ele>
        <time>2022-03-21T16:31:39Z</time>
      </trkpt>
      <trkpt lat="46.55948" lon="5.59745">
        <ele>547.4</ele>
        <time>2022-03-21T16:31:40Z</time>
      </trkpt>
      <trkpt lat="46.55949" lon="5.59751">
        <ele>547.4</ele>
        <time>2022-03-21T16:31:41Z</time>
      </trkpt>
      <trkpt lat="46.5595" lon="5.59757">
        <ele>547.4</ele>
        <time>2022-03-21T16:31:42Z</time>
      </trkpt>
      <trkpt lat="46.55951" lon="5.59763">
        <ele>547.4</ele>
        <time>2022-03-21T16:31:43Z</time>
      </trkpt>
      <trkpt lat="46.55951" lon="5.5977">
        <ele>547.6</ele>
        <time>2022-03-21T16:31:44Z</time>
      </trkpt>
      <trkpt lat="46.55952" lon="5.59777">
        <ele>547.6</ele>
        <time>2022-03-21T16:31:45Z</time>
      </trkpt>
      <trkpt lat="46.55953" lon="5.59784">
        <ele>547.6</ele>
        <time>2022-03-21T16:31:46Z</time>
      </trkpt>
      <trkpt lat="46.55953" lon="5.59798">
        <ele>547.6</ele>
        <time>2022-03-21T16:31:47Z</time>
      </trkpt>
      <trkpt lat="46.55954" lon="5.59805">
        <ele>548</ele>
        <time>2022-03-21T16:31:48Z</time>
      </trkpt>
      <trkpt lat="46.55954" lon="5.59812">
        <ele>548</ele>
        <time>2022-03-21T16:31:49Z</time>
      </trkpt>
      <trkpt lat="46.55954" lon="5.59819">
        <ele>548</ele>
        <time>2022-03-21T16:31:50Z</time>
      </trkpt>
      <trkpt lat="46.55954" lon="5.59826">
        <ele>548</ele>
        <time>2022-03-21T16:31:51Z</time>
      </trkpt>
      <trkpt lat="46.55955" lon="5.59834">
        <ele>548</ele>
        <time>2022-03-21T16:31:52Z</time>
      </trkpt>
      <trkpt lat="46.55955" lon="5.59842">
        <ele>548</ele>
        <time>2022-03-21T16:31:53Z</time>
      </trkpt>
      <trkpt lat="46.55955" lon="5.59851">
        <ele>548</ele>
        <time>2022-03-21T16:31:54Z</time>
      </trkpt>
      <trkpt lat="46.55955" lon="5.5986">
        <ele>548</ele>
        <time>2022-03-21T16:31:55Z</time>
      </trkpt>
      <trkpt lat="46.55956" lon="5.59869">
        <ele>548</ele>
        <time>2022-03-21T16:31:56Z</time>
      </trkpt>
      <trkpt lat="46.55957" lon="5.59878">
        <ele>547.8</ele>
        <time>2022-03-21T16:31:57Z</time>
      </trkpt>
      <trkpt lat="46.55958" lon="5.59887">
        <ele>547.8</ele>
        <time>2022-03-21T16:31:58Z</time>
      </trkpt>
      <trkpt lat="46.55959" lon="5.59896">
        <ele>547.8</ele>
        <time>2022-03-21T16:31:59Z</time>
      </trkpt>
      <trkpt lat="46.55961" lon="5.59905">
        <ele>547.8</ele>
        <time>2022-03-21T16:32:00Z</time>
      </trkpt>
      <trkpt lat="46.55962" lon="5.59914">
        <ele>547.8</ele>
        <time>2022-03-21T16:32:01Z</time>
      </trkpt>
      <trkpt lat="46.55963" lon="5.59923">
        <ele>547.8</ele>
        <time>2022-03-21T16:32:02Z</time>
      </trkpt>
      <trkpt lat="46.55963" lon="5.59932">
        <ele>547.8</ele>
        <time>2022-03-21T16:32:03Z</time>
      </trkpt>
      <trkpt lat="46.55963" lon="5.59941">
        <ele>547.8</ele>
        <time>2022-03-21T16:32:04Z</time>
      </trkpt>
      <trkpt lat="46.55963" lon="5.59949">
        <ele>547.8</ele>
        <time>2022-03-21T16:32:05Z</time>
      </trkpt>
      <trkpt lat="46.55962" lon="5.59957">
        <ele>547.8</ele>
        <time>2022-03-21T16:32:06Z</time>
      </trkpt>
      <trkpt lat="46.55962" lon="5.59965">
        <ele>548</ele>
        <time>2022-03-21T16:32:07Z</time>
      </trkpt>
      <trkpt lat="46.55961" lon="5.59973">
        <ele>548</ele>
        <time>2022-03-21T16:32:08Z</time>
      </trkpt>
      <trkpt lat="46.5596" lon="5.59981">
        <ele>548.2</ele>
        <time>2022-03-21T16:32:09Z</time>
      </trkpt>
      <trkpt lat="46.55959" lon="5.59988">
        <ele>548.2</ele>
        <time>2022-03-21T16:32:10Z</time>
      </trkpt>
      <trkpt lat="46.55958" lon="5.59996">
        <ele>548.4</ele>
        <time>2022-03-21T16:32:11Z</time>
      </trkpt>
      <trkpt lat="46.55958" lon="5.60003">
        <ele>548.6</ele>
        <time>2022-03-21T16:32:12Z</time>
      </trkpt>
      <trkpt lat="46.55956" lon="5.6001">
        <ele>548.6</ele>
        <time>2022-03-21T16:32:13Z</time>
      </trkpt>
      <trkpt lat="46.55956" lon="5.60017">
        <ele>549</ele>
        <time>2022-03-21T16:32:14Z</time>
      </trkpt>
      <trkpt lat="46.55955" lon="5.60024">
        <ele>549</ele>
        <time>2022-03-21T16:32:15Z</time>
      </trkpt>
      <trkpt lat="46.55953" lon="5.60031">
        <ele>549.2</ele>
        <time>2022-03-21T16:32:16Z</time>
      </trkpt>
      <trkpt lat="46.55952" lon="5.60039">
        <ele>549.2</ele>
        <time>2022-03-21T16:32:17Z</time>
      </trkpt>
      <trkpt lat="46.55951" lon="5.60047">
        <ele>549.2</ele>
        <time>2022-03-21T16:32:18Z</time>
      </trkpt>
      <trkpt lat="46.5595" lon="5.60055">
        <ele>549.2</ele>
        <time>2022-03-21T16:32:19Z</time>
      </trkpt>
      <trkpt lat="46.55949" lon="5.60063">
        <ele>549.2</ele>
        <time>2022-03-21T16:32:20Z</time>
      </trkpt>
      <trkpt lat="46.55948" lon="5.60071">
        <ele>549.2</ele>
        <time>2022-03-21T16:32:21Z</time>
      </trkpt>
      <trkpt lat="46.55946" lon="5.6008">
        <ele>549.2</ele>
        <time>2022-03-21T16:32:22Z</time>
      </trkpt>
      <trkpt lat="46.55945" lon="5.60089">
        <ele>549.2</ele>
        <time>2022-03-21T16:32:23Z</time>
      </trkpt>
      <trkpt lat="46.55942" lon="5.60099">
        <ele>549</ele>
        <time>2022-03-21T16:32:24Z</time>
      </trkpt>
      <trkpt lat="46.5594" lon="5.60108">
        <ele>549</ele>
        <time>2022-03-21T16:32:25Z</time>
      </trkpt>
      <trkpt lat="46.55937" lon="5.60118">
        <ele>548.6</ele>
        <time>2022-03-21T16:32:26Z</time>
      </trkpt>
      <trkpt lat="46.55935" lon="5.60129">
        <ele>548.6</ele>
        <time>2022-03-21T16:32:27Z</time>
      </trkpt>
      <trkpt lat="46.55932" lon="5.60139">
        <ele>548.2</ele>
        <time>2022-03-21T16:32:28Z</time>
      </trkpt>
      <trkpt lat="46.5593" lon="5.6015">
        <ele>548</ele>
        <time>2022-03-21T16:32:29Z</time>
      </trkpt>
      <trkpt lat="46.55928" lon="5.60161">
        <ele>548</ele>
        <time>2022-03-21T16:32:30Z</time>
      </trkpt>
      <trkpt lat="46.55927" lon="5.60172">
        <ele>547.8</ele>
        <time>2022-03-21T16:32:31Z</time>
      </trkpt>
      <trkpt lat="46.55927" lon="5.60183">
        <ele>547.8</ele>
        <time>2022-03-21T16:32:32Z</time>
      </trkpt>
      <trkpt lat="46.55927" lon="5.60194">
        <ele>547.8</ele>
        <time>2022-03-21T16:32:33Z</time>
      </trkpt>
      <trkpt lat="46.55928" lon="5.60204">
        <ele>547.8</ele>
        <time>2022-03-21T16:32:34Z</time>
      </trkpt>
      <trkpt lat="46.55928" lon="5.60214">
        <ele>547.8</ele>
        <time>2022-03-21T16:32:35Z</time>
      </trkpt>
      <trkpt lat="46.55929" lon="5.60224">
        <ele>547.8</ele>
        <time>2022-03-21T16:32:36Z</time>
      </trkpt>
      <trkpt lat="46.5593" lon="5.60234">
        <ele>547.8</ele>
        <time>2022-03-21T16:32:37Z</time>
      </trkpt>
      <trkpt lat="46.55931" lon="5.60245">
        <ele>547.4</ele>
        <time>2022-03-21T16:32:38Z</time>
      </trkpt>
      <trkpt lat="46.55931" lon="5.60256">
        <ele>547.4</ele>
        <time>2022-03-21T16:32:39Z</time>
      </trkpt>
      <trkpt lat="46.55931" lon="5.60267">
        <ele>547</ele>
        <time>2022-03-21T16:32:40Z</time>
      </trkpt>
      <trkpt lat="46.55931" lon="5.60279">
        <ele>546.8</ele>
        <time>2022-03-21T16:32:41Z</time>
      </trkpt>
      <trkpt lat="46.5593" lon="5.6029">
        <ele>546.6</ele>
        <time>2022-03-21T16:32:42Z</time>
      </trkpt>
      <trkpt lat="46.55931" lon="5.60302">
        <ele>546.2</ele>
        <time>2022-03-21T16:32:43Z</time>
      </trkpt>
      <trkpt lat="46.55931" lon="5.60314">
        <ele>545.8</ele>
        <time>2022-03-21T16:32:44Z</time>
      </trkpt>
      <trkpt lat="46.55933" lon="5.60327">
        <ele>545.4</ele>
        <time>2022-03-21T16:32:45Z</time>
      </trkpt>
      <trkpt lat="46.55935" lon="5.60341">
        <ele>544.8</ele>
        <time>2022-03-21T16:32:46Z</time>
      </trkpt>
      <trkpt lat="46.55939" lon="5.60355">
        <ele>544</ele>
        <time>2022-03-21T16:32:47Z</time>
      </trkpt>
      <trkpt lat="46.55942" lon="5.60367">
        <ele>543.2</ele>
        <time>2022-03-21T16:32:48Z</time>
      </trkpt>
      <trkpt lat="46.55944" lon="5.6038">
        <ele>542.4</ele>
        <time>2022-03-21T16:32:49Z</time>
      </trkpt>
      <trkpt lat="46.55944" lon="5.60394">
        <ele>541.6</ele>
        <time>2022-03-21T16:32:50Z</time>
      </trkpt>
      <trkpt lat="46.55941" lon="5.60409">
        <ele>540.6</ele>
        <time>2022-03-21T16:32:51Z</time>
      </trkpt>
      <trkpt lat="46.55939" lon="5.60423">
        <ele>539.6</ele>
        <time>2022-03-21T16:32:52Z</time>
      </trkpt>
      <trkpt lat="46.55934" lon="5.60438">
        <ele>538.8</ele>
        <time>2022-03-21T16:32:53Z</time>
      </trkpt>
      <trkpt lat="46.55931" lon="5.60453">
        <ele>537.6</ele>
        <time>2022-03-21T16:32:54Z</time>
      </trkpt>
      <trkpt lat="46.55927" lon="5.60468">
        <ele>536.6</ele>
        <time>2022-03-21T16:32:55Z</time>
      </trkpt>
      <trkpt lat="46.55924" lon="5.60484">
        <ele>535.8</ele>
        <time>2022-03-21T16:32:56Z</time>
      </trkpt>
      <trkpt lat="46.55921" lon="5.605">
        <ele>534.8</ele>
        <time>2022-03-21T16:32:57Z</time>
      </trkpt>
      <trkpt lat="46.55919" lon="5.60514">
        <ele>534.2</ele>
        <time>2022-03-21T16:32:58Z</time>
      </trkpt>
      <trkpt lat="46.55916" lon="5.60527">
        <ele>533.6</ele>
        <time>2022-03-21T16:32:59Z</time>
      </trkpt>
      <trkpt lat="46.55913" lon="5.60538">
        <ele>533</ele>
        <time>2022-03-21T16:33:00Z</time>
      </trkpt>
      <trkpt lat="46.5591" lon="5.60548">
        <ele>532.6</ele>
        <time>2022-03-21T16:33:01Z</time>
      </trkpt>
      <trkpt lat="46.55906" lon="5.60557">
        <ele>532.4</ele>
        <time>2022-03-21T16:33:02Z</time>
      </trkpt>
      <trkpt lat="46.55901" lon="5.60564">
        <ele>532</ele>
        <time>2022-03-21T16:33:03Z</time>
      </trkpt>
      <trkpt lat="46.55897" lon="5.6057">
        <ele>531.8</ele>
        <time>2022-03-21T16:33:04Z</time>
      </trkpt>
      <trkpt lat="46.55893" lon="5.60575">
        <ele>531.8</ele>
        <time>2022-03-21T16:33:05Z</time>
      </trkpt>
      <trkpt lat="46.5589" lon="5.6058">
        <ele>531.8</ele>
        <time>2022-03-21T16:33:06Z</time>
      </trkpt>
      <trkpt lat="46.55888" lon="5.60586">
        <ele>531.8</ele>
        <time>2022-03-21T16:33:07Z</time>
      </trkpt>
      <trkpt lat="46.55888" lon="5.60593">
        <ele>531.4</ele>
        <time>2022-03-21T16:33:08Z</time>
      </trkpt>
      <trkpt lat="46.55889" lon="5.606">
        <ele>531.4</ele>
        <time>2022-03-21T16:33:09Z</time>
      </trkpt>
      <trkpt lat="46.55891" lon="5.60607">
        <ele>531.4</ele>
        <time>2022-03-21T16:33:10Z</time>
      </trkpt>
      <trkpt lat="46.55893" lon="5.60613">
        <ele>531.4</ele>
        <time>2022-03-21T16:33:11Z</time>
      </trkpt>
      <trkpt lat="46.55895" lon="5.6062">
        <ele>531.4</ele>
        <time>2022-03-21T16:33:12Z</time>
      </trkpt>
      <trkpt lat="46.55897" lon="5.60627">
        <ele>531.4</ele>
        <time>2022-03-21T16:33:13Z</time>
      </trkpt>
      <trkpt lat="46.55899" lon="5.60633">
        <ele>531.4</ele>
        <time>2022-03-21T16:33:14Z</time>
      </trkpt>
      <trkpt lat="46.559" lon="5.6064">
        <ele>531.4</ele>
        <time>2022-03-21T16:33:15Z</time>
      </trkpt>
      <trkpt lat="46.55902" lon="5.60646">
        <ele>531.8</ele>
        <time>2022-03-21T16:33:16Z</time>
      </trkpt>
      <trkpt lat="46.55903" lon="5.60653">
        <ele>531.8</ele>
        <time>2022-03-21T16:33:17Z</time>
      </trkpt>
      <trkpt lat="46.55905" lon="5.60659">
        <ele>531.8</ele>
        <time>2022-03-21T16:33:18Z</time>
      </trkpt>
      <trkpt lat="46.55907" lon="5.60665">
        <ele>532</ele>
        <time>2022-03-21T16:33:19Z</time>
      </trkpt>
      <trkpt lat="46.55908" lon="5.60672">
        <ele>532</ele>
        <time>2022-03-21T16:33:20Z</time>
      </trkpt>
      <trkpt lat="46.5591" lon="5.60678">
        <ele>532</ele>
        <time>2022-03-21T16:33:21Z</time>
      </trkpt>
      <trkpt lat="46.55911" lon="5.60685">
        <ele>532.2</ele>
        <time>2022-03-21T16:33:22Z</time>
      </trkpt>
      <trkpt lat="46.55912" lon="5.60691">
        <ele>532.2</ele>
        <time>2022-03-21T16:33:23Z</time>
      </trkpt>
      <trkpt lat="46.55914" lon="5.60698">
        <ele>532.6</ele>
        <time>2022-03-21T16:33:24Z</time>
      </trkpt>
      <trkpt lat="46.55915" lon="5.60704">
        <ele>532.6</ele>
        <time>2022-03-21T16:33:25Z</time>
      </trkpt>
      <trkpt lat="46.55917" lon="5.60711">
        <ele>532.6</ele>
        <time>2022-03-21T16:33:26Z</time>
      </trkpt>
      <trkpt lat="46.55918" lon="5.60717">
        <ele>532.8</ele>
        <time>2022-03-21T16:33:27Z</time>
      </trkpt>
      <trkpt lat="46.5592" lon="5.60723">
        <ele>532.8</ele>
        <time>2022-03-21T16:33:28Z</time>
      </trkpt>
      <trkpt lat="46.55921" lon="5.60729">
        <ele>533.2</ele>
        <time>2022-03-21T16:33:29Z</time>
      </trkpt>
      <trkpt lat="46.55922" lon="5.60736">
        <ele>533.2</ele>
        <time>2022-03-21T16:33:30Z</time>
      </trkpt>
      <trkpt lat="46.55923" lon="5.60742">
        <ele>533.4</ele>
        <time>2022-03-21T16:33:31Z</time>
      </trkpt>
      <trkpt lat="46.55925" lon="5.60749">
        <ele>533.4</ele>
        <time>2022-03-21T16:33:32Z</time>
      </trkpt>
      <trkpt lat="46.55926" lon="5.60756">
        <ele>533.4</ele>
        <time>2022-03-21T16:33:33Z</time>
      </trkpt>
      <trkpt lat="46.55928" lon="5.60762">
        <ele>533.6</ele>
        <time>2022-03-21T16:33:34Z</time>
      </trkpt>
      <trkpt lat="46.55929" lon="5.60769">
        <ele>533.6</ele>
        <time>2022-03-21T16:33:35Z</time>
      </trkpt>
      <trkpt lat="46.5593" lon="5.60775">
        <ele>533.6</ele>
        <time>2022-03-21T16:33:36Z</time>
      </trkpt>
      <trkpt lat="46.5593" lon="5.60782">
        <ele>533.8</ele>
        <time>2022-03-21T16:33:37Z</time>
      </trkpt>
      <trkpt lat="46.55931" lon="5.60789">
        <ele>533.8</ele>
        <time>2022-03-21T16:33:38Z</time>
      </trkpt>
      <trkpt lat="46.55931" lon="5.60796">
        <ele>533.8</ele>
        <time>2022-03-21T16:33:39Z</time>
      </trkpt>
      <trkpt lat="46.55931" lon="5.60803">
        <ele>533.8</ele>
        <time>2022-03-21T16:33:40Z</time>
      </trkpt>
      <trkpt lat="46.55932" lon="5.60811">
        <ele>533.8</ele>
        <time>2022-03-21T16:33:41Z</time>
      </trkpt>
      <trkpt lat="46.55932" lon="5.60818">
        <ele>533.8</ele>
        <time>2022-03-21T16:33:42Z</time>
      </trkpt>
      <trkpt lat="46.55933" lon="5.60826">
        <ele>534</ele>
        <time>2022-03-21T16:33:43Z</time>
      </trkpt>
      <trkpt lat="46.55933" lon="5.60833">
        <ele>534</ele>
        <time>2022-03-21T16:33:44Z</time>
      </trkpt>
      <trkpt lat="46.55934" lon="5.60841">
        <ele>534</ele>
        <time>2022-03-21T16:33:45Z</time>
      </trkpt>
      <trkpt lat="46.55934" lon="5.60849">
        <ele>534</ele>
        <time>2022-03-21T16:33:46Z</time>
      </trkpt>
      <trkpt lat="46.55935" lon="5.60857">
        <ele>534</ele>
        <time>2022-03-21T16:33:47Z</time>
      </trkpt>
      <trkpt lat="46.55935" lon="5.60866">
        <ele>534</ele>
        <time>2022-03-21T16:33:48Z</time>
      </trkpt>
      <trkpt lat="46.55936" lon="5.60874">
        <ele>534</ele>
        <time>2022-03-21T16:33:49Z</time>
      </trkpt>
      <trkpt lat="46.55937" lon="5.60883">
        <ele>533.8</ele>
        <time>2022-03-21T16:33:50Z</time>
      </trkpt>
      <trkpt lat="46.55938" lon="5.60892">
        <ele>533.8</ele>
        <time>2022-03-21T16:33:51Z</time>
      </trkpt>
      <trkpt lat="46.5594" lon="5.609">
        <ele>533.8</ele>
        <time>2022-03-21T16:33:52Z</time>
      </trkpt>
      <trkpt lat="46.55941" lon="5.60909">
        <ele>533.8</ele>
        <time>2022-03-21T16:33:53Z</time>
      </trkpt>
      <trkpt lat="46.55943" lon="5.60918">
        <ele>533.8</ele>
        <time>2022-03-21T16:33:54Z</time>
      </trkpt>
      <trkpt lat="46.55945" lon="5.60927">
        <ele>533.8</ele>
        <time>2022-03-21T16:33:55Z</time>
      </trkpt>
      <trkpt lat="46.55947" lon="5.60936">
        <ele>533.8</ele>
        <time>2022-03-21T16:33:56Z</time>
      </trkpt>
      <trkpt lat="46.5595" lon="5.60945">
        <ele>533.8</ele>
        <time>2022-03-21T16:33:57Z</time>
      </trkpt>
      <trkpt lat="46.55952" lon="5.60954">
        <ele>533.8</ele>
        <time>2022-03-21T16:33:58Z</time>
      </trkpt>
      <trkpt lat="46.55954" lon="5.60963">
        <ele>533.6</ele>
        <time>2022-03-21T16:33:59Z</time>
      </trkpt>
      <trkpt lat="46.55956" lon="5.60972">
        <ele>533.6</ele>
        <time>2022-03-21T16:34:00Z</time>
      </trkpt>
      <trkpt lat="46.55958" lon="5.60981">
        <ele>533.6</ele>
        <time>2022-03-21T16:34:01Z</time>
      </trkpt>
      <trkpt lat="46.55961" lon="5.6099">
        <ele>533.4</ele>
        <time>2022-03-21T16:34:02Z</time>
      </trkpt>
      <trkpt lat="46.55963" lon="5.60999">
        <ele>533.4</ele>
        <time>2022-03-21T16:34:03Z</time>
      </trkpt>
      <trkpt lat="46.55965" lon="5.61008">
        <ele>533.4</ele>
        <time>2022-03-21T16:34:04Z</time>
      </trkpt>
      <trkpt lat="46.55968" lon="5.61017">
        <ele>533.4</ele>
        <time>2022-03-21T16:34:05Z</time>
      </trkpt>
      <trkpt lat="46.5597" lon="5.61027">
        <ele>533.2</ele>
        <time>2022-03-21T16:34:06Z</time>
      </trkpt>
      <trkpt lat="46.55972" lon="5.61036">
        <ele>533.2</ele>
        <time>2022-03-21T16:34:07Z</time>
      </trkpt>
      <trkpt lat="46.55974" lon="5.61045">
        <ele>533.2</ele>
        <time>2022-03-21T16:34:08Z</time>
      </trkpt>
      <trkpt lat="46.55976" lon="5.61055">
        <ele>533.2</ele>
        <time>2022-03-21T16:34:09Z</time>
      </trkpt>
      <trkpt lat="46.55979" lon="5.61064">
        <ele>533.2</ele>
        <time>2022-03-21T16:34:10Z</time>
      </trkpt>
      <trkpt lat="46.55982" lon="5.61073">
        <ele>533</ele>
        <time>2022-03-21T16:34:11Z</time>
      </trkpt>
      <trkpt lat="46.55985" lon="5.61081">
        <ele>533</ele>
        <time>2022-03-21T16:34:12Z</time>
      </trkpt>
      <trkpt lat="46.55988" lon="5.6109">
        <ele>533</ele>
        <time>2022-03-21T16:34:13Z</time>
      </trkpt>
      <trkpt lat="46.55992" lon="5.61099">
        <ele>533</ele>
        <time>2022-03-21T16:34:14Z</time>
      </trkpt>
      <trkpt lat="46.55996" lon="5.61107">
        <ele>532.6</ele>
        <time>2022-03-21T16:34:15Z</time>
      </trkpt>
      <trkpt lat="46.55999" lon="5.61116">
        <ele>532.6</ele>
        <time>2022-03-21T16:34:16Z</time>
      </trkpt>
      <trkpt lat="46.56003" lon="5.61124">
        <ele>532.6</ele>
        <time>2022-03-21T16:34:17Z</time>
      </trkpt>
      <trkpt lat="46.56008" lon="5.61132">
        <ele>532.4</ele>
        <time>2022-03-21T16:34:18Z</time>
      </trkpt>
      <trkpt lat="46.56012" lon="5.61141">
        <ele>532.4</ele>
        <time>2022-03-21T16:34:19Z</time>
      </trkpt>
      <trkpt lat="46.56016" lon="5.61149">
        <ele>532.4</ele>
        <time>2022-03-21T16:34:20Z</time>
      </trkpt>
      <trkpt lat="46.5602" lon="5.61158">
        <ele>532.2</ele>
        <time>2022-03-21T16:34:21Z</time>
      </trkpt>
      <trkpt lat="46.56024" lon="5.61167">
        <ele>532.2</ele>
        <time>2022-03-21T16:34:22Z</time>
      </trkpt>
      <trkpt lat="46.56029" lon="5.61176">
        <ele>532</ele>
        <time>2022-03-21T16:34:23Z</time>
      </trkpt>
      <trkpt lat="46.56033" lon="5.61184">
        <ele>532</ele>
        <time>2022-03-21T16:34:24Z</time>
      </trkpt>
      <trkpt lat="46.56038" lon="5.61193">
        <ele>531.8</ele>
        <time>2022-03-21T16:34:25Z</time>
      </trkpt>
      <trkpt lat="46.56042" lon="5.61202">
        <ele>531.8</ele>
        <time>2022-03-21T16:34:26Z</time>
      </trkpt>
      <trkpt lat="46.56046" lon="5.61211">
        <ele>531.4</ele>
        <time>2022-03-21T16:34:27Z</time>
      </trkpt>
      <trkpt lat="46.56051" lon="5.61221">
        <ele>531.4</ele>
        <time>2022-03-21T16:34:28Z</time>
      </trkpt>
      <trkpt lat="46.56056" lon="5.6123">
        <ele>531.2</ele>
        <time>2022-03-21T16:34:29Z</time>
      </trkpt>
      <trkpt lat="46.56061" lon="5.61239">
        <ele>531.2</ele>
        <time>2022-03-21T16:34:30Z</time>
      </trkpt>
      <trkpt lat="46.56065" lon="5.61248">
        <ele>530.8</ele>
        <time>2022-03-21T16:34:31Z</time>
      </trkpt>
      <trkpt lat="46.5607" lon="5.61258">
        <ele>530.8</ele>
        <time>2022-03-21T16:34:32Z</time>
      </trkpt>
      <trkpt lat="46.56074" lon="5.61268">
        <ele>530.4</ele>
        <time>2022-03-21T16:34:33Z</time>
      </trkpt>
      <trkpt lat="46.56079" lon="5.61278">
        <ele>530.4</ele>
        <time>2022-03-21T16:34:34Z</time>
      </trkpt>
      <trkpt lat="46.56084" lon="5.61287">
        <ele>530</ele>
        <time>2022-03-21T16:34:35Z</time>
      </trkpt>
      <trkpt lat="46.56088" lon="5.61297">
        <ele>529.8</ele>
        <time>2022-03-21T16:34:36Z</time>
      </trkpt>
      <trkpt lat="46.56093" lon="5.61307">
        <ele>529.6</ele>
        <time>2022-03-21T16:34:37Z</time>
      </trkpt>
      <trkpt lat="46.56098" lon="5.61316">
        <ele>529.4</ele>
        <time>2022-03-21T16:34:38Z</time>
      </trkpt>
      <trkpt lat="46.56103" lon="5.61326">
        <ele>529.4</ele>
        <time>2022-03-21T16:34:39Z</time>
      </trkpt>
      <trkpt lat="46.56108" lon="5.61336">
        <ele>529</ele>
        <time>2022-03-21T16:34:40Z</time>
      </trkpt>
      <trkpt lat="46.56113" lon="5.61346">
        <ele>529</ele>
        <time>2022-03-21T16:34:41Z</time>
      </trkpt>
      <trkpt lat="46.56118" lon="5.61356">
        <ele>529</ele>
        <time>2022-03-21T16:34:42Z</time>
      </trkpt>
      <trkpt lat="46.56123" lon="5.61366">
        <ele>528.8</ele>
        <time>2022-03-21T16:34:43Z</time>
      </trkpt>
      <trkpt lat="46.56127" lon="5.61376">
        <ele>528.8</ele>
        <time>2022-03-21T16:34:44Z</time>
      </trkpt>
      <trkpt lat="46.56132" lon="5.61386">
        <ele>528.8</ele>
        <time>2022-03-21T16:34:45Z</time>
      </trkpt>
      <trkpt lat="46.56137" lon="5.61396">
        <ele>528.8</ele>
        <time>2022-03-21T16:34:46Z</time>
      </trkpt>
      <trkpt lat="46.56142" lon="5.61405">
        <ele>528.6</ele>
        <time>2022-03-21T16:34:47Z</time>
      </trkpt>
      <trkpt lat="46.56147" lon="5.61415">
        <ele>528.6</ele>
        <time>2022-03-21T16:34:48Z</time>
      </trkpt>
      <trkpt lat="46.56152" lon="5.61424">
        <ele>528.6</ele>
        <time>2022-03-21T16:34:49Z</time>
      </trkpt>
      <trkpt lat="46.56156" lon="5.61434">
        <ele>528.6</ele>
        <time>2022-03-21T16:34:50Z</time>
      </trkpt>
      <trkpt lat="46.56161" lon="5.61443">
        <ele>528.6</ele>
        <time>2022-03-21T16:34:51Z</time>
      </trkpt>
      <trkpt lat="46.56165" lon="5.61452">
        <ele>528.6</ele>
        <time>2022-03-21T16:34:52Z</time>
      </trkpt>
      <trkpt lat="46.5617" lon="5.6146">
        <ele>528.6</ele>
        <time>2022-03-21T16:34:53Z</time>
      </trkpt>
      <trkpt lat="46.56174" lon="5.61469">
        <ele>528.6</ele>
        <time>2022-03-21T16:34:54Z</time>
      </trkpt>
      <trkpt lat="46.56178" lon="5.61477">
        <ele>528.6</ele>
        <time>2022-03-21T16:34:55Z</time>
      </trkpt>
      <trkpt lat="46.56182" lon="5.61486">
        <ele>528.6</ele>
        <time>2022-03-21T16:34:56Z</time>
      </trkpt>
      <trkpt lat="46.56186" lon="5.61494">
        <ele>528.6</ele>
        <time>2022-03-21T16:34:57Z</time>
      </trkpt>
      <trkpt lat="46.5619" lon="5.61502">
        <ele>528.6</ele>
        <time>2022-03-21T16:34:58Z</time>
      </trkpt>
      <trkpt lat="46.56194" lon="5.6151">
        <ele>528.6</ele>
        <time>2022-03-21T16:34:59Z</time>
      </trkpt>
      <trkpt lat="46.56198" lon="5.61518">
        <ele>528.6</ele>
        <time>2022-03-21T16:35:00Z</time>
      </trkpt>
      <trkpt lat="46.56202" lon="5.61526">
        <ele>528.6</ele>
        <time>2022-03-21T16:35:01Z</time>
      </trkpt>
      <trkpt lat="46.56205" lon="5.61534">
        <ele>528.6</ele>
        <time>2022-03-21T16:35:02Z</time>
      </trkpt>
      <trkpt lat="46.56209" lon="5.61542">
        <ele>528.6</ele>
        <time>2022-03-21T16:35:03Z</time>
      </trkpt>
      <trkpt lat="46.56213" lon="5.6155">
        <ele>528.6</ele>
        <time>2022-03-21T16:35:04Z</time>
      </trkpt>
      <trkpt lat="46.56218" lon="5.61558">
        <ele>528.6</ele>
        <time>2022-03-21T16:35:05Z</time>
      </trkpt>
      <trkpt lat="46.56222" lon="5.61566">
        <ele>528.6</ele>
        <time>2022-03-21T16:35:06Z</time>
      </trkpt>
      <trkpt lat="46.56226" lon="5.61573">
        <ele>528.6</ele>
        <time>2022-03-21T16:35:07Z</time>
      </trkpt>
      <trkpt lat="46.5623" lon="5.61581">
        <ele>528.6</ele>
        <time>2022-03-21T16:35:08Z</time>
      </trkpt>
      <trkpt lat="46.56234" lon="5.61589">
        <ele>528.6</ele>
        <time>2022-03-21T16:35:09Z</time>
      </trkpt>
      <trkpt lat="46.56238" lon="5.61596">
        <ele>528.6</ele>
        <time>2022-03-21T16:35:10Z</time>
      </trkpt>
      <trkpt lat="46.56242" lon="5.61604">
        <ele>528.6</ele>
        <time>2022-03-21T16:35:11Z</time>
      </trkpt>
      <trkpt lat="46.56247" lon="5.61611">
        <ele>528.6</ele>
        <time>2022-03-21T16:35:12Z</time>
      </trkpt>
      <trkpt lat="46.56251" lon="5.61618">
        <ele>528.6</ele>
        <time>2022-03-21T16:35:13Z</time>
      </trkpt>
      <trkpt lat="46.56256" lon="5.61625">
        <ele>528.6</ele>
        <time>2022-03-21T16:35:14Z</time>
      </trkpt>
      <trkpt lat="46.5626" lon="5.61632">
        <ele>528.6</ele>
        <time>2022-03-21T16:35:15Z</time>
      </trkpt>
      <trkpt lat="46.56265" lon="5.61639">
        <ele>528.6</ele>
        <time>2022-03-21T16:35:16Z</time>
      </trkpt>
      <trkpt lat="46.5627" lon="5.61645">
        <ele>528.6</ele>
        <time>2022-03-21T16:35:17Z</time>
      </trkpt>
      <trkpt lat="46.56275" lon="5.61652">
        <ele>528.4</ele>
        <time>2022-03-21T16:35:18Z</time>
      </trkpt>
      <trkpt lat="46.5628" lon="5.61659">
        <ele>528.4</ele>
        <time>2022-03-21T16:35:19Z</time>
      </trkpt>
      <trkpt lat="46.56285" lon="5.61665">
        <ele>528.4</ele>
        <time>2022-03-21T16:35:20Z</time>
      </trkpt>
      <trkpt lat="46.56291" lon="5.61672">
        <ele>528.2</ele>
        <time>2022-03-21T16:35:21Z</time>
      </trkpt>
      <trkpt lat="46.56296" lon="5.61679">
        <ele>528.2</ele>
        <time>2022-03-21T16:35:22Z</time>
      </trkpt>
      <trkpt lat="46.56301" lon="5.61685">
        <ele>528.2</ele>
        <time>2022-03-21T16:35:23Z</time>
      </trkpt>
      <trkpt lat="46.56306" lon="5.61692">
        <ele>528.2</ele>
        <time>2022-03-21T16:35:24Z</time>
      </trkpt>
      <trkpt lat="46.56312" lon="5.61699">
        <ele>527.8</ele>
        <time>2022-03-21T16:35:25Z</time>
      </trkpt>
      <trkpt lat="46.56317" lon="5.61705">
        <ele>527.8</ele>
        <time>2022-03-21T16:35:26Z</time>
      </trkpt>
      <trkpt lat="46.56323" lon="5.61712">
        <ele>527.6</ele>
        <time>2022-03-21T16:35:27Z</time>
      </trkpt>
      <trkpt lat="46.56328" lon="5.61719">
        <ele>527.6</ele>
        <time>2022-03-21T16:35:28Z</time>
      </trkpt>
      <trkpt lat="46.56333" lon="5.61726">
        <ele>527.6</ele>
        <time>2022-03-21T16:35:29Z</time>
      </trkpt>
      <trkpt lat="46.56339" lon="5.61733">
        <ele>527.4</ele>
        <time>2022-03-21T16:35:30Z</time>
      </trkpt>
      <trkpt lat="46.56344" lon="5.6174">
        <ele>527.4</ele>
        <time>2022-03-21T16:35:31Z</time>
      </trkpt>
      <trkpt lat="46.5635" lon="5.61747">
        <ele>527.4</ele>
        <time>2022-03-21T16:35:32Z</time>
      </trkpt>
      <trkpt lat="46.56355" lon="5.61754">
        <ele>527.4</ele>
        <time>2022-03-21T16:35:33Z</time>
      </trkpt>
      <trkpt lat="46.56361" lon="5.61761">
        <ele>527.4</ele>
        <time>2022-03-21T16:35:34Z</time>
      </trkpt>
      <trkpt lat="46.56367" lon="5.61768">
        <ele>527.2</ele>
        <time>2022-03-21T16:35:35Z</time>
      </trkpt>
      <trkpt lat="46.56372" lon="5.61775">
        <ele>527.2</ele>
        <time>2022-03-21T16:35:36Z</time>
      </trkpt>
      <trkpt lat="46.56377" lon="5.61782">
        <ele>527.2</ele>
        <time>2022-03-21T16:35:37Z</time>
      </trkpt>
      <trkpt lat="46.56383" lon="5.61789">
        <ele>527.2</ele>
        <time>2022-03-21T16:35:38Z</time>
      </trkpt>
      <trkpt lat="46.56388" lon="5.61796">
        <ele>527.2</ele>
        <time>2022-03-21T16:35:40Z</time>
      </trkpt>
      <trkpt lat="46.56393" lon="5.61803">
        <ele>527.2</ele>
        <time>2022-03-21T16:35:41Z</time>
      </trkpt>
      <trkpt lat="46.56399" lon="5.61809">
        <ele>527.2</ele>
        <time>2022-03-21T16:35:42Z</time>
      </trkpt>
      <trkpt lat="46.56404" lon="5.61816">
        <ele>527.2</ele>
        <time>2022-03-21T16:35:43Z</time>
      </trkpt>
      <trkpt lat="46.5641" lon="5.61822">
        <ele>527.2</ele>
        <time>2022-03-21T16:35:44Z</time>
      </trkpt>
      <trkpt lat="46.56415" lon="5.61828">
        <ele>527.2</ele>
        <time>2022-03-21T16:35:45Z</time>
      </trkpt>
      <trkpt lat="46.56421" lon="5.61834">
        <ele>527</ele>
        <time>2022-03-21T16:35:46Z</time>
      </trkpt>
      <trkpt lat="46.56426" lon="5.6184">
        <ele>527</ele>
        <time>2022-03-21T16:35:47Z</time>
      </trkpt>
      <trkpt lat="46.56432" lon="5.61846">
        <ele>527</ele>
        <time>2022-03-21T16:35:48Z</time>
      </trkpt>
      <trkpt lat="46.56438" lon="5.61851">
        <ele>527</ele>
        <time>2022-03-21T16:35:49Z</time>
      </trkpt>
      <trkpt lat="46.56443" lon="5.61857">
        <ele>526.8</ele>
        <time>2022-03-21T16:35:50Z</time>
      </trkpt>
      <trkpt lat="46.56449" lon="5.61862">
        <ele>526.8</ele>
        <time>2022-03-21T16:35:51Z</time>
      </trkpt>
      <trkpt lat="46.56455" lon="5.61868">
        <ele>526.8</ele>
        <time>2022-03-21T16:35:52Z</time>
      </trkpt>
      <trkpt lat="46.56467" lon="5.61879">
        <ele>526.8</ele>
        <time>2022-03-21T16:35:53Z</time>
      </trkpt>
      <trkpt lat="46.56472" lon="5.61884">
        <ele>526.4</ele>
        <time>2022-03-21T16:35:54Z</time>
      </trkpt>
      <trkpt lat="46.56478" lon="5.61889">
        <ele>526.4</ele>
        <time>2022-03-21T16:35:55Z</time>
      </trkpt>
      <trkpt lat="46.56484" lon="5.61895">
        <ele>526.4</ele>
        <time>2022-03-21T16:35:56Z</time>
      </trkpt>
      <trkpt lat="46.5649" lon="5.619">
        <ele>526.2</ele>
        <time>2022-03-21T16:35:57Z</time>
      </trkpt>
      <trkpt lat="46.56496" lon="5.61905">
        <ele>526.2</ele>
        <time>2022-03-21T16:35:58Z</time>
      </trkpt>
      <trkpt lat="46.56501" lon="5.61911">
        <ele>526.2</ele>
        <time>2022-03-21T16:35:59Z</time>
      </trkpt>
      <trkpt lat="46.56507" lon="5.61916">
        <ele>526</ele>
        <time>2022-03-21T16:36:00Z</time>
      </trkpt>
      <trkpt lat="46.56513" lon="5.61922">
        <ele>526</ele>
        <time>2022-03-21T16:36:01Z</time>
      </trkpt>
      <trkpt lat="46.56519" lon="5.61927">
        <ele>525.8</ele>
        <time>2022-03-21T16:36:02Z</time>
      </trkpt>
      <trkpt lat="46.56525" lon="5.61933">
        <ele>525.8</ele>
        <time>2022-03-21T16:36:03Z</time>
      </trkpt>
      <trkpt lat="46.56531" lon="5.61938">
        <ele>525.8</ele>
        <time>2022-03-21T16:36:04Z</time>
      </trkpt>
      <trkpt lat="46.56537" lon="5.61944">
        <ele>525.8</ele>
        <time>2022-03-21T16:36:05Z</time>
      </trkpt>
      <trkpt lat="46.56543" lon="5.61949">
        <ele>525.4</ele>
        <time>2022-03-21T16:36:06Z</time>
      </trkpt>
      <trkpt lat="46.5655" lon="5.61955">
        <ele>525.4</ele>
        <time>2022-03-21T16:36:07Z</time>
      </trkpt>
      <trkpt lat="46.56556" lon="5.61961">
        <ele>525.4</ele>
        <time>2022-03-21T16:36:08Z</time>
      </trkpt>
      <trkpt lat="46.56562" lon="5.61967">
        <ele>525.4</ele>
        <time>2022-03-21T16:36:09Z</time>
      </trkpt>
      <trkpt lat="46.56568" lon="5.61972">
        <ele>525.4</ele>
        <time>2022-03-21T16:36:10Z</time>
      </trkpt>
      <trkpt lat="46.56574" lon="5.61978">
        <ele>525.2</ele>
        <time>2022-03-21T16:36:11Z</time>
      </trkpt>
      <trkpt lat="46.56581" lon="5.61984">
        <ele>525.2</ele>
        <time>2022-03-21T16:36:12Z</time>
      </trkpt>
      <trkpt lat="46.56587" lon="5.6199">
        <ele>525</ele>
        <time>2022-03-21T16:36:13Z</time>
      </trkpt>
      <trkpt lat="46.56593" lon="5.61996">
        <ele>525</ele>
        <time>2022-03-21T16:36:14Z</time>
      </trkpt>
      <trkpt lat="46.56599" lon="5.62002">
        <ele>524.8</ele>
        <time>2022-03-21T16:36:15Z</time>
      </trkpt>
      <trkpt lat="46.56606" lon="5.62008">
        <ele>524.8</ele>
        <time>2022-03-21T16:36:16Z</time>
      </trkpt>
      <trkpt lat="46.56612" lon="5.62013">
        <ele>524.8</ele>
        <time>2022-03-21T16:36:17Z</time>
      </trkpt>
      <trkpt lat="46.56618" lon="5.62019">
        <ele>524.6</ele>
        <time>2022-03-21T16:36:18Z</time>
      </trkpt>
      <trkpt lat="46.56625" lon="5.62025">
        <ele>524.6</ele>
        <time>2022-03-21T16:36:19Z</time>
      </trkpt>
      <trkpt lat="46.56631" lon="5.62031">
        <ele>524.6</ele>
        <time>2022-03-21T16:36:20Z</time>
      </trkpt>
      <trkpt lat="46.56637" lon="5.62037">
        <ele>524.6</ele>
        <time>2022-03-21T16:36:21Z</time>
      </trkpt>
      <trkpt lat="46.56643" lon="5.62043">
        <ele>524.4</ele>
        <time>2022-03-21T16:36:22Z</time>
      </trkpt>
      <trkpt lat="46.5665" lon="5.62049">
        <ele>524.4</ele>
        <time>2022-03-21T16:36:23Z</time>
      </trkpt>
      <trkpt lat="46.56656" lon="5.62055">
        <ele>524.4</ele>
        <time>2022-03-21T16:36:24Z</time>
      </trkpt>
      <trkpt lat="46.56662" lon="5.6206">
        <ele>524.4</ele>
        <time>2022-03-21T16:36:25Z</time>
      </trkpt>
      <trkpt lat="46.56668" lon="5.62066">
        <ele>524.4</ele>
        <time>2022-03-21T16:36:26Z</time>
      </trkpt>
      <trkpt lat="46.56674" lon="5.62072">
        <ele>524.4</ele>
        <time>2022-03-21T16:36:27Z</time>
      </trkpt>
      <trkpt lat="46.5668" lon="5.62077">
        <ele>524.2</ele>
        <time>2022-03-21T16:36:28Z</time>
      </trkpt>
      <trkpt lat="46.56686" lon="5.62083">
        <ele>524.2</ele>
        <time>2022-03-21T16:36:29Z</time>
      </trkpt>
      <trkpt lat="46.56692" lon="5.62088">
        <ele>524.2</ele>
        <time>2022-03-21T16:36:30Z</time>
      </trkpt>
      <trkpt lat="46.56698" lon="5.62094">
        <ele>524.2</ele>
        <time>2022-03-21T16:36:31Z</time>
      </trkpt>
      <trkpt lat="46.56704" lon="5.62099">
        <ele>524.4</ele>
        <time>2022-03-21T16:36:32Z</time>
      </trkpt>
      <trkpt lat="46.56709" lon="5.62105">
        <ele>524.4</ele>
        <time>2022-03-21T16:36:33Z</time>
      </trkpt>
      <trkpt lat="46.56715" lon="5.6211">
        <ele>524.4</ele>
        <time>2022-03-21T16:36:34Z</time>
      </trkpt>
      <trkpt lat="46.5672" lon="5.62115">
        <ele>524.6</ele>
        <time>2022-03-21T16:36:35Z</time>
      </trkpt>
      <trkpt lat="46.56726" lon="5.6212">
        <ele>524.6</ele>
        <time>2022-03-21T16:36:36Z</time>
      </trkpt>
      <trkpt lat="46.56731" lon="5.62125">
        <ele>524.8</ele>
        <time>2022-03-21T16:36:37Z</time>
      </trkpt>
      <trkpt lat="46.56737" lon="5.6213">
        <ele>524.8</ele>
        <time>2022-03-21T16:36:38Z</time>
      </trkpt>
      <trkpt lat="46.56742" lon="5.62135">
        <ele>524.8</ele>
        <time>2022-03-21T16:36:39Z</time>
      </trkpt>
      <trkpt lat="46.56747" lon="5.6214">
        <ele>525.2</ele>
        <time>2022-03-21T16:36:40Z</time>
      </trkpt>
      <trkpt lat="46.56753" lon="5.62145">
        <ele>525.2</ele>
        <time>2022-03-21T16:36:41Z</time>
      </trkpt>
      <trkpt lat="46.56758" lon="5.6215">
        <ele>525.2</ele>
        <time>2022-03-21T16:36:42Z</time>
      </trkpt>
      <trkpt lat="46.56763" lon="5.62154">
        <ele>525.2</ele>
        <time>2022-03-21T16:36:43Z</time>
      </trkpt>
      <trkpt lat="46.56768" lon="5.62159">
        <ele>525.4</ele>
        <time>2022-03-21T16:36:44Z</time>
      </trkpt>
      <trkpt lat="46.56772" lon="5.62163">
        <ele>525.4</ele>
        <time>2022-03-21T16:36:45Z</time>
      </trkpt>
      <trkpt lat="46.56777" lon="5.62168">
        <ele>525.6</ele>
        <time>2022-03-21T16:36:46Z</time>
      </trkpt>
      <trkpt lat="46.56782" lon="5.62172">
        <ele>525.6</ele>
        <time>2022-03-21T16:36:47Z</time>
      </trkpt>
      <trkpt lat="46.56787" lon="5.62177">
        <ele>526</ele>
        <time>2022-03-21T16:36:48Z</time>
      </trkpt>
      <trkpt lat="46.56791" lon="5.62181">
        <ele>526</ele>
        <time>2022-03-21T16:36:49Z</time>
      </trkpt>
      <trkpt lat="46.56796" lon="5.62185">
        <ele>526.2</ele>
        <time>2022-03-21T16:36:50Z</time>
      </trkpt>
      <trkpt lat="46.568" lon="5.62189">
        <ele>526.2</ele>
        <time>2022-03-21T16:36:51Z</time>
      </trkpt>
      <trkpt lat="46.56805" lon="5.62193">
        <ele>526.4</ele>
        <time>2022-03-21T16:36:52Z</time>
      </trkpt>
      <trkpt lat="46.56809" lon="5.62197">
        <ele>526.4</ele>
        <time>2022-03-21T16:36:53Z</time>
      </trkpt>
      <trkpt lat="46.56813" lon="5.62201">
        <ele>526.6</ele>
        <time>2022-03-21T16:36:54Z</time>
      </trkpt>
      <trkpt lat="46.56818" lon="5.62205">
        <ele>526.6</ele>
        <time>2022-03-21T16:36:55Z</time>
      </trkpt>
      <trkpt lat="46.56822" lon="5.6221">
        <ele>526.6</ele>
        <time>2022-03-21T16:36:56Z</time>
      </trkpt>
      <trkpt lat="46.56826" lon="5.62214">
        <ele>527</ele>
        <time>2022-03-21T16:36:57Z</time>
      </trkpt>
      <trkpt lat="46.5683" lon="5.62218">
        <ele>527</ele>
        <time>2022-03-21T16:36:58Z</time>
      </trkpt>
      <trkpt lat="46.56835" lon="5.62222">
        <ele>527</ele>
        <time>2022-03-21T16:36:59Z</time>
      </trkpt>
      <trkpt lat="46.56839" lon="5.62226">
        <ele>527</ele>
        <time>2022-03-21T16:37:00Z</time>
      </trkpt>
      <trkpt lat="46.56844" lon="5.6223">
        <ele>527.4</ele>
        <time>2022-03-21T16:37:01Z</time>
      </trkpt>
      <trkpt lat="46.56848" lon="5.62234">
        <ele>527.4</ele>
        <time>2022-03-21T16:37:02Z</time>
      </trkpt>
      <trkpt lat="46.56853" lon="5.62238">
        <ele>527.6</ele>
        <time>2022-03-21T16:37:03Z</time>
      </trkpt>
      <trkpt lat="46.56857" lon="5.62243">
        <ele>527.6</ele>
        <time>2022-03-21T16:37:04Z</time>
      </trkpt>
      <trkpt lat="46.56862" lon="5.62247">
        <ele>527.6</ele>
        <time>2022-03-21T16:37:05Z</time>
      </trkpt>
      <trkpt lat="46.56866" lon="5.62251">
        <ele>527.8</ele>
        <time>2022-03-21T16:37:06Z</time>
      </trkpt>
      <trkpt lat="46.56871" lon="5.62256">
        <ele>527.8</ele>
        <time>2022-03-21T16:37:07Z</time>
      </trkpt>
      <trkpt lat="46.56875" lon="5.6226">
        <ele>527.8</ele>
        <time>2022-03-21T16:37:08Z</time>
      </trkpt>
      <trkpt lat="46.56879" lon="5.62264">
        <ele>527.8</ele>
        <time>2022-03-21T16:37:09Z</time>
      </trkpt>
      <trkpt lat="46.56884" lon="5.62268">
        <ele>527.8</ele>
        <time>2022-03-21T16:37:10Z</time>
      </trkpt>
      <trkpt lat="46.56888" lon="5.62272">
        <ele>527.8</ele>
        <time>2022-03-21T16:37:11Z</time>
      </trkpt>
      <trkpt lat="46.56893" lon="5.62276">
        <ele>528</ele>
        <time>2022-03-21T16:37:12Z</time>
      </trkpt>
      <trkpt lat="46.56897" lon="5.62281">
        <ele>528</ele>
        <time>2022-03-21T16:37:13Z</time>
      </trkpt>
      <trkpt lat="46.56902" lon="5.62285">
        <ele>528</ele>
        <time>2022-03-21T16:37:14Z</time>
      </trkpt>
      <trkpt lat="46.56906" lon="5.62289">
        <ele>528</ele>
        <time>2022-03-21T16:37:15Z</time>
      </trkpt>
      <trkpt lat="46.56911" lon="5.62293">
        <ele>528.2</ele>
        <time>2022-03-21T16:37:16Z</time>
      </trkpt>
      <trkpt lat="46.56915" lon="5.62298">
        <ele>528.2</ele>
        <time>2022-03-21T16:37:17Z</time>
      </trkpt>
      <trkpt lat="46.5692" lon="5.62302">
        <ele>528.2</ele>
        <time>2022-03-21T16:37:18Z</time>
      </trkpt>
      <trkpt lat="46.56924" lon="5.62306">
        <ele>528.2</ele>
        <time>2022-03-21T16:37:19Z</time>
      </trkpt>
      <trkpt lat="46.56929" lon="5.6231">
        <ele>528.2</ele>
        <time>2022-03-21T16:37:20Z</time>
      </trkpt>
      <trkpt lat="46.56933" lon="5.62315">
        <ele>528.6</ele>
        <time>2022-03-21T16:37:21Z</time>
      </trkpt>
      <trkpt lat="46.56937" lon="5.62319">
        <ele>528.6</ele>
        <time>2022-03-21T16:37:22Z</time>
      </trkpt>
      <trkpt lat="46.56942" lon="5.62323">
        <ele>528.6</ele>
        <time>2022-03-21T16:37:23Z</time>
      </trkpt>
      <trkpt lat="46.56946" lon="5.62328">
        <ele>528.8</ele>
        <time>2022-03-21T16:37:24Z</time>
      </trkpt>
      <trkpt lat="46.56951" lon="5.62332">
        <ele>528.8</ele>
        <time>2022-03-21T16:37:25Z</time>
      </trkpt>
      <trkpt lat="46.56955" lon="5.62336">
        <ele>528.8</ele>
        <time>2022-03-21T16:37:26Z</time>
      </trkpt>
      <trkpt lat="46.5696" lon="5.6234">
        <ele>529</ele>
        <time>2022-03-21T16:37:27Z</time>
      </trkpt>
      <trkpt lat="46.56964" lon="5.62345">
        <ele>529</ele>
        <time>2022-03-21T16:37:28Z</time>
      </trkpt>
      <trkpt lat="46.56968" lon="5.62349">
        <ele>529</ele>
        <time>2022-03-21T16:37:29Z</time>
      </trkpt>
      <trkpt lat="46.56973" lon="5.62354">
        <ele>529</ele>
        <time>2022-03-21T16:37:30Z</time>
      </trkpt>
      <trkpt lat="46.56977" lon="5.62358">
        <ele>529</ele>
        <time>2022-03-21T16:37:31Z</time>
      </trkpt>
      <trkpt lat="46.56981" lon="5.62363">
        <ele>529</ele>
        <time>2022-03-21T16:37:32Z</time>
      </trkpt>
      <trkpt lat="46.56985" lon="5.62367">
        <ele>529</ele>
        <time>2022-03-21T16:37:33Z</time>
      </trkpt>
      <trkpt lat="46.5699" lon="5.62372">
        <ele>529.4</ele>
        <time>2022-03-21T16:37:34Z</time>
      </trkpt>
      <trkpt lat="46.56994" lon="5.62376">
        <ele>529.4</ele>
        <time>2022-03-21T16:37:35Z</time>
      </trkpt>
      <trkpt lat="46.56998" lon="5.62381">
        <ele>529.4</ele>
        <time>2022-03-21T16:37:36Z</time>
      </trkpt>
      <trkpt lat="46.57003" lon="5.62385">
        <ele>529.4</ele>
        <time>2022-03-21T16:37:37Z</time>
      </trkpt>
      <trkpt lat="46.57008" lon="5.62389">
        <ele>529.4</ele>
        <time>2022-03-21T16:37:38Z</time>
      </trkpt>
      <trkpt lat="46.57013" lon="5.62394">
        <ele>529.4</ele>
        <time>2022-03-21T16:37:39Z</time>
      </trkpt>
      <trkpt lat="46.57017" lon="5.62398">
        <ele>529.4</ele>
        <time>2022-03-21T16:37:40Z</time>
      </trkpt>
      <trkpt lat="46.57022" lon="5.62403">
        <ele>529.4</ele>
        <time>2022-03-21T16:37:41Z</time>
      </trkpt>
      <trkpt lat="46.57027" lon="5.62408">
        <ele>529.4</ele>
        <time>2022-03-21T16:37:42Z</time>
      </trkpt>
      <trkpt lat="46.57033" lon="5.62412">
        <ele>529.4</ele>
        <time>2022-03-21T16:37:43Z</time>
      </trkpt>
      <trkpt lat="46.57038" lon="5.62417">
        <ele>529.4</ele>
        <time>2022-03-21T16:37:44Z</time>
      </trkpt>
      <trkpt lat="46.57043" lon="5.62422">
        <ele>529.4</ele>
        <time>2022-03-21T16:37:45Z</time>
      </trkpt>
      <trkpt lat="46.57048" lon="5.62427">
        <ele>529.4</ele>
        <time>2022-03-21T16:37:46Z</time>
      </trkpt>
      <trkpt lat="46.57053" lon="5.62432">
        <ele>529.4</ele>
        <time>2022-03-21T16:37:47Z</time>
      </trkpt>
      <trkpt lat="46.57058" lon="5.62437">
        <ele>529.4</ele>
        <time>2022-03-21T16:37:48Z</time>
      </trkpt>
      <trkpt lat="46.57064" lon="5.62442">
        <ele>529.4</ele>
        <time>2022-03-21T16:37:49Z</time>
      </trkpt>
      <trkpt lat="46.57069" lon="5.62446">
        <ele>529.4</ele>
        <time>2022-03-21T16:37:50Z</time>
      </trkpt>
      <trkpt lat="46.57075" lon="5.62451">
        <ele>529.4</ele>
        <time>2022-03-21T16:37:51Z</time>
      </trkpt>
      <trkpt lat="46.5708" lon="5.62456">
        <ele>529.4</ele>
        <time>2022-03-21T16:37:52Z</time>
      </trkpt>
      <trkpt lat="46.57085" lon="5.62461">
        <ele>529.4</ele>
        <time>2022-03-21T16:37:53Z</time>
      </trkpt>
      <trkpt lat="46.5709" lon="5.62466">
        <ele>529.4</ele>
        <time>2022-03-21T16:37:54Z</time>
      </trkpt>
      <trkpt lat="46.57095" lon="5.62471">
        <ele>529.4</ele>
        <time>2022-03-21T16:37:55Z</time>
      </trkpt>
      <trkpt lat="46.57101" lon="5.62475">
        <ele>529.4</ele>
        <time>2022-03-21T16:37:56Z</time>
      </trkpt>
      <trkpt lat="46.57106" lon="5.6248">
        <ele>529.4</ele>
        <time>2022-03-21T16:37:57Z</time>
      </trkpt>
      <trkpt lat="46.57111" lon="5.62484">
        <ele>529.4</ele>
        <time>2022-03-21T16:37:58Z</time>
      </trkpt>
      <trkpt lat="46.57117" lon="5.62489">
        <ele>529.4</ele>
        <time>2022-03-21T16:37:59Z</time>
      </trkpt>
      <trkpt lat="46.57122" lon="5.62492">
        <ele>529.4</ele>
        <time>2022-03-21T16:38:00Z</time>
      </trkpt>
      <trkpt lat="46.57128" lon="5.62496">
        <ele>529.4</ele>
        <time>2022-03-21T16:38:01Z</time>
      </trkpt>
      <trkpt lat="46.57134" lon="5.62499">
        <ele>529.4</ele>
        <time>2022-03-21T16:38:02Z</time>
      </trkpt>
      <trkpt lat="46.5714" lon="5.62502">
        <ele>529.4</ele>
        <time>2022-03-21T16:38:03Z</time>
      </trkpt>
      <trkpt lat="46.57145" lon="5.62503">
        <ele>529.4</ele>
        <time>2022-03-21T16:38:04Z</time>
      </trkpt>
      <trkpt lat="46.57152" lon="5.62505">
        <ele>529.4</ele>
        <time>2022-03-21T16:38:05Z</time>
      </trkpt>
      <trkpt lat="46.57158" lon="5.62505">
        <ele>529.4</ele>
        <time>2022-03-21T16:38:06Z</time>
      </trkpt>
      <trkpt lat="46.57164" lon="5.62506">
        <ele>529.4</ele>
        <time>2022-03-21T16:38:07Z</time>
      </trkpt>
      <trkpt lat="46.5717" lon="5.62505">
        <ele>529.4</ele>
        <time>2022-03-21T16:38:08Z</time>
      </trkpt>
      <trkpt lat="46.57176" lon="5.62504">
        <ele>529.4</ele>
        <time>2022-03-21T16:38:09Z</time>
      </trkpt>
      <trkpt lat="46.57183" lon="5.62503">
        <ele>529.4</ele>
        <time>2022-03-21T16:38:10Z</time>
      </trkpt>
      <trkpt lat="46.57189" lon="5.62502">
        <ele>529</ele>
        <time>2022-03-21T16:38:11Z</time>
      </trkpt>
      <trkpt lat="46.57196" lon="5.62501">
        <ele>529</ele>
        <time>2022-03-21T16:38:12Z</time>
      </trkpt>
      <trkpt lat="46.57202" lon="5.62499">
        <ele>528.8</ele>
        <time>2022-03-21T16:38:13Z</time>
      </trkpt>
      <trkpt lat="46.57209" lon="5.62498">
        <ele>528.8</ele>
        <time>2022-03-21T16:38:14Z</time>
      </trkpt>
      <trkpt lat="46.57215" lon="5.62497">
        <ele>528.6</ele>
        <time>2022-03-21T16:38:15Z</time>
      </trkpt>
      <trkpt lat="46.57222" lon="5.62497">
        <ele>528.6</ele>
        <time>2022-03-21T16:38:16Z</time>
      </trkpt>
      <trkpt lat="46.57229" lon="5.62496">
        <ele>528.6</ele>
        <time>2022-03-21T16:38:17Z</time>
      </trkpt>
      <trkpt lat="46.57235" lon="5.62497">
        <ele>528.6</ele>
        <time>2022-03-21T16:38:18Z</time>
      </trkpt>
      <trkpt lat="46.57242" lon="5.62497">
        <ele>528.6</ele>
        <time>2022-03-21T16:38:19Z</time>
      </trkpt>
      <trkpt lat="46.57248" lon="5.62498">
        <ele>528.2</ele>
        <time>2022-03-21T16:38:20Z</time>
      </trkpt>
      <trkpt lat="46.57255" lon="5.625">
        <ele>528.2</ele>
        <time>2022-03-21T16:38:21Z</time>
      </trkpt>
      <trkpt lat="46.57262" lon="5.62501">
        <ele>528.2</ele>
        <time>2022-03-21T16:38:22Z</time>
      </trkpt>
      <trkpt lat="46.57268" lon="5.62503">
        <ele>528.2</ele>
        <time>2022-03-21T16:38:23Z</time>
      </trkpt>
      <trkpt lat="46.57275" lon="5.62505">
        <ele>528.2</ele>
        <time>2022-03-21T16:38:24Z</time>
      </trkpt>
      <trkpt lat="46.57281" lon="5.62507">
        <ele>528.2</ele>
        <time>2022-03-21T16:38:25Z</time>
      </trkpt>
      <trkpt lat="46.57288" lon="5.62509">
        <ele>528</ele>
        <time>2022-03-21T16:38:26Z</time>
      </trkpt>
      <trkpt lat="46.57294" lon="5.62511">
        <ele>528</ele>
        <time>2022-03-21T16:38:27Z</time>
      </trkpt>
      <trkpt lat="46.57301" lon="5.62513">
        <ele>528</ele>
        <time>2022-03-21T16:38:28Z</time>
      </trkpt>
      <trkpt lat="46.57307" lon="5.62515">
        <ele>528</ele>
        <time>2022-03-21T16:38:29Z</time>
      </trkpt>
      <trkpt lat="46.57313" lon="5.62517">
        <ele>528</ele>
        <time>2022-03-21T16:38:30Z</time>
      </trkpt>
      <trkpt lat="46.5732" lon="5.62518">
        <ele>528</ele>
        <time>2022-03-21T16:38:31Z</time>
      </trkpt>
      <trkpt lat="46.57326" lon="5.6252">
        <ele>528</ele>
        <time>2022-03-21T16:38:32Z</time>
      </trkpt>
      <trkpt lat="46.57333" lon="5.62522">
        <ele>528</ele>
        <time>2022-03-21T16:38:33Z</time>
      </trkpt>
      <trkpt lat="46.57339" lon="5.62524">
        <ele>528</ele>
        <time>2022-03-21T16:38:34Z</time>
      </trkpt>
      <trkpt lat="46.57346" lon="5.62526">
        <ele>527.8</ele>
        <time>2022-03-21T16:38:35Z</time>
      </trkpt>
      <trkpt lat="46.57352" lon="5.62528">
        <ele>527.8</ele>
        <time>2022-03-21T16:38:36Z</time>
      </trkpt>
      <trkpt lat="46.57359" lon="5.6253">
        <ele>527.8</ele>
        <time>2022-03-21T16:38:37Z</time>
      </trkpt>
      <trkpt lat="46.57365" lon="5.62532">
        <ele>527.8</ele>
        <time>2022-03-21T16:38:38Z</time>
      </trkpt>
      <trkpt lat="46.57372" lon="5.62534">
        <ele>527.8</ele>
        <time>2022-03-21T16:38:39Z</time>
      </trkpt>
      <trkpt lat="46.57379" lon="5.62536">
        <ele>527.8</ele>
        <time>2022-03-21T16:38:40Z</time>
      </trkpt>
      <trkpt lat="46.57385" lon="5.62539">
        <ele>527.8</ele>
        <time>2022-03-21T16:38:41Z</time>
      </trkpt>
      <trkpt lat="46.57391" lon="5.62542">
        <ele>527.8</ele>
        <time>2022-03-21T16:38:42Z</time>
      </trkpt>
      <trkpt lat="46.57398" lon="5.62546">
        <ele>527.8</ele>
        <time>2022-03-21T16:38:43Z</time>
      </trkpt>
      <trkpt lat="46.57403" lon="5.6255">
        <ele>527.6</ele>
        <time>2022-03-21T16:38:44Z</time>
      </trkpt>
      <trkpt lat="46.57409" lon="5.62555">
        <ele>527.6</ele>
        <time>2022-03-21T16:38:45Z</time>
      </trkpt>
      <trkpt lat="46.57415" lon="5.62559">
        <ele>527.6</ele>
        <time>2022-03-21T16:38:46Z</time>
      </trkpt>
      <trkpt lat="46.57421" lon="5.62564">
        <ele>527.6</ele>
        <time>2022-03-21T16:38:47Z</time>
      </trkpt>
      <trkpt lat="46.57427" lon="5.62569">
        <ele>527.6</ele>
        <time>2022-03-21T16:38:48Z</time>
      </trkpt>
      <trkpt lat="46.57433" lon="5.62574">
        <ele>527.6</ele>
        <time>2022-03-21T16:38:49Z</time>
      </trkpt>
      <trkpt lat="46.57438" lon="5.62579">
        <ele>527.6</ele>
        <time>2022-03-21T16:38:50Z</time>
      </trkpt>
      <trkpt lat="46.57444" lon="5.62584">
        <ele>527.4</ele>
        <time>2022-03-21T16:38:51Z</time>
      </trkpt>
      <trkpt lat="46.57449" lon="5.62589">
        <ele>527.4</ele>
        <time>2022-03-21T16:38:52Z</time>
      </trkpt>
      <trkpt lat="46.57455" lon="5.62594">
        <ele>527.4</ele>
        <time>2022-03-21T16:38:53Z</time>
      </trkpt>
      <trkpt lat="46.5746" lon="5.62599">
        <ele>527.4</ele>
        <time>2022-03-21T16:38:54Z</time>
      </trkpt>
      <trkpt lat="46.57466" lon="5.62604">
        <ele>527.4</ele>
        <time>2022-03-21T16:38:55Z</time>
      </trkpt>
      <trkpt lat="46.57472" lon="5.62609">
        <ele>527.4</ele>
        <time>2022-03-21T16:38:56Z</time>
      </trkpt>
      <trkpt lat="46.57477" lon="5.62614">
        <ele>527.6</ele>
        <time>2022-03-21T16:38:57Z</time>
      </trkpt>
      <trkpt lat="46.57482" lon="5.6262">
        <ele>527.6</ele>
        <time>2022-03-21T16:38:58Z</time>
      </trkpt>
      <trkpt lat="46.57488" lon="5.62625">
        <ele>527.6</ele>
        <time>2022-03-21T16:38:59Z</time>
      </trkpt>
      <trkpt lat="46.57494" lon="5.62629">
        <ele>527.6</ele>
        <time>2022-03-21T16:39:00Z</time>
      </trkpt>
      <trkpt lat="46.57499" lon="5.62634">
        <ele>527.6</ele>
        <time>2022-03-21T16:39:01Z</time>
      </trkpt>
      <trkpt lat="46.57505" lon="5.6264">
        <ele>527.8</ele>
        <time>2022-03-21T16:39:02Z</time>
      </trkpt>
      <trkpt lat="46.5751" lon="5.62645">
        <ele>527.8</ele>
        <time>2022-03-21T16:39:03Z</time>
      </trkpt>
      <trkpt lat="46.57516" lon="5.62649">
        <ele>527.8</ele>
        <time>2022-03-21T16:39:04Z</time>
      </trkpt>
      <trkpt lat="46.57521" lon="5.62654">
        <ele>527.8</ele>
        <time>2022-03-21T16:39:05Z</time>
      </trkpt>
      <trkpt lat="46.57526" lon="5.62659">
        <ele>528.2</ele>
        <time>2022-03-21T16:39:06Z</time>
      </trkpt>
      <trkpt lat="46.57532" lon="5.62664">
        <ele>528.2</ele>
        <time>2022-03-21T16:39:07Z</time>
      </trkpt>
      <trkpt lat="46.57537" lon="5.62669">
        <ele>528.2</ele>
        <time>2022-03-21T16:39:08Z</time>
      </trkpt>
      <trkpt lat="46.57543" lon="5.62674">
        <ele>528.4</ele>
        <time>2022-03-21T16:39:09Z</time>
      </trkpt>
      <trkpt lat="46.57548" lon="5.62678">
        <ele>528.4</ele>
        <time>2022-03-21T16:39:10Z</time>
      </trkpt>
      <trkpt lat="46.57553" lon="5.62683">
        <ele>528.4</ele>
        <time>2022-03-21T16:39:11Z</time>
      </trkpt>
      <trkpt lat="46.57558" lon="5.62688">
        <ele>528.4</ele>
        <time>2022-03-21T16:39:12Z</time>
      </trkpt>
      <trkpt lat="46.57563" lon="5.62692">
        <ele>528.8</ele>
        <time>2022-03-21T16:39:13Z</time>
      </trkpt>
      <trkpt lat="46.57568" lon="5.62696">
        <ele>528.8</ele>
        <time>2022-03-21T16:39:14Z</time>
      </trkpt>
      <trkpt lat="46.57573" lon="5.627">
        <ele>529</ele>
        <time>2022-03-21T16:39:15Z</time>
      </trkpt>
      <trkpt lat="46.57578" lon="5.62703">
        <ele>529</ele>
        <time>2022-03-21T16:39:16Z</time>
      </trkpt>
      <trkpt lat="46.57583" lon="5.62706">
        <ele>529.2</ele>
        <time>2022-03-21T16:39:17Z</time>
      </trkpt>
      <trkpt lat="46.57588" lon="5.62709">
        <ele>529.2</ele>
        <time>2022-03-21T16:39:18Z</time>
      </trkpt>
      <trkpt lat="46.57593" lon="5.62712">
        <ele>529.6</ele>
        <time>2022-03-21T16:39:19Z</time>
      </trkpt>
      <trkpt lat="46.57598" lon="5.62715">
        <ele>529.6</ele>
        <time>2022-03-21T16:39:20Z</time>
      </trkpt>
      <trkpt lat="46.57603" lon="5.62718">
        <ele>529.8</ele>
        <time>2022-03-21T16:39:21Z</time>
      </trkpt>
      <trkpt lat="46.57608" lon="5.6272">
        <ele>529.8</ele>
        <time>2022-03-21T16:39:22Z</time>
      </trkpt>
      <trkpt lat="46.57613" lon="5.62722">
        <ele>530.2</ele>
        <time>2022-03-21T16:39:24Z</time>
      </trkpt>
      <trkpt lat="46.57618" lon="5.62725">
        <ele>530.6</ele>
        <time>2022-03-21T16:39:25Z</time>
      </trkpt>
      <trkpt lat="46.57622" lon="5.62728">
        <ele>530.6</ele>
        <time>2022-03-21T16:39:26Z</time>
      </trkpt>
      <trkpt lat="46.57627" lon="5.6273">
        <ele>530.6</ele>
        <time>2022-03-21T16:39:27Z</time>
      </trkpt>
      <trkpt lat="46.57632" lon="5.62733">
        <ele>530.6</ele>
        <time>2022-03-21T16:39:28Z</time>
      </trkpt>
      <trkpt lat="46.57637" lon="5.62735">
        <ele>530.8</ele>
        <time>2022-03-21T16:39:29Z</time>
      </trkpt>
      <trkpt lat="46.57642" lon="5.62737">
        <ele>530.8</ele>
        <time>2022-03-21T16:39:30Z</time>
      </trkpt>
      <trkpt lat="46.57646" lon="5.62739">
        <ele>531</ele>
        <time>2022-03-21T16:39:31Z</time>
      </trkpt>
      <trkpt lat="46.57651" lon="5.62742">
        <ele>531</ele>
        <time>2022-03-21T16:39:32Z</time>
      </trkpt>
      <trkpt lat="46.57656" lon="5.62744">
        <ele>531.2</ele>
        <time>2022-03-21T16:39:33Z</time>
      </trkpt>
      <trkpt lat="46.5766" lon="5.62746">
        <ele>531.2</ele>
        <time>2022-03-21T16:39:34Z</time>
      </trkpt>
      <trkpt lat="46.5767" lon="5.62751">
        <ele>531.6</ele>
        <time>2022-03-21T16:39:35Z</time>
      </trkpt>
      <trkpt lat="46.57674" lon="5.62753">
        <ele>531.6</ele>
        <time>2022-03-21T16:39:36Z</time>
      </trkpt>
      <trkpt lat="46.57679" lon="5.62756">
        <ele>531.8</ele>
        <time>2022-03-21T16:39:37Z</time>
      </trkpt>
      <trkpt lat="46.57683" lon="5.62758">
        <ele>531.8</ele>
        <time>2022-03-21T16:39:38Z</time>
      </trkpt>
      <trkpt lat="46.57688" lon="5.6276">
        <ele>532</ele>
        <time>2022-03-21T16:39:39Z</time>
      </trkpt>
      <trkpt lat="46.57693" lon="5.62763">
        <ele>532</ele>
        <time>2022-03-21T16:39:40Z</time>
      </trkpt>
      <trkpt lat="46.57697" lon="5.62765">
        <ele>532</ele>
        <time>2022-03-21T16:39:41Z</time>
      </trkpt>
      <trkpt lat="46.57702" lon="5.62767">
        <ele>532</ele>
        <time>2022-03-21T16:39:42Z</time>
      </trkpt>
      <trkpt lat="46.57706" lon="5.62769">
        <ele>532.2</ele>
        <time>2022-03-21T16:39:43Z</time>
      </trkpt>
      <trkpt lat="46.57711" lon="5.62772">
        <ele>532.2</ele>
        <time>2022-03-21T16:39:44Z</time>
      </trkpt>
      <trkpt lat="46.57715" lon="5.62774">
        <ele>532.4</ele>
        <time>2022-03-21T16:39:45Z</time>
      </trkpt>
      <trkpt lat="46.5772" lon="5.62776">
        <ele>532.4</ele>
        <time>2022-03-21T16:39:46Z</time>
      </trkpt>
      <trkpt lat="46.57724" lon="5.62778">
        <ele>532.8</ele>
        <time>2022-03-21T16:39:47Z</time>
      </trkpt>
      <trkpt lat="46.57729" lon="5.6278">
        <ele>532.8</ele>
        <time>2022-03-21T16:39:48Z</time>
      </trkpt>
      <trkpt lat="46.57733" lon="5.62782">
        <ele>533.2</ele>
        <time>2022-03-21T16:39:49Z</time>
      </trkpt>
      <trkpt lat="46.57738" lon="5.62785">
        <ele>533.2</ele>
        <time>2022-03-21T16:39:50Z</time>
      </trkpt>
      <trkpt lat="46.57742" lon="5.62787">
        <ele>533.4</ele>
        <time>2022-03-21T16:39:51Z</time>
      </trkpt>
      <trkpt lat="46.57747" lon="5.62789">
        <ele>533.4</ele>
        <time>2022-03-21T16:39:52Z</time>
      </trkpt>
      <trkpt lat="46.57751" lon="5.62792">
        <ele>533.4</ele>
        <time>2022-03-21T16:39:53Z</time>
      </trkpt>
      <trkpt lat="46.57756" lon="5.62794">
        <ele>533.6</ele>
        <time>2022-03-21T16:39:54Z</time>
      </trkpt>
      <trkpt lat="46.5776" lon="5.62796">
        <ele>533.6</ele>
        <time>2022-03-21T16:39:55Z</time>
      </trkpt>
      <trkpt lat="46.57765" lon="5.62798">
        <ele>533.8</ele>
        <time>2022-03-21T16:39:56Z</time>
      </trkpt>
      <trkpt lat="46.57769" lon="5.628">
        <ele>533.8</ele>
        <time>2022-03-21T16:39:57Z</time>
      </trkpt>
      <trkpt lat="46.57773" lon="5.62802">
        <ele>534</ele>
        <time>2022-03-21T16:39:58Z</time>
      </trkpt>
      <trkpt lat="46.57778" lon="5.62804">
        <ele>534</ele>
        <time>2022-03-21T16:39:59Z</time>
      </trkpt>
      <trkpt lat="46.57783" lon="5.62805">
        <ele>534.4</ele>
        <time>2022-03-21T16:40:00Z</time>
      </trkpt>
      <trkpt lat="46.57787" lon="5.62807">
        <ele>534.4</ele>
        <time>2022-03-21T16:40:01Z</time>
      </trkpt>
      <trkpt lat="46.57792" lon="5.62809">
        <ele>534.4</ele>
        <time>2022-03-21T16:40:02Z</time>
      </trkpt>
      <trkpt lat="46.57796" lon="5.62811">
        <ele>534.6</ele>
        <time>2022-03-21T16:40:03Z</time>
      </trkpt>
      <trkpt lat="46.57801" lon="5.62813">
        <ele>534.6</ele>
        <time>2022-03-21T16:40:04Z</time>
      </trkpt>
      <trkpt lat="46.57805" lon="5.62815">
        <ele>534.8</ele>
        <time>2022-03-21T16:40:05Z</time>
      </trkpt>
      <trkpt lat="46.5781" lon="5.62816">
        <ele>534.8</ele>
        <time>2022-03-21T16:40:06Z</time>
      </trkpt>
      <trkpt lat="46.57815" lon="5.62818">
        <ele>534.8</ele>
        <time>2022-03-21T16:40:07Z</time>
      </trkpt>
      <trkpt lat="46.57819" lon="5.62819">
        <ele>535</ele>
        <time>2022-03-21T16:40:08Z</time>
      </trkpt>
      <trkpt lat="46.57824" lon="5.62821">
        <ele>535</ele>
        <time>2022-03-21T16:40:09Z</time>
      </trkpt>
      <trkpt lat="46.57829" lon="5.62822">
        <ele>535.4</ele>
        <time>2022-03-21T16:40:10Z</time>
      </trkpt>
      <trkpt lat="46.57833" lon="5.62824">
        <ele>535.4</ele>
        <time>2022-03-21T16:40:11Z</time>
      </trkpt>
      <trkpt lat="46.57838" lon="5.62825">
        <ele>535.4</ele>
        <time>2022-03-21T16:40:12Z</time>
      </trkpt>
      <trkpt lat="46.57843" lon="5.62826">
        <ele>535.6</ele>
        <time>2022-03-21T16:40:13Z</time>
      </trkpt>
      <trkpt lat="46.57848" lon="5.62827">
        <ele>535.6</ele>
        <time>2022-03-21T16:40:14Z</time>
      </trkpt>
      <trkpt lat="46.57853" lon="5.62828">
        <ele>535.8</ele>
        <time>2022-03-21T16:40:15Z</time>
      </trkpt>
      <trkpt lat="46.57857" lon="5.6283">
        <ele>535.8</ele>
        <time>2022-03-21T16:40:16Z</time>
      </trkpt>
      <trkpt lat="46.57862" lon="5.62831">
        <ele>535.8</ele>
        <time>2022-03-21T16:40:17Z</time>
      </trkpt>
      <trkpt lat="46.57867" lon="5.62833">
        <ele>536.2</ele>
        <time>2022-03-21T16:40:18Z</time>
      </trkpt>
      <trkpt lat="46.57871" lon="5.62834">
        <ele>536.2</ele>
        <time>2022-03-21T16:40:19Z</time>
      </trkpt>
      <trkpt lat="46.57876" lon="5.62835">
        <ele>536.2</ele>
        <time>2022-03-21T16:40:20Z</time>
      </trkpt>
      <trkpt lat="46.57881" lon="5.62836">
        <ele>536.4</ele>
        <time>2022-03-21T16:40:21Z</time>
      </trkpt>
      <trkpt lat="46.57886" lon="5.62838">
        <ele>536.4</ele>
        <time>2022-03-21T16:40:22Z</time>
      </trkpt>
      <trkpt lat="46.5789" lon="5.62839">
        <ele>536.6</ele>
        <time>2022-03-21T16:40:23Z</time>
      </trkpt>
      <trkpt lat="46.57895" lon="5.6284">
        <ele>536.6</ele>
        <time>2022-03-21T16:40:24Z</time>
      </trkpt>
      <trkpt lat="46.579" lon="5.62842">
        <ele>536.6</ele>
        <time>2022-03-21T16:40:25Z</time>
      </trkpt>
      <trkpt lat="46.57905" lon="5.62843">
        <ele>536.8</ele>
        <time>2022-03-21T16:40:26Z</time>
      </trkpt>
      <trkpt lat="46.5791" lon="5.62844">
        <ele>536.8</ele>
        <time>2022-03-21T16:40:27Z</time>
      </trkpt>
      <trkpt lat="46.57914" lon="5.62845">
        <ele>537</ele>
        <time>2022-03-21T16:40:28Z</time>
      </trkpt>
      <trkpt lat="46.57919" lon="5.62847">
        <ele>537</ele>
        <time>2022-03-21T16:40:29Z</time>
      </trkpt>
      <trkpt lat="46.57924" lon="5.62849">
        <ele>537.2</ele>
        <time>2022-03-21T16:40:30Z</time>
      </trkpt>
      <trkpt lat="46.57928" lon="5.6285">
        <ele>537.2</ele>
        <time>2022-03-21T16:40:31Z</time>
      </trkpt>
      <trkpt lat="46.57933" lon="5.62852">
        <ele>537.6</ele>
        <time>2022-03-21T16:40:32Z</time>
      </trkpt>
      <trkpt lat="46.57938" lon="5.62854">
        <ele>537.6</ele>
        <time>2022-03-21T16:40:33Z</time>
      </trkpt>
      <trkpt lat="46.57942" lon="5.62855">
        <ele>537.8</ele>
        <time>2022-03-21T16:40:34Z</time>
      </trkpt>
      <trkpt lat="46.57947" lon="5.62857">
        <ele>537.8</ele>
        <time>2022-03-21T16:40:35Z</time>
      </trkpt>
      <trkpt lat="46.57951" lon="5.62858">
        <ele>538</ele>
        <time>2022-03-21T16:40:36Z</time>
      </trkpt>
      <trkpt lat="46.57956" lon="5.6286">
        <ele>538</ele>
        <time>2022-03-21T16:40:37Z</time>
      </trkpt>
      <trkpt lat="46.5796" lon="5.62862">
        <ele>538</ele>
        <time>2022-03-21T16:40:38Z</time>
      </trkpt>
      <trkpt lat="46.57965" lon="5.62865">
        <ele>538.2</ele>
        <time>2022-03-21T16:40:39Z</time>
      </trkpt>
      <trkpt lat="46.57969" lon="5.62867">
        <ele>538.2</ele>
        <time>2022-03-21T16:40:40Z</time>
      </trkpt>
      <trkpt lat="46.57973" lon="5.62869">
        <ele>538.2</ele>
        <time>2022-03-21T16:40:41Z</time>
      </trkpt>
      <trkpt lat="46.57978" lon="5.62872">
        <ele>538.2</ele>
        <time>2022-03-21T16:40:42Z</time>
      </trkpt>
      <trkpt lat="46.57982" lon="5.62874">
        <ele>538.2</ele>
        <time>2022-03-21T16:40:43Z</time>
      </trkpt>
      <trkpt lat="46.57987" lon="5.62876">
        <ele>538.6</ele>
        <time>2022-03-21T16:40:44Z</time>
      </trkpt>
      <trkpt lat="46.57991" lon="5.62879">
        <ele>538.6</ele>
        <time>2022-03-21T16:40:45Z</time>
      </trkpt>
      <trkpt lat="46.57996" lon="5.62881">
        <ele>538.8</ele>
        <time>2022-03-21T16:40:46Z</time>
      </trkpt>
      <trkpt lat="46.58" lon="5.62884">
        <ele>538.8</ele>
        <time>2022-03-21T16:40:47Z</time>
      </trkpt>
      <trkpt lat="46.58005" lon="5.62887">
        <ele>539.2</ele>
        <time>2022-03-21T16:40:48Z</time>
      </trkpt>
      <trkpt lat="46.58009" lon="5.6289">
        <ele>539.2</ele>
        <time>2022-03-21T16:40:49Z</time>
      </trkpt>
      <trkpt lat="46.58014" lon="5.62894">
        <ele>539.2</ele>
        <time>2022-03-21T16:40:50Z</time>
      </trkpt>
      <trkpt lat="46.58018" lon="5.62898">
        <ele>539.2</ele>
        <time>2022-03-21T16:40:51Z</time>
      </trkpt>
      <trkpt lat="46.58022" lon="5.62902">
        <ele>539.4</ele>
        <time>2022-03-21T16:40:52Z</time>
      </trkpt>
      <trkpt lat="46.58027" lon="5.62906">
        <ele>539.4</ele>
        <time>2022-03-21T16:40:53Z</time>
      </trkpt>
      <trkpt lat="46.58031" lon="5.62909">
        <ele>539.6</ele>
        <time>2022-03-21T16:40:54Z</time>
      </trkpt>
      <trkpt lat="46.58035" lon="5.62913">
        <ele>539.6</ele>
        <time>2022-03-21T16:40:55Z</time>
      </trkpt>
      <trkpt lat="46.58039" lon="5.62917">
        <ele>540</ele>
        <time>2022-03-21T16:40:56Z</time>
      </trkpt>
      <trkpt lat="46.58044" lon="5.6292">
        <ele>540</ele>
        <time>2022-03-21T16:40:57Z</time>
      </trkpt>
      <trkpt lat="46.58048" lon="5.62924">
        <ele>540.2</ele>
        <time>2022-03-21T16:40:58Z</time>
      </trkpt>
      <trkpt lat="46.58052" lon="5.62928">
        <ele>540.2</ele>
        <time>2022-03-21T16:40:59Z</time>
      </trkpt>
      <trkpt lat="46.58055" lon="5.62932">
        <ele>540.6</ele>
        <time>2022-03-21T16:41:00Z</time>
      </trkpt>
      <trkpt lat="46.58059" lon="5.62936">
        <ele>540.6</ele>
        <time>2022-03-21T16:41:01Z</time>
      </trkpt>
      <trkpt lat="46.58063" lon="5.6294">
        <ele>540.8</ele>
        <time>2022-03-21T16:41:02Z</time>
      </trkpt>
      <trkpt lat="46.58067" lon="5.62944">
        <ele>540.8</ele>
        <time>2022-03-21T16:41:03Z</time>
      </trkpt>
      <trkpt lat="46.58071" lon="5.62948">
        <ele>541</ele>
        <time>2022-03-21T16:41:04Z</time>
      </trkpt>
      <trkpt lat="46.58075" lon="5.62953">
        <ele>541</ele>
        <time>2022-03-21T16:41:05Z</time>
      </trkpt>
      <trkpt lat="46.58078" lon="5.62958">
        <ele>541</ele>
        <time>2022-03-21T16:41:06Z</time>
      </trkpt>
      <trkpt lat="46.58082" lon="5.62963">
        <ele>541.2</ele>
        <time>2022-03-21T16:41:07Z</time>
      </trkpt>
      <trkpt lat="46.58086" lon="5.62967">
        <ele>541.2</ele>
        <time>2022-03-21T16:41:08Z</time>
      </trkpt>
      <trkpt lat="46.58089" lon="5.62972">
        <ele>541.2</ele>
        <time>2022-03-21T16:41:09Z</time>
      </trkpt>
      <trkpt lat="46.58093" lon="5.62976">
        <ele>541.6</ele>
        <time>2022-03-21T16:41:10Z</time>
      </trkpt>
      <trkpt lat="46.58097" lon="5.62981">
        <ele>541.6</ele>
        <time>2022-03-21T16:41:11Z</time>
      </trkpt>
      <trkpt lat="46.581" lon="5.62985">
        <ele>541.8</ele>
        <time>2022-03-21T16:41:12Z</time>
      </trkpt>
      <trkpt lat="46.58104" lon="5.6299">
        <ele>541.8</ele>
        <time>2022-03-21T16:41:13Z</time>
      </trkpt>
      <trkpt lat="46.58107" lon="5.62995">
        <ele>541.8</ele>
        <time>2022-03-21T16:41:14Z</time>
      </trkpt>
      <trkpt lat="46.58111" lon="5.62999">
        <ele>542</ele>
        <time>2022-03-21T16:41:15Z</time>
      </trkpt>
      <trkpt lat="46.58114" lon="5.63003">
        <ele>542</ele>
        <time>2022-03-21T16:41:16Z</time>
      </trkpt>
      <trkpt lat="46.58118" lon="5.63007">
        <ele>542.4</ele>
        <time>2022-03-21T16:41:17Z</time>
      </trkpt>
      <trkpt lat="46.58121" lon="5.63012">
        <ele>542.4</ele>
        <time>2022-03-21T16:41:18Z</time>
      </trkpt>
      <trkpt lat="46.58125" lon="5.63016">
        <ele>542.6</ele>
        <time>2022-03-21T16:41:19Z</time>
      </trkpt>
      <trkpt lat="46.58128" lon="5.6302">
        <ele>542.6</ele>
        <time>2022-03-21T16:41:20Z</time>
      </trkpt>
      <trkpt lat="46.58132" lon="5.63024">
        <ele>543</ele>
        <time>2022-03-21T16:41:21Z</time>
      </trkpt>
      <trkpt lat="46.58136" lon="5.63028">
        <ele>543</ele>
        <time>2022-03-21T16:41:22Z</time>
      </trkpt>
      <trkpt lat="46.5814" lon="5.63031">
        <ele>543</ele>
        <time>2022-03-21T16:41:23Z</time>
      </trkpt>
      <trkpt lat="46.58144" lon="5.63035">
        <ele>543</ele>
        <time>2022-03-21T16:41:24Z</time>
      </trkpt>
      <trkpt lat="46.58148" lon="5.63038">
        <ele>543.2</ele>
        <time>2022-03-21T16:41:25Z</time>
      </trkpt>
      <trkpt lat="46.58153" lon="5.6304">
        <ele>543.2</ele>
        <time>2022-03-21T16:41:26Z</time>
      </trkpt>
      <trkpt lat="46.58157" lon="5.63043">
        <ele>543.4</ele>
        <time>2022-03-21T16:41:27Z</time>
      </trkpt>
      <trkpt lat="46.58162" lon="5.63045">
        <ele>543.4</ele>
        <time>2022-03-21T16:41:28Z</time>
      </trkpt>
      <trkpt lat="46.58166" lon="5.63047">
        <ele>543.8</ele>
        <time>2022-03-21T16:41:29Z</time>
      </trkpt>
      <trkpt lat="46.58171" lon="5.63048">
        <ele>543.8</ele>
        <time>2022-03-21T16:41:30Z</time>
      </trkpt>
      <trkpt lat="46.58176" lon="5.6305">
        <ele>544</ele>
        <time>2022-03-21T16:41:31Z</time>
      </trkpt>
      <trkpt lat="46.58181" lon="5.63051">
        <ele>544</ele>
        <time>2022-03-21T16:41:32Z</time>
      </trkpt>
      <trkpt lat="46.58186" lon="5.63052">
        <ele>544.2</ele>
        <time>2022-03-21T16:41:33Z</time>
      </trkpt>
      <trkpt lat="46.58191" lon="5.63052">
        <ele>544.2</ele>
        <time>2022-03-21T16:41:34Z</time>
      </trkpt>
      <trkpt lat="46.58196" lon="5.63052">
        <ele>544.6</ele>
        <time>2022-03-21T16:41:35Z</time>
      </trkpt>
      <trkpt lat="46.58201" lon="5.63052">
        <ele>544.6</ele>
        <time>2022-03-21T16:41:36Z</time>
      </trkpt>
      <trkpt lat="46.58205" lon="5.63051">
        <ele>544.8</ele>
        <time>2022-03-21T16:41:37Z</time>
      </trkpt>
      <trkpt lat="46.5821" lon="5.6305">
        <ele>544.8</ele>
        <time>2022-03-21T16:41:38Z</time>
      </trkpt>
      <trkpt lat="46.58215" lon="5.63049">
        <ele>544.8</ele>
        <time>2022-03-21T16:41:39Z</time>
      </trkpt>
      <trkpt lat="46.5822" lon="5.63048">
        <ele>545.2</ele>
        <time>2022-03-21T16:41:40Z</time>
      </trkpt>
      <trkpt lat="46.58225" lon="5.63046">
        <ele>545.2</ele>
        <time>2022-03-21T16:41:41Z</time>
      </trkpt>
      <trkpt lat="46.5823" lon="5.63044">
        <ele>545.4</ele>
        <time>2022-03-21T16:41:42Z</time>
      </trkpt>
      <trkpt lat="46.58234" lon="5.63042">
        <ele>545.4</ele>
        <time>2022-03-21T16:41:43Z</time>
      </trkpt>
      <trkpt lat="46.58239" lon="5.6304">
        <ele>545.4</ele>
        <time>2022-03-21T16:41:44Z</time>
      </trkpt>
      <trkpt lat="46.58243" lon="5.63037">
        <ele>545.6</ele>
        <time>2022-03-21T16:41:45Z</time>
      </trkpt>
      <trkpt lat="46.58248" lon="5.63035">
        <ele>545.6</ele>
        <time>2022-03-21T16:41:46Z</time>
      </trkpt>
      <trkpt lat="46.58253" lon="5.63033">
        <ele>545.6</ele>
        <time>2022-03-21T16:41:47Z</time>
      </trkpt>
      <trkpt lat="46.58258" lon="5.63031">
        <ele>545.6</ele>
        <time>2022-03-21T16:41:48Z</time>
      </trkpt>
      <trkpt lat="46.58263" lon="5.63028">
        <ele>545.6</ele>
        <time>2022-03-21T16:41:49Z</time>
      </trkpt>
      <trkpt lat="46.58268" lon="5.63026">
        <ele>546</ele>
        <time>2022-03-21T16:41:50Z</time>
      </trkpt>
      <trkpt lat="46.58272" lon="5.63024">
        <ele>546</ele>
        <time>2022-03-21T16:41:51Z</time>
      </trkpt>
      <trkpt lat="46.58277" lon="5.63022">
        <ele>546.2</ele>
        <time>2022-03-21T16:41:52Z</time>
      </trkpt>
      <trkpt lat="46.58282" lon="5.63018">
        <ele>546.2</ele>
        <time>2022-03-21T16:41:53Z</time>
      </trkpt>
      <trkpt lat="46.58286" lon="5.63016">
        <ele>546.4</ele>
        <time>2022-03-21T16:41:54Z</time>
      </trkpt>
      <trkpt lat="46.58292" lon="5.63013">
        <ele>546.4</ele>
        <time>2022-03-21T16:41:55Z</time>
      </trkpt>
      <trkpt lat="46.58297" lon="5.63011">
        <ele>546.6</ele>
        <time>2022-03-21T16:41:56Z</time>
      </trkpt>
      <trkpt lat="46.58302" lon="5.63008">
        <ele>546.6</ele>
        <time>2022-03-21T16:41:57Z</time>
      </trkpt>
      <trkpt lat="46.58306" lon="5.63006">
        <ele>547</ele>
        <time>2022-03-21T16:41:58Z</time>
      </trkpt>
      <trkpt lat="46.58311" lon="5.63003">
        <ele>547</ele>
        <time>2022-03-21T16:41:59Z</time>
      </trkpt>
      <trkpt lat="46.58316" lon="5.63001">
        <ele>547</ele>
        <time>2022-03-21T16:42:00Z</time>
      </trkpt>
      <trkpt lat="46.58321" lon="5.62998">
        <ele>547.2</ele>
        <time>2022-03-21T16:42:01Z</time>
      </trkpt>
      <trkpt lat="46.58326" lon="5.62995">
        <ele>547.2</ele>
        <time>2022-03-21T16:42:02Z</time>
      </trkpt>
      <trkpt lat="46.58331" lon="5.62993">
        <ele>547.4</ele>
        <time>2022-03-21T16:42:03Z</time>
      </trkpt>
      <trkpt lat="46.58336" lon="5.6299">
        <ele>547.4</ele>
        <time>2022-03-21T16:42:04Z</time>
      </trkpt>
      <trkpt lat="46.58342" lon="5.62987">
        <ele>547.4</ele>
        <time>2022-03-21T16:42:05Z</time>
      </trkpt>
      <trkpt lat="46.58347" lon="5.62985">
        <ele>547.4</ele>
        <time>2022-03-21T16:42:06Z</time>
      </trkpt>
      <trkpt lat="46.58352" lon="5.62982">
        <ele>547.4</ele>
        <time>2022-03-21T16:42:07Z</time>
      </trkpt>
      <trkpt lat="46.58357" lon="5.6298">
        <ele>547.6</ele>
        <time>2022-03-21T16:42:08Z</time>
      </trkpt>
      <trkpt lat="46.58362" lon="5.62977">
        <ele>547.6</ele>
        <time>2022-03-21T16:42:09Z</time>
      </trkpt>
      <trkpt lat="46.58367" lon="5.62975">
        <ele>547.6</ele>
        <time>2022-03-21T16:42:10Z</time>
      </trkpt>
      <trkpt lat="46.58372" lon="5.62972">
        <ele>548</ele>
        <time>2022-03-21T16:42:11Z</time>
      </trkpt>
      <trkpt lat="46.58377" lon="5.6297">
        <ele>548</ele>
        <time>2022-03-21T16:42:12Z</time>
      </trkpt>
      <trkpt lat="46.58382" lon="5.62967">
        <ele>548</ele>
        <time>2022-03-21T16:42:13Z</time>
      </trkpt>
      <trkpt lat="46.58388" lon="5.62965">
        <ele>548</ele>
        <time>2022-03-21T16:42:14Z</time>
      </trkpt>
      <trkpt lat="46.58393" lon="5.62962">
        <ele>548</ele>
        <time>2022-03-21T16:42:15Z</time>
      </trkpt>
      <trkpt lat="46.58398" lon="5.6296">
        <ele>548.2</ele>
        <time>2022-03-21T16:42:16Z</time>
      </trkpt>
      <trkpt lat="46.58403" lon="5.62957">
        <ele>548.2</ele>
        <time>2022-03-21T16:42:17Z</time>
      </trkpt>
      <trkpt lat="46.58408" lon="5.62955">
        <ele>548.2</ele>
        <time>2022-03-21T16:42:18Z</time>
      </trkpt>
      <trkpt lat="46.58413" lon="5.62952">
        <ele>548.2</ele>
        <time>2022-03-21T16:42:19Z</time>
      </trkpt>
      <trkpt lat="46.58418" lon="5.6295">
        <ele>548.2</ele>
        <time>2022-03-21T16:42:20Z</time>
      </trkpt>
      <trkpt lat="46.58424" lon="5.62947">
        <ele>548.4</ele>
        <time>2022-03-21T16:42:21Z</time>
      </trkpt>
      <trkpt lat="46.58429" lon="5.62945">
        <ele>548.4</ele>
        <time>2022-03-21T16:42:22Z</time>
      </trkpt>
      <trkpt lat="46.58434" lon="5.62942">
        <ele>548.4</ele>
        <time>2022-03-21T16:42:23Z</time>
      </trkpt>
      <trkpt lat="46.58439" lon="5.62939">
        <ele>548.8</ele>
        <time>2022-03-21T16:42:24Z</time>
      </trkpt>
      <trkpt lat="46.58444" lon="5.62937">
        <ele>548.8</ele>
        <time>2022-03-21T16:42:25Z</time>
      </trkpt>
      <trkpt lat="46.58449" lon="5.62935">
        <ele>549</ele>
        <time>2022-03-21T16:42:26Z</time>
      </trkpt>
      <trkpt lat="46.58453" lon="5.62932">
        <ele>549</ele>
        <time>2022-03-21T16:42:27Z</time>
      </trkpt>
      <trkpt lat="46.58458" lon="5.6293">
        <ele>549.2</ele>
        <time>2022-03-21T16:42:28Z</time>
      </trkpt>
      <trkpt lat="46.58463" lon="5.62927">
        <ele>549.2</ele>
        <time>2022-03-21T16:42:29Z</time>
      </trkpt>
      <trkpt lat="46.58468" lon="5.62925">
        <ele>549.2</ele>
        <time>2022-03-21T16:42:30Z</time>
      </trkpt>
      <trkpt lat="46.58473" lon="5.62923">
        <ele>549.6</ele>
        <time>2022-03-21T16:42:31Z</time>
      </trkpt>
      <trkpt lat="46.58478" lon="5.6292">
        <ele>549.6</ele>
        <time>2022-03-21T16:42:32Z</time>
      </trkpt>
      <trkpt lat="46.58483" lon="5.62918">
        <ele>549.6</ele>
        <time>2022-03-21T16:42:33Z</time>
      </trkpt>
      <trkpt lat="46.58487" lon="5.62916">
        <ele>549.8</ele>
        <time>2022-03-21T16:42:34Z</time>
      </trkpt>
      <trkpt lat="46.58492" lon="5.62914">
        <ele>549.8</ele>
        <time>2022-03-21T16:42:35Z</time>
      </trkpt>
      <trkpt lat="46.58497" lon="5.62911">
        <ele>549.8</ele>
        <time>2022-03-21T16:42:36Z</time>
      </trkpt>
      <trkpt lat="46.58502" lon="5.62909">
        <ele>550.2</ele>
        <time>2022-03-21T16:42:37Z</time>
      </trkpt>
      <trkpt lat="46.58506" lon="5.62907">
        <ele>550.2</ele>
        <time>2022-03-21T16:42:38Z</time>
      </trkpt>
      <trkpt lat="46.58511" lon="5.62904">
        <ele>550.4</ele>
        <time>2022-03-21T16:42:39Z</time>
      </trkpt>
      <trkpt lat="46.58515" lon="5.62902">
        <ele>550.4</ele>
        <time>2022-03-21T16:42:40Z</time>
      </trkpt>
      <trkpt lat="46.5852" lon="5.62899">
        <ele>550.6</ele>
        <time>2022-03-21T16:42:41Z</time>
      </trkpt>
      <trkpt lat="46.58525" lon="5.62897">
        <ele>550.6</ele>
        <time>2022-03-21T16:42:42Z</time>
      </trkpt>
      <trkpt lat="46.58529" lon="5.62895">
        <ele>551</ele>
        <time>2022-03-21T16:42:43Z</time>
      </trkpt>
      <trkpt lat="46.58534" lon="5.62893">
        <ele>551</ele>
        <time>2022-03-21T16:42:44Z</time>
      </trkpt>
      <trkpt lat="46.58539" lon="5.62891">
        <ele>551.2</ele>
        <time>2022-03-21T16:42:45Z</time>
      </trkpt>
      <trkpt lat="46.58544" lon="5.6289">
        <ele>551.2</ele>
        <time>2022-03-21T16:42:46Z</time>
      </trkpt>
      <trkpt lat="46.58548" lon="5.62889">
        <ele>551.4</ele>
        <time>2022-03-21T16:42:47Z</time>
      </trkpt>
      <trkpt lat="46.58553" lon="5.62888">
        <ele>551.4</ele>
        <time>2022-03-21T16:42:48Z</time>
      </trkpt>
      <trkpt lat="46.58557" lon="5.62886">
        <ele>551.4</ele>
        <time>2022-03-21T16:42:49Z</time>
      </trkpt>
      <trkpt lat="46.58562" lon="5.62885">
        <ele>551.4</ele>
        <time>2022-03-21T16:42:50Z</time>
      </trkpt>
      <trkpt lat="46.58567" lon="5.62885">
        <ele>551.8</ele>
        <time>2022-03-21T16:42:51Z</time>
      </trkpt>
      <trkpt lat="46.58572" lon="5.62885">
        <ele>551.8</ele>
        <time>2022-03-21T16:42:52Z</time>
      </trkpt>
      <trkpt lat="46.58576" lon="5.62885">
        <ele>552</ele>
        <time>2022-03-21T16:42:53Z</time>
      </trkpt>
      <trkpt lat="46.58581" lon="5.62886">
        <ele>552</ele>
        <time>2022-03-21T16:42:54Z</time>
      </trkpt>
      <trkpt lat="46.58585" lon="5.62887">
        <ele>552.4</ele>
        <time>2022-03-21T16:42:55Z</time>
      </trkpt>
      <trkpt lat="46.5859" lon="5.62887">
        <ele>552.4</ele>
        <time>2022-03-21T16:42:56Z</time>
      </trkpt>
      <trkpt lat="46.58594" lon="5.62888">
        <ele>552.6</ele>
        <time>2022-03-21T16:42:57Z</time>
      </trkpt>
      <trkpt lat="46.58599" lon="5.6289">
        <ele>552.6</ele>
        <time>2022-03-21T16:42:58Z</time>
      </trkpt>
      <trkpt lat="46.58604" lon="5.62891">
        <ele>552.6</ele>
        <time>2022-03-21T16:42:59Z</time>
      </trkpt>
      <trkpt lat="46.58609" lon="5.62892">
        <ele>553</ele>
        <time>2022-03-21T16:43:00Z</time>
      </trkpt>
      <trkpt lat="46.58614" lon="5.62893">
        <ele>553</ele>
        <time>2022-03-21T16:43:01Z</time>
      </trkpt>
      <trkpt lat="46.58619" lon="5.62894">
        <ele>553.2</ele>
        <time>2022-03-21T16:43:02Z</time>
      </trkpt>
      <trkpt lat="46.58624" lon="5.62896">
        <ele>553.2</ele>
        <time>2022-03-21T16:43:03Z</time>
      </trkpt>
      <trkpt lat="46.58629" lon="5.62897">
        <ele>553.2</ele>
        <time>2022-03-21T16:43:04Z</time>
      </trkpt>
      <trkpt lat="46.58634" lon="5.62898">
        <ele>553.6</ele>
        <time>2022-03-21T16:43:05Z</time>
      </trkpt>
      <trkpt lat="46.58639" lon="5.62899">
        <ele>553.6</ele>
        <time>2022-03-21T16:43:06Z</time>
      </trkpt>
      <trkpt lat="46.58644" lon="5.629">
        <ele>553.6</ele>
        <time>2022-03-21T16:43:07Z</time>
      </trkpt>
      <trkpt lat="46.58649" lon="5.62901">
        <ele>553.6</ele>
        <time>2022-03-21T16:43:08Z</time>
      </trkpt>
      <trkpt lat="46.58654" lon="5.62903">
        <ele>554</ele>
        <time>2022-03-21T16:43:09Z</time>
      </trkpt>
      <trkpt lat="46.58659" lon="5.62904">
        <ele>554</ele>
        <time>2022-03-21T16:43:10Z</time>
      </trkpt>
      <trkpt lat="46.58664" lon="5.62906">
        <ele>554</ele>
        <time>2022-03-21T16:43:11Z</time>
      </trkpt>
      <trkpt lat="46.58668" lon="5.62908">
        <ele>554.2</ele>
        <time>2022-03-21T16:43:12Z</time>
      </trkpt>
      <trkpt lat="46.58673" lon="5.62909">
        <ele>554.2</ele>
        <time>2022-03-21T16:43:13Z</time>
      </trkpt>
      <trkpt lat="46.58678" lon="5.62911">
        <ele>554.4</ele>
        <time>2022-03-21T16:43:14Z</time>
      </trkpt>
      <trkpt lat="46.58683" lon="5.62912">
        <ele>554.4</ele>
        <time>2022-03-21T16:43:15Z</time>
      </trkpt>
      <trkpt lat="46.58688" lon="5.62913">
        <ele>554.6</ele>
        <time>2022-03-21T16:43:17Z</time>
      </trkpt>
      <trkpt lat="46.58693" lon="5.62915">
        <ele>554.6</ele>
        <time>2022-03-21T16:43:18Z</time>
      </trkpt>
      <trkpt lat="46.58698" lon="5.62916">
        <ele>554.8</ele>
        <time>2022-03-21T16:43:19Z</time>
      </trkpt>
      <trkpt lat="46.58703" lon="5.62918">
        <ele>554.8</ele>
        <time>2022-03-21T16:43:20Z</time>
      </trkpt>
      <trkpt lat="46.58708" lon="5.62919">
        <ele>554.8</ele>
        <time>2022-03-21T16:43:21Z</time>
      </trkpt>
      <trkpt lat="46.58713" lon="5.6292">
        <ele>555</ele>
        <time>2022-03-21T16:43:22Z</time>
      </trkpt>
      <trkpt lat="46.58718" lon="5.62922">
        <ele>555</ele>
        <time>2022-03-21T16:43:23Z</time>
      </trkpt>
      <trkpt lat="46.58723" lon="5.62923">
        <ele>555</ele>
        <time>2022-03-21T16:43:24Z</time>
      </trkpt>
      <trkpt lat="46.58728" lon="5.62925">
        <ele>555</ele>
        <time>2022-03-21T16:43:25Z</time>
      </trkpt>
      <trkpt lat="46.58733" lon="5.62926">
        <ele>555</ele>
        <time>2022-03-21T16:43:26Z</time>
      </trkpt>
      <trkpt lat="46.58738" lon="5.62927">
        <ele>555</ele>
        <time>2022-03-21T16:43:27Z</time>
      </trkpt>
      <trkpt lat="46.58743" lon="5.62928">
        <ele>555.4</ele>
        <time>2022-03-21T16:43:28Z</time>
      </trkpt>
      <trkpt lat="46.58749" lon="5.62929">
        <ele>555.4</ele>
        <time>2022-03-21T16:43:29Z</time>
      </trkpt>
      <trkpt lat="46.58754" lon="5.6293">
        <ele>555.4</ele>
        <time>2022-03-21T16:43:30Z</time>
      </trkpt>
      <trkpt lat="46.58759" lon="5.62931">
        <ele>555.6</ele>
        <time>2022-03-21T16:43:31Z</time>
      </trkpt>
      <trkpt lat="46.58764" lon="5.62933">
        <ele>555.6</ele>
        <time>2022-03-21T16:43:32Z</time>
      </trkpt>
      <trkpt lat="46.5877" lon="5.62934">
        <ele>555.6</ele>
        <time>2022-03-21T16:43:33Z</time>
      </trkpt>
      <trkpt lat="46.58775" lon="5.62934">
        <ele>555.6</ele>
        <time>2022-03-21T16:43:34Z</time>
      </trkpt>
      <trkpt lat="46.58786" lon="5.62936">
        <ele>555.8</ele>
        <time>2022-03-21T16:43:35Z</time>
      </trkpt>
      <trkpt lat="46.58791" lon="5.62937">
        <ele>555.8</ele>
        <time>2022-03-21T16:43:36Z</time>
      </trkpt>
      <trkpt lat="46.58797" lon="5.62938">
        <ele>555.8</ele>
        <time>2022-03-21T16:43:37Z</time>
      </trkpt>
      <trkpt lat="46.58803" lon="5.62938">
        <ele>555.8</ele>
        <time>2022-03-21T16:43:38Z</time>
      </trkpt>
      <trkpt lat="46.58808" lon="5.62939">
        <ele>555.8</ele>
        <time>2022-03-21T16:43:39Z</time>
      </trkpt>
      <trkpt lat="46.58814" lon="5.6294">
        <ele>555.8</ele>
        <time>2022-03-21T16:43:40Z</time>
      </trkpt>
      <trkpt lat="46.5882" lon="5.62941">
        <ele>555.8</ele>
        <time>2022-03-21T16:43:41Z</time>
      </trkpt>
      <trkpt lat="46.58826" lon="5.62942">
        <ele>555.8</ele>
        <time>2022-03-21T16:43:42Z</time>
      </trkpt>
      <trkpt lat="46.58832" lon="5.62943">
        <ele>555.8</ele>
        <time>2022-03-21T16:43:43Z</time>
      </trkpt>
      <trkpt lat="46.58837" lon="5.62943">
        <ele>555.8</ele>
        <time>2022-03-21T16:43:44Z</time>
      </trkpt>
      <trkpt lat="46.58843" lon="5.62944">
        <ele>555.8</ele>
        <time>2022-03-21T16:43:45Z</time>
      </trkpt>
      <trkpt lat="46.58849" lon="5.62945">
        <ele>555.8</ele>
        <time>2022-03-21T16:43:46Z</time>
      </trkpt>
      <trkpt lat="46.58855" lon="5.62946">
        <ele>555.8</ele>
        <time>2022-03-21T16:43:47Z</time>
      </trkpt>
      <trkpt lat="46.58861" lon="5.62947">
        <ele>555.8</ele>
        <time>2022-03-21T16:43:48Z</time>
      </trkpt>
      <trkpt lat="46.58867" lon="5.62947">
        <ele>555.8</ele>
        <time>2022-03-21T16:43:49Z</time>
      </trkpt>
      <trkpt lat="46.58874" lon="5.62948">
        <ele>555.8</ele>
        <time>2022-03-21T16:43:50Z</time>
      </trkpt>
      <trkpt lat="46.5888" lon="5.62949">
        <ele>555.8</ele>
        <time>2022-03-21T16:43:51Z</time>
      </trkpt>
      <trkpt lat="46.58886" lon="5.6295">
        <ele>555.8</ele>
        <time>2022-03-21T16:43:52Z</time>
      </trkpt>
      <trkpt lat="46.58892" lon="5.62951">
        <ele>555.8</ele>
        <time>2022-03-21T16:43:53Z</time>
      </trkpt>
      <trkpt lat="46.58898" lon="5.62952">
        <ele>555.8</ele>
        <time>2022-03-21T16:43:54Z</time>
      </trkpt>
      <trkpt lat="46.58904" lon="5.62952">
        <ele>555.8</ele>
        <time>2022-03-21T16:43:55Z</time>
      </trkpt>
      <trkpt lat="46.58911" lon="5.62953">
        <ele>555.8</ele>
        <time>2022-03-21T16:43:56Z</time>
      </trkpt>
      <trkpt lat="46.58917" lon="5.62954">
        <ele>555.8</ele>
        <time>2022-03-21T16:43:57Z</time>
      </trkpt>
      <trkpt lat="46.58923" lon="5.62955">
        <ele>555.8</ele>
        <time>2022-03-21T16:43:58Z</time>
      </trkpt>
      <trkpt lat="46.58929" lon="5.62956">
        <ele>555.8</ele>
        <time>2022-03-21T16:43:59Z</time>
      </trkpt>
      <trkpt lat="46.58935" lon="5.62957">
        <ele>555.8</ele>
        <time>2022-03-21T16:44:00Z</time>
      </trkpt>
      <trkpt lat="46.58942" lon="5.62958">
        <ele>555.8</ele>
        <time>2022-03-21T16:44:01Z</time>
      </trkpt>
      <trkpt lat="46.58948" lon="5.62958">
        <ele>555.8</ele>
        <time>2022-03-21T16:44:02Z</time>
      </trkpt>
      <trkpt lat="46.58954" lon="5.62959">
        <ele>555.8</ele>
        <time>2022-03-21T16:44:03Z</time>
      </trkpt>
      <trkpt lat="46.5896" lon="5.6296">
        <ele>555.8</ele>
        <time>2022-03-21T16:44:04Z</time>
      </trkpt>
      <trkpt lat="46.58966" lon="5.62961">
        <ele>555.8</ele>
        <time>2022-03-21T16:44:05Z</time>
      </trkpt>
      <trkpt lat="46.58972" lon="5.62962">
        <ele>555.8</ele>
        <time>2022-03-21T16:44:06Z</time>
      </trkpt>
      <trkpt lat="46.58978" lon="5.62963">
        <ele>555.8</ele>
        <time>2022-03-21T16:44:07Z</time>
      </trkpt>
      <trkpt lat="46.58984" lon="5.62964">
        <ele>555.8</ele>
        <time>2022-03-21T16:44:08Z</time>
      </trkpt>
      <trkpt lat="46.58991" lon="5.62964">
        <ele>555.8</ele>
        <time>2022-03-21T16:44:09Z</time>
      </trkpt>
      <trkpt lat="46.58996" lon="5.62965">
        <ele>555.8</ele>
        <time>2022-03-21T16:44:10Z</time>
      </trkpt>
      <trkpt lat="46.59002" lon="5.62966">
        <ele>556</ele>
        <time>2022-03-21T16:44:11Z</time>
      </trkpt>
      <trkpt lat="46.59008" lon="5.62967">
        <ele>556</ele>
        <time>2022-03-21T16:44:12Z</time>
      </trkpt>
      <trkpt lat="46.59014" lon="5.62968">
        <ele>556</ele>
        <time>2022-03-21T16:44:13Z</time>
      </trkpt>
      <trkpt lat="46.5902" lon="5.62968">
        <ele>556.2</ele>
        <time>2022-03-21T16:44:14Z</time>
      </trkpt>
      <trkpt lat="46.59026" lon="5.62969">
        <ele>556.2</ele>
        <time>2022-03-21T16:44:15Z</time>
      </trkpt>
      <trkpt lat="46.59032" lon="5.6297">
        <ele>556.2</ele>
        <time>2022-03-21T16:44:16Z</time>
      </trkpt>
      <trkpt lat="46.59038" lon="5.62971">
        <ele>556.2</ele>
        <time>2022-03-21T16:44:17Z</time>
      </trkpt>
      <trkpt lat="46.59044" lon="5.62972">
        <ele>556.2</ele>
        <time>2022-03-21T16:44:18Z</time>
      </trkpt>
      <trkpt lat="46.5905" lon="5.62972">
        <ele>556.2</ele>
        <time>2022-03-21T16:44:19Z</time>
      </trkpt>
      <trkpt lat="46.59056" lon="5.62973">
        <ele>556.4</ele>
        <time>2022-03-21T16:44:20Z</time>
      </trkpt>
      <trkpt lat="46.59061" lon="5.62974">
        <ele>556.4</ele>
        <time>2022-03-21T16:44:21Z</time>
      </trkpt>
      <trkpt lat="46.59067" lon="5.62975">
        <ele>556.8</ele>
        <time>2022-03-21T16:44:22Z</time>
      </trkpt>
      <trkpt lat="46.59073" lon="5.62976">
        <ele>556.8</ele>
        <time>2022-03-21T16:44:23Z</time>
      </trkpt>
      <trkpt lat="46.59078" lon="5.62976">
        <ele>556.8</ele>
        <time>2022-03-21T16:44:24Z</time>
      </trkpt>
      <trkpt lat="46.59084" lon="5.62977">
        <ele>556.8</ele>
        <time>2022-03-21T16:44:25Z</time>
      </trkpt>
      <trkpt lat="46.5909" lon="5.62978">
        <ele>556.8</ele>
        <time>2022-03-21T16:44:26Z</time>
      </trkpt>
      <trkpt lat="46.59095" lon="5.62978">
        <ele>557</ele>
        <time>2022-03-21T16:44:27Z</time>
      </trkpt>
      <trkpt lat="46.59101" lon="5.62979">
        <ele>557</ele>
        <time>2022-03-21T16:44:28Z</time>
      </trkpt>
      <trkpt lat="46.59106" lon="5.6298">
        <ele>557</ele>
        <time>2022-03-21T16:44:29Z</time>
      </trkpt>
      <trkpt lat="46.59112" lon="5.62981">
        <ele>557</ele>
        <time>2022-03-21T16:44:30Z</time>
      </trkpt>
      <trkpt lat="46.59117" lon="5.62982">
        <ele>557</ele>
        <time>2022-03-21T16:44:31Z</time>
      </trkpt>
      <trkpt lat="46.59123" lon="5.62982">
        <ele>557</ele>
        <time>2022-03-21T16:44:32Z</time>
      </trkpt>
      <trkpt lat="46.59128" lon="5.62983">
        <ele>557</ele>
        <time>2022-03-21T16:44:33Z</time>
      </trkpt>
      <trkpt lat="46.59134" lon="5.62984">
        <ele>557.2</ele>
        <time>2022-03-21T16:44:34Z</time>
      </trkpt>
      <trkpt lat="46.59139" lon="5.62984">
        <ele>557.2</ele>
        <time>2022-03-21T16:44:35Z</time>
      </trkpt>
      <trkpt lat="46.59144" lon="5.62985">
        <ele>557.2</ele>
        <time>2022-03-21T16:44:36Z</time>
      </trkpt>
      <trkpt lat="46.5915" lon="5.62986">
        <ele>557.6</ele>
        <time>2022-03-21T16:44:37Z</time>
      </trkpt>
      <trkpt lat="46.59155" lon="5.62987">
        <ele>557.6</ele>
        <time>2022-03-21T16:44:38Z</time>
      </trkpt>
      <trkpt lat="46.59161" lon="5.62988">
        <ele>557.6</ele>
        <time>2022-03-21T16:44:39Z</time>
      </trkpt>
      <trkpt lat="46.59166" lon="5.62989">
        <ele>557.6</ele>
        <time>2022-03-21T16:44:40Z</time>
      </trkpt>
      <trkpt lat="46.59172" lon="5.62989">
        <ele>557.6</ele>
        <time>2022-03-21T16:44:41Z</time>
      </trkpt>
      <trkpt lat="46.59177" lon="5.6299">
        <ele>557.8</ele>
        <time>2022-03-21T16:44:42Z</time>
      </trkpt>
      <trkpt lat="46.59183" lon="5.6299">
        <ele>557.8</ele>
        <time>2022-03-21T16:44:43Z</time>
      </trkpt>
      <trkpt lat="46.59189" lon="5.62991">
        <ele>557.8</ele>
        <time>2022-03-21T16:44:44Z</time>
      </trkpt>
      <trkpt lat="46.59194" lon="5.62992">
        <ele>557.8</ele>
        <time>2022-03-21T16:44:45Z</time>
      </trkpt>
      <trkpt lat="46.592" lon="5.62993">
        <ele>557.8</ele>
        <time>2022-03-21T16:44:46Z</time>
      </trkpt>
      <trkpt lat="46.59205" lon="5.62994">
        <ele>558</ele>
        <time>2022-03-21T16:44:47Z</time>
      </trkpt>
      <trkpt lat="46.59211" lon="5.62995">
        <ele>558</ele>
        <time>2022-03-21T16:44:48Z</time>
      </trkpt>
      <trkpt lat="46.59216" lon="5.62996">
        <ele>558</ele>
        <time>2022-03-21T16:44:49Z</time>
      </trkpt>
      <trkpt lat="46.59222" lon="5.62996">
        <ele>558.2</ele>
        <time>2022-03-21T16:44:50Z</time>
      </trkpt>
      <trkpt lat="46.59227" lon="5.62997">
        <ele>558.2</ele>
        <time>2022-03-21T16:44:51Z</time>
      </trkpt>
      <trkpt lat="46.59233" lon="5.62998">
        <ele>558.2</ele>
        <time>2022-03-21T16:44:52Z</time>
      </trkpt>
      <trkpt lat="46.59238" lon="5.62998">
        <ele>558.4</ele>
        <time>2022-03-21T16:44:53Z</time>
      </trkpt>
      <trkpt lat="46.59244" lon="5.62998">
        <ele>558.4</ele>
        <time>2022-03-21T16:44:54Z</time>
      </trkpt>
      <trkpt lat="46.59249" lon="5.62998">
        <ele>558.4</ele>
        <time>2022-03-21T16:44:55Z</time>
      </trkpt>
      <trkpt lat="46.59255" lon="5.62999">
        <ele>558.8</ele>
        <time>2022-03-21T16:44:56Z</time>
      </trkpt>
      <trkpt lat="46.5926" lon="5.62999">
        <ele>558.8</ele>
        <time>2022-03-21T16:44:57Z</time>
      </trkpt>
      <trkpt lat="46.59266" lon="5.62999">
        <ele>558.8</ele>
        <time>2022-03-21T16:44:58Z</time>
      </trkpt>
      <trkpt lat="46.59271" lon="5.62999">
        <ele>559</ele>
        <time>2022-03-21T16:44:59Z</time>
      </trkpt>
      <trkpt lat="46.59277" lon="5.62999">
        <ele>559</ele>
        <time>2022-03-21T16:45:00Z</time>
      </trkpt>
      <trkpt lat="46.59282" lon="5.62999">
        <ele>559</ele>
        <time>2022-03-21T16:45:01Z</time>
      </trkpt>
      <trkpt lat="46.59287" lon="5.62999">
        <ele>559</ele>
        <time>2022-03-21T16:45:02Z</time>
      </trkpt>
      <trkpt lat="46.59293" lon="5.62998">
        <ele>559</ele>
        <time>2022-03-21T16:45:03Z</time>
      </trkpt>
      <trkpt lat="46.59298" lon="5.62998">
        <ele>559.2</ele>
        <time>2022-03-21T16:45:04Z</time>
      </trkpt>
      <trkpt lat="46.59304" lon="5.62997">
        <ele>559.2</ele>
        <time>2022-03-21T16:45:05Z</time>
      </trkpt>
      <trkpt lat="46.59309" lon="5.62997">
        <ele>559.2</ele>
        <time>2022-03-21T16:45:06Z</time>
      </trkpt>
      <trkpt lat="46.59315" lon="5.62996">
        <ele>559.2</ele>
        <time>2022-03-21T16:45:07Z</time>
      </trkpt>
      <trkpt lat="46.59321" lon="5.62995">
        <ele>559.4</ele>
        <time>2022-03-21T16:45:08Z</time>
      </trkpt>
      <trkpt lat="46.59326" lon="5.62994">
        <ele>559.4</ele>
        <time>2022-03-21T16:45:09Z</time>
      </trkpt>
      <trkpt lat="46.59332" lon="5.62993">
        <ele>559.4</ele>
        <time>2022-03-21T16:45:10Z</time>
      </trkpt>
      <trkpt lat="46.59337" lon="5.62992">
        <ele>559.4</ele>
        <time>2022-03-21T16:45:11Z</time>
      </trkpt>
      <trkpt lat="46.59343" lon="5.62991">
        <ele>559.6</ele>
        <time>2022-03-21T16:45:12Z</time>
      </trkpt>
      <trkpt lat="46.59349" lon="5.6299">
        <ele>559.6</ele>
        <time>2022-03-21T16:45:13Z</time>
      </trkpt>
      <trkpt lat="46.59354" lon="5.62989">
        <ele>559.6</ele>
        <time>2022-03-21T16:45:14Z</time>
      </trkpt>
      <trkpt lat="46.5936" lon="5.62988">
        <ele>559.6</ele>
        <time>2022-03-21T16:45:15Z</time>
      </trkpt>
      <trkpt lat="46.59366" lon="5.62987">
        <ele>559.6</ele>
        <time>2022-03-21T16:45:16Z</time>
      </trkpt>
      <trkpt lat="46.59372" lon="5.62986">
        <ele>559.6</ele>
        <time>2022-03-21T16:45:17Z</time>
      </trkpt>
      <trkpt lat="46.59378" lon="5.62985">
        <ele>559.6</ele>
        <time>2022-03-21T16:45:18Z</time>
      </trkpt>
      <trkpt lat="46.59384" lon="5.62984">
        <ele>559.6</ele>
        <time>2022-03-21T16:45:19Z</time>
      </trkpt>
      <trkpt lat="46.5939" lon="5.62983">
        <ele>559.6</ele>
        <time>2022-03-21T16:45:20Z</time>
      </trkpt>
      <trkpt lat="46.59396" lon="5.62982">
        <ele>559.6</ele>
        <time>2022-03-21T16:45:21Z</time>
      </trkpt>
      <trkpt lat="46.59402" lon="5.62981">
        <ele>559.6</ele>
        <time>2022-03-21T16:45:22Z</time>
      </trkpt>
      <trkpt lat="46.59408" lon="5.6298">
        <ele>559.6</ele>
        <time>2022-03-21T16:45:23Z</time>
      </trkpt>
      <trkpt lat="46.59414" lon="5.62979">
        <ele>559.6</ele>
        <time>2022-03-21T16:45:24Z</time>
      </trkpt>
      <trkpt lat="46.5942" lon="5.62978">
        <ele>559.6</ele>
        <time>2022-03-21T16:45:25Z</time>
      </trkpt>
      <trkpt lat="46.59426" lon="5.62976">
        <ele>559.6</ele>
        <time>2022-03-21T16:45:26Z</time>
      </trkpt>
      <trkpt lat="46.59433" lon="5.62975">
        <ele>559.6</ele>
        <time>2022-03-21T16:45:27Z</time>
      </trkpt>
      <trkpt lat="46.59439" lon="5.62974">
        <ele>559.6</ele>
        <time>2022-03-21T16:45:28Z</time>
      </trkpt>
      <trkpt lat="46.59446" lon="5.62973">
        <ele>559.6</ele>
        <time>2022-03-21T16:45:29Z</time>
      </trkpt>
      <trkpt lat="46.59453" lon="5.62972">
        <ele>559.4</ele>
        <time>2022-03-21T16:45:30Z</time>
      </trkpt>
      <trkpt lat="46.59459" lon="5.62971">
        <ele>559.4</ele>
        <time>2022-03-21T16:45:31Z</time>
      </trkpt>
      <trkpt lat="46.59466" lon="5.6297">
        <ele>559.4</ele>
        <time>2022-03-21T16:45:32Z</time>
      </trkpt>
      <trkpt lat="46.59472" lon="5.62968">
        <ele>559.2</ele>
        <time>2022-03-21T16:45:33Z</time>
      </trkpt>
      <trkpt lat="46.59479" lon="5.62967">
        <ele>559.2</ele>
        <time>2022-03-21T16:45:34Z</time>
      </trkpt>
      <trkpt lat="46.59485" lon="5.62966">
        <ele>558.6</ele>
        <time>2022-03-21T16:45:35Z</time>
      </trkpt>
      <trkpt lat="46.59492" lon="5.62964">
        <ele>558.6</ele>
        <time>2022-03-21T16:45:36Z</time>
      </trkpt>
      <trkpt lat="46.59498" lon="5.62963">
        <ele>558.4</ele>
        <time>2022-03-21T16:45:37Z</time>
      </trkpt>
      <trkpt lat="46.59503" lon="5.62961">
        <ele>558.4</ele>
        <time>2022-03-21T16:45:38Z</time>
      </trkpt>
      <trkpt lat="46.59509" lon="5.6296">
        <ele>558.4</ele>
        <time>2022-03-21T16:45:39Z</time>
      </trkpt>
      <trkpt lat="46.59515" lon="5.62959">
        <ele>558.2</ele>
        <time>2022-03-21T16:45:40Z</time>
      </trkpt>
      <trkpt lat="46.5952" lon="5.62958">
        <ele>558</ele>
        <time>2022-03-21T16:45:41Z</time>
      </trkpt>
      <trkpt lat="46.59526" lon="5.62958">
        <ele>558</ele>
        <time>2022-03-21T16:45:42Z</time>
      </trkpt>
      <trkpt lat="46.59532" lon="5.62957">
        <ele>558</ele>
        <time>2022-03-21T16:45:43Z</time>
      </trkpt>
      <trkpt lat="46.59538" lon="5.62955">
        <ele>558</ele>
        <time>2022-03-21T16:45:44Z</time>
      </trkpt>
      <trkpt lat="46.59544" lon="5.62954">
        <ele>558</ele>
        <time>2022-03-21T16:45:45Z</time>
      </trkpt>
      <trkpt lat="46.5955" lon="5.62953">
        <ele>558</ele>
        <time>2022-03-21T16:45:46Z</time>
      </trkpt>
      <trkpt lat="46.59556" lon="5.62952">
        <ele>558</ele>
        <time>2022-03-21T16:45:47Z</time>
      </trkpt>
      <trkpt lat="46.59563" lon="5.62951">
        <ele>557.6</ele>
        <time>2022-03-21T16:45:48Z</time>
      </trkpt>
      <trkpt lat="46.59569" lon="5.6295">
        <ele>557.6</ele>
        <time>2022-03-21T16:45:49Z</time>
      </trkpt>
      <trkpt lat="46.59575" lon="5.62949">
        <ele>557.6</ele>
        <time>2022-03-21T16:45:50Z</time>
      </trkpt>
      <trkpt lat="46.59582" lon="5.62948">
        <ele>557.6</ele>
        <time>2022-03-21T16:45:51Z</time>
      </trkpt>
      <trkpt lat="46.59588" lon="5.62947">
        <ele>557.2</ele>
        <time>2022-03-21T16:45:52Z</time>
      </trkpt>
      <trkpt lat="46.59594" lon="5.62946">
        <ele>557.2</ele>
        <time>2022-03-21T16:45:53Z</time>
      </trkpt>
      <trkpt lat="46.596" lon="5.62945">
        <ele>557.2</ele>
        <time>2022-03-21T16:45:54Z</time>
      </trkpt>
      <trkpt lat="46.59606" lon="5.62944">
        <ele>557</ele>
        <time>2022-03-21T16:45:55Z</time>
      </trkpt>
      <trkpt lat="46.59612" lon="5.62943">
        <ele>557</ele>
        <time>2022-03-21T16:45:56Z</time>
      </trkpt>
      <trkpt lat="46.59617" lon="5.62942">
        <ele>557</ele>
        <time>2022-03-21T16:45:57Z</time>
      </trkpt>
      <trkpt lat="46.59623" lon="5.62942">
        <ele>557</ele>
        <time>2022-03-21T16:45:58Z</time>
      </trkpt>
      <trkpt lat="46.59629" lon="5.62944">
        <ele>556.8</ele>
        <time>2022-03-21T16:45:59Z</time>
      </trkpt>
      <trkpt lat="46.59634" lon="5.62947">
        <ele>556.8</ele>
        <time>2022-03-21T16:46:00Z</time>
      </trkpt>
      <trkpt lat="46.59639" lon="5.62953">
        <ele>556.8</ele>
        <time>2022-03-21T16:46:01Z</time>
      </trkpt>
      <trkpt lat="46.59643" lon="5.62959">
        <ele>556.8</ele>
        <time>2022-03-21T16:46:02Z</time>
      </trkpt>
      <trkpt lat="46.59647" lon="5.62965">
        <ele>556.8</ele>
        <time>2022-03-21T16:46:03Z</time>
      </trkpt>
      <trkpt lat="46.59651" lon="5.62972">
        <ele>556.8</ele>
        <time>2022-03-21T16:46:04Z</time>
      </trkpt>
      <trkpt lat="46.59654" lon="5.62979">
        <ele>556.8</ele>
        <time>2022-03-21T16:46:05Z</time>
      </trkpt>
      <trkpt lat="46.59658" lon="5.62986">
        <ele>556.8</ele>
        <time>2022-03-21T16:46:06Z</time>
      </trkpt>
      <trkpt lat="46.59662" lon="5.62993">
        <ele>556.6</ele>
        <time>2022-03-21T16:46:07Z</time>
      </trkpt>
      <trkpt lat="46.59666" lon="5.63">
        <ele>556.6</ele>
        <time>2022-03-21T16:46:08Z</time>
      </trkpt>
      <trkpt lat="46.59669" lon="5.63007">
        <ele>556.6</ele>
        <time>2022-03-21T16:46:09Z</time>
      </trkpt>
      <trkpt lat="46.59674" lon="5.63014">
        <ele>556.6</ele>
        <time>2022-03-21T16:46:10Z</time>
      </trkpt>
      <trkpt lat="46.59679" lon="5.63019">
        <ele>556.6</ele>
        <time>2022-03-21T16:46:11Z</time>
      </trkpt>
      <trkpt lat="46.59685" lon="5.63023">
        <ele>556.6</ele>
        <time>2022-03-21T16:46:12Z</time>
      </trkpt>
      <trkpt lat="46.59691" lon="5.63026">
        <ele>556.4</ele>
        <time>2022-03-21T16:46:13Z</time>
      </trkpt>
      <trkpt lat="46.59697" lon="5.63028">
        <ele>556.4</ele>
        <time>2022-03-21T16:46:14Z</time>
      </trkpt>
      <trkpt lat="46.59704" lon="5.6303">
        <ele>556.4</ele>
        <time>2022-03-21T16:46:15Z</time>
      </trkpt>
      <trkpt lat="46.5971" lon="5.63032">
        <ele>556.4</ele>
        <time>2022-03-21T16:46:16Z</time>
      </trkpt>
      <trkpt lat="46.59717" lon="5.63034">
        <ele>556.4</ele>
        <time>2022-03-21T16:46:17Z</time>
      </trkpt>
      <trkpt lat="46.59723" lon="5.63036">
        <ele>556.4</ele>
        <time>2022-03-21T16:46:18Z</time>
      </trkpt>
      <trkpt lat="46.59729" lon="5.63038">
        <ele>556.4</ele>
        <time>2022-03-21T16:46:19Z</time>
      </trkpt>
      <trkpt lat="46.59735" lon="5.6304">
        <ele>556.4</ele>
        <time>2022-03-21T16:46:20Z</time>
      </trkpt>
      <trkpt lat="46.59741" lon="5.63042">
        <ele>556.4</ele>
        <time>2022-03-21T16:46:21Z</time>
      </trkpt>
      <trkpt lat="46.59747" lon="5.63045">
        <ele>556.6</ele>
        <time>2022-03-21T16:46:22Z</time>
      </trkpt>
      <trkpt lat="46.59751" lon="5.6305">
        <ele>556.8</ele>
        <time>2022-03-21T16:46:23Z</time>
      </trkpt>
      <trkpt lat="46.59753" lon="5.63056">
        <ele>557.2</ele>
        <time>2022-03-21T16:46:24Z</time>
      </trkpt>
      <trkpt lat="46.59755" lon="5.63063">
        <ele>557.2</ele>
        <time>2022-03-21T16:46:25Z</time>
      </trkpt>
      <trkpt lat="46.59755" lon="5.6307">
        <ele>557.6</ele>
        <time>2022-03-21T16:46:26Z</time>
      </trkpt>
      <trkpt lat="46.59755" lon="5.63077">
        <ele>558</ele>
        <time>2022-03-21T16:46:27Z</time>
      </trkpt>
      <trkpt lat="46.59755" lon="5.63085">
        <ele>558.2</ele>
        <time>2022-03-21T16:46:28Z</time>
      </trkpt>
      <trkpt lat="46.59754" lon="5.63092">
        <ele>558.2</ele>
        <time>2022-03-21T16:46:29Z</time>
      </trkpt>
      <trkpt lat="46.59754" lon="5.63099">
        <ele>558.6</ele>
        <time>2022-03-21T16:46:30Z</time>
      </trkpt>
      <trkpt lat="46.59754" lon="5.63106">
        <ele>558.6</ele>
        <time>2022-03-21T16:46:31Z</time>
      </trkpt>
      <trkpt lat="46.59753" lon="5.63113">
        <ele>558.8</ele>
        <time>2022-03-21T16:46:32Z</time>
      </trkpt>
      <trkpt lat="46.59753" lon="5.63121">
        <ele>558.8</ele>
        <time>2022-03-21T16:46:33Z</time>
      </trkpt>
      <trkpt lat="46.59752" lon="5.63128">
        <ele>558.8</ele>
        <time>2022-03-21T16:46:34Z</time>
      </trkpt>
      <trkpt lat="46.59751" lon="5.63136">
        <ele>558.8</ele>
        <time>2022-03-21T16:46:35Z</time>
      </trkpt>
      <trkpt lat="46.59751" lon="5.63145">
        <ele>558.8</ele>
        <time>2022-03-21T16:46:36Z</time>
      </trkpt>
      <trkpt lat="46.5975" lon="5.63154">
        <ele>558.8</ele>
        <time>2022-03-21T16:46:37Z</time>
      </trkpt>
      <trkpt lat="46.5975" lon="5.63163">
        <ele>558.8</ele>
        <time>2022-03-21T16:46:38Z</time>
      </trkpt>
      <trkpt lat="46.5975" lon="5.63172">
        <ele>558.4</ele>
        <time>2022-03-21T16:46:39Z</time>
      </trkpt>
      <trkpt lat="46.5975" lon="5.63182">
        <ele>558.4</ele>
        <time>2022-03-21T16:46:40Z</time>
      </trkpt>
      <trkpt lat="46.59751" lon="5.63191">
        <ele>558.4</ele>
        <time>2022-03-21T16:46:41Z</time>
      </trkpt>
      <trkpt lat="46.59751" lon="5.63201">
        <ele>558.4</ele>
        <time>2022-03-21T16:46:42Z</time>
      </trkpt>
      <trkpt lat="46.59751" lon="5.6321">
        <ele>558.4</ele>
        <time>2022-03-21T16:46:43Z</time>
      </trkpt>
      <trkpt lat="46.59752" lon="5.6322">
        <ele>558.4</ele>
        <time>2022-03-21T16:46:44Z</time>
      </trkpt>
      <trkpt lat="46.59753" lon="5.63229">
        <ele>558.4</ele>
        <time>2022-03-21T16:46:45Z</time>
      </trkpt>
      <trkpt lat="46.59754" lon="5.63238">
        <ele>558.4</ele>
        <time>2022-03-21T16:46:46Z</time>
      </trkpt>
      <trkpt lat="46.59754" lon="5.63247">
        <ele>558.4</ele>
        <time>2022-03-21T16:46:47Z</time>
      </trkpt>
      <trkpt lat="46.59755" lon="5.63256">
        <ele>558.6</ele>
        <time>2022-03-21T16:46:48Z</time>
      </trkpt>
      <trkpt lat="46.59756" lon="5.63265">
        <ele>558.6</ele>
        <time>2022-03-21T16:46:49Z</time>
      </trkpt>
      <trkpt lat="46.59757" lon="5.63274">
        <ele>558.6</ele>
        <time>2022-03-21T16:46:50Z</time>
      </trkpt>
      <trkpt lat="46.59757" lon="5.63283">
        <ele>558.6</ele>
        <time>2022-03-21T16:46:51Z</time>
      </trkpt>
      <trkpt lat="46.59758" lon="5.63292">
        <ele>558.6</ele>
        <time>2022-03-21T16:46:52Z</time>
      </trkpt>
      <trkpt lat="46.59759" lon="5.63301">
        <ele>559</ele>
        <time>2022-03-21T16:46:53Z</time>
      </trkpt>
      <trkpt lat="46.59759" lon="5.6331">
        <ele>559</ele>
        <time>2022-03-21T16:46:54Z</time>
      </trkpt>
      <trkpt lat="46.59759" lon="5.63318">
        <ele>559</ele>
        <time>2022-03-21T16:46:55Z</time>
      </trkpt>
      <trkpt lat="46.59758" lon="5.63327">
        <ele>559.4</ele>
        <time>2022-03-21T16:46:56Z</time>
      </trkpt>
      <trkpt lat="46.59757" lon="5.63335">
        <ele>559.4</ele>
        <time>2022-03-21T16:46:57Z</time>
      </trkpt>
      <trkpt lat="46.59755" lon="5.63344">
        <ele>559.6</ele>
        <time>2022-03-21T16:46:58Z</time>
      </trkpt>
      <trkpt lat="46.59754" lon="5.63352">
        <ele>559.6</ele>
        <time>2022-03-21T16:46:59Z</time>
      </trkpt>
      <trkpt lat="46.59753" lon="5.6336">
        <ele>559.8</ele>
        <time>2022-03-21T16:47:00Z</time>
      </trkpt>
      <trkpt lat="46.59751" lon="5.63368">
        <ele>559.8</ele>
        <time>2022-03-21T16:47:01Z</time>
      </trkpt>
      <trkpt lat="46.5975" lon="5.63376">
        <ele>560.2</ele>
        <time>2022-03-21T16:47:02Z</time>
      </trkpt>
      <trkpt lat="46.59749" lon="5.63383">
        <ele>560.4</ele>
        <time>2022-03-21T16:47:03Z</time>
      </trkpt>
      <trkpt lat="46.59748" lon="5.63391">
        <ele>560.8</ele>
        <time>2022-03-21T16:47:04Z</time>
      </trkpt>
      <trkpt lat="46.59747" lon="5.63398">
        <ele>561</ele>
        <time>2022-03-21T16:47:05Z</time>
      </trkpt>
      <trkpt lat="46.59746" lon="5.63405">
        <ele>561.4</ele>
        <time>2022-03-21T16:47:06Z</time>
      </trkpt>
      <trkpt lat="46.59745" lon="5.63412">
        <ele>561.6</ele>
        <time>2022-03-21T16:47:07Z</time>
      </trkpt>
      <trkpt lat="46.59745" lon="5.63419">
        <ele>562</ele>
        <time>2022-03-21T16:47:08Z</time>
      </trkpt>
      <trkpt lat="46.59744" lon="5.63426">
        <ele>562.2</ele>
        <time>2022-03-21T16:47:09Z</time>
      </trkpt>
      <trkpt lat="46.59743" lon="5.63434">
        <ele>562.2</ele>
        <time>2022-03-21T16:47:10Z</time>
      </trkpt>
      <trkpt lat="46.59743" lon="5.63441">
        <ele>562.6</ele>
        <time>2022-03-21T16:47:11Z</time>
      </trkpt>
      <trkpt lat="46.59743" lon="5.63448">
        <ele>562.6</ele>
        <time>2022-03-21T16:47:12Z</time>
      </trkpt>
      <trkpt lat="46.59744" lon="5.63456">
        <ele>562.8</ele>
        <time>2022-03-21T16:47:13Z</time>
      </trkpt>
      <trkpt lat="46.59745" lon="5.63463">
        <ele>562.8</ele>
        <time>2022-03-21T16:47:14Z</time>
      </trkpt>
      <trkpt lat="46.59747" lon="5.6347">
        <ele>563.2</ele>
        <time>2022-03-21T16:47:15Z</time>
      </trkpt>
      <trkpt lat="46.59749" lon="5.63477">
        <ele>563.2</ele>
        <time>2022-03-21T16:47:16Z</time>
      </trkpt>
      <trkpt lat="46.59751" lon="5.63484">
        <ele>563.4</ele>
        <time>2022-03-21T16:47:17Z</time>
      </trkpt>
      <trkpt lat="46.59754" lon="5.6349">
        <ele>563.8</ele>
        <time>2022-03-21T16:47:18Z</time>
      </trkpt>
      <trkpt lat="46.59757" lon="5.63495">
        <ele>563.8</ele>
        <time>2022-03-21T16:47:19Z</time>
      </trkpt>
      <trkpt lat="46.5976" lon="5.63501">
        <ele>564.2</ele>
        <time>2022-03-21T16:47:20Z</time>
      </trkpt>
      <trkpt lat="46.59763" lon="5.63506">
        <ele>564.2</ele>
        <time>2022-03-21T16:47:21Z</time>
      </trkpt>
      <trkpt lat="46.59767" lon="5.6351">
        <ele>564.6</ele>
        <time>2022-03-21T16:47:23Z</time>
      </trkpt>
      <trkpt lat="46.5977" lon="5.63514">
        <ele>565</ele>
        <time>2022-03-21T16:47:24Z</time>
      </trkpt>
      <trkpt lat="46.59774" lon="5.63518">
        <ele>565.2</ele>
        <time>2022-03-21T16:47:25Z</time>
      </trkpt>
      <trkpt lat="46.59778" lon="5.63522">
        <ele>565.2</ele>
        <time>2022-03-21T16:47:26Z</time>
      </trkpt>
      <trkpt lat="46.59782" lon="5.63525">
        <ele>565.4</ele>
        <time>2022-03-21T16:47:27Z</time>
      </trkpt>
      <trkpt lat="46.59786" lon="5.63528">
        <ele>565.4</ele>
        <time>2022-03-21T16:47:28Z</time>
      </trkpt>
      <trkpt lat="46.5979" lon="5.63531">
        <ele>565.8</ele>
        <time>2022-03-21T16:47:29Z</time>
      </trkpt>
      <trkpt lat="46.59795" lon="5.63534">
        <ele>565.8</ele>
        <time>2022-03-21T16:47:30Z</time>
      </trkpt>
      <trkpt lat="46.59799" lon="5.63537">
        <ele>566</ele>
        <time>2022-03-21T16:47:31Z</time>
      </trkpt>
      <trkpt lat="46.59803" lon="5.6354">
        <ele>566.2</ele>
        <time>2022-03-21T16:47:32Z</time>
      </trkpt>
      <trkpt lat="46.59807" lon="5.63542">
        <ele>566.2</ele>
        <time>2022-03-21T16:47:33Z</time>
      </trkpt>
      <trkpt lat="46.59811" lon="5.63545">
        <ele>566.4</ele>
        <time>2022-03-21T16:47:34Z</time>
      </trkpt>
      <trkpt lat="46.59816" lon="5.63548">
        <ele>566.4</ele>
        <time>2022-03-21T16:47:35Z</time>
      </trkpt>
      <trkpt lat="46.59821" lon="5.63551">
        <ele>566.4</ele>
        <time>2022-03-21T16:47:36Z</time>
      </trkpt>
      <trkpt lat="46.59825" lon="5.63554">
        <ele>566.4</ele>
        <time>2022-03-21T16:47:37Z</time>
      </trkpt>
      <trkpt lat="46.5983" lon="5.63557">
        <ele>566.4</ele>
        <time>2022-03-21T16:47:38Z</time>
      </trkpt>
      <trkpt lat="46.59841" lon="5.63566">
        <ele>566.4</ele>
        <time>2022-03-21T16:47:39Z</time>
      </trkpt>
      <trkpt lat="46.59846" lon="5.63571">
        <ele>566.2</ele>
        <time>2022-03-21T16:47:40Z</time>
      </trkpt>
      <trkpt lat="46.59851" lon="5.63578">
        <ele>566</ele>
        <time>2022-03-21T16:47:41Z</time>
      </trkpt>
      <trkpt lat="46.59856" lon="5.63585">
        <ele>565.8</ele>
        <time>2022-03-21T16:47:42Z</time>
      </trkpt>
      <trkpt lat="46.59859" lon="5.63594">
        <ele>565.8</ele>
        <time>2022-03-21T16:47:43Z</time>
      </trkpt>
      <trkpt lat="46.59863" lon="5.63604">
        <ele>565.4</ele>
        <time>2022-03-21T16:47:44Z</time>
      </trkpt>
      <trkpt lat="46.59867" lon="5.63614">
        <ele>565.2</ele>
        <time>2022-03-21T16:47:45Z</time>
      </trkpt>
      <trkpt lat="46.5987" lon="5.63624">
        <ele>564.8</ele>
        <time>2022-03-21T16:47:46Z</time>
      </trkpt>
      <trkpt lat="46.59874" lon="5.63635">
        <ele>564.6</ele>
        <time>2022-03-21T16:47:47Z</time>
      </trkpt>
      <trkpt lat="46.59878" lon="5.63645">
        <ele>564.6</ele>
        <time>2022-03-21T16:47:48Z</time>
      </trkpt>
      <trkpt lat="46.59881" lon="5.63656">
        <ele>564.2</ele>
        <time>2022-03-21T16:47:49Z</time>
      </trkpt>
      <trkpt lat="46.59885" lon="5.63666">
        <ele>564.2</ele>
        <time>2022-03-21T16:47:50Z</time>
      </trkpt>
      <trkpt lat="46.59888" lon="5.63676">
        <ele>564</ele>
        <time>2022-03-21T16:47:51Z</time>
      </trkpt>
      <trkpt lat="46.59892" lon="5.63687">
        <ele>564</ele>
        <time>2022-03-21T16:47:52Z</time>
      </trkpt>
      <trkpt lat="46.59896" lon="5.63697">
        <ele>564</ele>
        <time>2022-03-21T16:47:53Z</time>
      </trkpt>
      <trkpt lat="46.59899" lon="5.63707">
        <ele>564</ele>
        <time>2022-03-21T16:47:54Z</time>
      </trkpt>
      <trkpt lat="46.59903" lon="5.63716">
        <ele>564</ele>
        <time>2022-03-21T16:47:55Z</time>
      </trkpt>
      <trkpt lat="46.59907" lon="5.63725">
        <ele>564</ele>
        <time>2022-03-21T16:47:56Z</time>
      </trkpt>
      <trkpt lat="46.59911" lon="5.63734">
        <ele>564</ele>
        <time>2022-03-21T16:47:57Z</time>
      </trkpt>
      <trkpt lat="46.59915" lon="5.63743">
        <ele>564</ele>
        <time>2022-03-21T16:47:58Z</time>
      </trkpt>
      <trkpt lat="46.59919" lon="5.63751">
        <ele>564</ele>
        <time>2022-03-21T16:47:59Z</time>
      </trkpt>
      <trkpt lat="46.59924" lon="5.6376">
        <ele>564</ele>
        <time>2022-03-21T16:48:00Z</time>
      </trkpt>
      <trkpt lat="46.59929" lon="5.63767">
        <ele>564</ele>
        <time>2022-03-21T16:48:01Z</time>
      </trkpt>
      <trkpt lat="46.59934" lon="5.63774">
        <ele>564</ele>
        <time>2022-03-21T16:48:02Z</time>
      </trkpt>
      <trkpt lat="46.59939" lon="5.6378">
        <ele>564</ele>
        <time>2022-03-21T16:48:03Z</time>
      </trkpt>
      <trkpt lat="46.59945" lon="5.63786">
        <ele>564</ele>
        <time>2022-03-21T16:48:04Z</time>
      </trkpt>
      <trkpt lat="46.5995" lon="5.63791">
        <ele>564</ele>
        <time>2022-03-21T16:48:05Z</time>
      </trkpt>
      <trkpt lat="46.59956" lon="5.63796">
        <ele>564</ele>
        <time>2022-03-21T16:48:06Z</time>
      </trkpt>
      <trkpt lat="46.59961" lon="5.63801">
        <ele>564.2</ele>
        <time>2022-03-21T16:48:07Z</time>
      </trkpt>
      <trkpt lat="46.59966" lon="5.63806">
        <ele>564.2</ele>
        <time>2022-03-21T16:48:08Z</time>
      </trkpt>
      <trkpt lat="46.5997" lon="5.6381">
        <ele>564.6</ele>
        <time>2022-03-21T16:48:09Z</time>
      </trkpt>
      <trkpt lat="46.59975" lon="5.63815">
        <ele>564.8</ele>
        <time>2022-03-21T16:48:10Z</time>
      </trkpt>
      <trkpt lat="46.59979" lon="5.63819">
        <ele>564.8</ele>
        <time>2022-03-21T16:48:11Z</time>
      </trkpt>
      <trkpt lat="46.59983" lon="5.63823">
        <ele>565.2</ele>
        <time>2022-03-21T16:48:12Z</time>
      </trkpt>
      <trkpt lat="46.59987" lon="5.63827">
        <ele>565.2</ele>
        <time>2022-03-21T16:48:13Z</time>
      </trkpt>
      <trkpt lat="46.59991" lon="5.6383">
        <ele>565.4</ele>
        <time>2022-03-21T16:48:14Z</time>
      </trkpt>
      <trkpt lat="46.59995" lon="5.63834">
        <ele>565.6</ele>
        <time>2022-03-21T16:48:15Z</time>
      </trkpt>
      <trkpt lat="46.59998" lon="5.63838">
        <ele>565.8</ele>
        <time>2022-03-21T16:48:16Z</time>
      </trkpt>
      <trkpt lat="46.60002" lon="5.63841">
        <ele>565.8</ele>
        <time>2022-03-21T16:48:17Z</time>
      </trkpt>
      <trkpt lat="46.60005" lon="5.63845">
        <ele>566.2</ele>
        <time>2022-03-21T16:48:18Z</time>
      </trkpt>
      <trkpt lat="46.60009" lon="5.63849">
        <ele>566.2</ele>
        <time>2022-03-21T16:48:19Z</time>
      </trkpt>
      <trkpt lat="46.60012" lon="5.63852">
        <ele>566.2</ele>
        <time>2022-03-21T16:48:20Z</time>
      </trkpt>
      <trkpt lat="46.60016" lon="5.63856">
        <ele>566.4</ele>
        <time>2022-03-21T16:48:21Z</time>
      </trkpt>
      <trkpt lat="46.60019" lon="5.63859">
        <ele>566.4</ele>
        <time>2022-03-21T16:48:22Z</time>
      </trkpt>
      <trkpt lat="46.60023" lon="5.63863">
        <ele>566.6</ele>
        <time>2022-03-21T16:48:23Z</time>
      </trkpt>
      <trkpt lat="46.60027" lon="5.63866">
        <ele>566.6</ele>
        <time>2022-03-21T16:48:24Z</time>
      </trkpt>
      <trkpt lat="46.6003" lon="5.6387">
        <ele>566.6</ele>
        <time>2022-03-21T16:48:25Z</time>
      </trkpt>
      <trkpt lat="46.60034" lon="5.63874">
        <ele>567</ele>
        <time>2022-03-21T16:48:26Z</time>
      </trkpt>
      <trkpt lat="46.60038" lon="5.63877">
        <ele>567</ele>
        <time>2022-03-21T16:48:27Z</time>
      </trkpt>
      <trkpt lat="46.60041" lon="5.63881">
        <ele>567</ele>
        <time>2022-03-21T16:48:28Z</time>
      </trkpt>
      <trkpt lat="46.60045" lon="5.63885">
        <ele>567</ele>
        <time>2022-03-21T16:48:29Z</time>
      </trkpt>
      <trkpt lat="46.60048" lon="5.63889">
        <ele>567</ele>
        <time>2022-03-21T16:48:30Z</time>
      </trkpt>
      <trkpt lat="46.60051" lon="5.63893">
        <ele>567.2</ele>
        <time>2022-03-21T16:48:31Z</time>
      </trkpt>
      <trkpt lat="46.60053" lon="5.63898">
        <ele>567.2</ele>
        <time>2022-03-21T16:48:32Z</time>
      </trkpt>
      <trkpt lat="46.60054" lon="5.63904">
        <ele>567.2</ele>
        <time>2022-03-21T16:48:33Z</time>
      </trkpt>
      <trkpt lat="46.60053" lon="5.63909">
        <ele>567.2</ele>
        <time>2022-03-21T16:48:34Z</time>
      </trkpt>
      <trkpt lat="46.60052" lon="5.63914">
        <ele>567.4</ele>
        <time>2022-03-21T16:48:35Z</time>
      </trkpt>
      <trkpt lat="46.60049" lon="5.63919">
        <ele>567.4</ele>
        <time>2022-03-21T16:48:36Z</time>
      </trkpt>
      <trkpt lat="46.60046" lon="5.63924">
        <ele>567.4</ele>
        <time>2022-03-21T16:48:37Z</time>
      </trkpt>
      <trkpt lat="46.60044" lon="5.63929">
        <ele>567.8</ele>
        <time>2022-03-21T16:48:38Z</time>
      </trkpt>
      <trkpt lat="46.60041" lon="5.63935">
        <ele>567.8</ele>
        <time>2022-03-21T16:48:39Z</time>
      </trkpt>
      <trkpt lat="46.60039" lon="5.6394">
        <ele>568</ele>
        <time>2022-03-21T16:48:40Z</time>
      </trkpt>
      <trkpt lat="46.60036" lon="5.63945">
        <ele>568</ele>
        <time>2022-03-21T16:48:41Z</time>
      </trkpt>
      <trkpt lat="46.60034" lon="5.63951">
        <ele>568.2</ele>
        <time>2022-03-21T16:48:42Z</time>
      </trkpt>
      <trkpt lat="46.60031" lon="5.63956">
        <ele>568.2</ele>
        <time>2022-03-21T16:48:43Z</time>
      </trkpt>
      <trkpt lat="46.60028" lon="5.63961">
        <ele>568.4</ele>
        <time>2022-03-21T16:48:44Z</time>
      </trkpt>
      <trkpt lat="46.60025" lon="5.63967">
        <ele>568.4</ele>
        <time>2022-03-21T16:48:45Z</time>
      </trkpt>
      <trkpt lat="46.60023" lon="5.63972">
        <ele>568.6</ele>
        <time>2022-03-21T16:48:46Z</time>
      </trkpt>
      <trkpt lat="46.6002" lon="5.63978">
        <ele>568.6</ele>
        <time>2022-03-21T16:48:47Z</time>
      </trkpt>
      <trkpt lat="46.60017" lon="5.63983">
        <ele>568.6</ele>
        <time>2022-03-21T16:48:48Z</time>
      </trkpt>
      <trkpt lat="46.60014" lon="5.63989">
        <ele>569</ele>
        <time>2022-03-21T16:48:49Z</time>
      </trkpt>
      <trkpt lat="46.60011" lon="5.63995">
        <ele>569</ele>
        <time>2022-03-21T16:48:50Z</time>
      </trkpt>
      <trkpt lat="46.60008" lon="5.64001">
        <ele>569</ele>
        <time>2022-03-21T16:48:51Z</time>
      </trkpt>
      <trkpt lat="46.60005" lon="5.64006">
        <ele>569</ele>
        <time>2022-03-21T16:48:52Z</time>
      </trkpt>
      <trkpt lat="46.60002" lon="5.64012">
        <ele>569.2</ele>
        <time>2022-03-21T16:48:53Z</time>
      </trkpt>
      <trkpt lat="46.59999" lon="5.64018">
        <ele>569.2</ele>
        <time>2022-03-21T16:48:54Z</time>
      </trkpt>
      <trkpt lat="46.59996" lon="5.64024">
        <ele>569.2</ele>
        <time>2022-03-21T16:48:55Z</time>
      </trkpt>
      <trkpt lat="46.59992" lon="5.6403">
        <ele>569.2</ele>
        <time>2022-03-21T16:48:56Z</time>
      </trkpt>
      <trkpt lat="46.59989" lon="5.64036">
        <ele>569.4</ele>
        <time>2022-03-21T16:48:57Z</time>
      </trkpt>
      <trkpt lat="46.59986" lon="5.64042">
        <ele>569.4</ele>
        <time>2022-03-21T16:48:58Z</time>
      </trkpt>
      <trkpt lat="46.59983" lon="5.64048">
        <ele>569.4</ele>
        <time>2022-03-21T16:48:59Z</time>
      </trkpt>
      <trkpt lat="46.59979" lon="5.64054">
        <ele>569.4</ele>
        <time>2022-03-21T16:49:00Z</time>
      </trkpt>
      <trkpt lat="46.59976" lon="5.6406">
        <ele>569.4</ele>
        <time>2022-03-21T16:49:01Z</time>
      </trkpt>
      <trkpt lat="46.59973" lon="5.64067">
        <ele>569.4</ele>
        <time>2022-03-21T16:49:02Z</time>
      </trkpt>
      <trkpt lat="46.59969" lon="5.64073">
        <ele>569.4</ele>
        <time>2022-03-21T16:49:03Z</time>
      </trkpt>
      <trkpt lat="46.59966" lon="5.6408">
        <ele>569.4</ele>
        <time>2022-03-21T16:49:04Z</time>
      </trkpt>
      <trkpt lat="46.59963" lon="5.64088">
        <ele>569.4</ele>
        <time>2022-03-21T16:49:05Z</time>
      </trkpt>
      <trkpt lat="46.59959" lon="5.64095">
        <ele>569.4</ele>
        <time>2022-03-21T16:49:06Z</time>
      </trkpt>
      <trkpt lat="46.59955" lon="5.64102">
        <ele>569.4</ele>
        <time>2022-03-21T16:49:07Z</time>
      </trkpt>
      <trkpt lat="46.59951" lon="5.6411">
        <ele>569.2</ele>
        <time>2022-03-21T16:49:08Z</time>
      </trkpt>
      <trkpt lat="46.59947" lon="5.64118">
        <ele>569.2</ele>
        <time>2022-03-21T16:49:09Z</time>
      </trkpt>
      <trkpt lat="46.59943" lon="5.64126">
        <ele>569.2</ele>
        <time>2022-03-21T16:49:10Z</time>
      </trkpt>
      <trkpt lat="46.59939" lon="5.64135">
        <ele>568.8</ele>
        <time>2022-03-21T16:49:11Z</time>
      </trkpt>
      <trkpt lat="46.59934" lon="5.64143">
        <ele>568.8</ele>
        <time>2022-03-21T16:49:12Z</time>
      </trkpt>
      <trkpt lat="46.5993" lon="5.64152">
        <ele>568.8</ele>
        <time>2022-03-21T16:49:13Z</time>
      </trkpt>
      <trkpt lat="46.59926" lon="5.64161">
        <ele>568.6</ele>
        <time>2022-03-21T16:49:14Z</time>
      </trkpt>
      <trkpt lat="46.59921" lon="5.64169">
        <ele>568.6</ele>
        <time>2022-03-21T16:49:15Z</time>
      </trkpt>
      <trkpt lat="46.59917" lon="5.64178">
        <ele>568.6</ele>
        <time>2022-03-21T16:49:16Z</time>
      </trkpt>
      <trkpt lat="46.59913" lon="5.64186">
        <ele>568.6</ele>
        <time>2022-03-21T16:49:17Z</time>
      </trkpt>
      <trkpt lat="46.59908" lon="5.64195">
        <ele>568.4</ele>
        <time>2022-03-21T16:49:18Z</time>
      </trkpt>
      <trkpt lat="46.59904" lon="5.64203">
        <ele>568.4</ele>
        <time>2022-03-21T16:49:19Z</time>
      </trkpt>
      <trkpt lat="46.599" lon="5.64212">
        <ele>568.2</ele>
        <time>2022-03-21T16:49:20Z</time>
      </trkpt>
      <trkpt lat="46.59896" lon="5.6422">
        <ele>568.2</ele>
        <time>2022-03-21T16:49:21Z</time>
      </trkpt>
      <trkpt lat="46.59891" lon="5.64229">
        <ele>568.2</ele>
        <time>2022-03-21T16:49:22Z</time>
      </trkpt>
      <trkpt lat="46.59887" lon="5.64237">
        <ele>568.2</ele>
        <time>2022-03-21T16:49:23Z</time>
      </trkpt>
      <trkpt lat="46.59883" lon="5.64245">
        <ele>568.2</ele>
        <time>2022-03-21T16:49:24Z</time>
      </trkpt>
      <trkpt lat="46.59879" lon="5.64253">
        <ele>568.2</ele>
        <time>2022-03-21T16:49:25Z</time>
      </trkpt>
      <trkpt lat="46.59875" lon="5.64261">
        <ele>568.2</ele>
        <time>2022-03-21T16:49:26Z</time>
      </trkpt>
      <trkpt lat="46.59871" lon="5.64269">
        <ele>568.2</ele>
        <time>2022-03-21T16:49:27Z</time>
      </trkpt>
      <trkpt lat="46.59867" lon="5.64276">
        <ele>568.4</ele>
        <time>2022-03-21T16:49:28Z</time>
      </trkpt>
      <trkpt lat="46.59863" lon="5.64284">
        <ele>568.4</ele>
        <time>2022-03-21T16:49:29Z</time>
      </trkpt>
      <trkpt lat="46.59859" lon="5.64292">
        <ele>568.6</ele>
        <time>2022-03-21T16:49:30Z</time>
      </trkpt>
      <trkpt lat="46.59855" lon="5.64299">
        <ele>568.6</ele>
        <time>2022-03-21T16:49:31Z</time>
      </trkpt>
      <trkpt lat="46.59852" lon="5.64306">
        <ele>569</ele>
        <time>2022-03-21T16:49:32Z</time>
      </trkpt>
      <trkpt lat="46.59848" lon="5.64313">
        <ele>569.2</ele>
        <time>2022-03-21T16:49:33Z</time>
      </trkpt>
      <trkpt lat="46.59845" lon="5.6432">
        <ele>569.2</ele>
        <time>2022-03-21T16:49:34Z</time>
      </trkpt>
      <trkpt lat="46.59841" lon="5.64326">
        <ele>569.4</ele>
        <time>2022-03-21T16:49:35Z</time>
      </trkpt>
      <trkpt lat="46.59838" lon="5.64333">
        <ele>569.4</ele>
        <time>2022-03-21T16:49:36Z</time>
      </trkpt>
      <trkpt lat="46.59835" lon="5.64339">
        <ele>569.8</ele>
        <time>2022-03-21T16:49:37Z</time>
      </trkpt>
      <trkpt lat="46.59832" lon="5.64345">
        <ele>570.2</ele>
        <time>2022-03-21T16:49:38Z</time>
      </trkpt>
      <trkpt lat="46.59829" lon="5.6435">
        <ele>570.4</ele>
        <time>2022-03-21T16:49:39Z</time>
      </trkpt>
      <trkpt lat="46.59826" lon="5.64356">
        <ele>570.4</ele>
        <time>2022-03-21T16:49:40Z</time>
      </trkpt>
      <trkpt lat="46.59824" lon="5.64361">
        <ele>570.8</ele>
        <time>2022-03-21T16:49:41Z</time>
      </trkpt>
      <trkpt lat="46.59821" lon="5.64367">
        <ele>571</ele>
        <time>2022-03-21T16:49:42Z</time>
      </trkpt>
      <trkpt lat="46.59818" lon="5.64372">
        <ele>571.4</ele>
        <time>2022-03-21T16:49:43Z</time>
      </trkpt>
      <trkpt lat="46.59816" lon="5.64377">
        <ele>571.6</ele>
        <time>2022-03-21T16:49:44Z</time>
      </trkpt>
      <trkpt lat="46.59813" lon="5.64382">
        <ele>571.8</ele>
        <time>2022-03-21T16:49:45Z</time>
      </trkpt>
      <trkpt lat="46.59811" lon="5.64388">
        <ele>572.2</ele>
        <time>2022-03-21T16:49:46Z</time>
      </trkpt>
      <trkpt lat="46.59809" lon="5.64393">
        <ele>572.4</ele>
        <time>2022-03-21T16:49:47Z</time>
      </trkpt>
      <trkpt lat="46.59807" lon="5.64398">
        <ele>572.6</ele>
        <time>2022-03-21T16:49:48Z</time>
      </trkpt>
      <trkpt lat="46.59804" lon="5.64403">
        <ele>572.6</ele>
        <time>2022-03-21T16:49:49Z</time>
      </trkpt>
      <trkpt lat="46.59802" lon="5.64407">
        <ele>573</ele>
        <time>2022-03-21T16:49:50Z</time>
      </trkpt>
      <trkpt lat="46.59799" lon="5.64412">
        <ele>573</ele>
        <time>2022-03-21T16:49:51Z</time>
      </trkpt>
      <trkpt lat="46.59796" lon="5.64416">
        <ele>573.2</ele>
        <time>2022-03-21T16:49:52Z</time>
      </trkpt>
      <trkpt lat="46.59794" lon="5.64421">
        <ele>573.2</ele>
        <time>2022-03-21T16:49:53Z</time>
      </trkpt>
      <trkpt lat="46.59791" lon="5.64426">
        <ele>573.6</ele>
        <time>2022-03-21T16:49:54Z</time>
      </trkpt>
      <trkpt lat="46.59789" lon="5.6443">
        <ele>573.6</ele>
        <time>2022-03-21T16:49:55Z</time>
      </trkpt>
      <trkpt lat="46.59786" lon="5.64435">
        <ele>574</ele>
        <time>2022-03-21T16:49:56Z</time>
      </trkpt>
      <trkpt lat="46.59784" lon="5.6444">
        <ele>574</ele>
        <time>2022-03-21T16:49:57Z</time>
      </trkpt>
      <trkpt lat="46.59782" lon="5.64444">
        <ele>574.2</ele>
        <time>2022-03-21T16:49:58Z</time>
      </trkpt>
      <trkpt lat="46.59779" lon="5.64449">
        <ele>574.4</ele>
        <time>2022-03-21T16:49:59Z</time>
      </trkpt>
      <trkpt lat="46.59777" lon="5.64453">
        <ele>574.4</ele>
        <time>2022-03-21T16:50:00Z</time>
      </trkpt>
      <trkpt lat="46.59774" lon="5.64458">
        <ele>574.6</ele>
        <time>2022-03-21T16:50:01Z</time>
      </trkpt>
      <trkpt lat="46.59772" lon="5.64462">
        <ele>574.6</ele>
        <time>2022-03-21T16:50:02Z</time>
      </trkpt>
      <trkpt lat="46.59769" lon="5.64467">
        <ele>575</ele>
        <time>2022-03-21T16:50:03Z</time>
      </trkpt>
      <trkpt lat="46.59767" lon="5.64471">
        <ele>575</ele>
        <time>2022-03-21T16:50:04Z</time>
      </trkpt>
      <trkpt lat="46.59764" lon="5.64475">
        <ele>575.4</ele>
        <time>2022-03-21T16:50:05Z</time>
      </trkpt>
      <trkpt lat="46.59762" lon="5.64479">
        <ele>575.6</ele>
        <time>2022-03-21T16:50:06Z</time>
      </trkpt>
      <trkpt lat="46.5976" lon="5.64483">
        <ele>576</ele>
        <time>2022-03-21T16:50:07Z</time>
      </trkpt>
      <trkpt lat="46.59757" lon="5.64488">
        <ele>576.2</ele>
        <time>2022-03-21T16:50:08Z</time>
      </trkpt>
      <trkpt lat="46.59755" lon="5.64492">
        <ele>576.2</ele>
        <time>2022-03-21T16:50:09Z</time>
      </trkpt>
      <trkpt lat="46.59753" lon="5.64497">
        <ele>576.6</ele>
        <time>2022-03-21T16:50:10Z</time>
      </trkpt>
      <trkpt lat="46.59751" lon="5.64502">
        <ele>576.6</ele>
        <time>2022-03-21T16:50:11Z</time>
      </trkpt>
      <trkpt lat="46.59749" lon="5.64506">
        <ele>576.8</ele>
        <time>2022-03-21T16:50:12Z</time>
      </trkpt>
      <trkpt lat="46.59747" lon="5.64511">
        <ele>577</ele>
        <time>2022-03-21T16:50:13Z</time>
      </trkpt>
      <trkpt lat="46.59745" lon="5.64516">
        <ele>577.2</ele>
        <time>2022-03-21T16:50:14Z</time>
      </trkpt>
      <trkpt lat="46.59743" lon="5.64521">
        <ele>577.2</ele>
        <time>2022-03-21T16:50:15Z</time>
      </trkpt>
      <trkpt lat="46.59742" lon="5.64527">
        <ele>577.6</ele>
        <time>2022-03-21T16:50:16Z</time>
      </trkpt>
      <trkpt lat="46.5974" lon="5.64532">
        <ele>577.6</ele>
        <time>2022-03-21T16:50:17Z</time>
      </trkpt>
      <trkpt lat="46.59738" lon="5.64539">
        <ele>577.8</ele>
        <time>2022-03-21T16:50:18Z</time>
      </trkpt>
      <trkpt lat="46.59737" lon="5.64545">
        <ele>577.8</ele>
        <time>2022-03-21T16:50:19Z</time>
      </trkpt>
      <trkpt lat="46.59735" lon="5.64551">
        <ele>578</ele>
        <time>2022-03-21T16:50:20Z</time>
      </trkpt>
      <trkpt lat="46.59734" lon="5.64558">
        <ele>578</ele>
        <time>2022-03-21T16:50:21Z</time>
      </trkpt>
      <trkpt lat="46.59733" lon="5.64566">
        <ele>578</ele>
        <time>2022-03-21T16:50:22Z</time>
      </trkpt>
      <trkpt lat="46.59732" lon="5.64574">
        <ele>578</ele>
        <time>2022-03-21T16:50:23Z</time>
      </trkpt>
      <trkpt lat="46.59731" lon="5.64583">
        <ele>578</ele>
        <time>2022-03-21T16:50:24Z</time>
      </trkpt>
      <trkpt lat="46.59731" lon="5.64592">
        <ele>578</ele>
        <time>2022-03-21T16:50:25Z</time>
      </trkpt>
      <trkpt lat="46.59731" lon="5.64601">
        <ele>578</ele>
        <time>2022-03-21T16:50:26Z</time>
      </trkpt>
      <trkpt lat="46.59731" lon="5.6461">
        <ele>578</ele>
        <time>2022-03-21T16:50:27Z</time>
      </trkpt>
      <trkpt lat="46.59732" lon="5.6462">
        <ele>578</ele>
        <time>2022-03-21T16:50:28Z</time>
      </trkpt>
      <trkpt lat="46.59733" lon="5.64631">
        <ele>578</ele>
        <time>2022-03-21T16:50:29Z</time>
      </trkpt>
      <trkpt lat="46.59734" lon="5.64642">
        <ele>577.8</ele>
        <time>2022-03-21T16:50:30Z</time>
      </trkpt>
      <trkpt lat="46.59737" lon="5.64653">
        <ele>577.8</ele>
        <time>2022-03-21T16:50:31Z</time>
      </trkpt>
      <trkpt lat="46.5974" lon="5.64664">
        <ele>577.4</ele>
        <time>2022-03-21T16:50:32Z</time>
      </trkpt>
      <trkpt lat="46.59743" lon="5.64675">
        <ele>577.2</ele>
        <time>2022-03-21T16:50:33Z</time>
      </trkpt>
      <trkpt lat="46.59747" lon="5.64686">
        <ele>576.8</ele>
        <time>2022-03-21T16:50:34Z</time>
      </trkpt>
      <trkpt lat="46.59752" lon="5.64698">
        <ele>576.4</ele>
        <time>2022-03-21T16:50:35Z</time>
      </trkpt>
      <trkpt lat="46.59757" lon="5.64709">
        <ele>576.4</ele>
        <time>2022-03-21T16:50:36Z</time>
      </trkpt>
      <trkpt lat="46.59762" lon="5.64719">
        <ele>576</ele>
        <time>2022-03-21T16:50:37Z</time>
      </trkpt>
      <trkpt lat="46.59769" lon="5.6473">
        <ele>575.6</ele>
        <time>2022-03-21T16:50:38Z</time>
      </trkpt>
      <trkpt lat="46.59775" lon="5.6474">
        <ele>575</ele>
        <time>2022-03-21T16:50:39Z</time>
      </trkpt>
      <trkpt lat="46.59782" lon="5.6475">
        <ele>574.4</ele>
        <time>2022-03-21T16:50:40Z</time>
      </trkpt>
      <trkpt lat="46.59789" lon="5.6476">
        <ele>574</ele>
        <time>2022-03-21T16:50:41Z</time>
      </trkpt>
      <trkpt lat="46.59796" lon="5.6477">
        <ele>573.6</ele>
        <time>2022-03-21T16:50:42Z</time>
      </trkpt>
      <trkpt lat="46.59803" lon="5.6478">
        <ele>573.2</ele>
        <time>2022-03-21T16:50:43Z</time>
      </trkpt>
      <trkpt lat="46.5981" lon="5.6479">
        <ele>572.8</ele>
        <time>2022-03-21T16:50:44Z</time>
      </trkpt>
      <trkpt lat="46.59818" lon="5.64801">
        <ele>572.2</ele>
        <time>2022-03-21T16:50:45Z</time>
      </trkpt>
      <trkpt lat="46.59827" lon="5.64811">
        <ele>571.6</ele>
        <time>2022-03-21T16:50:46Z</time>
      </trkpt>
      <trkpt lat="46.59834" lon="5.64823">
        <ele>571</ele>
        <time>2022-03-21T16:50:47Z</time>
      </trkpt>
      <trkpt lat="46.59842" lon="5.64835">
        <ele>570.4</ele>
        <time>2022-03-21T16:50:48Z</time>
      </trkpt>
      <trkpt lat="46.5985" lon="5.6485">
        <ele>569.8</ele>
        <time>2022-03-21T16:50:49Z</time>
      </trkpt>
      <trkpt lat="46.59857" lon="5.64865">
        <ele>569.2</ele>
        <time>2022-03-21T16:50:50Z</time>
      </trkpt>
      <trkpt lat="46.59863" lon="5.64881">
        <ele>568.6</ele>
        <time>2022-03-21T16:50:51Z</time>
      </trkpt>
      <trkpt lat="46.59872" lon="5.64896">
        <ele>568</ele>
        <time>2022-03-21T16:50:52Z</time>
      </trkpt>
      <trkpt lat="46.59878" lon="5.64911">
        <ele>567.2</ele>
        <time>2022-03-21T16:50:53Z</time>
      </trkpt>
      <trkpt lat="46.59884" lon="5.64927">
        <ele>566.6</ele>
        <time>2022-03-21T16:50:54Z</time>
      </trkpt>
      <trkpt lat="46.5989" lon="5.64942">
        <ele>566</ele>
        <time>2022-03-21T16:50:55Z</time>
      </trkpt>
      <trkpt lat="46.59897" lon="5.64956">
        <ele>565.2</ele>
        <time>2022-03-21T16:50:56Z</time>
      </trkpt>
      <trkpt lat="46.59903" lon="5.64971">
        <ele>564.6</ele>
        <time>2022-03-21T16:50:57Z</time>
      </trkpt>
      <trkpt lat="46.5991" lon="5.64987">
        <ele>563.8</ele>
        <time>2022-03-21T16:50:58Z</time>
      </trkpt>
      <trkpt lat="46.59916" lon="5.65002">
        <ele>563.2</ele>
        <time>2022-03-21T16:50:59Z</time>
      </trkpt>
      <trkpt lat="46.59923" lon="5.65017">
        <ele>562.4</ele>
        <time>2022-03-21T16:51:00Z</time>
      </trkpt>
      <trkpt lat="46.5993" lon="5.65033">
        <ele>561.8</ele>
        <time>2022-03-21T16:51:01Z</time>
      </trkpt>
      <trkpt lat="46.59936" lon="5.65049">
        <ele>561</ele>
        <time>2022-03-21T16:51:02Z</time>
      </trkpt>
      <trkpt lat="46.59942" lon="5.65065">
        <ele>560.4</ele>
        <time>2022-03-21T16:51:03Z</time>
      </trkpt>
      <trkpt lat="46.59948" lon="5.65081">
        <ele>559.6</ele>
        <time>2022-03-21T16:51:04Z</time>
      </trkpt>
      <trkpt lat="46.59955" lon="5.65097">
        <ele>559</ele>
        <time>2022-03-21T16:51:05Z</time>
      </trkpt>
      <trkpt lat="46.59961" lon="5.65114">
        <ele>558.2</ele>
        <time>2022-03-21T16:51:06Z</time>
      </trkpt>
      <trkpt lat="46.59968" lon="5.6513">
        <ele>557.6</ele>
        <time>2022-03-21T16:51:07Z</time>
      </trkpt>
      <trkpt lat="46.59974" lon="5.65146">
        <ele>556.8</ele>
        <time>2022-03-21T16:51:08Z</time>
      </trkpt>
      <trkpt lat="46.59981" lon="5.65161">
        <ele>556</ele>
        <time>2022-03-21T16:51:09Z</time>
      </trkpt>
      <trkpt lat="46.59987" lon="5.65177">
        <ele>555.4</ele>
        <time>2022-03-21T16:51:10Z</time>
      </trkpt>
      <trkpt lat="46.59993" lon="5.65193">
        <ele>554.8</ele>
        <time>2022-03-21T16:51:11Z</time>
      </trkpt>
      <trkpt lat="46.59999" lon="5.65209">
        <ele>554.2</ele>
        <time>2022-03-21T16:51:12Z</time>
      </trkpt>
      <trkpt lat="46.60006" lon="5.65225">
        <ele>553.6</ele>
        <time>2022-03-21T16:51:13Z</time>
      </trkpt>
      <trkpt lat="46.60012" lon="5.65242">
        <ele>552.8</ele>
        <time>2022-03-21T16:51:14Z</time>
      </trkpt>
      <trkpt lat="46.60017" lon="5.65259">
        <ele>551.2</ele>
        <time>2022-03-21T16:51:15Z</time>
      </trkpt>
      <trkpt lat="46.6002" lon="5.65278">
        <ele>549.6</ele>
        <time>2022-03-21T16:51:17Z</time>
      </trkpt>
      <trkpt lat="46.60024" lon="5.65297">
        <ele>549</ele>
        <time>2022-03-21T16:51:18Z</time>
      </trkpt>
      <trkpt lat="46.60025" lon="5.65316">
        <ele>548.2</ele>
        <time>2022-03-21T16:51:19Z</time>
      </trkpt>
      <trkpt lat="46.60025" lon="5.65335">
        <ele>547.4</ele>
        <time>2022-03-21T16:51:20Z</time>
      </trkpt>
      <trkpt lat="46.60023" lon="5.65355">
        <ele>546.8</ele>
        <time>2022-03-21T16:51:21Z</time>
      </trkpt>
      <trkpt lat="46.60022" lon="5.65374">
        <ele>546</ele>
        <time>2022-03-21T16:51:22Z</time>
      </trkpt>
      <trkpt lat="46.6002" lon="5.65394">
        <ele>545.4</ele>
        <time>2022-03-21T16:51:23Z</time>
      </trkpt>
      <trkpt lat="46.60019" lon="5.65413">
        <ele>544.8</ele>
        <time>2022-03-21T16:51:24Z</time>
      </trkpt>
      <trkpt lat="46.60018" lon="5.65431">
        <ele>544.2</ele>
        <time>2022-03-21T16:51:25Z</time>
      </trkpt>
      <trkpt lat="46.60016" lon="5.6545">
        <ele>543.8</ele>
        <time>2022-03-21T16:51:26Z</time>
      </trkpt>
      <trkpt lat="46.60015" lon="5.65469">
        <ele>543.8</ele>
        <time>2022-03-21T16:51:27Z</time>
      </trkpt>
      <trkpt lat="46.60014" lon="5.65488">
        <ele>543.2</ele>
        <time>2022-03-21T16:51:28Z</time>
      </trkpt>
      <trkpt lat="46.60012" lon="5.65506">
        <ele>542.8</ele>
        <time>2022-03-21T16:51:29Z</time>
      </trkpt>
      <trkpt lat="46.60012" lon="5.65524">
        <ele>542.6</ele>
        <time>2022-03-21T16:51:30Z</time>
      </trkpt>
      <trkpt lat="46.60011" lon="5.65541">
        <ele>542.2</ele>
        <time>2022-03-21T16:51:31Z</time>
      </trkpt>
      <trkpt lat="46.6001" lon="5.65558">
        <ele>542</ele>
        <time>2022-03-21T16:51:32Z</time>
      </trkpt>
      <trkpt lat="46.60009" lon="5.65575">
        <ele>541.8</ele>
        <time>2022-03-21T16:51:33Z</time>
      </trkpt>
      <trkpt lat="46.60008" lon="5.65591">
        <ele>541.8</ele>
        <time>2022-03-21T16:51:34Z</time>
      </trkpt>
      <trkpt lat="46.60007" lon="5.65608">
        <ele>541.4</ele>
        <time>2022-03-21T16:51:35Z</time>
      </trkpt>
      <trkpt lat="46.60004" lon="5.65641">
        <ele>541.4</ele>
        <time>2022-03-21T16:51:36Z</time>
      </trkpt>
      <trkpt lat="46.60003" lon="5.65656">
        <ele>541.2</ele>
        <time>2022-03-21T16:51:37Z</time>
      </trkpt>
      <trkpt lat="46.60002" lon="5.65672">
        <ele>541</ele>
        <time>2022-03-21T16:51:38Z</time>
      </trkpt>
      <trkpt lat="46.60002" lon="5.65688">
        <ele>540.8</ele>
        <time>2022-03-21T16:51:39Z</time>
      </trkpt>
      <trkpt lat="46.60001" lon="5.65704">
        <ele>540.6</ele>
        <time>2022-03-21T16:51:40Z</time>
      </trkpt>
      <trkpt lat="46.6" lon="5.6572">
        <ele>540.2</ele>
        <time>2022-03-21T16:51:41Z</time>
      </trkpt>
      <trkpt lat="46.59999" lon="5.65737">
        <ele>539.6</ele>
        <time>2022-03-21T16:51:42Z</time>
      </trkpt>
      <trkpt lat="46.59998" lon="5.65753">
        <ele>539.2</ele>
        <time>2022-03-21T16:51:43Z</time>
      </trkpt>
      <trkpt lat="46.59997" lon="5.6577">
        <ele>538.6</ele>
        <time>2022-03-21T16:51:44Z</time>
      </trkpt>
      <trkpt lat="46.59996" lon="5.65787">
        <ele>538.2</ele>
        <time>2022-03-21T16:51:45Z</time>
      </trkpt>
      <trkpt lat="46.59996" lon="5.65805">
        <ele>537.6</ele>
        <time>2022-03-21T16:51:46Z</time>
      </trkpt>
      <trkpt lat="46.59995" lon="5.65823">
        <ele>537</ele>
        <time>2022-03-21T16:51:47Z</time>
      </trkpt>
      <trkpt lat="46.59994" lon="5.6584">
        <ele>536.4</ele>
        <time>2022-03-21T16:51:48Z</time>
      </trkpt>
      <trkpt lat="46.59993" lon="5.65858">
        <ele>535.8</ele>
        <time>2022-03-21T16:51:49Z</time>
      </trkpt>
      <trkpt lat="46.59991" lon="5.65876">
        <ele>535.2</ele>
        <time>2022-03-21T16:51:50Z</time>
      </trkpt>
      <trkpt lat="46.59988" lon="5.65894">
        <ele>534.6</ele>
        <time>2022-03-21T16:51:51Z</time>
      </trkpt>
      <trkpt lat="46.59985" lon="5.65912">
        <ele>534</ele>
        <time>2022-03-21T16:51:52Z</time>
      </trkpt>
      <trkpt lat="46.59982" lon="5.65929">
        <ele>533.4</ele>
        <time>2022-03-21T16:51:53Z</time>
      </trkpt>
      <trkpt lat="46.59978" lon="5.65946">
        <ele>532.6</ele>
        <time>2022-03-21T16:51:54Z</time>
      </trkpt>
      <trkpt lat="46.59973" lon="5.65964">
        <ele>532</ele>
        <time>2022-03-21T16:51:55Z</time>
      </trkpt>
      <trkpt lat="46.59969" lon="5.65981">
        <ele>531.4</ele>
        <time>2022-03-21T16:51:56Z</time>
      </trkpt>
      <trkpt lat="46.59965" lon="5.65998">
        <ele>530.6</ele>
        <time>2022-03-21T16:51:57Z</time>
      </trkpt>
      <trkpt lat="46.5996" lon="5.66015">
        <ele>530</ele>
        <time>2022-03-21T16:51:58Z</time>
      </trkpt>
      <trkpt lat="46.59955" lon="5.66031">
        <ele>529.4</ele>
        <time>2022-03-21T16:51:59Z</time>
      </trkpt>
      <trkpt lat="46.5995" lon="5.66048">
        <ele>528.6</ele>
        <time>2022-03-21T16:52:00Z</time>
      </trkpt>
      <trkpt lat="46.59945" lon="5.66065">
        <ele>528</ele>
        <time>2022-03-21T16:52:01Z</time>
      </trkpt>
      <trkpt lat="46.59939" lon="5.66081">
        <ele>527.4</ele>
        <time>2022-03-21T16:52:02Z</time>
      </trkpt>
      <trkpt lat="46.59933" lon="5.66097">
        <ele>526.8</ele>
        <time>2022-03-21T16:52:03Z</time>
      </trkpt>
      <trkpt lat="46.59926" lon="5.66113">
        <ele>526.2</ele>
        <time>2022-03-21T16:52:04Z</time>
      </trkpt>
      <trkpt lat="46.59919" lon="5.66128">
        <ele>525.6</ele>
        <time>2022-03-21T16:52:05Z</time>
      </trkpt>
      <trkpt lat="46.59912" lon="5.66144">
        <ele>525</ele>
        <time>2022-03-21T16:52:06Z</time>
      </trkpt>
      <trkpt lat="46.59905" lon="5.66159">
        <ele>524.4</ele>
        <time>2022-03-21T16:52:07Z</time>
      </trkpt>
      <trkpt lat="46.59899" lon="5.66175">
        <ele>523.8</ele>
        <time>2022-03-21T16:52:08Z</time>
      </trkpt>
      <trkpt lat="46.59894" lon="5.66191">
        <ele>523.4</ele>
        <time>2022-03-21T16:52:09Z</time>
      </trkpt>
      <trkpt lat="46.59889" lon="5.66207">
        <ele>522.8</ele>
        <time>2022-03-21T16:52:10Z</time>
      </trkpt>
      <trkpt lat="46.59885" lon="5.66224">
        <ele>522.2</ele>
        <time>2022-03-21T16:52:11Z</time>
      </trkpt>
      <trkpt lat="46.59882" lon="5.66241">
        <ele>521.6</ele>
        <time>2022-03-21T16:52:12Z</time>
      </trkpt>
      <trkpt lat="46.59879" lon="5.66259">
        <ele>520.8</ele>
        <time>2022-03-21T16:52:13Z</time>
      </trkpt>
      <trkpt lat="46.59878" lon="5.66277">
        <ele>520.2</ele>
        <time>2022-03-21T16:52:14Z</time>
      </trkpt>
      <trkpt lat="46.59876" lon="5.66295">
        <ele>519.4</ele>
        <time>2022-03-21T16:52:15Z</time>
      </trkpt>
      <trkpt lat="46.59875" lon="5.66314">
        <ele>518.8</ele>
        <time>2022-03-21T16:52:16Z</time>
      </trkpt>
      <trkpt lat="46.59874" lon="5.66332">
        <ele>518.2</ele>
        <time>2022-03-21T16:52:17Z</time>
      </trkpt>
      <trkpt lat="46.59872" lon="5.6635">
        <ele>517.6</ele>
        <time>2022-03-21T16:52:18Z</time>
      </trkpt>
      <trkpt lat="46.59871" lon="5.66367">
        <ele>516.8</ele>
        <time>2022-03-21T16:52:19Z</time>
      </trkpt>
      <trkpt lat="46.59869" lon="5.66386">
        <ele>516.2</ele>
        <time>2022-03-21T16:52:20Z</time>
      </trkpt>
      <trkpt lat="46.59866" lon="5.66403">
        <ele>515.4</ele>
        <time>2022-03-21T16:52:21Z</time>
      </trkpt>
      <trkpt lat="46.59861" lon="5.66419">
        <ele>514.6</ele>
        <time>2022-03-21T16:52:22Z</time>
      </trkpt>
      <trkpt lat="46.59855" lon="5.66436">
        <ele>514</ele>
        <time>2022-03-21T16:52:23Z</time>
      </trkpt>
      <trkpt lat="46.59848" lon="5.66452">
        <ele>513.2</ele>
        <time>2022-03-21T16:52:24Z</time>
      </trkpt>
      <trkpt lat="46.59841" lon="5.66468">
        <ele>512.6</ele>
        <time>2022-03-21T16:52:25Z</time>
      </trkpt>
      <trkpt lat="46.59833" lon="5.66482">
        <ele>512.2</ele>
        <time>2022-03-21T16:52:26Z</time>
      </trkpt>
      <trkpt lat="46.59825" lon="5.66496">
        <ele>511.6</ele>
        <time>2022-03-21T16:52:27Z</time>
      </trkpt>
      <trkpt lat="46.59817" lon="5.6651">
        <ele>511</ele>
        <time>2022-03-21T16:52:28Z</time>
      </trkpt>
      <trkpt lat="46.59809" lon="5.66524">
        <ele>510.2</ele>
        <time>2022-03-21T16:52:29Z</time>
      </trkpt>
      <trkpt lat="46.59801" lon="5.66537">
        <ele>509.6</ele>
        <time>2022-03-21T16:52:30Z</time>
      </trkpt>
      <trkpt lat="46.59792" lon="5.6655">
        <ele>508.8</ele>
        <time>2022-03-21T16:52:31Z</time>
      </trkpt>
      <trkpt lat="46.59781" lon="5.6656">
        <ele>508.2</ele>
        <time>2022-03-21T16:52:32Z</time>
      </trkpt>
      <trkpt lat="46.59771" lon="5.6657">
        <ele>507.4</ele>
        <time>2022-03-21T16:52:33Z</time>
      </trkpt>
      <trkpt lat="46.59759" lon="5.66579">
        <ele>507</ele>
        <time>2022-03-21T16:52:34Z</time>
      </trkpt>
      <trkpt lat="46.59748" lon="5.66587">
        <ele>506.4</ele>
        <time>2022-03-21T16:52:35Z</time>
      </trkpt>
      <trkpt lat="46.59737" lon="5.66596">
        <ele>505.8</ele>
        <time>2022-03-21T16:52:36Z</time>
      </trkpt>
      <trkpt lat="46.59726" lon="5.66603">
        <ele>505.4</ele>
        <time>2022-03-21T16:52:37Z</time>
      </trkpt>
      <trkpt lat="46.59715" lon="5.6661">
        <ele>504.8</ele>
        <time>2022-03-21T16:52:38Z</time>
      </trkpt>
      <trkpt lat="46.59704" lon="5.66616">
        <ele>504.4</ele>
        <time>2022-03-21T16:52:39Z</time>
      </trkpt>
      <trkpt lat="46.59693" lon="5.66622">
        <ele>503.8</ele>
        <time>2022-03-21T16:52:40Z</time>
      </trkpt>
      <trkpt lat="46.59682" lon="5.66627">
        <ele>503.4</ele>
        <time>2022-03-21T16:52:41Z</time>
      </trkpt>
      <trkpt lat="46.59672" lon="5.66634">
        <ele>502.8</ele>
        <time>2022-03-21T16:52:42Z</time>
      </trkpt>
      <trkpt lat="46.59661" lon="5.6664">
        <ele>502.4</ele>
        <time>2022-03-21T16:52:43Z</time>
      </trkpt>
      <trkpt lat="46.5965" lon="5.66646">
        <ele>502</ele>
        <time>2022-03-21T16:52:44Z</time>
      </trkpt>
      <trkpt lat="46.5964" lon="5.66653">
        <ele>501.6</ele>
        <time>2022-03-21T16:52:45Z</time>
      </trkpt>
      <trkpt lat="46.5963" lon="5.66659">
        <ele>501.2</ele>
        <time>2022-03-21T16:52:46Z</time>
      </trkpt>
      <trkpt lat="46.5962" lon="5.66666">
        <ele>500.8</ele>
        <time>2022-03-21T16:52:47Z</time>
      </trkpt>
      <trkpt lat="46.59609" lon="5.66672">
        <ele>500.2</ele>
        <time>2022-03-21T16:52:48Z</time>
      </trkpt>
      <trkpt lat="46.59599" lon="5.66678">
        <ele>499.6</ele>
        <time>2022-03-21T16:52:49Z</time>
      </trkpt>
      <trkpt lat="46.59589" lon="5.66685">
        <ele>499.2</ele>
        <time>2022-03-21T16:52:50Z</time>
      </trkpt>
      <trkpt lat="46.59578" lon="5.66691">
        <ele>499.2</ele>
        <time>2022-03-21T16:52:51Z</time>
      </trkpt>
      <trkpt lat="46.59568" lon="5.66697">
        <ele>498.8</ele>
        <time>2022-03-21T16:52:52Z</time>
      </trkpt>
      <trkpt lat="46.59558" lon="5.66703">
        <ele>498.2</ele>
        <time>2022-03-21T16:52:53Z</time>
      </trkpt>
      <trkpt lat="46.59547" lon="5.66709">
        <ele>497.6</ele>
        <time>2022-03-21T16:52:54Z</time>
      </trkpt>
      <trkpt lat="46.59537" lon="5.66715">
        <ele>497</ele>
        <time>2022-03-21T16:52:55Z</time>
      </trkpt>
      <trkpt lat="46.59526" lon="5.66721">
        <ele>496.6</ele>
        <time>2022-03-21T16:52:56Z</time>
      </trkpt>
      <trkpt lat="46.59515" lon="5.66727">
        <ele>496</ele>
        <time>2022-03-21T16:52:57Z</time>
      </trkpt>
      <trkpt lat="46.59505" lon="5.66733">
        <ele>495.4</ele>
        <time>2022-03-21T16:52:58Z</time>
      </trkpt>
      <trkpt lat="46.59494" lon="5.66739">
        <ele>494.8</ele>
        <time>2022-03-21T16:52:59Z</time>
      </trkpt>
      <trkpt lat="46.59484" lon="5.66747">
        <ele>494.4</ele>
        <time>2022-03-21T16:53:00Z</time>
      </trkpt>
      <trkpt lat="46.59474" lon="5.66756">
        <ele>493.8</ele>
        <time>2022-03-21T16:53:01Z</time>
      </trkpt>
      <trkpt lat="46.59465" lon="5.66766">
        <ele>493.2</ele>
        <time>2022-03-21T16:53:02Z</time>
      </trkpt>
      <trkpt lat="46.59457" lon="5.66775">
        <ele>492.6</ele>
        <time>2022-03-21T16:53:03Z</time>
      </trkpt>
      <trkpt lat="46.59449" lon="5.66787">
        <ele>492</ele>
        <time>2022-03-21T16:53:04Z</time>
      </trkpt>
      <trkpt lat="46.59441" lon="5.66798">
        <ele>491.6</ele>
        <time>2022-03-21T16:53:05Z</time>
      </trkpt>
      <trkpt lat="46.59434" lon="5.6681">
        <ele>491</ele>
        <time>2022-03-21T16:53:06Z</time>
      </trkpt>
      <trkpt lat="46.59426" lon="5.66822">
        <ele>490.6</ele>
        <time>2022-03-21T16:53:07Z</time>
      </trkpt>
      <trkpt lat="46.59418" lon="5.66834">
        <ele>490</ele>
        <time>2022-03-21T16:53:08Z</time>
      </trkpt>
      <trkpt lat="46.59411" lon="5.66843">
        <ele>489.6</ele>
        <time>2022-03-21T16:53:09Z</time>
      </trkpt>
      <trkpt lat="46.59404" lon="5.66855">
        <ele>489.2</ele>
        <time>2022-03-21T16:53:10Z</time>
      </trkpt>
      <trkpt lat="46.59397" lon="5.66867">
        <ele>488.8</ele>
        <time>2022-03-21T16:53:11Z</time>
      </trkpt>
      <trkpt lat="46.59391" lon="5.6688">
        <ele>488.4</ele>
        <time>2022-03-21T16:53:12Z</time>
      </trkpt>
      <trkpt lat="46.59385" lon="5.66893">
        <ele>488</ele>
        <time>2022-03-21T16:53:13Z</time>
      </trkpt>
      <trkpt lat="46.59382" lon="5.66906">
        <ele>487.6</ele>
        <time>2022-03-21T16:53:14Z</time>
      </trkpt>
      <trkpt lat="46.59378" lon="5.6692">
        <ele>487.4</ele>
        <time>2022-03-21T16:53:15Z</time>
      </trkpt>
      <trkpt lat="46.59375" lon="5.66935">
        <ele>487</ele>
        <time>2022-03-21T16:53:16Z</time>
      </trkpt>
      <trkpt lat="46.59374" lon="5.6695">
        <ele>486.6</ele>
        <time>2022-03-21T16:53:17Z</time>
      </trkpt>
      <trkpt lat="46.59374" lon="5.66964">
        <ele>486.4</ele>
        <time>2022-03-21T16:53:18Z</time>
      </trkpt>
      <trkpt lat="46.59375" lon="5.66977">
        <ele>486.2</ele>
        <time>2022-03-21T16:53:19Z</time>
      </trkpt>
      <trkpt lat="46.59376" lon="5.66991">
        <ele>485.8</ele>
        <time>2022-03-21T16:53:20Z</time>
      </trkpt>
      <trkpt lat="46.59376" lon="5.67005">
        <ele>485.4</ele>
        <time>2022-03-21T16:53:21Z</time>
      </trkpt>
      <trkpt lat="46.59377" lon="5.67019">
        <ele>485.2</ele>
        <time>2022-03-21T16:53:22Z</time>
      </trkpt>
      <trkpt lat="46.59377" lon="5.67034">
        <ele>484.8</ele>
        <time>2022-03-21T16:53:23Z</time>
      </trkpt>
      <trkpt lat="46.59377" lon="5.67047">
        <ele>484.6</ele>
        <time>2022-03-21T16:53:24Z</time>
      </trkpt>
      <trkpt lat="46.59377" lon="5.67062">
        <ele>484.2</ele>
        <time>2022-03-21T16:53:25Z</time>
      </trkpt>
      <trkpt lat="46.59377" lon="5.67076">
        <ele>484</ele>
        <time>2022-03-21T16:53:26Z</time>
      </trkpt>
      <trkpt lat="46.59377" lon="5.67089">
        <ele>483.6</ele>
        <time>2022-03-21T16:53:27Z</time>
      </trkpt>
      <trkpt lat="46.59377" lon="5.67103">
        <ele>483.2</ele>
        <time>2022-03-21T16:53:28Z</time>
      </trkpt>
      <trkpt lat="46.59377" lon="5.67117">
        <ele>483</ele>
        <time>2022-03-21T16:53:29Z</time>
      </trkpt>
      <trkpt lat="46.59378" lon="5.6713">
        <ele>482.8</ele>
        <time>2022-03-21T16:53:30Z</time>
      </trkpt>
      <trkpt lat="46.59379" lon="5.67144">
        <ele>482.8</ele>
        <time>2022-03-21T16:53:31Z</time>
      </trkpt>
      <trkpt lat="46.59379" lon="5.67158">
        <ele>482.4</ele>
        <time>2022-03-21T16:53:32Z</time>
      </trkpt>
      <trkpt lat="46.59379" lon="5.67171">
        <ele>482.4</ele>
        <time>2022-03-21T16:53:33Z</time>
      </trkpt>
      <trkpt lat="46.59379" lon="5.67184">
        <ele>482.2</ele>
        <time>2022-03-21T16:53:34Z</time>
      </trkpt>
      <trkpt lat="46.59378" lon="5.67197">
        <ele>482.2</ele>
        <time>2022-03-21T16:53:35Z</time>
      </trkpt>
      <trkpt lat="46.59377" lon="5.67209">
        <ele>482.2</ele>
        <time>2022-03-21T16:53:36Z</time>
      </trkpt>
      <trkpt lat="46.59376" lon="5.67222">
        <ele>481.8</ele>
        <time>2022-03-21T16:53:37Z</time>
      </trkpt>
      <trkpt lat="46.59374" lon="5.67234">
        <ele>481.8</ele>
        <time>2022-03-21T16:53:38Z</time>
      </trkpt>
      <trkpt lat="46.59373" lon="5.67246">
        <ele>481.6</ele>
        <time>2022-03-21T16:53:39Z</time>
      </trkpt>
      <trkpt lat="46.59371" lon="5.67257">
        <ele>481.6</ele>
        <time>2022-03-21T16:53:40Z</time>
      </trkpt>
      <trkpt lat="46.59368" lon="5.67268">
        <ele>481.6</ele>
        <time>2022-03-21T16:53:41Z</time>
      </trkpt>
      <trkpt lat="46.59365" lon="5.67278">
        <ele>481.6</ele>
        <time>2022-03-21T16:53:42Z</time>
      </trkpt>
      <trkpt lat="46.59362" lon="5.67289">
        <ele>481.6</ele>
        <time>2022-03-21T16:53:43Z</time>
      </trkpt>
      <trkpt lat="46.59359" lon="5.67298">
        <ele>481.8</ele>
        <time>2022-03-21T16:53:44Z</time>
      </trkpt>
      <trkpt lat="46.59356" lon="5.67308">
        <ele>481.8</ele>
        <time>2022-03-21T16:53:45Z</time>
      </trkpt>
      <trkpt lat="46.59353" lon="5.67317">
        <ele>482.2</ele>
        <time>2022-03-21T16:53:46Z</time>
      </trkpt>
      <trkpt lat="46.5935" lon="5.67326">
        <ele>482.2</ele>
        <time>2022-03-21T16:53:47Z</time>
      </trkpt>
      <trkpt lat="46.59347" lon="5.67335">
        <ele>482.4</ele>
        <time>2022-03-21T16:53:48Z</time>
      </trkpt>
      <trkpt lat="46.59344" lon="5.67343">
        <ele>482.4</ele>
        <time>2022-03-21T16:53:49Z</time>
      </trkpt>
      <trkpt lat="46.59341" lon="5.67351">
        <ele>482.8</ele>
        <time>2022-03-21T16:53:50Z</time>
      </trkpt>
      <trkpt lat="46.59339" lon="5.67359">
        <ele>482.8</ele>
        <time>2022-03-21T16:53:51Z</time>
      </trkpt>
      <trkpt lat="46.59336" lon="5.67367">
        <ele>483</ele>
        <time>2022-03-21T16:53:52Z</time>
      </trkpt>
      <trkpt lat="46.59334" lon="5.67375">
        <ele>483</ele>
        <time>2022-03-21T16:53:53Z</time>
      </trkpt>
      <trkpt lat="46.59331" lon="5.67383">
        <ele>483.4</ele>
        <time>2022-03-21T16:53:54Z</time>
      </trkpt>
      <trkpt lat="46.59329" lon="5.6739">
        <ele>483.4</ele>
        <time>2022-03-21T16:53:55Z</time>
      </trkpt>
      <trkpt lat="46.59327" lon="5.67398">
        <ele>483.6</ele>
        <time>2022-03-21T16:53:56Z</time>
      </trkpt>
      <trkpt lat="46.59324" lon="5.67406">
        <ele>483.6</ele>
        <time>2022-03-21T16:53:57Z</time>
      </trkpt>
      <trkpt lat="46.59322" lon="5.67413">
        <ele>483.6</ele>
        <time>2022-03-21T16:53:58Z</time>
      </trkpt>
      <trkpt lat="46.5932" lon="5.67421">
        <ele>483.8</ele>
        <time>2022-03-21T16:53:59Z</time>
      </trkpt>
      <trkpt lat="46.59318" lon="5.67429">
        <ele>483.8</ele>
        <time>2022-03-21T16:54:00Z</time>
      </trkpt>
      <trkpt lat="46.59317" lon="5.67437">
        <ele>483.8</ele>
        <time>2022-03-21T16:54:01Z</time>
      </trkpt>
      <trkpt lat="46.59315" lon="5.67445">
        <ele>483.8</ele>
        <time>2022-03-21T16:54:02Z</time>
      </trkpt>
      <trkpt lat="46.59313" lon="5.67453">
        <ele>483.8</ele>
        <time>2022-03-21T16:54:03Z</time>
      </trkpt>
      <trkpt lat="46.59312" lon="5.67461">
        <ele>483.8</ele>
        <time>2022-03-21T16:54:04Z</time>
      </trkpt>
      <trkpt lat="46.59311" lon="5.6747">
        <ele>483.8</ele>
        <time>2022-03-21T16:54:05Z</time>
      </trkpt>
      <trkpt lat="46.59309" lon="5.67479">
        <ele>483.8</ele>
        <time>2022-03-21T16:54:06Z</time>
      </trkpt>
      <trkpt lat="46.59308" lon="5.67488">
        <ele>483.6</ele>
        <time>2022-03-21T16:54:07Z</time>
      </trkpt>
      <trkpt lat="46.59307" lon="5.67498">
        <ele>483.6</ele>
        <time>2022-03-21T16:54:08Z</time>
      </trkpt>
      <trkpt lat="46.59306" lon="5.67508">
        <ele>483.6</ele>
        <time>2022-03-21T16:54:09Z</time>
      </trkpt>
      <trkpt lat="46.59305" lon="5.67518">
        <ele>483.6</ele>
        <time>2022-03-21T16:54:10Z</time>
      </trkpt>
      <trkpt lat="46.59303" lon="5.67528">
        <ele>483.6</ele>
        <time>2022-03-21T16:54:11Z</time>
      </trkpt>
      <trkpt lat="46.59302" lon="5.67538">
        <ele>483.4</ele>
        <time>2022-03-21T16:54:12Z</time>
      </trkpt>
      <trkpt lat="46.59301" lon="5.67548">
        <ele>483.4</ele>
        <time>2022-03-21T16:54:13Z</time>
      </trkpt>
      <trkpt lat="46.59299" lon="5.67558">
        <ele>483.2</ele>
        <time>2022-03-21T16:54:14Z</time>
      </trkpt>
      <trkpt lat="46.59298" lon="5.67568">
        <ele>483.2</ele>
        <time>2022-03-21T16:54:15Z</time>
      </trkpt>
      <trkpt lat="46.59296" lon="5.67579">
        <ele>482.8</ele>
        <time>2022-03-21T16:54:16Z</time>
      </trkpt>
      <trkpt lat="46.59295" lon="5.6759">
        <ele>482.6</ele>
        <time>2022-03-21T16:54:17Z</time>
      </trkpt>
      <trkpt lat="46.59293" lon="5.67602">
        <ele>482.4</ele>
        <time>2022-03-21T16:54:18Z</time>
      </trkpt>
      <trkpt lat="46.5929" lon="5.67613">
        <ele>482</ele>
        <time>2022-03-21T16:54:19Z</time>
      </trkpt>
      <trkpt lat="46.59287" lon="5.67625">
        <ele>481.8</ele>
        <time>2022-03-21T16:54:20Z</time>
      </trkpt>
      <trkpt lat="46.59284" lon="5.67637">
        <ele>481.4</ele>
        <time>2022-03-21T16:54:21Z</time>
      </trkpt>
      <trkpt lat="46.59282" lon="5.67649">
        <ele>481.2</ele>
        <time>2022-03-21T16:54:22Z</time>
      </trkpt>
      <trkpt lat="46.59279" lon="5.67661">
        <ele>480.8</ele>
        <time>2022-03-21T16:54:23Z</time>
      </trkpt>
      <trkpt lat="46.59276" lon="5.67673">
        <ele>480.6</ele>
        <time>2022-03-21T16:54:24Z</time>
      </trkpt>
      <trkpt lat="46.59273" lon="5.67687">
        <ele>480.6</ele>
        <time>2022-03-21T16:54:25Z</time>
      </trkpt>
      <trkpt lat="46.5927" lon="5.677">
        <ele>480</ele>
        <time>2022-03-21T16:54:26Z</time>
      </trkpt>
      <trkpt lat="46.59267" lon="5.67713">
        <ele>479.6</ele>
        <time>2022-03-21T16:54:27Z</time>
      </trkpt>
      <trkpt lat="46.59263" lon="5.67726">
        <ele>479.6</ele>
        <time>2022-03-21T16:54:28Z</time>
      </trkpt>
      <trkpt lat="46.5926" lon="5.67739">
        <ele>479.2</ele>
        <time>2022-03-21T16:54:29Z</time>
      </trkpt>
      <trkpt lat="46.59256" lon="5.67751">
        <ele>478.8</ele>
        <time>2022-03-21T16:54:30Z</time>
      </trkpt>
      <trkpt lat="46.59253" lon="5.67763">
        <ele>478.4</ele>
        <time>2022-03-21T16:54:31Z</time>
      </trkpt>
      <trkpt lat="46.5925" lon="5.67776">
        <ele>478.4</ele>
        <time>2022-03-21T16:54:32Z</time>
      </trkpt>
      <trkpt lat="46.59247" lon="5.67788">
        <ele>478.4</ele>
        <time>2022-03-21T16:54:33Z</time>
      </trkpt>
      <trkpt lat="46.59244" lon="5.678">
        <ele>478.4</ele>
        <time>2022-03-21T16:54:34Z</time>
      </trkpt>
      <trkpt lat="46.5924" lon="5.67812">
        <ele>478.2</ele>
        <time>2022-03-21T16:54:35Z</time>
      </trkpt>
      <trkpt lat="46.59236" lon="5.67823">
        <ele>478.2</ele>
        <time>2022-03-21T16:54:36Z</time>
      </trkpt>
      <trkpt lat="46.59232" lon="5.67835">
        <ele>478.2</ele>
        <time>2022-03-21T16:54:37Z</time>
      </trkpt>
      <trkpt lat="46.59228" lon="5.67846">
        <ele>478.2</ele>
        <time>2022-03-21T16:54:38Z</time>
      </trkpt>
      <trkpt lat="46.59222" lon="5.67856">
        <ele>478.2</ele>
        <time>2022-03-21T16:54:39Z</time>
      </trkpt>
      <trkpt lat="46.59217" lon="5.67866">
        <ele>478</ele>
        <time>2022-03-21T16:54:40Z</time>
      </trkpt>
      <trkpt lat="46.59211" lon="5.67875">
        <ele>478</ele>
        <time>2022-03-21T16:54:41Z</time>
      </trkpt>
      <trkpt lat="46.59205" lon="5.67883">
        <ele>478</ele>
        <time>2022-03-21T16:54:42Z</time>
      </trkpt>
      <trkpt lat="46.59199" lon="5.67892">
        <ele>478</ele>
        <time>2022-03-21T16:54:43Z</time>
      </trkpt>
      <trkpt lat="46.59194" lon="5.679">
        <ele>478</ele>
        <time>2022-03-21T16:54:44Z</time>
      </trkpt>
      <trkpt lat="46.59188" lon="5.67909">
        <ele>478</ele>
        <time>2022-03-21T16:54:45Z</time>
      </trkpt>
      <trkpt lat="46.59183" lon="5.67917">
        <ele>478</ele>
        <time>2022-03-21T16:54:46Z</time>
      </trkpt>
      <trkpt lat="46.59177" lon="5.67925">
        <ele>478</ele>
        <time>2022-03-21T16:54:47Z</time>
      </trkpt>
      <trkpt lat="46.59171" lon="5.67932">
        <ele>478</ele>
        <time>2022-03-21T16:54:48Z</time>
      </trkpt>
      <trkpt lat="46.59166" lon="5.6794">
        <ele>478</ele>
        <time>2022-03-21T16:54:49Z</time>
      </trkpt>
      <trkpt lat="46.59161" lon="5.67947">
        <ele>478.4</ele>
        <time>2022-03-21T16:54:50Z</time>
      </trkpt>
      <trkpt lat="46.59156" lon="5.67955">
        <ele>478.4</ele>
        <time>2022-03-21T16:54:51Z</time>
      </trkpt>
      <trkpt lat="46.59152" lon="5.67962">
        <ele>478.6</ele>
        <time>2022-03-21T16:54:52Z</time>
      </trkpt>
      <trkpt lat="46.59147" lon="5.67969">
        <ele>478.6</ele>
        <time>2022-03-21T16:54:53Z</time>
      </trkpt>
      <trkpt lat="46.59143" lon="5.67976">
        <ele>479</ele>
        <time>2022-03-21T16:54:54Z</time>
      </trkpt>
      <trkpt lat="46.59139" lon="5.67982">
        <ele>479</ele>
        <time>2022-03-21T16:54:55Z</time>
      </trkpt>
      <trkpt lat="46.59134" lon="5.67989">
        <ele>479.4</ele>
        <time>2022-03-21T16:54:56Z</time>
      </trkpt>
      <trkpt lat="46.5913" lon="5.67996">
        <ele>479.4</ele>
        <time>2022-03-21T16:54:57Z</time>
      </trkpt>
      <trkpt lat="46.59126" lon="5.68003">
        <ele>479.8</ele>
        <time>2022-03-21T16:54:58Z</time>
      </trkpt>
      <trkpt lat="46.59121" lon="5.68011">
        <ele>479.8</ele>
        <time>2022-03-21T16:54:59Z</time>
      </trkpt>
      <trkpt lat="46.59117" lon="5.68018">
        <ele>479.8</ele>
        <time>2022-03-21T16:55:00Z</time>
      </trkpt>
      <trkpt lat="46.59114" lon="5.68026">
        <ele>480</ele>
        <time>2022-03-21T16:55:01Z</time>
      </trkpt>
      <trkpt lat="46.5911" lon="5.68034">
        <ele>480</ele>
        <time>2022-03-21T16:55:02Z</time>
      </trkpt>
      <trkpt lat="46.59106" lon="5.68043">
        <ele>480</ele>
        <time>2022-03-21T16:55:03Z</time>
      </trkpt>
      <trkpt lat="46.59103" lon="5.68051">
        <ele>480</ele>
        <time>2022-03-21T16:55:04Z</time>
      </trkpt>
      <trkpt lat="46.59099" lon="5.6806">
        <ele>480</ele>
        <time>2022-03-21T16:55:05Z</time>
      </trkpt>
      <trkpt lat="46.59096" lon="5.6807">
        <ele>480</ele>
        <time>2022-03-21T16:55:06Z</time>
      </trkpt>
      <trkpt lat="46.59093" lon="5.6808">
        <ele>480</ele>
        <time>2022-03-21T16:55:07Z</time>
      </trkpt>
      <trkpt lat="46.5909" lon="5.68089">
        <ele>480</ele>
        <time>2022-03-21T16:55:08Z</time>
      </trkpt>
      <trkpt lat="46.59087" lon="5.681">
        <ele>480</ele>
        <time>2022-03-21T16:55:09Z</time>
      </trkpt>
      <trkpt lat="46.59083" lon="5.6811">
        <ele>479.8</ele>
        <time>2022-03-21T16:55:10Z</time>
      </trkpt>
      <trkpt lat="46.5908" lon="5.6812">
        <ele>479.8</ele>
        <time>2022-03-21T16:55:11Z</time>
      </trkpt>
      <trkpt lat="46.59076" lon="5.6813">
        <ele>479.6</ele>
        <time>2022-03-21T16:55:12Z</time>
      </trkpt>
      <trkpt lat="46.59073" lon="5.68141">
        <ele>479.6</ele>
        <time>2022-03-21T16:55:13Z</time>
      </trkpt>
      <trkpt lat="46.59069" lon="5.68152">
        <ele>479.2</ele>
        <time>2022-03-21T16:55:14Z</time>
      </trkpt>
      <trkpt lat="46.59065" lon="5.68163">
        <ele>479</ele>
        <time>2022-03-21T16:55:15Z</time>
      </trkpt>
      <trkpt lat="46.59061" lon="5.68174">
        <ele>478.8</ele>
        <time>2022-03-21T16:55:16Z</time>
      </trkpt>
      <trkpt lat="46.59057" lon="5.68185">
        <ele>478.8</ele>
        <time>2022-03-21T16:55:17Z</time>
      </trkpt>
      <trkpt lat="46.59053" lon="5.68197">
        <ele>478</ele>
        <time>2022-03-21T16:55:19Z</time>
      </trkpt>
      <trkpt lat="46.59048" lon="5.68208">
        <ele>477.6</ele>
        <time>2022-03-21T16:55:20Z</time>
      </trkpt>
      <trkpt lat="46.59044" lon="5.68221">
        <ele>477.4</ele>
        <time>2022-03-21T16:55:21Z</time>
      </trkpt>
      <trkpt lat="46.5904" lon="5.68233">
        <ele>477</ele>
        <time>2022-03-21T16:55:22Z</time>
      </trkpt>
      <trkpt lat="46.59036" lon="5.68245">
        <ele>476.6</ele>
        <time>2022-03-21T16:55:23Z</time>
      </trkpt>
      <trkpt lat="46.59032" lon="5.68257">
        <ele>476.4</ele>
        <time>2022-03-21T16:55:24Z</time>
      </trkpt>
      <trkpt lat="46.59027" lon="5.68269">
        <ele>476</ele>
        <time>2022-03-21T16:55:25Z</time>
      </trkpt>
      <trkpt lat="46.59022" lon="5.68282">
        <ele>475.8</ele>
        <time>2022-03-21T16:55:26Z</time>
      </trkpt>
      <trkpt lat="46.59017" lon="5.68294">
        <ele>475.4</ele>
        <time>2022-03-21T16:55:27Z</time>
      </trkpt>
      <trkpt lat="46.59012" lon="5.68306">
        <ele>474.8</ele>
        <time>2022-03-21T16:55:28Z</time>
      </trkpt>
      <trkpt lat="46.59007" lon="5.68319">
        <ele>474.4</ele>
        <time>2022-03-21T16:55:29Z</time>
      </trkpt>
      <trkpt lat="46.58998" lon="5.68344">
        <ele>474</ele>
        <time>2022-03-21T16:55:30Z</time>
      </trkpt>
      <trkpt lat="46.58993" lon="5.68356">
        <ele>473.6</ele>
        <time>2022-03-21T16:55:31Z</time>
      </trkpt>
      <trkpt lat="46.58988" lon="5.68369">
        <ele>473.2</ele>
        <time>2022-03-21T16:55:32Z</time>
      </trkpt>
      <trkpt lat="46.58983" lon="5.68383">
        <ele>472.6</ele>
        <time>2022-03-21T16:55:33Z</time>
      </trkpt>
      <trkpt lat="46.58978" lon="5.68396">
        <ele>472.2</ele>
        <time>2022-03-21T16:55:34Z</time>
      </trkpt>
      <trkpt lat="46.58973" lon="5.6841">
        <ele>471.6</ele>
        <time>2022-03-21T16:55:35Z</time>
      </trkpt>
      <trkpt lat="46.58967" lon="5.68424">
        <ele>471</ele>
        <time>2022-03-21T16:55:36Z</time>
      </trkpt>
      <trkpt lat="46.58963" lon="5.68439">
        <ele>470.2</ele>
        <time>2022-03-21T16:55:37Z</time>
      </trkpt>
      <trkpt lat="46.58957" lon="5.68453">
        <ele>469.6</ele>
        <time>2022-03-21T16:55:38Z</time>
      </trkpt>
      <trkpt lat="46.58952" lon="5.68468">
        <ele>469.2</ele>
        <time>2022-03-21T16:55:39Z</time>
      </trkpt>
      <trkpt lat="46.58947" lon="5.68482">
        <ele>468.6</ele>
        <time>2022-03-21T16:55:40Z</time>
      </trkpt>
      <trkpt lat="46.58942" lon="5.68497">
        <ele>468</ele>
        <time>2022-03-21T16:55:41Z</time>
      </trkpt>
      <trkpt lat="46.58937" lon="5.68511">
        <ele>467.6</ele>
        <time>2022-03-21T16:55:42Z</time>
      </trkpt>
      <trkpt lat="46.58932" lon="5.68526">
        <ele>467</ele>
        <time>2022-03-21T16:55:43Z</time>
      </trkpt>
      <trkpt lat="46.58928" lon="5.68541">
        <ele>466.6</ele>
        <time>2022-03-21T16:55:44Z</time>
      </trkpt>
      <trkpt lat="46.58923" lon="5.68555">
        <ele>466.2</ele>
        <time>2022-03-21T16:55:45Z</time>
      </trkpt>
      <trkpt lat="46.58919" lon="5.6857">
        <ele>465.8</ele>
        <time>2022-03-21T16:55:46Z</time>
      </trkpt>
      <trkpt lat="46.58914" lon="5.68583">
        <ele>465.6</ele>
        <time>2022-03-21T16:55:47Z</time>
      </trkpt>
      <trkpt lat="46.58909" lon="5.68596">
        <ele>465.2</ele>
        <time>2022-03-21T16:55:48Z</time>
      </trkpt>
      <trkpt lat="46.58904" lon="5.68611">
        <ele>464.8</ele>
        <time>2022-03-21T16:55:49Z</time>
      </trkpt>
      <trkpt lat="46.58899" lon="5.68625">
        <ele>464.6</ele>
        <time>2022-03-21T16:55:50Z</time>
      </trkpt>
      <trkpt lat="46.58894" lon="5.68638">
        <ele>464.2</ele>
        <time>2022-03-21T16:55:51Z</time>
      </trkpt>
      <trkpt lat="46.5889" lon="5.68652">
        <ele>464</ele>
        <time>2022-03-21T16:55:52Z</time>
      </trkpt>
      <trkpt lat="46.58885" lon="5.68665">
        <ele>463.8</ele>
        <time>2022-03-21T16:55:53Z</time>
      </trkpt>
      <trkpt lat="46.58881" lon="5.68679">
        <ele>463.4</ele>
        <time>2022-03-21T16:55:54Z</time>
      </trkpt>
      <trkpt lat="46.58877" lon="5.68692">
        <ele>463.2</ele>
        <time>2022-03-21T16:55:55Z</time>
      </trkpt>
      <trkpt lat="46.58873" lon="5.68705">
        <ele>463</ele>
        <time>2022-03-21T16:55:56Z</time>
      </trkpt>
      <trkpt lat="46.58869" lon="5.68717">
        <ele>463</ele>
        <time>2022-03-21T16:55:57Z</time>
      </trkpt>
      <trkpt lat="46.58865" lon="5.6873">
        <ele>462.8</ele>
        <time>2022-03-21T16:55:58Z</time>
      </trkpt>
      <trkpt lat="46.58862" lon="5.68743">
        <ele>462.8</ele>
        <time>2022-03-21T16:55:59Z</time>
      </trkpt>
      <trkpt lat="46.58858" lon="5.68755">
        <ele>462.8</ele>
        <time>2022-03-21T16:56:00Z</time>
      </trkpt>
      <trkpt lat="46.58854" lon="5.68767">
        <ele>462.4</ele>
        <time>2022-03-21T16:56:01Z</time>
      </trkpt>
      <trkpt lat="46.5885" lon="5.68779">
        <ele>462.4</ele>
        <time>2022-03-21T16:56:02Z</time>
      </trkpt>
      <trkpt lat="46.58847" lon="5.68791">
        <ele>462.4</ele>
        <time>2022-03-21T16:56:03Z</time>
      </trkpt>
      <trkpt lat="46.58844" lon="5.68802">
        <ele>462.4</ele>
        <time>2022-03-21T16:56:04Z</time>
      </trkpt>
      <trkpt lat="46.5884" lon="5.68814">
        <ele>462.2</ele>
        <time>2022-03-21T16:56:05Z</time>
      </trkpt>
      <trkpt lat="46.58837" lon="5.68826">
        <ele>462.2</ele>
        <time>2022-03-21T16:56:06Z</time>
      </trkpt>
      <trkpt lat="46.58834" lon="5.68837">
        <ele>462.2</ele>
        <time>2022-03-21T16:56:07Z</time>
      </trkpt>
      <trkpt lat="46.5883" lon="5.68848">
        <ele>462</ele>
        <time>2022-03-21T16:56:08Z</time>
      </trkpt>
      <trkpt lat="46.58827" lon="5.6886">
        <ele>462</ele>
        <time>2022-03-21T16:56:09Z</time>
      </trkpt>
      <trkpt lat="46.58823" lon="5.68871">
        <ele>461.8</ele>
        <time>2022-03-21T16:56:10Z</time>
      </trkpt>
      <trkpt lat="46.5882" lon="5.68882">
        <ele>461.8</ele>
        <time>2022-03-21T16:56:11Z</time>
      </trkpt>
      <trkpt lat="46.58817" lon="5.68893">
        <ele>461.8</ele>
        <time>2022-03-21T16:56:12Z</time>
      </trkpt>
      <trkpt lat="46.58813" lon="5.68904">
        <ele>461.8</ele>
        <time>2022-03-21T16:56:13Z</time>
      </trkpt>
      <trkpt lat="46.5881" lon="5.68914">
        <ele>461.4</ele>
        <time>2022-03-21T16:56:14Z</time>
      </trkpt>
      <trkpt lat="46.58807" lon="5.68925">
        <ele>461.4</ele>
        <time>2022-03-21T16:56:15Z</time>
      </trkpt>
      <trkpt lat="46.58803" lon="5.68936">
        <ele>461.4</ele>
        <time>2022-03-21T16:56:16Z</time>
      </trkpt>
      <trkpt lat="46.588" lon="5.68946">
        <ele>461.4</ele>
        <time>2022-03-21T16:56:17Z</time>
      </trkpt>
      <trkpt lat="46.58797" lon="5.68956">
        <ele>461.2</ele>
        <time>2022-03-21T16:56:18Z</time>
      </trkpt>
      <trkpt lat="46.58794" lon="5.68967">
        <ele>461.2</ele>
        <time>2022-03-21T16:56:19Z</time>
      </trkpt>
      <trkpt lat="46.58791" lon="5.68977">
        <ele>461.2</ele>
        <time>2022-03-21T16:56:20Z</time>
      </trkpt>
      <trkpt lat="46.58788" lon="5.68987">
        <ele>461.2</ele>
        <time>2022-03-21T16:56:21Z</time>
      </trkpt>
      <trkpt lat="46.58785" lon="5.68998">
        <ele>461</ele>
        <time>2022-03-21T16:56:22Z</time>
      </trkpt>
      <trkpt lat="46.58781" lon="5.69008">
        <ele>461</ele>
        <time>2022-03-21T16:56:23Z</time>
      </trkpt>
      <trkpt lat="46.58778" lon="5.69018">
        <ele>461</ele>
        <time>2022-03-21T16:56:24Z</time>
      </trkpt>
      <trkpt lat="46.58775" lon="5.69028">
        <ele>461</ele>
        <time>2022-03-21T16:56:25Z</time>
      </trkpt>
      <trkpt lat="46.58772" lon="5.69038">
        <ele>460.8</ele>
        <time>2022-03-21T16:56:26Z</time>
      </trkpt>
      <trkpt lat="46.58769" lon="5.69049">
        <ele>460.8</ele>
        <time>2022-03-21T16:56:27Z</time>
      </trkpt>
      <trkpt lat="46.58766" lon="5.69059">
        <ele>460.8</ele>
        <time>2022-03-21T16:56:28Z</time>
      </trkpt>
      <trkpt lat="46.58762" lon="5.69069">
        <ele>460.4</ele>
        <time>2022-03-21T16:56:29Z</time>
      </trkpt>
      <trkpt lat="46.58759" lon="5.6908">
        <ele>460.4</ele>
        <time>2022-03-21T16:56:30Z</time>
      </trkpt>
      <trkpt lat="46.58756" lon="5.6909">
        <ele>460.4</ele>
        <time>2022-03-21T16:56:31Z</time>
      </trkpt>
      <trkpt lat="46.58753" lon="5.691">
        <ele>460.2</ele>
        <time>2022-03-21T16:56:32Z</time>
      </trkpt>
      <trkpt lat="46.5875" lon="5.69111">
        <ele>460.2</ele>
        <time>2022-03-21T16:56:33Z</time>
      </trkpt>
      <trkpt lat="46.58746" lon="5.69121">
        <ele>460.2</ele>
        <time>2022-03-21T16:56:34Z</time>
      </trkpt>
      <trkpt lat="46.58743" lon="5.69131">
        <ele>460.2</ele>
        <time>2022-03-21T16:56:35Z</time>
      </trkpt>
      <trkpt lat="46.5874" lon="5.69141">
        <ele>460.2</ele>
        <time>2022-03-21T16:56:36Z</time>
      </trkpt>
      <trkpt lat="46.58737" lon="5.69151">
        <ele>460</ele>
        <time>2022-03-21T16:56:37Z</time>
      </trkpt>
      <trkpt lat="46.58734" lon="5.6916">
        <ele>460</ele>
        <time>2022-03-21T16:56:38Z</time>
      </trkpt>
      <trkpt lat="46.58731" lon="5.6917">
        <ele>460</ele>
        <time>2022-03-21T16:56:39Z</time>
      </trkpt>
      <trkpt lat="46.58728" lon="5.69179">
        <ele>460</ele>
        <time>2022-03-21T16:56:40Z</time>
      </trkpt>
      <trkpt lat="46.58726" lon="5.69188">
        <ele>460</ele>
        <time>2022-03-21T16:56:41Z</time>
      </trkpt>
      <trkpt lat="46.58723" lon="5.69197">
        <ele>460</ele>
        <time>2022-03-21T16:56:42Z</time>
      </trkpt>
      <trkpt lat="46.5872" lon="5.69206">
        <ele>460</ele>
        <time>2022-03-21T16:56:43Z</time>
      </trkpt>
      <trkpt lat="46.58717" lon="5.69215">
        <ele>460</ele>
        <time>2022-03-21T16:56:44Z</time>
      </trkpt>
      <trkpt lat="46.58715" lon="5.69224">
        <ele>460</ele>
        <time>2022-03-21T16:56:45Z</time>
      </trkpt>
      <trkpt lat="46.58712" lon="5.69233">
        <ele>460</ele>
        <time>2022-03-21T16:56:46Z</time>
      </trkpt>
      <trkpt lat="46.58709" lon="5.69242">
        <ele>460</ele>
        <time>2022-03-21T16:56:47Z</time>
      </trkpt>
      <trkpt lat="46.58707" lon="5.69252">
        <ele>460</ele>
        <time>2022-03-21T16:56:48Z</time>
      </trkpt>
      <trkpt lat="46.58704" lon="5.69261">
        <ele>460</ele>
        <time>2022-03-21T16:56:49Z</time>
      </trkpt>
      <trkpt lat="46.58701" lon="5.6927">
        <ele>460</ele>
        <time>2022-03-21T16:56:50Z</time>
      </trkpt>
      <trkpt lat="46.58698" lon="5.69279">
        <ele>460</ele>
        <time>2022-03-21T16:56:51Z</time>
      </trkpt>
      <trkpt lat="46.58696" lon="5.69288">
        <ele>460</ele>
        <time>2022-03-21T16:56:52Z</time>
      </trkpt>
      <trkpt lat="46.58693" lon="5.69297">
        <ele>460</ele>
        <time>2022-03-21T16:56:53Z</time>
      </trkpt>
      <trkpt lat="46.5869" lon="5.69307">
        <ele>460</ele>
        <time>2022-03-21T16:56:54Z</time>
      </trkpt>
      <trkpt lat="46.58688" lon="5.69316">
        <ele>460</ele>
        <time>2022-03-21T16:56:55Z</time>
      </trkpt>
      <trkpt lat="46.58685" lon="5.69325">
        <ele>460</ele>
        <time>2022-03-21T16:56:56Z</time>
      </trkpt>
      <trkpt lat="46.58682" lon="5.69334">
        <ele>460</ele>
        <time>2022-03-21T16:56:57Z</time>
      </trkpt>
      <trkpt lat="46.5868" lon="5.69343">
        <ele>460</ele>
        <time>2022-03-21T16:56:58Z</time>
      </trkpt>
      <trkpt lat="46.58677" lon="5.69353">
        <ele>460</ele>
        <time>2022-03-21T16:56:59Z</time>
      </trkpt>
      <trkpt lat="46.58675" lon="5.69362">
        <ele>460</ele>
        <time>2022-03-21T16:57:00Z</time>
      </trkpt>
      <trkpt lat="46.58672" lon="5.69371">
        <ele>460</ele>
        <time>2022-03-21T16:57:01Z</time>
      </trkpt>
      <trkpt lat="46.58669" lon="5.6938">
        <ele>460</ele>
        <time>2022-03-21T16:57:02Z</time>
      </trkpt>
      <trkpt lat="46.58666" lon="5.69389">
        <ele>460</ele>
        <time>2022-03-21T16:57:03Z</time>
      </trkpt>
      <trkpt lat="46.58663" lon="5.69399">
        <ele>460</ele>
        <time>2022-03-21T16:57:04Z</time>
      </trkpt>
      <trkpt lat="46.5866" lon="5.69408">
        <ele>460</ele>
        <time>2022-03-21T16:57:05Z</time>
      </trkpt>
      <trkpt lat="46.58658" lon="5.69417">
        <ele>459.8</ele>
        <time>2022-03-21T16:57:06Z</time>
      </trkpt>
      <trkpt lat="46.58655" lon="5.69427">
        <ele>459.8</ele>
        <time>2022-03-21T16:57:07Z</time>
      </trkpt>
      <trkpt lat="46.58652" lon="5.69437">
        <ele>459.6</ele>
        <time>2022-03-21T16:57:08Z</time>
      </trkpt>
      <trkpt lat="46.58649" lon="5.69447">
        <ele>459.2</ele>
        <time>2022-03-21T16:57:09Z</time>
      </trkpt>
      <trkpt lat="46.58646" lon="5.69457">
        <ele>459</ele>
        <time>2022-03-21T16:57:10Z</time>
      </trkpt>
      <trkpt lat="46.58642" lon="5.69467">
        <ele>459</ele>
        <time>2022-03-21T16:57:11Z</time>
      </trkpt>
      <trkpt lat="46.58639" lon="5.69477">
        <ele>458.8</ele>
        <time>2022-03-21T16:57:12Z</time>
      </trkpt>
      <trkpt lat="46.58636" lon="5.69488">
        <ele>458.8</ele>
        <time>2022-03-21T16:57:13Z</time>
      </trkpt>
      <trkpt lat="46.58633" lon="5.69498">
        <ele>458.6</ele>
        <time>2022-03-21T16:57:14Z</time>
      </trkpt>
      <trkpt lat="46.5863" lon="5.69509">
        <ele>458.6</ele>
        <time>2022-03-21T16:57:15Z</time>
      </trkpt>
      <trkpt lat="46.58627" lon="5.69519">
        <ele>458.4</ele>
        <time>2022-03-21T16:57:16Z</time>
      </trkpt>
      <trkpt lat="46.58624" lon="5.69529">
        <ele>458.4</ele>
        <time>2022-03-21T16:57:17Z</time>
      </trkpt>
      <trkpt lat="46.58621" lon="5.6954">
        <ele>458.2</ele>
        <time>2022-03-21T16:57:18Z</time>
      </trkpt>
      <trkpt lat="46.58618" lon="5.6955">
        <ele>458.2</ele>
        <time>2022-03-21T16:57:19Z</time>
      </trkpt>
      <trkpt lat="46.58614" lon="5.6956">
        <ele>458.2</ele>
        <time>2022-03-21T16:57:20Z</time>
      </trkpt>
      <trkpt lat="46.58611" lon="5.69571">
        <ele>457.8</ele>
        <time>2022-03-21T16:57:21Z</time>
      </trkpt>
      <trkpt lat="46.58608" lon="5.69581">
        <ele>457.8</ele>
        <time>2022-03-21T16:57:22Z</time>
      </trkpt>
      <trkpt lat="46.58605" lon="5.69591">
        <ele>457.6</ele>
        <time>2022-03-21T16:57:23Z</time>
      </trkpt>
      <trkpt lat="46.58602" lon="5.69602">
        <ele>457.6</ele>
        <time>2022-03-21T16:57:24Z</time>
      </trkpt>
      <trkpt lat="46.58599" lon="5.69612">
        <ele>457.6</ele>
        <time>2022-03-21T16:57:25Z</time>
      </trkpt>
      <trkpt lat="46.58596" lon="5.69622">
        <ele>457.4</ele>
        <time>2022-03-21T16:57:26Z</time>
      </trkpt>
      <trkpt lat="46.58593" lon="5.69633">
        <ele>457.4</ele>
        <time>2022-03-21T16:57:27Z</time>
      </trkpt>
      <trkpt lat="46.5859" lon="5.69643">
        <ele>457</ele>
        <time>2022-03-21T16:57:28Z</time>
      </trkpt>
      <trkpt lat="46.58587" lon="5.69653">
        <ele>457</ele>
        <time>2022-03-21T16:57:29Z</time>
      </trkpt>
      <trkpt lat="46.58584" lon="5.69662">
        <ele>457</ele>
        <time>2022-03-21T16:57:30Z</time>
      </trkpt>
      <trkpt lat="46.58581" lon="5.69672">
        <ele>457</ele>
        <time>2022-03-21T16:57:31Z</time>
      </trkpt>
      <trkpt lat="46.58578" lon="5.69681">
        <ele>457</ele>
        <time>2022-03-21T16:57:32Z</time>
      </trkpt>
      <trkpt lat="46.58576" lon="5.69691">
        <ele>457</ele>
        <time>2022-03-21T16:57:33Z</time>
      </trkpt>
      <trkpt lat="46.58573" lon="5.697">
        <ele>457</ele>
        <time>2022-03-21T16:57:34Z</time>
      </trkpt>
      <trkpt lat="46.5857" lon="5.69708">
        <ele>456.8</ele>
        <time>2022-03-21T16:57:35Z</time>
      </trkpt>
      <trkpt lat="46.58568" lon="5.69717">
        <ele>456.8</ele>
        <time>2022-03-21T16:57:36Z</time>
      </trkpt>
      <trkpt lat="46.58566" lon="5.69725">
        <ele>456.8</ele>
        <time>2022-03-21T16:57:37Z</time>
      </trkpt>
      <trkpt lat="46.58563" lon="5.69734">
        <ele>456.8</ele>
        <time>2022-03-21T16:57:38Z</time>
      </trkpt>
      <trkpt lat="46.58561" lon="5.69742">
        <ele>456.8</ele>
        <time>2022-03-21T16:57:39Z</time>
      </trkpt>
      <trkpt lat="46.58558" lon="5.69749">
        <ele>456.8</ele>
        <time>2022-03-21T16:57:40Z</time>
      </trkpt>
      <trkpt lat="46.58556" lon="5.69756">
        <ele>456.8</ele>
        <time>2022-03-21T16:57:41Z</time>
      </trkpt>
      <trkpt lat="46.58554" lon="5.69762">
        <ele>456.8</ele>
        <time>2022-03-21T16:57:42Z</time>
      </trkpt>
      <trkpt lat="46.58552" lon="5.69767">
        <ele>456.6</ele>
        <time>2022-03-21T16:57:43Z</time>
      </trkpt>
      <trkpt lat="46.5855" lon="5.69771">
        <ele>456.6</ele>
        <time>2022-03-21T16:57:44Z</time>
      </trkpt>
      <trkpt lat="46.58548" lon="5.69775">
        <ele>456.6</ele>
        <time>2022-03-21T16:57:45Z</time>
      </trkpt>
      <trkpt lat="46.58547" lon="5.69779">
        <ele>456.6</ele>
        <time>2022-03-21T16:57:46Z</time>
      </trkpt>
      <trkpt lat="46.58546" lon="5.69782">
        <ele>456.6</ele>
        <time>2022-03-21T16:57:47Z</time>
      </trkpt>
      <trkpt lat="46.58545" lon="5.69786">
        <ele>456.6</ele>
        <time>2022-03-21T16:57:48Z</time>
      </trkpt>
      <trkpt lat="46.58545" lon="5.69789">
        <ele>456.6</ele>
        <time>2022-03-21T16:57:49Z</time>
      </trkpt>
      <trkpt lat="46.58544" lon="5.69792">
        <ele>456.6</ele>
        <time>2022-03-21T16:57:50Z</time>
      </trkpt>
      <trkpt lat="46.58543" lon="5.69794">
        <ele>456.6</ele>
        <time>2022-03-21T16:57:51Z</time>
      </trkpt>
      <trkpt lat="46.58542" lon="5.69795">
        <ele>456.6</ele>
        <time>2022-03-21T16:57:52Z</time>
      </trkpt>
      <trkpt lat="46.58542" lon="5.69796">
        <ele>456.6</ele>
        <time>2022-03-21T16:57:53Z</time>
      </trkpt>
      <trkpt lat="46.58542" lon="5.69798">
        <ele>456.6</ele>
        <time>2022-03-21T16:57:54Z</time>
      </trkpt>
      <trkpt lat="46.58541" lon="5.698">
        <ele>456.4</ele>
        <time>2022-03-21T16:57:55Z</time>
      </trkpt>
      <trkpt lat="46.58541" lon="5.69802">
        <ele>456.4</ele>
        <time>2022-03-21T16:57:56Z</time>
      </trkpt>
      <trkpt lat="46.58541" lon="5.69804">
        <ele>456.4</ele>
        <time>2022-03-21T16:57:57Z</time>
      </trkpt>
      <trkpt lat="46.5854" lon="5.69807">
        <ele>456.4</ele>
        <time>2022-03-21T16:57:58Z</time>
      </trkpt>
      <trkpt lat="46.5854" lon="5.69811">
        <ele>456.2</ele>
        <time>2022-03-21T16:57:59Z</time>
      </trkpt>
      <trkpt lat="46.58539" lon="5.69816">
        <ele>456.2</ele>
        <time>2022-03-21T16:58:00Z</time>
      </trkpt>
      <trkpt lat="46.58539" lon="5.69821">
        <ele>456.2</ele>
        <time>2022-03-21T16:58:01Z</time>
      </trkpt>
      <trkpt lat="46.58537" lon="5.69826">
        <ele>456.2</ele>
        <time>2022-03-21T16:58:02Z</time>
      </trkpt>
      <trkpt lat="46.58536" lon="5.69831">
        <ele>456.2</ele>
        <time>2022-03-21T16:58:03Z</time>
      </trkpt>
      <trkpt lat="46.58534" lon="5.69836">
        <ele>456.2</ele>
        <time>2022-03-21T16:58:04Z</time>
      </trkpt>
      <trkpt lat="46.58532" lon="5.69841">
        <ele>456.2</ele>
        <time>2022-03-21T16:58:05Z</time>
      </trkpt>
      <trkpt lat="46.5853" lon="5.69847">
        <ele>456.2</ele>
        <time>2022-03-21T16:58:06Z</time>
      </trkpt>
      <trkpt lat="46.58528" lon="5.69853">
        <ele>456.2</ele>
        <time>2022-03-21T16:58:07Z</time>
      </trkpt>
      <trkpt lat="46.58526" lon="5.69859">
        <ele>456.2</ele>
        <time>2022-03-21T16:58:08Z</time>
      </trkpt>
      <trkpt lat="46.58524" lon="5.69866">
        <ele>456</ele>
        <time>2022-03-21T16:58:09Z</time>
      </trkpt>
      <trkpt lat="46.58522" lon="5.69873">
        <ele>456</ele>
        <time>2022-03-21T16:58:10Z</time>
      </trkpt>
      <trkpt lat="46.5852" lon="5.6988">
        <ele>456</ele>
        <time>2022-03-21T16:58:11Z</time>
      </trkpt>
      <trkpt lat="46.58518" lon="5.69887">
        <ele>456</ele>
        <time>2022-03-21T16:58:12Z</time>
      </trkpt>
      <trkpt lat="46.58515" lon="5.69895">
        <ele>456</ele>
        <time>2022-03-21T16:58:13Z</time>
      </trkpt>
      <trkpt lat="46.58512" lon="5.69903">
        <ele>456</ele>
        <time>2022-03-21T16:58:14Z</time>
      </trkpt>
      <trkpt lat="46.5851" lon="5.69912">
        <ele>456</ele>
        <time>2022-03-21T16:58:15Z</time>
      </trkpt>
      <trkpt lat="46.58507" lon="5.6992">
        <ele>456</ele>
        <time>2022-03-21T16:58:16Z</time>
      </trkpt>
      <trkpt lat="46.58504" lon="5.69929">
        <ele>456</ele>
        <time>2022-03-21T16:58:17Z</time>
      </trkpt>
      <trkpt lat="46.58502" lon="5.69938">
        <ele>456</ele>
        <time>2022-03-21T16:58:18Z</time>
      </trkpt>
      <trkpt lat="46.585" lon="5.69948">
        <ele>456</ele>
        <time>2022-03-21T16:58:19Z</time>
      </trkpt>
      <trkpt lat="46.58499" lon="5.69957">
        <ele>456</ele>
        <time>2022-03-21T16:58:20Z</time>
      </trkpt>
      <trkpt lat="46.58499" lon="5.69967">
        <ele>456</ele>
        <time>2022-03-21T16:58:21Z</time>
      </trkpt>
      <trkpt lat="46.58499" lon="5.69976">
        <ele>456</ele>
        <time>2022-03-21T16:58:22Z</time>
      </trkpt>
      <trkpt lat="46.585" lon="5.69986">
        <ele>456.2</ele>
        <time>2022-03-21T16:58:24Z</time>
      </trkpt>
      <trkpt lat="46.58501" lon="5.69994">
        <ele>456.6</ele>
        <time>2022-03-21T16:58:25Z</time>
      </trkpt>
      <trkpt lat="46.58502" lon="5.70003">
        <ele>456.6</ele>
        <time>2022-03-21T16:58:26Z</time>
      </trkpt>
      <trkpt lat="46.58503" lon="5.70011">
        <ele>457</ele>
        <time>2022-03-21T16:58:27Z</time>
      </trkpt>
      <trkpt lat="46.58504" lon="5.70019">
        <ele>457.2</ele>
        <time>2022-03-21T16:58:28Z</time>
      </trkpt>
      <trkpt lat="46.58505" lon="5.70027">
        <ele>457.4</ele>
        <time>2022-03-21T16:58:29Z</time>
      </trkpt>
      <trkpt lat="46.58506" lon="5.70035">
        <ele>457.6</ele>
        <time>2022-03-21T16:58:30Z</time>
      </trkpt>
      <trkpt lat="46.58507" lon="5.70043">
        <ele>457.8</ele>
        <time>2022-03-21T16:58:31Z</time>
      </trkpt>
      <trkpt lat="46.58507" lon="5.70051">
        <ele>457.8</ele>
        <time>2022-03-21T16:58:32Z</time>
      </trkpt>
      <trkpt lat="46.58508" lon="5.7006">
        <ele>458.2</ele>
        <time>2022-03-21T16:58:33Z</time>
      </trkpt>
      <trkpt lat="46.58509" lon="5.70069">
        <ele>458.2</ele>
        <time>2022-03-21T16:58:34Z</time>
      </trkpt>
      <trkpt lat="46.58509" lon="5.70078">
        <ele>458.6</ele>
        <time>2022-03-21T16:58:35Z</time>
      </trkpt>
      <trkpt lat="46.5851" lon="5.70087">
        <ele>458.6</ele>
        <time>2022-03-21T16:58:36Z</time>
      </trkpt>
      <trkpt lat="46.58511" lon="5.70096">
        <ele>458.6</ele>
        <time>2022-03-21T16:58:37Z</time>
      </trkpt>
      <trkpt lat="46.58512" lon="5.70106">
        <ele>458.6</ele>
        <time>2022-03-21T16:58:38Z</time>
      </trkpt>
      <trkpt lat="46.58514" lon="5.70125">
        <ele>458.6</ele>
        <time>2022-03-21T16:58:39Z</time>
      </trkpt>
      <trkpt lat="46.58516" lon="5.70135">
        <ele>458.6</ele>
        <time>2022-03-21T16:58:40Z</time>
      </trkpt>
      <trkpt lat="46.58518" lon="5.70145">
        <ele>458.6</ele>
        <time>2022-03-21T16:58:41Z</time>
      </trkpt>
      <trkpt lat="46.5852" lon="5.70154">
        <ele>458.6</ele>
        <time>2022-03-21T16:58:42Z</time>
      </trkpt>
      <trkpt lat="46.58522" lon="5.70162">
        <ele>458.6</ele>
        <time>2022-03-21T16:58:43Z</time>
      </trkpt>
      <trkpt lat="46.58526" lon="5.7017">
        <ele>458.8</ele>
        <time>2022-03-21T16:58:44Z</time>
      </trkpt>
      <trkpt lat="46.5853" lon="5.70176">
        <ele>458.8</ele>
        <time>2022-03-21T16:58:45Z</time>
      </trkpt>
      <trkpt lat="46.58534" lon="5.70181">
        <ele>459.4</ele>
        <time>2022-03-21T16:58:46Z</time>
      </trkpt>
      <trkpt lat="46.58538" lon="5.70185">
        <ele>459.6</ele>
        <time>2022-03-21T16:58:47Z</time>
      </trkpt>
      <trkpt lat="46.58542" lon="5.70187">
        <ele>460</ele>
        <time>2022-03-21T16:58:48Z</time>
      </trkpt>
      <trkpt lat="46.58547" lon="5.7019">
        <ele>460.2</ele>
        <time>2022-03-21T16:58:49Z</time>
      </trkpt>
      <trkpt lat="46.58551" lon="5.70192">
        <ele>460.6</ele>
        <time>2022-03-21T16:58:50Z</time>
      </trkpt>
      <trkpt lat="46.58556" lon="5.70194">
        <ele>460.8</ele>
        <time>2022-03-21T16:58:51Z</time>
      </trkpt>
      <trkpt lat="46.5856" lon="5.70195">
        <ele>461.2</ele>
        <time>2022-03-21T16:58:52Z</time>
      </trkpt>
      <trkpt lat="46.58565" lon="5.70197">
        <ele>461.2</ele>
        <time>2022-03-21T16:58:53Z</time>
      </trkpt>
      <trkpt lat="46.58569" lon="5.70199">
        <ele>461.6</ele>
        <time>2022-03-21T16:58:54Z</time>
      </trkpt>
      <trkpt lat="46.58573" lon="5.702">
        <ele>461.8</ele>
        <time>2022-03-21T16:58:55Z</time>
      </trkpt>
      <trkpt lat="46.58577" lon="5.70203">
        <ele>462</ele>
        <time>2022-03-21T16:58:56Z</time>
      </trkpt>
      <trkpt lat="46.58581" lon="5.70205">
        <ele>462.2</ele>
        <time>2022-03-21T16:58:57Z</time>
      </trkpt>
      <trkpt lat="46.58585" lon="5.70208">
        <ele>462.4</ele>
        <time>2022-03-21T16:58:58Z</time>
      </trkpt>
      <trkpt lat="46.58588" lon="5.70211">
        <ele>462.4</ele>
        <time>2022-03-21T16:58:59Z</time>
      </trkpt>
      <trkpt lat="46.58592" lon="5.70215">
        <ele>462.8</ele>
        <time>2022-03-21T16:59:00Z</time>
      </trkpt>
      <trkpt lat="46.58594" lon="5.70219">
        <ele>463.2</ele>
        <time>2022-03-21T16:59:01Z</time>
      </trkpt>
      <trkpt lat="46.58597" lon="5.70223">
        <ele>463.6</ele>
        <time>2022-03-21T16:59:02Z</time>
      </trkpt>
      <trkpt lat="46.58599" lon="5.70227">
        <ele>463.8</ele>
        <time>2022-03-21T16:59:03Z</time>
      </trkpt>
      <trkpt lat="46.58601" lon="5.70231">
        <ele>463.8</ele>
        <time>2022-03-21T16:59:04Z</time>
      </trkpt>
      <trkpt lat="46.58603" lon="5.70235">
        <ele>464.2</ele>
        <time>2022-03-21T16:59:05Z</time>
      </trkpt>
      <trkpt lat="46.58604" lon="5.7024">
        <ele>464.4</ele>
        <time>2022-03-21T16:59:06Z</time>
      </trkpt>
      <trkpt lat="46.58605" lon="5.70244">
        <ele>464.6</ele>
        <time>2022-03-21T16:59:07Z</time>
      </trkpt>
      <trkpt lat="46.58606" lon="5.70249">
        <ele>464.8</ele>
        <time>2022-03-21T16:59:08Z</time>
      </trkpt>
      <trkpt lat="46.58607" lon="5.70253">
        <ele>464.8</ele>
        <time>2022-03-21T16:59:09Z</time>
      </trkpt>
      <trkpt lat="46.58607" lon="5.70258">
        <ele>465.2</ele>
        <time>2022-03-21T16:59:10Z</time>
      </trkpt>
      <trkpt lat="46.58607" lon="5.70262">
        <ele>465.2</ele>
        <time>2022-03-21T16:59:11Z</time>
      </trkpt>
      <trkpt lat="46.58607" lon="5.70267">
        <ele>465.6</ele>
        <time>2022-03-21T16:59:12Z</time>
      </trkpt>
      <trkpt lat="46.58607" lon="5.70271">
        <ele>465.6</ele>
        <time>2022-03-21T16:59:13Z</time>
      </trkpt>
      <trkpt lat="46.58607" lon="5.70276">
        <ele>465.8</ele>
        <time>2022-03-21T16:59:14Z</time>
      </trkpt>
      <trkpt lat="46.58607" lon="5.70281">
        <ele>465.8</ele>
        <time>2022-03-21T16:59:15Z</time>
      </trkpt>
      <trkpt lat="46.58607" lon="5.70285">
        <ele>466.2</ele>
        <time>2022-03-21T16:59:16Z</time>
      </trkpt>
      <trkpt lat="46.58607" lon="5.70289">
        <ele>466.2</ele>
        <time>2022-03-21T16:59:17Z</time>
      </trkpt>
      <trkpt lat="46.58607" lon="5.70294">
        <ele>466.6</ele>
        <time>2022-03-21T16:59:18Z</time>
      </trkpt>
      <trkpt lat="46.58606" lon="5.70298">
        <ele>466.8</ele>
        <time>2022-03-21T16:59:19Z</time>
      </trkpt>
      <trkpt lat="46.58606" lon="5.70302">
        <ele>466.8</ele>
        <time>2022-03-21T16:59:20Z</time>
      </trkpt>
      <trkpt lat="46.58605" lon="5.70307">
        <ele>467.2</ele>
        <time>2022-03-21T16:59:21Z</time>
      </trkpt>
      <trkpt lat="46.58605" lon="5.70311">
        <ele>467.4</ele>
        <time>2022-03-21T16:59:22Z</time>
      </trkpt>
      <trkpt lat="46.58605" lon="5.70315">
        <ele>467.8</ele>
        <time>2022-03-21T16:59:23Z</time>
      </trkpt>
      <trkpt lat="46.58604" lon="5.70319">
        <ele>467.8</ele>
        <time>2022-03-21T16:59:24Z</time>
      </trkpt>
      <trkpt lat="46.58604" lon="5.70324">
        <ele>468</ele>
        <time>2022-03-21T16:59:25Z</time>
      </trkpt>
      <trkpt lat="46.58604" lon="5.70328">
        <ele>468</ele>
        <time>2022-03-21T16:59:26Z</time>
      </trkpt>
      <trkpt lat="46.58604" lon="5.70332">
        <ele>468.4</ele>
        <time>2022-03-21T16:59:27Z</time>
      </trkpt>
      <trkpt lat="46.58604" lon="5.70337">
        <ele>468.4</ele>
        <time>2022-03-21T16:59:28Z</time>
      </trkpt>
      <trkpt lat="46.58604" lon="5.70341">
        <ele>468.8</ele>
        <time>2022-03-21T16:59:29Z</time>
      </trkpt>
      <trkpt lat="46.58603" lon="5.70345">
        <ele>468.8</ele>
        <time>2022-03-21T16:59:30Z</time>
      </trkpt>
      <trkpt lat="46.58603" lon="5.7035">
        <ele>469.2</ele>
        <time>2022-03-21T16:59:31Z</time>
      </trkpt>
      <trkpt lat="46.58603" lon="5.70354">
        <ele>469.2</ele>
        <time>2022-03-21T16:59:32Z</time>
      </trkpt>
      <trkpt lat="46.58603" lon="5.70359">
        <ele>469.6</ele>
        <time>2022-03-21T16:59:33Z</time>
      </trkpt>
      <trkpt lat="46.58603" lon="5.70363">
        <ele>469.6</ele>
        <time>2022-03-21T16:59:34Z</time>
      </trkpt>
      <trkpt lat="46.58603" lon="5.70368">
        <ele>469.8</ele>
        <time>2022-03-21T16:59:35Z</time>
      </trkpt>
      <trkpt lat="46.58602" lon="5.70373">
        <ele>469.8</ele>
        <time>2022-03-21T16:59:36Z</time>
      </trkpt>
      <trkpt lat="46.58602" lon="5.70377">
        <ele>470</ele>
        <time>2022-03-21T16:59:37Z</time>
      </trkpt>
      <trkpt lat="46.58603" lon="5.70382">
        <ele>470</ele>
        <time>2022-03-21T16:59:38Z</time>
      </trkpt>
      <trkpt lat="46.58603" lon="5.70387">
        <ele>470.4</ele>
        <time>2022-03-21T16:59:39Z</time>
      </trkpt>
      <trkpt lat="46.58604" lon="5.70391">
        <ele>470.4</ele>
        <time>2022-03-21T16:59:40Z</time>
      </trkpt>
      <trkpt lat="46.58605" lon="5.70395">
        <ele>470.8</ele>
        <time>2022-03-21T16:59:41Z</time>
      </trkpt>
      <trkpt lat="46.58605" lon="5.704">
        <ele>471</ele>
        <time>2022-03-21T16:59:42Z</time>
      </trkpt>
      <trkpt lat="46.58606" lon="5.70404">
        <ele>471.2</ele>
        <time>2022-03-21T16:59:43Z</time>
      </trkpt>
      <trkpt lat="46.58607" lon="5.70409">
        <ele>471.2</ele>
        <time>2022-03-21T16:59:44Z</time>
      </trkpt>
      <trkpt lat="46.58608" lon="5.70413">
        <ele>471.6</ele>
        <time>2022-03-21T16:59:45Z</time>
      </trkpt>
      <trkpt lat="46.5861" lon="5.70417">
        <ele>471.6</ele>
        <time>2022-03-21T16:59:46Z</time>
      </trkpt>
      <trkpt lat="46.58611" lon="5.70421">
        <ele>472</ele>
        <time>2022-03-21T16:59:47Z</time>
      </trkpt>
      <trkpt lat="46.58613" lon="5.70424">
        <ele>472.2</ele>
        <time>2022-03-21T16:59:48Z</time>
      </trkpt>
      <trkpt lat="46.58615" lon="5.70428">
        <ele>472.2</ele>
        <time>2022-03-21T16:59:49Z</time>
      </trkpt>
      <trkpt lat="46.58617" lon="5.70432">
        <ele>472.6</ele>
        <time>2022-03-21T16:59:50Z</time>
      </trkpt>
      <trkpt lat="46.58619" lon="5.70435">
        <ele>472.6</ele>
        <time>2022-03-21T16:59:51Z</time>
      </trkpt>
      <trkpt lat="46.58621" lon="5.70438">
        <ele>473</ele>
        <time>2022-03-21T16:59:52Z</time>
      </trkpt>
      <trkpt lat="46.58624" lon="5.70442">
        <ele>473</ele>
        <time>2022-03-21T16:59:53Z</time>
      </trkpt>
      <trkpt lat="46.58626" lon="5.70444">
        <ele>473.2</ele>
        <time>2022-03-21T16:59:54Z</time>
      </trkpt>
      <trkpt lat="46.58629" lon="5.70447">
        <ele>473.2</ele>
        <time>2022-03-21T16:59:55Z</time>
      </trkpt>
      <trkpt lat="46.58632" lon="5.70449">
        <ele>473.6</ele>
        <time>2022-03-21T16:59:56Z</time>
      </trkpt>
      <trkpt lat="46.58635" lon="5.70451">
        <ele>473.6</ele>
        <time>2022-03-21T16:59:57Z</time>
      </trkpt>
      <trkpt lat="46.58638" lon="5.70453">
        <ele>474</ele>
        <time>2022-03-21T16:59:58Z</time>
      </trkpt>
      <trkpt lat="46.58641" lon="5.70454">
        <ele>474</ele>
        <time>2022-03-21T16:59:59Z</time>
      </trkpt>
      <trkpt lat="46.58644" lon="5.70455">
        <ele>474.2</ele>
        <time>2022-03-21T17:00:00Z</time>
      </trkpt>
      <trkpt lat="46.58647" lon="5.70456">
        <ele>474.2</ele>
        <time>2022-03-21T17:00:01Z</time>
      </trkpt>
      <trkpt lat="46.5865" lon="5.70457">
        <ele>474.6</ele>
        <time>2022-03-21T17:00:02Z</time>
      </trkpt>
      <trkpt lat="46.58653" lon="5.70458">
        <ele>474.6</ele>
        <time>2022-03-21T17:00:03Z</time>
      </trkpt>
      <trkpt lat="46.58656" lon="5.70458">
        <ele>474.8</ele>
        <time>2022-03-21T17:00:04Z</time>
      </trkpt>
      <trkpt lat="46.58659" lon="5.70459">
        <ele>474.8</ele>
        <time>2022-03-21T17:00:05Z</time>
      </trkpt>
      <trkpt lat="46.58662" lon="5.7046">
        <ele>475.2</ele>
        <time>2022-03-21T17:00:06Z</time>
      </trkpt>
      <trkpt lat="46.58665" lon="5.70461">
        <ele>475.2</ele>
        <time>2022-03-21T17:00:07Z</time>
      </trkpt>
      <trkpt lat="46.58668" lon="5.70461">
        <ele>475.6</ele>
        <time>2022-03-21T17:00:08Z</time>
      </trkpt>
      <trkpt lat="46.58671" lon="5.70462">
        <ele>475.6</ele>
        <time>2022-03-21T17:00:09Z</time>
      </trkpt>
      <trkpt lat="46.58674" lon="5.70463">
        <ele>475.8</ele>
        <time>2022-03-21T17:00:10Z</time>
      </trkpt>
      <trkpt lat="46.58677" lon="5.70465">
        <ele>476</ele>
        <time>2022-03-21T17:00:11Z</time>
      </trkpt>
      <trkpt lat="46.5868" lon="5.70466">
        <ele>476</ele>
        <time>2022-03-21T17:00:12Z</time>
      </trkpt>
      <trkpt lat="46.58683" lon="5.70468">
        <ele>476.4</ele>
        <time>2022-03-21T17:00:13Z</time>
      </trkpt>
      <trkpt lat="46.58686" lon="5.70469">
        <ele>476.4</ele>
        <time>2022-03-21T17:00:14Z</time>
      </trkpt>
      <trkpt lat="46.58689" lon="5.70471">
        <ele>476.8</ele>
        <time>2022-03-21T17:00:15Z</time>
      </trkpt>
      <trkpt lat="46.58691" lon="5.70474">
        <ele>477</ele>
        <time>2022-03-21T17:00:16Z</time>
      </trkpt>
      <trkpt lat="46.58694" lon="5.70476">
        <ele>477.2</ele>
        <time>2022-03-21T17:00:17Z</time>
      </trkpt>
      <trkpt lat="46.58697" lon="5.70479">
        <ele>477.2</ele>
        <time>2022-03-21T17:00:18Z</time>
      </trkpt>
      <trkpt lat="46.58699" lon="5.70482">
        <ele>477.8</ele>
        <time>2022-03-21T17:00:19Z</time>
      </trkpt>
      <trkpt lat="46.58701" lon="5.70486">
        <ele>477.8</ele>
        <time>2022-03-21T17:00:20Z</time>
      </trkpt>
      <trkpt lat="46.58704" lon="5.70489">
        <ele>478</ele>
        <time>2022-03-21T17:00:21Z</time>
      </trkpt>
      <trkpt lat="46.58706" lon="5.70492">
        <ele>478.2</ele>
        <time>2022-03-21T17:00:22Z</time>
      </trkpt>
      <trkpt lat="46.58708" lon="5.70496">
        <ele>478.4</ele>
        <time>2022-03-21T17:00:23Z</time>
      </trkpt>
      <trkpt lat="46.5871" lon="5.70499">
        <ele>478.4</ele>
        <time>2022-03-21T17:00:24Z</time>
      </trkpt>
      <trkpt lat="46.58712" lon="5.70503">
        <ele>478.8</ele>
        <time>2022-03-21T17:00:25Z</time>
      </trkpt>
      <trkpt lat="46.58713" lon="5.70506">
        <ele>478.8</ele>
        <time>2022-03-21T17:00:26Z</time>
      </trkpt>
      <trkpt lat="46.58715" lon="5.7051">
        <ele>479</ele>
        <time>2022-03-21T17:00:27Z</time>
      </trkpt>
      <trkpt lat="46.58718" lon="5.70513">
        <ele>479</ele>
        <time>2022-03-21T17:00:28Z</time>
      </trkpt>
      <trkpt lat="46.5872" lon="5.70517">
        <ele>479.4</ele>
        <time>2022-03-21T17:00:29Z</time>
      </trkpt>
      <trkpt lat="46.58722" lon="5.70521">
        <ele>479.4</ele>
        <time>2022-03-21T17:00:30Z</time>
      </trkpt>
      <trkpt lat="46.58724" lon="5.70524">
        <ele>479.8</ele>
        <time>2022-03-21T17:00:31Z</time>
      </trkpt>
      <trkpt lat="46.58726" lon="5.70528">
        <ele>479.8</ele>
        <time>2022-03-21T17:00:32Z</time>
      </trkpt>
      <trkpt lat="46.58728" lon="5.70532">
        <ele>480.2</ele>
        <time>2022-03-21T17:00:33Z</time>
      </trkpt>
      <trkpt lat="46.5873" lon="5.70536">
        <ele>480.2</ele>
        <time>2022-03-21T17:00:34Z</time>
      </trkpt>
      <trkpt lat="46.58731" lon="5.7054">
        <ele>480.4</ele>
        <time>2022-03-21T17:00:35Z</time>
      </trkpt>
      <trkpt lat="46.58733" lon="5.70543">
        <ele>480.4</ele>
        <time>2022-03-21T17:00:36Z</time>
      </trkpt>
      <trkpt lat="46.58735" lon="5.70547">
        <ele>480.8</ele>
        <time>2022-03-21T17:00:37Z</time>
      </trkpt>
      <trkpt lat="46.58737" lon="5.70551">
        <ele>480.8</ele>
        <time>2022-03-21T17:00:38Z</time>
      </trkpt>
      <trkpt lat="46.58739" lon="5.70554">
        <ele>481.2</ele>
        <time>2022-03-21T17:00:39Z</time>
      </trkpt>
      <trkpt lat="46.58742" lon="5.70558">
        <ele>481.2</ele>
        <time>2022-03-21T17:00:40Z</time>
      </trkpt>
      <trkpt lat="46.58743" lon="5.70561">
        <ele>481.4</ele>
        <time>2022-03-21T17:00:41Z</time>
      </trkpt>
      <trkpt lat="46.58745" lon="5.70565">
        <ele>481.4</ele>
        <time>2022-03-21T17:00:42Z</time>
      </trkpt>
      <trkpt lat="46.58747" lon="5.70569">
        <ele>481.8</ele>
        <time>2022-03-21T17:00:43Z</time>
      </trkpt>
      <trkpt lat="46.5875" lon="5.70573">
        <ele>481.8</ele>
        <time>2022-03-21T17:00:44Z</time>
      </trkpt>
      <trkpt lat="46.58752" lon="5.70576">
        <ele>482</ele>
        <time>2022-03-21T17:00:45Z</time>
      </trkpt>
      <trkpt lat="46.58754" lon="5.7058">
        <ele>482</ele>
        <time>2022-03-21T17:00:46Z</time>
      </trkpt>
      <trkpt lat="46.58756" lon="5.70584">
        <ele>482.2</ele>
        <time>2022-03-21T17:00:47Z</time>
      </trkpt>
      <trkpt lat="46.58758" lon="5.70588">
        <ele>482.2</ele>
        <time>2022-03-21T17:00:48Z</time>
      </trkpt>
      <trkpt lat="46.5876" lon="5.70591">
        <ele>482.6</ele>
        <time>2022-03-21T17:00:49Z</time>
      </trkpt>
      <trkpt lat="46.58762" lon="5.70595">
        <ele>482.6</ele>
        <time>2022-03-21T17:00:50Z</time>
      </trkpt>
      <trkpt lat="46.58764" lon="5.70599">
        <ele>482.8</ele>
        <time>2022-03-21T17:00:51Z</time>
      </trkpt>
      <trkpt lat="46.58766" lon="5.70602">
        <ele>483.2</ele>
        <time>2022-03-21T17:00:52Z</time>
      </trkpt>
      <trkpt lat="46.58768" lon="5.70606">
        <ele>483.2</ele>
        <time>2022-03-21T17:00:53Z</time>
      </trkpt>
      <trkpt lat="46.5877" lon="5.7061">
        <ele>483.4</ele>
        <time>2022-03-21T17:00:54Z</time>
      </trkpt>
      <trkpt lat="46.58772" lon="5.70614">
        <ele>483.4</ele>
        <time>2022-03-21T17:00:55Z</time>
      </trkpt>
      <trkpt lat="46.58775" lon="5.70618">
        <ele>483.6</ele>
        <time>2022-03-21T17:00:56Z</time>
      </trkpt>
      <trkpt lat="46.58777" lon="5.70621">
        <ele>483.6</ele>
        <time>2022-03-21T17:00:57Z</time>
      </trkpt>
      <trkpt lat="46.58779" lon="5.70625">
        <ele>484</ele>
        <time>2022-03-21T17:00:58Z</time>
      </trkpt>
      <trkpt lat="46.58782" lon="5.70629">
        <ele>484</ele>
        <time>2022-03-21T17:00:59Z</time>
      </trkpt>
      <trkpt lat="46.58784" lon="5.70632">
        <ele>484</ele>
        <time>2022-03-21T17:01:00Z</time>
      </trkpt>
      <trkpt lat="46.58787" lon="5.70636">
        <ele>484</ele>
        <time>2022-03-21T17:01:01Z</time>
      </trkpt>
      <trkpt lat="46.5879" lon="5.70639">
        <ele>484.2</ele>
        <time>2022-03-21T17:01:02Z</time>
      </trkpt>
      <trkpt lat="46.58793" lon="5.70643">
        <ele>484.2</ele>
        <time>2022-03-21T17:01:03Z</time>
      </trkpt>
      <trkpt lat="46.58795" lon="5.70647">
        <ele>484.2</ele>
        <time>2022-03-21T17:01:04Z</time>
      </trkpt>
      <trkpt lat="46.58798" lon="5.7065">
        <ele>484.2</ele>
        <time>2022-03-21T17:01:05Z</time>
      </trkpt>
      <trkpt lat="46.58801" lon="5.70653">
        <ele>484.2</ele>
        <time>2022-03-21T17:01:06Z</time>
      </trkpt>
      <trkpt lat="46.58804" lon="5.70657">
        <ele>484.2</ele>
        <time>2022-03-21T17:01:07Z</time>
      </trkpt>
      <trkpt lat="46.58807" lon="5.7066">
        <ele>484.6</ele>
        <time>2022-03-21T17:01:08Z</time>
      </trkpt>
      <trkpt lat="46.58811" lon="5.70664">
        <ele>484.6</ele>
        <time>2022-03-21T17:01:09Z</time>
      </trkpt>
      <trkpt lat="46.58814" lon="5.70667">
        <ele>484.6</ele>
        <time>2022-03-21T17:01:10Z</time>
      </trkpt>
      <trkpt lat="46.58818" lon="5.7067">
        <ele>484.8</ele>
        <time>2022-03-21T17:01:11Z</time>
      </trkpt>
      <trkpt lat="46.58822" lon="5.70674">
        <ele>484.8</ele>
        <time>2022-03-21T17:01:12Z</time>
      </trkpt>
      <trkpt lat="46.58826" lon="5.70677">
        <ele>484.8</ele>
        <time>2022-03-21T17:01:13Z</time>
      </trkpt>
      <trkpt lat="46.5883" lon="5.70681">
        <ele>484.8</ele>
        <time>2022-03-21T17:01:14Z</time>
      </trkpt>
      <trkpt lat="46.58834" lon="5.70684">
        <ele>484.8</ele>
        <time>2022-03-21T17:01:15Z</time>
      </trkpt>
      <trkpt lat="46.58838" lon="5.70687">
        <ele>484.8</ele>
        <time>2022-03-21T17:01:16Z</time>
      </trkpt>
      <trkpt lat="46.58842" lon="5.7069">
        <ele>484.8</ele>
        <time>2022-03-21T17:01:17Z</time>
      </trkpt>
      <trkpt lat="46.58846" lon="5.70694">
        <ele>485</ele>
        <time>2022-03-21T17:01:18Z</time>
      </trkpt>
      <trkpt lat="46.58851" lon="5.70697">
        <ele>485</ele>
        <time>2022-03-21T17:01:19Z</time>
      </trkpt>
      <trkpt lat="46.58855" lon="5.70701">
        <ele>485</ele>
        <time>2022-03-21T17:01:20Z</time>
      </trkpt>
      <trkpt lat="46.58859" lon="5.70704">
        <ele>485</ele>
        <time>2022-03-21T17:01:21Z</time>
      </trkpt>
      <trkpt lat="46.58864" lon="5.70708">
        <ele>485</ele>
        <time>2022-03-21T17:01:22Z</time>
      </trkpt>
      <trkpt lat="46.58868" lon="5.70711">
        <ele>485</ele>
        <time>2022-03-21T17:01:23Z</time>
      </trkpt>
      <trkpt lat="46.58872" lon="5.70715">
        <ele>485.4</ele>
        <time>2022-03-21T17:01:24Z</time>
      </trkpt>
      <trkpt lat="46.58877" lon="5.7072">
        <ele>485.4</ele>
        <time>2022-03-21T17:01:25Z</time>
      </trkpt>
      <trkpt lat="46.58881" lon="5.70724">
        <ele>485.4</ele>
        <time>2022-03-21T17:01:26Z</time>
      </trkpt>
      <trkpt lat="46.58885" lon="5.70729">
        <ele>485.6</ele>
        <time>2022-03-21T17:01:27Z</time>
      </trkpt>
      <trkpt lat="46.58889" lon="5.70734">
        <ele>485.6</ele>
        <time>2022-03-21T17:01:28Z</time>
      </trkpt>
      <trkpt lat="46.58892" lon="5.70739">
        <ele>485.6</ele>
        <time>2022-03-21T17:01:29Z</time>
      </trkpt>
      <trkpt lat="46.58896" lon="5.70744">
        <ele>485.6</ele>
        <time>2022-03-21T17:01:30Z</time>
      </trkpt>
      <trkpt lat="46.589" lon="5.70749">
        <ele>485.6</ele>
        <time>2022-03-21T17:01:31Z</time>
      </trkpt>
      <trkpt lat="46.58903" lon="5.70755">
        <ele>485.6</ele>
        <time>2022-03-21T17:01:32Z</time>
      </trkpt>
      <trkpt lat="46.58906" lon="5.7076">
        <ele>486</ele>
        <time>2022-03-21T17:01:33Z</time>
      </trkpt>
      <trkpt lat="46.5891" lon="5.70765">
        <ele>486</ele>
        <time>2022-03-21T17:01:34Z</time>
      </trkpt>
      <trkpt lat="46.58913" lon="5.70771">
        <ele>486.2</ele>
        <time>2022-03-21T17:01:35Z</time>
      </trkpt>
      <trkpt lat="46.58916" lon="5.70776">
        <ele>486.2</ele>
        <time>2022-03-21T17:01:36Z</time>
      </trkpt>
      <trkpt lat="46.58919" lon="5.70782">
        <ele>486.2</ele>
        <time>2022-03-21T17:01:37Z</time>
      </trkpt>
      <trkpt lat="46.58922" lon="5.70788">
        <ele>486.4</ele>
        <time>2022-03-21T17:01:38Z</time>
      </trkpt>
      <trkpt lat="46.58925" lon="5.70793">
        <ele>486.4</ele>
        <time>2022-03-21T17:01:39Z</time>
      </trkpt>
      <trkpt lat="46.58927" lon="5.70799">
        <ele>486.6</ele>
        <time>2022-03-21T17:01:40Z</time>
      </trkpt>
      <trkpt lat="46.58929" lon="5.70806">
        <ele>486.6</ele>
        <time>2022-03-21T17:01:41Z</time>
      </trkpt>
      <trkpt lat="46.58931" lon="5.70812">
        <ele>486.6</ele>
        <time>2022-03-21T17:01:42Z</time>
      </trkpt>
      <trkpt lat="46.58933" lon="5.70819">
        <ele>487</ele>
        <time>2022-03-21T17:01:43Z</time>
      </trkpt>
      <trkpt lat="46.58935" lon="5.70825">
        <ele>487</ele>
        <time>2022-03-21T17:01:44Z</time>
      </trkpt>
      <trkpt lat="46.58937" lon="5.70832">
        <ele>487.2</ele>
        <time>2022-03-21T17:01:45Z</time>
      </trkpt>
      <trkpt lat="46.58939" lon="5.70839">
        <ele>487.2</ele>
        <time>2022-03-21T17:01:46Z</time>
      </trkpt>
      <trkpt lat="46.5894" lon="5.70846">
        <ele>487.2</ele>
        <time>2022-03-21T17:01:47Z</time>
      </trkpt>
      <trkpt lat="46.58942" lon="5.70853">
        <ele>487.4</ele>
        <time>2022-03-21T17:01:48Z</time>
      </trkpt>
      <trkpt lat="46.58943" lon="5.70861">
        <ele>487.4</ele>
        <time>2022-03-21T17:01:49Z</time>
      </trkpt>
      <trkpt lat="46.58944" lon="5.70868">
        <ele>487.8</ele>
        <time>2022-03-21T17:01:50Z</time>
      </trkpt>
      <trkpt lat="46.58945" lon="5.70876">
        <ele>487.8</ele>
        <time>2022-03-21T17:01:52Z</time>
      </trkpt>
      <trkpt lat="46.58946" lon="5.70884">
        <ele>488</ele>
        <time>2022-03-21T17:01:53Z</time>
      </trkpt>
      <trkpt lat="46.58947" lon="5.70891">
        <ele>488</ele>
        <time>2022-03-21T17:01:54Z</time>
      </trkpt>
      <trkpt lat="46.58947" lon="5.70899">
        <ele>488</ele>
        <time>2022-03-21T17:01:55Z</time>
      </trkpt>
      <trkpt lat="46.58947" lon="5.70907">
        <ele>488.2</ele>
        <time>2022-03-21T17:01:56Z</time>
      </trkpt>
      <trkpt lat="46.58948" lon="5.70915">
        <ele>488.2</ele>
        <time>2022-03-21T17:01:57Z</time>
      </trkpt>
      <trkpt lat="46.58948" lon="5.70923">
        <ele>488.4</ele>
        <time>2022-03-21T17:01:58Z</time>
      </trkpt>
      <trkpt lat="46.58948" lon="5.70931">
        <ele>488.4</ele>
        <time>2022-03-21T17:01:59Z</time>
      </trkpt>
      <trkpt lat="46.58948" lon="5.70939">
        <ele>488.4</ele>
        <time>2022-03-21T17:02:00Z</time>
      </trkpt>
      <trkpt lat="46.58948" lon="5.70947">
        <ele>488.8</ele>
        <time>2022-03-21T17:02:01Z</time>
      </trkpt>
      <trkpt lat="46.58948" lon="5.70955">
        <ele>488.8</ele>
        <time>2022-03-21T17:02:02Z</time>
      </trkpt>
      <trkpt lat="46.58948" lon="5.70963">
        <ele>489</ele>
        <time>2022-03-21T17:02:03Z</time>
      </trkpt>
      <trkpt lat="46.58948" lon="5.70971">
        <ele>489</ele>
        <time>2022-03-21T17:02:04Z</time>
      </trkpt>
      <trkpt lat="46.58947" lon="5.7098">
        <ele>489</ele>
        <time>2022-03-21T17:02:05Z</time>
      </trkpt>
      <trkpt lat="46.58947" lon="5.70988">
        <ele>489.2</ele>
        <time>2022-03-21T17:02:06Z</time>
      </trkpt>
      <trkpt lat="46.58947" lon="5.70997">
        <ele>489.2</ele>
        <time>2022-03-21T17:02:07Z</time>
      </trkpt>
      <trkpt lat="46.58947" lon="5.71005">
        <ele>489.2</ele>
        <time>2022-03-21T17:02:08Z</time>
      </trkpt>
      <trkpt lat="46.58947" lon="5.71014">
        <ele>489.2</ele>
        <time>2022-03-21T17:02:09Z</time>
      </trkpt>
      <trkpt lat="46.58948" lon="5.71023">
        <ele>489.2</ele>
        <time>2022-03-21T17:02:10Z</time>
      </trkpt>
      <trkpt lat="46.58948" lon="5.71032">
        <ele>489.2</ele>
        <time>2022-03-21T17:02:11Z</time>
      </trkpt>
      <trkpt lat="46.58948" lon="5.71041">
        <ele>489.6</ele>
        <time>2022-03-21T17:02:12Z</time>
      </trkpt>
      <trkpt lat="46.58948" lon="5.71059">
        <ele>489.6</ele>
        <time>2022-03-21T17:02:13Z</time>
      </trkpt>
      <trkpt lat="46.58947" lon="5.71068">
        <ele>489.6</ele>
        <time>2022-03-21T17:02:14Z</time>
      </trkpt>
      <trkpt lat="46.58947" lon="5.71077">
        <ele>489.6</ele>
        <time>2022-03-21T17:02:15Z</time>
      </trkpt>
      <trkpt lat="46.58947" lon="5.71087">
        <ele>489.6</ele>
        <time>2022-03-21T17:02:16Z</time>
      </trkpt>
      <trkpt lat="46.58947" lon="5.71096">
        <ele>489.8</ele>
        <time>2022-03-21T17:02:17Z</time>
      </trkpt>
      <trkpt lat="46.58947" lon="5.71106">
        <ele>489.8</ele>
        <time>2022-03-21T17:02:18Z</time>
      </trkpt>
      <trkpt lat="46.58947" lon="5.71115">
        <ele>489.8</ele>
        <time>2022-03-21T17:02:19Z</time>
      </trkpt>
      <trkpt lat="46.58947" lon="5.71124">
        <ele>489.8</ele>
        <time>2022-03-21T17:02:20Z</time>
      </trkpt>
      <trkpt lat="46.58947" lon="5.71134">
        <ele>490</ele>
        <time>2022-03-21T17:02:21Z</time>
      </trkpt>
      <trkpt lat="46.58947" lon="5.71143">
        <ele>490.4</ele>
        <time>2022-03-21T17:02:22Z</time>
      </trkpt>
      <trkpt lat="46.58947" lon="5.71152">
        <ele>490.4</ele>
        <time>2022-03-21T17:02:23Z</time>
      </trkpt>
      <trkpt lat="46.58947" lon="5.71161">
        <ele>490.4</ele>
        <time>2022-03-21T17:02:24Z</time>
      </trkpt>
      <trkpt lat="46.58946" lon="5.71171">
        <ele>490.4</ele>
        <time>2022-03-21T17:02:25Z</time>
      </trkpt>
      <trkpt lat="46.58946" lon="5.7118">
        <ele>490.4</ele>
        <time>2022-03-21T17:02:26Z</time>
      </trkpt>
      <trkpt lat="46.58946" lon="5.71189">
        <ele>490.4</ele>
        <time>2022-03-21T17:02:27Z</time>
      </trkpt>
      <trkpt lat="46.58946" lon="5.71199">
        <ele>490.4</ele>
        <time>2022-03-21T17:02:28Z</time>
      </trkpt>
      <trkpt lat="46.58946" lon="5.71208">
        <ele>490.4</ele>
        <time>2022-03-21T17:02:29Z</time>
      </trkpt>
      <trkpt lat="46.58946" lon="5.71217">
        <ele>490.6</ele>
        <time>2022-03-21T17:02:30Z</time>
      </trkpt>
      <trkpt lat="46.58946" lon="5.71227">
        <ele>490.6</ele>
        <time>2022-03-21T17:02:31Z</time>
      </trkpt>
      <trkpt lat="46.58946" lon="5.71237">
        <ele>490.6</ele>
        <time>2022-03-21T17:02:32Z</time>
      </trkpt>
      <trkpt lat="46.58946" lon="5.71246">
        <ele>490.6</ele>
        <time>2022-03-21T17:02:33Z</time>
      </trkpt>
      <trkpt lat="46.58946" lon="5.71256">
        <ele>490.6</ele>
        <time>2022-03-21T17:02:34Z</time>
      </trkpt>
      <trkpt lat="46.58946" lon="5.71266">
        <ele>490.6</ele>
        <time>2022-03-21T17:02:35Z</time>
      </trkpt>
      <trkpt lat="46.58946" lon="5.71276">
        <ele>490.6</ele>
        <time>2022-03-21T17:02:36Z</time>
      </trkpt>
      <trkpt lat="46.58946" lon="5.71286">
        <ele>490.6</ele>
        <time>2022-03-21T17:02:37Z</time>
      </trkpt>
      <trkpt lat="46.58946" lon="5.71296">
        <ele>490.6</ele>
        <time>2022-03-21T17:02:38Z</time>
      </trkpt>
      <trkpt lat="46.58946" lon="5.71306">
        <ele>490.6</ele>
        <time>2022-03-21T17:02:39Z</time>
      </trkpt>
      <trkpt lat="46.58946" lon="5.71316">
        <ele>490.6</ele>
        <time>2022-03-21T17:02:40Z</time>
      </trkpt>
      <trkpt lat="46.58946" lon="5.71326">
        <ele>491</ele>
        <time>2022-03-21T17:02:41Z</time>
      </trkpt>
      <trkpt lat="46.58946" lon="5.71336">
        <ele>491</ele>
        <time>2022-03-21T17:02:42Z</time>
      </trkpt>
      <trkpt lat="46.58946" lon="5.71346">
        <ele>491.2</ele>
        <time>2022-03-21T17:02:43Z</time>
      </trkpt>
      <trkpt lat="46.58946" lon="5.71356">
        <ele>491.2</ele>
        <time>2022-03-21T17:02:44Z</time>
      </trkpt>
      <trkpt lat="46.58946" lon="5.71366">
        <ele>491.2</ele>
        <time>2022-03-21T17:02:45Z</time>
      </trkpt>
      <trkpt lat="46.58946" lon="5.71375">
        <ele>491.2</ele>
        <time>2022-03-21T17:02:46Z</time>
      </trkpt>
      <trkpt lat="46.58946" lon="5.71385">
        <ele>491.2</ele>
        <time>2022-03-21T17:02:47Z</time>
      </trkpt>
      <trkpt lat="46.58946" lon="5.71395">
        <ele>491.2</ele>
        <time>2022-03-21T17:02:48Z</time>
      </trkpt>
      <trkpt lat="46.58946" lon="5.71405">
        <ele>491.2</ele>
        <time>2022-03-21T17:02:49Z</time>
      </trkpt>
      <trkpt lat="46.58946" lon="5.71415">
        <ele>491.2</ele>
        <time>2022-03-21T17:02:50Z</time>
      </trkpt>
      <trkpt lat="46.58946" lon="5.71425">
        <ele>491.4</ele>
        <time>2022-03-21T17:02:51Z</time>
      </trkpt>
      <trkpt lat="46.58946" lon="5.71435">
        <ele>491.4</ele>
        <time>2022-03-21T17:02:52Z</time>
      </trkpt>
      <trkpt lat="46.58946" lon="5.71445">
        <ele>491.8</ele>
        <time>2022-03-21T17:02:53Z</time>
      </trkpt>
      <trkpt lat="46.58946" lon="5.71455">
        <ele>491.8</ele>
        <time>2022-03-21T17:02:54Z</time>
      </trkpt>
      <trkpt lat="46.58946" lon="5.71465">
        <ele>491.8</ele>
        <time>2022-03-21T17:02:55Z</time>
      </trkpt>
      <trkpt lat="46.58946" lon="5.71475">
        <ele>491.8</ele>
        <time>2022-03-21T17:02:56Z</time>
      </trkpt>
      <trkpt lat="46.58946" lon="5.71485">
        <ele>492</ele>
        <time>2022-03-21T17:02:57Z</time>
      </trkpt>
      <trkpt lat="46.58946" lon="5.71495">
        <ele>492</ele>
        <time>2022-03-21T17:02:58Z</time>
      </trkpt>
      <trkpt lat="46.58946" lon="5.71505">
        <ele>492</ele>
        <time>2022-03-21T17:02:59Z</time>
      </trkpt>
      <trkpt lat="46.58946" lon="5.71515">
        <ele>492</ele>
        <time>2022-03-21T17:03:00Z</time>
      </trkpt>
      <trkpt lat="46.58946" lon="5.71525">
        <ele>492</ele>
        <time>2022-03-21T17:03:01Z</time>
      </trkpt>
      <trkpt lat="46.58946" lon="5.71535">
        <ele>492</ele>
        <time>2022-03-21T17:03:02Z</time>
      </trkpt>
      <trkpt lat="46.58946" lon="5.71545">
        <ele>492.2</ele>
        <time>2022-03-21T17:03:03Z</time>
      </trkpt>
      <trkpt lat="46.58946" lon="5.71555">
        <ele>492.2</ele>
        <time>2022-03-21T17:03:04Z</time>
      </trkpt>
      <trkpt lat="46.58946" lon="5.71565">
        <ele>492.2</ele>
        <time>2022-03-21T17:03:05Z</time>
      </trkpt>
      <trkpt lat="46.58946" lon="5.71575">
        <ele>492.4</ele>
        <time>2022-03-21T17:03:06Z</time>
      </trkpt>
      <trkpt lat="46.58946" lon="5.71585">
        <ele>492.4</ele>
        <time>2022-03-21T17:03:07Z</time>
      </trkpt>
      <trkpt lat="46.58946" lon="5.71595">
        <ele>492.6</ele>
        <time>2022-03-21T17:03:08Z</time>
      </trkpt>
      <trkpt lat="46.58946" lon="5.71605">
        <ele>492.6</ele>
        <time>2022-03-21T17:03:09Z</time>
      </trkpt>
      <trkpt lat="46.58946" lon="5.71615">
        <ele>492.6</ele>
        <time>2022-03-21T17:03:10Z</time>
      </trkpt>
      <trkpt lat="46.58946" lon="5.71625">
        <ele>492.6</ele>
        <time>2022-03-21T17:03:11Z</time>
      </trkpt>
      <trkpt lat="46.58946" lon="5.71635">
        <ele>492.6</ele>
        <time>2022-03-21T17:03:12Z</time>
      </trkpt>
      <trkpt lat="46.58946" lon="5.71644">
        <ele>492.6</ele>
        <time>2022-03-21T17:03:13Z</time>
      </trkpt>
      <trkpt lat="46.58946" lon="5.71654">
        <ele>492.6</ele>
        <time>2022-03-21T17:03:14Z</time>
      </trkpt>
      <trkpt lat="46.58946" lon="5.71664">
        <ele>492.6</ele>
        <time>2022-03-21T17:03:15Z</time>
      </trkpt>
      <trkpt lat="46.58946" lon="5.71674">
        <ele>492.8</ele>
        <time>2022-03-21T17:03:16Z</time>
      </trkpt>
      <trkpt lat="46.58945" lon="5.71684">
        <ele>492.8</ele>
        <time>2022-03-21T17:03:17Z</time>
      </trkpt>
      <trkpt lat="46.58945" lon="5.71693">
        <ele>492.8</ele>
        <time>2022-03-21T17:03:18Z</time>
      </trkpt>
      <trkpt lat="46.58945" lon="5.71703">
        <ele>493</ele>
        <time>2022-03-21T17:03:19Z</time>
      </trkpt>
      <trkpt lat="46.58945" lon="5.71713">
        <ele>493</ele>
        <time>2022-03-21T17:03:20Z</time>
      </trkpt>
      <trkpt lat="46.58945" lon="5.71723">
        <ele>493</ele>
        <time>2022-03-21T17:03:21Z</time>
      </trkpt>
      <trkpt lat="46.58945" lon="5.71733">
        <ele>493.2</ele>
        <time>2022-03-21T17:03:22Z</time>
      </trkpt>
      <trkpt lat="46.58945" lon="5.71743">
        <ele>493.2</ele>
        <time>2022-03-21T17:03:23Z</time>
      </trkpt>
      <trkpt lat="46.58945" lon="5.71752">
        <ele>493.2</ele>
        <time>2022-03-21T17:03:24Z</time>
      </trkpt>
      <trkpt lat="46.58944" lon="5.71762">
        <ele>493.6</ele>
        <time>2022-03-21T17:03:25Z</time>
      </trkpt>
      <trkpt lat="46.58944" lon="5.71771">
        <ele>493.6</ele>
        <time>2022-03-21T17:03:26Z</time>
      </trkpt>
      <trkpt lat="46.58944" lon="5.71781">
        <ele>493.8</ele>
        <time>2022-03-21T17:03:27Z</time>
      </trkpt>
      <trkpt lat="46.58944" lon="5.71791">
        <ele>493.8</ele>
        <time>2022-03-21T17:03:28Z</time>
      </trkpt>
      <trkpt lat="46.58944" lon="5.718">
        <ele>493.8</ele>
        <time>2022-03-21T17:03:29Z</time>
      </trkpt>
      <trkpt lat="46.58943" lon="5.7181">
        <ele>494</ele>
        <time>2022-03-21T17:03:30Z</time>
      </trkpt>
      <trkpt lat="46.58943" lon="5.7182">
        <ele>494</ele>
        <time>2022-03-21T17:03:31Z</time>
      </trkpt>
      <trkpt lat="46.58943" lon="5.7183">
        <ele>494</ele>
        <time>2022-03-21T17:03:32Z</time>
      </trkpt>
      <trkpt lat="46.58943" lon="5.7184">
        <ele>494</ele>
        <time>2022-03-21T17:03:33Z</time>
      </trkpt>
      <trkpt lat="46.58943" lon="5.7185">
        <ele>494.2</ele>
        <time>2022-03-21T17:03:34Z</time>
      </trkpt>
      <trkpt lat="46.58943" lon="5.7186">
        <ele>494.2</ele>
        <time>2022-03-21T17:03:35Z</time>
      </trkpt>
      <trkpt lat="46.58943" lon="5.7187">
        <ele>494.2</ele>
        <time>2022-03-21T17:03:36Z</time>
      </trkpt>
      <trkpt lat="46.58943" lon="5.7188">
        <ele>494.2</ele>
        <time>2022-03-21T17:03:37Z</time>
      </trkpt>
      <trkpt lat="46.58943" lon="5.71889">
        <ele>494.2</ele>
        <time>2022-03-21T17:03:38Z</time>
      </trkpt>
      <trkpt lat="46.58943" lon="5.71899">
        <ele>494.2</ele>
        <time>2022-03-21T17:03:39Z</time>
      </trkpt>
      <trkpt lat="46.58943" lon="5.71909">
        <ele>494.2</ele>
        <time>2022-03-21T17:03:40Z</time>
      </trkpt>
      <trkpt lat="46.58943" lon="5.71919">
        <ele>494.2</ele>
        <time>2022-03-21T17:03:41Z</time>
      </trkpt>
      <trkpt lat="46.58943" lon="5.71929">
        <ele>494.2</ele>
        <time>2022-03-21T17:03:42Z</time>
      </trkpt>
      <trkpt lat="46.58943" lon="5.71939">
        <ele>494.2</ele>
        <time>2022-03-21T17:03:43Z</time>
      </trkpt>
      <trkpt lat="46.58943" lon="5.71949">
        <ele>494.2</ele>
        <time>2022-03-21T17:03:44Z</time>
      </trkpt>
      <trkpt lat="46.58943" lon="5.71959">
        <ele>494.2</ele>
        <time>2022-03-21T17:03:45Z</time>
      </trkpt>
      <trkpt lat="46.58943" lon="5.71969">
        <ele>494.2</ele>
        <time>2022-03-21T17:03:46Z</time>
      </trkpt>
      <trkpt lat="46.58943" lon="5.71979">
        <ele>494.2</ele>
        <time>2022-03-21T17:03:47Z</time>
      </trkpt>
      <trkpt lat="46.58943" lon="5.71989">
        <ele>494.4</ele>
        <time>2022-03-21T17:03:48Z</time>
      </trkpt>
      <trkpt lat="46.58943" lon="5.71999">
        <ele>494.4</ele>
        <time>2022-03-21T17:03:49Z</time>
      </trkpt>
      <trkpt lat="46.58943" lon="5.72009">
        <ele>494.4</ele>
        <time>2022-03-21T17:03:50Z</time>
      </trkpt>
      <trkpt lat="46.58943" lon="5.72019">
        <ele>494.4</ele>
        <time>2022-03-21T17:03:51Z</time>
      </trkpt>
      <trkpt lat="46.58943" lon="5.72029">
        <ele>494.4</ele>
        <time>2022-03-21T17:03:52Z</time>
      </trkpt>
      <trkpt lat="46.58943" lon="5.72038">
        <ele>494.4</ele>
        <time>2022-03-21T17:03:53Z</time>
      </trkpt>
      <trkpt lat="46.58943" lon="5.72048">
        <ele>494.4</ele>
        <time>2022-03-21T17:03:54Z</time>
      </trkpt>
      <trkpt lat="46.58943" lon="5.72058">
        <ele>494.4</ele>
        <time>2022-03-21T17:03:55Z</time>
      </trkpt>
      <trkpt lat="46.58943" lon="5.72067">
        <ele>494.6</ele>
        <time>2022-03-21T17:03:56Z</time>
      </trkpt>
      <trkpt lat="46.58943" lon="5.72077">
        <ele>494.6</ele>
        <time>2022-03-21T17:03:57Z</time>
      </trkpt>
      <trkpt lat="46.58943" lon="5.72087">
        <ele>494.6</ele>
        <time>2022-03-21T17:03:58Z</time>
      </trkpt>
      <trkpt lat="46.58943" lon="5.72097">
        <ele>494.6</ele>
        <time>2022-03-21T17:03:59Z</time>
      </trkpt>
      <trkpt lat="46.58943" lon="5.72107">
        <ele>494.6</ele>
        <time>2022-03-21T17:04:00Z</time>
      </trkpt>
      <trkpt lat="46.58943" lon="5.72116">
        <ele>495</ele>
        <time>2022-03-21T17:04:01Z</time>
      </trkpt>
      <trkpt lat="46.58943" lon="5.72126">
        <ele>495</ele>
        <time>2022-03-21T17:04:02Z</time>
      </trkpt>
      <trkpt lat="46.58943" lon="5.72136">
        <ele>495</ele>
        <time>2022-03-21T17:04:03Z</time>
      </trkpt>
      <trkpt lat="46.58944" lon="5.72147">
        <ele>495</ele>
        <time>2022-03-21T17:04:04Z</time>
      </trkpt>
      <trkpt lat="46.58944" lon="5.72157">
        <ele>495.2</ele>
        <time>2022-03-21T17:04:05Z</time>
      </trkpt>
      <trkpt lat="46.58944" lon="5.72167">
        <ele>495.2</ele>
        <time>2022-03-21T17:04:06Z</time>
      </trkpt>
      <trkpt lat="46.58944" lon="5.72177">
        <ele>495.2</ele>
        <time>2022-03-21T17:04:07Z</time>
      </trkpt>
      <trkpt lat="46.58944" lon="5.72187">
        <ele>495.4</ele>
        <time>2022-03-21T17:04:08Z</time>
      </trkpt>
      <trkpt lat="46.58944" lon="5.72197">
        <ele>495.4</ele>
        <time>2022-03-21T17:04:09Z</time>
      </trkpt>
      <trkpt lat="46.58945" lon="5.72207">
        <ele>495.4</ele>
        <time>2022-03-21T17:04:10Z</time>
      </trkpt>
      <trkpt lat="46.58945" lon="5.72217">
        <ele>495.4</ele>
        <time>2022-03-21T17:04:11Z</time>
      </trkpt>
      <trkpt lat="46.58945" lon="5.72227">
        <ele>495.4</ele>
        <time>2022-03-21T17:04:12Z</time>
      </trkpt>
      <trkpt lat="46.58945" lon="5.72238">
        <ele>495.4</ele>
        <time>2022-03-21T17:04:13Z</time>
      </trkpt>
      <trkpt lat="46.58945" lon="5.72248">
        <ele>495.4</ele>
        <time>2022-03-21T17:04:14Z</time>
      </trkpt>
      <trkpt lat="46.58945" lon="5.72258">
        <ele>495.4</ele>
        <time>2022-03-21T17:04:15Z</time>
      </trkpt>
      <trkpt lat="46.58945" lon="5.72268">
        <ele>495.6</ele>
        <time>2022-03-21T17:04:16Z</time>
      </trkpt>
      <trkpt lat="46.58945" lon="5.72278">
        <ele>495.6</ele>
        <time>2022-03-21T17:04:17Z</time>
      </trkpt>
      <trkpt lat="46.58945" lon="5.72289">
        <ele>495.6</ele>
        <time>2022-03-21T17:04:18Z</time>
      </trkpt>
      <trkpt lat="46.58945" lon="5.72299">
        <ele>495.6</ele>
        <time>2022-03-21T17:04:19Z</time>
      </trkpt>
      <trkpt lat="46.58945" lon="5.72309">
        <ele>495.6</ele>
        <time>2022-03-21T17:04:20Z</time>
      </trkpt>
      <trkpt lat="46.58945" lon="5.72319">
        <ele>495.8</ele>
        <time>2022-03-21T17:04:21Z</time>
      </trkpt>
      <trkpt lat="46.58945" lon="5.72328">
        <ele>495.8</ele>
        <time>2022-03-21T17:04:22Z</time>
      </trkpt>
      <trkpt lat="46.58945" lon="5.72338">
        <ele>495.8</ele>
        <time>2022-03-21T17:04:23Z</time>
      </trkpt>
      <trkpt lat="46.58945" lon="5.72348">
        <ele>495.8</ele>
        <time>2022-03-21T17:04:24Z</time>
      </trkpt>
      <trkpt lat="46.58945" lon="5.72357">
        <ele>495.8</ele>
        <time>2022-03-21T17:04:25Z</time>
      </trkpt>
      <trkpt lat="46.58945" lon="5.72367">
        <ele>496</ele>
        <time>2022-03-21T17:04:26Z</time>
      </trkpt>
      <trkpt lat="46.58945" lon="5.72376">
        <ele>496</ele>
        <time>2022-03-21T17:04:27Z</time>
      </trkpt>
      <trkpt lat="46.58945" lon="5.72386">
        <ele>496</ele>
        <time>2022-03-21T17:04:28Z</time>
      </trkpt>
      <trkpt lat="46.58945" lon="5.72395">
        <ele>496</ele>
        <time>2022-03-21T17:04:29Z</time>
      </trkpt>
      <trkpt lat="46.58945" lon="5.72404">
        <ele>496</ele>
        <time>2022-03-21T17:04:30Z</time>
      </trkpt>
      <trkpt lat="46.58945" lon="5.72413">
        <ele>496.2</ele>
        <time>2022-03-21T17:04:31Z</time>
      </trkpt>
      <trkpt lat="46.58945" lon="5.72423">
        <ele>496.2</ele>
        <time>2022-03-21T17:04:32Z</time>
      </trkpt>
      <trkpt lat="46.58944" lon="5.72432">
        <ele>496.2</ele>
        <time>2022-03-21T17:04:33Z</time>
      </trkpt>
      <trkpt lat="46.58944" lon="5.72441">
        <ele>496.2</ele>
        <time>2022-03-21T17:04:34Z</time>
      </trkpt>
      <trkpt lat="46.58944" lon="5.7245">
        <ele>496.2</ele>
        <time>2022-03-21T17:04:35Z</time>
      </trkpt>
      <trkpt lat="46.58944" lon="5.72459">
        <ele>496.2</ele>
        <time>2022-03-21T17:04:36Z</time>
      </trkpt>
      <trkpt lat="46.58944" lon="5.72468">
        <ele>496.2</ele>
        <time>2022-03-21T17:04:37Z</time>
      </trkpt>
      <trkpt lat="46.58944" lon="5.72477">
        <ele>496.4</ele>
        <time>2022-03-21T17:04:38Z</time>
      </trkpt>
      <trkpt lat="46.58944" lon="5.72486">
        <ele>496.4</ele>
        <time>2022-03-21T17:04:39Z</time>
      </trkpt>
      <trkpt lat="46.58944" lon="5.72495">
        <ele>496.4</ele>
        <time>2022-03-21T17:04:40Z</time>
      </trkpt>
      <trkpt lat="46.58944" lon="5.72504">
        <ele>496.4</ele>
        <time>2022-03-21T17:04:41Z</time>
      </trkpt>
      <trkpt lat="46.58944" lon="5.72513">
        <ele>496.6</ele>
        <time>2022-03-21T17:04:42Z</time>
      </trkpt>
      <trkpt lat="46.58944" lon="5.72522">
        <ele>496.6</ele>
        <time>2022-03-21T17:04:43Z</time>
      </trkpt>
      <trkpt lat="46.58944" lon="5.72531">
        <ele>496.8</ele>
        <time>2022-03-21T17:04:44Z</time>
      </trkpt>
      <trkpt lat="46.58944" lon="5.72539">
        <ele>496.8</ele>
        <time>2022-03-21T17:04:45Z</time>
      </trkpt>
      <trkpt lat="46.58944" lon="5.72548">
        <ele>496.8</ele>
        <time>2022-03-21T17:04:46Z</time>
      </trkpt>
      <trkpt lat="46.58944" lon="5.72557">
        <ele>496.8</ele>
        <time>2022-03-21T17:04:47Z</time>
      </trkpt>
      <trkpt lat="46.58944" lon="5.72566">
        <ele>496.8</ele>
        <time>2022-03-21T17:04:48Z</time>
      </trkpt>
      <trkpt lat="46.58944" lon="5.72575">
        <ele>496.8</ele>
        <time>2022-03-21T17:04:49Z</time>
      </trkpt>
      <trkpt lat="46.58944" lon="5.72584">
        <ele>496.8</ele>
        <time>2022-03-21T17:04:50Z</time>
      </trkpt>
      <trkpt lat="46.58944" lon="5.72593">
        <ele>496.8</ele>
        <time>2022-03-21T17:04:51Z</time>
      </trkpt>
      <trkpt lat="46.58944" lon="5.72602">
        <ele>497</ele>
        <time>2022-03-21T17:04:52Z</time>
      </trkpt>
      <trkpt lat="46.58944" lon="5.7261">
        <ele>497.4</ele>
        <time>2022-03-21T17:04:53Z</time>
      </trkpt>
      <trkpt lat="46.58944" lon="5.72619">
        <ele>497.4</ele>
        <time>2022-03-21T17:04:54Z</time>
      </trkpt>
      <trkpt lat="46.58944" lon="5.72628">
        <ele>497.4</ele>
        <time>2022-03-21T17:04:55Z</time>
      </trkpt>
      <trkpt lat="46.58944" lon="5.72636">
        <ele>497.6</ele>
        <time>2022-03-21T17:04:56Z</time>
      </trkpt>
      <trkpt lat="46.58944" lon="5.72645">
        <ele>497.6</ele>
        <time>2022-03-21T17:04:57Z</time>
      </trkpt>
      <trkpt lat="46.58944" lon="5.72653">
        <ele>497.6</ele>
        <time>2022-03-21T17:04:58Z</time>
      </trkpt>
      <trkpt lat="46.58944" lon="5.72662">
        <ele>497.8</ele>
        <time>2022-03-21T17:04:59Z</time>
      </trkpt>
      <trkpt lat="46.58944" lon="5.7267">
        <ele>497.8</ele>
        <time>2022-03-21T17:05:00Z</time>
      </trkpt>
      <trkpt lat="46.58944" lon="5.72678">
        <ele>497.8</ele>
        <time>2022-03-21T17:05:01Z</time>
      </trkpt>
      <trkpt lat="46.58944" lon="5.72687">
        <ele>497.8</ele>
        <time>2022-03-21T17:05:02Z</time>
      </trkpt>
      <trkpt lat="46.58944" lon="5.72695">
        <ele>497.8</ele>
        <time>2022-03-21T17:05:03Z</time>
      </trkpt>
      <trkpt lat="46.58944" lon="5.72703">
        <ele>498</ele>
        <time>2022-03-21T17:05:04Z</time>
      </trkpt>
      <trkpt lat="46.58944" lon="5.72712">
        <ele>498</ele>
        <time>2022-03-21T17:05:05Z</time>
      </trkpt>
      <trkpt lat="46.58944" lon="5.7272">
        <ele>498</ele>
        <time>2022-03-21T17:05:06Z</time>
      </trkpt>
      <trkpt lat="46.58944" lon="5.72728">
        <ele>498</ele>
        <time>2022-03-21T17:05:07Z</time>
      </trkpt>
      <trkpt lat="46.58944" lon="5.72736">
        <ele>498.4</ele>
        <time>2022-03-21T17:05:08Z</time>
      </trkpt>
      <trkpt lat="46.58944" lon="5.72744">
        <ele>498.4</ele>
        <time>2022-03-21T17:05:09Z</time>
      </trkpt>
      <trkpt lat="46.58944" lon="5.72752">
        <ele>498.6</ele>
        <time>2022-03-21T17:05:10Z</time>
      </trkpt>
      <trkpt lat="46.58944" lon="5.7276">
        <ele>498.6</ele>
        <time>2022-03-21T17:05:11Z</time>
      </trkpt>
      <trkpt lat="46.58944" lon="5.72768">
        <ele>498.6</ele>
        <time>2022-03-21T17:05:12Z</time>
      </trkpt>
      <trkpt lat="46.58944" lon="5.72776">
        <ele>498.8</ele>
        <time>2022-03-21T17:05:13Z</time>
      </trkpt>
      <trkpt lat="46.58944" lon="5.72785">
        <ele>498.8</ele>
        <time>2022-03-21T17:05:14Z</time>
      </trkpt>
      <trkpt lat="46.58944" lon="5.72793">
        <ele>498.8</ele>
        <time>2022-03-21T17:05:15Z</time>
      </trkpt>
      <trkpt lat="46.58944" lon="5.72801">
        <ele>498.8</ele>
        <time>2022-03-21T17:05:16Z</time>
      </trkpt>
      <trkpt lat="46.58944" lon="5.72809">
        <ele>498.8</ele>
        <time>2022-03-21T17:05:17Z</time>
      </trkpt>
      <trkpt lat="46.58944" lon="5.72817">
        <ele>499</ele>
        <time>2022-03-21T17:05:18Z</time>
      </trkpt>
      <trkpt lat="46.58944" lon="5.72825">
        <ele>499</ele>
        <time>2022-03-21T17:05:19Z</time>
      </trkpt>
      <trkpt lat="46.58944" lon="5.72833">
        <ele>499</ele>
        <time>2022-03-21T17:05:20Z</time>
      </trkpt>
      <trkpt lat="46.58944" lon="5.72841">
        <ele>499</ele>
        <time>2022-03-21T17:05:21Z</time>
      </trkpt>
      <trkpt lat="46.58944" lon="5.72849">
        <ele>499.2</ele>
        <time>2022-03-21T17:05:22Z</time>
      </trkpt>
      <trkpt lat="46.58944" lon="5.72857">
        <ele>499.2</ele>
        <time>2022-03-21T17:05:23Z</time>
      </trkpt>
      <trkpt lat="46.58944" lon="5.72865">
        <ele>499.2</ele>
        <time>2022-03-21T17:05:24Z</time>
      </trkpt>
      <trkpt lat="46.58944" lon="5.72873">
        <ele>499.6</ele>
        <time>2022-03-21T17:05:25Z</time>
      </trkpt>
      <trkpt lat="46.58944" lon="5.72881">
        <ele>499.6</ele>
        <time>2022-03-21T17:05:26Z</time>
      </trkpt>
      <trkpt lat="46.58944" lon="5.72889">
        <ele>499.6</ele>
        <time>2022-03-21T17:05:27Z</time>
      </trkpt>
      <trkpt lat="46.58944" lon="5.72897">
        <ele>499.8</ele>
        <time>2022-03-21T17:05:28Z</time>
      </trkpt>
      <trkpt lat="46.58943" lon="5.72905">
        <ele>499.8</ele>
        <time>2022-03-21T17:05:29Z</time>
      </trkpt>
      <trkpt lat="46.58943" lon="5.72913">
        <ele>499.8</ele>
        <time>2022-03-21T17:05:30Z</time>
      </trkpt>
      <trkpt lat="46.58943" lon="5.72921">
        <ele>499.8</ele>
        <time>2022-03-21T17:05:31Z</time>
      </trkpt>
      <trkpt lat="46.58943" lon="5.72929">
        <ele>499.8</ele>
        <time>2022-03-21T17:05:32Z</time>
      </trkpt>
      <trkpt lat="46.58943" lon="5.72937">
        <ele>500</ele>
        <time>2022-03-21T17:05:33Z</time>
      </trkpt>
      <trkpt lat="46.58943" lon="5.72945">
        <ele>500</ele>
        <time>2022-03-21T17:05:34Z</time>
      </trkpt>
      <trkpt lat="46.58943" lon="5.72953">
        <ele>500</ele>
        <time>2022-03-21T17:05:35Z</time>
      </trkpt>
      <trkpt lat="46.58943" lon="5.72961">
        <ele>500</ele>
        <time>2022-03-21T17:05:36Z</time>
      </trkpt>
      <trkpt lat="46.58943" lon="5.72969">
        <ele>500.2</ele>
        <time>2022-03-21T17:05:37Z</time>
      </trkpt>
      <trkpt lat="46.58943" lon="5.72977">
        <ele>500.2</ele>
        <time>2022-03-21T17:05:38Z</time>
      </trkpt>
      <trkpt lat="46.58943" lon="5.72984">
        <ele>500.2</ele>
        <time>2022-03-21T17:05:39Z</time>
      </trkpt>
      <trkpt lat="46.58943" lon="5.72992">
        <ele>500.4</ele>
        <time>2022-03-21T17:05:40Z</time>
      </trkpt>
      <trkpt lat="46.58943" lon="5.73">
        <ele>500.4</ele>
        <time>2022-03-21T17:05:41Z</time>
      </trkpt>
      <trkpt lat="46.58943" lon="5.73007">
        <ele>500.6</ele>
        <time>2022-03-21T17:05:42Z</time>
      </trkpt>
      <trkpt lat="46.58942" lon="5.73014">
        <ele>500.6</ele>
        <time>2022-03-21T17:05:43Z</time>
      </trkpt>
      <trkpt lat="46.58942" lon="5.73022">
        <ele>501</ele>
        <time>2022-03-21T17:05:44Z</time>
      </trkpt>
      <trkpt lat="46.58942" lon="5.73028">
        <ele>501</ele>
        <time>2022-03-21T17:05:45Z</time>
      </trkpt>
      <trkpt lat="46.58942" lon="5.73035">
        <ele>501.2</ele>
        <time>2022-03-21T17:05:46Z</time>
      </trkpt>
      <trkpt lat="46.58942" lon="5.73042">
        <ele>501.2</ele>
        <time>2022-03-21T17:05:47Z</time>
      </trkpt>
      <trkpt lat="46.58942" lon="5.73049">
        <ele>501.6</ele>
        <time>2022-03-21T17:05:48Z</time>
      </trkpt>
      <trkpt lat="46.58942" lon="5.73055">
        <ele>501.8</ele>
        <time>2022-03-21T17:05:49Z</time>
      </trkpt>
      <trkpt lat="46.58942" lon="5.73061">
        <ele>501.8</ele>
        <time>2022-03-21T17:05:50Z</time>
      </trkpt>
      <trkpt lat="46.58942" lon="5.73067">
        <ele>502</ele>
        <time>2022-03-21T17:05:51Z</time>
      </trkpt>
      <trkpt lat="46.58942" lon="5.73073">
        <ele>502</ele>
        <time>2022-03-21T17:05:52Z</time>
      </trkpt>
      <trkpt lat="46.58942" lon="5.73079">
        <ele>502.4</ele>
        <time>2022-03-21T17:05:53Z</time>
      </trkpt>
      <trkpt lat="46.58942" lon="5.73084">
        <ele>502.4</ele>
        <time>2022-03-21T17:05:54Z</time>
      </trkpt>
      <trkpt lat="46.58942" lon="5.73089">
        <ele>502.6</ele>
        <time>2022-03-21T17:05:55Z</time>
      </trkpt>
      <trkpt lat="46.58941" lon="5.73095">
        <ele>502.6</ele>
        <time>2022-03-21T17:05:56Z</time>
      </trkpt>
      <trkpt lat="46.58941" lon="5.731">
        <ele>502.8</ele>
        <time>2022-03-21T17:05:57Z</time>
      </trkpt>
      <trkpt lat="46.58941" lon="5.73105">
        <ele>502.8</ele>
        <time>2022-03-21T17:05:58Z</time>
      </trkpt>
      <trkpt lat="46.58941" lon="5.7311">
        <ele>503.2</ele>
        <time>2022-03-21T17:05:59Z</time>
      </trkpt>
      <trkpt lat="46.58941" lon="5.73116">
        <ele>503.2</ele>
        <time>2022-03-21T17:06:00Z</time>
      </trkpt>
      <trkpt lat="46.58941" lon="5.73121">
        <ele>503.2</ele>
        <time>2022-03-21T17:06:01Z</time>
      </trkpt>
      <trkpt lat="46.5894" lon="5.73126">
        <ele>503.6</ele>
        <time>2022-03-21T17:06:03Z</time>
      </trkpt>
      <trkpt lat="46.5894" lon="5.73131">
        <ele>503.8</ele>
        <time>2022-03-21T17:06:04Z</time>
      </trkpt>
      <trkpt lat="46.5894" lon="5.73136">
        <ele>503.8</ele>
        <time>2022-03-21T17:06:05Z</time>
      </trkpt>
      <trkpt lat="46.58939" lon="5.73141">
        <ele>504.2</ele>
        <time>2022-03-21T17:06:06Z</time>
      </trkpt>
      <trkpt lat="46.58939" lon="5.73145">
        <ele>504.2</ele>
        <time>2022-03-21T17:06:07Z</time>
      </trkpt>
      <trkpt lat="46.58938" lon="5.7315">
        <ele>504.4</ele>
        <time>2022-03-21T17:06:08Z</time>
      </trkpt>
      <trkpt lat="46.58937" lon="5.73155">
        <ele>504.4</ele>
        <time>2022-03-21T17:06:09Z</time>
      </trkpt>
      <trkpt lat="46.58937" lon="5.7316">
        <ele>504.6</ele>
        <time>2022-03-21T17:06:10Z</time>
      </trkpt>
      <trkpt lat="46.58936" lon="5.73165">
        <ele>504.6</ele>
        <time>2022-03-21T17:06:11Z</time>
      </trkpt>
      <trkpt lat="46.58935" lon="5.73174">
        <ele>505</ele>
        <time>2022-03-21T17:06:12Z</time>
      </trkpt>
      <trkpt lat="46.58934" lon="5.73178">
        <ele>505</ele>
        <time>2022-03-21T17:06:13Z</time>
      </trkpt>
      <trkpt lat="46.58933" lon="5.73183">
        <ele>505.6</ele>
        <time>2022-03-21T17:06:14Z</time>
      </trkpt>
      <trkpt lat="46.58932" lon="5.73187">
        <ele>505.6</ele>
        <time>2022-03-21T17:06:15Z</time>
      </trkpt>
      <trkpt lat="46.58931" lon="5.73192">
        <ele>505.8</ele>
        <time>2022-03-21T17:06:16Z</time>
      </trkpt>
      <trkpt lat="46.5893" lon="5.73196">
        <ele>505.8</ele>
        <time>2022-03-21T17:06:17Z</time>
      </trkpt>
      <trkpt lat="46.58928" lon="5.732">
        <ele>506</ele>
        <time>2022-03-21T17:06:18Z</time>
      </trkpt>
      <trkpt lat="46.58927" lon="5.73204">
        <ele>506</ele>
        <time>2022-03-21T17:06:19Z</time>
      </trkpt>
      <trkpt lat="46.58926" lon="5.73208">
        <ele>506.4</ele>
        <time>2022-03-21T17:06:20Z</time>
      </trkpt>
      <trkpt lat="46.58925" lon="5.73212">
        <ele>506.4</ele>
        <time>2022-03-21T17:06:21Z</time>
      </trkpt>
      <trkpt lat="46.58923" lon="5.73216">
        <ele>506.8</ele>
        <time>2022-03-21T17:06:22Z</time>
      </trkpt>
      <trkpt lat="46.58922" lon="5.73221">
        <ele>506.8</ele>
        <time>2022-03-21T17:06:23Z</time>
      </trkpt>
      <trkpt lat="46.5892" lon="5.73224">
        <ele>507.2</ele>
        <time>2022-03-21T17:06:24Z</time>
      </trkpt>
      <trkpt lat="46.58919" lon="5.73228">
        <ele>507.4</ele>
        <time>2022-03-21T17:06:25Z</time>
      </trkpt>
      <trkpt lat="46.58917" lon="5.73232">
        <ele>507.4</ele>
        <time>2022-03-21T17:06:26Z</time>
      </trkpt>
      <trkpt lat="46.58916" lon="5.73236">
        <ele>507.6</ele>
        <time>2022-03-21T17:06:27Z</time>
      </trkpt>
      <trkpt lat="46.58914" lon="5.7324">
        <ele>507.6</ele>
        <time>2022-03-21T17:06:28Z</time>
      </trkpt>
      <trkpt lat="46.58913" lon="5.73243">
        <ele>508</ele>
        <time>2022-03-21T17:06:29Z</time>
      </trkpt>
      <trkpt lat="46.58911" lon="5.73247">
        <ele>508</ele>
        <time>2022-03-21T17:06:30Z</time>
      </trkpt>
      <trkpt lat="46.5891" lon="5.73251">
        <ele>508.2</ele>
        <time>2022-03-21T17:06:31Z</time>
      </trkpt>
      <trkpt lat="46.58909" lon="5.73255">
        <ele>508.2</ele>
        <time>2022-03-21T17:06:32Z</time>
      </trkpt>
      <trkpt lat="46.58908" lon="5.73259">
        <ele>508.6</ele>
        <time>2022-03-21T17:06:33Z</time>
      </trkpt>
      <trkpt lat="46.58906" lon="5.73263">
        <ele>508.6</ele>
        <time>2022-03-21T17:06:34Z</time>
      </trkpt>
      <trkpt lat="46.58905" lon="5.73267">
        <ele>509</ele>
        <time>2022-03-21T17:06:35Z</time>
      </trkpt>
      <trkpt lat="46.58903" lon="5.7327">
        <ele>509</ele>
        <time>2022-03-21T17:06:36Z</time>
      </trkpt>
      <trkpt lat="46.58901" lon="5.73274">
        <ele>509.2</ele>
        <time>2022-03-21T17:06:37Z</time>
      </trkpt>
      <trkpt lat="46.589" lon="5.73278">
        <ele>509.2</ele>
        <time>2022-03-21T17:06:38Z</time>
      </trkpt>
      <trkpt lat="46.58898" lon="5.73282">
        <ele>509.6</ele>
        <time>2022-03-21T17:06:39Z</time>
      </trkpt>
      <trkpt lat="46.58897" lon="5.73286">
        <ele>509.6</ele>
        <time>2022-03-21T17:06:40Z</time>
      </trkpt>
      <trkpt lat="46.58896" lon="5.73289">
        <ele>509.8</ele>
        <time>2022-03-21T17:06:41Z</time>
      </trkpt>
      <trkpt lat="46.58894" lon="5.73293">
        <ele>509.8</ele>
        <time>2022-03-21T17:06:42Z</time>
      </trkpt>
      <trkpt lat="46.58893" lon="5.73297">
        <ele>510.2</ele>
        <time>2022-03-21T17:06:43Z</time>
      </trkpt>
      <trkpt lat="46.58891" lon="5.733">
        <ele>510.2</ele>
        <time>2022-03-21T17:06:44Z</time>
      </trkpt>
      <trkpt lat="46.5889" lon="5.73304">
        <ele>510.4</ele>
        <time>2022-03-21T17:06:45Z</time>
      </trkpt>
      <trkpt lat="46.58888" lon="5.73308">
        <ele>510.4</ele>
        <time>2022-03-21T17:06:46Z</time>
      </trkpt>
      <trkpt lat="46.58887" lon="5.73311">
        <ele>510.6</ele>
        <time>2022-03-21T17:06:47Z</time>
      </trkpt>
      <trkpt lat="46.58885" lon="5.73315">
        <ele>510.6</ele>
        <time>2022-03-21T17:06:48Z</time>
      </trkpt>
      <trkpt lat="46.58884" lon="5.73318">
        <ele>510.8</ele>
        <time>2022-03-21T17:06:49Z</time>
      </trkpt>
      <trkpt lat="46.58883" lon="5.73322">
        <ele>510.8</ele>
        <time>2022-03-21T17:06:50Z</time>
      </trkpt>
      <trkpt lat="46.58881" lon="5.73325">
        <ele>511.2</ele>
        <time>2022-03-21T17:06:51Z</time>
      </trkpt>
      <trkpt lat="46.5888" lon="5.73329">
        <ele>511.4</ele>
        <time>2022-03-21T17:06:52Z</time>
      </trkpt>
      <trkpt lat="46.58878" lon="5.73332">
        <ele>511.4</ele>
        <time>2022-03-21T17:06:53Z</time>
      </trkpt>
      <trkpt lat="46.58877" lon="5.73336">
        <ele>511.8</ele>
        <time>2022-03-21T17:06:54Z</time>
      </trkpt>
      <trkpt lat="46.58876" lon="5.73339">
        <ele>511.8</ele>
        <time>2022-03-21T17:06:55Z</time>
      </trkpt>
      <trkpt lat="46.58874" lon="5.73343">
        <ele>512</ele>
        <time>2022-03-21T17:06:56Z</time>
      </trkpt>
      <trkpt lat="46.58873" lon="5.73347">
        <ele>512</ele>
        <time>2022-03-21T17:06:57Z</time>
      </trkpt>
      <trkpt lat="46.58871" lon="5.73351">
        <ele>512.4</ele>
        <time>2022-03-21T17:06:58Z</time>
      </trkpt>
      <trkpt lat="46.5887" lon="5.73355">
        <ele>512.4</ele>
        <time>2022-03-21T17:06:59Z</time>
      </trkpt>
      <trkpt lat="46.58868" lon="5.73358">
        <ele>512.6</ele>
        <time>2022-03-21T17:07:00Z</time>
      </trkpt>
      <trkpt lat="46.58867" lon="5.73362">
        <ele>512.6</ele>
        <time>2022-03-21T17:07:01Z</time>
      </trkpt>
      <trkpt lat="46.58865" lon="5.73366">
        <ele>513</ele>
        <time>2022-03-21T17:07:02Z</time>
      </trkpt>
      <trkpt lat="46.58864" lon="5.7337">
        <ele>513</ele>
        <time>2022-03-21T17:07:03Z</time>
      </trkpt>
      <trkpt lat="46.58862" lon="5.73374">
        <ele>513.4</ele>
        <time>2022-03-21T17:07:04Z</time>
      </trkpt>
      <trkpt lat="46.58861" lon="5.73377">
        <ele>513.4</ele>
        <time>2022-03-21T17:07:05Z</time>
      </trkpt>
      <trkpt lat="46.5886" lon="5.73381">
        <ele>513.8</ele>
        <time>2022-03-21T17:07:06Z</time>
      </trkpt>
      <trkpt lat="46.58858" lon="5.73385">
        <ele>514</ele>
        <time>2022-03-21T17:07:07Z</time>
      </trkpt>
      <trkpt lat="46.58857" lon="5.73389">
        <ele>514</ele>
        <time>2022-03-21T17:07:08Z</time>
      </trkpt>
      <trkpt lat="46.58856" lon="5.73393">
        <ele>514.4</ele>
        <time>2022-03-21T17:07:09Z</time>
      </trkpt>
      <trkpt lat="46.58854" lon="5.73396">
        <ele>514.4</ele>
        <time>2022-03-21T17:07:10Z</time>
      </trkpt>
      <trkpt lat="46.58853" lon="5.734">
        <ele>514.8</ele>
        <time>2022-03-21T17:07:11Z</time>
      </trkpt>
      <trkpt lat="46.58852" lon="5.73403">
        <ele>514.8</ele>
        <time>2022-03-21T17:07:12Z</time>
      </trkpt>
      <trkpt lat="46.5885" lon="5.73407">
        <ele>515</ele>
        <time>2022-03-21T17:07:13Z</time>
      </trkpt>
      <trkpt lat="46.58849" lon="5.7341">
        <ele>515</ele>
        <time>2022-03-21T17:07:14Z</time>
      </trkpt>
      <trkpt lat="46.58848" lon="5.73414">
        <ele>515.4</ele>
        <time>2022-03-21T17:07:15Z</time>
      </trkpt>
      <trkpt lat="46.58847" lon="5.73418">
        <ele>515.4</ele>
        <time>2022-03-21T17:07:16Z</time>
      </trkpt>
      <trkpt lat="46.58845" lon="5.73421">
        <ele>515.6</ele>
        <time>2022-03-21T17:07:17Z</time>
      </trkpt>
      <trkpt lat="46.58844" lon="5.73425">
        <ele>515.6</ele>
        <time>2022-03-21T17:07:18Z</time>
      </trkpt>
      <trkpt lat="46.58843" lon="5.73429">
        <ele>516</ele>
        <time>2022-03-21T17:07:19Z</time>
      </trkpt>
      <trkpt lat="46.58842" lon="5.73432">
        <ele>516.2</ele>
        <time>2022-03-21T17:07:20Z</time>
      </trkpt>
      <trkpt lat="46.58841" lon="5.73436">
        <ele>516.2</ele>
        <time>2022-03-21T17:07:21Z</time>
      </trkpt>
      <trkpt lat="46.58839" lon="5.73439">
        <ele>516.6</ele>
        <time>2022-03-21T17:07:22Z</time>
      </trkpt>
      <trkpt lat="46.58838" lon="5.73443">
        <ele>516.6</ele>
        <time>2022-03-21T17:07:23Z</time>
      </trkpt>
      <trkpt lat="46.58837" lon="5.73447">
        <ele>516.8</ele>
        <time>2022-03-21T17:07:24Z</time>
      </trkpt>
      <trkpt lat="46.58836" lon="5.7345">
        <ele>516.8</ele>
        <time>2022-03-21T17:07:25Z</time>
      </trkpt>
      <trkpt lat="46.58835" lon="5.73454">
        <ele>517</ele>
        <time>2022-03-21T17:07:26Z</time>
      </trkpt>
      <trkpt lat="46.58834" lon="5.73457">
        <ele>517</ele>
        <time>2022-03-21T17:07:27Z</time>
      </trkpt>
      <trkpt lat="46.58833" lon="5.73461">
        <ele>517.4</ele>
        <time>2022-03-21T17:07:28Z</time>
      </trkpt>
      <trkpt lat="46.58831" lon="5.73464">
        <ele>517.6</ele>
        <time>2022-03-21T17:07:29Z</time>
      </trkpt>
      <trkpt lat="46.5883" lon="5.73468">
        <ele>517.6</ele>
        <time>2022-03-21T17:07:30Z</time>
      </trkpt>
      <trkpt lat="46.58829" lon="5.73471">
        <ele>517.6</ele>
        <time>2022-03-21T17:07:31Z</time>
      </trkpt>
      <trkpt lat="46.58828" lon="5.73475">
        <ele>517.8</ele>
        <time>2022-03-21T17:07:32Z</time>
      </trkpt>
      <trkpt lat="46.58827" lon="5.73478">
        <ele>517.8</ele>
        <time>2022-03-21T17:07:33Z</time>
      </trkpt>
      <trkpt lat="46.58826" lon="5.73482">
        <ele>518.2</ele>
        <time>2022-03-21T17:07:34Z</time>
      </trkpt>
      <trkpt lat="46.58824" lon="5.73486">
        <ele>518.2</ele>
        <time>2022-03-21T17:07:35Z</time>
      </trkpt>
      <trkpt lat="46.58823" lon="5.73489">
        <ele>518.6</ele>
        <time>2022-03-21T17:07:36Z</time>
      </trkpt>
      <trkpt lat="46.58822" lon="5.73493">
        <ele>518.6</ele>
        <time>2022-03-21T17:07:37Z</time>
      </trkpt>
      <trkpt lat="46.58821" lon="5.73497">
        <ele>518.8</ele>
        <time>2022-03-21T17:07:38Z</time>
      </trkpt>
      <trkpt lat="46.5882" lon="5.73501">
        <ele>518.8</ele>
        <time>2022-03-21T17:07:39Z</time>
      </trkpt>
      <trkpt lat="46.58819" lon="5.73505">
        <ele>519.2</ele>
        <time>2022-03-21T17:07:40Z</time>
      </trkpt>
      <trkpt lat="46.58818" lon="5.73508">
        <ele>519.4</ele>
        <time>2022-03-21T17:07:41Z</time>
      </trkpt>
      <trkpt lat="46.58817" lon="5.73512">
        <ele>519.6</ele>
        <time>2022-03-21T17:07:42Z</time>
      </trkpt>
      <trkpt lat="46.58816" lon="5.73516">
        <ele>519.8</ele>
        <time>2022-03-21T17:07:43Z</time>
      </trkpt>
      <trkpt lat="46.58815" lon="5.7352">
        <ele>519.8</ele>
        <time>2022-03-21T17:07:44Z</time>
      </trkpt>
      <trkpt lat="46.58814" lon="5.73524">
        <ele>520.2</ele>
        <time>2022-03-21T17:07:45Z</time>
      </trkpt>
      <trkpt lat="46.58813" lon="5.73528">
        <ele>520.2</ele>
        <time>2022-03-21T17:07:46Z</time>
      </trkpt>
      <trkpt lat="46.58812" lon="5.73532">
        <ele>520.6</ele>
        <time>2022-03-21T17:07:47Z</time>
      </trkpt>
      <trkpt lat="46.5881" lon="5.73536">
        <ele>520.6</ele>
        <time>2022-03-21T17:07:48Z</time>
      </trkpt>
      <trkpt lat="46.58809" lon="5.7354">
        <ele>520.8</ele>
        <time>2022-03-21T17:07:49Z</time>
      </trkpt>
      <trkpt lat="46.58808" lon="5.73544">
        <ele>521</ele>
        <time>2022-03-21T17:07:50Z</time>
      </trkpt>
      <trkpt lat="46.58807" lon="5.73548">
        <ele>521.4</ele>
        <time>2022-03-21T17:07:51Z</time>
      </trkpt>
      <trkpt lat="46.58806" lon="5.73552">
        <ele>521.6</ele>
        <time>2022-03-21T17:07:52Z</time>
      </trkpt>
      <trkpt lat="46.58805" lon="5.73557">
        <ele>521.6</ele>
        <time>2022-03-21T17:07:53Z</time>
      </trkpt>
      <trkpt lat="46.58804" lon="5.73561">
        <ele>522</ele>
        <time>2022-03-21T17:07:54Z</time>
      </trkpt>
      <trkpt lat="46.58802" lon="5.73565">
        <ele>522</ele>
        <time>2022-03-21T17:07:55Z</time>
      </trkpt>
      <trkpt lat="46.58801" lon="5.73569">
        <ele>522.2</ele>
        <time>2022-03-21T17:07:56Z</time>
      </trkpt>
      <trkpt lat="46.588" lon="5.73573">
        <ele>522.2</ele>
        <time>2022-03-21T17:07:57Z</time>
      </trkpt>
      <trkpt lat="46.58799" lon="5.73577">
        <ele>522.8</ele>
        <time>2022-03-21T17:07:58Z</time>
      </trkpt>
      <trkpt lat="46.58797" lon="5.73581">
        <ele>522.8</ele>
        <time>2022-03-21T17:07:59Z</time>
      </trkpt>
      <trkpt lat="46.58796" lon="5.73585">
        <ele>523.2</ele>
        <time>2022-03-21T17:08:00Z</time>
      </trkpt>
      <trkpt lat="46.58795" lon="5.73589">
        <ele>523.2</ele>
        <time>2022-03-21T17:08:01Z</time>
      </trkpt>
      <trkpt lat="46.58794" lon="5.73593">
        <ele>523.4</ele>
        <time>2022-03-21T17:08:02Z</time>
      </trkpt>
      <trkpt lat="46.58793" lon="5.73596">
        <ele>523.4</ele>
        <time>2022-03-21T17:08:03Z</time>
      </trkpt>
      <trkpt lat="46.58792" lon="5.736">
        <ele>523.8</ele>
        <time>2022-03-21T17:08:04Z</time>
      </trkpt>
      <trkpt lat="46.58791" lon="5.73604">
        <ele>524</ele>
        <time>2022-03-21T17:08:05Z</time>
      </trkpt>
      <trkpt lat="46.5879" lon="5.73608">
        <ele>524</ele>
        <time>2022-03-21T17:08:06Z</time>
      </trkpt>
      <trkpt lat="46.58789" lon="5.73612">
        <ele>524.4</ele>
        <time>2022-03-21T17:08:07Z</time>
      </trkpt>
      <trkpt lat="46.58788" lon="5.73616">
        <ele>524.4</ele>
        <time>2022-03-21T17:08:08Z</time>
      </trkpt>
      <trkpt lat="46.58787" lon="5.7362">
        <ele>524.8</ele>
        <time>2022-03-21T17:08:09Z</time>
      </trkpt>
      <trkpt lat="46.58786" lon="5.73624">
        <ele>524.8</ele>
        <time>2022-03-21T17:08:10Z</time>
      </trkpt>
      <trkpt lat="46.58784" lon="5.73628">
        <ele>525.2</ele>
        <time>2022-03-21T17:08:11Z</time>
      </trkpt>
      <trkpt lat="46.58783" lon="5.73632">
        <ele>525.6</ele>
        <time>2022-03-21T17:08:12Z</time>
      </trkpt>
      <trkpt lat="46.58782" lon="5.73636">
        <ele>525.8</ele>
        <time>2022-03-21T17:08:13Z</time>
      </trkpt>
      <trkpt lat="46.58781" lon="5.7364">
        <ele>525.8</ele>
        <time>2022-03-21T17:08:14Z</time>
      </trkpt>
      <trkpt lat="46.5878" lon="5.73644">
        <ele>526.2</ele>
        <time>2022-03-21T17:08:15Z</time>
      </trkpt>
      <trkpt lat="46.58779" lon="5.73648">
        <ele>526.2</ele>
        <time>2022-03-21T17:08:16Z</time>
      </trkpt>
      <trkpt lat="46.58777" lon="5.73652">
        <ele>526.6</ele>
        <time>2022-03-21T17:08:17Z</time>
      </trkpt>
      <trkpt lat="46.58776" lon="5.73656">
        <ele>526.8</ele>
        <time>2022-03-21T17:08:18Z</time>
      </trkpt>
      <trkpt lat="46.58775" lon="5.7366">
        <ele>526.8</ele>
        <time>2022-03-21T17:08:19Z</time>
      </trkpt>
      <trkpt lat="46.58774" lon="5.73664">
        <ele>527.2</ele>
        <time>2022-03-21T17:08:20Z</time>
      </trkpt>
      <trkpt lat="46.58773" lon="5.73668">
        <ele>527.4</ele>
        <time>2022-03-21T17:08:21Z</time>
      </trkpt>
      <trkpt lat="46.58772" lon="5.73672">
        <ele>527.4</ele>
        <time>2022-03-21T17:08:22Z</time>
      </trkpt>
      <trkpt lat="46.58771" lon="5.73675">
        <ele>527.6</ele>
        <time>2022-03-21T17:08:23Z</time>
      </trkpt>
      <trkpt lat="46.5877" lon="5.73679">
        <ele>527.6</ele>
        <time>2022-03-21T17:08:24Z</time>
      </trkpt>
      <trkpt lat="46.58769" lon="5.73683">
        <ele>528</ele>
        <time>2022-03-21T17:08:25Z</time>
      </trkpt>
      <trkpt lat="46.58768" lon="5.73687">
        <ele>528</ele>
        <time>2022-03-21T17:08:26Z</time>
      </trkpt>
      <trkpt lat="46.58767" lon="5.73691">
        <ele>528.4</ele>
        <time>2022-03-21T17:08:27Z</time>
      </trkpt>
      <trkpt lat="46.58766" lon="5.73694">
        <ele>528.6</ele>
        <time>2022-03-21T17:08:28Z</time>
      </trkpt>
      <trkpt lat="46.58764" lon="5.73698">
        <ele>528.8</ele>
        <time>2022-03-21T17:08:29Z</time>
      </trkpt>
      <trkpt lat="46.58763" lon="5.73702">
        <ele>529.2</ele>
        <time>2022-03-21T17:08:30Z</time>
      </trkpt>
      <trkpt lat="46.58762" lon="5.73706">
        <ele>529.4</ele>
        <time>2022-03-21T17:08:31Z</time>
      </trkpt>
      <trkpt lat="46.58761" lon="5.73711">
        <ele>529.4</ele>
        <time>2022-03-21T17:08:32Z</time>
      </trkpt>
      <trkpt lat="46.5876" lon="5.73714">
        <ele>529.8</ele>
        <time>2022-03-21T17:08:33Z</time>
      </trkpt>
      <trkpt lat="46.58759" lon="5.73718">
        <ele>530</ele>
        <time>2022-03-21T17:08:34Z</time>
      </trkpt>
      <trkpt lat="46.58758" lon="5.73722">
        <ele>530</ele>
        <time>2022-03-21T17:08:35Z</time>
      </trkpt>
      <trkpt lat="46.58757" lon="5.73726">
        <ele>530.2</ele>
        <time>2022-03-21T17:08:36Z</time>
      </trkpt>
      <trkpt lat="46.58755" lon="5.7373">
        <ele>530.2</ele>
        <time>2022-03-21T17:08:37Z</time>
      </trkpt>
      <trkpt lat="46.58754" lon="5.73734">
        <ele>530.6</ele>
        <time>2022-03-21T17:08:38Z</time>
      </trkpt>
      <trkpt lat="46.58753" lon="5.73738">
        <ele>530.6</ele>
        <time>2022-03-21T17:08:39Z</time>
      </trkpt>
      <trkpt lat="46.58751" lon="5.73742">
        <ele>531</ele>
        <time>2022-03-21T17:08:40Z</time>
      </trkpt>
      <trkpt lat="46.5875" lon="5.73746">
        <ele>531</ele>
        <time>2022-03-21T17:08:41Z</time>
      </trkpt>
      <trkpt lat="46.58748" lon="5.7375">
        <ele>531.4</ele>
        <time>2022-03-21T17:08:42Z</time>
      </trkpt>
      <trkpt lat="46.58747" lon="5.73754">
        <ele>531.6</ele>
        <time>2022-03-21T17:08:43Z</time>
      </trkpt>
      <trkpt lat="46.58746" lon="5.73758">
        <ele>531.6</ele>
        <time>2022-03-21T17:08:44Z</time>
      </trkpt>
      <trkpt lat="46.58745" lon="5.73762">
        <ele>532</ele>
        <time>2022-03-21T17:08:45Z</time>
      </trkpt>
      <trkpt lat="46.58743" lon="5.73766">
        <ele>532</ele>
        <time>2022-03-21T17:08:46Z</time>
      </trkpt>
      <trkpt lat="46.58742" lon="5.7377">
        <ele>532.4</ele>
        <time>2022-03-21T17:08:47Z</time>
      </trkpt>
      <trkpt lat="46.58741" lon="5.73774">
        <ele>532.4</ele>
        <time>2022-03-21T17:08:48Z</time>
      </trkpt>
      <trkpt lat="46.58739" lon="5.73778">
        <ele>532.8</ele>
        <time>2022-03-21T17:08:49Z</time>
      </trkpt>
      <trkpt lat="46.58738" lon="5.73781">
        <ele>532.8</ele>
        <time>2022-03-21T17:08:50Z</time>
      </trkpt>
      <trkpt lat="46.58736" lon="5.73785">
        <ele>533</ele>
        <time>2022-03-21T17:08:51Z</time>
      </trkpt>
      <trkpt lat="46.58734" lon="5.73789">
        <ele>533</ele>
        <time>2022-03-21T17:08:52Z</time>
      </trkpt>
      <trkpt lat="46.58732" lon="5.73793">
        <ele>533.2</ele>
        <time>2022-03-21T17:08:53Z</time>
      </trkpt>
      <trkpt lat="46.58731" lon="5.73797">
        <ele>533.2</ele>
        <time>2022-03-21T17:08:54Z</time>
      </trkpt>
      <trkpt lat="46.58729" lon="5.738">
        <ele>533.4</ele>
        <time>2022-03-21T17:08:55Z</time>
      </trkpt>
      <trkpt lat="46.58728" lon="5.73804">
        <ele>533.4</ele>
        <time>2022-03-21T17:08:56Z</time>
      </trkpt>
      <trkpt lat="46.58726" lon="5.73808">
        <ele>533.8</ele>
        <time>2022-03-21T17:08:57Z</time>
      </trkpt>
      <trkpt lat="46.58725" lon="5.73811">
        <ele>533.8</ele>
        <time>2022-03-21T17:08:58Z</time>
      </trkpt>
      <trkpt lat="46.58724" lon="5.73815">
        <ele>534</ele>
        <time>2022-03-21T17:08:59Z</time>
      </trkpt>
      <trkpt lat="46.58722" lon="5.73818">
        <ele>534</ele>
        <time>2022-03-21T17:09:00Z</time>
      </trkpt>
      <trkpt lat="46.58721" lon="5.73822">
        <ele>534.2</ele>
        <time>2022-03-21T17:09:01Z</time>
      </trkpt>
      <trkpt lat="46.58719" lon="5.73826">
        <ele>534.2</ele>
        <time>2022-03-21T17:09:02Z</time>
      </trkpt>
      <trkpt lat="46.58718" lon="5.73829">
        <ele>534.6</ele>
        <time>2022-03-21T17:09:03Z</time>
      </trkpt>
      <trkpt lat="46.58716" lon="5.73833">
        <ele>534.6</ele>
        <time>2022-03-21T17:09:04Z</time>
      </trkpt>
      <trkpt lat="46.58714" lon="5.73837">
        <ele>534.8</ele>
        <time>2022-03-21T17:09:05Z</time>
      </trkpt>
      <trkpt lat="46.58713" lon="5.73841">
        <ele>534.8</ele>
        <time>2022-03-21T17:09:06Z</time>
      </trkpt>
      <trkpt lat="46.58711" lon="5.73845">
        <ele>535.2</ele>
        <time>2022-03-21T17:09:07Z</time>
      </trkpt>
      <trkpt lat="46.58709" lon="5.73849">
        <ele>535.2</ele>
        <time>2022-03-21T17:09:08Z</time>
      </trkpt>
      <trkpt lat="46.58708" lon="5.73853">
        <ele>535.6</ele>
        <time>2022-03-21T17:09:09Z</time>
      </trkpt>
      <trkpt lat="46.58706" lon="5.73857">
        <ele>535.6</ele>
        <time>2022-03-21T17:09:10Z</time>
      </trkpt>
      <trkpt lat="46.58704" lon="5.73861">
        <ele>535.8</ele>
        <time>2022-03-21T17:09:11Z</time>
      </trkpt>
      <trkpt lat="46.58702" lon="5.73865">
        <ele>535.8</ele>
        <time>2022-03-21T17:09:12Z</time>
      </trkpt>
      <trkpt lat="46.58701" lon="5.73869">
        <ele>536</ele>
        <time>2022-03-21T17:09:13Z</time>
      </trkpt>
      <trkpt lat="46.58699" lon="5.73873">
        <ele>536</ele>
        <time>2022-03-21T17:09:14Z</time>
      </trkpt>
      <trkpt lat="46.58697" lon="5.73877">
        <ele>536.4</ele>
        <time>2022-03-21T17:09:15Z</time>
      </trkpt>
      <trkpt lat="46.58696" lon="5.73881">
        <ele>536.4</ele>
        <time>2022-03-21T17:09:16Z</time>
      </trkpt>
      <trkpt lat="46.58694" lon="5.73885">
        <ele>536.6</ele>
        <time>2022-03-21T17:09:17Z</time>
      </trkpt>
      <trkpt lat="46.58692" lon="5.73889">
        <ele>536.6</ele>
        <time>2022-03-21T17:09:18Z</time>
      </trkpt>
      <trkpt lat="46.5869" lon="5.73893">
        <ele>536.6</ele>
        <time>2022-03-21T17:09:19Z</time>
      </trkpt>
      <trkpt lat="46.58688" lon="5.73897">
        <ele>537</ele>
        <time>2022-03-21T17:09:20Z</time>
      </trkpt>
      <trkpt lat="46.58686" lon="5.73901">
        <ele>537</ele>
        <time>2022-03-21T17:09:21Z</time>
      </trkpt>
      <trkpt lat="46.58684" lon="5.73905">
        <ele>537.2</ele>
        <time>2022-03-21T17:09:22Z</time>
      </trkpt>
      <trkpt lat="46.58682" lon="5.73909">
        <ele>537.2</ele>
        <time>2022-03-21T17:09:23Z</time>
      </trkpt>
      <trkpt lat="46.5868" lon="5.73913">
        <ele>537.4</ele>
        <time>2022-03-21T17:09:24Z</time>
      </trkpt>
      <trkpt lat="46.58677" lon="5.73918">
        <ele>537.4</ele>
        <time>2022-03-21T17:09:25Z</time>
      </trkpt>
      <trkpt lat="46.58675" lon="5.73922">
        <ele>537.8</ele>
        <time>2022-03-21T17:09:26Z</time>
      </trkpt>
      <trkpt lat="46.58672" lon="5.73927">
        <ele>537.8</ele>
        <time>2022-03-21T17:09:27Z</time>
      </trkpt>
      <trkpt lat="46.5867" lon="5.73931">
        <ele>538</ele>
        <time>2022-03-21T17:09:28Z</time>
      </trkpt>
      <trkpt lat="46.58667" lon="5.73936">
        <ele>538</ele>
        <time>2022-03-21T17:09:29Z</time>
      </trkpt>
      <trkpt lat="46.58664" lon="5.73941">
        <ele>538</ele>
        <time>2022-03-21T17:09:30Z</time>
      </trkpt>
      <trkpt lat="46.58661" lon="5.73945">
        <ele>538.2</ele>
        <time>2022-03-21T17:09:31Z</time>
      </trkpt>
      <trkpt lat="46.58659" lon="5.7395">
        <ele>538.2</ele>
        <time>2022-03-21T17:09:32Z</time>
      </trkpt>
      <trkpt lat="46.58656" lon="5.73955">
        <ele>538.4</ele>
        <time>2022-03-21T17:09:33Z</time>
      </trkpt>
      <trkpt lat="46.58654" lon="5.7396">
        <ele>538.4</ele>
        <time>2022-03-21T17:09:34Z</time>
      </trkpt>
      <trkpt lat="46.58651" lon="5.73965">
        <ele>538.4</ele>
        <time>2022-03-21T17:09:35Z</time>
      </trkpt>
      <trkpt lat="46.58648" lon="5.7397">
        <ele>538.4</ele>
        <time>2022-03-21T17:09:36Z</time>
      </trkpt>
      <trkpt lat="46.58646" lon="5.73975">
        <ele>538.6</ele>
        <time>2022-03-21T17:09:37Z</time>
      </trkpt>
      <trkpt lat="46.58643" lon="5.7398">
        <ele>538.6</ele>
        <time>2022-03-21T17:09:38Z</time>
      </trkpt>
      <trkpt lat="46.5864" lon="5.73985">
        <ele>538.6</ele>
        <time>2022-03-21T17:09:39Z</time>
      </trkpt>
      <trkpt lat="46.58638" lon="5.7399">
        <ele>539.2</ele>
        <time>2022-03-21T17:09:40Z</time>
      </trkpt>
      <trkpt lat="46.58635" lon="5.73994">
        <ele>539.2</ele>
        <time>2022-03-21T17:09:41Z</time>
      </trkpt>
      <trkpt lat="46.58633" lon="5.73999">
        <ele>539.2</ele>
        <time>2022-03-21T17:09:42Z</time>
      </trkpt>
      <trkpt lat="46.5863" lon="5.74004">
        <ele>539.2</ele>
        <time>2022-03-21T17:09:43Z</time>
      </trkpt>
      <trkpt lat="46.58628" lon="5.74008">
        <ele>539.4</ele>
        <time>2022-03-21T17:09:44Z</time>
      </trkpt>
      <trkpt lat="46.58625" lon="5.74013">
        <ele>539.4</ele>
        <time>2022-03-21T17:09:45Z</time>
      </trkpt>
      <trkpt lat="46.58622" lon="5.74018">
        <ele>539.4</ele>
        <time>2022-03-21T17:09:46Z</time>
      </trkpt>
      <trkpt lat="46.5862" lon="5.74022">
        <ele>539.6</ele>
        <time>2022-03-21T17:09:47Z</time>
      </trkpt>
      <trkpt lat="46.58617" lon="5.74027">
        <ele>539.6</ele>
        <time>2022-03-21T17:09:48Z</time>
      </trkpt>
      <trkpt lat="46.58614" lon="5.74032">
        <ele>539.6</ele>
        <time>2022-03-21T17:09:49Z</time>
      </trkpt>
      <trkpt lat="46.58611" lon="5.74037">
        <ele>539.8</ele>
        <time>2022-03-21T17:09:50Z</time>
      </trkpt>
      <trkpt lat="46.58608" lon="5.74042">
        <ele>539.8</ele>
        <time>2022-03-21T17:09:51Z</time>
      </trkpt>
      <trkpt lat="46.58605" lon="5.74048">
        <ele>540.2</ele>
        <time>2022-03-21T17:09:53Z</time>
      </trkpt>
      <trkpt lat="46.58603" lon="5.74053">
        <ele>540.4</ele>
        <time>2022-03-21T17:09:54Z</time>
      </trkpt>
      <trkpt lat="46.586" lon="5.74058">
        <ele>540.4</ele>
        <time>2022-03-21T17:09:55Z</time>
      </trkpt>
      <trkpt lat="46.58597" lon="5.74063">
        <ele>540.6</ele>
        <time>2022-03-21T17:09:56Z</time>
      </trkpt>
      <trkpt lat="46.58594" lon="5.74068">
        <ele>540.6</ele>
        <time>2022-03-21T17:09:57Z</time>
      </trkpt>
      <trkpt lat="46.58591" lon="5.74074">
        <ele>540.8</ele>
        <time>2022-03-21T17:09:58Z</time>
      </trkpt>
      <trkpt lat="46.58588" lon="5.74079">
        <ele>540.8</ele>
        <time>2022-03-21T17:09:59Z</time>
      </trkpt>
      <trkpt lat="46.58585" lon="5.74084">
        <ele>541</ele>
        <time>2022-03-21T17:10:00Z</time>
      </trkpt>
      <trkpt lat="46.58582" lon="5.7409">
        <ele>541</ele>
        <time>2022-03-21T17:10:01Z</time>
      </trkpt>
      <trkpt lat="46.58579" lon="5.74095">
        <ele>541</ele>
        <time>2022-03-21T17:10:02Z</time>
      </trkpt>
      <trkpt lat="46.58576" lon="5.74101">
        <ele>541.2</ele>
        <time>2022-03-21T17:10:03Z</time>
      </trkpt>
      <trkpt lat="46.58573" lon="5.74106">
        <ele>541.2</ele>
        <time>2022-03-21T17:10:04Z</time>
      </trkpt>
      <trkpt lat="46.58569" lon="5.74112">
        <ele>541.4</ele>
        <time>2022-03-21T17:10:05Z</time>
      </trkpt>
      <trkpt lat="46.58566" lon="5.74117">
        <ele>541.4</ele>
        <time>2022-03-21T17:10:06Z</time>
      </trkpt>
      <trkpt lat="46.58563" lon="5.74123">
        <ele>541.8</ele>
        <time>2022-03-21T17:10:07Z</time>
      </trkpt>
      <trkpt lat="46.5856" lon="5.74128">
        <ele>541.8</ele>
        <time>2022-03-21T17:10:08Z</time>
      </trkpt>
      <trkpt lat="46.58557" lon="5.74134">
        <ele>541.8</ele>
        <time>2022-03-21T17:10:09Z</time>
      </trkpt>
      <trkpt lat="46.58553" lon="5.7414">
        <ele>542</ele>
        <time>2022-03-21T17:10:10Z</time>
      </trkpt>
      <trkpt lat="46.58547" lon="5.74151">
        <ele>542</ele>
        <time>2022-03-21T17:10:11Z</time>
      </trkpt>
      <trkpt lat="46.58544" lon="5.74157">
        <ele>542.2</ele>
        <time>2022-03-21T17:10:12Z</time>
      </trkpt>
      <trkpt lat="46.5854" lon="5.74163">
        <ele>542.2</ele>
        <time>2022-03-21T17:10:13Z</time>
      </trkpt>
      <trkpt lat="46.58537" lon="5.74169">
        <ele>542.6</ele>
        <time>2022-03-21T17:10:14Z</time>
      </trkpt>
    </trkseg>
  </trk>
</gpx>